<?xml version='1.0' encoding='UTF-8'?><gpx version="1.1" creator="JPX - https://github.com/jenetics/jpx" xmlns="http://www.topografix.com/GPX/1/1"><trk><trkseg><trkpt lat="31.13287890087854" lon="-4.01317801620881"><ele>706.0</ele><time>2026-04-27T05:57:32.978Z</time></trkpt><trkpt lat="31.132875787370608" lon="-4.013256852789198"><ele>706.0</ele><time>2026-04-27T05:57:35.978Z</time></trkpt><trkpt lat="31.132904627319473" lon="-4.0133325922625085"><ele>706.0</ele><time>2026-04-27T05:57:40Z</time></trkpt><trkpt lat="31.132942814041098" lon="-4.013401793472225"><ele>706.0</ele><time>2026-04-27T05:57:46Z</time></trkpt><trkpt lat="31.132972825095678" lon="-4.0134679970951215"><ele>706.0</ele><time>2026-04-27T05:57:51Z</time></trkpt><trkpt lat="31.1330382480927" lon="-4.013424630374676"><ele>706.0</ele><time>2026-04-27T05:58:06Z</time></trkpt><trkpt lat="31.13307954432889" lon="-4.0135416947019475"><ele>706.5</ele><time>2026-04-27T06:00:37.999Z</time></trkpt><trkpt lat="31.13307432852186" lon="-4.013629014119459"><ele>707.0</ele><time>2026-04-27T06:00:39.999Z</time></trkpt><trkpt lat="31.132996092045843" lon="-4.013664702211658"><ele>707.5</ele><time>2026-04-27T06:00:41.999Z</time></trkpt><trkpt lat="31.13291110447791" lon="-4.01368543154729"><ele>708.0</ele><time>2026-04-27T06:00:43.999Z</time></trkpt><trkpt lat="31.132824256171567" lon="-4.0136668101096555"><ele>708.5</ele><time>2026-04-27T06:00:45.999Z</time></trkpt><trkpt lat="31.13274396769845" lon="-4.0136173255183145"><ele>709.0</ele><time>2026-04-27T06:00:47.999Z</time></trkpt><trkpt lat="31.13266887723824" lon="-4.0135743843828475"><ele>709.0</ele><time>2026-04-27T06:00:49.999Z</time></trkpt><trkpt lat="31.132589947233278" lon="-4.013547092619698"><ele>709.0</ele><time>2026-04-27T06:00:51.999Z</time></trkpt><trkpt lat="31.132523428843157" lon="-4.01353867638874"><ele>709.0</ele><time>2026-04-27T06:00:53.999Z</time></trkpt><trkpt lat="31.132436111578006" lon="-4.013583618339632"><ele>709.0</ele><time>2026-04-27T06:00:55.999Z</time></trkpt><trkpt lat="31.13237422343976" lon="-4.013604723622238"><ele>709.0</ele><time>2026-04-27T06:00:58.999Z</time></trkpt><trkpt lat="31.132323349831154" lon="-4.0136609896068185"><ele>709.0</ele><time>2026-04-27T06:01:00.999Z</time></trkpt><trkpt lat="31.132261406519962" lon="-4.013702277823256"><ele>709.0</ele><time>2026-04-27T06:01:02.999Z</time></trkpt><trkpt lat="31.132123364720453" lon="-4.013823754379747"><ele>709.0</ele><time>2026-04-27T06:01:04.999Z</time></trkpt><trkpt lat="31.132066692674" lon="-4.0139051773266825"><ele>709.0</ele><time>2026-04-27T06:01:06.999Z</time></trkpt><trkpt lat="31.13201850855915" lon="-4.0139903309234946"><ele>709.0</ele><time>2026-04-27T06:01:08.999Z</time></trkpt><trkpt lat="31.131972657116815" lon="-4.01407866609565"><ele>709.0</ele><time>2026-04-27T06:01:10.999Z</time></trkpt><trkpt lat="31.131929268815785" lon="-4.014185808051737"><ele>709.8000000000001</ele><time>2026-04-27T06:01:12.999Z</time></trkpt><trkpt lat="31.131887783800455" lon="-4.014281448870025"><ele>710.6</ele><time>2026-04-27T06:01:14.999Z</time></trkpt><trkpt lat="31.131840703199103" lon="-4.014386126945206"><ele>711.4</ele><time>2026-04-27T06:01:16.999Z</time></trkpt><trkpt lat="31.13178591089933" lon="-4.014493484623909"><ele>712.2</ele><time>2026-04-27T06:01:18.999Z</time></trkpt><trkpt lat="31.131702605426614" lon="-4.014604064722406"><ele>713.0</ele><time>2026-04-27T06:01:20.999Z</time></trkpt><trkpt lat="31.13165494697186" lon="-4.014671125209132"><ele>713.0</ele><time>2026-04-27T06:01:21.999Z</time></trkpt><trkpt lat="31.131614425546786" lon="-4.014730207239034"><ele>713.0</ele><time>2026-04-27T06:01:22.999Z</time></trkpt><trkpt lat="31.131565356626496" lon="-4.014845411936279"><ele>713.0</ele><time>2026-04-27T06:01:24.999Z</time></trkpt><trkpt lat="31.131536805594983" lon="-4.01491426455154"><ele>713.0</ele><time>2026-04-27T06:01:25.999Z</time></trkpt><trkpt lat="31.131513902238105" lon="-4.014983089030035"><ele>713.0</ele><time>2026-04-27T06:01:26.999Z</time></trkpt><trkpt lat="31.131483059863328" lon="-4.015057815307351"><ele>713.0</ele><time>2026-04-27T06:01:27.999Z</time></trkpt><trkpt lat="31.131456724856385" lon="-4.015134361053741"><ele>713.0</ele><time>2026-04-27T06:01:28.999Z</time></trkpt><trkpt lat="31.131437734912435" lon="-4.015209489027403"><ele>712.8333333333333</ele><time>2026-04-27T06:01:29.999Z</time></trkpt><trkpt lat="31.131423038461843" lon="-4.015288186834139"><ele>712.6666666666666</ele><time>2026-04-27T06:01:30.999Z</time></trkpt><trkpt lat="31.13140333153642" lon="-4.015365286757501"><ele>712.5</ele><time>2026-04-27T06:01:31.999Z</time></trkpt><trkpt lat="31.131382832484213" lon="-4.015439949108105"><ele>712.3333333333334</ele><time>2026-04-27T06:01:32.999Z</time></trkpt><trkpt lat="31.131345517168825" lon="-4.015574260721421"><ele>712.1666666666667</ele><time>2026-04-27T06:01:34.999Z</time></trkpt><trkpt lat="31.131324969467897" lon="-4.015647148857303"><ele>712.0</ele><time>2026-04-27T06:01:35.999Z</time></trkpt><trkpt lat="31.13130358179719" lon="-4.0157206944731625"><ele>712.0</ele><time>2026-04-27T06:01:36.999Z</time></trkpt><trkpt lat="31.131279088624296" lon="-4.015803844550384"><ele>712.0</ele><time>2026-04-27T06:01:37.999Z</time></trkpt><trkpt lat="31.131252079056274" lon="-4.015876593825056"><ele>712.0</ele><time>2026-04-27T06:01:38.999Z</time></trkpt><trkpt lat="31.131196834604246" lon="-4.016007502269305"><ele>712.0</ele><time>2026-04-27T06:01:40.999Z</time></trkpt><trkpt lat="31.13115884236505" lon="-4.016082317790354"><ele>712.0</ele><time>2026-04-27T06:01:41.999Z</time></trkpt><trkpt lat="31.131112430550896" lon="-4.016208086961687"><ele>711.1666666666667</ele><time>2026-04-27T06:01:43.999Z</time></trkpt><trkpt lat="31.13105994482836" lon="-4.016327997229484"><ele>710.3333333333334</ele><time>2026-04-27T06:01:45.999Z</time></trkpt><trkpt lat="31.13102859613657" lon="-4.016450721471513"><ele>709.5</ele><time>2026-04-27T06:01:48Z</time></trkpt><trkpt lat="31.131009714226597" lon="-4.016541619775398"><ele>708.6666666666666</ele><time>2026-04-27T06:01:49Z</time></trkpt><trkpt lat="31.13099453106536" lon="-4.016621495901661"><ele>707.8333333333333</ele><time>2026-04-27T06:01:50Z</time></trkpt><trkpt lat="31.130979745773523" lon="-4.016702262179848"><ele>707.0</ele><time>2026-04-27T06:01:51Z</time></trkpt><trkpt lat="31.130961964579903" lon="-4.016779801635477"><ele>706.8333333333333</ele><time>2026-04-27T06:01:52Z</time></trkpt><trkpt lat="31.130942932913424" lon="-4.016856432754289"><ele>706.6666666666666</ele><time>2026-04-27T06:01:53Z</time></trkpt><trkpt lat="31.130926502939957" lon="-4.016934331196413"><ele>706.5</ele><time>2026-04-27T06:01:54Z</time></trkpt><trkpt lat="31.13089233624185" lon="-4.017077211194988"><ele>706.3333333333334</ele><time>2026-04-27T06:01:56Z</time></trkpt><trkpt lat="31.130876511029346" lon="-4.017150784276803"><ele>706.1666666666667</ele><time>2026-04-27T06:01:57Z</time></trkpt><trkpt lat="31.130848757187035" lon="-4.01726364165122"><ele>706.0</ele><time>2026-04-27T06:01:59Z</time></trkpt><trkpt lat="31.130827831782387" lon="-4.017361170621499"><ele>706.0</ele><time>2026-04-27T06:02:01Z</time></trkpt><trkpt lat="31.130809385587387" lon="-4.017441572459"><ele>706.0</ele><time>2026-04-27T06:02:03Z</time></trkpt><trkpt lat="31.130793294949974" lon="-4.01751388917203"><ele>706.0</ele><time>2026-04-27T06:02:07Z</time></trkpt><trkpt lat="31.13077293262001" lon="-4.017591582632246"><ele>706.0</ele><time>2026-04-27T06:02:09Z</time></trkpt><trkpt lat="31.130764840977" lon="-4.017700079343554"><ele>706.0</ele><time>2026-04-27T06:02:11Z</time></trkpt><trkpt lat="31.130773733943" lon="-4.017807892435985"><ele>706.0</ele><time>2026-04-27T06:02:13Z</time></trkpt><trkpt lat="31.130802085009275" lon="-4.017889862118518"><ele>706.0</ele><time>2026-04-27T06:02:15Z</time></trkpt><trkpt lat="31.130858966103254" lon="-4.017921514299815"><ele>706.0</ele><time>2026-04-27T06:02:17Z</time></trkpt><trkpt lat="31.130927212518777" lon="-4.017857995066304"><ele>706.0</ele><time>2026-04-27T06:02:20Z</time></trkpt><trkpt lat="31.130952279582026" lon="-4.017760759622525"><ele>706.0</ele><time>2026-04-27T06:02:22Z</time></trkpt><trkpt lat="31.130973064721385" lon="-4.017648931216467"><ele>706.0</ele><time>2026-04-27T06:02:24Z</time></trkpt><trkpt lat="31.131002059681272" lon="-4.017554015144893"><ele>706.0</ele><time>2026-04-27T06:02:26Z</time></trkpt><trkpt lat="31.13103215365494" lon="-4.017479682193633"><ele>706.0</ele><time>2026-04-27T06:02:28Z</time></trkpt><trkpt lat="31.131039650617797" lon="-4.017383703669226"><ele>706.0</ele><time>2026-04-27T06:02:30Z</time></trkpt><trkpt lat="31.131024259287774" lon="-4.017298202529577"><ele>706.0</ele><time>2026-04-27T06:02:32Z</time></trkpt><trkpt lat="31.130988560536917" lon="-4.017229957473068"><ele>706.0</ele><time>2026-04-27T06:02:56.999Z</time></trkpt><trkpt lat="31.131028818423" lon="-4.017294028650575"><ele>706.0</ele><time>2026-04-27T06:18:49Z</time></trkpt><trkpt lat="31.131040979017282" lon="-4.017378742907488"><ele>706.0</ele><time>2026-04-27T06:18:52Z</time></trkpt><trkpt lat="31.131021107221024" lon="-4.017466107283298"><ele>706.0</ele><time>2026-04-27T06:18:55Z</time></trkpt><trkpt lat="31.13100038449822" lon="-4.017573329186782"><ele>706.3333333333334</ele><time>2026-04-27T06:18:57.999Z</time></trkpt><trkpt lat="31.130974104435506" lon="-4.0176700944051"><ele>706.6666666666667</ele><time>2026-04-27T06:19:00.999Z</time></trkpt><trkpt lat="31.130953465094013" lon="-4.017743036299115"><ele>707.0</ele><time>2026-04-27T06:19:02.999Z</time></trkpt><trkpt lat="31.130920404245877" lon="-4.0178497609879145"><ele>707.3333333333334</ele><time>2026-04-27T06:19:04.999Z</time></trkpt><trkpt lat="31.13089624672327" lon="-4.017928322954634"><ele>707.6666666666666</ele><time>2026-04-27T06:19:05.999Z</time></trkpt><trkpt lat="31.13085776938037" lon="-4.018040316837625"><ele>708.0</ele><time>2026-04-27T06:19:07.999Z</time></trkpt><trkpt lat="31.130827395141896" lon="-4.0181453405016265"><ele>708.0</ele><time>2026-04-27T06:19:09.999Z</time></trkpt><trkpt lat="31.13079764655956" lon="-4.018239618359108"><ele>708.0</ele><time>2026-04-27T06:19:11.999Z</time></trkpt><trkpt lat="31.130756598639724" lon="-4.018336989200517"><ele>708.0</ele><time>2026-04-27T06:19:13.999Z</time></trkpt><trkpt lat="31.13073058061873" lon="-4.0184231476307115"><ele>708.0</ele><time>2026-04-27T06:19:15.999Z</time></trkpt><trkpt lat="31.130705144123933" lon="-4.01850955930115"><ele>708.0</ele><time>2026-04-27T06:19:17.999Z</time></trkpt><trkpt lat="31.13066636308805" lon="-4.018608491112184"><ele>708.0</ele><time>2026-04-27T06:19:20.999Z</time></trkpt><trkpt lat="31.130635893792906" lon="-4.01870485201742"><ele>707.8333333333334</ele><time>2026-04-27T06:19:23.999Z</time></trkpt><trkpt lat="31.13060586595553" lon="-4.018782211616428"><ele>707.6666666666666</ele><time>2026-04-27T06:19:27.999Z</time></trkpt><trkpt lat="31.130557848411172" lon="-4.0188700735771"><ele>707.5</ele><time>2026-04-27T06:20:13.999Z</time></trkpt><trkpt lat="31.130510904218337" lon="-4.018962028701508"><ele>707.3333333333333</ele><time>2026-04-27T06:20:16.999Z</time></trkpt><trkpt lat="31.130459311010792" lon="-4.019079379110833"><ele>707.1666666666666</ele><time>2026-04-27T06:20:18.999Z</time></trkpt><trkpt lat="31.130422736404352" lon="-4.019151677921675"><ele>707.0</ele><time>2026-04-27T06:20:19.999Z</time></trkpt><trkpt lat="31.13039560409117" lon="-4.0192484950816025"><ele>707.0</ele><time>2026-04-27T06:20:20.999Z</time></trkpt><trkpt lat="31.130348124238648" lon="-4.019334326646929"><ele>707.0</ele><time>2026-04-27T06:20:21.999Z</time></trkpt><trkpt lat="31.13030503449959" lon="-4.0194184364692145"><ele>707.0</ele><time>2026-04-27T06:20:22.999Z</time></trkpt><trkpt lat="31.130268049680577" lon="-4.019490317847235"><ele>707.0</ele><time>2026-04-27T06:20:23.999Z</time></trkpt><trkpt lat="31.130224002359036" lon="-4.019575925461134"><ele>707.0</ele><time>2026-04-27T06:20:25.999Z</time></trkpt><trkpt lat="31.13020081472342" lon="-4.019648888527894"><ele>707.0</ele><time>2026-04-27T06:20:29.998Z</time></trkpt><trkpt lat="31.13032861346555" lon="-4.019742236795459"><ele>707.0</ele><time>2026-04-27T06:20:33.998Z</time></trkpt><trkpt lat="31.130422530482875" lon="-4.019762860353365"><ele>707.0</ele><time>2026-04-27T06:20:35.998Z</time></trkpt><trkpt lat="31.130530509843176" lon="-4.019799194494323"><ele>707.0</ele><time>2026-04-27T06:20:37.999Z</time></trkpt><trkpt lat="31.130645791762625" lon="-4.01984889168722"><ele>707.0</ele><time>2026-04-27T06:20:39.999Z</time></trkpt><trkpt lat="31.130741433640154" lon="-4.019883237747943"><ele>707.0</ele><time>2026-04-27T06:20:41.999Z</time></trkpt><trkpt lat="31.13080998891977" lon="-4.0199099252348"><ele>706.6</ele><time>2026-04-27T06:20:43.999Z</time></trkpt><trkpt lat="31.130892511347884" lon="-4.019952045250453"><ele>706.2</ele><time>2026-04-27T06:22:03.999Z</time></trkpt><trkpt lat="31.13096228598406" lon="-4.019999909090933"><ele>705.8</ele><time>2026-04-27T06:22:06.999Z</time></trkpt><trkpt lat="31.13106192390526" lon="-4.020043953782196"><ele>705.4</ele><time>2026-04-27T06:22:09.999Z</time></trkpt><trkpt lat="31.13114725730581" lon="-4.0200865722472505"><ele>705.0</ele><time>2026-04-27T06:22:11.999Z</time></trkpt><trkpt lat="31.131219872933602" lon="-4.0201355298021495"><ele>705.0</ele><time>2026-04-27T06:22:13.999Z</time></trkpt><trkpt lat="31.131279498932663" lon="-4.020178802909492"><ele>705.0</ele><time>2026-04-27T06:22:15.999Z</time></trkpt><trkpt lat="31.131345914451238" lon="-4.020204960642058"><ele>705.0</ele><time>2026-04-27T06:22:17.999Z</time></trkpt><trkpt lat="31.131436012492532" lon="-4.02026653804709"><ele>705.0</ele><time>2026-04-27T06:22:19.999Z</time></trkpt><trkpt lat="31.13151762489261" lon="-4.020325962459577"><ele>705.0</ele><time>2026-04-27T06:22:21.999Z</time></trkpt><trkpt lat="31.131582961715484" lon="-4.020373536141379"><ele>705.0</ele><time>2026-04-27T06:22:23.999Z</time></trkpt><trkpt lat="31.131647899622802" lon="-4.020443622348408"><ele>705.0</ele><time>2026-04-27T06:22:26.999Z</time></trkpt><trkpt lat="31.13170218326179" lon="-4.020481007582261"><ele>705.0</ele><time>2026-04-27T06:22:28.999Z</time></trkpt><trkpt lat="31.131769381297147" lon="-4.020530635438779"><ele>705.0</ele><time>2026-04-27T06:22:30.998Z</time></trkpt><trkpt lat="31.131864468804068" lon="-4.020577590976001"><ele>705.0</ele><time>2026-04-27T06:22:32.998Z</time></trkpt><trkpt lat="31.131975884330704" lon="-4.020652982191828"><ele>705.0</ele><time>2026-04-27T06:22:34.998Z</time></trkpt><trkpt lat="31.13203894836613" lon="-4.020695014113133"><ele>705.0</ele><time>2026-04-27T06:22:35.998Z</time></trkpt><trkpt lat="31.132103332655678" lon="-4.020737818601875"><ele>705.0</ele><time>2026-04-27T06:22:36.998Z</time></trkpt><trkpt lat="31.132167758703606" lon="-4.020780473089615"><ele>705.0</ele><time>2026-04-27T06:22:37.998Z</time></trkpt><trkpt lat="31.132226917527674" lon="-4.020840690122591"><ele>705.0</ele><time>2026-04-27T06:22:38.998Z</time></trkpt><trkpt lat="31.132295242714083" lon="-4.020881775438828"><ele>705.0</ele><time>2026-04-27T06:22:39.998Z</time></trkpt><trkpt lat="31.132368752034576" lon="-4.02092990117438"><ele>705.0</ele><time>2026-04-27T06:22:40.998Z</time></trkpt><trkpt lat="31.132459236400027" lon="-4.020963245321612"><ele>705.0</ele><time>2026-04-27T06:22:41.998Z</time></trkpt><trkpt lat="31.13255096690458" lon="-4.021015483343607"><ele>705.2</ele><time>2026-04-27T06:22:42.999Z</time></trkpt><trkpt lat="31.132645996779896" lon="-4.021069017225106"><ele>705.4</ele><time>2026-04-27T06:22:43.999Z</time></trkpt><trkpt lat="31.132744938180576" lon="-4.021124649057465"><ele>705.5999999999999</ele><time>2026-04-27T06:22:44.999Z</time></trkpt><trkpt lat="31.132846062746793" lon="-4.021182811329977"><ele>705.8</ele><time>2026-04-27T06:22:45.999Z</time></trkpt><trkpt lat="31.1329522061061" lon="-4.0212438601856055"><ele>706.0</ele><time>2026-04-27T06:22:46.999Z</time></trkpt><trkpt lat="31.133060090520154" lon="-4.021305649624968"><ele>706.0</ele><time>2026-04-27T06:22:47.999Z</time></trkpt><trkpt lat="31.1331694879023" lon="-4.021364627018645"><ele>706.0</ele><time>2026-04-27T06:22:48.999Z</time></trkpt><trkpt lat="31.133281950474075" lon="-4.021424904101382"><ele>706.0</ele><time>2026-04-27T06:22:49.999Z</time></trkpt><trkpt lat="31.133387329290155" lon="-4.021499430349789"><ele>706.0</ele><time>2026-04-27T06:22:50.999Z</time></trkpt><trkpt lat="31.13349882068386" lon="-4.021554431058151"><ele>705.25</ele><time>2026-04-27T06:22:51.999Z</time></trkpt><trkpt lat="31.13360853084777" lon="-4.021607071106472"><ele>704.5</ele><time>2026-04-27T06:22:52.999Z</time></trkpt><trkpt lat="31.133716973514257" lon="-4.021657679542248"><ele>703.75</ele><time>2026-04-27T06:22:53.999Z</time></trkpt><trkpt lat="31.133829590359284" lon="-4.02168661531149"><ele>703.0</ele><time>2026-04-27T06:22:54.999Z</time></trkpt><trkpt lat="31.13393643548274" lon="-4.021733235154131"><ele>704.0</ele><time>2026-04-27T06:22:55.999Z</time></trkpt><trkpt lat="31.134044255797342" lon="-4.021780280503219"><ele>705.0</ele><time>2026-04-27T06:22:56.999Z</time></trkpt><trkpt lat="31.134152972019628" lon="-4.021827716764505"><ele>706.0</ele><time>2026-04-27T06:22:57.999Z</time></trkpt><trkpt lat="31.13426315206914" lon="-4.021875700856001"><ele>707.0</ele><time>2026-04-27T06:22:58.999Z</time></trkpt><trkpt lat="31.134374486110076" lon="-4.0219241809199335"><ele>707.0</ele><time>2026-04-27T06:22:59.999Z</time></trkpt><trkpt lat="31.1344843225316" lon="-4.0219729042248344"><ele>707.0</ele><time>2026-04-27T06:23:00.999Z</time></trkpt><trkpt lat="31.134591609811295" lon="-4.022019258311277"><ele>707.0</ele><time>2026-04-27T06:23:01.999Z</time></trkpt><trkpt lat="31.134695496224545" lon="-4.022065028513552"><ele>707.0</ele><time>2026-04-27T06:23:02.999Z</time></trkpt><trkpt lat="31.134797801057164" lon="-4.022110146508226"><ele>706.6</ele><time>2026-04-27T06:23:03.999Z</time></trkpt><trkpt lat="31.134899233016004" lon="-4.022154879552508"><ele>706.2</ele><time>2026-04-27T06:23:04.999Z</time></trkpt><trkpt lat="31.134998413751592" lon="-4.022198242031852"><ele>705.8</ele><time>2026-04-27T06:23:05.999Z</time></trkpt><trkpt lat="31.135092780053704" lon="-4.0222393802205625"><ele>705.4</ele><time>2026-04-27T06:23:06.999Z</time></trkpt><trkpt lat="31.135179905595013" lon="-4.022277703875278"><ele>705.0</ele><time>2026-04-27T06:23:07.999Z</time></trkpt><trkpt lat="31.13525796582688" lon="-4.022311430245628"><ele>705.0</ele><time>2026-04-27T06:23:08.999Z</time></trkpt><trkpt lat="31.13532896755469" lon="-4.022342546652549"><ele>705.0</ele><time>2026-04-27T06:23:09.999Z</time></trkpt><trkpt lat="31.135392460650397" lon="-4.022370574476137"><ele>705.0</ele><time>2026-04-27T06:23:10.999Z</time></trkpt><trkpt lat="31.135499909634206" lon="-4.0224179683926256"><ele>705.0</ele><time>2026-04-27T06:23:12.999Z</time></trkpt><trkpt lat="31.135576385906564" lon="-4.0224516631046265"><ele>705.0</ele><time>2026-04-27T06:23:14.999Z</time></trkpt><trkpt lat="31.135673666846607" lon="-4.022494524153651"><ele>705.0</ele><time>2026-04-27T06:23:16.999Z</time></trkpt><trkpt lat="31.135745228039248" lon="-4.022526038690597"><ele>706.0</ele><time>2026-04-27T06:23:17.999Z</time></trkpt><trkpt lat="31.135827993349736" lon="-4.022562439922516"><ele>707.0</ele><time>2026-04-27T06:23:18.999Z</time></trkpt><trkpt lat="31.13591678573385" lon="-4.0226014919366735"><ele>708.0</ele><time>2026-04-27T06:23:19.999Z</time></trkpt><trkpt lat="31.136012392628878" lon="-4.022642529180157"><ele>709.0</ele><time>2026-04-27T06:23:20.999Z</time></trkpt><trkpt lat="31.136115390733757" lon="-4.022688251933354"><ele>710.0</ele><time>2026-04-27T06:23:21.999Z</time></trkpt><trkpt lat="31.13622193731221" lon="-4.0227358145758245"><ele>710.0</ele><time>2026-04-27T06:23:22.999Z</time></trkpt><trkpt lat="31.136330367878962" lon="-4.022783639382013"><ele>710.0</ele><time>2026-04-27T06:23:23.999Z</time></trkpt><trkpt lat="31.13643875301904" lon="-4.022831402325196"><ele>710.0</ele><time>2026-04-27T06:23:24.999Z</time></trkpt><trkpt lat="31.13654654698014" lon="-4.022878904748827"><ele>710.0</ele><time>2026-04-27T06:23:25.999Z</time></trkpt><trkpt lat="31.13665357800044" lon="-4.0229260709168"><ele>709.75</ele><time>2026-04-27T06:23:26.999Z</time></trkpt><trkpt lat="31.13676031233683" lon="-4.022983434805102"><ele>709.5</ele><time>2026-04-27T06:23:27.999Z</time></trkpt><trkpt lat="31.13686475504153" lon="-4.0230371891725065"><ele>709.25</ele><time>2026-04-27T06:23:28.999Z</time></trkpt><trkpt lat="31.136967238252133" lon="-4.0230899203357735"><ele>709.0</ele><time>2026-04-27T06:23:29.999Z</time></trkpt><trkpt lat="31.13706599943196" lon="-4.023140727620087"><ele>709.0</ele><time>2026-04-27T06:23:30.999Z</time></trkpt><trkpt lat="31.137158788043404" lon="-4.02318857439391"><ele>709.0</ele><time>2026-04-27T06:23:31.999Z</time></trkpt><trkpt lat="31.137237877303058" lon="-4.023248374461946"><ele>709.0</ele><time>2026-04-27T06:23:32.999Z</time></trkpt><trkpt lat="31.13731962394828" lon="-4.023286616287702"><ele>709.0</ele><time>2026-04-27T06:23:33.999Z</time></trkpt><trkpt lat="31.13739539876005" lon="-4.02332507017221"><ele>709.0</ele><time>2026-04-27T06:23:34.999Z</time></trkpt><trkpt lat="31.13746473918818" lon="-4.023364300006753"><ele>709.0</ele><time>2026-04-27T06:23:35.999Z</time></trkpt><trkpt lat="31.137535007974602" lon="-4.023382087435132"><ele>709.6666666666667</ele><time>2026-04-27T06:23:36.999Z</time></trkpt><trkpt lat="31.137595589855923" lon="-4.023413309609604"><ele>710.3333333333334</ele><time>2026-04-27T06:23:37.999Z</time></trkpt><trkpt lat="31.1376578537217" lon="-4.023445124781479"><ele>711.0</ele><time>2026-04-27T06:23:38.999Z</time></trkpt><trkpt lat="31.137727274827377" lon="-4.023480504920996"><ele>711.6666666666666</ele><time>2026-04-27T06:23:39.999Z</time></trkpt><trkpt lat="31.137806909622025" lon="-4.0235210903583924"><ele>712.3333333333333</ele><time>2026-04-27T06:23:40.999Z</time></trkpt><trkpt lat="31.137896319663124" lon="-4.023555176287491"><ele>713.0</ele><time>2026-04-27T06:23:41.999Z</time></trkpt><trkpt lat="31.137992809878934" lon="-4.023595569124332"><ele>713.0</ele><time>2026-04-27T06:23:42.999Z</time></trkpt><trkpt lat="31.138095268567785" lon="-4.02363846048853"><ele>713.0</ele><time>2026-04-27T06:23:43.999Z</time></trkpt><trkpt lat="31.138202405196417" lon="-4.0236833101375575"><ele>713.0</ele><time>2026-04-27T06:23:44.999Z</time></trkpt><trkpt lat="31.13831333573657" lon="-4.023729747996861"><ele>713.0</ele><time>2026-04-27T06:23:45.999Z</time></trkpt><trkpt lat="31.138423819235797" lon="-4.023776229574439"><ele>713.0</ele><time>2026-04-27T06:23:46.999Z</time></trkpt><trkpt lat="31.138532842627207" lon="-4.02384274322904"><ele>713.0</ele><time>2026-04-27T06:23:47.999Z</time></trkpt><trkpt lat="31.13865188154716" lon="-4.023883546252719"><ele>713.0</ele><time>2026-04-27T06:23:48.999Z</time></trkpt><trkpt lat="31.138774856264277" lon="-4.023922901270557"><ele>713.0</ele><time>2026-04-27T06:23:49.999Z</time></trkpt><trkpt lat="31.138893748919667" lon="-4.023959540666662"><ele>713.0</ele><time>2026-04-27T06:23:50.999Z</time></trkpt><trkpt lat="31.139010493034544" lon="-4.024001186461133"><ele>713.0</ele><time>2026-04-27T06:23:51.999Z</time></trkpt><trkpt lat="31.139119066747725" lon="-4.02403654430242"><ele>713.0</ele><time>2026-04-27T06:23:52.999Z</time></trkpt><trkpt lat="31.139225217728146" lon="-4.024072791597888"><ele>713.0</ele><time>2026-04-27T06:23:53.999Z</time></trkpt><trkpt lat="31.139331351508808" lon="-4.024109837890782"><ele>712.2</ele><time>2026-04-27T06:23:54.999Z</time></trkpt><trkpt lat="31.13943799606955" lon="-4.024149907145053"><ele>711.4</ele><time>2026-04-27T06:23:55.999Z</time></trkpt><trkpt lat="31.13954440088444" lon="-4.024186707070621"><ele>710.6</ele><time>2026-04-27T06:23:56.999Z</time></trkpt><trkpt lat="31.139652080885686" lon="-4.024217745908332"><ele>709.8000000000001</ele><time>2026-04-27T06:23:57.999Z</time></trkpt><trkpt lat="31.139752611784893" lon="-4.024245106855134"><ele>709.0</ele><time>2026-04-27T06:23:58.999Z</time></trkpt><trkpt lat="31.139837199582363" lon="-4.024266070666829"><ele>709.3333333333334</ele><time>2026-04-27T06:23:59.999Z</time></trkpt><trkpt lat="31.13990749328756" lon="-4.024282124407615"><ele>709.6666666666667</ele><time>2026-04-27T06:24:00.999Z</time></trkpt><trkpt lat="31.140014130351048" lon="-4.024323538885561"><ele>710.0</ele><time>2026-04-27T06:24:02.999Z</time></trkpt><trkpt lat="31.14006240268404" lon="-4.024436155139137"><ele>710.3333333333334</ele><time>2026-04-27T06:24:04.999Z</time></trkpt><trkpt lat="31.140057377138035" lon="-4.024519742376251"><ele>710.6666666666666</ele><time>2026-04-27T06:24:05.999Z</time></trkpt><trkpt lat="31.140043990020743" lon="-4.0246114668781665"><ele>711.0</ele><time>2026-04-27T06:24:06.999Z</time></trkpt><trkpt lat="31.140027455242482" lon="-4.024699331355737"><ele>711.0</ele><time>2026-04-27T06:24:07.999Z</time></trkpt><trkpt lat="31.140012892096205" lon="-4.024783675176179"><ele>711.0</ele><time>2026-04-27T06:24:08.999Z</time></trkpt><trkpt lat="31.140003592155043" lon="-4.024867750846424"><ele>711.0</ele><time>2026-04-27T06:24:09.999Z</time></trkpt><trkpt lat="31.139987048532582" lon="-4.024946466577804"><ele>711.0</ele><time>2026-04-27T06:24:10.999Z</time></trkpt><trkpt lat="31.14002422019713" lon="-4.025034242507558"><ele>711.0</ele><time>2026-04-27T06:24:11.999Z</time></trkpt><trkpt lat="31.14005229049591" lon="-4.025118223512496"><ele>711.0</ele><time>2026-04-27T06:24:12.999Z</time></trkpt><trkpt lat="31.140093690910707" lon="-4.025195704532368"><ele>711.0</ele><time>2026-04-27T06:24:13.999Z</time></trkpt><trkpt lat="31.140141471580222" lon="-4.0252774632984005"><ele>711.0</ele><time>2026-04-27T06:24:14.999Z</time></trkpt><trkpt lat="31.140183304311613" lon="-4.025372434701258"><ele>711.0</ele><time>2026-04-27T06:24:15.999Z</time></trkpt><trkpt lat="31.140209837028717" lon="-4.025483264454902"><ele>711.0</ele><time>2026-04-27T06:24:16.999Z</time></trkpt><trkpt lat="31.140217764421937" lon="-4.025605291085104"><ele>711.0</ele><time>2026-04-27T06:24:17.999Z</time></trkpt><trkpt lat="31.140211350206044" lon="-4.025731484323289"><ele>711.25</ele><time>2026-04-27T06:24:18.999Z</time></trkpt><trkpt lat="31.140196759835057" lon="-4.025862152832322"><ele>711.5</ele><time>2026-04-27T06:24:19.999Z</time></trkpt><trkpt lat="31.14018454804749" lon="-4.0260013365147"><ele>711.75</ele><time>2026-04-27T06:24:20.999Z</time></trkpt><trkpt lat="31.140168870256325" lon="-4.026146522418935"><ele>712.0</ele><time>2026-04-27T06:24:21.999Z</time></trkpt><trkpt lat="31.14015336483761" lon="-4.02629746107087"><ele>712.0</ele><time>2026-04-27T06:24:22.999Z</time></trkpt><trkpt lat="31.140140671919927" lon="-4.026453375991214"><ele>712.0</ele><time>2026-04-27T06:24:23.999Z</time></trkpt><trkpt lat="31.140126132602564" lon="-4.026605306561116"><ele>712.0</ele><time>2026-04-27T06:24:24.999Z</time></trkpt><trkpt lat="31.14011185453171" lon="-4.0267552361733525"><ele>712.0</ele><time>2026-04-27T06:24:25.999Z</time></trkpt><trkpt lat="31.140095879554977" lon="-4.026902713764257"><ele>712.4000000000001</ele><time>2026-04-27T06:24:26.999Z</time></trkpt><trkpt lat="31.140083938333046" lon="-4.027036254748857"><ele>712.8000000000001</ele><time>2026-04-27T06:24:27.999Z</time></trkpt><trkpt lat="31.14006943081919" lon="-4.02715262166385"><ele>713.2</ele><time>2026-04-27T06:24:28.999Z</time></trkpt><trkpt lat="31.140055247642458" lon="-4.027266446969017"><ele>713.6</ele><time>2026-04-27T06:24:29.999Z</time></trkpt><trkpt lat="31.140045792655812" lon="-4.027378602496985"><ele>714.0</ele><time>2026-04-27T06:24:30.999Z</time></trkpt><trkpt lat="31.1400371719203" lon="-4.027492121057598"><ele>714.2</ele><time>2026-04-27T06:24:31.999Z</time></trkpt><trkpt lat="31.140031108324507" lon="-4.027609705497596"><ele>714.4000000000001</ele><time>2026-04-27T06:24:32.999Z</time></trkpt><trkpt lat="31.140024443914243" lon="-4.027730233335326"><ele>714.6</ele><time>2026-04-27T06:24:33.999Z</time></trkpt><trkpt lat="31.140018410010615" lon="-4.027862340260619"><ele>714.8</ele><time>2026-04-27T06:24:34.999Z</time></trkpt><trkpt lat="31.140007848799176" lon="-4.028003260934391"><ele>715.0</ele><time>2026-04-27T06:24:35.999Z</time></trkpt><trkpt lat="31.139993233877217" lon="-4.02815605661121"><ele>715.0</ele><time>2026-04-27T06:24:36.999Z</time></trkpt><trkpt lat="31.139978135990066" lon="-4.0283191036437"><ele>715.0</ele><time>2026-04-27T06:24:37.999Z</time></trkpt><trkpt lat="31.139962760321616" lon="-4.0284935920573774"><ele>715.0</ele><time>2026-04-27T06:24:38.999Z</time></trkpt><trkpt lat="31.139947128608963" lon="-4.028676351567869"><ele>715.0</ele><time>2026-04-27T06:24:39.999Z</time></trkpt><trkpt lat="31.13993214551371" lon="-4.028867079314018"><ele>715.0</ele><time>2026-04-27T06:24:40.999Z</time></trkpt><trkpt lat="31.139916543369672" lon="-4.029058071138669"><ele>715.0</ele><time>2026-04-27T06:24:41.999Z</time></trkpt><trkpt lat="31.139900456372544" lon="-4.029244476994785"><ele>715.0</ele><time>2026-04-27T06:24:42.999Z</time></trkpt><trkpt lat="31.139884641105454" lon="-4.029430816633553"><ele>715.0</ele><time>2026-04-27T06:24:43.999Z</time></trkpt><trkpt lat="31.1398710638043" lon="-4.029620895442188"><ele>715.0</ele><time>2026-04-27T06:24:44.999Z</time></trkpt><trkpt lat="31.13985605216997" lon="-4.0298126737690065"><ele>715.0</ele><time>2026-04-27T06:24:45.999Z</time></trkpt><trkpt lat="31.139841233302366" lon="-4.030005284067221"><ele>715.0</ele><time>2026-04-27T06:24:46.999Z</time></trkpt><trkpt lat="31.139824731379306" lon="-4.030201146964928"><ele>715.0</ele><time>2026-04-27T06:24:47.999Z</time></trkpt><trkpt lat="31.13980812786789" lon="-4.030398661302356"><ele>715.0</ele><time>2026-04-27T06:24:49Z</time></trkpt><trkpt lat="31.139791167915575" lon="-4.030597862399482"><ele>715.0</ele><time>2026-04-27T06:24:50Z</time></trkpt><trkpt lat="31.139775230269308" lon="-4.030796028899908"><ele>715.0</ele><time>2026-04-27T06:24:51Z</time></trkpt><trkpt lat="31.139762888497554" lon="-4.030981305841389"><ele>715.0</ele><time>2026-04-27T06:24:52Z</time></trkpt><trkpt lat="31.13973774338167" lon="-4.03130523074765"><ele>715.0</ele><time>2026-04-27T06:24:54Z</time></trkpt><trkpt lat="31.139725162699936" lon="-4.031455936793738"><ele>715.0</ele><time>2026-04-27T06:24:55Z</time></trkpt><trkpt lat="31.139712711210635" lon="-4.03160435596834"><ele>715.0</ele><time>2026-04-27T06:24:56Z</time></trkpt><trkpt lat="31.13970178115043" lon="-4.031751334419154"><ele>715.0</ele><time>2026-04-27T06:24:57Z</time></trkpt><trkpt lat="31.139691575269204" lon="-4.031893987775938"><ele>715.0</ele><time>2026-04-27T06:24:58Z</time></trkpt><trkpt lat="31.139682400620643" lon="-4.0320287593765105"><ele>715.0</ele><time>2026-04-27T06:24:59Z</time></trkpt><trkpt lat="31.139675396011082" lon="-4.032157815405468"><ele>715.0</ele><time>2026-04-27T06:25:00Z</time></trkpt><trkpt lat="31.139671262694083" lon="-4.032282619296296"><ele>715.0</ele><time>2026-04-27T06:25:01Z</time></trkpt><trkpt lat="31.139674963150128" lon="-4.032407367208788"><ele>715.0</ele><time>2026-04-27T06:25:02Z</time></trkpt><trkpt lat="31.13969189372092" lon="-4.032526347012101"><ele>714.6</ele><time>2026-04-27T06:25:03Z</time></trkpt><trkpt lat="31.139684972925036" lon="-4.03262698156116"><ele>714.2</ele><time>2026-04-27T06:25:04Z</time></trkpt><trkpt lat="31.139778973716354" lon="-4.032716525728592"><ele>713.8</ele><time>2026-04-27T06:25:05Z</time></trkpt><trkpt lat="31.13983921464066" lon="-4.03280252711558"><ele>713.4</ele><time>2026-04-27T06:25:06Z</time></trkpt><trkpt lat="31.139944969918453" lon="-4.032830401806662"><ele>713.0</ele><time>2026-04-27T06:25:07Z</time></trkpt><trkpt lat="31.14005373158607" lon="-4.032888749730614"><ele>713.0</ele><time>2026-04-27T06:25:08Z</time></trkpt><trkpt lat="31.140179743561625" lon="-4.032907380943145"><ele>713.0</ele><time>2026-04-27T06:25:09Z</time></trkpt><trkpt lat="31.140318687051302" lon="-4.032890476799289"><ele>713.0</ele><time>2026-04-27T06:25:10Z</time></trkpt><trkpt lat="31.14045487744601" lon="-4.032924969139916"><ele>713.0</ele><time>2026-04-27T06:25:11Z</time></trkpt><trkpt lat="31.140591710705245" lon="-4.032970681806072"><ele>713.5</ele><time>2026-04-27T06:25:12Z</time></trkpt><trkpt lat="31.140719609995863" lon="-4.0330608647995"><ele>714.0</ele><time>2026-04-27T06:25:13Z</time></trkpt><trkpt lat="31.140851996539002" lon="-4.033131535464976"><ele>714.5</ele><time>2026-04-27T06:25:14Z</time></trkpt><trkpt lat="31.140981234686567" lon="-4.03321408457298"><ele>715.0</ele><time>2026-04-27T06:25:15Z</time></trkpt><trkpt lat="31.141112053347545" lon="-4.033302690466835"><ele>715.6666666666667</ele><time>2026-04-27T06:25:16Z</time></trkpt><trkpt lat="31.14125015955618" lon="-4.033399225787064"><ele>716.3333333333334</ele><time>2026-04-27T06:25:17Z</time></trkpt><trkpt lat="31.141399910092257" lon="-4.033499134931479"><ele>717.0</ele><time>2026-04-27T06:25:18Z</time></trkpt><trkpt lat="31.141558700243195" lon="-4.033600619719592"><ele>717.0</ele><time>2026-04-27T06:25:19Z</time></trkpt><trkpt lat="31.141727396222745" lon="-4.033708429167806"><ele>717.0</ele><time>2026-04-27T06:25:20Z</time></trkpt><trkpt lat="31.141897019877753" lon="-4.03381902255419"><ele>717.0</ele><time>2026-04-27T06:25:21Z</time></trkpt><trkpt lat="31.142063935223167" lon="-4.033931020487523"><ele>717.0</ele><time>2026-04-27T06:25:22Z</time></trkpt><trkpt lat="31.142238066714224" lon="-4.034047730314472"><ele>717.0</ele><time>2026-04-27T06:25:23Z</time></trkpt><trkpt lat="31.14242051677567" lon="-4.034167553349613"><ele>717.0</ele><time>2026-04-27T06:25:24Z</time></trkpt><trkpt lat="31.142607362254676" lon="-4.034287463688136"><ele>718.0</ele><time>2026-04-27T06:25:25Z</time></trkpt><trkpt lat="31.142797299615765" lon="-4.034408858870586"><ele>719.0</ele><time>2026-04-27T06:25:26Z</time></trkpt><trkpt lat="31.142992256249894" lon="-4.03453393817508"><ele>720.0</ele><time>2026-04-27T06:25:27Z</time></trkpt><trkpt lat="31.143191967977156" lon="-4.034663055962334"><ele>721.5</ele><time>2026-04-27T06:25:28Z</time></trkpt><trkpt lat="31.143395420732983" lon="-4.034796806581868"><ele>723.0</ele><time>2026-04-27T06:25:29Z</time></trkpt><trkpt lat="31.143596853755177" lon="-4.034932212540494"><ele>723.0</ele><time>2026-04-27T06:25:30Z</time></trkpt><trkpt lat="31.14379621607735" lon="-4.035066641840776"><ele>723.0</ele><time>2026-04-27T06:25:31Z</time></trkpt><trkpt lat="31.143996440898956" lon="-4.035200544850987"><ele>723.0</ele><time>2026-04-27T06:25:32Z</time></trkpt><trkpt lat="31.144198816929663" lon="-4.035334417860044"><ele>723.0</ele><time>2026-04-27T06:25:33Z</time></trkpt><trkpt lat="31.144400453884572" lon="-4.035470667602688"><ele>723.0</ele><time>2026-04-27T06:25:34Z</time></trkpt><trkpt lat="31.14460443085519" lon="-4.03560988564427"><ele>723.0</ele><time>2026-04-27T06:25:35Z</time></trkpt><trkpt lat="31.144809897515767" lon="-4.03575044096755"><ele>721.0</ele><time>2026-04-27T06:25:36Z</time></trkpt><trkpt lat="31.145017876304255" lon="-4.035890883564589"><ele>719.0</ele><time>2026-04-27T06:25:37Z</time></trkpt><trkpt lat="31.145230843578318" lon="-4.036012596379652"><ele>719.0</ele><time>2026-04-27T06:25:37.999Z</time></trkpt><trkpt lat="31.145428587217328" lon="-4.036165836445703"><ele>719.0</ele><time>2026-04-27T06:25:38.999Z</time></trkpt><trkpt lat="31.145638027960096" lon="-4.036297241282025"><ele>719.0</ele><time>2026-04-27T06:25:39.999Z</time></trkpt><trkpt lat="31.14584943806113" lon="-4.036426998326004"><ele>719.0</ele><time>2026-04-27T06:25:40.999Z</time></trkpt><trkpt lat="31.146061564545448" lon="-4.036556289932908"><ele>718.5</ele><time>2026-04-27T06:25:41.999Z</time></trkpt><trkpt lat="31.146274108876547" lon="-4.036683560326672"><ele>718.0</ele><time>2026-04-27T06:25:42.999Z</time></trkpt><trkpt lat="31.146490511609432" lon="-4.03680214098687"><ele>717.5</ele><time>2026-04-27T06:25:43.999Z</time></trkpt><trkpt lat="31.146709998892806" lon="-4.036912941465141"><ele>717.0</ele><time>2026-04-27T06:25:44.999Z</time></trkpt><trkpt lat="31.146936590980257" lon="-4.037020689039963"><ele>717.0</ele><time>2026-04-27T06:25:45.999Z</time></trkpt><trkpt lat="31.14716923963183" lon="-4.037125043699821"><ele>717.0</ele><time>2026-04-27T06:25:46.999Z</time></trkpt><trkpt lat="31.147408129099244" lon="-4.037217993530769"><ele>720.0</ele><time>2026-04-27T06:25:47.999Z</time></trkpt><trkpt lat="31.147657465653428" lon="-4.03729018265326"><ele>723.0</ele><time>2026-04-27T06:25:48.999Z</time></trkpt><trkpt lat="31.14791235701308" lon="-4.03734406029578"><ele>723.0</ele><time>2026-04-27T06:25:49.999Z</time></trkpt><trkpt lat="31.148171935570403" lon="-4.037387513166704"><ele>723.0</ele><time>2026-04-27T06:25:50.999Z</time></trkpt><trkpt lat="31.14842990169834" lon="-4.037422293866737"><ele>722.0</ele><time>2026-04-27T06:25:51.999Z</time></trkpt><trkpt lat="31.14868440790137" lon="-4.037452516417618"><ele>721.0</ele><time>2026-04-27T06:25:52.999Z</time></trkpt><trkpt lat="31.148932350629302" lon="-4.037483184600497"><ele>720.5</ele><time>2026-04-27T06:25:53.999Z</time></trkpt><trkpt lat="31.149184581309346" lon="-4.037522372834675"><ele>720.0</ele><time>2026-04-27T06:25:54.999Z</time></trkpt><trkpt lat="31.149441523954344" lon="-4.037573015913773"><ele>720.0</ele><time>2026-04-27T06:25:55.999Z</time></trkpt><trkpt lat="31.14970283905993" lon="-4.037637304026351"><ele>720.0</ele><time>2026-04-27T06:25:56.999Z</time></trkpt><trkpt lat="31.149969784211763" lon="-4.037707925517601"><ele>720.5</ele><time>2026-04-27T06:25:57.999Z</time></trkpt><trkpt lat="31.150243551963705" lon="-4.037783912714765"><ele>721.0</ele><time>2026-04-27T06:25:58.999Z</time></trkpt><trkpt lat="31.15051875621133" lon="-4.037863294376772"><ele>722.0</ele><time>2026-04-27T06:25:59.999Z</time></trkpt><trkpt lat="31.150797011280346" lon="-4.037950432231331"><ele>723.0</ele><time>2026-04-27T06:26:00.999Z</time></trkpt><trkpt lat="31.151077818627446" lon="-4.0380407606652655"><ele>723.0</ele><time>2026-04-27T06:26:01.999Z</time></trkpt><trkpt lat="31.15135816598272" lon="-4.0381325847679115"><ele>723.0</ele><time>2026-04-27T06:26:02.999Z</time></trkpt><trkpt lat="31.15163352199492" lon="-4.038226215429321"><ele>722.0</ele><time>2026-04-27T06:26:03.999Z</time></trkpt><trkpt lat="31.151907419459572" lon="-4.038324744774653"><ele>721.0</ele><time>2026-04-27T06:26:04.999Z</time></trkpt><trkpt lat="31.152178872704106" lon="-4.038425890474745"><ele>720.0</ele><time>2026-04-27T06:26:05.999Z</time></trkpt><trkpt lat="31.15245222141366" lon="-4.03853058806007"><ele>719.0</ele><time>2026-04-27T06:26:06.999Z</time></trkpt><trkpt lat="31.152724996455248" lon="-4.038636207482284"><ele>719.0</ele><time>2026-04-27T06:26:07.999Z</time></trkpt><trkpt lat="31.152995838037985" lon="-4.038745141497004"><ele>719.0</ele><time>2026-04-27T06:26:08.999Z</time></trkpt><trkpt lat="31.153264502476294" lon="-4.038860518008519"><ele>720.5</ele><time>2026-04-27T06:26:09.999Z</time></trkpt><trkpt lat="31.153527071601708" lon="-4.038985585817037"><ele>722.0</ele><time>2026-04-27T06:26:10.999Z</time></trkpt><trkpt lat="31.15378795748041" lon="-4.039119083968317"><ele>722.0</ele><time>2026-04-27T06:26:11.999Z</time></trkpt><trkpt lat="31.154045483853107" lon="-4.039256736504937"><ele>722.0</ele><time>2026-04-27T06:26:12.999Z</time></trkpt><trkpt lat="31.154298913712637" lon="-4.039392193650634"><ele>722.0</ele><time>2026-04-27T06:26:13.999Z</time></trkpt><trkpt lat="31.154545150646637" lon="-4.039529776494373"><ele>722.0</ele><time>2026-04-27T06:26:14.999Z</time></trkpt><trkpt lat="31.154785697285245" lon="-4.039668844546097"><ele>723.0</ele><time>2026-04-27T06:26:15.999Z</time></trkpt><trkpt lat="31.155025930137523" lon="-4.039808192574749"><ele>724.0</ele><time>2026-04-27T06:26:16.999Z</time></trkpt><trkpt lat="31.15525661307943" lon="-4.039946330597039"><ele>723.0</ele><time>2026-04-27T06:26:17.999Z</time></trkpt><trkpt lat="31.155485918332182" lon="-4.040086915279431"><ele>722.0</ele><time>2026-04-27T06:26:18.999Z</time></trkpt><trkpt lat="31.155719581699657" lon="-4.040232336790867"><ele>721.5</ele><time>2026-04-27T06:26:19.999Z</time></trkpt><trkpt lat="31.155950884010167" lon="-4.040385763251704"><ele>721.0</ele><time>2026-04-27T06:26:20.999Z</time></trkpt><trkpt lat="31.156176442640156" lon="-4.040545322788416"><ele>721.0</ele><time>2026-04-27T06:26:21.999Z</time></trkpt><trkpt lat="31.156403648914427" lon="-4.040704609820446"><ele>721.0</ele><time>2026-04-27T06:26:22.999Z</time></trkpt><trkpt lat="31.1566320616484" lon="-4.040864100791778"><ele>722.0</ele><time>2026-04-27T06:26:23.999Z</time></trkpt><trkpt lat="31.156862159820427" lon="-4.041024173490929"><ele>723.0</ele><time>2026-04-27T06:26:24.999Z</time></trkpt><trkpt lat="31.15709000727551" lon="-4.041184188577793"><ele>723.0</ele><time>2026-04-27T06:26:25.999Z</time></trkpt><trkpt lat="31.15731943222995" lon="-4.041341814850099"><ele>723.0</ele><time>2026-04-27T06:26:26.999Z</time></trkpt><trkpt lat="31.15754799535797" lon="-4.041496593888964"><ele>723.5</ele><time>2026-04-27T06:26:27.999Z</time></trkpt><trkpt lat="31.157778502163804" lon="-4.041646223892638"><ele>724.0</ele><time>2026-04-27T06:26:28.999Z</time></trkpt><trkpt lat="31.158007595856045" lon="-4.041788544027057"><ele>723.5</ele><time>2026-04-27T06:26:29.999Z</time></trkpt><trkpt lat="31.158232031329515" lon="-4.041924135439543"><ele>723.0</ele><time>2026-04-27T06:26:30.999Z</time></trkpt><trkpt lat="31.15845492844421" lon="-4.042056371128398"><ele>723.0</ele><time>2026-04-27T06:26:31.999Z</time></trkpt><trkpt lat="31.158681295389673" lon="-4.04219008993928"><ele>723.0</ele><time>2026-04-27T06:26:32.999Z</time></trkpt><trkpt lat="31.15891133503871" lon="-4.042324963240019"><ele>723.5</ele><time>2026-04-27T06:26:33.999Z</time></trkpt><trkpt lat="31.159146681256985" lon="-4.042454927794976"><ele>724.0</ele><time>2026-04-27T06:26:34.999Z</time></trkpt><trkpt lat="31.159388989920508" lon="-4.042579595331502"><ele>724.0</ele><time>2026-04-27T06:26:35.999Z</time></trkpt><trkpt lat="31.159635705898364" lon="-4.042697633944212"><ele>724.0</ele><time>2026-04-27T06:26:36.999Z</time></trkpt><trkpt lat="31.15988417739367" lon="-4.042809777560072"><ele>724.5</ele><time>2026-04-27T06:26:37.999Z</time></trkpt><trkpt lat="31.160131996999933" lon="-4.042918793099071"><ele>725.0</ele><time>2026-04-27T06:26:38.999Z</time></trkpt><trkpt lat="31.16037459246869" lon="-4.04302685510993"><ele>725.0</ele><time>2026-04-27T06:26:39.999Z</time></trkpt><trkpt lat="31.16061551569474" lon="-4.043126236748189"><ele>725.0</ele><time>2026-04-27T06:26:40.999Z</time></trkpt><trkpt lat="31.160850300224677" lon="-4.043221506572516"><ele>724.5</ele><time>2026-04-27T06:26:41.999Z</time></trkpt><trkpt lat="31.16108025713349" lon="-4.043315754844319"><ele>724.0</ele><time>2026-04-27T06:26:42.999Z</time></trkpt><trkpt lat="31.161302618555066" lon="-4.043408327827082"><ele>724.0</ele><time>2026-04-27T06:26:43.999Z</time></trkpt><trkpt lat="31.16152195857172" lon="-4.043500635020382"><ele>724.0</ele><time>2026-04-27T06:26:44.999Z</time></trkpt><trkpt lat="31.1617412811533" lon="-4.043594784553445"><ele>725.0</ele><time>2026-04-27T06:26:45.999Z</time></trkpt><trkpt lat="31.161964071620933" lon="-4.043689283719827"><ele>726.0</ele><time>2026-04-27T06:26:46.999Z</time></trkpt><trkpt lat="31.162191534923004" lon="-4.04378265583795"><ele>725.0</ele><time>2026-04-27T06:26:47.999Z</time></trkpt><trkpt lat="31.162419267904095" lon="-4.043877602266828"><ele>724.0</ele><time>2026-04-27T06:26:48.999Z</time></trkpt><trkpt lat="31.16265030532604" lon="-4.043976414030261"><ele>724.0</ele><time>2026-04-27T06:26:49.999Z</time></trkpt><trkpt lat="31.162884967037975" lon="-4.044081933420838"><ele>724.0</ele><time>2026-04-27T06:26:50.999Z</time></trkpt><trkpt lat="31.163120524233364" lon="-4.044199757499326"><ele>724.5</ele><time>2026-04-27T06:26:51.999Z</time></trkpt><trkpt lat="31.16335495815189" lon="-4.044329110618497"><ele>725.0</ele><time>2026-04-27T06:26:52.999Z</time></trkpt><trkpt lat="31.163588492392467" lon="-4.044460734079043"><ele>725.0</ele><time>2026-04-27T06:26:54Z</time></trkpt><trkpt lat="31.163818621572815" lon="-4.044603189625549"><ele>725.0</ele><time>2026-04-27T06:26:55Z</time></trkpt><trkpt lat="31.16404345277517" lon="-4.044761923523191"><ele>725.0</ele><time>2026-04-27T06:26:56Z</time></trkpt><trkpt lat="31.164266418683493" lon="-4.0449309347810845"><ele>725.0</ele><time>2026-04-27T06:26:57Z</time></trkpt><trkpt lat="31.164488011366235" lon="-4.045100959777141"><ele>725.0</ele><time>2026-04-27T06:26:58Z</time></trkpt><trkpt lat="31.1647120690931" lon="-4.04526864738723"><ele>725.0</ele><time>2026-04-27T06:26:59Z</time></trkpt><trkpt lat="31.164939261548895" lon="-4.045436355282116"><ele>725.0</ele><time>2026-04-27T06:27:00Z</time></trkpt><trkpt lat="31.165169051597523" lon="-4.045607135575939"><ele>725.0</ele><time>2026-04-27T06:27:01Z</time></trkpt><trkpt lat="31.16540571319084" lon="-4.045780684744629"><ele>724.5</ele><time>2026-04-27T06:27:02Z</time></trkpt><trkpt lat="31.165650286045533" lon="-4.045951852891813"><ele>724.0</ele><time>2026-04-27T06:27:03Z</time></trkpt><trkpt lat="31.16590332933013" lon="-4.04611969189947"><ele>723.5</ele><time>2026-04-27T06:27:04Z</time></trkpt><trkpt lat="31.16617149018871" lon="-4.046271476821781"><ele>723.0</ele><time>2026-04-27T06:27:05Z</time></trkpt><trkpt lat="31.16645382466648" lon="-4.046404182386695"><ele>723.0</ele><time>2026-04-27T06:27:06Z</time></trkpt><trkpt lat="31.166755816794986" lon="-4.046523123571226"><ele>723.0</ele><time>2026-04-27T06:27:07Z</time></trkpt><trkpt lat="31.167062693939446" lon="-4.046643984816869"><ele>723.5</ele><time>2026-04-27T06:27:08Z</time></trkpt><trkpt lat="31.16736213865473" lon="-4.046779555982491"><ele>724.0</ele><time>2026-04-27T06:27:09Z</time></trkpt><trkpt lat="31.167652355388334" lon="-4.046924919743029"><ele>724.0</ele><time>2026-04-27T06:27:10Z</time></trkpt><trkpt lat="31.16793902425712" lon="-4.047077088830279"><ele>724.0</ele><time>2026-04-27T06:27:11Z</time></trkpt><trkpt lat="31.168228518469807" lon="-4.047235452533503"><ele>724.0</ele><time>2026-04-27T06:27:12Z</time></trkpt><trkpt lat="31.168515653848917" lon="-4.047394265723737"><ele>724.0</ele><time>2026-04-27T06:27:13Z</time></trkpt><trkpt lat="31.168802878303303" lon="-4.047549880423869"><ele>723.0</ele><time>2026-04-27T06:27:14Z</time></trkpt><trkpt lat="31.169091537833662" lon="-4.04771047456647"><ele>722.0</ele><time>2026-04-27T06:27:15Z</time></trkpt><trkpt lat="31.169372641085054" lon="-4.047870267575639"><ele>722.0</ele><time>2026-04-27T06:27:16Z</time></trkpt><trkpt lat="31.169611575224067" lon="-4.048001907469203"><ele>722.0</ele><time>2026-04-27T06:27:17Z</time></trkpt><trkpt lat="31.16982987288315" lon="-4.048119315529516"><ele>722.6666666666666</ele><time>2026-04-27T06:27:18Z</time></trkpt><trkpt lat="31.170034950624668" lon="-4.048237805206504"><ele>723.3333333333334</ele><time>2026-04-27T06:27:19Z</time></trkpt><trkpt lat="31.17022039329685" lon="-4.048370454392441"><ele>724.0</ele><time>2026-04-27T06:27:20Z</time></trkpt><trkpt lat="31.17040821100243" lon="-4.048529476395207"><ele>724.5</ele><time>2026-04-27T06:27:21Z</time></trkpt><trkpt lat="31.17059906177553" lon="-4.048714572562743"><ele>725.0</ele><time>2026-04-27T06:27:22Z</time></trkpt><trkpt lat="31.17079126867774" lon="-4.04890993897921"><ele>725.5</ele><time>2026-04-27T06:27:23Z</time></trkpt><trkpt lat="31.170984356767615" lon="-4.049116868026474"><ele>726.0</ele><time>2026-04-27T06:27:24Z</time></trkpt><trkpt lat="31.171171037514988" lon="-4.049336309846507"><ele>727.0</ele><time>2026-04-27T06:27:25Z</time></trkpt><trkpt lat="31.171349753922616" lon="-4.049561585104194"><ele>728.0</ele><time>2026-04-27T06:27:26Z</time></trkpt><trkpt lat="31.171515680016114" lon="-4.049792424664916"><ele>727.5</ele><time>2026-04-27T06:27:27Z</time></trkpt><trkpt lat="31.17166734933643" lon="-4.050026375878782"><ele>727.0</ele><time>2026-04-27T06:27:28Z</time></trkpt><trkpt lat="31.17180752723464" lon="-4.050258906139804"><ele>727.0</ele><time>2026-04-27T06:27:29Z</time></trkpt><trkpt lat="31.171938927755694" lon="-4.050478938177319"><ele>727.0</ele><time>2026-04-27T06:27:30Z</time></trkpt><trkpt lat="31.17208470138917" lon="-4.0506853199663455"><ele>726.5</ele><time>2026-04-27T06:27:31Z</time></trkpt><trkpt lat="31.17225799677059" lon="-4.05087653286304"><ele>726.0</ele><time>2026-04-27T06:27:32Z</time></trkpt><trkpt lat="31.172451720101833" lon="-4.0510526899643775"><ele>725.0</ele><time>2026-04-27T06:27:33Z</time></trkpt><trkpt lat="31.172673477481453" lon="-4.051179065129438"><ele>724.0</ele><time>2026-04-27T06:27:34Z</time></trkpt><trkpt lat="31.172894234065268" lon="-4.051320407531858"><ele>724.0</ele><time>2026-04-27T06:27:35Z</time></trkpt><trkpt lat="31.17311838089547" lon="-4.051463920557589"><ele>724.0</ele><time>2026-04-27T06:27:36Z</time></trkpt><trkpt lat="31.173349117181473" lon="-4.051610522987942"><ele>723.5</ele><time>2026-04-27T06:27:37Z</time></trkpt><trkpt lat="31.173568641483147" lon="-4.05178833991109"><ele>723.0</ele><time>2026-04-27T06:27:38Z</time></trkpt><trkpt lat="31.173801369804803" lon="-4.051946797881805"><ele>724.5</ele><time>2026-04-27T06:27:39Z</time></trkpt><trkpt lat="31.174035488643337" lon="-4.052113853002812"><ele>726.0</ele><time>2026-04-27T06:27:40Z</time></trkpt><trkpt lat="31.17426400981894" lon="-4.052299110927687"><ele>727.5</ele><time>2026-04-27T06:27:41Z</time></trkpt><trkpt lat="31.174485355018724" lon="-4.052495888058711"><ele>729.0</ele><time>2026-04-27T06:27:42Z</time></trkpt><trkpt lat="31.174704526818072" lon="-4.052707505143595"><ele>728.5</ele><time>2026-04-27T06:27:43Z</time></trkpt><trkpt lat="31.17491908711286" lon="-4.052928706046818"><ele>728.0</ele><time>2026-04-27T06:27:44Z</time></trkpt><trkpt lat="31.17512513509813" lon="-4.053160480841984"><ele>729.0</ele><time>2026-04-27T06:27:45Z</time></trkpt><trkpt lat="31.175315320359633" lon="-4.053397223196436"><ele>730.0</ele><time>2026-04-27T06:27:46Z</time></trkpt><trkpt lat="31.175494684992895" lon="-4.053634125335361"><ele>730.0</ele><time>2026-04-27T06:27:47Z</time></trkpt><trkpt lat="31.175677272592708" lon="-4.05385382795795"><ele>730.0</ele><time>2026-04-27T06:27:48Z</time></trkpt><trkpt lat="31.175871452447304" lon="-4.054035491216365"><ele>730.0</ele><time>2026-04-27T06:27:49Z</time></trkpt><trkpt lat="31.176078439392786" lon="-4.054188246131599"><ele>730.0</ele><time>2026-04-27T06:27:50Z</time></trkpt><trkpt lat="31.176305191037063" lon="-4.054317510234236"><ele>730.0</ele><time>2026-04-27T06:27:51Z</time></trkpt><trkpt lat="31.17655990743312" lon="-4.0544069571394745"><ele>730.0</ele><time>2026-04-27T06:27:52Z</time></trkpt><trkpt lat="31.176813962072654" lon="-4.054513417595626"><ele>730.0</ele><time>2026-04-27T06:27:53Z</time></trkpt><trkpt lat="31.17707642062232" lon="-4.054608816117413"><ele>730.0</ele><time>2026-04-27T06:27:54Z</time></trkpt><trkpt lat="31.177355920965486" lon="-4.054675053947452"><ele>730.5</ele><time>2026-04-27T06:27:55Z</time></trkpt><trkpt lat="31.177630494839864" lon="-4.054740527956326"><ele>731.0</ele><time>2026-04-27T06:27:56Z</time></trkpt><trkpt lat="31.177895428072762" lon="-4.054803584081395"><ele>731.0</ele><time>2026-04-27T06:27:56.999Z</time></trkpt><trkpt lat="31.178150483869" lon="-4.0548724267502765"><ele>731.0</ele><time>2026-04-27T06:27:57.999Z</time></trkpt><trkpt lat="31.17840481934975" lon="-4.0549094002345"><ele>732.5</ele><time>2026-04-27T06:27:58.999Z</time></trkpt><trkpt lat="31.17865364327962" lon="-4.054929832968941"><ele>734.0</ele><time>2026-04-27T06:27:59.999Z</time></trkpt><trkpt lat="31.17889889551157" lon="-4.054932443741463"><ele>735.5</ele><time>2026-04-27T06:28:00.999Z</time></trkpt><trkpt lat="31.179132122337293" lon="-4.0548838089766805"><ele>737.0</ele><time>2026-04-27T06:28:01.999Z</time></trkpt><trkpt lat="31.179364685840245" lon="-4.0548265888162875"><ele>737.0</ele><time>2026-04-27T06:28:02.999Z</time></trkpt><trkpt lat="31.17960420944464" lon="-4.054743386532743"><ele>737.0</ele><time>2026-04-27T06:28:03.999Z</time></trkpt><trkpt lat="31.179848021928212" lon="-4.0546491333951415"><ele>737.0</ele><time>2026-04-27T06:28:04.999Z</time></trkpt><trkpt lat="31.18009824757248" lon="-4.0545507366583555"><ele>737.0</ele><time>2026-04-27T06:28:05.999Z</time></trkpt><trkpt lat="31.18034230049193" lon="-4.054442203405285"><ele>737.0</ele><time>2026-04-27T06:28:06.999Z</time></trkpt><trkpt lat="31.18058531223991" lon="-4.0543264062211435"><ele>737.0</ele><time>2026-04-27T06:28:07.999Z</time></trkpt><trkpt lat="31.1808263817982" lon="-4.054209025341597"><ele>735.5</ele><time>2026-04-27T06:28:08.999Z</time></trkpt><trkpt lat="31.181062021391135" lon="-4.05408700011749"><ele>734.0</ele><time>2026-04-27T06:28:09.999Z</time></trkpt><trkpt lat="31.18130182194652" lon="-4.0539623740506325"><ele>735.0</ele><time>2026-04-27T06:28:10.999Z</time></trkpt><trkpt lat="31.18154791567828" lon="-4.053834198386559"><ele>736.0</ele><time>2026-04-27T06:28:11.999Z</time></trkpt><trkpt lat="31.181794821452478" lon="-4.053706885152253"><ele>736.0</ele><time>2026-04-27T06:28:12.999Z</time></trkpt><trkpt lat="31.182045942527136" lon="-4.0535829201831906"><ele>736.0</ele><time>2026-04-27T06:28:13.999Z</time></trkpt><trkpt lat="31.182298308812882" lon="-4.053458343001436"><ele>734.5</ele><time>2026-04-27T06:28:14.999Z</time></trkpt><trkpt lat="31.18255049850657" lon="-4.0533339357574585"><ele>733.0</ele><time>2026-04-27T06:28:15.999Z</time></trkpt><trkpt lat="31.18280427980902" lon="-4.0532155823576"><ele>733.0</ele><time>2026-04-27T06:28:16.999Z</time></trkpt><trkpt lat="31.183055896795896" lon="-4.053101125606827"><ele>733.0</ele><time>2026-04-27T06:28:17.999Z</time></trkpt><trkpt lat="31.183306807550434" lon="-4.052987061326074"><ele>733.0</ele><time>2026-04-27T06:28:18.999Z</time></trkpt><trkpt lat="31.1835595076519" lon="-4.052872771991648"><ele>733.0</ele><time>2026-04-27T06:28:19.999Z</time></trkpt><trkpt lat="31.1838183775863" lon="-4.052764008867093"><ele>731.5</ele><time>2026-04-27T06:28:20.999Z</time></trkpt><trkpt lat="31.18408704956795" lon="-4.052688580038544"><ele>730.0</ele><time>2026-04-27T06:28:21.999Z</time></trkpt><trkpt lat="31.184354408983076" lon="-4.052583697381488"><ele>730.0</ele><time>2026-04-27T06:28:22.999Z</time></trkpt><trkpt lat="31.184629417729145" lon="-4.0524831039882105"><ele>730.0</ele><time>2026-04-27T06:28:23.999Z</time></trkpt><trkpt lat="31.184907399525525" lon="-4.052386694747815"><ele>730.0</ele><time>2026-04-27T06:28:24.999Z</time></trkpt><trkpt lat="31.185191585265297" lon="-4.05229316633711"><ele>730.0</ele><time>2026-04-27T06:28:25.999Z</time></trkpt><trkpt lat="31.185481702336293" lon="-4.052200670163899"><ele>728.5</ele><time>2026-04-27T06:28:26.999Z</time></trkpt><trkpt lat="31.185773448088398" lon="-4.052115230318766"><ele>727.0</ele><time>2026-04-27T06:28:27.999Z</time></trkpt><trkpt lat="31.186065420378995" lon="-4.052036589957853"><ele>727.0</ele><time>2026-04-27T06:28:28.999Z</time></trkpt><trkpt lat="31.186360687167504" lon="-4.051962649284047"><ele>727.0</ele><time>2026-04-27T06:28:29.999Z</time></trkpt><trkpt lat="31.186657363673667" lon="-4.051893106469182"><ele>727.0</ele><time>2026-04-27T06:28:30.999Z</time></trkpt><trkpt lat="31.186953578571714" lon="-4.0518309788151825"><ele>727.0</ele><time>2026-04-27T06:28:31.999Z</time></trkpt><trkpt lat="31.18724873274847" lon="-4.051771370208648"><ele>726.0</ele><time>2026-04-27T06:28:32.999Z</time></trkpt><trkpt lat="31.18754391326175" lon="-4.051711027136822"><ele>725.0</ele><time>2026-04-27T06:28:33.999Z</time></trkpt><trkpt lat="31.187836200142815" lon="-4.051649714366979"><ele>725.0</ele><time>2026-04-27T06:28:34.999Z</time></trkpt><trkpt lat="31.188126310333026" lon="-4.051586147764177"><ele>725.0</ele><time>2026-04-27T06:28:35.999Z</time></trkpt><trkpt lat="31.18841377168373" lon="-4.051520230621099"><ele>725.0</ele><time>2026-04-27T06:28:36.999Z</time></trkpt><trkpt lat="31.18869936679777" lon="-4.051450864141509"><ele>725.0</ele><time>2026-04-27T06:28:37.999Z</time></trkpt><trkpt lat="31.188985975638694" lon="-4.051372027444049"><ele>725.0</ele><time>2026-04-27T06:28:38.999Z</time></trkpt><trkpt lat="31.189272230343942" lon="-4.051285845482556"><ele>725.0</ele><time>2026-04-27T06:28:39.999Z</time></trkpt><trkpt lat="31.18956032199565" lon="-4.0511932158252595"><ele>726.5</ele><time>2026-04-27T06:28:40.999Z</time></trkpt><trkpt lat="31.189846885839014" lon="-4.051091495806797"><ele>728.0</ele><time>2026-04-27T06:28:41.999Z</time></trkpt><trkpt lat="31.190133219040163" lon="-4.050976461053153"><ele>728.0</ele><time>2026-04-27T06:28:42.999Z</time></trkpt><trkpt lat="31.190414901594693" lon="-4.050855121608579"><ele>728.0</ele><time>2026-04-27T06:28:43.999Z</time></trkpt><trkpt lat="31.190695157466433" lon="-4.050725815756896"><ele>727.5</ele><time>2026-04-27T06:28:44.999Z</time></trkpt><trkpt lat="31.19096711754091" lon="-4.05059505189947"><ele>727.0</ele><time>2026-04-27T06:28:45.999Z</time></trkpt><trkpt lat="31.19123022628631" lon="-4.050463041624317"><ele>727.0</ele><time>2026-04-27T06:28:46.999Z</time></trkpt><trkpt lat="31.191490485303294" lon="-4.050326782486778"><ele>727.0</ele><time>2026-04-27T06:28:47.999Z</time></trkpt><trkpt lat="31.191754138996888" lon="-4.0501869482196735"><ele>728.0</ele><time>2026-04-27T06:28:48.999Z</time></trkpt><trkpt lat="31.192017489059165" lon="-4.050048594755256"><ele>729.0</ele><time>2026-04-27T06:28:49.999Z</time></trkpt><trkpt lat="31.192280743291402" lon="-4.049909759845868"><ele>727.5</ele><time>2026-04-27T06:28:50.999Z</time></trkpt><trkpt lat="31.192546463499585" lon="-4.049769412483862"><ele>726.0</ele><time>2026-04-27T06:28:51.999Z</time></trkpt><trkpt lat="31.192815220066265" lon="-4.049626517972855"><ele>726.0</ele><time>2026-04-27T06:28:52.999Z</time></trkpt><trkpt lat="31.19308352138244" lon="-4.049482752218439"><ele>726.0</ele><time>2026-04-27T06:28:53.999Z</time></trkpt><trkpt lat="31.19334526001552" lon="-4.049343635698081"><ele>727.0</ele><time>2026-04-27T06:28:54.999Z</time></trkpt><trkpt lat="31.19360801048429" lon="-4.0492044102618046"><ele>728.0</ele><time>2026-04-27T06:28:55.999Z</time></trkpt><trkpt lat="31.193870522595805" lon="-4.049065033269167"><ele>729.5</ele><time>2026-04-27T06:28:56.999Z</time></trkpt><trkpt lat="31.194133549636444" lon="-4.04892644617953"><ele>731.0</ele><time>2026-04-27T06:28:57.999Z</time></trkpt><trkpt lat="31.194393672974726" lon="-4.0487878429575"><ele>731.0</ele><time>2026-04-27T06:28:58.999Z</time></trkpt><trkpt lat="31.194651606950302" lon="-4.04865008160736"><ele>731.0</ele><time>2026-04-27T06:29:00Z</time></trkpt><trkpt lat="31.194910052771498" lon="-4.048509876331716"><ele>731.5</ele><time>2026-04-27T06:29:01Z</time></trkpt><trkpt lat="31.195171930024152" lon="-4.048370107345439"><ele>732.0</ele><time>2026-04-27T06:29:02Z</time></trkpt><trkpt lat="31.195436164546333" lon="-4.048230303684884"><ele>730.5</ele><time>2026-04-27T06:29:03Z</time></trkpt><trkpt lat="31.195702196283513" lon="-4.048092464226868"><ele>729.0</ele><time>2026-04-27T06:29:04Z</time></trkpt><trkpt lat="31.195968254042548" lon="-4.047954254158412"><ele>729.0</ele><time>2026-04-27T06:29:05Z</time></trkpt><trkpt lat="31.19623428277589" lon="-4.047814703425378"><ele>729.0</ele><time>2026-04-27T06:29:06Z</time></trkpt><trkpt lat="31.196494249043294" lon="-4.047676143093431"><ele>729.5</ele><time>2026-04-27T06:29:07Z</time></trkpt><trkpt lat="31.196748537637163" lon="-4.047540982151102"><ele>730.0</ele><time>2026-04-27T06:29:08Z</time></trkpt><trkpt lat="31.196999868002326" lon="-4.047408432341438"><ele>730.5</ele><time>2026-04-27T06:29:09Z</time></trkpt><trkpt lat="31.197252201951645" lon="-4.047274048902735"><ele>731.0</ele><time>2026-04-27T06:29:10Z</time></trkpt><trkpt lat="31.197508741769433" lon="-4.047138964627765"><ele>731.0</ele><time>2026-04-27T06:29:11Z</time></trkpt><trkpt lat="31.197768432496563" lon="-4.0470055590110325"><ele>731.0</ele><time>2026-04-27T06:29:12Z</time></trkpt><trkpt lat="31.198026919376847" lon="-4.0468700851083925"><ele>731.0</ele><time>2026-04-27T06:29:13Z</time></trkpt><trkpt lat="31.198282095360778" lon="-4.046735659336481"><ele>731.0</ele><time>2026-04-27T06:29:14Z</time></trkpt><trkpt lat="31.198537986585215" lon="-4.046599277414894"><ele>731.0</ele><time>2026-04-27T06:29:15Z</time></trkpt><trkpt lat="31.19879313576953" lon="-4.046463781526087"><ele>731.0</ele><time>2026-04-27T06:29:16Z</time></trkpt><trkpt lat="31.199044302961653" lon="-4.046330858525074"><ele>731.0</ele><time>2026-04-27T06:29:17Z</time></trkpt><trkpt lat="31.19929268853523" lon="-4.046199477585425"><ele>731.0</ele><time>2026-04-27T06:29:18Z</time></trkpt><trkpt lat="31.1995409381895" lon="-4.046067981537683"><ele>731.0</ele><time>2026-04-27T06:29:19Z</time></trkpt><trkpt lat="31.199791108283048" lon="-4.045937100248394"><ele>731.0</ele><time>2026-04-27T06:29:20Z</time></trkpt><trkpt lat="31.200044265243395" lon="-4.0458034557042915"><ele>731.0</ele><time>2026-04-27T06:29:21Z</time></trkpt><trkpt lat="31.200301666296156" lon="-4.0456709090226814"><ele>731.0</ele><time>2026-04-27T06:29:22Z</time></trkpt><trkpt lat="31.200557502503578" lon="-4.045539351220495"><ele>732.5</ele><time>2026-04-27T06:29:23Z</time></trkpt><trkpt lat="31.200811457535423" lon="-4.045408690112092"><ele>734.0</ele><time>2026-04-27T06:29:24Z</time></trkpt><trkpt lat="31.20105677530728" lon="-4.045281350865942"><ele>734.0</ele><time>2026-04-27T06:29:25Z</time></trkpt><trkpt lat="31.201297576111383" lon="-4.0451515305321095"><ele>734.0</ele><time>2026-04-27T06:29:26Z</time></trkpt><trkpt lat="31.20152955346846" lon="-4.045021865100871"><ele>733.0</ele><time>2026-04-27T06:29:27Z</time></trkpt><trkpt lat="31.201749671625247" lon="-4.044894574703806"><ele>732.0</ele><time>2026-04-27T06:29:28Z</time></trkpt><trkpt lat="31.201963272978855" lon="-4.044763415146911"><ele>732.0</ele><time>2026-04-27T06:29:29Z</time></trkpt><trkpt lat="31.202168203749757" lon="-4.04462975913703"><ele>732.0</ele><time>2026-04-27T06:29:30Z</time></trkpt><trkpt lat="31.20236725187168" lon="-4.044488666836268"><ele>733.5</ele><time>2026-04-27T06:29:31Z</time></trkpt><trkpt lat="31.202560757457462" lon="-4.044343771519"><ele>735.0</ele><time>2026-04-27T06:29:32Z</time></trkpt><trkpt lat="31.202743022055696" lon="-4.04417673016228"><ele>734.0</ele><time>2026-04-27T06:29:33Z</time></trkpt><trkpt lat="31.202932379881474" lon="-4.04402428840984"><ele>733.0</ele><time>2026-04-27T06:29:34Z</time></trkpt><trkpt lat="31.203110817710847" lon="-4.043860108818625"><ele>734.0</ele><time>2026-04-27T06:29:35Z</time></trkpt><trkpt lat="31.203293273925222" lon="-4.043688248527982"><ele>735.0</ele><time>2026-04-27T06:29:36Z</time></trkpt><trkpt lat="31.203473183312624" lon="-4.04350310151309"><ele>735.0</ele><time>2026-04-27T06:29:37Z</time></trkpt><trkpt lat="31.203657803203217" lon="-4.043313301893828"><ele>735.0</ele><time>2026-04-27T06:29:38Z</time></trkpt><trkpt lat="31.20384391968107" lon="-4.043114772233109"><ele>735.0</ele><time>2026-04-27T06:29:39Z</time></trkpt><trkpt lat="31.204023683169506" lon="-4.042903202691466"><ele>735.0</ele><time>2026-04-27T06:29:40Z</time></trkpt><trkpt lat="31.204202243425243" lon="-4.042694121188083"><ele>735.0</ele><time>2026-04-27T06:29:41Z</time></trkpt><trkpt lat="31.20437816182078" lon="-4.042487506265108"><ele>735.0</ele><time>2026-04-27T06:29:42Z</time></trkpt><trkpt lat="31.204539866009938" lon="-4.0422734380110885"><ele>735.0</ele><time>2026-04-27T06:29:43Z</time></trkpt><trkpt lat="31.204695662274577" lon="-4.042039176681387"><ele>735.0</ele><time>2026-04-27T06:29:44Z</time></trkpt><trkpt lat="31.204849687814995" lon="-4.041809510377984"><ele>735.0</ele><time>2026-04-27T06:29:45Z</time></trkpt><trkpt lat="31.205000459959503" lon="-4.041607554705323"><ele>735.0</ele><time>2026-04-27T06:29:46Z</time></trkpt><trkpt lat="31.205122664163248" lon="-4.041398953321296"><ele>735.0</ele><time>2026-04-27T06:29:47Z</time></trkpt><trkpt lat="31.20524568958269" lon="-4.0411945000519855"><ele>735.0</ele><time>2026-04-27T06:29:48Z</time></trkpt><trkpt lat="31.205373564312744" lon="-4.040987710850674"><ele>735.0</ele><time>2026-04-27T06:29:49Z</time></trkpt><trkpt lat="31.205504594622134" lon="-4.040778372562264"><ele>735.0</ele><time>2026-04-27T06:29:50Z</time></trkpt><trkpt lat="31.205647182143554" lon="-4.040556167496596"><ele>736.0</ele><time>2026-04-27T06:29:51Z</time></trkpt><trkpt lat="31.20579591901172" lon="-4.040316750371002"><ele>737.0</ele><time>2026-04-27T06:29:52Z</time></trkpt><trkpt lat="31.205952723165858" lon="-4.0400589893643035"><ele>737.0</ele><time>2026-04-27T06:29:53Z</time></trkpt><trkpt lat="31.206109732086034" lon="-4.039795491454449"><ele>737.0</ele><time>2026-04-27T06:29:54Z</time></trkpt><trkpt lat="31.20626563122509" lon="-4.039528831532966"><ele>737.0</ele><time>2026-04-27T06:29:55Z</time></trkpt><trkpt lat="31.206421253022153" lon="-4.039261689095021"><ele>737.0</ele><time>2026-04-27T06:29:56Z</time></trkpt><trkpt lat="31.206575322739322" lon="-4.038994493423315"><ele>737.0</ele><time>2026-04-27T06:29:57Z</time></trkpt><trkpt lat="31.206731521401718" lon="-4.038729498725166"><ele>737.0</ele><time>2026-04-27T06:29:58Z</time></trkpt><trkpt lat="31.20689244240125" lon="-4.038462696679026"><ele>739.0</ele><time>2026-04-27T06:29:58.999Z</time></trkpt><trkpt lat="31.207056329334527" lon="-4.038191641919233"><ele>741.0</ele><time>2026-04-27T06:29:59.999Z</time></trkpt><trkpt lat="31.20722250325157" lon="-4.037914368970159"><ele>741.0</ele><time>2026-04-27T06:30:00.999Z</time></trkpt><trkpt lat="31.207389423152367" lon="-4.03763277720666"><ele>741.0</ele><time>2026-04-27T06:30:01.999Z</time></trkpt><trkpt lat="31.207561402314614" lon="-4.037345467826069"><ele>741.0</ele><time>2026-04-27T06:30:02.999Z</time></trkpt><trkpt lat="31.207736883748534" lon="-4.037052855683021"><ele>741.0</ele><time>2026-04-27T06:30:03.999Z</time></trkpt><trkpt lat="31.207911222652278" lon="-4.036762811214018"><ele>741.0</ele><time>2026-04-27T06:30:04.999Z</time></trkpt><trkpt lat="31.208078919658856" lon="-4.036484506412789"><ele>741.0</ele><time>2026-04-27T06:30:05.999Z</time></trkpt><trkpt lat="31.20824497678387" lon="-4.036211487937237"><ele>741.0</ele><time>2026-04-27T06:30:06.999Z</time></trkpt><trkpt lat="31.20841155586204" lon="-4.035944053483215"><ele>741.0</ele><time>2026-04-27T06:30:07.999Z</time></trkpt><trkpt lat="31.208580618496146" lon="-4.035679036897542"><ele>740.5</ele><time>2026-04-27T06:30:08.999Z</time></trkpt><trkpt lat="31.208751110034875" lon="-4.035416618051547"><ele>740.0</ele><time>2026-04-27T06:30:09.999Z</time></trkpt><trkpt lat="31.208926109422666" lon="-4.03515915657607"><ele>739.0</ele><time>2026-04-27T06:30:10.999Z</time></trkpt><trkpt lat="31.209114805801036" lon="-4.034909096210643"><ele>738.0</ele><time>2026-04-27T06:30:11.999Z</time></trkpt><trkpt lat="31.209316014852547" lon="-4.034661841437086"><ele>738.0</ele><time>2026-04-27T06:30:12.999Z</time></trkpt><trkpt lat="31.20952818496609" lon="-4.034417394627804"><ele>738.0</ele><time>2026-04-27T06:30:13.999Z</time></trkpt><trkpt lat="31.20975478749034" lon="-4.034179595485153"><ele>738.0</ele><time>2026-04-27T06:30:14.999Z</time></trkpt><trkpt lat="31.209993074262183" lon="-4.0339515696839925"><ele>738.0</ele><time>2026-04-27T06:30:15.999Z</time></trkpt><trkpt lat="31.210241599007684" lon="-4.033729218348659"><ele>738.0</ele><time>2026-04-27T06:30:16.999Z</time></trkpt><trkpt lat="31.21049567476251" lon="-4.033511489698616"><ele>738.0</ele><time>2026-04-27T06:30:17.999Z</time></trkpt><trkpt lat="31.210757598943122" lon="-4.033300242447979"><ele>737.0</ele><time>2026-04-27T06:30:18.999Z</time></trkpt><trkpt lat="31.211025841532646" lon="-4.033095398545649"><ele>736.0</ele><time>2026-04-27T06:30:19.999Z</time></trkpt><trkpt lat="31.21129818722001" lon="-4.032892102043767"><ele>736.5</ele><time>2026-04-27T06:30:20.999Z</time></trkpt><trkpt lat="31.21157176025022" lon="-4.032685724297617"><ele>737.0</ele><time>2026-04-27T06:30:21.999Z</time></trkpt><trkpt lat="31.211845739673638" lon="-4.032476196763355"><ele>737.0</ele><time>2026-04-27T06:30:22.999Z</time></trkpt><trkpt lat="31.212121234306505" lon="-4.03226721763516"><ele>737.0</ele><time>2026-04-27T06:30:23.999Z</time></trkpt><trkpt lat="31.212398252491695" lon="-4.0320590982419215"><ele>738.5</ele><time>2026-04-27T06:30:24.999Z</time></trkpt><trkpt lat="31.212675708136082" lon="-4.031850697549485"><ele>740.0</ele><time>2026-04-27T06:30:25.999Z</time></trkpt><trkpt lat="31.212951802767137" lon="-4.031641992689024"><ele>740.0</ele><time>2026-04-27T06:30:26.999Z</time></trkpt><trkpt lat="31.21322827001869" lon="-4.031431015283322"><ele>740.0</ele><time>2026-04-27T06:30:27.999Z</time></trkpt><trkpt lat="31.213505866307173" lon="-4.0312175748910075"><ele>740.0</ele><time>2026-04-27T06:30:28.999Z</time></trkpt><trkpt lat="31.213784805408714" lon="-4.031006247506708"><ele>740.0</ele><time>2026-04-27T06:30:29.999Z</time></trkpt><trkpt lat="31.21406518284363" lon="-4.030796575815597"><ele>740.5</ele><time>2026-04-27T06:30:30.999Z</time></trkpt><trkpt lat="31.21434689697423" lon="-4.03058372144402"><ele>741.0</ele><time>2026-04-27T06:30:31.999Z</time></trkpt><trkpt lat="31.214630580212813" lon="-4.0303675783014175"><ele>742.0</ele><time>2026-04-27T06:30:32.999Z</time></trkpt><trkpt lat="31.214913895336256" lon="-4.0301522013789315"><ele>743.0</ele><time>2026-04-27T06:30:33.999Z</time></trkpt><trkpt lat="31.21519634613152" lon="-4.029937544078123"><ele>743.0</ele><time>2026-04-27T06:30:34.999Z</time></trkpt><trkpt lat="31.215470966154616" lon="-4.0297274619829295"><ele>743.0</ele><time>2026-04-27T06:30:35.999Z</time></trkpt><trkpt lat="31.21573407415406" lon="-4.0295251279249475"><ele>744.5</ele><time>2026-04-27T06:30:36.999Z</time></trkpt><trkpt lat="31.215979347697438" lon="-4.029340104450054"><ele>746.0</ele><time>2026-04-27T06:30:37.999Z</time></trkpt><trkpt lat="31.216200320322407" lon="-4.029174874600354"><ele>746.0</ele><time>2026-04-27T06:30:38.999Z</time></trkpt><trkpt lat="31.216386212594365" lon="-4.029036511285296"><ele>746.0</ele><time>2026-04-27T06:30:39.999Z</time></trkpt><trkpt lat="31.21655595329615" lon="-4.028915451432387"><ele>746.0</ele><time>2026-04-27T06:30:40.999Z</time></trkpt><trkpt lat="31.216718009812276" lon="-4.028805683477709"><ele>746.0</ele><time>2026-04-27T06:30:41.999Z</time></trkpt><trkpt lat="31.21687302962254" lon="-4.028693731180895"><ele>746.0</ele><time>2026-04-27T06:30:42.999Z</time></trkpt><trkpt lat="31.21702695055694" lon="-4.028583368598263"><ele>746.0</ele><time>2026-04-27T06:30:43.999Z</time></trkpt><trkpt lat="31.217194962161138" lon="-4.02849708751571"><ele>747.6666666666666</ele><time>2026-04-27T06:30:44.999Z</time></trkpt><trkpt lat="31.217376703217006" lon="-4.028437291012506"><ele>749.3333333333334</ele><time>2026-04-27T06:30:45.999Z</time></trkpt><trkpt lat="31.217567830425356" lon="-4.028393732169426"><ele>751.0</ele><time>2026-04-27T06:30:46.999Z</time></trkpt><trkpt lat="31.217768784578613" lon="-4.028356440847748"><ele>751.0</ele><time>2026-04-27T06:30:47.999Z</time></trkpt><trkpt lat="31.21798220618272" lon="-4.0283212306654175"><ele>751.0</ele><time>2026-04-27T06:30:48.999Z</time></trkpt><trkpt lat="31.218196396131262" lon="-4.028293301296669"><ele>751.0</ele><time>2026-04-27T06:30:49.999Z</time></trkpt><trkpt lat="31.21840828526121" lon="-4.028278357534797"><ele>750.0</ele><time>2026-04-27T06:30:50.999Z</time></trkpt><trkpt lat="31.218612918306555" lon="-4.028278985411031"><ele>749.0</ele><time>2026-04-27T06:30:51.999Z</time></trkpt><trkpt lat="31.218816611351645" lon="-4.028295639929398"><ele>748.0</ele><time>2026-04-27T06:30:52.999Z</time></trkpt><trkpt lat="31.21902183560138" lon="-4.028326691411048"><ele>748.0</ele><time>2026-04-27T06:30:53.999Z</time></trkpt><trkpt lat="31.219223291096412" lon="-4.028371659290719"><ele>748.0</ele><time>2026-04-27T06:30:54.999Z</time></trkpt><trkpt lat="31.219422569833103" lon="-4.02842996316667"><ele>748.0</ele><time>2026-04-27T06:30:55.999Z</time></trkpt><trkpt lat="31.219637259483303" lon="-4.028494125300299"><ele>748.0</ele><time>2026-04-27T06:30:56.999Z</time></trkpt><trkpt lat="31.219858432359423" lon="-4.028562323997835"><ele>748.0</ele><time>2026-04-27T06:30:57.999Z</time></trkpt><trkpt lat="31.220082061192965" lon="-4.028633251318233"><ele>748.0</ele><time>2026-04-27T06:30:58.999Z</time></trkpt><trkpt lat="31.220301658746834" lon="-4.0287049046850845"><ele>748.0</ele><time>2026-04-27T06:30:59.999Z</time></trkpt><trkpt lat="31.220512552588357" lon="-4.028773330530892"><ele>748.0</ele><time>2026-04-27T06:31:00.999Z</time></trkpt><trkpt lat="31.22072041009232" lon="-4.028839070483219"><ele>747.3333333333334</ele><time>2026-04-27T06:31:01.999Z</time></trkpt><trkpt lat="31.220917698524378" lon="-4.028907487098733"><ele>746.6666666666666</ele><time>2026-04-27T06:31:02.999Z</time></trkpt><trkpt lat="31.22110283833655" lon="-4.028988632268238"><ele>746.0</ele><time>2026-04-27T06:31:03.999Z</time></trkpt><trkpt lat="31.221276630067422" lon="-4.029079957256375"><ele>746.6666666666666</ele><time>2026-04-27T06:31:04.999Z</time></trkpt><trkpt lat="31.221448712398022" lon="-4.029175694162203"><ele>747.3333333333334</ele><time>2026-04-27T06:31:06Z</time></trkpt><trkpt lat="31.22162568607851" lon="-4.029269269531084"><ele>748.0</ele><time>2026-04-27T06:31:07Z</time></trkpt><trkpt lat="31.2218081083781" lon="-4.029348457232884"><ele>748.0</ele><time>2026-04-27T06:31:08Z</time></trkpt><trkpt lat="31.22200282896737" lon="-4.029404674207455"><ele>748.0</ele><time>2026-04-27T06:31:09Z</time></trkpt><trkpt lat="31.222205843555074" lon="-4.029440543439428"><ele>748.0</ele><time>2026-04-27T06:31:10Z</time></trkpt><trkpt lat="31.22241227661008" lon="-4.029462311934021"><ele>748.0</ele><time>2026-04-27T06:31:11Z</time></trkpt><trkpt lat="31.22261970118082" lon="-4.029481099670319"><ele>748.0</ele><time>2026-04-27T06:31:12Z</time></trkpt><trkpt lat="31.222824702636476" lon="-4.029511186912134"><ele>748.0</ele><time>2026-04-27T06:31:13Z</time></trkpt><trkpt lat="31.223032053334165" lon="-4.029553905900613"><ele>747.3333333333334</ele><time>2026-04-27T06:31:14Z</time></trkpt><trkpt lat="31.22324262411529" lon="-4.029605275820684"><ele>746.6666666666666</ele><time>2026-04-27T06:31:15Z</time></trkpt><trkpt lat="31.22345715561214" lon="-4.029661883386931"><ele>746.0</ele><time>2026-04-27T06:31:16Z</time></trkpt><trkpt lat="31.223672760243968" lon="-4.029721004436402"><ele>746.0</ele><time>2026-04-27T06:31:17Z</time></trkpt><trkpt lat="31.223887837049908" lon="-4.029780621428778"><ele>746.0</ele><time>2026-04-27T06:31:18Z</time></trkpt><trkpt lat="31.224101955116605" lon="-4.0298413007934695"><ele>746.0</ele><time>2026-04-27T06:31:19Z</time></trkpt><trkpt lat="31.224315197783923" lon="-4.029904076638044"><ele>746.3333333333333</ele><time>2026-04-27T06:31:20Z</time></trkpt><trkpt lat="31.224525657917095" lon="-4.0299708286971585"><ele>746.6666666666666</ele><time>2026-04-27T06:31:21Z</time></trkpt><trkpt lat="31.224729977436972" lon="-4.030046711196439"><ele>747.0</ele><time>2026-04-27T06:31:22Z</time></trkpt><trkpt lat="31.224926748071077" lon="-4.0301331090029855"><ele>747.6666666666666</ele><time>2026-04-27T06:31:23Z</time></trkpt><trkpt lat="31.225121267476474" lon="-4.030228032633927"><ele>748.3333333333333</ele><time>2026-04-27T06:31:24Z</time></trkpt><trkpt lat="31.22531509275886" lon="-4.030328521325352"><ele>749.0</ele><time>2026-04-27T06:31:25Z</time></trkpt><trkpt lat="31.225507928006742" lon="-4.030431901795371"><ele>748.0</ele><time>2026-04-27T06:31:26Z</time></trkpt><trkpt lat="31.225702834923528" lon="-4.030539351449534"><ele>747.0</ele><time>2026-04-27T06:31:27Z</time></trkpt><trkpt lat="31.225897564276227" lon="-4.030650740729834"><ele>746.0</ele><time>2026-04-27T06:31:28Z</time></trkpt><trkpt lat="31.226094262727987" lon="-4.030764663231149"><ele>745.6666666666666</ele><time>2026-04-27T06:31:29Z</time></trkpt><trkpt lat="31.226291068632293" lon="-4.030877851235034"><ele>745.3333333333334</ele><time>2026-04-27T06:31:30Z</time></trkpt><trkpt lat="31.226486636939924" lon="-4.03098993967825"><ele>745.0</ele><time>2026-04-27T06:31:31Z</time></trkpt><trkpt lat="31.22668258900637" lon="-4.031100460627236"><ele>745.0</ele><time>2026-04-27T06:31:32Z</time></trkpt><trkpt lat="31.226879923008454" lon="-4.031209139423932"><ele>745.0</ele><time>2026-04-27T06:31:33Z</time></trkpt><trkpt lat="31.2270791251352" lon="-4.031320346154867"><ele>745.0</ele><time>2026-04-27T06:31:34Z</time></trkpt><trkpt lat="31.227280154004074" lon="-4.03143450678713"><ele>745.0</ele><time>2026-04-27T06:31:35Z</time></trkpt><trkpt lat="31.227485397070378" lon="-4.031552060257463"><ele>745.0</ele><time>2026-04-27T06:31:36Z</time></trkpt><trkpt lat="31.227695927403346" lon="-4.031673543022844"><ele>745.0</ele><time>2026-04-27T06:31:37Z</time></trkpt><trkpt lat="31.227911753313837" lon="-4.031797772053759"><ele>745.0</ele><time>2026-04-27T06:31:38Z</time></trkpt><trkpt lat="31.228127294930047" lon="-4.031922961774921"><ele>745.0</ele><time>2026-04-27T06:31:39Z</time></trkpt><trkpt lat="31.228343563462072" lon="-4.032048604622774"><ele>745.0</ele><time>2026-04-27T06:31:40Z</time></trkpt><trkpt lat="31.22856964532869" lon="-4.032157859064389"><ele>745.0</ele><time>2026-04-27T06:31:41Z</time></trkpt><trkpt lat="31.22879072473935" lon="-4.032284273115782"><ele>745.0</ele><time>2026-04-27T06:31:42Z</time></trkpt><trkpt lat="31.229009970829907" lon="-4.032431632929685"><ele>741.5</ele><time>2026-04-27T06:31:43Z</time></trkpt><trkpt lat="31.22924152940596" lon="-4.0325618728116375"><ele>738.0</ele><time>2026-04-27T06:31:44Z</time></trkpt><trkpt lat="31.229473871194276" lon="-4.032693948733582"><ele>738.0</ele><time>2026-04-27T06:31:45Z</time></trkpt><trkpt lat="31.229704502808772" lon="-4.032829927865636"><ele>738.0</ele><time>2026-04-27T06:31:46Z</time></trkpt><trkpt lat="31.22993694133059" lon="-4.032962270615862"><ele>739.5</ele><time>2026-04-27T06:31:47Z</time></trkpt><trkpt lat="31.230176210906226" lon="-4.033097352608008"><ele>741.0</ele><time>2026-04-27T06:31:48Z</time></trkpt><trkpt lat="31.230414785204015" lon="-4.033234041886161"><ele>743.0</ele><time>2026-04-27T06:31:49Z</time></trkpt><trkpt lat="31.23065652046957" lon="-4.033373579354144"><ele>745.0</ele><time>2026-04-27T06:31:50Z</time></trkpt><trkpt lat="31.230898122933347" lon="-4.0335119524317395"><ele>745.0</ele><time>2026-04-27T06:31:51Z</time></trkpt><trkpt lat="31.23114226588337" lon="-4.033651241491375"><ele>745.0</ele><time>2026-04-27T06:31:52Z</time></trkpt><trkpt lat="31.231390006475735" lon="-4.033789750688216"><ele>744.0</ele><time>2026-04-27T06:31:53Z</time></trkpt><trkpt lat="31.231641460946822" lon="-4.033928547373058"><ele>743.0</ele><time>2026-04-27T06:31:54Z</time></trkpt><trkpt lat="31.231897687493802" lon="-4.034062821304239"><ele>742.5</ele><time>2026-04-27T06:31:55Z</time></trkpt><trkpt lat="31.232158062579717" lon="-4.034191888531267"><ele>742.0</ele><time>2026-04-27T06:31:56Z</time></trkpt><trkpt lat="31.232424236873854" lon="-4.034317928205076"><ele>743.0</ele><time>2026-04-27T06:31:57Z</time></trkpt><trkpt lat="31.232692787754477" lon="-4.034441027295472"><ele>744.0</ele><time>2026-04-27T06:31:57.999Z</time></trkpt><trkpt lat="31.23296455221181" lon="-4.034560034526027"><ele>744.5</ele><time>2026-04-27T06:31:58.999Z</time></trkpt><trkpt lat="31.233240336883885" lon="-4.034675442301241"><ele>745.0</ele><time>2026-04-27T06:31:59.999Z</time></trkpt><trkpt lat="31.23351936369868" lon="-4.034787096001378"><ele>745.0</ele><time>2026-04-27T06:32:00.999Z</time></trkpt><trkpt lat="31.23380091017879" lon="-4.034895638683742"><ele>745.0</ele><time>2026-04-27T06:32:01.999Z</time></trkpt><trkpt lat="31.234083083851594" lon="-4.035001273596074"><ele>747.5</ele><time>2026-04-27T06:32:02.999Z</time></trkpt><trkpt lat="31.234365573653186" lon="-4.035103908435115"><ele>750.0</ele><time>2026-04-27T06:32:03.999Z</time></trkpt><trkpt lat="31.23464946612986" lon="-4.035211593241857"><ele>745.0</ele><time>2026-04-27T06:32:04.999Z</time></trkpt><trkpt lat="31.234932548414598" lon="-4.035318827632026"><ele>740.0</ele><time>2026-04-27T06:32:05.999Z</time></trkpt><trkpt lat="31.235216156232262" lon="-4.035425765127255"><ele>740.0</ele><time>2026-04-27T06:32:06.999Z</time></trkpt><trkpt lat="31.235501662251234" lon="-4.035533199514076"><ele>740.0</ele><time>2026-04-27T06:32:07.999Z</time></trkpt><trkpt lat="31.23578919621864" lon="-4.035636459161142"><ele>741.0</ele><time>2026-04-27T06:32:08.999Z</time></trkpt><trkpt lat="31.236077650557785" lon="-4.035738589904061"><ele>742.0</ele><time>2026-04-27T06:32:09.999Z</time></trkpt><trkpt lat="31.236362677963793" lon="-4.03584371432096"><ele>744.5</ele><time>2026-04-27T06:32:10.999Z</time></trkpt><trkpt lat="31.23664311684381" lon="-4.035951208004215"><ele>747.0</ele><time>2026-04-27T06:32:11.999Z</time></trkpt><trkpt lat="31.23692410305488" lon="-4.036059151157275"><ele>747.0</ele><time>2026-04-27T06:32:12.999Z</time></trkpt><trkpt lat="31.237205593030453" lon="-4.036166651200852"><ele>747.0</ele><time>2026-04-27T06:32:13.999Z</time></trkpt><trkpt lat="31.23748795523536" lon="-4.036271891465287"><ele>746.5</ele><time>2026-04-27T06:32:14.999Z</time></trkpt><trkpt lat="31.237769680374416" lon="-4.036375567677578"><ele>746.0</ele><time>2026-04-27T06:32:15.999Z</time></trkpt><trkpt lat="31.23805046916377" lon="-4.036477345381536"><ele>747.0</ele><time>2026-04-27T06:32:16.999Z</time></trkpt><trkpt lat="31.238328931283554" lon="-4.036578756036038"><ele>748.0</ele><time>2026-04-27T06:32:17.999Z</time></trkpt><trkpt lat="31.238601647420932" lon="-4.036680114332236"><ele>748.0</ele><time>2026-04-27T06:32:18.999Z</time></trkpt><trkpt lat="31.238867213423905" lon="-4.03678170263344"><ele>748.0</ele><time>2026-04-27T06:32:19.999Z</time></trkpt><trkpt lat="31.239126868162376" lon="-4.036880808654146"><ele>750.5</ele><time>2026-04-27T06:32:20.999Z</time></trkpt><trkpt lat="31.239377722722843" lon="-4.036976078211927"><ele>753.0</ele><time>2026-04-27T06:32:21.999Z</time></trkpt><trkpt lat="31.239621663588093" lon="-4.0370679274385886"><ele>752.5</ele><time>2026-04-27T06:32:22.999Z</time></trkpt><trkpt lat="31.239865234761655" lon="-4.037157624171294"><ele>752.0</ele><time>2026-04-27T06:32:23.999Z</time></trkpt><trkpt lat="31.240113293744287" lon="-4.037245073854227"><ele>752.0</ele><time>2026-04-27T06:32:24.999Z</time></trkpt><trkpt lat="31.240364972701748" lon="-4.037334717588962"><ele>752.0</ele><time>2026-04-27T06:32:25.999Z</time></trkpt><trkpt lat="31.240619013545913" lon="-4.037426328033651"><ele>750.5</ele><time>2026-04-27T06:32:26.999Z</time></trkpt><trkpt lat="31.24087177905631" lon="-4.037521722285128"><ele>749.0</ele><time>2026-04-27T06:32:27.999Z</time></trkpt><trkpt lat="31.24112892955707" lon="-4.037621569207484"><ele>749.0</ele><time>2026-04-27T06:32:28.999Z</time></trkpt><trkpt lat="31.241387956903306" lon="-4.037726847899917"><ele>749.0</ele><time>2026-04-27T06:32:29.999Z</time></trkpt><trkpt lat="31.241646629919668" lon="-4.037841455781263"><ele>753.0</ele><time>2026-04-27T06:32:30.999Z</time></trkpt><trkpt lat="31.241904384457207" lon="-4.037966294097748"><ele>757.0</ele><time>2026-04-27T06:32:31.999Z</time></trkpt><trkpt lat="31.24216052221093" lon="-4.038101960408398"><ele>757.0</ele><time>2026-04-27T06:32:32.999Z</time></trkpt><trkpt lat="31.242409169170745" lon="-4.038245768506832"><ele>757.0</ele><time>2026-04-27T06:32:33.999Z</time></trkpt><trkpt lat="31.24265104583142" lon="-4.038393553362545"><ele>757.0</ele><time>2026-04-27T06:32:34.999Z</time></trkpt><trkpt lat="31.242891235123984" lon="-4.038537880344999"><ele>757.0</ele><time>2026-04-27T06:32:35.999Z</time></trkpt><trkpt lat="31.243131039071816" lon="-4.038672947918743"><ele>757.5</ele><time>2026-04-27T06:32:36.999Z</time></trkpt><trkpt lat="31.243377858996343" lon="-4.0387935522110014"><ele>758.0</ele><time>2026-04-27T06:32:37.999Z</time></trkpt><trkpt lat="31.243635549199638" lon="-4.038891837460663"><ele>758.0</ele><time>2026-04-27T06:32:38.999Z</time></trkpt><trkpt lat="31.24390284223738" lon="-4.0389698068414"><ele>758.0</ele><time>2026-04-27T06:32:39.999Z</time></trkpt><trkpt lat="31.24417723272277" lon="-4.039027940844569"><ele>759.0</ele><time>2026-04-27T06:32:40.999Z</time></trkpt><trkpt lat="31.244448779132778" lon="-4.039066792608486"><ele>760.0</ele><time>2026-04-27T06:32:41.999Z</time></trkpt><trkpt lat="31.24470835254137" lon="-4.039096502839827"><ele>761.0</ele><time>2026-04-27T06:32:42.999Z</time></trkpt><trkpt lat="31.244959939516978" lon="-4.039131807897065"><ele>762.0</ele><time>2026-04-27T06:32:43.999Z</time></trkpt><trkpt lat="31.245212480489748" lon="-4.039161693201338"><ele>762.0</ele><time>2026-04-27T06:32:44.999Z</time></trkpt><trkpt lat="31.245474554267282" lon="-4.039174943172599"><ele>762.0</ele><time>2026-04-27T06:32:45.999Z</time></trkpt><trkpt lat="31.245742871975576" lon="-4.039174219061561"><ele>763.5</ele><time>2026-04-27T06:32:46.999Z</time></trkpt><trkpt lat="31.246016279961907" lon="-4.039160985117009"><ele>765.0</ele><time>2026-04-27T06:32:47.999Z</time></trkpt><trkpt lat="31.246292653924286" lon="-4.039131563150246"><ele>762.5</ele><time>2026-04-27T06:32:48.999Z</time></trkpt><trkpt lat="31.24657010874861" lon="-4.039078952473605"><ele>760.0</ele><time>2026-04-27T06:32:49.999Z</time></trkpt><trkpt lat="31.246847379873394" lon="-4.039011892001947"><ele>760.0</ele><time>2026-04-27T06:32:50.999Z</time></trkpt><trkpt lat="31.247126128786473" lon="-4.0389413017232"><ele>760.0</ele><time>2026-04-27T06:32:51.999Z</time></trkpt><trkpt lat="31.247406305891925" lon="-4.0388681571877445"><ele>762.0</ele><time>2026-04-27T06:32:52.999Z</time></trkpt><trkpt lat="31.24768151764598" lon="-4.038793750657838"><ele>764.0</ele><time>2026-04-27T06:32:53.999Z</time></trkpt><trkpt lat="31.247953036927132" lon="-4.038728262927161"><ele>767.5</ele><time>2026-04-27T06:32:54.999Z</time></trkpt><trkpt lat="31.248222661587665" lon="-4.038665679296398"><ele>771.0</ele><time>2026-04-27T06:32:55.999Z</time></trkpt><trkpt lat="31.248487226702597" lon="-4.038599484373146"><ele>771.0</ele><time>2026-04-27T06:32:56.999Z</time></trkpt><trkpt lat="31.248748741573444" lon="-4.038533426578431"><ele>771.0</ele><time>2026-04-27T06:32:57.999Z</time></trkpt><trkpt lat="31.249009960157995" lon="-4.038466897404094"><ele>770.0</ele><time>2026-04-27T06:32:58.999Z</time></trkpt><trkpt lat="31.249254207296964" lon="-4.038402587139011"><ele>769.0</ele><time>2026-04-27T06:32:59.999Z</time></trkpt><trkpt lat="31.24946992319033" lon="-4.038343035915189"><ele>769.6666666666666</ele><time>2026-04-27T06:33:00.999Z</time></trkpt><trkpt lat="31.249669715801023" lon="-4.038287124367531"><ele>770.3333333333333</ele><time>2026-04-27T06:33:01.999Z</time></trkpt><trkpt lat="31.24986473236377" lon="-4.038240581010824"><ele>771.0</ele><time>2026-04-27T06:33:02.999Z</time></trkpt><trkpt lat="31.250061704579135" lon="-4.038209013197572"><ele>771.6666666666667</ele><time>2026-04-27T06:33:03.999Z</time></trkpt><trkpt lat="31.25026743344516" lon="-4.038189503694978"><ele>772.3333333333334</ele><time>2026-04-27T06:33:04.999Z</time></trkpt><trkpt lat="31.250480054561816" lon="-4.038188467559889"><ele>773.0</ele><time>2026-04-27T06:33:05.999Z</time></trkpt><trkpt lat="31.250694481511996" lon="-4.038211135872516"><ele>773.0</ele><time>2026-04-27T06:33:06.999Z</time></trkpt><trkpt lat="31.250909018096298" lon="-4.038253669117854"><ele>773.0</ele><time>2026-04-27T06:33:07.999Z</time></trkpt><trkpt lat="31.251120649651146" lon="-4.038325728526203"><ele>773.0</ele><time>2026-04-27T06:33:08.999Z</time></trkpt><trkpt lat="31.25132962780628" lon="-4.038422013621839"><ele>775.0</ele><time>2026-04-27T06:33:09.999Z</time></trkpt><trkpt lat="31.251539350970265" lon="-4.038551969287853"><ele>777.0</ele><time>2026-04-27T06:33:11Z</time></trkpt><trkpt lat="31.251744899484205" lon="-4.038708307475012"><ele>777.0</ele><time>2026-04-27T06:33:12Z</time></trkpt><trkpt lat="31.251941953610203" lon="-4.038892041791195"><ele>777.0</ele><time>2026-04-27T06:33:13Z</time></trkpt><trkpt lat="31.252140841394436" lon="-4.0390853248460825"><ele>776.5</ele><time>2026-04-27T06:33:14Z</time></trkpt><trkpt lat="31.252343611917638" lon="-4.03927927590606"><ele>776.0</ele><time>2026-04-27T06:33:15Z</time></trkpt><trkpt lat="31.25254955812277" lon="-4.039475194006438"><ele>776.0</ele><time>2026-04-27T06:33:16Z</time></trkpt><trkpt lat="31.252754556512734" lon="-4.0396763346401885"><ele>776.0</ele><time>2026-04-27T06:33:17Z</time></trkpt><trkpt lat="31.252956064310496" lon="-4.03988805632462"><ele>776.5</ele><time>2026-04-27T06:33:18Z</time></trkpt><trkpt lat="31.25314613078201" lon="-4.040106829410976"><ele>777.0</ele><time>2026-04-27T06:33:19Z</time></trkpt><trkpt lat="31.253321979436592" lon="-4.040330044122118"><ele>777.0</ele><time>2026-04-27T06:33:20Z</time></trkpt><trkpt lat="31.253483047757022" lon="-4.040561800634103"><ele>777.0</ele><time>2026-04-27T06:33:21Z</time></trkpt><trkpt lat="31.253637245457" lon="-4.040801205884673"><ele>776.5</ele><time>2026-04-27T06:33:22Z</time></trkpt><trkpt lat="31.25378183421987" lon="-4.041050724420095"><ele>776.0</ele><time>2026-04-27T06:33:23Z</time></trkpt><trkpt lat="31.253920075569297" lon="-4.041313058440157"><ele>774.5</ele><time>2026-04-27T06:33:24Z</time></trkpt><trkpt lat="31.254042096112922" lon="-4.041575407665439"><ele>773.0</ele><time>2026-04-27T06:33:25Z</time></trkpt><trkpt lat="31.25414975248103" lon="-4.041842983475972"><ele>773.0</ele><time>2026-04-27T06:33:26Z</time></trkpt><trkpt lat="31.254250181841048" lon="-4.042111930235171"><ele>773.0</ele><time>2026-04-27T06:33:27Z</time></trkpt><trkpt lat="31.254350636977772" lon="-4.042379427577289"><ele>774.0</ele><time>2026-04-27T06:33:28Z</time></trkpt><trkpt lat="31.254449206255142" lon="-4.042644153216323"><ele>775.0</ele><time>2026-04-27T06:33:29Z</time></trkpt><trkpt lat="31.254546479544945" lon="-4.042908029947782"><ele>775.0</ele><time>2026-04-27T06:33:29.999Z</time></trkpt><trkpt lat="31.25464801101923" lon="-4.04316909725816"><ele>775.0</ele><time>2026-04-27T06:33:30.999Z</time></trkpt><trkpt lat="31.2547623055157" lon="-4.043424106149892"><ele>775.0</ele><time>2026-04-27T06:33:31.999Z</time></trkpt><trkpt lat="31.254891304628742" lon="-4.043671053833543"><ele>775.0</ele><time>2026-04-27T06:33:32.999Z</time></trkpt><trkpt lat="31.255037519413214" lon="-4.043906712833357"><ele>775.0</ele><time>2026-04-27T06:33:33.999Z</time></trkpt><trkpt lat="31.255197509194584" lon="-4.044125055550232"><ele>775.0</ele><time>2026-04-27T06:33:34.999Z</time></trkpt><trkpt lat="31.255374251329524" lon="-4.044324909892899"><ele>773.5</ele><time>2026-04-27T06:33:35.999Z</time></trkpt><trkpt lat="31.25556518620243" lon="-4.044506448264978"><ele>772.0</ele><time>2026-04-27T06:33:36.999Z</time></trkpt><trkpt lat="31.25577265323058" lon="-4.044667055947552"><ele>771.0</ele><time>2026-04-27T06:33:37.999Z</time></trkpt><trkpt lat="31.255991915119544" lon="-4.044802885662725"><ele>770.0</ele><time>2026-04-27T06:33:38.999Z</time></trkpt><trkpt lat="31.256223935876406" lon="-4.044912100849086"><ele>769.5</ele><time>2026-04-27T06:33:39.999Z</time></trkpt><trkpt lat="31.25645556397703" lon="-4.04500950914923"><ele>769.0</ele><time>2026-04-27T06:33:40.999Z</time></trkpt><trkpt lat="31.256682692839423" lon="-4.045106397770281"><ele>769.0</ele><time>2026-04-27T06:33:41.999Z</time></trkpt><trkpt lat="31.25689167222552" lon="-4.045219775414511"><ele>769.0</ele><time>2026-04-27T06:33:42.999Z</time></trkpt><trkpt lat="31.25709071324329" lon="-4.045350467445309"><ele>771.0</ele><time>2026-04-27T06:33:43.999Z</time></trkpt><trkpt lat="31.257285936952343" lon="-4.045500027688364"><ele>773.0</ele><time>2026-04-27T06:33:44.999Z</time></trkpt><trkpt lat="31.25746199033347" lon="-4.045668558677411"><ele>771.5</ele><time>2026-04-27T06:33:45.999Z</time></trkpt><trkpt lat="31.257626418981754" lon="-4.045851496465431"><ele>770.0</ele><time>2026-04-27T06:33:46.999Z</time></trkpt><trkpt lat="31.257787941609077" lon="-4.04604381019428"><ele>770.0</ele><time>2026-04-27T06:33:47.999Z</time></trkpt><trkpt lat="31.25794056140802" lon="-4.0462474149287235"><ele>770.0</ele><time>2026-04-27T06:33:48.999Z</time></trkpt><trkpt lat="31.25808065802455" lon="-4.046466846841421"><ele>772.5</ele><time>2026-04-27T06:33:49.999Z</time></trkpt><trkpt lat="31.258211148283888" lon="-4.046702348552328"><ele>775.0</ele><time>2026-04-27T06:33:50.999Z</time></trkpt><trkpt lat="31.25833424093648" lon="-4.046953024828315"><ele>775.0</ele><time>2026-04-27T06:33:51.999Z</time></trkpt><trkpt lat="31.258454623763015" lon="-4.047212465124993"><ele>775.0</ele><time>2026-04-27T06:33:52.999Z</time></trkpt><trkpt lat="31.258579014110087" lon="-4.047481691649246"><ele>773.5</ele><time>2026-04-27T06:33:53.998Z</time></trkpt><trkpt lat="31.258707610476574" lon="-4.047753459923552"><ele>772.0</ele><time>2026-04-27T06:33:54.998Z</time></trkpt><trkpt lat="31.25884007311496" lon="-4.048029090390599"><ele>773.0</ele><time>2026-04-27T06:33:55.998Z</time></trkpt><trkpt lat="31.258978114805835" lon="-4.048303245457241"><ele>774.0</ele><time>2026-04-27T06:33:56.998Z</time></trkpt><trkpt lat="31.259119392563523" lon="-4.048575411292081"><ele>774.0</ele><time>2026-04-27T06:33:57.998Z</time></trkpt><trkpt lat="31.259269734856865" lon="-4.048842577737302"><ele>774.0</ele><time>2026-04-27T06:33:58.998Z</time></trkpt><trkpt lat="31.259431603029824" lon="-4.049100279341523"><ele>774.0</ele><time>2026-04-27T06:33:59.998Z</time></trkpt><trkpt lat="31.259606795264272" lon="-4.049348992508288"><ele>774.0</ele><time>2026-04-27T06:34:00.998Z</time></trkpt><trkpt lat="31.259787820306215" lon="-4.049594717564643"><ele>774.0</ele><time>2026-04-27T06:34:01.998Z</time></trkpt><trkpt lat="31.259972463187722" lon="-4.049838930450408"><ele>774.0</ele><time>2026-04-27T06:34:02.998Z</time></trkpt><trkpt lat="31.260160306260317" lon="-4.050079099181309"><ele>773.0</ele><time>2026-04-27T06:34:03.998Z</time></trkpt><trkpt lat="31.260348775771572" lon="-4.050317778023532"><ele>772.0</ele><time>2026-04-27T06:34:04.998Z</time></trkpt><trkpt lat="31.260539753472425" lon="-4.050558117942128"><ele>771.0</ele><time>2026-04-27T06:34:05.998Z</time></trkpt><trkpt lat="31.260728910641067" lon="-4.050796977307153"><ele>770.0</ele><time>2026-04-27T06:34:06.998Z</time></trkpt><trkpt lat="31.260917938140025" lon="-4.051038396586333"><ele>770.0</ele><time>2026-04-27T06:34:07.998Z</time></trkpt><trkpt lat="31.26110523199616" lon="-4.05127899798179"><ele>770.0</ele><time>2026-04-27T06:34:08.998Z</time></trkpt><trkpt lat="31.261289535250686" lon="-4.051518943341528"><ele>765.5</ele><time>2026-04-27T06:34:09.998Z</time></trkpt><trkpt lat="31.261473315617096" lon="-4.051754261831585"><ele>761.0</ele><time>2026-04-27T06:34:10.998Z</time></trkpt><trkpt lat="31.261656462630892" lon="-4.0519858039739525"><ele>761.0</ele><time>2026-04-27T06:34:11.998Z</time></trkpt><trkpt lat="31.261836712994914" lon="-4.052217046621113"><ele>761.0</ele><time>2026-04-27T06:34:12.998Z</time></trkpt><trkpt lat="31.262017951072284" lon="-4.052452268408418"><ele>762.5</ele><time>2026-04-27T06:34:13.998Z</time></trkpt><trkpt lat="31.262202832089997" lon="-4.052692483225275"><ele>764.0</ele><time>2026-04-27T06:34:14.998Z</time></trkpt><trkpt lat="31.26239048601219" lon="-4.052936136483966"><ele>764.0</ele><time>2026-04-27T06:34:15.998Z</time></trkpt><trkpt lat="31.262580311262305" lon="-4.053183928404443"><ele>764.0</ele><time>2026-04-27T06:34:16.998Z</time></trkpt><trkpt lat="31.262772735385873" lon="-4.053431435416129"><ele>764.0</ele><time>2026-04-27T06:34:17.998Z</time></trkpt><trkpt lat="31.262967219716355" lon="-4.0536796420190475"><ele>764.0</ele><time>2026-04-27T06:34:18.998Z</time></trkpt><trkpt lat="31.26316515529878" lon="-4.053929759035446"><ele>764.0</ele><time>2026-04-27T06:34:19.998Z</time></trkpt><trkpt lat="31.263363983335676" lon="-4.054182008343719"><ele>764.0</ele><time>2026-04-27T06:34:20.998Z</time></trkpt><trkpt lat="31.26356345808438" lon="-4.05443426530099"><ele>764.0</ele><time>2026-04-27T06:34:21.998Z</time></trkpt><trkpt lat="31.263766165307157" lon="-4.054687670254514"><ele>764.0</ele><time>2026-04-27T06:34:22.998Z</time></trkpt><trkpt lat="31.263967022407364" lon="-4.054936329384734"><ele>763.5</ele><time>2026-04-27T06:34:23.998Z</time></trkpt><trkpt lat="31.264168408298147" lon="-4.0551809500568075"><ele>763.0</ele><time>2026-04-27T06:34:24.998Z</time></trkpt><trkpt lat="31.264370006095028" lon="-4.0554206768830205"><ele>763.0</ele><time>2026-04-27T06:34:25.998Z</time></trkpt><trkpt lat="31.26457062411554" lon="-4.0556513396132665"><ele>763.0</ele><time>2026-04-27T06:34:26.998Z</time></trkpt><trkpt lat="31.264772822553454" lon="-4.055877659541759"><ele>762.0</ele><time>2026-04-27T06:34:27.998Z</time></trkpt><trkpt lat="31.264975998160516" lon="-4.056100364161297"><ele>761.0</ele><time>2026-04-27T06:34:28.998Z</time></trkpt><trkpt lat="31.265183571998023" lon="-4.056324835468986"><ele>761.0</ele><time>2026-04-27T06:34:29.998Z</time></trkpt><trkpt lat="31.265394368879246" lon="-4.056549495887418"><ele>761.0</ele><time>2026-04-27T06:34:30.998Z</time></trkpt><trkpt lat="31.265606100534622" lon="-4.056771809985896"><ele>763.5</ele><time>2026-04-27T06:34:31.998Z</time></trkpt><trkpt lat="31.265817055637303" lon="-4.056992126540516"><ele>766.0</ele><time>2026-04-27T06:34:32.998Z</time></trkpt><trkpt lat="31.266029663882108" lon="-4.05721001410598"><ele>766.0</ele><time>2026-04-27T06:34:33.998Z</time></trkpt><trkpt lat="31.26623752397406" lon="-4.057423657670842"><ele>766.0</ele><time>2026-04-27T06:34:34.998Z</time></trkpt><trkpt lat="31.266439397595466" lon="-4.057631783610996"><ele>763.5</ele><time>2026-04-27T06:34:35.998Z</time></trkpt><trkpt lat="31.266639089124173" lon="-4.057836288449837"><ele>761.0</ele><time>2026-04-27T06:34:36.998Z</time></trkpt><trkpt lat="31.26683703545178" lon="-4.058039004278074"><ele>761.0</ele><time>2026-04-27T06:34:37.998Z</time></trkpt><trkpt lat="31.26703339270923" lon="-4.05824166115484"><ele>761.0</ele><time>2026-04-27T06:34:38.998Z</time></trkpt><trkpt lat="31.267228525982247" lon="-4.058446693043084"><ele>762.5</ele><time>2026-04-27T06:34:39.998Z</time></trkpt><trkpt lat="31.26742222408553" lon="-4.058655298688244"><ele>764.0</ele><time>2026-04-27T06:34:40.998Z</time></trkpt><trkpt lat="31.267618720900686" lon="-4.058878132211196"><ele>764.0</ele><time>2026-04-27T06:34:41.998Z</time></trkpt><trkpt lat="31.26780737799144" lon="-4.059110056246648"><ele>764.0</ele><time>2026-04-27T06:34:42.998Z</time></trkpt><trkpt lat="31.26799439354733" lon="-4.0593523210859255"><ele>763.0</ele><time>2026-04-27T06:34:43.998Z</time></trkpt><trkpt lat="31.268180838081513" lon="-4.059606266576478"><ele>762.0</ele><time>2026-04-27T06:34:44.998Z</time></trkpt><trkpt lat="31.268363804170928" lon="-4.059867072941903"><ele>761.0</ele><time>2026-04-27T06:34:45.998Z</time></trkpt><trkpt lat="31.268546693054724" lon="-4.060134458786546"><ele>760.0</ele><time>2026-04-27T06:34:46.998Z</time></trkpt><trkpt lat="31.268729150149504" lon="-4.060401535982947"><ele>760.0</ele><time>2026-04-27T06:34:47.998Z</time></trkpt><trkpt lat="31.26891237044127" lon="-4.0606694174585005"><ele>760.0</ele><time>2026-04-27T06:34:48.998Z</time></trkpt><trkpt lat="31.269095523189723" lon="-4.060939031311988"><ele>760.5</ele><time>2026-04-27T06:34:49.998Z</time></trkpt><trkpt lat="31.269280526404422" lon="-4.061210150481211"><ele>761.0</ele><time>2026-04-27T06:34:50.998Z</time></trkpt><trkpt lat="31.26946573868851" lon="-4.061484767333353"><ele>761.0</ele><time>2026-04-27T06:34:51.998Z</time></trkpt><trkpt lat="31.269651091963595" lon="-4.0617614177332335"><ele>761.0</ele><time>2026-04-27T06:34:52.998Z</time></trkpt><trkpt lat="31.269837365218105" lon="-4.062040642952098"><ele>761.0</ele><time>2026-04-27T06:34:53.998Z</time></trkpt><trkpt lat="31.270027444191648" lon="-4.062320959805795"><ele>761.0</ele><time>2026-04-27T06:34:54.998Z</time></trkpt><trkpt lat="31.270217079431696" lon="-4.062601311665316"><ele>760.0</ele><time>2026-04-27T06:34:55.998Z</time></trkpt><trkpt lat="31.270406210675556" lon="-4.062878389405053"><ele>759.0</ele><time>2026-04-27T06:34:56.998Z</time></trkpt><trkpt lat="31.270597162646176" lon="-4.06315737225494"><ele>759.5</ele><time>2026-04-27T06:34:57.998Z</time></trkpt><trkpt lat="31.270789406963367" lon="-4.063438083301583"><ele>760.0</ele><time>2026-04-27T06:34:58.998Z</time></trkpt><trkpt lat="31.270979274369466" lon="-4.0637172820355225"><ele>760.0</ele><time>2026-04-27T06:34:59.998Z</time></trkpt><trkpt lat="31.271168490629194" lon="-4.0639964124548005"><ele>760.0</ele><time>2026-04-27T06:35:00.998Z</time></trkpt><trkpt lat="31.271359368703067" lon="-4.0642781426635"><ele>760.5</ele><time>2026-04-27T06:35:01.998Z</time></trkpt><trkpt lat="31.27155096359271" lon="-4.064561172667944"><ele>761.0</ele><time>2026-04-27T06:35:02.998Z</time></trkpt><trkpt lat="31.271744071949" lon="-4.064843962415068"><ele>761.0</ele><time>2026-04-27T06:35:03.998Z</time></trkpt><trkpt lat="31.27193937106703" lon="-4.065128077273922"><ele>761.0</ele><time>2026-04-27T06:35:04.997Z</time></trkpt><trkpt lat="31.27213596209121" lon="-4.065415161437988"><ele>761.0</ele><time>2026-04-27T06:35:05.997Z</time></trkpt><trkpt lat="31.272334111780697" lon="-4.0657048872220045"><ele>761.0</ele><time>2026-04-27T06:35:06.997Z</time></trkpt><trkpt lat="31.272531752563083" lon="-4.065996662629636"><ele>760.0</ele><time>2026-04-27T06:35:07.997Z</time></trkpt><trkpt lat="31.27273010083718" lon="-4.066289450892917"><ele>759.0</ele><time>2026-04-27T06:35:08.997Z</time></trkpt><trkpt lat="31.272929661948808" lon="-4.066580834778125"><ele>759.0</ele><time>2026-04-27T06:35:09.997Z</time></trkpt><trkpt lat="31.273129197328725" lon="-4.066871994348358"><ele>759.0</ele><time>2026-04-27T06:35:10.997Z</time></trkpt><trkpt lat="31.273326367691762" lon="-4.067163192642297"><ele>759.0</ele><time>2026-04-27T06:35:11.997Z</time></trkpt><trkpt lat="31.273524790767333" lon="-4.0674566231709015"><ele>759.0</ele><time>2026-04-27T06:35:12.997Z</time></trkpt><trkpt lat="31.273723083310497" lon="-4.06774780742275"><ele>759.0</ele><time>2026-04-27T06:35:13.997Z</time></trkpt><trkpt lat="31.273921651810024" lon="-4.068037700622815"><ele>759.0</ele><time>2026-04-27T06:35:14.997Z</time></trkpt><trkpt lat="31.274119200867094" lon="-4.0683245597551325"><ele>758.0</ele><time>2026-04-27T06:35:15.997Z</time></trkpt><trkpt lat="31.27431460898967" lon="-4.068609580204181"><ele>757.0</ele><time>2026-04-27T06:35:16.999Z</time></trkpt><trkpt lat="31.274506961354167" lon="-4.068895162640686"><ele>758.0</ele><time>2026-04-27T06:35:17.999Z</time></trkpt><trkpt lat="31.274696910196955" lon="-4.0691780553707675"><ele>759.0</ele><time>2026-04-27T06:35:18.999Z</time></trkpt><trkpt lat="31.274874188923587" lon="-4.069450319269703"><ele>759.5</ele><time>2026-04-27T06:35:19.999Z</time></trkpt><trkpt lat="31.275047462222037" lon="-4.069706996406598"><ele>760.0</ele><time>2026-04-27T06:35:20.999Z</time></trkpt><trkpt lat="31.275225399362423" lon="-4.069950615878157"><ele>760.0</ele><time>2026-04-27T06:35:21.999Z</time></trkpt><trkpt lat="31.275397398682962" lon="-4.07018541220591"><ele>760.0</ele><time>2026-04-27T06:35:22.999Z</time></trkpt><trkpt lat="31.27556392879299" lon="-4.070408021185486"><ele>760.5</ele><time>2026-04-27T06:35:23.999Z</time></trkpt><trkpt lat="31.275737030928624" lon="-4.070629841235262"><ele>761.0</ele><time>2026-04-27T06:35:24.999Z</time></trkpt><trkpt lat="31.27591808754485" lon="-4.070852324922845"><ele>761.5</ele><time>2026-04-27T06:35:25.999Z</time></trkpt><trkpt lat="31.276105109818925" lon="-4.071075266521558"><ele>762.0</ele><time>2026-04-27T06:35:26.999Z</time></trkpt><trkpt lat="31.276292653022214" lon="-4.071301002267394"><ele>760.0</ele><time>2026-04-27T06:35:27.999Z</time></trkpt><trkpt lat="31.276476535537775" lon="-4.071533683293457"><ele>758.0</ele><time>2026-04-27T06:35:28.999Z</time></trkpt><trkpt lat="31.276655480298036" lon="-4.071776422635823"><ele>758.0</ele><time>2026-04-27T06:35:29.999Z</time></trkpt><trkpt lat="31.276831563676375" lon="-4.072031598098585"><ele>758.0</ele><time>2026-04-27T06:35:30.999Z</time></trkpt><trkpt lat="31.277002963558772" lon="-4.072295090897"><ele>759.5</ele><time>2026-04-27T06:35:31.999Z</time></trkpt><trkpt lat="31.277174006237892" lon="-4.072559656902338"><ele>761.0</ele><time>2026-04-27T06:35:32.999Z</time></trkpt><trkpt lat="31.277344744693963" lon="-4.0728205272579965"><ele>761.0</ele><time>2026-04-27T06:35:33.999Z</time></trkpt><trkpt lat="31.277518407635995" lon="-4.073081521896265"><ele>761.0</ele><time>2026-04-27T06:35:34.999Z</time></trkpt><trkpt lat="31.277693557821976" lon="-4.073341342844596"><ele>761.5</ele><time>2026-04-27T06:35:35.999Z</time></trkpt><trkpt lat="31.27786920856188" lon="-4.073589367650376"><ele>762.0</ele><time>2026-04-27T06:35:36.999Z</time></trkpt><trkpt lat="31.278053974767868" lon="-4.073821310211349"><ele>762.0</ele><time>2026-04-27T06:35:37.999Z</time></trkpt><trkpt lat="31.27825244229891" lon="-4.0740414211105485"><ele>762.0</ele><time>2026-04-27T06:35:38.999Z</time></trkpt><trkpt lat="31.278451077880145" lon="-4.074255140773767"><ele>762.0</ele><time>2026-04-27T06:35:39.999Z</time></trkpt><trkpt lat="31.278644318505666" lon="-4.074477288653845"><ele>762.0</ele><time>2026-04-27T06:35:40.999Z</time></trkpt><trkpt lat="31.27883300544011" lon="-4.074711607938335"><ele>761.0</ele><time>2026-04-27T06:35:41.999Z</time></trkpt><trkpt lat="31.279016175108506" lon="-4.074958057034084"><ele>760.0</ele><time>2026-04-27T06:35:42.999Z</time></trkpt><trkpt lat="31.279188639378265" lon="-4.075218529038882"><ele>760.0</ele><time>2026-04-27T06:35:43.999Z</time></trkpt><trkpt lat="31.279349083132182" lon="-4.0754935230233755"><ele>760.0</ele><time>2026-04-27T06:35:44.999Z</time></trkpt><trkpt lat="31.279499539129958" lon="-4.07577916173286"><ele>760.0</ele><time>2026-04-27T06:35:45.999Z</time></trkpt><trkpt lat="31.279647798454917" lon="-4.076070509950375"><ele>760.0</ele><time>2026-04-27T06:35:46.999Z</time></trkpt><trkpt lat="31.279798528899804" lon="-4.0763619274918055"><ele>759.5</ele><time>2026-04-27T06:35:47.999Z</time></trkpt><trkpt lat="31.27994868751908" lon="-4.076655456973963"><ele>759.0</ele><time>2026-04-27T06:35:48.999Z</time></trkpt><trkpt lat="31.28009780095887" lon="-4.076949206645179"><ele>759.0</ele><time>2026-04-27T06:35:49.999Z</time></trkpt><trkpt lat="31.280251968137016" lon="-4.077242337213234"><ele>759.0</ele><time>2026-04-27T06:35:50.999Z</time></trkpt><trkpt lat="31.280407364366773" lon="-4.077534129025308"><ele>760.5</ele><time>2026-04-27T06:35:51.999Z</time></trkpt><trkpt lat="31.280558241891228" lon="-4.0778270416223235"><ele>762.0</ele><time>2026-04-27T06:35:52.999Z</time></trkpt><trkpt lat="31.280707881500454" lon="-4.07811949077797"><ele>760.5</ele><time>2026-04-27T06:35:53.999Z</time></trkpt><trkpt lat="31.28085960384833" lon="-4.078411792299641"><ele>759.0</ele><time>2026-04-27T06:35:54.999Z</time></trkpt><trkpt lat="31.281010485601744" lon="-4.078700871588935"><ele>759.0</ele><time>2026-04-27T06:35:55.999Z</time></trkpt><trkpt lat="31.281161189086124" lon="-4.078989288931443"><ele>759.0</ele><time>2026-04-27T06:35:56.999Z</time></trkpt><trkpt lat="31.28130990511454" lon="-4.079274928502475"><ele>759.5</ele><time>2026-04-27T06:35:57.999Z</time></trkpt><trkpt lat="31.281458421394976" lon="-4.079560926842623"><ele>760.0</ele><time>2026-04-27T06:35:58.999Z</time></trkpt><trkpt lat="31.281608013113686" lon="-4.07984642924144"><ele>759.5</ele><time>2026-04-27T06:35:59.999Z</time></trkpt><trkpt lat="31.281756348821805" lon="-4.080132992498878"><ele>759.0</ele><time>2026-04-27T06:36:00.999Z</time></trkpt><trkpt lat="31.281906279273972" lon="-4.080418015473799"><ele>759.0</ele><time>2026-04-27T06:36:01.999Z</time></trkpt><trkpt lat="31.282058814437356" lon="-4.0806995707162"><ele>759.0</ele><time>2026-04-27T06:36:02.999Z</time></trkpt><trkpt lat="31.28221224423522" lon="-4.080975264750173"><ele>759.0</ele><time>2026-04-27T06:36:03.999Z</time></trkpt><trkpt lat="31.28236893409232" lon="-4.081250841898754"><ele>759.0</ele><time>2026-04-27T06:36:04.999Z</time></trkpt><trkpt lat="31.282531335190313" lon="-4.081527200545719"><ele>760.0</ele><time>2026-04-27T06:36:05.999Z</time></trkpt><trkpt lat="31.282699963196038" lon="-4.081805666957714"><ele>761.0</ele><time>2026-04-27T06:36:06.999Z</time></trkpt><trkpt lat="31.282872205420254" lon="-4.0820868883728965"><ele>761.0</ele><time>2026-04-27T06:36:07.999Z</time></trkpt><trkpt lat="31.283047207736182" lon="-4.082369101413867"><ele>761.0</ele><time>2026-04-27T06:36:08.999Z</time></trkpt><trkpt lat="31.283225200538837" lon="-4.082654525668686"><ele>760.0</ele><time>2026-04-27T06:36:09.999Z</time></trkpt><trkpt lat="31.283404937472085" lon="-4.082944036837982"><ele>759.0</ele><time>2026-04-27T06:36:10.999Z</time></trkpt><trkpt lat="31.283588677228213" lon="-4.083235830081093"><ele>759.5</ele><time>2026-04-27T06:36:11.999Z</time></trkpt><trkpt lat="31.283775218275988" lon="-4.083528721092999"><ele>760.0</ele><time>2026-04-27T06:36:12.999Z</time></trkpt><trkpt lat="31.2839605242425" lon="-4.083820770312017"><ele>759.0</ele><time>2026-04-27T06:36:13.999Z</time></trkpt><trkpt lat="31.284143933526114" lon="-4.0841128173048515"><ele>758.0</ele><time>2026-04-27T06:36:14.999Z</time></trkpt><trkpt lat="31.28432485685659" lon="-4.084402544882083"><ele>758.0</ele><time>2026-04-27T06:36:15.999Z</time></trkpt><trkpt lat="31.284506327827195" lon="-4.084690794381766"><ele>758.0</ele><time>2026-04-27T06:36:16.999Z</time></trkpt><trkpt lat="31.284688283478985" lon="-4.084978734100392"><ele>758.0</ele><time>2026-04-27T06:36:17.999Z</time></trkpt><trkpt lat="31.284869698285238" lon="-4.085266495047067"><ele>758.0</ele><time>2026-04-27T06:36:18.999Z</time></trkpt><trkpt lat="31.28504819297067" lon="-4.085552173271582"><ele>758.5</ele><time>2026-04-27T06:36:19.999Z</time></trkpt><trkpt lat="31.28522505633794" lon="-4.085843924365614"><ele>759.0</ele><time>2026-04-27T06:36:20.999Z</time></trkpt><trkpt lat="31.285402872345635" lon="-4.086132535024484"><ele>759.0</ele><time>2026-04-27T06:36:21.999Z</time></trkpt><trkpt lat="31.285573931264764" lon="-4.08641526886697"><ele>759.0</ele><time>2026-04-27T06:36:22.999Z</time></trkpt><trkpt lat="31.285735743616616" lon="-4.0867043721749345"><ele>759.0</ele><time>2026-04-27T06:36:23.999Z</time></trkpt><trkpt lat="31.285890892818767" lon="-4.087001416226417"><ele>759.0</ele><time>2026-04-27T06:36:24.999Z</time></trkpt><trkpt lat="31.286035655415386" lon="-4.087308804971651"><ele>758.5</ele><time>2026-04-27T06:36:25.999Z</time></trkpt><trkpt lat="31.286168341133006" lon="-4.087623875628372"><ele>758.0</ele><time>2026-04-27T06:36:26.999Z</time></trkpt><trkpt lat="31.286285701694105" lon="-4.087944551518599"><ele>757.5</ele><time>2026-04-27T06:36:27.999Z</time></trkpt><trkpt lat="31.286388134074805" lon="-4.0882753829422045"><ele>757.0</ele><time>2026-04-27T06:36:28.999Z</time></trkpt><trkpt lat="31.286487012958485" lon="-4.088610117278408"><ele>756.0</ele><time>2026-04-27T06:36:29.999Z</time></trkpt><trkpt lat="31.286585115402712" lon="-4.088946641531025"><ele>755.0</ele><time>2026-04-27T06:36:30.999Z</time></trkpt><trkpt lat="31.28668176707439" lon="-4.0892799809004154"><ele>755.0</ele><time>2026-04-27T06:36:31.999Z</time></trkpt><trkpt lat="31.286776292021987" lon="-4.089610737370711"><ele>755.0</ele><time>2026-04-27T06:36:32.999Z</time></trkpt><trkpt lat="31.28686726612408" lon="-4.089937806958848"><ele>755.0</ele><time>2026-04-27T06:36:33.999Z</time></trkpt><trkpt lat="31.28695422784091" lon="-4.090254596850937"><ele>755.0</ele><time>2026-04-27T06:36:34.999Z</time></trkpt><trkpt lat="31.287031769653215" lon="-4.090568162002464"><ele>754.5</ele><time>2026-04-27T06:36:35.999Z</time></trkpt><trkpt lat="31.287097033672115" lon="-4.09088521404022"><ele>754.0</ele><time>2026-04-27T06:36:36.999Z</time></trkpt><trkpt lat="31.287147970008853" lon="-4.091201666794258"><ele>754.0</ele><time>2026-04-27T06:36:37.999Z</time></trkpt><trkpt lat="31.287188459560877" lon="-4.091500436075514"><ele>754.0</ele><time>2026-04-27T06:36:38.999Z</time></trkpt><trkpt lat="31.287229180149485" lon="-4.091753966936547"><ele>755.3333333333334</ele><time>2026-04-27T06:36:39.999Z</time></trkpt><trkpt lat="31.28727559653911" lon="-4.091975858514123"><ele>756.6666666666666</ele><time>2026-04-27T06:36:40.999Z</time></trkpt><trkpt lat="31.287333695227442" lon="-4.092183624766328"><ele>758.0</ele><time>2026-04-27T06:36:41.999Z</time></trkpt><trkpt lat="31.287410364641943" lon="-4.092375254320255"><ele>757.6666666666666</ele><time>2026-04-27T06:36:42.999Z</time></trkpt><trkpt lat="31.28751398504117" lon="-4.09255318902887"><ele>757.3333333333334</ele><time>2026-04-27T06:36:43.999Z</time></trkpt><trkpt lat="31.287642228400138" lon="-4.092723264102242"><ele>757.0</ele><time>2026-04-27T06:36:44.999Z</time></trkpt><trkpt lat="31.287777836671996" lon="-4.092884577806511"><ele>757.0</ele><time>2026-04-27T06:36:45.999Z</time></trkpt><trkpt lat="31.28792544870253" lon="-4.093038419851037"><ele>757.0</ele><time>2026-04-27T06:36:46.999Z</time></trkpt><trkpt lat="31.288077734879593" lon="-4.093193430893865"><ele>757.0</ele><time>2026-04-27T06:36:47.999Z</time></trkpt><trkpt lat="31.288227837962243" lon="-4.093349657282273"><ele>756.6666666666667</ele><time>2026-04-27T06:36:48.999Z</time></trkpt><trkpt lat="31.288381388573935" lon="-4.09350159847674"><ele>756.3333333333334</ele><time>2026-04-27T06:36:49.999Z</time></trkpt><trkpt lat="31.28853636595535" lon="-4.093643202298921"><ele>756.0</ele><time>2026-04-27T06:36:50.999Z</time></trkpt><trkpt lat="31.28869449539521" lon="-4.09377730564325"><ele>756.0</ele><time>2026-04-27T06:36:51.999Z</time></trkpt><trkpt lat="31.288856038097773" lon="-4.093907367497902"><ele>756.0</ele><time>2026-04-27T06:36:52.999Z</time></trkpt><trkpt lat="31.289021282495835" lon="-4.094036836328594"><ele>756.0</ele><time>2026-04-27T06:36:53.999Z</time></trkpt><trkpt lat="31.289196744984256" lon="-4.09417084917586"><ele>756.0</ele><time>2026-04-27T06:36:54.999Z</time></trkpt><trkpt lat="31.28937907651732" lon="-4.0943101059866"><ele>756.0</ele><time>2026-04-27T06:36:55.999Z</time></trkpt><trkpt lat="31.28957345263824" lon="-4.094449049491241"><ele>756.0</ele><time>2026-04-27T06:36:56.999Z</time></trkpt><trkpt lat="31.289777984548618" lon="-4.094588793858503"><ele>756.0</ele><time>2026-04-27T06:36:57.999Z</time></trkpt><trkpt lat="31.28998863427693" lon="-4.094730955460463"><ele>756.0</ele><time>2026-04-27T06:36:58.999Z</time></trkpt><trkpt lat="31.290205389397407" lon="-4.094876869171352"><ele>756.5</ele><time>2026-04-27T06:36:59.999Z</time></trkpt><trkpt lat="31.290429355029193" lon="-4.095027109715052"><ele>757.0</ele><time>2026-04-27T06:37:00.999Z</time></trkpt><trkpt lat="31.290661375527332" lon="-4.095181085496714"><ele>757.0</ele><time>2026-04-27T06:37:01.999Z</time></trkpt><trkpt lat="31.290893861825488" lon="-4.09533335263875"><ele>757.0</ele><time>2026-04-27T06:37:02.999Z</time></trkpt><trkpt lat="31.291128070652583" lon="-4.095484110621474"><ele>757.0</ele><time>2026-04-27T06:37:03.999Z</time></trkpt><trkpt lat="31.291361403154028" lon="-4.095636362364038"><ele>757.0</ele><time>2026-04-27T06:37:04.999Z</time></trkpt><trkpt lat="31.291593381042073" lon="-4.095787683870955"><ele>757.0</ele><time>2026-04-27T06:37:05.999Z</time></trkpt><trkpt lat="31.291828993788286" lon="-4.095933620059228"><ele>757.0</ele><time>2026-04-27T06:37:06.999Z</time></trkpt><trkpt lat="31.29207072977217" lon="-4.09607037706074"><ele>754.5</ele><time>2026-04-27T06:37:07.999Z</time></trkpt><trkpt lat="31.292319140794458" lon="-4.096199997221179"><ele>752.0</ele><time>2026-04-27T06:37:08.999Z</time></trkpt><trkpt lat="31.292562206107306" lon="-4.0963253956621415"><ele>752.0</ele><time>2026-04-27T06:37:09.999Z</time></trkpt><trkpt lat="31.292800880423123" lon="-4.09645001280356"><ele>752.0</ele><time>2026-04-27T06:37:10.999Z</time></trkpt><trkpt lat="31.29303422413508" lon="-4.096572008888359"><ele>752.0</ele><time>2026-04-27T06:37:11.999Z</time></trkpt><trkpt lat="31.293256871300837" lon="-4.096690736820689"><ele>752.0</ele><time>2026-04-27T06:37:12.999Z</time></trkpt><trkpt lat="31.29351427331369" lon="-4.096655495799"><ele>752.0</ele><time>2026-04-27T06:37:13.999Z</time></trkpt><trkpt lat="31.29371649208874" lon="-4.096747146057771"><ele>752.0</ele><time>2026-04-27T06:37:14.999Z</time></trkpt><trkpt lat="31.293900170141296" lon="-4.096807003491127"><ele>752.0</ele><time>2026-04-27T06:37:15.999Z</time></trkpt><trkpt lat="31.294061213021383" lon="-4.096847805569752"><ele>752.6666666666666</ele><time>2026-04-27T06:37:16.999Z</time></trkpt><trkpt lat="31.294244659639947" lon="-4.09685970362121"><ele>753.3333333333334</ele><time>2026-04-27T06:37:17.999Z</time></trkpt><trkpt lat="31.294405773749656" lon="-4.09682361121405"><ele>754.0</ele><time>2026-04-27T06:37:18.999Z</time></trkpt><trkpt lat="31.294553888152315" lon="-4.096747204174343"><ele>754.0</ele><time>2026-04-27T06:37:19.999Z</time></trkpt><trkpt lat="31.294649806874393" lon="-4.096639279443677"><ele>754.0</ele><time>2026-04-27T06:37:20.999Z</time></trkpt><trkpt lat="31.29473454292661" lon="-4.09651255553499"><ele>754.0</ele><time>2026-04-27T06:37:21.999Z</time></trkpt><trkpt lat="31.294853494438048" lon="-4.0963461317257"><ele>755.3333333333334</ele><time>2026-04-27T06:37:23Z</time></trkpt><trkpt lat="31.295001306764874" lon="-4.096162320267084"><ele>756.6666666666666</ele><time>2026-04-27T06:37:24Z</time></trkpt><trkpt lat="31.29514379371175" lon="-4.095993063398684"><ele>758.0</ele><time>2026-04-27T06:37:25Z</time></trkpt><trkpt lat="31.295291121196872" lon="-4.095818379596155"><ele>757.5</ele><time>2026-04-27T06:37:26Z</time></trkpt><trkpt lat="31.295460203623275" lon="-4.095625880099463"><ele>757.0</ele><time>2026-04-27T06:37:27Z</time></trkpt><trkpt lat="31.295702493049372" lon="-4.095465849838841"><ele>757.6666666666667</ele><time>2026-04-27T06:37:28Z</time></trkpt><trkpt lat="31.295915871574003" lon="-4.0954094773938845"><ele>758.3333333333334</ele><time>2026-04-27T06:37:29Z</time></trkpt><trkpt lat="31.296104144218763" lon="-4.095364405097628"><ele>759.0</ele><time>2026-04-27T06:37:30Z</time></trkpt><trkpt lat="31.296295481972983" lon="-4.095309036255604"><ele>759.0</ele><time>2026-04-27T06:37:31Z</time></trkpt><trkpt lat="31.29640780286617" lon="-4.094693561825289"><ele>759.0</ele><time>2026-04-27T06:37:32Z</time></trkpt><trkpt lat="31.296582971273548" lon="-4.094453210871252"><ele>759.0</ele><time>2026-04-27T06:37:33Z</time></trkpt><trkpt lat="31.296762753759108" lon="-4.0942088032411865"><ele>759.0</ele><time>2026-04-27T06:37:34Z</time></trkpt><trkpt lat="31.29694829528595" lon="-4.0939552240441"><ele>759.0</ele><time>2026-04-27T06:37:35Z</time></trkpt><trkpt lat="31.29713753847996" lon="-4.093694877410465"><ele>759.0</ele><time>2026-04-27T06:37:36Z</time></trkpt><trkpt lat="31.297328558206775" lon="-4.093432433925228"><ele>759.0</ele><time>2026-04-27T06:37:37Z</time></trkpt><trkpt lat="31.297517768815887" lon="-4.093171478023734"><ele>759.0</ele><time>2026-04-27T06:37:38Z</time></trkpt><trkpt lat="31.29770478652288" lon="-4.0929176192419146"><ele>759.0</ele><time>2026-04-27T06:37:39Z</time></trkpt><trkpt lat="31.297887113959938" lon="-4.0926704178350946"><ele>759.0</ele><time>2026-04-27T06:37:40Z</time></trkpt><trkpt lat="31.298063737913953" lon="-4.092428118420259"><ele>759.0</ele><time>2026-04-27T06:37:41Z</time></trkpt><trkpt lat="31.298233112590385" lon="-4.092192443450033"><ele>759.0</ele><time>2026-04-27T06:37:42Z</time></trkpt><trkpt lat="31.29839643350763" lon="-4.091967663121879"><ele>759.0</ele><time>2026-04-27T06:37:43Z</time></trkpt><trkpt lat="31.29855339450062" lon="-4.091749463001549"><ele>760.0</ele><time>2026-04-27T06:37:44Z</time></trkpt><trkpt lat="31.29870772152616" lon="-4.091534029955854"><ele>761.0</ele><time>2026-04-27T06:37:45Z</time></trkpt><trkpt lat="31.298859573645476" lon="-4.091322708210414"><ele>761.0</ele><time>2026-04-27T06:37:46Z</time></trkpt><trkpt lat="31.29901157330019" lon="-4.091114733414196"><ele>761.0</ele><time>2026-04-27T06:37:47Z</time></trkpt><trkpt lat="31.299171004518573" lon="-4.09091172047945"><ele>760.5</ele><time>2026-04-27T06:37:48Z</time></trkpt><trkpt lat="31.299351799569486" lon="-4.09071205672849"><ele>760.0</ele><time>2026-04-27T06:37:49Z</time></trkpt><trkpt lat="31.29955411242681" lon="-4.090531782205493"><ele>760.0</ele><time>2026-04-27T06:37:50Z</time></trkpt><trkpt lat="31.2997822286449" lon="-4.090377096646201"><ele>760.0</ele><time>2026-04-27T06:37:51Z</time></trkpt><trkpt lat="31.300025996175815" lon="-4.0902366719844405"><ele>760.0</ele><time>2026-04-27T06:37:52Z</time></trkpt><trkpt lat="31.30027158476973" lon="-4.090103064805597"><ele>760.0</ele><time>2026-04-27T06:37:53Z</time></trkpt><trkpt lat="31.30051195096069" lon="-4.089975197460053"><ele>760.5</ele><time>2026-04-27T06:37:54Z</time></trkpt><trkpt lat="31.30074991435326" lon="-4.089855304731548"><ele>761.0</ele><time>2026-04-27T06:37:55Z</time></trkpt><trkpt lat="31.30098347430481" lon="-4.089751676757537"><ele>761.0</ele><time>2026-04-27T06:37:56Z</time></trkpt><trkpt lat="31.301207300983638" lon="-4.089673958800725"><ele>761.0</ele><time>2026-04-27T06:37:57Z</time></trkpt><trkpt lat="31.301425759537466" lon="-4.089624179642557"><ele>760.5</ele><time>2026-04-27T06:37:57.999Z</time></trkpt><trkpt lat="31.301651253497436" lon="-4.089600483481576"><ele>760.0</ele><time>2026-04-27T06:37:58.999Z</time></trkpt><trkpt lat="31.301885698618655" lon="-4.0896022834138845"><ele>760.0</ele><time>2026-04-27T06:37:59.999Z</time></trkpt><trkpt lat="31.302130941977506" lon="-4.0896248040248215"><ele>760.0</ele><time>2026-04-27T06:38:00.999Z</time></trkpt><trkpt lat="31.302383684791756" lon="-4.089662976598532"><ele>759.0</ele><time>2026-04-27T06:38:01.999Z</time></trkpt><trkpt lat="31.302638859100806" lon="-4.089709123634914"><ele>758.0</ele><time>2026-04-27T06:38:02.999Z</time></trkpt><trkpt lat="31.30290315552246" lon="-4.089752575684872"><ele>758.5</ele><time>2026-04-27T06:38:03.999Z</time></trkpt><trkpt lat="31.303175500272495" lon="-4.089798086136068"><ele>759.0</ele><time>2026-04-27T06:38:04.999Z</time></trkpt><trkpt lat="31.303454731698857" lon="-4.089847885668919"><ele>759.0</ele><time>2026-04-27T06:38:05.999Z</time></trkpt><trkpt lat="31.303739863302205" lon="-4.089896483753894"><ele>759.0</ele><time>2026-04-27T06:38:06.999Z</time></trkpt><trkpt lat="31.304028614138627" lon="-4.089943804751397"><ele>760.0</ele><time>2026-04-27T06:38:07.999Z</time></trkpt><trkpt lat="31.304321106069978" lon="-4.089992159902057"><ele>761.0</ele><time>2026-04-27T06:38:08.999Z</time></trkpt><trkpt lat="31.304615972705243" lon="-4.090041094564669"><ele>760.5</ele><time>2026-04-27T06:38:09.999Z</time></trkpt><trkpt lat="31.304915954805537" lon="-4.090092051451"><ele>760.0</ele><time>2026-04-27T06:38:10.999Z</time></trkpt><trkpt lat="31.305219580868055" lon="-4.090144745508184"><ele>760.0</ele><time>2026-04-27T06:38:11.999Z</time></trkpt><trkpt lat="31.30552605874571" lon="-4.090197895793277"><ele>760.0</ele><time>2026-04-27T06:38:12.999Z</time></trkpt><trkpt lat="31.305833870753926" lon="-4.0902514749668875"><ele>760.5</ele><time>2026-04-27T06:38:13.999Z</time></trkpt><trkpt lat="31.306135361933734" lon="-4.090303668147889"><ele>761.0</ele><time>2026-04-27T06:38:14.999Z</time></trkpt><trkpt lat="31.306426279423697" lon="-4.090352342051044"><ele>759.0</ele><time>2026-04-27T06:38:15.999Z</time></trkpt><trkpt lat="31.30671035878474" lon="-4.090400339576922"><ele>757.0</ele><time>2026-04-27T06:38:16.999Z</time></trkpt><trkpt lat="31.306988533875693" lon="-4.090453808989696"><ele>758.5</ele><time>2026-04-27T06:38:17.999Z</time></trkpt><trkpt lat="31.307265956785706" lon="-4.090519943298658"><ele>760.0</ele><time>2026-04-27T06:38:18.999Z</time></trkpt><trkpt lat="31.307543767440745" lon="-4.090603525696726"><ele>760.0</ele><time>2026-04-27T06:38:19.999Z</time></trkpt><trkpt lat="31.307823550668527" lon="-4.0907089781316355"><ele>760.0</ele><time>2026-04-27T06:38:20.999Z</time></trkpt><trkpt lat="31.30810301305265" lon="-4.090832027867529"><ele>760.5</ele><time>2026-04-27T06:38:21.999Z</time></trkpt><trkpt lat="31.30837990885863" lon="-4.090967077415033"><ele>761.0</ele><time>2026-04-27T06:38:22.999Z</time></trkpt><trkpt lat="31.308655692566525" lon="-4.091114181461205"><ele>760.5</ele><time>2026-04-27T06:38:23.999Z</time></trkpt><trkpt lat="31.308932642354023" lon="-4.091268027182455"><ele>760.0</ele><time>2026-04-27T06:38:24.999Z</time></trkpt><trkpt lat="31.309201349569307" lon="-4.091417559580872"><ele>760.0</ele><time>2026-04-27T06:38:25.999Z</time></trkpt><trkpt lat="31.30946044538317" lon="-4.091556273817353"><ele>760.0</ele><time>2026-04-27T06:38:26.999Z</time></trkpt><trkpt lat="31.309694318360645" lon="-4.091679658628752"><ele>759.0</ele><time>2026-04-27T06:38:27.999Z</time></trkpt><trkpt lat="31.30991148267071" lon="-4.0917951268337935"><ele>758.0</ele><time>2026-04-27T06:38:28.999Z</time></trkpt><trkpt lat="31.310114427108036" lon="-4.091906413824404"><ele>758.0</ele><time>2026-04-27T06:38:29.999Z</time></trkpt><trkpt lat="31.31031377828761" lon="-4.092020748911956"><ele>758.0</ele><time>2026-04-27T06:38:30.999Z</time></trkpt><trkpt lat="31.310503721337845" lon="-4.092138563802613"><ele>758.0</ele><time>2026-04-27T06:38:31.999Z</time></trkpt><trkpt lat="31.310671003576438" lon="-4.09226207323119"><ele>758.0</ele><time>2026-04-27T06:38:32.999Z</time></trkpt><trkpt lat="31.31082304832025" lon="-4.092400244285204"><ele>758.0</ele><time>2026-04-27T06:38:33.999Z</time></trkpt><trkpt lat="31.31095939939437" lon="-4.092555529838731"><ele>758.0</ele><time>2026-04-27T06:38:34.999Z</time></trkpt><trkpt lat="31.31108482972769" lon="-4.092730907790783"><ele>758.0</ele><time>2026-04-27T06:38:35.999Z</time></trkpt><trkpt lat="31.31119799925216" lon="-4.09292942225654"><ele>758.0</ele><time>2026-04-27T06:38:36.999Z</time></trkpt><trkpt lat="31.311301969835416" lon="-4.093159549491195"><ele>758.0</ele><time>2026-04-27T06:38:37.999Z</time></trkpt><trkpt lat="31.31139366744725" lon="-4.09342104296859"><ele>758.0</ele><time>2026-04-27T06:38:38.999Z</time></trkpt><trkpt lat="31.311480517736776" lon="-4.0937138214898585"><ele>758.0</ele><time>2026-04-27T06:38:39.999Z</time></trkpt><trkpt lat="31.311567129670436" lon="-4.094012092270352"><ele>758.0</ele><time>2026-04-27T06:38:40.999Z</time></trkpt><trkpt lat="31.31165701204857" lon="-4.094309447930445"><ele>758.0</ele><time>2026-04-27T06:38:41.999Z</time></trkpt><trkpt lat="31.31175516930708" lon="-4.094600244340653"><ele>758.0</ele><time>2026-04-27T06:38:42.999Z</time></trkpt><trkpt lat="31.31186566780033" lon="-4.094891730695513"><ele>758.0</ele><time>2026-04-27T06:38:43.999Z</time></trkpt><trkpt lat="31.311991742210395" lon="-4.095188350829305"><ele>757.5</ele><time>2026-04-27T06:38:44.999Z</time></trkpt><trkpt lat="31.312123215740826" lon="-4.095490744027303"><ele>757.0</ele><time>2026-04-27T06:38:45.999Z</time></trkpt><trkpt lat="31.312257430548847" lon="-4.0957938489025665"><ele>758.0</ele><time>2026-04-27T06:38:46.999Z</time></trkpt><trkpt lat="31.312392266759428" lon="-4.096095300997719"><ele>759.0</ele><time>2026-04-27T06:38:47.999Z</time></trkpt><trkpt lat="31.312528877512705" lon="-4.096401937575906"><ele>759.5</ele><time>2026-04-27T06:38:48.999Z</time></trkpt><trkpt lat="31.312663666581198" lon="-4.096709322869168"><ele>760.0</ele><time>2026-04-27T06:38:49.999Z</time></trkpt><trkpt lat="31.31279829037748" lon="-4.0970172401562905"><ele>760.0</ele><time>2026-04-27T06:38:50.999Z</time></trkpt><trkpt lat="31.31293369521427" lon="-4.097322833394237"><ele>760.0</ele><time>2026-04-27T06:38:51.999Z</time></trkpt><trkpt lat="31.31306822540167" lon="-4.097623600354361"><ele>760.0</ele><time>2026-04-27T06:38:52.999Z</time></trkpt><trkpt lat="31.313202603357606" lon="-4.09792436351399"><ele>760.0</ele><time>2026-04-27T06:38:53.999Z</time></trkpt><trkpt lat="31.313336779762327" lon="-4.098225108446619"><ele>760.0</ele><time>2026-04-27T06:38:54.999Z</time></trkpt><trkpt lat="31.31347148099965" lon="-4.098527337434602"><ele>760.0</ele><time>2026-04-27T06:38:55.999Z</time></trkpt><trkpt lat="31.313607112193466" lon="-4.098832063260487"><ele>760.0</ele><time>2026-04-27T06:38:56.999Z</time></trkpt><trkpt lat="31.31374061307356" lon="-4.099132783179122"><ele>760.0</ele><time>2026-04-27T06:38:57.999Z</time></trkpt><trkpt lat="31.313869396680687" lon="-4.099424587316176"><ele>760.0</ele><time>2026-04-27T06:38:58.999Z</time></trkpt><trkpt lat="31.3139982545224" lon="-4.099710524568238"><ele>760.0</ele><time>2026-04-27T06:38:59.999Z</time></trkpt><trkpt lat="31.314123520318724" lon="-4.099989122148131"><ele>760.0</ele><time>2026-04-27T06:39:00.999Z</time></trkpt><trkpt lat="31.31424708007176" lon="-4.1002629649505415"><ele>760.0</ele><time>2026-04-27T06:39:01.999Z</time></trkpt><trkpt lat="31.314369839856482" lon="-4.100533791202743"><ele>759.0</ele><time>2026-04-27T06:39:02.999Z</time></trkpt><trkpt lat="31.31449234340891" lon="-4.100803698479847"><ele>758.0</ele><time>2026-04-27T06:39:03.999Z</time></trkpt><trkpt lat="31.3146144936562" lon="-4.101075817019944"><ele>758.0</ele><time>2026-04-27T06:39:04.999Z</time></trkpt><trkpt lat="31.31473548166417" lon="-4.101350085954457"><ele>758.0</ele><time>2026-04-27T06:39:05.999Z</time></trkpt><trkpt lat="31.31485686223379" lon="-4.101625418614189"><ele>759.0</ele><time>2026-04-27T06:39:06.999Z</time></trkpt><trkpt lat="31.314980921561745" lon="-4.101904795229272"><ele>760.0</ele><time>2026-04-27T06:39:07.999Z</time></trkpt><trkpt lat="31.31510937629661" lon="-4.102188743483423"><ele>759.5</ele><time>2026-04-27T06:39:08.999Z</time></trkpt><trkpt lat="31.31523825328282" lon="-4.1024746902370675"><ele>759.0</ele><time>2026-04-27T06:39:09.999Z</time></trkpt><trkpt lat="31.315365481081354" lon="-4.102761970214842"><ele>759.0</ele><time>2026-04-27T06:39:10.999Z</time></trkpt><trkpt lat="31.315487958548314" lon="-4.10304430703713"><ele>759.0</ele><time>2026-04-27T06:39:11.999Z</time></trkpt><trkpt lat="31.315606275030405" lon="-4.103321202461977"><ele>759.5</ele><time>2026-04-27T06:39:12.999Z</time></trkpt><trkpt lat="31.3157239821771" lon="-4.103589975075861"><ele>760.0</ele><time>2026-04-27T06:39:13.999Z</time></trkpt><trkpt lat="31.315844865596247" lon="-4.103847601473779"><ele>759.0</ele><time>2026-04-27T06:39:14.999Z</time></trkpt><trkpt lat="31.3159724358006" lon="-4.104097987150188"><ele>758.0</ele><time>2026-04-27T06:39:15.999Z</time></trkpt><trkpt lat="31.316107260788765" lon="-4.104339891080433"><ele>758.0</ele><time>2026-04-27T06:39:16.999Z</time></trkpt><trkpt lat="31.316245906878578" lon="-4.104573494304642"><ele>758.0</ele><time>2026-04-27T06:39:17.999Z</time></trkpt><trkpt lat="31.316383962307903" lon="-4.104797146003458"><ele>757.5</ele><time>2026-04-27T06:39:18.999Z</time></trkpt><trkpt lat="31.316531603325362" lon="-4.1050047485493995"><ele>757.0</ele><time>2026-04-27T06:39:19.999Z</time></trkpt><trkpt lat="31.316687099473594" lon="-4.105205853404455"><ele>757.0</ele><time>2026-04-27T06:39:20.999Z</time></trkpt><trkpt lat="31.316847032803146" lon="-4.105412633578868"><ele>757.0</ele><time>2026-04-27T06:39:21.998Z</time></trkpt><trkpt lat="31.317014425025942" lon="-4.105620039549969"><ele>756.0</ele><time>2026-04-27T06:39:22.998Z</time></trkpt><trkpt lat="31.31719068028334" lon="-4.105824580093691"><ele>755.0</ele><time>2026-04-27T06:39:23.998Z</time></trkpt><trkpt lat="31.317378338391602" lon="-4.106016997560692"><ele>755.0</ele><time>2026-04-27T06:39:24.998Z</time></trkpt><trkpt lat="31.317576984720226" lon="-4.106201800518117"><ele>755.0</ele><time>2026-04-27T06:39:25.998Z</time></trkpt><trkpt lat="31.31778172021547" lon="-4.106385156701733"><ele>755.0</ele><time>2026-04-27T06:39:26.998Z</time></trkpt><trkpt lat="31.317989420439925" lon="-4.106574940758106"><ele>755.0</ele><time>2026-04-27T06:39:28Z</time></trkpt><trkpt lat="31.31819487624116" lon="-4.106774798857071"><ele>755.0</ele><time>2026-04-27T06:39:29Z</time></trkpt><trkpt lat="31.31839850355249" lon="-4.1069866023852"><ele>755.0</ele><time>2026-04-27T06:39:30Z</time></trkpt><trkpt lat="31.31859591901961" lon="-4.107205956580741"><ele>756.0</ele><time>2026-04-27T06:39:31Z</time></trkpt><trkpt lat="31.31879270704975" lon="-4.107438038396615"><ele>757.0</ele><time>2026-04-27T06:39:32Z</time></trkpt><trkpt lat="31.318989411793243" lon="-4.107670961368908"><ele>757.0</ele><time>2026-04-27T06:39:33Z</time></trkpt><trkpt lat="31.319187243215275" lon="-4.107904198323307"><ele>757.0</ele><time>2026-04-27T06:39:34Z</time></trkpt><trkpt lat="31.31938647045829" lon="-4.108134113791344"><ele>757.0</ele><time>2026-04-27T06:39:35Z</time></trkpt><trkpt lat="31.319588982607666" lon="-4.108359585254235"><ele>757.0</ele><time>2026-04-27T06:39:36Z</time></trkpt><trkpt lat="31.31979689357322" lon="-4.108584583841188"><ele>757.0</ele><time>2026-04-27T06:39:37Z</time></trkpt><trkpt lat="31.320015021240806" lon="-4.108811681428826"><ele>757.0</ele><time>2026-04-27T06:39:38Z</time></trkpt><trkpt lat="31.320237151910238" lon="-4.109034595424684"><ele>756.0</ele><time>2026-04-27T06:39:39Z</time></trkpt><trkpt lat="31.320443475527615" lon="-4.10927651935288"><ele>755.0</ele><time>2026-04-27T06:39:40Z</time></trkpt><trkpt lat="31.32065278397516" lon="-4.1095163148150755"><ele>755.0</ele><time>2026-04-27T06:39:41Z</time></trkpt><trkpt lat="31.320925330907382" lon="-4.109679324265051"><ele>755.0</ele><time>2026-04-27T06:39:42Z</time></trkpt><trkpt lat="31.321152998741006" lon="-4.109882886013066"><ele>755.0</ele><time>2026-04-27T06:39:43Z</time></trkpt><trkpt lat="31.321377589178375" lon="-4.1100799816580835"><ele>755.0</ele><time>2026-04-27T06:39:44Z</time></trkpt><trkpt lat="31.321598600630455" lon="-4.110270975353617"><ele>755.0</ele><time>2026-04-27T06:39:45Z</time></trkpt><trkpt lat="31.321815256263797" lon="-4.11045578045004"><ele>755.0</ele><time>2026-04-27T06:39:46Z</time></trkpt><trkpt lat="31.322025863270888" lon="-4.110637305188771"><ele>756.0</ele><time>2026-04-27T06:39:47Z</time></trkpt><trkpt lat="31.322233914219876" lon="-4.110821918628964"><ele>757.0</ele><time>2026-04-27T06:39:48Z</time></trkpt><trkpt lat="31.32243511412782" lon="-4.111016717208147"><ele>757.0</ele><time>2026-04-27T06:39:49Z</time></trkpt><trkpt lat="31.322622265019568" lon="-4.111227322778309"><ele>757.0</ele><time>2026-04-27T06:39:50Z</time></trkpt><trkpt lat="31.322795146316935" lon="-4.111456902202855"><ele>757.5</ele><time>2026-04-27T06:39:51Z</time></trkpt><trkpt lat="31.32294453781866" lon="-4.111704963330941"><ele>758.0</ele><time>2026-04-27T06:39:52Z</time></trkpt><trkpt lat="31.3230747004819" lon="-4.111953904220557"><ele>758.0</ele><time>2026-04-27T06:39:53Z</time></trkpt><trkpt lat="31.32317881742538" lon="-4.112213111896126"><ele>758.0</ele><time>2026-04-27T06:39:54Z</time></trkpt><trkpt lat="31.323276967017467" lon="-4.112479470331711"><ele>758.0</ele><time>2026-04-27T06:39:55Z</time></trkpt><trkpt lat="31.323356462822108" lon="-4.112766363226148"><ele>758.0</ele><time>2026-04-27T06:39:56Z</time></trkpt><trkpt lat="31.323421876775942" lon="-4.1130639228366235"><ele>758.5</ele><time>2026-04-27T06:39:57Z</time></trkpt><trkpt lat="31.323466877397827" lon="-4.113366549362521"><ele>759.0</ele><time>2026-04-27T06:39:58Z</time></trkpt><trkpt lat="31.323501527324808" lon="-4.113655933990327"><ele>759.0</ele><time>2026-04-27T06:39:59Z</time></trkpt><trkpt lat="31.32355269183151" lon="-4.113927610688711"><ele>759.0</ele><time>2026-04-27T06:40:00Z</time></trkpt><trkpt lat="31.323629219020987" lon="-4.1141832735936665"><ele>759.5</ele><time>2026-04-27T06:40:01Z</time></trkpt><trkpt lat="31.323735443164885" lon="-4.114422415268938"><ele>760.0</ele><time>2026-04-27T06:40:01.999Z</time></trkpt><trkpt lat="31.32386855949674" lon="-4.114644837852182"><ele>760.5</ele><time>2026-04-27T06:40:02.999Z</time></trkpt><trkpt lat="31.324026431084693" lon="-4.11486069605996"><ele>761.0</ele><time>2026-04-27T06:40:03.999Z</time></trkpt><trkpt lat="31.32420225916518" lon="-4.115079541633525"><ele>760.0</ele><time>2026-04-27T06:40:04.999Z</time></trkpt><trkpt lat="31.32438434207468" lon="-4.115308880380686"><ele>759.0</ele><time>2026-04-27T06:40:05.999Z</time></trkpt><trkpt lat="31.324569810744347" lon="-4.115552247875168"><ele>759.5</ele><time>2026-04-27T06:40:06.999Z</time></trkpt><trkpt lat="31.324759498042518" lon="-4.11580215566013"><ele>760.0</ele><time>2026-04-27T06:40:07.999Z</time></trkpt><trkpt lat="31.32495574126667" lon="-4.116059475947757"><ele>760.0</ele><time>2026-04-27T06:40:08.999Z</time></trkpt><trkpt lat="31.325156060200648" lon="-4.116321014876099"><ele>760.0</ele><time>2026-04-27T06:40:09.999Z</time></trkpt><trkpt lat="31.32535800450279" lon="-4.116584738832053"><ele>760.5</ele><time>2026-04-27T06:40:10.999Z</time></trkpt><trkpt lat="31.32556214090788" lon="-4.116852784135324"><ele>761.0</ele><time>2026-04-27T06:40:11.999Z</time></trkpt><trkpt lat="31.32576728486035" lon="-4.117123635878784"><ele>761.0</ele><time>2026-04-27T06:40:12.999Z</time></trkpt><trkpt lat="31.32597386838083" lon="-4.117393462164442"><ele>761.0</ele><time>2026-04-27T06:40:13.999Z</time></trkpt><trkpt lat="31.32618246364491" lon="-4.11765555834018"><ele>762.0</ele><time>2026-04-27T06:40:14.999Z</time></trkpt><trkpt lat="31.326397182347282" lon="-4.117910715533665"><ele>763.0</ele><time>2026-04-27T06:40:15.999Z</time></trkpt><trkpt lat="31.32661696078957" lon="-4.11815636587393"><ele>762.5</ele><time>2026-04-27T06:40:16.999Z</time></trkpt><trkpt lat="31.326849658996796" lon="-4.118399591538641"><ele>762.0</ele><time>2026-04-27T06:40:17.999Z</time></trkpt><trkpt lat="31.327095130314646" lon="-4.11863738066819"><ele>762.0</ele><time>2026-04-27T06:40:18.999Z</time></trkpt><trkpt lat="31.32733957898544" lon="-4.1188645391382215"><ele>762.0</ele><time>2026-04-27T06:40:19.999Z</time></trkpt><trkpt lat="31.327579160293695" lon="-4.119080198953772"><ele>761.0</ele><time>2026-04-27T06:40:20.999Z</time></trkpt><trkpt lat="31.32781764126448" lon="-4.119295338329822"><ele>760.0</ele><time>2026-04-27T06:40:21.999Z</time></trkpt><trkpt lat="31.32805625702359" lon="-4.1195092261623145"><ele>761.5</ele><time>2026-04-27T06:40:22.999Z</time></trkpt><trkpt lat="31.328297665858187" lon="-4.119725311266844"><ele>763.0</ele><time>2026-04-27T06:40:23.999Z</time></trkpt><trkpt lat="31.328538405638337" lon="-4.1199431373083435"><ele>763.0</ele><time>2026-04-27T06:40:24.999Z</time></trkpt><trkpt lat="31.328778165907966" lon="-4.12016015760963"><ele>763.0</ele><time>2026-04-27T06:40:25.999Z</time></trkpt><trkpt lat="31.329015255405345" lon="-4.120374593699249"><ele>763.5</ele><time>2026-04-27T06:40:26.999Z</time></trkpt><trkpt lat="31.329250494885102" lon="-4.120587783950713"><ele>764.0</ele><time>2026-04-27T06:40:27.999Z</time></trkpt><trkpt lat="31.32948646780003" lon="-4.120801525068216"><ele>762.5</ele><time>2026-04-27T06:40:28.999Z</time></trkpt><trkpt lat="31.32972349321982" lon="-4.121015515473549"><ele>761.0</ele><time>2026-04-27T06:40:29.999Z</time></trkpt><trkpt lat="31.329962057985984" lon="-4.121230143168573"><ele>761.0</ele><time>2026-04-27T06:40:30.999Z</time></trkpt><trkpt lat="31.330205533653235" lon="-4.121448486874069"><ele>761.0</ele><time>2026-04-27T06:40:31.999Z</time></trkpt><trkpt lat="31.33044634883019" lon="-4.121668906074291"><ele>762.5</ele><time>2026-04-27T06:40:32.999Z</time></trkpt><trkpt lat="31.330685802489196" lon="-4.121888397519222"><ele>764.0</ele><time>2026-04-27T06:40:33.999Z</time></trkpt><trkpt lat="31.330921942181973" lon="-4.122104677891248"><ele>764.0</ele><time>2026-04-27T06:40:34.999Z</time></trkpt><trkpt lat="31.331160281965822" lon="-4.1223186882447145"><ele>764.0</ele><time>2026-04-27T06:40:35.999Z</time></trkpt><trkpt lat="31.33139821121377" lon="-4.122531599442723"><ele>763.5</ele><time>2026-04-27T06:40:36.999Z</time></trkpt><trkpt lat="31.331639826698407" lon="-4.122748115040975"><ele>763.0</ele><time>2026-04-27T06:40:37.999Z</time></trkpt><trkpt lat="31.331879983948447" lon="-4.122966603601292"><ele>763.0</ele><time>2026-04-27T06:40:38.999Z</time></trkpt><trkpt lat="31.332123445969142" lon="-4.12318790216453"><ele>763.0</ele><time>2026-04-27T06:40:39.999Z</time></trkpt><trkpt lat="31.3323674635751" lon="-4.123410906843067"><ele>761.5</ele><time>2026-04-27T06:40:40.999Z</time></trkpt><trkpt lat="31.332613100190645" lon="-4.123637385805328"><ele>760.0</ele><time>2026-04-27T06:40:41.999Z</time></trkpt><trkpt lat="31.332859992300502" lon="-4.123862937268925"><ele>761.0</ele><time>2026-04-27T06:40:42.999Z</time></trkpt><trkpt lat="31.333109178416557" lon="-4.124088190068025"><ele>762.0</ele><time>2026-04-27T06:40:43.999Z</time></trkpt><trkpt lat="31.333357985090615" lon="-4.124313132305871"><ele>762.0</ele><time>2026-04-27T06:40:44.999Z</time></trkpt><trkpt lat="31.333606866957606" lon="-4.124536150811386"><ele>762.0</ele><time>2026-04-27T06:40:45.999Z</time></trkpt><trkpt lat="31.333854825206274" lon="-4.124759044789385"><ele>763.0</ele><time>2026-04-27T06:40:46.999Z</time></trkpt><trkpt lat="31.3340993385236" lon="-4.124981251147933"><ele>764.0</ele><time>2026-04-27T06:40:47.999Z</time></trkpt><trkpt lat="31.334343984965198" lon="-4.12520519348857"><ele>764.0</ele><time>2026-04-27T06:40:48.999Z</time></trkpt><trkpt lat="31.334600650006443" lon="-4.125415355879253"><ele>764.0</ele><time>2026-04-27T06:40:49.999Z</time></trkpt><trkpt lat="31.334849331439067" lon="-4.125641711407143"><ele>765.0</ele><time>2026-04-27T06:40:50.999Z</time></trkpt><trkpt lat="31.335096799400525" lon="-4.1258663697077855"><ele>766.0</ele><time>2026-04-27T06:40:51.999Z</time></trkpt><trkpt lat="31.335345456016412" lon="-4.126093015604125"><ele>766.0</ele><time>2026-04-27T06:40:52.999Z</time></trkpt><trkpt lat="31.33559624742719" lon="-4.1263205974883865"><ele>766.0</ele><time>2026-04-27T06:40:53.999Z</time></trkpt><trkpt lat="31.33584788903643" lon="-4.12654950877975"><ele>765.5</ele><time>2026-04-27T06:40:54.999Z</time></trkpt><trkpt lat="31.336089106220026" lon="-4.126791768005764"><ele>765.0</ele><time>2026-04-27T06:40:55.999Z</time></trkpt><trkpt lat="31.336339598759718" lon="-4.127014698511147"><ele>765.0</ele><time>2026-04-27T06:40:56.999Z</time></trkpt><trkpt lat="31.33658993017809" lon="-4.127238169928812"><ele>765.0</ele><time>2026-04-27T06:40:57.999Z</time></trkpt><trkpt lat="31.33683864160845" lon="-4.127463503389077"><ele>765.0</ele><time>2026-04-27T06:40:58.999Z</time></trkpt><trkpt lat="31.337087992442445" lon="-4.127690643693744"><ele>765.0</ele><time>2026-04-27T06:40:59.999Z</time></trkpt><trkpt lat="31.337335027578284" lon="-4.127915821397949"><ele>765.5</ele><time>2026-04-27T06:41:00.999Z</time></trkpt><trkpt lat="31.33758191981283" lon="-4.128141404290946"><ele>766.0</ele><time>2026-04-27T06:41:01.999Z</time></trkpt><trkpt lat="31.337827748383344" lon="-4.12836808194145"><ele>765.5</ele><time>2026-04-27T06:41:02.999Z</time></trkpt><trkpt lat="31.33807486685111" lon="-4.128595121639327"><ele>765.0</ele><time>2026-04-27T06:41:03.999Z</time></trkpt><trkpt lat="31.338321702510378" lon="-4.128819447864286"><ele>765.0</ele><time>2026-04-27T06:41:04.999Z</time></trkpt><trkpt lat="31.338568881323567" lon="-4.129044345159692"><ele>765.0</ele><time>2026-04-27T06:41:05.999Z</time></trkpt><trkpt lat="31.338818360178873" lon="-4.129269818377615"><ele>764.0</ele><time>2026-04-27T06:41:06.999Z</time></trkpt><trkpt lat="31.33906904046865" lon="-4.129496904488475"><ele>763.0</ele><time>2026-04-27T06:41:07.999Z</time></trkpt><trkpt lat="31.33932085129025" lon="-4.129728040706995"><ele>763.5</ele><time>2026-04-27T06:41:08.999Z</time></trkpt><trkpt lat="31.33958240134004" lon="-4.12994408680407"><ele>764.0</ele><time>2026-04-27T06:41:09.999Z</time></trkpt><trkpt lat="31.33983549837939" lon="-4.130174477675738"><ele>764.0</ele><time>2026-04-27T06:41:10.999Z</time></trkpt><trkpt lat="31.340088393631923" lon="-4.130404411264554"><ele>764.0</ele><time>2026-04-27T06:41:11.999Z</time></trkpt><trkpt lat="31.340333293618734" lon="-4.130649117541873"><ele>765.5</ele><time>2026-04-27T06:41:12.999Z</time></trkpt><trkpt lat="31.340586311925534" lon="-4.130877814265568"><ele>767.0</ele><time>2026-04-27T06:41:13.999Z</time></trkpt><trkpt lat="31.340839073336557" lon="-4.131107954615996"><ele>767.0</ele><time>2026-04-27T06:41:14.999Z</time></trkpt><trkpt lat="31.341089332065998" lon="-4.1313348009470445"><ele>767.0</ele><time>2026-04-27T06:41:15.999Z</time></trkpt><trkpt lat="31.341338752447122" lon="-4.131561566850759"><ele>766.0</ele><time>2026-04-27T06:41:16.999Z</time></trkpt><trkpt lat="31.341588283369614" lon="-4.131787727599155"><ele>765.0</ele><time>2026-04-27T06:41:17.999Z</time></trkpt><trkpt lat="31.34183895488601" lon="-4.132014958132763"><ele>765.0</ele><time>2026-04-27T06:41:18.999Z</time></trkpt><trkpt lat="31.342083118098248" lon="-4.132238337038666"><ele>765.0</ele><time>2026-04-27T06:41:19.999Z</time></trkpt><trkpt lat="31.342321257754392" lon="-4.1324546354045015"><ele>766.5</ele><time>2026-04-27T06:41:20.999Z</time></trkpt><trkpt lat="31.342555148326113" lon="-4.1326632151850005"><ele>768.0</ele><time>2026-04-27T06:41:21.999Z</time></trkpt><trkpt lat="31.342783403731953" lon="-4.13286725138684"><ele>768.0</ele><time>2026-04-27T06:41:22.999Z</time></trkpt><trkpt lat="31.342994852527255" lon="-4.133059290478967"><ele>768.0</ele><time>2026-04-27T06:41:23.999Z</time></trkpt><trkpt lat="31.34319086163337" lon="-4.133238750982218"><ele>767.3333333333334</ele><time>2026-04-27T06:41:24.998Z</time></trkpt><trkpt lat="31.343363400634217" lon="-4.133396924479571"><ele>766.6666666666667</ele><time>2026-04-27T06:41:25.998Z</time></trkpt><trkpt lat="31.343517088324752" lon="-4.13353791138087"><ele>766.0</ele><time>2026-04-27T06:41:26.998Z</time></trkpt><trkpt lat="31.34367559441798" lon="-4.133684542507911"><ele>766.0</ele><time>2026-04-27T06:41:27.998Z</time></trkpt><trkpt lat="31.343843457503667" lon="-4.133837834996136"><ele>766.0</ele><time>2026-04-27T06:41:28.998Z</time></trkpt><trkpt lat="31.344019860223906" lon="-4.134002215632991"><ele>766.0</ele><time>2026-04-27T06:41:29.998Z</time></trkpt><trkpt lat="31.34421105661854" lon="-4.134142570820735"><ele>766.5</ele><time>2026-04-27T06:41:30.998Z</time></trkpt><trkpt lat="31.34439263095329" lon="-4.134301835191086"><ele>767.0</ele><time>2026-04-27T06:41:31.998Z</time></trkpt><trkpt lat="31.344577814097832" lon="-4.134460850247763"><ele>766.5</ele><time>2026-04-27T06:41:32.998Z</time></trkpt><trkpt lat="31.34477222249837" lon="-4.134607400317304"><ele>766.0</ele><time>2026-04-27T06:41:34Z</time></trkpt><trkpt lat="31.34497917441421" lon="-4.134759858926067"><ele>766.0</ele><time>2026-04-27T06:41:35Z</time></trkpt><trkpt lat="31.34520909024612" lon="-4.13488080473676"><ele>766.0</ele><time>2026-04-27T06:41:36Z</time></trkpt><trkpt lat="31.345446230639116" lon="-4.134996259873029"><ele>766.5</ele><time>2026-04-27T06:41:37Z</time></trkpt><trkpt lat="31.34568729371302" lon="-4.13509261722515"><ele>767.0</ele><time>2026-04-27T06:41:38Z</time></trkpt><trkpt lat="31.345935108578697" lon="-4.135171233243619"><ele>767.0</ele><time>2026-04-27T06:41:39Z</time></trkpt><trkpt lat="31.346192941174152" lon="-4.135236828360783"><ele>767.0</ele><time>2026-04-27T06:41:40Z</time></trkpt><trkpt lat="31.346460058508516" lon="-4.135286815500075"><ele>767.5</ele><time>2026-04-27T06:41:41Z</time></trkpt><trkpt lat="31.346737838320355" lon="-4.135299152278632"><ele>768.0</ele><time>2026-04-27T06:41:42Z</time></trkpt><trkpt lat="31.347020372523165" lon="-4.135315448170665"><ele>768.0</ele><time>2026-04-27T06:41:43Z</time></trkpt><trkpt lat="31.3473113713102" lon="-4.135307683363906"><ele>768.0</ele><time>2026-04-27T06:41:44Z</time></trkpt><trkpt lat="31.347608469225005" lon="-4.135296436650539"><ele>768.0</ele><time>2026-04-27T06:41:45Z</time></trkpt><trkpt lat="31.347910154571423" lon="-4.135299940090086"><ele>768.0</ele><time>2026-04-27T06:41:46Z</time></trkpt><trkpt lat="31.348215801127967" lon="-4.135282581627065"><ele>768.0</ele><time>2026-04-27T06:41:47Z</time></trkpt><trkpt lat="31.348518421707897" lon="-4.135273788703062"><ele>768.0</ele><time>2026-04-27T06:41:48Z</time></trkpt><trkpt lat="31.34881793600086" lon="-4.135266783152223"><ele>767.5</ele><time>2026-04-27T06:41:49Z</time></trkpt><trkpt lat="31.34911893712778" lon="-4.135251775659577"><ele>767.0</ele><time>2026-04-27T06:41:50Z</time></trkpt><trkpt lat="31.34942345097544" lon="-4.135235082446584"><ele>767.5</ele><time>2026-04-27T06:41:51Z</time></trkpt><trkpt lat="31.349734755336186" lon="-4.135223887833207"><ele>768.0</ele><time>2026-04-27T06:41:52Z</time></trkpt><trkpt lat="31.350046691455617" lon="-4.135212736142669"><ele>768.0</ele><time>2026-04-27T06:41:53Z</time></trkpt><trkpt lat="31.350362479714974" lon="-4.135200938000402"><ele>768.0</ele><time>2026-04-27T06:41:54Z</time></trkpt><trkpt lat="31.35068074292797" lon="-4.135188847938766"><ele>768.5</ele><time>2026-04-27T06:41:55Z</time></trkpt><trkpt lat="31.350998798391625" lon="-4.13517862386234"><ele>769.0</ele><time>2026-04-27T06:41:56Z</time></trkpt><trkpt lat="31.351312193351962" lon="-4.135165409413226"><ele>770.0</ele><time>2026-04-27T06:41:57Z</time></trkpt><trkpt lat="31.351623656602037" lon="-4.1351531206518946"><ele>771.0</ele><time>2026-04-27T06:41:58Z</time></trkpt><trkpt lat="31.351932474643604" lon="-4.1351453378593375"><ele>770.5</ele><time>2026-04-27T06:41:59Z</time></trkpt><trkpt lat="31.35223765739786" lon="-4.135135147804168"><ele>770.0</ele><time>2026-04-27T06:42:00Z</time></trkpt><trkpt lat="31.352534658113317" lon="-4.135125957143602"><ele>770.0</ele><time>2026-04-27T06:42:01Z</time></trkpt><trkpt lat="31.352822926971527" lon="-4.135113652456645"><ele>770.0</ele><time>2026-04-27T06:42:02Z</time></trkpt><trkpt lat="31.35309839147956" lon="-4.135100834654239"><ele>770.5</ele><time>2026-04-27T06:42:02.999Z</time></trkpt><trkpt lat="31.353359697270434" lon="-4.135087583247467"><ele>771.0</ele><time>2026-04-27T06:42:03.999Z</time></trkpt><trkpt lat="31.353607977396074" lon="-4.135077618747354"><ele>771.0</ele><time>2026-04-27T06:42:04.999Z</time></trkpt><trkpt lat="31.35384511449066" lon="-4.135068258954778"><ele>771.0</ele><time>2026-04-27T06:42:05.999Z</time></trkpt><trkpt lat="31.354071906959923" lon="-4.135060692050651"><ele>771.3333333333333</ele><time>2026-04-27T06:42:06.999Z</time></trkpt><trkpt lat="31.354290712259612" lon="-4.135053351125929"><ele>771.6666666666666</ele><time>2026-04-27T06:42:07.999Z</time></trkpt><trkpt lat="31.354497827100246" lon="-4.135052375021296"><ele>772.0</ele><time>2026-04-27T06:42:08.999Z</time></trkpt><trkpt lat="31.35469672661795" lon="-4.135061960737065"><ele>772.0</ele><time>2026-04-27T06:42:09.999Z</time></trkpt><trkpt lat="31.354884492514238" lon="-4.135094108249567"><ele>772.0</ele><time>2026-04-27T06:42:10.999Z</time></trkpt><trkpt lat="31.355072400928663" lon="-4.135151397553757"><ele>772.0</ele><time>2026-04-27T06:42:11.999Z</time></trkpt><trkpt lat="31.35526114434201" lon="-4.135233581866055"><ele>772.0</ele><time>2026-04-27T06:42:12.999Z</time></trkpt><trkpt lat="31.355448617842892" lon="-4.135345413641307"><ele>772.0</ele><time>2026-04-27T06:42:13.999Z</time></trkpt><trkpt lat="31.35562722361629" lon="-4.1354842607130164"><ele>772.0</ele><time>2026-04-27T06:42:14.999Z</time></trkpt><trkpt lat="31.355793665613636" lon="-4.135648548078536"><ele>771.5</ele><time>2026-04-27T06:42:15.999Z</time></trkpt><trkpt lat="31.35595144920328" lon="-4.135836541578961"><ele>771.0</ele><time>2026-04-27T06:42:16.999Z</time></trkpt><trkpt lat="31.356108324138884" lon="-4.136038209695002"><ele>771.0</ele><time>2026-04-27T06:42:17.999Z</time></trkpt><trkpt lat="31.356276346246865" lon="-4.136245524300341"><ele>771.0</ele><time>2026-04-27T06:42:18.999Z</time></trkpt><trkpt lat="31.35645617788309" lon="-4.136460614517136"><ele>770.5</ele><time>2026-04-27T06:42:19.999Z</time></trkpt><trkpt lat="31.356638919952633" lon="-4.136680993030025"><ele>770.0</ele><time>2026-04-27T06:42:20.999Z</time></trkpt><trkpt lat="31.356824504676997" lon="-4.136906272229724"><ele>770.0</ele><time>2026-04-27T06:42:21.999Z</time></trkpt><trkpt lat="31.357017476219077" lon="-4.137138109650552"><ele>770.0</ele><time>2026-04-27T06:42:22.999Z</time></trkpt><trkpt lat="31.357217048642326" lon="-4.137378544030165"><ele>771.0</ele><time>2026-04-27T06:42:23.999Z</time></trkpt><trkpt lat="31.35742241433856" lon="-4.137626718645362"><ele>772.0</ele><time>2026-04-27T06:42:24.999Z</time></trkpt><trkpt lat="31.357631374719492" lon="-4.137880714016386"><ele>772.0</ele><time>2026-04-27T06:42:25.999Z</time></trkpt><trkpt lat="31.357842718456656" lon="-4.1381372235060905"><ele>772.0</ele><time>2026-04-27T06:42:26.999Z</time></trkpt><trkpt lat="31.358054684815595" lon="-4.138392109499001"><ele>772.0</ele><time>2026-04-27T06:42:27.999Z</time></trkpt><trkpt lat="31.35827067205448" lon="-4.138648619716313"><ele>772.0</ele><time>2026-04-27T06:42:28.999Z</time></trkpt><trkpt lat="31.358487541412643" lon="-4.13890763643431"><ele>772.0</ele><time>2026-04-27T06:42:29.999Z</time></trkpt><trkpt lat="31.358705020029042" lon="-4.139168632637329"><ele>772.0</ele><time>2026-04-27T06:42:30.999Z</time></trkpt><trkpt lat="31.35892285907981" lon="-4.139432772299105"><ele>772.0</ele><time>2026-04-27T06:42:31.999Z</time></trkpt><trkpt lat="31.359140540343382" lon="-4.139697480597505"><ele>772.0</ele><time>2026-04-27T06:42:32.999Z</time></trkpt><trkpt lat="31.359360514595036" lon="-4.139963739296815"><ele>772.0</ele><time>2026-04-27T06:42:33.999Z</time></trkpt><trkpt lat="31.359583191729136" lon="-4.140231532317714"><ele>772.0</ele><time>2026-04-27T06:42:34.999Z</time></trkpt><trkpt lat="31.359806677225922" lon="-4.1404990527651835"><ele>772.0</ele><time>2026-04-27T06:42:35.999Z</time></trkpt><trkpt lat="31.36003336611849" lon="-4.140771846327852"><ele>772.0</ele><time>2026-04-27T06:42:36.999Z</time></trkpt><trkpt lat="31.36026095833526" lon="-4.1410463019060355"><ele>772.0</ele><time>2026-04-27T06:42:37.999Z</time></trkpt><trkpt lat="31.360488425646125" lon="-4.141320877889831"><ele>772.0</ele><time>2026-04-27T06:42:38.999Z</time></trkpt><trkpt lat="31.3607167445494" lon="-4.141597808266152"><ele>771.5</ele><time>2026-04-27T06:42:39.999Z</time></trkpt><trkpt lat="31.360946847047163" lon="-4.141877814360025"><ele>771.0</ele><time>2026-04-27T06:42:40.999Z</time></trkpt><trkpt lat="31.3611808814128" lon="-4.1421616423662355"><ele>772.0</ele><time>2026-04-27T06:42:41.999Z</time></trkpt><trkpt lat="31.361415834595995" lon="-4.142445447913412"><ele>773.0</ele><time>2026-04-27T06:42:42.999Z</time></trkpt><trkpt lat="31.36165326128539" lon="-4.142730327564205"><ele>773.0</ele><time>2026-04-27T06:42:43.999Z</time></trkpt><trkpt lat="31.36189218457065" lon="-4.143016464353271"><ele>773.0</ele><time>2026-04-27T06:42:44.999Z</time></trkpt><trkpt lat="31.3621319753566" lon="-4.143303171903121"><ele>773.5</ele><time>2026-04-27T06:42:45.999Z</time></trkpt><trkpt lat="31.362373679262365" lon="-4.143591666001121"><ele>774.0</ele><time>2026-04-27T06:42:46.999Z</time></trkpt><trkpt lat="31.362613688576676" lon="-4.1438789423064515"><ele>773.5</ele><time>2026-04-27T06:42:47.999Z</time></trkpt><trkpt lat="31.362852516606956" lon="-4.144164996364057"><ele>773.0</ele><time>2026-04-27T06:42:48.999Z</time></trkpt><trkpt lat="31.36308571607207" lon="-4.144446165079054"><ele>772.5</ele><time>2026-04-27T06:42:49.999Z</time></trkpt><trkpt lat="31.36331257653415" lon="-4.14471885847864"><ele>772.0</ele><time>2026-04-27T06:42:50.999Z</time></trkpt><trkpt lat="31.363532698431257" lon="-4.144983598793659"><ele>772.0</ele><time>2026-04-27T06:42:51.999Z</time></trkpt><trkpt lat="31.363755413112898" lon="-4.145249107766356"><ele>772.0</ele><time>2026-04-27T06:42:52.999Z</time></trkpt><trkpt lat="31.36398293578228" lon="-4.145512192428857"><ele>772.0</ele><time>2026-04-27T06:42:53.999Z</time></trkpt><trkpt lat="31.364215972958874" lon="-4.145769980799834"><ele>772.0</ele><time>2026-04-27T06:42:54.999Z</time></trkpt><trkpt lat="31.36446085163592" lon="-4.146017901244484"><ele>773.0</ele><time>2026-04-27T06:42:55.999Z</time></trkpt><trkpt lat="31.364715733631037" lon="-4.146259258195859"><ele>774.0</ele><time>2026-04-27T06:42:56.999Z</time></trkpt><trkpt lat="31.364971898543047" lon="-4.14650094943567"><ele>774.0</ele><time>2026-04-27T06:42:57.999Z</time></trkpt><trkpt lat="31.365224887372996" lon="-4.146743243421563"><ele>774.0</ele><time>2026-04-27T06:42:58.999Z</time></trkpt><trkpt lat="31.365479650510352" lon="-4.1469884819215235"><ele>773.5</ele><time>2026-04-27T06:42:59.999Z</time></trkpt><trkpt lat="31.365737442426138" lon="-4.147233711812526"><ele>773.0</ele><time>2026-04-27T06:43:00.999Z</time></trkpt><trkpt lat="31.36599605855198" lon="-4.147481105287876"><ele>772.5</ele><time>2026-04-27T06:43:01.999Z</time></trkpt><trkpt lat="31.366254149441122" lon="-4.147729153067452"><ele>772.0</ele><time>2026-04-27T06:43:02.999Z</time></trkpt><trkpt lat="31.366512857580034" lon="-4.147978045273943"><ele>772.0</ele><time>2026-04-27T06:43:03.999Z</time></trkpt><trkpt lat="31.366771339862115" lon="-4.148225562921594"><ele>772.0</ele><time>2026-04-27T06:43:04.999Z</time></trkpt><trkpt lat="31.367027125835676" lon="-4.148469167962748"><ele>772.5</ele><time>2026-04-27T06:43:05.999Z</time></trkpt><trkpt lat="31.367283547466442" lon="-4.148712503995744"><ele>773.0</ele><time>2026-04-27T06:43:06.999Z</time></trkpt><trkpt lat="31.367533573052267" lon="-4.1489515084203505"><ele>772.0</ele><time>2026-04-27T06:43:07.999Z</time></trkpt><trkpt lat="31.36777395638909" lon="-4.149182070193597"><ele>771.0</ele><time>2026-04-27T06:43:08.999Z</time></trkpt><trkpt lat="31.367997771946097" lon="-4.149395622210536"><ele>771.0</ele><time>2026-04-27T06:43:09.999Z</time></trkpt><trkpt lat="31.368207099908613" lon="-4.149594643789794"><ele>771.0</ele><time>2026-04-27T06:43:10.999Z</time></trkpt><trkpt lat="31.36840263272052" lon="-4.149787280544734"><ele>770.5</ele><time>2026-04-27T06:43:11.999Z</time></trkpt><trkpt lat="31.36858542044937" lon="-4.1499827629423605"><ele>770.0</ele><time>2026-04-27T06:43:12.999Z</time></trkpt><trkpt lat="31.368760143284693" lon="-4.150187464981963"><ele>772.0</ele><time>2026-04-27T06:43:13.999Z</time></trkpt><trkpt lat="31.368918300602992" lon="-4.150408780584125"><ele>774.0</ele><time>2026-04-27T06:43:14.999Z</time></trkpt><trkpt lat="31.369051618827086" lon="-4.150649643680497"><ele>772.5</ele><time>2026-04-27T06:43:15.999Z</time></trkpt><trkpt lat="31.369169197416372" lon="-4.15090724599165"><ele>771.0</ele><time>2026-04-27T06:43:16.999Z</time></trkpt><trkpt lat="31.369271694553564" lon="-4.151181667714517"><ele>771.0</ele><time>2026-04-27T06:43:17.999Z</time></trkpt><trkpt lat="31.369359941981426" lon="-4.151472811374267"><ele>771.0</ele><time>2026-04-27T06:43:18.999Z</time></trkpt><trkpt lat="31.369453075780793" lon="-4.151772255727141"><ele>768.5</ele><time>2026-04-27T06:43:19.999Z</time></trkpt><trkpt lat="31.369507726467685" lon="-4.152092438927236"><ele>766.0</ele><time>2026-04-27T06:43:20.999Z</time></trkpt><trkpt lat="31.36954854966765" lon="-4.152417947887209"><ele>765.5</ele><time>2026-04-27T06:43:21.999Z</time></trkpt><trkpt lat="31.36961090497814" lon="-4.152747776862989"><ele>765.0</ele><time>2026-04-27T06:43:22.999Z</time></trkpt><trkpt lat="31.369672028451916" lon="-4.153079524680451"><ele>767.0</ele><time>2026-04-27T06:43:23.998Z</time></trkpt><trkpt lat="31.369730439726574" lon="-4.153411920946449"><ele>769.0</ele><time>2026-04-27T06:43:24.998Z</time></trkpt><trkpt lat="31.369790419707808" lon="-4.153748247754206"><ele>771.5</ele><time>2026-04-27T06:43:25.998Z</time></trkpt><trkpt lat="31.369851303849167" lon="-4.154086883812949"><ele>774.0</ele><time>2026-04-27T06:43:26.998Z</time></trkpt><trkpt lat="31.369910973502062" lon="-4.1544280335872665"><ele>774.0</ele><time>2026-04-27T06:43:27.998Z</time></trkpt><trkpt lat="31.369966684077415" lon="-4.154772642962041"><ele>774.0</ele><time>2026-04-27T06:43:28.998Z</time></trkpt><trkpt lat="31.370014378023956" lon="-4.155123582445914"><ele>775.0</ele><time>2026-04-27T06:43:29.998Z</time></trkpt><trkpt lat="31.370050814564966" lon="-4.155473118698685"><ele>776.0</ele><time>2026-04-27T06:43:30.998Z</time></trkpt><trkpt lat="31.37007653240739" lon="-4.155799229443633"><ele>779.0</ele><time>2026-04-27T06:43:31.998Z</time></trkpt><trkpt lat="31.37010034075663" lon="-4.15610915287964"><ele>782.0</ele><time>2026-04-27T06:43:32.998Z</time></trkpt><trkpt lat="31.37012728082715" lon="-4.1564092421649566"><ele>784.0</ele><time>2026-04-27T06:43:33.998Z</time></trkpt><trkpt lat="31.37015369075983" lon="-4.156698495784832"><ele>786.0</ele><time>2026-04-27T06:43:34.998Z</time></trkpt><trkpt lat="31.37017953318702" lon="-4.156969637911163"><ele>786.0</ele><time>2026-04-27T06:43:35.998Z</time></trkpt><trkpt lat="31.370204474969462" lon="-4.157219303083485"><ele>786.0</ele><time>2026-04-27T06:43:36.998Z</time></trkpt><trkpt lat="31.37022917475976" lon="-4.157447309873512"><ele>786.0</ele><time>2026-04-27T06:43:37.998Z</time></trkpt><trkpt lat="31.37025672589002" lon="-4.157666037832872"><ele>785.6666666666667</ele><time>2026-04-27T06:43:38.998Z</time></trkpt><trkpt lat="31.37028511175484" lon="-4.157889298540641"><ele>785.3333333333334</ele><time>2026-04-27T06:43:40Z</time></trkpt><trkpt lat="31.37031440160601" lon="-4.158114542394345"><ele>785.0</ele><time>2026-04-27T06:43:41Z</time></trkpt><trkpt lat="31.37034655199614" lon="-4.1583430901977145"><ele>785.0</ele><time>2026-04-27T06:43:42Z</time></trkpt><trkpt lat="31.370380878617834" lon="-4.1585745793906455"><ele>785.0</ele><time>2026-04-27T06:43:43Z</time></trkpt><trkpt lat="31.3704140231151" lon="-4.15880949930102"><ele>785.0</ele><time>2026-04-27T06:43:44Z</time></trkpt><trkpt lat="31.370444572252836" lon="-4.159047833144072"><ele>782.5</ele><time>2026-04-27T06:43:45Z</time></trkpt><trkpt lat="31.370479041110585" lon="-4.159299844555679"><ele>780.0</ele><time>2026-04-27T06:43:46Z</time></trkpt><trkpt lat="31.37052059658912" lon="-4.159572976089162"><ele>780.5</ele><time>2026-04-27T06:43:47Z</time></trkpt><trkpt lat="31.370559813916802" lon="-4.159864124929082"><ele>781.0</ele><time>2026-04-27T06:43:48Z</time></trkpt><trkpt lat="31.3705990963812" lon="-4.160183107082095"><ele>779.5</ele><time>2026-04-27T06:43:49Z</time></trkpt><trkpt lat="31.370641067283145" lon="-4.160527302141342"><ele>778.0</ele><time>2026-04-27T06:43:50Z</time></trkpt><trkpt lat="31.370708557714725" lon="-4.160890725642218"><ele>777.5</ele><time>2026-04-27T06:43:51Z</time></trkpt><trkpt lat="31.37076275912364" lon="-4.16127146356425"><ele>777.0</ele><time>2026-04-27T06:43:52Z</time></trkpt><trkpt lat="31.370818906194394" lon="-4.161671611827075"><ele>776.5</ele><time>2026-04-27T06:43:53Z</time></trkpt><trkpt lat="31.37087174384723" lon="-4.162078348171436"><ele>776.0</ele><time>2026-04-27T06:43:54Z</time></trkpt><trkpt lat="31.370923351113024" lon="-4.162467355995998"><ele>776.0</ele><time>2026-04-27T06:43:54.999Z</time></trkpt><trkpt lat="31.370957057672808" lon="-4.162847694930323"><ele>776.0</ele><time>2026-04-27T06:43:55.999Z</time></trkpt><trkpt lat="31.371007766322343" lon="-4.163213864007168"><ele>776.0</ele><time>2026-04-27T06:43:56.999Z</time></trkpt><trkpt lat="31.371057510450143" lon="-4.163572113475166"><ele>776.0</ele><time>2026-04-27T06:43:57.999Z</time></trkpt><trkpt lat="31.37110463749123" lon="-4.16391481105378"><ele>776.5</ele><time>2026-04-27T06:43:58.999Z</time></trkpt><trkpt lat="31.37115008419855" lon="-4.1642422280449525"><ele>777.0</ele><time>2026-04-27T06:43:59.999Z</time></trkpt><trkpt lat="31.371199953127004" lon="-4.164546809260517"><ele>777.0</ele><time>2026-04-27T06:44:00.999Z</time></trkpt><trkpt lat="31.3712589066288" lon="-4.164837801811669"><ele>777.0</ele><time>2026-04-27T06:44:01.998Z</time></trkpt><trkpt lat="31.371331128344398" lon="-4.165100380751767"><ele>776.3333333333333</ele><time>2026-04-27T06:44:02.998Z</time></trkpt><trkpt lat="31.371422144848175" lon="-4.1653383399468416"><ele>775.6666666666666</ele><time>2026-04-27T06:44:03.998Z</time></trkpt><trkpt lat="31.371529487420236" lon="-4.165566886574854"><ele>775.0</ele><time>2026-04-27T06:44:04.998Z</time></trkpt><trkpt lat="31.371657637408322" lon="-4.165792271898822"><ele>774.0</ele><time>2026-04-27T06:44:05.998Z</time></trkpt><trkpt lat="31.371809278083106" lon="-4.16600952436654"><ele>773.0</ele><time>2026-04-27T06:44:06.998Z</time></trkpt><trkpt lat="31.371980567784576" lon="-4.16622144355912"><ele>773.0</ele><time>2026-04-27T06:44:07.998Z</time></trkpt><trkpt lat="31.372167856741232" lon="-4.16643072243855"><ele>773.0</ele><time>2026-04-27T06:44:08.998Z</time></trkpt><trkpt lat="31.372361664684515" lon="-4.1666334241604766"><ele>773.5</ele><time>2026-04-27T06:44:09.998Z</time></trkpt><trkpt lat="31.37256196182621" lon="-4.166839196743562"><ele>774.0</ele><time>2026-04-27T06:44:10.998Z</time></trkpt><trkpt lat="31.37276437298896" lon="-4.167043818928982"><ele>774.0</ele><time>2026-04-27T06:44:11.998Z</time></trkpt><trkpt lat="31.37296683950325" lon="-4.167247665595492"><ele>774.0</ele><time>2026-04-27T06:44:12.998Z</time></trkpt><trkpt lat="31.373168365249605" lon="-4.167450189888456"><ele>774.5</ele><time>2026-04-27T06:44:13.997Z</time></trkpt><trkpt lat="31.3733701249407" lon="-4.167653482626634"><ele>775.0</ele><time>2026-04-27T06:44:14.997Z</time></trkpt><trkpt lat="31.37357104165285" lon="-4.1678599018301785"><ele>775.0</ele><time>2026-04-27T06:44:15.997Z</time></trkpt><trkpt lat="31.373773126377646" lon="-4.168068608056891"><ele>775.0</ele><time>2026-04-27T06:44:16.997Z</time></trkpt><trkpt lat="31.37397754614596" lon="-4.168278769796127"><ele>774.5</ele><time>2026-04-27T06:44:17.997Z</time></trkpt><trkpt lat="31.3741825997181" lon="-4.168489264963805"><ele>774.0</ele><time>2026-04-27T06:44:18.997Z</time></trkpt><trkpt lat="31.37438782848309" lon="-4.168699088449729"><ele>774.0</ele><time>2026-04-27T06:44:19.997Z</time></trkpt><trkpt lat="31.374595126914254" lon="-4.168910121477878"><ele>774.0</ele><time>2026-04-27T06:44:20.997Z</time></trkpt><trkpt lat="31.374806942463323" lon="-4.169126045767891"><ele>773.5</ele><time>2026-04-27T06:44:21.997Z</time></trkpt><trkpt lat="31.375024471839467" lon="-4.169345963938927"><ele>773.0</ele><time>2026-04-27T06:44:22.997Z</time></trkpt><trkpt lat="31.37524357029955" lon="-4.169572026099377"><ele>773.0</ele><time>2026-04-27T06:44:23.997Z</time></trkpt><trkpt lat="31.375462685461393" lon="-4.169798960104375"><ele>773.0</ele><time>2026-04-27T06:44:24.997Z</time></trkpt><trkpt lat="31.375683289372944" lon="-4.170028940111638"><ele>773.5</ele><time>2026-04-27T06:44:25.997Z</time></trkpt><trkpt lat="31.37590790297397" lon="-4.1702611629470345"><ele>774.0</ele><time>2026-04-27T06:44:26.997Z</time></trkpt><trkpt lat="31.376137363990114" lon="-4.170495203963498"><ele>774.5</ele><time>2026-04-27T06:44:27.997Z</time></trkpt><trkpt lat="31.37637077045051" lon="-4.170732530762583"><ele>775.0</ele><time>2026-04-27T06:44:28.997Z</time></trkpt><trkpt lat="31.376609243924904" lon="-4.170975598460718"><ele>775.0</ele><time>2026-04-27T06:44:29.997Z</time></trkpt><trkpt lat="31.376848052766558" lon="-4.171220843789368"><ele>775.0</ele><time>2026-04-27T06:44:30.997Z</time></trkpt><trkpt lat="31.377077373472837" lon="-4.171458876486082"><ele>775.0</ele><time>2026-04-27T06:44:31.997Z</time></trkpt><trkpt lat="31.377302018081576" lon="-4.171691836396516"><ele>775.0</ele><time>2026-04-27T06:44:32.997Z</time></trkpt><trkpt lat="31.377522317392316" lon="-4.171916759695454"><ele>775.0</ele><time>2026-04-27T06:44:33.997Z</time></trkpt><trkpt lat="31.377730585880226" lon="-4.172131517815643"><ele>775.0</ele><time>2026-04-27T06:44:34.997Z</time></trkpt><trkpt lat="31.377925312229355" lon="-4.172335513324014"><ele>775.5</ele><time>2026-04-27T06:44:35.997Z</time></trkpt><trkpt lat="31.378111269173388" lon="-4.172531327456757"><ele>776.0</ele><time>2026-04-27T06:44:36.997Z</time></trkpt><trkpt lat="31.378297266063644" lon="-4.1727249744871"><ele>776.0</ele><time>2026-04-27T06:44:37.997Z</time></trkpt><trkpt lat="31.378491989068916" lon="-4.172912380380119"><ele>776.0</ele><time>2026-04-27T06:44:38.997Z</time></trkpt><trkpt lat="31.378694222419526" lon="-4.173088239067554"><ele>776.5</ele><time>2026-04-27T06:44:39.997Z</time></trkpt><trkpt lat="31.37890751528086" lon="-4.173247326388432"><ele>777.0</ele><time>2026-04-27T06:44:40.997Z</time></trkpt><trkpt lat="31.379120294895053" lon="-4.173389278206914"><ele>777.0</ele><time>2026-04-27T06:44:41.996Z</time></trkpt><trkpt lat="31.379323171157562" lon="-4.173507812423417"><ele>777.0</ele><time>2026-04-27T06:44:42.996Z</time></trkpt><trkpt lat="31.379529214465016" lon="-4.173607875766798"><ele>778.0</ele><time>2026-04-27T06:44:43.996Z</time></trkpt><trkpt lat="31.379739553862912" lon="-4.173689705370075"><ele>779.0</ele><time>2026-04-27T06:44:44.996Z</time></trkpt><trkpt lat="31.379956985702258" lon="-4.173758990714993"><ele>780.0</ele><time>2026-04-27T06:44:45.996Z</time></trkpt><trkpt lat="31.38018151170088" lon="-4.173813321927143"><ele>780.0</ele><time>2026-04-27T06:44:46.996Z</time></trkpt><trkpt lat="31.380417543358867" lon="-4.173845384964766"><ele>780.0</ele><time>2026-04-27T06:44:47.996Z</time></trkpt><trkpt lat="31.38066097081614" lon="-4.173859048667872"><ele>779.0</ele><time>2026-04-27T06:44:48.996Z</time></trkpt><trkpt lat="31.380912217219066" lon="-4.1738641937390515"><ele>778.0</ele><time>2026-04-27T06:44:49.996Z</time></trkpt><trkpt lat="31.38116858080109" lon="-4.173862936583068"><ele>776.5</ele><time>2026-04-27T06:44:50.996Z</time></trkpt><trkpt lat="31.38142622165837" lon="-4.1738621290478335"><ele>775.0</ele><time>2026-04-27T06:44:51.996Z</time></trkpt><trkpt lat="31.381683712218845" lon="-4.173859709164649"><ele>775.0</ele><time>2026-04-27T06:44:52.996Z</time></trkpt><trkpt lat="31.381942672901744" lon="-4.1738566630137655"><ele>775.0</ele><time>2026-04-27T06:44:53.996Z</time></trkpt><trkpt lat="31.38219656104072" lon="-4.173854796926469"><ele>774.0</ele><time>2026-04-27T06:44:54.996Z</time></trkpt><trkpt lat="31.382439575714805" lon="-4.173855738903475"><ele>773.0</ele><time>2026-04-27T06:44:55.996Z</time></trkpt><trkpt lat="31.38266945259364" lon="-4.1738702912593775"><ele>773.0</ele><time>2026-04-27T06:44:56.996Z</time></trkpt><trkpt lat="31.38288376305486" lon="-4.173912332855176"><ele>773.0</ele><time>2026-04-27T06:44:57.996Z</time></trkpt><trkpt lat="31.383082694449083" lon="-4.17398265466927"><ele>773.0</ele><time>2026-04-27T06:44:58.996Z</time></trkpt><trkpt lat="31.38326197356812" lon="-4.17409265199504"><ele>773.3333333333334</ele><time>2026-04-27T06:44:59.996Z</time></trkpt><trkpt lat="31.3834280345942" lon="-4.1742405214106615"><ele>773.6666666666667</ele><time>2026-04-27T06:45:00.996Z</time></trkpt><trkpt lat="31.38358419588638" lon="-4.1744190939314105"><ele>774.0</ele><time>2026-04-27T06:45:01.996Z</time></trkpt><trkpt lat="31.38373594045283" lon="-4.174619274330727"><ele>774.0</ele><time>2026-04-27T06:45:02.996Z</time></trkpt><trkpt lat="31.383883378805123" lon="-4.174835454882705"><ele>774.0</ele><time>2026-04-27T06:45:03.996Z</time></trkpt><trkpt lat="31.384037721062498" lon="-4.175066260071806"><ele>774.0</ele><time>2026-04-27T06:45:04.996Z</time></trkpt><trkpt lat="31.384200676264083" lon="-4.17530525396974"><ele>774.0</ele><time>2026-04-27T06:45:05.996Z</time></trkpt><trkpt lat="31.38437003424615" lon="-4.175552906790213"><ele>775.0</ele><time>2026-04-27T06:45:06.996Z</time></trkpt><trkpt lat="31.384547008005587" lon="-4.175809523986401"><ele>776.0</ele><time>2026-04-27T06:45:07.996Z</time></trkpt><trkpt lat="31.384732055290485" lon="-4.176077829929648"><ele>776.5</ele><time>2026-04-27T06:45:08.996Z</time></trkpt><trkpt lat="31.38492638718569" lon="-4.176358210836717"><ele>777.0</ele><time>2026-04-27T06:45:09.996Z</time></trkpt><trkpt lat="31.385124706070016" lon="-4.176646714513889"><ele>777.0</ele><time>2026-04-27T06:45:10.996Z</time></trkpt><trkpt lat="31.385329857958116" lon="-4.1769432767520955"><ele>777.0</ele><time>2026-04-27T06:45:11.996Z</time></trkpt><trkpt lat="31.38554126112104" lon="-4.177246038899589"><ele>777.5</ele><time>2026-04-27T06:45:12.996Z</time></trkpt><trkpt lat="31.385755745334254" lon="-4.1775546183778145"><ele>778.0</ele><time>2026-04-27T06:45:13.996Z</time></trkpt><trkpt lat="31.38595923092219" lon="-4.177849839810068"><ele>778.0</ele><time>2026-04-27T06:45:14.996Z</time></trkpt><trkpt lat="31.386153966389063" lon="-4.178134852769263"><ele>778.0</ele><time>2026-04-27T06:45:15.996Z</time></trkpt><trkpt lat="31.386342587550565" lon="-4.178411320761251"><ele>778.0</ele><time>2026-04-27T06:45:16.996Z</time></trkpt><trkpt lat="31.386528201597596" lon="-4.178682557397638"><ele>778.0</ele><time>2026-04-27T06:45:17.996Z</time></trkpt><trkpt lat="31.386716421623703" lon="-4.178953750528608"><ele>777.0</ele><time>2026-04-27T06:45:18.996Z</time></trkpt><trkpt lat="31.386904211428227" lon="-4.179222357831685"><ele>776.0</ele><time>2026-04-27T06:45:19.996Z</time></trkpt><trkpt lat="31.387087416751417" lon="-4.179485079547067"><ele>776.5</ele><time>2026-04-27T06:45:20.996Z</time></trkpt><trkpt lat="31.387265982812803" lon="-4.179743752727538"><ele>777.0</ele><time>2026-04-27T06:45:21.996Z</time></trkpt><trkpt lat="31.38744136412624" lon="-4.180002324520306"><ele>777.0</ele><time>2026-04-27T06:45:22.996Z</time></trkpt><trkpt lat="31.387617297924056" lon="-4.180263562196749"><ele>777.0</ele><time>2026-04-27T06:45:23.996Z</time></trkpt><trkpt lat="31.387794096193623" lon="-4.1805244553989604"><ele>776.5</ele><time>2026-04-27T06:45:24.996Z</time></trkpt><trkpt lat="31.387970099454343" lon="-4.180782053741538"><ele>776.0</ele><time>2026-04-27T06:45:25.996Z</time></trkpt><trkpt lat="31.38814827753557" lon="-4.18104361874066"><ele>775.5</ele><time>2026-04-27T06:45:26.996Z</time></trkpt><trkpt lat="31.388329441157566" lon="-4.181309894440899"><ele>775.0</ele><time>2026-04-27T06:45:27.996Z</time></trkpt><trkpt lat="31.388513499022903" lon="-4.181575931133837"><ele>775.0</ele><time>2026-04-27T06:45:28.996Z</time></trkpt><trkpt lat="31.388705381813935" lon="-4.181839203947456"><ele>775.0</ele><time>2026-04-27T06:45:29.996Z</time></trkpt><trkpt lat="31.388904060343332" lon="-4.182099126715224"><ele>776.0</ele><time>2026-04-27T06:45:30.996Z</time></trkpt><trkpt lat="31.38911035132166" lon="-4.182357235393586"><ele>777.0</ele><time>2026-04-27T06:45:31.996Z</time></trkpt><trkpt lat="31.389329028088778" lon="-4.182609615211822"><ele>777.0</ele><time>2026-04-27T06:45:32.996Z</time></trkpt><trkpt lat="31.389557988218904" lon="-4.182854207294809"><ele>777.0</ele><time>2026-04-27T06:45:33.996Z</time></trkpt><trkpt lat="31.389796320924667" lon="-4.183092618219743"><ele>777.0</ele><time>2026-04-27T06:45:34.996Z</time></trkpt><trkpt lat="31.390041814894023" lon="-4.183324177508056"><ele>777.0</ele><time>2026-04-27T06:45:35.996Z</time></trkpt><trkpt lat="31.390296131491166" lon="-4.183552629628094"><ele>777.0</ele><time>2026-04-27T06:45:36.996Z</time></trkpt><trkpt lat="31.390554766306117" lon="-4.183773962128205"><ele>777.0</ele><time>2026-04-27T06:45:37.996Z</time></trkpt><trkpt lat="31.390807864711427" lon="-4.183988732615275"><ele>777.5</ele><time>2026-04-27T06:45:38.996Z</time></trkpt><trkpt lat="31.39105946281534" lon="-4.184202099869081"><ele>778.0</ele><time>2026-04-27T06:45:39.996Z</time></trkpt><trkpt lat="31.39130966595993" lon="-4.184415167921131"><ele>779.5</ele><time>2026-04-27T06:45:40.996Z</time></trkpt><trkpt lat="31.391560885265754" lon="-4.184628773337365"><ele>781.0</ele><time>2026-04-27T06:45:41.996Z</time></trkpt><trkpt lat="31.39180917796282" lon="-4.184842028457592"><ele>779.5</ele><time>2026-04-27T06:45:42.996Z</time></trkpt><trkpt lat="31.39205598077817" lon="-4.1850536919560835"><ele>778.0</ele><time>2026-04-27T06:45:43.996Z</time></trkpt><trkpt lat="31.392304949860755" lon="-4.185264959406007"><ele>778.0</ele><time>2026-04-27T06:45:44.996Z</time></trkpt><trkpt lat="31.39255497466062" lon="-4.185476429015976"><ele>778.0</ele><time>2026-04-27T06:45:45.997Z</time></trkpt><trkpt lat="31.392808294692827" lon="-4.1856929074331"><ele>779.0</ele><time>2026-04-27T06:45:46.997Z</time></trkpt><trkpt lat="31.39306387575785" lon="-4.185911020472567"><ele>780.0</ele><time>2026-04-27T06:45:47.997Z</time></trkpt><trkpt lat="31.393320127061518" lon="-4.186129899670821"><ele>780.0</ele><time>2026-04-27T06:45:48.997Z</time></trkpt><trkpt lat="31.393578463378656" lon="-4.186349680254042"><ele>780.0</ele><time>2026-04-27T06:45:49.997Z</time></trkpt><trkpt lat="31.393837810956033" lon="-4.18657191291531"><ele>780.0</ele><time>2026-04-27T06:45:50.998Z</time></trkpt><trkpt lat="31.394099709955007" lon="-4.1867942750949085"><ele>780.0</ele><time>2026-04-27T06:45:51.998Z</time></trkpt><trkpt lat="31.394361856184666" lon="-4.187016499609759"><ele>780.0</ele><time>2026-04-27T06:45:52.998Z</time></trkpt><trkpt lat="31.39462547790981" lon="-4.187238463424093"><ele>780.0</ele><time>2026-04-27T06:45:53.998Z</time></trkpt><trkpt lat="31.394890952337953" lon="-4.187461391543829"><ele>780.5</ele><time>2026-04-27T06:45:54.998Z</time></trkpt><trkpt lat="31.395152514616665" lon="-4.18768543452664"><ele>781.0</ele><time>2026-04-27T06:45:55.998Z</time></trkpt><trkpt lat="31.395415918612013" lon="-4.187911049367574"><ele>780.5</ele><time>2026-04-27T06:45:56.998Z</time></trkpt><trkpt lat="31.395678198329502" lon="-4.18813674668549"><ele>780.0</ele><time>2026-04-27T06:45:57.998Z</time></trkpt><trkpt lat="31.39594059194615" lon="-4.188360201681695"><ele>780.0</ele><time>2026-04-27T06:45:58.998Z</time></trkpt><trkpt lat="31.396203815137444" lon="-4.18858458661914"><ele>780.0</ele><time>2026-04-27T06:45:59.999Z</time></trkpt><trkpt lat="31.396467102640322" lon="-4.188808458234923"><ele>780.5</ele><time>2026-04-27T06:46:00.999Z</time></trkpt><trkpt lat="31.396728321058212" lon="-4.189031407783294"><ele>781.0</ele><time>2026-04-27T06:46:01.999Z</time></trkpt><trkpt lat="31.396990117496916" lon="-4.189256060262752"><ele>782.0</ele><time>2026-04-27T06:46:02.999Z</time></trkpt><trkpt lat="31.397250249354123" lon="-4.189481747409451"><ele>783.0</ele><time>2026-04-27T06:46:03.999Z</time></trkpt><trkpt lat="31.397512687855784" lon="-4.189706822802406"><ele>782.5</ele><time>2026-04-27T06:46:04.999Z</time></trkpt><trkpt lat="31.39777671031251" lon="-4.189931284572191"><ele>782.0</ele><time>2026-04-27T06:46:05.999Z</time></trkpt><trkpt lat="31.39804044497363" lon="-4.190152714550853"><ele>783.0</ele><time>2026-04-27T06:46:06.999Z</time></trkpt><trkpt lat="31.39830363364848" lon="-4.190375223128406"><ele>784.0</ele><time>2026-04-27T06:46:07.999Z</time></trkpt><trkpt lat="31.398564886367662" lon="-4.190597790023768"><ele>784.0</ele><time>2026-04-27T06:46:08.999Z</time></trkpt><trkpt lat="31.398826284394655" lon="-4.190821936772077"><ele>784.0</ele><time>2026-04-27T06:46:09.999Z</time></trkpt><trkpt lat="31.3990870795306" lon="-4.191047632353545"><ele>784.0</ele><time>2026-04-27T06:46:10.999Z</time></trkpt><trkpt lat="31.399347444847198" lon="-4.191270903978863"><ele>784.0</ele><time>2026-04-27T06:46:11.999Z</time></trkpt><trkpt lat="31.39961027157608" lon="-4.191496301366545"><ele>785.0</ele><time>2026-04-27T06:46:12.999Z</time></trkpt><trkpt lat="31.399869630689405" lon="-4.191719515348345"><ele>786.0</ele><time>2026-04-27T06:46:13.999Z</time></trkpt><trkpt lat="31.400129252091446" lon="-4.191943798414926"><ele>786.0</ele><time>2026-04-27T06:46:14.999Z</time></trkpt><trkpt lat="31.400385357416432" lon="-4.1921645404403"><ele>786.0</ele><time>2026-04-27T06:46:15.999Z</time></trkpt><trkpt lat="31.40064803727428" lon="-4.192386302179529"><ele>787.0</ele><time>2026-04-27T06:46:16.999Z</time></trkpt><trkpt lat="31.40090929421907" lon="-4.1926079924616175"><ele>788.0</ele><time>2026-04-27T06:46:17.999Z</time></trkpt><trkpt lat="31.401173638487048" lon="-4.192830842428277"><ele>788.5</ele><time>2026-04-27T06:46:18.999Z</time></trkpt><trkpt lat="31.401434681357923" lon="-4.193053158942595"><ele>789.0</ele><time>2026-04-27T06:46:19.999Z</time></trkpt><trkpt lat="31.40169797780896" lon="-4.193276865867882"><ele>789.0</ele><time>2026-04-27T06:46:20.999Z</time></trkpt><trkpt lat="31.40196732743241" lon="-4.193507676332559"><ele>789.0</ele><time>2026-04-27T06:46:21.999Z</time></trkpt><trkpt lat="31.40223799330261" lon="-4.1937384446795605"><ele>789.5</ele><time>2026-04-27T06:46:22.999Z</time></trkpt><trkpt lat="31.402509064067303" lon="-4.193969853938976"><ele>790.0</ele><time>2026-04-27T06:46:23.999Z</time></trkpt><trkpt lat="31.40277955227929" lon="-4.194200716348608"><ele>792.0</ele><time>2026-04-27T06:46:24.999Z</time></trkpt><trkpt lat="31.40304840114203" lon="-4.194429408269545"><ele>794.0</ele><time>2026-04-27T06:46:25.999Z</time></trkpt><trkpt lat="31.403316687788354" lon="-4.194659159334413"><ele>793.5</ele><time>2026-04-27T06:46:26.999Z</time></trkpt><trkpt lat="31.403589182140447" lon="-4.194890788187685"><ele>793.0</ele><time>2026-04-27T06:46:27.999Z</time></trkpt><trkpt lat="31.403861096519677" lon="-4.195123209870299"><ele>793.0</ele><time>2026-04-27T06:46:28.999Z</time></trkpt><trkpt lat="31.404133666119126" lon="-4.195356109171455"><ele>793.0</ele><time>2026-04-27T06:46:29.999Z</time></trkpt><trkpt lat="31.40440935419665" lon="-4.195592742294105"><ele>794.0</ele><time>2026-04-27T06:46:30.999Z</time></trkpt><trkpt lat="31.40468861022778" lon="-4.195828656681837"><ele>795.0</ele><time>2026-04-27T06:46:31.999Z</time></trkpt><trkpt lat="31.404966491180577" lon="-4.196065385077338"><ele>795.0</ele><time>2026-04-27T06:46:32.999Z</time></trkpt><trkpt lat="31.40524337280359" lon="-4.196297482428272"><ele>795.0</ele><time>2026-04-27T06:46:33.999Z</time></trkpt><trkpt lat="31.405515309873365" lon="-4.196528886518179"><ele>796.5</ele><time>2026-04-27T06:46:34.999Z</time></trkpt><trkpt lat="31.405779740211432" lon="-4.196757552437142"><ele>798.0</ele><time>2026-04-27T06:46:35.999Z</time></trkpt><trkpt lat="31.406041361056708" lon="-4.1969853394266154"><ele>798.0</ele><time>2026-04-27T06:46:36.999Z</time></trkpt><trkpt lat="31.40629357956078" lon="-4.197203179539354"><ele>798.0</ele><time>2026-04-27T06:46:37.999Z</time></trkpt><trkpt lat="31.406539029021967" lon="-4.197409333261907"><ele>799.0</ele><time>2026-04-27T06:46:38.999Z</time></trkpt><trkpt lat="31.40678916892132" lon="-4.197617974631613"><ele>800.0</ele><time>2026-04-27T06:46:39.999Z</time></trkpt><trkpt lat="31.407051967418997" lon="-4.197841683009987"><ele>799.5</ele><time>2026-04-27T06:46:40.999Z</time></trkpt><trkpt lat="31.407324702990092" lon="-4.198078567639694"><ele>799.0</ele><time>2026-04-27T06:46:41.999Z</time></trkpt><trkpt lat="31.407601344701288" lon="-4.1983186333660205"><ele>797.5</ele><time>2026-04-27T06:46:42.999Z</time></trkpt><trkpt lat="31.407878280637444" lon="-4.19855540450736"><ele>796.0</ele><time>2026-04-27T06:46:43.999Z</time></trkpt><trkpt lat="31.408156681346544" lon="-4.198789964999622"><ele>796.5</ele><time>2026-04-27T06:46:44.999Z</time></trkpt><trkpt lat="31.40843236303748" lon="-4.199023510314337"><ele>797.0</ele><time>2026-04-27T06:46:45.999Z</time></trkpt><trkpt lat="31.408704509468205" lon="-4.199254263156689"><ele>798.5</ele><time>2026-04-27T06:46:46.999Z</time></trkpt><trkpt lat="31.408971675564384" lon="-4.19948186089187"><ele>800.0</ele><time>2026-04-27T06:46:47.999Z</time></trkpt><trkpt lat="31.409230852355382" lon="-4.199705607050501"><ele>800.0</ele><time>2026-04-27T06:46:48.999Z</time></trkpt><trkpt lat="31.409489074265114" lon="-4.199925105221489"><ele>800.0</ele><time>2026-04-27T06:46:49.999Z</time></trkpt><trkpt lat="31.409741775074725" lon="-4.200137649398941"><ele>800.5</ele><time>2026-04-27T06:46:50.999Z</time></trkpt><trkpt lat="31.409995117010276" lon="-4.2003498491366775"><ele>801.0</ele><time>2026-04-27T06:46:51.999Z</time></trkpt><trkpt lat="31.410247140729826" lon="-4.200568825683474"><ele>800.5</ele><time>2026-04-27T06:46:52.999Z</time></trkpt><trkpt lat="31.410502671998348" lon="-4.200792937432154"><ele>800.0</ele><time>2026-04-27T06:46:53.999Z</time></trkpt><trkpt lat="31.410761685395467" lon="-4.201016550530422"><ele>800.0</ele><time>2026-04-27T06:46:54.999Z</time></trkpt><trkpt lat="31.41102339089711" lon="-4.20124244715684"><ele>800.0</ele><time>2026-04-27T06:46:55.999Z</time></trkpt><trkpt lat="31.411284059636476" lon="-4.201464176310399"><ele>800.5</ele><time>2026-04-27T06:46:56.999Z</time></trkpt><trkpt lat="31.411544579464103" lon="-4.201686957200823"><ele>801.0</ele><time>2026-04-27T06:46:57.999Z</time></trkpt><trkpt lat="31.411803420875007" lon="-4.201907807471344"><ele>801.0</ele><time>2026-04-27T06:46:58.999Z</time></trkpt><trkpt lat="31.412056428002" lon="-4.202123043241033"><ele>801.0</ele><time>2026-04-27T06:46:59.999Z</time></trkpt><trkpt lat="31.41230489718914" lon="-4.202335395193753"><ele>800.0</ele><time>2026-04-27T06:47:00.999Z</time></trkpt><trkpt lat="31.412556857094422" lon="-4.202550988118049"><ele>799.0</ele><time>2026-04-27T06:47:01.999Z</time></trkpt><trkpt lat="31.412813136943708" lon="-4.202770782036061"><ele>800.0</ele><time>2026-04-27T06:47:02.999Z</time></trkpt><trkpt lat="31.413072324297158" lon="-4.202991671738337"><ele>801.0</ele><time>2026-04-27T06:47:03.999Z</time></trkpt><trkpt lat="31.413336738949276" lon="-4.203218299389501"><ele>801.0</ele><time>2026-04-27T06:47:04.999Z</time></trkpt><trkpt lat="31.41360500024403" lon="-4.203450925731441"><ele>801.0</ele><time>2026-04-27T06:47:05.999Z</time></trkpt><trkpt lat="31.413872207416844" lon="-4.203692686058576"><ele>801.5</ele><time>2026-04-27T06:47:06.999Z</time></trkpt><trkpt lat="31.41414261366887" lon="-4.203929482155859"><ele>802.0</ele><time>2026-04-27T06:47:07.999Z</time></trkpt><trkpt lat="31.414423070749603" lon="-4.204158884698965"><ele>802.5</ele><time>2026-04-27T06:47:08.999Z</time></trkpt><trkpt lat="31.41470164873725" lon="-4.204386449526394"><ele>803.0</ele><time>2026-04-27T06:47:09.999Z</time></trkpt><trkpt lat="31.41497865161289" lon="-4.2046216620535946"><ele>803.5</ele><time>2026-04-27T06:47:10.999Z</time></trkpt><trkpt lat="31.415254734565423" lon="-4.204859186048465"><ele>804.0</ele><time>2026-04-27T06:47:11.999Z</time></trkpt><trkpt lat="31.41553262171548" lon="-4.205097449218063"><ele>804.0</ele><time>2026-04-27T06:47:12.999Z</time></trkpt><trkpt lat="31.41581601494608" lon="-4.205341134052209"><ele>804.0</ele><time>2026-04-27T06:47:13.999Z</time></trkpt><trkpt lat="31.416101776790377" lon="-4.205582752029542"><ele>803.5</ele><time>2026-04-27T06:47:14.999Z</time></trkpt><trkpt lat="31.416381679148436" lon="-4.205821135705219"><ele>803.0</ele><time>2026-04-27T06:47:15.999Z</time></trkpt><trkpt lat="31.416652926469" lon="-4.2060548573072785"><ele>803.0</ele><time>2026-04-27T06:47:16.999Z</time></trkpt><trkpt lat="31.416918954520042" lon="-4.2062835009595"><ele>803.0</ele><time>2026-04-27T06:47:17.999Z</time></trkpt><trkpt lat="31.417179423920736" lon="-4.206505186719438"><ele>804.5</ele><time>2026-04-27T06:47:18.999Z</time></trkpt><trkpt lat="31.417439694145564" lon="-4.2067238054730955"><ele>806.0</ele><time>2026-04-27T06:47:19.999Z</time></trkpt><trkpt lat="31.41769822112648" lon="-4.206942817003869"><ele>806.0</ele><time>2026-04-27T06:47:20.999Z</time></trkpt><trkpt lat="31.417952663685274" lon="-4.2071588748887745"><ele>806.0</ele><time>2026-04-27T06:47:21.999Z</time></trkpt><trkpt lat="31.418201794365768" lon="-4.207372685440067"><ele>806.5</ele><time>2026-04-27T06:47:22.999Z</time></trkpt><trkpt lat="31.418450183406534" lon="-4.207593095499461"><ele>807.0</ele><time>2026-04-27T06:47:23.999Z</time></trkpt><trkpt lat="31.41869912548946" lon="-4.207828993674946"><ele>807.5</ele><time>2026-04-27T06:47:24.999Z</time></trkpt><trkpt lat="31.418946126655943" lon="-4.20807309150363"><ele>808.0</ele><time>2026-04-27T06:47:25.999Z</time></trkpt><trkpt lat="31.419191534235605" lon="-4.208321906006627"><ele>808.0</ele><time>2026-04-27T06:47:26.999Z</time></trkpt><trkpt lat="31.419437598101055" lon="-4.20857337588458"><ele>808.0</ele><time>2026-04-27T06:47:27.999Z</time></trkpt><trkpt lat="31.419687971044286" lon="-4.208826905880702"><ele>807.0</ele><time>2026-04-27T06:47:28.999Z</time></trkpt><trkpt lat="31.41993598984795" lon="-4.209077735756157"><ele>806.0</ele><time>2026-04-27T06:47:29.999Z</time></trkpt><trkpt lat="31.42018639440335" lon="-4.209331196649657"><ele>806.0</ele><time>2026-04-27T06:47:30.999Z</time></trkpt><trkpt lat="31.42043991229199" lon="-4.209585758812021"><ele>806.0</ele><time>2026-04-27T06:47:31.998Z</time></trkpt><trkpt lat="31.420697213899643" lon="-4.209843357399307"><ele>806.5</ele><time>2026-04-27T06:47:32.998Z</time></trkpt><trkpt lat="31.420958005234137" lon="-4.210107575309432"><ele>807.0</ele><time>2026-04-27T06:47:33.998Z</time></trkpt><trkpt lat="31.42121882110173" lon="-4.210369588728406"><ele>807.0</ele><time>2026-04-27T06:47:34.998Z</time></trkpt><trkpt lat="31.421480587876125" lon="-4.210631137203318"><ele>807.0</ele><time>2026-04-27T06:47:35.998Z</time></trkpt><trkpt lat="31.42173887110158" lon="-4.210889612184471"><ele>807.0</ele><time>2026-04-27T06:47:36.998Z</time></trkpt><trkpt lat="31.421992430036443" lon="-4.211144518284661"><ele>807.0</ele><time>2026-04-27T06:47:37.998Z</time></trkpt><trkpt lat="31.422244298470947" lon="-4.21139725686163"><ele>805.5</ele><time>2026-04-27T06:47:38.998Z</time></trkpt><trkpt lat="31.42249559325949" lon="-4.211649146443013"><ele>804.0</ele><time>2026-04-27T06:47:39.998Z</time></trkpt><trkpt lat="31.422747239420072" lon="-4.211900317398639"><ele>805.0</ele><time>2026-04-27T06:47:40.998Z</time></trkpt><trkpt lat="31.422989911214614" lon="-4.21214232483988"><ele>806.0</ele><time>2026-04-27T06:47:41.998Z</time></trkpt><trkpt lat="31.423208217686422" lon="-4.212365853019738"><ele>806.0</ele><time>2026-04-27T06:47:42.998Z</time></trkpt><trkpt lat="31.423416001438007" lon="-4.212574466255095"><ele>806.0</ele><time>2026-04-27T06:47:43.998Z</time></trkpt><trkpt lat="31.423612501715553" lon="-4.2127729886437635"><ele>806.0</ele><time>2026-04-27T06:47:44.998Z</time></trkpt><trkpt lat="31.423800669384367" lon="-4.212962720137804"><ele>806.0</ele><time>2026-04-27T06:47:45.998Z</time></trkpt><trkpt lat="31.423981908440787" lon="-4.213145568147787"><ele>805.6666666666667</ele><time>2026-04-27T06:47:46.998Z</time></trkpt><trkpt lat="31.424165293218067" lon="-4.213303576214427"><ele>805.3333333333333</ele><time>2026-04-27T06:47:47.998Z</time></trkpt><trkpt lat="31.424330253084563" lon="-4.213468727049054"><ele>805.0</ele><time>2026-04-27T06:47:48.998Z</time></trkpt><trkpt lat="31.424485252905708" lon="-4.213623906144976"><ele>805.0</ele><time>2026-04-27T06:47:49.998Z</time></trkpt><trkpt lat="31.424636419535034" lon="-4.213774477822236"><ele>805.0</ele><time>2026-04-27T06:47:50.998Z</time></trkpt><trkpt lat="31.424785403598673" lon="-4.213923372645609"><ele>805.0</ele><time>2026-04-27T06:47:52Z</time></trkpt><trkpt lat="31.42493241726878" lon="-4.214070298460176"><ele>805.6666666666666</ele><time>2026-04-27T06:47:53Z</time></trkpt><trkpt lat="31.42507374545133" lon="-4.214219064958288"><ele>806.3333333333333</ele><time>2026-04-27T06:47:54Z</time></trkpt><trkpt lat="31.425204009246087" lon="-4.214379012287925"><ele>807.0</ele><time>2026-04-27T06:47:55Z</time></trkpt><trkpt lat="31.42534608110983" lon="-4.2145206562555675"><ele>808.0</ele><time>2026-04-27T06:47:56Z</time></trkpt><trkpt lat="31.425487327645055" lon="-4.21466145645415"><ele>809.0</ele><time>2026-04-27T06:47:57Z</time></trkpt><trkpt lat="31.42562788585549" lon="-4.214803630688047"><ele>810.0</ele><time>2026-04-27T06:47:58Z</time></trkpt><trkpt lat="31.42577154459795" lon="-4.214947490196394"><ele>810.0</ele><time>2026-04-27T06:47:59Z</time></trkpt><trkpt lat="31.425916519962556" lon="-4.215092768626112"><ele>810.0</ele><time>2026-04-27T06:48:00Z</time></trkpt><trkpt lat="31.426064221661623" lon="-4.215240605972235"><ele>810.0</ele><time>2026-04-27T06:48:01Z</time></trkpt><trkpt lat="31.426212594395544" lon="-4.215390624836335"><ele>810.6666666666667</ele><time>2026-04-27T06:48:02Z</time></trkpt><trkpt lat="31.426361878285448" lon="-4.215542222248339"><ele>811.3333333333334</ele><time>2026-04-27T06:48:03Z</time></trkpt><trkpt lat="31.426509514216487" lon="-4.21569209755555"><ele>812.0</ele><time>2026-04-27T06:48:04Z</time></trkpt><trkpt lat="31.426660015838465" lon="-4.215839680716024"><ele>812.0</ele><time>2026-04-27T06:48:05Z</time></trkpt><trkpt lat="31.426810285881356" lon="-4.215990037254518"><ele>812.0</ele><time>2026-04-27T06:48:06Z</time></trkpt><trkpt lat="31.426960638439496" lon="-4.216140447668512"><ele>812.0</ele><time>2026-04-27T06:48:07Z</time></trkpt><trkpt lat="31.427110696818108" lon="-4.216293211045278"><ele>812.6666666666667</ele><time>2026-04-27T06:48:08Z</time></trkpt><trkpt lat="31.427264361498594" lon="-4.2164477508373945"><ele>813.3333333333333</ele><time>2026-04-27T06:48:09Z</time></trkpt><trkpt lat="31.427417924911772" lon="-4.216601576955524"><ele>814.0</ele><time>2026-04-27T06:48:10Z</time></trkpt><trkpt lat="31.42757621083294" lon="-4.216757781665057"><ele>814.0</ele><time>2026-04-27T06:48:11Z</time></trkpt><trkpt lat="31.427736652797606" lon="-4.216918654398662"><ele>814.0</ele><time>2026-04-27T06:48:12Z</time></trkpt><trkpt lat="31.427899955937857" lon="-4.217088076819773"><ele>814.0</ele><time>2026-04-27T06:48:13Z</time></trkpt><trkpt lat="31.42806149774223" lon="-4.217254265542313"><ele>814.6666666666666</ele><time>2026-04-27T06:48:14Z</time></trkpt><trkpt lat="31.428218860316345" lon="-4.217415979946705"><ele>815.3333333333333</ele><time>2026-04-27T06:48:15Z</time></trkpt><trkpt lat="31.428367086072633" lon="-4.217565767810511"><ele>816.0</ele><time>2026-04-27T06:48:16Z</time></trkpt><trkpt lat="31.42850690881057" lon="-4.217707915534454"><ele>816.0</ele><time>2026-04-27T06:48:17Z</time></trkpt><trkpt lat="31.428638641262054" lon="-4.217845290489478"><ele>816.0</ele><time>2026-04-27T06:48:18Z</time></trkpt><trkpt lat="31.428764944049348" lon="-4.217984632032472"><ele>816.0</ele><time>2026-04-27T06:48:19Z</time></trkpt><trkpt lat="31.42888737880306" lon="-4.218129967592745"><ele>816.3333333333333</ele><time>2026-04-27T06:48:20Z</time></trkpt><trkpt lat="31.4290094133518" lon="-4.218282351172902"><ele>816.6666666666666</ele><time>2026-04-27T06:48:20.999Z</time></trkpt><trkpt lat="31.429132789814055" lon="-4.218443752336479"><ele>817.0</ele><time>2026-04-27T06:48:21.999Z</time></trkpt><trkpt lat="31.42925346817693" lon="-4.218622052663192"><ele>817.0</ele><time>2026-04-27T06:48:22.999Z</time></trkpt><trkpt lat="31.429362794530167" lon="-4.218821304026893"><ele>817.0</ele><time>2026-04-27T06:48:23.999Z</time></trkpt><trkpt lat="31.42946009291649" lon="-4.2190371190920555"><ele>817.0</ele><time>2026-04-27T06:48:24.999Z</time></trkpt><trkpt lat="31.429543522366806" lon="-4.219261624573755"><ele>816.6666666666666</ele><time>2026-04-27T06:48:25.999Z</time></trkpt><trkpt lat="31.429630626174998" lon="-4.219493541563905"><ele>816.3333333333333</ele><time>2026-04-27T06:48:26.999Z</time></trkpt><trkpt lat="31.429725130960108" lon="-4.219723904164388"><ele>816.0</ele><time>2026-04-27T06:48:27.999Z</time></trkpt><trkpt lat="31.429823176482337" lon="-4.219948464774313"><ele>815.3333333333333</ele><time>2026-04-27T06:48:28.999Z</time></trkpt><trkpt lat="31.429921095052897" lon="-4.220169234433581"><ele>814.6666666666666</ele><time>2026-04-27T06:48:29.999Z</time></trkpt><trkpt lat="31.43001683016969" lon="-4.220388819761125"><ele>814.0</ele><time>2026-04-27T06:48:30.999Z</time></trkpt><trkpt lat="31.43011395512791" lon="-4.220606954546776"><ele>813.6666666666666</ele><time>2026-04-27T06:48:31.999Z</time></trkpt><trkpt lat="31.43021179331699" lon="-4.220822792737357"><ele>813.3333333333333</ele><time>2026-04-27T06:48:32.999Z</time></trkpt><trkpt lat="31.430312477185154" lon="-4.221039580465165"><ele>813.0</ele><time>2026-04-27T06:48:33.999Z</time></trkpt><trkpt lat="31.43041076090797" lon="-4.221251437827061"><ele>813.6666666666667</ele><time>2026-04-27T06:48:34.999Z</time></trkpt><trkpt lat="31.430506340759635" lon="-4.221463801968715"><ele>814.3333333333334</ele><time>2026-04-27T06:48:35.999Z</time></trkpt><trkpt lat="31.430599420992518" lon="-4.221677693932725"><ele>815.0</ele><time>2026-04-27T06:48:36.999Z</time></trkpt><trkpt lat="31.430690824978633" lon="-4.221893604122346"><ele>815.0</ele><time>2026-04-27T06:48:37.999Z</time></trkpt><trkpt lat="31.430779911054422" lon="-4.222116052163569"><ele>815.0</ele><time>2026-04-27T06:48:38.999Z</time></trkpt><trkpt lat="31.43085514799104" lon="-4.222344272987"><ele>815.0</ele><time>2026-04-27T06:48:39.999Z</time></trkpt><trkpt lat="31.43091074051236" lon="-4.22258674551209"><ele>814.0</ele><time>2026-04-27T06:48:40.999Z</time></trkpt><trkpt lat="31.430946998421977" lon="-4.222838923650099"><ele>813.0</ele><time>2026-04-27T06:48:41.999Z</time></trkpt><trkpt lat="31.430971613715673" lon="-4.223091915014991"><ele>812.0</ele><time>2026-04-27T06:48:42.999Z</time></trkpt><trkpt lat="31.43099094362817" lon="-4.223344423950408"><ele>811.6666666666667</ele><time>2026-04-27T06:48:43.999Z</time></trkpt><trkpt lat="31.431005671438626" lon="-4.223600938070426"><ele>811.3333333333333</ele><time>2026-04-27T06:48:44.999Z</time></trkpt><trkpt lat="31.431024639436455" lon="-4.223860024956987"><ele>811.0</ele><time>2026-04-27T06:48:45.999Z</time></trkpt><trkpt lat="31.43105355944593" lon="-4.224115173742062"><ele>810.3333333333333</ele><time>2026-04-27T06:48:46.999Z</time></trkpt><trkpt lat="31.431086981672067" lon="-4.224371998172317"><ele>809.6666666666667</ele><time>2026-04-27T06:48:47.999Z</time></trkpt><trkpt lat="31.43113691544252" lon="-4.224627317608225"><ele>809.0</ele><time>2026-04-27T06:48:48.999Z</time></trkpt><trkpt lat="31.431207473085486" lon="-4.224882399450282"><ele>808.0</ele><time>2026-04-27T06:48:49.999Z</time></trkpt><trkpt lat="31.431301819367373" lon="-4.225125932993743"><ele>807.0</ele><time>2026-04-27T06:48:50.999Z</time></trkpt><trkpt lat="31.43140594053928" lon="-4.225348872585511"><ele>806.0</ele><time>2026-04-27T06:48:51.999Z</time></trkpt><trkpt lat="31.431517115130745" lon="-4.225560127197653"><ele>804.0</ele><time>2026-04-27T06:48:52.999Z</time></trkpt><trkpt lat="31.43162394500041" lon="-4.225763423996937"><ele>802.0</ele><time>2026-04-27T06:48:53.999Z</time></trkpt><trkpt lat="31.431724008185363" lon="-4.225955200988926"><ele>800.0</ele><time>2026-04-27T06:48:54.999Z</time></trkpt><trkpt lat="31.431819940904777" lon="-4.226136448474533"><ele>800.0</ele><time>2026-04-27T06:48:55.999Z</time></trkpt><trkpt lat="31.431911925462778" lon="-4.2263066692400315"><ele>800.0</ele><time>2026-04-27T06:48:56.999Z</time></trkpt><trkpt lat="31.43199842344987" lon="-4.226469174713137"><ele>800.0</ele><time>2026-04-27T06:48:57.999Z</time></trkpt><trkpt lat="31.432079375229005" lon="-4.226622327212011"><ele>798.75</ele><time>2026-04-27T06:48:58.999Z</time></trkpt><trkpt lat="31.432155371562793" lon="-4.226771234428773"><ele>797.5</ele><time>2026-04-27T06:48:59.999Z</time></trkpt><trkpt lat="31.43223004900477" lon="-4.2269172529922985"><ele>796.25</ele><time>2026-04-27T06:49:00.999Z</time></trkpt><trkpt lat="31.432301990510716" lon="-4.227061414706347"><ele>795.0</ele><time>2026-04-27T06:49:01.999Z</time></trkpt><trkpt lat="31.43237428243222" lon="-4.227203137105436"><ele>796.6666666666667</ele><time>2026-04-27T06:49:02.999Z</time></trkpt><trkpt lat="31.432450508466452" lon="-4.227355622005395"><ele>798.3333333333334</ele><time>2026-04-27T06:49:03.999Z</time></trkpt><trkpt lat="31.432530843329452" lon="-4.227516798868653"><ele>800.0</ele><time>2026-04-27T06:49:04.999Z</time></trkpt><trkpt lat="31.432613962195262" lon="-4.227677245948383"><ele>800.0</ele><time>2026-04-27T06:49:05.999Z</time></trkpt><trkpt lat="31.43269897408273" lon="-4.227830282462594"><ele>800.0</ele><time>2026-04-27T06:49:06.999Z</time></trkpt><trkpt lat="31.432776100523856" lon="-4.22797053401576"><ele>800.0</ele><time>2026-04-27T06:49:07.999Z</time></trkpt><trkpt lat="31.43284414523334" lon="-4.228103975848013"><ele>800.0</ele><time>2026-04-27T06:49:08.999Z</time></trkpt><trkpt lat="31.432908610017883" lon="-4.228229679888534"><ele>801.0</ele><time>2026-04-27T06:49:09.999Z</time></trkpt><trkpt lat="31.432978489299636" lon="-4.228348219990895"><ele>802.0</ele><time>2026-04-27T06:49:10.999Z</time></trkpt><trkpt lat="31.43304847020119" lon="-4.228466608792273"><ele>803.0</ele><time>2026-04-27T06:49:11.999Z</time></trkpt><trkpt lat="31.433115882317534" lon="-4.228585047339668"><ele>804.0</ele><time>2026-04-27T06:49:12.999Z</time></trkpt><trkpt lat="31.433181193418577" lon="-4.228706447110624"><ele>804.0</ele><time>2026-04-27T06:49:13.999Z</time></trkpt><trkpt lat="31.433246992194224" lon="-4.228834386254519"><ele>804.0</ele><time>2026-04-27T06:49:14.999Z</time></trkpt><trkpt lat="31.43331406660423" lon="-4.228967634505177"><ele>804.0</ele><time>2026-04-27T06:49:15.999Z</time></trkpt><trkpt lat="31.433381339009866" lon="-4.229100120020708"><ele>804.0</ele><time>2026-04-27T06:49:16.999Z</time></trkpt><trkpt lat="31.433445886940113" lon="-4.229224846069328"><ele>804.0</ele><time>2026-04-27T06:49:17.999Z</time></trkpt><trkpt lat="31.43350793466716" lon="-4.229348010688393"><ele>804.0</ele><time>2026-04-27T06:49:18.999Z</time></trkpt><trkpt lat="31.433571981543157" lon="-4.229473122959223"><ele>804.0</ele><time>2026-04-27T06:49:19.999Z</time></trkpt><trkpt lat="31.43363837850037" lon="-4.229598178281478"><ele>804.0</ele><time>2026-04-27T06:49:20.999Z</time></trkpt><trkpt lat="31.43370317802091" lon="-4.229726695639952"><ele>804.25</ele><time>2026-04-27T06:49:21.999Z</time></trkpt><trkpt lat="31.433767745600978" lon="-4.229859978806976"><ele>804.5</ele><time>2026-04-27T06:49:22.999Z</time></trkpt><trkpt lat="31.433835015930544" lon="-4.229993343114542"><ele>804.75</ele><time>2026-04-27T06:49:23.999Z</time></trkpt><trkpt lat="31.433899177137096" lon="-4.230119333198323"><ele>805.0</ele><time>2026-04-27T06:49:24.999Z</time></trkpt><trkpt lat="31.43396422724801" lon="-4.230247586450727"><ele>805.0</ele><time>2026-04-27T06:49:25.999Z</time></trkpt><trkpt lat="31.434030860528004" lon="-4.230382363265953"><ele>805.0</ele><time>2026-04-27T06:49:26.999Z</time></trkpt><trkpt lat="31.434097047275067" lon="-4.230517664370938"><ele>805.0</ele><time>2026-04-27T06:49:27.999Z</time></trkpt><trkpt lat="31.434161966423588" lon="-4.230654888625973"><ele>805.0</ele><time>2026-04-27T06:49:28.999Z</time></trkpt><trkpt lat="31.434228801705757" lon="-4.230793918864362"><ele>805.5</ele><time>2026-04-27T06:49:29.999Z</time></trkpt><trkpt lat="31.434297471808065" lon="-4.230934823539117"><ele>806.0</ele><time>2026-04-27T06:49:30.999Z</time></trkpt><trkpt lat="31.43436510079065" lon="-4.23107941164041"><ele>806.5</ele><time>2026-04-27T06:49:31.999Z</time></trkpt><trkpt lat="31.43444106157765" lon="-4.231225308060006"><ele>807.0</ele><time>2026-04-27T06:49:32.999Z</time></trkpt><trkpt lat="31.434513257898114" lon="-4.2313734407907715"><ele>806.75</ele><time>2026-04-27T06:49:33.999Z</time></trkpt><trkpt lat="31.434588982021516" lon="-4.231525607490038"><ele>806.5</ele><time>2026-04-27T06:49:34.999Z</time></trkpt><trkpt lat="31.434661732211808" lon="-4.23167753214425"><ele>806.25</ele><time>2026-04-27T06:49:35.999Z</time></trkpt><trkpt lat="31.43472883482231" lon="-4.2318299172857285"><ele>806.0</ele><time>2026-04-27T06:49:36.999Z</time></trkpt><trkpt lat="31.434799391697005" lon="-4.231973862997635"><ele>806.75</ele><time>2026-04-27T06:49:37.999Z</time></trkpt><trkpt lat="31.4348686875896" lon="-4.232123277604543"><ele>807.5</ele><time>2026-04-27T06:49:38.999Z</time></trkpt><trkpt lat="31.434939212538275" lon="-4.2322733814080395"><ele>808.25</ele><time>2026-04-27T06:49:39.999Z</time></trkpt><trkpt lat="31.435012470650125" lon="-4.232420809082471"><ele>809.0</ele><time>2026-04-27T06:49:40.999Z</time></trkpt><trkpt lat="31.4350802299452" lon="-4.232563844745574"><ele>809.0</ele><time>2026-04-27T06:49:41.999Z</time></trkpt><trkpt lat="31.43514872321246" lon="-4.232692627917078"><ele>809.0</ele><time>2026-04-27T06:49:42.999Z</time></trkpt><trkpt lat="31.435215637119338" lon="-4.232815076073605"><ele>809.0</ele><time>2026-04-27T06:49:43.999Z</time></trkpt><trkpt lat="31.43527477445635" lon="-4.232918380140701"><ele>809.0</ele><time>2026-04-27T06:49:44.999Z</time></trkpt><trkpt lat="31.435319930404926" lon="-4.232999535468563"><ele>809.0</ele><time>2026-04-27T06:49:45.999Z</time></trkpt><trkpt lat="31.43535472826316" lon="-4.233063274028751"><ele>809.0000000000001</ele><time>2026-04-27T06:49:46.999Z</time></trkpt><trkpt lat="31.435399096695335" lon="-4.233137131124143"><ele>809.0</ele><time>2026-04-27T06:49:48.998Z</time></trkpt><trkpt lat="31.43544104776182" lon="-4.23320377880344"><ele>809.0</ele><time>2026-04-27T06:50:20.999Z</time></trkpt><trkpt lat="31.43548016425001" lon="-4.233273017664486"><ele>809.0</ele><time>2026-04-27T06:50:22.999Z</time></trkpt><trkpt lat="31.43553420305459" lon="-4.23333679315727"><ele>809.0000000000001</ele><time>2026-04-27T06:50:25.999Z</time></trkpt><trkpt lat="31.435631087101644" lon="-4.23328746086795"><ele>809.0</ele><time>2026-04-27T06:50:26.999Z</time></trkpt><trkpt lat="31.4357041691187" lon="-4.2332385868176035"><ele>809.2</ele><time>2026-04-27T06:50:27.999Z</time></trkpt><trkpt lat="31.435782495034072" lon="-4.233188913321396"><ele>809.4000000000001</ele><time>2026-04-27T06:50:28.999Z</time></trkpt><trkpt lat="31.435861866246967" lon="-4.233140020928804"><ele>809.6</ele><time>2026-04-27T06:50:29.999Z</time></trkpt><trkpt lat="31.435946606404006" lon="-4.233095557177502"><ele>809.8</ele><time>2026-04-27T06:50:30.999Z</time></trkpt><trkpt lat="31.436036443027533" lon="-4.233049661972196"><ele>810.0</ele><time>2026-04-27T06:50:31.999Z</time></trkpt><trkpt lat="31.43612355629672" lon="-4.233005920155624"><ele>810.0</ele><time>2026-04-27T06:50:32.999Z</time></trkpt><trkpt lat="31.436206048739972" lon="-4.232963304843755"><ele>810.0</ele><time>2026-04-27T06:50:33.999Z</time></trkpt><trkpt lat="31.436278836299532" lon="-4.23292012237173"><ele>810.0</ele><time>2026-04-27T06:50:34.999Z</time></trkpt><trkpt lat="31.436343194829337" lon="-4.232887616933809"><ele>810.0</ele><time>2026-04-27T06:50:35.999Z</time></trkpt><trkpt lat="31.4364421569316" lon="-4.232843560935319"><ele>810.0</ele><time>2026-04-27T06:50:37.999Z</time></trkpt><trkpt lat="31.436517619611298" lon="-4.232814634334925"><ele>810.0</ele><time>2026-04-27T06:50:39.999Z</time></trkpt><trkpt lat="31.43662536333058" lon="-4.232757804240003"><ele>809.3333333333334</ele><time>2026-04-27T06:50:41.999Z</time></trkpt><trkpt lat="31.43668949236476" lon="-4.232720700686637"><ele>808.6666666666667</ele><time>2026-04-27T06:50:42.999Z</time></trkpt><trkpt lat="31.43675804184037" lon="-4.232681796408074"><ele>808.0</ele><time>2026-04-27T06:50:43.999Z</time></trkpt><trkpt lat="31.43683375308574" lon="-4.232640035720268"><ele>807.3333333333334</ele><time>2026-04-27T06:50:44.999Z</time></trkpt><trkpt lat="31.436917001068572" lon="-4.232598568276054"><ele>806.6666666666667</ele><time>2026-04-27T06:50:45.999Z</time></trkpt><trkpt lat="31.437007265218167" lon="-4.2325540568304945"><ele>806.0</ele><time>2026-04-27T06:50:46.999Z</time></trkpt><trkpt lat="31.437097134911184" lon="-4.232510403997931"><ele>806.0</ele><time>2026-04-27T06:50:47.999Z</time></trkpt><trkpt lat="31.437185075284784" lon="-4.2324672419394505"><ele>806.0</ele><time>2026-04-27T06:50:48.999Z</time></trkpt><trkpt lat="31.43727546000017" lon="-4.232425269284959"><ele>806.0</ele><time>2026-04-27T06:50:49.999Z</time></trkpt><trkpt lat="31.437364281753293" lon="-4.232382723348651"><ele>806.0</ele><time>2026-04-27T06:50:50.999Z</time></trkpt><trkpt lat="31.437453432041284" lon="-4.2323427614930855"><ele>806.0</ele><time>2026-04-27T06:50:51.999Z</time></trkpt><trkpt lat="31.43754702916732" lon="-4.232299129659405"><ele>806.0</ele><time>2026-04-27T06:50:52.999Z</time></trkpt><trkpt lat="31.4376428121778" lon="-4.232253360706322"><ele>806.0</ele><time>2026-04-27T06:50:53.999Z</time></trkpt><trkpt lat="31.437747537970726" lon="-4.232205784707539"><ele>806.0</ele><time>2026-04-27T06:50:54.999Z</time></trkpt><trkpt lat="31.437862627198147" lon="-4.23215361991757"><ele>806.0</ele><time>2026-04-27T06:50:55.999Z</time></trkpt><trkpt lat="31.437984849273978" lon="-4.232096025233982"><ele>806.0</ele><time>2026-04-27T06:50:56.999Z</time></trkpt><trkpt lat="31.438112126704713" lon="-4.232039354547937"><ele>806.0</ele><time>2026-04-27T06:50:57.999Z</time></trkpt><trkpt lat="31.438236804702065" lon="-4.231981232960091"><ele>806.0</ele><time>2026-04-27T06:50:58.999Z</time></trkpt><trkpt lat="31.438358089611846" lon="-4.231925440777023"><ele>806.0</ele><time>2026-04-27T06:50:59.999Z</time></trkpt><trkpt lat="31.438473776497474" lon="-4.2318730883492535"><ele>806.0</ele><time>2026-04-27T06:51:00.999Z</time></trkpt><trkpt lat="31.438589808904727" lon="-4.231825617717308"><ele>806.0</ele><time>2026-04-27T06:51:01.999Z</time></trkpt><trkpt lat="31.438708727974507" lon="-4.23177161407403"><ele>806.0</ele><time>2026-04-27T06:51:02.999Z</time></trkpt><trkpt lat="31.438827125139657" lon="-4.231696412497413"><ele>806.0</ele><time>2026-04-27T06:51:03.999Z</time></trkpt><trkpt lat="31.43895183408498" lon="-4.231637234763728"><ele>806.25</ele><time>2026-04-27T06:51:04.999Z</time></trkpt><trkpt lat="31.43907336523547" lon="-4.231579699704018"><ele>806.5</ele><time>2026-04-27T06:51:05.999Z</time></trkpt><trkpt lat="31.43920049229309" lon="-4.231518855726435"><ele>806.75</ele><time>2026-04-27T06:51:06.999Z</time></trkpt><trkpt lat="31.439328292199594" lon="-4.231458047955938"><ele>807.0</ele><time>2026-04-27T06:51:07.999Z</time></trkpt><trkpt lat="31.439455995011578" lon="-4.231397649330815"><ele>807.25</ele><time>2026-04-27T06:51:08.999Z</time></trkpt><trkpt lat="31.439581522856827" lon="-4.231337517057293"><ele>807.5</ele><time>2026-04-27T06:51:09.999Z</time></trkpt><trkpt lat="31.439709708109824" lon="-4.231282003259309"><ele>807.75</ele><time>2026-04-27T06:51:10.999Z</time></trkpt><trkpt lat="31.439844049497562" lon="-4.231244375983543"><ele>808.0</ele><time>2026-04-27T06:51:11.999Z</time></trkpt><trkpt lat="31.439974807142157" lon="-4.231185109074561"><ele>808.0</ele><time>2026-04-27T06:51:12.999Z</time></trkpt><trkpt lat="31.440101521741628" lon="-4.23112678744744"><ele>808.0</ele><time>2026-04-27T06:51:13.999Z</time></trkpt><trkpt lat="31.440235629021988" lon="-4.23106766125712"><ele>808.0</ele><time>2026-04-27T06:51:14.999Z</time></trkpt><trkpt lat="31.44037340087868" lon="-4.23100615761348"><ele>808.0</ele><time>2026-04-27T06:51:15.999Z</time></trkpt><trkpt lat="31.440510557332406" lon="-4.230942361276356"><ele>807.5</ele><time>2026-04-27T06:51:16.999Z</time></trkpt><trkpt lat="31.440642855502283" lon="-4.230887943478142"><ele>807.0</ele><time>2026-04-27T06:51:17.999Z</time></trkpt><trkpt lat="31.44077432494266" lon="-4.230828760935869"><ele>806.5</ele><time>2026-04-27T06:51:18.999Z</time></trkpt><trkpt lat="31.44090832903127" lon="-4.230770515406303"><ele>806.0</ele><time>2026-04-27T06:51:19.999Z</time></trkpt><trkpt lat="31.441035972652692" lon="-4.230713619906865"><ele>806.0</ele><time>2026-04-27T06:51:20.999Z</time></trkpt><trkpt lat="31.441165513559138" lon="-4.23065451846486"><ele>806.0</ele><time>2026-04-27T06:51:21.999Z</time></trkpt><trkpt lat="31.441296287456492" lon="-4.230594611281778"><ele>806.0</ele><time>2026-04-27T06:51:22.999Z</time></trkpt><trkpt lat="31.44142877346886" lon="-4.2305341585913245"><ele>806.0</ele><time>2026-04-27T06:51:23.999Z</time></trkpt><trkpt lat="31.441562614611705" lon="-4.230474229953765"><ele>806.25</ele><time>2026-04-27T06:51:24.999Z</time></trkpt><trkpt lat="31.441697302144366" lon="-4.230413412352255"><ele>806.5</ele><time>2026-04-27T06:51:25.999Z</time></trkpt><trkpt lat="31.441828915011218" lon="-4.23035371057859"><ele>806.75</ele><time>2026-04-27T06:51:26.999Z</time></trkpt><trkpt lat="31.44196422572895" lon="-4.23029433866195"><ele>807.0</ele><time>2026-04-27T06:51:27.999Z</time></trkpt><trkpt lat="31.442095630520118" lon="-4.230243245964005"><ele>807.5</ele><time>2026-04-27T06:51:28.999Z</time></trkpt><trkpt lat="31.44223335753151" lon="-4.230189849957362"><ele>808.0</ele><time>2026-04-27T06:51:29.999Z</time></trkpt><trkpt lat="31.442371880347846" lon="-4.230131865236349"><ele>808.5</ele><time>2026-04-27T06:51:30.999Z</time></trkpt><trkpt lat="31.44249988211585" lon="-4.230050965079479"><ele>809.0</ele><time>2026-04-27T06:51:31.999Z</time></trkpt><trkpt lat="31.442624112559006" lon="-4.229975206698864"><ele>809.0</ele><time>2026-04-27T06:51:32.999Z</time></trkpt><trkpt lat="31.44274928563833" lon="-4.2298977056313705"><ele>809.0</ele><time>2026-04-27T06:51:33.999Z</time></trkpt><trkpt lat="31.442877076570287" lon="-4.229818663423465"><ele>809.0</ele><time>2026-04-27T06:51:34.999Z</time></trkpt><trkpt lat="31.44301311147723" lon="-4.229734116986966"><ele>809.0</ele><time>2026-04-27T06:51:35.999Z</time></trkpt><trkpt lat="31.443152291137828" lon="-4.229648013951258"><ele>808.6666666666667</ele><time>2026-04-27T06:51:36.999Z</time></trkpt><trkpt lat="31.443289841852113" lon="-4.229562287898079"><ele>808.3333333333333</ele><time>2026-04-27T06:51:37.999Z</time></trkpt><trkpt lat="31.443428530293694" lon="-4.229471212162778"><ele>808.0</ele><time>2026-04-27T06:51:38.999Z</time></trkpt><trkpt lat="31.443565931825567" lon="-4.229379681682596"><ele>808.0</ele><time>2026-04-27T06:51:39.998Z</time></trkpt><trkpt lat="31.443710317025424" lon="-4.229300454607882"><ele>808.0</ele><time>2026-04-27T06:51:40.998Z</time></trkpt><trkpt lat="31.443843178345215" lon="-4.229199754757405"><ele>808.0</ele><time>2026-04-27T06:51:41.998Z</time></trkpt><trkpt lat="31.44397452060916" lon="-4.2291044075949635"><ele>807.3333333333333</ele><time>2026-04-27T06:51:42.998Z</time></trkpt><trkpt lat="31.44410723368591" lon="-4.229012704592852"><ele>806.6666666666667</ele><time>2026-04-27T06:51:43.998Z</time></trkpt><trkpt lat="31.444240997459275" lon="-4.228921023720232"><ele>806.0</ele><time>2026-04-27T06:51:44.998Z</time></trkpt><trkpt lat="31.44437256048159" lon="-4.228827006211782"><ele>805.75</ele><time>2026-04-27T06:51:45.998Z</time></trkpt><trkpt lat="31.44450195428628" lon="-4.22873909153284"><ele>805.5</ele><time>2026-04-27T06:51:46.998Z</time></trkpt><trkpt lat="31.44463067884128" lon="-4.228653322014639"><ele>805.25</ele><time>2026-04-27T06:51:47.998Z</time></trkpt><trkpt lat="31.44474265176346" lon="-4.228574996462276"><ele>805.0</ele><time>2026-04-27T06:51:48.998Z</time></trkpt><trkpt lat="31.44484258182628" lon="-4.22850502489577"><ele>805.0</ele><time>2026-04-27T06:51:49.998Z</time></trkpt><trkpt lat="31.444928955109738" lon="-4.228436322688917"><ele>805.0</ele><time>2026-04-27T06:51:50.998Z</time></trkpt><trkpt lat="31.445002696923446" lon="-4.22836151966425"><ele>805.0</ele><time>2026-04-27T06:51:51.998Z</time></trkpt><trkpt lat="31.445057408018418" lon="-4.228275097281355"><ele>805.0</ele><time>2026-04-27T06:51:52.998Z</time></trkpt><trkpt lat="31.445146507444335" lon="-4.228248418170389"><ele>805.0</ele><time>2026-04-27T06:51:53.998Z</time></trkpt><trkpt lat="31.445246931986492" lon="-4.228229397618575"><ele>805.0</ele><time>2026-04-27T06:51:54.998Z</time></trkpt><trkpt lat="31.44535480588937" lon="-4.228201893547247"><ele>805.0</ele><time>2026-04-27T06:51:55.998Z</time></trkpt><trkpt lat="31.445470615688688" lon="-4.228154354474745"><ele>805.0</ele><time>2026-04-27T06:51:56.998Z</time></trkpt><trkpt lat="31.445583255213556" lon="-4.228079429168661"><ele>805.0</ele><time>2026-04-27T06:51:57.998Z</time></trkpt><trkpt lat="31.445701774890715" lon="-4.22803981723489"><ele>805.75</ele><time>2026-04-27T06:51:58.998Z</time></trkpt><trkpt lat="31.445807826557203" lon="-4.227987748225211"><ele>806.5</ele><time>2026-04-27T06:51:59.998Z</time></trkpt><trkpt lat="31.44591627106187" lon="-4.227935586038419"><ele>807.25</ele><time>2026-04-27T06:52:00.998Z</time></trkpt><trkpt lat="31.446017739533655" lon="-4.227863668324301"><ele>808.0</ele><time>2026-04-27T06:52:01.998Z</time></trkpt><trkpt lat="31.446122295788573" lon="-4.227811487650339"><ele>807.9999999999999</ele><time>2026-04-27T06:52:02.998Z</time></trkpt><trkpt lat="31.446200383479393" lon="-4.227773468978488"><ele>808.0</ele><time>2026-04-27T06:52:03.999Z</time></trkpt><trkpt lat="31.446265819877993" lon="-4.2277408527902685"><ele>808.0</ele><time>2026-04-27T06:52:04.999Z</time></trkpt><trkpt lat="31.44634341338872" lon="-4.227712144919751"><ele>808.0</ele><time>2026-04-27T06:52:05.999Z</time></trkpt><trkpt lat="31.446426927448492" lon="-4.227683264870154"><ele>807.9999999999999</ele><time>2026-04-27T06:52:06.999Z</time></trkpt><trkpt lat="31.446517889012007" lon="-4.227651806245633"><ele>808.0</ele><time>2026-04-27T06:52:07.999Z</time></trkpt><trkpt lat="31.44661604844194" lon="-4.227617858271714"><ele>808.1666666666666</ele><time>2026-04-27T06:52:08.999Z</time></trkpt><trkpt lat="31.44671628857063" lon="-4.227583224625722"><ele>808.3333333333333</ele><time>2026-04-27T06:52:09.999Z</time></trkpt><trkpt lat="31.44681484815063" lon="-4.22754927350773"><ele>808.5</ele><time>2026-04-27T06:52:10.999Z</time></trkpt><trkpt lat="31.446901837321178" lon="-4.227519060689993"><ele>808.6666666666667</ele><time>2026-04-27T06:52:11.999Z</time></trkpt><trkpt lat="31.44697170229572" lon="-4.227493536080879"><ele>808.8333333333334</ele><time>2026-04-27T06:52:12.999Z</time></trkpt><trkpt lat="31.447039771193953" lon="-4.227468185328705"><ele>809.0</ele><time>2026-04-27T06:52:13.999Z</time></trkpt><trkpt lat="31.44711418840895" lon="-4.227440082398797"><ele>808.8000000000001</ele><time>2026-04-27T06:52:14.999Z</time></trkpt><trkpt lat="31.44720426240354" lon="-4.22740607170183"><ele>808.6</ele><time>2026-04-27T06:52:15.999Z</time></trkpt><trkpt lat="31.44730821484769" lon="-4.227366798469104"><ele>808.4</ele><time>2026-04-27T06:52:16.999Z</time></trkpt><trkpt lat="31.447420953172678" lon="-4.22734230153757"><ele>808.2</ele><time>2026-04-27T06:52:17.999Z</time></trkpt><trkpt lat="31.447539080216686" lon="-4.227288603957294"><ele>808.0</ele><time>2026-04-27T06:52:18.999Z</time></trkpt><trkpt lat="31.447661296021277" lon="-4.227237093846195"><ele>808.0</ele><time>2026-04-27T06:52:19.999Z</time></trkpt><trkpt lat="31.447786675082554" lon="-4.227184642380568"><ele>808.0</ele><time>2026-04-27T06:52:20.999Z</time></trkpt><trkpt lat="31.44791235108108" lon="-4.227130054800846"><ele>808.0</ele><time>2026-04-27T06:52:21.999Z</time></trkpt><trkpt lat="31.44804581465739" lon="-4.227070907586975"><ele>808.0</ele><time>2026-04-27T06:52:22.999Z</time></trkpt><trkpt lat="31.448184024525485" lon="-4.227008427744101"><ele>808.0</ele><time>2026-04-27T06:52:23.999Z</time></trkpt><trkpt lat="31.448321016933864" lon="-4.226923271444417"><ele>808.0</ele><time>2026-04-27T06:52:24.999Z</time></trkpt><trkpt lat="31.448471213344394" lon="-4.226853952082986"><ele>808.0</ele><time>2026-04-27T06:52:25.999Z</time></trkpt><trkpt lat="31.448624170180327" lon="-4.226783529024518"><ele>808.0</ele><time>2026-04-27T06:52:26.999Z</time></trkpt><trkpt lat="31.44878522361936" lon="-4.226709709395669"><ele>808.0</ele><time>2026-04-27T06:52:27.999Z</time></trkpt><trkpt lat="31.44895140310568" lon="-4.22663353737586"><ele>808.0</ele><time>2026-04-27T06:52:28.999Z</time></trkpt><trkpt lat="31.449127757495035" lon="-4.226552211147449"><ele>808.0</ele><time>2026-04-27T06:52:29.999Z</time></trkpt><trkpt lat="31.449305713168485" lon="-4.226480932200186"><ele>808.0</ele><time>2026-04-27T06:52:30.999Z</time></trkpt><trkpt lat="31.449483125290634" lon="-4.2264099278445295"><ele>808.0</ele><time>2026-04-27T06:52:31.999Z</time></trkpt><trkpt lat="31.449674967537028" lon="-4.226364540823448"><ele>808.0</ele><time>2026-04-27T06:52:32.999Z</time></trkpt><trkpt lat="31.449867449033782" lon="-4.2263092043040515"><ele>808.0</ele><time>2026-04-27T06:52:33.999Z</time></trkpt><trkpt lat="31.450060722714518" lon="-4.226266739383946"><ele>808.0</ele><time>2026-04-27T06:52:34.999Z</time></trkpt><trkpt lat="31.450254773842346" lon="-4.226232966241017"><ele>808.0</ele><time>2026-04-27T06:52:35.999Z</time></trkpt><trkpt lat="31.45044699685046" lon="-4.226200186446286"><ele>808.0</ele><time>2026-04-27T06:52:36.999Z</time></trkpt><trkpt lat="31.45063863580423" lon="-4.226166844969127"><ele>808.0</ele><time>2026-04-27T06:52:37.999Z</time></trkpt><trkpt lat="31.450831325434322" lon="-4.226134811349707"><ele>807.6666666666666</ele><time>2026-04-27T06:52:38.999Z</time></trkpt><trkpt lat="31.45102276703824" lon="-4.226101009877993"><ele>807.3333333333333</ele><time>2026-04-27T06:52:39.999Z</time></trkpt><trkpt lat="31.45121411801139" lon="-4.226067581582091"><ele>807.0</ele><time>2026-04-27T06:52:40.999Z</time></trkpt><trkpt lat="31.451399016320394" lon="-4.22603648574142"><ele>806.6666666666667</ele><time>2026-04-27T06:52:41.999Z</time></trkpt><trkpt lat="31.451584721044213" lon="-4.226004204308415"><ele>806.3333333333334</ele><time>2026-04-27T06:52:42.999Z</time></trkpt><trkpt lat="31.451767232411093" lon="-4.225968839360002"><ele>806.0</ele><time>2026-04-27T06:52:43.999Z</time></trkpt><trkpt lat="31.45194655228678" lon="-4.225939250581372"><ele>806.0</ele><time>2026-04-27T06:52:44.999Z</time></trkpt><trkpt lat="31.452118700256737" lon="-4.225907822739108"><ele>806.0</ele><time>2026-04-27T06:52:45.999Z</time></trkpt><trkpt lat="31.452286005782053" lon="-4.225860569404881"><ele>806.0</ele><time>2026-04-27T06:52:47Z</time></trkpt><trkpt lat="31.452436349638667" lon="-4.225766623550143"><ele>806.0</ele><time>2026-04-27T06:52:48Z</time></trkpt><trkpt lat="31.452597858078523" lon="-4.225674348946998"><ele>806.0</ele><time>2026-04-27T06:52:49Z</time></trkpt><trkpt lat="31.452771722390217" lon="-4.225584466900979"><ele>806.0</ele><time>2026-04-27T06:52:50Z</time></trkpt><trkpt lat="31.452939010173356" lon="-4.225464064269469"><ele>806.6666666666667</ele><time>2026-04-27T06:52:51Z</time></trkpt><trkpt lat="31.453111825395926" lon="-4.225342861959827"><ele>807.3333333333333</ele><time>2026-04-27T06:52:52Z</time></trkpt><trkpt lat="31.45328935609657" lon="-4.2252216469461645"><ele>808.0</ele><time>2026-04-27T06:52:53Z</time></trkpt><trkpt lat="31.453459609906904" lon="-4.225085022162706"><ele>808.0</ele><time>2026-04-27T06:52:54Z</time></trkpt><trkpt lat="31.453637424371703" lon="-4.224960093462817"><ele>808.0</ele><time>2026-04-27T06:52:55Z</time></trkpt><trkpt lat="31.45381807141379" lon="-4.224832547253414"><ele>808.0</ele><time>2026-04-27T06:52:56Z</time></trkpt><trkpt lat="31.454000239177216" lon="-4.224698995106724"><ele>808.3333333333333</ele><time>2026-04-27T06:52:57Z</time></trkpt><trkpt lat="31.454185812850113" lon="-4.224562518739961"><ele>808.6666666666667</ele><time>2026-04-27T06:52:58Z</time></trkpt><trkpt lat="31.45437210699821" lon="-4.224425395760014"><ele>809.0</ele><time>2026-04-27T06:52:59Z</time></trkpt><trkpt lat="31.4545475269827" lon="-4.224263633831772"><ele>809.0</ele><time>2026-04-27T06:53:00Z</time></trkpt><trkpt lat="31.454714391556124" lon="-4.224085251068232"><ele>809.0</ele><time>2026-04-27T06:53:01Z</time></trkpt><trkpt lat="31.45490801527525" lon="-4.223941886023931"><ele>809.0</ele><time>2026-04-27T06:53:02Z</time></trkpt><trkpt lat="31.455095379445176" lon="-4.223786000366931"><ele>809.0</ele><time>2026-04-27T06:53:03Z</time></trkpt><trkpt lat="31.45528632300013" lon="-4.223636172708938"><ele>807.0</ele><time>2026-04-27T06:53:04Z</time></trkpt><trkpt lat="31.45548000905251" lon="-4.223493141717333"><ele>805.0</ele><time>2026-04-27T06:53:05Z</time></trkpt><trkpt lat="31.455673873783798" lon="-4.223351570145016"><ele>805.0</ele><time>2026-04-27T06:53:06Z</time></trkpt><trkpt lat="31.455867036172602" lon="-4.2232095542653205"><ele>805.0</ele><time>2026-04-27T06:53:07Z</time></trkpt><trkpt lat="31.456055317485813" lon="-4.223066682916095"><ele>806.3333333333333</ele><time>2026-04-27T06:53:08Z</time></trkpt><trkpt lat="31.456228709977257" lon="-4.222904774841877"><ele>807.6666666666667</ele><time>2026-04-27T06:53:09Z</time></trkpt><trkpt lat="31.456407260638706" lon="-4.222755614815476"><ele>809.0</ele><time>2026-04-27T06:53:10Z</time></trkpt><trkpt lat="31.456584208627394" lon="-4.222610711613069"><ele>809.6666666666667</ele><time>2026-04-27T06:53:11Z</time></trkpt><trkpt lat="31.456759151221494" lon="-4.222469918730562"><ele>810.3333333333333</ele><time>2026-04-27T06:53:12Z</time></trkpt><trkpt lat="31.456930971486436" lon="-4.222335896575878"><ele>811.0</ele><time>2026-04-27T06:53:13Z</time></trkpt><trkpt lat="31.45709963406561" lon="-4.222204783555704"><ele>810.6666666666666</ele><time>2026-04-27T06:53:14Z</time></trkpt><trkpt lat="31.457278744571195" lon="-4.222084913978922"><ele>810.3333333333333</ele><time>2026-04-27T06:53:15Z</time></trkpt><trkpt lat="31.457473815151776" lon="-4.22199950084847"><ele>810.0</ele><time>2026-04-27T06:53:16Z</time></trkpt><trkpt lat="31.457665541784156" lon="-4.221904126110591"><ele>810.0</ele><time>2026-04-27T06:53:17Z</time></trkpt><trkpt lat="31.45786161435823" lon="-4.22182434269243"><ele>810.0</ele><time>2026-04-27T06:53:18Z</time></trkpt><trkpt lat="31.45804468300018" lon="-4.2217336490372315"><ele>810.0</ele><time>2026-04-27T06:53:19Z</time></trkpt><trkpt lat="31.458226015515315" lon="-4.221656915780763"><ele>810.3333333333333</ele><time>2026-04-27T06:53:20Z</time></trkpt><trkpt lat="31.458415180212125" lon="-4.221597282798758"><ele>810.6666666666666</ele><time>2026-04-27T06:53:21Z</time></trkpt><trkpt lat="31.458585247635117" lon="-4.221472917124246"><ele>811.0</ele><time>2026-04-27T06:53:22Z</time></trkpt><trkpt lat="31.458766638983896" lon="-4.221361090849185"><ele>812.0</ele><time>2026-04-27T06:53:23Z</time></trkpt><trkpt lat="31.458922234231768" lon="-4.221193103696796"><ele>813.0</ele><time>2026-04-27T06:53:24Z</time></trkpt><trkpt lat="31.459101686690442" lon="-4.221046582477261"><ele>814.0</ele><time>2026-04-27T06:53:25Z</time></trkpt><trkpt lat="31.459246286785177" lon="-4.2208500164260325"><ele>814.0</ele><time>2026-04-27T06:53:26Z</time></trkpt><trkpt lat="31.459403367624954" lon="-4.220670434301044"><ele>814.0</ele><time>2026-04-27T06:53:27Z</time></trkpt><trkpt lat="31.459562553138486" lon="-4.220504820589156"><ele>814.0</ele><time>2026-04-27T06:53:28Z</time></trkpt><trkpt lat="31.459717358110332" lon="-4.220344921790995"><ele>814.3333333333333</ele><time>2026-04-27T06:53:29Z</time></trkpt><trkpt lat="31.4598675128816" lon="-4.220186908964353"><ele>814.6666666666667</ele><time>2026-04-27T06:53:30Z</time></trkpt><trkpt lat="31.460016181237616" lon="-4.220033025400068"><ele>815.0</ele><time>2026-04-27T06:53:31Z</time></trkpt><trkpt lat="31.460157247434196" lon="-4.2198836818718055"><ele>814.3333333333334</ele><time>2026-04-27T06:53:32Z</time></trkpt><trkpt lat="31.46029056948513" lon="-4.219744559392237"><ele>813.6666666666667</ele><time>2026-04-27T06:53:33Z</time></trkpt><trkpt lat="31.46041863615718" lon="-4.219611129516652"><ele>813.0</ele><time>2026-04-27T06:53:34Z</time></trkpt><trkpt lat="31.46054705476581" lon="-4.219476128377102"><ele>813.0</ele><time>2026-04-27T06:53:35Z</time></trkpt><trkpt lat="31.460674257668362" lon="-4.219343708105659"><ele>813.0</ele><time>2026-04-27T06:53:36Z</time></trkpt><trkpt lat="31.4607899445611" lon="-4.219208119721264"><ele>813.0</ele><time>2026-04-27T06:53:37Z</time></trkpt><trkpt lat="31.460900666029065" lon="-4.21907508441107"><ele>812.3333333333333</ele><time>2026-04-27T06:53:37.999Z</time></trkpt><trkpt lat="31.46100979396612" lon="-4.218944194774564"><ele>811.6666666666666</ele><time>2026-04-27T06:53:38.999Z</time></trkpt><trkpt lat="31.46111893254298" lon="-4.218812705495278"><ele>811.0</ele><time>2026-04-27T06:53:39.999Z</time></trkpt><trkpt lat="31.461235654909643" lon="-4.218686264953632"><ele>812.0</ele><time>2026-04-27T06:53:40.999Z</time></trkpt><trkpt lat="31.461359054813784" lon="-4.218565963855582"><ele>813.0</ele><time>2026-04-27T06:53:41.999Z</time></trkpt><trkpt lat="31.46148184245069" lon="-4.218450405883388"><ele>814.0</ele><time>2026-04-27T06:53:42.999Z</time></trkpt><trkpt lat="31.4615984455004" lon="-4.218340018453702"><ele>814.0</ele><time>2026-04-27T06:53:43.999Z</time></trkpt><trkpt lat="31.461723878866895" lon="-4.218241104541186"><ele>814.0</ele><time>2026-04-27T06:53:44.999Z</time></trkpt><trkpt lat="31.461848864426948" lon="-4.218147512465778"><ele>814.0</ele><time>2026-04-27T06:53:45.999Z</time></trkpt><trkpt lat="31.46197161071434" lon="-4.218051777475374"><ele>814.0</ele><time>2026-04-27T06:53:46.999Z</time></trkpt><trkpt lat="31.462099090288287" lon="-4.217957378775593"><ele>812.75</ele><time>2026-04-27T06:53:47.999Z</time></trkpt><trkpt lat="31.462219362845985" lon="-4.2178598527922375"><ele>811.5</ele><time>2026-04-27T06:53:48.999Z</time></trkpt><trkpt lat="31.462336055151802" lon="-4.217761488444538"><ele>810.25</ele><time>2026-04-27T06:53:49.999Z</time></trkpt><trkpt lat="31.462448550698987" lon="-4.217662468680308"><ele>809.0</ele><time>2026-04-27T06:53:50.999Z</time></trkpt><trkpt lat="31.46255673599593" lon="-4.2175607126784005"><ele>809.0</ele><time>2026-04-27T06:53:51.999Z</time></trkpt><trkpt lat="31.462669692195924" lon="-4.21747295799336"><ele>809.0</ele><time>2026-04-27T06:53:52.999Z</time></trkpt><trkpt lat="31.462772557985634" lon="-4.21736952008737"><ele>809.0</ele><time>2026-04-27T06:53:53.999Z</time></trkpt><trkpt lat="31.46287840095502" lon="-4.2172641741870045"><ele>809.0</ele><time>2026-04-27T06:53:54.999Z</time></trkpt><trkpt lat="31.462972452806312" lon="-4.217144259667729"><ele>809.75</ele><time>2026-04-27T06:53:55.999Z</time></trkpt><trkpt lat="31.463096728800096" lon="-4.217061906823418"><ele>810.5</ele><time>2026-04-27T06:53:56.999Z</time></trkpt><trkpt lat="31.463214316729896" lon="-4.21696361185625"><ele>811.25</ele><time>2026-04-27T06:53:57.999Z</time></trkpt><trkpt lat="31.463339329120927" lon="-4.21687540207956"><ele>812.0</ele><time>2026-04-27T06:53:58.999Z</time></trkpt><trkpt lat="31.463471204340262" lon="-4.216792563260103"><ele>812.0</ele><time>2026-04-27T06:53:59.999Z</time></trkpt><trkpt lat="31.463608088106607" lon="-4.216714810528176"><ele>812.0</ele><time>2026-04-27T06:54:00.999Z</time></trkpt><trkpt lat="31.463743179555625" lon="-4.21664772170352"><ele>812.0</ele><time>2026-04-27T06:54:01.999Z</time></trkpt><trkpt lat="31.463883367484193" lon="-4.216599279323149"><ele>812.0</ele><time>2026-04-27T06:54:02.999Z</time></trkpt><trkpt lat="31.464026742418" lon="-4.216568169127032"><ele>811.6666666666667</ele><time>2026-04-27T06:54:03.999Z</time></trkpt><trkpt lat="31.46417322140744" lon="-4.216560177576858"><ele>811.3333333333333</ele><time>2026-04-27T06:54:04.999Z</time></trkpt><trkpt lat="31.464324384453302" lon="-4.216572622363243"><ele>811.0</ele><time>2026-04-27T06:54:05.999Z</time></trkpt><trkpt lat="31.464473986669077" lon="-4.2166018627674795"><ele>811.0</ele><time>2026-04-27T06:54:06.999Z</time></trkpt><trkpt lat="31.464617958643164" lon="-4.2166426366108976"><ele>811.0</ele><time>2026-04-27T06:54:07.999Z</time></trkpt><trkpt lat="31.464757208843906" lon="-4.2166893804783445"><ele>811.0</ele><time>2026-04-27T06:54:08.999Z</time></trkpt><trkpt lat="31.46489171356162" lon="-4.216743250053612"><ele>811.0</ele><time>2026-04-27T06:54:10Z</time></trkpt><trkpt lat="31.465019862978473" lon="-4.216799909467915"><ele>811.0</ele><time>2026-04-27T06:54:11Z</time></trkpt><trkpt lat="31.465146980640558" lon="-4.216855590444219"><ele>811.0</ele><time>2026-04-27T06:54:12Z</time></trkpt><trkpt lat="31.46527734219863" lon="-4.216910652119774"><ele>811.0</ele><time>2026-04-27T06:54:13Z</time></trkpt><trkpt lat="31.465408590935706" lon="-4.216963844988774"><ele>811.0</ele><time>2026-04-27T06:54:14Z</time></trkpt><trkpt lat="31.465542659319304" lon="-4.2170161825028165"><ele>811.5</ele><time>2026-04-27T06:54:15Z</time></trkpt><trkpt lat="31.465674448467453" lon="-4.217068281126149"><ele>812.0</ele><time>2026-04-27T06:54:16Z</time></trkpt><trkpt lat="31.465804991436933" lon="-4.217117945503183"><ele>812.5</ele><time>2026-04-27T06:54:17Z</time></trkpt><trkpt lat="31.46593562134123" lon="-4.2171541945560165"><ele>813.0</ele><time>2026-04-27T06:54:18Z</time></trkpt><trkpt lat="31.46607172369826" lon="-4.217159332994952"><ele>813.0</ele><time>2026-04-27T06:54:19Z</time></trkpt><trkpt lat="31.466195523151246" lon="-4.217104177089635"><ele>813.0</ele><time>2026-04-27T06:54:20Z</time></trkpt><trkpt lat="31.466308124771267" lon="-4.217033103011292"><ele>813.0</ele><time>2026-04-27T06:54:21Z</time></trkpt><trkpt lat="31.466431347993392" lon="-4.216968718706119"><ele>813.0</ele><time>2026-04-27T06:54:22Z</time></trkpt><trkpt lat="31.466554907055446" lon="-4.216911781509886"><ele>813.0</ele><time>2026-04-27T06:54:23Z</time></trkpt><trkpt lat="31.46668417785425" lon="-4.21687011917457"><ele>813.0</ele><time>2026-04-27T06:54:24Z</time></trkpt><trkpt lat="31.466809336376055" lon="-4.216829629649762"><ele>813.0</ele><time>2026-04-27T06:54:25Z</time></trkpt><trkpt lat="31.466935314724218" lon="-4.216799396849704"><ele>813.0</ele><time>2026-04-27T06:54:26Z</time></trkpt><trkpt lat="31.467050559391552" lon="-4.216748029808758"><ele>813.0</ele><time>2026-04-27T06:54:27Z</time></trkpt><trkpt lat="31.467157486031343" lon="-4.216692486571579"><ele>813.0</ele><time>2026-04-27T06:54:28Z</time></trkpt><trkpt lat="31.46725719469599" lon="-4.216633524997106"><ele>813.0</ele><time>2026-04-27T06:54:29Z</time></trkpt><trkpt lat="31.467350035047367" lon="-4.216573642996253"><ele>813.0</ele><time>2026-04-27T06:54:30Z</time></trkpt><trkpt lat="31.467440873952675" lon="-4.216513219997489"><ele>813.0</ele><time>2026-04-27T06:54:31Z</time></trkpt><trkpt lat="31.46753502937825" lon="-4.216455262544569"><ele>813.0</ele><time>2026-04-27T06:54:32Z</time></trkpt><trkpt lat="31.46763324547136" lon="-4.216400988451644"><ele>813.0</ele><time>2026-04-27T06:54:33Z</time></trkpt><trkpt lat="31.46773507369713" lon="-4.216355472499062"><ele>813.0</ele><time>2026-04-27T06:54:34Z</time></trkpt><trkpt lat="31.467835717476493" lon="-4.216316561297567"><ele>813.0</ele><time>2026-04-27T06:54:35Z</time></trkpt><trkpt lat="31.467940276680892" lon="-4.216291784680394"><ele>813.0</ele><time>2026-04-27T06:54:36Z</time></trkpt><trkpt lat="31.468047877035723" lon="-4.216296023649266"><ele>813.0</ele><time>2026-04-27T06:54:37Z</time></trkpt><trkpt lat="31.468154864667394" lon="-4.216326254894459"><ele>813.0</ele><time>2026-04-27T06:54:38Z</time></trkpt><trkpt lat="31.46825988205955" lon="-4.216379700625506"><ele>813.0</ele><time>2026-04-27T06:54:39Z</time></trkpt><trkpt lat="31.468360240883893" lon="-4.216450443042286"><ele>813.0</ele><time>2026-04-27T06:54:40Z</time></trkpt><trkpt lat="31.46845450881719" lon="-4.216534313126874"><ele>813.0</ele><time>2026-04-27T06:54:41Z</time></trkpt><trkpt lat="31.468544751271057" lon="-4.216625228715105"><ele>813.0</ele><time>2026-04-27T06:54:42Z</time></trkpt><trkpt lat="31.4686313508841" lon="-4.216718570906197"><ele>813.0</ele><time>2026-04-27T06:54:43Z</time></trkpt><trkpt lat="31.46870916166996" lon="-4.2168119482608475"><ele>813.0</ele><time>2026-04-27T06:54:44Z</time></trkpt><trkpt lat="31.468786088518065" lon="-4.216899620138404"><ele>812.8</ele><time>2026-04-27T06:54:45Z</time></trkpt><trkpt lat="31.4688619540375" lon="-4.216986242116259"><ele>812.5999999999999</ele><time>2026-04-27T06:54:46Z</time></trkpt><trkpt lat="31.46893809375297" lon="-4.217071625804479"><ele>812.4000000000001</ele><time>2026-04-27T06:54:47Z</time></trkpt><trkpt lat="31.46901253858858" lon="-4.217156831295815"><ele>812.2</ele><time>2026-04-27T06:54:48Z</time></trkpt><trkpt lat="31.469088271840356" lon="-4.217238383225998"><ele>812.0</ele><time>2026-04-27T06:54:49Z</time></trkpt><trkpt lat="31.46917027674319" lon="-4.217309059310376"><ele>812.0</ele><time>2026-04-27T06:54:50Z</time></trkpt><trkpt lat="31.46926117339964" lon="-4.217363486108434"><ele>812.0</ele><time>2026-04-27T06:54:51Z</time></trkpt><trkpt lat="31.469359573180938" lon="-4.21739954708271"><ele>812.0</ele><time>2026-04-27T06:54:52Z</time></trkpt><trkpt lat="31.469466355471237" lon="-4.217410946669982"><ele>812.0</ele><time>2026-04-27T06:54:53Z</time></trkpt><trkpt lat="31.46957626593348" lon="-4.217372452791713"><ele>812.0</ele><time>2026-04-27T06:54:54Z</time></trkpt><trkpt lat="31.469702912471355" lon="-4.217362802530866"><ele>812.25</ele><time>2026-04-27T06:54:55Z</time></trkpt><trkpt lat="31.469825022759576" lon="-4.2173321681201426"><ele>812.5</ele><time>2026-04-27T06:54:56Z</time></trkpt><trkpt lat="31.469950426798246" lon="-4.217306772253128"><ele>812.75</ele><time>2026-04-27T06:54:57Z</time></trkpt><trkpt lat="31.470079095568572" lon="-4.21727144104423"><ele>813.0</ele><time>2026-04-27T06:54:58Z</time></trkpt><trkpt lat="31.47020668804706" lon="-4.217232317838723"><ele>813.5</ele><time>2026-04-27T06:54:59Z</time></trkpt><trkpt lat="31.470327370756564" lon="-4.217189526123328"><ele>814.0</ele><time>2026-04-27T06:55:00Z</time></trkpt><trkpt lat="31.47043947564435" lon="-4.2171420058807705"><ele>814.5</ele><time>2026-04-27T06:55:01Z</time></trkpt><trkpt lat="31.470549755510355" lon="-4.217089887054436"><ele>815.0</ele><time>2026-04-27T06:55:02Z</time></trkpt><trkpt lat="31.470666681802168" lon="-4.217030089250236"><ele>815.25</ele><time>2026-04-27T06:55:03Z</time></trkpt><trkpt lat="31.47078998425284" lon="-4.216967146052581"><ele>815.5</ele><time>2026-04-27T06:55:04Z</time></trkpt><trkpt lat="31.470919822214512" lon="-4.216906592139493"><ele>815.75</ele><time>2026-04-27T06:55:05Z</time></trkpt><trkpt lat="31.471055441313617" lon="-4.216854614307148"><ele>816.0</ele><time>2026-04-27T06:55:06Z</time></trkpt><trkpt lat="31.47119533711441" lon="-4.2168114436496404"><ele>815.75</ele><time>2026-04-27T06:55:07Z</time></trkpt><trkpt lat="31.47133683413853" lon="-4.216768671203353"><ele>815.5</ele><time>2026-04-27T06:55:08Z</time></trkpt><trkpt lat="31.4714755345887" lon="-4.216723511137151"><ele>815.25</ele><time>2026-04-27T06:55:09Z</time></trkpt><trkpt lat="31.471609068793803" lon="-4.216684562463176"><ele>815.0</ele><time>2026-04-27T06:55:10Z</time></trkpt><trkpt lat="31.47174144213162" lon="-4.21664652644666"><ele>815.0</ele><time>2026-04-27T06:55:11Z</time></trkpt><trkpt lat="31.47187641782893" lon="-4.216608768491407"><ele>815.0</ele><time>2026-04-27T06:55:12Z</time></trkpt><trkpt lat="31.472012940568128" lon="-4.216570678012952"><ele>815.0</ele><time>2026-04-27T06:55:13Z</time></trkpt><trkpt lat="31.472156139820125" lon="-4.216530619330393"><ele>815.0</ele><time>2026-04-27T06:55:14Z</time></trkpt><trkpt lat="31.47230125465694" lon="-4.2164913735261225"><ele>815.3333333333334</ele><time>2026-04-27T06:55:15Z</time></trkpt><trkpt lat="31.472447335886905" lon="-4.216456348451915"><ele>815.6666666666667</ele><time>2026-04-27T06:55:16Z</time></trkpt><trkpt lat="31.472595036023836" lon="-4.2164245685638795"><ele>816.0</ele><time>2026-04-27T06:55:17Z</time></trkpt><trkpt lat="31.47274633573613" lon="-4.216397686174391"><ele>816.0</ele><time>2026-04-27T06:55:18Z</time></trkpt><trkpt lat="31.47290031153928" lon="-4.216373874267471"><ele>816.0</ele><time>2026-04-27T06:55:19Z</time></trkpt><trkpt lat="31.4730623503877" lon="-4.216358696065009"><ele>816.0</ele><time>2026-04-27T06:55:20Z</time></trkpt><trkpt lat="31.473229508172203" lon="-4.216355015945495"><ele>816.0</ele><time>2026-04-27T06:55:21Z</time></trkpt><trkpt lat="31.4734074438618" lon="-4.216360080755491"><ele>816.0</ele><time>2026-04-27T06:55:22Z</time></trkpt><trkpt lat="31.4735832866533" lon="-4.2163745287803716"><ele>816.0</ele><time>2026-04-27T06:55:23Z</time></trkpt><trkpt lat="31.473764582523724" lon="-4.216396051261044"><ele>816.0</ele><time>2026-04-27T06:55:24Z</time></trkpt><trkpt lat="31.473951702011128" lon="-4.216416457873902"><ele>816.0</ele><time>2026-04-27T06:55:25Z</time></trkpt><trkpt lat="31.474139233937997" lon="-4.216437608323641"><ele>816.0</ele><time>2026-04-27T06:55:26Z</time></trkpt><trkpt lat="31.474325027505888" lon="-4.216456976183216"><ele>816.0</ele><time>2026-04-27T06:55:27Z</time></trkpt><trkpt lat="31.47451190893858" lon="-4.216476673535277"><ele>816.0</ele><time>2026-04-27T06:55:28Z</time></trkpt><trkpt lat="31.474698156535652" lon="-4.216496280024366"><ele>816.0</ele><time>2026-04-27T06:55:29Z</time></trkpt><trkpt lat="31.474887792762935" lon="-4.216515320448172"><ele>815.6666666666667</ele><time>2026-04-27T06:55:30Z</time></trkpt><trkpt lat="31.475080389965257" lon="-4.216532043703324"><ele>815.3333333333334</ele><time>2026-04-27T06:55:31Z</time></trkpt><trkpt lat="31.475274657635616" lon="-4.216546212227635"><ele>815.0</ele><time>2026-04-27T06:55:32Z</time></trkpt><trkpt lat="31.47547627008408" lon="-4.216557135651494"><ele>815.0</ele><time>2026-04-27T06:55:33Z</time></trkpt><trkpt lat="31.475684284636905" lon="-4.216565357180021"><ele>815.0</ele><time>2026-04-27T06:55:34Z</time></trkpt><trkpt lat="31.475896629343673" lon="-4.216573173319282"><ele>815.0</ele><time>2026-04-27T06:55:35Z</time></trkpt><trkpt lat="31.47610844680212" lon="-4.216582310846943"><ele>815.3333333333334</ele><time>2026-04-27T06:55:36Z</time></trkpt><trkpt lat="31.476316199858875" lon="-4.2165914124491195"><ele>815.6666666666667</ele><time>2026-04-27T06:55:37Z</time></trkpt><trkpt lat="31.47652155176116" lon="-4.216599999404946"><ele>816.0</ele><time>2026-04-27T06:55:38Z</time></trkpt><trkpt lat="31.476721937537604" lon="-4.216607039833925"><ele>816.0</ele><time>2026-04-27T06:55:39Z</time></trkpt><trkpt lat="31.47691519724176" lon="-4.21661340228649"><ele>816.0</ele><time>2026-04-27T06:55:40Z</time></trkpt><trkpt lat="31.47710065861676" lon="-4.216617392954444"><ele>816.0</ele><time>2026-04-27T06:55:41Z</time></trkpt><trkpt lat="31.47728176444988" lon="-4.216621378125683"><ele>816.3333333333333</ele><time>2026-04-27T06:55:42Z</time></trkpt><trkpt lat="31.477457036423246" lon="-4.21662456982706"><ele>816.6666666666666</ele><time>2026-04-27T06:55:43Z</time></trkpt><trkpt lat="31.477629500205563" lon="-4.216628930157249"><ele>817.0</ele><time>2026-04-27T06:55:44Z</time></trkpt><trkpt lat="31.47780676144019" lon="-4.216634884905035"><ele>816.6666666666666</ele><time>2026-04-27T06:55:45Z</time></trkpt><trkpt lat="31.477988157898693" lon="-4.2166428223766"><ele>816.3333333333333</ele><time>2026-04-27T06:55:46Z</time></trkpt><trkpt lat="31.478168692680672" lon="-4.216650720712273"><ele>816.0</ele><time>2026-04-27T06:55:47Z</time></trkpt><trkpt lat="31.478336879806218" lon="-4.216656258623598"><ele>816.0</ele><time>2026-04-27T06:55:48Z</time></trkpt><trkpt lat="31.47848508295846" lon="-4.21665856712053"><ele>816.0</ele><time>2026-04-27T06:55:48.999Z</time></trkpt><trkpt lat="31.47862643480645" lon="-4.216660245042578"><ele>816.0</ele><time>2026-04-27T06:55:49.999Z</time></trkpt><trkpt lat="31.478771889733782" lon="-4.21666257025996"><ele>816.0</ele><time>2026-04-27T06:55:50.999Z</time></trkpt><trkpt lat="31.47891552314874" lon="-4.216667822620367"><ele>815.3333333333333</ele><time>2026-04-27T06:55:51.999Z</time></trkpt><trkpt lat="31.47906669241778" lon="-4.216673808990696"><ele>814.6666666666666</ele><time>2026-04-27T06:55:52.999Z</time></trkpt><trkpt lat="31.4792197691399" lon="-4.2166776101691905"><ele>814.0</ele><time>2026-04-27T06:55:53.999Z</time></trkpt><trkpt lat="31.47937541721325" lon="-4.21668005519112"><ele>814.0</ele><time>2026-04-27T06:55:54.999Z</time></trkpt><trkpt lat="31.479531760765962" lon="-4.216683883711147"><ele>814.0</ele><time>2026-04-27T06:55:55.999Z</time></trkpt><trkpt lat="31.47968055095544" lon="-4.21669108186225"><ele>814.0</ele><time>2026-04-27T06:55:56.999Z</time></trkpt><trkpt lat="31.479822644372234" lon="-4.2166973890345565"><ele>814.0</ele><time>2026-04-27T06:55:57.999Z</time></trkpt><trkpt lat="31.47996832552525" lon="-4.216703728178838"><ele>814.0</ele><time>2026-04-27T06:55:58.999Z</time></trkpt><trkpt lat="31.480118009669063" lon="-4.216711733636498"><ele>814.0</ele><time>2026-04-27T06:55:59.999Z</time></trkpt><trkpt lat="31.480272163008824" lon="-4.216719318417199"><ele>814.0</ele><time>2026-04-27T06:56:00.999Z</time></trkpt><trkpt lat="31.480433767421786" lon="-4.216726342497223"><ele>814.3333333333333</ele><time>2026-04-27T06:56:01.999Z</time></trkpt><trkpt lat="31.480606897422312" lon="-4.216731763846138"><ele>814.6666666666667</ele><time>2026-04-27T06:56:02.999Z</time></trkpt><trkpt lat="31.480789591911954" lon="-4.21673876879646"><ele>815.0</ele><time>2026-04-27T06:56:03.999Z</time></trkpt><trkpt lat="31.480985248403645" lon="-4.216746058667183"><ele>815.0</ele><time>2026-04-27T06:56:04.999Z</time></trkpt><trkpt lat="31.48118848872333" lon="-4.216754845465906"><ele>815.0</ele><time>2026-04-27T06:56:05.999Z</time></trkpt><trkpt lat="31.4813945715717" lon="-4.216764029595626"><ele>815.0</ele><time>2026-04-27T06:56:06.999Z</time></trkpt><trkpt lat="31.481601484591884" lon="-4.21677187115834"><ele>815.0</ele><time>2026-04-27T06:56:07.999Z</time></trkpt><trkpt lat="31.481807444622813" lon="-4.216779542481665"><ele>815.0</ele><time>2026-04-27T06:56:08.999Z</time></trkpt><trkpt lat="31.48201753457948" lon="-4.216785711270446"><ele>815.0</ele><time>2026-04-27T06:56:09.999Z</time></trkpt><trkpt lat="31.482229437638495" lon="-4.2167920849109075"><ele>815.0</ele><time>2026-04-27T06:56:10.999Z</time></trkpt><trkpt lat="31.48244015485968" lon="-4.216796245151919"><ele>815.0</ele><time>2026-04-27T06:56:11.999Z</time></trkpt><trkpt lat="31.482649815289193" lon="-4.21679246114121"><ele>815.0</ele><time>2026-04-27T06:56:12.999Z</time></trkpt><trkpt lat="31.482856865959665" lon="-4.216762095153591"><ele>815.0</ele><time>2026-04-27T06:56:13.999Z</time></trkpt><trkpt lat="31.483062077423128" lon="-4.216715891314118"><ele>815.0</ele><time>2026-04-27T06:56:14.999Z</time></trkpt><trkpt lat="31.4832599444736" lon="-4.216650243639219"><ele>815.0</ele><time>2026-04-27T06:56:16.001Z</time></trkpt><trkpt lat="31.483454363606533" lon="-4.216573334795029"><ele>815.0</ele><time>2026-04-27T06:56:17.001Z</time></trkpt><trkpt lat="31.483644401447933" lon="-4.216482547538707"><ele>815.0</ele><time>2026-04-27T06:56:18.001Z</time></trkpt><trkpt lat="31.48382967350211" lon="-4.2163691992071275"><ele>815.0</ele><time>2026-04-27T06:56:19.001Z</time></trkpt><trkpt lat="31.484010616496835" lon="-4.216231477231937"><ele>814.0</ele><time>2026-04-27T06:56:20.001Z</time></trkpt><trkpt lat="31.484191234492762" lon="-4.216071393826765"><ele>813.0</ele><time>2026-04-27T06:56:21.001Z</time></trkpt><trkpt lat="31.484371688240618" lon="-4.215893947730008"><ele>813.0</ele><time>2026-04-27T06:56:22.001Z</time></trkpt><trkpt lat="31.48454608052012" lon="-4.215706098938261"><ele>813.0</ele><time>2026-04-27T06:56:23.001Z</time></trkpt><trkpt lat="31.48471533183355" lon="-4.215514270785434"><ele>814.5</ele><time>2026-04-27T06:56:24.001Z</time></trkpt><trkpt lat="31.484881149184783" lon="-4.215322223094956"><ele>816.0</ele><time>2026-04-27T06:56:25.001Z</time></trkpt><trkpt lat="31.485048993111768" lon="-4.215128613132602"><ele>816.0</ele><time>2026-04-27T06:56:26.001Z</time></trkpt><trkpt lat="31.485219132105435" lon="-4.214933793826645"><ele>816.0</ele><time>2026-04-27T06:56:27.001Z</time></trkpt><trkpt lat="31.485388184881657" lon="-4.2147397173133765"><ele>815.5</ele><time>2026-04-27T06:56:28.001Z</time></trkpt><trkpt lat="31.48555277880583" lon="-4.2145502277670825"><ele>815.0</ele><time>2026-04-27T06:56:29.001Z</time></trkpt><trkpt lat="31.485695404712196" lon="-4.214354832596975"><ele>815.0</ele><time>2026-04-27T06:56:30.001Z</time></trkpt><trkpt lat="31.48584424435471" lon="-4.214177966308889"><ele>815.0</ele><time>2026-04-27T06:56:31.001Z</time></trkpt><trkpt lat="31.485992486711048" lon="-4.214001950964541"><ele>815.0</ele><time>2026-04-27T06:56:32.001Z</time></trkpt><trkpt lat="31.486142420478878" lon="-4.21383225085302"><ele>814.6666666666667</ele><time>2026-04-27T06:56:33.001Z</time></trkpt><trkpt lat="31.486293750746796" lon="-4.21366432901844"><ele>814.3333333333333</ele><time>2026-04-27T06:56:34.001Z</time></trkpt><trkpt lat="31.48644725788976" lon="-4.213492041551165"><ele>814.0</ele><time>2026-04-27T06:56:35Z</time></trkpt><trkpt lat="31.486604902197715" lon="-4.2133126460959405"><ele>813.6666666666666</ele><time>2026-04-27T06:56:36Z</time></trkpt><trkpt lat="31.48676536277052" lon="-4.213130529883062"><ele>813.3333333333333</ele><time>2026-04-27T06:56:37Z</time></trkpt><trkpt lat="31.486926693581825" lon="-4.212946835204703"><ele>813.0</ele><time>2026-04-27T06:56:38Z</time></trkpt><trkpt lat="31.487089929577067" lon="-4.2127611105778"><ele>814.0</ele><time>2026-04-27T06:56:39Z</time></trkpt><trkpt lat="31.487256614777845" lon="-4.212571461561243"><ele>815.0</ele><time>2026-04-27T06:56:40Z</time></trkpt><trkpt lat="31.487429872290146" lon="-4.212374334757773"><ele>814.5</ele><time>2026-04-27T06:56:41Z</time></trkpt><trkpt lat="31.487608134494852" lon="-4.212171325893355"><ele>814.0</ele><time>2026-04-27T06:56:42Z</time></trkpt><trkpt lat="31.487789745228433" lon="-4.2119650054637"><ele>816.5</ele><time>2026-04-27T06:56:43Z</time></trkpt><trkpt lat="31.487973714203008" lon="-4.211756005895248"><ele>819.0</ele><time>2026-04-27T06:56:44Z</time></trkpt><trkpt lat="31.488161594472736" lon="-4.211542181029422"><ele>819.5</ele><time>2026-04-27T06:56:45Z</time></trkpt><trkpt lat="31.48835231320614" lon="-4.211324733887437"><ele>820.0</ele><time>2026-04-27T06:56:46Z</time></trkpt><trkpt lat="31.488545384507344" lon="-4.211105764804714"><ele>820.0</ele><time>2026-04-27T06:56:47Z</time></trkpt><trkpt lat="31.488740971382523" lon="-4.210884175145062"><ele>820.0</ele><time>2026-04-27T06:56:48Z</time></trkpt><trkpt lat="31.488935769516882" lon="-4.21066395407331"><ele>818.5</ele><time>2026-04-27T06:56:49Z</time></trkpt><trkpt lat="31.489131520926804" lon="-4.210442655301141"><ele>817.0</ele><time>2026-04-27T06:56:50Z</time></trkpt><trkpt lat="31.48933008980703" lon="-4.210218171350843"><ele>817.0</ele><time>2026-04-27T06:56:51Z</time></trkpt><trkpt lat="31.489528962432896" lon="-4.209992967580733"><ele>817.0</ele><time>2026-04-27T06:56:52Z</time></trkpt><trkpt lat="31.489729000039556" lon="-4.209766828978267"><ele>817.5</ele><time>2026-04-27T06:56:53Z</time></trkpt><trkpt lat="31.489944614916347" lon="-4.2095580344726145"><ele>818.0</ele><time>2026-04-27T06:56:54Z</time></trkpt><trkpt lat="31.49014449419578" lon="-4.20932997866157"><ele>818.0</ele><time>2026-04-27T06:56:55Z</time></trkpt><trkpt lat="31.490343875307403" lon="-4.209102136079686"><ele>818.0</ele><time>2026-04-27T06:56:56Z</time></trkpt><trkpt lat="31.490541014532855" lon="-4.208876541853386"><ele>818.5</ele><time>2026-04-27T06:56:57Z</time></trkpt><trkpt lat="31.490617639502286" lon="-4.208531256645225"><ele>819.0</ele><time>2026-04-27T06:56:58Z</time></trkpt><trkpt lat="31.490802175248184" lon="-4.208287532547342"><ele>819.0</ele><time>2026-04-27T06:56:59Z</time></trkpt><trkpt lat="31.49113965741538" lon="-4.208194262803636"><ele>819.0</ele><time>2026-04-27T06:57:00Z</time></trkpt><trkpt lat="31.491339201922006" lon="-4.2079667980591635"><ele>818.0</ele><time>2026-04-27T06:57:01Z</time></trkpt><trkpt lat="31.491537978097952" lon="-4.207738923950989"><ele>817.0</ele><time>2026-04-27T06:57:02Z</time></trkpt><trkpt lat="31.49173670277009" lon="-4.207510228041973"><ele>817.5</ele><time>2026-04-27T06:57:03Z</time></trkpt><trkpt lat="31.491937389620176" lon="-4.207281450152192"><ele>818.0</ele><time>2026-04-27T06:57:04Z</time></trkpt><trkpt lat="31.49213610350043" lon="-4.207057067481132"><ele>818.0</ele><time>2026-04-27T06:57:05Z</time></trkpt><trkpt lat="31.492334050922977" lon="-4.206830033395489"><ele>818.0</ele><time>2026-04-27T06:57:06Z</time></trkpt><trkpt lat="31.492530061790255" lon="-4.206606134717564"><ele>819.0</ele><time>2026-04-27T06:57:07Z</time></trkpt><trkpt lat="31.492725134877304" lon="-4.2063830875776365"><ele>820.0</ele><time>2026-04-27T06:57:08Z</time></trkpt><trkpt lat="31.492919673008842" lon="-4.206163740094432"><ele>820.0</ele><time>2026-04-27T06:57:09Z</time></trkpt><trkpt lat="31.493114026765053" lon="-4.2059458218304195"><ele>820.0</ele><time>2026-04-27T06:57:10Z</time></trkpt><trkpt lat="31.493303670925396" lon="-4.205729680060506"><ele>820.5</ele><time>2026-04-27T06:57:11Z</time></trkpt><trkpt lat="31.49348857521722" lon="-4.205516515868694"><ele>821.0</ele><time>2026-04-27T06:57:12Z</time></trkpt><trkpt lat="31.493673043736564" lon="-4.205308069664025"><ele>820.5</ele><time>2026-04-27T06:57:13Z</time></trkpt><trkpt lat="31.493854753774453" lon="-4.2051041622634076"><ele>820.0</ele><time>2026-04-27T06:57:14Z</time></trkpt><trkpt lat="31.49403256060972" lon="-4.204902998847858"><ele>820.5</ele><time>2026-04-27T06:57:15Z</time></trkpt><trkpt lat="31.49420917279345" lon="-4.204704491023544"><ele>821.0</ele><time>2026-04-27T06:57:16Z</time></trkpt><trkpt lat="31.494388781402947" lon="-4.204506648465748"><ele>821.0</ele><time>2026-04-27T06:57:17Z</time></trkpt><trkpt lat="31.494578475503204" lon="-4.204310658907141"><ele>821.0</ele><time>2026-04-27T06:57:18Z</time></trkpt><trkpt lat="31.494780750439315" lon="-4.2041227983399985"><ele>822.0</ele><time>2026-04-27T06:57:19Z</time></trkpt><trkpt lat="31.494995304705654" lon="-4.203948380879551"><ele>823.0</ele><time>2026-04-27T06:57:20Z</time></trkpt><trkpt lat="31.495223569485795" lon="-4.203785583206406"><ele>822.5</ele><time>2026-04-27T06:57:21Z</time></trkpt><trkpt lat="31.49546159604701" lon="-4.203637080986302"><ele>822.0</ele><time>2026-04-27T06:57:22Z</time></trkpt><trkpt lat="31.495709165634686" lon="-4.203508524019449"><ele>822.0</ele><time>2026-04-27T06:57:23Z</time></trkpt><trkpt lat="31.495959241477546" lon="-4.203389399951316"><ele>822.0</ele><time>2026-04-27T06:57:24Z</time></trkpt><trkpt lat="31.496204802096205" lon="-4.2032662761834"><ele>822.5</ele><time>2026-04-27T06:57:25Z</time></trkpt><trkpt lat="31.49644720292445" lon="-4.203141334166724"><ele>823.0</ele><time>2026-04-27T06:57:26Z</time></trkpt><trkpt lat="31.496689368448482" lon="-4.203019833556207"><ele>823.0</ele><time>2026-04-27T06:57:27Z</time></trkpt><trkpt lat="31.496931576435763" lon="-4.20289867426451"><ele>823.0</ele><time>2026-04-27T06:57:28Z</time></trkpt><trkpt lat="31.497173552552447" lon="-4.202774506446851"><ele>822.0</ele><time>2026-04-27T06:57:29Z</time></trkpt><trkpt lat="31.497415895190276" lon="-4.202646888091886"><ele>821.0</ele><time>2026-04-27T06:57:30Z</time></trkpt><trkpt lat="31.497660025408443" lon="-4.202518054148144"><ele>821.0</ele><time>2026-04-27T06:57:31Z</time></trkpt><trkpt lat="31.497905992241236" lon="-4.202391601009371"><ele>821.0</ele><time>2026-04-27T06:57:32Z</time></trkpt><trkpt lat="31.49814859625945" lon="-4.202268146559434"><ele>821.5</ele><time>2026-04-27T06:57:33Z</time></trkpt><trkpt lat="31.49838688281233" lon="-4.202149735671552"><ele>822.0</ele><time>2026-04-27T06:57:34Z</time></trkpt><trkpt lat="31.498630771528813" lon="-4.2020352736032756"><ele>822.0</ele><time>2026-04-27T06:57:35Z</time></trkpt><trkpt lat="31.498881289498033" lon="-4.201931784693179"><ele>822.0</ele><time>2026-04-27T06:57:36Z</time></trkpt><trkpt lat="31.499139895990698" lon="-4.201843849344493"><ele>822.0</ele><time>2026-04-27T06:57:37Z</time></trkpt><trkpt lat="31.499408731477565" lon="-4.20177707216336"><ele>822.0</ele><time>2026-04-27T06:57:38Z</time></trkpt><trkpt lat="31.49968088250556" lon="-4.201735690154766"><ele>822.0</ele><time>2026-04-27T06:57:39Z</time></trkpt><trkpt lat="31.4999543490647" lon="-4.20171568076814"><ele>822.0</ele><time>2026-04-27T06:57:40Z</time></trkpt><trkpt lat="31.500233910784832" lon="-4.201721572971575"><ele>822.5</ele><time>2026-04-27T06:57:41Z</time></trkpt><trkpt lat="31.500519677555204" lon="-4.20175014176573"><ele>823.0</ele><time>2026-04-27T06:57:42Z</time></trkpt><trkpt lat="31.500806298985538" lon="-4.201788251792808"><ele>823.0</ele><time>2026-04-27T06:57:43Z</time></trkpt><trkpt lat="31.50109468132581" lon="-4.201825194863436"><ele>823.0</ele><time>2026-04-27T06:57:44Z</time></trkpt><trkpt lat="31.501380383025776" lon="-4.20186064168256"><ele>823.0</ele><time>2026-04-27T06:57:45Z</time></trkpt><trkpt lat="31.501666504228584" lon="-4.20189818899752"><ele>823.0</ele><time>2026-04-27T06:57:46Z</time></trkpt><trkpt lat="31.501950783322616" lon="-4.201936052251761"><ele>821.5</ele><time>2026-04-27T06:57:47Z</time></trkpt><trkpt lat="31.502234536384197" lon="-4.201973333433243"><ele>820.0</ele><time>2026-04-27T06:57:48Z</time></trkpt><trkpt lat="31.502516657003103" lon="-4.202008418542436"><ele>820.0</ele><time>2026-04-27T06:57:49Z</time></trkpt><trkpt lat="31.502797904568094" lon="-4.202041598945112"><ele>820.0</ele><time>2026-04-27T06:57:50Z</time></trkpt><trkpt lat="31.50307374400006" lon="-4.202075808173775"><ele>820.5</ele><time>2026-04-27T06:57:51Z</time></trkpt><trkpt lat="31.503344601860565" lon="-4.20210969862323"><ele>821.0</ele><time>2026-04-27T06:57:52Z</time></trkpt><trkpt lat="31.503610972659587" lon="-4.20214366152614"><ele>821.5</ele><time>2026-04-27T06:57:53Z</time></trkpt><trkpt lat="31.503876348666985" lon="-4.202177119518514"><ele>822.0</ele><time>2026-04-27T06:57:54Z</time></trkpt><trkpt lat="31.504142633658834" lon="-4.202210935621308"><ele>822.0</ele><time>2026-04-27T06:57:55Z</time></trkpt><trkpt lat="31.504407928485623" lon="-4.202244823989642"><ele>822.0</ele><time>2026-04-27T06:57:56Z</time></trkpt><trkpt lat="31.504668800099946" lon="-4.2022792950893315"><ele>822.5</ele><time>2026-04-27T06:57:57Z</time></trkpt><trkpt lat="31.504926949741865" lon="-4.202313875625287"><ele>823.0</ele><time>2026-04-27T06:57:58Z</time></trkpt><trkpt lat="31.50518217507558" lon="-4.202345799571993"><ele>823.0</ele><time>2026-04-27T06:57:59Z</time></trkpt><trkpt lat="31.505437342318167" lon="-4.202368298673183"><ele>823.0</ele><time>2026-04-27T06:58:00Z</time></trkpt><trkpt lat="31.505696385876742" lon="-4.202371998589777"><ele>823.0</ele><time>2026-04-27T06:58:01Z</time></trkpt><trkpt lat="31.505958153424064" lon="-4.202355571895344"><ele>823.0</ele><time>2026-04-27T06:58:01.999Z</time></trkpt><trkpt lat="31.50621626737734" lon="-4.202316934309579"><ele>823.0</ele><time>2026-04-27T06:58:02.999Z</time></trkpt><trkpt lat="31.506471967224726" lon="-4.20225912689544"><ele>823.0</ele><time>2026-04-27T06:58:03.999Z</time></trkpt><trkpt lat="31.506725942019802" lon="-4.202175749536505"><ele>823.0</ele><time>2026-04-27T06:58:04.999Z</time></trkpt><trkpt lat="31.506977176006405" lon="-4.202067548838849"><ele>823.0</ele><time>2026-04-27T06:58:05.999Z</time></trkpt><trkpt lat="31.507222399649706" lon="-4.201933578749517"><ele>824.5</ele><time>2026-04-27T06:58:06.999Z</time></trkpt><trkpt lat="31.507449783335964" lon="-4.201759761335874"><ele>826.0</ele><time>2026-04-27T06:58:07.999Z</time></trkpt><trkpt lat="31.50767792206046" lon="-4.201586492374362"><ele>826.0</ele><time>2026-04-27T06:58:08.999Z</time></trkpt><trkpt lat="31.5079083853051" lon="-4.201417859421133"><ele>826.0</ele><time>2026-04-27T06:58:09.999Z</time></trkpt><trkpt lat="31.50812023028178" lon="-4.201220012436139"><ele>826.0</ele><time>2026-04-27T06:58:10.999Z</time></trkpt><trkpt lat="31.508333099406226" lon="-4.201020344182276"><ele>826.0</ele><time>2026-04-27T06:58:11.999Z</time></trkpt><trkpt lat="31.508550458138952" lon="-4.200825881481501"><ele>826.0</ele><time>2026-04-27T06:58:12.999Z</time></trkpt><trkpt lat="31.508766604162957" lon="-4.2006348427062665"><ele>826.0</ele><time>2026-04-27T06:58:13.999Z</time></trkpt><trkpt lat="31.50898002429551" lon="-4.200440939783833"><ele>826.0</ele><time>2026-04-27T06:58:14.999Z</time></trkpt><trkpt lat="31.509193040060882" lon="-4.200244223450875"><ele>826.0</ele><time>2026-04-27T06:58:15.999Z</time></trkpt><trkpt lat="31.509410148958256" lon="-4.200045852378982"><ele>826.0</ele><time>2026-04-27T06:58:16.999Z</time></trkpt><trkpt lat="31.509635694097895" lon="-4.19984447425988"><ele>826.0</ele><time>2026-04-27T06:58:17.999Z</time></trkpt><trkpt lat="31.509855468774116" lon="-4.1996207391655345"><ele>826.0</ele><time>2026-04-27T06:58:18.999Z</time></trkpt><trkpt lat="31.510089140593074" lon="-4.1994086361377185"><ele>826.0</ele><time>2026-04-27T06:58:19.999Z</time></trkpt><trkpt lat="31.510326296807552" lon="-4.1991959648182915"><ele>826.0</ele><time>2026-04-27T06:58:20.999Z</time></trkpt><trkpt lat="31.510574282419608" lon="-4.1989976646661935"><ele>826.0</ele><time>2026-04-27T06:58:22.001Z</time></trkpt><trkpt lat="31.510810775061127" lon="-4.198784102424778"><ele>826.0</ele><time>2026-04-27T06:58:23.001Z</time></trkpt><trkpt lat="31.51104905497762" lon="-4.19857070836735"><ele>826.0</ele><time>2026-04-27T06:58:24.001Z</time></trkpt><trkpt lat="31.51129108832896" lon="-4.198353159469162"><ele>827.0</ele><time>2026-04-27T06:58:25.001Z</time></trkpt><trkpt lat="31.51153345487353" lon="-4.1981328864969125"><ele>828.0</ele><time>2026-04-27T06:58:26.001Z</time></trkpt><trkpt lat="31.511778054579374" lon="-4.197910269457076"><ele>828.0</ele><time>2026-04-27T06:58:27.001Z</time></trkpt><trkpt lat="31.512023888347805" lon="-4.1976860038602775"><ele>828.0</ele><time>2026-04-27T06:58:28.001Z</time></trkpt><trkpt lat="31.51226904986942" lon="-4.197462664762878"><ele>828.5</ele><time>2026-04-27T06:58:29.001Z</time></trkpt><trkpt lat="31.512512385715016" lon="-4.197242188020717"><ele>829.0</ele><time>2026-04-27T06:58:30.001Z</time></trkpt><trkpt lat="31.51275399786947" lon="-4.1970227418446955"><ele>829.0</ele><time>2026-04-27T06:58:31.001Z</time></trkpt><trkpt lat="31.512993049710463" lon="-4.196806109491747"><ele>829.0</ele><time>2026-04-27T06:58:32.001Z</time></trkpt><trkpt lat="31.513228392617773" lon="-4.196594350990191"><ele>829.5</ele><time>2026-04-27T06:58:33.001Z</time></trkpt><trkpt lat="31.513463282889447" lon="-4.196380483530515"><ele>830.0</ele><time>2026-04-27T06:58:34.001Z</time></trkpt><trkpt lat="31.51369860388306" lon="-4.196167167503941"><ele>830.5</ele><time>2026-04-27T06:58:35.001Z</time></trkpt><trkpt lat="31.51393637122818" lon="-4.195951685495228"><ele>831.0</ele><time>2026-04-27T06:58:36.001Z</time></trkpt><trkpt lat="31.514174725818318" lon="-4.195736658310476"><ele>830.5</ele><time>2026-04-27T06:58:37.001Z</time></trkpt><trkpt lat="31.514413571361903" lon="-4.1955214620253445"><ele>830.0</ele><time>2026-04-27T06:58:38.001Z</time></trkpt><trkpt lat="31.51465289479425" lon="-4.195305241364293"><ele>830.0</ele><time>2026-04-27T06:58:39.001Z</time></trkpt><trkpt lat="31.51489005307542" lon="-4.195088837452305"><ele>830.0</ele><time>2026-04-27T06:58:40.001Z</time></trkpt><trkpt lat="31.51512562827413" lon="-4.194873735037867"><ele>831.0</ele><time>2026-04-27T06:58:41.001Z</time></trkpt><trkpt lat="31.515359926804145" lon="-4.194661288940908"><ele>832.0</ele><time>2026-04-27T06:58:42.001Z</time></trkpt><trkpt lat="31.51558914014807" lon="-4.1944533065215515"><ele>832.5</ele><time>2026-04-27T06:58:43.001Z</time></trkpt><trkpt lat="31.515814371205533" lon="-4.1942481958888305"><ele>833.0</ele><time>2026-04-27T06:58:44Z</time></trkpt><trkpt lat="31.516036957774837" lon="-4.19404508189578"><ele>834.0</ele><time>2026-04-27T06:58:45Z</time></trkpt><trkpt lat="31.516258871876687" lon="-4.193843125252801"><ele>835.0</ele><time>2026-04-27T06:58:46Z</time></trkpt><trkpt lat="31.516480449486878" lon="-4.193641387777909"><ele>835.0</ele><time>2026-04-27T06:58:47Z</time></trkpt><trkpt lat="31.51670445156368" lon="-4.193436511359048"><ele>835.0</ele><time>2026-04-27T06:58:48Z</time></trkpt><trkpt lat="31.516933731922414" lon="-4.1932281120742"><ele>835.5</ele><time>2026-04-27T06:58:49Z</time></trkpt><trkpt lat="31.51716938962057" lon="-4.19301562996745"><ele>836.0</ele><time>2026-04-27T06:58:50Z</time></trkpt><trkpt lat="31.517409831680663" lon="-4.192798246791858"><ele>836.0</ele><time>2026-04-27T06:58:51Z</time></trkpt><trkpt lat="31.517651279865955" lon="-4.192578409542033"><ele>836.0</ele><time>2026-04-27T06:58:52Z</time></trkpt><trkpt lat="31.517891886326055" lon="-4.1923589877804215"><ele>836.0</ele><time>2026-04-27T06:58:53Z</time></trkpt><trkpt lat="31.518129369108625" lon="-4.192142168148439"><ele>836.0</ele><time>2026-04-27T06:58:54Z</time></trkpt><trkpt lat="31.518364715929685" lon="-4.191929584017652"><ele>836.0</ele><time>2026-04-27T06:58:55Z</time></trkpt><trkpt lat="31.518597518265103" lon="-4.191720173450696"><ele>836.0</ele><time>2026-04-27T06:58:56Z</time></trkpt><trkpt lat="31.518831545441337" lon="-4.191507609358009"><ele>837.0</ele><time>2026-04-27T06:58:57Z</time></trkpt><trkpt lat="31.519064981219305" lon="-4.191295089652304"><ele>838.0</ele><time>2026-04-27T06:58:58Z</time></trkpt><trkpt lat="31.519293935178602" lon="-4.191086153874983"><ele>838.0</ele><time>2026-04-27T06:58:59Z</time></trkpt><trkpt lat="31.519513699678168" lon="-4.190859376967666"><ele>838.0</ele><time>2026-04-27T06:59:00Z</time></trkpt><trkpt lat="31.519743977371405" lon="-4.19064546800181"><ele>837.5</ele><time>2026-04-27T06:59:01Z</time></trkpt><trkpt lat="31.519983318750445" lon="-4.1904442566341125"><ele>837.0</ele><time>2026-04-27T06:59:02Z</time></trkpt><trkpt lat="31.52023661646971" lon="-4.190256550846493"><ele>837.5</ele><time>2026-04-27T06:59:03Z</time></trkpt><trkpt lat="31.520487430409652" lon="-4.190055207365879"><ele>838.0</ele><time>2026-04-27T06:59:04Z</time></trkpt><trkpt lat="31.520747765950613" lon="-4.189858392668788"><ele>837.5</ele><time>2026-04-27T06:59:05Z</time></trkpt><trkpt lat="31.521017388200853" lon="-4.189672892842901"><ele>837.0</ele><time>2026-04-27T06:59:06Z</time></trkpt><trkpt lat="31.52129151567451" lon="-4.189488522062159"><ele>837.0</ele><time>2026-04-27T06:59:07Z</time></trkpt><trkpt lat="31.52157079062246" lon="-4.18930982468754"><ele>837.0</ele><time>2026-04-27T06:59:08Z</time></trkpt><trkpt lat="31.521851031554725" lon="-4.189131609314052"><ele>836.0</ele><time>2026-04-27T06:59:09Z</time></trkpt><trkpt lat="31.522125605112592" lon="-4.188950448037424"><ele>835.0</ele><time>2026-04-27T06:59:10Z</time></trkpt><trkpt lat="31.522397557351617" lon="-4.188775049342966"><ele>835.0</ele><time>2026-04-27T06:59:11Z</time></trkpt><trkpt lat="31.522666835884564" lon="-4.188604618977009"><ele>835.0</ele><time>2026-04-27T06:59:12Z</time></trkpt><trkpt lat="31.52293413345361" lon="-4.1884361782614965"><ele>834.5</ele><time>2026-04-27T06:59:13Z</time></trkpt><trkpt lat="31.523199985459705" lon="-4.188266249803172"><ele>834.0</ele><time>2026-04-27T06:59:14Z</time></trkpt><trkpt lat="31.52346169938965" lon="-4.18809553339649"><ele>834.0</ele><time>2026-04-27T06:59:15Z</time></trkpt><trkpt lat="31.52371903096068" lon="-4.1879305212437705"><ele>834.0</ele><time>2026-04-27T06:59:16Z</time></trkpt><trkpt lat="31.52397125642972" lon="-4.187764468536016"><ele>833.0</ele><time>2026-04-27T06:59:17Z</time></trkpt><trkpt lat="31.52421890337262" lon="-4.187601716894746"><ele>832.0</ele><time>2026-04-27T06:59:18Z</time></trkpt><trkpt lat="31.524466042372595" lon="-4.187445641748827"><ele>830.5</ele><time>2026-04-27T06:59:19Z</time></trkpt><trkpt lat="31.52470862732594" lon="-4.187289224416899"><ele>829.0</ele><time>2026-04-27T06:59:20Z</time></trkpt><trkpt lat="31.524949639434723" lon="-4.187131992923026"><ele>829.0</ele><time>2026-04-27T06:59:21Z</time></trkpt><trkpt lat="31.52518935195055" lon="-4.186975503768844"><ele>829.0</ele><time>2026-04-27T06:59:22Z</time></trkpt><trkpt lat="31.52542997059101" lon="-4.186820216631754"><ele>829.0</ele><time>2026-04-27T06:59:23Z</time></trkpt><trkpt lat="31.525672469065032" lon="-4.186664537826519"><ele>829.0</ele><time>2026-04-27T06:59:24Z</time></trkpt><trkpt lat="31.525913958115083" lon="-4.186505451269521"><ele>828.0</ele><time>2026-04-27T06:59:25Z</time></trkpt><trkpt lat="31.52615751206854" lon="-4.186347520517013"><ele>827.0</ele><time>2026-04-27T06:59:26Z</time></trkpt><trkpt lat="31.526401292883875" lon="-4.186189571489695"><ele>827.0</ele><time>2026-04-27T06:59:27Z</time></trkpt><trkpt lat="31.526645342132447" lon="-4.186035840058451"><ele>827.0</ele><time>2026-04-27T06:59:28Z</time></trkpt><trkpt lat="31.526884859715786" lon="-4.1858790090453795"><ele>830.0</ele><time>2026-04-27T06:59:29Z</time></trkpt><trkpt lat="31.527124808347967" lon="-4.185722356728519"><ele>833.0</ele><time>2026-04-27T06:59:30Z</time></trkpt><trkpt lat="31.52736937155603" lon="-4.185570546891402"><ele>834.0</ele><time>2026-04-27T06:59:31Z</time></trkpt><trkpt lat="31.527602077562324" lon="-4.1854207795390295"><ele>835.0</ele><time>2026-04-27T06:59:32Z</time></trkpt><trkpt lat="31.527827859906736" lon="-4.1852752323647495"><ele>836.5</ele><time>2026-04-27T06:59:33Z</time></trkpt><trkpt lat="31.528043070349934" lon="-4.185141119230103"><ele>838.0</ele><time>2026-04-27T06:59:34Z</time></trkpt><trkpt lat="31.528251513656844" lon="-4.185026376424726"><ele>838.0</ele><time>2026-04-27T06:59:35Z</time></trkpt><trkpt lat="31.528475624940388" lon="-4.184923209430465"><ele>838.0</ele><time>2026-04-27T06:59:36Z</time></trkpt><trkpt lat="31.52871228022474" lon="-4.184845412473347"><ele>838.0</ele><time>2026-04-27T06:59:37Z</time></trkpt><trkpt lat="31.5289606781925" lon="-4.184794670106922"><ele>838.0</ele><time>2026-04-27T06:59:38Z</time></trkpt><trkpt lat="31.529218271662927" lon="-4.184767912014711"><ele>838.0</ele><time>2026-04-27T06:59:39Z</time></trkpt><trkpt lat="31.529491381123616" lon="-4.184763907321958"><ele>838.0</ele><time>2026-04-27T06:59:40Z</time></trkpt><trkpt lat="31.52977350311424" lon="-4.184781253606324"><ele>838.0</ele><time>2026-04-27T06:59:41Z</time></trkpt><trkpt lat="31.530055453166245" lon="-4.18480422101139"><ele>838.0</ele><time>2026-04-27T06:59:42Z</time></trkpt><trkpt lat="31.5303399054341" lon="-4.184826175627483"><ele>837.5</ele><time>2026-04-27T06:59:43Z</time></trkpt><trkpt lat="31.530624716937083" lon="-4.184849145298443"><ele>837.0</ele><time>2026-04-27T06:59:44Z</time></trkpt><trkpt lat="31.530909917145916" lon="-4.184871100426113"><ele>837.0</ele><time>2026-04-27T06:59:45Z</time></trkpt><trkpt lat="31.53118954892608" lon="-4.184891922199522"><ele>837.0</ele><time>2026-04-27T06:59:46Z</time></trkpt><trkpt lat="31.531468185726073" lon="-4.184913091286427"><ele>837.5</ele><time>2026-04-27T06:59:47Z</time></trkpt><trkpt lat="31.531746321335078" lon="-4.1849345481662645"><ele>838.0</ele><time>2026-04-27T06:59:48Z</time></trkpt><trkpt lat="31.532025693269247" lon="-4.184955030311244"><ele>838.0</ele><time>2026-04-27T06:59:49Z</time></trkpt><trkpt lat="31.532304812543586" lon="-4.18497521772514"><ele>838.0</ele><time>2026-04-27T06:59:50Z</time></trkpt><trkpt lat="31.532582217900647" lon="-4.184996428356695"><ele>838.0</ele><time>2026-04-27T06:59:51Z</time></trkpt><trkpt lat="31.532860764998826" lon="-4.185018119062321"><ele>838.0</ele><time>2026-04-27T06:59:52Z</time></trkpt><trkpt lat="31.53313987751754" lon="-4.18504066279398"><ele>839.0</ele><time>2026-04-27T06:59:53Z</time></trkpt><trkpt lat="31.533420237465336" lon="-4.185062001794546"><ele>840.0</ele><time>2026-04-27T06:59:54Z</time></trkpt><trkpt lat="31.533700168074514" lon="-4.185084337365585"><ele>839.5</ele><time>2026-04-27T06:59:55Z</time></trkpt><trkpt lat="31.533981012710026" lon="-4.185106488031909"><ele>839.0</ele><time>2026-04-27T06:59:56Z</time></trkpt><trkpt lat="31.53426394997506" lon="-4.185128218349612"><ele>839.0</ele><time>2026-04-27T06:59:57Z</time></trkpt><trkpt lat="31.534546688098786" lon="-4.185150056929942"><ele>839.0</ele><time>2026-04-27T06:59:58Z</time></trkpt><trkpt lat="31.534830078757576" lon="-4.185172375156425"><ele>839.0</ele><time>2026-04-27T06:59:59Z</time></trkpt><trkpt lat="31.535114022381062" lon="-4.185194874631903"><ele>839.0</ele><time>2026-04-27T07:00:00Z</time></trkpt><trkpt lat="31.53539926107622" lon="-4.18521664612485"><ele>839.0</ele><time>2026-04-27T07:00:01Z</time></trkpt><trkpt lat="31.535683350686416" lon="-4.185237903365802"><ele>839.0</ele><time>2026-04-27T07:00:02Z</time></trkpt><trkpt lat="31.535968475870785" lon="-4.185259383028081"><ele>839.5</ele><time>2026-04-27T07:00:03Z</time></trkpt><trkpt lat="31.536253733173492" lon="-4.1852813212219475"><ele>840.0</ele><time>2026-04-27T07:00:04Z</time></trkpt><trkpt lat="31.5365392573988" lon="-4.185302420596334"><ele>840.0</ele><time>2026-04-27T07:00:05Z</time></trkpt><trkpt lat="31.53682478024993" lon="-4.185322626204208"><ele>840.0</ele><time>2026-04-27T07:00:05.999Z</time></trkpt><trkpt lat="31.537109533247023" lon="-4.18534398509937"><ele>840.0</ele><time>2026-04-27T07:00:06.999Z</time></trkpt><trkpt lat="31.537393996602358" lon="-4.185376157919348"><ele>840.0</ele><time>2026-04-27T07:00:07.999Z</time></trkpt><trkpt lat="31.537674872512518" lon="-4.185427687998828"><ele>840.5</ele><time>2026-04-27T07:00:08.999Z</time></trkpt><trkpt lat="31.53795032306022" lon="-4.185503035494974"><ele>841.0</ele><time>2026-04-27T07:00:09.999Z</time></trkpt><trkpt lat="31.538223115261392" lon="-4.185591313949905"><ele>840.5</ele><time>2026-04-27T07:00:10.999Z</time></trkpt><trkpt lat="31.53849461760457" lon="-4.185691557668915"><ele>840.0</ele><time>2026-04-27T07:00:11.999Z</time></trkpt><trkpt lat="31.5387651783355" lon="-4.18579276089642"><ele>840.0</ele><time>2026-04-27T07:00:12.999Z</time></trkpt><trkpt lat="31.539028936675788" lon="-4.1858848971330485"><ele>840.0</ele><time>2026-04-27T07:00:13.999Z</time></trkpt><trkpt lat="31.539272382367454" lon="-4.185966505858891"><ele>840.0</ele><time>2026-04-27T07:00:14.999Z</time></trkpt><trkpt lat="31.539494875482923" lon="-4.1860401116417725"><ele>840.0</ele><time>2026-04-27T07:00:15.999Z</time></trkpt><trkpt lat="31.539710573644737" lon="-4.186101659093279"><ele>840.5</ele><time>2026-04-27T07:00:16.999Z</time></trkpt><trkpt lat="31.539936871919064" lon="-4.186141686820881"><ele>841.0</ele><time>2026-04-27T07:00:17.999Z</time></trkpt><trkpt lat="31.54017868782621" lon="-4.186149757356117"><ele>841.0</ele><time>2026-04-27T07:00:18.999Z</time></trkpt><trkpt lat="31.540430963385642" lon="-4.186121414032186"><ele>841.0</ele><time>2026-04-27T07:00:19.999Z</time></trkpt><trkpt lat="31.540688179829022" lon="-4.186061110101882"><ele>841.0</ele><time>2026-04-27T07:00:20.999Z</time></trkpt><trkpt lat="31.54094958731174" lon="-4.18598626718982"><ele>841.0</ele><time>2026-04-27T07:00:21.999Z</time></trkpt><trkpt lat="31.541222199165876" lon="-4.185918413406135"><ele>840.5</ele><time>2026-04-27T07:00:22.999Z</time></trkpt><trkpt lat="31.54149997380548" lon="-4.185851078323783"><ele>840.0</ele><time>2026-04-27T07:00:23.999Z</time></trkpt><trkpt lat="31.541779603606123" lon="-4.18578180660973"><ele>840.5</ele><time>2026-04-27T07:00:24.999Z</time></trkpt><trkpt lat="31.542060148025495" lon="-4.185712462387344"><ele>841.0</ele><time>2026-04-27T07:00:25.999Z</time></trkpt><trkpt lat="31.54234176692253" lon="-4.185643402624493"><ele>841.0</ele><time>2026-04-27T07:00:26.999Z</time></trkpt><trkpt lat="31.54262270825946" lon="-4.185576125418575"><ele>841.0</ele><time>2026-04-27T07:00:28.001Z</time></trkpt><trkpt lat="31.542903761967548" lon="-4.185507778193882"><ele>841.0</ele><time>2026-04-27T07:00:29.001Z</time></trkpt><trkpt lat="31.543181521836214" lon="-4.185439398282193"><ele>841.0</ele><time>2026-04-27T07:00:30.001Z</time></trkpt><trkpt lat="31.543459404370708" lon="-4.185370825326173"><ele>841.5</ele><time>2026-04-27T07:00:31.001Z</time></trkpt><trkpt lat="31.54373274948936" lon="-4.185304544992611"><ele>842.0</ele><time>2026-04-27T07:00:32.001Z</time></trkpt><trkpt lat="31.544004944659655" lon="-4.1852381687638704"><ele>842.0</ele><time>2026-04-27T07:00:33.001Z</time></trkpt><trkpt lat="31.544279207564717" lon="-4.185173595911089"><ele>842.0</ele><time>2026-04-27T07:00:34.001Z</time></trkpt><trkpt lat="31.544559593911917" lon="-4.185114587779902"><ele>841.5</ele><time>2026-04-27T07:00:35.001Z</time></trkpt><trkpt lat="31.544845867880234" lon="-4.185060381481064"><ele>841.0</ele><time>2026-04-27T07:00:36.001Z</time></trkpt><trkpt lat="31.545137973312713" lon="-4.18501272167776"><ele>842.0</ele><time>2026-04-27T07:00:37.001Z</time></trkpt><trkpt lat="31.54543524759062" lon="-4.184972144741727"><ele>843.0</ele><time>2026-04-27T07:00:38.001Z</time></trkpt><trkpt lat="31.54573538224818" lon="-4.1849354246304795"><ele>843.0</ele><time>2026-04-27T07:00:39.001Z</time></trkpt><trkpt lat="31.546031202504818" lon="-4.18489981666962"><ele>843.0</ele><time>2026-04-27T07:00:40.001Z</time></trkpt><trkpt lat="31.54632125305414" lon="-4.184865627162315"><ele>842.5</ele><time>2026-04-27T07:00:41.001Z</time></trkpt><trkpt lat="31.54660804656325" lon="-4.184831206232573"><ele>842.0</ele><time>2026-04-27T07:00:42.001Z</time></trkpt><trkpt lat="31.54689548272783" lon="-4.184796491917655"><ele>842.5</ele><time>2026-04-27T07:00:43.001Z</time></trkpt><trkpt lat="31.54718147490379" lon="-4.18476229424035"><ele>843.0</ele><time>2026-04-27T07:00:44.001Z</time></trkpt><trkpt lat="31.547464953909657" lon="-4.184730323836847"><ele>843.0</ele><time>2026-04-27T07:00:45.001Z</time></trkpt><trkpt lat="31.54774580161074" lon="-4.184699091189246"><ele>843.0</ele><time>2026-04-27T07:00:46.001Z</time></trkpt><trkpt lat="31.54802491240054" lon="-4.18466985805348"><ele>843.0</ele><time>2026-04-27T07:00:47.001Z</time></trkpt><trkpt lat="31.548298723337275" lon="-4.184643762567093"><ele>843.0</ele><time>2026-04-27T07:00:48Z</time></trkpt><trkpt lat="31.54856722951112" lon="-4.184620678086456"><ele>843.5</ele><time>2026-04-27T07:00:49Z</time></trkpt><trkpt lat="31.548830399685684" lon="-4.184607380137644"><ele>844.0</ele><time>2026-04-27T07:00:50Z</time></trkpt><trkpt lat="31.549086672241955" lon="-4.184605643957822"><ele>844.0</ele><time>2026-04-27T07:00:51Z</time></trkpt><trkpt lat="31.54933660775928" lon="-4.184613495487552"><ele>844.0</ele><time>2026-04-27T07:00:52Z</time></trkpt><trkpt lat="31.54958220304213" lon="-4.184625430369004"><ele>843.0</ele><time>2026-04-27T07:00:53Z</time></trkpt><trkpt lat="31.5498194502976" lon="-4.184634549860987"><ele>842.0</ele><time>2026-04-27T07:00:54Z</time></trkpt><trkpt lat="31.55004979516274" lon="-4.184641908399439"><ele>842.0</ele><time>2026-04-27T07:00:55Z</time></trkpt><trkpt lat="31.55028138168082" lon="-4.184647651699633"><ele>842.0</ele><time>2026-04-27T07:00:56Z</time></trkpt><trkpt lat="31.550515848611717" lon="-4.184645728828058"><ele>842.5</ele><time>2026-04-27T07:00:57Z</time></trkpt><trkpt lat="31.550750085612584" lon="-4.184634984394229"><ele>843.0</ele><time>2026-04-27T07:00:58Z</time></trkpt><trkpt lat="31.550985398117056" lon="-4.184625543404098"><ele>843.0</ele><time>2026-04-27T07:00:59Z</time></trkpt><trkpt lat="31.551218316539334" lon="-4.184617013805768"><ele>843.0</ele><time>2026-04-27T07:01:00Z</time></trkpt><trkpt lat="31.551461631117895" lon="-4.184585134826383"><ele>843.0</ele><time>2026-04-27T07:01:01Z</time></trkpt><trkpt lat="31.551719275697657" lon="-4.18456956226018"><ele>843.0</ele><time>2026-04-27T07:01:02Z</time></trkpt><trkpt lat="31.55199082771867" lon="-4.1845526829219075"><ele>844.0</ele><time>2026-04-27T07:01:03Z</time></trkpt><trkpt lat="31.5522818587952" lon="-4.184534366522247"><ele>845.0</ele><time>2026-04-27T07:01:04Z</time></trkpt><trkpt lat="31.552580207042944" lon="-4.184515589616694"><ele>844.0</ele><time>2026-04-27T07:01:05Z</time></trkpt><trkpt lat="31.55288268400032" lon="-4.184512892870575"><ele>843.0</ele><time>2026-04-27T07:01:06Z</time></trkpt><trkpt lat="31.553187450871242" lon="-4.184487678676017"><ele>843.0</ele><time>2026-04-27T07:01:07Z</time></trkpt><trkpt lat="31.553495090498302" lon="-4.184464060174751"><ele>843.0</ele><time>2026-04-27T07:01:08Z</time></trkpt><trkpt lat="31.55379462121353" lon="-4.184443496813445"><ele>843.5</ele><time>2026-04-27T07:01:09Z</time></trkpt><trkpt lat="31.55409165188085" lon="-4.1844239464897885"><ele>844.0</ele><time>2026-04-27T07:01:10Z</time></trkpt><trkpt lat="31.55439053561733" lon="-4.184405869151306"><ele>844.5</ele><time>2026-04-27T07:01:11Z</time></trkpt><trkpt lat="31.554693562708845" lon="-4.184390325139338"><ele>845.0</ele><time>2026-04-27T07:01:12Z</time></trkpt><trkpt lat="31.554999187240092" lon="-4.184372526772898"><ele>845.0</ele><time>2026-04-27T07:01:13Z</time></trkpt><trkpt lat="31.55530734731474" lon="-4.184352597422128"><ele>845.0</ele><time>2026-04-27T07:01:14Z</time></trkpt><trkpt lat="31.555618120682354" lon="-4.184331112986678"><ele>845.0</ele><time>2026-04-27T07:01:15Z</time></trkpt><trkpt lat="31.555934229674737" lon="-4.184309329387375"><ele>845.0</ele><time>2026-04-27T07:01:16Z</time></trkpt><trkpt lat="31.556251351736563" lon="-4.184288220378882"><ele>845.0</ele><time>2026-04-27T07:01:17Z</time></trkpt><trkpt lat="31.556569691256968" lon="-4.184266810105906"><ele>845.0</ele><time>2026-04-27T07:01:18Z</time></trkpt><trkpt lat="31.55688576842013" lon="-4.184245054813625"><ele>845.0</ele><time>2026-04-27T07:01:19Z</time></trkpt><trkpt lat="31.557195327224477" lon="-4.184224740675001"><ele>845.0</ele><time>2026-04-27T07:01:20Z</time></trkpt><trkpt lat="31.55749577375001" lon="-4.184205174892489"><ele>845.0</ele><time>2026-04-27T07:01:21Z</time></trkpt><trkpt lat="31.557778786914355" lon="-4.184186040865492"><ele>845.0</ele><time>2026-04-27T07:01:22Z</time></trkpt><trkpt lat="31.558047778115913" lon="-4.184169420480122"><ele>845.0</ele><time>2026-04-27T07:01:23Z</time></trkpt><trkpt lat="31.558308745697765" lon="-4.184155060926589"><ele>845.0</ele><time>2026-04-27T07:01:24Z</time></trkpt><trkpt lat="31.558569225004746" lon="-4.184139608684741"><ele>845.0</ele><time>2026-04-27T07:01:25Z</time></trkpt><trkpt lat="31.558827583440284" lon="-4.184125510515861"><ele>845.0</ele><time>2026-04-27T07:01:26Z</time></trkpt><trkpt lat="31.55908214734896" lon="-4.184117518827159"><ele>845.0</ele><time>2026-04-27T07:01:27Z</time></trkpt><trkpt lat="31.559331833553394" lon="-4.184123194439455"><ele>845.0</ele><time>2026-04-27T07:01:28Z</time></trkpt><trkpt lat="31.55958336563258" lon="-4.184143865947749"><ele>845.0</ele><time>2026-04-27T07:01:29Z</time></trkpt><trkpt lat="31.559837126332855" lon="-4.184185948140791"><ele>845.0</ele><time>2026-04-27T07:01:30Z</time></trkpt><trkpt lat="31.56008975690197" lon="-4.184255162820513"><ele>845.0</ele><time>2026-04-27T07:01:31Z</time></trkpt><trkpt lat="31.56034713098031" lon="-4.1843188376535405"><ele>845.0</ele><time>2026-04-27T07:01:32Z</time></trkpt><trkpt lat="31.560606359227474" lon="-4.184386871882069"><ele>846.0</ele><time>2026-04-27T07:01:33Z</time></trkpt><trkpt lat="31.560846726567192" lon="-4.184564177601736"><ele>847.0</ele><time>2026-04-27T07:01:34Z</time></trkpt><trkpt lat="31.561096048526274" lon="-4.18467826315973"><ele>846.5</ele><time>2026-04-27T07:01:35Z</time></trkpt><trkpt lat="31.56134425164673" lon="-4.184786611186232"><ele>846.0</ele><time>2026-04-27T07:01:36Z</time></trkpt><trkpt lat="31.561586984750186" lon="-4.184892350033941"><ele>846.0</ele><time>2026-04-27T07:01:37Z</time></trkpt><trkpt lat="31.56182866513939" lon="-4.184995639826629"><ele>846.0</ele><time>2026-04-27T07:01:38Z</time></trkpt><trkpt lat="31.56207035519782" lon="-4.185102283307899"><ele>846.0</ele><time>2026-04-27T07:01:39Z</time></trkpt><trkpt lat="31.562313411813992" lon="-4.185212064649847"><ele>846.0</ele><time>2026-04-27T07:01:40Z</time></trkpt><trkpt lat="31.562554292734937" lon="-4.185326623536549"><ele>846.0</ele><time>2026-04-27T07:01:41Z</time></trkpt><trkpt lat="31.562790098036047" lon="-4.185447817806025"><ele>846.0</ele><time>2026-04-27T07:01:42Z</time></trkpt><trkpt lat="31.563025719261525" lon="-4.185575195719113"><ele>846.0</ele><time>2026-04-27T07:01:43Z</time></trkpt><trkpt lat="31.563263601306627" lon="-4.185708155520402"><ele>846.0</ele><time>2026-04-27T07:01:44Z</time></trkpt><trkpt lat="31.563502974539638" lon="-4.18584497435739"><ele>845.5</ele><time>2026-04-27T07:01:45Z</time></trkpt><trkpt lat="31.56374684546886" lon="-4.185985202787469"><ele>845.0</ele><time>2026-04-27T07:01:46Z</time></trkpt><trkpt lat="31.563995732774277" lon="-4.186130948195021"><ele>845.0</ele><time>2026-04-27T07:01:47Z</time></trkpt><trkpt lat="31.564245980235775" lon="-4.186277585438412"><ele>845.0</ele><time>2026-04-27T07:01:48Z</time></trkpt><trkpt lat="31.564493670985" lon="-4.18642171843036"><ele>845.5</ele><time>2026-04-27T07:01:49Z</time></trkpt><trkpt lat="31.56473944357366" lon="-4.186560534790438"><ele>846.0</ele><time>2026-04-27T07:01:50Z</time></trkpt><trkpt lat="31.56498711578561" lon="-4.186701526414229"><ele>846.0</ele><time>2026-04-27T07:01:51Z</time></trkpt><trkpt lat="31.565231949928613" lon="-4.18684273084143"><ele>846.0</ele><time>2026-04-27T07:01:52Z</time></trkpt><trkpt lat="31.565475578657864" lon="-4.186981107213206"><ele>847.0</ele><time>2026-04-27T07:01:53Z</time></trkpt><trkpt lat="31.565719585526168" lon="-4.1871192273412055"><ele>848.0</ele><time>2026-04-27T07:01:54Z</time></trkpt><trkpt lat="31.56596399828809" lon="-4.187257955464174"><ele>847.0</ele><time>2026-04-27T07:01:55Z</time></trkpt><trkpt lat="31.566209617108157" lon="-4.187400422781343"><ele>846.0</ele><time>2026-04-27T07:01:56Z</time></trkpt><trkpt lat="31.566459677536447" lon="-4.187546516871953"><ele>846.0</ele><time>2026-04-27T07:01:57Z</time></trkpt><trkpt lat="31.566712533301775" lon="-4.187692437641298"><ele>846.0</ele><time>2026-04-27T07:01:58Z</time></trkpt><trkpt lat="31.56696816068821" lon="-4.187839686036796"><ele>846.5</ele><time>2026-04-27T07:01:59Z</time></trkpt><trkpt lat="31.56722482263873" lon="-4.187988215983962"><ele>847.0</ele><time>2026-04-27T07:02:00Z</time></trkpt><trkpt lat="31.567482438352954" lon="-4.188138788460536"><ele>846.5</ele><time>2026-04-27T07:02:01Z</time></trkpt><trkpt lat="31.567743439234402" lon="-4.1882886798752335"><ele>846.0</ele><time>2026-04-27T07:02:02Z</time></trkpt><trkpt lat="31.568007093519537" lon="-4.188440801077498"><ele>845.0</ele><time>2026-04-27T07:02:03Z</time></trkpt><trkpt lat="31.568273668673765" lon="-4.188596861446946"><ele>844.0</ele><time>2026-04-27T07:02:04Z</time></trkpt><trkpt lat="31.568541457690003" lon="-4.188754128342214"><ele>845.0</ele><time>2026-04-27T07:02:05Z</time></trkpt><trkpt lat="31.568810482651656" lon="-4.18891189944828"><ele>846.0</ele><time>2026-04-27T07:02:06Z</time></trkpt><trkpt lat="31.569081987144553" lon="-4.189069985902788"><ele>846.0</ele><time>2026-04-27T07:02:07Z</time></trkpt><trkpt lat="31.56935607375992" lon="-4.1892303905069594"><ele>846.0</ele><time>2026-04-27T07:02:08Z</time></trkpt><trkpt lat="31.569631867554797" lon="-4.189390448494218"><ele>846.5</ele><time>2026-04-27T07:02:08.999Z</time></trkpt><trkpt lat="31.569900465981355" lon="-4.189548384582847"><ele>847.0</ele><time>2026-04-27T07:02:09.999Z</time></trkpt><trkpt lat="31.570171323884164" lon="-4.189704779614713"><ele>847.5</ele><time>2026-04-27T07:02:10.999Z</time></trkpt><trkpt lat="31.570446577694245" lon="-4.18986292068008"><ele>848.0</ele><time>2026-04-27T07:02:11.999Z</time></trkpt><trkpt lat="31.570722153973826" lon="-4.190021955841911"><ele>848.0</ele><time>2026-04-27T07:02:12.999Z</time></trkpt><trkpt lat="31.570996067137028" lon="-4.190179866082041"><ele>848.0</ele><time>2026-04-27T07:02:13.999Z</time></trkpt><trkpt lat="31.571266727605167" lon="-4.190336139603687"><ele>848.5</ele><time>2026-04-27T07:02:14.999Z</time></trkpt><trkpt lat="31.571534605516316" lon="-4.190491385279894"><ele>849.0</ele><time>2026-04-27T07:02:15.999Z</time></trkpt><trkpt lat="31.57180331806844" lon="-4.190646252736196"><ele>849.0</ele><time>2026-04-27T07:02:16.999Z</time></trkpt><trkpt lat="31.57207416824448" lon="-4.190801918157071"><ele>849.0</ele><time>2026-04-27T07:02:17.999Z</time></trkpt><trkpt lat="31.5723447856838" lon="-4.190959707482141"><ele>849.0</ele><time>2026-04-27T07:02:18.999Z</time></trkpt><trkpt lat="31.572615446036863" lon="-4.191117333426835"><ele>849.0</ele><time>2026-04-27T07:02:19.999Z</time></trkpt><trkpt lat="31.572887505777153" lon="-4.1912740253430725"><ele>849.0</ele><time>2026-04-27T07:02:20.999Z</time></trkpt><trkpt lat="31.573156914051424" lon="-4.1914290604123465"><ele>849.0</ele><time>2026-04-27T07:02:21.999Z</time></trkpt><trkpt lat="31.573424744220215" lon="-4.191584192933791"><ele>850.5</ele><time>2026-04-27T07:02:22.999Z</time></trkpt><trkpt lat="31.573692343343545" lon="-4.191739828744858"><ele>852.0</ele><time>2026-04-27T07:02:23.999Z</time></trkpt><trkpt lat="31.57396085408946" lon="-4.191893462754755"><ele>852.0</ele><time>2026-04-27T07:02:24.999Z</time></trkpt><trkpt lat="31.574233145251284" lon="-4.1920476631849475"><ele>852.0</ele><time>2026-04-27T07:02:25.999Z</time></trkpt><trkpt lat="31.574505373088424" lon="-4.19220357249544"><ele>852.0</ele><time>2026-04-27T07:02:26.999Z</time></trkpt><trkpt lat="31.574777936580606" lon="-4.192359161311042"><ele>852.0</ele><time>2026-04-27T07:02:27.999Z</time></trkpt><trkpt lat="31.575051482557708" lon="-4.192515495181647"><ele>852.0</ele><time>2026-04-27T07:02:28.999Z</time></trkpt><trkpt lat="31.575322474479773" lon="-4.192673296199214"><ele>852.0</ele><time>2026-04-27T07:02:29.999Z</time></trkpt><trkpt lat="31.575593889853774" lon="-4.1928312931527065"><ele>854.0</ele><time>2026-04-27T07:02:30.999Z</time></trkpt><trkpt lat="31.575866651495403" lon="-4.19298864994931"><ele>856.0</ele><time>2026-04-27T07:02:31.999Z</time></trkpt><trkpt lat="31.576138880646894" lon="-4.193144274651224"><ele>855.5</ele><time>2026-04-27T07:02:32.999Z</time></trkpt><trkpt lat="31.576418916807576" lon="-4.193302018500939"><ele>855.0</ele><time>2026-04-27T07:02:34.001Z</time></trkpt><trkpt lat="31.57669694196328" lon="-4.193458782264179"><ele>855.0</ele><time>2026-04-27T07:02:35.001Z</time></trkpt><trkpt lat="31.576976395878983" lon="-4.1936126511876655"><ele>855.0</ele><time>2026-04-27T07:02:36.001Z</time></trkpt><trkpt lat="31.577258526376813" lon="-4.193767018067579"><ele>855.5</ele><time>2026-04-27T07:02:37.001Z</time></trkpt><trkpt lat="31.577543104374868" lon="-4.193924363535574"><ele>856.0</ele><time>2026-04-27T07:02:38.001Z</time></trkpt><trkpt lat="31.5778265010984" lon="-4.194082737221448"><ele>856.0</ele><time>2026-04-27T07:02:39.001Z</time></trkpt><trkpt lat="31.578108182960612" lon="-4.194241937854204"><ele>856.0</ele><time>2026-04-27T07:02:40.001Z</time></trkpt><trkpt lat="31.578390694364796" lon="-4.19440066287616"><ele>856.0</ele><time>2026-04-27T07:02:41.001Z</time></trkpt><trkpt lat="31.578673852795482" lon="-4.194559655645626"><ele>856.0</ele><time>2026-04-27T07:02:42.001Z</time></trkpt><trkpt lat="31.578953876118025" lon="-4.194718541257603"><ele>856.5</ele><time>2026-04-27T07:02:43.001Z</time></trkpt><trkpt lat="31.579234565609" lon="-4.194874486323816"><ele>857.0</ele><time>2026-04-27T07:02:44.001Z</time></trkpt><trkpt lat="31.579517538442264" lon="-4.195032461501847"><ele>857.0</ele><time>2026-04-27T07:02:45.001Z</time></trkpt><trkpt lat="31.57980097884041" lon="-4.19519062274817"><ele>857.0</ele><time>2026-04-27T07:02:46.001Z</time></trkpt><trkpt lat="31.580082513285664" lon="-4.195348240735428"><ele>858.5</ele><time>2026-04-27T07:02:47.001Z</time></trkpt><trkpt lat="31.580368505930878" lon="-4.195508200084288"><ele>860.0</ele><time>2026-04-27T07:02:48.001Z</time></trkpt><trkpt lat="31.58065923489096" lon="-4.195670498109645"><ele>860.5</ele><time>2026-04-27T07:02:49.001Z</time></trkpt><trkpt lat="31.58094965654789" lon="-4.1958323529146115"><ele>861.0</ele><time>2026-04-27T07:02:50Z</time></trkpt><trkpt lat="31.581237347706953" lon="-4.1959913278427745"><ele>861.0</ele><time>2026-04-27T07:02:51Z</time></trkpt><trkpt lat="31.58152221834642" lon="-4.196147352074601"><ele>861.0</ele><time>2026-04-27T07:02:52Z</time></trkpt><trkpt lat="31.581801770452387" lon="-4.19630236687064"><ele>861.0</ele><time>2026-04-27T07:02:53Z</time></trkpt><trkpt lat="31.582078483439545" lon="-4.196457594477054"><ele>861.0</ele><time>2026-04-27T07:02:54Z</time></trkpt><trkpt lat="31.58235667958443" lon="-4.196612896055243"><ele>861.0</ele><time>2026-04-27T07:02:55Z</time></trkpt><trkpt lat="31.58263533546707" lon="-4.1967673271726325"><ele>861.0</ele><time>2026-04-27T07:02:56Z</time></trkpt><trkpt lat="31.582916794539496" lon="-4.196918574440927"><ele>861.0</ele><time>2026-04-27T07:02:57Z</time></trkpt><trkpt lat="31.58319726552248" lon="-4.197063480544348"><ele>861.0</ele><time>2026-04-27T07:02:58Z</time></trkpt><trkpt lat="31.58347319598195" lon="-4.197206308888071"><ele>860.5</ele><time>2026-04-27T07:02:59Z</time></trkpt><trkpt lat="31.583746763068405" lon="-4.197348027309423"><ele>860.0</ele><time>2026-04-27T07:03:00Z</time></trkpt><trkpt lat="31.58401893439752" lon="-4.1974893629748875"><ele>860.0</ele><time>2026-04-27T07:03:01Z</time></trkpt><trkpt lat="31.58428899016287" lon="-4.1976307598360485"><ele>860.0</ele><time>2026-04-27T07:03:02Z</time></trkpt><trkpt lat="31.58455561360933" lon="-4.19776992471834"><ele>860.5</ele><time>2026-04-27T07:03:03Z</time></trkpt><trkpt lat="31.58482291778655" lon="-4.197907729388636"><ele>861.0</ele><time>2026-04-27T07:03:04Z</time></trkpt><trkpt lat="31.585094358732285" lon="-4.198046939607332"><ele>861.5</ele><time>2026-04-27T07:03:05Z</time></trkpt><trkpt lat="31.58537267753902" lon="-4.1981894737832315"><ele>862.0</ele><time>2026-04-27T07:03:06Z</time></trkpt><trkpt lat="31.5856555912119" lon="-4.198335769813896"><ele>862.0</ele><time>2026-04-27T07:03:07Z</time></trkpt><trkpt lat="31.585941492402846" lon="-4.198483714866161"><ele>862.0</ele><time>2026-04-27T07:03:08Z</time></trkpt><trkpt lat="31.58622932040412" lon="-4.1986306835537075"><ele>862.0</ele><time>2026-04-27T07:03:09Z</time></trkpt><trkpt lat="31.586516379384562" lon="-4.198777715673502"><ele>862.0</ele><time>2026-04-27T07:03:10Z</time></trkpt><trkpt lat="31.58680501329603" lon="-4.198926679945272"><ele>861.0</ele><time>2026-04-27T07:03:11Z</time></trkpt><trkpt lat="31.587093403892126" lon="-4.1990796166194855"><ele>860.0</ele><time>2026-04-27T07:03:12Z</time></trkpt><trkpt lat="31.58738276632684" lon="-4.199228544373934"><ele>860.0</ele><time>2026-04-27T07:03:13Z</time></trkpt><trkpt lat="31.587668787967317" lon="-4.199376790373161"><ele>860.0</ele><time>2026-04-27T07:03:14Z</time></trkpt><trkpt lat="31.587954155014366" lon="-4.199525543567131"><ele>860.5</ele><time>2026-04-27T07:03:15Z</time></trkpt><trkpt lat="31.58823450885792" lon="-4.19967195295907"><ele>861.0</ele><time>2026-04-27T07:03:16Z</time></trkpt><trkpt lat="31.588513657088704" lon="-4.199818237218605"><ele>860.5</ele><time>2026-04-27T07:03:17Z</time></trkpt><trkpt lat="31.58879503012498" lon="-4.199962870582294"><ele>860.0</ele><time>2026-04-27T07:03:18Z</time></trkpt><trkpt lat="31.589077601911082" lon="-4.20010590812979"><ele>860.0</ele><time>2026-04-27T07:03:19Z</time></trkpt><trkpt lat="31.58935840588298" lon="-4.200249089706057"><ele>860.0</ele><time>2026-04-27T07:03:20Z</time></trkpt><trkpt lat="31.589634484885547" lon="-4.200388789130727"><ele>861.0</ele><time>2026-04-27T07:03:21Z</time></trkpt><trkpt lat="31.589899894954662" lon="-4.200523892877303"><ele>862.0</ele><time>2026-04-27T07:03:22Z</time></trkpt><trkpt lat="31.590159984780495" lon="-4.200656442084369"><ele>861.5</ele><time>2026-04-27T07:03:23Z</time></trkpt><trkpt lat="31.590422871356587" lon="-4.200789769261113"><ele>861.0</ele><time>2026-04-27T07:03:24Z</time></trkpt><trkpt lat="31.590688121508396" lon="-4.200926960288161"><ele>861.0</ele><time>2026-04-27T07:03:25Z</time></trkpt><trkpt lat="31.590957982270893" lon="-4.201067496213606"><ele>861.0</ele><time>2026-04-27T07:03:26Z</time></trkpt><trkpt lat="31.591231494620676" lon="-4.201209075316844"><ele>861.5</ele><time>2026-04-27T07:03:27Z</time></trkpt><trkpt lat="31.591504448457478" lon="-4.2013488829354735"><ele>862.0</ele><time>2026-04-27T07:03:28Z</time></trkpt><trkpt lat="31.591778099836564" lon="-4.201487954274857"><ele>862.5</ele><time>2026-04-27T07:03:29Z</time></trkpt><trkpt lat="31.59205151514913" lon="-4.201628417721526"><ele>863.0</ele><time>2026-04-27T07:03:30Z</time></trkpt><trkpt lat="31.592323987540148" lon="-4.201768571302433"><ele>863.0</ele><time>2026-04-27T07:03:31Z</time></trkpt><trkpt lat="31.59258951435556" lon="-4.20190718653296"><ele>863.0</ele><time>2026-04-27T07:03:32Z</time></trkpt><trkpt lat="31.592845289635783" lon="-4.202039910906682"><ele>863.0</ele><time>2026-04-27T07:03:33Z</time></trkpt><trkpt lat="31.593092950132515" lon="-4.202167785159421"><ele>863.0</ele><time>2026-04-27T07:03:34Z</time></trkpt><trkpt lat="31.59333590109761" lon="-4.202293263070324"><ele>862.0</ele><time>2026-04-27T07:03:35Z</time></trkpt><trkpt lat="31.59357034088084" lon="-4.202416079235983"><ele>861.0</ele><time>2026-04-27T07:03:36Z</time></trkpt><trkpt lat="31.593805971383684" lon="-4.20253694881848"><ele>861.0</ele><time>2026-04-27T07:03:37Z</time></trkpt><trkpt lat="31.594041504108656" lon="-4.202656775587405"><ele>861.0</ele><time>2026-04-27T07:03:38Z</time></trkpt><trkpt lat="31.594274715177452" lon="-4.202777134668737"><ele>862.5</ele><time>2026-04-27T07:03:39Z</time></trkpt><trkpt lat="31.59450618527441" lon="-4.202897624513393"><ele>864.0</ele><time>2026-04-27T07:03:40Z</time></trkpt><trkpt lat="31.5947405758002" lon="-4.203016366193974"><ele>864.0</ele><time>2026-04-27T07:03:41Z</time></trkpt><trkpt lat="31.594981457099035" lon="-4.203131348884175"><ele>864.0</ele><time>2026-04-27T07:03:42Z</time></trkpt><trkpt lat="31.595229916876463" lon="-4.203245304635578"><ele>862.0</ele><time>2026-04-27T07:03:43Z</time></trkpt><trkpt lat="31.595485461667106" lon="-4.203359486107415"><ele>860.0</ele><time>2026-04-27T07:03:44Z</time></trkpt><trkpt lat="31.595745242156557" lon="-4.203475679243858"><ele>860.0</ele><time>2026-04-27T07:03:45Z</time></trkpt><trkpt lat="31.596008117012854" lon="-4.203593764417408"><ele>860.0</ele><time>2026-04-27T07:03:46Z</time></trkpt><trkpt lat="31.596273441067222" lon="-4.203711606620041"><ele>861.0</ele><time>2026-04-27T07:03:47Z</time></trkpt><trkpt lat="31.596541046078514" lon="-4.203829435984088"><ele>862.0</ele><time>2026-04-27T07:03:48Z</time></trkpt><trkpt lat="31.59681216768838" lon="-4.2039484208581275"><ele>861.0</ele><time>2026-04-27T07:03:49Z</time></trkpt><trkpt lat="31.597092177719844" lon="-4.20404447184163"><ele>860.0</ele><time>2026-04-27T07:03:50Z</time></trkpt><trkpt lat="31.597371963743527" lon="-4.204159581858645"><ele>860.0</ele><time>2026-04-27T07:03:51Z</time></trkpt><trkpt lat="31.59765186946792" lon="-4.2042770325576555"><ele>860.0</ele><time>2026-04-27T07:03:52Z</time></trkpt><trkpt lat="31.597919088850343" lon="-4.204440186518034"><ele>860.5</ele><time>2026-04-27T07:03:53Z</time></trkpt><trkpt lat="31.598198739228106" lon="-4.204564742802768"><ele>861.0</ele><time>2026-04-27T07:03:54Z</time></trkpt><trkpt lat="31.59847778018151" lon="-4.204689332084023"><ele>861.5</ele><time>2026-04-27T07:03:55Z</time></trkpt><trkpt lat="31.59875398313899" lon="-4.204812795085264"><ele>862.0</ele><time>2026-04-27T07:03:56Z</time></trkpt><trkpt lat="31.59902677102952" lon="-4.204933687325564"><ele>862.0</ele><time>2026-04-27T07:03:57Z</time></trkpt><trkpt lat="31.599293050281506" lon="-4.205052956665202"><ele>862.0</ele><time>2026-04-27T07:03:58Z</time></trkpt><trkpt lat="31.599553761895724" lon="-4.205168377095945"><ele>861.0</ele><time>2026-04-27T07:03:59Z</time></trkpt><trkpt lat="31.59980787380402" lon="-4.20528196229737"><ele>860.0</ele><time>2026-04-27T07:04:00Z</time></trkpt><trkpt lat="31.600059423802186" lon="-4.205394723838476"><ele>860.0</ele><time>2026-04-27T07:04:01Z</time></trkpt><trkpt lat="31.60031122991767" lon="-4.205507601167917"><ele>860.0</ele><time>2026-04-27T07:04:02Z</time></trkpt><trkpt lat="31.600563162674582" lon="-4.205619913811269"><ele>861.0</ele><time>2026-04-27T07:04:03Z</time></trkpt><trkpt lat="31.600819113055508" lon="-4.2057333341691905"><ele>862.0</ele><time>2026-04-27T07:04:04Z</time></trkpt><trkpt lat="31.601077866773206" lon="-4.205847054672709"><ele>862.5</ele><time>2026-04-27T07:04:05Z</time></trkpt><trkpt lat="31.601336509465845" lon="-4.205960542437551"><ele>863.0</ele><time>2026-04-27T07:04:05.999Z</time></trkpt><trkpt lat="31.601593520493825" lon="-4.206070965654105"><ele>863.0</ele><time>2026-04-27T07:04:06.999Z</time></trkpt><trkpt lat="31.601849311380146" lon="-4.206176380574056"><ele>863.0</ele><time>2026-04-27T07:04:07.999Z</time></trkpt><trkpt lat="31.602107835705194" lon="-4.206271885069849"><ele>863.5</ele><time>2026-04-27T07:04:08.999Z</time></trkpt><trkpt lat="31.602369426567186" lon="-4.206355775545277"><ele>864.0</ele><time>2026-04-27T07:04:09.999Z</time></trkpt><trkpt lat="31.602638183682878" lon="-4.206411693812262"><ele>866.0</ele><time>2026-04-27T07:04:10.999Z</time></trkpt><trkpt lat="31.602915239966897" lon="-4.206437791308282"><ele>868.0</ele><time>2026-04-27T07:04:11.999Z</time></trkpt><trkpt lat="31.603196737563184" lon="-4.206447855968591"><ele>868.0</ele><time>2026-04-27T07:04:12.999Z</time></trkpt><trkpt lat="31.603481967438807" lon="-4.206453589183413"><ele>868.0</ele><time>2026-04-27T07:04:13.999Z</time></trkpt><trkpt lat="31.603767042341094" lon="-4.206455132512067"><ele>867.0</ele><time>2026-04-27T07:04:14.999Z</time></trkpt><trkpt lat="31.604052176938442" lon="-4.206455738526138"><ele>866.0</ele><time>2026-04-27T07:04:15.999Z</time></trkpt><trkpt lat="31.604336334148403" lon="-4.206458411463809"><ele>866.0</ele><time>2026-04-27T07:04:16.999Z</time></trkpt><trkpt lat="31.604620764607652" lon="-4.206460318661801"><ele>866.0</ele><time>2026-04-27T07:04:17.999Z</time></trkpt><trkpt lat="31.604901351233128" lon="-4.206460517727729"><ele>866.0</ele><time>2026-04-27T07:04:18.999Z</time></trkpt><trkpt lat="31.605177909933214" lon="-4.206460962682163"><ele>866.0</ele><time>2026-04-27T07:04:19.999Z</time></trkpt><trkpt lat="31.60545935540459" lon="-4.206463319082035"><ele>867.5</ele><time>2026-04-27T07:04:20.999Z</time></trkpt><trkpt lat="31.605741342757884" lon="-4.206465774843574"><ele>869.0</ele><time>2026-04-27T07:04:21.999Z</time></trkpt><trkpt lat="31.606021866904715" lon="-4.206469692889667"><ele>868.5</ele><time>2026-04-27T07:04:22.999Z</time></trkpt><trkpt lat="31.60630459838072" lon="-4.206471942752533"><ele>868.0</ele><time>2026-04-27T07:04:23.999Z</time></trkpt><trkpt lat="31.606585896673" lon="-4.206474037899004"><ele>868.0</ele><time>2026-04-27T07:04:24.999Z</time></trkpt><trkpt lat="31.60686325884571" lon="-4.20647490803025"><ele>868.0</ele><time>2026-04-27T07:04:25.999Z</time></trkpt><trkpt lat="31.60713540056958" lon="-4.206475271117778"><ele>868.5</ele><time>2026-04-27T07:04:26.999Z</time></trkpt><trkpt lat="31.607405568443717" lon="-4.206476530544891"><ele>869.0</ele><time>2026-04-27T07:04:27.999Z</time></trkpt><trkpt lat="31.60767568650037" lon="-4.206478265299311"><ele>869.0</ele><time>2026-04-27T07:04:28.999Z</time></trkpt><trkpt lat="31.607946772331033" lon="-4.20648025614805"><ele>869.0</ele><time>2026-04-27T07:04:29.999Z</time></trkpt><trkpt lat="31.6082150635881" lon="-4.206483792902712"><ele>869.0</ele><time>2026-04-27T07:04:30.999Z</time></trkpt><trkpt lat="31.608479385712116" lon="-4.206487252754103"><ele>869.0</ele><time>2026-04-27T07:04:31.999Z</time></trkpt><trkpt lat="31.60874192314472" lon="-4.206488218977235"><ele>870.0</ele><time>2026-04-27T07:04:32.999Z</time></trkpt><trkpt lat="31.609006026247865" lon="-4.206487255609341"><ele>871.0</ele><time>2026-04-27T07:04:33.999Z</time></trkpt><trkpt lat="31.60926745677292" lon="-4.206487974545308"><ele>870.0</ele><time>2026-04-27T07:04:34.999Z</time></trkpt><trkpt lat="31.609526319107584" lon="-4.2064905055077295"><ele>869.0</ele><time>2026-04-27T07:04:35.999Z</time></trkpt><trkpt lat="31.60978190866168" lon="-4.206494418127742"><ele>869.0</ele><time>2026-04-27T07:04:36.999Z</time></trkpt><trkpt lat="31.610034585085074" lon="-4.206495163782158"><ele>869.0</ele><time>2026-04-27T07:04:37.999Z</time></trkpt><trkpt lat="31.610286334012468" lon="-4.206493679023105"><ele>871.5</ele><time>2026-04-27T07:04:38.999Z</time></trkpt><trkpt lat="31.61053738038416" lon="-4.206494916181433"><ele>874.0</ele><time>2026-04-27T07:04:40Z</time></trkpt><trkpt lat="31.610780386386203" lon="-4.206497698507962"><ele>874.0</ele><time>2026-04-27T07:04:41Z</time></trkpt><trkpt lat="31.6110085862131" lon="-4.206499259177001"><ele>874.0</ele><time>2026-04-27T07:04:42Z</time></trkpt><trkpt lat="31.61122101324867" lon="-4.206499726508839"><ele>874.0</ele><time>2026-04-27T07:04:43Z</time></trkpt><trkpt lat="31.611421724539543" lon="-4.206499864113112"><ele>875.0</ele><time>2026-04-27T07:04:44Z</time></trkpt><trkpt lat="31.61161682822671" lon="-4.206500564193352"><ele>876.0</ele><time>2026-04-27T07:04:45Z</time></trkpt><trkpt lat="31.611806860183727" lon="-4.206496929859001"><ele>877.0</ele><time>2026-04-27T07:04:46Z</time></trkpt><trkpt lat="31.61199954174062" lon="-4.206489897274067"><ele>877.0</ele><time>2026-04-27T07:04:47Z</time></trkpt><trkpt lat="31.612193402541262" lon="-4.206483302930925"><ele>877.0</ele><time>2026-04-27T07:04:48Z</time></trkpt><trkpt lat="31.612384837230028" lon="-4.206478129218996"><ele>877.0</ele><time>2026-04-27T07:04:49Z</time></trkpt><trkpt lat="31.612574726556108" lon="-4.206476816386843"><ele>877.0</ele><time>2026-04-27T07:04:50Z</time></trkpt><trkpt lat="31.612762567556402" lon="-4.206477171531209"><ele>877.0</ele><time>2026-04-27T07:04:51Z</time></trkpt><trkpt lat="31.612951572772136" lon="-4.206478798867057"><ele>877.0</ele><time>2026-04-27T07:04:52Z</time></trkpt><trkpt lat="31.613138831844164" lon="-4.2064809666122756"><ele>876.6666666666666</ele><time>2026-04-27T07:04:53Z</time></trkpt><trkpt lat="31.613333185492454" lon="-4.2064840645277135"><ele>876.3333333333333</ele><time>2026-04-27T07:04:54Z</time></trkpt><trkpt lat="31.613532537668192" lon="-4.206488362024645"><ele>876.0</ele><time>2026-04-27T07:04:55Z</time></trkpt><trkpt lat="31.613735551180156" lon="-4.206491460516489"><ele>875.3333333333333</ele><time>2026-04-27T07:04:56Z</time></trkpt><trkpt lat="31.61394157318939" lon="-4.206494894808449"><ele>874.6666666666666</ele><time>2026-04-27T07:04:57Z</time></trkpt><trkpt lat="31.614149226618828" lon="-4.20649749316265"><ele>874.0</ele><time>2026-04-27T07:04:58Z</time></trkpt><trkpt lat="31.614360359863777" lon="-4.206499167962186"><ele>874.3333333333333</ele><time>2026-04-27T07:04:59Z</time></trkpt><trkpt lat="31.61457624588256" lon="-4.206492866167547"><ele>874.6666666666667</ele><time>2026-04-27T07:05:00Z</time></trkpt><trkpt lat="31.614795362096363" lon="-4.206469183594873"><ele>875.0</ele><time>2026-04-27T07:05:01Z</time></trkpt><trkpt lat="31.615001090247695" lon="-4.206429819452107"><ele>875.0</ele><time>2026-04-27T07:05:02Z</time></trkpt><trkpt lat="31.61520254302943" lon="-4.206379610733791"><ele>875.0</ele><time>2026-04-27T07:05:03Z</time></trkpt><trkpt lat="31.615405711698465" lon="-4.206327152171214"><ele>875.0</ele><time>2026-04-27T07:05:04Z</time></trkpt><trkpt lat="31.615613964424888" lon="-4.206268409141489"><ele>875.3333333333334</ele><time>2026-04-27T07:05:05Z</time></trkpt><trkpt lat="31.61582605478963" lon="-4.206206841003078"><ele>875.6666666666667</ele><time>2026-04-27T07:05:06Z</time></trkpt><trkpt lat="31.616043213718843" lon="-4.206141140165638"><ele>876.0</ele><time>2026-04-27T07:05:07Z</time></trkpt><trkpt lat="31.61626233583096" lon="-4.206074470511175"><ele>876.5</ele><time>2026-04-27T07:05:08Z</time></trkpt><trkpt lat="31.61648445940904" lon="-4.2060093322273575"><ele>877.0</ele><time>2026-04-27T07:05:09Z</time></trkpt><trkpt lat="31.61671145933115" lon="-4.205939577817558"><ele>877.0</ele><time>2026-04-27T07:05:10Z</time></trkpt><trkpt lat="31.616943138509765" lon="-4.2058692883322"><ele>877.0</ele><time>2026-04-27T07:05:11Z</time></trkpt><trkpt lat="31.617180859114427" lon="-4.2057973543384115"><ele>877.0</ele><time>2026-04-27T07:05:12Z</time></trkpt><trkpt lat="31.617424253159015" lon="-4.20572400588691"><ele>877.0</ele><time>2026-04-27T07:05:13Z</time></trkpt><trkpt lat="31.617674856050044" lon="-4.205647161215436"><ele>876.0</ele><time>2026-04-27T07:05:14Z</time></trkpt><trkpt lat="31.617931019490506" lon="-4.205567254845676"><ele>875.0</ele><time>2026-04-27T07:05:15Z</time></trkpt><trkpt lat="31.618185445116158" lon="-4.205490431974276"><ele>875.0</ele><time>2026-04-27T07:05:16Z</time></trkpt><trkpt lat="31.618438336512778" lon="-4.205415494547269"><ele>875.0</ele><time>2026-04-27T07:05:17Z</time></trkpt><trkpt lat="31.61869151678475" lon="-4.205339314981319"><ele>874.0</ele><time>2026-04-27T07:05:18Z</time></trkpt><trkpt lat="31.618945318065283" lon="-4.205265674397949"><ele>873.0</ele><time>2026-04-27T07:05:19Z</time></trkpt><trkpt lat="31.619199600259744" lon="-4.205192721393346"><ele>873.0</ele><time>2026-04-27T07:05:20Z</time></trkpt><trkpt lat="31.61944993694372" lon="-4.205121439117086"><ele>873.0</ele><time>2026-04-27T07:05:21Z</time></trkpt><trkpt lat="31.619701090589494" lon="-4.2050501299097585"><ele>872.5</ele><time>2026-04-27T07:05:22Z</time></trkpt><trkpt lat="31.619952931262098" lon="-4.204978489096258"><ele>872.0</ele><time>2026-04-27T07:05:23Z</time></trkpt><trkpt lat="31.620207077794557" lon="-4.204905525228953"><ele>872.5</ele><time>2026-04-27T07:05:24Z</time></trkpt><trkpt lat="31.620463752021823" lon="-4.2048300657642255"><ele>873.0</ele><time>2026-04-27T07:05:25Z</time></trkpt><trkpt lat="31.62072245408949" lon="-4.204751200997303"><ele>873.5</ele><time>2026-04-27T07:05:26Z</time></trkpt><trkpt lat="31.62097950096934" lon="-4.204671827067074"><ele>874.0</ele><time>2026-04-27T07:05:27Z</time></trkpt><trkpt lat="31.621235879252705" lon="-4.2045945733258865"><ele>875.0</ele><time>2026-04-27T07:05:28Z</time></trkpt><trkpt lat="31.621492810490803" lon="-4.204517997762205"><ele>876.0</ele><time>2026-04-27T07:05:29Z</time></trkpt><trkpt lat="31.621743198157045" lon="-4.204421437849173"><ele>874.5</ele><time>2026-04-27T07:05:30Z</time></trkpt><trkpt lat="31.622001904577154" lon="-4.204360871504803"><ele>873.0</ele><time>2026-04-27T07:05:31Z</time></trkpt><trkpt lat="31.62225688403296" lon="-4.204280020402246"><ele>873.0</ele><time>2026-04-27T07:05:32Z</time></trkpt><trkpt lat="31.622514880713286" lon="-4.20420094128236"><ele>873.0</ele><time>2026-04-27T07:05:33Z</time></trkpt><trkpt lat="31.62277644850749" lon="-4.204122181606573"><ele>873.0</ele><time>2026-04-27T07:05:34Z</time></trkpt><trkpt lat="31.62303861427497" lon="-4.204041852766294"><ele>873.0</ele><time>2026-04-27T07:05:35Z</time></trkpt><trkpt lat="31.623300155504296" lon="-4.203962764987438"><ele>873.0</ele><time>2026-04-27T07:05:36Z</time></trkpt><trkpt lat="31.62356216422385" lon="-4.203882881760596"><ele>873.0</ele><time>2026-04-27T07:05:37Z</time></trkpt><trkpt lat="31.623825838514296" lon="-4.203803179649458"><ele>873.5</ele><time>2026-04-27T07:05:38Z</time></trkpt><trkpt lat="31.624090805548526" lon="-4.203721552415191"><ele>874.0</ele><time>2026-04-27T07:05:39Z</time></trkpt><trkpt lat="31.624354621855954" lon="-4.203640334729155"><ele>873.5</ele><time>2026-04-27T07:05:40Z</time></trkpt><trkpt lat="31.62461898999323" lon="-4.203560254760673"><ele>873.0</ele><time>2026-04-27T07:05:41Z</time></trkpt><trkpt lat="31.62488399896233" lon="-4.203480653553836"><ele>873.0</ele><time>2026-04-27T07:05:42Z</time></trkpt><trkpt lat="31.625147806290936" lon="-4.203401084198682"><ele>873.0</ele><time>2026-04-27T07:05:43Z</time></trkpt><trkpt lat="31.625410694402166" lon="-4.20332153933206"><ele>873.0</ele><time>2026-04-27T07:05:44Z</time></trkpt><trkpt lat="31.625674769214292" lon="-4.203238411079238"><ele>873.0</ele><time>2026-04-27T07:05:45Z</time></trkpt><trkpt lat="31.625936964693572" lon="-4.203155463860049"><ele>872.5</ele><time>2026-04-27T07:05:46Z</time></trkpt><trkpt lat="31.626198268977635" lon="-4.203064845557976"><ele>872.0</ele><time>2026-04-27T07:05:47Z</time></trkpt><trkpt lat="31.626456473861452" lon="-4.202964835326097"><ele>872.0</ele><time>2026-04-27T07:05:48Z</time></trkpt><trkpt lat="31.626714218267857" lon="-4.202853422391948"><ele>872.0</ele><time>2026-04-27T07:05:49Z</time></trkpt><trkpt lat="31.62697261253808" lon="-4.202733694922597"><ele>872.5</ele><time>2026-04-27T07:05:50Z</time></trkpt><trkpt lat="31.627231141208252" lon="-4.202608813803723"><ele>873.0</ele><time>2026-04-27T07:05:51Z</time></trkpt><trkpt lat="31.62749519440532" lon="-4.20248120446015"><ele>873.0</ele><time>2026-04-27T07:05:52Z</time></trkpt><trkpt lat="31.627760282844847" lon="-4.202355530089323"><ele>873.0</ele><time>2026-04-27T07:05:53Z</time></trkpt><trkpt lat="31.62802674556524" lon="-4.202228419027244"><ele>873.0</ele><time>2026-04-27T07:05:54Z</time></trkpt><trkpt lat="31.628294122409248" lon="-4.202097998172787"><ele>873.0</ele><time>2026-04-27T07:05:55Z</time></trkpt><trkpt lat="31.628564043656937" lon="-4.201960432630424"><ele>872.5</ele><time>2026-04-27T07:05:56Z</time></trkpt><trkpt lat="31.628834062070236" lon="-4.201823152547793"><ele>872.0</ele><time>2026-04-27T07:05:57Z</time></trkpt><trkpt lat="31.629104975577903" lon="-4.201689163896732"><ele>872.0</ele><time>2026-04-27T07:05:58Z</time></trkpt><trkpt lat="31.629378705254624" lon="-4.201555906822318"><ele>872.0</ele><time>2026-04-27T07:05:59Z</time></trkpt><trkpt lat="31.629652918587794" lon="-4.201422371154806"><ele>871.5</ele><time>2026-04-27T07:06:00Z</time></trkpt><trkpt lat="31.62992676284114" lon="-4.20128799398126"><ele>871.0</ele><time>2026-04-27T07:06:01Z</time></trkpt><trkpt lat="31.63020061612569" lon="-4.20115459140222"><ele>873.5</ele><time>2026-04-27T07:06:02Z</time></trkpt><trkpt lat="31.630475672039367" lon="-4.201021506562533"><ele>876.0</ele><time>2026-04-27T07:06:03Z</time></trkpt><trkpt lat="31.630750524834607" lon="-4.200886924970532"><ele>876.0</ele><time>2026-04-27T07:06:04Z</time></trkpt><trkpt lat="31.6310262293647" lon="-4.200752264199559"><ele>876.0</ele><time>2026-04-27T07:06:05Z</time></trkpt><trkpt lat="31.631301873748857" lon="-4.200619183040826"><ele>876.0</ele><time>2026-04-27T07:06:06Z</time></trkpt><trkpt lat="31.63157744597581" lon="-4.200486859663899"><ele>876.0</ele><time>2026-04-27T07:06:06.999Z</time></trkpt><trkpt lat="31.63185399224984" lon="-4.200353137689946"><ele>876.0</ele><time>2026-04-27T07:06:07.999Z</time></trkpt><trkpt lat="31.632131816550846" lon="-4.2002196433050445"><ele>876.0</ele><time>2026-04-27T07:06:08.999Z</time></trkpt><trkpt lat="31.63240942391" lon="-4.200085457485006"><ele>876.0</ele><time>2026-04-27T07:06:09.999Z</time></trkpt><trkpt lat="31.632685666976798" lon="-4.199951727923931"><ele>876.0</ele><time>2026-04-27T07:06:10.999Z</time></trkpt><trkpt lat="31.632960644085152" lon="-4.199818405573052"><ele>876.5</ele><time>2026-04-27T07:06:11.999Z</time></trkpt><trkpt lat="31.6332327751405" lon="-4.199687057323294"><ele>877.0</ele><time>2026-04-27T07:06:12.999Z</time></trkpt><trkpt lat="31.633502343692708" lon="-4.199555494208596"><ele>877.5</ele><time>2026-04-27T07:06:13.999Z</time></trkpt><trkpt lat="31.633769760920963" lon="-4.19942542398865"><ele>878.0</ele><time>2026-04-27T07:06:14.999Z</time></trkpt><trkpt lat="31.634036241854368" lon="-4.199294557312317"><ele>878.0</ele><time>2026-04-27T07:06:15.999Z</time></trkpt><trkpt lat="31.634303518674262" lon="-4.19916244066454"><ele>878.0</ele><time>2026-04-27T07:06:16.999Z</time></trkpt><trkpt lat="31.634566541259268" lon="-4.199035296136276"><ele>879.5</ele><time>2026-04-27T07:06:17.999Z</time></trkpt><trkpt lat="31.634827918647886" lon="-4.1989095534017755"><ele>881.0</ele><time>2026-04-27T07:06:18.999Z</time></trkpt><trkpt lat="31.635086452746833" lon="-4.198784408432493"><ele>882.5</ele><time>2026-04-27T07:06:19.999Z</time></trkpt><trkpt lat="31.63535017295713" lon="-4.198656591033135"><ele>884.0</ele><time>2026-04-27T07:06:20.999Z</time></trkpt><trkpt lat="31.635616064710526" lon="-4.1985332603920344"><ele>884.0</ele><time>2026-04-27T07:06:21.999Z</time></trkpt><trkpt lat="31.635887436928268" lon="-4.19841539635846"><ele>884.0</ele><time>2026-04-27T07:06:22.999Z</time></trkpt><trkpt lat="31.636165349652057" lon="-4.1983003141488995"><ele>883.0</ele><time>2026-04-27T07:06:23.999Z</time></trkpt><trkpt lat="31.636445299122062" lon="-4.19819133143008"><ele>882.0</ele><time>2026-04-27T07:06:24.999Z</time></trkpt><trkpt lat="31.636726684870116" lon="-4.198087941452049"><ele>883.5</ele><time>2026-04-27T07:06:25.999Z</time></trkpt><trkpt lat="31.637007242311228" lon="-4.1979909212500175"><ele>885.0</ele><time>2026-04-27T07:06:26.999Z</time></trkpt><trkpt lat="31.63728743973385" lon="-4.197900022956597"><ele>885.0</ele><time>2026-04-27T07:06:27.999Z</time></trkpt><trkpt lat="31.63756660628566" lon="-4.197813001886872"><ele>885.0</ele><time>2026-04-27T07:06:28.999Z</time></trkpt><trkpt lat="31.637843508746908" lon="-4.197724568700357"><ele>886.0</ele><time>2026-04-27T07:06:29.999Z</time></trkpt><trkpt lat="31.638120545894854" lon="-4.197629617064871"><ele>887.0</ele><time>2026-04-27T07:06:30.999Z</time></trkpt><trkpt lat="31.638395733382115" lon="-4.197529540946951"><ele>888.5</ele><time>2026-04-27T07:06:31.999Z</time></trkpt><trkpt lat="31.638669454982814" lon="-4.197420281599366"><ele>890.0</ele><time>2026-04-27T07:06:32.999Z</time></trkpt><trkpt lat="31.638939375125798" lon="-4.197298754931186"><ele>887.0</ele><time>2026-04-27T07:06:33.999Z</time></trkpt><trkpt lat="31.639206886002945" lon="-4.197162419812518"><ele>884.0</ele><time>2026-04-27T07:06:34.999Z</time></trkpt><trkpt lat="31.639472600959945" lon="-4.19701074453251"><ele>883.0</ele><time>2026-04-27T07:06:35.999Z</time></trkpt><trkpt lat="31.63973712315718" lon="-4.196844621999764"><ele>882.0</ele><time>2026-04-27T07:06:36.999Z</time></trkpt><trkpt lat="31.639995415171743" lon="-4.1966637485746"><ele>882.5</ele><time>2026-04-27T07:06:37.999Z</time></trkpt><trkpt lat="31.640248545560606" lon="-4.196467912517984"><ele>883.0</ele><time>2026-04-27T07:06:38.999Z</time></trkpt><trkpt lat="31.64049158642099" lon="-4.196257199108295"><ele>883.0</ele><time>2026-04-27T07:06:39.999Z</time></trkpt><trkpt lat="31.640733428035468" lon="-4.196042762097504"><ele>883.0</ele><time>2026-04-27T07:06:40.999Z</time></trkpt><trkpt lat="31.64096798728031" lon="-4.1958180333135555"><ele>883.5</ele><time>2026-04-27T07:06:41.999Z</time></trkpt><trkpt lat="31.641197504376684" lon="-4.195600708484402"><ele>884.0</ele><time>2026-04-27T07:06:42.999Z</time></trkpt><trkpt lat="31.641418231817948" lon="-4.195397035340117"><ele>884.0</ele><time>2026-04-27T07:06:43.999Z</time></trkpt><trkpt lat="31.641630330172568" lon="-4.19520117188266"><ele>884.0</ele><time>2026-04-27T07:06:44.999Z</time></trkpt><trkpt lat="31.641831594358916" lon="-4.195012520639152"><ele>883.0</ele><time>2026-04-27T07:06:46Z</time></trkpt><trkpt lat="31.642030728080023" lon="-4.19483166248757"><ele>882.0</ele><time>2026-04-27T07:06:47Z</time></trkpt><trkpt lat="31.64223671587924" lon="-4.1946607909101195"><ele>882.0</ele><time>2026-04-27T07:06:48Z</time></trkpt><trkpt lat="31.642449653376868" lon="-4.194502179047976"><ele>882.0</ele><time>2026-04-27T07:06:49Z</time></trkpt><trkpt lat="31.6426688879345" lon="-4.194360646977577"><ele>881.5</ele><time>2026-04-27T07:06:50Z</time></trkpt><trkpt lat="31.642895250986392" lon="-4.194235479901656"><ele>881.0</ele><time>2026-04-27T07:06:51Z</time></trkpt><trkpt lat="31.643124325345966" lon="-4.194124026431328"><ele>881.0</ele><time>2026-04-27T07:06:52Z</time></trkpt><trkpt lat="31.64335574477347" lon="-4.194019620016988"><ele>881.0</ele><time>2026-04-27T07:06:53Z</time></trkpt><trkpt lat="31.64358691197188" lon="-4.193915348162145"><ele>882.0</ele><time>2026-04-27T07:06:54Z</time></trkpt><trkpt lat="31.643816589320956" lon="-4.193812454758067"><ele>883.0</ele><time>2026-04-27T07:06:55Z</time></trkpt><trkpt lat="31.644041009030964" lon="-4.193707581040908"><ele>883.0</ele><time>2026-04-27T07:06:56Z</time></trkpt><trkpt lat="31.64425501372222" lon="-4.1935986101589195"><ele>883.0</ele><time>2026-04-27T07:06:57Z</time></trkpt><trkpt lat="31.644449119482257" lon="-4.193479242329018"><ele>882.3333333333333</ele><time>2026-04-27T07:06:58Z</time></trkpt><trkpt lat="31.644626196744902" lon="-4.193348301273789"><ele>881.6666666666667</ele><time>2026-04-27T07:06:59Z</time></trkpt><trkpt lat="31.644788697761413" lon="-4.193209396477618"><ele>881.0</ele><time>2026-04-27T07:07:00Z</time></trkpt><trkpt lat="31.64493115570004" lon="-4.193075621274823"><ele>881.0</ele><time>2026-04-27T07:07:01Z</time></trkpt><trkpt lat="31.645058775370515" lon="-4.192945433949935"><ele>881.0</ele><time>2026-04-27T07:07:02Z</time></trkpt><trkpt lat="31.64517709327223" lon="-4.192814763576669"><ele>881.0</ele><time>2026-04-27T07:07:03Z</time></trkpt><trkpt lat="31.64528831462654" lon="-4.192690394384128"><ele>881.25</ele><time>2026-04-27T07:07:04Z</time></trkpt><trkpt lat="31.645396019137753" lon="-4.192573754835575"><ele>881.5</ele><time>2026-04-27T07:07:05Z</time></trkpt><trkpt lat="31.64550095150676" lon="-4.192462339690328"><ele>881.75</ele><time>2026-04-27T07:07:06Z</time></trkpt><trkpt lat="31.645596118322736" lon="-4.19233123421283"><ele>882.0</ele><time>2026-04-27T07:07:07Z</time></trkpt><trkpt lat="31.645706929129695" lon="-4.192208662771572"><ele>882.6666666666667</ele><time>2026-04-27T07:07:08Z</time></trkpt><trkpt lat="31.645828705759328" lon="-4.1920845331303935"><ele>883.3333333333334</ele><time>2026-04-27T07:07:09Z</time></trkpt><trkpt lat="31.645962097267436" lon="-4.191975392684291"><ele>884.0</ele><time>2026-04-27T07:07:10Z</time></trkpt><trkpt lat="31.646104712731418" lon="-4.1918589634592385"><ele>884.3333333333334</ele><time>2026-04-27T07:07:11Z</time></trkpt><trkpt lat="31.64626178027261" lon="-4.191730902563838"><ele>884.6666666666667</ele><time>2026-04-27T07:07:12Z</time></trkpt><trkpt lat="31.646432463189054" lon="-4.191591415513948"><ele>885.0</ele><time>2026-04-27T07:07:13Z</time></trkpt><trkpt lat="31.646613653709636" lon="-4.1914426034202075"><ele>885.0</ele><time>2026-04-27T07:07:14Z</time></trkpt><trkpt lat="31.646810946067344" lon="-4.191299559500415"><ele>885.0</ele><time>2026-04-27T07:07:15Z</time></trkpt><trkpt lat="31.647016910666686" lon="-4.191155609787359"><ele>883.0</ele><time>2026-04-27T07:07:16Z</time></trkpt><trkpt lat="31.647227406163655" lon="-4.191008492690471"><ele>881.0</ele><time>2026-04-27T07:07:17Z</time></trkpt><trkpt lat="31.647433315262308" lon="-4.190864940434138"><ele>881.0</ele><time>2026-04-27T07:07:18Z</time></trkpt><trkpt lat="31.64764450212994" lon="-4.190717930405213"><ele>881.0</ele><time>2026-04-27T07:07:19Z</time></trkpt><trkpt lat="31.64785817175329" lon="-4.190565597445083"><ele>882.0</ele><time>2026-04-27T07:07:20Z</time></trkpt><trkpt lat="31.648068894304632" lon="-4.190395605826264"><ele>883.0</ele><time>2026-04-27T07:07:21Z</time></trkpt><trkpt lat="31.648285895554707" lon="-4.190221781088404"><ele>883.0</ele><time>2026-04-27T07:07:22Z</time></trkpt><trkpt lat="31.648505559075872" lon="-4.190044409510107"><ele>883.0</ele><time>2026-04-27T07:07:23Z</time></trkpt><trkpt lat="31.64872591894592" lon="-4.1898682966394"><ele>881.5</ele><time>2026-04-27T07:07:24Z</time></trkpt><trkpt lat="31.648935866939308" lon="-4.189670886370573"><ele>880.0</ele><time>2026-04-27T07:07:25Z</time></trkpt><trkpt lat="31.649145933842515" lon="-4.189476324937183"><ele>880.0</ele><time>2026-04-27T07:07:26Z</time></trkpt><trkpt lat="31.6493590957989" lon="-4.18927920450173"><ele>880.0</ele><time>2026-04-27T07:07:27Z</time></trkpt><trkpt lat="31.649574459087347" lon="-4.189080706926122"><ele>880.0</ele><time>2026-04-27T07:07:28Z</time></trkpt><trkpt lat="31.649790612895824" lon="-4.188883401526856"><ele>880.0</ele><time>2026-04-27T07:07:29Z</time></trkpt><trkpt lat="31.65000589436291" lon="-4.188691306015749"><ele>880.0</ele><time>2026-04-27T07:07:30Z</time></trkpt><trkpt lat="31.650223680448143" lon="-4.188504316047478"><ele>880.0</ele><time>2026-04-27T07:07:31Z</time></trkpt><trkpt lat="31.6504394210591" lon="-4.188308103387468"><ele>881.5</ele><time>2026-04-27T07:07:32Z</time></trkpt><trkpt lat="31.65068199905617" lon="-4.188156590196746"><ele>883.0</ele><time>2026-04-27T07:07:33Z</time></trkpt><trkpt lat="31.650926008107678" lon="-4.187998157492268"><ele>883.0</ele><time>2026-04-27T07:07:34Z</time></trkpt><trkpt lat="31.651180529596335" lon="-4.187848485485414"><ele>883.0</ele><time>2026-04-27T07:07:35Z</time></trkpt><trkpt lat="31.65143715617036" lon="-4.187712087867346"><ele>883.0</ele><time>2026-04-27T07:07:36Z</time></trkpt><trkpt lat="31.65169104991468" lon="-4.187578222260258"><ele>883.0</ele><time>2026-04-27T07:07:37Z</time></trkpt><trkpt lat="31.651944316261794" lon="-4.187440097102607"><ele>882.5</ele><time>2026-04-27T07:07:38Z</time></trkpt><trkpt lat="31.652188149381466" lon="-4.187309184946765"><ele>882.0</ele><time>2026-04-27T07:07:39Z</time></trkpt><trkpt lat="31.652425753774647" lon="-4.187180910368608"><ele>882.0</ele><time>2026-04-27T07:07:40Z</time></trkpt><trkpt lat="31.652657969059714" lon="-4.187054925323657"><ele>882.0</ele><time>2026-04-27T07:07:41Z</time></trkpt><trkpt lat="31.65289257715559" lon="-4.186931585414552"><ele>882.0</ele><time>2026-04-27T07:07:42Z</time></trkpt><trkpt lat="31.65313386346173" lon="-4.18681691452046"><ele>882.0</ele><time>2026-04-27T07:07:43Z</time></trkpt><trkpt lat="31.653384775941518" lon="-4.186716267719727"><ele>880.5</ele><time>2026-04-27T07:07:44Z</time></trkpt><trkpt lat="31.653641747036588" lon="-4.18663835452192"><ele>879.0</ele><time>2026-04-27T07:07:45Z</time></trkpt><trkpt lat="31.653905671442896" lon="-4.186582469991065"><ele>879.0</ele><time>2026-04-27T07:07:46Z</time></trkpt><trkpt lat="31.65417576717616" lon="-4.1865468766701674"><ele>879.0</ele><time>2026-04-27T07:07:47Z</time></trkpt><trkpt lat="31.65445044772843" lon="-4.186535723824356"><ele>880.0</ele><time>2026-04-27T07:07:48Z</time></trkpt><trkpt lat="31.654730291902688" lon="-4.18655016504602"><ele>881.0</ele><time>2026-04-27T07:07:49Z</time></trkpt><trkpt lat="31.655007267571026" lon="-4.186588008819362"><ele>881.0</ele><time>2026-04-27T07:07:50Z</time></trkpt><trkpt lat="31.655279409458025" lon="-4.1866425192628585"><ele>881.0</ele><time>2026-04-27T07:07:51Z</time></trkpt><trkpt lat="31.655551301629895" lon="-4.18670469547633"><ele>880.0</ele><time>2026-04-27T07:07:52Z</time></trkpt><trkpt lat="31.655824345881605" lon="-4.1867598842437594"><ele>879.0</ele><time>2026-04-27T07:07:53Z</time></trkpt><trkpt lat="31.6560959902754" lon="-4.186815703056512"><ele>879.0</ele><time>2026-04-27T07:07:54Z</time></trkpt><trkpt lat="31.656364453152825" lon="-4.186870403353941"><ele>879.0</ele><time>2026-04-27T07:07:55Z</time></trkpt><trkpt lat="31.65663219322738" lon="-4.18692493692637"><ele>879.0</ele><time>2026-04-27T07:07:56Z</time></trkpt><trkpt lat="31.65689231901145" lon="-4.186979892713883"><ele>879.0</ele><time>2026-04-27T07:07:57Z</time></trkpt><trkpt lat="31.657151117019048" lon="-4.187037824342569"><ele>879.5</ele><time>2026-04-27T07:07:58Z</time></trkpt><trkpt lat="31.657413016762078" lon="-4.187103347442827"><ele>880.0</ele><time>2026-04-27T07:07:59Z</time></trkpt><trkpt lat="31.657674206163787" lon="-4.18718018731138"><ele>879.5</ele><time>2026-04-27T07:08:00Z</time></trkpt><trkpt lat="31.657936388217415" lon="-4.187269032538823"><ele>879.0</ele><time>2026-04-27T07:08:01Z</time></trkpt><trkpt lat="31.658201095817493" lon="-4.187367748815976"><ele>879.0</ele><time>2026-04-27T07:08:02Z</time></trkpt><trkpt lat="31.658469260692883" lon="-4.18747209729507"><ele>879.0</ele><time>2026-04-27T07:08:03Z</time></trkpt><trkpt lat="31.65874162355041" lon="-4.187579415880612"><ele>880.0</ele><time>2026-04-27T07:08:04Z</time></trkpt><trkpt lat="31.659015724177983" lon="-4.187686899567133"><ele>881.0</ele><time>2026-04-27T07:08:05Z</time></trkpt><trkpt lat="31.659288713768877" lon="-4.187794203987008"><ele>883.0</ele><time>2026-04-27T07:08:06Z</time></trkpt><trkpt lat="31.65955824144266" lon="-4.187901113602129"><ele>885.0</ele><time>2026-04-27T07:08:07Z</time></trkpt><trkpt lat="31.659824674550915" lon="-4.188007275501086"><ele>885.0</ele><time>2026-04-27T07:08:08Z</time></trkpt><trkpt lat="31.660088164897793" lon="-4.18811193924426"><ele>885.0</ele><time>2026-04-27T07:08:08.999Z</time></trkpt><trkpt lat="31.660349153412035" lon="-4.18821967853301"><ele>886.0</ele><time>2026-04-27T07:08:09.999Z</time></trkpt><trkpt lat="31.6606066003303" lon="-4.1883330795892455"><ele>887.0</ele><time>2026-04-27T07:08:10.999Z</time></trkpt><trkpt lat="31.66086492405187" lon="-4.188457416404245"><ele>886.5</ele><time>2026-04-27T07:08:11.999Z</time></trkpt><trkpt lat="31.661123213260304" lon="-4.188591432710254"><ele>886.0</ele><time>2026-04-27T07:08:12.999Z</time></trkpt><trkpt lat="31.661380110022403" lon="-4.188729695732306"><ele>886.0</ele><time>2026-04-27T07:08:13.999Z</time></trkpt><trkpt lat="31.661639922889766" lon="-4.188866517283417"><ele>886.0</ele><time>2026-04-27T07:08:14.999Z</time></trkpt><trkpt lat="31.661904483739423" lon="-4.18900285699531"><ele>885.0</ele><time>2026-04-27T07:08:15.999Z</time></trkpt><trkpt lat="31.662169966431637" lon="-4.1891387641813544"><ele>884.0</ele><time>2026-04-27T07:08:16.999Z</time></trkpt><trkpt lat="31.662435245097832" lon="-4.189272394658023"><ele>884.0</ele><time>2026-04-27T07:08:17.999Z</time></trkpt><trkpt lat="31.66269764444334" lon="-4.189404471184471"><ele>884.0</ele><time>2026-04-27T07:08:18.999Z</time></trkpt><trkpt lat="31.66295609974879" lon="-4.189535534768216"><ele>885.0</ele><time>2026-04-27T07:08:19.999Z</time></trkpt><trkpt lat="31.663209861509575" lon="-4.189664578282261"><ele>886.0</ele><time>2026-04-27T07:08:20.999Z</time></trkpt><trkpt lat="31.663462729917978" lon="-4.189787919894259"><ele>884.0</ele><time>2026-04-27T07:08:21.999Z</time></trkpt><trkpt lat="31.663718260879087" lon="-4.189902834003889"><ele>882.0</ele><time>2026-04-27T07:08:22.999Z</time></trkpt><trkpt lat="31.663978951253608" lon="-4.190008489336013"><ele>882.0</ele><time>2026-04-27T07:08:23.999Z</time></trkpt><trkpt lat="31.664242764327753" lon="-4.190099798066495"><ele>882.0</ele><time>2026-04-27T07:08:24.999Z</time></trkpt><trkpt lat="31.664511554625197" lon="-4.190181414978764"><ele>883.0</ele><time>2026-04-27T07:08:25.999Z</time></trkpt><trkpt lat="31.664780368114478" lon="-4.190262761986236"><ele>884.0</ele><time>2026-04-27T07:08:26.999Z</time></trkpt><trkpt lat="31.665044814894003" lon="-4.190346867697278"><ele>883.5</ele><time>2026-04-27T07:08:27.999Z</time></trkpt><trkpt lat="31.665303870563616" lon="-4.190429166010052"><ele>883.0</ele><time>2026-04-27T07:08:28.999Z</time></trkpt><trkpt lat="31.66556333663248" lon="-4.190510476663655"><ele>883.0</ele><time>2026-04-27T07:08:29.999Z</time></trkpt><trkpt lat="31.66582552595375" lon="-4.190594527111044"><ele>883.0</ele><time>2026-04-27T07:08:30.999Z</time></trkpt><trkpt lat="31.66608360223664" lon="-4.190675423329504"><ele>882.5</ele><time>2026-04-27T07:08:31.999Z</time></trkpt><trkpt lat="31.666325355796527" lon="-4.190743675770739"><ele>882.0</ele><time>2026-04-27T07:08:32.999Z</time></trkpt><trkpt lat="31.66655743803143" lon="-4.190799881759798"><ele>882.0</ele><time>2026-04-27T07:08:33.999Z</time></trkpt><trkpt lat="31.66678267703409" lon="-4.190842651031646"><ele>882.0</ele><time>2026-04-27T07:08:34.999Z</time></trkpt><trkpt lat="31.667002770923013" lon="-4.19087038670288"><ele>882.0</ele><time>2026-04-27T07:08:35.999Z</time></trkpt><trkpt lat="31.66722525910559" lon="-4.190886530889826"><ele>882.5</ele><time>2026-04-27T07:08:36.999Z</time></trkpt><trkpt lat="31.667453967113158" lon="-4.190894246753098"><ele>883.0</ele><time>2026-04-27T07:08:37.999Z</time></trkpt><trkpt lat="31.667689171335386" lon="-4.190892350290002"><ele>882.5</ele><time>2026-04-27T07:08:38.999Z</time></trkpt><trkpt lat="31.66793228031439" lon="-4.190882798626881"><ele>882.0</ele><time>2026-04-27T07:08:39.999Z</time></trkpt><trkpt lat="31.668179706758195" lon="-4.1908639404980805"><ele>882.0</ele><time>2026-04-27T07:08:40.999Z</time></trkpt><trkpt lat="31.668433909234842" lon="-4.190834546578279"><ele>882.0</ele><time>2026-04-27T07:08:41.999Z</time></trkpt><trkpt lat="31.668695657929216" lon="-4.1908047081048725"><ele>881.0</ele><time>2026-04-27T07:08:42.999Z</time></trkpt><trkpt lat="31.668964672818955" lon="-4.190775286932901"><ele>880.0</ele><time>2026-04-27T07:08:43.999Z</time></trkpt><trkpt lat="31.669242260006225" lon="-4.190744861000013"><ele>878.5</ele><time>2026-04-27T07:08:44.999Z</time></trkpt><trkpt lat="31.669530281542936" lon="-4.190707399616829"><ele>877.0</ele><time>2026-04-27T07:08:45.999Z</time></trkpt><trkpt lat="31.66982397735463" lon="-4.19066127906788"><ele>883.5</ele><time>2026-04-27T07:08:46.999Z</time></trkpt><trkpt lat="31.67011975294209" lon="-4.190611733057891"><ele>890.0</ele><time>2026-04-27T07:08:47.999Z</time></trkpt><trkpt lat="31.67040693329363" lon="-4.190532446090322"><ele>894.5</ele><time>2026-04-27T07:08:48.999Z</time></trkpt><trkpt lat="31.6706935638759" lon="-4.190469023342162"><ele>899.0</ele><time>2026-04-27T07:08:49.999Z</time></trkpt><trkpt lat="31.670966712087356" lon="-4.190378673358596"><ele>895.0</ele><time>2026-04-27T07:08:51Z</time></trkpt><trkpt lat="31.671226513584717" lon="-4.1902612921593585"><ele>891.0</ele><time>2026-04-27T07:08:52Z</time></trkpt><trkpt lat="31.671485864750796" lon="-4.190134170843456"><ele>891.0</ele><time>2026-04-27T07:08:53Z</time></trkpt><trkpt lat="31.67174644408114" lon="-4.190003181956931"><ele>891.0</ele><time>2026-04-27T07:08:54Z</time></trkpt><trkpt lat="31.672009552379187" lon="-4.189868866267595"><ele>892.0</ele><time>2026-04-27T07:08:55Z</time></trkpt><trkpt lat="31.672268739343238" lon="-4.189730336936004"><ele>893.0</ele><time>2026-04-27T07:08:56Z</time></trkpt><trkpt lat="31.672520391303976" lon="-4.189583594930949"><ele>889.5</ele><time>2026-04-27T07:08:57Z</time></trkpt><trkpt lat="31.672780402987996" lon="-4.189452571733878"><ele>886.0</ele><time>2026-04-27T07:08:58Z</time></trkpt><trkpt lat="31.673049791438086" lon="-4.189336577542643"><ele>886.0</ele><time>2026-04-27T07:08:59Z</time></trkpt><trkpt lat="31.67331203188734" lon="-4.189199439329017"><ele>886.0</ele><time>2026-04-27T07:09:00Z</time></trkpt><trkpt lat="31.673586565477837" lon="-4.189080690075002"><ele>886.5</ele><time>2026-04-27T07:09:01Z</time></trkpt><trkpt lat="31.673865775362337" lon="-4.18896069595683"><ele>887.0</ele><time>2026-04-27T07:09:02Z</time></trkpt><trkpt lat="31.674141928776343" lon="-4.188842031049562"><ele>887.0</ele><time>2026-04-27T07:09:03Z</time></trkpt><trkpt lat="31.674409714689162" lon="-4.188720151957793"><ele>887.0</ele><time>2026-04-27T07:09:04Z</time></trkpt><trkpt lat="31.674669959789387" lon="-4.188583822398258"><ele>885.5</ele><time>2026-04-27T07:09:05Z</time></trkpt><trkpt lat="31.6749239947057" lon="-4.188449919474472"><ele>884.0</ele><time>2026-04-27T07:09:06Z</time></trkpt><trkpt lat="31.675161287740554" lon="-4.188311556545185"><ele>885.5</ele><time>2026-04-27T07:09:07Z</time></trkpt><trkpt lat="31.675395327249177" lon="-4.188146299696253"><ele>887.0</ele><time>2026-04-27T07:09:08Z</time></trkpt><trkpt lat="31.675623419448975" lon="-4.187965604437493"><ele>887.0</ele><time>2026-04-27T07:09:09Z</time></trkpt><trkpt lat="31.67585235027529" lon="-4.187760909494863"><ele>887.0</ele><time>2026-04-27T07:09:10Z</time></trkpt><trkpt lat="31.676072211446765" lon="-4.18753444313366"><ele>888.5</ele><time>2026-04-27T07:09:11Z</time></trkpt><trkpt lat="31.67629219880582" lon="-4.187317266416978"><ele>890.0</ele><time>2026-04-27T07:09:12Z</time></trkpt><trkpt lat="31.676507366273242" lon="-4.18710565258001"><ele>890.0</ele><time>2026-04-27T07:09:13Z</time></trkpt><trkpt lat="31.676713923374635" lon="-4.186893222187988"><ele>890.0</ele><time>2026-04-27T07:09:14Z</time></trkpt><trkpt lat="31.676917747340408" lon="-4.186687063334708"><ele>893.0</ele><time>2026-04-27T07:09:15Z</time></trkpt><trkpt lat="31.67712463997155" lon="-4.186489052338193"><ele>896.0</ele><time>2026-04-27T07:09:16Z</time></trkpt><trkpt lat="31.67733498017838" lon="-4.1863007312214915"><ele>896.0</ele><time>2026-04-27T07:09:17Z</time></trkpt><trkpt lat="31.6775541300465" lon="-4.186138160278159"><ele>896.0</ele><time>2026-04-27T07:09:18Z</time></trkpt><trkpt lat="31.677769877060175" lon="-4.185975524149043"><ele>896.5</ele><time>2026-04-27T07:09:19Z</time></trkpt><trkpt lat="31.677979205193136" lon="-4.185817185621038"><ele>897.0</ele><time>2026-04-27T07:09:20Z</time></trkpt><trkpt lat="31.678168471537916" lon="-4.185645208344919"><ele>897.0</ele><time>2026-04-27T07:09:21Z</time></trkpt><trkpt lat="31.678346104607435" lon="-4.18544303944035"><ele>897.0</ele><time>2026-04-27T07:09:22Z</time></trkpt><trkpt lat="31.67851867599139" lon="-4.185231769927791"><ele>895.0</ele><time>2026-04-27T07:09:23Z</time></trkpt><trkpt lat="31.678689682340487" lon="-4.1850093701988325"><ele>893.0</ele><time>2026-04-27T07:09:24Z</time></trkpt><trkpt lat="31.67887817460664" lon="-4.184805076886994"><ele>893.0</ele><time>2026-04-27T07:09:25Z</time></trkpt><trkpt lat="31.679085053500597" lon="-4.184622233679037"><ele>893.0</ele><time>2026-04-27T07:09:26Z</time></trkpt><trkpt lat="31.679270084590136" lon="-4.184424137026196"><ele>890.0</ele><time>2026-04-27T07:09:27Z</time></trkpt><trkpt lat="31.679446693489485" lon="-4.184221312422512"><ele>887.0</ele><time>2026-04-27T07:09:28Z</time></trkpt><trkpt lat="31.67961431978317" lon="-4.184004480907277"><ele>887.0</ele><time>2026-04-27T07:09:29Z</time></trkpt><trkpt lat="31.67977465616692" lon="-4.183765980961216"><ele>887.0</ele><time>2026-04-27T07:09:30Z</time></trkpt><trkpt lat="31.679925131281514" lon="-4.1835221019452975"><ele>887.0</ele><time>2026-04-27T07:09:31Z</time></trkpt><trkpt lat="31.680070914118588" lon="-4.183270287912145"><ele>887.0</ele><time>2026-04-27T07:09:32Z</time></trkpt><trkpt lat="31.68024451264172" lon="-4.183046601893024"><ele>888.0</ele><time>2026-04-27T07:09:33Z</time></trkpt><trkpt lat="31.680441320874007" lon="-4.182853114570556"><ele>889.0</ele><time>2026-04-27T07:09:34Z</time></trkpt><trkpt lat="31.680618638211687" lon="-4.182643258761694"><ele>889.0</ele><time>2026-04-27T07:09:35Z</time></trkpt><trkpt lat="31.680799475040978" lon="-4.18244561226787"><ele>889.0</ele><time>2026-04-27T07:09:36Z</time></trkpt><trkpt lat="31.680968380372907" lon="-4.182233228670407"><ele>888.0</ele><time>2026-04-27T07:09:37Z</time></trkpt><trkpt lat="31.681135243794476" lon="-4.182013464326795"><ele>887.0</ele><time>2026-04-27T07:09:38Z</time></trkpt><trkpt lat="31.681309713833603" lon="-4.1817972789000795"><ele>887.0</ele><time>2026-04-27T07:09:39Z</time></trkpt><trkpt lat="31.681492285783328" lon="-4.18160250093391"><ele>887.0</ele><time>2026-04-27T07:09:40Z</time></trkpt><trkpt lat="31.68167270140406" lon="-4.181416822471278"><ele>887.0</ele><time>2026-04-27T07:09:41Z</time></trkpt><trkpt lat="31.6818477494127" lon="-4.18123666819537"><ele>887.0</ele><time>2026-04-27T07:09:42Z</time></trkpt><trkpt lat="31.68202370177281" lon="-4.181065101615411"><ele>887.0</ele><time>2026-04-27T07:09:43Z</time></trkpt><trkpt lat="31.682277104030344" lon="-4.18100376322967"><ele>887.0</ele><time>2026-04-27T07:09:44Z</time></trkpt><trkpt lat="31.682434698360144" lon="-4.180815109289424"><ele>891.5</ele><time>2026-04-27T07:09:45Z</time></trkpt><trkpt lat="31.682567236606843" lon="-4.180588917938797"><ele>896.0</ele><time>2026-04-27T07:09:46Z</time></trkpt><trkpt lat="31.68267369162388" lon="-4.180350882858075"><ele>892.3333333333334</ele><time>2026-04-27T07:09:47Z</time></trkpt><trkpt lat="31.68276679486026" lon="-4.180108104467357"><ele>888.6666666666667</ele><time>2026-04-27T07:09:48Z</time></trkpt><trkpt lat="31.682863173260753" lon="-4.179872582332244"><ele>885.0</ele><time>2026-04-27T07:09:49Z</time></trkpt><trkpt lat="31.682959537641114" lon="-4.1796461828155795"><ele>885.0</ele><time>2026-04-27T07:09:50Z</time></trkpt><trkpt lat="31.683052874541104" lon="-4.179422856098818"><ele>885.0</ele><time>2026-04-27T07:09:51Z</time></trkpt><trkpt lat="31.68314896893136" lon="-4.1792060423356014"><ele>885.0</ele><time>2026-04-27T07:09:52Z</time></trkpt><trkpt lat="31.683251929508067" lon="-4.179012565771005"><ele>885.0</ele><time>2026-04-27T07:09:53Z</time></trkpt><trkpt lat="31.68336889610983" lon="-4.178838913508142"><ele>885.0</ele><time>2026-04-27T07:09:54Z</time></trkpt><trkpt lat="31.683500420580486" lon="-4.17868573547674"><ele>885.0</ele><time>2026-04-27T07:09:55Z</time></trkpt><trkpt lat="31.683643096366154" lon="-4.178552027724244"><ele>884.6666666666667</ele><time>2026-04-27T07:09:56Z</time></trkpt><trkpt lat="31.683797793787598" lon="-4.178433379700036"><ele>884.3333333333334</ele><time>2026-04-27T07:09:57Z</time></trkpt><trkpt lat="31.683963658660602" lon="-4.178327022012884"><ele>884.0</ele><time>2026-04-27T07:09:58Z</time></trkpt><trkpt lat="31.684135482218966" lon="-4.178242714022004"><ele>884.0</ele><time>2026-04-27T07:09:59Z</time></trkpt><trkpt lat="31.684315873976335" lon="-4.178185474411705"><ele>884.0</ele><time>2026-04-27T07:10:00Z</time></trkpt><trkpt lat="31.684506485439467" lon="-4.1781545389628585"><ele>884.0</ele><time>2026-04-27T07:10:01Z</time></trkpt><trkpt lat="31.684706111593954" lon="-4.178144283207788"><ele>885.3333333333334</ele><time>2026-04-27T07:10:02Z</time></trkpt><trkpt lat="31.684914040751046" lon="-4.178158569006915"><ele>886.6666666666667</ele><time>2026-04-27T07:10:03Z</time></trkpt><trkpt lat="31.685120646401856" lon="-4.178190988081033"><ele>888.0</ele><time>2026-04-27T07:10:04Z</time></trkpt><trkpt lat="31.685316532646993" lon="-4.178232692544866"><ele>889.0</ele><time>2026-04-27T07:10:05Z</time></trkpt><trkpt lat="31.685502331739883" lon="-4.178280133811757"><ele>890.0</ele><time>2026-04-27T07:10:06Z</time></trkpt><trkpt lat="31.68568219642906" lon="-4.1783294291113835"><ele>891.0</ele><time>2026-04-27T07:10:07Z</time></trkpt><trkpt lat="31.68584751927724" lon="-4.178376848095539"><ele>891.0</ele><time>2026-04-27T07:10:08Z</time></trkpt><trkpt lat="31.68600797414469" lon="-4.178421062830918"><ele>891.0</ele><time>2026-04-27T07:10:09Z</time></trkpt><trkpt lat="31.686167181598016" lon="-4.178464377282826"><ele>891.0</ele><time>2026-04-27T07:10:09.999Z</time></trkpt><trkpt lat="31.686323903340007" lon="-4.178509773503453"><ele>891.0</ele><time>2026-04-27T07:10:10.999Z</time></trkpt><trkpt lat="31.68647846162096" lon="-4.178555125047"><ele>891.0</ele><time>2026-04-27T07:10:11.999Z</time></trkpt><trkpt lat="31.686629936237814" lon="-4.178605381015361"><ele>891.0</ele><time>2026-04-27T07:10:12.999Z</time></trkpt><trkpt lat="31.686775648043866" lon="-4.17865909543885"><ele>891.0</ele><time>2026-04-27T07:10:13.999Z</time></trkpt><trkpt lat="31.686916125850313" lon="-4.17872319056793"><ele>891.0</ele><time>2026-04-27T07:10:14.999Z</time></trkpt><trkpt lat="31.687056491101803" lon="-4.178797681593788"><ele>891.0</ele><time>2026-04-27T07:10:15.999Z</time></trkpt><trkpt lat="31.687200514992398" lon="-4.1788792608212155"><ele>892.0</ele><time>2026-04-27T07:10:16.999Z</time></trkpt><trkpt lat="31.68735273532635" lon="-4.178971917816658"><ele>893.0</ele><time>2026-04-27T07:10:17.999Z</time></trkpt><trkpt lat="31.687506725036343" lon="-4.179074748350656"><ele>894.0</ele><time>2026-04-27T07:10:18.999Z</time></trkpt><trkpt lat="31.687664342812084" lon="-4.179184309592517"><ele>894.3333333333333</ele><time>2026-04-27T07:10:19.999Z</time></trkpt><trkpt lat="31.687825867228003" lon="-4.179297155331249"><ele>894.6666666666666</ele><time>2026-04-27T07:10:20.999Z</time></trkpt><trkpt lat="31.68799143649825" lon="-4.179415906108241"><ele>895.0</ele><time>2026-04-27T07:10:21.999Z</time></trkpt><trkpt lat="31.688156790235773" lon="-4.179538520868045"><ele>895.0</ele><time>2026-04-27T07:10:22.999Z</time></trkpt><trkpt lat="31.688323205348212" lon="-4.1796693719351135"><ele>895.0</ele><time>2026-04-27T07:10:23.999Z</time></trkpt><trkpt lat="31.688490985119934" lon="-4.179808577871837"><ele>895.0</ele><time>2026-04-27T07:10:24.999Z</time></trkpt><trkpt lat="31.68865532522917" lon="-4.17995382690198"><ele>895.6666666666666</ele><time>2026-04-27T07:10:25.999Z</time></trkpt><trkpt lat="31.68881910637752" lon="-4.180103187075515"><ele>896.3333333333333</ele><time>2026-04-27T07:10:26.999Z</time></trkpt><trkpt lat="31.688980403372582" lon="-4.1802526843451595"><ele>897.0</ele><time>2026-04-27T07:10:27.999Z</time></trkpt><trkpt lat="31.68913958047483" lon="-4.180405679691879"><ele>897.0</ele><time>2026-04-27T07:10:28.999Z</time></trkpt><trkpt lat="31.68930093182087" lon="-4.180563214117983"><ele>897.0</ele><time>2026-04-27T07:10:29.999Z</time></trkpt><trkpt lat="31.689466075119682" lon="-4.180717798135872"><ele>897.0</ele><time>2026-04-27T07:10:30.999Z</time></trkpt><trkpt lat="31.68963126860623" lon="-4.180864181690794"><ele>896.6666666666667</ele><time>2026-04-27T07:10:31.999Z</time></trkpt><trkpt lat="31.689803744403548" lon="-4.181001124312058"><ele>896.3333333333334</ele><time>2026-04-27T07:10:32.999Z</time></trkpt><trkpt lat="31.689985430883347" lon="-4.181122758244021"><ele>896.0</ele><time>2026-04-27T07:10:33.999Z</time></trkpt><trkpt lat="31.69018182809195" lon="-4.181224386077987"><ele>897.3333333333334</ele><time>2026-04-27T07:10:34.999Z</time></trkpt><trkpt lat="31.690388859649666" lon="-4.181318807443958"><ele>898.6666666666667</ele><time>2026-04-27T07:10:35.999Z</time></trkpt><trkpt lat="31.69059547674626" lon="-4.181416968160971"><ele>900.0</ele><time>2026-04-27T07:10:36.999Z</time></trkpt><trkpt lat="31.69080748616651" lon="-4.1815136261110455"><ele>900.3333333333333</ele><time>2026-04-27T07:10:37.999Z</time></trkpt><trkpt lat="31.691017417205135" lon="-4.18160639804016"><ele>900.6666666666666</ele><time>2026-04-27T07:10:38.999Z</time></trkpt><trkpt lat="31.691226617824327" lon="-4.181698855400787"><ele>901.0</ele><time>2026-04-27T07:10:39.999Z</time></trkpt><trkpt lat="31.691429964154086" lon="-4.181784867865178"><ele>901.0</ele><time>2026-04-27T07:10:40.999Z</time></trkpt><trkpt lat="31.69162969938898" lon="-4.181860007656794"><ele>901.0</ele><time>2026-04-27T07:10:41.999Z</time></trkpt><trkpt lat="31.69182806741546" lon="-4.18192250704979"><ele>901.0</ele><time>2026-04-27T07:10:42.999Z</time></trkpt><trkpt lat="31.692029665522934" lon="-4.181973959191578"><ele>903.3333333333333</ele><time>2026-04-27T07:10:43.999Z</time></trkpt><trkpt lat="31.692230536781757" lon="-4.18201366169007"><ele>905.6666666666667</ele><time>2026-04-27T07:10:44.999Z</time></trkpt><trkpt lat="31.692433012015044" lon="-4.182044729107932"><ele>908.0</ele><time>2026-04-27T07:10:45.999Z</time></trkpt><trkpt lat="31.69263700523629" lon="-4.182070979590618"><ele>911.3333333333334</ele><time>2026-04-27T07:10:46.999Z</time></trkpt><trkpt lat="31.69284172579509" lon="-4.18210161050987"><ele>914.6666666666667</ele><time>2026-04-27T07:10:47.999Z</time></trkpt><trkpt lat="31.693045686939495" lon="-4.182138611906556"><ele>918.0</ele><time>2026-04-27T07:10:48.999Z</time></trkpt><trkpt lat="31.6932499403202" lon="-4.182185500499181"><ele>918.0</ele><time>2026-04-27T07:10:49.999Z</time></trkpt><trkpt lat="31.69345514077951" lon="-4.182243473821117"><ele>918.0</ele><time>2026-04-27T07:10:50.999Z</time></trkpt><trkpt lat="31.693662431733525" lon="-4.1823120533435505"><ele>918.0</ele><time>2026-04-27T07:10:51.999Z</time></trkpt><trkpt lat="31.693870887211133" lon="-4.182388854319838"><ele>917.6666666666667</ele><time>2026-04-27T07:10:52.999Z</time></trkpt><trkpt lat="31.694077505753825" lon="-4.182469819525051"><ele>917.3333333333334</ele><time>2026-04-27T07:10:53.999Z</time></trkpt><trkpt lat="31.694283458295434" lon="-4.182553168428171"><ele>917.0</ele><time>2026-04-27T07:10:54.999Z</time></trkpt><trkpt lat="31.694491824402697" lon="-4.182641387928875"><ele>917.0</ele><time>2026-04-27T07:10:55.999Z</time></trkpt><trkpt lat="31.694710329617614" lon="-4.182705594039886"><ele>917.0</ele><time>2026-04-27T07:10:57Z</time></trkpt><trkpt lat="31.69492587851392" lon="-4.182791369525248"><ele>917.0</ele><time>2026-04-27T07:10:58Z</time></trkpt><trkpt lat="31.6951455939276" lon="-4.182878977257656"><ele>917.0</ele><time>2026-04-27T07:10:59Z</time></trkpt><trkpt lat="31.695367150437196" lon="-4.1829655728869515"><ele>917.5</ele><time>2026-04-27T07:11:00Z</time></trkpt><trkpt lat="31.695585519596104" lon="-4.183065806713901"><ele>918.0</ele><time>2026-04-27T07:11:01Z</time></trkpt><trkpt lat="31.69581061012106" lon="-4.1831563742652165"><ele>917.0</ele><time>2026-04-27T07:11:02Z</time></trkpt><trkpt lat="31.69603666963017" lon="-4.183257458484175"><ele>916.0</ele><time>2026-04-27T07:11:03Z</time></trkpt><trkpt lat="31.696267826436358" lon="-4.183346126501914"><ele>916.0</ele><time>2026-04-27T07:11:04Z</time></trkpt><trkpt lat="31.696490721827058" lon="-4.183449322864719"><ele>916.0</ele><time>2026-04-27T07:11:05Z</time></trkpt><trkpt lat="31.696705434001604" lon="-4.18355860050952"><ele>916.0</ele><time>2026-04-27T07:11:06Z</time></trkpt><trkpt lat="31.696902392467866" lon="-4.1836877764360265"><ele>916.0</ele><time>2026-04-27T07:11:07Z</time></trkpt><trkpt lat="31.697099042268825" lon="-4.183791001975403"><ele>916.0</ele><time>2026-04-27T07:11:08Z</time></trkpt><trkpt lat="31.697291805485037" lon="-4.183889141440241"><ele>916.3333333333333</ele><time>2026-04-27T07:11:09Z</time></trkpt><trkpt lat="31.697454235454682" lon="-4.1840095739019745"><ele>916.6666666666667</ele><time>2026-04-27T07:11:10Z</time></trkpt><trkpt lat="31.697593097963274" lon="-4.184144273316159"><ele>917.0</ele><time>2026-04-27T07:11:11Z</time></trkpt><trkpt lat="31.697689516434068" lon="-4.1843317559771664"><ele>917.0</ele><time>2026-04-27T07:11:12Z</time></trkpt><trkpt lat="31.697745320931638" lon="-4.184520189915776"><ele>917.0</ele><time>2026-04-27T07:11:13Z</time></trkpt><trkpt lat="31.69781456771125" lon="-4.184697940559033"><ele>917.0</ele><time>2026-04-27T07:11:14Z</time></trkpt><trkpt lat="31.69791250373121" lon="-4.184843973380224"><ele>920.0</ele><time>2026-04-27T07:11:15Z</time></trkpt><trkpt lat="31.698013420773236" lon="-4.184970790196166"><ele>923.0</ele><time>2026-04-27T07:11:16Z</time></trkpt><trkpt lat="31.698134072807495" lon="-4.18507551137302"><ele>926.0</ele><time>2026-04-27T07:11:17Z</time></trkpt><trkpt lat="31.6982676820718" lon="-4.185187958890489"><ele>926.0</ele><time>2026-04-27T07:11:18Z</time></trkpt><trkpt lat="31.698391954906153" lon="-4.185300129344867"><ele>926.0</ele><time>2026-04-27T07:11:19Z</time></trkpt><trkpt lat="31.698517483005038" lon="-4.185431192083957"><ele>926.0</ele><time>2026-04-27T07:11:20Z</time></trkpt><trkpt lat="31.69863080305235" lon="-4.185601663856752"><ele>926.0</ele><time>2026-04-27T07:11:21Z</time></trkpt><trkpt lat="31.698722161050302" lon="-4.1857812452634775"><ele>926.0</ele><time>2026-04-27T07:11:22Z</time></trkpt><trkpt lat="31.69876579726018" lon="-4.185977389676031"><ele>926.0</ele><time>2026-04-27T07:11:23Z</time></trkpt><trkpt lat="31.69884354859619" lon="-4.186141869477434"><ele>926.0</ele><time>2026-04-27T07:11:24Z</time></trkpt><trkpt lat="31.698916233926955" lon="-4.186300740995615"><ele>926.0</ele><time>2026-04-27T07:11:25Z</time></trkpt><trkpt lat="31.699017361217827" lon="-4.18642853453548"><ele>926.0</ele><time>2026-04-27T07:11:26Z</time></trkpt><trkpt lat="31.6991424406699" lon="-4.186554541693903"><ele>925.0</ele><time>2026-04-27T07:11:27Z</time></trkpt><trkpt lat="31.699287558992356" lon="-4.186648019173831"><ele>924.0</ele><time>2026-04-27T07:11:28Z</time></trkpt><trkpt lat="31.699452792125616" lon="-4.186729459103813"><ele>923.0</ele><time>2026-04-27T07:11:29Z</time></trkpt><trkpt lat="31.699614854381334" lon="-4.186821985817859"><ele>923.0</ele><time>2026-04-27T07:11:30Z</time></trkpt><trkpt lat="31.699776906144745" lon="-4.186928088537937"><ele>923.0</ele><time>2026-04-27T07:11:31Z</time></trkpt><trkpt lat="31.69991346381306" lon="-4.187062014716742"><ele>923.0</ele><time>2026-04-27T07:11:32Z</time></trkpt><trkpt lat="31.700020918671818" lon="-4.187239947609087"><ele>921.3333333333334</ele><time>2026-04-27T07:11:33Z</time></trkpt><trkpt lat="31.700103151717947" lon="-4.1874174913761735"><ele>919.6666666666667</ele><time>2026-04-27T07:11:34Z</time></trkpt><trkpt lat="31.70020040361016" lon="-4.187570445872533"><ele>918.0</ele><time>2026-04-27T07:11:35Z</time></trkpt><trkpt lat="31.700304432841545" lon="-4.187720427456576"><ele>918.0</ele><time>2026-04-27T07:11:36Z</time></trkpt><trkpt lat="31.70041204917482" lon="-4.187861618689836"><ele>918.0</ele><time>2026-04-27T07:11:37Z</time></trkpt><trkpt lat="31.700551382211927" lon="-4.187992430443602"><ele>918.0</ele><time>2026-04-27T07:11:38Z</time></trkpt><trkpt lat="31.70070437573792" lon="-4.188126430438086"><ele>915.3333333333333</ele><time>2026-04-27T07:11:39Z</time></trkpt><trkpt lat="31.700872093914537" lon="-4.188253790620545"><ele>912.6666666666666</ele><time>2026-04-27T07:11:40Z</time></trkpt><trkpt lat="31.70104269773926" lon="-4.18838335710211"><ele>910.0</ele><time>2026-04-27T07:11:41Z</time></trkpt><trkpt lat="31.701215234900527" lon="-4.188496500478793"><ele>910.0</ele><time>2026-04-27T07:11:42Z</time></trkpt><trkpt lat="31.701384480691875" lon="-4.188607674617142"><ele>910.0</ele><time>2026-04-27T07:11:43Z</time></trkpt><trkpt lat="31.701553991021818" lon="-4.188697289181621"><ele>910.0</ele><time>2026-04-27T07:11:44Z</time></trkpt><trkpt lat="31.701725182870927" lon="-4.188771705852503"><ele>910.0</ele><time>2026-04-27T07:11:45Z</time></trkpt><trkpt lat="31.70190221177485" lon="-4.188828018949536"><ele>910.0</ele><time>2026-04-27T07:11:46Z</time></trkpt><trkpt lat="31.702091584545563" lon="-4.188865706079095"><ele>910.0</ele><time>2026-04-27T07:11:47Z</time></trkpt><trkpt lat="31.70228559980296" lon="-4.188894172889655"><ele>909.3333333333333</ele><time>2026-04-27T07:11:48Z</time></trkpt><trkpt lat="31.702484744083005" lon="-4.188904461235183"><ele>908.6666666666667</ele><time>2026-04-27T07:11:49Z</time></trkpt><trkpt lat="31.7026886835212" lon="-4.188913853854"><ele>908.0</ele><time>2026-04-27T07:11:50Z</time></trkpt><trkpt lat="31.702893847414956" lon="-4.188934828170712"><ele>907.3333333333334</ele><time>2026-04-27T07:11:51Z</time></trkpt><trkpt lat="31.70310159742626" lon="-4.188930392314844"><ele>906.6666666666667</ele><time>2026-04-27T07:11:52Z</time></trkpt><trkpt lat="31.703313934292442" lon="-4.188923302116321"><ele>906.0</ele><time>2026-04-27T07:11:53Z</time></trkpt><trkpt lat="31.703527232950666" lon="-4.1889191160385435"><ele>907.6666666666667</ele><time>2026-04-27T07:11:54Z</time></trkpt><trkpt lat="31.703743051800135" lon="-4.188911769568893"><ele>909.3333333333334</ele><time>2026-04-27T07:11:55Z</time></trkpt><trkpt lat="31.703960475880855" lon="-4.18890613052197"><ele>911.0</ele><time>2026-04-27T07:11:56Z</time></trkpt><trkpt lat="31.70417754517107" lon="-4.188904540258676"><ele>911.0</ele><time>2026-04-27T07:11:57Z</time></trkpt><trkpt lat="31.704394898684424" lon="-4.188905173739213"><ele>911.0</ele><time>2026-04-27T07:11:58Z</time></trkpt><trkpt lat="31.70461510652725" lon="-4.188903359664093"><ele>911.0</ele><time>2026-04-27T07:11:59Z</time></trkpt><trkpt lat="31.704839436469083" lon="-4.188899657612213"><ele>910.5</ele><time>2026-04-27T07:12:00Z</time></trkpt><trkpt lat="31.70506802903762" lon="-4.18889743377678"><ele>910.0</ele><time>2026-04-27T07:12:01Z</time></trkpt><trkpt lat="31.705299317207665" lon="-4.188895754387704"><ele>910.0</ele><time>2026-04-27T07:12:02Z</time></trkpt><trkpt lat="31.705528705577617" lon="-4.188871248850757"><ele>910.0</ele><time>2026-04-27T07:12:03Z</time></trkpt><trkpt lat="31.705750604011143" lon="-4.188866043398525"><ele>910.0</ele><time>2026-04-27T07:12:04Z</time></trkpt><trkpt lat="31.705963177031553" lon="-4.1888760633476965"><ele>910.0</ele><time>2026-04-27T07:12:05Z</time></trkpt><trkpt lat="31.706171414380194" lon="-4.188811962267426"><ele>910.0</ele><time>2026-04-27T07:12:06Z</time></trkpt><trkpt lat="31.706380742896314" lon="-4.188769165002035"><ele>908.6666666666666</ele><time>2026-04-27T07:12:07Z</time></trkpt><trkpt lat="31.70657127916696" lon="-4.188653728261812"><ele>907.3333333333333</ele><time>2026-04-27T07:12:08Z</time></trkpt><trkpt lat="31.706765339411035" lon="-4.188564542837988"><ele>906.0</ele><time>2026-04-27T07:12:09Z</time></trkpt><trkpt lat="31.7069550440784" lon="-4.188462397259898"><ele>906.6666666666667</ele><time>2026-04-27T07:12:10Z</time></trkpt><trkpt lat="31.707131629472148" lon="-4.188311558719907"><ele>907.3333333333334</ele><time>2026-04-27T07:12:11Z</time></trkpt><trkpt lat="31.70730017719303" lon="-4.1881386351272205"><ele>908.0</ele><time>2026-04-27T07:12:12Z</time></trkpt><trkpt lat="31.707467166118498" lon="-4.187957417334997"><ele>908.0</ele><time>2026-04-27T07:12:13Z</time></trkpt><trkpt lat="31.70763273989764" lon="-4.187771737221209"><ele>908.0</ele><time>2026-04-27T07:12:14Z</time></trkpt><trkpt lat="31.70779767401408" lon="-4.18758149654806"><ele>906.5</ele><time>2026-04-27T07:12:15Z</time></trkpt><trkpt lat="31.707959079337673" lon="-4.187392315861071"><ele>905.0</ele><time>2026-04-27T07:12:15.999Z</time></trkpt><trkpt lat="31.708120246970587" lon="-4.1872044320532344"><ele>905.0</ele><time>2026-04-27T07:12:16.999Z</time></trkpt><trkpt lat="31.708285584597064" lon="-4.187018587441921"><ele>905.0</ele><time>2026-04-27T07:12:17.999Z</time></trkpt><trkpt lat="31.708448636601368" lon="-4.186837417559055"><ele>905.6666666666667</ele><time>2026-04-27T07:12:18.999Z</time></trkpt><trkpt lat="31.708607680840903" lon="-4.186658212850216"><ele>906.3333333333333</ele><time>2026-04-27T07:12:19.999Z</time></trkpt><trkpt lat="31.708763133749837" lon="-4.186484992122876"><ele>907.0</ele><time>2026-04-27T07:12:20.999Z</time></trkpt><trkpt lat="31.708925364208362" lon="-4.186325469016154"><ele>907.0</ele><time>2026-04-27T07:12:21.999Z</time></trkpt><trkpt lat="31.70909795527264" lon="-4.18617258702414"><ele>907.0</ele><time>2026-04-27T07:12:22.999Z</time></trkpt><trkpt lat="31.709303012866943" lon="-4.18608625336777"><ele>907.0</ele><time>2026-04-27T07:12:23.999Z</time></trkpt><trkpt lat="31.709493314931752" lon="-4.1859749193764015"><ele>907.3333333333333</ele><time>2026-04-27T07:12:24.999Z</time></trkpt><trkpt lat="31.709691132315424" lon="-4.185878533947543"><ele>907.6666666666667</ele><time>2026-04-27T07:12:25.999Z</time></trkpt><trkpt lat="31.709894191862514" lon="-4.185798626998469"><ele>908.0</ele><time>2026-04-27T07:12:26.999Z</time></trkpt><trkpt lat="31.71007569211433" lon="-4.185672795419179"><ele>907.0</ele><time>2026-04-27T07:12:27.999Z</time></trkpt><trkpt lat="31.71024160383167" lon="-4.185521384250042"><ele>906.0</ele><time>2026-04-27T07:12:28.999Z</time></trkpt><trkpt lat="31.71039983714587" lon="-4.1853544995158325"><ele>905.0</ele><time>2026-04-27T07:12:29.999Z</time></trkpt><trkpt lat="31.710554865821162" lon="-4.185188383397244"><ele>905.0</ele><time>2026-04-27T07:12:30.999Z</time></trkpt><trkpt lat="31.710713484467433" lon="-4.185019626263603"><ele>905.0</ele><time>2026-04-27T07:12:31.999Z</time></trkpt><trkpt lat="31.710876514243214" lon="-4.1848478233344935"><ele>905.0</ele><time>2026-04-27T07:12:32.999Z</time></trkpt><trkpt lat="31.7110425064584" lon="-4.184670869888404"><ele>904.0</ele><time>2026-04-27T07:12:33.999Z</time></trkpt><trkpt lat="31.71121042030232" lon="-4.184494556979135"><ele>903.0</ele><time>2026-04-27T07:12:34.999Z</time></trkpt><trkpt lat="31.711386601916775" lon="-4.184328455943229"><ele>903.0</ele><time>2026-04-27T07:12:35.999Z</time></trkpt><trkpt lat="31.711575214257905" lon="-4.18417992204606"><ele>903.0</ele><time>2026-04-27T07:12:36.999Z</time></trkpt><trkpt lat="31.711776718335468" lon="-4.184047251833315"><ele>906.0</ele><time>2026-04-27T07:12:37.999Z</time></trkpt><trkpt lat="31.711986518550056" lon="-4.183928693038333"><ele>909.0</ele><time>2026-04-27T07:12:38.999Z</time></trkpt><trkpt lat="31.71220174202319" lon="-4.18382592244895"><ele>909.0</ele><time>2026-04-27T07:12:39.999Z</time></trkpt><trkpt lat="31.712414656755932" lon="-4.183727996139498"><ele>909.0</ele><time>2026-04-27T07:12:40.999Z</time></trkpt><trkpt lat="31.712625374095403" lon="-4.183621635019085"><ele>904.0</ele><time>2026-04-27T07:12:41.999Z</time></trkpt><trkpt lat="31.71283590326615" lon="-4.18350449595634"><ele>899.0</ele><time>2026-04-27T07:12:42.999Z</time></trkpt><trkpt lat="31.71304298786801" lon="-4.183384252445331"><ele>899.0</ele><time>2026-04-27T07:12:43.999Z</time></trkpt><trkpt lat="31.71324443588747" lon="-4.183265776980402"><ele>899.0</ele><time>2026-04-27T07:12:44.999Z</time></trkpt><trkpt lat="31.713434142602406" lon="-4.183153942411333"><ele>899.0</ele><time>2026-04-27T07:12:45.999Z</time></trkpt><trkpt lat="31.713611661296166" lon="-4.1830489013747165"><ele>900.6666666666667</ele><time>2026-04-27T07:12:46.999Z</time></trkpt><trkpt lat="31.713774021244806" lon="-4.1829448994064515"><ele>902.3333333333333</ele><time>2026-04-27T07:12:47.999Z</time></trkpt><trkpt lat="31.71391596123772" lon="-4.182822665865289"><ele>904.0</ele><time>2026-04-27T07:12:48.999Z</time></trkpt><trkpt lat="31.71404150237268" lon="-4.182674023703781"><ele>904.0</ele><time>2026-04-27T07:12:49.999Z</time></trkpt><trkpt lat="31.714156458909272" lon="-4.1825007920082955"><ele>904.0</ele><time>2026-04-27T07:12:50.999Z</time></trkpt><trkpt lat="31.714258998694525" lon="-4.182322342537526"><ele>904.0</ele><time>2026-04-27T07:12:51.999Z</time></trkpt><trkpt lat="31.714370121397067" lon="-4.182157084140966"><ele>904.0</ele><time>2026-04-27T07:12:52.999Z</time></trkpt><trkpt lat="31.714498820881456" lon="-4.182025124801783"><ele>904.0</ele><time>2026-04-27T07:12:53.999Z</time></trkpt><trkpt lat="31.71463680333836" lon="-4.181927013978138"><ele>904.0</ele><time>2026-04-27T07:12:54.999Z</time></trkpt><trkpt lat="31.714783552394" lon="-4.181858581295163"><ele>904.0</ele><time>2026-04-27T07:12:55.999Z</time></trkpt><trkpt lat="31.714935420065565" lon="-4.181818378285903"><ele>904.0</ele><time>2026-04-27T07:12:56.999Z</time></trkpt><trkpt lat="31.715089581201752" lon="-4.181810752697637"><ele>904.0</ele><time>2026-04-27T07:12:57.999Z</time></trkpt><trkpt lat="31.71523932690048" lon="-4.181839651937389"><ele>905.3333333333333</ele><time>2026-04-27T07:12:58.999Z</time></trkpt><trkpt lat="31.715391606332012" lon="-4.181898032835816"><ele>906.6666666666667</ele><time>2026-04-27T07:12:59.999Z</time></trkpt><trkpt lat="31.7155376064312" lon="-4.181986881005452"><ele>908.0</ele><time>2026-04-27T07:13:00.999Z</time></trkpt><trkpt lat="31.71567488874597" lon="-4.182101733234427"><ele>908.0</ele><time>2026-04-27T07:13:01.999Z</time></trkpt><trkpt lat="31.71580614042902" lon="-4.182236608904841"><ele>908.0</ele><time>2026-04-27T07:13:03Z</time></trkpt><trkpt lat="31.71593556999037" lon="-4.182377468379963"><ele>908.0</ele><time>2026-04-27T07:13:04Z</time></trkpt><trkpt lat="31.71606769276925" lon="-4.182511067110066"><ele>909.0</ele><time>2026-04-27T07:13:05Z</time></trkpt><trkpt lat="31.71620344134874" lon="-4.182637212106898"><ele>910.0</ele><time>2026-04-27T07:13:06Z</time></trkpt><trkpt lat="31.716342505550337" lon="-4.182759487550459"><ele>911.0</ele><time>2026-04-27T07:13:07Z</time></trkpt><trkpt lat="31.71649388167508" lon="-4.182883843508099"><ele>911.0</ele><time>2026-04-27T07:13:08Z</time></trkpt><trkpt lat="31.716659733229065" lon="-4.1829993772868415"><ele>911.0</ele><time>2026-04-27T07:13:09Z</time></trkpt><trkpt lat="31.716829923091257" lon="-4.183093833884962"><ele>911.0</ele><time>2026-04-27T07:13:10Z</time></trkpt><trkpt lat="31.717004786671584" lon="-4.183167176245603"><ele>907.6666666666667</ele><time>2026-04-27T07:13:11Z</time></trkpt><trkpt lat="31.717185469077783" lon="-4.183236845482441"><ele>904.3333333333333</ele><time>2026-04-27T07:13:12Z</time></trkpt><trkpt lat="31.717374798290354" lon="-4.183301548343158"><ele>901.0</ele><time>2026-04-27T07:13:13Z</time></trkpt><trkpt lat="31.717560483659707" lon="-4.183359467312837"><ele>904.0</ele><time>2026-04-27T07:13:14Z</time></trkpt><trkpt lat="31.71774008847193" lon="-4.183415334690862"><ele>907.0</ele><time>2026-04-27T07:13:15Z</time></trkpt><trkpt lat="31.71791412960218" lon="-4.183471000673459"><ele>910.0</ele><time>2026-04-27T07:13:16Z</time></trkpt><trkpt lat="31.718087295587978" lon="-4.1835333815689575"><ele>910.0</ele><time>2026-04-27T07:13:17Z</time></trkpt><trkpt lat="31.718264852905218" lon="-4.183609681184419"><ele>910.0</ele><time>2026-04-27T07:13:18Z</time></trkpt><trkpt lat="31.71844955654486" lon="-4.183708936349584"><ele>910.0</ele><time>2026-04-27T07:13:19Z</time></trkpt><trkpt lat="31.718637609972824" lon="-4.183834965557958"><ele>909.0</ele><time>2026-04-27T07:13:20Z</time></trkpt><trkpt lat="31.718830782626124" lon="-4.1839825862867395"><ele>908.0</ele><time>2026-04-27T07:13:21Z</time></trkpt><trkpt lat="31.719024093078755" lon="-4.184131146474419"><ele>908.0</ele><time>2026-04-27T07:13:22Z</time></trkpt><trkpt lat="31.719219273445283" lon="-4.18427243541542"><ele>908.0</ele><time>2026-04-27T07:13:23Z</time></trkpt><trkpt lat="31.719413206790207" lon="-4.184405571582583"><ele>912.0</ele><time>2026-04-27T07:13:24Z</time></trkpt><trkpt lat="31.71960048267409" lon="-4.184530788426149"><ele>916.0</ele><time>2026-04-27T07:13:25Z</time></trkpt><trkpt lat="31.71977276313088" lon="-4.184649045499853"><ele>920.0</ele><time>2026-04-27T07:13:26Z</time></trkpt><trkpt lat="31.719931132766142" lon="-4.184760917417818"><ele>916.0</ele><time>2026-04-27T07:13:27Z</time></trkpt><trkpt lat="31.720087441374783" lon="-4.1848697141880535"><ele>912.0</ele><time>2026-04-27T07:13:28Z</time></trkpt><trkpt lat="31.720244029228358" lon="-4.184977484671313"><ele>908.0</ele><time>2026-04-27T07:13:29Z</time></trkpt><trkpt lat="31.720402107143133" lon="-4.185086497283979"><ele>908.0</ele><time>2026-04-27T07:13:30Z</time></trkpt><trkpt lat="31.72055972155692" lon="-4.185197115340117"><ele>908.0</ele><time>2026-04-27T07:13:31Z</time></trkpt><trkpt lat="31.720726667922204" lon="-4.185287652806886"><ele>908.0</ele><time>2026-04-27T07:13:32Z</time></trkpt><trkpt lat="31.720872217191662" lon="-4.185419302370826"><ele>908.0</ele><time>2026-04-27T07:13:33Z</time></trkpt><trkpt lat="31.721029107461053" lon="-4.185531504498895"><ele>908.0</ele><time>2026-04-27T07:13:34Z</time></trkpt><trkpt lat="31.721183909572517" lon="-4.185650023707935"><ele>908.0</ele><time>2026-04-27T07:13:35Z</time></trkpt><trkpt lat="31.72133093226238" lon="-4.185778910693839"><ele>909.3333333333334</ele><time>2026-04-27T07:13:36Z</time></trkpt><trkpt lat="31.721487532748707" lon="-4.185892822673447"><ele>910.6666666666667</ele><time>2026-04-27T07:13:37Z</time></trkpt><trkpt lat="31.721632099906852" lon="-4.186021794725711"><ele>912.0</ele><time>2026-04-27T07:13:38Z</time></trkpt><trkpt lat="31.721770159356566" lon="-4.186141504684323"><ele>911.6666666666667</ele><time>2026-04-27T07:13:39Z</time></trkpt><trkpt lat="31.72190720680438" lon="-4.1862548076156605"><ele>911.3333333333334</ele><time>2026-04-27T07:13:40Z</time></trkpt><trkpt lat="31.721999000357243" lon="-4.186444363325305"><ele>911.0</ele><time>2026-04-27T07:13:41Z</time></trkpt><trkpt lat="31.722147818182744" lon="-4.1865567751132975"><ele>911.0</ele><time>2026-04-27T07:13:42Z</time></trkpt><trkpt lat="31.722304298567497" lon="-4.1866621930282735"><ele>911.0</ele><time>2026-04-27T07:13:43Z</time></trkpt><trkpt lat="31.722464959332402" lon="-4.186765525564382"><ele>911.0</ele><time>2026-04-27T07:13:44Z</time></trkpt><trkpt lat="31.722641590650397" lon="-4.186840756022602"><ele>910.6666666666667</ele><time>2026-04-27T07:13:45Z</time></trkpt><trkpt lat="31.72279350073689" lon="-4.186941179526357"><ele>910.3333333333333</ele><time>2026-04-27T07:13:46Z</time></trkpt><trkpt lat="31.722936404234478" lon="-4.187034881231045"><ele>910.0</ele><time>2026-04-27T07:13:47Z</time></trkpt><trkpt lat="31.723078658401107" lon="-4.1871281571727526"><ele>910.0</ele><time>2026-04-27T07:13:48Z</time></trkpt><trkpt lat="31.72322410028074" lon="-4.1872231338841415"><ele>910.0</ele><time>2026-04-27T07:13:49Z</time></trkpt><trkpt lat="31.72337262119929" lon="-4.187321130469459"><ele>910.0</ele><time>2026-04-27T07:13:50Z</time></trkpt><trkpt lat="31.723523702834452" lon="-4.187421684966824"><ele>910.6666666666666</ele><time>2026-04-27T07:13:51Z</time></trkpt><trkpt lat="31.723677783262282" lon="-4.187526352501046"><ele>911.3333333333333</ele><time>2026-04-27T07:13:52Z</time></trkpt><trkpt lat="31.72382792086524" lon="-4.187638161573757"><ele>912.0</ele><time>2026-04-27T07:13:53Z</time></trkpt><trkpt lat="31.723978445513126" lon="-4.187752952036463"><ele>912.0</ele><time>2026-04-27T07:13:54Z</time></trkpt><trkpt lat="31.724118329075512" lon="-4.187885081773834"><ele>912.0</ele><time>2026-04-27T07:13:55Z</time></trkpt><trkpt lat="31.724223915833754" lon="-4.188076026233317"><ele>912.0</ele><time>2026-04-27T07:13:56Z</time></trkpt><trkpt lat="31.724339302694723" lon="-4.188249726522834"><ele>916.6666666666667</ele><time>2026-04-27T07:13:57Z</time></trkpt><trkpt lat="31.72443741653248" lon="-4.188432913366776"><ele>921.3333333333334</ele><time>2026-04-27T07:13:58Z</time></trkpt><trkpt lat="31.724515491744576" lon="-4.188621178658193"><ele>926.0</ele><time>2026-04-27T07:13:59Z</time></trkpt><trkpt lat="31.72457745127162" lon="-4.188813075686187"><ele>926.0</ele><time>2026-04-27T07:14:00Z</time></trkpt><trkpt lat="31.724653713194563" lon="-4.188997423766758"><ele>926.0</ele><time>2026-04-27T07:14:01Z</time></trkpt><trkpt lat="31.724720999517288" lon="-4.1891769206360765"><ele>926.0</ele><time>2026-04-27T07:14:02Z</time></trkpt><trkpt lat="31.724785179983552" lon="-4.189338029451068"><ele>925.75</ele><time>2026-04-27T07:14:03Z</time></trkpt><trkpt lat="31.724849166893428" lon="-4.189493864497869"><ele>925.5</ele><time>2026-04-27T07:14:04Z</time></trkpt><trkpt lat="31.724920345908643" lon="-4.189639320107128"><ele>925.25</ele><time>2026-04-27T07:14:05Z</time></trkpt><trkpt lat="31.72500401911671" lon="-4.189762047104402"><ele>925.0</ele><time>2026-04-27T07:14:06Z</time></trkpt><trkpt lat="31.725102288600006" lon="-4.1898615142549875"><ele>926.0</ele><time>2026-04-27T07:14:07Z</time></trkpt><trkpt lat="31.725212289486112" lon="-4.189949293949002"><ele>927.0</ele><time>2026-04-27T07:14:08Z</time></trkpt><trkpt lat="31.725324792400937" lon="-4.19003540309772"><ele>928.0</ele><time>2026-04-27T07:14:09Z</time></trkpt><trkpt lat="31.725437634754336" lon="-4.190121875828186"><ele>929.0</ele><time>2026-04-27T07:14:10Z</time></trkpt><trkpt lat="31.725549458769265" lon="-4.1902080740241345"><ele>929.0</ele><time>2026-04-27T07:14:11Z</time></trkpt><trkpt lat="31.725670227251282" lon="-4.190289800542526"><ele>929.0</ele><time>2026-04-27T07:14:12Z</time></trkpt><trkpt lat="31.725790965916215" lon="-4.190383385383209"><ele>929.0</ele><time>2026-04-27T07:14:13Z</time></trkpt><trkpt lat="31.72589075538306" lon="-4.19051593706917"><ele>929.0</ele><time>2026-04-27T07:14:14Z</time></trkpt><trkpt lat="31.72599388376727" lon="-4.190653555016534"><ele>933.0</ele><time>2026-04-27T07:14:15Z</time></trkpt><trkpt lat="31.726078903669436" lon="-4.190811326943465"><ele>937.0</ele><time>2026-04-27T07:14:16Z</time></trkpt><trkpt lat="31.726169901789923" lon="-4.190957838066062"><ele>941.0</ele><time>2026-04-27T07:14:17Z</time></trkpt><trkpt lat="31.726253969540014" lon="-4.191102499153769"><ele>941.0</ele><time>2026-04-27T07:14:18Z</time></trkpt><trkpt lat="31.72632274100528" lon="-4.191235720860611"><ele>941.0</ele><time>2026-04-27T07:14:18.999Z</time></trkpt><trkpt lat="31.72639110781325" lon="-4.19135642491417"><ele>941.0</ele><time>2026-04-27T07:14:19.999Z</time></trkpt><trkpt lat="31.726477625370368" lon="-4.191469577585811"><ele>941.0</ele><time>2026-04-27T07:14:20.999Z</time></trkpt><trkpt lat="31.72657671459403" lon="-4.191588197681462"><ele>938.5</ele><time>2026-04-27T07:14:21.999Z</time></trkpt><trkpt lat="31.726667610571564" lon="-4.191710099745076"><ele>936.0</ele><time>2026-04-27T07:14:22.999Z</time></trkpt><trkpt lat="31.72677832232645" lon="-4.191811945406095"><ele>933.5</ele><time>2026-04-27T07:14:23.999Z</time></trkpt><trkpt lat="31.726875077298505" lon="-4.191938063059633"><ele>931.0</ele><time>2026-04-27T07:14:24.999Z</time></trkpt><trkpt lat="31.726959364936267" lon="-4.192089218802212"><ele>937.0</ele><time>2026-04-27T07:14:25.999Z</time></trkpt><trkpt lat="31.72703890314097" lon="-4.192246253411833"><ele>943.0</ele><time>2026-04-27T07:14:26.999Z</time></trkpt><trkpt lat="31.727065154521213" lon="-4.192434960515226"><ele>949.0</ele><time>2026-04-27T07:14:27.999Z</time></trkpt><trkpt lat="31.72708320610394" lon="-4.1926165118234024"><ele>949.0</ele><time>2026-04-27T07:14:28.999Z</time></trkpt><trkpt lat="31.72707806070353" lon="-4.1927917522164"><ele>949.0</ele><time>2026-04-27T07:14:29.999Z</time></trkpt><trkpt lat="31.727092081938828" lon="-4.192950440901766"><ele>949.0</ele><time>2026-04-27T07:14:30.999Z</time></trkpt><trkpt lat="31.727104822237227" lon="-4.19312007043711"><ele>949.0</ele><time>2026-04-27T07:14:31.999Z</time></trkpt><trkpt lat="31.72714896083526" lon="-4.193273992569672"><ele>948.3333333333333</ele><time>2026-04-27T07:14:32.999Z</time></trkpt><trkpt lat="31.72721990488997" lon="-4.193422461338162"><ele>947.6666666666667</ele><time>2026-04-27T07:14:33.999Z</time></trkpt><trkpt lat="31.72729177779981" lon="-4.1935864845398605"><ele>947.0</ele><time>2026-04-27T07:14:34.999Z</time></trkpt><trkpt lat="31.727350279543554" lon="-4.193754866917731"><ele>947.0</ele><time>2026-04-27T07:14:35.999Z</time></trkpt><trkpt lat="31.727430673886374" lon="-4.1939133017379735"><ele>947.0</ele><time>2026-04-27T07:14:36.999Z</time></trkpt><trkpt lat="31.727507958501366" lon="-4.194077402523256"><ele>947.0</ele><time>2026-04-27T07:14:37.999Z</time></trkpt><trkpt lat="31.727586924805536" lon="-4.194242880508144"><ele>945.3333333333334</ele><time>2026-04-27T07:14:38.999Z</time></trkpt><trkpt lat="31.727671355368464" lon="-4.194413692794411"><ele>943.6666666666667</ele><time>2026-04-27T07:14:39.999Z</time></trkpt><trkpt lat="31.72775461710548" lon="-4.19458472655807"><ele>942.0</ele><time>2026-04-27T07:14:40.999Z</time></trkpt><trkpt lat="31.72783709899762" lon="-4.19476537557101"><ele>947.3333333333333</ele><time>2026-04-27T07:14:41.999Z</time></trkpt><trkpt lat="31.727912873202364" lon="-4.194947570069657"><ele>952.6666666666666</ele><time>2026-04-27T07:14:42.999Z</time></trkpt><trkpt lat="31.727997267826428" lon="-4.195116623239885"><ele>958.0</ele><time>2026-04-27T07:14:43.999Z</time></trkpt><trkpt lat="31.7280285428003" lon="-4.195310738536876"><ele>958.0</ele><time>2026-04-27T07:14:44.999Z</time></trkpt><trkpt lat="31.728058569430686" lon="-4.195498754821754"><ele>958.0</ele><time>2026-04-27T07:14:45.999Z</time></trkpt><trkpt lat="31.72807094891468" lon="-4.19568889441582"><ele>958.0</ele><time>2026-04-27T07:14:46.999Z</time></trkpt><trkpt lat="31.728086779470136" lon="-4.1958709546611725"><ele>956.0</ele><time>2026-04-27T07:14:47.999Z</time></trkpt><trkpt lat="31.72810129490238" lon="-4.196043986753751"><ele>954.0</ele><time>2026-04-27T07:14:48.999Z</time></trkpt><trkpt lat="31.728129694139177" lon="-4.196215234054806"><ele>952.0</ele><time>2026-04-27T07:14:49.999Z</time></trkpt><trkpt lat="31.728168052691117" lon="-4.196377765927552"><ele>950.0</ele><time>2026-04-27T07:14:50.999Z</time></trkpt><trkpt lat="31.728231416134438" lon="-4.1965267806465585"><ele>951.25</ele><time>2026-04-27T07:14:51.999Z</time></trkpt><trkpt lat="31.728297746186737" lon="-4.196678263563893"><ele>952.5</ele><time>2026-04-27T07:14:52.999Z</time></trkpt><trkpt lat="31.728398951783088" lon="-4.196797707970065"><ele>953.75</ele><time>2026-04-27T07:14:53.999Z</time></trkpt><trkpt lat="31.728507499522554" lon="-4.196892580903495"><ele>955.0</ele><time>2026-04-27T07:14:54.999Z</time></trkpt><trkpt lat="31.728628038177902" lon="-4.196965618263723"><ele>955.0</ele><time>2026-04-27T07:14:55.999Z</time></trkpt><trkpt lat="31.728758870960235" lon="-4.197014203501836"><ele>955.0</ele><time>2026-04-27T07:14:56.999Z</time></trkpt><trkpt lat="31.728901979652697" lon="-4.197032419197645"><ele>955.0</ele><time>2026-04-27T07:14:57.999Z</time></trkpt><trkpt lat="31.729048875065907" lon="-4.197038074844022"><ele>955.0</ele><time>2026-04-27T07:14:58.999Z</time></trkpt><trkpt lat="31.729195661646735" lon="-4.197047682662681"><ele>955.0</ele><time>2026-04-27T07:14:59.999Z</time></trkpt><trkpt lat="31.72934024607567" lon="-4.197074224453464"><ele>955.0</ele><time>2026-04-27T07:15:00.999Z</time></trkpt><trkpt lat="31.729477475581042" lon="-4.197125802196216"><ele>955.0</ele><time>2026-04-27T07:15:01.999Z</time></trkpt><trkpt lat="31.72960249384982" lon="-4.1971944226378355"><ele>955.0</ele><time>2026-04-27T07:15:02.999Z</time></trkpt><trkpt lat="31.729719141916803" lon="-4.1972782349957365"><ele>950.5</ele><time>2026-04-27T07:15:03.999Z</time></trkpt><trkpt lat="31.72984035946314" lon="-4.197343561739793"><ele>946.0</ele><time>2026-04-27T07:15:04.999Z</time></trkpt><trkpt lat="31.729955439157816" lon="-4.197413035861189"><ele>941.5</ele><time>2026-04-27T07:15:05.999Z</time></trkpt><trkpt lat="31.730069502375898" lon="-4.197481588829792"><ele>937.0</ele><time>2026-04-27T07:15:06.999Z</time></trkpt><trkpt lat="31.73018812715561" lon="-4.197541239346603"><ele>938.0</ele><time>2026-04-27T07:15:08Z</time></trkpt><trkpt lat="31.730315621445275" lon="-4.197597662128041"><ele>939.0</ele><time>2026-04-27T07:15:09Z</time></trkpt><trkpt lat="31.73044772293051" lon="-4.197663003526189"><ele>940.0</ele><time>2026-04-27T07:15:10Z</time></trkpt><trkpt lat="31.730609727307733" lon="-4.197683320609298"><ele>941.0</ele><time>2026-04-27T07:15:11Z</time></trkpt><trkpt lat="31.73079675660234" lon="-4.197691550557749"><ele>941.0</ele><time>2026-04-27T07:15:12Z</time></trkpt><trkpt lat="31.730999591964785" lon="-4.197698094403811"><ele>941.0</ele><time>2026-04-27T07:15:13Z</time></trkpt><trkpt lat="31.73121092761821" lon="-4.197687055092657"><ele>941.0</ele><time>2026-04-27T07:15:14Z</time></trkpt><trkpt lat="31.731434117011304" lon="-4.197692272217307"><ele>937.0</ele><time>2026-04-27T07:15:15Z</time></trkpt><trkpt lat="31.731679274949148" lon="-4.197698022985243"><ele>933.0</ele><time>2026-04-27T07:15:16Z</time></trkpt><trkpt lat="31.731925782710068" lon="-4.197704378446121"><ele>930.0</ele><time>2026-04-27T07:15:17Z</time></trkpt><trkpt lat="31.73217164600229" lon="-4.197709581468601"><ele>927.0</ele><time>2026-04-27T07:15:18Z</time></trkpt><trkpt lat="31.732420163942137" lon="-4.197719370719985"><ele>927.0</ele><time>2026-04-27T07:15:19Z</time></trkpt><trkpt lat="31.73267087786518" lon="-4.197746277434395"><ele>927.0</ele><time>2026-04-27T07:15:20Z</time></trkpt><trkpt lat="31.732923694326058" lon="-4.197790379288679"><ele>927.5</ele><time>2026-04-27T07:15:21Z</time></trkpt><trkpt lat="31.733178538122722" lon="-4.197853972008013"><ele>928.0</ele><time>2026-04-27T07:15:22Z</time></trkpt><trkpt lat="31.73343912119921" lon="-4.197898270291521"><ele>926.5</ele><time>2026-04-27T07:15:23Z</time></trkpt><trkpt lat="31.733700846619946" lon="-4.1979478270121975"><ele>925.0</ele><time>2026-04-27T07:15:24Z</time></trkpt><trkpt lat="31.733961634418662" lon="-4.19800003035014"><ele>925.0</ele><time>2026-04-27T07:15:25Z</time></trkpt><trkpt lat="31.73422407459769" lon="-4.198032794180994"><ele>925.0</ele><time>2026-04-27T07:15:26Z</time></trkpt><trkpt lat="31.7344863671785" lon="-4.1980797247808335"><ele>925.5</ele><time>2026-04-27T07:15:27Z</time></trkpt><trkpt lat="31.73474308868235" lon="-4.19812525134197"><ele>926.0</ele><time>2026-04-27T07:15:28Z</time></trkpt><trkpt lat="31.734989102241954" lon="-4.198166052179643"><ele>919.5</ele><time>2026-04-27T07:15:29Z</time></trkpt><trkpt lat="31.73523001693767" lon="-4.198198294796753"><ele>913.0</ele><time>2026-04-27T07:15:30Z</time></trkpt><trkpt lat="31.73547020773286" lon="-4.198204408051521"><ele>913.0</ele><time>2026-04-27T07:15:31Z</time></trkpt><trkpt lat="31.73571689567944" lon="-4.198195305267627"><ele>913.0</ele><time>2026-04-27T07:15:32Z</time></trkpt><trkpt lat="31.73596584303861" lon="-4.198168914095941"><ele>918.0</ele><time>2026-04-27T07:15:33Z</time></trkpt><trkpt lat="31.73621804225366" lon="-4.198160647254736"><ele>923.0</ele><time>2026-04-27T07:15:34Z</time></trkpt><trkpt lat="31.736463558073332" lon="-4.198120831221134"><ele>923.0</ele><time>2026-04-27T07:15:35Z</time></trkpt><trkpt lat="31.736692630528378" lon="-4.198085127375186"><ele>923.0</ele><time>2026-04-27T07:15:36Z</time></trkpt><trkpt lat="31.73690895960196" lon="-4.198050107408104"><ele>923.0</ele><time>2026-04-27T07:15:37Z</time></trkpt><trkpt lat="31.737113728239297" lon="-4.198020818286465"><ele>923.0</ele><time>2026-04-27T07:15:38Z</time></trkpt><trkpt lat="31.737324763400732" lon="-4.19799834651905"><ele>923.0</ele><time>2026-04-27T07:15:39Z</time></trkpt><trkpt lat="31.737544650206406" lon="-4.197991538695259"><ele>923.0</ele><time>2026-04-27T07:15:40Z</time></trkpt><trkpt lat="31.73777293859288" lon="-4.198008646609714"><ele>922.5</ele><time>2026-04-27T07:15:41Z</time></trkpt><trkpt lat="31.738009830718322" lon="-4.198047586609078"><ele>922.0</ele><time>2026-04-27T07:15:42Z</time></trkpt><trkpt lat="31.73825320750071" lon="-4.198105267031588"><ele>916.5</ele><time>2026-04-27T07:15:43Z</time></trkpt><trkpt lat="31.7384997599613" lon="-4.19817117944806"><ele>911.0</ele><time>2026-04-27T07:15:44Z</time></trkpt><trkpt lat="31.738749048878688" lon="-4.198237337784178"><ele>911.0</ele><time>2026-04-27T07:15:45Z</time></trkpt><trkpt lat="31.738995257583632" lon="-4.198302715687973"><ele>911.0</ele><time>2026-04-27T07:15:46Z</time></trkpt><trkpt lat="31.739247278847795" lon="-4.19836956487891"><ele>913.5</ele><time>2026-04-27T07:15:47Z</time></trkpt><trkpt lat="31.73949650126263" lon="-4.198439565071054"><ele>916.0</ele><time>2026-04-27T07:15:48Z</time></trkpt><trkpt lat="31.739743878769776" lon="-4.198486239642509"><ele>916.0</ele><time>2026-04-27T07:15:49Z</time></trkpt><trkpt lat="31.739980392636383" lon="-4.198549022021331"><ele>916.0</ele><time>2026-04-27T07:15:50Z</time></trkpt><trkpt lat="31.74018616355959" lon="-4.198590176005841"><ele>916.0</ele><time>2026-04-27T07:15:51Z</time></trkpt><trkpt lat="31.740368165048174" lon="-4.198615896005832"><ele>916.0</ele><time>2026-04-27T07:15:52Z</time></trkpt><trkpt lat="31.740533617560338" lon="-4.198676470843301"><ele>916.0</ele><time>2026-04-27T07:15:53Z</time></trkpt><trkpt lat="31.74070173171812" lon="-4.198684762365244"><ele>916.0</ele><time>2026-04-27T07:15:54Z</time></trkpt><trkpt lat="31.740886367991717" lon="-4.1986821288662775"><ele>916.0</ele><time>2026-04-27T07:15:55Z</time></trkpt><trkpt lat="31.741090391086214" lon="-4.198666259786372"><ele>916.0</ele><time>2026-04-27T07:15:56Z</time></trkpt><trkpt lat="31.7413059788583" lon="-4.198593548876091"><ele>916.5</ele><time>2026-04-27T07:15:57Z</time></trkpt><trkpt lat="31.74154245258558" lon="-4.198547028265433"><ele>917.0</ele><time>2026-04-27T07:15:58Z</time></trkpt><trkpt lat="31.741789156626226" lon="-4.198497820050653"><ele>917.5</ele><time>2026-04-27T07:15:59Z</time></trkpt><trkpt lat="31.74202800094876" lon="-4.198450086365052"><ele>918.0</ele><time>2026-04-27T07:16:00Z</time></trkpt><trkpt lat="31.742262666375215" lon="-4.198403709872986"><ele>918.0</ele><time>2026-04-27T07:16:01Z</time></trkpt><trkpt lat="31.742504456940946" lon="-4.198355998724467"><ele>918.0</ele><time>2026-04-27T07:16:02Z</time></trkpt><trkpt lat="31.742757993507322" lon="-4.198305730109416"><ele>916.0</ele><time>2026-04-27T07:16:03Z</time></trkpt><trkpt lat="31.743011621558257" lon="-4.19825554554971"><ele>914.0</ele><time>2026-04-27T07:16:04Z</time></trkpt><trkpt lat="31.743258197338008" lon="-4.198203752270739"><ele>916.5</ele><time>2026-04-27T07:16:05Z</time></trkpt><trkpt lat="31.74350314644318" lon="-4.19813064229026"><ele>919.0</ele><time>2026-04-27T07:16:06Z</time></trkpt><trkpt lat="31.743750681646" lon="-4.198049347677022"><ele>919.0</ele><time>2026-04-27T07:16:07Z</time></trkpt><trkpt lat="31.74399813380045" lon="-4.19796887470219"><ele>919.0</ele><time>2026-04-27T07:16:08Z</time></trkpt><trkpt lat="31.74423644665148" lon="-4.197854657079126"><ele>916.5</ele><time>2026-04-27T07:16:09Z</time></trkpt><trkpt lat="31.74445331390818" lon="-4.197709642711005"><ele>914.0</ele><time>2026-04-27T07:16:10Z</time></trkpt><trkpt lat="31.74465430817009" lon="-4.19757508762833"><ele>914.0</ele><time>2026-04-27T07:16:11Z</time></trkpt><trkpt lat="31.74484748379276" lon="-4.19744593150688"><ele>914.0</ele><time>2026-04-27T07:16:12Z</time></trkpt><trkpt lat="31.745034826766293" lon="-4.1973220459015605"><ele>914.0</ele><time>2026-04-27T07:16:13Z</time></trkpt><trkpt lat="31.745214057436904" lon="-4.197182042407565"><ele>915.3333333333334</ele><time>2026-04-27T07:16:14Z</time></trkpt><trkpt lat="31.745394394391887" lon="-4.19703216938334"><ele>916.6666666666667</ele><time>2026-04-27T07:16:15Z</time></trkpt><trkpt lat="31.745565530576492" lon="-4.196864570701321"><ele>918.0</ele><time>2026-04-27T07:16:16Z</time></trkpt><trkpt lat="31.745739151470406" lon="-4.1966924673158505"><ele>918.0</ele><time>2026-04-27T07:16:17Z</time></trkpt><trkpt lat="31.74591150453298" lon="-4.196524432896562"><ele>918.0</ele><time>2026-04-27T07:16:18Z</time></trkpt><trkpt lat="31.746087482064862" lon="-4.196360954990678"><ele>918.0</ele><time>2026-04-27T07:16:19Z</time></trkpt><trkpt lat="31.746250886177688" lon="-4.196182514981185"><ele>917.6666666666667</ele><time>2026-04-27T07:16:20Z</time></trkpt><trkpt lat="31.746415686462182" lon="-4.196009848741885"><ele>917.3333333333334</ele><time>2026-04-27T07:16:21Z</time></trkpt><trkpt lat="31.74657893254542" lon="-4.195834837774993"><ele>917.0</ele><time>2026-04-27T07:16:22Z</time></trkpt><trkpt lat="31.746737781634888" lon="-4.195655009638598"><ele>916.6666666666667</ele><time>2026-04-27T07:16:22.999Z</time></trkpt><trkpt lat="31.74689678625497" lon="-4.195484396477153"><ele>916.3333333333333</ele><time>2026-04-27T07:16:23.999Z</time></trkpt><trkpt lat="31.747060617365783" lon="-4.195335957459981"><ele>916.0</ele><time>2026-04-27T07:16:24.999Z</time></trkpt><trkpt lat="31.747236208386447" lon="-4.1952112612083035"><ele>916.0</ele><time>2026-04-27T07:16:25.999Z</time></trkpt><trkpt lat="31.747425790224355" lon="-4.1951252489426585"><ele>916.0</ele><time>2026-04-27T07:16:26.999Z</time></trkpt><trkpt lat="31.747624535820627" lon="-4.195075880379095"><ele>916.0</ele><time>2026-04-27T07:16:27.999Z</time></trkpt><trkpt lat="31.747828116911876" lon="-4.195059652621691"><ele>917.0</ele><time>2026-04-27T07:16:28.999Z</time></trkpt><trkpt lat="31.748031898111442" lon="-4.195081567261075"><ele>918.0</ele><time>2026-04-27T07:16:29.999Z</time></trkpt><trkpt lat="31.748229228833956" lon="-4.195139371884001"><ele>919.0</ele><time>2026-04-27T07:16:30.999Z</time></trkpt><trkpt lat="31.748423126115984" lon="-4.195247067647172"><ele>919.3333333333333</ele><time>2026-04-27T07:16:31.999Z</time></trkpt><trkpt lat="31.748602817621666" lon="-4.195391560037051"><ele>919.6666666666667</ele><time>2026-04-27T07:16:32.999Z</time></trkpt><trkpt lat="31.748762065583552" lon="-4.1955522681903"><ele>920.0</ele><time>2026-04-27T07:16:33.999Z</time></trkpt><trkpt lat="31.74892242625975" lon="-4.195704095541084"><ele>920.0</ele><time>2026-04-27T07:16:34.999Z</time></trkpt><trkpt lat="31.74908703081105" lon="-4.195835881331059"><ele>920.0</ele><time>2026-04-27T07:16:35.999Z</time></trkpt><trkpt lat="31.749254632328867" lon="-4.195939068564544"><ele>920.0</ele><time>2026-04-27T07:16:36.999Z</time></trkpt><trkpt lat="31.749422637006628" lon="-4.196015216745704"><ele>921.3333333333334</ele><time>2026-04-27T07:16:37.999Z</time></trkpt><trkpt lat="31.74959186452178" lon="-4.196072017003757"><ele>922.6666666666667</ele><time>2026-04-27T07:16:38.999Z</time></trkpt><trkpt lat="31.749774838048246" lon="-4.196119206627836"><ele>924.0</ele><time>2026-04-27T07:16:39.999Z</time></trkpt><trkpt lat="31.749971192837574" lon="-4.1961665966521595"><ele>924.0</ele><time>2026-04-27T07:16:40.999Z</time></trkpt><trkpt lat="31.750173757520514" lon="-4.196221687005659"><ele>924.0</ele><time>2026-04-27T07:16:41.999Z</time></trkpt><trkpt lat="31.75038401845106" lon="-4.196277493777089"><ele>924.0</ele><time>2026-04-27T07:16:42.999Z</time></trkpt><trkpt lat="31.75060271078023" lon="-4.196332870002514"><ele>927.0</ele><time>2026-04-27T07:16:43.999Z</time></trkpt><trkpt lat="31.750824552103783" lon="-4.196391369781693"><ele>930.0</ele><time>2026-04-27T07:16:44.999Z</time></trkpt><trkpt lat="31.751048697556715" lon="-4.1964497640265375"><ele>930.0</ele><time>2026-04-27T07:16:45.999Z</time></trkpt><trkpt lat="31.751277193558668" lon="-4.19650069146074"><ele>930.0</ele><time>2026-04-27T07:16:46.999Z</time></trkpt><trkpt lat="31.751510877385474" lon="-4.196539946726223"><ele>924.0</ele><time>2026-04-27T07:16:47.999Z</time></trkpt><trkpt lat="31.751742850313295" lon="-4.196562105408669"><ele>918.0</ele><time>2026-04-27T07:16:48.999Z</time></trkpt><trkpt lat="31.75198043412496" lon="-4.196569044610103"><ele>917.0</ele><time>2026-04-27T07:16:49.999Z</time></trkpt><trkpt lat="31.752225991295827" lon="-4.196560018718508"><ele>916.0</ele><time>2026-04-27T07:16:50.999Z</time></trkpt><trkpt lat="31.75247879527747" lon="-4.196545005136979"><ele>918.0</ele><time>2026-04-27T07:16:51.999Z</time></trkpt><trkpt lat="31.75273829428488" lon="-4.196530725098569"><ele>920.0</ele><time>2026-04-27T07:16:52.999Z</time></trkpt><trkpt lat="31.753001777942977" lon="-4.196516393699123"><ele>925.5</ele><time>2026-04-27T07:16:53.999Z</time></trkpt><trkpt lat="31.75327012655742" lon="-4.19650125558812"><ele>931.0</ele><time>2026-04-27T07:16:54.999Z</time></trkpt><trkpt lat="31.753538306178456" lon="-4.196485571273262"><ele>933.0</ele><time>2026-04-27T07:16:55.999Z</time></trkpt><trkpt lat="31.753802207392066" lon="-4.196471875524386"><ele>935.0</ele><time>2026-04-27T07:16:56.999Z</time></trkpt><trkpt lat="31.754059438827227" lon="-4.196460049810275"><ele>935.0</ele><time>2026-04-27T07:16:57.999Z</time></trkpt><trkpt lat="31.754312851939567" lon="-4.1964457221930465"><ele>935.0</ele><time>2026-04-27T07:16:58.999Z</time></trkpt><trkpt lat="31.754562050896833" lon="-4.196429559439347"><ele>933.0</ele><time>2026-04-27T07:16:59.999Z</time></trkpt><trkpt lat="31.75480911890746" lon="-4.196414193628074"><ele>931.0</ele><time>2026-04-27T07:17:00.999Z</time></trkpt><trkpt lat="31.755057079362835" lon="-4.196404831750479"><ele>930.0</ele><time>2026-04-27T07:17:01.999Z</time></trkpt><trkpt lat="31.755302404383396" lon="-4.196409986002881"><ele>929.0</ele><time>2026-04-27T07:17:02.999Z</time></trkpt><trkpt lat="31.755544799593455" lon="-4.196432436516232"><ele>929.0</ele><time>2026-04-27T07:17:03.999Z</time></trkpt><trkpt lat="31.755789644161702" lon="-4.196474416850222"><ele>929.0</ele><time>2026-04-27T07:17:04.999Z</time></trkpt><trkpt lat="31.75603935592554" lon="-4.1965339113510725"><ele>926.5</ele><time>2026-04-27T07:17:05.999Z</time></trkpt><trkpt lat="31.75628961102342" lon="-4.196622449022087"><ele>924.0</ele><time>2026-04-27T07:17:06.999Z</time></trkpt><trkpt lat="31.756531623112895" lon="-4.19672883126723"><ele>924.0</ele><time>2026-04-27T07:17:07.999Z</time></trkpt><trkpt lat="31.756771910635262" lon="-4.196833708762316"><ele>924.0</ele><time>2026-04-27T07:17:08.999Z</time></trkpt><trkpt lat="31.75701382214885" lon="-4.196931943838465"><ele>925.0</ele><time>2026-04-27T07:17:09.999Z</time></trkpt><trkpt lat="31.757254604465857" lon="-4.197029571416388"><ele>926.0</ele><time>2026-04-27T07:17:10.999Z</time></trkpt><trkpt lat="31.757494133203345" lon="-4.197127407824027"><ele>929.5</ele><time>2026-04-27T07:17:11.999Z</time></trkpt><trkpt lat="31.757730569331525" lon="-4.197225707929565"><ele>933.0</ele><time>2026-04-27T07:17:12.999Z</time></trkpt><trkpt lat="31.75796698660187" lon="-4.197323768354419"><ele>929.0</ele><time>2026-04-27T07:17:14Z</time></trkpt><trkpt lat="31.758200732255954" lon="-4.197419968566749"><ele>925.0</ele><time>2026-04-27T07:17:15Z</time></trkpt><trkpt lat="31.758429440703846" lon="-4.197517889316778"><ele>927.5</ele><time>2026-04-27T07:17:16Z</time></trkpt><trkpt lat="31.758650254923076" lon="-4.197618699052138"><ele>930.0</ele><time>2026-04-27T07:17:17Z</time></trkpt><trkpt lat="31.758862651690304" lon="-4.1977342380506695"><ele>930.0</ele><time>2026-04-27T07:17:18Z</time></trkpt><trkpt lat="31.759067690667298" lon="-4.197876621450649"><ele>930.0</ele><time>2026-04-27T07:17:19Z</time></trkpt><trkpt lat="31.759270351310665" lon="-4.19804204807419"><ele>927.5</ele><time>2026-04-27T07:17:20Z</time></trkpt><trkpt lat="31.759471561519632" lon="-4.198219576146388"><ele>925.0</ele><time>2026-04-27T07:17:21Z</time></trkpt><trkpt lat="31.75967608499673" lon="-4.1984027327431885"><ele>925.0</ele><time>2026-04-27T07:17:22Z</time></trkpt><trkpt lat="31.759888583871717" lon="-4.1985848719211045"><ele>925.0</ele><time>2026-04-27T07:17:23Z</time></trkpt><trkpt lat="31.76010177646628" lon="-4.198764057839214"><ele>924.0</ele><time>2026-04-27T07:17:24Z</time></trkpt><trkpt lat="31.760315111593247" lon="-4.198945193470264"><ele>923.0</ele><time>2026-04-27T07:17:25Z</time></trkpt><trkpt lat="31.760555768764362" lon="-4.199079630352814"><ele>923.0</ele><time>2026-04-27T07:17:26Z</time></trkpt><trkpt lat="31.760765644064" lon="-4.199259440200625"><ele>923.0</ele><time>2026-04-27T07:17:27Z</time></trkpt><trkpt lat="31.760959415841405" lon="-4.199434898465953"><ele>932.0</ele><time>2026-04-27T07:17:28Z</time></trkpt><trkpt lat="31.76114715529723" lon="-4.199610100274991"><ele>941.0</ele><time>2026-04-27T07:17:29Z</time></trkpt><trkpt lat="31.761322795012198" lon="-4.1998052242974335"><ele>933.5</ele><time>2026-04-27T07:17:30Z</time></trkpt><trkpt lat="31.761496599888154" lon="-4.200008714556133"><ele>926.0</ele><time>2026-04-27T07:17:31Z</time></trkpt><trkpt lat="31.76167282786201" lon="-4.200219742455259"><ele>926.0</ele><time>2026-04-27T07:17:32Z</time></trkpt><trkpt lat="31.761841503292008" lon="-4.200432423912498"><ele>926.0</ele><time>2026-04-27T07:17:33Z</time></trkpt><trkpt lat="31.76201698597965" lon="-4.200617336781345"><ele>926.3333333333334</ele><time>2026-04-27T07:17:34Z</time></trkpt><trkpt lat="31.76219228287459" lon="-4.200787520663241"><ele>926.6666666666667</ele><time>2026-04-27T07:17:35Z</time></trkpt><trkpt lat="31.762354007169026" lon="-4.2009418288419065"><ele>927.0</ele><time>2026-04-27T07:17:36Z</time></trkpt><trkpt lat="31.762511282379062" lon="-4.201091532264933"><ele>927.0</ele><time>2026-04-27T07:17:37Z</time></trkpt><trkpt lat="31.762661120569927" lon="-4.2012661032041425"><ele>927.0</ele><time>2026-04-27T07:17:38Z</time></trkpt><trkpt lat="31.762803264962667" lon="-4.201437398524068"><ele>927.0</ele><time>2026-04-27T07:17:39Z</time></trkpt><trkpt lat="31.762946404733132" lon="-4.201605623063564"><ele>927.0</ele><time>2026-04-27T07:17:40Z</time></trkpt><trkpt lat="31.763089792823934" lon="-4.201776862888419"><ele>927.0</ele><time>2026-04-27T07:17:41Z</time></trkpt><trkpt lat="31.76322992604865" lon="-4.201962618055713"><ele>927.0</ele><time>2026-04-27T07:17:42Z</time></trkpt><trkpt lat="31.763365777178894" lon="-4.202172727557862"><ele>924.5</ele><time>2026-04-27T07:17:43Z</time></trkpt><trkpt lat="31.763475363620827" lon="-4.202410806860825"><ele>922.0</ele><time>2026-04-27T07:17:44Z</time></trkpt><trkpt lat="31.763575333142217" lon="-4.202659717047441"><ele>928.0</ele><time>2026-04-27T07:17:45Z</time></trkpt><trkpt lat="31.76367126920428" lon="-4.202914561279831"><ele>934.0</ele><time>2026-04-27T07:17:46Z</time></trkpt><trkpt lat="31.763778909366202" lon="-4.203163794510424"><ele>930.0</ele><time>2026-04-27T07:17:47Z</time></trkpt><trkpt lat="31.763891439257158" lon="-4.203414500643595"><ele>926.0</ele><time>2026-04-27T07:17:48Z</time></trkpt><trkpt lat="31.764005110077466" lon="-4.203667255688297"><ele>926.0</ele><time>2026-04-27T07:17:49Z</time></trkpt><trkpt lat="31.764114324019378" lon="-4.203933825748081"><ele>926.0</ele><time>2026-04-27T07:17:50Z</time></trkpt><trkpt lat="31.764223619100107" lon="-4.204204600543488"><ele>924.5</ele><time>2026-04-27T07:17:51Z</time></trkpt><trkpt lat="31.764334370121126" lon="-4.204476873362021"><ele>923.0</ele><time>2026-04-27T07:17:52Z</time></trkpt><trkpt lat="31.764452393116215" lon="-4.204751598292351"><ele>925.5</ele><time>2026-04-27T07:17:53Z</time></trkpt><trkpt lat="31.764563093422566" lon="-4.2050328919603945"><ele>928.0</ele><time>2026-04-27T07:17:54Z</time></trkpt><trkpt lat="31.764664944175195" lon="-4.205316655477299"><ele>928.0</ele><time>2026-04-27T07:17:55Z</time></trkpt><trkpt lat="31.764768095870007" lon="-4.205597302000912"><ele>928.0</ele><time>2026-04-27T07:17:56Z</time></trkpt><trkpt lat="31.764872056095133" lon="-4.205880269760888"><ele>928.5</ele><time>2026-04-27T07:17:57Z</time></trkpt><trkpt lat="31.76497202734846" lon="-4.206162184761667"><ele>929.0</ele><time>2026-04-27T07:17:58Z</time></trkpt><trkpt lat="31.76507527536159" lon="-4.206438981847664"><ele>927.0</ele><time>2026-04-27T07:17:59Z</time></trkpt><trkpt lat="31.765177992436726" lon="-4.206716944975141"><ele>925.0</ele><time>2026-04-27T07:18:00Z</time></trkpt><trkpt lat="31.76527779034265" lon="-4.20699407633985"><ele>928.5</ele><time>2026-04-27T07:18:01Z</time></trkpt><trkpt lat="31.7653754857709" lon="-4.207272380271603"><ele>932.0</ele><time>2026-04-27T07:18:02Z</time></trkpt><trkpt lat="31.7654846047982" lon="-4.207542879073484"><ele>932.0</ele><time>2026-04-27T07:18:03Z</time></trkpt><trkpt lat="31.765594113056267" lon="-4.207816886172777"><ele>932.0</ele><time>2026-04-27T07:18:04Z</time></trkpt><trkpt lat="31.76570810060587" lon="-4.208095702562341"><ele>930.0</ele><time>2026-04-27T07:18:05Z</time></trkpt><trkpt lat="31.76581817386784" lon="-4.208379219564668"><ele>928.0</ele><time>2026-04-27T07:18:06Z</time></trkpt><trkpt lat="31.76583564017209" lon="-4.208716911840828"><ele>926.5</ele><time>2026-04-27T07:18:07Z</time></trkpt><trkpt lat="31.765956114283714" lon="-4.208999948976061"><ele>925.0</ele><time>2026-04-27T07:18:08Z</time></trkpt><trkpt lat="31.766090939586213" lon="-4.209278117150617"><ele>932.0</ele><time>2026-04-27T07:18:09Z</time></trkpt><trkpt lat="31.76622726120236" lon="-4.2095490151532005"><ele>939.0</ele><time>2026-04-27T07:18:10Z</time></trkpt><trkpt lat="31.76635285389812" lon="-4.20981920031115"><ele>934.5</ele><time>2026-04-27T07:18:11Z</time></trkpt><trkpt lat="31.76647176926952" lon="-4.210090307822248"><ele>930.0</ele><time>2026-04-27T07:18:12Z</time></trkpt><trkpt lat="31.76658030167767" lon="-4.210367489207255"><ele>930.0</ele><time>2026-04-27T07:18:13Z</time></trkpt><trkpt lat="31.766674999679072" lon="-4.210647995458271"><ele>930.0</ele><time>2026-04-27T07:18:14Z</time></trkpt><trkpt lat="31.766763499565368" lon="-4.210932203693005"><ele>927.5</ele><time>2026-04-27T07:18:15Z</time></trkpt><trkpt lat="31.766852975349526" lon="-4.211215670296334"><ele>925.0</ele><time>2026-04-27T07:18:16Z</time></trkpt><trkpt lat="31.766945818369457" lon="-4.211489409436448"><ele>928.5</ele><time>2026-04-27T07:18:17Z</time></trkpt><trkpt lat="31.767051182300285" lon="-4.211752718416087"><ele>932.0</ele><time>2026-04-27T07:18:18Z</time></trkpt><trkpt lat="31.767178921797825" lon="-4.211997437213595"><ele>932.0</ele><time>2026-04-27T07:18:19Z</time></trkpt><trkpt lat="31.76732893575978" lon="-4.212220965955616"><ele>932.0</ele><time>2026-04-27T07:18:20Z</time></trkpt><trkpt lat="31.767494470101845" lon="-4.212426003891833"><ele>929.0</ele><time>2026-04-27T07:18:21Z</time></trkpt><trkpt lat="31.76767564872218" lon="-4.212602037794185"><ele>926.0</ele><time>2026-04-27T07:18:22Z</time></trkpt><trkpt lat="31.76786685815508" lon="-4.212756840059877"><ele>932.5</ele><time>2026-04-27T07:18:23Z</time></trkpt><trkpt lat="31.768067009491574" lon="-4.212905556884792"><ele>939.0</ele><time>2026-04-27T07:18:24Z</time></trkpt><trkpt lat="31.768268071532816" lon="-4.213050577961305"><ele>939.0</ele><time>2026-04-27T07:18:25Z</time></trkpt><trkpt lat="31.768464131720016" lon="-4.213195380399736"><ele>939.0</ele><time>2026-04-27T07:18:26Z</time></trkpt><trkpt lat="31.768658362755232" lon="-4.2133378730642805"><ele>939.0</ele><time>2026-04-27T07:18:27Z</time></trkpt><trkpt lat="31.76885417682063" lon="-4.213479035094364"><ele>939.0</ele><time>2026-04-27T07:18:27.999Z</time></trkpt><trkpt lat="31.769046354311733" lon="-4.213617753846644"><ele>939.0</ele><time>2026-04-27T07:18:28.999Z</time></trkpt><trkpt lat="31.769221253078033" lon="-4.213745316562936"><ele>939.0</ele><time>2026-04-27T07:18:29.999Z</time></trkpt><trkpt lat="31.76939137106576" lon="-4.213875859245486"><ele>939.0</ele><time>2026-04-27T07:18:30.999Z</time></trkpt><trkpt lat="31.769555755116393" lon="-4.214023903821921"><ele>939.3333333333333</ele><time>2026-04-27T07:18:31.999Z</time></trkpt><trkpt lat="31.769713873671634" lon="-4.214198039337955"><ele>939.6666666666666</ele><time>2026-04-27T07:18:32.999Z</time></trkpt><trkpt lat="31.769860860838754" lon="-4.214398334406117"><ele>940.0</ele><time>2026-04-27T07:18:33.999Z</time></trkpt><trkpt lat="31.77000344372622" lon="-4.21461877733005"><ele>937.5</ele><time>2026-04-27T07:18:34.999Z</time></trkpt><trkpt lat="31.770139860125116" lon="-4.214853904606389"><ele>935.0</ele><time>2026-04-27T07:18:35.999Z</time></trkpt><trkpt lat="31.770274959630118" lon="-4.215096077723461"><ele>935.0</ele><time>2026-04-27T07:18:36.999Z</time></trkpt><trkpt lat="31.77041730076726" lon="-4.215347908837462"><ele>935.0</ele><time>2026-04-27T07:18:37.999Z</time></trkpt><trkpt lat="31.770563862268883" lon="-4.215602496288248"><ele>933.5</ele><time>2026-04-27T07:18:38.999Z</time></trkpt><trkpt lat="31.770705458218757" lon="-4.215852005496045"><ele>932.0</ele><time>2026-04-27T07:18:39.999Z</time></trkpt><trkpt lat="31.77084088492306" lon="-4.216097561653077"><ele>932.0</ele><time>2026-04-27T07:18:40.999Z</time></trkpt><trkpt lat="31.770978714449647" lon="-4.216338130472024"><ele>932.0</ele><time>2026-04-27T07:18:41.999Z</time></trkpt><trkpt lat="31.771118411825473" lon="-4.216577076948572"><ele>935.0</ele><time>2026-04-27T07:18:42.999Z</time></trkpt><trkpt lat="31.77126024661007" lon="-4.2168273143466015"><ele>938.0</ele><time>2026-04-27T07:18:43.999Z</time></trkpt><trkpt lat="31.771405545860386" lon="-4.21708743677535"><ele>933.5</ele><time>2026-04-27T07:18:44.999Z</time></trkpt><trkpt lat="31.771551991741816" lon="-4.2173483824413625"><ele>929.0</ele><time>2026-04-27T07:18:45.999Z</time></trkpt><trkpt lat="31.771696152199564" lon="-4.217603362791853"><ele>929.0</ele><time>2026-04-27T07:18:46.999Z</time></trkpt><trkpt lat="31.771837243849713" lon="-4.217849776734261"><ele>929.0</ele><time>2026-04-27T07:18:47.999Z</time></trkpt><trkpt lat="31.77197222264454" lon="-4.218087251827937"><ele>932.5</ele><time>2026-04-27T07:18:48.999Z</time></trkpt><trkpt lat="31.77210178169037" lon="-4.218322708714469"><ele>936.0</ele><time>2026-04-27T07:18:49.999Z</time></trkpt><trkpt lat="31.772233853170356" lon="-4.218553735432456"><ele>936.0</ele><time>2026-04-27T07:18:50.999Z</time></trkpt><trkpt lat="31.7723655361635" lon="-4.218787336037917"><ele>936.0</ele><time>2026-04-27T07:18:51.999Z</time></trkpt><trkpt lat="31.77249635702707" lon="-4.219017646957602"><ele>935.0</ele><time>2026-04-27T07:18:52.999Z</time></trkpt><trkpt lat="31.772628842273477" lon="-4.219237667057744"><ele>934.0</ele><time>2026-04-27T07:18:53.999Z</time></trkpt><trkpt lat="31.772763238671406" lon="-4.21944572416298"><ele>937.3333333333333</ele><time>2026-04-27T07:18:54.999Z</time></trkpt><trkpt lat="31.772899501945783" lon="-4.219644697576304"><ele>940.6666666666667</ele><time>2026-04-27T07:18:55.999Z</time></trkpt><trkpt lat="31.773045255258616" lon="-4.219840285891264"><ele>944.0</ele><time>2026-04-27T07:18:56.999Z</time></trkpt><trkpt lat="31.773199611761232" lon="-4.220010657453232"><ele>944.0</ele><time>2026-04-27T07:18:57.999Z</time></trkpt><trkpt lat="31.773348759921053" lon="-4.220149192574723"><ele>944.0</ele><time>2026-04-27T07:18:58.999Z</time></trkpt><trkpt lat="31.773495968361722" lon="-4.220271683399491"><ele>944.0</ele><time>2026-04-27T07:18:59.999Z</time></trkpt><trkpt lat="31.773642021024415" lon="-4.22038025778035"><ele>943.6666666666667</ele><time>2026-04-27T07:19:00.999Z</time></trkpt><trkpt lat="31.77378637486484" lon="-4.220476643236279"><ele>943.3333333333333</ele><time>2026-04-27T07:19:01.999Z</time></trkpt><trkpt lat="31.7739283989187" lon="-4.220563887936108"><ele>943.0</ele><time>2026-04-27T07:19:02.999Z</time></trkpt><trkpt lat="31.774079500970565" lon="-4.220654482066194"><ele>943.0</ele><time>2026-04-27T07:19:03.999Z</time></trkpt><trkpt lat="31.77425119157459" lon="-4.2207484241037845"><ele>943.0</ele><time>2026-04-27T07:19:04.999Z</time></trkpt><trkpt lat="31.77444121394474" lon="-4.220843115776788"><ele>943.0</ele><time>2026-04-27T07:19:05.999Z</time></trkpt><trkpt lat="31.774644114375405" lon="-4.22093984326368"><ele>948.5</ele><time>2026-04-27T07:19:06.999Z</time></trkpt><trkpt lat="31.77485740955428" lon="-4.221036811926439"><ele>954.0</ele><time>2026-04-27T07:19:07.999Z</time></trkpt><trkpt lat="31.775080727271988" lon="-4.221135291777295"><ele>962.0</ele><time>2026-04-27T07:19:08.999Z</time></trkpt><trkpt lat="31.775314941353468" lon="-4.221239019693672"><ele>970.0</ele><time>2026-04-27T07:19:09.999Z</time></trkpt><trkpt lat="31.77555645603711" lon="-4.221350564158763"><ele>970.0</ele><time>2026-04-27T07:19:10.999Z</time></trkpt><trkpt lat="31.775807664273454" lon="-4.2214664810556455"><ele>970.0</ele><time>2026-04-27T07:19:11.999Z</time></trkpt><trkpt lat="31.776083107501336" lon="-4.221567102699516"><ele>964.0</ele><time>2026-04-27T07:19:12.999Z</time></trkpt><trkpt lat="31.7763585994482" lon="-4.221696439727131"><ele>958.0</ele><time>2026-04-27T07:19:13.999Z</time></trkpt><trkpt lat="31.77661807837169" lon="-4.221836620281339"><ele>967.0</ele><time>2026-04-27T07:19:14.999Z</time></trkpt><trkpt lat="31.776870526350972" lon="-4.221953000317475"><ele>976.0</ele><time>2026-04-27T07:19:15.999Z</time></trkpt><trkpt lat="31.777116417630523" lon="-4.222066421518871"><ele>976.0</ele><time>2026-04-27T07:19:16.999Z</time></trkpt><trkpt lat="31.777363587010996" lon="-4.222180496236911"><ele>976.0</ele><time>2026-04-27T07:19:17.999Z</time></trkpt><trkpt lat="31.777616417635432" lon="-4.222297973322435"><ele>970.0</ele><time>2026-04-27T07:19:19Z</time></trkpt><trkpt lat="31.777871685738173" lon="-4.222417896087255"><ele>964.0</ele><time>2026-04-27T07:19:20Z</time></trkpt><trkpt lat="31.778131722155816" lon="-4.222545346905967"><ele>964.0</ele><time>2026-04-27T07:19:21Z</time></trkpt><trkpt lat="31.778389631565034" lon="-4.222687398921491"><ele>964.0</ele><time>2026-04-27T07:19:22Z</time></trkpt><trkpt lat="31.77864353822715" lon="-4.222848201454101"><ele>958.5</ele><time>2026-04-27T07:19:23Z</time></trkpt><trkpt lat="31.77888826017982" lon="-4.223028489589705"><ele>953.0</ele><time>2026-04-27T07:19:24Z</time></trkpt><trkpt lat="31.7791262251867" lon="-4.22322793486778"><ele>965.0</ele><time>2026-04-27T07:19:25Z</time></trkpt><trkpt lat="31.779366458875774" lon="-4.223429862155581"><ele>977.0</ele><time>2026-04-27T07:19:26Z</time></trkpt><trkpt lat="31.77960716949846" lon="-4.223633176285482"><ele>977.0</ele><time>2026-04-27T07:19:27Z</time></trkpt><trkpt lat="31.77984813045676" lon="-4.223835995597997"><ele>977.0</ele><time>2026-04-27T07:19:28Z</time></trkpt><trkpt lat="31.780090556909585" lon="-4.224037347610674"><ele>973.5</ele><time>2026-04-27T07:19:29Z</time></trkpt><trkpt lat="31.780331876570283" lon="-4.224238272634124"><ele>970.0</ele><time>2026-04-27T07:19:30Z</time></trkpt><trkpt lat="31.780573819250566" lon="-4.224439080183372"><ele>970.0</ele><time>2026-04-27T07:19:31Z</time></trkpt><trkpt lat="31.78081306747362" lon="-4.2246407939055315"><ele>970.0</ele><time>2026-04-27T07:19:32Z</time></trkpt><trkpt lat="31.78104261238232" lon="-4.224839966535985"><ele>971.0</ele><time>2026-04-27T07:19:33Z</time></trkpt><trkpt lat="31.781266567254843" lon="-4.225030910535677"><ele>972.0</ele><time>2026-04-27T07:19:34Z</time></trkpt><trkpt lat="31.781481842240527" lon="-4.225209497717133"><ele>972.0</ele><time>2026-04-27T07:19:35Z</time></trkpt><trkpt lat="31.781690763953872" lon="-4.225380076902555"><ele>972.0</ele><time>2026-04-27T07:19:36Z</time></trkpt><trkpt lat="31.781892263674237" lon="-4.225548107233129"><ele>968.5</ele><time>2026-04-27T07:19:37Z</time></trkpt><trkpt lat="31.78209805329433" lon="-4.225721742065183"><ele>965.0</ele><time>2026-04-27T07:19:38Z</time></trkpt><trkpt lat="31.782310738456072" lon="-4.225905063131154"><ele>965.0</ele><time>2026-04-27T07:19:39Z</time></trkpt><trkpt lat="31.782541901548104" lon="-4.226080674115103"><ele>965.0</ele><time>2026-04-27T07:19:40Z</time></trkpt><trkpt lat="31.782771360147027" lon="-4.2262785109839776"><ele>964.5</ele><time>2026-04-27T07:19:41Z</time></trkpt><trkpt lat="31.782974679264015" lon="-4.22651267815236"><ele>964.0</ele><time>2026-04-27T07:19:42Z</time></trkpt><trkpt lat="31.783193377975305" lon="-4.226731233192929"><ele>964.0</ele><time>2026-04-27T07:19:43Z</time></trkpt><trkpt lat="31.783413784278498" lon="-4.226954998763385"><ele>964.0</ele><time>2026-04-27T07:19:44Z</time></trkpt><trkpt lat="31.7836341768719" lon="-4.227181196955388"><ele>964.0</ele><time>2026-04-27T07:19:45Z</time></trkpt><trkpt lat="31.783852942811166" lon="-4.2274085347168215"><ele>964.0</ele><time>2026-04-27T07:19:46Z</time></trkpt><trkpt lat="31.78406391424872" lon="-4.227626879324778"><ele>964.0</ele><time>2026-04-27T07:19:47Z</time></trkpt><trkpt lat="31.784269591787087" lon="-4.22783644118014"><ele>964.0</ele><time>2026-04-27T07:19:48Z</time></trkpt><trkpt lat="31.784468540486603" lon="-4.228040745669524"><ele>967.0</ele><time>2026-04-27T07:19:49Z</time></trkpt><trkpt lat="31.784656814702455" lon="-4.228236465796102"><ele>970.0</ele><time>2026-04-27T07:19:50Z</time></trkpt><trkpt lat="31.78484068365737" lon="-4.228425394873206"><ele>970.0</ele><time>2026-04-27T07:19:51Z</time></trkpt><trkpt lat="31.78502322392599" lon="-4.228609822812823"><ele>970.0</ele><time>2026-04-27T07:19:52Z</time></trkpt><trkpt lat="31.785200136526765" lon="-4.228795643333116"><ele>975.0</ele><time>2026-04-27T07:19:53Z</time></trkpt><trkpt lat="31.78536706306791" lon="-4.228983282207473"><ele>980.0</ele><time>2026-04-27T07:19:54Z</time></trkpt><trkpt lat="31.785525569749378" lon="-4.229181268993296"><ele>980.0</ele><time>2026-04-27T07:19:55Z</time></trkpt><trkpt lat="31.785661522821194" lon="-4.229395579347979"><ele>980.0</ele><time>2026-04-27T07:19:56Z</time></trkpt><trkpt lat="31.785783101703057" lon="-4.229631129573859"><ele>974.0</ele><time>2026-04-27T07:19:57Z</time></trkpt><trkpt lat="31.785883261745624" lon="-4.2298891701730446"><ele>968.0</ele><time>2026-04-27T07:19:58Z</time></trkpt><trkpt lat="31.78596426902101" lon="-4.2301531491241064"><ele>986.0</ele><time>2026-04-27T07:19:59Z</time></trkpt><trkpt lat="31.786036873378535" lon="-4.230411094752568"><ele>1004.0</ele><time>2026-04-27T07:20:00Z</time></trkpt><trkpt lat="31.786110261564748" lon="-4.230658430095439"><ele>1004.0</ele><time>2026-04-27T07:20:01Z</time></trkpt><trkpt lat="31.786182674749956" lon="-4.230899413894269"><ele>1004.0</ele><time>2026-04-27T07:20:02Z</time></trkpt><trkpt lat="31.786257905757648" lon="-4.2311404046016765"><ele>1004.0</ele><time>2026-04-27T07:20:03Z</time></trkpt><trkpt lat="31.78634190400167" lon="-4.231382592714003"><ele>997.0</ele><time>2026-04-27T07:20:04Z</time></trkpt><trkpt lat="31.786438728136602" lon="-4.2316261803751045"><ele>990.0</ele><time>2026-04-27T07:20:05Z</time></trkpt><trkpt lat="31.786544690615827" lon="-4.23187259501441"><ele>990.0</ele><time>2026-04-27T07:20:06Z</time></trkpt><trkpt lat="31.78665229452391" lon="-4.232127000075165"><ele>990.0</ele><time>2026-04-27T07:20:07Z</time></trkpt><trkpt lat="31.786756355624412" lon="-4.2323862153434595"><ele>1003.5</ele><time>2026-04-27T07:20:08Z</time></trkpt><trkpt lat="31.786857091362748" lon="-4.232645764479973"><ele>1017.0</ele><time>2026-04-27T07:20:09Z</time></trkpt><trkpt lat="31.786957146634187" lon="-4.232908615431501"><ele>1011.5</ele><time>2026-04-27T07:20:10Z</time></trkpt><trkpt lat="31.787054683575974" lon="-4.2331772690736535"><ele>1006.0</ele><time>2026-04-27T07:20:11Z</time></trkpt><trkpt lat="31.787166866354344" lon="-4.233437181386079"><ele>1006.0</ele><time>2026-04-27T07:20:12Z</time></trkpt><trkpt lat="31.78726740580358" lon="-4.233703280347954"><ele>1006.0</ele><time>2026-04-27T07:20:13Z</time></trkpt><trkpt lat="31.7873623385042" lon="-4.233954238674596"><ele>1002.0</ele><time>2026-04-27T07:20:14Z</time></trkpt><trkpt lat="31.78745274626123" lon="-4.2341934864589"><ele>998.0</ele><time>2026-04-27T07:20:15Z</time></trkpt><trkpt lat="31.787546134308545" lon="-4.234419752584983"><ele>994.0</ele><time>2026-04-27T07:20:16Z</time></trkpt><trkpt lat="31.787641608437042" lon="-4.234634424278787"><ele>1000.5</ele><time>2026-04-27T07:20:17Z</time></trkpt><trkpt lat="31.787722306064833" lon="-4.234820060463553"><ele>1007.0</ele><time>2026-04-27T07:20:18Z</time></trkpt><trkpt lat="31.78779312066521" lon="-4.234979279131099"><ele>1013.5</ele><time>2026-04-27T07:20:19Z</time></trkpt><trkpt lat="31.787845492637715" lon="-4.235097870069657"><ele>1020.0</ele><time>2026-04-27T07:20:20Z</time></trkpt><trkpt lat="31.787882971140284" lon="-4.235183511896133"><ele>1020.0</ele><time>2026-04-27T07:20:21Z</time></trkpt><trkpt lat="31.78793069965059" lon="-4.2352919405941405"><ele>1020.0</ele><time>2026-04-27T07:20:23Z</time></trkpt><trkpt lat="31.78796871295681" lon="-4.235377867647121"><ele>1020.0</ele><time>2026-04-27T07:20:25Z</time></trkpt><trkpt lat="31.788005400994273" lon="-4.235500878661491"><ele>1020.0</ele><time>2026-04-27T07:20:27Z</time></trkpt><trkpt lat="31.788053747894235" lon="-4.23557098422894"><ele>1020.0</ele><time>2026-04-27T07:20:28Z</time></trkpt><trkpt lat="31.78809290990744" lon="-4.235661360541093"><ele>1018.0</ele><time>2026-04-27T07:20:28.999Z</time></trkpt><trkpt lat="31.788134777963787" lon="-4.2357579819123545"><ele>1016.0</ele><time>2026-04-27T07:20:29.999Z</time></trkpt><trkpt lat="31.788177565043426" lon="-4.235856444990055"><ele>1014.0</ele><time>2026-04-27T07:20:30.999Z</time></trkpt><trkpt lat="31.788223027454528" lon="-4.2359609622105125"><ele>1012.0</ele><time>2026-04-27T07:20:31.999Z</time></trkpt><trkpt lat="31.78827453296921" lon="-4.2360792945608035"><ele>1010.0</ele><time>2026-04-27T07:20:32.999Z</time></trkpt><trkpt lat="31.78833097308978" lon="-4.236210527655109"><ele>1010.0</ele><time>2026-04-27T07:20:33.999Z</time></trkpt><trkpt lat="31.78839388811515" lon="-4.236356704325283"><ele>1010.0</ele><time>2026-04-27T07:20:34.999Z</time></trkpt><trkpt lat="31.788468683459875" lon="-4.2365289354124736"><ele>1010.0</ele><time>2026-04-27T07:20:35.999Z</time></trkpt><trkpt lat="31.7885565697477" lon="-4.236730720328789"><ele>1018.0</ele><time>2026-04-27T07:20:36.999Z</time></trkpt><trkpt lat="31.78865828301016" lon="-4.2369656599307115"><ele>1026.0</ele><time>2026-04-27T07:20:37.999Z</time></trkpt><trkpt lat="31.788765061701223" lon="-4.237212433878513"><ele>1024.0</ele><time>2026-04-27T07:20:38.999Z</time></trkpt><trkpt lat="31.78886069881295" lon="-4.237432135635822"><ele>1022.0</ele><time>2026-04-27T07:20:39.999Z</time></trkpt><trkpt lat="31.788962483175993" lon="-4.237634044176365"><ele>1020.0</ele><time>2026-04-27T07:20:40.999Z</time></trkpt><trkpt lat="31.78907755843061" lon="-4.237829519851963"><ele>1020.0</ele><time>2026-04-27T07:20:41.999Z</time></trkpt><trkpt lat="31.789214995804773" lon="-4.2380349231407815"><ele>1020.0</ele><time>2026-04-27T07:20:42.999Z</time></trkpt><trkpt lat="31.78938613677863" lon="-4.23820277616271"><ele>1020.0</ele><time>2026-04-27T07:20:43.999Z</time></trkpt><trkpt lat="31.78956796144274" lon="-4.2383461792471016"><ele>1022.3333333333333</ele><time>2026-04-27T07:20:44.999Z</time></trkpt><trkpt lat="31.78976958961001" lon="-4.238443004154942"><ele>1024.6666666666665</ele><time>2026-04-27T07:20:45.999Z</time></trkpt><trkpt lat="31.789960572813236" lon="-4.238538017994795"><ele>1027.0</ele><time>2026-04-27T07:20:46.999Z</time></trkpt><trkpt lat="31.790162767378515" lon="-4.238582751071698"><ele>1028.3333333333333</ele><time>2026-04-27T07:20:47.999Z</time></trkpt><trkpt lat="31.790366962847944" lon="-4.238606930752561"><ele>1029.6666666666667</ele><time>2026-04-27T07:20:48.999Z</time></trkpt><trkpt lat="31.79057321546936" lon="-4.238603494397185"><ele>1031.0</ele><time>2026-04-27T07:20:49.999Z</time></trkpt><trkpt lat="31.790786223675497" lon="-4.238573447660953"><ele>1031.0</ele><time>2026-04-27T07:20:50.999Z</time></trkpt><trkpt lat="31.791000698888894" lon="-4.238493678424961"><ele>1031.0</ele><time>2026-04-27T07:20:51.999Z</time></trkpt><trkpt lat="31.79123977063328" lon="-4.238412589798396"><ele>1031.0</ele><time>2026-04-27T07:20:52.999Z</time></trkpt><trkpt lat="31.79150022687107" lon="-4.2383402151568905"><ele>1031.0</ele><time>2026-04-27T07:20:53.999Z</time></trkpt><trkpt lat="31.791776904200386" lon="-4.238244317908597"><ele>1029.0</ele><time>2026-04-27T07:20:54.999Z</time></trkpt><trkpt lat="31.79206543857508" lon="-4.238149778070915"><ele>1027.0</ele><time>2026-04-27T07:20:55.999Z</time></trkpt><trkpt lat="31.792367908883776" lon="-4.238048933835168"><ele>1026.0</ele><time>2026-04-27T07:20:56.999Z</time></trkpt><trkpt lat="31.79268027207954" lon="-4.237942980648229"><ele>1025.0</ele><time>2026-04-27T07:20:57.999Z</time></trkpt><trkpt lat="31.793003419774728" lon="-4.2378319411629635"><ele>1025.0</ele><time>2026-04-27T07:20:58.999Z</time></trkpt><trkpt lat="31.79333220540902" lon="-4.237718079728045"><ele>1025.0</ele><time>2026-04-27T07:20:59.999Z</time></trkpt><trkpt lat="31.7936649379688" lon="-4.2376032013605"><ele>1024.0</ele><time>2026-04-27T07:21:00.999Z</time></trkpt><trkpt lat="31.79400136479367" lon="-4.237486978827657"><ele>1023.0</ele><time>2026-04-27T07:21:01.999Z</time></trkpt><trkpt lat="31.794340247468725" lon="-4.2373721101807105"><ele>1023.0</ele><time>2026-04-27T07:21:02.999Z</time></trkpt><trkpt lat="31.794680152084144" lon="-4.2372584878268755"><ele>1023.0</ele><time>2026-04-27T07:21:03.999Z</time></trkpt><trkpt lat="31.795018085780622" lon="-4.237144030608433"><ele>1022.0</ele><time>2026-04-27T07:21:04.999Z</time></trkpt><trkpt lat="31.795348330082714" lon="-4.237032002441376"><ele>1021.0</ele><time>2026-04-27T07:21:05.999Z</time></trkpt><trkpt lat="31.795670776369967" lon="-4.236925988300707"><ele>1021.0</ele><time>2026-04-27T07:21:06.999Z</time></trkpt><trkpt lat="31.795985700889435" lon="-4.236822024220502"><ele>1021.0</ele><time>2026-04-27T07:21:07.999Z</time></trkpt><trkpt lat="31.7962871196975" lon="-4.236720800166903"><ele>1020.5</ele><time>2026-04-27T07:21:08.999Z</time></trkpt><trkpt lat="31.79657066621067" lon="-4.236624943332256"><ele>1020.0</ele><time>2026-04-27T07:21:09.999Z</time></trkpt><trkpt lat="31.796840757698803" lon="-4.236531838416369"><ele>1020.0</ele><time>2026-04-27T07:21:10.999Z</time></trkpt><trkpt lat="31.797100940965343" lon="-4.236442545256964"><ele>1020.0</ele><time>2026-04-27T07:21:11.999Z</time></trkpt><trkpt lat="31.79735946157137" lon="-4.236357042157353"><ele>1020.0</ele><time>2026-04-27T07:21:12.999Z</time></trkpt><trkpt lat="31.797625577748423" lon="-4.236269374482178"><ele>1020.0</ele><time>2026-04-27T07:21:13.999Z</time></trkpt><trkpt lat="31.79789785912585" lon="-4.236178836727225"><ele>1018.5</ele><time>2026-04-27T07:21:14.999Z</time></trkpt><trkpt lat="31.798167182873303" lon="-4.236086637855395"><ele>1017.0</ele><time>2026-04-27T07:21:15.999Z</time></trkpt><trkpt lat="31.79842963856712" lon="-4.235994669957027"><ele>1015.5</ele><time>2026-04-27T07:21:16.999Z</time></trkpt><trkpt lat="31.79867800148263" lon="-4.2359130027896565"><ele>1014.0</ele><time>2026-04-27T07:21:17.999Z</time></trkpt><trkpt lat="31.798917472074418" lon="-4.235839426328298"><ele>1014.0</ele><time>2026-04-27T07:21:18.999Z</time></trkpt><trkpt lat="31.799148594976106" lon="-4.23577427095011"><ele>1014.0</ele><time>2026-04-27T07:21:19.999Z</time></trkpt><trkpt lat="31.799373126482305" lon="-4.235724432877836"><ele>1012.0</ele><time>2026-04-27T07:21:20.999Z</time></trkpt><trkpt lat="31.79958802262661" lon="-4.235693553374092"><ele>1010.0</ele><time>2026-04-27T07:21:21.999Z</time></trkpt><trkpt lat="31.79980029376937" lon="-4.2356739553952485"><ele>1008.0</ele><time>2026-04-27T07:21:22.999Z</time></trkpt><trkpt lat="31.80000744559612" lon="-4.235666368797509"><ele>1008.3333333333333</ele><time>2026-04-27T07:21:23.999Z</time></trkpt><trkpt lat="31.800210216781814" lon="-4.235671703620739"><ele>1008.6666666666666</ele><time>2026-04-27T07:21:25Z</time></trkpt><trkpt lat="31.800409197994682" lon="-4.23569069693623"><ele>1009.0</ele><time>2026-04-27T07:21:26Z</time></trkpt><trkpt lat="31.800608649971267" lon="-4.235720564518998"><ele>1009.0</ele><time>2026-04-27T07:21:27Z</time></trkpt><trkpt lat="31.80081723049829" lon="-4.235763074152199"><ele>1009.0</ele><time>2026-04-27T07:21:28Z</time></trkpt><trkpt lat="31.801033985960885" lon="-4.2358190780636225"><ele>1009.0</ele><time>2026-04-27T07:21:29Z</time></trkpt><trkpt lat="31.80125835063027" lon="-4.2358840010290955"><ele>1009.0</ele><time>2026-04-27T07:21:30Z</time></trkpt><trkpt lat="31.80148775342305" lon="-4.235950225801473"><ele>1009.0</ele><time>2026-04-27T07:21:31Z</time></trkpt><trkpt lat="31.80172190230401" lon="-4.236019360534164"><ele>1008.0</ele><time>2026-04-27T07:21:32Z</time></trkpt><trkpt lat="31.801963501808657" lon="-4.236091973867457"><ele>1007.0</ele><time>2026-04-27T07:21:33Z</time></trkpt><trkpt lat="31.8022106465321" lon="-4.236166741641704"><ele>1007.0</ele><time>2026-04-27T07:21:34Z</time></trkpt><trkpt lat="31.802461383874945" lon="-4.236242064655734"><ele>1007.0</ele><time>2026-04-27T07:21:35Z</time></trkpt><trkpt lat="31.802717377575412" lon="-4.236318634940847"><ele>1007.0</ele><time>2026-04-27T07:21:36Z</time></trkpt><trkpt lat="31.80297579659502" lon="-4.236397083688117"><ele>1007.0</ele><time>2026-04-27T07:21:37Z</time></trkpt><trkpt lat="31.803238115874162" lon="-4.236477971843557"><ele>1007.0</ele><time>2026-04-27T07:21:38Z</time></trkpt><trkpt lat="31.803503433080124" lon="-4.236557922312189"><ele>1007.0</ele><time>2026-04-27T07:21:39Z</time></trkpt><trkpt lat="31.803774139954875" lon="-4.236637840658871"><ele>1007.0</ele><time>2026-04-27T07:21:40Z</time></trkpt><trkpt lat="31.80405081584519" lon="-4.236720505856714"><ele>1007.0</ele><time>2026-04-27T07:21:41Z</time></trkpt><trkpt lat="31.804333107931573" lon="-4.236804356915177"><ele>1006.5</ele><time>2026-04-27T07:21:42Z</time></trkpt><trkpt lat="31.804621737152544" lon="-4.236889930167024"><ele>1006.0</ele><time>2026-04-27T07:21:43Z</time></trkpt><trkpt lat="31.80491915542775" lon="-4.236977303579145"><ele>1005.5</ele><time>2026-04-27T07:21:44Z</time></trkpt><trkpt lat="31.80522708740707" lon="-4.237065773869974"><ele>1005.0</ele><time>2026-04-27T07:21:45Z</time></trkpt><trkpt lat="31.805538450754547" lon="-4.237154776665312"><ele>1005.0</ele><time>2026-04-27T07:21:46Z</time></trkpt><trkpt lat="31.80585227924715" lon="-4.237248930739942"><ele>1005.0</ele><time>2026-04-27T07:21:47Z</time></trkpt><trkpt lat="31.80616812931155" lon="-4.237346394937151"><ele>1005.0</ele><time>2026-04-27T07:21:48Z</time></trkpt><trkpt lat="31.806491831312837" lon="-4.237444852484695"><ele>1005.0</ele><time>2026-04-27T07:21:49Z</time></trkpt><trkpt lat="31.806820891967224" lon="-4.23754357530986"><ele>1005.5</ele><time>2026-04-27T07:21:50Z</time></trkpt><trkpt lat="31.807149810460864" lon="-4.237639963562896"><ele>1006.0</ele><time>2026-04-27T07:21:51Z</time></trkpt><trkpt lat="31.807482385672" lon="-4.2377344521603515"><ele>1004.0</ele><time>2026-04-27T07:21:52Z</time></trkpt><trkpt lat="31.807819483843993" lon="-4.237832558614759"><ele>1002.0</ele><time>2026-04-27T07:21:53Z</time></trkpt><trkpt lat="31.808155672058017" lon="-4.237931965106838"><ele>1002.0</ele><time>2026-04-27T07:21:54Z</time></trkpt><trkpt lat="31.808488438196143" lon="-4.2380315061912945"><ele>1002.0</ele><time>2026-04-27T07:21:55Z</time></trkpt><trkpt lat="31.808818178983586" lon="-4.238131262934049"><ele>1001.5</ele><time>2026-04-27T07:21:56Z</time></trkpt><trkpt lat="31.809146671212435" lon="-4.238229536161744"><ele>1001.0</ele><time>2026-04-27T07:21:57Z</time></trkpt><trkpt lat="31.809472693195243" lon="-4.238324898495901"><ele>1001.0</ele><time>2026-04-27T07:21:58Z</time></trkpt><trkpt lat="31.809790989467988" lon="-4.238418606431068"><ele>1001.0</ele><time>2026-04-27T07:21:59Z</time></trkpt><trkpt lat="31.81010028552947" lon="-4.2385143923571995"><ele>1000.0</ele><time>2026-04-27T07:22:00Z</time></trkpt><trkpt lat="31.810411853717728" lon="-4.238615439778237"><ele>999.0</ele><time>2026-04-27T07:22:01Z</time></trkpt><trkpt lat="31.81072503081391" lon="-4.238712936357492"><ele>998.0</ele><time>2026-04-27T07:22:02Z</time></trkpt><trkpt lat="31.81103572727491" lon="-4.238805288398122"><ele>997.0</ele><time>2026-04-27T07:22:03Z</time></trkpt><trkpt lat="31.81133512411765" lon="-4.238892854774919"><ele>998.5</ele><time>2026-04-27T07:22:04Z</time></trkpt><trkpt lat="31.811619502100772" lon="-4.238978326735034"><ele>1000.0</ele><time>2026-04-27T07:22:05Z</time></trkpt><trkpt lat="31.811892802516223" lon="-4.239060512033985"><ele>1000.0</ele><time>2026-04-27T07:22:06Z</time></trkpt><trkpt lat="31.81215250512978" lon="-4.239137019956806"><ele>1000.0</ele><time>2026-04-27T07:22:07Z</time></trkpt><trkpt lat="31.81240645377431" lon="-4.239209352664426"><ele>1000.5</ele><time>2026-04-27T07:22:08Z</time></trkpt><trkpt lat="31.81265964747894" lon="-4.2392809802496645"><ele>1001.0</ele><time>2026-04-27T07:22:09Z</time></trkpt><trkpt lat="31.812914103791652" lon="-4.239355509691415"><ele>1001.0</ele><time>2026-04-27T07:22:10Z</time></trkpt><trkpt lat="31.813174561830284" lon="-4.239430719678532"><ele>1001.0</ele><time>2026-04-27T07:22:11Z</time></trkpt><trkpt lat="31.813443007826088" lon="-4.239511423833315"><ele>1000.0</ele><time>2026-04-27T07:22:12Z</time></trkpt><trkpt lat="31.81372467037741" lon="-4.2396070334752585"><ele>999.0</ele><time>2026-04-27T07:22:13Z</time></trkpt><trkpt lat="31.814024097672565" lon="-4.239706093876328"><ele>998.0</ele><time>2026-04-27T07:22:14Z</time></trkpt><trkpt lat="31.814330289134446" lon="-4.23980654183518"><ele>997.0</ele><time>2026-04-27T07:22:15Z</time></trkpt><trkpt lat="31.814658073042345" lon="-4.239898318147567"><ele>997.0</ele><time>2026-04-27T07:22:16Z</time></trkpt><trkpt lat="31.814990076787055" lon="-4.239984640235021"><ele>997.0</ele><time>2026-04-27T07:22:17Z</time></trkpt><trkpt lat="31.815326505101385" lon="-4.240074908296896"><ele>996.5</ele><time>2026-04-27T07:22:18Z</time></trkpt><trkpt lat="31.815665389291798" lon="-4.240170030144857"><ele>996.0</ele><time>2026-04-27T07:22:19Z</time></trkpt><trkpt lat="31.81600987004317" lon="-4.240270180792307"><ele>994.5</ele><time>2026-04-27T07:22:20Z</time></trkpt><trkpt lat="31.816366525684515" lon="-4.240377127594486"><ele>993.0</ele><time>2026-04-27T07:22:21Z</time></trkpt><trkpt lat="31.81673505792347" lon="-4.240490665713486"><ele>993.0</ele><time>2026-04-27T07:22:22Z</time></trkpt><trkpt lat="31.81711591642982" lon="-4.240607053890848"><ele>993.0</ele><time>2026-04-27T07:22:23Z</time></trkpt><trkpt lat="31.817506110008235" lon="-4.2407245379456375"><ele>993.5</ele><time>2026-04-27T07:22:24Z</time></trkpt><trkpt lat="31.81790586582897" lon="-4.240843954988145"><ele>994.0</ele><time>2026-04-27T07:22:25Z</time></trkpt><trkpt lat="31.81831715446996" lon="-4.240966280852804"><ele>993.5</ele><time>2026-04-27T07:22:26Z</time></trkpt><trkpt lat="31.81873445828288" lon="-4.241092361634032"><ele>993.0</ele><time>2026-04-27T07:22:27Z</time></trkpt><trkpt lat="31.81916283710829" lon="-4.241220325348554"><ele>990.0</ele><time>2026-04-27T07:22:28Z</time></trkpt><trkpt lat="31.81960002150634" lon="-4.2413521611732845"><ele>991.0</ele><time>2026-04-27T07:22:29Z</time></trkpt><trkpt lat="31.82004379562182" lon="-4.241486308040103"><ele>990.0</ele><time>2026-04-27T07:22:30Z</time></trkpt><trkpt lat="31.820485886531248" lon="-4.241618798222651"><ele>990.0</ele><time>2026-04-27T07:22:31Z</time></trkpt><trkpt lat="31.82091162876715" lon="-4.241746828781461"><ele>990.0</ele><time>2026-04-27T07:22:31.999Z</time></trkpt><trkpt lat="31.821322680384597" lon="-4.2418692850519415"><ele>989.0</ele><time>2026-04-27T07:22:32.999Z</time></trkpt><trkpt lat="31.82172184399076" lon="-4.241985580813643"><ele>988.0</ele><time>2026-04-27T07:22:33.999Z</time></trkpt><trkpt lat="31.82211065219803" lon="-4.242098536550857"><ele>987.5</ele><time>2026-04-27T07:22:34.999Z</time></trkpt><trkpt lat="31.82249408604475" lon="-4.2422093416994855"><ele>987.0</ele><time>2026-04-27T07:22:35.999Z</time></trkpt><trkpt lat="31.822867131347436" lon="-4.242318711327859"><ele>989.0</ele><time>2026-04-27T07:22:36.999Z</time></trkpt><trkpt lat="31.8232311650769" lon="-4.242427840444573"><ele>991.0</ele><time>2026-04-27T07:22:37.999Z</time></trkpt><trkpt lat="31.823587662216507" lon="-4.242534152614623"><ele>991.5</ele><time>2026-04-27T07:22:38.999Z</time></trkpt><trkpt lat="31.82393969825782" lon="-4.242639548290323"><ele>992.0</ele><time>2026-04-27T07:22:39.999Z</time></trkpt><trkpt lat="31.82428556354257" lon="-4.242743956931988"><ele>991.0</ele><time>2026-04-27T07:22:40.999Z</time></trkpt><trkpt lat="31.8246296814877" lon="-4.242847063815363"><ele>990.0</ele><time>2026-04-27T07:22:41.999Z</time></trkpt><trkpt lat="31.824974818013683" lon="-4.242951891607979"><ele>990.0</ele><time>2026-04-27T07:22:42.999Z</time></trkpt><trkpt lat="31.8253257330691" lon="-4.243058697297865"><ele>990.0</ele><time>2026-04-27T07:22:43.999Z</time></trkpt><trkpt lat="31.825675524235283" lon="-4.243166458747003"><ele>990.5</ele><time>2026-04-27T07:22:44.999Z</time></trkpt><trkpt lat="31.82603061411336" lon="-4.2432743292905135"><ele>991.0</ele><time>2026-04-27T07:22:45.999Z</time></trkpt><trkpt lat="31.826384542808174" lon="-4.24338217958544"><ele>991.0</ele><time>2026-04-27T07:22:46.999Z</time></trkpt><trkpt lat="31.826735354263324" lon="-4.243466400667869"><ele>991.0</ele><time>2026-04-27T07:22:47.999Z</time></trkpt><trkpt lat="31.82707185567596" lon="-4.243564341660061"><ele>990.0</ele><time>2026-04-27T07:22:48.999Z</time></trkpt><trkpt lat="31.827403704808443" lon="-4.24366221526019"><ele>989.0</ele><time>2026-04-27T07:22:49.999Z</time></trkpt><trkpt lat="31.82774361489944" lon="-4.243763581587428"><ele>988.5</ele><time>2026-04-27T07:22:50.999Z</time></trkpt><trkpt lat="31.828096849331395" lon="-4.243870627601351"><ele>988.0</ele><time>2026-04-27T07:22:51.999Z</time></trkpt><trkpt lat="31.82845466206204" lon="-4.243978589959902"><ele>987.0</ele><time>2026-04-27T07:22:52.999Z</time></trkpt><trkpt lat="31.828818217786015" lon="-4.244088475614727"><ele>986.0</ele><time>2026-04-27T07:22:53.999Z</time></trkpt><trkpt lat="31.829182229412922" lon="-4.244217917492909"><ele>985.0</ele><time>2026-04-27T07:22:54.999Z</time></trkpt><trkpt lat="31.82955631016787" lon="-4.2443259340063975"><ele>984.0</ele><time>2026-04-27T07:22:55.999Z</time></trkpt><trkpt lat="31.829935061693767" lon="-4.244438786081711"><ele>983.0</ele><time>2026-04-27T07:22:56.999Z</time></trkpt><trkpt lat="31.830315361406317" lon="-4.2445503303022765"><ele>982.0</ele><time>2026-04-27T07:22:57.999Z</time></trkpt><trkpt lat="31.830697167705846" lon="-4.2446584080364085"><ele>986.0</ele><time>2026-04-27T07:22:58.999Z</time></trkpt><trkpt lat="31.831828061857316" lon="-4.2449985506451196"><ele>986.0</ele><time>2026-04-27T07:23:01.999Z</time></trkpt><trkpt lat="31.832197768307527" lon="-4.2451063995126255"><ele>986.0</ele><time>2026-04-27T07:23:02.999Z</time></trkpt><trkpt lat="31.832558501094702" lon="-4.24521253645895"><ele>984.5</ele><time>2026-04-27T07:23:03.999Z</time></trkpt><trkpt lat="31.832907224934093" lon="-4.24531527891232"><ele>983.0</ele><time>2026-04-27T07:23:04.999Z</time></trkpt><trkpt lat="31.833246071495566" lon="-4.245415156804095"><ele>980.5</ele><time>2026-04-27T07:23:05.999Z</time></trkpt><trkpt lat="31.833580453589253" lon="-4.245514647473773"><ele>978.0</ele><time>2026-04-27T07:23:06.999Z</time></trkpt><trkpt lat="31.8339102417336" lon="-4.24561553800294"><ele>977.5</ele><time>2026-04-27T07:23:07.999Z</time></trkpt><trkpt lat="31.834242363523465" lon="-4.2457188410403415"><ele>977.0</ele><time>2026-04-27T07:23:08.999Z</time></trkpt><trkpt lat="31.834574889200635" lon="-4.245820391192175"><ele>978.0</ele><time>2026-04-27T07:23:09.999Z</time></trkpt><trkpt lat="31.83490853885572" lon="-4.245920450267166"><ele>979.0</ele><time>2026-04-27T07:23:10.999Z</time></trkpt><trkpt lat="31.83524501338448" lon="-4.246022864951544"><ele>979.0</ele><time>2026-04-27T07:23:11.999Z</time></trkpt><trkpt lat="31.83558652735457" lon="-4.2461332445792825"><ele>979.0</ele><time>2026-04-27T07:23:12.999Z</time></trkpt><trkpt lat="31.835943609702543" lon="-4.246220003748276"><ele>978.5</ele><time>2026-04-27T07:23:13.999Z</time></trkpt><trkpt lat="31.836307988286094" lon="-4.246328167062033"><ele>978.0</ele><time>2026-04-27T07:23:14.999Z</time></trkpt><trkpt lat="31.83667720807467" lon="-4.246451653962218"><ele>977.0</ele><time>2026-04-27T07:23:15.999Z</time></trkpt><trkpt lat="31.837054961008945" lon="-4.246553434756318"><ele>976.0</ele><time>2026-04-27T07:23:16.999Z</time></trkpt><trkpt lat="31.837431486053053" lon="-4.246658000495654"><ele>975.5</ele><time>2026-04-27T07:23:17.999Z</time></trkpt><trkpt lat="31.83779933631258" lon="-4.246765897601871"><ele>975.0</ele><time>2026-04-27T07:23:18.999Z</time></trkpt><trkpt lat="31.838152124471115" lon="-4.2468741825350484"><ele>974.5</ele><time>2026-04-27T07:23:19.999Z</time></trkpt><trkpt lat="31.83847817269617" lon="-4.246974014618836"><ele>974.0</ele><time>2026-04-27T07:23:20.999Z</time></trkpt><trkpt lat="31.83877740871944" lon="-4.247063062920536"><ele>974.0</ele><time>2026-04-27T07:23:21.999Z</time></trkpt><trkpt lat="31.839047046809515" lon="-4.247141250877661"><ele>974.0</ele><time>2026-04-27T07:23:22.999Z</time></trkpt><trkpt lat="31.839293129356225" lon="-4.247210472151183"><ele>974.0</ele><time>2026-04-27T07:23:23.999Z</time></trkpt><trkpt lat="31.839522121099527" lon="-4.2472764030911065"><ele>974.0</ele><time>2026-04-27T07:23:24.999Z</time></trkpt><trkpt lat="31.839737455593234" lon="-4.2473426522348445"><ele>974.0</ele><time>2026-04-27T07:23:25.999Z</time></trkpt><trkpt lat="31.839958171219212" lon="-4.247411183950282"><ele>974.0</ele><time>2026-04-27T07:23:26.999Z</time></trkpt><trkpt lat="31.84019046161404" lon="-4.247483548351715"><ele>974.0</ele><time>2026-04-27T07:23:27.999Z</time></trkpt><trkpt lat="31.840438942828516" lon="-4.247563867816403"><ele>974.0</ele><time>2026-04-27T07:23:28.999Z</time></trkpt><trkpt lat="31.840712959751134" lon="-4.247629012644778"><ele>973.0</ele><time>2026-04-27T07:23:30Z</time></trkpt><trkpt lat="31.841000122014524" lon="-4.247715001639364"><ele>972.0</ele><time>2026-04-27T07:23:31Z</time></trkpt><trkpt lat="31.841300446790598" lon="-4.247818127178571"><ele>972.0</ele><time>2026-04-27T07:23:32Z</time></trkpt><trkpt lat="31.841616804627918" lon="-4.247905182486256"><ele>972.0</ele><time>2026-04-27T07:23:33Z</time></trkpt><trkpt lat="31.841942332740146" lon="-4.248028790189461"><ele>972.0</ele><time>2026-04-27T07:23:34Z</time></trkpt><trkpt lat="31.842271777747204" lon="-4.24816659528893"><ele>972.0</ele><time>2026-04-27T07:23:35Z</time></trkpt><trkpt lat="31.84260542012497" lon="-4.248325418909204"><ele>970.5</ele><time>2026-04-27T07:23:36Z</time></trkpt><trkpt lat="31.84294599560675" lon="-4.248505515025121"><ele>969.0</ele><time>2026-04-27T07:23:37Z</time></trkpt><trkpt lat="31.84329088421084" lon="-4.248711923970535"><ele>969.5</ele><time>2026-04-27T07:23:38Z</time></trkpt><trkpt lat="31.8436328433248" lon="-4.248940852600346"><ele>970.0</ele><time>2026-04-27T07:23:39Z</time></trkpt><trkpt lat="31.843957543616153" lon="-4.249179837784662"><ele>970.0</ele><time>2026-04-27T07:23:40Z</time></trkpt><trkpt lat="31.844263693512865" lon="-4.249419448187041"><ele>970.0</ele><time>2026-04-27T07:23:41Z</time></trkpt><trkpt lat="31.844542460662527" lon="-4.249651717557088"><ele>971.5</ele><time>2026-04-27T07:23:42Z</time></trkpt><trkpt lat="31.844796309170917" lon="-4.24988220315291"><ele>973.0</ele><time>2026-04-27T07:23:43Z</time></trkpt><trkpt lat="31.845029960541876" lon="-4.250113264587906"><ele>972.5</ele><time>2026-04-27T07:23:44Z</time></trkpt><trkpt lat="31.845248539544365" lon="-4.2503507220438586"><ele>972.0</ele><time>2026-04-27T07:23:45Z</time></trkpt><trkpt lat="31.845458336719297" lon="-4.250594651352605"><ele>970.5</ele><time>2026-04-27T07:23:46Z</time></trkpt><trkpt lat="31.84566026063288" lon="-4.250839338266614"><ele>969.0</ele><time>2026-04-27T07:23:47Z</time></trkpt><trkpt lat="31.84585544531212" lon="-4.251080410855961"><ele>968.5</ele><time>2026-04-27T07:23:48Z</time></trkpt><trkpt lat="31.846045604906198" lon="-4.251316223477884"><ele>968.0</ele><time>2026-04-27T07:23:49Z</time></trkpt><trkpt lat="31.846233460032852" lon="-4.251551782457141"><ele>968.0</ele><time>2026-04-27T07:23:50Z</time></trkpt><trkpt lat="31.846419687224547" lon="-4.251784975040582"><ele>968.0</ele><time>2026-04-27T07:23:51Z</time></trkpt><trkpt lat="31.84660652354437" lon="-4.252025319121105"><ele>967.5</ele><time>2026-04-27T07:23:52Z</time></trkpt><trkpt lat="31.846800730252387" lon="-4.252280074501687"><ele>967.0</ele><time>2026-04-27T07:23:53Z</time></trkpt><trkpt lat="31.847007559596296" lon="-4.252543371314469"><ele>967.0</ele><time>2026-04-27T07:23:54Z</time></trkpt><trkpt lat="31.847226749548415" lon="-4.252804964037834"><ele>967.0</ele><time>2026-04-27T07:23:55Z</time></trkpt><trkpt lat="31.84745365907808" lon="-4.253069109304268"><ele>964.5</ele><time>2026-04-27T07:23:56Z</time></trkpt><trkpt lat="31.847674997409104" lon="-4.2533429962137985"><ele>962.0</ele><time>2026-04-27T07:23:57Z</time></trkpt><trkpt lat="31.847879659364857" lon="-4.253636402646466"><ele>962.0</ele><time>2026-04-27T07:23:58Z</time></trkpt><trkpt lat="31.848076512402343" lon="-4.253944094828693"><ele>962.0</ele><time>2026-04-27T07:23:59Z</time></trkpt><trkpt lat="31.848276691392194" lon="-4.254266875335181"><ele>962.0</ele><time>2026-04-27T07:24:00Z</time></trkpt><trkpt lat="31.848485087701086" lon="-4.254596425829133"><ele>962.0</ele><time>2026-04-27T07:24:01Z</time></trkpt><trkpt lat="31.848701594109556" lon="-4.254933253827714"><ele>962.0</ele><time>2026-04-27T07:24:02Z</time></trkpt><trkpt lat="31.848922813634058" lon="-4.25527573639967"><ele>962.0</ele><time>2026-04-27T07:24:03Z</time></trkpt><trkpt lat="31.849139320911387" lon="-4.255618617535636"><ele>963.5</ele><time>2026-04-27T07:24:04Z</time></trkpt><trkpt lat="31.84934924221761" lon="-4.25594979716022"><ele>965.0</ele><time>2026-04-27T07:24:05Z</time></trkpt><trkpt lat="31.84955457742933" lon="-4.2562724314234615"><ele>967.0</ele><time>2026-04-27T07:24:06Z</time></trkpt><trkpt lat="31.849752207945837" lon="-4.256585088045497"><ele>969.0</ele><time>2026-04-27T07:24:07Z</time></trkpt><trkpt lat="31.849944772493863" lon="-4.256892439777955"><ele>968.5</ele><time>2026-04-27T07:24:08Z</time></trkpt><trkpt lat="31.850134222567334" lon="-4.257204982796383"><ele>968.0</ele><time>2026-04-27T07:24:09Z</time></trkpt><trkpt lat="31.8503107591662" lon="-4.257526970015381"><ele>969.0</ele><time>2026-04-27T07:24:10Z</time></trkpt><trkpt lat="31.85047093654856" lon="-4.257860766465221"><ele>970.0</ele><time>2026-04-27T07:24:11Z</time></trkpt><trkpt lat="31.850607327189987" lon="-4.258197528552569"><ele>972.0</ele><time>2026-04-27T07:24:12Z</time></trkpt><trkpt lat="31.850716458383445" lon="-4.258531766392737"><ele>974.0</ele><time>2026-04-27T07:24:13Z</time></trkpt><trkpt lat="31.85080844438329" lon="-4.25886303472451"><ele>973.5</ele><time>2026-04-27T07:24:14Z</time></trkpt><trkpt lat="31.85088806628957" lon="-4.259187255284998"><ele>973.0</ele><time>2026-04-27T07:24:15Z</time></trkpt><trkpt lat="31.850961714178567" lon="-4.259502929338407"><ele>973.5</ele><time>2026-04-27T07:24:16Z</time></trkpt><trkpt lat="31.851036091914683" lon="-4.259813511541495"><ele>974.0</ele><time>2026-04-27T07:24:17Z</time></trkpt><trkpt lat="31.851115024118158" lon="-4.260111159511436"><ele>974.0</ele><time>2026-04-27T07:24:18Z</time></trkpt><trkpt lat="31.85120524676283" lon="-4.2603963045850195"><ele>974.0</ele><time>2026-04-27T07:24:19Z</time></trkpt><trkpt lat="31.851310313605" lon="-4.2606571824514345"><ele>974.0</ele><time>2026-04-27T07:24:20Z</time></trkpt><trkpt lat="31.851449367509048" lon="-4.260911436179607"><ele>974.0</ele><time>2026-04-27T07:24:21Z</time></trkpt><trkpt lat="31.851615815909216" lon="-4.261158575600978"><ele>973.5</ele><time>2026-04-27T07:24:22Z</time></trkpt><trkpt lat="31.85180711187178" lon="-4.261393570429492"><ele>973.0</ele><time>2026-04-27T07:24:23Z</time></trkpt><trkpt lat="31.85203658896069" lon="-4.261616417288989"><ele>971.5</ele><time>2026-04-27T07:24:24Z</time></trkpt><trkpt lat="31.85230216171056" lon="-4.261823600500621"><ele>970.0</ele><time>2026-04-27T07:24:25Z</time></trkpt><trkpt lat="31.85259391955947" lon="-4.262018510791675"><ele>970.0</ele><time>2026-04-27T07:24:26Z</time></trkpt><trkpt lat="31.852878954841106" lon="-4.2622054033956935"><ele>970.0</ele><time>2026-04-27T07:24:27Z</time></trkpt><trkpt lat="31.853133249473853" lon="-4.262379561454778"><ele>968.5</ele><time>2026-04-27T07:24:28Z</time></trkpt><trkpt lat="31.8533752836901" lon="-4.262546223112235"><ele>967.0</ele><time>2026-04-27T07:24:29Z</time></trkpt><trkpt lat="31.85360585515609" lon="-4.2627043011569565"><ele>967.0</ele><time>2026-04-27T07:24:30Z</time></trkpt><trkpt lat="31.853826403549405" lon="-4.26285269880994"><ele>967.0</ele><time>2026-04-27T07:24:31Z</time></trkpt><trkpt lat="31.85403716996241" lon="-4.262994035145322"><ele>967.5</ele><time>2026-04-27T07:24:32Z</time></trkpt><trkpt lat="31.854237924253475" lon="-4.263129211768123"><ele>968.0</ele><time>2026-04-27T07:24:33Z</time></trkpt><trkpt lat="31.85442993234466" lon="-4.263259987285752"><ele>966.3333333333334</ele><time>2026-04-27T07:24:34Z</time></trkpt><trkpt lat="31.854612175879257" lon="-4.263384468101947"><ele>964.6666666666667</ele><time>2026-04-27T07:24:35Z</time></trkpt><trkpt lat="31.854788435805172" lon="-4.263503184262415"><ele>963.0</ele><time>2026-04-27T07:24:36Z</time></trkpt><trkpt lat="31.854957194816276" lon="-4.263616520626756"><ele>963.0</ele><time>2026-04-27T07:24:36.999Z</time></trkpt><trkpt lat="31.855118596444914" lon="-4.263725056679684"><ele>963.0</ele><time>2026-04-27T07:24:37.999Z</time></trkpt><trkpt lat="31.85528154191053" lon="-4.2638350172679935"><ele>963.0</ele><time>2026-04-27T07:24:38.999Z</time></trkpt><trkpt lat="31.85544427318507" lon="-4.263943552420713"><ele>963.3333333333333</ele><time>2026-04-27T07:24:39.999Z</time></trkpt><trkpt lat="31.85560605259857" lon="-4.264050735900622"><ele>963.6666666666666</ele><time>2026-04-27T07:24:40.999Z</time></trkpt><trkpt lat="31.85576593267344" lon="-4.264157444994231"><ele>964.0</ele><time>2026-04-27T07:24:41.999Z</time></trkpt><trkpt lat="31.855923608600538" lon="-4.264262925231003"><ele>965.3333333333333</ele><time>2026-04-27T07:24:42.999Z</time></trkpt><trkpt lat="31.856081099835993" lon="-4.264368364468559"><ele>966.6666666666667</ele><time>2026-04-27T07:24:43.999Z</time></trkpt><trkpt lat="31.856239079419108" lon="-4.264475671970465"><ele>968.0</ele><time>2026-04-27T07:24:44.999Z</time></trkpt><trkpt lat="31.85639525625585" lon="-4.26458118781712"><ele>968.0</ele><time>2026-04-27T07:24:45.999Z</time></trkpt><trkpt lat="31.856548817361535" lon="-4.264683358787128"><ele>968.0</ele><time>2026-04-27T07:24:46.999Z</time></trkpt><trkpt lat="31.856702154669875" lon="-4.264783472477467"><ele>968.0</ele><time>2026-04-27T07:24:47.999Z</time></trkpt><trkpt lat="31.856853182833895" lon="-4.264883038273277"><ele>967.0</ele><time>2026-04-27T07:24:48.999Z</time></trkpt><trkpt lat="31.857003314059558" lon="-4.2649800501563675"><ele>966.0</ele><time>2026-04-27T07:24:49.999Z</time></trkpt><trkpt lat="31.857151921261128" lon="-4.2650795198992295"><ele>965.0</ele><time>2026-04-27T07:24:50.999Z</time></trkpt><trkpt lat="31.85730019871007" lon="-4.26518213508328"><ele>965.0</ele><time>2026-04-27T07:24:51.999Z</time></trkpt><trkpt lat="31.857460308691163" lon="-4.265269855384513"><ele>965.0</ele><time>2026-04-27T07:24:52.999Z</time></trkpt><trkpt lat="31.857613838020352" lon="-4.26536958877857"><ele>965.0</ele><time>2026-04-27T07:24:53.999Z</time></trkpt><trkpt lat="31.85776862143775" lon="-4.26547054215829"><ele>964.6666666666667</ele><time>2026-04-27T07:24:54.999Z</time></trkpt><trkpt lat="31.85792429625942" lon="-4.265572540172111"><ele>964.3333333333333</ele><time>2026-04-27T07:24:55.999Z</time></trkpt><trkpt lat="31.85807839265199" lon="-4.265677328347762"><ele>964.0</ele><time>2026-04-27T07:24:56.999Z</time></trkpt><trkpt lat="31.85823497415962" lon="-4.265784377319696"><ele>964.0</ele><time>2026-04-27T07:24:57.999Z</time></trkpt><trkpt lat="31.85838325216743" lon="-4.265905637389448"><ele>964.0</ele><time>2026-04-27T07:24:58.999Z</time></trkpt><trkpt lat="31.85854008866537" lon="-4.266010512421818"><ele>964.0</ele><time>2026-04-27T07:24:59.999Z</time></trkpt><trkpt lat="31.858695648717436" lon="-4.266113684906244"><ele>964.6666666666666</ele><time>2026-04-27T07:25:00.999Z</time></trkpt><trkpt lat="31.85884599830044" lon="-4.266216345172683"><ele>965.3333333333333</ele><time>2026-04-27T07:25:01.999Z</time></trkpt><trkpt lat="31.858993655961868" lon="-4.266315763738716"><ele>966.0</ele><time>2026-04-27T07:25:02.999Z</time></trkpt><trkpt lat="31.859136762045853" lon="-4.266415341305049"><ele>966.0</ele><time>2026-04-27T07:25:03.999Z</time></trkpt><trkpt lat="31.859273065032582" lon="-4.266515011229404"><ele>966.0</ele><time>2026-04-27T07:25:04.999Z</time></trkpt><trkpt lat="31.859400390619363" lon="-4.266615253430598"><ele>966.0</ele><time>2026-04-27T07:25:05.999Z</time></trkpt><trkpt lat="31.859521106252362" lon="-4.266713313132843"><ele>965.5999999999999</ele><time>2026-04-27T07:25:06.999Z</time></trkpt><trkpt lat="31.859632690332568" lon="-4.266810272131909"><ele>965.1999999999999</ele><time>2026-04-27T07:25:07.999Z</time></trkpt><trkpt lat="31.85972677833515" lon="-4.266898495415286"><ele>964.8000000000001</ele><time>2026-04-27T07:25:08.999Z</time></trkpt><trkpt lat="31.85980535929372" lon="-4.266978922135697"><ele>964.4000000000001</ele><time>2026-04-27T07:25:09.999Z</time></trkpt><trkpt lat="31.859868691812853" lon="-4.267046848287185"><ele>964.0</ele><time>2026-04-27T07:25:10.999Z</time></trkpt><trkpt lat="31.8599193795601" lon="-4.267103344948939"><ele>963.9999999999999</ele><time>2026-04-27T07:25:11.999Z</time></trkpt><trkpt lat="31.85999122495962" lon="-4.267185996939773"><ele>964.0</ele><time>2026-04-27T07:25:13.999Z</time></trkpt><trkpt lat="31.860040325549036" lon="-4.267246265680665"><ele>964.0</ele><time>2026-04-27T07:25:16.999Z</time></trkpt><trkpt lat="31.860101816992664" lon="-4.267330338786616"><ele>964.0</ele><time>2026-04-27T07:25:19.999Z</time></trkpt><trkpt lat="31.86014602002822" lon="-4.267385520573118"><ele>963.9999999999999</ele><time>2026-04-27T07:25:20.999Z</time></trkpt><trkpt lat="31.86019787331973" lon="-4.267451859316131"><ele>964.0</ele><time>2026-04-27T07:25:21.999Z</time></trkpt><trkpt lat="31.86025190604868" lon="-4.26753284320019"><ele>964.2</ele><time>2026-04-27T07:25:22.999Z</time></trkpt><trkpt lat="31.860309492348375" lon="-4.267617260129962"><ele>964.4000000000001</ele><time>2026-04-27T07:25:23.999Z</time></trkpt><trkpt lat="31.860368436467134" lon="-4.267708842358355"><ele>964.6</ele><time>2026-04-27T07:25:24.999Z</time></trkpt><trkpt lat="31.86042837374119" lon="-4.267818279130388"><ele>964.8</ele><time>2026-04-27T07:25:25.999Z</time></trkpt><trkpt lat="31.86049115296383" lon="-4.2679417018144585"><ele>965.0</ele><time>2026-04-27T07:25:26.999Z</time></trkpt><trkpt lat="31.860552834077975" lon="-4.26807567011413"><ele>965.5</ele><time>2026-04-27T07:25:27.999Z</time></trkpt><trkpt lat="31.860614976004175" lon="-4.268220646640477"><ele>966.0</ele><time>2026-04-27T07:25:28.999Z</time></trkpt><trkpt lat="31.86067418812151" lon="-4.268371419412526"><ele>966.5</ele><time>2026-04-27T07:25:29.999Z</time></trkpt><trkpt lat="31.860728616865043" lon="-4.268517630355215"><ele>967.0</ele><time>2026-04-27T07:25:30.999Z</time></trkpt><trkpt lat="31.860772526002446" lon="-4.268662925329818"><ele>967.0</ele><time>2026-04-27T07:25:31.999Z</time></trkpt><trkpt lat="31.860807578506" lon="-4.2688071600029955"><ele>967.0</ele><time>2026-04-27T07:25:32.999Z</time></trkpt><trkpt lat="31.860838149573112" lon="-4.268961553848532"><ele>967.0</ele><time>2026-04-27T07:25:33.999Z</time></trkpt><trkpt lat="31.86087478547285" lon="-4.269126206079307"><ele>967.0</ele><time>2026-04-27T07:25:34.999Z</time></trkpt><trkpt lat="31.86092986412752" lon="-4.269300926073454"><ele>966.6666666666666</ele><time>2026-04-27T07:25:36Z</time></trkpt><trkpt lat="31.860940134552663" lon="-4.269491324707682"><ele>966.3333333333333</ele><time>2026-04-27T07:25:37Z</time></trkpt><trkpt lat="31.86096436697299" lon="-4.269690559236102"><ele>966.0</ele><time>2026-04-27T07:25:38Z</time></trkpt><trkpt lat="31.86097815590879" lon="-4.269896886782688"><ele>966.0</ele><time>2026-04-27T07:25:39Z</time></trkpt><trkpt lat="31.86098352966429" lon="-4.270113869101935"><ele>966.0</ele><time>2026-04-27T07:25:40Z</time></trkpt><trkpt lat="31.860978338338064" lon="-4.2703251760915"><ele>966.0</ele><time>2026-04-27T07:25:41Z</time></trkpt><trkpt lat="31.860966865835646" lon="-4.270540498114643"><ele>966.6666666666667</ele><time>2026-04-27T07:25:42Z</time></trkpt><trkpt lat="31.860945753389302" lon="-4.270767834267991"><ele>967.3333333333334</ele><time>2026-04-27T07:25:43Z</time></trkpt><trkpt lat="31.860914157292015" lon="-4.271002571293491"><ele>968.0</ele><time>2026-04-27T07:25:44Z</time></trkpt><trkpt lat="31.860876622795104" lon="-4.271242394050838"><ele>967.6666666666667</ele><time>2026-04-27T07:25:45Z</time></trkpt><trkpt lat="31.86083779966167" lon="-4.271485664057471"><ele>967.3333333333333</ele><time>2026-04-27T07:25:46Z</time></trkpt><trkpt lat="31.860799645494005" lon="-4.271731820304059"><ele>967.0</ele><time>2026-04-27T07:25:47Z</time></trkpt><trkpt lat="31.860765876775947" lon="-4.271981842497027"><ele>967.0</ele><time>2026-04-27T07:25:48Z</time></trkpt><trkpt lat="31.860731922614406" lon="-4.272236266980012"><ele>967.0</ele><time>2026-04-27T07:25:49Z</time></trkpt><trkpt lat="31.860698299526025" lon="-4.272490281332117"><ele>967.0</ele><time>2026-04-27T07:25:50Z</time></trkpt><trkpt lat="31.860670840051405" lon="-4.272743454018525"><ele>965.6666666666666</ele><time>2026-04-27T07:25:51Z</time></trkpt><trkpt lat="31.860648841161343" lon="-4.272994665921254"><ele>964.3333333333333</ele><time>2026-04-27T07:25:52Z</time></trkpt><trkpt lat="31.860635135776715" lon="-4.273245908459721"><ele>963.0</ele><time>2026-04-27T07:25:53Z</time></trkpt><trkpt lat="31.860626809074308" lon="-4.2734943322279335"><ele>962.6666666666667</ele><time>2026-04-27T07:25:54Z</time></trkpt><trkpt lat="31.860617011691026" lon="-4.273740566571085"><ele>962.3333333333334</ele><time>2026-04-27T07:25:55Z</time></trkpt><trkpt lat="31.86061273841279" lon="-4.273988013241979"><ele>962.0</ele><time>2026-04-27T07:25:56Z</time></trkpt><trkpt lat="31.860616528949336" lon="-4.27423504422592"><ele>963.0</ele><time>2026-04-27T07:25:57Z</time></trkpt><trkpt lat="31.860627125396913" lon="-4.274484928490628"><ele>964.0</ele><time>2026-04-27T07:25:58Z</time></trkpt><trkpt lat="31.860642571471498" lon="-4.2747385069266155"><ele>965.0</ele><time>2026-04-27T07:25:59Z</time></trkpt><trkpt lat="31.860660480040174" lon="-4.274996530810843"><ele>967.5</ele><time>2026-04-27T07:26:00Z</time></trkpt><trkpt lat="31.860680143480884" lon="-4.275258894730844"><ele>970.0</ele><time>2026-04-27T07:26:01Z</time></trkpt><trkpt lat="31.86070337835496" lon="-4.275524277569058"><ele>969.5</ele><time>2026-04-27T07:26:02Z</time></trkpt><trkpt lat="31.860733411589965" lon="-4.27578945002447"><ele>969.0</ele><time>2026-04-27T07:26:03Z</time></trkpt><trkpt lat="31.860774439225725" lon="-4.276055504979736"><ele>969.0</ele><time>2026-04-27T07:26:04Z</time></trkpt><trkpt lat="31.8608205455863" lon="-4.2763200040410405"><ele>969.0</ele><time>2026-04-27T07:26:05Z</time></trkpt><trkpt lat="31.860871679188914" lon="-4.276584584335024"><ele>968.0</ele><time>2026-04-27T07:26:06Z</time></trkpt><trkpt lat="31.860929194464855" lon="-4.27684668850379"><ele>967.0</ele><time>2026-04-27T07:26:07Z</time></trkpt><trkpt lat="31.860990501295586" lon="-4.277096489790014"><ele>966.0</ele><time>2026-04-27T07:26:08Z</time></trkpt><trkpt lat="31.86104740788861" lon="-4.277332809150105"><ele>965.0</ele><time>2026-04-27T07:26:09Z</time></trkpt><trkpt lat="31.861121536916894" lon="-4.277553922549596"><ele>964.0</ele><time>2026-04-27T07:26:10Z</time></trkpt><trkpt lat="31.861172065069162" lon="-4.277791047634194"><ele>964.0</ele><time>2026-04-27T07:26:11Z</time></trkpt><trkpt lat="31.86126845432893" lon="-4.27802078464767"><ele>964.0</ele><time>2026-04-27T07:26:12Z</time></trkpt><trkpt lat="31.861357076166378" lon="-4.278269773727945"><ele>964.0</ele><time>2026-04-27T07:26:13Z</time></trkpt><trkpt lat="31.86143211375389" lon="-4.278528995336046"><ele>964.5</ele><time>2026-04-27T07:26:14Z</time></trkpt><trkpt lat="31.861536637468284" lon="-4.278774271471381"><ele>965.0</ele><time>2026-04-27T07:26:15Z</time></trkpt><trkpt lat="31.86161018547427" lon="-4.279033613212611"><ele>965.0</ele><time>2026-04-27T07:26:16Z</time></trkpt><trkpt lat="31.8617018284841" lon="-4.279289411464396"><ele>965.0</ele><time>2026-04-27T07:26:17Z</time></trkpt><trkpt lat="31.86179426161431" lon="-4.279551839236828"><ele>965.5</ele><time>2026-04-27T07:26:18Z</time></trkpt><trkpt lat="31.861889812803252" lon="-4.27982158911098"><ele>966.0</ele><time>2026-04-27T07:26:19Z</time></trkpt><trkpt lat="31.861984178928807" lon="-4.280087447417785"><ele>966.0</ele><time>2026-04-27T07:26:20Z</time></trkpt><trkpt lat="31.86207882392626" lon="-4.280358944617295"><ele>966.0</ele><time>2026-04-27T07:26:21Z</time></trkpt><trkpt lat="31.862183114352597" lon="-4.280626114074857"><ele>967.0</ele><time>2026-04-27T07:26:22Z</time></trkpt><trkpt lat="31.8622821750491" lon="-4.280895681399749"><ele>968.0</ele><time>2026-04-27T07:26:23Z</time></trkpt><trkpt lat="31.862382243670556" lon="-4.281171679902148"><ele>968.5</ele><time>2026-04-27T07:26:24Z</time></trkpt><trkpt lat="31.862483751015635" lon="-4.281449611522325"><ele>969.0</ele><time>2026-04-27T07:26:25Z</time></trkpt><trkpt lat="31.86258240285811" lon="-4.281726692407806"><ele>969.0</ele><time>2026-04-27T07:26:26Z</time></trkpt><trkpt lat="31.862678347073793" lon="-4.282000087117896"><ele>969.0</ele><time>2026-04-27T07:26:27Z</time></trkpt><trkpt lat="31.862772482842367" lon="-4.282265803508222"><ele>969.0</ele><time>2026-04-27T07:26:28Z</time></trkpt><trkpt lat="31.862863512595055" lon="-4.282525178713644"><ele>969.0</ele><time>2026-04-27T07:26:29Z</time></trkpt><trkpt lat="31.862953977945114" lon="-4.2827813249829845"><ele>969.0</ele><time>2026-04-27T07:26:30Z</time></trkpt><trkpt lat="31.86304229290527" lon="-4.283031184914193"><ele>969.0</ele><time>2026-04-27T07:26:31Z</time></trkpt><trkpt lat="31.863129318686177" lon="-4.28327736200124"><ele>969.3333333333333</ele><time>2026-04-27T07:26:32Z</time></trkpt><trkpt lat="31.863214383809158" lon="-4.28351764849665"><ele>969.6666666666666</ele><time>2026-04-27T07:26:33Z</time></trkpt><trkpt lat="31.863300633902202" lon="-4.283749928403721"><ele>970.0</ele><time>2026-04-27T07:26:34Z</time></trkpt><trkpt lat="31.863388100895424" lon="-4.2839852243461705"><ele>969.6666666666666</ele><time>2026-04-27T07:26:35Z</time></trkpt><trkpt lat="31.863475566812003" lon="-4.284222463579324"><ele>969.3333333333333</ele><time>2026-04-27T07:26:36Z</time></trkpt><trkpt lat="31.863565321873452" lon="-4.284463192074136"><ele>969.0</ele><time>2026-04-27T07:26:37Z</time></trkpt><trkpt lat="31.863660967276644" lon="-4.284707215198933"><ele>969.5</ele><time>2026-04-27T07:26:38Z</time></trkpt><trkpt lat="31.863759857038723" lon="-4.284954980786835"><ele>970.0</ele><time>2026-04-27T07:26:39Z</time></trkpt><trkpt lat="31.863859952489058" lon="-4.285205767191765"><ele>970.0</ele><time>2026-04-27T07:26:40Z</time></trkpt><trkpt lat="31.863942502333707" lon="-4.285467993461424"><ele>970.0</ele><time>2026-04-27T07:26:40.999Z</time></trkpt><trkpt lat="31.864052987021363" lon="-4.285714919261"><ele>970.0</ele><time>2026-04-27T07:26:41.999Z</time></trkpt><trkpt lat="31.86416458686383" lon="-4.285958418397002"><ele>970.0</ele><time>2026-04-27T07:26:42.999Z</time></trkpt><trkpt lat="31.864278797042676" lon="-4.286199753805811"><ele>970.6666666666666</ele><time>2026-04-27T07:26:43.999Z</time></trkpt><trkpt lat="31.864387525132862" lon="-4.286429322010975"><ele>971.3333333333333</ele><time>2026-04-27T07:26:44.999Z</time></trkpt><trkpt lat="31.864494771574385" lon="-4.286649747097808"><ele>972.0</ele><time>2026-04-27T07:26:45.999Z</time></trkpt><trkpt lat="31.86460283482256" lon="-4.2868651484325975"><ele>972.0</ele><time>2026-04-27T07:26:46.999Z</time></trkpt><trkpt lat="31.864711963518182" lon="-4.287083056754487"><ele>972.0</ele><time>2026-04-27T07:26:47.999Z</time></trkpt><trkpt lat="31.864828665604197" lon="-4.287302168709682"><ele>972.0</ele><time>2026-04-27T07:26:48.999Z</time></trkpt><trkpt lat="31.86495361812609" lon="-4.287521360926385"><ele>972.0</ele><time>2026-04-27T07:26:49.999Z</time></trkpt><trkpt lat="31.86508316662289" lon="-4.287743556801698"><ele>972.0</ele><time>2026-04-27T07:26:50.999Z</time></trkpt><trkpt lat="31.86522023287365" lon="-4.287963362963006"><ele>973.5</ele><time>2026-04-27T07:26:51.999Z</time></trkpt><trkpt lat="31.86536082825967" lon="-4.288183278674561"><ele>975.0</ele><time>2026-04-27T07:26:52.999Z</time></trkpt><trkpt lat="31.865504432163043" lon="-4.288403264872345"><ele>975.0</ele><time>2026-04-27T07:26:53.999Z</time></trkpt><trkpt lat="31.865650873577785" lon="-4.288622862874669"><ele>975.0</ele><time>2026-04-27T07:26:54.999Z</time></trkpt><trkpt lat="31.865796103932404" lon="-4.288853192959816"><ele>975.0</ele><time>2026-04-27T07:26:55.999Z</time></trkpt><trkpt lat="31.865943642334116" lon="-4.289092677063779"><ele>975.0</ele><time>2026-04-27T07:26:56.999Z</time></trkpt><trkpt lat="31.866097938717434" lon="-4.289332042349432"><ele>975.0</ele><time>2026-04-27T07:26:57.999Z</time></trkpt><trkpt lat="31.866254480152012" lon="-4.289569784106393"><ele>975.0</ele><time>2026-04-27T07:26:58.999Z</time></trkpt><trkpt lat="31.866410988544974" lon="-4.289809039293825"><ele>974.0</ele><time>2026-04-27T07:26:59.999Z</time></trkpt><trkpt lat="31.866569243545147" lon="-4.29004989713481"><ele>973.0</ele><time>2026-04-27T07:27:00.999Z</time></trkpt><trkpt lat="31.866725178374644" lon="-4.290295701718438"><ele>973.0</ele><time>2026-04-27T07:27:01.999Z</time></trkpt><trkpt lat="31.86688444823588" lon="-4.2905441500444965"><ele>973.0</ele><time>2026-04-27T07:27:02.999Z</time></trkpt><trkpt lat="31.867044855407084" lon="-4.290793309765253"><ele>973.5</ele><time>2026-04-27T07:27:03.999Z</time></trkpt><trkpt lat="31.86720894508728" lon="-4.291045230075514"><ele>974.0</ele><time>2026-04-27T07:27:04.999Z</time></trkpt><trkpt lat="31.867371809028814" lon="-4.291297860693931"><ele>974.0</ele><time>2026-04-27T07:27:05.999Z</time></trkpt><trkpt lat="31.867533255582085" lon="-4.291544273357793"><ele>974.0</ele><time>2026-04-27T07:27:06.999Z</time></trkpt><trkpt lat="31.867690604896676" lon="-4.291788963362268"><ele>974.0</ele><time>2026-04-27T07:27:07.999Z</time></trkpt><trkpt lat="31.867846875747528" lon="-4.292035151094111"><ele>974.0</ele><time>2026-04-27T07:27:08.999Z</time></trkpt><trkpt lat="31.868002889621838" lon="-4.29228841889097"><ele>974.0</ele><time>2026-04-27T07:27:09.999Z</time></trkpt><trkpt lat="31.868160632087207" lon="-4.292532889479533"><ele>974.0</ele><time>2026-04-27T07:27:10.999Z</time></trkpt><trkpt lat="31.868320652161337" lon="-4.292781136396678"><ele>974.0</ele><time>2026-04-27T07:27:11.999Z</time></trkpt><trkpt lat="31.868480428437977" lon="-4.2930265668667555"><ele>974.0</ele><time>2026-04-27T07:27:12.999Z</time></trkpt><trkpt lat="31.868635839451123" lon="-4.293267376775314"><ele>974.0</ele><time>2026-04-27T07:27:13.999Z</time></trkpt><trkpt lat="31.868795878773128" lon="-4.293510968028944"><ele>974.0</ele><time>2026-04-27T07:27:14.999Z</time></trkpt><trkpt lat="31.86895890386697" lon="-4.293753301355992"><ele>975.5</ele><time>2026-04-27T07:27:15.999Z</time></trkpt><trkpt lat="31.86912567784505" lon="-4.294004009975864"><ele>977.0</ele><time>2026-04-27T07:27:16.999Z</time></trkpt><trkpt lat="31.86929169248602" lon="-4.294263831664073"><ele>977.0</ele><time>2026-04-27T07:27:17.999Z</time></trkpt><trkpt lat="31.869463526507193" lon="-4.294527551238812"><ele>977.0</ele><time>2026-04-27T07:27:18.999Z</time></trkpt><trkpt lat="31.869638096458115" lon="-4.29479773027331"><ele>977.0</ele><time>2026-04-27T07:27:19.999Z</time></trkpt><trkpt lat="31.86981953671974" lon="-4.295072888618746"><ele>977.0</ele><time>2026-04-27T07:27:20.999Z</time></trkpt><trkpt lat="31.869992209035797" lon="-4.295349468769302"><ele>978.0</ele><time>2026-04-27T07:27:21.999Z</time></trkpt><trkpt lat="31.870166232893087" lon="-4.295626926037636"><ele>979.0</ele><time>2026-04-27T07:27:22.999Z</time></trkpt><trkpt lat="31.870340412133494" lon="-4.2959005370415175"><ele>979.0</ele><time>2026-04-27T07:27:23.999Z</time></trkpt><trkpt lat="31.87051352104834" lon="-4.296173641409878"><ele>979.0</ele><time>2026-04-27T07:27:24.999Z</time></trkpt><trkpt lat="31.870692264867323" lon="-4.296451668213564"><ele>979.0</ele><time>2026-04-27T07:27:25.999Z</time></trkpt><trkpt lat="31.87086898953718" lon="-4.296725549057852"><ele>979.0</ele><time>2026-04-27T07:27:26.999Z</time></trkpt><trkpt lat="31.871043992578795" lon="-4.296997476929064"><ele>979.0</ele><time>2026-04-27T07:27:27.999Z</time></trkpt><trkpt lat="31.871220828259425" lon="-4.297274175603474"><ele>979.0</ele><time>2026-04-27T07:27:28.999Z</time></trkpt><trkpt lat="31.871403411247805" lon="-4.297557899918278"><ele>979.0</ele><time>2026-04-27T07:27:29.999Z</time></trkpt><trkpt lat="31.871588662188003" lon="-4.297844725838263"><ele>979.0</ele><time>2026-04-27T07:27:30.999Z</time></trkpt><trkpt lat="31.87177029969365" lon="-4.298130400188189"><ele>978.5</ele><time>2026-04-27T07:27:31.999Z</time></trkpt><trkpt lat="31.871951505922603" lon="-4.298412889642276"><ele>978.0</ele><time>2026-04-27T07:27:32.999Z</time></trkpt><trkpt lat="31.87212879820026" lon="-4.298689993426399"><ele>978.0</ele><time>2026-04-27T07:27:33.999Z</time></trkpt><trkpt lat="31.872304223923287" lon="-4.2989631866560964"><ele>978.0</ele><time>2026-04-27T07:27:34.999Z</time></trkpt><trkpt lat="31.87248066129823" lon="-4.2992371395755855"><ele>976.5</ele><time>2026-04-27T07:27:35.999Z</time></trkpt><trkpt lat="31.872659332899893" lon="-4.299510854034033"><ele>975.0</ele><time>2026-04-27T07:27:36.999Z</time></trkpt><trkpt lat="31.872840760517295" lon="-4.299788416609403"><ele>974.5</ele><time>2026-04-27T07:27:37.999Z</time></trkpt><trkpt lat="31.873022371271237" lon="-4.300069133423102"><ele>974.0</ele><time>2026-04-27T07:27:38.999Z</time></trkpt><trkpt lat="31.873203178325344" lon="-4.300349817590372"><ele>974.5</ele><time>2026-04-27T07:27:39.999Z</time></trkpt><trkpt lat="31.873384194932296" lon="-4.300630461552033"><ele>975.0</ele><time>2026-04-27T07:27:41Z</time></trkpt><trkpt lat="31.8735627400369" lon="-4.300908211302271"><ele>975.0</ele><time>2026-04-27T07:27:42Z</time></trkpt><trkpt lat="31.873734225219454" lon="-4.301178036255147"><ele>975.0</ele><time>2026-04-27T07:27:43Z</time></trkpt><trkpt lat="31.873901851495347" lon="-4.30144119679361"><ele>975.0</ele><time>2026-04-27T07:27:44Z</time></trkpt><trkpt lat="31.87406515830975" lon="-4.301697779161315"><ele>975.0</ele><time>2026-04-27T07:27:45Z</time></trkpt><trkpt lat="31.87424779985117" lon="-4.301930683775879"><ele>975.5</ele><time>2026-04-27T07:27:46Z</time></trkpt><trkpt lat="31.87441053013408" lon="-4.302180613555386"><ele>976.0</ele><time>2026-04-27T07:27:47Z</time></trkpt><trkpt lat="31.874572903644452" lon="-4.30242992204656"><ele>976.0</ele><time>2026-04-27T07:27:48Z</time></trkpt><trkpt lat="31.874737275367284" lon="-4.302682285638259"><ele>976.0</ele><time>2026-04-27T07:27:49Z</time></trkpt><trkpt lat="31.874891528993434" lon="-4.302947910406793"><ele>977.0</ele><time>2026-04-27T07:27:50Z</time></trkpt><trkpt lat="31.875085897053275" lon="-4.303181291964804"><ele>978.0</ele><time>2026-04-27T07:27:51Z</time></trkpt><trkpt lat="31.87525829011797" lon="-4.303444232074308"><ele>976.0</ele><time>2026-04-27T07:27:52Z</time></trkpt><trkpt lat="31.87544756921202" lon="-4.303696966145032"><ele>974.0</ele><time>2026-04-27T07:27:53Z</time></trkpt><trkpt lat="31.87564645909395" lon="-4.303938173499615"><ele>974.0</ele><time>2026-04-27T07:27:54Z</time></trkpt><trkpt lat="31.875830475318207" lon="-4.304187244532667"><ele>974.0</ele><time>2026-04-27T07:27:55Z</time></trkpt><trkpt lat="31.8760115166411" lon="-4.304432257815805"><ele>974.5</ele><time>2026-04-27T07:27:56Z</time></trkpt><trkpt lat="31.876191477236215" lon="-4.304675681733815"><ele>975.0</ele><time>2026-04-27T07:27:57Z</time></trkpt><trkpt lat="31.876369699040996" lon="-4.304916478868004"><ele>975.0</ele><time>2026-04-27T07:27:58Z</time></trkpt><trkpt lat="31.876547579491046" lon="-4.305156671936108"><ele>975.0</ele><time>2026-04-27T07:27:59Z</time></trkpt><trkpt lat="31.876721471584904" lon="-4.305390851619137"><ele>975.0</ele><time>2026-04-27T07:28:00Z</time></trkpt><trkpt lat="31.876892564031696" lon="-4.305622134390393"><ele>975.0</ele><time>2026-04-27T07:28:01Z</time></trkpt><trkpt lat="31.877064112533393" lon="-4.305854033978205"><ele>975.0</ele><time>2026-04-27T07:28:02Z</time></trkpt><trkpt lat="31.87724297385637" lon="-4.306096215255949"><ele>975.0</ele><time>2026-04-27T07:28:03Z</time></trkpt><trkpt lat="31.877434571486656" lon="-4.306355651380207"><ele>974.5</ele><time>2026-04-27T07:28:04Z</time></trkpt><trkpt lat="31.87763427466482" lon="-4.306625088012985"><ele>974.0</ele><time>2026-04-27T07:28:05Z</time></trkpt><trkpt lat="31.877832690775218" lon="-4.306892995271896"><ele>974.0</ele><time>2026-04-27T07:28:06Z</time></trkpt><trkpt lat="31.878029922129507" lon="-4.307160975440964"><ele>974.0</ele><time>2026-04-27T07:28:07Z</time></trkpt><trkpt lat="31.878223515657954" lon="-4.307423436898604"><ele>974.0</ele><time>2026-04-27T07:28:08Z</time></trkpt><trkpt lat="31.878401617680453" lon="-4.307691151858879"><ele>974.0</ele><time>2026-04-27T07:28:09Z</time></trkpt><trkpt lat="31.878590192594537" lon="-4.307946039230644"><ele>973.5</ele><time>2026-04-27T07:28:10Z</time></trkpt><trkpt lat="31.87878050436504" lon="-4.308205144174865"><ele>973.0</ele><time>2026-04-27T07:28:11Z</time></trkpt><trkpt lat="31.878973544437713" lon="-4.308466961688974"><ele>973.0</ele><time>2026-04-27T07:28:12Z</time></trkpt><trkpt lat="31.87916359068434" lon="-4.308726171059163"><ele>973.0</ele><time>2026-04-27T07:28:13Z</time></trkpt><trkpt lat="31.879369251863977" lon="-4.308971935701573"><ele>975.0</ele><time>2026-04-27T07:28:14Z</time></trkpt><trkpt lat="31.879560692234314" lon="-4.309225585993685"><ele>977.0</ele><time>2026-04-27T07:28:15Z</time></trkpt><trkpt lat="31.87973556058386" lon="-4.309488680111966"><ele>977.0</ele><time>2026-04-27T07:28:16Z</time></trkpt><trkpt lat="31.879922411139" lon="-4.309738970211602"><ele>977.0</ele><time>2026-04-27T07:28:17Z</time></trkpt><trkpt lat="31.880109340538752" lon="-4.309991386428776"><ele>977.5</ele><time>2026-04-27T07:28:18Z</time></trkpt><trkpt lat="31.880297880349115" lon="-4.310247078947351"><ele>978.0</ele><time>2026-04-27T07:28:19Z</time></trkpt><trkpt lat="31.88049577448405" lon="-4.310480747526238"><ele>978.5</ele><time>2026-04-27T07:28:20Z</time></trkpt><trkpt lat="31.88068564555324" lon="-4.3107322886277775"><ele>979.0</ele><time>2026-04-27T07:28:21Z</time></trkpt><trkpt lat="31.88087202913581" lon="-4.3109890996409765"><ele>978.5</ele><time>2026-04-27T07:28:22Z</time></trkpt><trkpt lat="31.881059753906694" lon="-4.311233411969041"><ele>978.0</ele><time>2026-04-27T07:28:23Z</time></trkpt><trkpt lat="31.881232629746346" lon="-4.3114664465958015"><ele>978.0</ele><time>2026-04-27T07:28:24Z</time></trkpt><trkpt lat="31.881389460514473" lon="-4.311679284007813"><ele>978.0</ele><time>2026-04-27T07:28:25Z</time></trkpt><trkpt lat="31.88154116868032" lon="-4.311885169504622"><ele>978.0</ele><time>2026-04-27T07:28:26Z</time></trkpt><trkpt lat="31.881684823194664" lon="-4.312079726532155"><ele>978.0</ele><time>2026-04-27T07:28:27Z</time></trkpt><trkpt lat="31.881822633404493" lon="-4.312264377792512"><ele>978.0</ele><time>2026-04-27T07:28:28Z</time></trkpt><trkpt lat="31.88196003527427" lon="-4.312448085174024"><ele>978.3333333333333</ele><time>2026-04-27T07:28:29Z</time></trkpt><trkpt lat="31.882097250528716" lon="-4.312630753689249"><ele>978.6666666666666</ele><time>2026-04-27T07:28:30Z</time></trkpt><trkpt lat="31.88223088655512" lon="-4.312810976018646"><ele>979.0</ele><time>2026-04-27T07:28:31Z</time></trkpt><trkpt lat="31.882368509453265" lon="-4.312997557011607"><ele>979.3333333333333</ele><time>2026-04-27T07:28:32Z</time></trkpt><trkpt lat="31.882509829431907" lon="-4.313189648251491"><ele>979.6666666666667</ele><time>2026-04-27T07:28:33Z</time></trkpt><trkpt lat="31.88265530372044" lon="-4.313385795394592"><ele>980.0</ele><time>2026-04-27T07:28:34Z</time></trkpt><trkpt lat="31.882797134224884" lon="-4.313580782838416"><ele>980.0</ele><time>2026-04-27T07:28:35Z</time></trkpt><trkpt lat="31.882940853699974" lon="-4.313777848010823"><ele>980.0</ele><time>2026-04-27T07:28:36Z</time></trkpt><trkpt lat="31.883085472928" lon="-4.313969614996581"><ele>980.0</ele><time>2026-04-27T07:28:37Z</time></trkpt><trkpt lat="31.88323857827496" lon="-4.314178014910797"><ele>980.0</ele><time>2026-04-27T07:28:38Z</time></trkpt><trkpt lat="31.88339664372981" lon="-4.314394810809089"><ele>980.0</ele><time>2026-04-27T07:28:39Z</time></trkpt><trkpt lat="31.883561882243608" lon="-4.314618631944663"><ele>980.5</ele><time>2026-04-27T07:28:40Z</time></trkpt><trkpt lat="31.883739423302575" lon="-4.314861972905309"><ele>981.0</ele><time>2026-04-27T07:28:41Z</time></trkpt><trkpt lat="31.88392016206094" lon="-4.315107485438107"><ele>981.0</ele><time>2026-04-27T07:28:42Z</time></trkpt><trkpt lat="31.88409608262303" lon="-4.315348121714251"><ele>981.0</ele><time>2026-04-27T07:28:42.999Z</time></trkpt><trkpt lat="31.88426982945446" lon="-4.315574348061166"><ele>980.5</ele><time>2026-04-27T07:28:43.999Z</time></trkpt><trkpt lat="31.88443217065457" lon="-4.31580011189138"><ele>980.0</ele><time>2026-04-27T07:28:44.999Z</time></trkpt><trkpt lat="31.884592744499056" lon="-4.316018468977562"><ele>980.0</ele><time>2026-04-27T07:28:45.999Z</time></trkpt><trkpt lat="31.884751111773614" lon="-4.316229556241979"><ele>980.0</ele><time>2026-04-27T07:28:46.999Z</time></trkpt><trkpt lat="31.884907260068573" lon="-4.316437691227606"><ele>980.0</ele><time>2026-04-27T07:28:47.999Z</time></trkpt><trkpt lat="31.885061496915288" lon="-4.316643278383735"><ele>980.0</ele><time>2026-04-27T07:28:48.999Z</time></trkpt><trkpt lat="31.885216905585487" lon="-4.316852334446666"><ele>980.5</ele><time>2026-04-27T07:28:49.999Z</time></trkpt><trkpt lat="31.88535416251172" lon="-4.317073734934451"><ele>981.0</ele><time>2026-04-27T07:28:50.999Z</time></trkpt><trkpt lat="31.885504133126286" lon="-4.317278080399058"><ele>981.0</ele><time>2026-04-27T07:28:51.999Z</time></trkpt><trkpt lat="31.885655696775846" lon="-4.317481624104664"><ele>981.0</ele><time>2026-04-27T07:28:52.999Z</time></trkpt><trkpt lat="31.885805838401566" lon="-4.317685002448994"><ele>981.5</ele><time>2026-04-27T07:28:53.999Z</time></trkpt><trkpt lat="31.885955160262846" lon="-4.31789022248407"><ele>982.0</ele><time>2026-04-27T07:28:54.999Z</time></trkpt><trkpt lat="31.886104023909656" lon="-4.318094702000906"><ele>982.5</ele><time>2026-04-27T07:28:55.999Z</time></trkpt><trkpt lat="31.886256655973437" lon="-4.318299466991035"><ele>983.0</ele><time>2026-04-27T07:28:56.999Z</time></trkpt><trkpt lat="31.8864133380188" lon="-4.3185056543026406"><ele>983.0</ele><time>2026-04-27T07:28:57.999Z</time></trkpt><trkpt lat="31.88656924366101" lon="-4.318713572528255"><ele>983.0</ele><time>2026-04-27T07:28:58.999Z</time></trkpt><trkpt lat="31.886727274345446" lon="-4.318922750591663"><ele>981.5</ele><time>2026-04-27T07:28:59.999Z</time></trkpt><trkpt lat="31.886881251168827" lon="-4.319134206697226"><ele>980.0</ele><time>2026-04-27T07:29:00.999Z</time></trkpt><trkpt lat="31.887033335833838" lon="-4.319344752748981"><ele>980.0</ele><time>2026-04-27T07:29:01.999Z</time></trkpt><trkpt lat="31.88718557898174" lon="-4.319551059893935"><ele>980.0</ele><time>2026-04-27T07:29:02.999Z</time></trkpt><trkpt lat="31.887332825670843" lon="-4.319748573124489"><ele>980.3333333333334</ele><time>2026-04-27T07:29:03.999Z</time></trkpt><trkpt lat="31.887474444100782" lon="-4.31993835125969"><ele>980.6666666666667</ele><time>2026-04-27T07:29:04.999Z</time></trkpt><trkpt lat="31.88760845239168" lon="-4.320117751559159"><ele>981.0</ele><time>2026-04-27T07:29:05.999Z</time></trkpt><trkpt lat="31.88773674459133" lon="-4.320291452558011"><ele>981.3333333333333</ele><time>2026-04-27T07:29:06.999Z</time></trkpt><trkpt lat="31.887864435058077" lon="-4.320464671308914"><ele>981.6666666666666</ele><time>2026-04-27T07:29:07.999Z</time></trkpt><trkpt lat="31.887992334859565" lon="-4.320636258550704"><ele>982.0</ele><time>2026-04-27T07:29:08.999Z</time></trkpt><trkpt lat="31.888125870857962" lon="-4.3208167375644315"><ele>982.3333333333333</ele><time>2026-04-27T07:29:09.999Z</time></trkpt><trkpt lat="31.888259740229874" lon="-4.320999554110614"><ele>982.6666666666667</ele><time>2026-04-27T07:29:10.999Z</time></trkpt><trkpt lat="31.888394106750265" lon="-4.321186454559917"><ele>983.0</ele><time>2026-04-27T07:29:11.999Z</time></trkpt><trkpt lat="31.88852988793046" lon="-4.321372134489838"><ele>982.3333333333334</ele><time>2026-04-27T07:29:12.999Z</time></trkpt><trkpt lat="31.888667291369494" lon="-4.321552611830636"><ele>981.6666666666667</ele><time>2026-04-27T07:29:13.999Z</time></trkpt><trkpt lat="31.888793567453906" lon="-4.321720754753141"><ele>981.0</ele><time>2026-04-27T07:29:14.999Z</time></trkpt><trkpt lat="31.888906197368538" lon="-4.321874937993559"><ele>981.0</ele><time>2026-04-27T07:29:15.999Z</time></trkpt><trkpt lat="31.88902055474848" lon="-4.322034479073876"><ele>981.0</ele><time>2026-04-27T07:29:16.999Z</time></trkpt><trkpt lat="31.889141037366308" lon="-4.3222028772269745"><ele>981.0</ele><time>2026-04-27T07:29:17.999Z</time></trkpt><trkpt lat="31.889267101706196" lon="-4.3223715826354665"><ele>982.0</ele><time>2026-04-27T07:29:18.999Z</time></trkpt><trkpt lat="31.889401967545375" lon="-4.32255026911073"><ele>983.0</ele><time>2026-04-27T07:29:19.999Z</time></trkpt><trkpt lat="31.88953876831283" lon="-4.322735366763106"><ele>984.0</ele><time>2026-04-27T07:29:20.999Z</time></trkpt><trkpt lat="31.88967838759344" lon="-4.322929406953713"><ele>983.5</ele><time>2026-04-27T07:29:21.999Z</time></trkpt><trkpt lat="31.8898286253037" lon="-4.323140214085311"><ele>983.0</ele><time>2026-04-27T07:29:22.999Z</time></trkpt><trkpt lat="31.889996155236467" lon="-4.323378971770988"><ele>983.0</ele><time>2026-04-27T07:29:23.999Z</time></trkpt><trkpt lat="31.890170072143082" lon="-4.323626857078674"><ele>983.0</ele><time>2026-04-27T07:29:24.999Z</time></trkpt><trkpt lat="31.890350110134236" lon="-4.32388530420589"><ele>983.5</ele><time>2026-04-27T07:29:25.999Z</time></trkpt><trkpt lat="31.89054316690624" lon="-4.324152742515535"><ele>984.0</ele><time>2026-04-27T07:29:26.999Z</time></trkpt><trkpt lat="31.890745550554346" lon="-4.324423650361515"><ele>985.0</ele><time>2026-04-27T07:29:27.999Z</time></trkpt><trkpt lat="31.890952384093115" lon="-4.324697528697256"><ele>986.0</ele><time>2026-04-27T07:29:28.999Z</time></trkpt><trkpt lat="31.89116168445027" lon="-4.3249738509292355"><ele>984.0</ele><time>2026-04-27T07:29:29.999Z</time></trkpt><trkpt lat="31.89136977532356" lon="-4.325249476872484"><ele>982.0</ele><time>2026-04-27T07:29:30.999Z</time></trkpt><trkpt lat="31.89157318842336" lon="-4.32552009851059"><ele>983.5</ele><time>2026-04-27T07:29:31.999Z</time></trkpt><trkpt lat="31.891769944527216" lon="-4.325784756039179"><ele>985.0</ele><time>2026-04-27T07:29:32.999Z</time></trkpt><trkpt lat="31.891963307366897" lon="-4.3260462358790805"><ele>985.0</ele><time>2026-04-27T07:29:33.999Z</time></trkpt><trkpt lat="31.89215152352575" lon="-4.326301096029571"><ele>985.0</ele><time>2026-04-27T07:29:34.999Z</time></trkpt><trkpt lat="31.892335103488282" lon="-4.326549459489666"><ele>985.0</ele><time>2026-04-27T07:29:35.999Z</time></trkpt><trkpt lat="31.89251306183087" lon="-4.3267901960019115"><ele>985.0</ele><time>2026-04-27T07:29:36.999Z</time></trkpt><trkpt lat="31.892684697897355" lon="-4.327023804222625"><ele>985.0</ele><time>2026-04-27T07:29:37.999Z</time></trkpt><trkpt lat="31.892850491918523" lon="-4.327250293132537"><ele>985.0</ele><time>2026-04-27T07:29:38.999Z</time></trkpt><trkpt lat="31.893007832395778" lon="-4.327468402541044"><ele>985.0</ele><time>2026-04-27T07:29:39.999Z</time></trkpt><trkpt lat="31.89316053301424" lon="-4.327677460372648"><ele>985.0</ele><time>2026-04-27T07:29:40.999Z</time></trkpt><trkpt lat="31.89331315645987" lon="-4.327880136358481"><ele>985.3333333333333</ele><time>2026-04-27T07:29:41.999Z</time></trkpt><trkpt lat="31.893462250808422" lon="-4.32807753415128"><ele>985.6666666666667</ele><time>2026-04-27T07:29:42.999Z</time></trkpt><trkpt lat="31.893607663661545" lon="-4.328277921679836"><ele>986.0</ele><time>2026-04-27T07:29:43.999Z</time></trkpt><trkpt lat="31.893756844979016" lon="-4.328484114942321"><ele>986.0</ele><time>2026-04-27T07:29:44.999Z</time></trkpt><trkpt lat="31.893908215820364" lon="-4.328693448409642"><ele>986.0</ele><time>2026-04-27T07:29:46Z</time></trkpt><trkpt lat="31.89406860966771" lon="-4.328906877899896"><ele>985.5</ele><time>2026-04-27T07:29:47Z</time></trkpt><trkpt lat="31.894231111381174" lon="-4.329127331839351"><ele>985.0</ele><time>2026-04-27T07:29:48Z</time></trkpt><trkpt lat="31.894396029480024" lon="-4.3293567134737865"><ele>985.0</ele><time>2026-04-27T07:29:49Z</time></trkpt><trkpt lat="31.894567587014514" lon="-4.329589143820452"><ele>985.0</ele><time>2026-04-27T07:29:50Z</time></trkpt><trkpt lat="31.894742105899564" lon="-4.32982235445499"><ele>986.0</ele><time>2026-04-27T07:29:51Z</time></trkpt><trkpt lat="31.89491548218639" lon="-4.330054760627781"><ele>987.0</ele><time>2026-04-27T07:29:52Z</time></trkpt><trkpt lat="31.89508656154846" lon="-4.330286092633978"><ele>986.5</ele><time>2026-04-27T07:29:53Z</time></trkpt><trkpt lat="31.89525113440353" lon="-4.330511559743608"><ele>986.0</ele><time>2026-04-27T07:29:54Z</time></trkpt><trkpt lat="31.895405346404107" lon="-4.330720286257524"><ele>986.6666666666667</ele><time>2026-04-27T07:29:55Z</time></trkpt><trkpt lat="31.89554971619597" lon="-4.330915219766483"><ele>987.3333333333333</ele><time>2026-04-27T07:29:56Z</time></trkpt><trkpt lat="31.89568625979195" lon="-4.331100738781805"><ele>988.0</ele><time>2026-04-27T07:29:57Z</time></trkpt><trkpt lat="31.895814230283445" lon="-4.331277317126976"><ele>988.3333333333333</ele><time>2026-04-27T07:29:58Z</time></trkpt><trkpt lat="31.895932391803903" lon="-4.3314484921822"><ele>988.6666666666667</ele><time>2026-04-27T07:29:59Z</time></trkpt><trkpt lat="31.89604334813853" lon="-4.331623297359512"><ele>989.0</ele><time>2026-04-27T07:30:00Z</time></trkpt><trkpt lat="31.896158828262976" lon="-4.331783798141436"><ele>989.0</ele><time>2026-04-27T07:30:01Z</time></trkpt><trkpt lat="31.896233017943484" lon="-4.331964100660657"><ele>989.0</ele><time>2026-04-27T07:30:02Z</time></trkpt><trkpt lat="31.896315781428545" lon="-4.332127153919513"><ele>989.0</ele><time>2026-04-27T07:30:03Z</time></trkpt><trkpt lat="31.896411404595387" lon="-4.332288852399686"><ele>987.6666666666667</ele><time>2026-04-27T07:30:04Z</time></trkpt><trkpt lat="31.896497554402142" lon="-4.332478349422034"><ele>986.3333333333333</ele><time>2026-04-27T07:30:05Z</time></trkpt><trkpt lat="31.896589181143554" lon="-4.332680885276174"><ele>985.0</ele><time>2026-04-27T07:30:06Z</time></trkpt><trkpt lat="31.896686908120188" lon="-4.332896720184637"><ele>985.0</ele><time>2026-04-27T07:30:07Z</time></trkpt><trkpt lat="31.896790447276857" lon="-4.333124051672949"><ele>985.0</ele><time>2026-04-27T07:30:08Z</time></trkpt><trkpt lat="31.89689796451114" lon="-4.33336067229727"><ele>985.0</ele><time>2026-04-27T07:30:09Z</time></trkpt><trkpt lat="31.897008387280724" lon="-4.333601573880223"><ele>985.0</ele><time>2026-04-27T07:30:10Z</time></trkpt><trkpt lat="31.897122912385708" lon="-4.333842863734114"><ele>985.0</ele><time>2026-04-27T07:30:11Z</time></trkpt><trkpt lat="31.89723637558913" lon="-4.334081917469318"><ele>985.0</ele><time>2026-04-27T07:30:12Z</time></trkpt><trkpt lat="31.897351213837045" lon="-4.334323908907649"><ele>985.0</ele><time>2026-04-27T07:30:13Z</time></trkpt><trkpt lat="31.897453413307744" lon="-4.334574992925322"><ele>985.5</ele><time>2026-04-27T07:30:14Z</time></trkpt><trkpt lat="31.89757360807875" lon="-4.334816807254684"><ele>986.0</ele><time>2026-04-27T07:30:15Z</time></trkpt><trkpt lat="31.89769494662716" lon="-4.335064159515727"><ele>986.0</ele><time>2026-04-27T07:30:16Z</time></trkpt><trkpt lat="31.897819259044667" lon="-4.335320434126211"><ele>986.0</ele><time>2026-04-27T07:30:17Z</time></trkpt><trkpt lat="31.897945545960553" lon="-4.335582863849257"><ele>986.0</ele><time>2026-04-27T07:30:18Z</time></trkpt><trkpt lat="31.898070943188937" lon="-4.335843038387752"><ele>986.0</ele><time>2026-04-27T07:30:19Z</time></trkpt><trkpt lat="31.898193312792106" lon="-4.3360986801652235"><ele>986.0</ele><time>2026-04-27T07:30:20Z</time></trkpt><trkpt lat="31.898301044933593" lon="-4.336338448928064"><ele>986.0</ele><time>2026-04-27T07:30:21Z</time></trkpt><trkpt lat="31.898396015004923" lon="-4.336570935617264"><ele>986.0</ele><time>2026-04-27T07:30:22Z</time></trkpt><trkpt lat="31.898475427401507" lon="-4.336794471905031"><ele>987.0</ele><time>2026-04-27T07:30:23Z</time></trkpt><trkpt lat="31.898535971712594" lon="-4.337010917409914"><ele>988.0</ele><time>2026-04-27T07:30:24Z</time></trkpt><trkpt lat="31.898587166240564" lon="-4.337219357448545"><ele>989.0</ele><time>2026-04-27T07:30:25Z</time></trkpt><trkpt lat="31.898641080894052" lon="-4.337415403159734"><ele>989.25</ele><time>2026-04-27T07:30:26Z</time></trkpt><trkpt lat="31.898694540933953" lon="-4.337587140157511"><ele>989.5</ele><time>2026-04-27T07:30:27Z</time></trkpt><trkpt lat="31.898758850586496" lon="-4.337741657996248"><ele>989.75</ele><time>2026-04-27T07:30:28Z</time></trkpt><trkpt lat="31.89883144124359" lon="-4.337878420385409"><ele>990.0</ele><time>2026-04-27T07:30:29Z</time></trkpt><trkpt lat="31.898894472454177" lon="-4.3380142755828635"><ele>990.25</ele><time>2026-04-27T07:30:30Z</time></trkpt><trkpt lat="31.898932550490724" lon="-4.338159909384818"><ele>990.5</ele><time>2026-04-27T07:30:31Z</time></trkpt><trkpt lat="31.898948257924925" lon="-4.338315239979842"><ele>990.75</ele><time>2026-04-27T07:30:32Z</time></trkpt><trkpt lat="31.8989493805015" lon="-4.3384828059281855"><ele>991.0</ele><time>2026-04-27T07:30:33Z</time></trkpt><trkpt lat="31.898973097965758" lon="-4.338675291302441"><ele>991.0</ele><time>2026-04-27T07:30:34Z</time></trkpt><trkpt lat="31.899025039963142" lon="-4.338887594498413"><ele>991.0</ele><time>2026-04-27T07:30:35Z</time></trkpt><trkpt lat="31.899073547024425" lon="-4.339119133809253"><ele>991.0</ele><time>2026-04-27T07:30:36Z</time></trkpt><trkpt lat="31.89912547147404" lon="-4.339362883372756"><ele>991.0</ele><time>2026-04-27T07:30:37Z</time></trkpt><trkpt lat="31.89918451653255" lon="-4.339618708535387"><ele>991.0</ele><time>2026-04-27T07:30:38Z</time></trkpt><trkpt lat="31.899246349056046" lon="-4.3398731580254735"><ele>992.0</ele><time>2026-04-27T07:30:39Z</time></trkpt><trkpt lat="31.899309010612733" lon="-4.340128483921929"><ele>993.0</ele><time>2026-04-27T07:30:40Z</time></trkpt><trkpt lat="31.899372351301288" lon="-4.34039186388054"><ele>994.5</ele><time>2026-04-27T07:30:41Z</time></trkpt><trkpt lat="31.899438260012104" lon="-4.340668845119031"><ele>996.0</ele><time>2026-04-27T07:30:41.999Z</time></trkpt><trkpt lat="31.8995058741415" lon="-4.340955282139957"><ele>996.0</ele><time>2026-04-27T07:30:42.999Z</time></trkpt><trkpt lat="31.899574449544605" lon="-4.341242853116134"><ele>996.0</ele><time>2026-04-27T07:30:43.999Z</time></trkpt><trkpt lat="31.899643467077656" lon="-4.34152254889828"><ele>995.0</ele><time>2026-04-27T07:30:44.999Z</time></trkpt><trkpt lat="31.899714026824068" lon="-4.341798099148497"><ele>994.0</ele><time>2026-04-27T07:30:45.999Z</time></trkpt><trkpt lat="31.89978224192395" lon="-4.342072590474298"><ele>995.0</ele><time>2026-04-27T07:30:46.999Z</time></trkpt><trkpt lat="31.89984805645045" lon="-4.342346716302712"><ele>996.0</ele><time>2026-04-27T07:30:47.999Z</time></trkpt><trkpt lat="31.8999126286163" lon="-4.34262324422459"><ele>996.0</ele><time>2026-04-27T07:30:48.999Z</time></trkpt><trkpt lat="31.899981292213674" lon="-4.342908886895438"><ele>996.0</ele><time>2026-04-27T07:30:49.999Z</time></trkpt><trkpt lat="31.900056260746943" lon="-4.3432002951033155"><ele>993.5</ele><time>2026-04-27T07:30:50.999Z</time></trkpt><trkpt lat="31.900136935886888" lon="-4.34349665655055"><ele>991.0</ele><time>2026-04-27T07:30:51.999Z</time></trkpt><trkpt lat="31.90021869174157" lon="-4.343788503178007"><ele>991.0</ele><time>2026-04-27T07:30:52.999Z</time></trkpt><trkpt lat="31.900302155494664" lon="-4.34407381612027"><ele>991.0</ele><time>2026-04-27T07:30:53.999Z</time></trkpt><trkpt lat="31.900387449926484" lon="-4.344351085817335"><ele>991.0</ele><time>2026-04-27T07:30:54.999Z</time></trkpt><trkpt lat="31.900473362800657" lon="-4.344619931340287"><ele>991.0</ele><time>2026-04-27T07:30:55.999Z</time></trkpt><trkpt lat="31.90055920796206" lon="-4.3448799315228515"><ele>992.5</ele><time>2026-04-27T07:30:56.999Z</time></trkpt><trkpt lat="31.900658821125997" lon="-4.34512254447008"><ele>994.0</ele><time>2026-04-27T07:30:57.999Z</time></trkpt><trkpt lat="31.900744712225183" lon="-4.34537317359756"><ele>994.0</ele><time>2026-04-27T07:30:58.999Z</time></trkpt><trkpt lat="31.900844104734432" lon="-4.3456219916218375"><ele>994.0</ele><time>2026-04-27T07:30:59.999Z</time></trkpt><trkpt lat="31.900943512088332" lon="-4.345879121276284"><ele>994.0</ele><time>2026-04-27T07:31:00.999Z</time></trkpt><trkpt lat="31.9010365321849" lon="-4.346150682656879"><ele>994.0</ele><time>2026-04-27T07:31:01.999Z</time></trkpt><trkpt lat="31.90115453172221" lon="-4.346414031664389"><ele>995.0</ele><time>2026-04-27T07:31:02.999Z</time></trkpt><trkpt lat="31.901268495895543" lon="-4.346670238031972"><ele>996.0</ele><time>2026-04-27T07:31:03.999Z</time></trkpt><trkpt lat="31.901377372621706" lon="-4.3469123751031615"><ele>996.0</ele><time>2026-04-27T07:31:04.999Z</time></trkpt><trkpt lat="31.90148442285148" lon="-4.34714374921227"><ele>996.0</ele><time>2026-04-27T07:31:05.999Z</time></trkpt><trkpt lat="31.901588873666007" lon="-4.3473669180375545"><ele>996.0</ele><time>2026-04-27T07:31:06.999Z</time></trkpt><trkpt lat="31.901695767148215" lon="-4.347584217711525"><ele>996.3333333333333</ele><time>2026-04-27T07:31:07.999Z</time></trkpt><trkpt lat="31.90180979024289" lon="-4.347807452047801"><ele>996.6666666666666</ele><time>2026-04-27T07:31:08.999Z</time></trkpt><trkpt lat="31.901929270009248" lon="-4.3480359774095865"><ele>997.0</ele><time>2026-04-27T07:31:09.999Z</time></trkpt><trkpt lat="31.90205369672294" lon="-4.34826743825892"><ele>998.0</ele><time>2026-04-27T07:31:10.999Z</time></trkpt><trkpt lat="31.902180956015638" lon="-4.348498529317202"><ele>999.0</ele><time>2026-04-27T07:31:11.999Z</time></trkpt><trkpt lat="31.902310431312195" lon="-4.348729993467668"><ele>998.0</ele><time>2026-04-27T07:31:12.999Z</time></trkpt><trkpt lat="31.902442893715" lon="-4.348960233968231"><ele>997.0</ele><time>2026-04-27T07:31:13.999Z</time></trkpt><trkpt lat="31.902577779738735" lon="-4.349186940537528"><ele>997.5</ele><time>2026-04-27T07:31:14.999Z</time></trkpt><trkpt lat="31.90271100589698" lon="-4.349406971366836"><ele>998.0</ele><time>2026-04-27T07:31:15.999Z</time></trkpt><trkpt lat="31.902842878446798" lon="-4.3496219243519025"><ele>999.0</ele><time>2026-04-27T07:31:16.999Z</time></trkpt><trkpt lat="31.90297502018868" lon="-4.34983740233135"><ele>1000.0</ele><time>2026-04-27T07:31:17.999Z</time></trkpt><trkpt lat="31.903107925417995" lon="-4.35005445165836"><ele>1000.0</ele><time>2026-04-27T07:31:18.999Z</time></trkpt><trkpt lat="31.903243180089227" lon="-4.350275274610154"><ele>1000.0</ele><time>2026-04-27T07:31:19.999Z</time></trkpt><trkpt lat="31.90337906522007" lon="-4.3504957249189475"><ele>1000.0</ele><time>2026-04-27T07:31:20.999Z</time></trkpt><trkpt lat="31.90351377442595" lon="-4.35071200450403"><ele>1000.0</ele><time>2026-04-27T07:31:21.999Z</time></trkpt><trkpt lat="31.903646399906314" lon="-4.350923350514672"><ele>1000.0</ele><time>2026-04-27T07:31:22.999Z</time></trkpt><trkpt lat="31.9037768714666" lon="-4.351130298922208"><ele>1000.0</ele><time>2026-04-27T07:31:23.999Z</time></trkpt><trkpt lat="31.90390537047469" lon="-4.351333372649771"><ele>1000.0</ele><time>2026-04-27T07:31:24.999Z</time></trkpt><trkpt lat="31.904032831202517" lon="-4.351532864149365"><ele>1000.0</ele><time>2026-04-27T07:31:25.999Z</time></trkpt><trkpt lat="31.904158407836807" lon="-4.351731125085115"><ele>1000.0</ele><time>2026-04-27T07:31:26.999Z</time></trkpt><trkpt lat="31.90428277654327" lon="-4.351932717053761"><ele>1000.0</ele><time>2026-04-27T07:31:27.999Z</time></trkpt><trkpt lat="31.904408134999656" lon="-4.352137059772999"><ele>1000.0</ele><time>2026-04-27T07:31:28.999Z</time></trkpt><trkpt lat="31.90454090784748" lon="-4.352349542237208"><ele>1000.0</ele><time>2026-04-27T07:31:29.999Z</time></trkpt><trkpt lat="31.904676991381724" lon="-4.352565750140506"><ele>1000.0</ele><time>2026-04-27T07:31:30.999Z</time></trkpt><trkpt lat="31.90481270675743" lon="-4.352783345511728"><ele>1000.0</ele><time>2026-04-27T07:31:31.999Z</time></trkpt><trkpt lat="31.90494603497316" lon="-4.353004464612663"><ele>998.5</ele><time>2026-04-27T07:31:32.999Z</time></trkpt><trkpt lat="31.905079545372303" lon="-4.353227770119196"><ele>997.0</ele><time>2026-04-27T07:31:33.999Z</time></trkpt><trkpt lat="31.905216851357952" lon="-4.353452842437796"><ele>997.0</ele><time>2026-04-27T07:31:34.999Z</time></trkpt><trkpt lat="31.905357236940873" lon="-4.353676858483167"><ele>997.0</ele><time>2026-04-27T07:31:35.999Z</time></trkpt><trkpt lat="31.90549578219983" lon="-4.353896940539596"><ele>999.0</ele><time>2026-04-27T07:31:36.999Z</time></trkpt><trkpt lat="31.905634587715024" lon="-4.354117265887395"><ele>1001.0</ele><time>2026-04-27T07:31:37.999Z</time></trkpt><trkpt lat="31.905771745525982" lon="-4.3543363474653365"><ele>1001.0</ele><time>2026-04-27T07:31:38.999Z</time></trkpt><trkpt lat="31.905907049773422" lon="-4.354556541075144"><ele>1001.0</ele><time>2026-04-27T07:31:39.999Z</time></trkpt><trkpt lat="31.90604390045587" lon="-4.354778148639782"><ele>999.0</ele><time>2026-04-27T07:31:40.999Z</time></trkpt><trkpt lat="31.906183303734966" lon="-4.355001300990556"><ele>997.0</ele><time>2026-04-27T07:31:41.999Z</time></trkpt><trkpt lat="31.906323200666094" lon="-4.355226201336166"><ele>997.0</ele><time>2026-04-27T07:31:42.999Z</time></trkpt><trkpt lat="31.90646155062697" lon="-4.355447871189286"><ele>997.0</ele><time>2026-04-27T07:31:43.999Z</time></trkpt><trkpt lat="31.906598983580196" lon="-4.355665756896995"><ele>997.0</ele><time>2026-04-27T07:31:44.999Z</time></trkpt><trkpt lat="31.906733518428762" lon="-4.355880299903411"><ele>997.0</ele><time>2026-04-27T07:31:45.999Z</time></trkpt><trkpt lat="31.90686957156009" lon="-4.356095918093726"><ele>997.0</ele><time>2026-04-27T07:31:46.999Z</time></trkpt><trkpt lat="31.90700349415614" lon="-4.356306652877445"><ele>997.0</ele><time>2026-04-27T07:31:47.999Z</time></trkpt><trkpt lat="31.907132630195367" lon="-4.356512682844434"><ele>997.0</ele><time>2026-04-27T07:31:48.999Z</time></trkpt><trkpt lat="31.907258158965785" lon="-4.35671574979413"><ele>997.6666666666666</ele><time>2026-04-27T07:31:49.999Z</time></trkpt><trkpt lat="31.907385271362187" lon="-4.356922098694008"><ele>998.3333333333333</ele><time>2026-04-27T07:31:50.999Z</time></trkpt><trkpt lat="31.90751392705593" lon="-4.357133678793456"><ele>999.0</ele><time>2026-04-27T07:31:52Z</time></trkpt><trkpt lat="31.907643747666352" lon="-4.3573473863260235"><ele>999.3333333333333</ele><time>2026-04-27T07:31:53Z</time></trkpt><trkpt lat="31.90777390081943" lon="-4.3575603635529685"><ele>999.6666666666666</ele><time>2026-04-27T07:31:54Z</time></trkpt><trkpt lat="31.907904667244768" lon="-4.357771796756472"><ele>1000.0</ele><time>2026-04-27T07:31:55Z</time></trkpt><trkpt lat="31.908035924741277" lon="-4.357979860629483"><ele>1000.0</ele><time>2026-04-27T07:31:56Z</time></trkpt><trkpt lat="31.908165673093613" lon="-4.358185261420793"><ele>1000.0</ele><time>2026-04-27T07:31:57Z</time></trkpt><trkpt lat="31.908296385376072" lon="-4.358392656036219"><ele>1000.0</ele><time>2026-04-27T07:31:58Z</time></trkpt><trkpt lat="31.908424281673568" lon="-4.35859955748455"><ele>1000.0</ele><time>2026-04-27T07:31:59Z</time></trkpt><trkpt lat="31.908551586522005" lon="-4.358803502084214"><ele>1000.0</ele><time>2026-04-27T07:32:00Z</time></trkpt><trkpt lat="31.90867403382951" lon="-4.358998841079485"><ele>1000.0</ele><time>2026-04-27T07:32:01Z</time></trkpt><trkpt lat="31.90879469693369" lon="-4.359191337767134"><ele>1000.0</ele><time>2026-04-27T07:32:02Z</time></trkpt><trkpt lat="31.908914205795863" lon="-4.359385520796748"><ele>1000.0</ele><time>2026-04-27T07:32:03Z</time></trkpt><trkpt lat="31.909033554301878" lon="-4.359578007767069"><ele>1000.0</ele><time>2026-04-27T07:32:04Z</time></trkpt><trkpt lat="31.909149481681" lon="-4.359765124911808"><ele>1001.3333333333333</ele><time>2026-04-27T07:32:05Z</time></trkpt><trkpt lat="31.909260500834108" lon="-4.359943192755244"><ele>1002.6666666666667</ele><time>2026-04-27T07:32:06Z</time></trkpt><trkpt lat="31.909364783760438" lon="-4.360110784601455"><ele>1004.0</ele><time>2026-04-27T07:32:07Z</time></trkpt><trkpt lat="31.90946744467817" lon="-4.360276526641669"><ele>1004.0</ele><time>2026-04-27T07:32:08Z</time></trkpt><trkpt lat="31.90956862161575" lon="-4.360438306569088"><ele>1004.0</ele><time>2026-04-27T07:32:09Z</time></trkpt><trkpt lat="31.909675964237053" lon="-4.360607692142108"><ele>1004.0</ele><time>2026-04-27T07:32:10Z</time></trkpt><trkpt lat="31.90978510094986" lon="-4.360782765885771"><ele>1004.3333333333334</ele><time>2026-04-27T07:32:11Z</time></trkpt><trkpt lat="31.909898564812345" lon="-4.360960743854554"><ele>1004.6666666666667</ele><time>2026-04-27T07:32:12Z</time></trkpt><trkpt lat="31.910014444848038" lon="-4.361143343102026"><ele>1005.0</ele><time>2026-04-27T07:32:13Z</time></trkpt><trkpt lat="31.910134431010846" lon="-4.361330625227876"><ele>1004.3333333333333</ele><time>2026-04-27T07:32:14Z</time></trkpt><trkpt lat="31.910256080755474" lon="-4.3615238802848255"><ele>1003.6666666666666</ele><time>2026-04-27T07:32:15Z</time></trkpt><trkpt lat="31.910376834835052" lon="-4.361717661601334"><ele>1003.0</ele><time>2026-04-27T07:32:16Z</time></trkpt><trkpt lat="31.910500876746912" lon="-4.361912180045117"><ele>1003.0</ele><time>2026-04-27T07:32:17Z</time></trkpt><trkpt lat="31.910625944570427" lon="-4.362111640630372"><ele>1003.0</ele><time>2026-04-27T07:32:18Z</time></trkpt><trkpt lat="31.910755991132625" lon="-4.362316459241674"><ele>1003.0</ele><time>2026-04-27T07:32:19Z</time></trkpt><trkpt lat="31.910887768038762" lon="-4.362523064386884"><ele>1003.0</ele><time>2026-04-27T07:32:20Z</time></trkpt><trkpt lat="31.91102093252645" lon="-4.362728170898108"><ele>1003.0</ele><time>2026-04-27T07:32:21Z</time></trkpt><trkpt lat="31.911151181933473" lon="-4.362930192379017"><ele>1003.0</ele><time>2026-04-27T07:32:22Z</time></trkpt><trkpt lat="31.911280914386513" lon="-4.363128774078487"><ele>1003.0</ele><time>2026-04-27T07:32:23Z</time></trkpt><trkpt lat="31.911407417112073" lon="-4.363323878126343"><ele>1003.0</ele><time>2026-04-27T07:32:24Z</time></trkpt><trkpt lat="31.91153431132139" lon="-4.363518190318305"><ele>1003.0</ele><time>2026-04-27T07:32:25Z</time></trkpt><trkpt lat="31.911659299452683" lon="-4.363709819111564"><ele>1003.0</ele><time>2026-04-27T07:32:26Z</time></trkpt><trkpt lat="31.91178233043796" lon="-4.363896411145416"><ele>1003.0</ele><time>2026-04-27T07:32:27Z</time></trkpt><trkpt lat="31.91190664143804" lon="-4.3640821624572865"><ele>1003.0</ele><time>2026-04-27T07:32:28Z</time></trkpt><trkpt lat="31.9120290971088" lon="-4.364268921363713"><ele>1003.0</ele><time>2026-04-27T07:32:29Z</time></trkpt><trkpt lat="31.912152894681753" lon="-4.364457473691746"><ele>1003.0</ele><time>2026-04-27T07:32:30Z</time></trkpt><trkpt lat="31.912276369980038" lon="-4.36464765195549"><ele>1003.0</ele><time>2026-04-27T07:32:31Z</time></trkpt><trkpt lat="31.912402147562254" lon="-4.364840598050008"><ele>1002.6666666666666</ele><time>2026-04-27T07:32:32Z</time></trkpt><trkpt lat="31.912528707918856" lon="-4.365035566566835"><ele>1002.3333333333333</ele><time>2026-04-27T07:32:33Z</time></trkpt><trkpt lat="31.912655341734215" lon="-4.365228604554903"><ele>1002.0</ele><time>2026-04-27T07:32:34Z</time></trkpt><trkpt lat="31.91278296621685" lon="-4.365418895385378"><ele>1002.3333333333333</ele><time>2026-04-27T07:32:35Z</time></trkpt><trkpt lat="31.912906596937585" lon="-4.365606620429456"><ele>1002.6666666666666</ele><time>2026-04-27T07:32:36Z</time></trkpt><trkpt lat="31.913026497443" lon="-4.365792662903447"><ele>1003.0</ele><time>2026-04-27T07:32:37Z</time></trkpt><trkpt lat="31.91314465225953" lon="-4.3659757125036025"><ele>1003.0</ele><time>2026-04-27T07:32:38Z</time></trkpt><trkpt lat="31.913260877143163" lon="-4.3661548934841745"><ele>1003.0</ele><time>2026-04-27T07:32:39Z</time></trkpt><trkpt lat="31.913373314656713" lon="-4.366323558048168"><ele>1003.0</ele><time>2026-04-27T07:32:40Z</time></trkpt><trkpt lat="31.91348394234189" lon="-4.36648540153146"><ele>1002.75</ele><time>2026-04-27T07:32:41Z</time></trkpt><trkpt lat="31.91358569268279" lon="-4.366636105625637"><ele>1002.5</ele><time>2026-04-27T07:32:42Z</time></trkpt><trkpt lat="31.913679993449172" lon="-4.366776109164668"><ele>1002.25</ele><time>2026-04-27T07:32:43Z</time></trkpt><trkpt lat="31.913760224427115" lon="-4.366900520682184"><ele>1002.0</ele><time>2026-04-27T07:32:44Z</time></trkpt><trkpt lat="31.913827661693798" lon="-4.367005068346768"><ele>1002.0</ele><time>2026-04-27T07:32:45Z</time></trkpt><trkpt lat="31.91388458809349" lon="-4.367092333912374"><ele>1002.0</ele><time>2026-04-27T07:32:45.999Z</time></trkpt><trkpt lat="31.913946659436046" lon="-4.367154589711884"><ele>1002.0</ele><time>2026-04-27T07:32:46.999Z</time></trkpt><trkpt lat="31.913990002238947" lon="-4.367219666007236"><ele>1002.0</ele><time>2026-04-27T07:32:47.999Z</time></trkpt><trkpt lat="31.914060057634288" lon="-4.367324849389558"><ele>1002.0</ele><time>2026-04-27T07:32:49.999Z</time></trkpt><trkpt lat="31.914093309636755" lon="-4.367409257742582"><ele>1002.0</ele><time>2026-04-27T07:32:51.999Z</time></trkpt><trkpt lat="31.914120330092903" lon="-4.367486616660505"><ele>1003.0</ele><time>2026-04-27T07:32:55.999Z</time></trkpt><trkpt lat="31.913834723132815" lon="-4.367762815380136"><ele>1004.0</ele><time>2026-04-27T07:32:56.999Z</time></trkpt><trkpt lat="31.913804649629824" lon="-4.367842205858483"><ele>1005.0</ele><time>2026-04-27T07:32:59.999Z</time></trkpt><trkpt lat="31.913815538578053" lon="-4.367918135379982"><ele>1005.0000000000001</ele><time>2026-04-27T07:34:05Z</time></trkpt><trkpt lat="31.91384691672388" lon="-4.367990438349098"><ele>1005.0</ele><time>2026-04-27T07:37:45.999Z</time></trkpt><trkpt lat="31.91384636758571" lon="-4.368069753439494"><ele>1005.0000000000001</ele><time>2026-04-27T07:37:50.999Z</time></trkpt><trkpt lat="31.91378675428899" lon="-4.368100326360579"><ele>1005.0000000000001</ele><time>2026-04-27T07:37:55.999Z</time></trkpt><trkpt lat="31.913743545442742" lon="-4.36817035747773"><ele>1005.0</ele><time>2026-04-27T07:41:16.999Z</time></trkpt><trkpt lat="31.91366921211159" lon="-4.3682140645964544"><ele>1005.0000000000001</ele><time>2026-04-27T07:41:19.999Z</time></trkpt><trkpt lat="31.9136000482133" lon="-4.3681505152194715"><ele>1005.0000000000001</ele><time>2026-04-27T07:41:21.999Z</time></trkpt><trkpt lat="31.913756218958014" lon="-4.368202968188084"><ele>1004.857142857143</ele><time>2026-04-27T07:43:48.999Z</time></trkpt><trkpt lat="31.91382109469762" lon="-4.368194298094229"><ele>1004.7142857142858</ele><time>2026-04-27T07:51:14.999Z</time></trkpt><trkpt lat="31.91383532221221" lon="-4.36827432523017"><ele>1004.5714285714286</ele><time>2026-04-27T07:51:20.999Z</time></trkpt><trkpt lat="31.91378166643549" lon="-4.368321959297227"><ele>1004.4285714285714</ele><time>2026-04-27T07:51:25.999Z</time></trkpt><trkpt lat="31.91374891790189" lon="-4.368400944066915"><ele>1004.2857142857142</ele><time>2026-04-27T07:51:35.999Z</time></trkpt><trkpt lat="31.91372155433002" lon="-4.368327712450015"><ele>1004.142857142857</ele><time>2026-04-27T07:52:53.999Z</time></trkpt><trkpt lat="31.91377491325351" lon="-4.368279051706589"><ele>1003.9999999999999</ele><time>2026-04-27T07:53:00.999Z</time></trkpt><trkpt lat="31.913782764463562" lon="-4.368196834954757"><ele>1004.0000000000001</ele><time>2026-04-27T07:53:12.999Z</time></trkpt><trkpt lat="31.913793064140183" lon="-4.368111068321355"><ele>1004.0</ele><time>2026-04-27T07:54:08.999Z</time></trkpt><trkpt lat="31.91386201108156" lon="-4.368081205282772"><ele>1004.0</ele><time>2026-04-27T08:02:15.999Z</time></trkpt><trkpt lat="31.913953521431395" lon="-4.368044958601974"><ele>1004.0</ele><time>2026-04-27T08:02:25.999Z</time></trkpt><trkpt lat="31.914011350416487" lon="-4.367994793764715"><ele>1004.0000000000001</ele><time>2026-04-27T08:02:27.999Z</time></trkpt><trkpt lat="31.91407209084561" lon="-4.367953630071971"><ele>1004.0</ele><time>2026-04-27T08:02:29.999Z</time></trkpt><trkpt lat="31.914151980741455" lon="-4.367939703723135"><ele>1004.0000000000001</ele><time>2026-04-27T08:02:31.999Z</time></trkpt><trkpt lat="31.914217379002785" lon="-4.367917681508648"><ele>1004.0</ele><time>2026-04-27T08:02:33.999Z</time></trkpt><trkpt lat="31.914275198051804" lon="-4.367884679050584"><ele>1004.0</ele><time>2026-04-27T08:02:35.999Z</time></trkpt><trkpt lat="31.914338940033772" lon="-4.367883856657813"><ele>1004.0</ele><time>2026-04-27T08:02:47.999Z</time></trkpt><trkpt lat="31.91442402476884" lon="-4.367913471540048"><ele>1004.0000000000001</ele><time>2026-04-27T08:02:49.999Z</time></trkpt><trkpt lat="31.914505394625003" lon="-4.368000417646176"><ele>1004.0</ele><time>2026-04-27T08:02:51.999Z</time></trkpt><trkpt lat="31.91454702827619" lon="-4.368058456085878"><ele>1003.9999999999999</ele><time>2026-04-27T08:02:52.999Z</time></trkpt><trkpt lat="31.914590548756482" lon="-4.368124241693171"><ele>1004.0</ele><time>2026-04-27T08:02:53.999Z</time></trkpt><trkpt lat="31.914634893351625" lon="-4.368194413432954"><ele>1003.9999999999999</ele><time>2026-04-27T08:02:54.999Z</time></trkpt><trkpt lat="31.9146784346553" lon="-4.3682647478143375"><ele>1003.9999999999999</ele><time>2026-04-27T08:02:55.999Z</time></trkpt><trkpt lat="31.91472365738389" lon="-4.368336080176549"><ele>1004.0</ele><time>2026-04-27T08:02:56.999Z</time></trkpt><trkpt lat="31.91476925152664" lon="-4.368401298083978"><ele>1003.9999999999999</ele><time>2026-04-27T08:02:57.999Z</time></trkpt><trkpt lat="31.914810742048424" lon="-4.36846252737755"><ele>1003.9999999999999</ele><time>2026-04-27T08:02:58.999Z</time></trkpt><trkpt lat="31.91485222261465" lon="-4.36852263633291"><ele>1003.9999999999999</ele><time>2026-04-27T08:02:59.999Z</time></trkpt><trkpt lat="31.914891626251823" lon="-4.368584424706954"><ele>1004.0</ele><time>2026-04-27T08:03:00.999Z</time></trkpt><trkpt lat="31.91492953481457" lon="-4.368647819229801"><ele>1003.9999999999999</ele><time>2026-04-27T08:03:01.999Z</time></trkpt><trkpt lat="31.91497076551129" lon="-4.368710052535295"><ele>1003.9999999999999</ele><time>2026-04-27T08:03:02.999Z</time></trkpt><trkpt lat="31.915013436835046" lon="-4.3687708863523405"><ele>1004.0</ele><time>2026-04-27T08:03:03.999Z</time></trkpt><trkpt lat="31.91505411704827" lon="-4.368834044406407"><ele>1003.9999999999999</ele><time>2026-04-27T08:03:04.999Z</time></trkpt><trkpt lat="31.915097619873983" lon="-4.368901470667133"><ele>1003.9999999999999</ele><time>2026-04-27T08:03:05.999Z</time></trkpt><trkpt lat="31.915144151727567" lon="-4.368973560304082"><ele>1004.0</ele><time>2026-04-27T08:03:06.999Z</time></trkpt><trkpt lat="31.915197459664483" lon="-4.369055023565127"><ele>1004.0000000000001</ele><time>2026-04-27T08:03:07.999Z</time></trkpt><trkpt lat="31.915257273362993" lon="-4.3691471890250995"><ele>1004.0000000000001</ele><time>2026-04-27T08:03:08.999Z</time></trkpt><trkpt lat="31.915322890959693" lon="-4.369249217656903"><ele>1004.0</ele><time>2026-04-27T08:03:09.999Z</time></trkpt><trkpt lat="31.91539826078161" lon="-4.369363086904027"><ele>1004.0</ele><time>2026-04-27T08:03:10.999Z</time></trkpt><trkpt lat="31.91548182408317" lon="-4.3694941538820435"><ele>1004.0</ele><time>2026-04-27T08:03:11.999Z</time></trkpt><trkpt lat="31.915587911105415" lon="-4.369622907077823"><ele>1004.0</ele><time>2026-04-27T08:03:12.999Z</time></trkpt><trkpt lat="31.91567850687395" lon="-4.369759930224021"><ele>1004.0</ele><time>2026-04-27T08:03:13.999Z</time></trkpt><trkpt lat="31.91576722978247" lon="-4.369893241225368"><ele>1004.0</ele><time>2026-04-27T08:03:14.999Z</time></trkpt><trkpt lat="31.91585483311785" lon="-4.370024585493458"><ele>1004.0</ele><time>2026-04-27T08:03:15.999Z</time></trkpt><trkpt lat="31.915942723618908" lon="-4.370158580492927"><ele>1004.0</ele><time>2026-04-27T08:03:16.999Z</time></trkpt><trkpt lat="31.916031821379946" lon="-4.370294380738022"><ele>1004.0</ele><time>2026-04-27T08:03:17.999Z</time></trkpt><trkpt lat="31.916119470769893" lon="-4.37042819843201"><ele>1004.0</ele><time>2026-04-27T08:03:18.998Z</time></trkpt><trkpt lat="31.91620966186837" lon="-4.370565896542103"><ele>1004.6666666666667</ele><time>2026-04-27T08:03:19.998Z</time></trkpt><trkpt lat="31.916304210478433" lon="-4.370709332117397"><ele>1005.3333333333333</ele><time>2026-04-27T08:03:20.998Z</time></trkpt><trkpt lat="31.91640159585561" lon="-4.370857403439234"><ele>1006.0</ele><time>2026-04-27T08:03:21.998Z</time></trkpt><trkpt lat="31.916500868420936" lon="-4.3710088852263995"><ele>1006.0</ele><time>2026-04-27T08:03:22.998Z</time></trkpt><trkpt lat="31.91660062278799" lon="-4.3711611022029295"><ele>1006.0</ele><time>2026-04-27T08:03:23.998Z</time></trkpt><trkpt lat="31.91670085501259" lon="-4.371313015010367"><ele>1006.0</ele><time>2026-04-27T08:03:24.998Z</time></trkpt><trkpt lat="31.916804737385736" lon="-4.371471324977868"><ele>1007.0</ele><time>2026-04-27T08:03:25.998Z</time></trkpt><trkpt lat="31.916908315525575" lon="-4.371630029977043"><ele>1008.0</ele><time>2026-04-27T08:03:26.998Z</time></trkpt><trkpt lat="31.917013106481207" lon="-4.371790034847672"><ele>1009.0</ele><time>2026-04-27T08:03:27.998Z</time></trkpt><trkpt lat="31.917118089887197" lon="-4.371949763210433"><ele>1009.0</ele><time>2026-04-27T08:03:28.999Z</time></trkpt><trkpt lat="31.917222682643516" lon="-4.3721089279501815"><ele>1009.0</ele><time>2026-04-27T08:03:29.999Z</time></trkpt><trkpt lat="31.917331100660782" lon="-4.372273688310025"><ele>1009.0</ele><time>2026-04-27T08:03:30.999Z</time></trkpt><trkpt lat="31.917443128457364" lon="-4.372443717595652"><ele>1009.0</ele><time>2026-04-27T08:03:31.999Z</time></trkpt><trkpt lat="31.917557607676855" lon="-4.372618261577239"><ele>1009.0</ele><time>2026-04-27T08:03:32.999Z</time></trkpt><trkpt lat="31.917672686259458" lon="-4.372794035766647"><ele>1009.0</ele><time>2026-04-27T08:03:33.999Z</time></trkpt><trkpt lat="31.917775176334256" lon="-4.372982340391387"><ele>1009.3333333333333</ele><time>2026-04-27T08:03:34.999Z</time></trkpt><trkpt lat="31.917904578632566" lon="-4.373146319561412"><ele>1009.6666666666667</ele><time>2026-04-27T08:03:35.999Z</time></trkpt><trkpt lat="31.918009880522813" lon="-4.373336683485209"><ele>1010.0</ele><time>2026-04-27T08:03:36.999Z</time></trkpt><trkpt lat="31.918129953675745" lon="-4.373517781918077"><ele>1010.0</ele><time>2026-04-27T08:03:37.999Z</time></trkpt><trkpt lat="31.918250957274793" lon="-4.373701813473479"><ele>1010.0</ele><time>2026-04-27T08:03:38.999Z</time></trkpt><trkpt lat="31.918374404314925" lon="-4.373885151996716"><ele>1010.0</ele><time>2026-04-27T08:03:39.999Z</time></trkpt><trkpt lat="31.91849890354861" lon="-4.374069064420912"><ele>1009.0</ele><time>2026-04-27T08:03:40.999Z</time></trkpt><trkpt lat="31.918623932245733" lon="-4.374256417021855"><ele>1008.0</ele><time>2026-04-27T08:03:41.999Z</time></trkpt><trkpt lat="31.918748607991613" lon="-4.37444614025515"><ele>1007.0</ele><time>2026-04-27T08:03:42.999Z</time></trkpt><trkpt lat="31.918871390133745" lon="-4.374636736032215"><ele>1008.0</ele><time>2026-04-27T08:03:43.999Z</time></trkpt><trkpt lat="31.918995987879235" lon="-4.3748280309856975"><ele>1009.0</ele><time>2026-04-27T08:03:44.999Z</time></trkpt><trkpt lat="31.919122990703485" lon="-4.37501899515527"><ele>1010.0</ele><time>2026-04-27T08:03:45.999Z</time></trkpt><trkpt lat="31.919251561429085" lon="-4.375215134336583"><ele>1010.0</ele><time>2026-04-27T08:03:46.999Z</time></trkpt><trkpt lat="31.919377391257388" lon="-4.375407887568996"><ele>1010.0</ele><time>2026-04-27T08:03:47.999Z</time></trkpt><trkpt lat="31.919504463464236" lon="-4.375604452074684"><ele>1010.0</ele><time>2026-04-27T08:03:48.999Z</time></trkpt><trkpt lat="31.9196349986636" lon="-4.375801499094396"><ele>1010.0</ele><time>2026-04-27T08:03:49.999Z</time></trkpt><trkpt lat="31.919762900721274" lon="-4.37599729425469"><ele>1010.0</ele><time>2026-04-27T08:03:50.999Z</time></trkpt><trkpt lat="31.9198923985847" lon="-4.3761913442792055"><ele>1010.0</ele><time>2026-04-27T08:03:51.999Z</time></trkpt><trkpt lat="31.920022120483154" lon="-4.376385283290314"><ele>1011.3333333333334</ele><time>2026-04-27T08:03:52.999Z</time></trkpt><trkpt lat="31.92015107006069" lon="-4.3765815138970225"><ele>1012.6666666666667</ele><time>2026-04-27T08:03:53.999Z</time></trkpt><trkpt lat="31.920279288737163" lon="-4.376780022920233"><ele>1014.0</ele><time>2026-04-27T08:03:54.999Z</time></trkpt><trkpt lat="31.92041048843614" lon="-4.376979231928309"><ele>1014.0</ele><time>2026-04-27T08:03:55.999Z</time></trkpt><trkpt lat="31.920542591953257" lon="-4.377180004306833"><ele>1014.0</ele><time>2026-04-27T08:03:56.999Z</time></trkpt><trkpt lat="31.920676423960746" lon="-4.377379228660569"><ele>1014.0</ele><time>2026-04-27T08:03:57.999Z</time></trkpt><trkpt lat="31.920809776693627" lon="-4.37757742836355"><ele>1014.6666666666667</ele><time>2026-04-27T08:03:58.999Z</time></trkpt><trkpt lat="31.920944739565027" lon="-4.377776168541109"><ele>1015.3333333333334</ele><time>2026-04-27T08:03:59.999Z</time></trkpt><trkpt lat="31.921076765772803" lon="-4.377976072234512"><ele>1016.0</ele><time>2026-04-27T08:04:00.999Z</time></trkpt><trkpt lat="31.921209100828527" lon="-4.378177894051366"><ele>1016.0</ele><time>2026-04-27T08:04:01.999Z</time></trkpt><trkpt lat="31.921342021848005" lon="-4.378376619679864"><ele>1016.0</ele><time>2026-04-27T08:04:02.999Z</time></trkpt><trkpt lat="31.92147335104751" lon="-4.378578243790425"><ele>1016.0</ele><time>2026-04-27T08:04:03.999Z</time></trkpt><trkpt lat="31.921605444641216" lon="-4.378780861407325"><ele>1016.3333333333334</ele><time>2026-04-27T08:04:04.999Z</time></trkpt><trkpt lat="31.92173682712685" lon="-4.378981392840169"><ele>1016.6666666666667</ele><time>2026-04-27T08:04:05.999Z</time></trkpt><trkpt lat="31.921871601272088" lon="-4.379184166380152"><ele>1017.0</ele><time>2026-04-27T08:04:06.999Z</time></trkpt><trkpt lat="31.922009085319146" lon="-4.379391368914202"><ele>1017.0</ele><time>2026-04-27T08:04:07.999Z</time></trkpt><trkpt lat="31.92214321258471" lon="-4.379597274188049"><ele>1017.0</ele><time>2026-04-27T08:04:08.999Z</time></trkpt><trkpt lat="31.92228222528299" lon="-4.3798068667025385"><ele>1017.0</ele><time>2026-04-27T08:04:09.999Z</time></trkpt><trkpt lat="31.92242000514054" lon="-4.380013933076834"><ele>1017.0</ele><time>2026-04-27T08:04:10.999Z</time></trkpt><trkpt lat="31.922557807365017" lon="-4.3802199242939475"><ele>1017.0</ele><time>2026-04-27T08:04:11.999Z</time></trkpt><trkpt lat="31.922691158490835" lon="-4.380418803923758"><ele>1017.0</ele><time>2026-04-27T08:04:12.999Z</time></trkpt><trkpt lat="31.922825654852232" lon="-4.380617863111173"><ele>1017.6666666666667</ele><time>2026-04-27T08:04:13.999Z</time></trkpt><trkpt lat="31.92295647979363" lon="-4.380810835300742"><ele>1018.3333333333334</ele><time>2026-04-27T08:04:14.999Z</time></trkpt><trkpt lat="31.923085568360136" lon="-4.381003618690115"><ele>1019.0</ele><time>2026-04-27T08:04:15.999Z</time></trkpt><trkpt lat="31.92321358479903" lon="-4.381198939121712"><ele>1019.0</ele><time>2026-04-27T08:04:16.999Z</time></trkpt><trkpt lat="31.923340075009705" lon="-4.3813946323058035"><ele>1019.0</ele><time>2026-04-27T08:04:17.999Z</time></trkpt><trkpt lat="31.923470346565736" lon="-4.3815951829241255"><ele>1019.0</ele><time>2026-04-27T08:04:18.999Z</time></trkpt><trkpt lat="31.923603425018452" lon="-4.381798172172323"><ele>1019.0</ele><time>2026-04-27T08:04:19.999Z</time></trkpt><trkpt lat="31.923738471458808" lon="-4.382000613222366"><ele>1019.0</ele><time>2026-04-27T08:04:20.999Z</time></trkpt><trkpt lat="31.923866722298477" lon="-4.382196670173137"><ele>1019.0</ele><time>2026-04-27T08:04:21.999Z</time></trkpt><trkpt lat="31.923990755505002" lon="-4.3823855726299055"><ele>1018.6666666666667</ele><time>2026-04-27T08:04:22.999Z</time></trkpt><trkpt lat="31.924115618058856" lon="-4.382572774561532"><ele>1018.3333333333333</ele><time>2026-04-27T08:04:23.999Z</time></trkpt><trkpt lat="31.924236983117453" lon="-4.382753754156889"><ele>1018.0</ele><time>2026-04-27T08:04:24.999Z</time></trkpt><trkpt lat="31.924354873893673" lon="-4.382933963866984"><ele>1018.3333333333333</ele><time>2026-04-27T08:04:25.999Z</time></trkpt><trkpt lat="31.92446940545666" lon="-4.383111220173227"><ele>1018.6666666666667</ele><time>2026-04-27T08:04:26.999Z</time></trkpt><trkpt lat="31.92458227270036" lon="-4.3832830978475625"><ele>1019.0</ele><time>2026-04-27T08:04:27.999Z</time></trkpt><trkpt lat="31.924688643322664" lon="-4.38344417138801"><ele>1019.0</ele><time>2026-04-27T08:04:28.999Z</time></trkpt><trkpt lat="31.924788093781007" lon="-4.383593894699465"><ele>1019.0</ele><time>2026-04-27T08:04:29.999Z</time></trkpt><trkpt lat="31.924881356922146" lon="-4.383733756841668"><ele>1019.0</ele><time>2026-04-27T08:04:30.999Z</time></trkpt><trkpt lat="31.924972012286474" lon="-4.383870932064673"><ele>1019.0</ele><time>2026-04-27T08:04:31.999Z</time></trkpt><trkpt lat="31.925058554840124" lon="-4.3840044600284696"><ele>1019.0</ele><time>2026-04-27T08:04:32.999Z</time></trkpt><trkpt lat="31.92513984732242" lon="-4.384128481261396"><ele>1019.0</ele><time>2026-04-27T08:04:33.999Z</time></trkpt><trkpt lat="31.925221027648607" lon="-4.384249989322748"><ele>1019.0</ele><time>2026-04-27T08:04:34.999Z</time></trkpt><trkpt lat="31.92529932646725" lon="-4.384365029528646"><ele>1019.25</ele><time>2026-04-27T08:04:35.999Z</time></trkpt><trkpt lat="31.925376206601527" lon="-4.384478241285817"><ele>1019.5</ele><time>2026-04-27T08:04:36.999Z</time></trkpt><trkpt lat="31.925453551596018" lon="-4.384594570994541"><ele>1019.75</ele><time>2026-04-27T08:04:37.999Z</time></trkpt><trkpt lat="31.925530940969043" lon="-4.384708607698891"><ele>1020.0</ele><time>2026-04-27T08:04:38.999Z</time></trkpt><trkpt lat="31.925606937423108" lon="-4.384818414355685"><ele>1020.0</ele><time>2026-04-27T08:04:39.999Z</time></trkpt><trkpt lat="31.925680872280253" lon="-4.384926632723165"><ele>1020.0</ele><time>2026-04-27T08:04:40.999Z</time></trkpt><trkpt lat="31.92575337060214" lon="-4.385037754829227"><ele>1020.0</ele><time>2026-04-27T08:04:41.999Z</time></trkpt><trkpt lat="31.9258233516641" lon="-4.385149242714574"><ele>1020.0</ele><time>2026-04-27T08:04:42.999Z</time></trkpt><trkpt lat="31.92589441360133" lon="-4.385257448829558"><ele>1020.0</ele><time>2026-04-27T08:04:43.999Z</time></trkpt><trkpt lat="31.925967480428568" lon="-4.385365250508259"><ele>1020.0</ele><time>2026-04-27T08:04:44.999Z</time></trkpt><trkpt lat="31.926039791397923" lon="-4.385473733558502"><ele>1020.0</ele><time>2026-04-27T08:04:45.999Z</time></trkpt><trkpt lat="31.92611541236104" lon="-4.3855852462741085"><ele>1020.0</ele><time>2026-04-27T08:04:46.999Z</time></trkpt><trkpt lat="31.926190820182093" lon="-4.385703939850164"><ele>1020.0</ele><time>2026-04-27T08:04:47.999Z</time></trkpt><trkpt lat="31.92627096680206" lon="-4.385830424853847"><ele>1020.0</ele><time>2026-04-27T08:04:48.999Z</time></trkpt><trkpt lat="31.926357387512258" lon="-4.385972320704168"><ele>1020.0</ele><time>2026-04-27T08:04:49.999Z</time></trkpt><trkpt lat="31.926453781994645" lon="-4.3861247747656975"><ele>1020.0</ele><time>2026-04-27T08:04:50.999Z</time></trkpt><trkpt lat="31.926560513680645" lon="-4.386289753100635"><ele>1020.0</ele><time>2026-04-27T08:04:51.999Z</time></trkpt><trkpt lat="31.926670875484316" lon="-4.38646755270499"><ele>1020.0</ele><time>2026-04-27T08:04:52.999Z</time></trkpt><trkpt lat="31.926788081843956" lon="-4.386646860796196"><ele>1020.0</ele><time>2026-04-27T08:04:53.999Z</time></trkpt><trkpt lat="31.9269095591681" lon="-4.386825916159566"><ele>1020.0</ele><time>2026-04-27T08:04:54.999Z</time></trkpt><trkpt lat="31.927029280755615" lon="-4.386995075942005"><ele>1020.0</ele><time>2026-04-27T08:04:55.999Z</time></trkpt><trkpt lat="31.92714810556189" lon="-4.387161932448504"><ele>1020.0</ele><time>2026-04-27T08:04:56.999Z</time></trkpt><trkpt lat="31.927265403816516" lon="-4.387329906886637"><ele>1020.0</ele><time>2026-04-27T08:04:57.999Z</time></trkpt><trkpt lat="31.92737367071044" lon="-4.387490835417777"><ele>1020.0</ele><time>2026-04-27T08:04:58.999Z</time></trkpt><trkpt lat="31.927479978735455" lon="-4.387655968051239"><ele>1020.0</ele><time>2026-04-27T08:04:59.999Z</time></trkpt><trkpt lat="31.927588580192882" lon="-4.387820979870283"><ele>1020.0</ele><time>2026-04-27T08:05:00.999Z</time></trkpt><trkpt lat="31.92770085819547" lon="-4.387988935387344"><ele>1020.0</ele><time>2026-04-27T08:05:01.999Z</time></trkpt><trkpt lat="31.92781350128806" lon="-4.388153491037144"><ele>1020.0</ele><time>2026-04-27T08:05:02.999Z</time></trkpt><trkpt lat="31.92792518600888" lon="-4.388317285441778"><ele>1020.0</ele><time>2026-04-27T08:05:03.999Z</time></trkpt><trkpt lat="31.928034258769443" lon="-4.388476285377031"><ele>1020.0</ele><time>2026-04-27T08:05:04.999Z</time></trkpt><trkpt lat="31.92814485104713" lon="-4.3886359937961155"><ele>1020.0</ele><time>2026-04-27T08:05:05.999Z</time></trkpt><trkpt lat="31.928251078138555" lon="-4.388797348739756"><ele>1019.6666666666667</ele><time>2026-04-27T08:05:06.999Z</time></trkpt><trkpt lat="31.928361380566173" lon="-4.388967980152906"><ele>1019.3333333333334</ele><time>2026-04-27T08:05:07.999Z</time></trkpt><trkpt lat="31.92847448457091" lon="-4.389141917831108"><ele>1019.0</ele><time>2026-04-27T08:05:08.999Z</time></trkpt><trkpt lat="31.928589987558354" lon="-4.389316442630493"><ele>1019.6666666666667</ele><time>2026-04-27T08:05:09.999Z</time></trkpt><trkpt lat="31.928704985666823" lon="-4.389487373410997"><ele>1020.3333333333333</ele><time>2026-04-27T08:05:10.999Z</time></trkpt><trkpt lat="31.928811902113317" lon="-4.389645091479019"><ele>1021.0</ele><time>2026-04-27T08:05:11.999Z</time></trkpt><trkpt lat="31.92891528256346" lon="-4.389796498077045"><ele>1019.3333333333333</ele><time>2026-04-27T08:05:12.999Z</time></trkpt><trkpt lat="31.929017369067346" lon="-4.389950432274977"><ele>1017.6666666666667</ele><time>2026-04-27T08:05:13.999Z</time></trkpt><trkpt lat="31.92911272124306" lon="-4.390097006452378"><ele>1016.0</ele><time>2026-04-27T08:05:14.999Z</time></trkpt><trkpt lat="31.929203179150438" lon="-4.390235801913943"><ele>1016.0</ele><time>2026-04-27T08:05:15.999Z</time></trkpt><trkpt lat="31.929288535833372" lon="-4.3903691350137155"><ele>1016.0</ele><time>2026-04-27T08:05:16.999Z</time></trkpt><trkpt lat="31.92937338153399" lon="-4.390494724196063"><ele>1016.0</ele><time>2026-04-27T08:05:17.999Z</time></trkpt><trkpt lat="31.929456146266105" lon="-4.390617708695241"><ele>1016.0</ele><time>2026-04-27T08:05:18.999Z</time></trkpt><trkpt lat="31.92953817139869" lon="-4.390740747734758"><ele>1016.0</ele><time>2026-04-27T08:05:19.999Z</time></trkpt><trkpt lat="31.929619813334323" lon="-4.390862903945714"><ele>1016.0</ele><time>2026-04-27T08:05:20.999Z</time></trkpt><trkpt lat="31.92970286922002" lon="-4.390988741917529"><ele>1016.0</ele><time>2026-04-27T08:05:21.999Z</time></trkpt><trkpt lat="31.929786037481264" lon="-4.39111468781736"><ele>1016.0</ele><time>2026-04-27T08:05:22.999Z</time></trkpt><trkpt lat="31.929868312748024" lon="-4.39123793266788"><ele>1016.25</ele><time>2026-04-27T08:05:23.999Z</time></trkpt><trkpt lat="31.929971940005053" lon="-4.391341317458964"><ele>1016.5</ele><time>2026-04-27T08:05:24.999Z</time></trkpt><trkpt lat="31.93005810742681" lon="-4.391469042238777"><ele>1016.75</ele><time>2026-04-27T08:05:25.999Z</time></trkpt><trkpt lat="31.930146991481962" lon="-4.391602200767152"><ele>1017.0</ele><time>2026-04-27T08:05:26.999Z</time></trkpt><trkpt lat="31.930237466918154" lon="-4.391738002163177"><ele>1017.0</ele><time>2026-04-27T08:05:27.999Z</time></trkpt><trkpt lat="31.930326889779593" lon="-4.391871747504513"><ele>1017.0</ele><time>2026-04-27T08:05:28.999Z</time></trkpt><trkpt lat="31.93041603851142" lon="-4.392005493857703"><ele>1017.0</ele><time>2026-04-27T08:05:29.999Z</time></trkpt><trkpt lat="31.930507804705215" lon="-4.392143564427791"><ele>1017.0</ele><time>2026-04-27T08:05:30.999Z</time></trkpt><trkpt lat="31.93060265369584" lon="-4.392286273349986"><ele>1017.0</ele><time>2026-04-27T08:05:31.999Z</time></trkpt><trkpt lat="31.930701908347697" lon="-4.39243526773268"><ele>1017.0</ele><time>2026-04-27T08:05:32.999Z</time></trkpt><trkpt lat="31.930811799591307" lon="-4.392600211845471"><ele>1017.0</ele><time>2026-04-27T08:05:33.999Z</time></trkpt><trkpt lat="31.930928035859353" lon="-4.392775051583943"><ele>1017.0</ele><time>2026-04-27T08:05:34.999Z</time></trkpt><trkpt lat="31.931047637541106" lon="-4.392954180436208"><ele>1017.0</ele><time>2026-04-27T08:05:35.999Z</time></trkpt><trkpt lat="31.931158065020455" lon="-4.393137158036807"><ele>1017.0</ele><time>2026-04-27T08:05:36.999Z</time></trkpt><trkpt lat="31.931256310938128" lon="-4.393318694344436"><ele>1017.3333333333333</ele><time>2026-04-27T08:05:37.999Z</time></trkpt><trkpt lat="31.931364514554613" lon="-4.393488428846092"><ele>1017.6666666666666</ele><time>2026-04-27T08:05:38.999Z</time></trkpt><trkpt lat="31.93146753898628" lon="-4.393665638474238"><ele>1018.0</ele><time>2026-04-27T08:05:39.999Z</time></trkpt><trkpt lat="31.931584273198816" lon="-4.393831273517065"><ele>1018.0</ele><time>2026-04-27T08:05:40.999Z</time></trkpt><trkpt lat="31.93169189940736" lon="-4.3940052858057275"><ele>1018.0</ele><time>2026-04-27T08:05:41.999Z</time></trkpt><trkpt lat="31.931762202388427" lon="-4.3942157836056115"><ele>1018.0</ele><time>2026-04-27T08:05:42.999Z</time></trkpt><trkpt lat="31.931847229494768" lon="-4.3944145733690565"><ele>1018.3333333333333</ele><time>2026-04-27T08:05:43.999Z</time></trkpt><trkpt lat="31.931924600471877" lon="-4.394616828316489"><ele>1018.6666666666667</ele><time>2026-04-27T08:05:44.999Z</time></trkpt><trkpt lat="31.932001487734723" lon="-4.394825202311922"><ele>1019.0</ele><time>2026-04-27T08:05:45.999Z</time></trkpt><trkpt lat="31.93207525118021" lon="-4.395033935522398"><ele>1019.3333333333334</ele><time>2026-04-27T08:05:46.999Z</time></trkpt><trkpt lat="31.932163242263105" lon="-4.395235042713704"><ele>1019.6666666666667</ele><time>2026-04-27T08:05:47.999Z</time></trkpt><trkpt lat="31.9322184003996" lon="-4.3954504491427615"><ele>1020.0</ele><time>2026-04-27T08:05:48.999Z</time></trkpt><trkpt lat="31.932286501272266" lon="-4.395652508777098"><ele>1020.3333333333333</ele><time>2026-04-27T08:05:49.999Z</time></trkpt><trkpt lat="31.93235888504165" lon="-4.395856422212219"><ele>1020.6666666666666</ele><time>2026-04-27T08:05:50.999Z</time></trkpt><trkpt lat="31.932427639361517" lon="-4.396061360401879"><ele>1021.0</ele><time>2026-04-27T08:05:51.999Z</time></trkpt><trkpt lat="31.93249721395019" lon="-4.396267464447547"><ele>1021.0</ele><time>2026-04-27T08:05:52.999Z</time></trkpt><trkpt lat="31.932566444351018" lon="-4.396469746383496"><ele>1021.0</ele><time>2026-04-27T08:05:53.999Z</time></trkpt><trkpt lat="31.93263515223759" lon="-4.39666858495783"><ele>1021.0</ele><time>2026-04-27T08:05:54.999Z</time></trkpt><trkpt lat="31.932702438260513" lon="-4.396859145530399"><ele>1021.0</ele><time>2026-04-27T08:05:55.999Z</time></trkpt><trkpt lat="31.932765465561353" lon="-4.39704195609644"><ele>1021.0</ele><time>2026-04-27T08:05:56.999Z</time></trkpt><trkpt lat="31.932826874025285" lon="-4.397227355204121"><ele>1021.0</ele><time>2026-04-27T08:05:57.999Z</time></trkpt><trkpt lat="31.932890470198465" lon="-4.39741296724259"><ele>1022.0</ele><time>2026-04-27T08:05:58.999Z</time></trkpt><trkpt lat="31.93295575399945" lon="-4.397598908448848"><ele>1023.0</ele><time>2026-04-27T08:05:59.999Z</time></trkpt><trkpt lat="31.933019516644634" lon="-4.397784210572923"><ele>1024.0</ele><time>2026-04-27T08:06:00.999Z</time></trkpt><trkpt lat="31.93308354234397" lon="-4.397968826543564"><ele>1022.0</ele><time>2026-04-27T08:06:01.999Z</time></trkpt><trkpt lat="31.9331480148965" lon="-4.3981536380626896"><ele>1020.0</ele><time>2026-04-27T08:06:02.999Z</time></trkpt><trkpt lat="31.933211255733273" lon="-4.398338456354808"><ele>1018.0</ele><time>2026-04-27T08:06:03.999Z</time></trkpt><trkpt lat="31.93327483448044" lon="-4.398523348124237"><ele>1018.0</ele><time>2026-04-27T08:06:04.999Z</time></trkpt><trkpt lat="31.933339484931853" lon="-4.3987091503318485"><ele>1018.0</ele><time>2026-04-27T08:06:05.999Z</time></trkpt><trkpt lat="31.933404650680437" lon="-4.398896734633036"><ele>1018.0</ele><time>2026-04-27T08:06:06.999Z</time></trkpt><trkpt lat="31.93347054623809" lon="-4.399085565636938"><ele>1020.0</ele><time>2026-04-27T08:06:07.999Z</time></trkpt><trkpt lat="31.93353651036539" lon="-4.399276909864585"><ele>1022.0</ele><time>2026-04-27T08:06:08.999Z</time></trkpt><trkpt lat="31.93360400453294" lon="-4.399468884003386"><ele>1024.0</ele><time>2026-04-27T08:06:09.999Z</time></trkpt><trkpt lat="31.93367374416656" lon="-4.399660429431926"><ele>1024.3333333333333</ele><time>2026-04-27T08:06:10.999Z</time></trkpt><trkpt lat="31.93375969473852" lon="-4.399840737979503"><ele>1024.6666666666667</ele><time>2026-04-27T08:06:11.999Z</time></trkpt><trkpt lat="31.933817553054226" lon="-4.400030381120154"><ele>1025.0</ele><time>2026-04-27T08:06:12.999Z</time></trkpt><trkpt lat="31.93391554420944" lon="-4.40019456447474"><ele>1025.0</ele><time>2026-04-27T08:06:13.999Z</time></trkpt><trkpt lat="31.933998554457222" lon="-4.400364951549542"><ele>1025.0</ele><time>2026-04-27T08:06:14.999Z</time></trkpt><trkpt lat="31.93408147742516" lon="-4.400535686044184"><ele>1025.0</ele><time>2026-04-27T08:06:15.999Z</time></trkpt><trkpt lat="31.93417544250423" lon="-4.400699853852167"><ele>1025.6666666666667</ele><time>2026-04-27T08:06:16.999Z</time></trkpt><trkpt lat="31.934267736243072" lon="-4.40086614390185"><ele>1026.3333333333333</ele><time>2026-04-27T08:06:17.999Z</time></trkpt><trkpt lat="31.9343605392776" lon="-4.401033351576892"><ele>1027.0</ele><time>2026-04-27T08:06:18.999Z</time></trkpt><trkpt lat="31.934457638394523" lon="-4.401190919408919"><ele>1027.0</ele><time>2026-04-27T08:06:19.999Z</time></trkpt><trkpt lat="31.934557824612536" lon="-4.401349373078029"><ele>1027.0</ele><time>2026-04-27T08:06:20.999Z</time></trkpt><trkpt lat="31.9346574255181" lon="-4.40150641835773"><ele>1027.0</ele><time>2026-04-27T08:06:21.999Z</time></trkpt><trkpt lat="31.93475601743531" lon="-4.401662140984468"><ele>1027.0</ele><time>2026-04-27T08:06:22.999Z</time></trkpt><trkpt lat="31.934854824645345" lon="-4.401818204253146"><ele>1027.0</ele><time>2026-04-27T08:06:23.999Z</time></trkpt><trkpt lat="31.93495117091675" lon="-4.401970490458371"><ele>1027.0</ele><time>2026-04-27T08:06:24.999Z</time></trkpt><trkpt lat="31.93504713456858" lon="-4.402122492730029"><ele>1026.6666666666665</ele><time>2026-04-27T08:06:25.999Z</time></trkpt><trkpt lat="31.93514249137978" lon="-4.402273808070619"><ele>1026.3333333333333</ele><time>2026-04-27T08:06:26.999Z</time></trkpt><trkpt lat="31.935238342457478" lon="-4.402425951422501"><ele>1026.0</ele><time>2026-04-27T08:06:27.999Z</time></trkpt><trkpt lat="31.93533442578971" lon="-4.402577467443602"><ele>1026.0</ele><time>2026-04-27T08:06:28.999Z</time></trkpt><trkpt lat="31.935430051009963" lon="-4.402728261055418"><ele>1026.0</ele><time>2026-04-27T08:06:29.999Z</time></trkpt><trkpt lat="31.93552258491723" lon="-4.4028798994689895"><ele>1026.0</ele><time>2026-04-27T08:06:30.999Z</time></trkpt><trkpt lat="31.935615530459813" lon="-4.403033842374223"><ele>1025.3333333333333</ele><time>2026-04-27T08:06:31.999Z</time></trkpt><trkpt lat="31.93570780756142" lon="-4.403186678160558"><ele>1024.6666666666665</ele><time>2026-04-27T08:06:32.999Z</time></trkpt><trkpt lat="31.935801025782006" lon="-4.403341405883729"><ele>1024.0</ele><time>2026-04-27T08:06:33.999Z</time></trkpt><trkpt lat="31.935879746915916" lon="-4.403504241756766"><ele>1025.6666666666665</ele><time>2026-04-27T08:06:34.999Z</time></trkpt><trkpt lat="31.93597465853426" lon="-4.403651932267701"><ele>1027.3333333333333</ele><time>2026-04-27T08:06:35.999Z</time></trkpt><trkpt lat="31.936066329732284" lon="-4.403798642270056"><ele>1029.0</ele><time>2026-04-27T08:06:36.999Z</time></trkpt><trkpt lat="31.936154386691303" lon="-4.403939275687245"><ele>1029.0</ele><time>2026-04-27T08:06:37.999Z</time></trkpt><trkpt lat="31.936239269612877" lon="-4.40407779151163"><ele>1029.0</ele><time>2026-04-27T08:06:38.999Z</time></trkpt><trkpt lat="31.936334417870558" lon="-4.404198144561815"><ele>1029.0</ele><time>2026-04-27T08:06:39.999Z</time></trkpt><trkpt lat="31.936413835135856" lon="-4.404325159809828"><ele>1029.0</ele><time>2026-04-27T08:06:40.999Z</time></trkpt><trkpt lat="31.936477052843657" lon="-4.404457415952311"><ele>1029.0</ele><time>2026-04-27T08:06:41.999Z</time></trkpt><trkpt lat="31.936557208787807" lon="-4.404550774189613"><ele>1029.0</ele><time>2026-04-27T08:06:42.999Z</time></trkpt><trkpt lat="31.936615913112636" lon="-4.40463894321076"><ele>1029.0</ele><time>2026-04-27T08:06:43.999Z</time></trkpt><trkpt lat="31.936666371280538" lon="-4.40471657711749"><ele>1029.0</ele><time>2026-04-27T08:06:44.999Z</time></trkpt><trkpt lat="31.936710795711665" lon="-4.40478347976976"><ele>1029.0</ele><time>2026-04-27T08:06:45.999Z</time></trkpt><trkpt lat="31.93678174371439" lon="-4.404890326623133"><ele>1028.5</ele><time>2026-04-27T08:06:47.999Z</time></trkpt><trkpt lat="31.936819014026593" lon="-4.404977908130519"><ele>1028.0</ele><time>2026-04-27T08:06:49.999Z</time></trkpt><trkpt lat="31.936879752081367" lon="-4.405043244954348"><ele>1027.5</ele><time>2026-04-27T08:06:51.999Z</time></trkpt><trkpt lat="31.93695953046253" lon="-4.405106340100671"><ele>1027.0</ele><time>2026-04-27T08:06:53.999Z</time></trkpt><trkpt lat="31.937048882756798" lon="-4.405185730042639"><ele>1026.5</ele><time>2026-04-27T08:06:55.999Z</time></trkpt><trkpt lat="31.937084025090282" lon="-4.4052494222718686"><ele>1026.0</ele><time>2026-04-27T08:06:56.999Z</time></trkpt><trkpt lat="31.937119572824557" lon="-4.405319313232212"><ele>1026.0</ele><time>2026-04-27T08:06:57.999Z</time></trkpt><trkpt lat="31.937160670326584" lon="-4.405397627221307"><ele>1026.0</ele><time>2026-04-27T08:06:58.999Z</time></trkpt><trkpt lat="31.937212464508825" lon="-4.405483182697642"><ele>1026.0</ele><time>2026-04-27T08:06:59.999Z</time></trkpt><trkpt lat="31.93727940781739" lon="-4.405570537815141"><ele>1026.0</ele><time>2026-04-27T08:07:00.999Z</time></trkpt><trkpt lat="31.93736075305256" lon="-4.405656020554918"><ele>1026.0</ele><time>2026-04-27T08:07:01.999Z</time></trkpt><trkpt lat="31.937458336309298" lon="-4.4057296225868114"><ele>1026.25</ele><time>2026-04-27T08:07:02.999Z</time></trkpt><trkpt lat="31.937553889798856" lon="-4.405811819698414"><ele>1026.5</ele><time>2026-04-27T08:07:03.999Z</time></trkpt><trkpt lat="31.937654235963542" lon="-4.405898291061321"><ele>1026.75</ele><time>2026-04-27T08:07:04.999Z</time></trkpt><trkpt lat="31.93776009733344" lon="-4.405989541556933"><ele>1027.0</ele><time>2026-04-27T08:07:05.999Z</time></trkpt><trkpt lat="31.93786649295315" lon="-4.406081278334668"><ele>1027.0</ele><time>2026-04-27T08:07:06.999Z</time></trkpt><trkpt lat="31.937974248074738" lon="-4.406174187309967"><ele>1027.0</ele><time>2026-04-27T08:07:07.999Z</time></trkpt><trkpt lat="31.93807989308796" lon="-4.406265276891221"><ele>1027.0</ele><time>2026-04-27T08:07:08.999Z</time></trkpt><trkpt lat="31.938181273925014" lon="-4.406352652681529"><ele>1027.0</ele><time>2026-04-27T08:07:09.999Z</time></trkpt><trkpt lat="31.938279861849672" lon="-4.406437792840016"><ele>1027.25</ele><time>2026-04-27T08:07:10.999Z</time></trkpt><trkpt lat="31.938381232208776" lon="-4.406524670152516"><ele>1027.5</ele><time>2026-04-27T08:07:11.999Z</time></trkpt><trkpt lat="31.93848337279669" lon="-4.406609770123901"><ele>1027.75</ele><time>2026-04-27T08:07:12.999Z</time></trkpt><trkpt lat="31.938586951379758" lon="-4.406695894268109"><ele>1028.0</ele><time>2026-04-27T08:07:13.999Z</time></trkpt><trkpt lat="31.93869180226381" lon="-4.406783076312662"><ele>1028.25</ele><time>2026-04-27T08:07:14.999Z</time></trkpt><trkpt lat="31.93879776028496" lon="-4.406871178928753"><ele>1028.5</ele><time>2026-04-27T08:07:15.999Z</time></trkpt><trkpt lat="31.938904707887886" lon="-4.40696011388156"><ele>1028.75</ele><time>2026-04-27T08:07:16.999Z</time></trkpt><trkpt lat="31.939003301606764" lon="-4.407063518695518"><ele>1029.0</ele><time>2026-04-27T08:07:17.999Z</time></trkpt><trkpt lat="31.939112146078493" lon="-4.40715248575872"><ele>1029.25</ele><time>2026-04-27T08:07:18.999Z</time></trkpt><trkpt lat="31.939221583386217" lon="-4.407241434528123"><ele>1029.5</ele><time>2026-04-27T08:07:19.999Z</time></trkpt><trkpt lat="31.939333516895115" lon="-4.407329052252461"><ele>1029.75</ele><time>2026-04-27T08:07:20.999Z</time></trkpt><trkpt lat="31.939447721354412" lon="-4.407416961634831"><ele>1030.0</ele><time>2026-04-27T08:07:21.999Z</time></trkpt><trkpt lat="31.93956613154124" lon="-4.40750697950867"><ele>1030.0</ele><time>2026-04-27T08:07:22.999Z</time></trkpt><trkpt lat="31.939687408934958" lon="-4.407598618432854"><ele>1030.0</ele><time>2026-04-27T08:07:23.999Z</time></trkpt><trkpt lat="31.93981192264118" lon="-4.407693550153668"><ele>1030.0</ele><time>2026-04-27T08:07:24.999Z</time></trkpt><trkpt lat="31.939939620782162" lon="-4.407794228343253"><ele>1030.0</ele><time>2026-04-27T08:07:25.999Z</time></trkpt><trkpt lat="31.940070893435617" lon="-4.407901522325871"><ele>1030.3333333333333</ele><time>2026-04-27T08:07:26.999Z</time></trkpt><trkpt lat="31.940202605824137" lon="-4.40801242639941"><ele>1030.6666666666667</ele><time>2026-04-27T08:07:27.999Z</time></trkpt><trkpt lat="31.940336637190644" lon="-4.40812801901676"><ele>1031.0</ele><time>2026-04-27T08:07:28.999Z</time></trkpt><trkpt lat="31.94047128859169" lon="-4.408249135137024"><ele>1031.0</ele><time>2026-04-27T08:07:29.999Z</time></trkpt><trkpt lat="31.940607191878367" lon="-4.40837408639619"><ele>1031.0</ele><time>2026-04-27T08:07:30.999Z</time></trkpt><trkpt lat="31.94074027624115" lon="-4.408503284030427"><ele>1031.0</ele><time>2026-04-27T08:07:31.999Z</time></trkpt><trkpt lat="31.940867734137544" lon="-4.408636201101963"><ele>1031.3333333333335</ele><time>2026-04-27T08:07:32.999Z</time></trkpt><trkpt lat="31.940990312927923" lon="-4.408767231847582"><ele>1031.6666666666667</ele><time>2026-04-27T08:07:33.999Z</time></trkpt><trkpt lat="31.941113649591344" lon="-4.408895138927962"><ele>1032.0</ele><time>2026-04-27T08:07:34.999Z</time></trkpt><trkpt lat="31.941233727227463" lon="-4.409018491846074"><ele>1030.75</ele><time>2026-04-27T08:07:35.999Z</time></trkpt><trkpt lat="31.941349796117844" lon="-4.409136223700151"><ele>1029.5</ele><time>2026-04-27T08:07:36.999Z</time></trkpt><trkpt lat="31.94145571236917" lon="-4.409239962109845"><ele>1028.25</ele><time>2026-04-27T08:07:37.999Z</time></trkpt><trkpt lat="31.941547585911238" lon="-4.409327731226359"><ele>1027.0</ele><time>2026-04-27T08:07:38.999Z</time></trkpt><trkpt lat="31.941625014026815" lon="-4.409397216161488"><ele>1027.0</ele><time>2026-04-27T08:07:39.999Z</time></trkpt><trkpt lat="31.94169606177426" lon="-4.409451468880349"><ele>1027.0</ele><time>2026-04-27T08:07:40.999Z</time></trkpt><trkpt lat="31.941767288452443" lon="-4.409490006924753"><ele>1027.0</ele><time>2026-04-27T08:07:41.999Z</time></trkpt><trkpt lat="31.94183647755204" lon="-4.409517107991063"><ele>1027.0</ele><time>2026-04-27T08:07:42.999Z</time></trkpt><trkpt lat="31.9419082478657" lon="-4.4095404708441865"><ele>1027.0</ele><time>2026-04-27T08:07:43.999Z</time></trkpt><trkpt lat="31.941975873923575" lon="-4.409577689359459"><ele>1027.0</ele><time>2026-04-27T08:07:44.999Z</time></trkpt><trkpt lat="31.942035739336944" lon="-4.409635721497305"><ele>1027.2</ele><time>2026-04-27T08:07:45.999Z</time></trkpt><trkpt lat="31.942090095411835" lon="-4.409713280941158"><ele>1027.4</ele><time>2026-04-27T08:07:46.999Z</time></trkpt><trkpt lat="31.942149460002334" lon="-4.409803635472964"><ele>1027.6</ele><time>2026-04-27T08:07:47.999Z</time></trkpt><trkpt lat="31.942237455861076" lon="-4.409870300254376"><ele>1027.8</ele><time>2026-04-27T08:07:48.999Z</time></trkpt><trkpt lat="31.94231506826713" lon="-4.409971445229409"><ele>1028.0</ele><time>2026-04-27T08:07:49.999Z</time></trkpt><trkpt lat="31.942420259267216" lon="-4.410055249642935"><ele>1028.0</ele><time>2026-04-27T08:07:50.999Z</time></trkpt><trkpt lat="31.94253412349448" lon="-4.410140719939456"><ele>1028.0</ele><time>2026-04-27T08:07:51.999Z</time></trkpt><trkpt lat="31.942652068522857" lon="-4.410224411412501"><ele>1028.0</ele><time>2026-04-27T08:07:52.999Z</time></trkpt><trkpt lat="31.94276947371217" lon="-4.410310189378995"><ele>1028.0</ele><time>2026-04-27T08:07:53.999Z</time></trkpt><trkpt lat="31.9428876601703" lon="-4.41039949980279"><ele>1028.3333333333335</ele><time>2026-04-27T08:07:54.999Z</time></trkpt><trkpt lat="31.943028220715625" lon="-4.410462367546446"><ele>1028.6666666666667</ele><time>2026-04-27T08:07:55.999Z</time></trkpt><trkpt lat="31.94316113478905" lon="-4.410556698329615"><ele>1029.0</ele><time>2026-04-27T08:07:56.999Z</time></trkpt><trkpt lat="31.943301987084322" lon="-4.41065668860535"><ele>1029.6666666666667</ele><time>2026-04-27T08:07:57.999Z</time></trkpt><trkpt lat="31.943452882996752" lon="-4.410763808790293"><ele>1030.3333333333335</ele><time>2026-04-27T08:07:58.999Z</time></trkpt><trkpt lat="31.94360841645998" lon="-4.410874510171086"><ele>1031.0</ele><time>2026-04-27T08:07:59.999Z</time></trkpt><trkpt lat="31.943767169280655" lon="-4.410998386482296"><ele>1031.0</ele><time>2026-04-27T08:08:00.999Z</time></trkpt><trkpt lat="31.943923545167582" lon="-4.411130666475152"><ele>1031.0</ele><time>2026-04-27T08:08:01.999Z</time></trkpt><trkpt lat="31.944081533156098" lon="-4.411264270961606"><ele>1031.0</ele><time>2026-04-27T08:08:02.999Z</time></trkpt><trkpt lat="31.94424014236127" lon="-4.411397908409226"><ele>1031.0</ele><time>2026-04-27T08:08:03.999Z</time></trkpt><trkpt lat="31.94439691126284" lon="-4.411529768217602"><ele>1031.0</ele><time>2026-04-27T08:08:04.999Z</time></trkpt><trkpt lat="31.944554847200564" lon="-4.411662727182404"><ele>1031.0</ele><time>2026-04-27T08:08:05.999Z</time></trkpt><trkpt lat="31.944716994269328" lon="-4.4117993754951845"><ele>1031.0</ele><time>2026-04-27T08:08:06.999Z</time></trkpt><trkpt lat="31.94488211689456" lon="-4.411938403985967"><ele>1031.0</ele><time>2026-04-27T08:08:07.999Z</time></trkpt><trkpt lat="31.945048729881567" lon="-4.412078687332739"><ele>1031.0</ele><time>2026-04-27T08:08:08.999Z</time></trkpt><trkpt lat="31.945215233744733" lon="-4.412218878782324"><ele>1030.6666666666667</ele><time>2026-04-27T08:08:09.999Z</time></trkpt><trkpt lat="31.94538368291544" lon="-4.412360708123814"><ele>1030.3333333333333</ele><time>2026-04-27T08:08:10.999Z</time></trkpt><trkpt lat="31.945556157057375" lon="-4.412506134202508"><ele>1030.0</ele><time>2026-04-27T08:08:11.999Z</time></trkpt><trkpt lat="31.945732329901283" lon="-4.412654764763633"><ele>1029.6666666666665</ele><time>2026-04-27T08:08:12.999Z</time></trkpt><trkpt lat="31.94591252243752" lon="-4.412806295442789"><ele>1029.3333333333333</ele><time>2026-04-27T08:08:13.999Z</time></trkpt><trkpt lat="31.946095309266052" lon="-4.412960082165017"><ele>1029.0</ele><time>2026-04-27T08:08:14.999Z</time></trkpt><trkpt lat="31.94627893249157" lon="-4.413114572588446"><ele>1029.6666666666667</ele><time>2026-04-27T08:08:15.999Z</time></trkpt><trkpt lat="31.94646049055279" lon="-4.413267325502716"><ele>1030.3333333333335</ele><time>2026-04-27T08:08:16.999Z</time></trkpt><trkpt lat="31.946640078278307" lon="-4.41341842065798"><ele>1031.0</ele><time>2026-04-27T08:08:17.999Z</time></trkpt><trkpt lat="31.946821327849634" lon="-4.4135709140193375"><ele>1031.0</ele><time>2026-04-27T08:08:18.999Z</time></trkpt><trkpt lat="31.947000876126484" lon="-4.413723839069304"><ele>1031.0</ele><time>2026-04-27T08:08:19.999Z</time></trkpt><trkpt lat="31.94718170079267" lon="-4.413878115145472"><ele>1031.0</ele><time>2026-04-27T08:08:20.999Z</time></trkpt><trkpt lat="31.94736178351879" lon="-4.414031758229703"><ele>1030.6666666666667</ele><time>2026-04-27T08:08:21.999Z</time></trkpt><trkpt lat="31.947541778269173" lon="-4.414183297952688"><ele>1030.3333333333333</ele><time>2026-04-27T08:08:22.999Z</time></trkpt><trkpt lat="31.94772432135079" lon="-4.414335193187344"><ele>1030.0</ele><time>2026-04-27T08:08:23.999Z</time></trkpt><trkpt lat="31.94790726825938" lon="-4.414487424444544"><ele>1030.0</ele><time>2026-04-27T08:08:24.999Z</time></trkpt><trkpt lat="31.948088495628586" lon="-4.4146382248696865"><ele>1030.0</ele><time>2026-04-27T08:08:25.999Z</time></trkpt><trkpt lat="31.948266338022556" lon="-4.414786208630118"><ele>1030.0</ele><time>2026-04-27T08:08:26.999Z</time></trkpt><trkpt lat="31.948443130521735" lon="-4.41493246487095"><ele>1030.6666666666665</ele><time>2026-04-27T08:08:27.999Z</time></trkpt><trkpt lat="31.948615921797273" lon="-4.415076450273295"><ele>1031.3333333333333</ele><time>2026-04-27T08:08:28.999Z</time></trkpt><trkpt lat="31.94878661535773" lon="-4.415218537138965"><ele>1032.0</ele><time>2026-04-27T08:08:29.999Z</time></trkpt><trkpt lat="31.948957803212206" lon="-4.4153606710796245"><ele>1032.3333333333333</ele><time>2026-04-27T08:08:30.999Z</time></trkpt><trkpt lat="31.949129180891703" lon="-4.415502961815111"><ele>1032.6666666666665</ele><time>2026-04-27T08:08:31.999Z</time></trkpt><trkpt lat="31.949299738657846" lon="-4.41564516871293"><ele>1033.0</ele><time>2026-04-27T08:08:32.999Z</time></trkpt><trkpt lat="31.94947114941391" lon="-4.41578816627799"><ele>1033.0</ele><time>2026-04-27T08:08:33.999Z</time></trkpt><trkpt lat="31.94964428939971" lon="-4.415932606436496"><ele>1033.0</ele><time>2026-04-27T08:08:34.999Z</time></trkpt><trkpt lat="31.949819081732645" lon="-4.416078418237767"><ele>1033.0</ele><time>2026-04-27T08:08:35.999Z</time></trkpt><trkpt lat="31.94999369623249" lon="-4.416223930301024"><ele>1033.0</ele><time>2026-04-27T08:08:36.999Z</time></trkpt><trkpt lat="31.950170811689045" lon="-4.416371259738023"><ele>1033.0</ele><time>2026-04-27T08:08:37.999Z</time></trkpt><trkpt lat="31.950347822084996" lon="-4.416518570203994"><ele>1033.0</ele><time>2026-04-27T08:08:38.999Z</time></trkpt><trkpt lat="31.95052611819311" lon="-4.416667482803726"><ele>1033.0</ele><time>2026-04-27T08:08:39.999Z</time></trkpt><trkpt lat="31.950704515458035" lon="-4.416816479889322"><ele>1033.0</ele><time>2026-04-27T08:08:40.999Z</time></trkpt><trkpt lat="31.950877384332752" lon="-4.416963364859205"><ele>1033.0</ele><time>2026-04-27T08:08:41.999Z</time></trkpt><trkpt lat="31.951028008944593" lon="-4.417136124914124"><ele>1033.3333333333333</ele><time>2026-04-27T08:08:42.999Z</time></trkpt><trkpt lat="31.951194567089637" lon="-4.4172751543445194"><ele>1033.6666666666667</ele><time>2026-04-27T08:08:43.999Z</time></trkpt><trkpt lat="31.951362974408404" lon="-4.417415817768049"><ele>1034.0</ele><time>2026-04-27T08:08:44.999Z</time></trkpt><trkpt lat="31.951531902086227" lon="-4.417556226229089"><ele>1034.0</ele><time>2026-04-27T08:08:45.999Z</time></trkpt><trkpt lat="31.95170283868838" lon="-4.417698256980401"><ele>1034.0</ele><time>2026-04-27T08:08:46.999Z</time></trkpt><trkpt lat="31.95187674042508" lon="-4.417845226152797"><ele>1034.0</ele><time>2026-04-27T08:08:47.999Z</time></trkpt><trkpt lat="31.952051157194184" lon="-4.417992570614579"><ele>1034.6666666666667</ele><time>2026-04-27T08:08:48.999Z</time></trkpt><trkpt lat="31.952228030880065" lon="-4.418140263414434"><ele>1035.3333333333333</ele><time>2026-04-27T08:08:49.999Z</time></trkpt><trkpt lat="31.952406773986972" lon="-4.418289304023802"><ele>1036.0</ele><time>2026-04-27T08:08:50.999Z</time></trkpt><trkpt lat="31.952591226608707" lon="-4.4184387863237795"><ele>1036.0</ele><time>2026-04-27T08:08:51.999Z</time></trkpt><trkpt lat="31.952778644694078" lon="-4.418592529132352"><ele>1036.0</ele><time>2026-04-27T08:08:52.999Z</time></trkpt><trkpt lat="31.9529650756286" lon="-4.4187479943248436"><ele>1033.5</ele><time>2026-04-27T08:08:53.999Z</time></trkpt><trkpt lat="31.953150069336388" lon="-4.418904680702521"><ele>1031.0</ele><time>2026-04-27T08:08:54.999Z</time></trkpt><trkpt lat="31.95333571541592" lon="-4.419062519222015"><ele>1034.0</ele><time>2026-04-27T08:08:55.999Z</time></trkpt><trkpt lat="31.953523806276696" lon="-4.419220497174173"><ele>1037.0</ele><time>2026-04-27T08:08:56.999Z</time></trkpt><trkpt lat="31.95371512889461" lon="-4.4193808229015055"><ele>1037.0</ele><time>2026-04-27T08:08:57.999Z</time></trkpt><trkpt lat="31.953907120534982" lon="-4.419541259927172"><ele>1037.0</ele><time>2026-04-27T08:08:58.999Z</time></trkpt><trkpt lat="31.95410088007148" lon="-4.419702447723151"><ele>1038.0</ele><time>2026-04-27T08:08:59.999Z</time></trkpt><trkpt lat="31.954295834338797" lon="-4.4198638187517725"><ele>1039.0</ele><time>2026-04-27T08:09:00.999Z</time></trkpt><trkpt lat="31.95449205400566" lon="-4.420023349897082"><ele>1039.0</ele><time>2026-04-27T08:09:01.999Z</time></trkpt><trkpt lat="31.954694049598206" lon="-4.420187541688453"><ele>1039.0</ele><time>2026-04-27T08:09:02.999Z</time></trkpt><trkpt lat="31.954897094031626" lon="-4.420355553106387"><ele>1037.5</ele><time>2026-04-27T08:09:03.999Z</time></trkpt><trkpt lat="31.9551008292843" lon="-4.420525971088848"><ele>1036.0</ele><time>2026-04-27T08:09:04.999Z</time></trkpt><trkpt lat="31.955300694247875" lon="-4.420698505034294"><ele>1036.0</ele><time>2026-04-27T08:09:05.999Z</time></trkpt><trkpt lat="31.95549926081216" lon="-4.420868903841357"><ele>1036.0</ele><time>2026-04-27T08:09:06.999Z</time></trkpt><trkpt lat="31.955697978031353" lon="-4.421035525058244"><ele>1037.5</ele><time>2026-04-27T08:09:07.999Z</time></trkpt><trkpt lat="31.955891532523992" lon="-4.421197919931081"><ele>1039.0</ele><time>2026-04-27T08:09:08.999Z</time></trkpt><trkpt lat="31.956080660166247" lon="-4.421357158330998"><ele>1039.0</ele><time>2026-04-27T08:09:09.999Z</time></trkpt><trkpt lat="31.956260712109906" lon="-4.421516977303168"><ele>1039.0</ele><time>2026-04-27T08:09:10.999Z</time></trkpt><trkpt lat="31.956433589185377" lon="-4.421678097779885"><ele>1039.0</ele><time>2026-04-27T08:09:11.999Z</time></trkpt><trkpt lat="31.956590879470067" lon="-4.421840352460235"><ele>1038.6666666666665</ele><time>2026-04-27T08:09:12.999Z</time></trkpt><trkpt lat="31.95673330855248" lon="-4.422007647203239"><ele>1038.3333333333333</ele><time>2026-04-27T08:09:13.999Z</time></trkpt><trkpt lat="31.95686356379573" lon="-4.422181109108142"><ele>1038.0</ele><time>2026-04-27T08:09:14.999Z</time></trkpt><trkpt lat="31.956984143592088" lon="-4.422362716715208"><ele>1036.6666666666667</ele><time>2026-04-27T08:09:15.999Z</time></trkpt><trkpt lat="31.957096904552223" lon="-4.422550381001938"><ele>1035.3333333333335</ele><time>2026-04-27T08:09:16.999Z</time></trkpt><trkpt lat="31.95720235963155" lon="-4.422744498602991"><ele>1034.0</ele><time>2026-04-27T08:09:17.999Z</time></trkpt><trkpt lat="31.957307614630484" lon="-4.422947079799695"><ele>1034.3333333333335</ele><time>2026-04-27T08:09:18.999Z</time></trkpt><trkpt lat="31.957414067357213" lon="-4.423158183580363"><ele>1034.6666666666667</ele><time>2026-04-27T08:09:19.999Z</time></trkpt><trkpt lat="31.95752207192923" lon="-4.423372570790982"><ele>1035.0</ele><time>2026-04-27T08:09:20.999Z</time></trkpt><trkpt lat="31.957628847122393" lon="-4.423590971172575"><ele>1035.6666666666667</ele><time>2026-04-27T08:09:21.999Z</time></trkpt><trkpt lat="31.9577370600087" lon="-4.4238106402584805"><ele>1036.3333333333335</ele><time>2026-04-27T08:09:22.999Z</time></trkpt><trkpt lat="31.957847271283562" lon="-4.424034117188404"><ele>1037.0</ele><time>2026-04-27T08:09:23.999Z</time></trkpt><trkpt lat="31.95795441496406" lon="-4.42425731070649"><ele>1037.0</ele><time>2026-04-27T08:09:24.999Z</time></trkpt><trkpt lat="31.958059188195794" lon="-4.424476456024145"><ele>1037.0</ele><time>2026-04-27T08:09:25.999Z</time></trkpt><trkpt lat="31.95816029782333" lon="-4.424687088680114"><ele>1037.0</ele><time>2026-04-27T08:09:26.999Z</time></trkpt><trkpt lat="31.958259374916135" lon="-4.424888685627854"><ele>1037.0</ele><time>2026-04-27T08:09:27.999Z</time></trkpt><trkpt lat="31.958359351625404" lon="-4.425082788575678"><ele>1037.0</ele><time>2026-04-27T08:09:28.999Z</time></trkpt><trkpt lat="31.958449604371733" lon="-4.425259329717397"><ele>1037.0</ele><time>2026-04-27T08:09:29.999Z</time></trkpt><trkpt lat="31.95852928647648" lon="-4.425407163259584"><ele>1037.25</ele><time>2026-04-27T08:09:30.999Z</time></trkpt><trkpt lat="31.958601096988634" lon="-4.425540676886547"><ele>1037.5</ele><time>2026-04-27T08:09:31.999Z</time></trkpt><trkpt lat="31.958673623298253" lon="-4.425678228541153"><ele>1037.75</ele><time>2026-04-27T08:09:32.999Z</time></trkpt><trkpt lat="31.958746875166604" lon="-4.425814090834942"><ele>1038.0</ele><time>2026-04-27T08:09:33.999Z</time></trkpt><trkpt lat="31.95882179093991" lon="-4.425956080553939"><ele>1038.0</ele><time>2026-04-27T08:09:34.999Z</time></trkpt><trkpt lat="31.95890793943164" lon="-4.426098320851359"><ele>1038.0</ele><time>2026-04-27T08:09:35.999Z</time></trkpt><trkpt lat="31.959001819930766" lon="-4.426233327371675"><ele>1038.0</ele><time>2026-04-27T08:09:37Z</time></trkpt><trkpt lat="31.959092232587935" lon="-4.426356878655293"><ele>1038.0</ele><time>2026-04-27T08:09:38Z</time></trkpt><trkpt lat="31.95917880807613" lon="-4.426472691925594"><ele>1038.5</ele><time>2026-04-27T08:09:39Z</time></trkpt><trkpt lat="31.95926682769367" lon="-4.426583260740208"><ele>1039.0</ele><time>2026-04-27T08:09:40Z</time></trkpt><trkpt lat="31.959358954369886" lon="-4.426697619030592"><ele>1039.5</ele><time>2026-04-27T08:09:41Z</time></trkpt><trkpt lat="31.95945509872192" lon="-4.426819684315095"><ele>1040.0</ele><time>2026-04-27T08:09:42Z</time></trkpt><trkpt lat="31.959559850436428" lon="-4.426950212904275"><ele>1040.0</ele><time>2026-04-27T08:09:43Z</time></trkpt><trkpt lat="31.959667980141564" lon="-4.427087113693667"><ele>1040.0</ele><time>2026-04-27T08:09:44Z</time></trkpt><trkpt lat="31.959775200087083" lon="-4.427225816229291"><ele>1040.0</ele><time>2026-04-27T08:09:45Z</time></trkpt><trkpt lat="31.95988202052783" lon="-4.427366595961523"><ele>1040.0</ele><time>2026-04-27T08:09:46Z</time></trkpt><trkpt lat="31.95998693637843" lon="-4.427505035643374"><ele>1040.0</ele><time>2026-04-27T08:09:47Z</time></trkpt><trkpt lat="31.960089569299168" lon="-4.427640235027678"><ele>1040.0</ele><time>2026-04-27T08:09:48Z</time></trkpt><trkpt lat="31.960230433010402" lon="-4.427742005075181"><ele>1040.0</ele><time>2026-04-27T08:09:49Z</time></trkpt><trkpt lat="31.96033906256736" lon="-4.427885066226904"><ele>1040.0</ele><time>2026-04-27T08:09:50Z</time></trkpt><trkpt lat="31.96045325401886" lon="-4.428035495711021"><ele>1040.0</ele><time>2026-04-27T08:09:51Z</time></trkpt><trkpt lat="31.96057219866571" lon="-4.428183201512347"><ele>1040.0</ele><time>2026-04-27T08:09:52Z</time></trkpt><trkpt lat="31.96069675412972" lon="-4.428332692111605"><ele>1040.0</ele><time>2026-04-27T08:09:53Z</time></trkpt><trkpt lat="31.960820045861993" lon="-4.428480722057053"><ele>1040.0</ele><time>2026-04-27T08:09:54Z</time></trkpt><trkpt lat="31.96094365519335" lon="-4.428629568291934"><ele>1040.0</ele><time>2026-04-27T08:09:55Z</time></trkpt><trkpt lat="31.961064355339836" lon="-4.4287749113891195"><ele>1040.0</ele><time>2026-04-27T08:09:56Z</time></trkpt><trkpt lat="31.961184490607025" lon="-4.428928174981981"><ele>1040.0</ele><time>2026-04-27T08:09:57Z</time></trkpt><trkpt lat="31.961304325341626" lon="-4.42908148798247"><ele>1039.3333333333335</ele><time>2026-04-27T08:09:58Z</time></trkpt><trkpt lat="31.96142602084199" lon="-4.4292371815939955"><ele>1038.6666666666667</ele><time>2026-04-27T08:09:59Z</time></trkpt><trkpt lat="31.96154890118446" lon="-4.429394505451426"><ele>1038.0</ele><time>2026-04-27T08:10:00Z</time></trkpt><trkpt lat="31.961672783670895" lon="-4.4295529778281235"><ele>1037.3333333333333</ele><time>2026-04-27T08:10:01.001Z</time></trkpt><trkpt lat="31.96179615735988" lon="-4.429709308988937"><ele>1036.6666666666665</ele><time>2026-04-27T08:10:02.001Z</time></trkpt><trkpt lat="31.961917415119245" lon="-4.429862398420423"><ele>1036.0</ele><time>2026-04-27T08:10:03.001Z</time></trkpt><trkpt lat="31.962039088827268" lon="-4.430014732479668"><ele>1036.0</ele><time>2026-04-27T08:10:04.001Z</time></trkpt><trkpt lat="31.962163856368942" lon="-4.430171318820353"><ele>1036.0</ele><time>2026-04-27T08:10:05.001Z</time></trkpt><trkpt lat="31.962290404888417" lon="-4.430330831907293"><ele>1036.0</ele><time>2026-04-27T08:10:06.001Z</time></trkpt><trkpt lat="31.962425308068195" lon="-4.430500700809932"><ele>1037.3333333333333</ele><time>2026-04-27T08:10:07.001Z</time></trkpt><trkpt lat="31.962566093066506" lon="-4.43067778021279"><ele>1038.6666666666667</ele><time>2026-04-27T08:10:08.001Z</time></trkpt><trkpt lat="31.962711232260453" lon="-4.430860132796993"><ele>1040.0</ele><time>2026-04-27T08:10:09.001Z</time></trkpt><trkpt lat="31.962863896379613" lon="-4.431052370557173"><ele>1040.0</ele><time>2026-04-27T08:10:10.001Z</time></trkpt><trkpt lat="31.963021540152226" lon="-4.431250211127852"><ele>1040.0</ele><time>2026-04-27T08:10:11.001Z</time></trkpt><trkpt lat="31.963181073019467" lon="-4.431450077742518"><ele>1040.5</ele><time>2026-04-27T08:10:12.001Z</time></trkpt><trkpt lat="31.963341006423565" lon="-4.431649675339539"><ele>1041.0</ele><time>2026-04-27T08:10:13.001Z</time></trkpt><trkpt lat="31.9635029614903" lon="-4.431851703226935"><ele>1041.0</ele><time>2026-04-27T08:10:14.001Z</time></trkpt><trkpt lat="31.963664740990957" lon="-4.432056772545531"><ele>1041.0</ele><time>2026-04-27T08:10:15.001Z</time></trkpt><trkpt lat="31.963818906082828" lon="-4.432260419215806"><ele>1040.0</ele><time>2026-04-27T08:10:16.001Z</time></trkpt><trkpt lat="31.963971633027633" lon="-4.432462662813055"><ele>1039.0</ele><time>2026-04-27T08:10:17.001Z</time></trkpt><trkpt lat="31.964119566028792" lon="-4.432667074373724"><ele>1041.5</ele><time>2026-04-27T08:10:18.001Z</time></trkpt><trkpt lat="31.964268545515413" lon="-4.432881338324307"><ele>1044.0</ele><time>2026-04-27T08:10:19.001Z</time></trkpt><trkpt lat="31.964414657260697" lon="-4.433099589952726"><ele>1044.0</ele><time>2026-04-27T08:10:20.001Z</time></trkpt><trkpt lat="31.964561516159854" lon="-4.4333217094108335"><ele>1044.0</ele><time>2026-04-27T08:10:21.001Z</time></trkpt><trkpt lat="31.964705599586246" lon="-4.433546515065205"><ele>1044.0</ele><time>2026-04-27T08:10:22.001Z</time></trkpt><trkpt lat="31.96485080300688" lon="-4.433773203389664"><ele>1044.0</ele><time>2026-04-27T08:10:23.001Z</time></trkpt><trkpt lat="31.964990543114972" lon="-4.434014845317915"><ele>1046.5</ele><time>2026-04-27T08:10:24.001Z</time></trkpt><trkpt lat="31.965128389604956" lon="-4.4342596620638295"><ele>1049.0</ele><time>2026-04-27T08:10:25.001Z</time></trkpt><trkpt lat="31.96526909883029" lon="-4.434509105374285"><ele>1047.0</ele><time>2026-04-27T08:10:26.001Z</time></trkpt><trkpt lat="31.96541528418793" lon="-4.434767754060649"><ele>1045.0</ele><time>2026-04-27T08:10:27.001Z</time></trkpt><trkpt lat="31.965557630261603" lon="-4.435041701201019"><ele>1045.0</ele><time>2026-04-27T08:10:28.001Z</time></trkpt><trkpt lat="31.965700068828912" lon="-4.435320960616704"><ele>1045.0</ele><time>2026-04-27T08:10:29.001Z</time></trkpt><trkpt lat="31.965849299500153" lon="-4.4356190676898795"><ele>1043.0</ele><time>2026-04-27T08:10:30.001Z</time></trkpt><trkpt lat="31.966006298937995" lon="-4.435940255176133"><ele>1041.0</ele><time>2026-04-27T08:10:31.001Z</time></trkpt><trkpt lat="31.96616260207036" lon="-4.436281841754486"><ele>1040.5</ele><time>2026-04-27T08:10:32.001Z</time></trkpt><trkpt lat="31.966322004962034" lon="-4.436630411378642"><ele>1040.0</ele><time>2026-04-27T08:10:33.001Z</time></trkpt><trkpt lat="31.96648205392757" lon="-4.436991719598797"><ele>1041.0</ele><time>2026-04-27T08:10:34.001Z</time></trkpt><trkpt lat="31.966635379334985" lon="-4.437363822808676"><ele>1042.0</ele><time>2026-04-27T08:10:35Z</time></trkpt><trkpt lat="31.966770580432044" lon="-4.4377392956398"><ele>1042.0</ele><time>2026-04-27T08:10:36Z</time></trkpt><trkpt lat="31.966901620380767" lon="-4.438107298117006"><ele>1042.0</ele><time>2026-04-27T08:10:37Z</time></trkpt><trkpt lat="31.967024069973156" lon="-4.4384708917833775"><ele>1042.0</ele><time>2026-04-27T08:10:38Z</time></trkpt><trkpt lat="31.967130675117392" lon="-4.4388283291532336"><ele>1042.0</ele><time>2026-04-27T08:10:39Z</time></trkpt><trkpt lat="31.967229985283527" lon="-4.439182288882974"><ele>1042.0</ele><time>2026-04-27T08:10:40Z</time></trkpt><trkpt lat="31.967345558814063" lon="-4.43952859964764"><ele>1042.0</ele><time>2026-04-27T08:10:41Z</time></trkpt><trkpt lat="31.967472439909994" lon="-4.439860602084103"><ele>1044.0</ele><time>2026-04-27T08:10:42Z</time></trkpt><trkpt lat="31.967600367485456" lon="-4.440207878497741"><ele>1046.0</ele><time>2026-04-27T08:10:43Z</time></trkpt><trkpt lat="31.967733814437832" lon="-4.440545092719988"><ele>1046.0</ele><time>2026-04-27T08:10:44Z</time></trkpt><trkpt lat="31.9678722661857" lon="-4.440882089795051"><ele>1046.0</ele><time>2026-04-27T08:10:45Z</time></trkpt><trkpt lat="31.968010553712066" lon="-4.441218611486545"><ele>1045.0</ele><time>2026-04-27T08:10:46Z</time></trkpt><trkpt lat="31.968153090086204" lon="-4.441556477633627"><ele>1044.0</ele><time>2026-04-27T08:10:47Z</time></trkpt><trkpt lat="31.968303355308983" lon="-4.441891370281883"><ele>1044.5</ele><time>2026-04-27T08:10:48Z</time></trkpt><trkpt lat="31.968463263703885" lon="-4.442221492948582"><ele>1045.0</ele><time>2026-04-27T08:10:49Z</time></trkpt><trkpt lat="31.96862897255651" lon="-4.442551689236012"><ele>1045.0</ele><time>2026-04-27T08:10:50Z</time></trkpt><trkpt lat="31.968801865362067" lon="-4.442883196102767"><ele>1045.0</ele><time>2026-04-27T08:10:51Z</time></trkpt><trkpt lat="31.968981092592067" lon="-4.443210294592029"><ele>1044.5</ele><time>2026-04-27T08:10:52Z</time></trkpt><trkpt lat="31.96916732205173" lon="-4.443529991499238"><ele>1044.0</ele><time>2026-04-27T08:10:53Z</time></trkpt><trkpt lat="31.969360229299326" lon="-4.443843165049397"><ele>1044.0</ele><time>2026-04-27T08:10:54Z</time></trkpt><trkpt lat="31.96955057501178" lon="-4.444155627299554"><ele>1044.0</ele><time>2026-04-27T08:10:55Z</time></trkpt><trkpt lat="31.9697408362627" lon="-4.444465711824054"><ele>1044.5</ele><time>2026-04-27T08:10:56Z</time></trkpt><trkpt lat="31.969936067175336" lon="-4.4447761566522495"><ele>1045.0</ele><time>2026-04-27T08:10:57Z</time></trkpt><trkpt lat="31.97012767072057" lon="-4.445077870073044"><ele>1045.0</ele><time>2026-04-27T08:10:58Z</time></trkpt><trkpt lat="31.970311267184396" lon="-4.445368711280837"><ele>1045.0</ele><time>2026-04-27T08:10:59Z</time></trkpt><trkpt lat="31.970491550278" lon="-4.445652155740705"><ele>1046.0</ele><time>2026-04-27T08:11:00Z</time></trkpt><trkpt lat="31.970669487626946" lon="-4.445931327565749"><ele>1047.0</ele><time>2026-04-27T08:11:01Z</time></trkpt><trkpt lat="31.970848210393513" lon="-4.446212640047795"><ele>1047.0</ele><time>2026-04-27T08:11:02Z</time></trkpt><trkpt lat="31.971025423424628" lon="-4.446492141686005"><ele>1047.0</ele><time>2026-04-27T08:11:03Z</time></trkpt><trkpt lat="31.97120305606414" lon="-4.4467678885221655"><ele>1047.0</ele><time>2026-04-27T08:11:04Z</time></trkpt><trkpt lat="31.971381675432948" lon="-4.447043232257358"><ele>1047.0</ele><time>2026-04-27T08:11:05Z</time></trkpt><trkpt lat="31.971560597743785" lon="-4.447318691501384"><ele>1047.5</ele><time>2026-04-27T08:11:06Z</time></trkpt><trkpt lat="31.971739488204985" lon="-4.447596362399337"><ele>1048.0</ele><time>2026-04-27T08:11:07Z</time></trkpt><trkpt lat="31.971914399803" lon="-4.447877715735433"><ele>1048.5</ele><time>2026-04-27T08:11:08Z</time></trkpt><trkpt lat="31.97209013695495" lon="-4.448160648054679"><ele>1049.0</ele><time>2026-04-27T08:11:09Z</time></trkpt><trkpt lat="31.972267496939683" lon="-4.448441310288782"><ele>1049.0</ele><time>2026-04-27T08:11:10Z</time></trkpt><trkpt lat="31.972446501013852" lon="-4.4487219699019525"><ele>1049.0</ele><time>2026-04-27T08:11:11Z</time></trkpt><trkpt lat="31.972626283466113" lon="-4.449002357269441"><ele>1049.5</ele><time>2026-04-27T08:11:12Z</time></trkpt><trkpt lat="31.972805498083265" lon="-4.44928408130198"><ele>1050.0</ele><time>2026-04-27T08:11:13Z</time></trkpt><trkpt lat="31.972985544457917" lon="-4.449566962054999"><ele>1049.5</ele><time>2026-04-27T08:11:14Z</time></trkpt><trkpt lat="31.973164388907637" lon="-4.4498468149347294"><ele>1049.0</ele><time>2026-04-27T08:11:15Z</time></trkpt><trkpt lat="31.973344550520487" lon="-4.450128915260524"><ele>1050.0</ele><time>2026-04-27T08:11:16Z</time></trkpt><trkpt lat="31.973524550956846" lon="-4.450411123303208"><ele>1051.0</ele><time>2026-04-27T08:11:17Z</time></trkpt><trkpt lat="31.973707965211158" lon="-4.450692446757181"><ele>1052.0</ele><time>2026-04-27T08:11:18Z</time></trkpt><trkpt lat="31.973893330015155" lon="-4.450968426676959"><ele>1053.0</ele><time>2026-04-27T08:11:19Z</time></trkpt><trkpt lat="31.97407865240698" lon="-4.451241479934922"><ele>1053.0</ele><time>2026-04-27T08:11:20Z</time></trkpt><trkpt lat="31.97426164085778" lon="-4.4515143757668145"><ele>1053.0</ele><time>2026-04-27T08:11:21Z</time></trkpt><trkpt lat="31.97444309249907" lon="-4.451785600859467"><ele>1053.0</ele><time>2026-04-27T08:11:22Z</time></trkpt><trkpt lat="31.97462518099069" lon="-4.452053607424887"><ele>1053.0</ele><time>2026-04-27T08:11:23Z</time></trkpt><trkpt lat="31.974809157397317" lon="-4.4523187470679435"><ele>1052.5</ele><time>2026-04-27T08:11:24Z</time></trkpt><trkpt lat="31.974988889467504" lon="-4.45258130793869"><ele>1052.0</ele><time>2026-04-27T08:11:25Z</time></trkpt><trkpt lat="31.975162718576136" lon="-4.45283801068683"><ele>1053.0</ele><time>2026-04-27T08:11:26Z</time></trkpt><trkpt lat="31.975331776667847" lon="-4.453087014451306"><ele>1054.0</ele><time>2026-04-27T08:11:27Z</time></trkpt><trkpt lat="31.975496954879876" lon="-4.453329687576712"><ele>1054.0</ele><time>2026-04-27T08:11:28Z</time></trkpt><trkpt lat="31.975657879358884" lon="-4.4535675135909045"><ele>1054.0</ele><time>2026-04-27T08:11:29Z</time></trkpt><trkpt lat="31.975811823740283" lon="-4.453799600944957"><ele>1054.0</ele><time>2026-04-27T08:11:30Z</time></trkpt><trkpt lat="31.975953264228693" lon="-4.454021156877863"><ele>1054.0</ele><time>2026-04-27T08:11:31Z</time></trkpt><trkpt lat="31.976085549684278" lon="-4.454233675611865"><ele>1054.0</ele><time>2026-04-27T08:11:32Z</time></trkpt><trkpt lat="31.976214562898395" lon="-4.454439302219744"><ele>1054.0</ele><time>2026-04-27T08:11:33Z</time></trkpt><trkpt lat="31.976336912702713" lon="-4.454634953089318"><ele>1054.0</ele><time>2026-04-27T08:11:34Z</time></trkpt><trkpt lat="31.97645313269286" lon="-4.454823502899879"><ele>1054.3333333333333</ele><time>2026-04-27T08:11:35Z</time></trkpt><trkpt lat="31.976561127258964" lon="-4.454998480466244"><ele>1054.6666666666667</ele><time>2026-04-27T08:11:36Z</time></trkpt><trkpt lat="31.976657406825513" lon="-4.455156696964228"><ele>1055.0</ele><time>2026-04-27T08:11:37Z</time></trkpt><trkpt lat="31.976752815978926" lon="-4.455312069971124"><ele>1056.3333333333335</ele><time>2026-04-27T08:11:38Z</time></trkpt><trkpt lat="31.97685299933779" lon="-4.455478535805598"><ele>1057.6666666666667</ele><time>2026-04-27T08:11:39Z</time></trkpt><trkpt lat="31.976958799331765" lon="-4.455658263998745"><ele>1059.0</ele><time>2026-04-27T08:11:40Z</time></trkpt><trkpt lat="31.977061526720053" lon="-4.455845528023326"><ele>1059.0</ele><time>2026-04-27T08:11:41Z</time></trkpt><trkpt lat="31.977154768357188" lon="-4.456031852062294"><ele>1059.0</ele><time>2026-04-27T08:11:42Z</time></trkpt><trkpt lat="31.977234386012828" lon="-4.4562130414547205"><ele>1059.0</ele><time>2026-04-27T08:11:43.001Z</time></trkpt><trkpt lat="31.977300155983198" lon="-4.456379203999867"><ele>1059.0</ele><time>2026-04-27T08:11:44.001Z</time></trkpt><trkpt lat="31.977363654809025" lon="-4.456545498444404"><ele>1059.0</ele><time>2026-04-27T08:11:45.001Z</time></trkpt><trkpt lat="31.97742091596843" lon="-4.456710869892688"><ele>1059.0</ele><time>2026-04-27T08:11:46.001Z</time></trkpt><trkpt lat="31.977497195117596" lon="-4.456865733662713"><ele>1058.6666666666667</ele><time>2026-04-27T08:11:47.001Z</time></trkpt><trkpt lat="31.97755501783613" lon="-4.457025537653674"><ele>1058.3333333333335</ele><time>2026-04-27T08:11:48.001Z</time></trkpt><trkpt lat="31.977621252127918" lon="-4.457177957030233"><ele>1058.0</ele><time>2026-04-27T08:11:49.001Z</time></trkpt><trkpt lat="31.977700878780634" lon="-4.45734128041574"><ele>1058.0</ele><time>2026-04-27T08:11:50.001Z</time></trkpt><trkpt lat="31.977794682252252" lon="-4.457511880672237"><ele>1058.0</ele><time>2026-04-27T08:11:51.001Z</time></trkpt><trkpt lat="31.97790636194855" lon="-4.457684260745592"><ele>1058.0</ele><time>2026-04-27T08:11:52.001Z</time></trkpt><trkpt lat="31.978035408444274" lon="-4.457856321397616"><ele>1058.0</ele><time>2026-04-27T08:11:53.001Z</time></trkpt><trkpt lat="31.97817652811326" lon="-4.458022446524748"><ele>1058.0</ele><time>2026-04-27T08:11:54.001Z</time></trkpt><trkpt lat="31.978334986703075" lon="-4.458180687702526"><ele>1058.0</ele><time>2026-04-27T08:11:55.001Z</time></trkpt><trkpt lat="31.978511259355827" lon="-4.458329606370389"><ele>1058.0</ele><time>2026-04-27T08:11:56.001Z</time></trkpt><trkpt lat="31.978692044724767" lon="-4.4584669034019315"><ele>1058.0</ele><time>2026-04-27T08:11:57.001Z</time></trkpt><trkpt lat="31.978874356531588" lon="-4.458603717582523"><ele>1058.0</ele><time>2026-04-27T08:11:58.001Z</time></trkpt><trkpt lat="31.97905533868014" lon="-4.4587424344325575"><ele>1057.3333333333335</ele><time>2026-04-27T08:11:59.001Z</time></trkpt><trkpt lat="31.979234656197228" lon="-4.458883013368868"><ele>1056.6666666666667</ele><time>2026-04-27T08:12:00.001Z</time></trkpt><trkpt lat="31.979413161052225" lon="-4.459023018630653"><ele>1056.0</ele><time>2026-04-27T08:12:01.001Z</time></trkpt><trkpt lat="31.979595705878893" lon="-4.4591661243466065"><ele>1056.0</ele><time>2026-04-27T08:12:02.001Z</time></trkpt><trkpt lat="31.979788038663322" lon="-4.4593124002149604"><ele>1056.0</ele><time>2026-04-27T08:12:03.001Z</time></trkpt><trkpt lat="31.979992126492824" lon="-4.4594555516497625"><ele>1055.0</ele><time>2026-04-27T08:12:04.001Z</time></trkpt><trkpt lat="31.980209169226658" lon="-4.4595753480307305"><ele>1054.0</ele><time>2026-04-27T08:12:05.001Z</time></trkpt><trkpt lat="31.98042386721558" lon="-4.45969087441725"><ele>1054.0</ele><time>2026-04-27T08:12:06.001Z</time></trkpt><trkpt lat="31.980629574251697" lon="-4.459803502928613"><ele>1054.0</ele><time>2026-04-27T08:12:07.001Z</time></trkpt><trkpt lat="31.9808348144856" lon="-4.459916126055282"><ele>1055.6666666666665</ele><time>2026-04-27T08:12:08.001Z</time></trkpt><trkpt lat="31.98103815545838" lon="-4.460010423973108"><ele>1057.3333333333333</ele><time>2026-04-27T08:12:09.001Z</time></trkpt><trkpt lat="31.981243255060484" lon="-4.460049635819219"><ele>1059.0</ele><time>2026-04-27T08:12:10.001Z</time></trkpt><trkpt lat="31.981443350662268" lon="-4.46009103251864"><ele>1059.0</ele><time>2026-04-27T08:12:11.001Z</time></trkpt><trkpt lat="31.981632607469468" lon="-4.460157139723211"><ele>1059.0</ele><time>2026-04-27T08:12:12.001Z</time></trkpt><trkpt lat="31.98183130855304" lon="-4.4602277137003785"><ele>1059.0</ele><time>2026-04-27T08:12:13.001Z</time></trkpt><trkpt lat="31.982019643105033" lon="-4.460318842420246"><ele>1060.0</ele><time>2026-04-27T08:12:14.001Z</time></trkpt><trkpt lat="31.982184311003426" lon="-4.460415611648926"><ele>1061.0</ele><time>2026-04-27T08:12:15.001Z</time></trkpt><trkpt lat="31.982324925410797" lon="-4.4605375019540405"><ele>1062.0</ele><time>2026-04-27T08:12:16.001Z</time></trkpt><trkpt lat="31.98243629658663" lon="-4.4606846822608395"><ele>1065.0</ele><time>2026-04-27T08:12:17.001Z</time></trkpt><trkpt lat="31.982515547524827" lon="-4.4608655691318"><ele>1068.0</ele><time>2026-04-27T08:12:18.001Z</time></trkpt><trkpt lat="31.982572666670546" lon="-4.461068847538653"><ele>1071.0</ele><time>2026-04-27T08:12:19.001Z</time></trkpt><trkpt lat="31.982620573210987" lon="-4.4612714101161925"><ele>1071.3333333333333</ele><time>2026-04-27T08:12:20.001Z</time></trkpt><trkpt lat="31.982581280575033" lon="-4.461499695099987"><ele>1071.6666666666665</ele><time>2026-04-27T08:12:21.001Z</time></trkpt><trkpt lat="31.98255033884295" lon="-4.461735785484963"><ele>1072.0</ele><time>2026-04-27T08:12:22.001Z</time></trkpt><trkpt lat="31.982514429058792" lon="-4.4619850965592756"><ele>1069.5</ele><time>2026-04-27T08:12:23.001Z</time></trkpt><trkpt lat="31.982479965040614" lon="-4.462255106853475"><ele>1067.0</ele><time>2026-04-27T08:12:24.001Z</time></trkpt><trkpt lat="31.982443557587054" lon="-4.46254133478962"><ele>1067.0</ele><time>2026-04-27T08:12:25.001Z</time></trkpt><trkpt lat="31.982406187184026" lon="-4.462836310239841"><ele>1067.0</ele><time>2026-04-27T08:12:26.001Z</time></trkpt><trkpt lat="31.982367382096914" lon="-4.4631358281173386"><ele>1066.5</ele><time>2026-04-27T08:12:27.001Z</time></trkpt><trkpt lat="31.98232418005697" lon="-4.463444831389955"><ele>1066.0</ele><time>2026-04-27T08:12:28.001Z</time></trkpt><trkpt lat="31.982278509608413" lon="-4.463760423272912"><ele>1065.5</ele><time>2026-04-27T08:12:29.001Z</time></trkpt><trkpt lat="31.982234127247903" lon="-4.464079946259929"><ele>1065.0</ele><time>2026-04-27T08:12:30.001Z</time></trkpt><trkpt lat="31.98219168118499" lon="-4.4644026452850465"><ele>1065.0</ele><time>2026-04-27T08:12:31.001Z</time></trkpt><trkpt lat="31.98214714649774" lon="-4.464724628621599"><ele>1065.0</ele><time>2026-04-27T08:12:32.001Z</time></trkpt><trkpt lat="31.98211394831785" lon="-4.465052555571149"><ele>1065.0</ele><time>2026-04-27T08:12:33.001Z</time></trkpt><trkpt lat="31.982040453374687" lon="-4.4653683125197725"><ele>1065.0</ele><time>2026-04-27T08:12:34.001Z</time></trkpt><trkpt lat="31.98197306893755" lon="-4.465686355916485"><ele>1067.0</ele><time>2026-04-27T08:12:35.001Z</time></trkpt><trkpt lat="31.981897743892883" lon="-4.466003169353938"><ele>1069.0</ele><time>2026-04-27T08:12:36.001Z</time></trkpt><trkpt lat="31.981818295614868" lon="-4.466309992027901"><ele>1069.0</ele><time>2026-04-27T08:12:37.001Z</time></trkpt><trkpt lat="31.981736123300138" lon="-4.4666087046185154"><ele>1069.0</ele><time>2026-04-27T08:12:38.001Z</time></trkpt><trkpt lat="31.981655083017515" lon="-4.466899919230076"><ele>1068.5</ele><time>2026-04-27T08:12:39.001Z</time></trkpt><trkpt lat="31.981573256118104" lon="-4.46719555047186"><ele>1068.0</ele><time>2026-04-27T08:12:40.001Z</time></trkpt><trkpt lat="31.98149030010783" lon="-4.467493593887203"><ele>1068.0</ele><time>2026-04-27T08:12:41.001Z</time></trkpt><trkpt lat="31.981408640335804" lon="-4.467784641516101"><ele>1068.0</ele><time>2026-04-27T08:12:42.001Z</time></trkpt><trkpt lat="31.98132857675672" lon="-4.4680637583947"><ele>1069.0</ele><time>2026-04-27T08:12:43Z</time></trkpt><trkpt lat="31.98125092278733" lon="-4.4683236343119015"><ele>1070.0</ele><time>2026-04-27T08:12:44Z</time></trkpt><trkpt lat="31.98117687913715" lon="-4.46858233526133"><ele>1071.5</ele><time>2026-04-27T08:12:45Z</time></trkpt><trkpt lat="31.981110357323356" lon="-4.468847108199098"><ele>1073.0</ele><time>2026-04-27T08:12:46Z</time></trkpt><trkpt lat="31.98105071437504" lon="-4.46911458714042"><ele>1073.0</ele><time>2026-04-27T08:12:47Z</time></trkpt><trkpt lat="31.980994010214758" lon="-4.4693811683566675"><ele>1073.0</ele><time>2026-04-27T08:12:48Z</time></trkpt><trkpt lat="31.98093573942921" lon="-4.469650570219734"><ele>1070.0</ele><time>2026-04-27T08:12:49Z</time></trkpt><trkpt lat="31.980877598452476" lon="-4.469916931517943"><ele>1067.0</ele><time>2026-04-27T08:12:50Z</time></trkpt><trkpt lat="31.980825490416738" lon="-4.470170330385063"><ele>1065.6666666666667</ele><time>2026-04-27T08:12:51Z</time></trkpt><trkpt lat="31.980780306021483" lon="-4.470411898137707"><ele>1064.3333333333333</ele><time>2026-04-27T08:12:52Z</time></trkpt><trkpt lat="31.980737384628664" lon="-4.470644947271277"><ele>1063.0</ele><time>2026-04-27T08:12:53Z</time></trkpt><trkpt lat="31.98069576398673" lon="-4.470872626585604"><ele>1063.0</ele><time>2026-04-27T08:12:54Z</time></trkpt><trkpt lat="31.9806543474234" lon="-4.471099101762586"><ele>1063.0</ele><time>2026-04-27T08:12:55Z</time></trkpt><trkpt lat="31.98061394336372" lon="-4.471328147006329"><ele>1063.0</ele><time>2026-04-27T08:12:56Z</time></trkpt><trkpt lat="31.980575166650645" lon="-4.471557738786713"><ele>1065.0</ele><time>2026-04-27T08:12:57Z</time></trkpt><trkpt lat="31.980534042540768" lon="-4.47178126837142"><ele>1067.0</ele><time>2026-04-27T08:12:58Z</time></trkpt><trkpt lat="31.98048843395372" lon="-4.472000298687307"><ele>1069.0</ele><time>2026-04-27T08:12:59Z</time></trkpt><trkpt lat="31.980437235733618" lon="-4.472223322514213"><ele>1069.6666666666665</ele><time>2026-04-27T08:13:00Z</time></trkpt><trkpt lat="31.98037907119715" lon="-4.472454013710131"><ele>1070.3333333333333</ele><time>2026-04-27T08:13:01Z</time></trkpt><trkpt lat="31.980315971423355" lon="-4.472686925628947"><ele>1071.0</ele><time>2026-04-27T08:13:02Z</time></trkpt><trkpt lat="31.980250482134753" lon="-4.4729197969690295"><ele>1071.3333333333333</ele><time>2026-04-27T08:13:03Z</time></trkpt><trkpt lat="31.98018113562355" lon="-4.473155536604125"><ele>1071.6666666666665</ele><time>2026-04-27T08:13:04Z</time></trkpt><trkpt lat="31.980109551211665" lon="-4.473393621850886"><ele>1072.0</ele><time>2026-04-27T08:13:05Z</time></trkpt><trkpt lat="31.98003636903494" lon="-4.47363921230905"><ele>1070.5</ele><time>2026-04-27T08:13:06Z</time></trkpt><trkpt lat="31.979957274755908" lon="-4.473894076082173"><ele>1069.0</ele><time>2026-04-27T08:13:07Z</time></trkpt><trkpt lat="31.97986937231819" lon="-4.474161778910151"><ele>1069.0</ele><time>2026-04-27T08:13:08Z</time></trkpt><trkpt lat="31.979774046451396" lon="-4.474444478471542"><ele>1069.0</ele><time>2026-04-27T08:13:09Z</time></trkpt><trkpt lat="31.97967268549012" lon="-4.474731994617605"><ele>1068.5</ele><time>2026-04-27T08:13:10Z</time></trkpt><trkpt lat="31.979562119949804" lon="-4.475034736045377"><ele>1068.0</ele><time>2026-04-27T08:13:11Z</time></trkpt><trkpt lat="31.979446928752132" lon="-4.475355422579307"><ele>1068.0</ele><time>2026-04-27T08:13:12Z</time></trkpt><trkpt lat="31.97933509861855" lon="-4.475682412712083"><ele>1068.0</ele><time>2026-04-27T08:13:13Z</time></trkpt><trkpt lat="31.979224182981834" lon="-4.476013638778621"><ele>1067.5</ele><time>2026-04-27T08:13:14Z</time></trkpt><trkpt lat="31.979113148836834" lon="-4.476344769555607"><ele>1067.0</ele><time>2026-04-27T08:13:15Z</time></trkpt><trkpt lat="31.979001355110572" lon="-4.476676520448545"><ele>1067.0</ele><time>2026-04-27T08:13:16Z</time></trkpt><trkpt lat="31.978889039453165" lon="-4.477004500501571"><ele>1067.0</ele><time>2026-04-27T08:13:17Z</time></trkpt><trkpt lat="31.97877687128622" lon="-4.477328428411145"><ele>1068.0</ele><time>2026-04-27T08:13:18Z</time></trkpt><trkpt lat="31.978665448477773" lon="-4.477652850051582"><ele>1069.0</ele><time>2026-04-27T08:13:19Z</time></trkpt><trkpt lat="31.97855266110403" lon="-4.477978339654676"><ele>1069.5</ele><time>2026-04-27T08:13:20Z</time></trkpt><trkpt lat="31.978437379978285" lon="-4.478305483821884"><ele>1070.0</ele><time>2026-04-27T08:13:21Z</time></trkpt><trkpt lat="31.978322073645604" lon="-4.478632421860774"><ele>1071.0</ele><time>2026-04-27T08:13:22Z</time></trkpt><trkpt lat="31.97820725304743" lon="-4.478959509918922"><ele>1072.0</ele><time>2026-04-27T08:13:23Z</time></trkpt><trkpt lat="31.978091286241916" lon="-4.47929094669399"><ele>1073.5</ele><time>2026-04-27T08:13:24Z</time></trkpt><trkpt lat="31.97797464236304" lon="-4.47962651583067"><ele>1075.0</ele><time>2026-04-27T08:13:25Z</time></trkpt><trkpt lat="31.977858476507592" lon="-4.4799618534600505"><ele>1075.0</ele><time>2026-04-27T08:13:26Z</time></trkpt><trkpt lat="31.977741256335662" lon="-4.480293953660488"><ele>1075.0</ele><time>2026-04-27T08:13:27Z</time></trkpt><trkpt lat="31.977626092723064" lon="-4.480618365448846"><ele>1075.0</ele><time>2026-04-27T08:13:28Z</time></trkpt><trkpt lat="31.9775148139664" lon="-4.4809370004115845"><ele>1075.0</ele><time>2026-04-27T08:13:29Z</time></trkpt><trkpt lat="31.977405790144513" lon="-4.481253512406762"><ele>1076.5</ele><time>2026-04-27T08:13:30Z</time></trkpt><trkpt lat="31.977295708316937" lon="-4.481577010775557"><ele>1078.0</ele><time>2026-04-27T08:13:31Z</time></trkpt><trkpt lat="31.97718457551993" lon="-4.481896785524848"><ele>1079.0</ele><time>2026-04-27T08:13:32Z</time></trkpt><trkpt lat="31.977069120713782" lon="-4.482218436862579"><ele>1080.0</ele><time>2026-04-27T08:13:33Z</time></trkpt><trkpt lat="31.976950958796397" lon="-4.4825480477778985"><ele>1080.0</ele><time>2026-04-27T08:13:34Z</time></trkpt><trkpt lat="31.976832139700647" lon="-4.48288210166951"><ele>1080.0</ele><time>2026-04-27T08:13:35Z</time></trkpt><trkpt lat="31.976713577685146" lon="-4.483221169730994"><ele>1079.5</ele><time>2026-04-27T08:13:36Z</time></trkpt><trkpt lat="31.97659756950269" lon="-4.4835596585408934"><ele>1079.0</ele><time>2026-04-27T08:13:37Z</time></trkpt><trkpt lat="31.97648316679519" lon="-4.4838943149689126"><ele>1079.0</ele><time>2026-04-27T08:13:38Z</time></trkpt><trkpt lat="31.976366496551503" lon="-4.484224598410184"><ele>1079.0</ele><time>2026-04-27T08:13:39Z</time></trkpt><trkpt lat="31.976250014001305" lon="-4.484558253531287"><ele>1080.5</ele><time>2026-04-27T08:13:40Z</time></trkpt><trkpt lat="31.97613386881598" lon="-4.484892184291946"><ele>1082.0</ele><time>2026-04-27T08:13:41Z</time></trkpt><trkpt lat="31.976018815223963" lon="-4.485223417797002"><ele>1081.5</ele><time>2026-04-27T08:13:42Z</time></trkpt><trkpt lat="31.975905113081378" lon="-4.48554884423719"><ele>1081.0</ele><time>2026-04-27T08:13:43Z</time></trkpt><trkpt lat="31.975791721311115" lon="-4.4858664551695595"><ele>1080.0</ele><time>2026-04-27T08:13:44Z</time></trkpt><trkpt lat="31.975679159230065" lon="-4.4861763030724395"><ele>1079.0</ele><time>2026-04-27T08:13:45Z</time></trkpt><trkpt lat="31.975571982945908" lon="-4.48647831590059"><ele>1079.0</ele><time>2026-04-27T08:13:46Z</time></trkpt><trkpt lat="31.97547087826179" lon="-4.48677581252604"><ele>1079.0</ele><time>2026-04-27T08:13:47Z</time></trkpt><trkpt lat="31.975380768572418" lon="-4.487070391895797"><ele>1078.5</ele><time>2026-04-27T08:13:48Z</time></trkpt><trkpt lat="31.97530100560193" lon="-4.487375431603313"><ele>1078.0</ele><time>2026-04-27T08:13:49.001Z</time></trkpt><trkpt lat="31.975237483021047" lon="-4.487689720093818"><ele>1079.0</ele><time>2026-04-27T08:13:50.001Z</time></trkpt><trkpt lat="31.975187110503427" lon="-4.488011517144343"><ele>1080.0</ele><time>2026-04-27T08:13:51.001Z</time></trkpt><trkpt lat="31.97515552636592" lon="-4.488336363262219"><ele>1080.0</ele><time>2026-04-27T08:13:52.001Z</time></trkpt><trkpt lat="31.975147023376827" lon="-4.488662327911927"><ele>1080.0</ele><time>2026-04-27T08:13:53.001Z</time></trkpt><trkpt lat="31.975154960162087" lon="-4.488986888569529"><ele>1082.0</ele><time>2026-04-27T08:13:54.001Z</time></trkpt><trkpt lat="31.97516889900864" lon="-4.489307720627746"><ele>1084.0</ele><time>2026-04-27T08:13:55.001Z</time></trkpt><trkpt lat="31.975188924921408" lon="-4.489623768697172"><ele>1084.0</ele><time>2026-04-27T08:13:56.001Z</time></trkpt><trkpt lat="31.975210199569773" lon="-4.489921094677849"><ele>1084.0</ele><time>2026-04-27T08:13:57.001Z</time></trkpt><trkpt lat="31.975227430733426" lon="-4.4901955302523495"><ele>1083.3333333333333</ele><time>2026-04-27T08:13:58.001Z</time></trkpt><trkpt lat="31.975242550203784" lon="-4.490445467242394"><ele>1082.6666666666667</ele><time>2026-04-27T08:13:59.001Z</time></trkpt><trkpt lat="31.975274704116952" lon="-4.490664942047893"><ele>1082.0</ele><time>2026-04-27T08:14:00.001Z</time></trkpt><trkpt lat="31.975289687725994" lon="-4.4908617383726455"><ele>1082.0</ele><time>2026-04-27T08:14:01.001Z</time></trkpt><trkpt lat="31.975297382338148" lon="-4.4910393198047505"><ele>1082.0</ele><time>2026-04-27T08:14:02.001Z</time></trkpt><trkpt lat="31.97528222338237" lon="-4.4912183133256045"><ele>1082.0</ele><time>2026-04-27T08:14:03.001Z</time></trkpt><trkpt lat="31.975277397432226" lon="-4.491402913271994"><ele>1081.6666666666667</ele><time>2026-04-27T08:14:04.001Z</time></trkpt><trkpt lat="31.975256375260837" lon="-4.491592723591371"><ele>1081.3333333333333</ele><time>2026-04-27T08:14:05.001Z</time></trkpt><trkpt lat="31.97521772125459" lon="-4.491783337876798"><ele>1081.0</ele><time>2026-04-27T08:14:06.001Z</time></trkpt><trkpt lat="31.97518756664742" lon="-4.491976822482103"><ele>1081.6666666666665</ele><time>2026-04-27T08:14:07.001Z</time></trkpt><trkpt lat="31.97514055501077" lon="-4.492165283101171"><ele>1082.3333333333333</ele><time>2026-04-27T08:14:08.001Z</time></trkpt><trkpt lat="31.975085459465184" lon="-4.492334956832545"><ele>1083.0</ele><time>2026-04-27T08:14:09.001Z</time></trkpt><trkpt lat="31.975033955038302" lon="-4.492494860037846"><ele>1082.8</ele><time>2026-04-27T08:14:10.001Z</time></trkpt><trkpt lat="31.97498385170845" lon="-4.4926283337074695"><ele>1082.6</ele><time>2026-04-27T08:14:11.001Z</time></trkpt><trkpt lat="31.97496400189179" lon="-4.492763150501121"><ele>1082.4</ele><time>2026-04-27T08:14:12.001Z</time></trkpt><trkpt lat="31.97494570230831" lon="-4.492887321245996"><ele>1082.2</ele><time>2026-04-27T08:14:13.001Z</time></trkpt><trkpt lat="31.97492956746424" lon="-4.493004151342628"><ele>1082.0</ele><time>2026-04-27T08:14:14.001Z</time></trkpt><trkpt lat="31.97493294587197" lon="-4.493118755324449"><ele>1081.6</ele><time>2026-04-27T08:14:15.001Z</time></trkpt><trkpt lat="31.97499428706531" lon="-4.493226218463688"><ele>1081.2</ele><time>2026-04-27T08:14:16.001Z</time></trkpt><trkpt lat="31.97508592465921" lon="-4.493321796053942"><ele>1080.8</ele><time>2026-04-27T08:14:17.001Z</time></trkpt><trkpt lat="31.975160561790425" lon="-4.493385234098306"><ele>1080.4</ele><time>2026-04-27T08:14:18.001Z</time></trkpt><trkpt lat="31.975213985598717" lon="-4.493431402954527"><ele>1080.0</ele><time>2026-04-27T08:14:19.001Z</time></trkpt><trkpt lat="31.975306774289095" lon="-4.4935157165352475"><ele>1080.8</ele><time>2026-04-27T08:14:21.001Z</time></trkpt><trkpt lat="31.975388209620338" lon="-4.493577447220014"><ele>1081.6</ele><time>2026-04-27T08:14:23.001Z</time></trkpt><trkpt lat="31.97546423229717" lon="-4.493634950875758"><ele>1082.4</ele><time>2026-04-27T08:14:25.001Z</time></trkpt><trkpt lat="31.97557232615106" lon="-4.493720067388553"><ele>1083.2</ele><time>2026-04-27T08:14:27.001Z</time></trkpt><trkpt lat="31.975654632943964" lon="-4.49375998934559"><ele>1084.0</ele><time>2026-04-27T08:14:28.001Z</time></trkpt><trkpt lat="31.975734028348544" lon="-4.4938195678792425"><ele>1084.2</ele><time>2026-04-27T08:14:29.001Z</time></trkpt><trkpt lat="31.975811332003996" lon="-4.493897146877407"><ele>1084.4</ele><time>2026-04-27T08:14:30.001Z</time></trkpt><trkpt lat="31.97590234315388" lon="-4.493965506397862"><ele>1084.6</ele><time>2026-04-27T08:14:31.001Z</time></trkpt><trkpt lat="31.9759959982788" lon="-4.494038748147832"><ele>1084.8</ele><time>2026-04-27T08:14:32.001Z</time></trkpt><trkpt lat="31.97610464597129" lon="-4.4940976804016515"><ele>1085.0</ele><time>2026-04-27T08:14:33.001Z</time></trkpt><trkpt lat="31.97620051576441" lon="-4.494191277041852"><ele>1085.75</ele><time>2026-04-27T08:14:34.001Z</time></trkpt><trkpt lat="31.976316321342008" lon="-4.49427498777493"><ele>1086.5</ele><time>2026-04-27T08:14:35.001Z</time></trkpt><trkpt lat="31.976438926018133" lon="-4.494366849421131"><ele>1087.25</ele><time>2026-04-27T08:14:36.001Z</time></trkpt><trkpt lat="31.976567251373144" lon="-4.4944662649393505"><ele>1088.0</ele><time>2026-04-27T08:14:37.001Z</time></trkpt><trkpt lat="31.976707902428235" lon="-4.494550119358247"><ele>1089.6666666666667</ele><time>2026-04-27T08:14:38.001Z</time></trkpt><trkpt lat="31.97684425851672" lon="-4.494652553604438"><ele>1091.3333333333333</ele><time>2026-04-27T08:14:39.001Z</time></trkpt><trkpt lat="31.97699405246235" lon="-4.494765577858886"><ele>1093.0</ele><time>2026-04-27T08:14:40.001Z</time></trkpt><trkpt lat="31.977154606709117" lon="-4.49488196083166"><ele>1093.0</ele><time>2026-04-27T08:14:41.001Z</time></trkpt><trkpt lat="31.97732550314928" lon="-4.495004151176638"><ele>1093.0</ele><time>2026-04-27T08:14:42.001Z</time></trkpt><trkpt lat="31.977506441995878" lon="-4.495133379689426"><ele>1093.0</ele><time>2026-04-27T08:14:43.001Z</time></trkpt><trkpt lat="31.97769690990695" lon="-4.495268957720699"><ele>1094.5</ele><time>2026-04-27T08:14:44.001Z</time></trkpt><trkpt lat="31.977897011221668" lon="-4.495411401052964"><ele>1096.0</ele><time>2026-04-27T08:14:45.001Z</time></trkpt><trkpt lat="31.978103367454587" lon="-4.49555888495375"><ele>1098.5</ele><time>2026-04-27T08:14:46.001Z</time></trkpt><trkpt lat="31.978320423281186" lon="-4.495714334457859"><ele>1101.0</ele><time>2026-04-27T08:14:47.001Z</time></trkpt><trkpt lat="31.978549810132268" lon="-4.495871995712773"><ele>1105.5</ele><time>2026-04-27T08:14:48.001Z</time></trkpt><trkpt lat="31.978784036864123" lon="-4.496033047981531"><ele>1110.0</ele><time>2026-04-27T08:14:49.001Z</time></trkpt><trkpt lat="31.97902315736332" lon="-4.4961974262694815"><ele>1112.5</ele><time>2026-04-27T08:14:50.001Z</time></trkpt><trkpt lat="31.979265466244062" lon="-4.496344262788296"><ele>1115.0</ele><time>2026-04-27T08:14:51.001Z</time></trkpt><trkpt lat="31.979520006906103" lon="-4.496490899510358"><ele>1115.0</ele><time>2026-04-27T08:14:52.001Z</time></trkpt><trkpt lat="31.979775440557773" lon="-4.496638958246626"><ele>1115.0</ele><time>2026-04-27T08:14:53.001Z</time></trkpt><trkpt lat="31.980034561410324" lon="-4.496766007517807"><ele>1118.0</ele><time>2026-04-27T08:14:54.001Z</time></trkpt><trkpt lat="31.98027209230229" lon="-4.496883230273898"><ele>1121.0</ele><time>2026-04-27T08:14:55.001Z</time></trkpt><trkpt lat="31.98048672027878" lon="-4.496989122017668"><ele>1122.5</ele><time>2026-04-27T08:14:56.001Z</time></trkpt><trkpt lat="31.980698652563735" lon="-4.497092984234976"><ele>1124.0</ele><time>2026-04-27T08:14:57.001Z</time></trkpt><trkpt lat="31.980913582388272" lon="-4.497191374361065"><ele>1124.0</ele><time>2026-04-27T08:14:58.001Z</time></trkpt><trkpt lat="31.98114693499287" lon="-4.4972787917107535"><ele>1124.0</ele><time>2026-04-27T08:14:59.001Z</time></trkpt><trkpt lat="31.981390021719058" lon="-4.49737123498981"><ele>1124.0</ele><time>2026-04-27T08:15:00.001Z</time></trkpt><trkpt lat="31.98163881748187" lon="-4.4974538987937835"><ele>1124.0</ele><time>2026-04-27T08:15:01.001Z</time></trkpt><trkpt lat="31.98189194574839" lon="-4.49753490806922"><ele>1124.0</ele><time>2026-04-27T08:15:02.001Z</time></trkpt><trkpt lat="31.9821526248841" lon="-4.4976183338093945"><ele>1124.0</ele><time>2026-04-27T08:15:03.001Z</time></trkpt><trkpt lat="31.98243408232775" lon="-4.497691864928246"><ele>1126.0</ele><time>2026-04-27T08:15:04.001Z</time></trkpt><trkpt lat="31.982721787007346" lon="-4.497765822588877"><ele>1128.0</ele><time>2026-04-27T08:15:05.001Z</time></trkpt><trkpt lat="31.983014373556518" lon="-4.497834983097111"><ele>1128.0</ele><time>2026-04-27T08:15:06.001Z</time></trkpt><trkpt lat="31.983314522080786" lon="-4.497893773995008"><ele>1128.0</ele><time>2026-04-27T08:15:07.001Z</time></trkpt><trkpt lat="31.98361769487885" lon="-4.497945033565958"><ele>1128.5</ele><time>2026-04-27T08:15:08.001Z</time></trkpt><trkpt lat="31.983926401799895" lon="-4.497984424626698"><ele>1129.0</ele><time>2026-04-27T08:15:09.001Z</time></trkpt><trkpt lat="31.98423305339205" lon="-4.498023553435442"><ele>1129.0</ele><time>2026-04-27T08:15:10.001Z</time></trkpt><trkpt lat="31.9845330879722" lon="-4.4980511864719"><ele>1129.0</ele><time>2026-04-27T08:15:11.001Z</time></trkpt><trkpt lat="31.98483471167997" lon="-4.498064651592355"><ele>1129.5</ele><time>2026-04-27T08:15:12.001Z</time></trkpt><trkpt lat="31.985137123394637" lon="-4.498077604343748"><ele>1130.0</ele><time>2026-04-27T08:15:13.001Z</time></trkpt><trkpt lat="31.985436712845242" lon="-4.498088213245092"><ele>1130.0</ele><time>2026-04-27T08:15:14.001Z</time></trkpt><trkpt lat="31.98574160304885" lon="-4.498076483644837"><ele>1130.0</ele><time>2026-04-27T08:15:15.001Z</time></trkpt><trkpt lat="31.98604918009214" lon="-4.498064650665845"><ele>1130.5</ele><time>2026-04-27T08:15:16.001Z</time></trkpt><trkpt lat="31.986357126665983" lon="-4.498039909786019"><ele>1131.0</ele><time>2026-04-27T08:15:17.001Z</time></trkpt><trkpt lat="31.986669048573166" lon="-4.498007220144481"><ele>1131.5</ele><time>2026-04-27T08:15:18.001Z</time></trkpt><trkpt lat="31.986983739005783" lon="-4.4979755011052704"><ele>1132.0</ele><time>2026-04-27T08:15:19.001Z</time></trkpt><trkpt lat="31.987299365709077" lon="-4.497926277596135"><ele>1132.0</ele><time>2026-04-27T08:15:20.001Z</time></trkpt><trkpt lat="31.98761853432739" lon="-4.497876658331854"><ele>1132.0</ele><time>2026-04-27T08:15:21.001Z</time></trkpt><trkpt lat="31.98793578138758" lon="-4.497809017373604"><ele>1132.0</ele><time>2026-04-27T08:15:22.001Z</time></trkpt><trkpt lat="31.988257148240375" lon="-4.497734013802231"><ele>1132.0</ele><time>2026-04-27T08:15:23.001Z</time></trkpt><trkpt lat="31.988575109930167" lon="-4.497645037069767"><ele>1134.5</ele><time>2026-04-27T08:15:24.001Z</time></trkpt><trkpt lat="31.988886225292358" lon="-4.497557047627508"><ele>1137.0</ele><time>2026-04-27T08:15:25.001Z</time></trkpt><trkpt lat="31.989191123780376" lon="-4.49746252135825"><ele>1137.0</ele><time>2026-04-27T08:15:26.001Z</time></trkpt><trkpt lat="31.989499284027072" lon="-4.497356131817898"><ele>1137.0</ele><time>2026-04-27T08:15:27.001Z</time></trkpt><trkpt lat="31.989810836248648" lon="-4.497244962739163"><ele>1137.0</ele><time>2026-04-27T08:15:28.001Z</time></trkpt><trkpt lat="31.990126718327907" lon="-4.4971498700183075"><ele>1137.0</ele><time>2026-04-27T08:15:29Z</time></trkpt><trkpt lat="31.99043171593789" lon="-4.497011949217732"><ele>1137.0</ele><time>2026-04-27T08:15:30Z</time></trkpt><trkpt lat="31.990733145545253" lon="-4.496866558780226"><ele>1137.0</ele><time>2026-04-27T08:15:31Z</time></trkpt><trkpt lat="31.991032039927834" lon="-4.496710182557411"><ele>1137.0</ele><time>2026-04-27T08:15:32Z</time></trkpt><trkpt lat="31.99132780252364" lon="-4.496544425597527"><ele>1137.0</ele><time>2026-04-27T08:15:33Z</time></trkpt><trkpt lat="31.99161786950247" lon="-4.496372011780087"><ele>1135.5</ele><time>2026-04-27T08:15:34Z</time></trkpt><trkpt lat="31.99189952790603" lon="-4.496193579397466"><ele>1134.0</ele><time>2026-04-27T08:15:35Z</time></trkpt><trkpt lat="31.992175479159442" lon="-4.496015777758737"><ele>1134.0</ele><time>2026-04-27T08:15:36Z</time></trkpt><trkpt lat="31.992446569747433" lon="-4.495839537918789"><ele>1134.0</ele><time>2026-04-27T08:15:37Z</time></trkpt><trkpt lat="31.992713222309632" lon="-4.495662179693127"><ele>1137.5</ele><time>2026-04-27T08:15:38Z</time></trkpt><trkpt lat="31.992978889621437" lon="-4.495483735476504"><ele>1141.0</ele><time>2026-04-27T08:15:39Z</time></trkpt><trkpt lat="31.99324398796885" lon="-4.495308253378852"><ele>1144.0</ele><time>2026-04-27T08:15:40Z</time></trkpt><trkpt lat="31.993507372979792" lon="-4.495135071242802"><ele>1147.0</ele><time>2026-04-27T08:15:41Z</time></trkpt><trkpt lat="31.993770202097092" lon="-4.494960137690883"><ele>1147.0</ele><time>2026-04-27T08:15:42Z</time></trkpt><trkpt lat="31.99403276337444" lon="-4.494783958824118"><ele>1147.0</ele><time>2026-04-27T08:15:43Z</time></trkpt><trkpt lat="31.994297325534653" lon="-4.49460654023916"><ele>1144.0</ele><time>2026-04-27T08:15:44Z</time></trkpt><trkpt lat="31.99456567193213" lon="-4.4944311875309015"><ele>1141.0</ele><time>2026-04-27T08:15:45Z</time></trkpt><trkpt lat="31.994837313420152" lon="-4.4942545545636"><ele>1141.0</ele><time>2026-04-27T08:15:46Z</time></trkpt><trkpt lat="31.995109746885007" lon="-4.494075530546869"><ele>1141.0</ele><time>2026-04-27T08:15:47Z</time></trkpt><trkpt lat="31.995378908111796" lon="-4.493896807120232"><ele>1140.5</ele><time>2026-04-27T08:15:48Z</time></trkpt><trkpt lat="31.995649005246673" lon="-4.493718247491018"><ele>1140.0</ele><time>2026-04-27T08:15:49Z</time></trkpt><trkpt lat="31.995919704490326" lon="-4.493542953885157"><ele>1142.5</ele><time>2026-04-27T08:15:50Z</time></trkpt><trkpt lat="31.996186705584435" lon="-4.493371475813882"><ele>1145.0</ele><time>2026-04-27T08:15:51Z</time></trkpt><trkpt lat="31.996449781688504" lon="-4.4931958759721145"><ele>1148.0</ele><time>2026-04-27T08:15:52Z</time></trkpt><trkpt lat="31.996713701614986" lon="-4.493019388316533"><ele>1151.0</ele><time>2026-04-27T08:15:53Z</time></trkpt><trkpt lat="31.996978548811082" lon="-4.492844047155486"><ele>1151.5</ele><time>2026-04-27T08:15:54.001Z</time></trkpt><trkpt lat="31.997241594154108" lon="-4.492671806324075"><ele>1152.0</ele><time>2026-04-27T08:15:55.001Z</time></trkpt><trkpt lat="31.997508497141563" lon="-4.492497077587154"><ele>1154.5</ele><time>2026-04-27T08:15:56.001Z</time></trkpt><trkpt lat="31.99777465415684" lon="-4.4923224156578305"><ele>1157.0</ele><time>2026-04-27T08:15:57.001Z</time></trkpt><trkpt lat="31.99804018510692" lon="-4.49214592663461"><ele>1156.0</ele><time>2026-04-27T08:15:58.001Z</time></trkpt><trkpt lat="31.998305032630675" lon="-4.4919679817639375"><ele>1155.0</ele><time>2026-04-27T08:15:59.001Z</time></trkpt><trkpt lat="31.99857288476241" lon="-4.4917916365301345"><ele>1158.0</ele><time>2026-04-27T08:16:00.001Z</time></trkpt><trkpt lat="31.998840111744954" lon="-4.491615066793617"><ele>1161.0</ele><time>2026-04-27T08:16:01.001Z</time></trkpt><trkpt lat="31.999106981497306" lon="-4.4914355115359355"><ele>1164.0</ele><time>2026-04-27T08:16:02.001Z</time></trkpt><trkpt lat="31.999373837770285" lon="-4.491259039053468"><ele>1167.0</ele><time>2026-04-27T08:16:03.001Z</time></trkpt><trkpt lat="31.99964274578778" lon="-4.491082290419249"><ele>1167.0</ele><time>2026-04-27T08:16:04.001Z</time></trkpt><trkpt lat="31.999910800487456" lon="-4.490908058886836"><ele>1167.0</ele><time>2026-04-27T08:16:05.001Z</time></trkpt><trkpt lat="32.00017743871872" lon="-4.490731438533648"><ele>1167.0</ele><time>2026-04-27T08:16:06.001Z</time></trkpt><trkpt lat="32.000443956538064" lon="-4.4905532109728465"><ele>1167.0</ele><time>2026-04-27T08:16:07.001Z</time></trkpt><trkpt lat="32.00071232866802" lon="-4.4903763176937925"><ele>1166.0</ele><time>2026-04-27T08:16:08.001Z</time></trkpt><trkpt lat="32.000980850140984" lon="-4.490201539857222"><ele>1165.0</ele><time>2026-04-27T08:16:09.001Z</time></trkpt><trkpt lat="32.00124861511174" lon="-4.490027518512354"><ele>1165.0</ele><time>2026-04-27T08:16:10.001Z</time></trkpt><trkpt lat="32.001516203829404" lon="-4.48985263914032"><ele>1165.0</ele><time>2026-04-27T08:16:11.001Z</time></trkpt><trkpt lat="32.001780828152434" lon="-4.4896759588910715"><ele>1165.0</ele><time>2026-04-27T08:16:12.001Z</time></trkpt><trkpt lat="32.00204548258175" lon="-4.489497635891534"><ele>1165.0</ele><time>2026-04-27T08:16:13.001Z</time></trkpt><trkpt lat="32.00230956149854" lon="-4.489320373774993"><ele>1164.0</ele><time>2026-04-27T08:16:14.001Z</time></trkpt><trkpt lat="32.00257375817766" lon="-4.489144767984239"><ele>1163.0</ele><time>2026-04-27T08:16:15.001Z</time></trkpt><trkpt lat="32.002837705503325" lon="-4.488972050278178"><ele>1163.0</ele><time>2026-04-27T08:16:16.001Z</time></trkpt><trkpt lat="32.003100322222956" lon="-4.488799885975897"><ele>1163.0</ele><time>2026-04-27T08:16:17.001Z</time></trkpt><trkpt lat="32.00336441846136" lon="-4.488625087574061"><ele>1164.5</ele><time>2026-04-27T08:16:18.001Z</time></trkpt><trkpt lat="32.003627940334674" lon="-4.488449076225488"><ele>1166.0</ele><time>2026-04-27T08:16:19.001Z</time></trkpt><trkpt lat="32.00389014369704" lon="-4.488272754122903"><ele>1166.0</ele><time>2026-04-27T08:16:20.001Z</time></trkpt><trkpt lat="32.00415435815609" lon="-4.488097536124856"><ele>1166.0</ele><time>2026-04-27T08:16:21.001Z</time></trkpt><trkpt lat="32.004420770102975" lon="-4.4879222644031"><ele>1164.0</ele><time>2026-04-27T08:16:22.001Z</time></trkpt><trkpt lat="32.00468591742916" lon="-4.487747083019951"><ele>1162.0</ele><time>2026-04-27T08:16:23.001Z</time></trkpt><trkpt lat="32.00495179751653" lon="-4.48757193292216"><ele>1166.0</ele><time>2026-04-27T08:16:24.001Z</time></trkpt><trkpt lat="32.00521396334415" lon="-4.487398819126268"><ele>1170.0</ele><time>2026-04-27T08:16:25.001Z</time></trkpt><trkpt lat="32.00547602806411" lon="-4.487225062771753"><ele>1169.5</ele><time>2026-04-27T08:16:26.001Z</time></trkpt><trkpt lat="32.00574241488472" lon="-4.487051751324464"><ele>1169.0</ele><time>2026-04-27T08:16:27.001Z</time></trkpt><trkpt lat="32.00600898779678" lon="-4.486874837563272"><ele>1171.0</ele><time>2026-04-27T08:16:28.001Z</time></trkpt><trkpt lat="32.006276899037516" lon="-4.486697511601093"><ele>1173.0</ele><time>2026-04-27T08:16:29.001Z</time></trkpt><trkpt lat="32.006544041961796" lon="-4.486521357223205"><ele>1173.5</ele><time>2026-04-27T08:16:30.001Z</time></trkpt><trkpt lat="32.00681431222781" lon="-4.48634920339863"><ele>1174.0</ele><time>2026-04-27T08:16:31.001Z</time></trkpt><trkpt lat="32.00708267764829" lon="-4.486172022613334"><ele>1174.0</ele><time>2026-04-27T08:16:32.001Z</time></trkpt><trkpt lat="32.00734662873253" lon="-4.485995490868428"><ele>1174.0</ele><time>2026-04-27T08:16:33.001Z</time></trkpt><trkpt lat="32.007610594387984" lon="-4.485819611033546"><ele>1177.0</ele><time>2026-04-27T08:16:34.001Z</time></trkpt><trkpt lat="32.007875103970214" lon="-4.485646156651831"><ele>1180.0</ele><time>2026-04-27T08:16:35.001Z</time></trkpt><trkpt lat="32.00814312636959" lon="-4.485470330641598"><ele>1179.0</ele><time>2026-04-27T08:16:36.001Z</time></trkpt><trkpt lat="32.008413024174985" lon="-4.485289858293314"><ele>1178.0</ele><time>2026-04-27T08:16:37.001Z</time></trkpt><trkpt lat="32.00868610902385" lon="-4.4851058783021385"><ele>1178.0</ele><time>2026-04-27T08:16:38.001Z</time></trkpt><trkpt lat="32.00896264055771" lon="-4.484922158354376"><ele>1178.0</ele><time>2026-04-27T08:16:39.001Z</time></trkpt><trkpt lat="32.00924230049644" lon="-4.48473716173857"><ele>1175.5</ele><time>2026-04-27T08:16:40.001Z</time></trkpt><trkpt lat="32.00952394980567" lon="-4.484554160435785"><ele>1173.0</ele><time>2026-04-27T08:16:41.001Z</time></trkpt><trkpt lat="32.0098051470702" lon="-4.4843706420336815"><ele>1174.0</ele><time>2026-04-27T08:16:42.001Z</time></trkpt><trkpt lat="32.010083689038495" lon="-4.484185252053449"><ele>1175.0</ele><time>2026-04-27T08:16:43.001Z</time></trkpt><trkpt lat="32.0103567533157" lon="-4.484002032741303"><ele>1175.0</ele><time>2026-04-27T08:16:44.001Z</time></trkpt><trkpt lat="32.010628467902734" lon="-4.483821319333891"><ele>1175.0</ele><time>2026-04-27T08:16:45.001Z</time></trkpt><trkpt lat="32.010901049615455" lon="-4.483640275752631"><ele>1174.0</ele><time>2026-04-27T08:16:46.001Z</time></trkpt><trkpt lat="32.01116997148205" lon="-4.483461136146869"><ele>1173.0</ele><time>2026-04-27T08:16:47.001Z</time></trkpt><trkpt lat="32.01143385369984" lon="-4.483287220905491"><ele>1172.5</ele><time>2026-04-27T08:16:48.001Z</time></trkpt><trkpt lat="32.011696085632956" lon="-4.483115014163852"><ele>1172.0</ele><time>2026-04-27T08:16:49.001Z</time></trkpt><trkpt lat="32.01195566869357" lon="-4.482945023027089"><ele>1168.0</ele><time>2026-04-27T08:16:50.001Z</time></trkpt><trkpt lat="32.01220877692696" lon="-4.482777625263184"><ele>1164.0</ele><time>2026-04-27T08:16:51.001Z</time></trkpt><trkpt lat="32.01245588230138" lon="-4.482613512869574"><ele>1166.5</ele><time>2026-04-27T08:16:52.001Z</time></trkpt><trkpt lat="32.01269806969406" lon="-4.482452060763835"><ele>1169.0</ele><time>2026-04-27T08:16:53.001Z</time></trkpt><trkpt lat="32.01293487883535" lon="-4.482291658604866"><ele>1169.0</ele><time>2026-04-27T08:16:54.001Z</time></trkpt><trkpt lat="32.0131665868927" lon="-4.482136846609478"><ele>1169.0</ele><time>2026-04-27T08:16:55.001Z</time></trkpt><trkpt lat="32.01339663782064" lon="-4.481985556110331"><ele>1164.5</ele><time>2026-04-27T08:16:56.001Z</time></trkpt><trkpt lat="32.01362031169764" lon="-4.481839394730252"><ele>1160.0</ele><time>2026-04-27T08:16:57.001Z</time></trkpt><trkpt lat="32.0138255100391" lon="-4.481703979661559"><ele>1160.0</ele><time>2026-04-27T08:16:58.001Z</time></trkpt><trkpt lat="32.01401994237534" lon="-4.481576028057704"><ele>1160.0</ele><time>2026-04-27T08:16:59.001Z</time></trkpt><trkpt lat="32.01420992551974" lon="-4.4814529448184945"><ele>1160.0</ele><time>2026-04-27T08:17:00.001Z</time></trkpt><trkpt lat="32.014400419888126" lon="-4.4813346842801"><ele>1158.0</ele><time>2026-04-27T08:17:01.001Z</time></trkpt><trkpt lat="32.01458752846911" lon="-4.481227639070193"><ele>1156.0</ele><time>2026-04-27T08:17:02.001Z</time></trkpt><trkpt lat="32.014773445362785" lon="-4.481128896561952"><ele>1154.0</ele><time>2026-04-27T08:17:03.001Z</time></trkpt><trkpt lat="32.014954113682684" lon="-4.481040411197203"><ele>1154.0</ele><time>2026-04-27T08:17:04.001Z</time></trkpt><trkpt lat="32.01512558961144" lon="-4.4809595883036"><ele>1154.0</ele><time>2026-04-27T08:17:05.001Z</time></trkpt><trkpt lat="32.01529264929469" lon="-4.480884105849737"><ele>1154.0</ele><time>2026-04-27T08:17:06.001Z</time></trkpt><trkpt lat="32.01545517905257" lon="-4.480814386377769"><ele>1154.0</ele><time>2026-04-27T08:17:07.001Z</time></trkpt><trkpt lat="32.01561006398271" lon="-4.48074834596087"><ele>1154.0</ele><time>2026-04-27T08:17:08.001Z</time></trkpt><trkpt lat="32.015758297204165" lon="-4.480685608087313"><ele>1154.0</ele><time>2026-04-27T08:17:09.001Z</time></trkpt><trkpt lat="32.015899376358604" lon="-4.480626732823177"><ele>1154.0</ele><time>2026-04-27T08:17:10.001Z</time></trkpt><trkpt lat="32.016018129693045" lon="-4.480578029936003"><ele>1154.0</ele><time>2026-04-27T08:17:11.001Z</time></trkpt><trkpt lat="32.0161206443659" lon="-4.480537370403338"><ele>1154.0</ele><time>2026-04-27T08:17:12Z</time></trkpt><trkpt lat="32.01621159284191" lon="-4.480477882673854"><ele>1154.0</ele><time>2026-04-27T08:17:13Z</time></trkpt><trkpt lat="32.016312775874724" lon="-4.480430470353928"><ele>1154.0</ele><time>2026-04-27T08:17:14Z</time></trkpt><trkpt lat="32.01642966075798" lon="-4.480384302526343"><ele>1151.6666666666667</ele><time>2026-04-27T08:17:15Z</time></trkpt><trkpt lat="32.01656131914157" lon="-4.480329846753085"><ele>1149.3333333333333</ele><time>2026-04-27T08:17:16Z</time></trkpt><trkpt lat="32.01670672903736" lon="-4.480269327882906"><ele>1147.0</ele><time>2026-04-27T08:17:17Z</time></trkpt><trkpt lat="32.01685974085631" lon="-4.480205524473153"><ele>1146.6666666666665</ele><time>2026-04-27T08:17:18Z</time></trkpt><trkpt lat="32.0170184847937" lon="-4.480139567612857"><ele>1146.3333333333333</ele><time>2026-04-27T08:17:19Z</time></trkpt><trkpt lat="32.01718160559164" lon="-4.480071608235206"><ele>1146.0</ele><time>2026-04-27T08:17:20Z</time></trkpt><trkpt lat="32.017350383105736" lon="-4.480020260025156"><ele>1147.0</ele><time>2026-04-27T08:17:21Z</time></trkpt><trkpt lat="32.01751711597221" lon="-4.479949719339672"><ele>1148.0</ele><time>2026-04-27T08:17:22Z</time></trkpt><trkpt lat="32.017690984916285" lon="-4.4798787044573425"><ele>1149.0</ele><time>2026-04-27T08:17:23Z</time></trkpt><trkpt lat="32.01786784931139" lon="-4.479803127189759"><ele>1149.0</ele><time>2026-04-27T08:17:24Z</time></trkpt><trkpt lat="32.01804261849532" lon="-4.479728101253906"><ele>1149.0</ele><time>2026-04-27T08:17:25Z</time></trkpt><trkpt lat="32.01822317209394" lon="-4.479632749688981"><ele>1149.0</ele><time>2026-04-27T08:17:26Z</time></trkpt><trkpt lat="32.01841658829686" lon="-4.479549558127876"><ele>1148.6666666666667</ele><time>2026-04-27T08:17:27Z</time></trkpt><trkpt lat="32.01861759863171" lon="-4.479463734619339"><ele>1148.3333333333335</ele><time>2026-04-27T08:17:28Z</time></trkpt><trkpt lat="32.01882581084934" lon="-4.479374614789367"><ele>1148.0</ele><time>2026-04-27T08:17:29Z</time></trkpt><trkpt lat="32.01905134638563" lon="-4.479272928187957"><ele>1149.0</ele><time>2026-04-27T08:17:30Z</time></trkpt><trkpt lat="32.01929861355366" lon="-4.479170676644055"><ele>1150.0</ele><time>2026-04-27T08:17:31Z</time></trkpt><trkpt lat="32.01955652349292" lon="-4.479113528057591"><ele>1150.0</ele><time>2026-04-27T08:17:32Z</time></trkpt><trkpt lat="32.019792062970794" lon="-4.4790052815879955"><ele>1150.0</ele><time>2026-04-27T08:17:33Z</time></trkpt><trkpt lat="32.02002942140471" lon="-4.478898255793287"><ele>1149.5</ele><time>2026-04-27T08:17:34Z</time></trkpt><trkpt lat="32.020273605479034" lon="-4.478794008488616"><ele>1149.0</ele><time>2026-04-27T08:17:35Z</time></trkpt><trkpt lat="32.02051125561304" lon="-4.478695203824597"><ele>1149.0</ele><time>2026-04-27T08:17:36Z</time></trkpt><trkpt lat="32.020757559662506" lon="-4.478594131728891"><ele>1149.0</ele><time>2026-04-27T08:17:37Z</time></trkpt><trkpt lat="32.021015689813346" lon="-4.478490223999674"><ele>1149.5</ele><time>2026-04-27T08:17:38Z</time></trkpt><trkpt lat="32.021298784298" lon="-4.4783723600872"><ele>1150.0</ele><time>2026-04-27T08:17:39Z</time></trkpt><trkpt lat="32.02159641555347" lon="-4.478232448441283"><ele>1150.0</ele><time>2026-04-27T08:17:40Z</time></trkpt><trkpt lat="32.02187122498279" lon="-4.478104074712251"><ele>1150.0</ele><time>2026-04-27T08:17:41Z</time></trkpt><trkpt lat="32.02213019841277" lon="-4.477992363453739"><ele>1148.5</ele><time>2026-04-27T08:17:42Z</time></trkpt><trkpt lat="32.0223799781724" lon="-4.477882404310807"><ele>1147.0</ele><time>2026-04-27T08:17:43Z</time></trkpt><trkpt lat="32.022621551445084" lon="-4.477767974356186"><ele>1147.0</ele><time>2026-04-27T08:17:44Z</time></trkpt><trkpt lat="32.0228572661779" lon="-4.477647445585171"><ele>1147.0</ele><time>2026-04-27T08:17:45Z</time></trkpt><trkpt lat="32.023092050140576" lon="-4.4775167392690856"><ele>1147.0</ele><time>2026-04-27T08:17:46Z</time></trkpt><trkpt lat="32.02331843182411" lon="-4.477371638490261"><ele>1147.0</ele><time>2026-04-27T08:17:47Z</time></trkpt><trkpt lat="32.023540934238454" lon="-4.4772104260762955"><ele>1141.0</ele><time>2026-04-27T08:17:48Z</time></trkpt><trkpt lat="32.02375375511016" lon="-4.477019825692548"><ele>1135.0</ele><time>2026-04-27T08:17:49Z</time></trkpt><trkpt lat="32.023980384746864" lon="-4.476850277713144"><ele>1134.5</ele><time>2026-04-27T08:17:50Z</time></trkpt><trkpt lat="32.02418751305338" lon="-4.4766491266203845"><ele>1134.0</ele><time>2026-04-27T08:17:51Z</time></trkpt><trkpt lat="32.02438476749203" lon="-4.47643503116194"><ele>1132.5</ele><time>2026-04-27T08:17:52Z</time></trkpt><trkpt lat="32.024576750874076" lon="-4.476213553957108"><ele>1131.0</ele><time>2026-04-27T08:17:53Z</time></trkpt><trkpt lat="32.02476552883801" lon="-4.475981942451187"><ele>1131.0</ele><time>2026-04-27T08:17:54Z</time></trkpt><trkpt lat="32.02494358296136" lon="-4.475737171266307"><ele>1131.0</ele><time>2026-04-27T08:17:55Z</time></trkpt><trkpt lat="32.0251123029608" lon="-4.475477936499215"><ele>1131.5</ele><time>2026-04-27T08:17:56Z</time></trkpt><trkpt lat="32.025271809489396" lon="-4.475206137397063"><ele>1132.0</ele><time>2026-04-27T08:17:57Z</time></trkpt><trkpt lat="32.025422200453654" lon="-4.474926899979348"><ele>1132.0</ele><time>2026-04-27T08:17:58Z</time></trkpt><trkpt lat="32.02556109631251" lon="-4.474638319059794"><ele>1132.0</ele><time>2026-04-27T08:17:59.001Z</time></trkpt><trkpt lat="32.02568607484116" lon="-4.474341479411921"><ele>1130.5</ele><time>2026-04-27T08:18:00.001Z</time></trkpt><trkpt lat="32.02579901754915" lon="-4.474039940792365"><ele>1129.0</ele><time>2026-04-27T08:18:01.001Z</time></trkpt><trkpt lat="32.02589961666302" lon="-4.473737565308561"><ele>1134.5</ele><time>2026-04-27T08:18:02.001Z</time></trkpt><trkpt lat="32.02598696707656" lon="-4.4734316677072465"><ele>1140.0</ele><time>2026-04-27T08:18:03.001Z</time></trkpt><trkpt lat="32.02606428489266" lon="-4.473121035657543"><ele>1143.5</ele><time>2026-04-27T08:18:04.001Z</time></trkpt><trkpt lat="32.02612833595775" lon="-4.4728136328893235"><ele>1147.0</ele><time>2026-04-27T08:18:05.001Z</time></trkpt><trkpt lat="32.02617658193549" lon="-4.472515232364292"><ele>1147.0</ele><time>2026-04-27T08:18:06.001Z</time></trkpt><trkpt lat="32.02621180630826" lon="-4.472225947917734"><ele>1147.0</ele><time>2026-04-27T08:18:07.001Z</time></trkpt><trkpt lat="32.02623356099742" lon="-4.471946849193696"><ele>1146.6666666666665</ele><time>2026-04-27T08:18:08.001Z</time></trkpt><trkpt lat="32.02624330415196" lon="-4.471679642425538"><ele>1146.3333333333333</ele><time>2026-04-27T08:18:09.001Z</time></trkpt><trkpt lat="32.02624728604729" lon="-4.471418867884497"><ele>1146.0</ele><time>2026-04-27T08:18:10.001Z</time></trkpt><trkpt lat="32.02624401174589" lon="-4.471170903204313"><ele>1145.6666666666667</ele><time>2026-04-27T08:18:11.001Z</time></trkpt><trkpt lat="32.026234149108305" lon="-4.470933436783076"><ele>1145.3333333333335</ele><time>2026-04-27T08:18:12.001Z</time></trkpt><trkpt lat="32.02621648703319" lon="-4.470708401114325"><ele>1145.0</ele><time>2026-04-27T08:18:13.001Z</time></trkpt><trkpt lat="32.026192141955036" lon="-4.470492380791404"><ele>1144.3333333333335</ele><time>2026-04-27T08:18:14.001Z</time></trkpt><trkpt lat="32.02616285916302" lon="-4.470284346818255"><ele>1143.6666666666667</ele><time>2026-04-27T08:18:15.001Z</time></trkpt><trkpt lat="32.02613216159546" lon="-4.470088392291677"><ele>1143.0</ele><time>2026-04-27T08:18:16.001Z</time></trkpt><trkpt lat="32.026101715811684" lon="-4.469897245435845"><ele>1143.0</ele><time>2026-04-27T08:18:17.001Z</time></trkpt><trkpt lat="32.026070842936456" lon="-4.469711489661787"><ele>1143.0</ele><time>2026-04-27T08:18:18.001Z</time></trkpt><trkpt lat="32.02603198090837" lon="-4.46952848041542"><ele>1143.0</ele><time>2026-04-27T08:18:19.001Z</time></trkpt><trkpt lat="32.025986444519" lon="-4.469337555431575"><ele>1142.0</ele><time>2026-04-27T08:18:20.001Z</time></trkpt><trkpt lat="32.02594031711007" lon="-4.469136513216601"><ele>1141.0</ele><time>2026-04-27T08:18:21.001Z</time></trkpt><trkpt lat="32.025896606686004" lon="-4.468939732249665"><ele>1140.0</ele><time>2026-04-27T08:18:22.001Z</time></trkpt><trkpt lat="32.025855968828004" lon="-4.468759096776467"><ele>1140.0</ele><time>2026-04-27T08:18:23.001Z</time></trkpt><trkpt lat="32.02581437253568" lon="-4.46857992950278"><ele>1140.0</ele><time>2026-04-27T08:18:24.001Z</time></trkpt><trkpt lat="32.02577272769019" lon="-4.468372424751913"><ele>1140.0</ele><time>2026-04-27T08:18:25.001Z</time></trkpt><trkpt lat="32.025723763744374" lon="-4.46813256611533"><ele>1138.5</ele><time>2026-04-27T08:18:26.001Z</time></trkpt><trkpt lat="32.02566135965782" lon="-4.467868349690534"><ele>1137.0</ele><time>2026-04-27T08:18:27.001Z</time></trkpt><trkpt lat="32.02559044471353" lon="-4.467585332278315"><ele>1137.0</ele><time>2026-04-27T08:18:28.001Z</time></trkpt><trkpt lat="32.0255131353918" lon="-4.46728826241873"><ele>1137.0</ele><time>2026-04-27T08:18:29.001Z</time></trkpt><trkpt lat="32.025435288771895" lon="-4.466979081123969"><ele>1137.0</ele><time>2026-04-27T08:18:30.001Z</time></trkpt><trkpt lat="32.02536307895572" lon="-4.466677302363311"><ele>1137.0</ele><time>2026-04-27T08:18:31.001Z</time></trkpt><trkpt lat="32.02529433892029" lon="-4.466382795119448"><ele>1138.5</ele><time>2026-04-27T08:18:32.001Z</time></trkpt><trkpt lat="32.02523052280114" lon="-4.466099996304776"><ele>1140.0</ele><time>2026-04-27T08:18:33.001Z</time></trkpt><trkpt lat="32.025166662552486" lon="-4.465822906285"><ele>1140.0</ele><time>2026-04-27T08:18:34.001Z</time></trkpt><trkpt lat="32.02510292022536" lon="-4.46554884439151"><ele>1140.0</ele><time>2026-04-27T08:18:35.001Z</time></trkpt><trkpt lat="32.0250420169341" lon="-4.465280539343413"><ele>1140.5</ele><time>2026-04-27T08:18:36.001Z</time></trkpt><trkpt lat="32.02498634505337" lon="-4.465014954144152"><ele>1141.0</ele><time>2026-04-27T08:18:37.001Z</time></trkpt><trkpt lat="32.024931880827936" lon="-4.464741687192298"><ele>1144.0</ele><time>2026-04-27T08:18:38.001Z</time></trkpt><trkpt lat="32.02488756087218" lon="-4.464453896957638"><ele>1147.0</ele><time>2026-04-27T08:18:39.001Z</time></trkpt><trkpt lat="32.02485485236339" lon="-4.464160554707867"><ele>1147.0</ele><time>2026-04-27T08:18:40.001Z</time></trkpt><trkpt lat="32.0248310820952" lon="-4.463861405295077"><ele>1147.0</ele><time>2026-04-27T08:18:41.001Z</time></trkpt><trkpt lat="32.02482204289783" lon="-4.463564495239171"><ele>1148.0</ele><time>2026-04-27T08:18:42.001Z</time></trkpt><trkpt lat="32.024820069108344" lon="-4.463273876676088"><ele>1149.0</ele><time>2026-04-27T08:18:43.001Z</time></trkpt><trkpt lat="32.02482988242549" lon="-4.462994820333161"><ele>1149.5</ele><time>2026-04-27T08:18:44.001Z</time></trkpt><trkpt lat="32.02484816682787" lon="-4.462718204466055"><ele>1150.0</ele><time>2026-04-27T08:18:45.001Z</time></trkpt><trkpt lat="32.024880131539184" lon="-4.462432448112305"><ele>1150.0</ele><time>2026-04-27T08:18:46.001Z</time></trkpt><trkpt lat="32.02492752902764" lon="-4.462137348779123"><ele>1150.0</ele><time>2026-04-27T08:18:47.001Z</time></trkpt><trkpt lat="32.02498936459668" lon="-4.461836213819687"><ele>1152.5</ele><time>2026-04-27T08:18:48.001Z</time></trkpt><trkpt lat="32.025061321136945" lon="-4.461535528975624"><ele>1155.0</ele><time>2026-04-27T08:18:49.001Z</time></trkpt><trkpt lat="32.0251437931514" lon="-4.461232885436119"><ele>1155.0</ele><time>2026-04-27T08:18:50.001Z</time></trkpt><trkpt lat="32.025242932503716" lon="-4.4609352913422455"><ele>1155.0</ele><time>2026-04-27T08:18:51.001Z</time></trkpt><trkpt lat="32.025357214722206" lon="-4.460645308746195"><ele>1153.5</ele><time>2026-04-27T08:18:52.001Z</time></trkpt><trkpt lat="32.025484127002706" lon="-4.460358713243853"><ele>1152.0</ele><time>2026-04-27T08:18:53.001Z</time></trkpt><trkpt lat="32.02562340208403" lon="-4.460082427291324"><ele>1152.0</ele><time>2026-04-27T08:18:54.001Z</time></trkpt><trkpt lat="32.0257749925381" lon="-4.459811594786787"><ele>1152.0</ele><time>2026-04-27T08:18:55.001Z</time></trkpt><trkpt lat="32.02593584079356" lon="-4.459548525884784"><ele>1154.5</ele><time>2026-04-27T08:18:56.001Z</time></trkpt><trkpt lat="32.02610852280292" lon="-4.45929146599102"><ele>1157.0</ele><time>2026-04-27T08:18:57.001Z</time></trkpt><trkpt lat="32.02629246186441" lon="-4.4590447254080825"><ele>1157.0</ele><time>2026-04-27T08:18:58.001Z</time></trkpt><trkpt lat="32.026488176166765" lon="-4.458806785106099"><ele>1157.0</ele><time>2026-04-27T08:18:59.001Z</time></trkpt><trkpt lat="32.026695265243426" lon="-4.458584854011513"><ele>1159.5</ele><time>2026-04-27T08:19:00.001Z</time></trkpt><trkpt lat="32.02691210212742" lon="-4.4583850430972225"><ele>1162.0</ele><time>2026-04-27T08:19:01.001Z</time></trkpt><trkpt lat="32.027135005667304" lon="-4.458201199721134"><ele>1162.0</ele><time>2026-04-27T08:19:02.001Z</time></trkpt><trkpt lat="32.02736230753999" lon="-4.458030800987933"><ele>1162.0</ele><time>2026-04-27T08:19:03Z</time></trkpt><trkpt lat="32.02758912726278" lon="-4.457875410854436"><ele>1160.5</ele><time>2026-04-27T08:19:04Z</time></trkpt><trkpt lat="32.02781840645797" lon="-4.457726827157534"><ele>1159.0</ele><time>2026-04-27T08:19:05Z</time></trkpt><trkpt lat="32.02805283832668" lon="-4.4575837869251975"><ele>1159.0</ele><time>2026-04-27T08:19:06Z</time></trkpt><trkpt lat="32.028293783138594" lon="-4.457439536138166"><ele>1159.0</ele><time>2026-04-27T08:19:07Z</time></trkpt><trkpt lat="32.028542367832664" lon="-4.457288821737829"><ele>1162.0</ele><time>2026-04-27T08:19:08Z</time></trkpt><trkpt lat="32.02879273566288" lon="-4.457136529566061"><ele>1165.0</ele><time>2026-04-27T08:19:09Z</time></trkpt><trkpt lat="32.029038486968595" lon="-4.45698854637955"><ele>1159.0</ele><time>2026-04-27T08:19:10Z</time></trkpt><trkpt lat="32.02927988943029" lon="-4.456843270124778"><ele>1153.0</ele><time>2026-04-27T08:19:11Z</time></trkpt><trkpt lat="32.02951101807361" lon="-4.4567064070465445"><ele>1153.0</ele><time>2026-04-27T08:19:12Z</time></trkpt><trkpt lat="32.02973428369156" lon="-4.456572179384882"><ele>1153.0</ele><time>2026-04-27T08:19:13Z</time></trkpt><trkpt lat="32.02994576588999" lon="-4.456441252631391"><ele>1153.5</ele><time>2026-04-27T08:19:14Z</time></trkpt><trkpt lat="32.03015050859321" lon="-4.456304636986077"><ele>1154.0</ele><time>2026-04-27T08:19:15Z</time></trkpt><trkpt lat="32.03035266148707" lon="-4.456145515654983"><ele>1151.0</ele><time>2026-04-27T08:19:16Z</time></trkpt><trkpt lat="32.03054540976664" lon="-4.4559558423443155"><ele>1148.0</ele><time>2026-04-27T08:19:17Z</time></trkpt><trkpt lat="32.03072078290648" lon="-4.455739504887297"><ele>1150.0</ele><time>2026-04-27T08:19:18Z</time></trkpt><trkpt lat="32.0308771984642" lon="-4.455512031069179"><ele>1152.0</ele><time>2026-04-27T08:19:19Z</time></trkpt><trkpt lat="32.031017869513946" lon="-4.455273840128969"><ele>1152.0</ele><time>2026-04-27T08:19:20Z</time></trkpt><trkpt lat="32.03113926903035" lon="-4.455024439551355"><ele>1152.0</ele><time>2026-04-27T08:19:21Z</time></trkpt><trkpt lat="32.031242202762776" lon="-4.454766979343593"><ele>1149.5</ele><time>2026-04-27T08:19:22Z</time></trkpt><trkpt lat="32.031325250311106" lon="-4.4545015237005146"><ele>1147.0</ele><time>2026-04-27T08:19:23Z</time></trkpt><trkpt lat="32.031385718594805" lon="-4.454228507808701"><ele>1147.0</ele><time>2026-04-27T08:19:24Z</time></trkpt><trkpt lat="32.03142922904426" lon="-4.453952146678803"><ele>1147.0</ele><time>2026-04-27T08:19:25Z</time></trkpt><trkpt lat="32.03145676415191" lon="-4.453676844768961"><ele>1145.0</ele><time>2026-04-27T08:19:26Z</time></trkpt><trkpt lat="32.031467033242606" lon="-4.4533981714378115"><ele>1143.0</ele><time>2026-04-27T08:19:27Z</time></trkpt><trkpt lat="32.031458438402936" lon="-4.453122453584112"><ele>1143.0</ele><time>2026-04-27T08:19:28Z</time></trkpt><trkpt lat="32.0314303170242" lon="-4.4528477516364084"><ele>1143.0</ele><time>2026-04-27T08:19:29Z</time></trkpt><trkpt lat="32.03137538241101" lon="-4.452574795827756"><ele>1143.0</ele><time>2026-04-27T08:19:30Z</time></trkpt><trkpt lat="32.031288859707914" lon="-4.45230765587236"><ele>1143.0</ele><time>2026-04-27T08:19:31Z</time></trkpt><trkpt lat="32.031195654471205" lon="-4.452038944204907"><ele>1147.0</ele><time>2026-04-27T08:19:32Z</time></trkpt><trkpt lat="32.031081838582956" lon="-4.451773095098599"><ele>1151.0</ele><time>2026-04-27T08:19:33Z</time></trkpt><trkpt lat="32.03094109063772" lon="-4.451511437923455"><ele>1148.5</ele><time>2026-04-27T08:19:34Z</time></trkpt><trkpt lat="32.030775932956566" lon="-4.45126115250036"><ele>1146.0</ele><time>2026-04-27T08:19:35Z</time></trkpt><trkpt lat="32.030585775844095" lon="-4.4510334287925515"><ele>1146.0</ele><time>2026-04-27T08:19:36Z</time></trkpt><trkpt lat="32.03038038746542" lon="-4.450823586025191"><ele>1146.0</ele><time>2026-04-27T08:19:37Z</time></trkpt><trkpt lat="32.03016419066453" lon="-4.450621585818571"><ele>1148.5</ele><time>2026-04-27T08:19:38Z</time></trkpt><trkpt lat="32.02993622214356" lon="-4.450429942257804"><ele>1151.0</ele><time>2026-04-27T08:19:39Z</time></trkpt><trkpt lat="32.02970464114195" lon="-4.4502342632336305"><ele>1151.0</ele><time>2026-04-27T08:19:40Z</time></trkpt><trkpt lat="32.02948596190085" lon="-4.450042278484278"><ele>1151.0</ele><time>2026-04-27T08:19:41Z</time></trkpt><trkpt lat="32.02928226143984" lon="-4.44986409558296"><ele>1151.0</ele><time>2026-04-27T08:19:42Z</time></trkpt><trkpt lat="32.029090064797764" lon="-4.4496985111824845"><ele>1151.0</ele><time>2026-04-27T08:19:43Z</time></trkpt><trkpt lat="32.02890369167781" lon="-4.449539451898962"><ele>1156.3333333333335</ele><time>2026-04-27T08:19:44Z</time></trkpt><trkpt lat="32.02872753860014" lon="-4.449382204506896"><ele>1161.6666666666667</ele><time>2026-04-27T08:19:45Z</time></trkpt><trkpt lat="32.02856013582684" lon="-4.4492210271804575"><ele>1167.0</ele><time>2026-04-27T08:19:46Z</time></trkpt><trkpt lat="32.02839624590817" lon="-4.4490492661174486"><ele>1166.3333333333333</ele><time>2026-04-27T08:19:47Z</time></trkpt><trkpt lat="32.02824352176248" lon="-4.448867875929148"><ele>1165.6666666666665</ele><time>2026-04-27T08:19:48Z</time></trkpt><trkpt lat="32.028103799507036" lon="-4.448678511762221"><ele>1165.0</ele><time>2026-04-27T08:19:49Z</time></trkpt><trkpt lat="32.0279751409682" lon="-4.448485827701664"><ele>1165.0</ele><time>2026-04-27T08:19:50Z</time></trkpt><trkpt lat="32.027861139383134" lon="-4.448294347310929"><ele>1165.0</ele><time>2026-04-27T08:19:51Z</time></trkpt><trkpt lat="32.02776208344947" lon="-4.448102267106997"><ele>1165.0</ele><time>2026-04-27T08:19:52Z</time></trkpt><trkpt lat="32.0276714213563" lon="-4.4479005275595895"><ele>1163.6666666666665</ele><time>2026-04-27T08:19:53Z</time></trkpt><trkpt lat="32.02759073361117" lon="-4.447690554817104"><ele>1162.3333333333333</ele><time>2026-04-27T08:19:54Z</time></trkpt><trkpt lat="32.02751460017936" lon="-4.447471754246239"><ele>1161.0</ele><time>2026-04-27T08:19:55Z</time></trkpt><trkpt lat="32.02744926552898" lon="-4.447251525502124"><ele>1157.3333333333333</ele><time>2026-04-27T08:19:56Z</time></trkpt><trkpt lat="32.02739512345689" lon="-4.447030135829149"><ele>1153.6666666666665</ele><time>2026-04-27T08:19:57Z</time></trkpt><trkpt lat="32.027356635609394" lon="-4.446811842568337"><ele>1150.0</ele><time>2026-04-27T08:19:58Z</time></trkpt><trkpt lat="32.027323152428394" lon="-4.446593082210802"><ele>1150.0</ele><time>2026-04-27T08:19:59Z</time></trkpt><trkpt lat="32.02729712287089" lon="-4.446370418967508"><ele>1150.0</ele><time>2026-04-27T08:20:00Z</time></trkpt><trkpt lat="32.02728539503923" lon="-4.446138122568505"><ele>1150.0</ele><time>2026-04-27T08:20:01Z</time></trkpt><trkpt lat="32.02728879825421" lon="-4.445897657237488"><ele>1150.6666666666665</ele><time>2026-04-27T08:20:02Z</time></trkpt><trkpt lat="32.027300275682926" lon="-4.445647748001398"><ele>1151.3333333333333</ele><time>2026-04-27T08:20:03Z</time></trkpt><trkpt lat="32.02732194838611" lon="-4.445380557122446"><ele>1152.0</ele><time>2026-04-27T08:20:04Z</time></trkpt><trkpt lat="32.02735581772051" lon="-4.445096676002182"><ele>1152.0</ele><time>2026-04-27T08:20:05.001Z</time></trkpt><trkpt lat="32.027406098160064" lon="-4.444789598327764"><ele>1152.0</ele><time>2026-04-27T08:20:06.001Z</time></trkpt><trkpt lat="32.027464182576395" lon="-4.444459869736944"><ele>1153.0</ele><time>2026-04-27T08:20:07.001Z</time></trkpt><trkpt lat="32.02751634162279" lon="-4.444121389860039"><ele>1154.0</ele><time>2026-04-27T08:20:08.001Z</time></trkpt><trkpt lat="32.02757508796558" lon="-4.443771584122509"><ele>1154.0</ele><time>2026-04-27T08:20:09.001Z</time></trkpt><trkpt lat="32.02763907976384" lon="-4.443394170636705"><ele>1154.0</ele><time>2026-04-27T08:20:10.001Z</time></trkpt><trkpt lat="32.027697366001206" lon="-4.442998660045092"><ele>1153.5</ele><time>2026-04-27T08:20:11.001Z</time></trkpt><trkpt lat="32.027747825029834" lon="-4.442617580476434"><ele>1153.0</ele><time>2026-04-27T08:20:12.001Z</time></trkpt><trkpt lat="32.027794807429196" lon="-4.4422523457574545"><ele>1150.0</ele><time>2026-04-27T08:20:13.001Z</time></trkpt><trkpt lat="32.02784273540106" lon="-4.441899276868637"><ele>1147.0</ele><time>2026-04-27T08:20:14.001Z</time></trkpt><trkpt lat="32.027893070505954" lon="-4.441555370053089"><ele>1147.5</ele><time>2026-04-27T08:20:15.001Z</time></trkpt><trkpt lat="32.02794274172466" lon="-4.441211942537809"><ele>1148.0</ele><time>2026-04-27T08:20:16.001Z</time></trkpt><trkpt lat="32.02799286997394" lon="-4.440859468148998"><ele>1148.0</ele><time>2026-04-27T08:20:17.001Z</time></trkpt><trkpt lat="32.028043587347646" lon="-4.440504476586609"><ele>1148.0</ele><time>2026-04-27T08:20:18.001Z</time></trkpt><trkpt lat="32.02809386639515" lon="-4.440157359899865"><ele>1148.0</ele><time>2026-04-27T08:20:19.001Z</time></trkpt><trkpt lat="32.02814522016777" lon="-4.439814232253964"><ele>1148.0</ele><time>2026-04-27T08:20:20.001Z</time></trkpt><trkpt lat="32.02819635204111" lon="-4.439475894814972"><ele>1145.5</ele><time>2026-04-27T08:20:21.001Z</time></trkpt><trkpt lat="32.02824776615901" lon="-4.43913555889062"><ele>1143.0</ele><time>2026-04-27T08:20:22.001Z</time></trkpt><trkpt lat="32.028297012920824" lon="-4.438796885383012"><ele>1144.0</ele><time>2026-04-27T08:20:23.001Z</time></trkpt><trkpt lat="32.02834648441938" lon="-4.438461720085604"><ele>1145.0</ele><time>2026-04-27T08:20:24.001Z</time></trkpt><trkpt lat="32.0283960429165" lon="-4.438125033392944"><ele>1143.0</ele><time>2026-04-27T08:20:25.001Z</time></trkpt><trkpt lat="32.028446369869535" lon="-4.437786131567771"><ele>1141.0</ele><time>2026-04-27T08:20:26.001Z</time></trkpt><trkpt lat="32.02849388777623" lon="-4.437447681774804"><ele>1143.0</ele><time>2026-04-27T08:20:27.001Z</time></trkpt><trkpt lat="32.02854292290326" lon="-4.437110689101526"><ele>1145.0</ele><time>2026-04-27T08:20:28.001Z</time></trkpt><trkpt lat="32.028593648943314" lon="-4.4367795760365185"><ele>1145.0</ele><time>2026-04-27T08:20:29.001Z</time></trkpt><trkpt lat="32.0286437520275" lon="-4.4364505417777025"><ele>1145.0</ele><time>2026-04-27T08:20:30.001Z</time></trkpt><trkpt lat="32.028692960414546" lon="-4.436118325723101"><ele>1147.0</ele><time>2026-04-27T08:20:31.001Z</time></trkpt><trkpt lat="32.02874153490702" lon="-4.435781608501687"><ele>1149.0</ele><time>2026-04-27T08:20:32.001Z</time></trkpt><trkpt lat="32.028790080064766" lon="-4.435444335254334"><ele>1150.5</ele><time>2026-04-27T08:20:33.001Z</time></trkpt><trkpt lat="32.02884126129913" lon="-4.435107939293733"><ele>1152.0</ele><time>2026-04-27T08:20:34.001Z</time></trkpt><trkpt lat="32.028892033923285" lon="-4.434772129196307"><ele>1152.0</ele><time>2026-04-27T08:20:35.001Z</time></trkpt><trkpt lat="32.02894148193516" lon="-4.434436089640871"><ele>1152.0</ele><time>2026-04-27T08:20:36.001Z</time></trkpt><trkpt lat="32.028989376227656" lon="-4.434096659484818"><ele>1152.0</ele><time>2026-04-27T08:20:37.001Z</time></trkpt><trkpt lat="32.02903458568859" lon="-4.433780122259517"><ele>1152.0</ele><time>2026-04-27T08:20:38.001Z</time></trkpt><trkpt lat="32.02907982122532" lon="-4.43346901604008"><ele>1152.0</ele><time>2026-04-27T08:20:39.001Z</time></trkpt><trkpt lat="32.0291241436145" lon="-4.433162136448151"><ele>1152.0</ele><time>2026-04-27T08:20:40.001Z</time></trkpt><trkpt lat="32.029166030731986" lon="-4.432863363311802"><ele>1156.0</ele><time>2026-04-27T08:20:41.001Z</time></trkpt><trkpt lat="32.029208632213816" lon="-4.432567418668751"><ele>1160.0</ele><time>2026-04-27T08:20:42.001Z</time></trkpt><trkpt lat="32.02925766245412" lon="-4.432274159461477"><ele>1159.5</ele><time>2026-04-27T08:20:43.001Z</time></trkpt><trkpt lat="32.02932218356395" lon="-4.431979893133216"><ele>1159.0</ele><time>2026-04-27T08:20:44.001Z</time></trkpt><trkpt lat="32.029404149367004" lon="-4.431682896604488"><ele>1159.0</ele><time>2026-04-27T08:20:45.001Z</time></trkpt><trkpt lat="32.02949957369734" lon="-4.4313825516720895"><ele>1159.0</ele><time>2026-04-27T08:20:46.001Z</time></trkpt><trkpt lat="32.02961024533187" lon="-4.431080817046567"><ele>1157.5</ele><time>2026-04-27T08:20:47.001Z</time></trkpt><trkpt lat="32.02973455381739" lon="-4.430792578052916"><ele>1156.0</ele><time>2026-04-27T08:20:48.001Z</time></trkpt><trkpt lat="32.02987713402583" lon="-4.430488880562993"><ele>1156.5</ele><time>2026-04-27T08:20:49.001Z</time></trkpt><trkpt lat="32.03003052817951" lon="-4.430215434079528"><ele>1157.0</ele><time>2026-04-27T08:20:50.001Z</time></trkpt><trkpt lat="32.03019462431136" lon="-4.429962610641412"><ele>1157.0</ele><time>2026-04-27T08:20:51.001Z</time></trkpt><trkpt lat="32.03036553915518" lon="-4.429727363843315"><ele>1157.0</ele><time>2026-04-27T08:20:52Z</time></trkpt><trkpt lat="32.03053937854337" lon="-4.429507505194507"><ele>1156.0</ele><time>2026-04-27T08:20:53Z</time></trkpt><trkpt lat="32.03071330863352" lon="-4.4293104128268075"><ele>1155.0</ele><time>2026-04-27T08:20:54Z</time></trkpt><trkpt lat="32.03088614043204" lon="-4.429132903515182"><ele>1156.3333333333333</ele><time>2026-04-27T08:20:55Z</time></trkpt><trkpt lat="32.03105765493106" lon="-4.428972412938382"><ele>1157.6666666666665</ele><time>2026-04-27T08:20:56Z</time></trkpt><trkpt lat="32.03123438241063" lon="-4.4288220388523625"><ele>1159.0</ele><time>2026-04-27T08:20:57Z</time></trkpt><trkpt lat="32.03140908942131" lon="-4.428685823070921"><ele>1159.0</ele><time>2026-04-27T08:20:58Z</time></trkpt><trkpt lat="32.03158271655947" lon="-4.428563473040815"><ele>1159.0</ele><time>2026-04-27T08:20:59Z</time></trkpt><trkpt lat="32.03175691250909" lon="-4.428452692993732"><ele>1159.0</ele><time>2026-04-27T08:21:00Z</time></trkpt><trkpt lat="32.03192794256314" lon="-4.428350182997761"><ele>1160.3333333333333</ele><time>2026-04-27T08:21:01Z</time></trkpt><trkpt lat="32.03209787471387" lon="-4.428255409197858"><ele>1161.6666666666667</ele><time>2026-04-27T08:21:02Z</time></trkpt><trkpt lat="32.03226873413449" lon="-4.428171534849614"><ele>1163.0</ele><time>2026-04-27T08:21:03Z</time></trkpt><trkpt lat="32.03244943643642" lon="-4.428097650830261"><ele>1162.3333333333335</ele><time>2026-04-27T08:21:04Z</time></trkpt><trkpt lat="32.03263917397053" lon="-4.428028455408133"><ele>1161.6666666666667</ele><time>2026-04-27T08:21:05Z</time></trkpt><trkpt lat="32.03283799522314" lon="-4.427962317704007"><ele>1161.0</ele><time>2026-04-27T08:21:06Z</time></trkpt><trkpt lat="32.03304434021151" lon="-4.42790480460711"><ele>1161.0</ele><time>2026-04-27T08:21:07Z</time></trkpt><trkpt lat="32.033258984143394" lon="-4.427862955700827"><ele>1161.0</ele><time>2026-04-27T08:21:08Z</time></trkpt><trkpt lat="32.03347984647557" lon="-4.427830871046826"><ele>1161.0</ele><time>2026-04-27T08:21:09Z</time></trkpt><trkpt lat="32.03370210424339" lon="-4.427794216948789"><ele>1162.3333333333333</ele><time>2026-04-27T08:21:10Z</time></trkpt><trkpt lat="32.03392306015361" lon="-4.427742635564295"><ele>1163.6666666666665</ele><time>2026-04-27T08:21:11Z</time></trkpt><trkpt lat="32.03413568475851" lon="-4.427672131545155"><ele>1165.0</ele><time>2026-04-27T08:21:12Z</time></trkpt><trkpt lat="32.034338852760776" lon="-4.42757892881385"><ele>1165.3333333333333</ele><time>2026-04-27T08:21:13Z</time></trkpt><trkpt lat="32.03453680409292" lon="-4.427470380547913"><ele>1165.6666666666667</ele><time>2026-04-27T08:21:14Z</time></trkpt><trkpt lat="32.03473102114241" lon="-4.427350748464999"><ele>1166.0</ele><time>2026-04-27T08:21:15Z</time></trkpt><trkpt lat="32.03491452597835" lon="-4.4272222747575825"><ele>1167.6666666666667</ele><time>2026-04-27T08:21:16Z</time></trkpt><trkpt lat="32.03508213366706" lon="-4.427080406309325"><ele>1169.3333333333333</ele><time>2026-04-27T08:21:17Z</time></trkpt><trkpt lat="32.03524122335253" lon="-4.426924093537812"><ele>1171.0</ele><time>2026-04-27T08:21:18Z</time></trkpt><trkpt lat="32.0353972861742" lon="-4.426753515109057"><ele>1171.0</ele><time>2026-04-27T08:21:19Z</time></trkpt><trkpt lat="32.035558921349384" lon="-4.426555399240329"><ele>1171.0</ele><time>2026-04-27T08:21:20Z</time></trkpt><trkpt lat="32.03571842350758" lon="-4.42632781031843"><ele>1175.5</ele><time>2026-04-27T08:21:21Z</time></trkpt><trkpt lat="32.035861157086664" lon="-4.426076254724201"><ele>1180.0</ele><time>2026-04-27T08:21:22Z</time></trkpt><trkpt lat="32.03599773799339" lon="-4.425819116899401"><ele>1180.0</ele><time>2026-04-27T08:21:23Z</time></trkpt><trkpt lat="32.03614200081622" lon="-4.425575371128583"><ele>1180.0</ele><time>2026-04-27T08:21:24Z</time></trkpt><trkpt lat="32.036290127327014" lon="-4.425339452598329"><ele>1180.0</ele><time>2026-04-27T08:21:25Z</time></trkpt><trkpt lat="32.03644937857456" lon="-4.4251046815609865"><ele>1180.0</ele><time>2026-04-27T08:21:26Z</time></trkpt><trkpt lat="32.03662395601714" lon="-4.424884046378553"><ele>1182.0</ele><time>2026-04-27T08:21:27Z</time></trkpt><trkpt lat="32.03681489669733" lon="-4.424681505284234"><ele>1184.0</ele><time>2026-04-27T08:21:28Z</time></trkpt><trkpt lat="32.03701926999293" lon="-4.424503096588867"><ele>1184.0</ele><time>2026-04-27T08:21:29Z</time></trkpt><trkpt lat="32.03724026575621" lon="-4.424346293782291"><ele>1184.0</ele><time>2026-04-27T08:21:30Z</time></trkpt><trkpt lat="32.037473368792384" lon="-4.4242068954942315"><ele>1187.5</ele><time>2026-04-27T08:21:31Z</time></trkpt><trkpt lat="32.037712507661766" lon="-4.42407306754609"><ele>1191.0</ele><time>2026-04-27T08:21:32Z</time></trkpt><trkpt lat="32.037959600691984" lon="-4.423936904850868"><ele>1190.0</ele><time>2026-04-27T08:21:33Z</time></trkpt><trkpt lat="32.03821260120958" lon="-4.423797368301471"><ele>1189.0</ele><time>2026-04-27T08:21:34Z</time></trkpt><trkpt lat="32.03846627630377" lon="-4.423661479068642"><ele>1193.0</ele><time>2026-04-27T08:21:35Z</time></trkpt><trkpt lat="32.0387125534939" lon="-4.423527850184695"><ele>1197.0</ele><time>2026-04-27T08:21:36Z</time></trkpt><trkpt lat="32.038941209372375" lon="-4.42339768259345"><ele>1199.0</ele><time>2026-04-27T08:21:37Z</time></trkpt><trkpt lat="32.03914264596113" lon="-4.423269516846304"><ele>1201.0</ele><time>2026-04-27T08:21:38Z</time></trkpt><trkpt lat="32.039323604768825" lon="-4.423124108437066"><ele>1203.0</ele><time>2026-04-27T08:21:39Z</time></trkpt><trkpt lat="32.039490933749946" lon="-4.422952964072645"><ele>1195.5</ele><time>2026-04-27T08:21:40Z</time></trkpt><trkpt lat="32.039652776229474" lon="-4.422754853858316"><ele>1188.0</ele><time>2026-04-27T08:21:41Z</time></trkpt><trkpt lat="32.03979681387394" lon="-4.422528101959915"><ele>1188.0</ele><time>2026-04-27T08:21:42Z</time></trkpt><trkpt lat="32.03992565900025" lon="-4.422278443303499"><ele>1188.0</ele><time>2026-04-27T08:21:43Z</time></trkpt><trkpt lat="32.04003830065368" lon="-4.4220131390635995"><ele>1190.5</ele><time>2026-04-27T08:21:44Z</time></trkpt><trkpt lat="32.04012308816519" lon="-4.421730582043249"><ele>1193.0</ele><time>2026-04-27T08:21:45Z</time></trkpt><trkpt lat="32.040182443283854" lon="-4.4214349789361975"><ele>1195.0</ele><time>2026-04-27T08:21:46Z</time></trkpt><trkpt lat="32.040227995280354" lon="-4.421128073590112"><ele>1197.0</ele><time>2026-04-27T08:21:47Z</time></trkpt><trkpt lat="32.0402743553728" lon="-4.4208238628656"><ele>1197.0</ele><time>2026-04-27T08:21:48Z</time></trkpt><trkpt lat="32.04032430742924" lon="-4.420530637762545"><ele>1197.0</ele><time>2026-04-27T08:21:49Z</time></trkpt><trkpt lat="32.040379351934384" lon="-4.4202473690646595"><ele>1200.0</ele><time>2026-04-27T08:21:50Z</time></trkpt><trkpt lat="32.040442955151214" lon="-4.419972688900987"><ele>1203.0</ele><time>2026-04-27T08:21:51Z</time></trkpt><trkpt lat="32.04052881622805" lon="-4.419710909119855"><ele>1203.0</ele><time>2026-04-27T08:21:52Z</time></trkpt><trkpt lat="32.040641389941996" lon="-4.4194520196936855"><ele>1203.0</ele><time>2026-04-27T08:21:53Z</time></trkpt><trkpt lat="32.0407722098063" lon="-4.4192029058603906"><ele>1206.0</ele><time>2026-04-27T08:21:54Z</time></trkpt><trkpt lat="32.04091568407883" lon="-4.418974077045639"><ele>1209.0</ele><time>2026-04-27T08:21:55Z</time></trkpt><trkpt lat="32.04107122535789" lon="-4.418762403364495"><ele>1209.0</ele><time>2026-04-27T08:21:56Z</time></trkpt><trkpt lat="32.041238047668536" lon="-4.418570974364367"><ele>1209.0</ele><time>2026-04-27T08:21:57Z</time></trkpt><trkpt lat="32.04142084542932" lon="-4.418390672306334"><ele>1209.0</ele><time>2026-04-27T08:21:58Z</time></trkpt><trkpt lat="32.04162149483778" lon="-4.418210507658099"><ele>1209.0</ele><time>2026-04-27T08:21:59Z</time></trkpt><trkpt lat="32.04183411126409" lon="-4.4180294434004495"><ele>1210.5</ele><time>2026-04-27T08:22:00Z</time></trkpt><trkpt lat="32.042048256102916" lon="-4.417847339663539"><ele>1212.0</ele><time>2026-04-27T08:22:01Z</time></trkpt><trkpt lat="32.04226039895101" lon="-4.417656023788135"><ele>1217.5</ele><time>2026-04-27T08:22:02Z</time></trkpt><trkpt lat="32.04247031481549" lon="-4.417464552398902"><ele>1223.0</ele><time>2026-04-27T08:22:03Z</time></trkpt><trkpt lat="32.04267913079063" lon="-4.41728142113102"><ele>1223.0</ele><time>2026-04-27T08:22:04Z</time></trkpt><trkpt lat="32.04288492450378" lon="-4.4170942277319325"><ele>1223.0</ele><time>2026-04-27T08:22:05Z</time></trkpt><trkpt lat="32.04307757488978" lon="-4.4168785293500745"><ele>1223.0</ele><time>2026-04-27T08:22:06Z</time></trkpt><trkpt lat="32.04325287149216" lon="-4.416633218777223"><ele>1223.0</ele><time>2026-04-27T08:22:07Z</time></trkpt><trkpt lat="32.043408243568216" lon="-4.416354735715421"><ele>1227.0</ele><time>2026-04-27T08:22:08Z</time></trkpt><trkpt lat="32.0435503086533" lon="-4.416055004150672"><ele>1231.0</ele><time>2026-04-27T08:22:09Z</time></trkpt><trkpt lat="32.04369573767818" lon="-4.4157485052504235"><ele>1229.0</ele><time>2026-04-27T08:22:10Z</time></trkpt><trkpt lat="32.04384697862592" lon="-4.415441104189791"><ele>1227.0</ele><time>2026-04-27T08:22:11.001Z</time></trkpt><trkpt lat="32.04400077392436" lon="-4.415132186632482"><ele>1236.0</ele><time>2026-04-27T08:22:12.001Z</time></trkpt><trkpt lat="32.044158215340445" lon="-4.414815420273537"><ele>1245.0</ele><time>2026-04-27T08:22:13.001Z</time></trkpt><trkpt lat="32.04432106664656" lon="-4.414494606288568"><ele>1245.0</ele><time>2026-04-27T08:22:14.001Z</time></trkpt><trkpt lat="32.04449103203214" lon="-4.41415924431195"><ele>1245.0</ele><time>2026-04-27T08:22:15.001Z</time></trkpt><trkpt lat="32.044664050036104" lon="-4.413819015250175"><ele>1242.5</ele><time>2026-04-27T08:22:16.001Z</time></trkpt><trkpt lat="32.0448334828691" lon="-4.413487755971058"><ele>1240.0</ele><time>2026-04-27T08:22:17.001Z</time></trkpt><trkpt lat="32.04500432997353" lon="-4.4131538272540185"><ele>1248.5</ele><time>2026-04-27T08:22:18.001Z</time></trkpt><trkpt lat="32.04518287532543" lon="-4.412802268259665"><ele>1257.0</ele><time>2026-04-27T08:22:19.001Z</time></trkpt><trkpt lat="32.04535717597728" lon="-4.412443312892531"><ele>1254.5</ele><time>2026-04-27T08:22:20.001Z</time></trkpt><trkpt lat="32.04551458287395" lon="-4.4121036405490495"><ele>1252.0</ele><time>2026-04-27T08:22:21.001Z</time></trkpt><trkpt lat="32.04566078559216" lon="-4.41178452171102"><ele>1261.0</ele><time>2026-04-27T08:22:22.001Z</time></trkpt><trkpt lat="32.045802840913794" lon="-4.411483837178675"><ele>1270.0</ele><time>2026-04-27T08:22:23.001Z</time></trkpt><trkpt lat="32.04594180270965" lon="-4.411204298343011"><ele>1270.0</ele><time>2026-04-27T08:22:24.001Z</time></trkpt><trkpt lat="32.04608430478283" lon="-4.410946898043801"><ele>1270.0</ele><time>2026-04-27T08:22:25.001Z</time></trkpt><trkpt lat="32.046225119233384" lon="-4.410717968731001"><ele>1270.0</ele><time>2026-04-27T08:22:26.001Z</time></trkpt><trkpt lat="32.046362210407715" lon="-4.410510295044627"><ele>1270.0</ele><time>2026-04-27T08:22:27.001Z</time></trkpt><trkpt lat="32.046486489261106" lon="-4.410331980450878"><ele>1270.0</ele><time>2026-04-27T08:22:28.001Z</time></trkpt><trkpt lat="32.04659935278855" lon="-4.410178565035475"><ele>1277.6666666666665</ele><time>2026-04-27T08:22:29.001Z</time></trkpt><trkpt lat="32.04669969990636" lon="-4.410041967237407"><ele>1285.3333333333333</ele><time>2026-04-27T08:22:30.001Z</time></trkpt><trkpt lat="32.04680368640927" lon="-4.40990572404022"><ele>1293.0</ele><time>2026-04-27T08:22:31.001Z</time></trkpt><trkpt lat="32.04690663789631" lon="-4.409749016784856"><ele>1288.6666666666667</ele><time>2026-04-27T08:22:32.001Z</time></trkpt><trkpt lat="32.046992187369646" lon="-4.409563340462971"><ele>1284.3333333333335</ele><time>2026-04-27T08:22:33.001Z</time></trkpt><trkpt lat="32.047059571157696" lon="-4.409351421357057"><ele>1280.0</ele><time>2026-04-27T08:22:34.001Z</time></trkpt><trkpt lat="32.047101528847946" lon="-4.409115828648566"><ele>1280.0</ele><time>2026-04-27T08:22:35.001Z</time></trkpt><trkpt lat="32.04711985741127" lon="-4.408857725736765"><ele>1280.0</ele><time>2026-04-27T08:22:36.001Z</time></trkpt><trkpt lat="32.047118724205795" lon="-4.4085898560543715"><ele>1280.0</ele><time>2026-04-27T08:22:37.001Z</time></trkpt><trkpt lat="32.047096732106624" lon="-4.408309783721253"><ele>1284.5</ele><time>2026-04-27T08:22:38.001Z</time></trkpt><trkpt lat="32.04705582312189" lon="-4.408015766051607"><ele>1289.0</ele><time>2026-04-27T08:22:39.001Z</time></trkpt><trkpt lat="32.04700298460569" lon="-4.407708713252833"><ele>1293.0</ele><time>2026-04-27T08:22:40.001Z</time></trkpt><trkpt lat="32.04695515724307" lon="-4.407390192320035"><ele>1297.0</ele><time>2026-04-27T08:22:41.001Z</time></trkpt><trkpt lat="32.046911142492924" lon="-4.407057660582803"><ele>1301.0</ele><time>2026-04-27T08:22:42.001Z</time></trkpt><trkpt lat="32.046864471866584" lon="-4.406707823676803"><ele>1305.0</ele><time>2026-04-27T08:22:43.001Z</time></trkpt><trkpt lat="32.04681657176577" lon="-4.406352019554087"><ele>1309.0</ele><time>2026-04-27T08:22:44Z</time></trkpt><trkpt lat="32.046769770203376" lon="-4.40599733881186"><ele>1313.0</ele><time>2026-04-27T08:22:45Z</time></trkpt><trkpt lat="32.04672613607172" lon="-4.405662015543821"><ele>1316.5</ele><time>2026-04-27T08:22:46Z</time></trkpt><trkpt lat="32.04668540486701" lon="-4.405351614889725"><ele>1320.0</ele><time>2026-04-27T08:22:47Z</time></trkpt><trkpt lat="32.04664784283122" lon="-4.405063909806342"><ele>1317.0</ele><time>2026-04-27T08:22:48Z</time></trkpt><trkpt lat="32.04661372816942" lon="-4.404791547634449"><ele>1314.0</ele><time>2026-04-27T08:22:49Z</time></trkpt><trkpt lat="32.04658642331756" lon="-4.404519215457307"><ele>1314.0</ele><time>2026-04-27T08:22:50Z</time></trkpt><trkpt lat="32.04657605238409" lon="-4.4042536692037215"><ele>1314.0</ele><time>2026-04-27T08:22:51Z</time></trkpt><trkpt lat="32.04658505553831" lon="-4.404002172231068"><ele>1314.0</ele><time>2026-04-27T08:22:52Z</time></trkpt><trkpt lat="32.04661443079566" lon="-4.403768130138774"><ele>1317.6666666666667</ele><time>2026-04-27T08:22:53Z</time></trkpt><trkpt lat="32.046670299645236" lon="-4.4035568395772104"><ele>1321.3333333333335</ele><time>2026-04-27T08:22:54Z</time></trkpt><trkpt lat="32.04675446395421" lon="-4.403356628512533"><ele>1325.0</ele><time>2026-04-27T08:22:55Z</time></trkpt><trkpt lat="32.04685829985087" lon="-4.403168769245198"><ele>1326.0</ele><time>2026-04-27T08:22:56Z</time></trkpt><trkpt lat="32.046975184981996" lon="-4.402990064211243"><ele>1327.0</ele><time>2026-04-27T08:22:57Z</time></trkpt><trkpt lat="32.0471040169989" lon="-4.4028313473258285"><ele>1328.0</ele><time>2026-04-27T08:22:58Z</time></trkpt><trkpt lat="32.0472441719376" lon="-4.402692787972949"><ele>1328.0</ele><time>2026-04-27T08:22:59Z</time></trkpt><trkpt lat="32.04740313765769" lon="-4.402570766881231"><ele>1328.0</ele><time>2026-04-27T08:23:00Z</time></trkpt><trkpt lat="32.047577379141046" lon="-4.402471214031276"><ele>1328.0</ele><time>2026-04-27T08:23:01Z</time></trkpt><trkpt lat="32.04776346587938" lon="-4.402400853609727"><ele>1331.5</ele><time>2026-04-27T08:23:02Z</time></trkpt><trkpt lat="32.0479602187871" lon="-4.40236983362747"><ele>1335.0</ele><time>2026-04-27T08:23:03Z</time></trkpt><trkpt lat="32.048365725644814" lon="-4.402360814023295"><ele>1339.0</ele><time>2026-04-27T08:23:05Z</time></trkpt><trkpt lat="32.04857227219017" lon="-4.402402470530757"><ele>1343.0</ele><time>2026-04-27T08:23:06Z</time></trkpt><trkpt lat="32.04877508168555" lon="-4.402475351169918"><ele>1347.0</ele><time>2026-04-27T08:23:07Z</time></trkpt><trkpt lat="32.048969433018264" lon="-4.402577501114943"><ele>1347.3333333333333</ele><time>2026-04-27T08:23:08Z</time></trkpt><trkpt lat="32.049153260013604" lon="-4.40270589206011"><ele>1347.6666666666665</ele><time>2026-04-27T08:23:09Z</time></trkpt><trkpt lat="32.049324878614364" lon="-4.4028577235565525"><ele>1348.0</ele><time>2026-04-27T08:23:10Z</time></trkpt><trkpt lat="32.04947805099116" lon="-4.4030287410250075"><ele>1348.0</ele><time>2026-04-27T08:23:11Z</time></trkpt><trkpt lat="32.0496034733294" lon="-4.403220208826013"><ele>1348.0</ele><time>2026-04-27T08:23:12Z</time></trkpt><trkpt lat="32.049694324858706" lon="-4.403434069793234"><ele>1348.0</ele><time>2026-04-27T08:23:13Z</time></trkpt><trkpt lat="32.04975665981379" lon="-4.403665326735706"><ele>1349.0</ele><time>2026-04-27T08:23:14Z</time></trkpt><trkpt lat="32.049812853126106" lon="-4.403901340222024"><ele>1350.0</ele><time>2026-04-27T08:23:15Z</time></trkpt><trkpt lat="32.04987522084381" lon="-4.40413950374973"><ele>1351.0</ele><time>2026-04-27T08:23:16Z</time></trkpt><trkpt lat="32.04993792466771" lon="-4.404374733426751"><ele>1348.3333333333333</ele><time>2026-04-27T08:23:17Z</time></trkpt><trkpt lat="32.049997475384835" lon="-4.404600159378101"><ele>1345.6666666666667</ele><time>2026-04-27T08:23:18Z</time></trkpt><trkpt lat="32.050073809586614" lon="-4.404804258157898"><ele>1343.0</ele><time>2026-04-27T08:23:19Z</time></trkpt><trkpt lat="32.05018900718712" lon="-4.404985776296608"><ele>1350.0</ele><time>2026-04-27T08:23:20Z</time></trkpt><trkpt lat="32.0503344331642" lon="-4.405151980156662"><ele>1357.0</ele><time>2026-04-27T08:23:21Z</time></trkpt><trkpt lat="32.05049789854853" lon="-4.405299873313976"><ele>1364.0</ele><time>2026-04-27T08:23:22Z</time></trkpt><trkpt lat="32.050666502904484" lon="-4.405436540912847"><ele>1363.6666666666667</ele><time>2026-04-27T08:23:23Z</time></trkpt><trkpt lat="32.05082747756991" lon="-4.405579931719774"><ele>1363.3333333333333</ele><time>2026-04-27T08:23:24Z</time></trkpt><trkpt lat="32.05097196553499" lon="-4.405747387597134"><ele>1363.0</ele><time>2026-04-27T08:23:25Z</time></trkpt><trkpt lat="32.05110232615707" lon="-4.405946040534046"><ele>1363.0</ele><time>2026-04-27T08:23:26Z</time></trkpt><trkpt lat="32.05121792435837" lon="-4.406166935713897"><ele>1363.0</ele><time>2026-04-27T08:23:27Z</time></trkpt><trkpt lat="32.05132907719394" lon="-4.406394170627636"><ele>1363.0</ele><time>2026-04-27T08:23:28Z</time></trkpt><trkpt lat="32.05144048835426" lon="-4.406615577715683"><ele>1367.3333333333333</ele><time>2026-04-27T08:23:29Z</time></trkpt><trkpt lat="32.05155093433504" lon="-4.406827040642292"><ele>1371.6666666666667</ele><time>2026-04-27T08:23:30Z</time></trkpt><trkpt lat="32.05165636749962" lon="-4.4070348966115995"><ele>1376.0</ele><time>2026-04-27T08:23:31Z</time></trkpt><trkpt lat="32.0517532285655" lon="-4.407241906731841"><ele>1366.6666666666667</ele><time>2026-04-27T08:23:32Z</time></trkpt><trkpt lat="32.051832140888486" lon="-4.407465278791314"><ele>1357.3333333333333</ele><time>2026-04-27T08:23:33Z</time></trkpt><trkpt lat="32.05188394325708" lon="-4.40771159721802"><ele>1348.0</ele><time>2026-04-27T08:23:34Z</time></trkpt><trkpt lat="32.05192063699604" lon="-4.407975123163251"><ele>1349.6666666666665</ele><time>2026-04-27T08:23:35Z</time></trkpt><trkpt lat="32.05195862835179" lon="-4.408234836912837"><ele>1351.3333333333333</ele><time>2026-04-27T08:23:36Z</time></trkpt><trkpt lat="32.05199541016427" lon="-4.408492966984119"><ele>1353.0</ele><time>2026-04-27T08:23:37Z</time></trkpt><trkpt lat="32.052032834991564" lon="-4.4087520480712605"><ele>1356.0</ele><time>2026-04-27T08:23:38Z</time></trkpt><trkpt lat="32.052071083754065" lon="-4.4090014890006906"><ele>1359.0</ele><time>2026-04-27T08:23:39Z</time></trkpt><trkpt lat="32.05211160085854" lon="-4.409239903378819"><ele>1362.0</ele><time>2026-04-27T08:23:40Z</time></trkpt><trkpt lat="32.052164804442086" lon="-4.409468081305441"><ele>1365.0</ele><time>2026-04-27T08:23:41Z</time></trkpt><trkpt lat="32.05225084285592" lon="-4.409669500266174"><ele>1368.0</ele><time>2026-04-27T08:23:42Z</time></trkpt><trkpt lat="32.05237326789723" lon="-4.40983825245867"><ele>1371.0</ele><time>2026-04-27T08:23:43Z</time></trkpt><trkpt lat="32.05252550333193" lon="-4.409980848765421"><ele>1355.6666666666667</ele><time>2026-04-27T08:23:44Z</time></trkpt><trkpt lat="32.052696500923744" lon="-4.410090795044149"><ele>1340.3333333333335</ele><time>2026-04-27T08:23:45Z</time></trkpt><trkpt lat="32.05287010489849" lon="-4.410172074120988"><ele>1325.0</ele><time>2026-04-27T08:23:46Z</time></trkpt><trkpt lat="32.05305195059906" lon="-4.410221635704963"><ele>1325.0</ele><time>2026-04-27T08:23:47Z</time></trkpt><trkpt lat="32.053238145713706" lon="-4.4102223379664975"><ele>1325.0</ele><time>2026-04-27T08:23:48Z</time></trkpt><trkpt lat="32.05342458433815" lon="-4.410170225139824"><ele>1325.0</ele><time>2026-04-27T08:23:49Z</time></trkpt><trkpt lat="32.05360423164909" lon="-4.410078036927512"><ele>1325.3333333333335</ele><time>2026-04-27T08:23:50Z</time></trkpt><trkpt lat="32.0537794732386" lon="-4.4099536450058014"><ele>1325.6666666666667</ele><time>2026-04-27T08:23:51Z</time></trkpt><trkpt lat="32.05396533068496" lon="-4.409822063857951"><ele>1326.0</ele><time>2026-04-27T08:23:52Z</time></trkpt><trkpt lat="32.054158092830875" lon="-4.409673614194437"><ele>1319.5</ele><time>2026-04-27T08:23:53Z</time></trkpt><trkpt lat="32.05435463880313" lon="-4.409506377134033"><ele>1313.0</ele><time>2026-04-27T08:23:54Z</time></trkpt><trkpt lat="32.05455040764039" lon="-4.409333573631522"><ele>1313.0</ele><time>2026-04-27T08:23:55Z</time></trkpt><trkpt lat="32.05474497408935" lon="-4.4091642271333145"><ele>1313.0</ele><time>2026-04-27T08:23:56Z</time></trkpt><trkpt lat="32.05493766534442" lon="-4.409001898224467"><ele>1315.5</ele><time>2026-04-27T08:23:57Z</time></trkpt><trkpt lat="32.05513251671065" lon="-4.408841302065777"><ele>1318.0</ele><time>2026-04-27T08:23:58Z</time></trkpt><trkpt lat="32.05532364754947" lon="-4.408686231854845"><ele>1312.5</ele><time>2026-04-27T08:23:59Z</time></trkpt><trkpt lat="32.055516625636685" lon="-4.408542333411919"><ele>1307.0</ele><time>2026-04-27T08:24:00Z</time></trkpt><trkpt lat="32.05572200391288" lon="-4.408424172852106"><ele>1312.0</ele><time>2026-04-27T08:24:01Z</time></trkpt><trkpt lat="32.0559435183069" lon="-4.408331023282603"><ele>1317.0</ele><time>2026-04-27T08:24:02Z</time></trkpt><trkpt lat="32.056181405155456" lon="-4.408259621172269"><ele>1317.0</ele><time>2026-04-27T08:24:03Z</time></trkpt><trkpt lat="32.05642687349923" lon="-4.408208104373589"><ele>1317.0</ele><time>2026-04-27T08:24:04Z</time></trkpt><trkpt lat="32.05668261652769" lon="-4.408172322496998"><ele>1316.5</ele><time>2026-04-27T08:24:05Z</time></trkpt><trkpt lat="32.05694194936438" lon="-4.408145431163533"><ele>1316.0</ele><time>2026-04-27T08:24:06Z</time></trkpt><trkpt lat="32.05720756698485" lon="-4.4081160075897525"><ele>1314.0</ele><time>2026-04-27T08:24:06.999Z</time></trkpt><trkpt lat="32.057470146680174" lon="-4.408069805571023"><ele>1312.0</ele><time>2026-04-27T08:24:07.999Z</time></trkpt><trkpt lat="32.05773491771518" lon="-4.407998311693381"><ele>1306.0</ele><time>2026-04-27T08:24:08.999Z</time></trkpt><trkpt lat="32.05799905660678" lon="-4.407892099908182"><ele>1300.0</ele><time>2026-04-27T08:24:09.999Z</time></trkpt><trkpt lat="32.058256872394004" lon="-4.407751278403511"><ele>1302.0</ele><time>2026-04-27T08:24:10.999Z</time></trkpt><trkpt lat="32.05850638563488" lon="-4.407581756572837"><ele>1304.0</ele><time>2026-04-27T08:24:11.999Z</time></trkpt><trkpt lat="32.058751980873915" lon="-4.407397177255728"><ele>1304.0</ele><time>2026-04-27T08:24:12.999Z</time></trkpt><trkpt lat="32.05900463018316" lon="-4.407209570033398"><ele>1304.0</ele><time>2026-04-27T08:24:13.999Z</time></trkpt><trkpt lat="32.05926040349357" lon="-4.407025411423661"><ele>1299.0</ele><time>2026-04-27T08:24:14.999Z</time></trkpt><trkpt lat="32.059516964766885" lon="-4.406840449253407"><ele>1294.0</ele><time>2026-04-27T08:24:15.999Z</time></trkpt><trkpt lat="32.0597730307886" lon="-4.406658233613732"><ele>1295.5</ele><time>2026-04-27T08:24:17.001Z</time></trkpt><trkpt lat="32.06002795627381" lon="-4.406476471743211"><ele>1297.0</ele><time>2026-04-27T08:24:18.001Z</time></trkpt><trkpt lat="32.06027786637257" lon="-4.406298805633838"><ele>1292.0</ele><time>2026-04-27T08:24:19.001Z</time></trkpt><trkpt lat="32.060523361006126" lon="-4.406125344351979"><ele>1287.0</ele><time>2026-04-27T08:24:20.001Z</time></trkpt><trkpt lat="32.06075080076737" lon="-4.405964556889904"><ele>1289.3333333333333</ele><time>2026-04-27T08:24:21.001Z</time></trkpt><trkpt lat="32.06094996146513" lon="-4.405820587267416"><ele>1291.6666666666665</ele><time>2026-04-27T08:24:22.001Z</time></trkpt><trkpt lat="32.06113151537085" lon="-4.405690992571988"><ele>1294.0</ele><time>2026-04-27T08:24:23.001Z</time></trkpt><trkpt lat="32.061307119801455" lon="-4.405569096539169"><ele>1293.3333333333333</ele><time>2026-04-27T08:24:24.001Z</time></trkpt><trkpt lat="32.06147674832021" lon="-4.405451183634746"><ele>1292.6666666666667</ele><time>2026-04-27T08:24:25.001Z</time></trkpt><trkpt lat="32.061636462448725" lon="-4.4053386207707"><ele>1292.0</ele><time>2026-04-27T08:24:26.001Z</time></trkpt><trkpt lat="32.06179569227318" lon="-4.405226411062301"><ele>1292.0</ele><time>2026-04-27T08:24:27.001Z</time></trkpt><trkpt lat="32.06195585084506" lon="-4.405117546151855"><ele>1292.0</ele><time>2026-04-27T08:24:28.001Z</time></trkpt><trkpt lat="32.06212612232004" lon="-4.404995664682688"><ele>1292.0</ele><time>2026-04-27T08:24:29.001Z</time></trkpt><trkpt lat="32.06230919718375" lon="-4.404858825511971"><ele>1291.5</ele><time>2026-04-27T08:24:30.001Z</time></trkpt><trkpt lat="32.0624970176054" lon="-4.40470491950249"><ele>1291.0</ele><time>2026-04-27T08:24:31.001Z</time></trkpt><trkpt lat="32.06268573715453" lon="-4.404530405981837"><ele>1286.0</ele><time>2026-04-27T08:24:32.001Z</time></trkpt><trkpt lat="32.062873321519774" lon="-4.40433262781136"><ele>1281.0</ele><time>2026-04-27T08:24:33.001Z</time></trkpt><trkpt lat="32.06306728025573" lon="-4.404108030223385"><ele>1281.0</ele><time>2026-04-27T08:24:34.001Z</time></trkpt><trkpt lat="32.06325422510289" lon="-4.40386877742944"><ele>1281.0</ele><time>2026-04-27T08:24:35.001Z</time></trkpt><trkpt lat="32.0634429487636" lon="-4.403608456342626"><ele>1278.5</ele><time>2026-04-27T08:24:36.001Z</time></trkpt><trkpt lat="32.063631918270595" lon="-4.4033246557569825"><ele>1276.0</ele><time>2026-04-27T08:24:37Z</time></trkpt><trkpt lat="32.06382315668512" lon="-4.403033236653775"><ele>1275.5</ele><time>2026-04-27T08:24:38Z</time></trkpt><trkpt lat="32.06401184672415" lon="-4.402750923226729"><ele>1275.0</ele><time>2026-04-27T08:24:39Z</time></trkpt><trkpt lat="32.06419519536236" lon="-4.402479618211977"><ele>1275.0</ele><time>2026-04-27T08:24:40Z</time></trkpt><trkpt lat="32.06436862455676" lon="-4.402212912879857"><ele>1275.0</ele><time>2026-04-27T08:24:41Z</time></trkpt><trkpt lat="32.06453864777208" lon="-4.401952500305903"><ele>1272.0</ele><time>2026-04-27T08:24:42Z</time></trkpt><trkpt lat="32.06470715594372" lon="-4.401695802362812"><ele>1269.0</ele><time>2026-04-27T08:24:43Z</time></trkpt><trkpt lat="32.064875499066964" lon="-4.401442577030916"><ele>1266.5</ele><time>2026-04-27T08:24:44Z</time></trkpt><trkpt lat="32.06504198042355" lon="-4.401195775841023"><ele>1264.0</ele><time>2026-04-27T08:24:45Z</time></trkpt><trkpt lat="32.0652102529675" lon="-4.400946295575796"><ele>1264.0</ele><time>2026-04-27T08:24:46Z</time></trkpt><trkpt lat="32.0653759003895" lon="-4.400690719332876"><ele>1264.0</ele><time>2026-04-27T08:24:47Z</time></trkpt><trkpt lat="32.06553307461989" lon="-4.400422900194234"><ele>1264.5</ele><time>2026-04-27T08:24:48Z</time></trkpt><trkpt lat="32.06567598499107" lon="-4.400137882592944"><ele>1265.0</ele><time>2026-04-27T08:24:49Z</time></trkpt><trkpt lat="32.065803812525395" lon="-4.399831208660358"><ele>1264.5</ele><time>2026-04-27T08:24:50Z</time></trkpt><trkpt lat="32.065917269778794" lon="-4.399511594904032"><ele>1264.0</ele><time>2026-04-27T08:24:51Z</time></trkpt><trkpt lat="32.0660163541035" lon="-4.399182250199815"><ele>1264.0</ele><time>2026-04-27T08:24:52Z</time></trkpt><trkpt lat="32.066096138335084" lon="-4.398843728725404"><ele>1264.0</ele><time>2026-04-27T08:24:53Z</time></trkpt><trkpt lat="32.06615607321769" lon="-4.398504669922434"><ele>1260.5</ele><time>2026-04-27T08:24:54Z</time></trkpt><trkpt lat="32.06619799417119" lon="-4.3981595398861"><ele>1257.0</ele><time>2026-04-27T08:24:55Z</time></trkpt><trkpt lat="32.06623456492996" lon="-4.397814571581462"><ele>1256.5</ele><time>2026-04-27T08:24:56Z</time></trkpt><trkpt lat="32.06627240660895" lon="-4.397476948721632"><ele>1256.0</ele><time>2026-04-27T08:24:57Z</time></trkpt><trkpt lat="32.066309476320384" lon="-4.397147756155178"><ele>1256.0</ele><time>2026-04-27T08:24:58Z</time></trkpt><trkpt lat="32.06634360258154" lon="-4.396829602314707"><ele>1256.0</ele><time>2026-04-27T08:24:59Z</time></trkpt><trkpt lat="32.06637605202096" lon="-4.396529654118982"><ele>1257.0</ele><time>2026-04-27T08:25:00Z</time></trkpt><trkpt lat="32.06640656614817" lon="-4.396244494880934"><ele>1258.0</ele><time>2026-04-27T08:25:01Z</time></trkpt><trkpt lat="32.06643384096679" lon="-4.39597018834521"><ele>1258.0</ele><time>2026-04-27T08:25:02Z</time></trkpt><trkpt lat="32.06646017619205" lon="-4.395705582920999"><ele>1258.0</ele><time>2026-04-27T08:25:03Z</time></trkpt><trkpt lat="32.066488644726505" lon="-4.395455240621271"><ele>1258.0</ele><time>2026-04-27T08:25:04Z</time></trkpt><trkpt lat="32.06651605275219" lon="-4.395212150233665"><ele>1258.6666666666665</ele><time>2026-04-27T08:25:05Z</time></trkpt><trkpt lat="32.06654783484117" lon="-4.39497318790451"><ele>1259.3333333333333</ele><time>2026-04-27T08:25:06Z</time></trkpt><trkpt lat="32.06659229011431" lon="-4.394737197514328"><ele>1260.0</ele><time>2026-04-27T08:25:07Z</time></trkpt><trkpt lat="32.066649755777824" lon="-4.394504720322404"><ele>1260.3333333333333</ele><time>2026-04-27T08:25:08Z</time></trkpt><trkpt lat="32.06672339813402" lon="-4.394274260368222"><ele>1260.6666666666665</ele><time>2026-04-27T08:25:09Z</time></trkpt><trkpt lat="32.0668174426889" lon="-4.394048781557059"><ele>1261.0</ele><time>2026-04-27T08:25:10Z</time></trkpt><trkpt lat="32.06688597894285" lon="-4.393805334020785"><ele>1262.0</ele><time>2026-04-27T08:25:11Z</time></trkpt><trkpt lat="32.067062932327346" lon="-4.39360015958658"><ele>1263.0</ele><time>2026-04-27T08:25:12Z</time></trkpt><trkpt lat="32.067209040037625" lon="-4.393384363345369"><ele>1263.0</ele><time>2026-04-27T08:25:13Z</time></trkpt><trkpt lat="32.067364003674484" lon="-4.393167850292499"><ele>1263.0</ele><time>2026-04-27T08:25:14Z</time></trkpt><trkpt lat="32.06752030601855" lon="-4.3929488647214345"><ele>1260.5</ele><time>2026-04-27T08:25:15Z</time></trkpt><trkpt lat="32.06767762393552" lon="-4.39272453208446"><ele>1258.0</ele><time>2026-04-27T08:25:16Z</time></trkpt><trkpt lat="32.06783314628252" lon="-4.392494306114812"><ele>1258.0</ele><time>2026-04-27T08:25:17Z</time></trkpt><trkpt lat="32.06799027885382" lon="-4.39226160407593"><ele>1258.0</ele><time>2026-04-27T08:25:18Z</time></trkpt><trkpt lat="32.068147162332444" lon="-4.3920311493330875"><ele>1252.0</ele><time>2026-04-27T08:25:19Z</time></trkpt><trkpt lat="32.068305172095485" lon="-4.391800040026336"><ele>1246.0</ele><time>2026-04-27T08:25:20Z</time></trkpt><trkpt lat="32.06846174806155" lon="-4.391572992046609"><ele>1246.0</ele><time>2026-04-27T08:25:21Z</time></trkpt><trkpt lat="32.06861497775998" lon="-4.391352419108397"><ele>1246.0</ele><time>2026-04-27T08:25:22Z</time></trkpt><trkpt lat="32.068770570966414" lon="-4.391137562136644"><ele>1246.0</ele><time>2026-04-27T08:25:23Z</time></trkpt><trkpt lat="32.06893571449198" lon="-4.390931459554933"><ele>1246.0</ele><time>2026-04-27T08:25:24Z</time></trkpt><trkpt lat="32.06911543043981" lon="-4.39073750336217"><ele>1240.5</ele><time>2026-04-27T08:25:25Z</time></trkpt><trkpt lat="32.06930836661741" lon="-4.390559135902583"><ele>1235.0</ele><time>2026-04-27T08:25:26Z</time></trkpt><trkpt lat="32.069516184249075" lon="-4.390401667042388"><ele>1234.5</ele><time>2026-04-27T08:25:27Z</time></trkpt><trkpt lat="32.069740774613564" lon="-4.390270039886036"><ele>1234.0</ele><time>2026-04-27T08:25:28Z</time></trkpt><trkpt lat="32.069972161185696" lon="-4.390166995461626"><ele>1230.0</ele><time>2026-04-27T08:25:29Z</time></trkpt><trkpt lat="32.07020846608566" lon="-4.390080871927088"><ele>1226.0</ele><time>2026-04-27T08:25:30Z</time></trkpt><trkpt lat="32.070443734569146" lon="-4.389996216147688"><ele>1226.0</ele><time>2026-04-27T08:25:31Z</time></trkpt><trkpt lat="32.07067792892619" lon="-4.389890885710056"><ele>1226.0</ele><time>2026-04-27T08:25:32Z</time></trkpt><trkpt lat="32.070907541712224" lon="-4.389759810903433"><ele>1213.5</ele><time>2026-04-27T08:25:33Z</time></trkpt><trkpt lat="32.07112938316775" lon="-4.3896066573052925"><ele>1201.0</ele><time>2026-04-27T08:25:34Z</time></trkpt><trkpt lat="32.07134571525007" lon="-4.389429150015347"><ele>1201.0</ele><time>2026-04-27T08:25:35Z</time></trkpt><trkpt lat="32.07155613811173" lon="-4.389240837801814"><ele>1201.0</ele><time>2026-04-27T08:25:36Z</time></trkpt><trkpt lat="32.07176104353276" lon="-4.3890555789397885"><ele>1207.5</ele><time>2026-04-27T08:25:37Z</time></trkpt><trkpt lat="32.07196099721284" lon="-4.388882479111441"><ele>1214.0</ele><time>2026-04-27T08:25:38Z</time></trkpt><trkpt lat="32.07215193598045" lon="-4.3887227079264886"><ele>1208.6666666666667</ele><time>2026-04-27T08:25:39Z</time></trkpt><trkpt lat="32.072332205978576" lon="-4.3885808989506865"><ele>1203.3333333333333</ele><time>2026-04-27T08:25:40Z</time></trkpt><trkpt lat="32.07251230628283" lon="-4.3884572474954116"><ele>1198.0</ele><time>2026-04-27T08:25:41Z</time></trkpt><trkpt lat="32.072697689916" lon="-4.388357679174376"><ele>1198.0</ele><time>2026-04-27T08:25:42Z</time></trkpt><trkpt lat="32.07289165024167" lon="-4.388283640993139"><ele>1198.0</ele><time>2026-04-27T08:25:43Z</time></trkpt><trkpt lat="32.07309686075407" lon="-4.388245289472515"><ele>1198.0</ele><time>2026-04-27T08:25:44Z</time></trkpt><trkpt lat="32.07330883452947" lon="-4.388239684519081"><ele>1195.3333333333333</ele><time>2026-04-27T08:25:45Z</time></trkpt><trkpt lat="32.07352184348648" lon="-4.388259470442826"><ele>1192.6666666666667</ele><time>2026-04-27T08:25:46Z</time></trkpt><trkpt lat="32.073737784951604" lon="-4.3882931970309365"><ele>1190.0</ele><time>2026-04-27T08:25:47Z</time></trkpt><trkpt lat="32.073965725117674" lon="-4.388327580040555"><ele>1189.0</ele><time>2026-04-27T08:25:48Z</time></trkpt><trkpt lat="32.07420156409713" lon="-4.388362904812116"><ele>1188.0</ele><time>2026-04-27T08:25:49Z</time></trkpt><trkpt lat="32.074442714179604" lon="-4.388400339470515"><ele>1188.0</ele><time>2026-04-27T08:25:50Z</time></trkpt><trkpt lat="32.07468605439282" lon="-4.388437616934251"><ele>1188.0</ele><time>2026-04-27T08:25:51Z</time></trkpt><trkpt lat="32.074933870466445" lon="-4.388475673633392"><ele>1185.0</ele><time>2026-04-27T08:25:52Z</time></trkpt><trkpt lat="32.0751857289037" lon="-4.388515687468951"><ele>1182.0</ele><time>2026-04-27T08:25:53Z</time></trkpt><trkpt lat="32.07543913068258" lon="-4.3885537006985595"><ele>1182.0</ele><time>2026-04-27T08:25:54Z</time></trkpt><trkpt lat="32.075698326356346" lon="-4.388583554808954"><ele>1182.0</ele><time>2026-04-27T08:25:55Z</time></trkpt><trkpt lat="32.07596205721578" lon="-4.388602730448984"><ele>1179.0</ele><time>2026-04-27T08:25:55.999Z</time></trkpt><trkpt lat="32.07622892810738" lon="-4.3886114435376555"><ele>1176.0</ele><time>2026-04-27T08:25:56.999Z</time></trkpt><trkpt lat="32.076496591584586" lon="-4.388612053529078"><ele>1177.0</ele><time>2026-04-27T08:25:57.999Z</time></trkpt><trkpt lat="32.07675971105969" lon="-4.388606808554557"><ele>1178.0</ele><time>2026-04-27T08:25:58.999Z</time></trkpt><trkpt lat="32.07701835256461" lon="-4.388597575442027"><ele>1178.0</ele><time>2026-04-27T08:25:59.999Z</time></trkpt><trkpt lat="32.077271400562054" lon="-4.388583049153047"><ele>1178.0</ele><time>2026-04-27T08:26:00.999Z</time></trkpt><trkpt lat="32.07751799742906" lon="-4.388568860426774"><ele>1174.5</ele><time>2026-04-27T08:26:01.999Z</time></trkpt><trkpt lat="32.07775485900188" lon="-4.388553970413712"><ele>1171.0</ele><time>2026-04-27T08:26:02.999Z</time></trkpt><trkpt lat="32.07798736477878" lon="-4.388540572303333"><ele>1171.0</ele><time>2026-04-27T08:26:03.999Z</time></trkpt><trkpt lat="32.0782179179413" lon="-4.388528919377157"><ele>1171.0</ele><time>2026-04-27T08:26:04.999Z</time></trkpt><trkpt lat="32.07844062459938" lon="-4.3885182290542355"><ele>1170.6666666666665</ele><time>2026-04-27T08:26:05.999Z</time></trkpt><trkpt lat="32.07865816005827" lon="-4.388506771106963"><ele>1170.3333333333333</ele><time>2026-04-27T08:26:06.999Z</time></trkpt><trkpt lat="32.07887282011191" lon="-4.388488912165002"><ele>1170.0</ele><time>2026-04-27T08:26:07.999Z</time></trkpt><trkpt lat="32.079088611777976" lon="-4.388467072408195"><ele>1167.6666666666667</ele><time>2026-04-27T08:26:08.999Z</time></trkpt><trkpt lat="32.079305252162825" lon="-4.388436565390214"><ele>1165.3333333333335</ele><time>2026-04-27T08:26:09.999Z</time></trkpt><trkpt lat="32.07951959953046" lon="-4.388375031252005"><ele>1163.0</ele><time>2026-04-27T08:26:10.999Z</time></trkpt><trkpt lat="32.07972758520109" lon="-4.388277747316921"><ele>1163.0</ele><time>2026-04-27T08:26:11.999Z</time></trkpt><trkpt lat="32.0799290744709" lon="-4.388153241589266"><ele>1163.0</ele><time>2026-04-27T08:26:12.999Z</time></trkpt><trkpt lat="32.08011173632224" lon="-4.38800243699103"><ele>1160.6666666666667</ele><time>2026-04-27T08:26:13.999Z</time></trkpt><trkpt lat="32.08027367247834" lon="-4.387827413162463"><ele>1158.3333333333333</ele><time>2026-04-27T08:26:14.999Z</time></trkpt><trkpt lat="32.08041583334992" lon="-4.387624249656771"><ele>1156.0</ele><time>2026-04-27T08:26:15.999Z</time></trkpt><trkpt lat="32.0805353321809" lon="-4.38739375072939"><ele>1155.0</ele><time>2026-04-27T08:26:16.999Z</time></trkpt><trkpt lat="32.08063472429428" lon="-4.38714448429962"><ele>1154.0</ele><time>2026-04-27T08:26:17.999Z</time></trkpt><trkpt lat="32.0807176771602" lon="-4.386885054522153"><ele>1154.5</ele><time>2026-04-27T08:26:18.999Z</time></trkpt><trkpt lat="32.0807971089026" lon="-4.386621452732453"><ele>1155.0</ele><time>2026-04-27T08:26:19.999Z</time></trkpt><trkpt lat="32.08087593979061" lon="-4.386352168688306"><ele>1156.0</ele><time>2026-04-27T08:26:20.999Z</time></trkpt><trkpt lat="32.08095615813769" lon="-4.386075219895039"><ele>1157.0</ele><time>2026-04-27T08:26:21.999Z</time></trkpt><trkpt lat="32.08104380331382" lon="-4.385792574679564"><ele>1156.0</ele><time>2026-04-27T08:26:23.001Z</time></trkpt><trkpt lat="32.081133957527285" lon="-4.385499869984128"><ele>1155.0</ele><time>2026-04-27T08:26:24.001Z</time></trkpt><trkpt lat="32.08122610722473" lon="-4.3852011507247175"><ele>1155.0</ele><time>2026-04-27T08:26:25.001Z</time></trkpt><trkpt lat="32.08131696039486" lon="-4.384904143074541"><ele>1155.0</ele><time>2026-04-27T08:26:26.001Z</time></trkpt><trkpt lat="32.08140804744496" lon="-4.384604097791157"><ele>1150.5</ele><time>2026-04-27T08:26:27.001Z</time></trkpt><trkpt lat="32.08149964804864" lon="-4.3843113112011665"><ele>1146.0</ele><time>2026-04-27T08:26:28.001Z</time></trkpt><trkpt lat="32.0815896158615" lon="-4.384024617129965"><ele>1148.0</ele><time>2026-04-27T08:26:29.001Z</time></trkpt><trkpt lat="32.08167608375495" lon="-4.383743789280142"><ele>1150.0</ele><time>2026-04-27T08:26:30.001Z</time></trkpt><trkpt lat="32.081757540915795" lon="-4.383471679726619"><ele>1150.0</ele><time>2026-04-27T08:26:31.001Z</time></trkpt><trkpt lat="32.08183559739907" lon="-4.38320704961203"><ele>1150.0</ele><time>2026-04-27T08:26:32.001Z</time></trkpt><trkpt lat="32.081912245323586" lon="-4.3829522749780825"><ele>1154.3333333333333</ele><time>2026-04-27T08:26:33.001Z</time></trkpt><trkpt lat="32.081993450145625" lon="-4.38270743790086"><ele>1158.6666666666667</ele><time>2026-04-27T08:26:34.001Z</time></trkpt><trkpt lat="32.0820818934967" lon="-4.382471571789351"><ele>1163.0</ele><time>2026-04-27T08:26:35.001Z</time></trkpt><trkpt lat="32.082185053431836" lon="-4.382252968086029"><ele>1167.3333333333335</ele><time>2026-04-27T08:26:36.001Z</time></trkpt><trkpt lat="32.08231793705494" lon="-4.382057155061858"><ele>1171.6666666666667</ele><time>2026-04-27T08:26:37Z</time></trkpt><trkpt lat="32.08248265370543" lon="-4.381891262997662"><ele>1176.0</ele><time>2026-04-27T08:26:38Z</time></trkpt><trkpt lat="32.082677793522954" lon="-4.381747787702261"><ele>1176.0</ele><time>2026-04-27T08:26:39Z</time></trkpt><trkpt lat="32.08289436961319" lon="-4.381622851600328"><ele>1176.0</ele><time>2026-04-27T08:26:40Z</time></trkpt><trkpt lat="32.08312547547951" lon="-4.381510214127796"><ele>1172.0</ele><time>2026-04-27T08:26:41Z</time></trkpt><trkpt lat="32.08336771907643" lon="-4.381401104531153"><ele>1168.0</ele><time>2026-04-27T08:26:42Z</time></trkpt><trkpt lat="32.08361420505014" lon="-4.381287697411379"><ele>1178.0</ele><time>2026-04-27T08:26:43Z</time></trkpt><trkpt lat="32.083863097227095" lon="-4.381168447344886"><ele>1188.0</ele><time>2026-04-27T08:26:44Z</time></trkpt><trkpt lat="32.08411114890964" lon="-4.381048571884154"><ele>1188.0</ele><time>2026-04-27T08:26:45Z</time></trkpt><trkpt lat="32.08435636989958" lon="-4.380931443628917"><ele>1188.0</ele><time>2026-04-27T08:26:46Z</time></trkpt><trkpt lat="32.08459997807034" lon="-4.380818009482092"><ele>1188.0</ele><time>2026-04-27T08:26:47Z</time></trkpt><trkpt lat="32.08483779312278" lon="-4.380709390172295"><ele>1188.0</ele><time>2026-04-27T08:26:48Z</time></trkpt><trkpt lat="32.085071116179925" lon="-4.380604789854609"><ele>1194.0</ele><time>2026-04-27T08:26:49Z</time></trkpt><trkpt lat="32.08530305397238" lon="-4.380512090278835"><ele>1200.0</ele><time>2026-04-27T08:26:50Z</time></trkpt><trkpt lat="32.08553575866936" lon="-4.380434888264916"><ele>1193.0</ele><time>2026-04-27T08:26:51Z</time></trkpt><trkpt lat="32.08576740356775" lon="-4.380372023089508"><ele>1186.0</ele><time>2026-04-27T08:26:52Z</time></trkpt><trkpt lat="32.08599912775752" lon="-4.380322659663441"><ele>1186.0</ele><time>2026-04-27T08:26:53Z</time></trkpt><trkpt lat="32.08623129400823" lon="-4.380291471624904"><ele>1186.0</ele><time>2026-04-27T08:26:54Z</time></trkpt><trkpt lat="32.086464322927974" lon="-4.380276004538925"><ele>1181.5</ele><time>2026-04-27T08:26:55Z</time></trkpt><trkpt lat="32.08669758168768" lon="-4.380271482262567"><ele>1177.0</ele><time>2026-04-27T08:26:56Z</time></trkpt><trkpt lat="32.0869301709111" lon="-4.380282095060957"><ele>1177.0</ele><time>2026-04-27T08:26:57Z</time></trkpt><trkpt lat="32.08716606498161" lon="-4.380308141783825"><ele>1177.0</ele><time>2026-04-27T08:26:58Z</time></trkpt><trkpt lat="32.087401737049326" lon="-4.380349307454159"><ele>1178.5</ele><time>2026-04-27T08:26:59Z</time></trkpt><trkpt lat="32.08763911674593" lon="-4.380399421501492"><ele>1180.0</ele><time>2026-04-27T08:27:00Z</time></trkpt><trkpt lat="32.08788538222022" lon="-4.3804492257870375"><ele>1180.0</ele><time>2026-04-27T08:27:01Z</time></trkpt><trkpt lat="32.088142279711896" lon="-4.3804975912876065"><ele>1180.0</ele><time>2026-04-27T08:27:02Z</time></trkpt><trkpt lat="32.08840409468128" lon="-4.380550934842731"><ele>1176.0</ele><time>2026-04-27T08:27:03Z</time></trkpt><trkpt lat="32.088666576000065" lon="-4.380608647872797"><ele>1172.0</ele><time>2026-04-27T08:27:04Z</time></trkpt><trkpt lat="32.08893149694585" lon="-4.380667759467059"><ele>1171.5</ele><time>2026-04-27T08:27:05Z</time></trkpt><trkpt lat="32.08919578026317" lon="-4.380726061195917"><ele>1171.0</ele><time>2026-04-27T08:27:06Z</time></trkpt><trkpt lat="32.08945530724105" lon="-4.380781833699855"><ele>1171.0</ele><time>2026-04-27T08:27:07Z</time></trkpt><trkpt lat="32.08970966657655" lon="-4.380834994338254"><ele>1171.0</ele><time>2026-04-27T08:27:08Z</time></trkpt><trkpt lat="32.08995846392789" lon="-4.3808856174623285"><ele>1174.0</ele><time>2026-04-27T08:27:09Z</time></trkpt><trkpt lat="32.09020260916465" lon="-4.3809381076927965"><ele>1177.0</ele><time>2026-04-27T08:27:10Z</time></trkpt><trkpt lat="32.09043080946811" lon="-4.380985746310921"><ele>1177.0</ele><time>2026-04-27T08:27:11Z</time></trkpt><trkpt lat="32.09064411490982" lon="-4.3810262971521"><ele>1177.0</ele><time>2026-04-27T08:27:12Z</time></trkpt><trkpt lat="32.09083759511057" lon="-4.381066965735664"><ele>1177.0</ele><time>2026-04-27T08:27:13Z</time></trkpt><trkpt lat="32.091015241898276" lon="-4.381096975627132"><ele>1178.6666666666665</ele><time>2026-04-27T08:27:14Z</time></trkpt><trkpt lat="32.091183482671354" lon="-4.381090142561687"><ele>1180.3333333333333</ele><time>2026-04-27T08:27:15Z</time></trkpt><trkpt lat="32.091335267294156" lon="-4.381036438044471"><ele>1182.0</ele><time>2026-04-27T08:27:16Z</time></trkpt><trkpt lat="32.091474199618844" lon="-4.380932603568771"><ele>1182.0</ele><time>2026-04-27T08:27:17Z</time></trkpt><trkpt lat="32.09159100066671" lon="-4.3807826895481625"><ele>1182.0</ele><time>2026-04-27T08:27:18Z</time></trkpt><trkpt lat="32.09168440412058" lon="-4.380592810394975"><ele>1182.0</ele><time>2026-04-27T08:27:19Z</time></trkpt><trkpt lat="32.091754276254605" lon="-4.380370316362004"><ele>1182.0</ele><time>2026-04-27T08:27:20Z</time></trkpt><trkpt lat="32.09183153531617" lon="-4.380146300163736"><ele>1182.0</ele><time>2026-04-27T08:27:21Z</time></trkpt><trkpt lat="32.09192409775694" lon="-4.379917889134362"><ele>1182.0</ele><time>2026-04-27T08:27:22Z</time></trkpt><trkpt lat="32.09203629144587" lon="-4.379694177337366"><ele>1188.0</ele><time>2026-04-27T08:27:23Z</time></trkpt><trkpt lat="32.092151816580376" lon="-4.3794646616670505"><ele>1194.0</ele><time>2026-04-27T08:27:24Z</time></trkpt><trkpt lat="32.09234885128198" lon="-4.379271916784187"><ele>1182.0</ele><time>2026-04-27T08:27:25Z</time></trkpt><trkpt lat="32.09252995078128" lon="-4.379063550074751"><ele>1170.0</ele><time>2026-04-27T08:27:26Z</time></trkpt><trkpt lat="32.092721572359764" lon="-4.378854728493722"><ele>1177.0</ele><time>2026-04-27T08:27:27Z</time></trkpt><trkpt lat="32.09291165234354" lon="-4.378647485709967"><ele>1184.0</ele><time>2026-04-27T08:27:28Z</time></trkpt><trkpt lat="32.09308862655748" lon="-4.378446962149248"><ele>1184.0</ele><time>2026-04-27T08:27:29Z</time></trkpt><trkpt lat="32.093252063799824" lon="-4.378241860872063"><ele>1184.0</ele><time>2026-04-27T08:27:30Z</time></trkpt><trkpt lat="32.09339200355335" lon="-4.378010013541836"><ele>1177.5</ele><time>2026-04-27T08:27:31Z</time></trkpt><trkpt lat="32.09350621158179" lon="-4.377747357743759"><ele>1171.0</ele><time>2026-04-27T08:27:32Z</time></trkpt><trkpt lat="32.09359575270392" lon="-4.377462279504484"><ele>1177.5</ele><time>2026-04-27T08:27:33Z</time></trkpt><trkpt lat="32.093672185977226" lon="-4.377168808890392"><ele>1184.0</ele><time>2026-04-27T08:27:34Z</time></trkpt><trkpt lat="32.09373951601181" lon="-4.376870726974671"><ele>1184.0</ele><time>2026-04-27T08:27:35Z</time></trkpt><trkpt lat="32.093794683284855" lon="-4.3765672846076615"><ele>1184.0</ele><time>2026-04-27T08:27:36Z</time></trkpt><trkpt lat="32.09383207840767" lon="-4.376255274445169"><ele>1189.5</ele><time>2026-04-27T08:27:37Z</time></trkpt><trkpt lat="32.09385041822912" lon="-4.37593365390295"><ele>1195.0</ele><time>2026-04-27T08:27:38Z</time></trkpt><trkpt lat="32.09386366366131" lon="-4.375617159159698"><ele>1199.0</ele><time>2026-04-27T08:27:39Z</time></trkpt><trkpt lat="32.093887997391406" lon="-4.375302181004767"><ele>1203.0</ele><time>2026-04-27T08:27:40Z</time></trkpt><trkpt lat="32.093926239753955" lon="-4.374986634540816"><ele>1208.5</ele><time>2026-04-27T08:27:41Z</time></trkpt><trkpt lat="32.09397229918672" lon="-4.374666139564288"><ele>1214.0</ele><time>2026-04-27T08:27:42Z</time></trkpt><trkpt lat="32.09401901004115" lon="-4.374346181179451"><ele>1214.0</ele><time>2026-04-27T08:27:43Z</time></trkpt><trkpt lat="32.094071397484385" lon="-4.374026003270279"><ele>1214.0</ele><time>2026-04-27T08:27:44Z</time></trkpt><trkpt lat="32.09413314899933" lon="-4.373708251842896"><ele>1194.0</ele><time>2026-04-27T08:27:45Z</time></trkpt><trkpt lat="32.094201732508324" lon="-4.373395046993386"><ele>1174.0</ele><time>2026-04-27T08:27:46Z</time></trkpt><trkpt lat="32.09427191449045" lon="-4.373087290017014"><ele>1180.5</ele><time>2026-04-27T08:27:47Z</time></trkpt><trkpt lat="32.094342892495575" lon="-4.372783228305415"><ele>1187.0</ele><time>2026-04-27T08:27:48Z</time></trkpt><trkpt lat="32.094413583746714" lon="-4.372477576554182"><ele>1190.5</ele><time>2026-04-27T08:27:49Z</time></trkpt><trkpt lat="32.094493247106605" lon="-4.372177567390285"><ele>1194.0</ele><time>2026-04-27T08:27:50Z</time></trkpt><trkpt lat="32.09458592999399" lon="-4.3718879210029336"><ele>1194.0</ele><time>2026-04-27T08:27:51Z</time></trkpt><trkpt lat="32.094695596959326" lon="-4.371600546429772"><ele>1194.0</ele><time>2026-04-27T08:27:51.999Z</time></trkpt><trkpt lat="32.09482232399504" lon="-4.371313969669235"><ele>1183.5</ele><time>2026-04-27T08:27:52.999Z</time></trkpt><trkpt lat="32.09495985165972" lon="-4.371032622216437"><ele>1173.0</ele><time>2026-04-27T08:27:53.999Z</time></trkpt><trkpt lat="32.09511403702635" lon="-4.370756152004696"><ele>1180.5</ele><time>2026-04-27T08:27:54.999Z</time></trkpt><trkpt lat="32.09529102459809" lon="-4.370486408943253"><ele>1188.0</ele><time>2026-04-27T08:27:55.999Z</time></trkpt><trkpt lat="32.095490175730056" lon="-4.370221565107234"><ele>1188.0</ele><time>2026-04-27T08:27:56.999Z</time></trkpt><trkpt lat="32.09569756060501" lon="-4.369954551851793"><ele>1188.0</ele><time>2026-04-27T08:27:57.999Z</time></trkpt><trkpt lat="32.09590132152997" lon="-4.369678221446602"><ele>1185.5</ele><time>2026-04-27T08:27:58.999Z</time></trkpt><trkpt lat="32.09609964064706" lon="-4.369393426653352"><ele>1183.0</ele><time>2026-04-27T08:27:59.999Z</time></trkpt><trkpt lat="32.096298792266865" lon="-4.369098709165846"><ele>1181.0</ele><time>2026-04-27T08:28:00.999Z</time></trkpt><trkpt lat="32.09648596300556" lon="-4.368806880087072"><ele>1179.0</ele><time>2026-04-27T08:28:01.999Z</time></trkpt><trkpt lat="32.09666310574448" lon="-4.368523034611163"><ele>1179.0</ele><time>2026-04-27T08:28:02.999Z</time></trkpt><trkpt lat="32.096833433400555" lon="-4.36825013080674"><ele>1179.0</ele><time>2026-04-27T08:28:03.999Z</time></trkpt><trkpt lat="32.09699943717706" lon="-4.367982898423212"><ele>1186.5</ele><time>2026-04-27T08:28:04.999Z</time></trkpt><trkpt lat="32.097157082594485" lon="-4.367721676747243"><ele>1194.0</ele><time>2026-04-27T08:28:05.999Z</time></trkpt><trkpt lat="32.09731162651524" lon="-4.367477348900635"><ele>1193.0</ele><time>2026-04-27T08:28:06.999Z</time></trkpt><trkpt lat="32.09747454501513" lon="-4.367253362438282"><ele>1192.0</ele><time>2026-04-27T08:28:07.999Z</time></trkpt><trkpt lat="32.09764777996393" lon="-4.367045075704431"><ele>1192.0</ele><time>2026-04-27T08:28:08.999Z</time></trkpt><trkpt lat="32.097825429841436" lon="-4.366850870640455"><ele>1192.0</ele><time>2026-04-27T08:28:09.999Z</time></trkpt><trkpt lat="32.09800876917858" lon="-4.366666499648035"><ele>1192.0</ele><time>2026-04-27T08:28:10.999Z</time></trkpt><trkpt lat="32.098205999780745" lon="-4.366490684083854"><ele>1192.0</ele><time>2026-04-27T08:28:11.999Z</time></trkpt><trkpt lat="32.0984178228364" lon="-4.366320200227227"><ele>1189.5</ele><time>2026-04-27T08:28:12.999Z</time></trkpt><trkpt lat="32.09863917703668" lon="-4.366161307684365"><ele>1187.0</ele><time>2026-04-27T08:28:13.999Z</time></trkpt><trkpt lat="32.09887067824064" lon="-4.366014454517594"><ele>1184.0</ele><time>2026-04-27T08:28:14.999Z</time></trkpt><trkpt lat="32.099115254244964" lon="-4.365883610745642"><ele>1181.0</ele><time>2026-04-27T08:28:15.999Z</time></trkpt><trkpt lat="32.099365164873966" lon="-4.365770004378934"><ele>1181.0</ele><time>2026-04-27T08:28:16.999Z</time></trkpt><trkpt lat="32.09962667344419" lon="-4.365669021458492"><ele>1181.0</ele><time>2026-04-27T08:28:17.999Z</time></trkpt><trkpt lat="32.0998980366588" lon="-4.365584164180523"><ele>1190.0</ele><time>2026-04-27T08:28:18.999Z</time></trkpt><trkpt lat="32.10017605259495" lon="-4.365517211107803"><ele>1199.0</ele><time>2026-04-27T08:28:19.999Z</time></trkpt><trkpt lat="32.10045923510405" lon="-4.36546915425826"><ele>1199.0</ele><time>2026-04-27T08:28:20.999Z</time></trkpt><trkpt lat="32.100744629726485" lon="-4.365442637069283"><ele>1199.0</ele><time>2026-04-27T08:28:21.999Z</time></trkpt><trkpt lat="32.10103346036715" lon="-4.3654381302639855"><ele>1199.0</ele><time>2026-04-27T08:28:22.999Z</time></trkpt><trkpt lat="32.10132251219018" lon="-4.365449079005212"><ele>1199.0</ele><time>2026-04-27T08:28:23.999Z</time></trkpt><trkpt lat="32.101607314762866" lon="-4.365462849155404"><ele>1200.5</ele><time>2026-04-27T08:28:24.999Z</time></trkpt><trkpt lat="32.10189454972269" lon="-4.365468406433484"><ele>1202.0</ele><time>2026-04-27T08:28:25.999Z</time></trkpt><trkpt lat="32.102183826191265" lon="-4.36546174531267"><ele>1199.5</ele><time>2026-04-27T08:28:26.999Z</time></trkpt><trkpt lat="32.102466527493064" lon="-4.365445165376119"><ele>1197.0</ele><time>2026-04-27T08:28:28Z</time></trkpt><trkpt lat="32.102725284939204" lon="-4.365420328206368"><ele>1197.0</ele><time>2026-04-27T08:28:29Z</time></trkpt><trkpt lat="32.10297112432687" lon="-4.365395279078248"><ele>1197.0</ele><time>2026-04-27T08:28:30Z</time></trkpt><trkpt lat="32.103215654666094" lon="-4.365374228486315"><ele>1197.5</ele><time>2026-04-27T08:28:31Z</time></trkpt><trkpt lat="32.10345882784275" lon="-4.365353989792869"><ele>1198.0</ele><time>2026-04-27T08:28:32Z</time></trkpt><trkpt lat="32.10369309847445" lon="-4.365329400923545"><ele>1198.0</ele><time>2026-04-27T08:28:33Z</time></trkpt><trkpt lat="32.103927140241204" lon="-4.365308177005626"><ele>1198.0</ele><time>2026-04-27T08:28:34Z</time></trkpt><trkpt lat="32.10416198258839" lon="-4.365290718641606"><ele>1197.5</ele><time>2026-04-27T08:28:35Z</time></trkpt><trkpt lat="32.104395326901745" lon="-4.365269022729187"><ele>1197.0</ele><time>2026-04-27T08:28:36Z</time></trkpt><trkpt lat="32.10463670538566" lon="-4.365233252111288"><ele>1197.0</ele><time>2026-04-27T08:28:37Z</time></trkpt><trkpt lat="32.10488821032906" lon="-4.365178460915848"><ele>1197.0</ele><time>2026-04-27T08:28:38Z</time></trkpt><trkpt lat="32.10514904611408" lon="-4.365112768166913"><ele>1196.5</ele><time>2026-04-27T08:28:39Z</time></trkpt><trkpt lat="32.105419219659915" lon="-4.365045157803808"><ele>1196.0</ele><time>2026-04-27T08:28:40Z</time></trkpt><trkpt lat="32.10569829640397" lon="-4.364975435510642"><ele>1192.5</ele><time>2026-04-27T08:28:41Z</time></trkpt><trkpt lat="32.10598495787294" lon="-4.364904266540318"><ele>1189.0</ele><time>2026-04-27T08:28:42Z</time></trkpt><trkpt lat="32.106279184512815" lon="-4.364830129310417"><ele>1189.0</ele><time>2026-04-27T08:28:43Z</time></trkpt><trkpt lat="32.10657484030466" lon="-4.364753295796331"><ele>1189.0</ele><time>2026-04-27T08:28:44Z</time></trkpt><trkpt lat="32.10686309325322" lon="-4.364678303941809"><ele>1189.0</ele><time>2026-04-27T08:28:45Z</time></trkpt><trkpt lat="32.10714523098789" lon="-4.364604005031614"><ele>1189.0</ele><time>2026-04-27T08:28:46Z</time></trkpt><trkpt lat="32.10742077252045" lon="-4.364531966127138"><ele>1189.0</ele><time>2026-04-27T08:28:47Z</time></trkpt><trkpt lat="32.107697825128625" lon="-4.364466088641526"><ele>1189.0</ele><time>2026-04-27T08:28:48Z</time></trkpt><trkpt lat="32.1079799556687" lon="-4.364416966790769"><ele>1187.0</ele><time>2026-04-27T08:28:49Z</time></trkpt><trkpt lat="32.108261738199666" lon="-4.364402355339537"><ele>1185.0</ele><time>2026-04-27T08:28:50Z</time></trkpt><trkpt lat="32.10853813760727" lon="-4.36442565952352"><ele>1185.0</ele><time>2026-04-27T08:28:51Z</time></trkpt><trkpt lat="32.1088038426629" lon="-4.3644736543470035"><ele>1185.0</ele><time>2026-04-27T08:28:52Z</time></trkpt><trkpt lat="32.1090560111398" lon="-4.364529817119462"><ele>1186.0</ele><time>2026-04-27T08:28:53Z</time></trkpt><trkpt lat="32.10929376780027" lon="-4.364583657696464"><ele>1187.0</ele><time>2026-04-27T08:28:54Z</time></trkpt><trkpt lat="32.1095193084752" lon="-4.364628115053803"><ele>1187.0</ele><time>2026-04-27T08:28:55Z</time></trkpt><trkpt lat="32.109734721184985" lon="-4.36466775116446"><ele>1187.0</ele><time>2026-04-27T08:28:56Z</time></trkpt><trkpt lat="32.10994831555444" lon="-4.364699855443476"><ele>1187.0</ele><time>2026-04-27T08:28:57Z</time></trkpt><trkpt lat="32.11016914151931" lon="-4.3647205040823955"><ele>1187.5</ele><time>2026-04-27T08:28:58Z</time></trkpt><trkpt lat="32.110394423234226" lon="-4.36471871330327"><ele>1188.0</ele><time>2026-04-27T08:28:59Z</time></trkpt><trkpt lat="32.11062272119947" lon="-4.364700462160513"><ele>1188.5</ele><time>2026-04-27T08:29:00Z</time></trkpt><trkpt lat="32.11085600698049" lon="-4.364667411555339"><ele>1189.0</ele><time>2026-04-27T08:29:01Z</time></trkpt><trkpt lat="32.11109181978626" lon="-4.364613238151922"><ele>1189.0</ele><time>2026-04-27T08:29:02Z</time></trkpt><trkpt lat="32.11133401712353" lon="-4.3645461967592265"><ele>1189.0</ele><time>2026-04-27T08:29:03Z</time></trkpt><trkpt lat="32.1115823260815" lon="-4.364475645609531"><ele>1184.5</ele><time>2026-04-27T08:29:04Z</time></trkpt><trkpt lat="32.1118359557641" lon="-4.3644005794634655"><ele>1180.0</ele><time>2026-04-27T08:29:05Z</time></trkpt><trkpt lat="32.11209295232832" lon="-4.364325140962477"><ele>1180.0</ele><time>2026-04-27T08:29:06Z</time></trkpt><trkpt lat="32.11235072577553" lon="-4.3642491737145885"><ele>1180.0</ele><time>2026-04-27T08:29:07Z</time></trkpt><trkpt lat="32.112606335106726" lon="-4.3641745899634925"><ele>1179.0</ele><time>2026-04-27T08:29:08Z</time></trkpt><trkpt lat="32.11285579777328" lon="-4.3641023406468245"><ele>1178.0</ele><time>2026-04-27T08:29:09Z</time></trkpt><trkpt lat="32.11310292333315" lon="-4.3640308178118055"><ele>1178.5</ele><time>2026-04-27T08:29:10Z</time></trkpt><trkpt lat="32.113349718135375" lon="-4.363957600514284"><ele>1179.0</ele><time>2026-04-27T08:29:11Z</time></trkpt><trkpt lat="32.11359654727256" lon="-4.363881554185722"><ele>1179.0</ele><time>2026-04-27T08:29:12Z</time></trkpt><trkpt lat="32.11384132599141" lon="-4.363807482927825"><ele>1179.0</ele><time>2026-04-27T08:29:13Z</time></trkpt><trkpt lat="32.11409071531479" lon="-4.363736389701663"><ele>1179.0</ele><time>2026-04-27T08:29:14Z</time></trkpt><trkpt lat="32.11433582445061" lon="-4.363666622366983"><ele>1179.0</ele><time>2026-04-27T08:29:15Z</time></trkpt><trkpt lat="32.11457973706299" lon="-4.363595270117725"><ele>1179.0</ele><time>2026-04-27T08:29:16Z</time></trkpt><trkpt lat="32.114818289393995" lon="-4.363520480541753"><ele>1179.0</ele><time>2026-04-27T08:29:17Z</time></trkpt><trkpt lat="32.11505673154435" lon="-4.363440961023947"><ele>1178.5</ele><time>2026-04-27T08:29:18Z</time></trkpt><trkpt lat="32.115299716620186" lon="-4.3633498685020715"><ele>1178.0</ele><time>2026-04-27T08:29:19Z</time></trkpt><trkpt lat="32.115538475425005" lon="-4.3632406123033025"><ele>1180.0</ele><time>2026-04-27T08:29:20Z</time></trkpt><trkpt lat="32.11576760648388" lon="-4.36311045418442"><ele>1182.0</ele><time>2026-04-27T08:29:21Z</time></trkpt><trkpt lat="32.115984718104336" lon="-4.362977810241957"><ele>1187.5</ele><time>2026-04-27T08:29:22Z</time></trkpt><trkpt lat="32.11619653200937" lon="-4.362860856114304"><ele>1193.0</ele><time>2026-04-27T08:29:23Z</time></trkpt><trkpt lat="32.116396921992894" lon="-4.362764833231558"><ele>1191.0</ele><time>2026-04-27T08:29:24Z</time></trkpt><trkpt lat="32.116587937188754" lon="-4.362683601384434"><ele>1189.0</ele><time>2026-04-27T08:29:25Z</time></trkpt><trkpt lat="32.11678047847414" lon="-4.362625226398618"><ele>1187.0</ele><time>2026-04-27T08:29:26Z</time></trkpt><trkpt lat="32.11697800500216" lon="-4.36258780519487"><ele>1187.0</ele><time>2026-04-27T08:29:27Z</time></trkpt><trkpt lat="32.117178873791005" lon="-4.3625636444087075"><ele>1187.0</ele><time>2026-04-27T08:29:28Z</time></trkpt><trkpt lat="32.117384359935684" lon="-4.362552411307764"><ele>1187.0</ele><time>2026-04-27T08:29:29Z</time></trkpt><trkpt lat="32.1175942135068" lon="-4.362559939509211"><ele>1186.0</ele><time>2026-04-27T08:29:30Z</time></trkpt><trkpt lat="32.117807836397745" lon="-4.362583458579766"><ele>1185.0</ele><time>2026-04-27T08:29:31Z</time></trkpt><trkpt lat="32.11801896747773" lon="-4.362615910727701"><ele>1184.0</ele><time>2026-04-27T08:29:32Z</time></trkpt><trkpt lat="32.1182271495853" lon="-4.362648675080388"><ele>1185.0</ele><time>2026-04-27T08:29:33Z</time></trkpt><trkpt lat="32.118434350988245" lon="-4.362686973696098"><ele>1186.0</ele><time>2026-04-27T08:29:34Z</time></trkpt><trkpt lat="32.118636914313555" lon="-4.362737897278168"><ele>1187.0</ele><time>2026-04-27T08:29:35Z</time></trkpt><trkpt lat="32.118830123474034" lon="-4.362803102143986"><ele>1187.0</ele><time>2026-04-27T08:29:36Z</time></trkpt><trkpt lat="32.11897948606771" lon="-4.362871724837687"><ele>1187.0</ele><time>2026-04-27T08:29:37Z</time></trkpt><trkpt lat="32.11909514902736" lon="-4.36293268395644"><ele>1187.0</ele><time>2026-04-27T08:29:38Z</time></trkpt><trkpt lat="32.11920844805079" lon="-4.362990053250575"><ele>1187.0</ele><time>2026-04-27T08:29:39Z</time></trkpt><trkpt lat="32.11933274695102" lon="-4.363017936278888"><ele>1185.5</ele><time>2026-04-27T08:29:40Z</time></trkpt><trkpt lat="32.11943488814878" lon="-4.363119454498533"><ele>1184.0</ele><time>2026-04-27T08:29:41Z</time></trkpt><trkpt lat="32.11954679615812" lon="-4.363179702053937"><ele>1182.5</ele><time>2026-04-27T08:29:42Z</time></trkpt><trkpt lat="32.11966287375919" lon="-4.36323854060265"><ele>1181.0</ele><time>2026-04-27T08:29:43Z</time></trkpt><trkpt lat="32.1197809548525" lon="-4.363300024216734"><ele>1181.0</ele><time>2026-04-27T08:29:44Z</time></trkpt><trkpt lat="32.119899230899506" lon="-4.363364744019349"><ele>1181.0</ele><time>2026-04-27T08:29:45Z</time></trkpt><trkpt lat="32.120019155567505" lon="-4.36342985798901"><ele>1181.0</ele><time>2026-04-27T08:29:46Z</time></trkpt><trkpt lat="32.12014197670828" lon="-4.363493482455013"><ele>1181.0</ele><time>2026-04-27T08:29:47Z</time></trkpt><trkpt lat="32.12026922479544" lon="-4.363554525264954"><ele>1182.25</ele><time>2026-04-27T08:29:48Z</time></trkpt><trkpt lat="32.12040194962655" lon="-4.363616114886963"><ele>1183.5</ele><time>2026-04-27T08:29:49Z</time></trkpt><trkpt lat="32.12054086193969" lon="-4.363679679129337"><ele>1184.75</ele><time>2026-04-27T08:29:49.999Z</time></trkpt><trkpt lat="32.120685650691414" lon="-4.363742832065265"><ele>1186.0</ele><time>2026-04-27T08:29:50.999Z</time></trkpt><trkpt lat="32.1208364584577" lon="-4.363805527443237"><ele>1184.0</ele><time>2026-04-27T08:29:51.999Z</time></trkpt><trkpt lat="32.120993728689776" lon="-4.363869954654138"><ele>1182.0</ele><time>2026-04-27T08:29:52.999Z</time></trkpt><trkpt lat="32.12115984057163" lon="-4.363936193609503"><ele>1180.0</ele><time>2026-04-27T08:29:53.999Z</time></trkpt><trkpt lat="32.12133722803748" lon="-4.364007227416773"><ele>1180.0</ele><time>2026-04-27T08:29:54.999Z</time></trkpt><trkpt lat="32.12152932966414" lon="-4.364082902208941"><ele>1180.0</ele><time>2026-04-27T08:29:55.999Z</time></trkpt><trkpt lat="32.121716008440714" lon="-4.36415379005224"><ele>1180.0</ele><time>2026-04-27T08:29:56.999Z</time></trkpt><trkpt lat="32.121907446872775" lon="-4.3642194216207875"><ele>1180.6666666666665</ele><time>2026-04-27T08:29:57.999Z</time></trkpt><trkpt lat="32.12210129392332" lon="-4.364271656533834"><ele>1181.3333333333333</ele><time>2026-04-27T08:29:58.999Z</time></trkpt><trkpt lat="32.122298339585406" lon="-4.364308770654104"><ele>1182.0</ele><time>2026-04-27T08:29:59.999Z</time></trkpt><trkpt lat="32.12249892034281" lon="-4.36432886321235"><ele>1183.3333333333333</ele><time>2026-04-27T08:30:00.999Z</time></trkpt><trkpt lat="32.12270122848126" lon="-4.3643293975013915"><ele>1184.6666666666665</ele><time>2026-04-27T08:30:01.999Z</time></trkpt><trkpt lat="32.12290516270565" lon="-4.364315959076978"><ele>1186.0</ele><time>2026-04-27T08:30:02.999Z</time></trkpt><trkpt lat="32.123103190450536" lon="-4.3642951788309965"><ele>1187.3333333333333</ele><time>2026-04-27T08:30:03.999Z</time></trkpt><trkpt lat="32.12329353382725" lon="-4.364274676598026"><ele>1188.6666666666667</ele><time>2026-04-27T08:30:04.999Z</time></trkpt><trkpt lat="32.123482138359826" lon="-4.364254366558555"><ele>1190.0</ele><time>2026-04-27T08:30:05.999Z</time></trkpt><trkpt lat="32.123675450376126" lon="-4.364233327349581"><ele>1190.0</ele><time>2026-04-27T08:30:06.999Z</time></trkpt><trkpt lat="32.12387036128521" lon="-4.364212646924405"><ele>1190.0</ele><time>2026-04-27T08:30:07.999Z</time></trkpt><trkpt lat="32.12406767691216" lon="-4.364192841058584"><ele>1190.0</ele><time>2026-04-27T08:30:08.999Z</time></trkpt><trkpt lat="32.124265724428895" lon="-4.364172538150875"><ele>1190.6666666666667</ele><time>2026-04-27T08:30:09.999Z</time></trkpt><trkpt lat="32.12446321298893" lon="-4.364166056240608"><ele>1191.3333333333333</ele><time>2026-04-27T08:30:10.999Z</time></trkpt><trkpt lat="32.1246571318705" lon="-4.3641688561509"><ele>1192.0</ele><time>2026-04-27T08:30:11.999Z</time></trkpt><trkpt lat="32.12485175815826" lon="-4.364188104772662"><ele>1191.6666666666665</ele><time>2026-04-27T08:30:12.999Z</time></trkpt><trkpt lat="32.12503809854547" lon="-4.364228035849129"><ele>1191.3333333333333</ele><time>2026-04-27T08:30:13.999Z</time></trkpt><trkpt lat="32.12522320008725" lon="-4.364281357865562"><ele>1191.0</ele><time>2026-04-27T08:30:14.999Z</time></trkpt><trkpt lat="32.125406621663394" lon="-4.364350565675996"><ele>1191.0</ele><time>2026-04-27T08:30:15.999Z</time></trkpt><trkpt lat="32.12558385864471" lon="-4.3644348851017725"><ele>1191.0</ele><time>2026-04-27T08:30:16.999Z</time></trkpt><trkpt lat="32.125757904161134" lon="-4.364533027765556"><ele>1191.0</ele><time>2026-04-27T08:30:17.999Z</time></trkpt><trkpt lat="32.12592410160035" lon="-4.3646454111136785"><ele>1189.3333333333333</ele><time>2026-04-27T08:30:18.999Z</time></trkpt><trkpt lat="32.126081941429945" lon="-4.364773295768705"><ele>1187.6666666666665</ele><time>2026-04-27T08:30:19.999Z</time></trkpt><trkpt lat="32.126232743457685" lon="-4.3649077684328095"><ele>1186.0</ele><time>2026-04-27T08:30:20.999Z</time></trkpt><trkpt lat="32.126382107687746" lon="-4.36504020126909"><ele>1186.0</ele><time>2026-04-27T08:30:21.999Z</time></trkpt><trkpt lat="32.126532234429135" lon="-4.365167390796071"><ele>1186.0</ele><time>2026-04-27T08:30:22.999Z</time></trkpt><trkpt lat="32.12669133143992" lon="-4.365296743245069"><ele>1186.0</ele><time>2026-04-27T08:30:23.999Z</time></trkpt><trkpt lat="32.12685669710144" lon="-4.365421956788786"><ele>1185.3333333333333</ele><time>2026-04-27T08:30:24.999Z</time></trkpt><trkpt lat="32.127025760445896" lon="-4.365535954353134"><ele>1184.6666666666667</ele><time>2026-04-27T08:30:25.999Z</time></trkpt><trkpt lat="32.12720283259973" lon="-4.365639991105865"><ele>1184.0</ele><time>2026-04-27T08:30:26.999Z</time></trkpt><trkpt lat="32.12738428640227" lon="-4.36573128813373"><ele>1184.3333333333335</ele><time>2026-04-27T08:30:27.999Z</time></trkpt><trkpt lat="32.1275721507031" lon="-4.36580393025156"><ele>1184.6666666666667</ele><time>2026-04-27T08:30:28.999Z</time></trkpt><trkpt lat="32.12776572358642" lon="-4.365852728632405"><ele>1185.0</ele><time>2026-04-27T08:30:29.999Z</time></trkpt><trkpt lat="32.12796518882863" lon="-4.3658805768132565"><ele>1185.0</ele><time>2026-04-27T08:30:30.999Z</time></trkpt><trkpt lat="32.12816597510487" lon="-4.365896394222403"><ele>1185.0</ele><time>2026-04-27T08:30:31.999Z</time></trkpt><trkpt lat="32.12837122122868" lon="-4.365896781844775"><ele>1185.0</ele><time>2026-04-27T08:30:32.999Z</time></trkpt><trkpt lat="32.128581526174976" lon="-4.365880850447025"><ele>1185.0</ele><time>2026-04-27T08:30:34Z</time></trkpt><trkpt lat="32.128798625112815" lon="-4.365855218830993"><ele>1185.0</ele><time>2026-04-27T08:30:35Z</time></trkpt><trkpt lat="32.129018484173024" lon="-4.365827282503274"><ele>1185.0</ele><time>2026-04-27T08:30:36Z</time></trkpt><trkpt lat="32.129242018720156" lon="-4.365798694186314"><ele>1184.5</ele><time>2026-04-27T08:30:37Z</time></trkpt><trkpt lat="32.12946897275058" lon="-4.36577118434583"><ele>1184.0</ele><time>2026-04-27T08:30:38Z</time></trkpt><trkpt lat="32.12969713532853" lon="-4.365740573790541"><ele>1181.5</ele><time>2026-04-27T08:30:39Z</time></trkpt><trkpt lat="32.12992567630425" lon="-4.365706208009433"><ele>1179.0</ele><time>2026-04-27T08:30:40Z</time></trkpt><trkpt lat="32.13015135558675" lon="-4.365668637551867"><ele>1179.0</ele><time>2026-04-27T08:30:41Z</time></trkpt><trkpt lat="32.130368748136895" lon="-4.365629391848664"><ele>1179.0</ele><time>2026-04-27T08:30:42Z</time></trkpt><trkpt lat="32.130573400989384" lon="-4.365589352112777"><ele>1179.0</ele><time>2026-04-27T08:30:43Z</time></trkpt><trkpt lat="32.13077646731971" lon="-4.365545167002102"><ele>1185.6666666666667</ele><time>2026-04-27T08:30:44Z</time></trkpt><trkpt lat="32.13097741122965" lon="-4.365500772046207"><ele>1192.3333333333335</ele><time>2026-04-27T08:30:45Z</time></trkpt><trkpt lat="32.13116482924159" lon="-4.365460231881375"><ele>1199.0</ele><time>2026-04-27T08:30:46Z</time></trkpt><trkpt lat="32.131348618976745" lon="-4.365418778110953"><ele>1199.0</ele><time>2026-04-27T08:30:47Z</time></trkpt><trkpt lat="32.13152947984208" lon="-4.365374979880249"><ele>1199.0</ele><time>2026-04-27T08:30:48Z</time></trkpt><trkpt lat="32.13170372289755" lon="-4.365328372755001"><ele>1199.0</ele><time>2026-04-27T08:30:49Z</time></trkpt><trkpt lat="32.13187504479694" lon="-4.365281803361324"><ele>1202.3333333333335</ele><time>2026-04-27T08:30:50Z</time></trkpt><trkpt lat="32.13204318594786" lon="-4.365237071483717"><ele>1205.6666666666667</ele><time>2026-04-27T08:30:51Z</time></trkpt><trkpt lat="32.13219627471932" lon="-4.365192213979279"><ele>1209.0</ele><time>2026-04-27T08:30:52Z</time></trkpt><trkpt lat="32.13234043454697" lon="-4.365149991379992"><ele>1209.0</ele><time>2026-04-27T08:30:53Z</time></trkpt><trkpt lat="32.1324805556746" lon="-4.365098031116512"><ele>1209.0</ele><time>2026-04-27T08:30:54Z</time></trkpt><trkpt lat="32.13262696928594" lon="-4.365034234608387"><ele>1209.0</ele><time>2026-04-27T08:30:55Z</time></trkpt><trkpt lat="32.13277563426153" lon="-4.364960242006074"><ele>1209.0</ele><time>2026-04-27T08:30:56Z</time></trkpt><trkpt lat="32.13292549984002" lon="-4.364880418523668"><ele>1209.0</ele><time>2026-04-27T08:30:57Z</time></trkpt><trkpt lat="32.13307776693099" lon="-4.364802409884768"><ele>1209.0</ele><time>2026-04-27T08:30:58Z</time></trkpt><trkpt lat="32.13323408935898" lon="-4.3647229930269935"><ele>1212.3333333333333</ele><time>2026-04-27T08:30:59Z</time></trkpt><trkpt lat="32.133394105703715" lon="-4.364640671043785"><ele>1215.6666666666665</ele><time>2026-04-27T08:31:00Z</time></trkpt><trkpt lat="32.13355622127603" lon="-4.3645570608514435"><ele>1219.0</ele><time>2026-04-27T08:31:01Z</time></trkpt><trkpt lat="32.133725736253275" lon="-4.364474257836229"><ele>1219.0</ele><time>2026-04-27T08:31:02Z</time></trkpt><trkpt lat="32.13391059059906" lon="-4.364395867546537"><ele>1219.0</ele><time>2026-04-27T08:31:03Z</time></trkpt><trkpt lat="32.13412520316914" lon="-4.364311838880091"><ele>1219.0</ele><time>2026-04-27T08:31:04Z</time></trkpt><trkpt lat="32.13434848434162" lon="-4.364226679616289"><ele>1206.5</ele><time>2026-04-27T08:31:05Z</time></trkpt><trkpt lat="32.13458502267542" lon="-4.364130542675727"><ele>1194.0</ele><time>2026-04-27T08:31:06Z</time></trkpt><trkpt lat="32.13481133321517" lon="-4.364028007284325"><ele>1190.5</ele><time>2026-04-27T08:31:07Z</time></trkpt><trkpt lat="32.13502711595469" lon="-4.363930111541548"><ele>1187.0</ele><time>2026-04-27T08:31:08Z</time></trkpt><trkpt lat="32.135237474120196" lon="-4.363837754288605"><ele>1192.0</ele><time>2026-04-27T08:31:09Z</time></trkpt><trkpt lat="32.1354376924516" lon="-4.363753416957165"><ele>1197.0</ele><time>2026-04-27T08:31:10Z</time></trkpt><trkpt lat="32.13563119069488" lon="-4.363684786689558"><ele>1202.0</ele><time>2026-04-27T08:31:11Z</time></trkpt><trkpt lat="32.135824107220664" lon="-4.363630004423435"><ele>1202.0</ele><time>2026-04-27T08:31:12Z</time></trkpt><trkpt lat="32.136019021245254" lon="-4.363583513263871"><ele>1202.0</ele><time>2026-04-27T08:31:13Z</time></trkpt><trkpt lat="32.136212895481556" lon="-4.363540483356824"><ele>1202.0</ele><time>2026-04-27T08:31:14Z</time></trkpt><trkpt lat="32.136407308264104" lon="-4.363499876002489"><ele>1197.3333333333335</ele><time>2026-04-27T08:31:15Z</time></trkpt><trkpt lat="32.136601650857685" lon="-4.363467798010691"><ele>1192.6666666666667</ele><time>2026-04-27T08:31:16Z</time></trkpt><trkpt lat="32.136799079619166" lon="-4.363445595422625"><ele>1188.0</ele><time>2026-04-27T08:31:17Z</time></trkpt><trkpt lat="32.13699592320596" lon="-4.363434741716478"><ele>1188.0</ele><time>2026-04-27T08:31:18Z</time></trkpt><trkpt lat="32.13719365210093" lon="-4.363428494540156"><ele>1188.0</ele><time>2026-04-27T08:31:19Z</time></trkpt><trkpt lat="32.137386560392216" lon="-4.363425662383989"><ele>1188.0</ele><time>2026-04-27T08:31:20Z</time></trkpt><trkpt lat="32.13757604117516" lon="-4.363421038939201"><ele>1187.6666666666667</ele><time>2026-04-27T08:31:21Z</time></trkpt><trkpt lat="32.137760765708805" lon="-4.363416507272685"><ele>1187.3333333333335</ele><time>2026-04-27T08:31:22Z</time></trkpt><trkpt lat="32.13793618204165" lon="-4.363412907468494"><ele>1187.0</ele><time>2026-04-27T08:31:23Z</time></trkpt><trkpt lat="32.138108092788976" lon="-4.36341199840308"><ele>1186.0</ele><time>2026-04-27T08:31:24Z</time></trkpt><trkpt lat="32.13828199584306" lon="-4.363412289050257"><ele>1185.0</ele><time>2026-04-27T08:31:25Z</time></trkpt><trkpt lat="32.13845956543139" lon="-4.363409523088629"><ele>1184.0</ele><time>2026-04-27T08:31:26Z</time></trkpt><trkpt lat="32.13863822234188" lon="-4.363403425739964"><ele>1184.0</ele><time>2026-04-27T08:31:27Z</time></trkpt><trkpt lat="32.13881677264686" lon="-4.363396347640552"><ele>1184.0</ele><time>2026-04-27T08:31:28Z</time></trkpt><trkpt lat="32.13898957227039" lon="-4.36338961980824"><ele>1184.0</ele><time>2026-04-27T08:31:29Z</time></trkpt><trkpt lat="32.13914951009013" lon="-4.363386263265251"><ele>1185.0</ele><time>2026-04-27T08:31:30Z</time></trkpt><trkpt lat="32.13930973721413" lon="-4.36338250958187"><ele>1186.0</ele><time>2026-04-27T08:31:31Z</time></trkpt><trkpt lat="32.13946852344476" lon="-4.363379803408003"><ele>1187.0</ele><time>2026-04-27T08:31:32Z</time></trkpt><trkpt lat="32.13962447372653" lon="-4.363378883170668"><ele>1187.0</ele><time>2026-04-27T08:31:33Z</time></trkpt><trkpt lat="32.139777351388545" lon="-4.363375703636494"><ele>1187.0</ele><time>2026-04-27T08:31:34Z</time></trkpt><trkpt lat="32.139932387371545" lon="-4.363375602604049"><ele>1187.0</ele><time>2026-04-27T08:31:35Z</time></trkpt><trkpt lat="32.14008883346817" lon="-4.363390413786081"><ele>1189.6666666666667</ele><time>2026-04-27T08:31:36Z</time></trkpt><trkpt lat="32.14024699386877" lon="-4.363427201187465"><ele>1192.3333333333333</ele><time>2026-04-27T08:31:37Z</time></trkpt><trkpt lat="32.140404484372525" lon="-4.363483959731303"><ele>1195.0</ele><time>2026-04-27T08:31:38Z</time></trkpt><trkpt lat="32.14056202703994" lon="-4.363549156610779"><ele>1199.3333333333333</ele><time>2026-04-27T08:31:39Z</time></trkpt><trkpt lat="32.140718839302224" lon="-4.363618169198984"><ele>1203.6666666666667</ele><time>2026-04-27T08:31:40Z</time></trkpt><trkpt lat="32.140876537993634" lon="-4.36369289636285"><ele>1208.0</ele><time>2026-04-27T08:31:41Z</time></trkpt><trkpt lat="32.14103417116129" lon="-4.363773582342041"><ele>1208.0</ele><time>2026-04-27T08:31:42Z</time></trkpt><trkpt lat="32.14119090276994" lon="-4.3638550811464825"><ele>1208.0</ele><time>2026-04-27T08:31:43Z</time></trkpt><trkpt lat="32.141346025551144" lon="-4.363934948180383"><ele>1208.0</ele><time>2026-04-27T08:31:44Z</time></trkpt><trkpt lat="32.14150069699969" lon="-4.364018981395335"><ele>1203.0</ele><time>2026-04-27T08:31:45Z</time></trkpt><trkpt lat="32.141661811978096" lon="-4.364094287517841"><ele>1198.0</ele><time>2026-04-27T08:31:46Z</time></trkpt><trkpt lat="32.141824675200716" lon="-4.364167766022978"><ele>1193.0</ele><time>2026-04-27T08:31:47Z</time></trkpt><trkpt lat="32.14199283638959" lon="-4.364241743028262"><ele>1193.0</ele><time>2026-04-27T08:31:48Z</time></trkpt><trkpt lat="32.142164978230824" lon="-4.364315362586814"><ele>1193.0</ele><time>2026-04-27T08:31:49Z</time></trkpt><trkpt lat="32.14234078292111" lon="-4.364387798502543"><ele>1193.0</ele><time>2026-04-27T08:31:50Z</time></trkpt><trkpt lat="32.142514723627194" lon="-4.364461628207178"><ele>1197.6666666666667</ele><time>2026-04-27T08:31:50.999Z</time></trkpt><trkpt lat="32.142687484522725" lon="-4.364534733898943"><ele>1202.3333333333333</ele><time>2026-04-27T08:31:51.999Z</time></trkpt><trkpt lat="32.1428594199034" lon="-4.364613292646323"><ele>1207.0</ele><time>2026-04-27T08:31:52.999Z</time></trkpt><trkpt lat="32.14303229200024" lon="-4.364685933422621"><ele>1200.3333333333333</ele><time>2026-04-27T08:31:53.999Z</time></trkpt><trkpt lat="32.143208107374846" lon="-4.364757780233469"><ele>1193.6666666666667</ele><time>2026-04-27T08:31:54.999Z</time></trkpt><trkpt lat="32.14338738864316" lon="-4.3648341237761095"><ele>1187.0</ele><time>2026-04-27T08:31:55.999Z</time></trkpt><trkpt lat="32.14356797225784" lon="-4.364909806073132"><ele>1187.0</ele><time>2026-04-27T08:31:56.999Z</time></trkpt><trkpt lat="32.14374796625262" lon="-4.36498303754434"><ele>1187.0</ele><time>2026-04-27T08:31:57.999Z</time></trkpt><trkpt lat="32.14392864489894" lon="-4.365055571220384"><ele>1187.0</ele><time>2026-04-27T08:31:58.999Z</time></trkpt><trkpt lat="32.14410636245477" lon="-4.365134443085404"><ele>1191.0</ele><time>2026-04-27T08:31:59.999Z</time></trkpt><trkpt lat="32.14427897943733" lon="-4.365219648912934"><ele>1195.0</ele><time>2026-04-27T08:32:00.999Z</time></trkpt><trkpt lat="32.14445045109159" lon="-4.365309090910283"><ele>1199.0</ele><time>2026-04-27T08:32:01.999Z</time></trkpt><trkpt lat="32.14461498108712" lon="-4.36540332068025"><ele>1199.0</ele><time>2026-04-27T08:32:02.999Z</time></trkpt><trkpt lat="32.14476748512455" lon="-4.365504354052435"><ele>1199.0</ele><time>2026-04-27T08:32:03.999Z</time></trkpt><trkpt lat="32.144915915649676" lon="-4.365610584850671"><ele>1199.0</ele><time>2026-04-27T08:32:04.999Z</time></trkpt><trkpt lat="32.145059673943415" lon="-4.365721860628281"><ele>1198.3333333333335</ele><time>2026-04-27T08:32:05.999Z</time></trkpt><trkpt lat="32.14520135456966" lon="-4.365831943793141"><ele>1197.6666666666667</ele><time>2026-04-27T08:32:06.999Z</time></trkpt><trkpt lat="32.145338336479895" lon="-4.365938587589284"><ele>1197.0</ele><time>2026-04-27T08:32:07.999Z</time></trkpt><trkpt lat="32.14547144901208" lon="-4.366046956674228"><ele>1197.0</ele><time>2026-04-27T08:32:08.999Z</time></trkpt><trkpt lat="32.14559900091694" lon="-4.366156578689908"><ele>1197.0</ele><time>2026-04-27T08:32:09.999Z</time></trkpt><trkpt lat="32.14572488100356" lon="-4.366269254878759"><ele>1197.0</ele><time>2026-04-27T08:32:10.999Z</time></trkpt><trkpt lat="32.14585192776629" lon="-4.36638563733333"><ele>1193.3333333333333</ele><time>2026-04-27T08:32:11.999Z</time></trkpt><trkpt lat="32.1459760286064" lon="-4.366512229211822"><ele>1189.6666666666665</ele><time>2026-04-27T08:32:12.999Z</time></trkpt><trkpt lat="32.146098242351485" lon="-4.366646356166315"><ele>1186.0</ele><time>2026-04-27T08:32:13.999Z</time></trkpt><trkpt lat="32.14621615950561" lon="-4.3667842270078525"><ele>1186.0</ele><time>2026-04-27T08:32:14.999Z</time></trkpt><trkpt lat="32.1463299217131" lon="-4.366929578327873"><ele>1186.0</ele><time>2026-04-27T08:32:15.999Z</time></trkpt><trkpt lat="32.1464393640438" lon="-4.367078907007022"><ele>1186.0</ele><time>2026-04-27T08:32:16.999Z</time></trkpt><trkpt lat="32.14654281774724" lon="-4.367234141779842"><ele>1189.0</ele><time>2026-04-27T08:32:17.999Z</time></trkpt><trkpt lat="32.14663687872911" lon="-4.367394890641367"><ele>1192.0</ele><time>2026-04-27T08:32:18.999Z</time></trkpt><trkpt lat="32.146717046533006" lon="-4.3675563186096005"><ele>1195.0</ele><time>2026-04-27T08:32:19.999Z</time></trkpt><trkpt lat="32.14678818939409" lon="-4.3677219716473985"><ele>1195.0</ele><time>2026-04-27T08:32:20.999Z</time></trkpt><trkpt lat="32.14685438657309" lon="-4.367893751349998"><ele>1195.0</ele><time>2026-04-27T08:32:21.999Z</time></trkpt><trkpt lat="32.14691296785517" lon="-4.368098034790609"><ele>1195.0</ele><time>2026-04-27T08:32:22.999Z</time></trkpt><trkpt lat="32.14696871570458" lon="-4.368344608953974"><ele>1191.0</ele><time>2026-04-27T08:32:23.999Z</time></trkpt><trkpt lat="32.14702844527788" lon="-4.368618986943637"><ele>1187.0</ele><time>2026-04-27T08:32:24.999Z</time></trkpt><trkpt lat="32.14708917105541" lon="-4.368909635495632"><ele>1187.0</ele><time>2026-04-27T08:32:25.999Z</time></trkpt><trkpt lat="32.147153428694295" lon="-4.369209191329141"><ele>1187.0</ele><time>2026-04-27T08:32:26.999Z</time></trkpt><trkpt lat="32.14721906158847" lon="-4.369518491737575"><ele>1184.5</ele><time>2026-04-27T08:32:27.999Z</time></trkpt><trkpt lat="32.147284187227584" lon="-4.369834597827036"><ele>1182.0</ele><time>2026-04-27T08:32:28.999Z</time></trkpt><trkpt lat="32.14735003266649" lon="-4.370148231480768"><ele>1189.5</ele><time>2026-04-27T08:32:29.999Z</time></trkpt><trkpt lat="32.14741433743212" lon="-4.370447650260951"><ele>1197.0</ele><time>2026-04-27T08:32:30.999Z</time></trkpt><trkpt lat="32.147481117630385" lon="-4.37073831080094"><ele>1197.0</ele><time>2026-04-27T08:32:31.999Z</time></trkpt><trkpt lat="32.147563260694504" lon="-4.3710218156978655"><ele>1197.0</ele><time>2026-04-27T08:32:32.999Z</time></trkpt><trkpt lat="32.14766175737428" lon="-4.371290675468675"><ele>1195.0</ele><time>2026-04-27T08:32:33.999Z</time></trkpt><trkpt lat="32.1477783624165" lon="-4.371552970973261"><ele>1193.0</ele><time>2026-04-27T08:32:34.999Z</time></trkpt><trkpt lat="32.147917371459634" lon="-4.371805406805266"><ele>1193.0</ele><time>2026-04-27T08:32:35.999Z</time></trkpt><trkpt lat="32.148081178456245" lon="-4.3720470745252396"><ele>1193.0</ele><time>2026-04-27T08:32:36.999Z</time></trkpt><trkpt lat="32.148266811457745" lon="-4.372288549609395"><ele>1196.5</ele><time>2026-04-27T08:32:37.999Z</time></trkpt><trkpt lat="32.14845754480239" lon="-4.372539043426436"><ele>1200.0</ele><time>2026-04-27T08:32:38.999Z</time></trkpt><trkpt lat="32.14864182685963" lon="-4.372797708962669"><ele>1198.5</ele><time>2026-04-27T08:32:40Z</time></trkpt><trkpt lat="32.14881499151848" lon="-4.3730440101522365"><ele>1197.0</ele><time>2026-04-27T08:32:41Z</time></trkpt><trkpt lat="32.148985737709395" lon="-4.373274884434557"><ele>1201.5</ele><time>2026-04-27T08:32:42Z</time></trkpt><trkpt lat="32.14915211795801" lon="-4.373494562942953"><ele>1206.0</ele><time>2026-04-27T08:32:43Z</time></trkpt><trkpt lat="32.149324922001796" lon="-4.3737050130215085"><ele>1203.5</ele><time>2026-04-27T08:32:44Z</time></trkpt><trkpt lat="32.14951286090126" lon="-4.37390270373662"><ele>1201.0</ele><time>2026-04-27T08:32:45Z</time></trkpt><trkpt lat="32.149717060465264" lon="-4.374085390886167"><ele>1204.5</ele><time>2026-04-27T08:32:46Z</time></trkpt><trkpt lat="32.14993534672267" lon="-4.374253763357028"><ele>1208.0</ele><time>2026-04-27T08:32:47Z</time></trkpt><trkpt lat="32.150157340108414" lon="-4.3744068820221775"><ele>1208.0</ele><time>2026-04-27T08:32:48Z</time></trkpt><trkpt lat="32.1503803667025" lon="-4.3745428307993866"><ele>1208.0</ele><time>2026-04-27T08:32:49Z</time></trkpt><trkpt lat="32.15061168081685" lon="-4.374654395636628"><ele>1207.0</ele><time>2026-04-27T08:32:50Z</time></trkpt><trkpt lat="32.15085210737919" lon="-4.374745676948826"><ele>1206.0</ele><time>2026-04-27T08:32:51Z</time></trkpt><trkpt lat="32.15109327049251" lon="-4.374823243710141"><ele>1206.0</ele><time>2026-04-27T08:32:52Z</time></trkpt><trkpt lat="32.15133565413277" lon="-4.37489445218845"><ele>1206.0</ele><time>2026-04-27T08:32:53Z</time></trkpt><trkpt lat="32.15157487117715" lon="-4.374960169400271"><ele>1208.5</ele><time>2026-04-27T08:32:54Z</time></trkpt><trkpt lat="32.15180660431286" lon="-4.37502038063794"><ele>1211.0</ele><time>2026-04-27T08:32:55Z</time></trkpt><trkpt lat="32.15203814226642" lon="-4.375066766554738"><ele>1211.0</ele><time>2026-04-27T08:32:56Z</time></trkpt><trkpt lat="32.15227358834525" lon="-4.3750820565549775"><ele>1211.0</ele><time>2026-04-27T08:32:57Z</time></trkpt><trkpt lat="32.15251251749739" lon="-4.375056202868765"><ele>1211.5</ele><time>2026-04-27T08:32:58Z</time></trkpt><trkpt lat="32.15274864205854" lon="-4.374996339316661"><ele>1212.0</ele><time>2026-04-27T08:32:59Z</time></trkpt><trkpt lat="32.15297266634892" lon="-4.374913182852971"><ele>1212.0</ele><time>2026-04-27T08:33:00Z</time></trkpt><trkpt lat="32.153179362381906" lon="-4.37480186468043"><ele>1212.0</ele><time>2026-04-27T08:33:01Z</time></trkpt><trkpt lat="32.15337133300826" lon="-4.374659751662616"><ele>1216.0</ele><time>2026-04-27T08:33:02Z</time></trkpt><trkpt lat="32.15355094372849" lon="-4.374487484178048"><ele>1220.0</ele><time>2026-04-27T08:33:03Z</time></trkpt><trkpt lat="32.15370491908302" lon="-4.3742918432001705"><ele>1220.0</ele><time>2026-04-27T08:33:04Z</time></trkpt><trkpt lat="32.153832559416955" lon="-4.37407404366409"><ele>1220.0</ele><time>2026-04-27T08:33:05Z</time></trkpt><trkpt lat="32.153935938906756" lon="-4.3738275779846765"><ele>1223.0</ele><time>2026-04-27T08:33:06Z</time></trkpt><trkpt lat="32.154013306216605" lon="-4.373555819171677"><ele>1226.0</ele><time>2026-04-27T08:33:07Z</time></trkpt><trkpt lat="32.15407465052439" lon="-4.3732593939002875"><ele>1218.0</ele><time>2026-04-27T08:33:08Z</time></trkpt><trkpt lat="32.15413554229272" lon="-4.372948284105341"><ele>1210.0</ele><time>2026-04-27T08:33:09Z</time></trkpt><trkpt lat="32.1541951850549" lon="-4.372630288009706"><ele>1210.0</ele><time>2026-04-27T08:33:10Z</time></trkpt><trkpt lat="32.15425377268005" lon="-4.372318546891666"><ele>1210.0</ele><time>2026-04-27T08:33:11Z</time></trkpt><trkpt lat="32.15430643141561" lon="-4.372017404427346"><ele>1213.5</ele><time>2026-04-27T08:33:12Z</time></trkpt><trkpt lat="32.15433523733355" lon="-4.3717048227939586"><ele>1217.0</ele><time>2026-04-27T08:33:13Z</time></trkpt><trkpt lat="32.154342389121965" lon="-4.37137585194799"><ele>1215.0</ele><time>2026-04-27T08:33:14Z</time></trkpt><trkpt lat="32.15434054358088" lon="-4.371034592145833"><ele>1213.0</ele><time>2026-04-27T08:33:15Z</time></trkpt><trkpt lat="32.15433888271328" lon="-4.370685253289794"><ele>1215.0</ele><time>2026-04-27T08:33:16Z</time></trkpt><trkpt lat="32.15434258486714" lon="-4.370332499154385"><ele>1217.0</ele><time>2026-04-27T08:33:17Z</time></trkpt><trkpt lat="32.15435339164302" lon="-4.369981285070118"><ele>1213.5</ele><time>2026-04-27T08:33:18Z</time></trkpt><trkpt lat="32.154365003382345" lon="-4.369630430651218"><ele>1210.0</ele><time>2026-04-27T08:33:19Z</time></trkpt><trkpt lat="32.15437849497095" lon="-4.369283096091838"><ele>1210.0</ele><time>2026-04-27T08:33:20Z</time></trkpt><trkpt lat="32.1543952738494" lon="-4.368940411243074"><ele>1210.0</ele><time>2026-04-27T08:33:21Z</time></trkpt><trkpt lat="32.15441054338923" lon="-4.368606944293169"><ele>1211.5</ele><time>2026-04-27T08:33:22Z</time></trkpt><trkpt lat="32.15442768310811" lon="-4.368281266705655"><ele>1213.0</ele><time>2026-04-27T08:33:23Z</time></trkpt><trkpt lat="32.15445441807371" lon="-4.367958853720302"><ele>1208.5</ele><time>2026-04-27T08:33:24Z</time></trkpt><trkpt lat="32.15449255518116" lon="-4.367642687048242"><ele>1204.0</ele><time>2026-04-27T08:33:25Z</time></trkpt><trkpt lat="32.154548910002696" lon="-4.3673297056123825"><ele>1228.0</ele><time>2026-04-27T08:33:26Z</time></trkpt><trkpt lat="32.15462433446959" lon="-4.367014396184038"><ele>1252.0</ele><time>2026-04-27T08:33:27Z</time></trkpt><trkpt lat="32.15471973878323" lon="-4.366698153515082"><ele>1252.0</ele><time>2026-04-27T08:33:28Z</time></trkpt><trkpt lat="32.15483464837796" lon="-4.3663869892077605"><ele>1252.0</ele><time>2026-04-27T08:33:29Z</time></trkpt><trkpt lat="32.154963877937654" lon="-4.366080243657092"><ele>1244.5</ele><time>2026-04-27T08:33:30Z</time></trkpt><trkpt lat="32.15510282685324" lon="-4.365784963823134"><ele>1237.0</ele><time>2026-04-27T08:33:31Z</time></trkpt><trkpt lat="32.1552522937677" lon="-4.365499821933969"><ele>1237.0</ele><time>2026-04-27T08:33:32Z</time></trkpt><trkpt lat="32.1554156218248" lon="-4.365225979001231"><ele>1237.0</ele><time>2026-04-27T08:33:33Z</time></trkpt><trkpt lat="32.155597270146274" lon="-4.36496830166692"><ele>1232.0</ele><time>2026-04-27T08:33:34Z</time></trkpt><trkpt lat="32.155793823128505" lon="-4.364726342197253"><ele>1227.0</ele><time>2026-04-27T08:33:35Z</time></trkpt><trkpt lat="32.15600431745055" lon="-4.3645023680443105"><ele>1227.0</ele><time>2026-04-27T08:33:36Z</time></trkpt><trkpt lat="32.15623026978123" lon="-4.364298370059444"><ele>1227.0</ele><time>2026-04-27T08:33:37Z</time></trkpt><trkpt lat="32.15647290274921" lon="-4.364109163808642"><ele>1232.0</ele><time>2026-04-27T08:33:38Z</time></trkpt><trkpt lat="32.15672114521038" lon="-4.363933231822306"><ele>1237.0</ele><time>2026-04-27T08:33:39Z</time></trkpt><trkpt lat="32.15696503484899" lon="-4.3637673708999865"><ele>1237.0</ele><time>2026-04-27T08:33:40Z</time></trkpt><trkpt lat="32.15720624823566" lon="-4.363614342308598"><ele>1237.0</ele><time>2026-04-27T08:33:41Z</time></trkpt><trkpt lat="32.15745172972256" lon="-4.3634822665536905"><ele>1227.0</ele><time>2026-04-27T08:33:42Z</time></trkpt><trkpt lat="32.15769905595601" lon="-4.363373415338923"><ele>1217.0</ele><time>2026-04-27T08:33:43Z</time></trkpt><trkpt lat="32.15793994117304" lon="-4.363282350352678"><ele>1217.0</ele><time>2026-04-27T08:33:44Z</time></trkpt><trkpt lat="32.15817329267154" lon="-4.363206413851714"><ele>1217.0</ele><time>2026-04-27T08:33:45Z</time></trkpt><trkpt lat="32.15840098694014" lon="-4.363148742819519"><ele>1214.5</ele><time>2026-04-27T08:33:46Z</time></trkpt><trkpt lat="32.15863854135506" lon="-4.363116215519723"><ele>1212.0</ele><time>2026-04-27T08:33:47Z</time></trkpt><trkpt lat="32.15888991180271" lon="-4.363106500643819"><ele>1211.5</ele><time>2026-04-27T08:33:48Z</time></trkpt><trkpt lat="32.159149010974524" lon="-4.363109656236274"><ele>1211.0</ele><time>2026-04-27T08:33:49Z</time></trkpt><trkpt lat="32.15940655451072" lon="-4.36311616381131"><ele>1211.0</ele><time>2026-04-27T08:33:50Z</time></trkpt><trkpt lat="32.15965907211624" lon="-4.363133983643916"><ele>1211.0</ele><time>2026-04-27T08:33:51Z</time></trkpt><trkpt lat="32.159916667517834" lon="-4.363175171794099"><ele>1212.5</ele><time>2026-04-27T08:33:52Z</time></trkpt><trkpt lat="32.16017449161478" lon="-4.36324706238003"><ele>1214.0</ele><time>2026-04-27T08:33:53Z</time></trkpt><trkpt lat="32.160437304175126" lon="-4.363349786883359"><ele>1217.5</ele><time>2026-04-27T08:33:54Z</time></trkpt><trkpt lat="32.160702421891294" lon="-4.363469799835963"><ele>1221.0</ele><time>2026-04-27T08:33:54.999Z</time></trkpt><trkpt lat="32.160962944550185" lon="-4.36359265932249"><ele>1221.0</ele><time>2026-04-27T08:33:55.999Z</time></trkpt><trkpt lat="32.161220460246945" lon="-4.363717396548754"><ele>1221.0</ele><time>2026-04-27T08:33:56.999Z</time></trkpt><trkpt lat="32.16147574217489" lon="-4.363854015619447"><ele>1217.0</ele><time>2026-04-27T08:33:57.999Z</time></trkpt><trkpt lat="32.161725077153235" lon="-4.364009087455757"><ele>1213.0</ele><time>2026-04-27T08:33:58.999Z</time></trkpt><trkpt lat="32.16196049519162" lon="-4.364175232506241"><ele>1213.0</ele><time>2026-04-27T08:33:59.999Z</time></trkpt><trkpt lat="32.162185971319566" lon="-4.36435506509587"><ele>1213.0</ele><time>2026-04-27T08:34:00.999Z</time></trkpt><trkpt lat="32.16241410342534" lon="-4.364554407128634"><ele>1209.5</ele><time>2026-04-27T08:34:01.999Z</time></trkpt><trkpt lat="32.16264014444357" lon="-4.364766578753279"><ele>1206.0</ele><time>2026-04-27T08:34:02.999Z</time></trkpt><trkpt lat="32.162862371105874" lon="-4.364993810799153"><ele>1206.0</ele><time>2026-04-27T08:34:03.999Z</time></trkpt><trkpt lat="32.163081221490174" lon="-4.365228341535036"><ele>1206.0</ele><time>2026-04-27T08:34:04.999Z</time></trkpt><trkpt lat="32.163301163710095" lon="-4.365461542901506"><ele>1205.5</ele><time>2026-04-27T08:34:05.999Z</time></trkpt><trkpt lat="32.16352501296745" lon="-4.365687062644426"><ele>1205.0</ele><time>2026-04-27T08:34:06.999Z</time></trkpt><trkpt lat="32.16375698631132" lon="-4.365900961050285"><ele>1205.0</ele><time>2026-04-27T08:34:07.999Z</time></trkpt><trkpt lat="32.16399499191347" lon="-4.3660982546288"><ele>1205.0</ele><time>2026-04-27T08:34:08.999Z</time></trkpt><trkpt lat="32.1642439041022" lon="-4.366282418204619"><ele>1205.0</ele><time>2026-04-27T08:34:09.999Z</time></trkpt><trkpt lat="32.164495079525146" lon="-4.366467201358671"><ele>1205.0</ele><time>2026-04-27T08:34:10.999Z</time></trkpt><trkpt lat="32.16473645067926" lon="-4.366668060890657"><ele>1212.5</ele><time>2026-04-27T08:34:11.999Z</time></trkpt><trkpt lat="32.164968976422905" lon="-4.366894898645839"><ele>1220.0</ele><time>2026-04-27T08:34:12.999Z</time></trkpt><trkpt lat="32.165192754130004" lon="-4.367140156923095"><ele>1213.0</ele><time>2026-04-27T08:34:13.999Z</time></trkpt><trkpt lat="32.165417371907516" lon="-4.367398632462954"><ele>1206.0</ele><time>2026-04-27T08:34:14.999Z</time></trkpt><trkpt lat="32.16564732934574" lon="-4.367659535316465"><ele>1209.5</ele><time>2026-04-27T08:34:15.999Z</time></trkpt><trkpt lat="32.16588235844845" lon="-4.367919043483836"><ele>1213.0</ele><time>2026-04-27T08:34:16.999Z</time></trkpt><trkpt lat="32.16611417032378" lon="-4.368179129650796"><ele>1213.0</ele><time>2026-04-27T08:34:17.999Z</time></trkpt><trkpt lat="32.16633950725156" lon="-4.36843776834903"><ele>1213.0</ele><time>2026-04-27T08:34:18.999Z</time></trkpt><trkpt lat="32.16655860064355" lon="-4.368686453556763"><ele>1218.5</ele><time>2026-04-27T08:34:19.999Z</time></trkpt><trkpt lat="32.16676895823977" lon="-4.368925581926397"><ele>1224.0</ele><time>2026-04-27T08:34:20.999Z</time></trkpt><trkpt lat="32.166964345798" lon="-4.369158255245265"><ele>1224.0</ele><time>2026-04-27T08:34:21.999Z</time></trkpt><trkpt lat="32.167132541274704" lon="-4.369388004793591"><ele>1224.0</ele><time>2026-04-27T08:34:22.999Z</time></trkpt><trkpt lat="32.1672742704511" lon="-4.3696279189084315"><ele>1229.0</ele><time>2026-04-27T08:34:23.999Z</time></trkpt><trkpt lat="32.167386056685416" lon="-4.36986377568012"><ele>1234.0</ele><time>2026-04-27T08:34:24.999Z</time></trkpt><trkpt lat="32.167504146652675" lon="-4.3700725660346205"><ele>1239.0</ele><time>2026-04-27T08:34:25.999Z</time></trkpt><trkpt lat="32.167624839648276" lon="-4.37025637842805"><ele>1239.0</ele><time>2026-04-27T08:34:26.999Z</time></trkpt><trkpt lat="32.16775593730824" lon="-4.3704371620341"><ele>1239.0</ele><time>2026-04-27T08:34:27.999Z</time></trkpt><trkpt lat="32.167928006247315" lon="-4.370581958962391"><ele>1239.0</ele><time>2026-04-27T08:34:28.999Z</time></trkpt><trkpt lat="32.168096952489066" lon="-4.3707007430649165"><ele>1240.0</ele><time>2026-04-27T08:34:29.999Z</time></trkpt><trkpt lat="32.168263942081765" lon="-4.370777107129061"><ele>1241.0</ele><time>2026-04-27T08:34:30.999Z</time></trkpt><trkpt lat="32.16843185482177" lon="-4.370803320478749"><ele>1242.0</ele><time>2026-04-27T08:34:31.999Z</time></trkpt><trkpt lat="32.16860958171772" lon="-4.370786629964018"><ele>1242.0</ele><time>2026-04-27T08:34:32.999Z</time></trkpt><trkpt lat="32.16877596945918" lon="-4.370734797681217"><ele>1242.0</ele><time>2026-04-27T08:34:33.999Z</time></trkpt><trkpt lat="32.168941101512885" lon="-4.370634614994396"><ele>1242.0</ele><time>2026-04-27T08:34:34.999Z</time></trkpt><trkpt lat="32.1691033708726" lon="-4.370486371076074"><ele>1244.3333333333333</ele><time>2026-04-27T08:34:35.999Z</time></trkpt><trkpt lat="32.16925640620712" lon="-4.370299829387853"><ele>1246.6666666666665</ele><time>2026-04-27T08:34:36.999Z</time></trkpt><trkpt lat="32.16940993945316" lon="-4.370119454096683"><ele>1249.0</ele><time>2026-04-27T08:34:37.999Z</time></trkpt><trkpt lat="32.16955143537097" lon="-4.369964861840117"><ele>1249.0</ele><time>2026-04-27T08:34:38.999Z</time></trkpt><trkpt lat="32.16966847886085" lon="-4.3698157816360075"><ele>1249.0</ele><time>2026-04-27T08:34:39.999Z</time></trkpt><trkpt lat="32.1697562570137" lon="-4.369641308574172"><ele>1249.0</ele><time>2026-04-27T08:34:40.999Z</time></trkpt><trkpt lat="32.16981400600281" lon="-4.369435677444793"><ele>1247.0</ele><time>2026-04-27T08:34:41.999Z</time></trkpt><trkpt lat="32.16986622338566" lon="-4.3692132060546545"><ele>1245.0</ele><time>2026-04-27T08:34:42.999Z</time></trkpt><trkpt lat="32.169940497970046" lon="-4.3689884110606565"><ele>1243.0</ele><time>2026-04-27T08:34:43.999Z</time></trkpt><trkpt lat="32.170042891640136" lon="-4.368779663234191"><ele>1243.0</ele><time>2026-04-27T08:34:44.999Z</time></trkpt><trkpt lat="32.17017148294779" lon="-4.368596980451672"><ele>1243.0</ele><time>2026-04-27T08:34:46Z</time></trkpt><trkpt lat="32.17032371163219" lon="-4.368447447290094"><ele>1243.0</ele><time>2026-04-27T08:34:47Z</time></trkpt><trkpt lat="32.1704862111442" lon="-4.3683242224084"><ele>1243.0</ele><time>2026-04-27T08:34:48Z</time></trkpt><trkpt lat="32.17063939373083" lon="-4.3682102362433834"><ele>1243.0</ele><time>2026-04-27T08:34:49Z</time></trkpt><trkpt lat="32.1707797867687" lon="-4.368105552272661"><ele>1243.0</ele><time>2026-04-27T08:34:50Z</time></trkpt><trkpt lat="32.17091450937796" lon="-4.368004727196367"><ele>1252.0</ele><time>2026-04-27T08:34:51Z</time></trkpt><trkpt lat="32.17105521499479" lon="-4.367917197814918"><ele>1261.0</ele><time>2026-04-27T08:34:52Z</time></trkpt><trkpt lat="32.171204217414825" lon="-4.3678529956642755"><ele>1270.0</ele><time>2026-04-27T08:34:53Z</time></trkpt><trkpt lat="32.171358179535304" lon="-4.367812603192447"><ele>1270.0</ele><time>2026-04-27T08:34:54Z</time></trkpt><trkpt lat="32.17151622072626" lon="-4.367790130282103"><ele>1270.0</ele><time>2026-04-27T08:34:55Z</time></trkpt><trkpt lat="32.171671120946336" lon="-4.367784535806176"><ele>1270.0</ele><time>2026-04-27T08:34:56Z</time></trkpt><trkpt lat="32.171816145702174" lon="-4.367799491739482"><ele>1269.0</ele><time>2026-04-27T08:34:57Z</time></trkpt><trkpt lat="32.171954729568974" lon="-4.367835022225061"><ele>1268.0</ele><time>2026-04-27T08:34:58Z</time></trkpt><trkpt lat="32.1720966806801" lon="-4.367877520324199"><ele>1267.0</ele><time>2026-04-27T08:34:59Z</time></trkpt><trkpt lat="32.17223760021194" lon="-4.367923125247253"><ele>1266.0</ele><time>2026-04-27T08:35:00Z</time></trkpt><trkpt lat="32.1723765062681" lon="-4.367961943425832"><ele>1277.3333333333333</ele><time>2026-04-27T08:35:01Z</time></trkpt><trkpt lat="32.17251189433374" lon="-4.367979946241114"><ele>1288.6666666666665</ele><time>2026-04-27T08:35:02Z</time></trkpt><trkpt lat="32.17263916318758" lon="-4.367998877453542"><ele>1300.0</ele><time>2026-04-27T08:35:03Z</time></trkpt><trkpt lat="32.17284509239042" lon="-4.3679689069275165"><ele>1300.0</ele><time>2026-04-27T08:35:04Z</time></trkpt><trkpt lat="32.172992372176324" lon="-4.367996955127826"><ele>1300.0</ele><time>2026-04-27T08:35:05Z</time></trkpt><trkpt lat="32.1731223199716" lon="-4.3680579132191175"><ele>1300.0</ele><time>2026-04-27T08:35:06Z</time></trkpt><trkpt lat="32.17323911245859" lon="-4.36814255604952"><ele>1300.0</ele><time>2026-04-27T08:35:07Z</time></trkpt><trkpt lat="32.17334540858123" lon="-4.368238706047221"><ele>1290.25</ele><time>2026-04-27T08:35:08Z</time></trkpt><trkpt lat="32.173453556701794" lon="-4.368327818804338"><ele>1280.5</ele><time>2026-04-27T08:35:09Z</time></trkpt><trkpt lat="32.1735431828055" lon="-4.36843200744592"><ele>1270.75</ele><time>2026-04-27T08:35:10Z</time></trkpt><trkpt lat="32.17361027339289" lon="-4.368552668499013"><ele>1261.0</ele><time>2026-04-27T08:35:11Z</time></trkpt><trkpt lat="32.173641375265156" lon="-4.368674411741865"><ele>1261.0</ele><time>2026-04-27T08:35:12Z</time></trkpt><trkpt lat="32.1736532350294" lon="-4.368791196603302"><ele>1261.0</ele><time>2026-04-27T08:35:13Z</time></trkpt><trkpt lat="32.17366241436394" lon="-4.368899823605178"><ele>1261.0</ele><time>2026-04-27T08:35:14Z</time></trkpt><trkpt lat="32.17368346725351" lon="-4.368995793569875"><ele>1261.0</ele><time>2026-04-27T08:35:15Z</time></trkpt><trkpt lat="32.17371525373251" lon="-4.369078982911081"><ele>1261.0</ele><time>2026-04-27T08:35:16Z</time></trkpt><trkpt lat="32.17375749814312" lon="-4.369149297156967"><ele>1261.0</ele><time>2026-04-27T08:35:17Z</time></trkpt><trkpt lat="32.1738219315981" lon="-4.3691908946754205"><ele>1256.8333333333333</ele><time>2026-04-27T08:35:18Z</time></trkpt><trkpt lat="32.17389691562642" lon="-4.369200635390651"><ele>1252.6666666666665</ele><time>2026-04-27T08:35:19Z</time></trkpt><trkpt lat="32.17397796509605" lon="-4.3691825631762695"><ele>1248.5</ele><time>2026-04-27T08:35:20Z</time></trkpt><trkpt lat="32.17406641567908" lon="-4.369141157039552"><ele>1244.3333333333333</ele><time>2026-04-27T08:35:21Z</time></trkpt><trkpt lat="32.174140955516876" lon="-4.369077012803911"><ele>1240.1666666666667</ele><time>2026-04-27T08:35:22Z</time></trkpt><trkpt lat="32.17418921954602" lon="-4.36898788436704"><ele>1236.0</ele><time>2026-04-27T08:35:23Z</time></trkpt><trkpt lat="32.174206216541776" lon="-4.368878537372974"><ele>1242.0</ele><time>2026-04-27T08:35:24Z</time></trkpt><trkpt lat="32.17420568776718" lon="-4.368762498496657"><ele>1248.0</ele><time>2026-04-27T08:35:25Z</time></trkpt><trkpt lat="32.174198131979374" lon="-4.368617286704494"><ele>1254.0</ele><time>2026-04-27T08:35:26Z</time></trkpt><trkpt lat="32.17422265920905" lon="-4.3684679372220305"><ele>1260.0</ele><time>2026-04-27T08:35:27Z</time></trkpt><trkpt lat="32.17425677851276" lon="-4.368312117180079"><ele>1260.0</ele><time>2026-04-27T08:35:28Z</time></trkpt><trkpt lat="32.174291036662034" lon="-4.368164410564654"><ele>1260.0</ele><time>2026-04-27T08:35:29Z</time></trkpt><trkpt lat="32.174319769223686" lon="-4.3680250880814055"><ele>1260.0</ele><time>2026-04-27T08:35:30Z</time></trkpt><trkpt lat="32.174339261022055" lon="-4.36788637861615"><ele>1260.0</ele><time>2026-04-27T08:35:31Z</time></trkpt><trkpt lat="32.174354122211824" lon="-4.367744930763142"><ele>1263.25</ele><time>2026-04-27T08:35:32Z</time></trkpt><trkpt lat="32.17436836711308" lon="-4.367601731094017"><ele>1266.5</ele><time>2026-04-27T08:35:33Z</time></trkpt><trkpt lat="32.174383598934426" lon="-4.367457298858334"><ele>1269.75</ele><time>2026-04-27T08:35:34Z</time></trkpt><trkpt lat="32.17440097097861" lon="-4.367315064991807"><ele>1273.0</ele><time>2026-04-27T08:35:35Z</time></trkpt><trkpt lat="32.174421349611166" lon="-4.367177802413325"><ele>1276.0</ele><time>2026-04-27T08:35:36Z</time></trkpt><trkpt lat="32.174450694461584" lon="-4.36704227851388"><ele>1279.0</ele><time>2026-04-27T08:35:37Z</time></trkpt><trkpt lat="32.17449433008924" lon="-4.366916607458996"><ele>1282.0</ele><time>2026-04-27T08:35:38Z</time></trkpt><trkpt lat="32.17455757483495" lon="-4.366805044196667"><ele>1285.0</ele><time>2026-04-27T08:35:39Z</time></trkpt><trkpt lat="32.17463815749441" lon="-4.366707688404176"><ele>1285.0</ele><time>2026-04-27T08:35:40Z</time></trkpt><trkpt lat="32.17472944408391" lon="-4.36661864199842"><ele>1285.0</ele><time>2026-04-27T08:35:41Z</time></trkpt><trkpt lat="32.17481563329713" lon="-4.366535904592473"><ele>1285.0</ele><time>2026-04-27T08:35:42Z</time></trkpt><trkpt lat="32.17488246901174" lon="-4.366447519336793"><ele>1285.0</ele><time>2026-04-27T08:35:43Z</time></trkpt><trkpt lat="32.17493104249367" lon="-4.36635738233216"><ele>1285.0</ele><time>2026-04-27T08:35:44Z</time></trkpt><trkpt lat="32.174966077067026" lon="-4.366272209981345"><ele>1279.3333333333333</ele><time>2026-04-27T08:35:45Z</time></trkpt><trkpt lat="32.17499067333209" lon="-4.36618734318248"><ele>1273.6666666666665</ele><time>2026-04-27T08:35:46Z</time></trkpt><trkpt lat="32.175005964866024" lon="-4.36609314693349"><ele>1268.0</ele><time>2026-04-27T08:35:47Z</time></trkpt><trkpt lat="32.17501374946789" lon="-4.36598968278571"><ele>1262.3333333333333</ele><time>2026-04-27T08:35:48Z</time></trkpt><trkpt lat="32.175015558012625" lon="-4.365876249613741"><ele>1256.6666666666667</ele><time>2026-04-27T08:35:49Z</time></trkpt><trkpt lat="32.175021623646515" lon="-4.365756295916622"><ele>1251.0</ele><time>2026-04-27T08:35:50Z</time></trkpt><trkpt lat="32.175031559253796" lon="-4.365636873648091"><ele>1254.8</ele><time>2026-04-27T08:35:51Z</time></trkpt><trkpt lat="32.17503998608399" lon="-4.365516292557898"><ele>1258.6</ele><time>2026-04-27T08:35:52Z</time></trkpt><trkpt lat="32.175048920108395" lon="-4.365387941268215"><ele>1262.4</ele><time>2026-04-27T08:35:53Z</time></trkpt><trkpt lat="32.1750623850472" lon="-4.365254063316483"><ele>1266.2</ele><time>2026-04-27T08:35:54Z</time></trkpt><trkpt lat="32.17508854242604" lon="-4.365122749119537"><ele>1270.0</ele><time>2026-04-27T08:35:55Z</time></trkpt><trkpt lat="32.17512178816907" lon="-4.36500491940086"><ele>1270.0</ele><time>2026-04-27T08:35:55.999Z</time></trkpt><trkpt lat="32.17515739984252" lon="-4.364891141969767"><ele>1270.0</ele><time>2026-04-27T08:35:56.999Z</time></trkpt><trkpt lat="32.175196618398864" lon="-4.364772231821202"><ele>1270.0</ele><time>2026-04-27T08:35:57.999Z</time></trkpt><trkpt lat="32.17525031666063" lon="-4.364651803686881"><ele>1270.0</ele><time>2026-04-27T08:35:58.999Z</time></trkpt><trkpt lat="32.175314892652814" lon="-4.364532067660168"><ele>1270.0</ele><time>2026-04-27T08:35:59.999Z</time></trkpt><trkpt lat="32.17538157639154" lon="-4.364406383279555"><ele>1274.25</ele><time>2026-04-27T08:36:00.999Z</time></trkpt><trkpt lat="32.17544420704754" lon="-4.364272321233451"><ele>1278.5</ele><time>2026-04-27T08:36:01.999Z</time></trkpt><trkpt lat="32.175503458025574" lon="-4.364127323555178"><ele>1282.75</ele><time>2026-04-27T08:36:02.999Z</time></trkpt><trkpt lat="32.17555510227287" lon="-4.363982989082743"><ele>1287.0</ele><time>2026-04-27T08:36:03.999Z</time></trkpt><trkpt lat="32.17560364598924" lon="-4.36384273952925"><ele>1289.0</ele><time>2026-04-27T08:36:04.999Z</time></trkpt><trkpt lat="32.1756582069439" lon="-4.363719327550354"><ele>1291.0</ele><time>2026-04-27T08:36:05.999Z</time></trkpt><trkpt lat="32.17573347490908" lon="-4.363615491982559"><ele>1293.0</ele><time>2026-04-27T08:36:06.999Z</time></trkpt><trkpt lat="32.17583475131216" lon="-4.363533132764436"><ele>1295.0</ele><time>2026-04-27T08:36:07.999Z</time></trkpt><trkpt lat="32.1759590937826" lon="-4.36346699249549"><ele>1280.0</ele><time>2026-04-27T08:36:08.999Z</time></trkpt><trkpt lat="32.176090056566274" lon="-4.363399044132418"><ele>1265.0</ele><time>2026-04-27T08:36:09.999Z</time></trkpt><trkpt lat="32.17622676051439" lon="-4.363296219438272"><ele>1250.0</ele><time>2026-04-27T08:36:10.999Z</time></trkpt><trkpt lat="32.17636848878352" lon="-4.363164754683045"><ele>1249.0</ele><time>2026-04-27T08:36:11.999Z</time></trkpt><trkpt lat="32.176510101822416" lon="-4.36302369764554"><ele>1248.0</ele><time>2026-04-27T08:36:12.999Z</time></trkpt><trkpt lat="32.17664659768303" lon="-4.362880323364301"><ele>1247.0</ele><time>2026-04-27T08:36:13.999Z</time></trkpt><trkpt lat="32.17678536578997" lon="-4.36274670069066"><ele>1247.0</ele><time>2026-04-27T08:36:14.999Z</time></trkpt><trkpt lat="32.17694301685681" lon="-4.362641398053256"><ele>1247.0</ele><time>2026-04-27T08:36:15.999Z</time></trkpt><trkpt lat="32.17711739024693" lon="-4.362572507263603"><ele>1247.0</ele><time>2026-04-27T08:36:16.999Z</time></trkpt><trkpt lat="32.17730710850659" lon="-4.362537017060931"><ele>1244.0</ele><time>2026-04-27T08:36:17.999Z</time></trkpt><trkpt lat="32.17751083238195" lon="-4.3625405467584955"><ele>1241.0</ele><time>2026-04-27T08:36:18.999Z</time></trkpt><trkpt lat="32.177736618175715" lon="-4.36257017954503"><ele>1238.0</ele><time>2026-04-27T08:36:19.999Z</time></trkpt><trkpt lat="32.177979935449436" lon="-4.362615250874169"><ele>1237.0</ele><time>2026-04-27T08:36:20.999Z</time></trkpt><trkpt lat="32.17823552204397" lon="-4.362670451768808"><ele>1236.0</ele><time>2026-04-27T08:36:21.999Z</time></trkpt><trkpt lat="32.17848851078815" lon="-4.362727328380624"><ele>1236.0</ele><time>2026-04-27T08:36:22.999Z</time></trkpt><trkpt lat="32.1787369767654" lon="-4.362768922144868"><ele>1236.0</ele><time>2026-04-27T08:36:23.999Z</time></trkpt><trkpt lat="32.178988087116785" lon="-4.36278114375098"><ele>1236.0</ele><time>2026-04-27T08:36:24.999Z</time></trkpt><trkpt lat="32.17924363947239" lon="-4.362763428909487"><ele>1236.0</ele><time>2026-04-27T08:36:25.999Z</time></trkpt><trkpt lat="32.17949732547547" lon="-4.362721657558644"><ele>1236.0</ele><time>2026-04-27T08:36:26.999Z</time></trkpt><trkpt lat="32.17975077851566" lon="-4.3626691395013735"><ele>1236.0</ele><time>2026-04-27T08:36:27.999Z</time></trkpt><trkpt lat="32.179990816686676" lon="-4.3626289991765255"><ele>1235.3333333333333</ele><time>2026-04-27T08:36:28.999Z</time></trkpt><trkpt lat="32.180207479381785" lon="-4.362606768191859"><ele>1234.6666666666665</ele><time>2026-04-27T08:36:29.999Z</time></trkpt><trkpt lat="32.18041353559299" lon="-4.36259941958643"><ele>1234.0</ele><time>2026-04-27T08:36:30.999Z</time></trkpt><trkpt lat="32.18062731414058" lon="-4.362608097878103"><ele>1234.0</ele><time>2026-04-27T08:36:31.999Z</time></trkpt><trkpt lat="32.18084619539308" lon="-4.362642022795092"><ele>1234.0</ele><time>2026-04-27T08:36:32.999Z</time></trkpt><trkpt lat="32.18106178833318" lon="-4.362704949497547"><ele>1234.0</ele><time>2026-04-27T08:36:33.999Z</time></trkpt><trkpt lat="32.18126746079654" lon="-4.362785572323469"><ele>1234.0</ele><time>2026-04-27T08:36:34.999Z</time></trkpt><trkpt lat="32.18146045710979" lon="-4.362872151205017"><ele>1234.0</ele><time>2026-04-27T08:36:35.999Z</time></trkpt><trkpt lat="32.18163954835726" lon="-4.362953648131878"><ele>1234.0</ele><time>2026-04-27T08:36:36.999Z</time></trkpt><trkpt lat="32.18180413082978" lon="-4.363032888943239"><ele>1231.5</ele><time>2026-04-27T08:36:37.999Z</time></trkpt><trkpt lat="32.18194843170189" lon="-4.363114977194664"><ele>1229.0</ele><time>2026-04-27T08:36:38.999Z</time></trkpt><trkpt lat="32.18207752825346" lon="-4.3632008000860285"><ele>1226.5</ele><time>2026-04-27T08:36:39.999Z</time></trkpt><trkpt lat="32.18219472002117" lon="-4.363289076330985"><ele>1224.0</ele><time>2026-04-27T08:36:40.999Z</time></trkpt><trkpt lat="32.18230160796954" lon="-4.363381023433227"><ele>1226.25</ele><time>2026-04-27T08:36:41.999Z</time></trkpt><trkpt lat="32.182410175035486" lon="-4.363481138246942"><ele>1228.5</ele><time>2026-04-27T08:36:42.999Z</time></trkpt><trkpt lat="32.18251987921687" lon="-4.3635876799856375"><ele>1230.75</ele><time>2026-04-27T08:36:43.999Z</time></trkpt><trkpt lat="32.1826241706795" lon="-4.3636986748705535"><ele>1233.0</ele><time>2026-04-27T08:36:44.999Z</time></trkpt><trkpt lat="32.18272316492405" lon="-4.363810447039251"><ele>1231.0</ele><time>2026-04-27T08:36:45.999Z</time></trkpt><trkpt lat="32.182819701973926" lon="-4.363922364487039"><ele>1229.0</ele><time>2026-04-27T08:36:46.999Z</time></trkpt><trkpt lat="32.18291513051054" lon="-4.364033589798359"><ele>1227.0</ele><time>2026-04-27T08:36:47.999Z</time></trkpt><trkpt lat="32.183013594353895" lon="-4.364147692128471"><ele>1225.0</ele><time>2026-04-27T08:36:48.999Z</time></trkpt><trkpt lat="32.183110933280965" lon="-4.364262660072409"><ele>1225.0</ele><time>2026-04-27T08:36:49.999Z</time></trkpt><trkpt lat="32.183209357352595" lon="-4.364379667588262"><ele>1225.0</ele><time>2026-04-27T08:36:50.999Z</time></trkpt><trkpt lat="32.18330740819716" lon="-4.364493224604151"><ele>1225.0</ele><time>2026-04-27T08:36:52Z</time></trkpt><trkpt lat="32.18340283939862" lon="-4.364605088211059"><ele>1225.0</ele><time>2026-04-27T08:36:53Z</time></trkpt><trkpt lat="32.18349631826765" lon="-4.364718493526809"><ele>1225.0</ele><time>2026-04-27T08:36:54Z</time></trkpt><trkpt lat="32.18359446732359" lon="-4.364836844530286"><ele>1225.0</ele><time>2026-04-27T08:36:55Z</time></trkpt><trkpt lat="32.183698107579275" lon="-4.3649582503600515"><ele>1225.0</ele><time>2026-04-27T08:36:56Z</time></trkpt><trkpt lat="32.18380629882682" lon="-4.365082008033199"><ele>1225.0</ele><time>2026-04-27T08:36:57Z</time></trkpt><trkpt lat="32.18391721794543" lon="-4.365206785686081"><ele>1223.6666666666665</ele><time>2026-04-27T08:36:58Z</time></trkpt><trkpt lat="32.184031116715694" lon="-4.365332135746774"><ele>1222.3333333333333</ele><time>2026-04-27T08:36:59Z</time></trkpt><trkpt lat="32.184144554830155" lon="-4.365458337830386"><ele>1221.0</ele><time>2026-04-27T08:37:00Z</time></trkpt><trkpt lat="32.184259580878695" lon="-4.365578702805657"><ele>1221.0</ele><time>2026-04-27T08:37:01Z</time></trkpt><trkpt lat="32.18437411497328" lon="-4.36569559746775"><ele>1221.0</ele><time>2026-04-27T08:37:02Z</time></trkpt><trkpt lat="32.18449215321687" lon="-4.365810667875992"><ele>1221.0</ele><time>2026-04-27T08:37:03Z</time></trkpt><trkpt lat="32.18461984058405" lon="-4.365925732274587"><ele>1221.0</ele><time>2026-04-27T08:37:04Z</time></trkpt><trkpt lat="32.18476287970014" lon="-4.366049235317307"><ele>1221.0</ele><time>2026-04-27T08:37:05Z</time></trkpt><trkpt lat="32.18491182945381" lon="-4.366174103331524"><ele>1221.0</ele><time>2026-04-27T08:37:06Z</time></trkpt><trkpt lat="32.18507454296212" lon="-4.366305038740191"><ele>1220.3333333333333</ele><time>2026-04-27T08:37:07Z</time></trkpt><trkpt lat="32.18524540934647" lon="-4.366441066424932"><ele>1219.6666666666665</ele><time>2026-04-27T08:37:08Z</time></trkpt><trkpt lat="32.18542668293257" lon="-4.366582568146616"><ele>1219.0</ele><time>2026-04-27T08:37:09Z</time></trkpt><trkpt lat="32.185617175759695" lon="-4.366728489585619"><ele>1219.0</ele><time>2026-04-27T08:37:10Z</time></trkpt><trkpt lat="32.18581895001905" lon="-4.366881638794525"><ele>1219.0</ele><time>2026-04-27T08:37:11Z</time></trkpt><trkpt lat="32.18602997035422" lon="-4.367040785918274"><ele>1216.0</ele><time>2026-04-27T08:37:12Z</time></trkpt><trkpt lat="32.18624433838368" lon="-4.367204374034696"><ele>1213.0</ele><time>2026-04-27T08:37:13Z</time></trkpt><trkpt lat="32.18646562745977" lon="-4.367369614042221"><ele>1213.5</ele><time>2026-04-27T08:37:14Z</time></trkpt><trkpt lat="32.18668750521379" lon="-4.367536905209208"><ele>1214.0</ele><time>2026-04-27T08:37:15Z</time></trkpt><trkpt lat="32.1869154352505" lon="-4.367706435790636"><ele>1214.0</ele><time>2026-04-27T08:37:16Z</time></trkpt><trkpt lat="32.18714229520168" lon="-4.367875818033488"><ele>1214.0</ele><time>2026-04-27T08:37:17Z</time></trkpt><trkpt lat="32.187373477678776" lon="-4.368046839958676"><ele>1214.0</ele><time>2026-04-27T08:37:18Z</time></trkpt><trkpt lat="32.187606000058494" lon="-4.368220680547039"><ele>1214.0</ele><time>2026-04-27T08:37:19Z</time></trkpt><trkpt lat="32.18784300602404" lon="-4.368396995122019"><ele>1214.0</ele><time>2026-04-27T08:37:20Z</time></trkpt><trkpt lat="32.18808422856782" lon="-4.368576072832302"><ele>1214.0</ele><time>2026-04-27T08:37:21Z</time></trkpt><trkpt lat="32.188329331451506" lon="-4.368759817798664"><ele>1218.0</ele><time>2026-04-27T08:37:22Z</time></trkpt><trkpt lat="32.18857577154549" lon="-4.368947969826771"><ele>1222.0</ele><time>2026-04-27T08:37:23Z</time></trkpt><trkpt lat="32.18882419688197" lon="-4.369143267374096"><ele>1223.5</ele><time>2026-04-27T08:37:24Z</time></trkpt><trkpt lat="32.18906766171523" lon="-4.369349992887953"><ele>1225.0</ele><time>2026-04-27T08:37:25Z</time></trkpt><trkpt lat="32.18930871405143" lon="-4.369570104978501"><ele>1224.5</ele><time>2026-04-27T08:37:26Z</time></trkpt><trkpt lat="32.18954609288176" lon="-4.369796900331771"><ele>1224.0</ele><time>2026-04-27T08:37:27Z</time></trkpt><trkpt lat="32.189781603639474" lon="-4.370048454106762"><ele>1224.0</ele><time>2026-04-27T08:37:28Z</time></trkpt><trkpt lat="32.190026504214885" lon="-4.370335002621242"><ele>1224.0</ele><time>2026-04-27T08:37:29Z</time></trkpt><trkpt lat="32.190271024681735" lon="-4.370647085925722"><ele>1224.5</ele><time>2026-04-27T08:37:30Z</time></trkpt><trkpt lat="32.19054715345081" lon="-4.370960082673559"><ele>1225.0</ele><time>2026-04-27T08:37:31Z</time></trkpt><trkpt lat="32.190825148916986" lon="-4.371279926174444"><ele>1225.0</ele><time>2026-04-27T08:37:32Z</time></trkpt><trkpt lat="32.19113046355024" lon="-4.371578013912199"><ele>1225.0</ele><time>2026-04-27T08:37:33Z</time></trkpt><trkpt lat="32.19144272853639" lon="-4.371914671054674"><ele>1226.5</ele><time>2026-04-27T08:37:34Z</time></trkpt><trkpt lat="32.19174901461649" lon="-4.372260603891893"><ele>1228.0</ele><time>2026-04-27T08:37:35Z</time></trkpt><trkpt lat="32.19205477187944" lon="-4.372616920993201"><ele>1229.0</ele><time>2026-04-27T08:37:36Z</time></trkpt><trkpt lat="32.19234925208061" lon="-4.372949685216129"><ele>1230.0</ele><time>2026-04-27T08:37:37Z</time></trkpt><trkpt lat="32.19262486839331" lon="-4.373260671066523"><ele>1230.5</ele><time>2026-04-27T08:37:38Z</time></trkpt><trkpt lat="32.1928833966174" lon="-4.373552545928506"><ele>1231.0</ele><time>2026-04-27T08:37:39Z</time></trkpt><trkpt lat="32.19313670277116" lon="-4.373832655474335"><ele>1232.5</ele><time>2026-04-27T08:37:40Z</time></trkpt><trkpt lat="32.193381663482704" lon="-4.374118666244066"><ele>1234.0</ele><time>2026-04-27T08:37:41Z</time></trkpt><trkpt lat="32.193628055809974" lon="-4.374393952740689"><ele>1234.0</ele><time>2026-04-27T08:37:42Z</time></trkpt><trkpt lat="32.1938614154403" lon="-4.374650993442443"><ele>1234.0</ele><time>2026-04-27T08:37:43Z</time></trkpt><trkpt lat="32.194089214814426" lon="-4.37490356025649"><ele>1234.5</ele><time>2026-04-27T08:37:44Z</time></trkpt><trkpt lat="32.19430800832456" lon="-4.375151407364009"><ele>1235.0</ele><time>2026-04-27T08:37:45Z</time></trkpt><trkpt lat="32.19451813116149" lon="-4.375389408475887"><ele>1235.0</ele><time>2026-04-27T08:37:46Z</time></trkpt><trkpt lat="32.19472759896427" lon="-4.375622445152075"><ele>1235.0</ele><time>2026-04-27T08:37:47Z</time></trkpt><trkpt lat="32.194934840702906" lon="-4.375854271535967"><ele>1235.0</ele><time>2026-04-27T08:37:48Z</time></trkpt><trkpt lat="32.195150117199766" lon="-4.376094736153404"><ele>1235.0</ele><time>2026-04-27T08:37:49Z</time></trkpt><trkpt lat="32.1953656393132" lon="-4.376329287111115"><ele>1235.0</ele><time>2026-04-27T08:37:50Z</time></trkpt><trkpt lat="32.19558211750834" lon="-4.376552985678445"><ele>1235.0</ele><time>2026-04-27T08:37:51Z</time></trkpt><trkpt lat="32.19580075165018" lon="-4.376766050328768"><ele>1235.0</ele><time>2026-04-27T08:37:52Z</time></trkpt><trkpt lat="32.19602101840371" lon="-4.376971739432626"><ele>1235.0</ele><time>2026-04-27T08:37:53Z</time></trkpt><trkpt lat="32.19626124819593" lon="-4.377156093788157"><ele>1235.0</ele><time>2026-04-27T08:37:54Z</time></trkpt><trkpt lat="32.196493591011844" lon="-4.37735155817588"><ele>1235.0</ele><time>2026-04-27T08:37:55Z</time></trkpt><trkpt lat="32.196731492897946" lon="-4.377541375333024"><ele>1234.5</ele><time>2026-04-27T08:37:56Z</time></trkpt><trkpt lat="32.19696719362599" lon="-4.3777277646664645"><ele>1234.0</ele><time>2026-04-27T08:37:57Z</time></trkpt><trkpt lat="32.19718398047805" lon="-4.377917927721178"><ele>1234.5</ele><time>2026-04-27T08:37:58Z</time></trkpt><trkpt lat="32.19739862067223" lon="-4.378085214849264"><ele>1235.0</ele><time>2026-04-27T08:37:59Z</time></trkpt><trkpt lat="32.19759842904921" lon="-4.378244195348049"><ele>1235.0</ele><time>2026-04-27T08:37:59.999Z</time></trkpt><trkpt lat="32.1977904961932" lon="-4.3783985469780395"><ele>1235.0</ele><time>2026-04-27T08:38:00.999Z</time></trkpt><trkpt lat="32.197987996887726" lon="-4.378549104329696"><ele>1234.5</ele><time>2026-04-27T08:38:01.999Z</time></trkpt><trkpt lat="32.19819210858109" lon="-4.378705652132697"><ele>1234.0</ele><time>2026-04-27T08:38:02.999Z</time></trkpt><trkpt lat="32.19840759330256" lon="-4.378870168411038"><ele>1234.0</ele><time>2026-04-27T08:38:03.999Z</time></trkpt><trkpt lat="32.19862624420287" lon="-4.379040693072233"><ele>1234.0</ele><time>2026-04-27T08:38:04.999Z</time></trkpt><trkpt lat="32.19884931855049" lon="-4.379212908323568"><ele>1233.5</ele><time>2026-04-27T08:38:05.999Z</time></trkpt><trkpt lat="32.19907400486759" lon="-4.379385613626124"><ele>1233.0</ele><time>2026-04-27T08:38:06.999Z</time></trkpt><trkpt lat="32.19929987575149" lon="-4.379560144868014"><ele>1235.0</ele><time>2026-04-27T08:38:07.999Z</time></trkpt><trkpt lat="32.19952686875661" lon="-4.379739258565051"><ele>1237.0</ele><time>2026-04-27T08:38:08.999Z</time></trkpt><trkpt lat="32.19975656259235" lon="-4.379919691950512"><ele>1236.0</ele><time>2026-04-27T08:38:09.999Z</time></trkpt><trkpt lat="32.19998915707006" lon="-4.380102174549212"><ele>1235.0</ele><time>2026-04-27T08:38:10.999Z</time></trkpt><trkpt lat="32.20022409472637" lon="-4.3802850088622804"><ele>1235.0</ele><time>2026-04-27T08:38:11.999Z</time></trkpt><trkpt lat="32.200461719809" lon="-4.380470612198745"><ele>1235.0</ele><time>2026-04-27T08:38:12.999Z</time></trkpt><trkpt lat="32.20070491275278" lon="-4.380663802545121"><ele>1235.5</ele><time>2026-04-27T08:38:13.999Z</time></trkpt><trkpt lat="32.20095537549502" lon="-4.380865488105819"><ele>1236.0</ele><time>2026-04-27T08:38:14.999Z</time></trkpt><trkpt lat="32.20121809208324" lon="-4.381052615602941"><ele>1236.0</ele><time>2026-04-27T08:38:15.999Z</time></trkpt><trkpt lat="32.20147393952569" lon="-4.3812546426800445"><ele>1236.0</ele><time>2026-04-27T08:38:16.999Z</time></trkpt><trkpt lat="32.20173099253083" lon="-4.381457056880399"><ele>1235.5</ele><time>2026-04-27T08:38:17.999Z</time></trkpt><trkpt lat="32.20198020681549" lon="-4.3816763736065685"><ele>1235.0</ele><time>2026-04-27T08:38:18.999Z</time></trkpt><trkpt lat="32.20224178719918" lon="-4.381876786808487"><ele>1235.5</ele><time>2026-04-27T08:38:19.999Z</time></trkpt><trkpt lat="32.20250464273337" lon="-4.38208179245204"><ele>1236.0</ele><time>2026-04-27T08:38:20.999Z</time></trkpt><trkpt lat="32.202769384419405" lon="-4.382296120240825"><ele>1236.0</ele><time>2026-04-27T08:38:21.999Z</time></trkpt><trkpt lat="32.20304517326065" lon="-4.382516247323923"><ele>1236.0</ele><time>2026-04-27T08:38:22.999Z</time></trkpt><trkpt lat="32.20334332023002" lon="-4.3827284740737005"><ele>1236.5</ele><time>2026-04-27T08:38:23.999Z</time></trkpt><trkpt lat="32.2036385401134" lon="-4.382961503623061"><ele>1237.0</ele><time>2026-04-27T08:38:24.999Z</time></trkpt><trkpt lat="32.20393481900064" lon="-4.383216287599042"><ele>1238.5</ele><time>2026-04-27T08:38:25.999Z</time></trkpt><trkpt lat="32.20424292412801" lon="-4.383457948831343"><ele>1240.0</ele><time>2026-04-27T08:38:26.999Z</time></trkpt><trkpt lat="32.2045525747024" lon="-4.383700696584144"><ele>1241.0</ele><time>2026-04-27T08:38:27.999Z</time></trkpt><trkpt lat="32.204862238732154" lon="-4.383943141338684"><ele>1242.0</ele><time>2026-04-27T08:38:28.999Z</time></trkpt><trkpt lat="32.20516749535935" lon="-4.3841827668967275"><ele>1242.0</ele><time>2026-04-27T08:38:29.999Z</time></trkpt><trkpt lat="32.20547019397353" lon="-4.384420355382664"><ele>1242.0</ele><time>2026-04-27T08:38:30.999Z</time></trkpt><trkpt lat="32.205761600874396" lon="-4.384652020380497"><ele>1242.0</ele><time>2026-04-27T08:38:31.999Z</time></trkpt><trkpt lat="32.206044222218175" lon="-4.384871895073911"><ele>1242.0</ele><time>2026-04-27T08:38:32.999Z</time></trkpt><trkpt lat="32.20629759189387" lon="-4.38507091979496"><ele>1243.0</ele><time>2026-04-27T08:38:33.999Z</time></trkpt><trkpt lat="32.20654319011111" lon="-4.385266234986694"><ele>1244.0</ele><time>2026-04-27T08:38:34.999Z</time></trkpt><trkpt lat="32.20679093990676" lon="-4.385462248019129"><ele>1242.5</ele><time>2026-04-27T08:38:35.999Z</time></trkpt><trkpt lat="32.20704268682742" lon="-4.385660216641944"><ele>1241.0</ele><time>2026-04-27T08:38:36.999Z</time></trkpt><trkpt lat="32.207300359571285" lon="-4.385860380558907"><ele>1242.5</ele><time>2026-04-27T08:38:37.999Z</time></trkpt><trkpt lat="32.207555135351456" lon="-4.386058787421456"><ele>1244.0</ele><time>2026-04-27T08:38:38.999Z</time></trkpt><trkpt lat="32.207815579549305" lon="-4.386261456721497"><ele>1244.5</ele><time>2026-04-27T08:38:39.999Z</time></trkpt><trkpt lat="32.20807247264356" lon="-4.386463535748023"><ele>1245.0</ele><time>2026-04-27T08:38:40.999Z</time></trkpt><trkpt lat="32.20832508298656" lon="-4.386660740516771"><ele>1244.0</ele><time>2026-04-27T08:38:41.999Z</time></trkpt><trkpt lat="32.20857277355987" lon="-4.386856998549646"><ele>1243.0</ele><time>2026-04-27T08:38:42.999Z</time></trkpt><trkpt lat="32.20881336897814" lon="-4.387045389365763"><ele>1243.5</ele><time>2026-04-27T08:38:43.999Z</time></trkpt><trkpt lat="32.209047886792575" lon="-4.3872239036955225"><ele>1244.0</ele><time>2026-04-27T08:38:44.999Z</time></trkpt><trkpt lat="32.20927481102042" lon="-4.387387910070472"><ele>1244.0</ele><time>2026-04-27T08:38:45.999Z</time></trkpt><trkpt lat="32.209501865738304" lon="-4.387546008208408"><ele>1244.0</ele><time>2026-04-27T08:38:46.999Z</time></trkpt><trkpt lat="32.20973023000365" lon="-4.387699765379966"><ele>1244.0</ele><time>2026-04-27T08:38:47.999Z</time></trkpt><trkpt lat="32.20996470736397" lon="-4.387848381357477"><ele>1244.0</ele><time>2026-04-27T08:38:48.999Z</time></trkpt><trkpt lat="32.21020676508583" lon="-4.387985985627609"><ele>1246.0</ele><time>2026-04-27T08:38:49.999Z</time></trkpt><trkpt lat="32.210446950200215" lon="-4.388121247077172"><ele>1248.0</ele><time>2026-04-27T08:38:50.999Z</time></trkpt><trkpt lat="32.2106862065811" lon="-4.388248391817949"><ele>1248.5</ele><time>2026-04-27T08:38:51.999Z</time></trkpt><trkpt lat="32.210924086495616" lon="-4.388373405048747"><ele>1249.0</ele><time>2026-04-27T08:38:52.999Z</time></trkpt><trkpt lat="32.21115647348752" lon="-4.3885033376338605"><ele>1249.0</ele><time>2026-04-27T08:38:53.999Z</time></trkpt><trkpt lat="32.21138998755223" lon="-4.388635735756339"><ele>1249.0</ele><time>2026-04-27T08:38:54.999Z</time></trkpt><trkpt lat="32.2116254888184" lon="-4.388767741150294"><ele>1247.0</ele><time>2026-04-27T08:38:55.999Z</time></trkpt><trkpt lat="32.21186341898068" lon="-4.388897824729986"><ele>1245.0</ele><time>2026-04-27T08:38:56.999Z</time></trkpt><trkpt lat="32.212102172211914" lon="-4.389028295456893"><ele>1245.5</ele><time>2026-04-27T08:38:58Z</time></trkpt><trkpt lat="32.21233793500862" lon="-4.389159084588372"><ele>1246.0</ele><time>2026-04-27T08:38:59Z</time></trkpt><trkpt lat="32.2125210607277" lon="-4.389447510415122"><ele>1246.0</ele><time>2026-04-27T08:39:00Z</time></trkpt><trkpt lat="32.21274794077324" lon="-4.3895841522050345"><ele>1246.0</ele><time>2026-04-27T08:39:01Z</time></trkpt><trkpt lat="32.21298488189789" lon="-4.389734265058768"><ele>1247.5</ele><time>2026-04-27T08:39:02Z</time></trkpt><trkpt lat="32.213223022640854" lon="-4.389885136420066"><ele>1249.0</ele><time>2026-04-27T08:39:03Z</time></trkpt><trkpt lat="32.213467749414875" lon="-4.390026759340252"><ele>1249.0</ele><time>2026-04-27T08:39:04Z</time></trkpt><trkpt lat="32.21380587401518" lon="-4.389967925556085"><ele>1249.0</ele><time>2026-04-27T08:39:05Z</time></trkpt><trkpt lat="32.21405393252786" lon="-4.390106488620716"><ele>1247.5</ele><time>2026-04-27T08:39:06Z</time></trkpt><trkpt lat="32.21430199020934" lon="-4.390246421280131"><ele>1246.0</ele><time>2026-04-27T08:39:07Z</time></trkpt><trkpt lat="32.21455118147421" lon="-4.390385290169332"><ele>1246.0</ele><time>2026-04-27T08:39:08Z</time></trkpt><trkpt lat="32.214802681622835" lon="-4.39052517653025"><ele>1246.0</ele><time>2026-04-27T08:39:09Z</time></trkpt><trkpt lat="32.21505531612496" lon="-4.390663639715206"><ele>1247.0</ele><time>2026-04-27T08:39:10Z</time></trkpt><trkpt lat="32.21530963634217" lon="-4.390804479727843"><ele>1248.0</ele><time>2026-04-27T08:39:11Z</time></trkpt><trkpt lat="32.215568433314566" lon="-4.390949674691764"><ele>1246.0</ele><time>2026-04-27T08:39:12Z</time></trkpt><trkpt lat="32.21583707364967" lon="-4.391105780214649"><ele>1244.0</ele><time>2026-04-27T08:39:13Z</time></trkpt><trkpt lat="32.21611300838665" lon="-4.391267563487129"><ele>1244.5</ele><time>2026-04-27T08:39:14Z</time></trkpt><trkpt lat="32.216391050399515" lon="-4.391430995460424"><ele>1245.0</ele><time>2026-04-27T08:39:15Z</time></trkpt><trkpt lat="32.21667571389709" lon="-4.391594521193121"><ele>1245.5</ele><time>2026-04-27T08:39:16Z</time></trkpt><trkpt lat="32.21696852087981" lon="-4.391755333684002"><ele>1246.0</ele><time>2026-04-27T08:39:17Z</time></trkpt><trkpt lat="32.21726889926246" lon="-4.391912586032589"><ele>1246.0</ele><time>2026-04-27T08:39:18Z</time></trkpt><trkpt lat="32.21757285589059" lon="-4.392071307558033"><ele>1246.0</ele><time>2026-04-27T08:39:19Z</time></trkpt><trkpt lat="32.21787824348734" lon="-4.392232440216516"><ele>1245.5</ele><time>2026-04-27T08:39:20Z</time></trkpt><trkpt lat="32.21817279734832" lon="-4.3923915455700655"><ele>1245.0</ele><time>2026-04-27T08:39:21Z</time></trkpt><trkpt lat="32.21845869597508" lon="-4.392548409556192"><ele>1245.0</ele><time>2026-04-27T08:39:22Z</time></trkpt><trkpt lat="32.21873792508692" lon="-4.392702501446324"><ele>1245.0</ele><time>2026-04-27T08:39:23Z</time></trkpt><trkpt lat="32.21900734119493" lon="-4.392853097733769"><ele>1245.5</ele><time>2026-04-27T08:39:24Z</time></trkpt><trkpt lat="32.219270477167306" lon="-4.3929985343546285"><ele>1246.0</ele><time>2026-04-27T08:39:25Z</time></trkpt><trkpt lat="32.21952985213781" lon="-4.3931389694034015"><ele>1246.5</ele><time>2026-04-27T08:39:26Z</time></trkpt><trkpt lat="32.219781884188805" lon="-4.393278353408946"><ele>1247.0</ele><time>2026-04-27T08:39:27Z</time></trkpt><trkpt lat="32.220031360818425" lon="-4.393415346500482"><ele>1248.0</ele><time>2026-04-27T08:39:28Z</time></trkpt><trkpt lat="32.22028110778398" lon="-4.393553365918709"><ele>1249.0</ele><time>2026-04-27T08:39:29Z</time></trkpt><trkpt lat="32.22052988474781" lon="-4.39369049307172"><ele>1249.0</ele><time>2026-04-27T08:39:30Z</time></trkpt><trkpt lat="32.22078296246045" lon="-4.393829270418916"><ele>1249.0</ele><time>2026-04-27T08:39:31Z</time></trkpt><trkpt lat="32.22103754248949" lon="-4.393967017673607"><ele>1250.0</ele><time>2026-04-27T08:39:32Z</time></trkpt><trkpt lat="32.22128868263015" lon="-4.394105616417096"><ele>1251.0</ele><time>2026-04-27T08:39:33Z</time></trkpt><trkpt lat="32.221535608693486" lon="-4.394243133467516"><ele>1251.0</ele><time>2026-04-27T08:39:34Z</time></trkpt><trkpt lat="32.221777400311275" lon="-4.394377381193713"><ele>1251.0</ele><time>2026-04-27T08:39:35Z</time></trkpt><trkpt lat="32.22202001339298" lon="-4.394512688541874"><ele>1251.0</ele><time>2026-04-27T08:39:36Z</time></trkpt><trkpt lat="32.22226679688498" lon="-4.394649453655672"><ele>1251.0</ele><time>2026-04-27T08:39:37Z</time></trkpt><trkpt lat="32.22251654714069" lon="-4.394788815482112"><ele>1251.5</ele><time>2026-04-27T08:39:38Z</time></trkpt><trkpt lat="32.22276801500595" lon="-4.3949280403233475"><ele>1252.0</ele><time>2026-04-27T08:39:39Z</time></trkpt><trkpt lat="32.22301700925784" lon="-4.395068751850164"><ele>1252.0</ele><time>2026-04-27T08:39:40Z</time></trkpt><trkpt lat="32.223267968750775" lon="-4.3952095469055985"><ele>1252.0</ele><time>2026-04-27T08:39:41Z</time></trkpt><trkpt lat="32.22352521359006" lon="-4.395350470421645"><ele>1252.0</ele><time>2026-04-27T08:39:42Z</time></trkpt><trkpt lat="32.22378599334127" lon="-4.395492371641498"><ele>1252.0</ele><time>2026-04-27T08:39:43Z</time></trkpt><trkpt lat="32.2240509702174" lon="-4.395638936693034"><ele>1251.0</ele><time>2026-04-27T08:39:44Z</time></trkpt><trkpt lat="32.22431582618148" lon="-4.3957853999927305"><ele>1250.0</ele><time>2026-04-27T08:39:45Z</time></trkpt><trkpt lat="32.22456037140512" lon="-4.3959217516626925"><ele>1250.0</ele><time>2026-04-27T08:39:46Z</time></trkpt><trkpt lat="32.22478451997781" lon="-4.396044696618092"><ele>1250.0</ele><time>2026-04-27T08:39:47Z</time></trkpt><trkpt lat="32.22499889846897" lon="-4.396161442652197"><ele>1250.0</ele><time>2026-04-27T08:39:48Z</time></trkpt><trkpt lat="32.22520744178843" lon="-4.396276413913097"><ele>1250.0</ele><time>2026-04-27T08:39:49Z</time></trkpt><trkpt lat="32.22541624514359" lon="-4.396392848827902"><ele>1250.0</ele><time>2026-04-27T08:39:50Z</time></trkpt><trkpt lat="32.225633592521795" lon="-4.396513898685497"><ele>1250.0</ele><time>2026-04-27T08:39:51Z</time></trkpt><trkpt lat="32.22585810976839" lon="-4.396638009951958"><ele>1250.0</ele><time>2026-04-27T08:39:52Z</time></trkpt><trkpt lat="32.226091655517365" lon="-4.396767888148329"><ele>1250.0</ele><time>2026-04-27T08:39:53Z</time></trkpt><trkpt lat="32.22632967283727" lon="-4.396900466994652"><ele>1249.0</ele><time>2026-04-27T08:39:54Z</time></trkpt><trkpt lat="32.22657035533808" lon="-4.397032414656087"><ele>1248.0</ele><time>2026-04-27T08:39:55Z</time></trkpt><trkpt lat="32.22681318770143" lon="-4.397166430594892"><ele>1248.5</ele><time>2026-04-27T08:39:56Z</time></trkpt><trkpt lat="32.227056986883014" lon="-4.397301316503112"><ele>1249.0</ele><time>2026-04-27T08:39:57Z</time></trkpt><trkpt lat="32.22730596444681" lon="-4.397437749571748"><ele>1250.0</ele><time>2026-04-27T08:39:58Z</time></trkpt><trkpt lat="32.22755921658994" lon="-4.397575885831063"><ele>1251.0</ele><time>2026-04-27T08:39:59Z</time></trkpt><trkpt lat="32.227813029607745" lon="-4.397717875738474"><ele>1251.0</ele><time>2026-04-27T08:40:00Z</time></trkpt><trkpt lat="32.22807075991161" lon="-4.397862813324928"><ele>1251.0</ele><time>2026-04-27T08:40:01Z</time></trkpt><trkpt lat="32.22833467886077" lon="-4.398008573359455"><ele>1250.5</ele><time>2026-04-27T08:40:02Z</time></trkpt><trkpt lat="32.22860011354513" lon="-4.39815682060011"><ele>1250.0</ele><time>2026-04-27T08:40:02.999Z</time></trkpt><trkpt lat="32.22886895775606" lon="-4.3983049930083675"><ele>1250.5</ele><time>2026-04-27T08:40:03.999Z</time></trkpt><trkpt lat="32.229139373162376" lon="-4.398454451773019"><ele>1251.0</ele><time>2026-04-27T08:40:04.999Z</time></trkpt><trkpt lat="32.2294112284521" lon="-4.398602746898821"><ele>1251.0</ele><time>2026-04-27T08:40:05.999Z</time></trkpt><trkpt lat="32.22968874205242" lon="-4.398742639304356"><ele>1251.0</ele><time>2026-04-27T08:40:06.999Z</time></trkpt><trkpt lat="32.22997360314434" lon="-4.398870987162084"><ele>1250.5</ele><time>2026-04-27T08:40:07.999Z</time></trkpt><trkpt lat="32.230267338699846" lon="-4.3989855530558675"><ele>1250.0</ele><time>2026-04-27T08:40:08.999Z</time></trkpt><trkpt lat="32.23056331127174" lon="-4.399083867749811"><ele>1248.0</ele><time>2026-04-27T08:40:09.999Z</time></trkpt><trkpt lat="32.23086780484778" lon="-4.399166009849717"><ele>1246.0</ele><time>2026-04-27T08:40:10.999Z</time></trkpt><trkpt lat="32.23117362486323" lon="-4.399230086531263"><ele>1247.0</ele><time>2026-04-27T08:40:11.999Z</time></trkpt><trkpt lat="32.23147843754554" lon="-4.399282437702728"><ele>1248.0</ele><time>2026-04-27T08:40:12.999Z</time></trkpt><trkpt lat="32.23178558814973" lon="-4.39930754312955"><ele>1248.0</ele><time>2026-04-27T08:40:13.999Z</time></trkpt><trkpt lat="32.23209573373461" lon="-4.399316832382881"><ele>1248.0</ele><time>2026-04-27T08:40:14.999Z</time></trkpt><trkpt lat="32.232407808182614" lon="-4.3993081938629315"><ele>1248.5</ele><time>2026-04-27T08:40:15.999Z</time></trkpt><trkpt lat="32.232720180179626" lon="-4.399282678292118"><ele>1249.0</ele><time>2026-04-27T08:40:16.999Z</time></trkpt><trkpt lat="32.23303473300288" lon="-4.399238249623982"><ele>1248.5</ele><time>2026-04-27T08:40:17.999Z</time></trkpt><trkpt lat="32.23334827611997" lon="-4.399175432902077"><ele>1248.0</ele><time>2026-04-27T08:40:18.999Z</time></trkpt><trkpt lat="32.233660524428565" lon="-4.399091760543335"><ele>1248.0</ele><time>2026-04-27T08:40:19.999Z</time></trkpt><trkpt lat="32.23396730724051" lon="-4.398988999181422"><ele>1248.0</ele><time>2026-04-27T08:40:20.999Z</time></trkpt><trkpt lat="32.234267460090315" lon="-4.398872060428935"><ele>1248.0</ele><time>2026-04-27T08:40:21.999Z</time></trkpt><trkpt lat="32.23456279225396" lon="-4.398737469100246"><ele>1248.0</ele><time>2026-04-27T08:40:22.999Z</time></trkpt><trkpt lat="32.23484716753513" lon="-4.398588865390569"><ele>1248.0</ele><time>2026-04-27T08:40:23.999Z</time></trkpt><trkpt lat="32.23512112979707" lon="-4.398436386643526"><ele>1248.0</ele><time>2026-04-27T08:40:24.999Z</time></trkpt><trkpt lat="32.2353902234553" lon="-4.3982868044242975"><ele>1248.0</ele><time>2026-04-27T08:40:25.999Z</time></trkpt><trkpt lat="32.23565392745136" lon="-4.3981407554728555"><ele>1248.0</ele><time>2026-04-27T08:40:26.999Z</time></trkpt><trkpt lat="32.23591584878789" lon="-4.397994993296313"><ele>1248.0</ele><time>2026-04-27T08:40:27.999Z</time></trkpt><trkpt lat="32.236178045535375" lon="-4.397850330582771"><ele>1248.0</ele><time>2026-04-27T08:40:28.999Z</time></trkpt><trkpt lat="32.236440005623905" lon="-4.3977064609941365"><ele>1248.5</ele><time>2026-04-27T08:40:29.999Z</time></trkpt><trkpt lat="32.236700135105934" lon="-4.397563603825905"><ele>1249.0</ele><time>2026-04-27T08:40:30.999Z</time></trkpt><trkpt lat="32.236956118633984" lon="-4.397421345795882"><ele>1249.0</ele><time>2026-04-27T08:40:31.999Z</time></trkpt><trkpt lat="32.23720869913884" lon="-4.397282082872689"><ele>1249.0</ele><time>2026-04-27T08:40:32.999Z</time></trkpt><trkpt lat="32.237457834476956" lon="-4.397145802253357"><ele>1249.5</ele><time>2026-04-27T08:40:33.999Z</time></trkpt><trkpt lat="32.23770325337441" lon="-4.397012117572101"><ele>1250.0</ele><time>2026-04-27T08:40:34.999Z</time></trkpt><trkpt lat="32.237943181049694" lon="-4.39688229477801"><ele>1250.0</ele><time>2026-04-27T08:40:35.999Z</time></trkpt><trkpt lat="32.23817800813691" lon="-4.396755501586461"><ele>1250.0</ele><time>2026-04-27T08:40:36.999Z</time></trkpt><trkpt lat="32.2384068207962" lon="-4.396629424171612"><ele>1250.0</ele><time>2026-04-27T08:40:37.999Z</time></trkpt><trkpt lat="32.23863024441275" lon="-4.396505043393175"><ele>1250.0</ele><time>2026-04-27T08:40:38.999Z</time></trkpt><trkpt lat="32.238850152573505" lon="-4.396383354037596"><ele>1250.0</ele><time>2026-04-27T08:40:39.999Z</time></trkpt><trkpt lat="32.239068538217026" lon="-4.396264709919827"><ele>1250.0</ele><time>2026-04-27T08:40:40.999Z</time></trkpt><trkpt lat="32.239284844950014" lon="-4.396147698060016"><ele>1250.0</ele><time>2026-04-27T08:40:41.999Z</time></trkpt><trkpt lat="32.23949984023462" lon="-4.396029869373728"><ele>1250.0</ele><time>2026-04-27T08:40:42.999Z</time></trkpt><trkpt lat="32.239713729608326" lon="-4.395911588332758"><ele>1250.0</ele><time>2026-04-27T08:40:43.999Z</time></trkpt><trkpt lat="32.2399238098526" lon="-4.3957953835674255"><ele>1250.0</ele><time>2026-04-27T08:40:44.999Z</time></trkpt><trkpt lat="32.24012937916782" lon="-4.395682455604246"><ele>1250.0</ele><time>2026-04-27T08:40:45.999Z</time></trkpt><trkpt lat="32.24033187618994" lon="-4.39557358980286"><ele>1250.0</ele><time>2026-04-27T08:40:46.999Z</time></trkpt><trkpt lat="32.24052909744788" lon="-4.395463314098213"><ele>1250.0</ele><time>2026-04-27T08:40:47.999Z</time></trkpt><trkpt lat="32.24072235139056" lon="-4.3953526377680445"><ele>1250.0</ele><time>2026-04-27T08:40:48.999Z</time></trkpt><trkpt lat="32.240914432188646" lon="-4.395243686363752"><ele>1250.0</ele><time>2026-04-27T08:40:49.999Z</time></trkpt><trkpt lat="32.241106651671785" lon="-4.395136178975919"><ele>1250.0</ele><time>2026-04-27T08:40:50.999Z</time></trkpt><trkpt lat="32.2412919774916" lon="-4.395033394735502"><ele>1250.3333333333335</ele><time>2026-04-27T08:40:51.999Z</time></trkpt><trkpt lat="32.241468706746595" lon="-4.394938087847814"><ele>1250.6666666666667</ele><time>2026-04-27T08:40:52.999Z</time></trkpt><trkpt lat="32.241639582424895" lon="-4.3948445459112415"><ele>1251.0</ele><time>2026-04-27T08:40:53.999Z</time></trkpt><trkpt lat="32.24180898600866" lon="-4.394752004964809"><ele>1251.0</ele><time>2026-04-27T08:40:54.999Z</time></trkpt><trkpt lat="32.241974630122314" lon="-4.39465972152901"><ele>1251.0</ele><time>2026-04-27T08:40:55.999Z</time></trkpt><trkpt lat="32.242139722912036" lon="-4.394566887002167"><ele>1251.0</ele><time>2026-04-27T08:40:56.999Z</time></trkpt><trkpt lat="32.24230569070022" lon="-4.394473239490853"><ele>1251.0</ele><time>2026-04-27T08:40:57.999Z</time></trkpt><trkpt lat="32.24247539858997" lon="-4.3943769805652035"><ele>1251.0</ele><time>2026-04-27T08:40:58.999Z</time></trkpt><trkpt lat="32.242650021979905" lon="-4.39427997153709"><ele>1251.0</ele><time>2026-04-27T08:40:59.999Z</time></trkpt><trkpt lat="32.242827557871465" lon="-4.394182642078218"><ele>1251.0</ele><time>2026-04-27T08:41:00.999Z</time></trkpt><trkpt lat="32.243003292332126" lon="-4.3940868527814025"><ele>1251.0</ele><time>2026-04-27T08:41:01.999Z</time></trkpt><trkpt lat="32.24317803844505" lon="-4.39399172469994"><ele>1251.0</ele><time>2026-04-27T08:41:02.999Z</time></trkpt><trkpt lat="32.24335264128595" lon="-4.393893255364027"><ele>1250.6666666666667</ele><time>2026-04-27T08:41:04Z</time></trkpt><trkpt lat="32.243530263331806" lon="-4.393791885083796"><ele>1250.3333333333335</ele><time>2026-04-27T08:41:05Z</time></trkpt><trkpt lat="32.24370756996984" lon="-4.393692898750409"><ele>1250.0</ele><time>2026-04-27T08:41:06Z</time></trkpt><trkpt lat="32.243885263096296" lon="-4.3935937416645885"><ele>1250.3333333333335</ele><time>2026-04-27T08:41:07Z</time></trkpt><trkpt lat="32.2440605142866" lon="-4.393496537681189"><ele>1250.6666666666667</ele><time>2026-04-27T08:41:08Z</time></trkpt><trkpt lat="32.244232894905046" lon="-4.393402052211988"><ele>1251.0</ele><time>2026-04-27T08:41:09Z</time></trkpt><trkpt lat="32.24440057397466" lon="-4.3933100116347905"><ele>1251.0</ele><time>2026-04-27T08:41:10Z</time></trkpt><trkpt lat="32.244560857361016" lon="-4.393222013749451"><ele>1251.0</ele><time>2026-04-27T08:41:11Z</time></trkpt><trkpt lat="32.244717045099144" lon="-4.393135627166605"><ele>1251.0</ele><time>2026-04-27T08:41:12Z</time></trkpt><trkpt lat="32.24486499738024" lon="-4.39305543644062"><ele>1252.0</ele><time>2026-04-27T08:41:13Z</time></trkpt><trkpt lat="32.24500665921251" lon="-4.392979630161842"><ele>1253.0</ele><time>2026-04-27T08:41:14Z</time></trkpt><trkpt lat="32.245142277019625" lon="-4.392905387435906"><ele>1254.0</ele><time>2026-04-27T08:41:15Z</time></trkpt><trkpt lat="32.24527344465917" lon="-4.392827648144843"><ele>1254.0</ele><time>2026-04-27T08:41:16Z</time></trkpt><trkpt lat="32.24541034376105" lon="-4.392742851392459"><ele>1254.0</ele><time>2026-04-27T08:41:17Z</time></trkpt><trkpt lat="32.24555339154819" lon="-4.392651615107075"><ele>1254.0</ele><time>2026-04-27T08:41:18Z</time></trkpt><trkpt lat="32.24570387048697" lon="-4.392557346874996"><ele>1254.0</ele><time>2026-04-27T08:41:19Z</time></trkpt><trkpt lat="32.24585852537267" lon="-4.39245993493103"><ele>1254.0</ele><time>2026-04-27T08:41:20Z</time></trkpt><trkpt lat="32.2460196058306" lon="-4.392357005595938"><ele>1254.0</ele><time>2026-04-27T08:41:21Z</time></trkpt><trkpt lat="32.24618494638592" lon="-4.392249819889492"><ele>1254.0</ele><time>2026-04-27T08:41:22Z</time></trkpt><trkpt lat="32.24635437817225" lon="-4.392136087524972"><ele>1254.0</ele><time>2026-04-27T08:41:23Z</time></trkpt><trkpt lat="32.2465282863406" lon="-4.392016349604876"><ele>1254.0</ele><time>2026-04-27T08:41:24Z</time></trkpt><trkpt lat="32.24670746351696" lon="-4.391889341167604"><ele>1254.3333333333333</ele><time>2026-04-27T08:41:25Z</time></trkpt><trkpt lat="32.24688874738756" lon="-4.391757411805888"><ele>1254.6666666666665</ele><time>2026-04-27T08:41:26Z</time></trkpt><trkpt lat="32.2470707068213" lon="-4.3916215321288155"><ele>1255.0</ele><time>2026-04-27T08:41:27Z</time></trkpt><trkpt lat="32.247256008196885" lon="-4.3914802456683875"><ele>1255.6666666666665</ele><time>2026-04-27T08:41:28Z</time></trkpt><trkpt lat="32.247440920409396" lon="-4.39133460183878"><ele>1256.3333333333333</ele><time>2026-04-27T08:41:29Z</time></trkpt><trkpt lat="32.24762055796655" lon="-4.391187936960018"><ele>1257.0</ele><time>2026-04-27T08:41:30Z</time></trkpt><trkpt lat="32.24779697238178" lon="-4.391042813978296"><ele>1257.0</ele><time>2026-04-27T08:41:31Z</time></trkpt><trkpt lat="32.2479734781377" lon="-4.390892190400363"><ele>1257.0</ele><time>2026-04-27T08:41:32Z</time></trkpt><trkpt lat="32.24814760292722" lon="-4.39073825408926"><ele>1257.0</ele><time>2026-04-27T08:41:33Z</time></trkpt><trkpt lat="32.248321198329705" lon="-4.3905812141659"><ele>1257.3333333333333</ele><time>2026-04-27T08:41:34Z</time></trkpt><trkpt lat="32.24849446209935" lon="-4.390418380901905"><ele>1257.6666666666665</ele><time>2026-04-27T08:41:35Z</time></trkpt><trkpt lat="32.24866899472265" lon="-4.390251844779631"><ele>1258.0</ele><time>2026-04-27T08:41:36Z</time></trkpt><trkpt lat="32.248846286052455" lon="-4.390083352895517"><ele>1259.5</ele><time>2026-04-27T08:41:37Z</time></trkpt><trkpt lat="32.24902563768364" lon="-4.389914440174529"><ele>1261.0</ele><time>2026-04-27T08:41:38Z</time></trkpt><trkpt lat="32.249203309835636" lon="-4.389745651375432"><ele>1259.0</ele><time>2026-04-27T08:41:39Z</time></trkpt><trkpt lat="32.24938021444507" lon="-4.389580354281565"><ele>1257.0</ele><time>2026-04-27T08:41:40Z</time></trkpt><trkpt lat="32.249556348010216" lon="-4.389417812675392"><ele>1255.0</ele><time>2026-04-27T08:41:41Z</time></trkpt><trkpt lat="32.24972964121902" lon="-4.389249755766359"><ele>1258.5</ele><time>2026-04-27T08:41:42Z</time></trkpt><trkpt lat="32.24990153314378" lon="-4.389077624409587"><ele>1262.0</ele><time>2026-04-27T08:41:43Z</time></trkpt><trkpt lat="32.25007441348638" lon="-4.388905635389319"><ele>1260.5</ele><time>2026-04-27T08:41:44Z</time></trkpt><trkpt lat="32.250251336915014" lon="-4.388730574026914"><ele>1259.0</ele><time>2026-04-27T08:41:45Z</time></trkpt><trkpt lat="32.25043330762388" lon="-4.388556061071109"><ele>1259.0</ele><time>2026-04-27T08:41:46Z</time></trkpt><trkpt lat="32.25061867186146" lon="-4.388385307021776"><ele>1259.0</ele><time>2026-04-27T08:41:47Z</time></trkpt><trkpt lat="32.250816720783384" lon="-4.388225043041491"><ele>1261.0</ele><time>2026-04-27T08:41:48Z</time></trkpt><trkpt lat="32.25101809661028" lon="-4.388073732694514"><ele>1263.0</ele><time>2026-04-27T08:41:49Z</time></trkpt><trkpt lat="32.25121808045698" lon="-4.387922697342691"><ele>1263.5</ele><time>2026-04-27T08:41:50Z</time></trkpt><trkpt lat="32.251417114617695" lon="-4.387769754571176"><ele>1264.0</ele><time>2026-04-27T08:41:51Z</time></trkpt><trkpt lat="32.25161705345638" lon="-4.387618766998883"><ele>1264.5</ele><time>2026-04-27T08:41:52Z</time></trkpt><trkpt lat="32.25181783348629" lon="-4.3874687425369725"><ele>1265.0</ele><time>2026-04-27T08:41:53Z</time></trkpt><trkpt lat="32.25201626702913" lon="-4.387322665015552"><ele>1265.0</ele><time>2026-04-27T08:41:54Z</time></trkpt><trkpt lat="32.25221557055356" lon="-4.387178883187159"><ele>1265.0</ele><time>2026-04-27T08:41:55Z</time></trkpt><trkpt lat="32.252409555153626" lon="-4.387046715502479"><ele>1264.6666666666667</ele><time>2026-04-27T08:41:56Z</time></trkpt><trkpt lat="32.25260820602498" lon="-4.386933801483569"><ele>1264.3333333333333</ele><time>2026-04-27T08:41:57Z</time></trkpt><trkpt lat="32.25281296091087" lon="-4.386848144763252"><ele>1264.0</ele><time>2026-04-27T08:41:58Z</time></trkpt><trkpt lat="32.253019694870986" lon="-4.386778520814921"><ele>1266.3333333333333</ele><time>2026-04-27T08:41:59Z</time></trkpt><trkpt lat="32.25323149451292" lon="-4.386725336966502"><ele>1268.6666666666667</ele><time>2026-04-27T08:42:00Z</time></trkpt><trkpt lat="32.25344450769995" lon="-4.3866952778845025"><ele>1271.0</ele><time>2026-04-27T08:42:01Z</time></trkpt><trkpt lat="32.2536610055708" lon="-4.386685351758508"><ele>1271.0</ele><time>2026-04-27T08:42:02Z</time></trkpt><trkpt lat="32.25387718078387" lon="-4.386696985714619"><ele>1271.0</ele><time>2026-04-27T08:42:03Z</time></trkpt><trkpt lat="32.25408915854588" lon="-4.386725767358448"><ele>1271.0</ele><time>2026-04-27T08:42:04Z</time></trkpt><trkpt lat="32.25430178731673" lon="-4.386777199495224"><ele>1272.3333333333335</ele><time>2026-04-27T08:42:05Z</time></trkpt><trkpt lat="32.25450996970148" lon="-4.386849535376211"><ele>1273.6666666666667</ele><time>2026-04-27T08:42:06Z</time></trkpt><trkpt lat="32.25471771504036" lon="-4.3869434852043785"><ele>1275.0</ele><time>2026-04-27T08:42:07Z</time></trkpt><trkpt lat="32.254928869792174" lon="-4.3870593046280195"><ele>1277.0</ele><time>2026-04-27T08:42:08Z</time></trkpt><trkpt lat="32.25513722562593" lon="-4.387195957168014"><ele>1279.0</ele><time>2026-04-27T08:42:09Z</time></trkpt><trkpt lat="32.25533525396501" lon="-4.387350354860428"><ele>1279.0</ele><time>2026-04-27T08:42:10Z</time></trkpt><trkpt lat="32.25554250876592" lon="-4.387502615333715"><ele>1279.0</ele><time>2026-04-27T08:42:10.999Z</time></trkpt><trkpt lat="32.255735017728455" lon="-4.387685707267298"><ele>1280.0</ele><time>2026-04-27T08:42:11.999Z</time></trkpt><trkpt lat="32.25592153193649" lon="-4.387871142130382"><ele>1281.0</ele><time>2026-04-27T08:42:12.999Z</time></trkpt><trkpt lat="32.256091777173125" lon="-4.388073384695207"><ele>1283.5</ele><time>2026-04-27T08:42:13.999Z</time></trkpt><trkpt lat="32.256266837540615" lon="-4.388265512629435"><ele>1286.0</ele><time>2026-04-27T08:42:14.999Z</time></trkpt><trkpt lat="32.256434637686766" lon="-4.388478606685365"><ele>1286.5</ele><time>2026-04-27T08:42:15.999Z</time></trkpt><trkpt lat="32.256603780072545" lon="-4.38869655836632"><ele>1287.0</ele><time>2026-04-27T08:42:16.999Z</time></trkpt><trkpt lat="32.25675114984119" lon="-4.388939259465167"><ele>1290.0</ele><time>2026-04-27T08:42:17.999Z</time></trkpt><trkpt lat="32.25688267380576" lon="-4.3891861186208825"><ele>1293.0</ele><time>2026-04-27T08:42:18.999Z</time></trkpt><trkpt lat="32.25700594273148" lon="-4.3894493921592765"><ele>1296.0</ele><time>2026-04-27T08:42:19.999Z</time></trkpt><trkpt lat="32.25712704120533" lon="-4.389716303792591"><ele>1299.0</ele><time>2026-04-27T08:42:20.999Z</time></trkpt><trkpt lat="32.257245502720274" lon="-4.389977564372869"><ele>1296.0</ele><time>2026-04-27T08:42:21.999Z</time></trkpt><trkpt lat="32.25736083911341" lon="-4.390226584107835"><ele>1293.0</ele><time>2026-04-27T08:42:22.999Z</time></trkpt><trkpt lat="32.25748606591547" lon="-4.390474074196967"><ele>1292.0</ele><time>2026-04-27T08:42:23.999Z</time></trkpt><trkpt lat="32.25761720812294" lon="-4.390730497558908"><ele>1291.0</ele><time>2026-04-27T08:42:24.999Z</time></trkpt><trkpt lat="32.25777191192168" lon="-4.390975446659906"><ele>1291.0</ele><time>2026-04-27T08:42:25.999Z</time></trkpt><trkpt lat="32.257935048633136" lon="-4.391218920982815"><ele>1291.0</ele><time>2026-04-27T08:42:26.999Z</time></trkpt><trkpt lat="32.25811074352802" lon="-4.391451350144334"><ele>1289.0</ele><time>2026-04-27T08:42:27.999Z</time></trkpt><trkpt lat="32.258279771266245" lon="-4.391653807719272"><ele>1287.0</ele><time>2026-04-27T08:42:28.999Z</time></trkpt><trkpt lat="32.25844884688945" lon="-4.391841263422535"><ele>1287.0</ele><time>2026-04-27T08:42:29.999Z</time></trkpt><trkpt lat="32.258603265901705" lon="-4.392033262731573"><ele>1287.0</ele><time>2026-04-27T08:42:30.999Z</time></trkpt><trkpt lat="32.2587726988268" lon="-4.392197288214416"><ele>1287.0</ele><time>2026-04-27T08:42:31.999Z</time></trkpt><trkpt lat="32.25895194102111" lon="-4.392346250350658"><ele>1285.6666666666667</ele><time>2026-04-27T08:42:32.999Z</time></trkpt><trkpt lat="32.25913882059871" lon="-4.392484786479883"><ele>1284.3333333333335</ele><time>2026-04-27T08:42:33.999Z</time></trkpt><trkpt lat="32.259329259988" lon="-4.39261089727608"><ele>1283.0</ele><time>2026-04-27T08:42:34.999Z</time></trkpt><trkpt lat="32.25951120636563" lon="-4.392732504367731"><ele>1283.0</ele><time>2026-04-27T08:42:35.999Z</time></trkpt><trkpt lat="32.259687365999895" lon="-4.392858957166666"><ele>1283.0</ele><time>2026-04-27T08:42:36.999Z</time></trkpt><trkpt lat="32.259852632013924" lon="-4.392996056483594"><ele>1283.0</ele><time>2026-04-27T08:42:37.999Z</time></trkpt><trkpt lat="32.26001629939484" lon="-4.39313831005069"><ele>1281.0</ele><time>2026-04-27T08:42:38.999Z</time></trkpt><trkpt lat="32.26017286536864" lon="-4.393290950683172"><ele>1279.0</ele><time>2026-04-27T08:42:39.999Z</time></trkpt><trkpt lat="32.26032608251328" lon="-4.393455816048946"><ele>1277.0</ele><time>2026-04-27T08:42:40.999Z</time></trkpt><trkpt lat="32.2604652368674" lon="-4.39363339302616"><ele>1277.0</ele><time>2026-04-27T08:42:41.999Z</time></trkpt><trkpt lat="32.26059428810091" lon="-4.393829418386558"><ele>1277.0</ele><time>2026-04-27T08:42:42.999Z</time></trkpt><trkpt lat="32.26071513865464" lon="-4.394045068988217"><ele>1277.0</ele><time>2026-04-27T08:42:43.999Z</time></trkpt><trkpt lat="32.26081541748635" lon="-4.394290744196986"><ele>1274.5</ele><time>2026-04-27T08:42:44.999Z</time></trkpt><trkpt lat="32.26089494539749" lon="-4.394548604737385"><ele>1272.0</ele><time>2026-04-27T08:42:45.999Z</time></trkpt><trkpt lat="32.26095940502695" lon="-4.394816869841432"><ele>1271.0</ele><time>2026-04-27T08:42:46.999Z</time></trkpt><trkpt lat="32.26101144400274" lon="-4.395091779815504"><ele>1270.0</ele><time>2026-04-27T08:42:47.999Z</time></trkpt><trkpt lat="32.26104316378466" lon="-4.395359204099458"><ele>1271.0</ele><time>2026-04-27T08:42:48.999Z</time></trkpt><trkpt lat="32.26105449314963" lon="-4.395625159593612"><ele>1272.0</ele><time>2026-04-27T08:42:49.999Z</time></trkpt><trkpt lat="32.26104477166566" lon="-4.395896350058243"><ele>1272.0</ele><time>2026-04-27T08:42:50.999Z</time></trkpt><trkpt lat="32.26101365094571" lon="-4.3961783584635965"><ele>1272.0</ele><time>2026-04-27T08:42:51.999Z</time></trkpt><trkpt lat="32.26096557206554" lon="-4.396472740498035"><ele>1271.0</ele><time>2026-04-27T08:42:52.999Z</time></trkpt><trkpt lat="32.260909114330325" lon="-4.396781003653558"><ele>1270.0</ele><time>2026-04-27T08:42:53.999Z</time></trkpt><trkpt lat="32.26084726815267" lon="-4.397101244593254"><ele>1267.5</ele><time>2026-04-27T08:42:54.999Z</time></trkpt><trkpt lat="32.260784331800444" lon="-4.397429072045779"><ele>1265.0</ele><time>2026-04-27T08:42:55.999Z</time></trkpt><trkpt lat="32.2607181495727" lon="-4.3977670320054685"><ele>1264.0</ele><time>2026-04-27T08:42:56.999Z</time></trkpt><trkpt lat="32.260649451100555" lon="-4.398113187463752"><ele>1263.0</ele><time>2026-04-27T08:42:57.999Z</time></trkpt><trkpt lat="32.26057757103882" lon="-4.398467691164024"><ele>1269.5</ele><time>2026-04-27T08:42:58.999Z</time></trkpt><trkpt lat="32.26050650882022" lon="-4.398825397570891"><ele>1276.0</ele><time>2026-04-27T08:42:59.999Z</time></trkpt><trkpt lat="32.26043644594891" lon="-4.399186721341069"><ele>1276.0</ele><time>2026-04-27T08:43:00.999Z</time></trkpt><trkpt lat="32.26036572049259" lon="-4.399544138706186"><ele>1276.0</ele><time>2026-04-27T08:43:01.999Z</time></trkpt><trkpt lat="32.260294800141324" lon="-4.399897048096741"><ele>1276.5</ele><time>2026-04-27T08:43:02.999Z</time></trkpt><trkpt lat="32.260222748362345" lon="-4.400244083342829"><ele>1277.0</ele><time>2026-04-27T08:43:03.999Z</time></trkpt><trkpt lat="32.260155038274085" lon="-4.400589413316812"><ele>1277.0</ele><time>2026-04-27T08:43:04.999Z</time></trkpt><trkpt lat="32.260091215782644" lon="-4.4009319018730695"><ele>1277.0</ele><time>2026-04-27T08:43:05.999Z</time></trkpt><trkpt lat="32.26002618752579" lon="-4.4012732876145195"><ele>1274.5</ele><time>2026-04-27T08:43:06.999Z</time></trkpt><trkpt lat="32.259959522867675" lon="-4.401613246798188"><ele>1272.0</ele><time>2026-04-27T08:43:07.999Z</time></trkpt><trkpt lat="32.25989194267894" lon="-4.401957418293902"><ele>1271.5</ele><time>2026-04-27T08:43:08.999Z</time></trkpt><trkpt lat="32.25982489163492" lon="-4.402309718655071"><ele>1271.0</ele><time>2026-04-27T08:43:10Z</time></trkpt><trkpt lat="32.25975532395462" lon="-4.402668374095881"><ele>1275.0</ele><time>2026-04-27T08:43:11Z</time></trkpt><trkpt lat="32.259682622931656" lon="-4.403031180745632"><ele>1279.0</ele><time>2026-04-27T08:43:12Z</time></trkpt><trkpt lat="32.25960948027227" lon="-4.4033959285751045"><ele>1279.0</ele><time>2026-04-27T08:43:13Z</time></trkpt><trkpt lat="32.25953554934294" lon="-4.403757273104513"><ele>1279.0</ele><time>2026-04-27T08:43:14Z</time></trkpt><trkpt lat="32.25946284407616" lon="-4.404107321454014"><ele>1278.5</ele><time>2026-04-27T08:43:15Z</time></trkpt><trkpt lat="32.25939350366903" lon="-4.40444194896041"><ele>1278.0</ele><time>2026-04-27T08:43:16Z</time></trkpt><trkpt lat="32.25932883109881" lon="-4.404758513092463"><ele>1277.5</ele><time>2026-04-27T08:43:17Z</time></trkpt><trkpt lat="32.25926864135183" lon="-4.40506107824517"><ele>1277.0</ele><time>2026-04-27T08:43:18Z</time></trkpt><trkpt lat="32.25920916402696" lon="-4.405348687614751"><ele>1278.0</ele><time>2026-04-27T08:43:19Z</time></trkpt><trkpt lat="32.25915154560558" lon="-4.4056312734397975"><ele>1279.0</ele><time>2026-04-27T08:43:20Z</time></trkpt><trkpt lat="32.25909674074144" lon="-4.4059106534709604"><ele>1279.0</ele><time>2026-04-27T08:43:21Z</time></trkpt><trkpt lat="32.25904304292373" lon="-4.406182689410868"><ele>1279.0</ele><time>2026-04-27T08:43:22Z</time></trkpt><trkpt lat="32.258992779127475" lon="-4.406441127918862"><ele>1282.0</ele><time>2026-04-27T08:43:23Z</time></trkpt><trkpt lat="32.25895021444753" lon="-4.406680100460552"><ele>1285.0</ele><time>2026-04-27T08:43:24Z</time></trkpt><trkpt lat="32.25891148598265" lon="-4.406909992248838"><ele>1288.0</ele><time>2026-04-27T08:43:25Z</time></trkpt><trkpt lat="32.2588785876052" lon="-4.407131682878059"><ele>1286.6666666666665</ele><time>2026-04-27T08:43:26Z</time></trkpt><trkpt lat="32.25884978481655" lon="-4.407349495042755"><ele>1285.3333333333333</ele><time>2026-04-27T08:43:27Z</time></trkpt><trkpt lat="32.258825985765895" lon="-4.407564678027647"><ele>1284.0</ele><time>2026-04-27T08:43:28Z</time></trkpt><trkpt lat="32.25880423217574" lon="-4.40778477616804"><ele>1281.3333333333333</ele><time>2026-04-27T08:43:29Z</time></trkpt><trkpt lat="32.25877739685294" lon="-4.408017501936005"><ele>1278.6666666666665</ele><time>2026-04-27T08:43:30Z</time></trkpt><trkpt lat="32.25874979467773" lon="-4.408264413825276"><ele>1276.0</ele><time>2026-04-27T08:43:31Z</time></trkpt><trkpt lat="32.25872712818613" lon="-4.408532371374664"><ele>1276.0</ele><time>2026-04-27T08:43:32Z</time></trkpt><trkpt lat="32.25871199160768" lon="-4.408815459152159"><ele>1276.0</ele><time>2026-04-27T08:43:33Z</time></trkpt><trkpt lat="32.25869847399588" lon="-4.409110631738816"><ele>1277.5</ele><time>2026-04-27T08:43:34Z</time></trkpt><trkpt lat="32.258682720077296" lon="-4.409411851137496"><ele>1279.0</ele><time>2026-04-27T08:43:35Z</time></trkpt><trkpt lat="32.258667680319185" lon="-4.409711254904904"><ele>1280.0</ele><time>2026-04-27T08:43:36Z</time></trkpt><trkpt lat="32.25865620925923" lon="-4.410005010062651"><ele>1281.0</ele><time>2026-04-27T08:43:37Z</time></trkpt><trkpt lat="32.25867977963762" lon="-4.410289246530156"><ele>1284.0</ele><time>2026-04-27T08:43:38Z</time></trkpt><trkpt lat="32.25869759693862" lon="-4.4105622804098905"><ele>1287.0</ele><time>2026-04-27T08:43:39Z</time></trkpt><trkpt lat="32.25872881194541" lon="-4.410826268220846"><ele>1287.0</ele><time>2026-04-27T08:43:40Z</time></trkpt><trkpt lat="32.258776306168215" lon="-4.411085702815718"><ele>1287.0</ele><time>2026-04-27T08:43:41Z</time></trkpt><trkpt lat="32.258824464683876" lon="-4.411345319031728"><ele>1287.0</ele><time>2026-04-27T08:43:42Z</time></trkpt><trkpt lat="32.258930015054446" lon="-4.411576890810769"><ele>1280.0</ele><time>2026-04-27T08:43:43Z</time></trkpt><trkpt lat="32.25904079496077" lon="-4.411804410009799"><ele>1273.0</ele><time>2026-04-27T08:43:44Z</time></trkpt><trkpt lat="32.259167937655754" lon="-4.412027771029195"><ele>1273.5</ele><time>2026-04-27T08:43:45Z</time></trkpt><trkpt lat="32.259309293575875" lon="-4.412249776638822"><ele>1274.0</ele><time>2026-04-27T08:43:46Z</time></trkpt><trkpt lat="32.25945402271615" lon="-4.412476707071428"><ele>1274.0</ele><time>2026-04-27T08:43:47Z</time></trkpt><trkpt lat="32.25963297766819" lon="-4.412671611185636"><ele>1274.0</ele><time>2026-04-27T08:43:48Z</time></trkpt><trkpt lat="32.259829074029426" lon="-4.412844040850389"><ele>1272.0</ele><time>2026-04-27T08:43:49Z</time></trkpt><trkpt lat="32.26003176087456" lon="-4.412995581467769"><ele>1270.0</ele><time>2026-04-27T08:43:50Z</time></trkpt><trkpt lat="32.2602422408087" lon="-4.413119167258644"><ele>1270.0</ele><time>2026-04-27T08:43:51Z</time></trkpt><trkpt lat="32.26045794953064" lon="-4.413219466036724"><ele>1270.0</ele><time>2026-04-27T08:43:52Z</time></trkpt><trkpt lat="32.26066511900166" lon="-4.413290631002896"><ele>1270.0</ele><time>2026-04-27T08:43:53Z</time></trkpt><trkpt lat="32.2608683351703" lon="-4.413332532229591"><ele>1270.6666666666665</ele><time>2026-04-27T08:43:54Z</time></trkpt><trkpt lat="32.261067928902406" lon="-4.413346502683378"><ele>1271.3333333333333</ele><time>2026-04-27T08:43:55Z</time></trkpt><trkpt lat="32.261274250796625" lon="-4.413339484504534"><ele>1272.0</ele><time>2026-04-27T08:43:56Z</time></trkpt><trkpt lat="32.261485223578305" lon="-4.413312488127092"><ele>1270.3333333333333</ele><time>2026-04-27T08:43:57Z</time></trkpt><trkpt lat="32.261695434956266" lon="-4.413263087391404"><ele>1268.6666666666665</ele><time>2026-04-27T08:43:58Z</time></trkpt><trkpt lat="32.26190772678672" lon="-4.413191878173973"><ele>1267.0</ele><time>2026-04-27T08:43:59Z</time></trkpt><trkpt lat="32.26212103853538" lon="-4.413110091262539"><ele>1265.6666666666665</ele><time>2026-04-27T08:44:00Z</time></trkpt><trkpt lat="32.262331287338384" lon="-4.41302573737801"><ele>1264.3333333333333</ele><time>2026-04-27T08:44:01Z</time></trkpt><trkpt lat="32.2625386319794" lon="-4.412939363901624"><ele>1263.0</ele><time>2026-04-27T08:44:02Z</time></trkpt><trkpt lat="32.26273737356802" lon="-4.412855274868956"><ele>1263.0</ele><time>2026-04-27T08:44:03Z</time></trkpt><trkpt lat="32.262925928337566" lon="-4.412776181608643"><ele>1263.0</ele><time>2026-04-27T08:44:04Z</time></trkpt><trkpt lat="32.26310435580681" lon="-4.412700622728341"><ele>1263.0</ele><time>2026-04-27T08:44:05Z</time></trkpt><trkpt lat="32.26327906680306" lon="-4.412627241741291"><ele>1263.6666666666667</ele><time>2026-04-27T08:44:06Z</time></trkpt><trkpt lat="32.263443688536135" lon="-4.412556501039994"><ele>1264.3333333333335</ele><time>2026-04-27T08:44:07Z</time></trkpt><trkpt lat="32.26359814331916" lon="-4.412490940239396"><ele>1265.0</ele><time>2026-04-27T08:44:08Z</time></trkpt><trkpt lat="32.26374447848179" lon="-4.4124282171039395"><ele>1265.0</ele><time>2026-04-27T08:44:09Z</time></trkpt><trkpt lat="32.26389312625712" lon="-4.412367665774165"><ele>1265.0</ele><time>2026-04-27T08:44:10Z</time></trkpt><trkpt lat="32.26404411919727" lon="-4.412312981564625"><ele>1265.0</ele><time>2026-04-27T08:44:11Z</time></trkpt><trkpt lat="32.26419265495639" lon="-4.412265448664119"><ele>1266.6666666666667</ele><time>2026-04-27T08:44:12Z</time></trkpt><trkpt lat="32.26434282296665" lon="-4.4122391548394475"><ele>1268.3333333333333</ele><time>2026-04-27T08:44:13Z</time></trkpt><trkpt lat="32.26449393259146" lon="-4.412238254568619"><ele>1270.0</ele><time>2026-04-27T08:44:13.999Z</time></trkpt><trkpt lat="32.2646429037167" lon="-4.4122583827177255"><ele>1271.0</ele><time>2026-04-27T08:44:14.999Z</time></trkpt><trkpt lat="32.26479733944802" lon="-4.412261358644999"><ele>1272.0</ele><time>2026-04-27T08:44:15.999Z</time></trkpt><trkpt lat="32.264947818518706" lon="-4.41232670248705"><ele>1273.0</ele><time>2026-04-27T08:44:16.999Z</time></trkpt><trkpt lat="32.26509264436428" lon="-4.412373113692541"><ele>1273.0</ele><time>2026-04-27T08:44:17.999Z</time></trkpt><trkpt lat="32.26523232646767" lon="-4.412439376429993"><ele>1273.0</ele><time>2026-04-27T08:44:18.999Z</time></trkpt><trkpt lat="32.26535769017755" lon="-4.412531038822588"><ele>1273.0</ele><time>2026-04-27T08:44:19.999Z</time></trkpt><trkpt lat="32.265487902423644" lon="-4.4125961343829285"><ele>1273.0</ele><time>2026-04-27T08:44:20.999Z</time></trkpt><trkpt lat="32.26559996051388" lon="-4.412683919990065"><ele>1273.75</ele><time>2026-04-27T08:44:21.999Z</time></trkpt><trkpt lat="32.26569753227337" lon="-4.412764840992274"><ele>1274.5</ele><time>2026-04-27T08:44:22.999Z</time></trkpt><trkpt lat="32.26578262041806" lon="-4.412859365023225"><ele>1275.25</ele><time>2026-04-27T08:44:23.999Z</time></trkpt><trkpt lat="32.26586412020963" lon="-4.412946311500042"><ele>1276.0</ele><time>2026-04-27T08:44:24.999Z</time></trkpt><trkpt lat="32.26594456649641" lon="-4.413032134050334"><ele>1276.3333333333333</ele><time>2026-04-27T08:44:25.999Z</time></trkpt><trkpt lat="32.26598124873951" lon="-4.413166256578466"><ele>1276.6666666666665</ele><time>2026-04-27T08:44:26.999Z</time></trkpt><trkpt lat="32.266044117532154" lon="-4.413249077686245"><ele>1277.0</ele><time>2026-04-27T08:44:27.999Z</time></trkpt><trkpt lat="32.26609955752687" lon="-4.413308930402277"><ele>1277.3333333333333</ele><time>2026-04-27T08:44:28.999Z</time></trkpt><trkpt lat="32.26615305392733" lon="-4.413359740452492"><ele>1277.6666666666667</ele><time>2026-04-27T08:44:29.999Z</time></trkpt><trkpt lat="32.26621056424324" lon="-4.413406244506749"><ele>1278.0</ele><time>2026-04-27T08:44:30.999Z</time></trkpt><trkpt lat="32.26627037626133" lon="-4.4134391129305195"><ele>1278.0000000000002</ele><time>2026-04-27T08:44:31.999Z</time></trkpt><trkpt lat="32.26633030683559" lon="-4.413467893370516"><ele>1278.0</ele><time>2026-04-27T08:44:32.999Z</time></trkpt><trkpt lat="32.26638627731944" lon="-4.413503095154072"><ele>1278.0</ele><time>2026-04-27T08:44:33.999Z</time></trkpt><trkpt lat="32.26643271853699" lon="-4.413556408727388"><ele>1278.0</ele><time>2026-04-27T08:44:34.999Z</time></trkpt><trkpt lat="32.266464770028435" lon="-4.413623435284948"><ele>1278.0</ele><time>2026-04-27T08:44:35.999Z</time></trkpt><trkpt lat="32.26649185792409" lon="-4.413697258008332"><ele>1278.0000000000002</ele><time>2026-04-27T08:44:36.999Z</time></trkpt><trkpt lat="32.26648379364537" lon="-4.413792528566044"><ele>1278.0</ele><time>2026-04-27T08:44:37.999Z</time></trkpt><trkpt lat="32.266434831716126" lon="-4.413899073212436"><ele>1277.75</ele><time>2026-04-27T08:44:38.999Z</time></trkpt><trkpt lat="32.26640617758277" lon="-4.4140316519446765"><ele>1277.5</ele><time>2026-04-27T08:44:39.999Z</time></trkpt><trkpt lat="32.2663856437264" lon="-4.414176001780416"><ele>1277.25</ele><time>2026-04-27T08:44:40.999Z</time></trkpt><trkpt lat="32.2663741296156" lon="-4.414326099674609"><ele>1277.0</ele><time>2026-04-27T08:44:41.999Z</time></trkpt><trkpt lat="32.26642902296558" lon="-4.414495989381232"><ele>1277.0</ele><time>2026-04-27T08:44:42.999Z</time></trkpt><trkpt lat="32.26642827806926" lon="-4.414689970687564"><ele>1277.0</ele><time>2026-04-27T08:44:43.999Z</time></trkpt><trkpt lat="32.266426091596806" lon="-4.414905295121332"><ele>1277.0</ele><time>2026-04-27T08:44:44.999Z</time></trkpt><trkpt lat="32.266422056356994" lon="-4.415129876072587"><ele>1277.0</ele><time>2026-04-27T08:44:45.999Z</time></trkpt><trkpt lat="32.26641764770629" lon="-4.415363570159095"><ele>1277.0</ele><time>2026-04-27T08:44:46.999Z</time></trkpt><trkpt lat="32.26641318441168" lon="-4.415600160800644"><ele>1277.0</ele><time>2026-04-27T08:44:47.999Z</time></trkpt><trkpt lat="32.266409248593504" lon="-4.4158458786495185"><ele>1277.0</ele><time>2026-04-27T08:44:48.999Z</time></trkpt><trkpt lat="32.266409097899874" lon="-4.416082586012808"><ele>1277.0</ele><time>2026-04-27T08:44:49.999Z</time></trkpt><trkpt lat="32.26640775045005" lon="-4.416320701026577"><ele>1277.0</ele><time>2026-04-27T08:44:50.999Z</time></trkpt><trkpt lat="32.266406576307766" lon="-4.416561938679843"><ele>1276.6666666666667</ele><time>2026-04-27T08:44:51.999Z</time></trkpt><trkpt lat="32.26640345613397" lon="-4.416802042388004"><ele>1276.3333333333333</ele><time>2026-04-27T08:44:52.999Z</time></trkpt><trkpt lat="32.26640060016545" lon="-4.417042326844728"><ele>1276.0</ele><time>2026-04-27T08:44:53.999Z</time></trkpt><trkpt lat="32.266397943077855" lon="-4.417284278518389"><ele>1276.6666666666665</ele><time>2026-04-27T08:44:54.999Z</time></trkpt><trkpt lat="32.26639606089185" lon="-4.417530055805278"><ele>1277.3333333333333</ele><time>2026-04-27T08:44:55.999Z</time></trkpt><trkpt lat="32.266396711493584" lon="-4.417784678071024"><ele>1278.0</ele><time>2026-04-27T08:44:56.999Z</time></trkpt><trkpt lat="32.26639806555995" lon="-4.418047462197025"><ele>1279.0</ele><time>2026-04-27T08:44:57.999Z</time></trkpt><trkpt lat="32.2663985288274" lon="-4.418313610086813"><ele>1280.0</ele><time>2026-04-27T08:44:58.999Z</time></trkpt><trkpt lat="32.26639899948046" lon="-4.418584000730911"><ele>1278.5</ele><time>2026-04-27T08:44:59.999Z</time></trkpt><trkpt lat="32.26639917960084" lon="-4.4188615178614565"><ele>1277.0</ele><time>2026-04-27T08:45:00.999Z</time></trkpt><trkpt lat="32.2663991796012" lon="-4.41915114097714"><ele>1277.0</ele><time>2026-04-27T08:45:01.999Z</time></trkpt><trkpt lat="32.26639584556932" lon="-4.41944680045253"><ele>1277.0</ele><time>2026-04-27T08:45:02.999Z</time></trkpt><trkpt lat="32.26639150841792" lon="-4.41974088350964"><ele>1277.5</ele><time>2026-04-27T08:45:03.999Z</time></trkpt><trkpt lat="32.26638712959466" lon="-4.42003689941129"><ele>1278.0</ele><time>2026-04-27T08:45:04.999Z</time></trkpt><trkpt lat="32.26638269337664" lon="-4.420329811594118"><ele>1277.0</ele><time>2026-04-27T08:45:05.999Z</time></trkpt><trkpt lat="32.266378319194615" lon="-4.420619704667506"><ele>1276.0</ele><time>2026-04-27T08:45:06.999Z</time></trkpt><trkpt lat="32.26637406627303" lon="-4.4209029024271596"><ele>1276.0</ele><time>2026-04-27T08:45:07.999Z</time></trkpt><trkpt lat="32.266370598552435" lon="-4.4211815202034686"><ele>1276.0</ele><time>2026-04-27T08:45:08.999Z</time></trkpt><trkpt lat="32.266366767796505" lon="-4.421452074867749"><ele>1277.6666666666665</ele><time>2026-04-27T08:45:09.999Z</time></trkpt><trkpt lat="32.266362950004094" lon="-4.4217109233421725"><ele>1279.3333333333333</ele><time>2026-04-27T08:45:10.999Z</time></trkpt><trkpt lat="32.26635933251984" lon="-4.42195763711202"><ele>1281.0</ele><time>2026-04-27T08:45:11.999Z</time></trkpt><trkpt lat="32.26635565135344" lon="-4.422201622675729"><ele>1281.0</ele><time>2026-04-27T08:45:12.999Z</time></trkpt><trkpt lat="32.26630220558951" lon="-4.422452462108308"><ele>1281.0</ele><time>2026-04-27T08:45:13.999Z</time></trkpt><trkpt lat="32.266299510107004" lon="-4.422714023794338"><ele>1281.0</ele><time>2026-04-27T08:45:15Z</time></trkpt><trkpt lat="32.266296553163414" lon="-4.42297817975174"><ele>1280.0</ele><time>2026-04-27T08:45:16Z</time></trkpt><trkpt lat="32.26629286410803" lon="-4.423249087605519"><ele>1279.0</ele><time>2026-04-27T08:45:17Z</time></trkpt><trkpt lat="32.26628887500756" lon="-4.4235253749593335"><ele>1279.0</ele><time>2026-04-27T08:45:18Z</time></trkpt><trkpt lat="32.26633216570466" lon="-4.423806097951808"><ele>1279.0</ele><time>2026-04-27T08:45:19Z</time></trkpt><trkpt lat="32.26632888983197" lon="-4.424088820018793"><ele>1280.5</ele><time>2026-04-27T08:45:20Z</time></trkpt><trkpt lat="32.26632602688341" lon="-4.424377186897451"><ele>1282.0</ele><time>2026-04-27T08:45:21Z</time></trkpt><trkpt lat="32.26632325407804" lon="-4.42466849748275"><ele>1282.0</ele><time>2026-04-27T08:45:22Z</time></trkpt><trkpt lat="32.266320133414325" lon="-4.424958719233812"><ele>1282.0</ele><time>2026-04-27T08:45:23Z</time></trkpt><trkpt lat="32.26631735193828" lon="-4.425246167248127"><ele>1281.0</ele><time>2026-04-27T08:45:24Z</time></trkpt><trkpt lat="32.266314384225794" lon="-4.425530761829528"><ele>1280.0</ele><time>2026-04-27T08:45:25Z</time></trkpt><trkpt lat="32.2663116619642" lon="-4.425815358262476"><ele>1280.0</ele><time>2026-04-27T08:45:26Z</time></trkpt><trkpt lat="32.26630896787863" lon="-4.426097009045787"><ele>1280.0</ele><time>2026-04-27T08:45:27Z</time></trkpt><trkpt lat="32.26630559530046" lon="-4.426369441417874"><ele>1280.3333333333335</ele><time>2026-04-27T08:45:28Z</time></trkpt><trkpt lat="32.2663025749736" lon="-4.426635791842373"><ele>1280.6666666666667</ele><time>2026-04-27T08:45:29Z</time></trkpt><trkpt lat="32.26630002968041" lon="-4.426900502110514"><ele>1281.0</ele><time>2026-04-27T08:45:30Z</time></trkpt><trkpt lat="32.2662974429415" lon="-4.427169522963129"><ele>1282.0</ele><time>2026-04-27T08:45:31Z</time></trkpt><trkpt lat="32.26629437830817" lon="-4.4274401167018445"><ele>1283.0</ele><time>2026-04-27T08:45:32Z</time></trkpt><trkpt lat="32.26629062758539" lon="-4.427709838070918"><ele>1284.0</ele><time>2026-04-27T08:45:33Z</time></trkpt><trkpt lat="32.266286911373335" lon="-4.427977080052032"><ele>1285.0</ele><time>2026-04-27T08:45:34Z</time></trkpt><trkpt lat="32.26628117345714" lon="-4.428242993580478"><ele>1285.0</ele><time>2026-04-27T08:45:35Z</time></trkpt><trkpt lat="32.26627562412815" lon="-4.428511877360137"><ele>1285.0</ele><time>2026-04-27T08:45:36Z</time></trkpt><trkpt lat="32.26623871304789" lon="-4.428781474678203"><ele>1284.0</ele><time>2026-04-27T08:45:37Z</time></trkpt><trkpt lat="32.26623552267819" lon="-4.4290527914973845"><ele>1283.0</ele><time>2026-04-27T08:45:38Z</time></trkpt><trkpt lat="32.2662328462453" lon="-4.429324870115211"><ele>1283.0</ele><time>2026-04-27T08:45:39Z</time></trkpt><trkpt lat="32.266228500058794" lon="-4.4295921934994755"><ele>1283.0</ele><time>2026-04-27T08:45:40Z</time></trkpt><trkpt lat="32.266221014874596" lon="-4.429859801448324"><ele>1283.3333333333335</ele><time>2026-04-27T08:45:41Z</time></trkpt><trkpt lat="32.26620691093843" lon="-4.4301227873780755"><ele>1283.6666666666667</ele><time>2026-04-27T08:45:42Z</time></trkpt><trkpt lat="32.26618624634976" lon="-4.430367542898142"><ele>1284.0</ele><time>2026-04-27T08:45:43Z</time></trkpt><trkpt lat="32.26616760335367" lon="-4.430600746090792"><ele>1284.3333333333333</ele><time>2026-04-27T08:45:44Z</time></trkpt><trkpt lat="32.26614625071356" lon="-4.430809609473917"><ele>1284.6666666666665</ele><time>2026-04-27T08:45:45Z</time></trkpt><trkpt lat="32.26611542074662" lon="-4.431011324879232"><ele>1285.0</ele><time>2026-04-27T08:45:46Z</time></trkpt><trkpt lat="32.26607739459248" lon="-4.431211025974868"><ele>1284.3333333333333</ele><time>2026-04-27T08:45:47Z</time></trkpt><trkpt lat="32.26603658522769" lon="-4.431419998156809"><ele>1283.6666666666667</ele><time>2026-04-27T08:45:48Z</time></trkpt><trkpt lat="32.26599165327416" lon="-4.43163460453493"><ele>1283.0</ele><time>2026-04-27T08:45:49Z</time></trkpt><trkpt lat="32.26594403982563" lon="-4.431837724153966"><ele>1283.0</ele><time>2026-04-27T08:45:50Z</time></trkpt><trkpt lat="32.26589814508979" lon="-4.4320223061487845"><ele>1283.0</ele><time>2026-04-27T08:45:51Z</time></trkpt><trkpt lat="32.26585786371741" lon="-4.432186689923557"><ele>1283.0</ele><time>2026-04-27T08:45:52Z</time></trkpt><trkpt lat="32.26582222737356" lon="-4.432327520625146"><ele>1283.0</ele><time>2026-04-27T08:45:53Z</time></trkpt><trkpt lat="32.26579401717621" lon="-4.4324419444635765"><ele>1283.0</ele><time>2026-04-27T08:45:54Z</time></trkpt><trkpt lat="32.265771668469164" lon="-4.432532721092523"><ele>1283.0</ele><time>2026-04-27T08:45:55Z</time></trkpt><trkpt lat="32.265741026129476" lon="-4.432665517365096"><ele>1283.0</ele><time>2026-04-27T08:45:57Z</time></trkpt><trkpt lat="32.26571626773224" lon="-4.4327868529295404"><ele>1283.0</ele><time>2026-04-27T08:45:59Z</time></trkpt><trkpt lat="32.26569588385331" lon="-4.432860689532605"><ele>1283.0</ele><time>2026-04-27T08:46:00Z</time></trkpt><trkpt lat="32.265675872493716" lon="-4.432933344083779"><ele>1283.0</ele><time>2026-04-27T08:46:01Z</time></trkpt><trkpt lat="32.26564463573341" lon="-4.433060774809547"><ele>1283.0</ele><time>2026-04-27T08:46:03Z</time></trkpt><trkpt lat="32.26561433569115" lon="-4.4331718587067375"><ele>1283.0</ele><time>2026-04-27T08:46:05Z</time></trkpt><trkpt lat="32.26557481701689" lon="-4.433289357168197"><ele>1283.0</ele><time>2026-04-27T08:46:07Z</time></trkpt><trkpt lat="32.26554574114344" lon="-4.43337422278375"><ele>1283.0</ele><time>2026-04-27T08:46:08Z</time></trkpt><trkpt lat="32.2655152819125" lon="-4.433482444610684"><ele>1283.0</ele><time>2026-04-27T08:46:09Z</time></trkpt><trkpt lat="32.265484606283145" lon="-4.433601409168206"><ele>1283.0</ele><time>2026-04-27T08:46:10Z</time></trkpt><trkpt lat="32.26545449375059" lon="-4.433728675749876"><ele>1283.0</ele><time>2026-04-27T08:46:11Z</time></trkpt><trkpt lat="32.2654238734846" lon="-4.433859278455587"><ele>1283.0</ele><time>2026-04-27T08:46:12Z</time></trkpt><trkpt lat="32.265393332758634" lon="-4.433983193377073"><ele>1283.0</ele><time>2026-04-27T08:46:13Z</time></trkpt><trkpt lat="32.26536400238759" lon="-4.434100902292526"><ele>1283.0</ele><time>2026-04-27T08:46:14Z</time></trkpt><trkpt lat="32.26533618505217" lon="-4.434213814240947"><ele>1283.0</ele><time>2026-04-27T08:46:15Z</time></trkpt><trkpt lat="32.26531128846204" lon="-4.434317057958246"><ele>1283.0</ele><time>2026-04-27T08:46:16Z</time></trkpt><trkpt lat="32.265289607196365" lon="-4.434403905171048"><ele>1283.0</ele><time>2026-04-27T08:46:16.999Z</time></trkpt><trkpt lat="32.265268851776916" lon="-4.434485987891054"><ele>1283.0</ele><time>2026-04-27T08:46:17.999Z</time></trkpt><trkpt lat="32.265249350206155" lon="-4.4345617638900166"><ele>1283.0</ele><time>2026-04-27T08:46:18.999Z</time></trkpt><trkpt lat="32.26522318406767" lon="-4.434666772187157"><ele>1283.0</ele><time>2026-04-27T08:46:20.999Z</time></trkpt><trkpt lat="32.26520600251583" lon="-4.434748558387234"><ele>1283.0</ele><time>2026-04-27T08:46:22.999Z</time></trkpt><trkpt lat="32.26518056472052" lon="-4.434867001809654"><ele>1283.0</ele><time>2026-04-27T08:46:24.999Z</time></trkpt><trkpt lat="32.26516378923306" lon="-4.43494264841659"><ele>1283.0</ele><time>2026-04-27T08:46:25.999Z</time></trkpt><trkpt lat="32.26514385412557" lon="-4.435028450389876"><ele>1283.0</ele><time>2026-04-27T08:46:26.999Z</time></trkpt><trkpt lat="32.26512227516141" lon="-4.435125658482268"><ele>1283.0</ele><time>2026-04-27T08:46:27.999Z</time></trkpt><trkpt lat="32.26509797263737" lon="-4.435242237855408"><ele>1283.0</ele><time>2026-04-27T08:46:28.999Z</time></trkpt><trkpt lat="32.26506718305282" lon="-4.435366213114646"><ele>1283.6000000000001</ele><time>2026-04-27T08:46:29.999Z</time></trkpt><trkpt lat="32.265038195482305" lon="-4.435497693438549"><ele>1284.2</ele><time>2026-04-27T08:46:30.999Z</time></trkpt><trkpt lat="32.265016026625666" lon="-4.435623700647665"><ele>1284.8</ele><time>2026-04-27T08:46:31.999Z</time></trkpt><trkpt lat="32.26499171912845" lon="-4.4357488703886805"><ele>1285.4</ele><time>2026-04-27T08:46:32.999Z</time></trkpt><trkpt lat="32.26496513684851" lon="-4.43587599807505"><ele>1286.0</ele><time>2026-04-27T08:46:33.999Z</time></trkpt><trkpt lat="32.264936005696384" lon="-4.436003254526968"><ele>1286.0</ele><time>2026-04-27T08:46:34.999Z</time></trkpt><trkpt lat="32.26490528308117" lon="-4.436132546300003"><ele>1286.0</ele><time>2026-04-27T08:46:35.999Z</time></trkpt><trkpt lat="32.2648707118755" lon="-4.4362654318275645"><ele>1286.0</ele><time>2026-04-27T08:46:36.999Z</time></trkpt><trkpt lat="32.26483452840597" lon="-4.436400472603408"><ele>1286.0</ele><time>2026-04-27T08:46:37.999Z</time></trkpt><trkpt lat="32.264798113851406" lon="-4.43653907858142"><ele>1286.0</ele><time>2026-04-27T08:46:38.999Z</time></trkpt><trkpt lat="32.2647601037739" lon="-4.436680212839958"><ele>1286.0</ele><time>2026-04-27T08:46:39.999Z</time></trkpt><trkpt lat="32.264720666611225" lon="-4.436821148646574"><ele>1286.0</ele><time>2026-04-27T08:46:40.999Z</time></trkpt><trkpt lat="32.26468084603185" lon="-4.436962226180779"><ele>1286.0</ele><time>2026-04-27T08:46:41.999Z</time></trkpt><trkpt lat="32.26464150304413" lon="-4.437105498448071"><ele>1285.75</ele><time>2026-04-27T08:46:42.999Z</time></trkpt><trkpt lat="32.26460371969348" lon="-4.437244322453762"><ele>1285.5</ele><time>2026-04-27T08:46:43.999Z</time></trkpt><trkpt lat="32.26456785228031" lon="-4.437375583750803"><ele>1285.25</ele><time>2026-04-27T08:46:44.999Z</time></trkpt><trkpt lat="32.26453295202842" lon="-4.437502411776395"><ele>1285.0</ele><time>2026-04-27T08:46:45.999Z</time></trkpt><trkpt lat="32.264497297237526" lon="-4.437626425614592"><ele>1285.0</ele><time>2026-04-27T08:46:46.999Z</time></trkpt><trkpt lat="32.26446295723086" lon="-4.4377520812363045"><ele>1285.0</ele><time>2026-04-27T08:46:47.999Z</time></trkpt><trkpt lat="32.2644277058619" lon="-4.437878253195475"><ele>1285.0</ele><time>2026-04-27T08:46:48.999Z</time></trkpt><trkpt lat="32.26439277653229" lon="-4.438005520079342"><ele>1285.0</ele><time>2026-04-27T08:46:49.999Z</time></trkpt><trkpt lat="32.264357322891506" lon="-4.438135757649859"><ele>1285.0</ele><time>2026-04-27T08:46:50.999Z</time></trkpt><trkpt lat="32.26432017236717" lon="-4.438267034191419"><ele>1285.0</ele><time>2026-04-27T08:46:51.999Z</time></trkpt><trkpt lat="32.26428121109678" lon="-4.438400249770722"><ele>1285.0</ele><time>2026-04-27T08:46:52.999Z</time></trkpt><trkpt lat="32.26424134328123" lon="-4.438537758897636"><ele>1285.0</ele><time>2026-04-27T08:46:53.999Z</time></trkpt><trkpt lat="32.26420117410819" lon="-4.438677913222347"><ele>1285.4</ele><time>2026-04-27T08:46:54.999Z</time></trkpt><trkpt lat="32.264163599944915" lon="-4.438810994667603"><ele>1285.8</ele><time>2026-04-27T08:46:55.999Z</time></trkpt><trkpt lat="32.26413026051497" lon="-4.438936980986354"><ele>1286.1999999999998</ele><time>2026-04-27T08:46:56.999Z</time></trkpt><trkpt lat="32.26409949787821" lon="-4.439052105683988"><ele>1286.6</ele><time>2026-04-27T08:46:57.999Z</time></trkpt><trkpt lat="32.26407275326673" lon="-4.43915493675434"><ele>1287.0</ele><time>2026-04-27T08:46:58.999Z</time></trkpt><trkpt lat="32.26404698712945" lon="-4.4392492810130015"><ele>1287.0</ele><time>2026-04-27T08:46:59.999Z</time></trkpt><trkpt lat="32.26402271696329" lon="-4.439334852043022"><ele>1287.0</ele><time>2026-04-27T08:47:00.999Z</time></trkpt><trkpt lat="32.26398816372846" lon="-4.4394536064094545"><ele>1287.0</ele><time>2026-04-27T08:47:02.999Z</time></trkpt><trkpt lat="32.26396459285077" lon="-4.439530839686651"><ele>1287.0</ele><time>2026-04-27T08:47:04.999Z</time></trkpt><trkpt lat="32.26394068548195" lon="-4.4396271550140645"><ele>1287.0</ele><time>2026-04-27T08:47:07.999Z</time></trkpt><trkpt lat="32.26391891213546" lon="-4.439700254012962"><ele>1287.0</ele><time>2026-04-27T08:47:09.999Z</time></trkpt><trkpt lat="32.263894653040886" lon="-4.439770399640794"><ele>1286.6666666666667</ele><time>2026-04-27T08:47:11.999Z</time></trkpt><trkpt lat="32.263871234980854" lon="-4.4398522708735175"><ele>1286.3333333333333</ele><time>2026-04-27T08:47:13.999Z</time></trkpt><trkpt lat="32.26384656229038" lon="-4.439940414560673"><ele>1286.0</ele><time>2026-04-27T08:47:15.999Z</time></trkpt><trkpt lat="32.26382291232025" lon="-4.440014014058201"><ele>1285.6666666666665</ele><time>2026-04-27T08:47:17.999Z</time></trkpt><trkpt lat="32.26379770246498" lon="-4.440121080538893"><ele>1285.3333333333333</ele><time>2026-04-27T08:47:21Z</time></trkpt><trkpt lat="32.26377568830894" lon="-4.440212081042259"><ele>1285.0</ele><time>2026-04-27T08:47:23Z</time></trkpt><trkpt lat="32.26374391183444" lon="-4.440325473279841"><ele>1285.0</ele><time>2026-04-27T08:47:25Z</time></trkpt><trkpt lat="32.26370296576793" lon="-4.440465383345388"><ele>1285.0</ele><time>2026-04-27T08:47:27Z</time></trkpt><trkpt lat="32.26367846204961" lon="-4.440545885389857"><ele>1285.0</ele><time>2026-04-27T08:47:28Z</time></trkpt><trkpt lat="32.26365197513053" lon="-4.440628166250871"><ele>1285.0</ele><time>2026-04-27T08:47:29Z</time></trkpt><trkpt lat="32.263624683154646" lon="-4.440714328146099"><ele>1285.0</ele><time>2026-04-27T08:47:30Z</time></trkpt><trkpt lat="32.263599567530214" lon="-4.440804800366544"><ele>1285.0</ele><time>2026-04-27T08:47:31Z</time></trkpt><trkpt lat="32.263575512463945" lon="-4.440896751506271"><ele>1285.0</ele><time>2026-04-27T08:47:32Z</time></trkpt><trkpt lat="32.263551589843715" lon="-4.440988958179479"><ele>1285.0</ele><time>2026-04-27T08:47:33Z</time></trkpt><trkpt lat="32.26352426320175" lon="-4.441088808206364"><ele>1285.0</ele><time>2026-04-27T08:47:34Z</time></trkpt><trkpt lat="32.26349476608537" lon="-4.441191181786611"><ele>1285.0</ele><time>2026-04-27T08:47:35Z</time></trkpt><trkpt lat="32.26346296156485" lon="-4.441301323451159"><ele>1285.0</ele><time>2026-04-27T08:47:36Z</time></trkpt><trkpt lat="32.26342994248523" lon="-4.441421949626434"><ele>1285.25</ele><time>2026-04-27T08:47:37Z</time></trkpt><trkpt lat="32.263393313034776" lon="-4.44154901112172"><ele>1285.5</ele><time>2026-04-27T08:47:38Z</time></trkpt><trkpt lat="32.26335517847513" lon="-4.441683251990824"><ele>1285.75</ele><time>2026-04-27T08:47:39Z</time></trkpt><trkpt lat="32.26331640333439" lon="-4.441823451816678"><ele>1286.0</ele><time>2026-04-27T08:47:40Z</time></trkpt><trkpt lat="32.263275748538994" lon="-4.441968376073658"><ele>1286.0</ele><time>2026-04-27T08:47:41Z</time></trkpt><trkpt lat="32.263234202609986" lon="-4.442116962250018"><ele>1286.0</ele><time>2026-04-27T08:47:42Z</time></trkpt><trkpt lat="32.26319495842229" lon="-4.442264585728615"><ele>1286.0</ele><time>2026-04-27T08:47:43Z</time></trkpt><trkpt lat="32.26315478755577" lon="-4.442413943107662"><ele>1286.0</ele><time>2026-04-27T08:47:44Z</time></trkpt><trkpt lat="32.26311601538929" lon="-4.442569455217302"><ele>1285.5</ele><time>2026-04-27T08:47:45Z</time></trkpt><trkpt lat="32.26307927159651" lon="-4.44272867698716"><ele>1285.0</ele><time>2026-04-27T08:47:46Z</time></trkpt><trkpt lat="32.26304741412566" lon="-4.442887766334722"><ele>1284.5</ele><time>2026-04-27T08:47:47Z</time></trkpt><trkpt lat="32.26301780376595" lon="-4.443047145616393"><ele>1284.0</ele><time>2026-04-27T08:47:48Z</time></trkpt><trkpt lat="32.26298804586829" lon="-4.443208702550609"><ele>1284.25</ele><time>2026-04-27T08:47:49Z</time></trkpt><trkpt lat="32.26295787160622" lon="-4.443369345103389"><ele>1284.5</ele><time>2026-04-27T08:47:50Z</time></trkpt><trkpt lat="32.262929425665575" lon="-4.443530690708908"><ele>1284.75</ele><time>2026-04-27T08:47:51Z</time></trkpt><trkpt lat="32.26290114474324" lon="-4.443692376132553"><ele>1285.0</ele><time>2026-04-27T08:47:52Z</time></trkpt><trkpt lat="32.26287335272991" lon="-4.443846920859622"><ele>1285.0</ele><time>2026-04-27T08:47:53Z</time></trkpt><trkpt lat="32.26284780687588" lon="-4.4439925353350915"><ele>1285.0</ele><time>2026-04-27T08:47:54Z</time></trkpt><trkpt lat="32.26282553445756" lon="-4.44413182708683"><ele>1285.0</ele><time>2026-04-27T08:47:55Z</time></trkpt><trkpt lat="32.262804115893516" lon="-4.444265127262854"><ele>1285.0</ele><time>2026-04-27T08:47:56Z</time></trkpt><trkpt lat="32.262783183954966" lon="-4.4443910059469705"><ele>1285.0</ele><time>2026-04-27T08:47:57Z</time></trkpt><trkpt lat="32.26276344236223" lon="-4.44451011556207"><ele>1285.0</ele><time>2026-04-27T08:47:58Z</time></trkpt><trkpt lat="32.26274328677381" lon="-4.444622918232708"><ele>1285.0</ele><time>2026-04-27T08:47:59Z</time></trkpt><trkpt lat="32.262722598129805" lon="-4.444738395087991"><ele>1285.0</ele><time>2026-04-27T08:48:00Z</time></trkpt><trkpt lat="32.262701063522044" lon="-4.444863255247648"><ele>1285.0</ele><time>2026-04-27T08:48:01Z</time></trkpt><trkpt lat="32.262675935822635" lon="-4.444996670554847"><ele>1285.5</ele><time>2026-04-27T08:48:02Z</time></trkpt><trkpt lat="32.26264907889722" lon="-4.4451357764148325"><ele>1286.0</ele><time>2026-04-27T08:48:03Z</time></trkpt><trkpt lat="32.26262319041182" lon="-4.445279187122496"><ele>1286.5</ele><time>2026-04-27T08:48:04Z</time></trkpt><trkpt lat="32.262596141628784" lon="-4.445427766781036"><ele>1287.0</ele><time>2026-04-27T08:48:05Z</time></trkpt><trkpt lat="32.26256982016247" lon="-4.44558395070874"><ele>1288.0</ele><time>2026-04-27T08:48:06Z</time></trkpt><trkpt lat="32.26254336698785" lon="-4.445747849714611"><ele>1289.0</ele><time>2026-04-27T08:48:07Z</time></trkpt><trkpt lat="32.26251706018641" lon="-4.445917175082715"><ele>1290.0</ele><time>2026-04-27T08:48:08Z</time></trkpt><trkpt lat="32.26249270895172" lon="-4.446091919000917"><ele>1291.0</ele><time>2026-04-27T08:48:09Z</time></trkpt><trkpt lat="32.262472052086196" lon="-4.446272500008367"><ele>1290.3333333333333</ele><time>2026-04-27T08:48:10Z</time></trkpt><trkpt lat="32.262455191097786" lon="-4.446454957645535"><ele>1289.6666666666667</ele><time>2026-04-27T08:48:11Z</time></trkpt><trkpt lat="32.26243955605161" lon="-4.446636795923234"><ele>1289.0</ele><time>2026-04-27T08:48:12Z</time></trkpt><trkpt lat="32.2624257601005" lon="-4.446821147160565"><ele>1289.0</ele><time>2026-04-27T08:48:13Z</time></trkpt><trkpt lat="32.26241694976726" lon="-4.44701245868285"><ele>1289.0</ele><time>2026-04-27T08:48:14Z</time></trkpt><trkpt lat="32.26241352472749" lon="-4.44720368717255"><ele>1289.0</ele><time>2026-04-27T08:48:15Z</time></trkpt><trkpt lat="32.26241301932199" lon="-4.447395067293171"><ele>1289.3333333333335</ele><time>2026-04-27T08:48:16Z</time></trkpt><trkpt lat="32.26241336411074" lon="-4.447586573646233"><ele>1289.6666666666667</ele><time>2026-04-27T08:48:17Z</time></trkpt><trkpt lat="32.26241748432536" lon="-4.447776464731053"><ele>1290.0</ele><time>2026-04-27T08:48:18Z</time></trkpt><trkpt lat="32.26242489886944" lon="-4.44795917831363"><ele>1289.3333333333333</ele><time>2026-04-27T08:48:19Z</time></trkpt><trkpt lat="32.26243623565808" lon="-4.448144341020483"><ele>1288.6666666666665</ele><time>2026-04-27T08:48:20Z</time></trkpt><trkpt lat="32.26244902324284" lon="-4.448337130897673"><ele>1288.0</ele><time>2026-04-27T08:48:20.999Z</time></trkpt><trkpt lat="32.26246066269514" lon="-4.448537539805845"><ele>1288.0</ele><time>2026-04-27T08:48:21.999Z</time></trkpt><trkpt lat="32.26247150823249" lon="-4.448743337974325"><ele>1288.0</ele><time>2026-04-27T08:48:22.999Z</time></trkpt><trkpt lat="32.26248451679297" lon="-4.448956035224211"><ele>1288.0</ele><time>2026-04-27T08:48:23.999Z</time></trkpt><trkpt lat="32.26252063206311" lon="-4.44917561697188"><ele>1288.3333333333333</ele><time>2026-04-27T08:48:24.999Z</time></trkpt><trkpt lat="32.262542033945444" lon="-4.44940864570277"><ele>1288.6666666666667</ele><time>2026-04-27T08:48:25.999Z</time></trkpt><trkpt lat="32.26256273273931" lon="-4.449655680400782"><ele>1289.0</ele><time>2026-04-27T08:48:26.999Z</time></trkpt><trkpt lat="32.26258308173914" lon="-4.449901415870766"><ele>1289.0</ele><time>2026-04-27T08:48:27.999Z</time></trkpt><trkpt lat="32.26260211212674" lon="-4.45013730012966"><ele>1289.0</ele><time>2026-04-27T08:48:28.999Z</time></trkpt><trkpt lat="32.26262220126641" lon="-4.450366751094925"><ele>1289.0</ele><time>2026-04-27T08:48:29.999Z</time></trkpt><trkpt lat="32.26262776673046" lon="-4.450597130289062"><ele>1289.3333333333335</ele><time>2026-04-27T08:48:30.999Z</time></trkpt><trkpt lat="32.26264682711545" lon="-4.450826754429012"><ele>1289.6666666666667</ele><time>2026-04-27T08:48:31.999Z</time></trkpt><trkpt lat="32.26266319643178" lon="-4.451055255362533"><ele>1290.0</ele><time>2026-04-27T08:48:32.999Z</time></trkpt><trkpt lat="32.26268175621074" lon="-4.451275120412896"><ele>1288.6666666666667</ele><time>2026-04-27T08:48:33.999Z</time></trkpt><trkpt lat="32.26270044256943" lon="-4.45148335774822"><ele>1287.3333333333335</ele><time>2026-04-27T08:48:34.999Z</time></trkpt><trkpt lat="32.262719317336256" lon="-4.451676474238981"><ele>1286.0</ele><time>2026-04-27T08:48:35.999Z</time></trkpt><trkpt lat="32.26273614136425" lon="-4.451860923260321"><ele>1286.0</ele><time>2026-04-27T08:48:36.999Z</time></trkpt><trkpt lat="32.26275265060628" lon="-4.452043803843971"><ele>1286.0</ele><time>2026-04-27T08:48:37.999Z</time></trkpt><trkpt lat="32.26277086721771" lon="-4.452226379903632"><ele>1286.0</ele><time>2026-04-27T08:48:38.999Z</time></trkpt><trkpt lat="32.26278796945641" lon="-4.452411799310988"><ele>1287.0</ele><time>2026-04-27T08:48:39.999Z</time></trkpt><trkpt lat="32.26280711366604" lon="-4.452605708246721"><ele>1288.0</ele><time>2026-04-27T08:48:40.999Z</time></trkpt><trkpt lat="32.262830999364944" lon="-4.452801159767875"><ele>1289.0</ele><time>2026-04-27T08:48:41.999Z</time></trkpt><trkpt lat="32.26286115107738" lon="-4.452995272769932"><ele>1290.0</ele><time>2026-04-27T08:48:42.999Z</time></trkpt><trkpt lat="32.262894071716154" lon="-4.453190428805931"><ele>1291.0</ele><time>2026-04-27T08:48:43.999Z</time></trkpt><trkpt lat="32.262928059586145" lon="-4.453387728692408"><ele>1292.0</ele><time>2026-04-27T08:48:44.999Z</time></trkpt><trkpt lat="32.26296701357935" lon="-4.453588849930146"><ele>1292.3333333333335</ele><time>2026-04-27T08:48:45.999Z</time></trkpt><trkpt lat="32.263008693921755" lon="-4.4537938772787316"><ele>1292.6666666666667</ele><time>2026-04-27T08:48:46.999Z</time></trkpt><trkpt lat="32.263057848591885" lon="-4.454002770531766"><ele>1293.0</ele><time>2026-04-27T08:48:47.999Z</time></trkpt><trkpt lat="32.263113565346565" lon="-4.454219145385338"><ele>1293.3333333333333</ele><time>2026-04-27T08:48:48.999Z</time></trkpt><trkpt lat="32.2631780524397" lon="-4.454438276620395"><ele>1293.6666666666665</ele><time>2026-04-27T08:48:49.999Z</time></trkpt><trkpt lat="32.263245486429426" lon="-4.454653005835838"><ele>1294.0</ele><time>2026-04-27T08:48:50.999Z</time></trkpt><trkpt lat="32.26331876074475" lon="-4.45486080954266"><ele>1294.3333333333333</ele><time>2026-04-27T08:48:51.999Z</time></trkpt><trkpt lat="32.26338899219854" lon="-4.45506834874615"><ele>1294.6666666666667</ele><time>2026-04-27T08:48:52.999Z</time></trkpt><trkpt lat="32.263469987130364" lon="-4.45529155578032"><ele>1295.0</ele><time>2026-04-27T08:48:53.999Z</time></trkpt><trkpt lat="32.26356132958672" lon="-4.455546213301244"><ele>1295.5</ele><time>2026-04-27T08:48:54.999Z</time></trkpt><trkpt lat="32.2636548252815" lon="-4.455792760990676"><ele>1296.0</ele><time>2026-04-27T08:48:55.999Z</time></trkpt><trkpt lat="32.26376836538367" lon="-4.456069271628588"><ele>1295.0</ele><time>2026-04-27T08:48:56.999Z</time></trkpt><trkpt lat="32.26387273830138" lon="-4.456317646733883"><ele>1294.0</ele><time>2026-04-27T08:48:57.999Z</time></trkpt><trkpt lat="32.26397239190162" lon="-4.456556533948044"><ele>1295.6666666666665</ele><time>2026-04-27T08:48:58.999Z</time></trkpt><trkpt lat="32.26406701344274" lon="-4.456780871990901"><ele>1297.3333333333333</ele><time>2026-04-27T08:48:59.999Z</time></trkpt><trkpt lat="32.2641554953423" lon="-4.45699087284597"><ele>1299.0</ele><time>2026-04-27T08:49:00.999Z</time></trkpt><trkpt lat="32.264243190895755" lon="-4.4571954764376525"><ele>1299.3333333333333</ele><time>2026-04-27T08:49:01.999Z</time></trkpt><trkpt lat="32.264333698317806" lon="-4.457391375004299"><ele>1299.6666666666665</ele><time>2026-04-27T08:49:02.999Z</time></trkpt><trkpt lat="32.26442995145467" lon="-4.457583477645186"><ele>1300.0</ele><time>2026-04-27T08:49:03.999Z</time></trkpt><trkpt lat="32.26453151271234" lon="-4.457775321968172"><ele>1300.0</ele><time>2026-04-27T08:49:04.999Z</time></trkpt><trkpt lat="32.264635965788344" lon="-4.457969535367883"><ele>1300.0</ele><time>2026-04-27T08:49:05.999Z</time></trkpt><trkpt lat="32.26474156846613" lon="-4.458166859999198"><ele>1300.0</ele><time>2026-04-27T08:49:06.999Z</time></trkpt><trkpt lat="32.26485345574566" lon="-4.458364713767257"><ele>1300.0</ele><time>2026-04-27T08:49:07.999Z</time></trkpt><trkpt lat="32.264971754669176" lon="-4.4585649026997025"><ele>1300.0</ele><time>2026-04-27T08:49:08.999Z</time></trkpt><trkpt lat="32.26509003045208" lon="-4.458760877652565"><ele>1300.0</ele><time>2026-04-27T08:49:09.999Z</time></trkpt><trkpt lat="32.265207348170634" lon="-4.4589580932433766"><ele>1300.6666666666665</ele><time>2026-04-27T08:49:10.999Z</time></trkpt><trkpt lat="32.26532184601275" lon="-4.459150841506235"><ele>1301.3333333333333</ele><time>2026-04-27T08:49:11.999Z</time></trkpt><trkpt lat="32.26543043130602" lon="-4.459335349944033"><ele>1302.0</ele><time>2026-04-27T08:49:12.999Z</time></trkpt><trkpt lat="32.26553608674955" lon="-4.459513265426337"><ele>1301.6666666666667</ele><time>2026-04-27T08:49:13.999Z</time></trkpt><trkpt lat="32.265641741626546" lon="-4.459689372005104"><ele>1301.3333333333335</ele><time>2026-04-27T08:49:14.999Z</time></trkpt><trkpt lat="32.26574670915467" lon="-4.459866268394369"><ele>1301.0</ele><time>2026-04-27T08:49:15.999Z</time></trkpt><trkpt lat="32.2658505251294" lon="-4.46004541105842"><ele>1301.0</ele><time>2026-04-27T08:49:16.999Z</time></trkpt><trkpt lat="32.265954969306996" lon="-4.460223468711261"><ele>1301.0</ele><time>2026-04-27T08:49:17.999Z</time></trkpt><trkpt lat="32.26605941321795" lon="-4.460390717678801"><ele>1301.0</ele><time>2026-04-27T08:49:18.999Z</time></trkpt><trkpt lat="32.26615689346901" lon="-4.460554550574809"><ele>1300.6666666666667</ele><time>2026-04-27T08:49:19.999Z</time></trkpt><trkpt lat="32.26625435080944" lon="-4.460720752693778"><ele>1300.3333333333333</ele><time>2026-04-27T08:49:20.999Z</time></trkpt><trkpt lat="32.2663532879051" lon="-4.46088429578865"><ele>1300.0</ele><time>2026-04-27T08:49:21.999Z</time></trkpt><trkpt lat="32.26645250062938" lon="-4.46104868864455"><ele>1300.6666666666665</ele><time>2026-04-27T08:49:22.999Z</time></trkpt><trkpt lat="32.266552197759886" lon="-4.461213040050156"><ele>1301.3333333333333</ele><time>2026-04-27T08:49:23.999Z</time></trkpt><trkpt lat="32.26665092285942" lon="-4.4613789153986"><ele>1302.0</ele><time>2026-04-27T08:49:24.999Z</time></trkpt><trkpt lat="32.26674763382966" lon="-4.461543591950447"><ele>1302.0</ele><time>2026-04-27T08:49:25.999Z</time></trkpt><trkpt lat="32.26684512301826" lon="-4.461706521156942"><ele>1302.0</ele><time>2026-04-27T08:49:27Z</time></trkpt><trkpt lat="32.266941103269595" lon="-4.461864588945543"><ele>1302.0</ele><time>2026-04-27T08:49:28Z</time></trkpt><trkpt lat="32.267034403403684" lon="-4.46201837909946"><ele>1302.6666666666667</ele><time>2026-04-27T08:49:29Z</time></trkpt><trkpt lat="32.267126362882394" lon="-4.462171228581262"><ele>1303.3333333333335</ele><time>2026-04-27T08:49:30Z</time></trkpt><trkpt lat="32.2672187818373" lon="-4.462326175424937"><ele>1304.0</ele><time>2026-04-27T08:49:31Z</time></trkpt><trkpt lat="32.26731448666665" lon="-4.462490747001975"><ele>1304.6666666666667</ele><time>2026-04-27T08:49:32Z</time></trkpt><trkpt lat="32.267411507065816" lon="-4.4626582945002555"><ele>1305.3333333333333</ele><time>2026-04-27T08:49:33Z</time></trkpt><trkpt lat="32.2675124764161" lon="-4.462827557343831"><ele>1306.0</ele><time>2026-04-27T08:49:34Z</time></trkpt><trkpt lat="32.26761450234756" lon="-4.462997794738309"><ele>1306.6666666666665</ele><time>2026-04-27T08:49:35Z</time></trkpt><trkpt lat="32.267717605211644" lon="-4.463167252572647"><ele>1307.3333333333333</ele><time>2026-04-27T08:49:36Z</time></trkpt><trkpt lat="32.267818661135394" lon="-4.463333154933214"><ele>1308.0</ele><time>2026-04-27T08:49:37Z</time></trkpt><trkpt lat="32.26791847449209" lon="-4.463498806829941"><ele>1308.0</ele><time>2026-04-27T08:49:38Z</time></trkpt><trkpt lat="32.268015944072495" lon="-4.463664120586514"><ele>1308.0</ele><time>2026-04-27T08:49:39Z</time></trkpt><trkpt lat="32.26811352212774" lon="-4.4638294329371755"><ele>1308.0</ele><time>2026-04-27T08:49:40Z</time></trkpt><trkpt lat="32.26821126224178" lon="-4.46399404240391"><ele>1308.6666666666667</ele><time>2026-04-27T08:49:41Z</time></trkpt><trkpt lat="32.26830736872817" lon="-4.464156390300245"><ele>1309.3333333333335</ele><time>2026-04-27T08:49:42Z</time></trkpt><trkpt lat="32.26840042365304" lon="-4.464312930084452"><ele>1310.0</ele><time>2026-04-27T08:49:43Z</time></trkpt><trkpt lat="32.2684904062268" lon="-4.4644650877444265"><ele>1310.6666666666667</ele><time>2026-04-27T08:49:44Z</time></trkpt><trkpt lat="32.26858178005648" lon="-4.464623491075517"><ele>1311.3333333333333</ele><time>2026-04-27T08:49:45Z</time></trkpt><trkpt lat="32.26868345138342" lon="-4.464801169912161"><ele>1312.0</ele><time>2026-04-27T08:49:46Z</time></trkpt><trkpt lat="32.26880263310579" lon="-4.465012430744112"><ele>1314.0</ele><time>2026-04-27T08:49:47Z</time></trkpt><trkpt lat="32.26895644966344" lon="-4.46523781331611"><ele>1316.0</ele><time>2026-04-27T08:49:48Z</time></trkpt><trkpt lat="32.269099025488366" lon="-4.465476596877685"><ele>1316.0</ele><time>2026-04-27T08:49:49Z</time></trkpt><trkpt lat="32.269237795219354" lon="-4.465709880883071"><ele>1316.0</ele><time>2026-04-27T08:49:50Z</time></trkpt><trkpt lat="32.2693576541001" lon="-4.4659451895749855"><ele>1316.0</ele><time>2026-04-27T08:49:51Z</time></trkpt><trkpt lat="32.26948680737513" lon="-4.4661516842407565"><ele>1316.0</ele><time>2026-04-27T08:49:52Z</time></trkpt><trkpt lat="32.26960862736761" lon="-4.466349028526827"><ele>1316.0</ele><time>2026-04-27T08:49:53Z</time></trkpt><trkpt lat="32.26972415794442" lon="-4.466538705971345"><ele>1316.3333333333335</ele><time>2026-04-27T08:49:54Z</time></trkpt><trkpt lat="32.26983430843822" lon="-4.466718676938371"><ele>1316.6666666666667</ele><time>2026-04-27T08:49:55Z</time></trkpt><trkpt lat="32.2699399514513" lon="-4.466893289917869"><ele>1317.0</ele><time>2026-04-27T08:49:56Z</time></trkpt><trkpt lat="32.270040940079646" lon="-4.467062016966517"><ele>1317.3333333333333</ele><time>2026-04-27T08:49:57Z</time></trkpt><trkpt lat="32.270140274739134" lon="-4.467228700667558"><ele>1317.6666666666665</ele><time>2026-04-27T08:49:58Z</time></trkpt><trkpt lat="32.27023742894765" lon="-4.467399290048907"><ele>1318.0</ele><time>2026-04-27T08:49:59Z</time></trkpt><trkpt lat="32.27032993437038" lon="-4.467572303860428"><ele>1318.0</ele><time>2026-04-27T08:50:00Z</time></trkpt><trkpt lat="32.270417789984386" lon="-4.467747806892084"><ele>1318.0</ele><time>2026-04-27T08:50:01Z</time></trkpt><trkpt lat="32.270499546364825" lon="-4.46792442121732"><ele>1318.0</ele><time>2026-04-27T08:50:02Z</time></trkpt><trkpt lat="32.27057595255978" lon="-4.4681005245782845"><ele>1318.3333333333333</ele><time>2026-04-27T08:50:03Z</time></trkpt><trkpt lat="32.270647707103635" lon="-4.468272256960811"><ele>1318.6666666666667</ele><time>2026-04-27T08:50:04Z</time></trkpt><trkpt lat="32.27071546434687" lon="-4.468439519711912"><ele>1319.0</ele><time>2026-04-27T08:50:05Z</time></trkpt><trkpt lat="32.270779881834954" lon="-4.468602694408306"><ele>1319.0</ele><time>2026-04-27T08:50:06Z</time></trkpt><trkpt lat="32.27084443834555" lon="-4.468764999189579"><ele>1319.0</ele><time>2026-04-27T08:50:07Z</time></trkpt><trkpt lat="32.27090952622829" lon="-4.468930102843116"><ele>1319.0</ele><time>2026-04-27T08:50:08Z</time></trkpt><trkpt lat="32.27097386306822" lon="-4.469101262045555"><ele>1318.3333333333335</ele><time>2026-04-27T08:50:09Z</time></trkpt><trkpt lat="32.271058589609005" lon="-4.469261702172566"><ele>1317.6666666666667</ele><time>2026-04-27T08:50:10Z</time></trkpt><trkpt lat="32.271129467483" lon="-4.469427492526831"><ele>1317.0</ele><time>2026-04-27T08:50:11Z</time></trkpt><trkpt lat="32.27120083813507" lon="-4.469593906998426"><ele>1318.0</ele><time>2026-04-27T08:50:12Z</time></trkpt><trkpt lat="32.2712732262873" lon="-4.469762693967761"><ele>1319.0</ele><time>2026-04-27T08:50:13Z</time></trkpt><trkpt lat="32.27134558886296" lon="-4.469931421307238"><ele>1320.0</ele><time>2026-04-27T08:50:14Z</time></trkpt><trkpt lat="32.27141464078591" lon="-4.470098532013977"><ele>1320.6666666666667</ele><time>2026-04-27T08:50:15Z</time></trkpt><trkpt lat="32.27150262163723" lon="-4.470256078295204"><ele>1321.3333333333335</ele><time>2026-04-27T08:50:16Z</time></trkpt><trkpt lat="32.2715934421209" lon="-4.47041160193513"><ele>1322.0</ele><time>2026-04-27T08:50:17Z</time></trkpt><trkpt lat="32.271687877345315" lon="-4.47056765091602"><ele>1322.0</ele><time>2026-04-27T08:50:18Z</time></trkpt><trkpt lat="32.27178500324099" lon="-4.470720962170426"><ele>1322.0</ele><time>2026-04-27T08:50:19Z</time></trkpt><trkpt lat="32.27188527793091" lon="-4.47087350972124"><ele>1322.0</ele><time>2026-04-27T08:50:20Z</time></trkpt><trkpt lat="32.271983764062654" lon="-4.4710264924698615"><ele>1322.0</ele><time>2026-04-27T08:50:21Z</time></trkpt><trkpt lat="32.272082740877465" lon="-4.471179669188687"><ele>1322.0</ele><time>2026-04-27T08:50:22Z</time></trkpt><trkpt lat="32.27218343356754" lon="-4.471333122204913"><ele>1322.0</ele><time>2026-04-27T08:50:22.999Z</time></trkpt><trkpt lat="32.27228643964186" lon="-4.471487467338524"><ele>1322.6666666666667</ele><time>2026-04-27T08:50:23.999Z</time></trkpt><trkpt lat="32.27239074790688" lon="-4.47164577856061"><ele>1323.3333333333333</ele><time>2026-04-27T08:50:24.999Z</time></trkpt><trkpt lat="32.272497134421705" lon="-4.471808534096915"><ele>1324.0</ele><time>2026-04-27T08:50:25.999Z</time></trkpt><trkpt lat="32.27260472419645" lon="-4.47197503928746"><ele>1323.0</ele><time>2026-04-27T08:50:26.999Z</time></trkpt><trkpt lat="32.27271392580263" lon="-4.472144207368945"><ele>1322.0</ele><time>2026-04-27T08:50:27.999Z</time></trkpt><trkpt lat="32.272824071815144" lon="-4.472313375096597"><ele>1321.0</ele><time>2026-04-27T08:50:28.999Z</time></trkpt><trkpt lat="32.27293137495364" lon="-4.472479551528107"><ele>1321.0</ele><time>2026-04-27T08:50:29.999Z</time></trkpt><trkpt lat="32.27303646281852" lon="-4.472642701829682"><ele>1321.0</ele><time>2026-04-27T08:50:30.999Z</time></trkpt><trkpt lat="32.27315081877739" lon="-4.472791736047797"><ele>1321.0</ele><time>2026-04-27T08:50:31.999Z</time></trkpt><trkpt lat="32.273252418357025" lon="-4.472946946730869"><ele>1321.0</ele><time>2026-04-27T08:50:32.999Z</time></trkpt><trkpt lat="32.27335170521511" lon="-4.473113266507772"><ele>1321.0</ele><time>2026-04-27T08:50:33.999Z</time></trkpt><trkpt lat="32.27344695900476" lon="-4.473279546742403"><ele>1321.0</ele><time>2026-04-27T08:50:34.999Z</time></trkpt><trkpt lat="32.27353904175708" lon="-4.473456973535322"><ele>1321.0</ele><time>2026-04-27T08:50:35.999Z</time></trkpt><trkpt lat="32.27360455463179" lon="-4.473633930545341"><ele>1321.0</ele><time>2026-04-27T08:50:36.999Z</time></trkpt><trkpt lat="32.27367043621461" lon="-4.473811883460978"><ele>1321.0</ele><time>2026-04-27T08:50:37.999Z</time></trkpt><trkpt lat="32.273723606674075" lon="-4.474006916927168"><ele>1320.3333333333333</ele><time>2026-04-27T08:50:38.999Z</time></trkpt><trkpt lat="32.273765996853754" lon="-4.47419615586069"><ele>1319.6666666666667</ele><time>2026-04-27T08:50:39.999Z</time></trkpt><trkpt lat="32.27378911636153" lon="-4.4743821664180885"><ele>1319.0</ele><time>2026-04-27T08:50:40.999Z</time></trkpt><trkpt lat="32.27382033908496" lon="-4.4745534022359985"><ele>1319.3333333333335</ele><time>2026-04-27T08:50:41.999Z</time></trkpt><trkpt lat="32.27384751104039" lon="-4.474725552449504"><ele>1319.6666666666667</ele><time>2026-04-27T08:50:42.999Z</time></trkpt><trkpt lat="32.27387175769993" lon="-4.474902523699832"><ele>1320.0</ele><time>2026-04-27T08:50:43.999Z</time></trkpt><trkpt lat="32.2738930335762" lon="-4.475085210475601"><ele>1320.0</ele><time>2026-04-27T08:50:44.999Z</time></trkpt><trkpt lat="32.27390829043396" lon="-4.4752711632471245"><ele>1320.0</ele><time>2026-04-27T08:50:45.999Z</time></trkpt><trkpt lat="32.27391786769553" lon="-4.475457540737062"><ele>1320.0</ele><time>2026-04-27T08:50:46.999Z</time></trkpt><trkpt lat="32.273927395366286" lon="-4.475641657495227"><ele>1319.6666666666667</ele><time>2026-04-27T08:50:47.999Z</time></trkpt><trkpt lat="32.27393501067818" lon="-4.4758262886969975"><ele>1319.3333333333335</ele><time>2026-04-27T08:50:48.999Z</time></trkpt><trkpt lat="32.27394182024373" lon="-4.476013022442775"><ele>1319.0</ele><time>2026-04-27T08:50:49.999Z</time></trkpt><trkpt lat="32.27394767331146" lon="-4.476195961831661"><ele>1319.6666666666667</ele><time>2026-04-27T08:50:50.999Z</time></trkpt><trkpt lat="32.273952645960925" lon="-4.476377566830909"><ele>1320.3333333333333</ele><time>2026-04-27T08:50:51.999Z</time></trkpt><trkpt lat="32.273957312746894" lon="-4.4765599627922015"><ele>1321.0</ele><time>2026-04-27T08:50:52.999Z</time></trkpt><trkpt lat="32.27396214752033" lon="-4.476744570986805"><ele>1321.0</ele><time>2026-04-27T08:50:53.999Z</time></trkpt><trkpt lat="32.27396703907613" lon="-4.476929274873292"><ele>1321.0</ele><time>2026-04-27T08:50:54.999Z</time></trkpt><trkpt lat="32.273971244911216" lon="-4.477116013925632"><ele>1321.0</ele><time>2026-04-27T08:50:55.999Z</time></trkpt><trkpt lat="32.27399354805179" lon="-4.477300667326763"><ele>1320.0</ele><time>2026-04-27T08:50:56.999Z</time></trkpt><trkpt lat="32.27400482777581" lon="-4.477485350983626"><ele>1319.0</ele><time>2026-04-27T08:50:57.999Z</time></trkpt><trkpt lat="32.27401615013692" lon="-4.4776707327839596"><ele>1318.0</ele><time>2026-04-27T08:50:58.999Z</time></trkpt><trkpt lat="32.27402374924888" lon="-4.477856562820514"><ele>1317.6666666666665</ele><time>2026-04-27T08:50:59.999Z</time></trkpt><trkpt lat="32.27402921690019" lon="-4.478042343660446"><ele>1317.3333333333333</ele><time>2026-04-27T08:51:00.999Z</time></trkpt><trkpt lat="32.27403487138458" lon="-4.4782340980507"><ele>1317.0</ele><time>2026-04-27T08:51:01.999Z</time></trkpt><trkpt lat="32.274040636187515" lon="-4.478429593553758"><ele>1317.0</ele><time>2026-04-27T08:51:02.999Z</time></trkpt><trkpt lat="32.27404674203565" lon="-4.478622856192982"><ele>1317.0</ele><time>2026-04-27T08:51:03.999Z</time></trkpt><trkpt lat="32.27405295736089" lon="-4.478813567698045"><ele>1317.0</ele><time>2026-04-27T08:51:04.999Z</time></trkpt><trkpt lat="32.27405864047586" lon="-4.479000810914889"><ele>1317.3333333333333</ele><time>2026-04-27T08:51:05.999Z</time></trkpt><trkpt lat="32.27406155263909" lon="-4.479183067637716"><ele>1317.6666666666665</ele><time>2026-04-27T08:51:06.999Z</time></trkpt><trkpt lat="32.27406439609443" lon="-4.479363654902285"><ele>1318.0</ele><time>2026-04-27T08:51:07.999Z</time></trkpt><trkpt lat="32.27406726857968" lon="-4.479546085844831"><ele>1317.25</ele><time>2026-04-27T08:51:08.999Z</time></trkpt><trkpt lat="32.27407013525264" lon="-4.4797281476540824"><ele>1316.5</ele><time>2026-04-27T08:51:09.999Z</time></trkpt><trkpt lat="32.27407307766631" lon="-4.479907500433477"><ele>1315.75</ele><time>2026-04-27T08:51:10.999Z</time></trkpt><trkpt lat="32.27407588903854" lon="-4.480074313984883"><ele>1315.0</ele><time>2026-04-27T08:51:11.999Z</time></trkpt><trkpt lat="32.27407855450802" lon="-4.480232470376662"><ele>1315.0</ele><time>2026-04-27T08:51:12.999Z</time></trkpt><trkpt lat="32.27408111977468" lon="-4.480384681220776"><ele>1315.0</ele><time>2026-04-27T08:51:13.999Z</time></trkpt><trkpt lat="32.27408368892068" lon="-4.480537122251175"><ele>1315.0</ele><time>2026-04-27T08:51:14.999Z</time></trkpt><trkpt lat="32.274086236716826" lon="-4.480688296484087"><ele>1315.0</ele><time>2026-04-27T08:51:15.999Z</time></trkpt><trkpt lat="32.2740894469376" lon="-4.480836411041948"><ele>1315.5</ele><time>2026-04-27T08:51:16.999Z</time></trkpt><trkpt lat="32.274094753669445" lon="-4.480985882779143"><ele>1316.0</ele><time>2026-04-27T08:51:17.999Z</time></trkpt><trkpt lat="32.27409992897304" lon="-4.481133893009644"><ele>1316.5</ele><time>2026-04-27T08:51:18.999Z</time></trkpt><trkpt lat="32.27410532217584" lon="-4.481283871630444"><ele>1317.0</ele><time>2026-04-27T08:51:19.999Z</time></trkpt><trkpt lat="32.274111218833184" lon="-4.481431472049664"><ele>1317.0</ele><time>2026-04-27T08:51:20.999Z</time></trkpt><trkpt lat="32.274114703465635" lon="-4.481583194587739"><ele>1317.0</ele><time>2026-04-27T08:51:21.999Z</time></trkpt><trkpt lat="32.274117824714494" lon="-4.481737745516313"><ele>1317.0</ele><time>2026-04-27T08:51:22.999Z</time></trkpt><trkpt lat="32.274120949123244" lon="-4.481892452889464"><ele>1317.0</ele><time>2026-04-27T08:51:23.999Z</time></trkpt><trkpt lat="32.274124042591346" lon="-4.482045628213912"><ele>1317.25</ele><time>2026-04-27T08:51:24.999Z</time></trkpt><trkpt lat="32.27412709207616" lon="-4.482196625648"><ele>1317.5</ele><time>2026-04-27T08:51:25.999Z</time></trkpt><trkpt lat="32.274129981610876" lon="-4.482347225373586"><ele>1317.75</ele><time>2026-04-27T08:51:26.999Z</time></trkpt><trkpt lat="32.27413260951778" lon="-4.482498199483874"><ele>1318.0</ele><time>2026-04-27T08:51:27.999Z</time></trkpt><trkpt lat="32.27413804999679" lon="-4.482648316691066"><ele>1318.0</ele><time>2026-04-27T08:51:28.999Z</time></trkpt><trkpt lat="32.27414350641823" lon="-4.482802658895121"><ele>1318.0</ele><time>2026-04-27T08:51:29.999Z</time></trkpt><trkpt lat="32.27414915039709" lon="-4.482960739860005"><ele>1318.0</ele><time>2026-04-27T08:51:30.999Z</time></trkpt><trkpt lat="32.27415467064699" lon="-4.483123408235378"><ele>1318.0</ele><time>2026-04-27T08:51:32Z</time></trkpt><trkpt lat="32.27415725761861" lon="-4.483287778188611"><ele>1320.0</ele><time>2026-04-27T08:51:33Z</time></trkpt><trkpt lat="32.27415867607913" lon="-4.483446253553263"><ele>1322.0</ele><time>2026-04-27T08:51:34Z</time></trkpt><trkpt lat="32.27416006510576" lon="-4.483600647277549"><ele>1324.0</ele><time>2026-04-27T08:51:35Z</time></trkpt><trkpt lat="32.274161221870294" lon="-4.483743134305803"><ele>1326.0</ele><time>2026-04-27T08:51:36Z</time></trkpt><trkpt lat="32.2741621730132" lon="-4.483874020030498"><ele>1326.6</ele><time>2026-04-27T08:51:37Z</time></trkpt><trkpt lat="32.27416313377614" lon="-4.484006229607114"><ele>1327.1999999999998</ele><time>2026-04-27T08:51:38Z</time></trkpt><trkpt lat="32.27416831125095" lon="-4.484141084918456"><ele>1327.8000000000002</ele><time>2026-04-27T08:51:39Z</time></trkpt><trkpt lat="32.27417351788105" lon="-4.484270297727982"><ele>1328.4</ele><time>2026-04-27T08:51:40Z</time></trkpt><trkpt lat="32.274178681883285" lon="-4.484396539300879"><ele>1329.0</ele><time>2026-04-27T08:51:41Z</time></trkpt><trkpt lat="32.27419081846738" lon="-4.484518566898432"><ele>1328.8000000000002</ele><time>2026-04-27T08:51:42Z</time></trkpt><trkpt lat="32.274189255687226" lon="-4.48464704149412"><ele>1328.6000000000001</ele><time>2026-04-27T08:51:43Z</time></trkpt><trkpt lat="32.27423474935149" lon="-4.484763753875247"><ele>1328.4</ele><time>2026-04-27T08:51:44Z</time></trkpt><trkpt lat="32.27426483772673" lon="-4.484882315310079"><ele>1328.2</ele><time>2026-04-27T08:51:45Z</time></trkpt><trkpt lat="32.27430400273506" lon="-4.484993331330236"><ele>1328.0</ele><time>2026-04-27T08:51:46Z</time></trkpt><trkpt lat="32.27433975678647" lon="-4.485094219163659"><ele>1328.0</ele><time>2026-04-27T08:51:47Z</time></trkpt><trkpt lat="32.2743725816129" lon="-4.485186841429579"><ele>1328.0</ele><time>2026-04-27T08:51:48Z</time></trkpt><trkpt lat="32.274391594921255" lon="-4.485284879152445"><ele>1328.0</ele><time>2026-04-27T08:51:49Z</time></trkpt><trkpt lat="32.274428351663595" lon="-4.485363964080026"><ele>1328.0</ele><time>2026-04-27T08:51:50Z</time></trkpt><trkpt lat="32.274461313088096" lon="-4.485433275659709"><ele>1328.0</ele><time>2026-04-27T08:51:51Z</time></trkpt><trkpt lat="32.27450081367651" lon="-4.4854980103165785"><ele>1328.0</ele><time>2026-04-27T08:51:52Z</time></trkpt><trkpt lat="32.27454923151505" lon="-4.4855578969977765"><ele>1328.0</ele><time>2026-04-27T08:51:53Z</time></trkpt><trkpt lat="32.2746033081924" lon="-4.485611539908228"><ele>1328.0</ele><time>2026-04-27T08:51:54Z</time></trkpt><trkpt lat="32.27465776203204" lon="-4.485657591005228"><ele>1328.0</ele><time>2026-04-27T08:51:55Z</time></trkpt><trkpt lat="32.27473015373121" lon="-4.485755514462864"><ele>1328.0</ele><time>2026-04-27T08:51:57Z</time></trkpt><trkpt lat="32.27473960445745" lon="-4.48588974516952"><ele>1328.0</ele><time>2026-04-27T08:51:59Z</time></trkpt><trkpt lat="32.274732294035346" lon="-4.485975444980719"><ele>1328.0</ele><time>2026-04-27T08:52:00Z</time></trkpt><trkpt lat="32.274738869463846" lon="-4.4860679263009295"><ele>1328.0</ele><time>2026-04-27T08:52:01Z</time></trkpt><trkpt lat="32.27475803046856" lon="-4.486161697384144"><ele>1328.0</ele><time>2026-04-27T08:52:02Z</time></trkpt><trkpt lat="32.274793003521374" lon="-4.486262857421324"><ele>1328.0</ele><time>2026-04-27T08:52:03Z</time></trkpt><trkpt lat="32.27486406334259" lon="-4.486365186221064"><ele>1328.0</ele><time>2026-04-27T08:52:04Z</time></trkpt><trkpt lat="32.27492079233073" lon="-4.486498193061964"><ele>1328.0</ele><time>2026-04-27T08:52:05Z</time></trkpt><trkpt lat="32.274987025308604" lon="-4.486653694891859"><ele>1329.0</ele><time>2026-04-27T08:52:06Z</time></trkpt><trkpt lat="32.27504963080491" lon="-4.486818418106275"><ele>1330.0</ele><time>2026-04-27T08:52:07Z</time></trkpt><trkpt lat="32.27511552808216" lon="-4.486985835686243"><ele>1331.0</ele><time>2026-04-27T08:52:08Z</time></trkpt><trkpt lat="32.27518386700122" lon="-4.487149466077"><ele>1331.0</ele><time>2026-04-27T08:52:09Z</time></trkpt><trkpt lat="32.275248688675966" lon="-4.48729871138534"><ele>1331.0</ele><time>2026-04-27T08:52:10Z</time></trkpt><trkpt lat="32.2753126861208" lon="-4.487446141051565"><ele>1331.0</ele><time>2026-04-27T08:52:11Z</time></trkpt><trkpt lat="32.27537906791948" lon="-4.487599323308544"><ele>1331.0</ele><time>2026-04-27T08:52:12Z</time></trkpt><trkpt lat="32.27543971415974" lon="-4.487739390993364"><ele>1331.0</ele><time>2026-04-27T08:52:13Z</time></trkpt><trkpt lat="32.27550025799474" lon="-4.487876614019174"><ele>1331.0</ele><time>2026-04-27T08:52:14Z</time></trkpt><trkpt lat="32.27556064658678" lon="-4.488015750302654"><ele>1331.0</ele><time>2026-04-27T08:52:15Z</time></trkpt><trkpt lat="32.27562247482841" lon="-4.48815912535879"><ele>1331.0</ele><time>2026-04-27T08:52:16Z</time></trkpt><trkpt lat="32.27568510659062" lon="-4.488304363743291"><ele>1330.5</ele><time>2026-04-27T08:52:17Z</time></trkpt><trkpt lat="32.27574761250907" lon="-4.488448350225996"><ele>1330.0</ele><time>2026-04-27T08:52:18Z</time></trkpt><trkpt lat="32.27580935198319" lon="-4.488590565710722"><ele>1329.5</ele><time>2026-04-27T08:52:19Z</time></trkpt><trkpt lat="32.27587175258969" lon="-4.488734304075762"><ele>1329.0</ele><time>2026-04-27T08:52:20Z</time></trkpt><trkpt lat="32.27593480051385" lon="-4.488879533536569"><ele>1328.75</ele><time>2026-04-27T08:52:21Z</time></trkpt><trkpt lat="32.27599941335271" lon="-4.489028366034948"><ele>1328.5</ele><time>2026-04-27T08:52:22Z</time></trkpt><trkpt lat="32.276062123402184" lon="-4.489182729204366"><ele>1328.25</ele><time>2026-04-27T08:52:23Z</time></trkpt><trkpt lat="32.27612709326397" lon="-4.489339391921335"><ele>1328.0</ele><time>2026-04-27T08:52:23.999Z</time></trkpt><trkpt lat="32.27619280301371" lon="-4.489497921148102"><ele>1327.6666666666667</ele><time>2026-04-27T08:52:24.999Z</time></trkpt><trkpt lat="32.276259735852925" lon="-4.489659713740266"><ele>1327.3333333333333</ele><time>2026-04-27T08:52:25.999Z</time></trkpt><trkpt lat="32.27631270408457" lon="-4.4898311728699465"><ele>1327.0</ele><time>2026-04-27T08:52:26.999Z</time></trkpt><trkpt lat="32.27637967731158" lon="-4.489991119702063"><ele>1327.75</ele><time>2026-04-27T08:52:27.999Z</time></trkpt><trkpt lat="32.27644825656677" lon="-4.490152890684616"><ele>1328.5</ele><time>2026-04-27T08:52:28.999Z</time></trkpt><trkpt lat="32.27651336649054" lon="-4.490307636066443"><ele>1329.25</ele><time>2026-04-27T08:52:29.999Z</time></trkpt><trkpt lat="32.27657625207195" lon="-4.490451287978836"><ele>1330.0</ele><time>2026-04-27T08:52:30.999Z</time></trkpt><trkpt lat="32.276637696242325" lon="-4.490593090114871"><ele>1330.0</ele><time>2026-04-27T08:52:31.999Z</time></trkpt><trkpt lat="32.27669837766822" lon="-4.490733349695029"><ele>1330.0</ele><time>2026-04-27T08:52:32.999Z</time></trkpt><trkpt lat="32.27676967003991" lon="-4.490856878824657"><ele>1330.0</ele><time>2026-04-27T08:52:33.999Z</time></trkpt><trkpt lat="32.276824972299245" lon="-4.490982050494041"><ele>1330.0</ele><time>2026-04-27T08:52:34.999Z</time></trkpt><trkpt lat="32.27687496406706" lon="-4.491094969789985"><ele>1330.0</ele><time>2026-04-27T08:52:35.999Z</time></trkpt><trkpt lat="32.276920281403996" lon="-4.491200335858186"><ele>1330.0</ele><time>2026-04-27T08:52:36.999Z</time></trkpt><trkpt lat="32.27695832256037" lon="-4.491288923826642"><ele>1330.0</ele><time>2026-04-27T08:52:37.999Z</time></trkpt><trkpt lat="32.27699632097027" lon="-4.491377412284606"><ele>1330.0</ele><time>2026-04-27T08:52:38.999Z</time></trkpt><trkpt lat="32.27703476641293" lon="-4.491466941715829"><ele>1330.0</ele><time>2026-04-27T08:52:39.999Z</time></trkpt><trkpt lat="32.277074565352464" lon="-4.491559623105871"><ele>1330.0</ele><time>2026-04-27T08:52:40.999Z</time></trkpt><trkpt lat="32.2771180796347" lon="-4.491660956541813"><ele>1329.75</ele><time>2026-04-27T08:52:41.999Z</time></trkpt><trkpt lat="32.277164343953025" lon="-4.491768614049848"><ele>1329.5</ele><time>2026-04-27T08:52:42.999Z</time></trkpt><trkpt lat="32.27721514490059" lon="-4.491886792840078"><ele>1329.25</ele><time>2026-04-27T08:52:43.999Z</time></trkpt><trkpt lat="32.277270061523076" lon="-4.492014545926283"><ele>1329.0</ele><time>2026-04-27T08:52:44.999Z</time></trkpt><trkpt lat="32.277326701776104" lon="-4.4921463087663644"><ele>1329.0</ele><time>2026-04-27T08:52:45.999Z</time></trkpt><trkpt lat="32.277384388611885" lon="-4.492280875354893"><ele>1329.0</ele><time>2026-04-27T08:52:46.999Z</time></trkpt><trkpt lat="32.277444633522656" lon="-4.492421478481063"><ele>1329.0</ele><time>2026-04-27T08:52:47.999Z</time></trkpt><trkpt lat="32.277506915498755" lon="-4.492566835756767"><ele>1329.0</ele><time>2026-04-27T08:52:48.999Z</time></trkpt><trkpt lat="32.277572830908916" lon="-4.492720672961081"><ele>1329.0</ele><time>2026-04-27T08:52:49.999Z</time></trkpt><trkpt lat="32.27765191477596" lon="-4.492905243466613"><ele>1329.0</ele><time>2026-04-27T08:52:50.999Z</time></trkpt><trkpt lat="32.27774535774518" lon="-4.493122730029959"><ele>1329.0</ele><time>2026-04-27T08:52:51.999Z</time></trkpt><trkpt lat="32.27785625119613" lon="-4.493379248915248"><ele>1328.5</ele><time>2026-04-27T08:52:52.999Z</time></trkpt><trkpt lat="32.27794301431237" lon="-4.493592070724348"><ele>1328.0</ele><time>2026-04-27T08:52:53.999Z</time></trkpt><trkpt lat="32.278085170446666" lon="-4.493934167623225"><ele>1329.5</ele><time>2026-04-27T08:52:54.999Z</time></trkpt><trkpt lat="32.27820407625431" lon="-4.4942226354451495"><ele>1331.0</ele><time>2026-04-27T08:52:55.999Z</time></trkpt><trkpt lat="32.27830802487911" lon="-4.494473372569513"><ele>1330.6666666666667</ele><time>2026-04-27T08:52:56.999Z</time></trkpt><trkpt lat="32.27839294482915" lon="-4.494710024354867"><ele>1330.3333333333333</ele><time>2026-04-27T08:52:57.999Z</time></trkpt><trkpt lat="32.27848035283138" lon="-4.494920770776519"><ele>1330.0</ele><time>2026-04-27T08:52:58.999Z</time></trkpt><trkpt lat="32.27856007087057" lon="-4.495112165750404"><ele>1330.0</ele><time>2026-04-27T08:52:59.999Z</time></trkpt><trkpt lat="32.27863055647975" lon="-4.495275451093733"><ele>1330.0</ele><time>2026-04-27T08:53:00.999Z</time></trkpt><trkpt lat="32.27870560041634" lon="-4.495430487123341"><ele>1330.0</ele><time>2026-04-27T08:53:01.999Z</time></trkpt><trkpt lat="32.27877755607323" lon="-4.4955997925589"><ele>1330.0</ele><time>2026-04-27T08:53:02.999Z</time></trkpt><trkpt lat="32.27884490450014" lon="-4.495771469282554"><ele>1330.0</ele><time>2026-04-27T08:53:03.999Z</time></trkpt><trkpt lat="32.27891828196651" lon="-4.495946579186283"><ele>1330.0</ele><time>2026-04-27T08:53:04.999Z</time></trkpt><trkpt lat="32.27899651656389" lon="-4.496130673396577"><ele>1329.6666666666665</ele><time>2026-04-27T08:53:05.999Z</time></trkpt><trkpt lat="32.27908054285089" lon="-4.496331374052142"><ele>1329.3333333333333</ele><time>2026-04-27T08:53:06.999Z</time></trkpt><trkpt lat="32.279173595578435" lon="-4.496539320761217"><ele>1329.0</ele><time>2026-04-27T08:53:07.999Z</time></trkpt><trkpt lat="32.27927276313492" lon="-4.496752521238413"><ele>1329.0</ele><time>2026-04-27T08:53:08.999Z</time></trkpt><trkpt lat="32.279376852337734" lon="-4.496973307112055"><ele>1329.0</ele><time>2026-04-27T08:53:09.999Z</time></trkpt><trkpt lat="32.2794820694903" lon="-4.49718990678474"><ele>1329.0</ele><time>2026-04-27T08:53:10.999Z</time></trkpt><trkpt lat="32.27958350046882" lon="-4.497402988925005"><ele>1329.3333333333333</ele><time>2026-04-27T08:53:11.999Z</time></trkpt><trkpt lat="32.27968403838525" lon="-4.49761688440563"><ele>1329.6666666666665</ele><time>2026-04-27T08:53:12.999Z</time></trkpt><trkpt lat="32.27977961638116" lon="-4.497821570422875"><ele>1330.0</ele><time>2026-04-27T08:53:13.999Z</time></trkpt><trkpt lat="32.279874308649056" lon="-4.498026201073319"><ele>1330.0</ele><time>2026-04-27T08:53:14.999Z</time></trkpt><trkpt lat="32.27997276476972" lon="-4.4982304500005466"><ele>1330.0</ele><time>2026-04-27T08:53:15.999Z</time></trkpt><trkpt lat="32.28007151668168" lon="-4.498436738694384"><ele>1330.0</ele><time>2026-04-27T08:53:16.999Z</time></trkpt><trkpt lat="32.28016965918733" lon="-4.498636157242544"><ele>1330.3333333333333</ele><time>2026-04-27T08:53:17.999Z</time></trkpt><trkpt lat="32.28026641850296" lon="-4.4988444238206515"><ele>1330.6666666666667</ele><time>2026-04-27T08:53:18.999Z</time></trkpt><trkpt lat="32.28036493939192" lon="-4.499046952379466"><ele>1331.0</ele><time>2026-04-27T08:53:19.999Z</time></trkpt><trkpt lat="32.28046423910226" lon="-4.499249253481432"><ele>1331.0</ele><time>2026-04-27T08:53:20.999Z</time></trkpt><trkpt lat="32.28055989921471" lon="-4.499450522208941"><ele>1331.0</ele><time>2026-04-27T08:53:21.999Z</time></trkpt><trkpt lat="32.280652387091976" lon="-4.4996516118712995"><ele>1331.0</ele><time>2026-04-27T08:53:22.999Z</time></trkpt><trkpt lat="32.280747172228885" lon="-4.499855528449924"><ele>1330.6666666666667</ele><time>2026-04-27T08:53:23.999Z</time></trkpt><trkpt lat="32.280842333988865" lon="-4.500051011467535"><ele>1330.3333333333333</ele><time>2026-04-27T08:53:24.999Z</time></trkpt><trkpt lat="32.28093398822691" lon="-4.500251532907845"><ele>1330.0</ele><time>2026-04-27T08:53:25.999Z</time></trkpt><trkpt lat="32.28102668228534" lon="-4.500447483187518"><ele>1330.0</ele><time>2026-04-27T08:53:26.999Z</time></trkpt><trkpt lat="32.28112075993424" lon="-4.500646301325099"><ele>1330.0</ele><time>2026-04-27T08:53:27.999Z</time></trkpt><trkpt lat="32.281215812260335" lon="-4.500846681358184"><ele>1330.0</ele><time>2026-04-27T08:53:28.999Z</time></trkpt><trkpt lat="32.28131255425054" lon="-4.501046372249603"><ele>1330.0</ele><time>2026-04-27T08:53:29.999Z</time></trkpt><trkpt lat="32.28141087029226" lon="-4.501248205891388"><ele>1330.0</ele><time>2026-04-27T08:53:30.999Z</time></trkpt><trkpt lat="32.28150764073534" lon="-4.501451871085382"><ele>1330.0</ele><time>2026-04-27T08:53:31.999Z</time></trkpt><trkpt lat="32.28160557320903" lon="-4.501657203693384"><ele>1331.3333333333333</ele><time>2026-04-27T08:53:32.999Z</time></trkpt><trkpt lat="32.2817040420173" lon="-4.501863783761323"><ele>1332.6666666666667</ele><time>2026-04-27T08:53:33.999Z</time></trkpt><trkpt lat="32.2818023051801" lon="-4.502068720479362"><ele>1334.0</ele><time>2026-04-27T08:53:34.999Z</time></trkpt><trkpt lat="32.28190198433792" lon="-4.502275789006052"><ele>1334.3333333333335</ele><time>2026-04-27T08:53:35.999Z</time></trkpt><trkpt lat="32.281998669816815" lon="-4.50247525954225"><ele>1334.6666666666667</ele><time>2026-04-27T08:53:36.999Z</time></trkpt><trkpt lat="32.28209190164545" lon="-4.502671165315011"><ele>1335.0</ele><time>2026-04-27T08:53:38Z</time></trkpt><trkpt lat="32.28218441508978" lon="-4.502865150743024"><ele>1335.6666666666667</ele><time>2026-04-27T08:53:39Z</time></trkpt><trkpt lat="32.28227627302739" lon="-4.503057118146745"><ele>1336.3333333333335</ele><time>2026-04-27T08:53:40Z</time></trkpt><trkpt lat="32.282373377684536" lon="-4.503248783594949"><ele>1337.0</ele><time>2026-04-27T08:53:41Z</time></trkpt><trkpt lat="32.28247082310911" lon="-4.50344089909131"><ele>1337.0</ele><time>2026-04-27T08:53:42Z</time></trkpt><trkpt lat="32.282570280671116" lon="-4.503634843939382"><ele>1337.0</ele><time>2026-04-27T08:53:43Z</time></trkpt><trkpt lat="32.282672385353585" lon="-4.503830158641316"><ele>1337.0</ele><time>2026-04-27T08:53:44Z</time></trkpt><trkpt lat="32.28277742042183" lon="-4.504025929423107"><ele>1337.0</ele><time>2026-04-27T08:53:45Z</time></trkpt><trkpt lat="32.28288480696317" lon="-4.5042206523874295"><ele>1337.0</ele><time>2026-04-27T08:53:46Z</time></trkpt><trkpt lat="32.28299604881627" lon="-4.504413873399839"><ele>1337.0</ele><time>2026-04-27T08:53:47Z</time></trkpt><trkpt lat="32.2831060092509" lon="-4.50460620883847"><ele>1337.6666666666667</ele><time>2026-04-27T08:53:48Z</time></trkpt><trkpt lat="32.283218867091385" lon="-4.5047982358758585"><ele>1338.3333333333333</ele><time>2026-04-27T08:53:49Z</time></trkpt><trkpt lat="32.283333307858754" lon="-4.50498817624507"><ele>1339.0</ele><time>2026-04-27T08:53:50Z</time></trkpt><trkpt lat="32.28344878944533" lon="-4.505176896514928"><ele>1339.0</ele><time>2026-04-27T08:53:51Z</time></trkpt><trkpt lat="32.28356828181355" lon="-4.505365194781258"><ele>1339.0</ele><time>2026-04-27T08:53:52Z</time></trkpt><trkpt lat="32.283687497834684" lon="-4.505550812837033"><ele>1339.0</ele><time>2026-04-27T08:53:53Z</time></trkpt><trkpt lat="32.28380788450563" lon="-4.505737894397009"><ele>1339.0</ele><time>2026-04-27T08:53:54Z</time></trkpt><trkpt lat="32.28392733843685" lon="-4.505921751920793"><ele>1339.0</ele><time>2026-04-27T08:53:55Z</time></trkpt><trkpt lat="32.28404751411718" lon="-4.5061062170011"><ele>1339.0</ele><time>2026-04-27T08:53:56Z</time></trkpt><trkpt lat="32.28416656297243" lon="-4.506290917092817"><ele>1339.0</ele><time>2026-04-27T08:53:57Z</time></trkpt><trkpt lat="32.28428426054944" lon="-4.506475698053199"><ele>1339.0</ele><time>2026-04-27T08:53:58Z</time></trkpt><trkpt lat="32.28440336307894" lon="-4.506659423002588"><ele>1339.0</ele><time>2026-04-27T08:53:59Z</time></trkpt><trkpt lat="32.28452292755371" lon="-4.5068427108882645"><ele>1339.0</ele><time>2026-04-27T08:54:00Z</time></trkpt><trkpt lat="32.28464429371747" lon="-4.507026585590864"><ele>1339.0</ele><time>2026-04-27T08:54:01Z</time></trkpt><trkpt lat="32.284764492656755" lon="-4.507210849243396"><ele>1339.0</ele><time>2026-04-27T08:54:02Z</time></trkpt><trkpt lat="32.28488554750915" lon="-4.507398510490117"><ele>1339.6666666666665</ele><time>2026-04-27T08:54:03Z</time></trkpt><trkpt lat="32.285006499521224" lon="-4.507586513453513"><ele>1340.3333333333333</ele><time>2026-04-27T08:54:04Z</time></trkpt><trkpt lat="32.28513012518091" lon="-4.507772681233647"><ele>1341.0</ele><time>2026-04-27T08:54:05Z</time></trkpt><trkpt lat="32.28525336745935" lon="-4.507959958260352"><ele>1341.0</ele><time>2026-04-27T08:54:06Z</time></trkpt><trkpt lat="32.28537714405815" lon="-4.508149373757995"><ele>1341.0</ele><time>2026-04-27T08:54:07Z</time></trkpt><trkpt lat="32.285500022000576" lon="-4.508341175152027"><ele>1341.0</ele><time>2026-04-27T08:54:08Z</time></trkpt><trkpt lat="32.28562383537364" lon="-4.508533939130747"><ele>1341.0</ele><time>2026-04-27T08:54:09Z</time></trkpt><trkpt lat="32.28574823716198" lon="-4.508726681556808"><ele>1341.0</ele><time>2026-04-27T08:54:10Z</time></trkpt><trkpt lat="32.28587298793624" lon="-4.508919748172315"><ele>1341.0</ele><time>2026-04-27T08:54:11Z</time></trkpt><trkpt lat="32.285998321742696" lon="-4.509116673351289"><ele>1341.6666666666667</ele><time>2026-04-27T08:54:12Z</time></trkpt><trkpt lat="32.28612344604579" lon="-4.509314958269204"><ele>1342.3333333333335</ele><time>2026-04-27T08:54:13Z</time></trkpt><trkpt lat="32.28625181435825" lon="-4.5095142888197035"><ele>1343.0</ele><time>2026-04-27T08:54:14Z</time></trkpt><trkpt lat="32.28638307933232" lon="-4.509713612442346"><ele>1343.3333333333335</ele><time>2026-04-27T08:54:15Z</time></trkpt><trkpt lat="32.28651432261295" lon="-4.50991235374801"><ele>1343.6666666666667</ele><time>2026-04-27T08:54:16Z</time></trkpt><trkpt lat="32.286643957867966" lon="-4.510113073581474"><ele>1344.0</ele><time>2026-04-27T08:54:17Z</time></trkpt><trkpt lat="32.28677281124714" lon="-4.510312553422692"><ele>1343.3333333333333</ele><time>2026-04-27T08:54:18Z</time></trkpt><trkpt lat="32.286902889936854" lon="-4.510512967354176"><ele>1342.6666666666665</ele><time>2026-04-27T08:54:19Z</time></trkpt><trkpt lat="32.28703118848156" lon="-4.510713676291068"><ele>1342.0</ele><time>2026-04-27T08:54:20Z</time></trkpt><trkpt lat="32.28715983914858" lon="-4.5109151105907195"><ele>1342.3333333333333</ele><time>2026-04-27T08:54:21Z</time></trkpt><trkpt lat="32.28730325677176" lon="-4.511101561179042"><ele>1342.6666666666667</ele><time>2026-04-27T08:54:22Z</time></trkpt><trkpt lat="32.28743491847869" lon="-4.511298368447434"><ele>1343.0</ele><time>2026-04-27T08:54:23Z</time></trkpt><trkpt lat="32.287561436781" lon="-4.511492527637664"><ele>1343.3333333333335</ele><time>2026-04-27T08:54:24Z</time></trkpt><trkpt lat="32.287686771828376" lon="-4.511687027525469"><ele>1343.6666666666667</ele><time>2026-04-27T08:54:25Z</time></trkpt><trkpt lat="32.28781284536739" lon="-4.5118827786923275"><ele>1344.0</ele><time>2026-04-27T08:54:25.999Z</time></trkpt><trkpt lat="32.287938280004155" lon="-4.512077537874219"><ele>1344.0</ele><time>2026-04-27T08:54:26.999Z</time></trkpt><trkpt lat="32.288063670114596" lon="-4.512272227903041"><ele>1344.0</ele><time>2026-04-27T08:54:27.999Z</time></trkpt><trkpt lat="32.2881891241452" lon="-4.512467253877998"><ele>1344.0</ele><time>2026-04-27T08:54:28.999Z</time></trkpt><trkpt lat="32.288315163148276" lon="-4.512663487777776"><ele>1344.0</ele><time>2026-04-27T08:54:29.999Z</time></trkpt><trkpt lat="32.28844102599348" lon="-4.512859447419133"><ele>1344.0</ele><time>2026-04-27T08:54:30.999Z</time></trkpt><trkpt lat="32.288566502582135" lon="-4.513052696098634"><ele>1344.0</ele><time>2026-04-27T08:54:31.999Z</time></trkpt><trkpt lat="32.2886936643624" lon="-4.51324906406135"><ele>1344.3333333333333</ele><time>2026-04-27T08:54:32.999Z</time></trkpt><trkpt lat="32.28881936262641" lon="-4.513443315912454"><ele>1344.6666666666665</ele><time>2026-04-27T08:54:33.999Z</time></trkpt><trkpt lat="32.28894397313991" lon="-4.513635637203538"><ele>1345.0</ele><time>2026-04-27T08:54:34.999Z</time></trkpt><trkpt lat="32.289069329453106" lon="-4.513829109472251"><ele>1345.6666666666665</ele><time>2026-04-27T08:54:35.999Z</time></trkpt><trkpt lat="32.28919506612375" lon="-4.514023168813395"><ele>1346.3333333333333</ele><time>2026-04-27T08:54:36.999Z</time></trkpt><trkpt lat="32.289319792312554" lon="-4.514215668570807"><ele>1347.0</ele><time>2026-04-27T08:54:37.999Z</time></trkpt><trkpt lat="32.289443751647546" lon="-4.514406984848343"><ele>1347.3333333333333</ele><time>2026-04-27T08:54:38.999Z</time></trkpt><trkpt lat="32.28956767769726" lon="-4.5145982643279625"><ele>1347.6666666666665</ele><time>2026-04-27T08:54:39.999Z</time></trkpt><trkpt lat="32.28969234311813" lon="-4.514790624573581"><ele>1348.0</ele><time>2026-04-27T08:54:40.999Z</time></trkpt><trkpt lat="32.28981660368856" lon="-4.514982914860897"><ele>1348.0</ele><time>2026-04-27T08:54:41.999Z</time></trkpt><trkpt lat="32.289940340717784" lon="-4.515175016951476"><ele>1348.0</ele><time>2026-04-27T08:54:42.999Z</time></trkpt><trkpt lat="32.2900642897351" lon="-4.5153670212705395"><ele>1348.0</ele><time>2026-04-27T08:54:43.999Z</time></trkpt><trkpt lat="32.29018832391792" lon="-4.515559151379131"><ele>1348.6666666666665</ele><time>2026-04-27T08:54:44.999Z</time></trkpt><trkpt lat="32.29031209496072" lon="-4.515750894413316"><ele>1349.3333333333333</ele><time>2026-04-27T08:54:45.999Z</time></trkpt><trkpt lat="32.29042188106084" lon="-4.515956937654684"><ele>1350.0</ele><time>2026-04-27T08:54:46.999Z</time></trkpt><trkpt lat="32.2905482275128" lon="-4.516149221023135"><ele>1350.6666666666667</ele><time>2026-04-27T08:54:47.999Z</time></trkpt><trkpt lat="32.29067365065174" lon="-4.516341247400106"><ele>1351.3333333333335</ele><time>2026-04-27T08:54:48.999Z</time></trkpt><trkpt lat="32.290799677680745" lon="-4.516533177109198"><ele>1352.0</ele><time>2026-04-27T08:54:49.999Z</time></trkpt><trkpt lat="32.290925301387055" lon="-4.5167265645822985"><ele>1352.0</ele><time>2026-04-27T08:54:50.999Z</time></trkpt><trkpt lat="32.291051404733196" lon="-4.516921486293054"><ele>1352.0</ele><time>2026-04-27T08:54:51.999Z</time></trkpt><trkpt lat="32.29117870645961" lon="-4.517118982808076"><ele>1352.0</ele><time>2026-04-27T08:54:52.999Z</time></trkpt><trkpt lat="32.29130752404561" lon="-4.517316721318105"><ele>1352.3333333333335</ele><time>2026-04-27T08:54:53.999Z</time></trkpt><trkpt lat="32.29143804718148" lon="-4.517514890112699"><ele>1352.6666666666667</ele><time>2026-04-27T08:54:54.999Z</time></trkpt><trkpt lat="32.291568022230884" lon="-4.517715268917688"><ele>1353.0</ele><time>2026-04-27T08:54:55.999Z</time></trkpt><trkpt lat="32.291699253314924" lon="-4.517915607047313"><ele>1353.0</ele><time>2026-04-27T08:54:56.999Z</time></trkpt><trkpt lat="32.291831790334655" lon="-4.518117582936848"><ele>1353.0</ele><time>2026-04-27T08:54:57.999Z</time></trkpt><trkpt lat="32.29196589317775" lon="-4.518320440723635"><ele>1353.0</ele><time>2026-04-27T08:54:58.999Z</time></trkpt><trkpt lat="32.29209929189342" lon="-4.518521367988918"><ele>1353.0</ele><time>2026-04-27T08:54:59.999Z</time></trkpt><trkpt lat="32.29223209338806" lon="-4.518725843989309"><ele>1353.0</ele><time>2026-04-27T08:55:00.999Z</time></trkpt><trkpt lat="32.29236576004045" lon="-4.518932975338266"><ele>1353.0</ele><time>2026-04-27T08:55:01.999Z</time></trkpt><trkpt lat="32.292497978449234" lon="-4.519137979658807"><ele>1353.0</ele><time>2026-04-27T08:55:02.999Z</time></trkpt><trkpt lat="32.29263169708719" lon="-4.519344067239978"><ele>1353.0</ele><time>2026-04-27T08:55:03.999Z</time></trkpt><trkpt lat="32.29276625090208" lon="-4.519550106234043"><ele>1353.0</ele><time>2026-04-27T08:55:04.999Z</time></trkpt><trkpt lat="32.2929018833865" lon="-4.519755650383105"><ele>1353.3333333333333</ele><time>2026-04-27T08:55:05.999Z</time></trkpt><trkpt lat="32.29303728159118" lon="-4.519964656482105"><ele>1353.6666666666665</ele><time>2026-04-27T08:55:06.999Z</time></trkpt><trkpt lat="32.29317213459926" lon="-4.520168931025484"><ele>1354.0</ele><time>2026-04-27T08:55:07.999Z</time></trkpt><trkpt lat="32.29330861370998" lon="-4.520375393837364"><ele>1354.0</ele><time>2026-04-27T08:55:08.999Z</time></trkpt><trkpt lat="32.293442616642686" lon="-4.52058019007078"><ele>1354.0</ele><time>2026-04-27T08:55:09.999Z</time></trkpt><trkpt lat="32.293577221737046" lon="-4.52078463581351"><ele>1354.0</ele><time>2026-04-27T08:55:10.999Z</time></trkpt><trkpt lat="32.29371116306568" lon="-4.520988748935035"><ele>1354.0</ele><time>2026-04-27T08:55:11.999Z</time></trkpt><trkpt lat="32.293843068448744" lon="-4.5211930475166495"><ele>1354.0</ele><time>2026-04-27T08:55:12.999Z</time></trkpt><trkpt lat="32.29397790470253" lon="-4.521394808508242"><ele>1354.0</ele><time>2026-04-27T08:55:13.999Z</time></trkpt><trkpt lat="32.29411225667955" lon="-4.521598939581036"><ele>1354.3333333333333</ele><time>2026-04-27T08:55:14.999Z</time></trkpt><trkpt lat="32.294244885616884" lon="-4.52180212053794"><ele>1354.6666666666667</ele><time>2026-04-27T08:55:15.999Z</time></trkpt><trkpt lat="32.294380184525465" lon="-4.522006593387068"><ele>1355.0</ele><time>2026-04-27T08:55:16.999Z</time></trkpt><trkpt lat="32.294515193715036" lon="-4.522214847333997"><ele>1355.3333333333335</ele><time>2026-04-27T08:55:17.999Z</time></trkpt><trkpt lat="32.294649910005774" lon="-4.522422899938041"><ele>1355.6666666666667</ele><time>2026-04-27T08:55:18.999Z</time></trkpt><trkpt lat="32.29478639478515" lon="-4.522630826549625"><ele>1356.0</ele><time>2026-04-27T08:55:19.999Z</time></trkpt><trkpt lat="32.29492521050609" lon="-4.522847091115445"><ele>1356.0</ele><time>2026-04-27T08:55:20.999Z</time></trkpt><trkpt lat="32.2950658187347" lon="-4.523065462961518"><ele>1356.0</ele><time>2026-04-27T08:55:21.999Z</time></trkpt><trkpt lat="32.29521121272828" lon="-4.523285814123232"><ele>1356.0</ele><time>2026-04-27T08:55:22.999Z</time></trkpt><trkpt lat="32.29535720613851" lon="-4.523510324315995"><ele>1356.0</ele><time>2026-04-27T08:55:23.999Z</time></trkpt><trkpt lat="32.29550752730815" lon="-4.523742202587847"><ele>1357.0</ele><time>2026-04-27T08:55:24.999Z</time></trkpt><trkpt lat="32.29566142885193" lon="-4.5239791172154264"><ele>1358.0</ele><time>2026-04-27T08:55:25.999Z</time></trkpt><trkpt lat="32.29581958116076" lon="-4.524221400614474"><ele>1358.0</ele><time>2026-04-27T08:55:26.999Z</time></trkpt><trkpt lat="32.29598323488128" lon="-4.5244727727371155"><ele>1358.0</ele><time>2026-04-27T08:55:27.999Z</time></trkpt><trkpt lat="32.296150505405016" lon="-4.524731439700729"><ele>1358.0</ele><time>2026-04-27T08:55:28.999Z</time></trkpt><trkpt lat="32.29632633503504" lon="-4.524996365849854"><ele>1358.0</ele><time>2026-04-27T08:55:29.999Z</time></trkpt><trkpt lat="32.29650354921357" lon="-4.525267280122169"><ele>1359.0</ele><time>2026-04-27T08:55:30.999Z</time></trkpt><trkpt lat="32.2966814999087" lon="-4.52554051368672"><ele>1360.0</ele><time>2026-04-27T08:55:31.999Z</time></trkpt><trkpt lat="32.29686139116953" lon="-4.525815947035483"><ele>1360.0</ele><time>2026-04-27T08:55:32.999Z</time></trkpt><trkpt lat="32.29704241972773" lon="-4.526095039709479"><ele>1360.0</ele><time>2026-04-27T08:55:33.999Z</time></trkpt><trkpt lat="32.29722177586445" lon="-4.526370550276889"><ele>1360.5</ele><time>2026-04-27T08:55:34.999Z</time></trkpt><trkpt lat="32.297398099148616" lon="-4.526642102157182"><ele>1361.0</ele><time>2026-04-27T08:55:35.999Z</time></trkpt><trkpt lat="32.297571447536995" lon="-4.526910274284814"><ele>1361.0</ele><time>2026-04-27T08:55:36.999Z</time></trkpt><trkpt lat="32.297743958530184" lon="-4.527175167435143"><ele>1361.0</ele><time>2026-04-27T08:55:37.999Z</time></trkpt><trkpt lat="32.29791441591366" lon="-4.527438374048017"><ele>1361.0</ele><time>2026-04-27T08:55:38.999Z</time></trkpt><trkpt lat="32.29808014694655" lon="-4.527692425081408"><ele>1361.0</ele><time>2026-04-27T08:55:39.999Z</time></trkpt><trkpt lat="32.298238943689775" lon="-4.527937360467187"><ele>1362.5</ele><time>2026-04-27T08:55:40.999Z</time></trkpt><trkpt lat="32.29839349854583" lon="-4.528174869178383"><ele>1364.0</ele><time>2026-04-27T08:55:41.999Z</time></trkpt><trkpt lat="32.29854410501617" lon="-4.528407091599265"><ele>1364.0</ele><time>2026-04-27T08:55:43Z</time></trkpt><trkpt lat="32.298695262545166" lon="-4.528639122874482"><ele>1364.0</ele><time>2026-04-27T08:55:44Z</time></trkpt><trkpt lat="32.29884688781034" lon="-4.528871584204708"><ele>1365.0</ele><time>2026-04-27T08:55:45Z</time></trkpt><trkpt lat="32.29899815707463" lon="-4.529106721159439"><ele>1366.0</ele><time>2026-04-27T08:55:46Z</time></trkpt><trkpt lat="32.2991479710137" lon="-4.529338171423842"><ele>1366.0</ele><time>2026-04-27T08:55:47Z</time></trkpt><trkpt lat="32.29929666933893" lon="-4.529563227224404"><ele>1366.0</ele><time>2026-04-27T08:55:48Z</time></trkpt><trkpt lat="32.29943719937854" lon="-4.529779590167094"><ele>1366.0</ele><time>2026-04-27T08:55:49Z</time></trkpt><trkpt lat="32.299572181911145" lon="-4.529985653603907"><ele>1366.0</ele><time>2026-04-27T08:55:50Z</time></trkpt><trkpt lat="32.299701276224695" lon="-4.530183011801055"><ele>1366.0</ele><time>2026-04-27T08:55:51Z</time></trkpt><trkpt lat="32.29982577608258" lon="-4.530373603635395"><ele>1366.0</ele><time>2026-04-27T08:55:52Z</time></trkpt><trkpt lat="32.29995988579342" lon="-4.530541979670424"><ele>1366.0</ele><time>2026-04-27T08:55:53Z</time></trkpt><trkpt lat="32.300072571767835" lon="-4.5307145448069654"><ele>1366.0</ele><time>2026-04-27T08:55:54Z</time></trkpt><trkpt lat="32.30017958181072" lon="-4.530878439751052"><ele>1366.0</ele><time>2026-04-27T08:55:55Z</time></trkpt><trkpt lat="32.300285229326875" lon="-4.531040247754426"><ele>1366.0</ele><time>2026-04-27T08:55:56Z</time></trkpt><trkpt lat="32.30038743317325" lon="-4.531196781550514"><ele>1366.0</ele><time>2026-04-27T08:55:57Z</time></trkpt><trkpt lat="32.30048687149337" lon="-4.5313488286909545"><ele>1366.6666666666665</ele><time>2026-04-27T08:55:58Z</time></trkpt><trkpt lat="32.3005857948645" lon="-4.531499896786061"><ele>1367.3333333333333</ele><time>2026-04-27T08:55:59Z</time></trkpt><trkpt lat="32.30069132781721" lon="-4.531661295256798"><ele>1368.0</ele><time>2026-04-27T08:56:00Z</time></trkpt><trkpt lat="32.300796841509" lon="-4.531823728780834"><ele>1368.0</ele><time>2026-04-27T08:56:01Z</time></trkpt><trkpt lat="32.30088549444667" lon="-4.531971972409914"><ele>1368.0</ele><time>2026-04-27T08:56:02Z</time></trkpt><trkpt lat="32.30097877784419" lon="-4.532130474483559"><ele>1368.0</ele><time>2026-04-27T08:56:03Z</time></trkpt><trkpt lat="32.30108561578248" lon="-4.532312024915954"><ele>1368.0</ele><time>2026-04-27T08:56:04Z</time></trkpt><trkpt lat="32.30120193306579" lon="-4.532509683632384"><ele>1368.0</ele><time>2026-04-27T08:56:05Z</time></trkpt><trkpt lat="32.30132274836684" lon="-4.532714985930482"><ele>1368.0</ele><time>2026-04-27T08:56:06Z</time></trkpt><trkpt lat="32.30144444015237" lon="-4.532921777599142"><ele>1368.0</ele><time>2026-04-27T08:56:07Z</time></trkpt><trkpt lat="32.301567108779565" lon="-4.533130444772265"><ele>1368.0</ele><time>2026-04-27T08:56:08Z</time></trkpt><trkpt lat="32.30168795088272" lon="-4.533336532648988"><ele>1368.0</ele><time>2026-04-27T08:56:09Z</time></trkpt><trkpt lat="32.30180833519822" lon="-4.533546877793169"><ele>1367.6666666666667</ele><time>2026-04-27T08:56:10Z</time></trkpt><trkpt lat="32.30192454190557" lon="-4.533757375230009"><ele>1367.3333333333335</ele><time>2026-04-27T08:56:11Z</time></trkpt><trkpt lat="32.30203942560959" lon="-4.533966315257374"><ele>1367.0</ele><time>2026-04-27T08:56:12Z</time></trkpt><trkpt lat="32.302154050227934" lon="-4.534175210766728"><ele>1367.3333333333335</ele><time>2026-04-27T08:56:13Z</time></trkpt><trkpt lat="32.30227034892858" lon="-4.534386295584288"><ele>1367.6666666666667</ele><time>2026-04-27T08:56:14Z</time></trkpt><trkpt lat="32.302389935085465" lon="-4.534603614872389"><ele>1368.0</ele><time>2026-04-27T08:56:15Z</time></trkpt><trkpt lat="32.30249763203928" lon="-4.534832101479062"><ele>1366.6666666666667</ele><time>2026-04-27T08:56:16Z</time></trkpt><trkpt lat="32.3026182390036" lon="-4.535049286671152"><ele>1365.3333333333335</ele><time>2026-04-27T08:56:17Z</time></trkpt><trkpt lat="32.30273745398208" lon="-4.535264367273004"><ele>1364.0</ele><time>2026-04-27T08:56:18Z</time></trkpt><trkpt lat="32.30285586977585" lon="-4.535479080266959"><ele>1364.0</ele><time>2026-04-27T08:56:19Z</time></trkpt><trkpt lat="32.30297382197616" lon="-4.535694139153074"><ele>1364.0</ele><time>2026-04-27T08:56:20Z</time></trkpt><trkpt lat="32.30309198651173" lon="-4.535909544034705"><ele>1364.0</ele><time>2026-04-27T08:56:21Z</time></trkpt><trkpt lat="32.303212833169766" lon="-4.536129397682778"><ele>1366.0</ele><time>2026-04-27T08:56:22Z</time></trkpt><trkpt lat="32.30333661259673" lon="-4.5363533376748695"><ele>1368.0</ele><time>2026-04-27T08:56:23Z</time></trkpt><trkpt lat="32.30346295273972" lon="-4.53657973097044"><ele>1368.0</ele><time>2026-04-27T08:56:24Z</time></trkpt><trkpt lat="32.3035875452244" lon="-4.536804090554115"><ele>1368.0</ele><time>2026-04-27T08:56:25Z</time></trkpt><trkpt lat="32.30370442734992" lon="-4.537016928647182"><ele>1368.0</ele><time>2026-04-27T08:56:26Z</time></trkpt><trkpt lat="32.30381501369481" lon="-4.537219970332709"><ele>1369.0</ele><time>2026-04-27T08:56:27Z</time></trkpt><trkpt lat="32.30394130336375" lon="-4.537413665769252"><ele>1370.0</ele><time>2026-04-27T08:56:28Z</time></trkpt><trkpt lat="32.30404529488117" lon="-4.537636038307692"><ele>1371.0</ele><time>2026-04-27T08:56:29Z</time></trkpt><trkpt lat="32.304166214746" lon="-4.5378524942224345"><ele>1370.3333333333333</ele><time>2026-04-27T08:56:30Z</time></trkpt><trkpt lat="32.3042868358115" lon="-4.538075127962034"><ele>1369.6666666666665</ele><time>2026-04-27T08:56:31Z</time></trkpt><trkpt lat="32.30440904668269" lon="-4.538299674135081"><ele>1369.0</ele><time>2026-04-27T08:56:32Z</time></trkpt><trkpt lat="32.304535608463894" lon="-4.5385253765662075"><ele>1368.5</ele><time>2026-04-27T08:56:32.999Z</time></trkpt><trkpt lat="32.30466248410052" lon="-4.538751244592575"><ele>1368.0</ele><time>2026-04-27T08:56:33.999Z</time></trkpt><trkpt lat="32.30478899931823" lon="-4.538979530556751"><ele>1369.0</ele><time>2026-04-27T08:56:34.999Z</time></trkpt><trkpt lat="32.304913269535845" lon="-4.539210204177852"><ele>1370.0</ele><time>2026-04-27T08:56:35.999Z</time></trkpt><trkpt lat="32.30503043712045" lon="-4.53944236973294"><ele>1368.5</ele><time>2026-04-27T08:56:36.999Z</time></trkpt><trkpt lat="32.305141091496225" lon="-4.539675985182306"><ele>1367.0</ele><time>2026-04-27T08:56:37.999Z</time></trkpt><trkpt lat="32.30524274589732" lon="-4.539913063970651"><ele>1367.0</ele><time>2026-04-27T08:56:38.999Z</time></trkpt><trkpt lat="32.30535959008825" lon="-4.540136979876656"><ele>1367.0</ele><time>2026-04-27T08:56:39.999Z</time></trkpt><trkpt lat="32.305458412117694" lon="-4.54036901937128"><ele>1367.0</ele><time>2026-04-27T08:56:40.999Z</time></trkpt><trkpt lat="32.30555626121481" lon="-4.540597359922745"><ele>1367.0</ele><time>2026-04-27T08:56:41.999Z</time></trkpt><trkpt lat="32.305645042046464" lon="-4.540826485172176"><ele>1367.0</ele><time>2026-04-27T08:56:42.999Z</time></trkpt><trkpt lat="32.305772857567604" lon="-4.54103620694679"><ele>1367.0</ele><time>2026-04-27T08:56:43.999Z</time></trkpt><trkpt lat="32.305917458860264" lon="-4.541237676745329"><ele>1367.0</ele><time>2026-04-27T08:56:44.999Z</time></trkpt><trkpt lat="32.30608666501102" lon="-4.541429062670017"><ele>1367.0</ele><time>2026-04-27T08:56:45.999Z</time></trkpt><trkpt lat="32.30627501501969" lon="-4.541610606383101"><ele>1366.0</ele><time>2026-04-27T08:56:46.999Z</time></trkpt><trkpt lat="32.30649555994148" lon="-4.5417810626171695"><ele>1365.0</ele><time>2026-04-27T08:56:47.999Z</time></trkpt><trkpt lat="32.306734682558066" lon="-4.541939803767649"><ele>1364.0</ele><time>2026-04-27T08:56:48.999Z</time></trkpt><trkpt lat="32.306983747628706" lon="-4.5421007297873395"><ele>1363.0</ele><time>2026-04-27T08:56:49.999Z</time></trkpt><trkpt lat="32.30722916435122" lon="-4.5422612261034985"><ele>1364.5</ele><time>2026-04-27T08:56:50.999Z</time></trkpt><trkpt lat="32.307467917793524" lon="-4.542419241772291"><ele>1366.0</ele><time>2026-04-27T08:56:51.999Z</time></trkpt><trkpt lat="32.3077054046168" lon="-4.542575599963651"><ele>1366.0</ele><time>2026-04-27T08:56:52.999Z</time></trkpt><trkpt lat="32.30794176194447" lon="-4.542731778272811"><ele>1366.0</ele><time>2026-04-27T08:56:53.999Z</time></trkpt><trkpt lat="32.30817506200638" lon="-4.542887249462174"><ele>1367.5</ele><time>2026-04-27T08:56:54.999Z</time></trkpt><trkpt lat="32.308410781684366" lon="-4.543043371555171"><ele>1369.0</ele><time>2026-04-27T08:56:55.999Z</time></trkpt><trkpt lat="32.30864967439512" lon="-4.543200313765867"><ele>1369.0</ele><time>2026-04-27T08:56:56.999Z</time></trkpt><trkpt lat="32.30888800955504" lon="-4.543357218712811"><ele>1369.0</ele><time>2026-04-27T08:56:57.999Z</time></trkpt><trkpt lat="32.30911756833686" lon="-4.543509046869019"><ele>1369.0</ele><time>2026-04-27T08:56:58.999Z</time></trkpt><trkpt lat="32.309338802120955" lon="-4.543654471724638"><ele>1369.0</ele><time>2026-04-27T08:56:59.999Z</time></trkpt><trkpt lat="32.30956356940973" lon="-4.543779631103799"><ele>1371.0</ele><time>2026-04-27T08:57:00.999Z</time></trkpt><trkpt lat="32.30977107849157" lon="-4.543919046642696"><ele>1373.0</ele><time>2026-04-27T08:57:01.999Z</time></trkpt><trkpt lat="32.30996078332814" lon="-4.5440666213193355"><ele>1373.0</ele><time>2026-04-27T08:57:02.999Z</time></trkpt><trkpt lat="32.310152960869274" lon="-4.54418995692694"><ele>1373.0</ele><time>2026-04-27T08:57:03.999Z</time></trkpt><trkpt lat="32.31034049714291" lon="-4.5443070386965285"><ele>1373.0</ele><time>2026-04-27T08:57:04.999Z</time></trkpt><trkpt lat="32.31052622489561" lon="-4.544421347950056"><ele>1373.6666666666667</ele><time>2026-04-27T08:57:05.999Z</time></trkpt><trkpt lat="32.31070777043116" lon="-4.544533969214815"><ele>1374.3333333333333</ele><time>2026-04-27T08:57:06.999Z</time></trkpt><trkpt lat="32.310882210277505" lon="-4.54463323079184"><ele>1375.0</ele><time>2026-04-27T08:57:07.999Z</time></trkpt><trkpt lat="32.311051763507145" lon="-4.5447236152222175"><ele>1375.0</ele><time>2026-04-27T08:57:08.999Z</time></trkpt><trkpt lat="32.31122405233849" lon="-4.544807777169648"><ele>1375.0</ele><time>2026-04-27T08:57:09.999Z</time></trkpt><trkpt lat="32.311398655415196" lon="-4.544887813813279"><ele>1375.0</ele><time>2026-04-27T08:57:10.999Z</time></trkpt><trkpt lat="32.3115739692003" lon="-4.544962344536847"><ele>1375.0</ele><time>2026-04-27T08:57:11.999Z</time></trkpt><trkpt lat="32.3117484800288" lon="-4.545032835113201"><ele>1375.0</ele><time>2026-04-27T08:57:12.999Z</time></trkpt><trkpt lat="32.31191534181301" lon="-4.545098530099938"><ele>1375.0</ele><time>2026-04-27T08:57:13.999Z</time></trkpt><trkpt lat="32.31208178352577" lon="-4.5451612913737405"><ele>1373.6666666666665</ele><time>2026-04-27T08:57:14.999Z</time></trkpt><trkpt lat="32.31224946462485" lon="-4.545225338021426"><ele>1372.3333333333333</ele><time>2026-04-27T08:57:15.999Z</time></trkpt><trkpt lat="32.312418370580254" lon="-4.545288462952888"><ele>1371.0</ele><time>2026-04-27T08:57:16.999Z</time></trkpt><trkpt lat="32.31259076322931" lon="-4.54535363114404"><ele>1370.6666666666667</ele><time>2026-04-27T08:57:17.999Z</time></trkpt><trkpt lat="32.31277092264971" lon="-4.5454227205567355"><ele>1370.3333333333335</ele><time>2026-04-27T08:57:18.999Z</time></trkpt><trkpt lat="32.312953960549464" lon="-4.545492995091858"><ele>1370.0</ele><time>2026-04-27T08:57:19.999Z</time></trkpt><trkpt lat="32.31314242095913" lon="-4.545567343773445"><ele>1370.0</ele><time>2026-04-27T08:57:20.999Z</time></trkpt><trkpt lat="32.313333805161086" lon="-4.545642781997033"><ele>1370.0</ele><time>2026-04-27T08:57:21.999Z</time></trkpt><trkpt lat="32.3135283322504" lon="-4.545719151597149"><ele>1370.0</ele><time>2026-04-27T08:57:22.999Z</time></trkpt><trkpt lat="32.313735647619296" lon="-4.545805635869851"><ele>1368.5</ele><time>2026-04-27T08:57:23.999Z</time></trkpt><trkpt lat="32.313964065792874" lon="-4.545878225568212"><ele>1367.0</ele><time>2026-04-27T08:57:24.999Z</time></trkpt><trkpt lat="32.31420676172643" lon="-4.545969342844048"><ele>1367.0</ele><time>2026-04-27T08:57:25.999Z</time></trkpt><trkpt lat="32.31444957606192" lon="-4.54606057746105"><ele>1367.0</ele><time>2026-04-27T08:57:26.999Z</time></trkpt><trkpt lat="32.31468868392844" lon="-4.546149945173303"><ele>1367.0</ele><time>2026-04-27T08:57:27.999Z</time></trkpt><trkpt lat="32.31491582389028" lon="-4.546234872181302"><ele>1367.0</ele><time>2026-04-27T08:57:28.999Z</time></trkpt><trkpt lat="32.31513835272476" lon="-4.546334136398039"><ele>1367.0</ele><time>2026-04-27T08:57:29.999Z</time></trkpt><trkpt lat="32.31536135121258" lon="-4.546410265656752"><ele>1367.0</ele><time>2026-04-27T08:57:30.999Z</time></trkpt><trkpt lat="32.31557804046483" lon="-4.546487786551769"><ele>1368.0</ele><time>2026-04-27T08:57:31.999Z</time></trkpt><trkpt lat="32.31579145596902" lon="-4.546564843971081"><ele>1369.0</ele><time>2026-04-27T08:57:32.999Z</time></trkpt><trkpt lat="32.31599989056775" lon="-4.546638719472875"><ele>1370.0</ele><time>2026-04-27T08:57:33.999Z</time></trkpt><trkpt lat="32.316205965056085" lon="-4.546710357179"><ele>1370.3333333333335</ele><time>2026-04-27T08:57:34.999Z</time></trkpt><trkpt lat="32.31641165041551" lon="-4.546779148699774"><ele>1370.6666666666667</ele><time>2026-04-27T08:57:35.999Z</time></trkpt><trkpt lat="32.316619641318546" lon="-4.546850955083901"><ele>1371.0</ele><time>2026-04-27T08:57:36.999Z</time></trkpt><trkpt lat="32.316830578824764" lon="-4.546926110531323"><ele>1371.0</ele><time>2026-04-27T08:57:37.999Z</time></trkpt><trkpt lat="32.31704885616176" lon="-4.547006630405544"><ele>1371.0</ele><time>2026-04-27T08:57:38.999Z</time></trkpt><trkpt lat="32.31727128756073" lon="-4.547093111348009"><ele>1369.5</ele><time>2026-04-27T08:57:39.999Z</time></trkpt><trkpt lat="32.31749905875538" lon="-4.547186826947071"><ele>1368.0</ele><time>2026-04-27T08:57:40.999Z</time></trkpt><trkpt lat="32.31771907642361" lon="-4.547277955479484"><ele>1368.0</ele><time>2026-04-27T08:57:41.999Z</time></trkpt><trkpt lat="32.31793859347139" lon="-4.5473683140569925"><ele>1368.0</ele><time>2026-04-27T08:57:42.999Z</time></trkpt><trkpt lat="32.318156631540425" lon="-4.547453471695757"><ele>1370.0</ele><time>2026-04-27T08:57:43.999Z</time></trkpt><trkpt lat="32.31838080358029" lon="-4.547541216921395"><ele>1372.0</ele><time>2026-04-27T08:57:44.999Z</time></trkpt><trkpt lat="32.31860857376662" lon="-4.547645547715789"><ele>1372.0</ele><time>2026-04-27T08:57:45.999Z</time></trkpt><trkpt lat="32.318836902301214" lon="-4.547758748815412"><ele>1372.0</ele><time>2026-04-27T08:57:46.999Z</time></trkpt><trkpt lat="32.31906878971671" lon="-4.547878870865042"><ele>1372.5</ele><time>2026-04-27T08:57:47.999Z</time></trkpt><trkpt lat="32.31930695042415" lon="-4.548008971854896"><ele>1373.0</ele><time>2026-04-27T08:57:49Z</time></trkpt><trkpt lat="32.31955004652916" lon="-4.548151858665829"><ele>1378.5</ele><time>2026-04-27T08:57:50Z</time></trkpt><trkpt lat="32.3197912568252" lon="-4.548306035959783"><ele>1384.0</ele><time>2026-04-27T08:57:51Z</time></trkpt><trkpt lat="32.32002252355422" lon="-4.548471545519003"><ele>1384.0</ele><time>2026-04-27T08:57:52Z</time></trkpt><trkpt lat="32.32024412635088" lon="-4.548643900906255"><ele>1384.0</ele><time>2026-04-27T08:57:53Z</time></trkpt><trkpt lat="32.320460065908215" lon="-4.548823079766895"><ele>1381.0</ele><time>2026-04-27T08:57:54Z</time></trkpt><trkpt lat="32.32066661313338" lon="-4.548993269415215"><ele>1378.0</ele><time>2026-04-27T08:57:55Z</time></trkpt><trkpt lat="32.32085291809465" lon="-4.549143906420521"><ele>1378.0</ele><time>2026-04-27T08:57:56Z</time></trkpt><trkpt lat="32.321031794746034" lon="-4.549278428715377"><ele>1378.0</ele><time>2026-04-27T08:57:57Z</time></trkpt><trkpt lat="32.32121827358823" lon="-4.549393653015383"><ele>1378.0</ele><time>2026-04-27T08:57:58Z</time></trkpt><trkpt lat="32.321415574829466" lon="-4.549476182606796"><ele>1376.3333333333333</ele><time>2026-04-27T08:57:59Z</time></trkpt><trkpt lat="32.32163137051856" lon="-4.549531738099876"><ele>1374.6666666666667</ele><time>2026-04-27T08:58:00Z</time></trkpt><trkpt lat="32.32185091698742" lon="-4.54956040704161"><ele>1373.0</ele><time>2026-04-27T08:58:01Z</time></trkpt><trkpt lat="32.32207516296047" lon="-4.549561122940859"><ele>1392.0</ele><time>2026-04-27T08:58:02Z</time></trkpt><trkpt lat="32.32230573523203" lon="-4.549530238470645"><ele>1411.0</ele><time>2026-04-27T08:58:03Z</time></trkpt><trkpt lat="32.32253891414975" lon="-4.549490124789943"><ele>1411.0</ele><time>2026-04-27T08:58:04Z</time></trkpt><trkpt lat="32.32277082619094" lon="-4.54945268015718"><ele>1411.0</ele><time>2026-04-27T08:58:05Z</time></trkpt><trkpt lat="32.32299700804457" lon="-4.549414116962802"><ele>1409.6666666666665</ele><time>2026-04-27T08:58:06Z</time></trkpt><trkpt lat="32.323210575772" lon="-4.549382084320484"><ele>1408.3333333333333</ele><time>2026-04-27T08:58:07Z</time></trkpt><trkpt lat="32.32340165825773" lon="-4.549370096537723"><ele>1407.0</ele><time>2026-04-27T08:58:08Z</time></trkpt><trkpt lat="32.32357991140144" lon="-4.549395219009542"><ele>1407.0</ele><time>2026-04-27T08:58:09Z</time></trkpt><trkpt lat="32.32375170043747" lon="-4.549462148003965"><ele>1407.0</ele><time>2026-04-27T08:58:10Z</time></trkpt><trkpt lat="32.323906042496354" lon="-4.549569928263588"><ele>1407.0</ele><time>2026-04-27T08:58:11Z</time></trkpt><trkpt lat="32.32405601664517" lon="-4.549677549308695"><ele>1397.3333333333333</ele><time>2026-04-27T08:58:12Z</time></trkpt><trkpt lat="32.32420265970639" lon="-4.549759252814938"><ele>1387.6666666666665</ele><time>2026-04-27T08:58:13Z</time></trkpt><trkpt lat="32.32435799876547" lon="-4.549799666230027"><ele>1378.0</ele><time>2026-04-27T08:58:14Z</time></trkpt><trkpt lat="32.324515569549355" lon="-4.549784746190562"><ele>1378.0</ele><time>2026-04-27T08:58:15Z</time></trkpt><trkpt lat="32.32467865539999" lon="-4.549734558311637"><ele>1378.0</ele><time>2026-04-27T08:58:16Z</time></trkpt><trkpt lat="32.324847777467" lon="-4.549643881911733"><ele>1378.0</ele><time>2026-04-27T08:58:17Z</time></trkpt><trkpt lat="32.32502677193864" lon="-4.549550110202359"><ele>1380.0</ele><time>2026-04-27T08:58:18Z</time></trkpt><trkpt lat="32.32521557020418" lon="-4.5494607449969315"><ele>1382.0</ele><time>2026-04-27T08:58:19Z</time></trkpt><trkpt lat="32.325401721409484" lon="-4.549381514964075"><ele>1384.0</ele><time>2026-04-27T08:58:20Z</time></trkpt><trkpt lat="32.325582599685625" lon="-4.549314049357171"><ele>1384.0</ele><time>2026-04-27T08:58:21Z</time></trkpt><trkpt lat="32.32575885505245" lon="-4.549275910805126"><ele>1384.0</ele><time>2026-04-27T08:58:22Z</time></trkpt><trkpt lat="32.32593465917451" lon="-4.5492734267050645"><ele>1384.0</ele><time>2026-04-27T08:58:23Z</time></trkpt><trkpt lat="32.326114126568086" lon="-4.549304587215846"><ele>1384.0</ele><time>2026-04-27T08:58:24Z</time></trkpt><trkpt lat="32.326281027310124" lon="-4.549374521381026"><ele>1384.0</ele><time>2026-04-27T08:58:25Z</time></trkpt><trkpt lat="32.326427846477614" lon="-4.549495873072608"><ele>1384.0</ele><time>2026-04-27T08:58:26Z</time></trkpt><trkpt lat="32.326560481415605" lon="-4.549642803522836"><ele>1382.3333333333333</ele><time>2026-04-27T08:58:27Z</time></trkpt><trkpt lat="32.326680299806846" lon="-4.549827570771003"><ele>1380.6666666666667</ele><time>2026-04-27T08:58:28Z</time></trkpt><trkpt lat="32.326796220142704" lon="-4.550023890404418"><ele>1379.0</ele><time>2026-04-27T08:58:29Z</time></trkpt><trkpt lat="32.32690274405914" lon="-4.550229462990365"><ele>1378.3333333333335</ele><time>2026-04-27T08:58:30Z</time></trkpt><trkpt lat="32.327014109079315" lon="-4.5504255683245844"><ele>1377.6666666666667</ele><time>2026-04-27T08:58:31Z</time></trkpt><trkpt lat="32.32712628311019" lon="-4.550613739882042"><ele>1377.0</ele><time>2026-04-27T08:58:32Z</time></trkpt><trkpt lat="32.32724695355432" lon="-4.550793317191221"><ele>1379.6666666666667</ele><time>2026-04-27T08:58:33Z</time></trkpt><trkpt lat="32.32737661914073" lon="-4.550958668088783"><ele>1382.3333333333335</ele><time>2026-04-27T08:58:34Z</time></trkpt><trkpt lat="32.32751357086112" lon="-4.551115629949302"><ele>1385.0</ele><time>2026-04-27T08:58:35Z</time></trkpt><trkpt lat="32.32765912110196" lon="-4.55126302397112"><ele>1385.0</ele><time>2026-04-27T08:58:36Z</time></trkpt><trkpt lat="32.32781669266702" lon="-4.551402164008889"><ele>1385.0</ele><time>2026-04-27T08:58:37Z</time></trkpt><trkpt lat="32.32798807927997" lon="-4.551536308665824"><ele>1385.0</ele><time>2026-04-27T08:58:38Z</time></trkpt><trkpt lat="32.328181219798815" lon="-4.551657838968859"><ele>1387.0</ele><time>2026-04-27T08:58:39Z</time></trkpt><trkpt lat="32.328401668777296" lon="-4.551729247365497"><ele>1389.0</ele><time>2026-04-27T08:58:40Z</time></trkpt><trkpt lat="32.32861102753169" lon="-4.551846810596018"><ele>1389.0</ele><time>2026-04-27T08:58:41Z</time></trkpt><trkpt lat="32.32882286850392" lon="-4.551957140069162"><ele>1389.0</ele><time>2026-04-27T08:58:41.999Z</time></trkpt><trkpt lat="32.32903485864996" lon="-4.552066248720454"><ele>1384.0</ele><time>2026-04-27T08:58:42.999Z</time></trkpt><trkpt lat="32.32924831957019" lon="-4.552176078567134"><ele>1379.0</ele><time>2026-04-27T08:58:43.999Z</time></trkpt><trkpt lat="32.3294634249806" lon="-4.552265788431816"><ele>1379.0</ele><time>2026-04-27T08:58:44.999Z</time></trkpt><trkpt lat="32.329668350721484" lon="-4.552340349399296"><ele>1379.0</ele><time>2026-04-27T08:58:45.999Z</time></trkpt><trkpt lat="32.32987247017622" lon="-4.552388689719852"><ele>1379.0</ele><time>2026-04-27T08:58:46.999Z</time></trkpt><trkpt lat="32.33008780947467" lon="-4.552420556245514"><ele>1380.6666666666667</ele><time>2026-04-27T08:58:47.999Z</time></trkpt><trkpt lat="32.3303104707869" lon="-4.55243866328779"><ele>1382.3333333333333</ele><time>2026-04-27T08:58:48.999Z</time></trkpt><trkpt lat="32.33053131810154" lon="-4.55242277837866"><ele>1384.0</ele><time>2026-04-27T08:58:49.999Z</time></trkpt><trkpt lat="32.33076374746382" lon="-4.552387140536611"><ele>1385.5</ele><time>2026-04-27T08:58:50.999Z</time></trkpt><trkpt lat="32.33099385129628" lon="-4.552338725414258"><ele>1387.0</ele><time>2026-04-27T08:58:51.999Z</time></trkpt><trkpt lat="32.33121436503434" lon="-4.552257284823289"><ele>1387.5</ele><time>2026-04-27T08:58:52.999Z</time></trkpt><trkpt lat="32.33143144549767" lon="-4.552157032949982"><ele>1388.0</ele><time>2026-04-27T08:58:53.999Z</time></trkpt><trkpt lat="32.33164129114977" lon="-4.55200811509311"><ele>1389.0</ele><time>2026-04-27T08:58:54.999Z</time></trkpt><trkpt lat="32.33185098713867" lon="-4.5518420352417985"><ele>1390.0</ele><time>2026-04-27T08:58:55.999Z</time></trkpt><trkpt lat="32.33205826347886" lon="-4.551652784768362"><ele>1390.0</ele><time>2026-04-27T08:58:56.999Z</time></trkpt><trkpt lat="32.33226669624799" lon="-4.55145039362483"><ele>1390.0</ele><time>2026-04-27T08:58:57.999Z</time></trkpt><trkpt lat="32.33248163394499" lon="-4.551244067214042"><ele>1389.5</ele><time>2026-04-27T08:58:58.999Z</time></trkpt><trkpt lat="32.332704083206494" lon="-4.551029208524162"><ele>1389.0</ele><time>2026-04-27T08:58:59.999Z</time></trkpt><trkpt lat="32.33293408559349" lon="-4.550807153323213"><ele>1389.5</ele><time>2026-04-27T08:59:00.999Z</time></trkpt><trkpt lat="32.333167813857735" lon="-4.550583721390092"><ele>1390.0</ele><time>2026-04-27T08:59:01.999Z</time></trkpt><trkpt lat="32.333405071974994" lon="-4.5503564716126075"><ele>1390.5</ele><time>2026-04-27T08:59:02.999Z</time></trkpt><trkpt lat="32.33364659775675" lon="-4.550124400988461"><ele>1391.0</ele><time>2026-04-27T08:59:03.999Z</time></trkpt><trkpt lat="32.333890952714754" lon="-4.549888814268256"><ele>1391.0</ele><time>2026-04-27T08:59:04.999Z</time></trkpt><trkpt lat="32.33413763613193" lon="-4.549652393818755"><ele>1391.0</ele><time>2026-04-27T08:59:05.999Z</time></trkpt><trkpt lat="32.334385432773566" lon="-4.549416760831387"><ele>1391.0</ele><time>2026-04-27T08:59:06.999Z</time></trkpt><trkpt lat="32.33463319788416" lon="-4.5491812897775405"><ele>1391.0</ele><time>2026-04-27T08:59:07.999Z</time></trkpt><trkpt lat="32.334876239554866" lon="-4.548947217746464"><ele>1392.0</ele><time>2026-04-27T08:59:08.999Z</time></trkpt><trkpt lat="32.33511394028912" lon="-4.548715499577601"><ele>1393.0</ele><time>2026-04-27T08:59:09.999Z</time></trkpt><trkpt lat="32.33534817939981" lon="-4.548488779655282"><ele>1395.0</ele><time>2026-04-27T08:59:10.999Z</time></trkpt><trkpt lat="32.33558121762521" lon="-4.5482644775869145"><ele>1397.0</ele><time>2026-04-27T08:59:11.999Z</time></trkpt><trkpt lat="32.3358133410933" lon="-4.548042858703226"><ele>1396.5</ele><time>2026-04-27T08:59:12.999Z</time></trkpt><trkpt lat="32.33604612425784" lon="-4.547820176676898"><ele>1396.0</ele><time>2026-04-27T08:59:13.999Z</time></trkpt><trkpt lat="32.33627939741584" lon="-4.547597919873031"><ele>1396.0</ele><time>2026-04-27T08:59:14.999Z</time></trkpt><trkpt lat="32.33651218337833" lon="-4.547374578903092"><ele>1396.0</ele><time>2026-04-27T08:59:15.999Z</time></trkpt><trkpt lat="32.33673995307933" lon="-4.547153932117829"><ele>1396.5</ele><time>2026-04-27T08:59:16.999Z</time></trkpt><trkpt lat="32.33696517668399" lon="-4.546935669158361"><ele>1397.0</ele><time>2026-04-27T08:59:17.999Z</time></trkpt><trkpt lat="32.33719210222999" lon="-4.54671791850201"><ele>1398.5</ele><time>2026-04-27T08:59:18.999Z</time></trkpt><trkpt lat="32.33742357914506" lon="-4.546499752573627"><ele>1400.0</ele><time>2026-04-27T08:59:19.999Z</time></trkpt><trkpt lat="32.33766238251669" lon="-4.546280886452441"><ele>1400.0</ele><time>2026-04-27T08:59:20.999Z</time></trkpt><trkpt lat="32.33790707534446" lon="-4.546064894887891"><ele>1400.0</ele><time>2026-04-27T08:59:21.999Z</time></trkpt><trkpt lat="32.3381561768092" lon="-4.545851167859411"><ele>1400.0</ele><time>2026-04-27T08:59:22.999Z</time></trkpt><trkpt lat="32.3384114481697" lon="-4.545637860940573"><ele>1400.0</ele><time>2026-04-27T08:59:23.999Z</time></trkpt><trkpt lat="32.33866693500544" lon="-4.54542350861304"><ele>1400.5</ele><time>2026-04-27T08:59:24.999Z</time></trkpt><trkpt lat="32.33892292832815" lon="-4.545209121780819"><ele>1401.0</ele><time>2026-04-27T08:59:25.999Z</time></trkpt><trkpt lat="32.33917708479062" lon="-4.544995076634003"><ele>1401.0</ele><time>2026-04-27T08:59:26.999Z</time></trkpt><trkpt lat="32.339430250945085" lon="-4.544780127990764"><ele>1401.0</ele><time>2026-04-27T08:59:27.999Z</time></trkpt><trkpt lat="32.33967771420837" lon="-4.544571063265773"><ele>1400.5</ele><time>2026-04-27T08:59:28.999Z</time></trkpt><trkpt lat="32.33992661300879" lon="-4.5443644047469505"><ele>1400.0</ele><time>2026-04-27T08:59:29.999Z</time></trkpt><trkpt lat="32.34017751038174" lon="-4.5441567629438175"><ele>1400.0</ele><time>2026-04-27T08:59:30.999Z</time></trkpt><trkpt lat="32.34042998778114" lon="-4.543947549939583"><ele>1400.0</ele><time>2026-04-27T08:59:31.999Z</time></trkpt><trkpt lat="32.34068508924025" lon="-4.543736713631798"><ele>1400.5</ele><time>2026-04-27T08:59:32.999Z</time></trkpt><trkpt lat="32.340941491065784" lon="-4.5435262722901895"><ele>1401.0</ele><time>2026-04-27T08:59:33.999Z</time></trkpt><trkpt lat="32.341201639364044" lon="-4.5433129432214665"><ele>1400.5</ele><time>2026-04-27T08:59:34.999Z</time></trkpt><trkpt lat="32.34146513050353" lon="-4.543095274799982"><ele>1400.0</ele><time>2026-04-27T08:59:35.999Z</time></trkpt><trkpt lat="32.34172914399108" lon="-4.542875022555732"><ele>1401.0</ele><time>2026-04-27T08:59:36.999Z</time></trkpt><trkpt lat="32.34199108078418" lon="-4.542653517855193"><ele>1402.0</ele><time>2026-04-27T08:59:37.999Z</time></trkpt><trkpt lat="32.34224979539606" lon="-4.542431389634562"><ele>1402.5</ele><time>2026-04-27T08:59:38.999Z</time></trkpt><trkpt lat="32.34250193662912" lon="-4.542209796184761"><ele>1403.0</ele><time>2026-04-27T08:59:39.999Z</time></trkpt><trkpt lat="32.342748722404444" lon="-4.541991289875745"><ele>1403.5</ele><time>2026-04-27T08:59:40.999Z</time></trkpt><trkpt lat="32.34299528114837" lon="-4.541771526873046"><ele>1404.0</ele><time>2026-04-27T08:59:41.999Z</time></trkpt><trkpt lat="32.34324038206882" lon="-4.541547704375594"><ele>1404.0</ele><time>2026-04-27T08:59:42.999Z</time></trkpt><trkpt lat="32.34348685330005" lon="-4.541320400991893"><ele>1404.0</ele><time>2026-04-27T08:59:43.999Z</time></trkpt><trkpt lat="32.34373058805846" lon="-4.541095459471896"><ele>1405.5</ele><time>2026-04-27T08:59:44.999Z</time></trkpt><trkpt lat="32.34397152703679" lon="-4.54087326840734"><ele>1407.0</ele><time>2026-04-27T08:59:45.999Z</time></trkpt><trkpt lat="32.344211186436425" lon="-4.540651937756905"><ele>1407.0</ele><time>2026-04-27T08:59:46.999Z</time></trkpt><trkpt lat="32.34444849942448" lon="-4.5404324879530105"><ele>1407.0</ele><time>2026-04-27T08:59:47.999Z</time></trkpt><trkpt lat="32.34468723520081" lon="-4.540214690195417"><ele>1408.5</ele><time>2026-04-27T08:59:48.999Z</time></trkpt><trkpt lat="32.344930113151726" lon="-4.539996825119028"><ele>1410.0</ele><time>2026-04-27T08:59:49.999Z</time></trkpt><trkpt lat="32.34517326190723" lon="-4.539778134482771"><ele>1410.0</ele><time>2026-04-27T08:59:50.999Z</time></trkpt><trkpt lat="32.34541506628601" lon="-4.539559183061182"><ele>1410.0</ele><time>2026-04-27T08:59:51.999Z</time></trkpt><trkpt lat="32.345656325215785" lon="-4.539341100384976"><ele>1411.0</ele><time>2026-04-27T08:59:52.999Z</time></trkpt><trkpt lat="32.34589997914188" lon="-4.539120264858031"><ele>1412.0</ele><time>2026-04-27T08:59:53.999Z</time></trkpt><trkpt lat="32.34614717566111" lon="-4.53889421993413"><ele>1413.0</ele><time>2026-04-27T08:59:55Z</time></trkpt><trkpt lat="32.34639714628089" lon="-4.538665786937738"><ele>1414.0</ele><time>2026-04-27T08:59:56Z</time></trkpt><trkpt lat="32.346649447262855" lon="-4.538436182044416"><ele>1414.0</ele><time>2026-04-27T08:59:57Z</time></trkpt><trkpt lat="32.34690207834622" lon="-4.538206699172199"><ele>1414.0</ele><time>2026-04-27T08:59:58Z</time></trkpt><trkpt lat="32.34715323359099" lon="-4.537979518717592"><ele>1414.0</ele><time>2026-04-27T08:59:59Z</time></trkpt><trkpt lat="32.347405222828556" lon="-4.537751494688677"><ele>1414.0</ele><time>2026-04-27T09:00:00Z</time></trkpt><trkpt lat="32.34765977354307" lon="-4.537519841464887"><ele>1414.0</ele><time>2026-04-27T09:00:01Z</time></trkpt><trkpt lat="32.34791843566373" lon="-4.537283758670325"><ele>1414.0</ele><time>2026-04-27T09:00:02Z</time></trkpt><trkpt lat="32.348180195083906" lon="-4.537046660062865"><ele>1415.5</ele><time>2026-04-27T09:00:03Z</time></trkpt><trkpt lat="32.34844378457788" lon="-4.536806942122577"><ele>1417.0</ele><time>2026-04-27T09:00:04Z</time></trkpt><trkpt lat="32.348706711126084" lon="-4.536569989908687"><ele>1417.5</ele><time>2026-04-27T09:00:05Z</time></trkpt><trkpt lat="32.34896808526844" lon="-4.536332885464766"><ele>1418.0</ele><time>2026-04-27T09:00:06Z</time></trkpt><trkpt lat="32.349228168068876" lon="-4.536095745637962"><ele>1418.0</ele><time>2026-04-27T09:00:07Z</time></trkpt><trkpt lat="32.349488383303694" lon="-4.535858510489991"><ele>1418.0</ele><time>2026-04-27T09:00:08Z</time></trkpt><trkpt lat="32.34974843187964" lon="-4.53561990591279"><ele>1419.0</ele><time>2026-04-27T09:00:09Z</time></trkpt><trkpt lat="32.350010105141244" lon="-4.535378831458648"><ele>1420.0</ele><time>2026-04-27T09:00:10Z</time></trkpt><trkpt lat="32.35027368813943" lon="-4.535137042454295"><ele>1420.0</ele><time>2026-04-27T09:00:11Z</time></trkpt><trkpt lat="32.350538022006084" lon="-4.534896234921334"><ele>1420.0</ele><time>2026-04-27T09:00:12Z</time></trkpt><trkpt lat="32.350802538857295" lon="-4.534656810553069"><ele>1420.0</ele><time>2026-04-27T09:00:13Z</time></trkpt><trkpt lat="32.35106562446463" lon="-4.5344186989914945"><ele>1420.0</ele><time>2026-04-27T09:00:14Z</time></trkpt><trkpt lat="32.35132821028984" lon="-4.534179819358413"><ele>1421.0</ele><time>2026-04-27T09:00:15Z</time></trkpt><trkpt lat="32.351590624792735" lon="-4.533940144037455"><ele>1422.0</ele><time>2026-04-27T09:00:16Z</time></trkpt><trkpt lat="32.35185181217416" lon="-4.533701435268004"><ele>1422.0</ele><time>2026-04-27T09:00:17Z</time></trkpt><trkpt lat="32.35211434990466" lon="-4.533462387241118"><ele>1422.0</ele><time>2026-04-27T09:00:18Z</time></trkpt><trkpt lat="32.35238167403686" lon="-4.53321956799934"><ele>1422.5</ele><time>2026-04-27T09:00:19Z</time></trkpt><trkpt lat="32.35265393155318" lon="-4.532974474037433"><ele>1423.0</ele><time>2026-04-27T09:00:20Z</time></trkpt><trkpt lat="32.35292681974221" lon="-4.532728511356901"><ele>1425.0</ele><time>2026-04-27T09:00:21Z</time></trkpt><trkpt lat="32.3531989647908" lon="-4.53247979815279"><ele>1427.0</ele><time>2026-04-27T09:00:22Z</time></trkpt><trkpt lat="32.35347037719404" lon="-4.532232118172246"><ele>1427.5</ele><time>2026-04-27T09:00:23Z</time></trkpt><trkpt lat="32.35373891981988" lon="-4.531986558551313"><ele>1428.0</ele><time>2026-04-27T09:00:24Z</time></trkpt><trkpt lat="32.35400263938509" lon="-4.531746055292778"><ele>1428.5</ele><time>2026-04-27T09:00:25Z</time></trkpt><trkpt lat="32.35426710870051" lon="-4.531505406888272"><ele>1429.0</ele><time>2026-04-27T09:00:26Z</time></trkpt><trkpt lat="32.35453376701625" lon="-4.531263619419604"><ele>1430.5</ele><time>2026-04-27T09:00:27Z</time></trkpt><trkpt lat="32.35480226974444" lon="-4.531018687866882"><ele>1432.0</ele><time>2026-04-27T09:00:28Z</time></trkpt><trkpt lat="32.355071266085865" lon="-4.530773400952814"><ele>1432.0</ele><time>2026-04-27T09:00:29Z</time></trkpt><trkpt lat="32.35534047327637" lon="-4.530529308461158"><ele>1432.0</ele><time>2026-04-27T09:00:30Z</time></trkpt><trkpt lat="32.35561216041506" lon="-4.5302830990351435"><ele>1432.0</ele><time>2026-04-27T09:00:31Z</time></trkpt><trkpt lat="32.35588704628292" lon="-4.5300304982743755"><ele>1432.0</ele><time>2026-04-27T09:00:32Z</time></trkpt><trkpt lat="32.356162489108584" lon="-4.529778329628443"><ele>1433.0</ele><time>2026-04-27T09:00:33Z</time></trkpt><trkpt lat="32.35643697925897" lon="-4.529527014613109"><ele>1434.0</ele><time>2026-04-27T09:00:34Z</time></trkpt><trkpt lat="32.35671381087794" lon="-4.529275278600236"><ele>1434.0</ele><time>2026-04-27T09:00:35Z</time></trkpt><trkpt lat="32.35699173661521" lon="-4.529022574787037"><ele>1434.0</ele><time>2026-04-27T09:00:36Z</time></trkpt><trkpt lat="32.35726953971301" lon="-4.528767930896657"><ele>1435.0</ele><time>2026-04-27T09:00:37Z</time></trkpt><trkpt lat="32.357548524206095" lon="-4.52851339869722"><ele>1436.0</ele><time>2026-04-27T09:00:38Z</time></trkpt><trkpt lat="32.357825057384936" lon="-4.528261485180304"><ele>1437.5</ele><time>2026-04-27T09:00:39Z</time></trkpt><trkpt lat="32.358096067479046" lon="-4.528014960698888"><ele>1439.0</ele><time>2026-04-27T09:00:40Z</time></trkpt><trkpt lat="32.358360221516485" lon="-4.5277755876183665"><ele>1439.0</ele><time>2026-04-27T09:00:41Z</time></trkpt><trkpt lat="32.35862092281262" lon="-4.527539716653023"><ele>1439.0</ele><time>2026-04-27T09:00:42Z</time></trkpt><trkpt lat="32.3588774317731" lon="-4.527307094972182"><ele>1439.5</ele><time>2026-04-27T09:00:43Z</time></trkpt><trkpt lat="32.359135068573664" lon="-4.527071666502971"><ele>1440.0</ele><time>2026-04-27T09:00:44Z</time></trkpt><trkpt lat="32.359395331727704" lon="-4.5268325486977075"><ele>1440.0</ele><time>2026-04-27T09:00:45Z</time></trkpt><trkpt lat="32.35965791391663" lon="-4.52659257968333"><ele>1440.0</ele><time>2026-04-27T09:00:46Z</time></trkpt><trkpt lat="32.359922407033714" lon="-4.526351935342637"><ele>1441.5</ele><time>2026-04-27T09:00:47Z</time></trkpt><trkpt lat="32.360189737110325" lon="-4.526108500918625"><ele>1443.0</ele><time>2026-04-27T09:00:48Z</time></trkpt><trkpt lat="32.36046116509557" lon="-4.5258607231225225"><ele>1443.0</ele><time>2026-04-27T09:00:49Z</time></trkpt><trkpt lat="32.360736982174544" lon="-4.525608245272399"><ele>1443.0</ele><time>2026-04-27T09:00:49.999Z</time></trkpt><trkpt lat="32.36101581524698" lon="-4.525353713415817"><ele>1443.0</ele><time>2026-04-27T09:00:50.999Z</time></trkpt><trkpt lat="32.361294628121485" lon="-4.525100733149869"><ele>1443.0</ele><time>2026-04-27T09:00:51.999Z</time></trkpt><trkpt lat="32.36157219988699" lon="-4.524850764709259"><ele>1443.5</ele><time>2026-04-27T09:00:52.999Z</time></trkpt><trkpt lat="32.361844425700134" lon="-4.524603795574281"><ele>1444.0</ele><time>2026-04-27T09:00:53.999Z</time></trkpt><trkpt lat="32.362111723035355" lon="-4.524360153265223"><ele>1445.5</ele><time>2026-04-27T09:00:54.999Z</time></trkpt><trkpt lat="32.36238157417737" lon="-4.524115931879205"><ele>1447.0</ele><time>2026-04-27T09:00:55.999Z</time></trkpt><trkpt lat="32.3626513542606" lon="-4.5238699932613935"><ele>1447.0</ele><time>2026-04-27T09:00:56.999Z</time></trkpt><trkpt lat="32.36291872027798" lon="-4.523624482383444"><ele>1447.0</ele><time>2026-04-27T09:00:57.999Z</time></trkpt><trkpt lat="32.363181382047294" lon="-4.523383486450066"><ele>1449.0</ele><time>2026-04-27T09:00:58.999Z</time></trkpt><trkpt lat="32.363442098698194" lon="-4.523144697630752"><ele>1451.0</ele><time>2026-04-27T09:00:59.999Z</time></trkpt><trkpt lat="32.3636986830479" lon="-4.522911188711941"><ele>1452.0</ele><time>2026-04-27T09:01:00.999Z</time></trkpt><trkpt lat="32.36395388462489" lon="-4.52267979201322"><ele>1453.0</ele><time>2026-04-27T09:01:01.999Z</time></trkpt><trkpt lat="32.36421136825301" lon="-4.522445623405855"><ele>1453.0</ele><time>2026-04-27T09:01:02.999Z</time></trkpt><trkpt lat="32.364472063369846" lon="-4.522208187850034"><ele>1453.0</ele><time>2026-04-27T09:01:03.999Z</time></trkpt><trkpt lat="32.36473211740612" lon="-4.521971086170211"><ele>1453.0</ele><time>2026-04-27T09:01:04.999Z</time></trkpt><trkpt lat="32.36499572560426" lon="-4.521730662182496"><ele>1453.0</ele><time>2026-04-27T09:01:05.999Z</time></trkpt><trkpt lat="32.3652637511948" lon="-4.521485920064077"><ele>1455.0</ele><time>2026-04-27T09:01:06.999Z</time></trkpt><trkpt lat="32.36553590136186" lon="-4.521237288178824"><ele>1457.0</ele><time>2026-04-27T09:01:07.999Z</time></trkpt><trkpt lat="32.3658100035221" lon="-4.520985726189994"><ele>1457.0</ele><time>2026-04-27T09:01:08.999Z</time></trkpt><trkpt lat="32.366082267191985" lon="-4.520733666543982"><ele>1457.0</ele><time>2026-04-27T09:01:09.999Z</time></trkpt><trkpt lat="32.366351892130496" lon="-4.520486990684393"><ele>1459.0</ele><time>2026-04-27T09:01:10.999Z</time></trkpt><trkpt lat="32.3666196995261" lon="-4.520244577450657"><ele>1461.0</ele><time>2026-04-27T09:01:11.999Z</time></trkpt><trkpt lat="32.36688839302307" lon="-4.520002543902083"><ele>1461.0</ele><time>2026-04-27T09:01:12.999Z</time></trkpt><trkpt lat="32.36715697394067" lon="-4.519761011483419"><ele>1461.0</ele><time>2026-04-27T09:01:13.999Z</time></trkpt><trkpt lat="32.36742323133314" lon="-4.519518377644558"><ele>1461.5</ele><time>2026-04-27T09:01:14.999Z</time></trkpt><trkpt lat="32.36768981824474" lon="-4.5192743009436285"><ele>1462.0</ele><time>2026-04-27T09:01:15.999Z</time></trkpt><trkpt lat="32.36795861634251" lon="-4.519028473678499"><ele>1462.5</ele><time>2026-04-27T09:01:16.999Z</time></trkpt><trkpt lat="32.368228777464424" lon="-4.518782465793422"><ele>1463.0</ele><time>2026-04-27T09:01:17.999Z</time></trkpt><trkpt lat="32.36850011348872" lon="-4.51853475244969"><ele>1463.0</ele><time>2026-04-27T09:01:18.999Z</time></trkpt><trkpt lat="32.3687713082294" lon="-4.518288459786664"><ele>1463.0</ele><time>2026-04-27T09:01:19.999Z</time></trkpt><trkpt lat="32.369043556486716" lon="-4.518039693097678"><ele>1464.0</ele><time>2026-04-27T09:01:20.999Z</time></trkpt><trkpt lat="32.369317747665825" lon="-4.517788975220422"><ele>1465.0</ele><time>2026-04-27T09:01:21.999Z</time></trkpt><trkpt lat="32.36959271878248" lon="-4.517535901284606"><ele>1466.0</ele><time>2026-04-27T09:01:22.999Z</time></trkpt><trkpt lat="32.369868737251416" lon="-4.517280985775673"><ele>1467.0</ele><time>2026-04-27T09:01:23.999Z</time></trkpt><trkpt lat="32.3701452045298" lon="-4.517025618238143"><ele>1467.0</ele><time>2026-04-27T09:01:24.999Z</time></trkpt><trkpt lat="32.37042335740319" lon="-4.516772578589894"><ele>1467.0</ele><time>2026-04-27T09:01:25.999Z</time></trkpt><trkpt lat="32.3706999662887" lon="-4.516521329985463"><ele>1468.0</ele><time>2026-04-27T09:01:26.999Z</time></trkpt><trkpt lat="32.3709759443443" lon="-4.516268799106392"><ele>1469.0</ele><time>2026-04-27T09:01:27.999Z</time></trkpt><trkpt lat="32.371249027086826" lon="-4.516018529937479"><ele>1471.0</ele><time>2026-04-27T09:01:28.999Z</time></trkpt><trkpt lat="32.371520194712616" lon="-4.515770653525076"><ele>1473.0</ele><time>2026-04-27T09:01:29.999Z</time></trkpt><trkpt lat="32.37178720439848" lon="-4.5155233364239"><ele>1473.0</ele><time>2026-04-27T09:01:30.999Z</time></trkpt><trkpt lat="32.37204793589773" lon="-4.51528124802641"><ele>1473.0</ele><time>2026-04-27T09:01:31.999Z</time></trkpt><trkpt lat="32.37230160303947" lon="-4.5150464696322405"><ele>1473.0</ele><time>2026-04-27T09:01:32.999Z</time></trkpt><trkpt lat="32.37254893740445" lon="-4.514816374685059"><ele>1473.0</ele><time>2026-04-27T09:01:33.999Z</time></trkpt><trkpt lat="32.3727944265026" lon="-4.514589757624849"><ele>1474.0</ele><time>2026-04-27T09:01:34.999Z</time></trkpt><trkpt lat="32.37303939161488" lon="-4.51436733759292"><ele>1475.0</ele><time>2026-04-27T09:01:35.999Z</time></trkpt><trkpt lat="32.37328569464898" lon="-4.5141425054529085"><ele>1475.0</ele><time>2026-04-27T09:01:36.999Z</time></trkpt><trkpt lat="32.373536625916806" lon="-4.513911809624868"><ele>1475.0</ele><time>2026-04-27T09:01:37.999Z</time></trkpt><trkpt lat="32.373789702765016" lon="-4.5136795606759925"><ele>1475.0</ele><time>2026-04-27T09:01:38.999Z</time></trkpt><trkpt lat="32.374043700523124" lon="-4.5134453669323875"><ele>1475.0</ele><time>2026-04-27T09:01:39.999Z</time></trkpt><trkpt lat="32.374298841092845" lon="-4.5132090742225905"><ele>1475.0</ele><time>2026-04-27T09:01:40.999Z</time></trkpt><trkpt lat="32.374555381420414" lon="-4.512973515713054"><ele>1475.0</ele><time>2026-04-27T09:01:41.999Z</time></trkpt><trkpt lat="32.374811112871775" lon="-4.512740116545935"><ele>1475.0</ele><time>2026-04-27T09:01:42.999Z</time></trkpt><trkpt lat="32.3750643111828" lon="-4.512509037420827"><ele>1475.0</ele><time>2026-04-27T09:01:43.999Z</time></trkpt><trkpt lat="32.37531390630371" lon="-4.51228223486183"><ele>1474.0</ele><time>2026-04-27T09:01:44.999Z</time></trkpt><trkpt lat="32.375558880083936" lon="-4.512058909505357"><ele>1473.0</ele><time>2026-04-27T09:01:45.999Z</time></trkpt><trkpt lat="32.37579887935334" lon="-4.511840085124863"><ele>1473.0</ele><time>2026-04-27T09:01:46.999Z</time></trkpt><trkpt lat="32.37603803795743" lon="-4.511621034586848"><ele>1473.0</ele><time>2026-04-27T09:01:47.999Z</time></trkpt><trkpt lat="32.376275459185116" lon="-4.511402627378847"><ele>1473.5</ele><time>2026-04-27T09:01:48.999Z</time></trkpt><trkpt lat="32.37650722244294" lon="-4.511189608483507"><ele>1474.0</ele><time>2026-04-27T09:01:49.999Z</time></trkpt><trkpt lat="32.37673628278323" lon="-4.510978594970412"><ele>1474.0</ele><time>2026-04-27T09:01:50.999Z</time></trkpt><trkpt lat="32.376959703141026" lon="-4.510772459368381"><ele>1474.0</ele><time>2026-04-27T09:01:51.999Z</time></trkpt><trkpt lat="32.377178793708524" lon="-4.510571985212333"><ele>1474.0</ele><time>2026-04-27T09:01:52.999Z</time></trkpt><trkpt lat="32.37739221675868" lon="-4.510375819625315"><ele>1474.0</ele><time>2026-04-27T09:01:53.999Z</time></trkpt><trkpt lat="32.37759003581541" lon="-4.5101950514572255"><ele>1474.0</ele><time>2026-04-27T09:01:54.999Z</time></trkpt><trkpt lat="32.377759736431706" lon="-4.510038805778078"><ele>1474.0</ele><time>2026-04-27T09:01:55.999Z</time></trkpt><trkpt lat="32.377912732456046" lon="-4.509897709234759"><ele>1474.0</ele><time>2026-04-27T09:01:56.999Z</time></trkpt><trkpt lat="32.37805631632433" lon="-4.509766916050381"><ele>1474.0</ele><time>2026-04-27T09:01:57.999Z</time></trkpt><trkpt lat="32.3782072490371" lon="-4.509632584005883"><ele>1474.0</ele><time>2026-04-27T09:01:58.999Z</time></trkpt><trkpt lat="32.37836436949921" lon="-4.5094934799982855"><ele>1474.0</ele><time>2026-04-27T09:02:00Z</time></trkpt><trkpt lat="32.378523022893006" lon="-4.509350348000259"><ele>1474.0</ele><time>2026-04-27T09:02:01Z</time></trkpt><trkpt lat="32.378675063939504" lon="-4.509207447974327"><ele>1474.0</ele><time>2026-04-27T09:02:02Z</time></trkpt><trkpt lat="32.37881450600944" lon="-4.509077332782898"><ele>1474.0</ele><time>2026-04-27T09:02:03Z</time></trkpt><trkpt lat="32.378942655916624" lon="-4.508957329058004"><ele>1474.0</ele><time>2026-04-27T09:02:04Z</time></trkpt><trkpt lat="32.3790641401837" lon="-4.5088423896751415"><ele>1474.0</ele><time>2026-04-27T09:02:05Z</time></trkpt><trkpt lat="32.379180079197965" lon="-4.508734140329778"><ele>1474.0</ele><time>2026-04-27T09:02:06Z</time></trkpt><trkpt lat="32.3792963773972" lon="-4.508627969226746"><ele>1474.0</ele><time>2026-04-27T09:02:07Z</time></trkpt><trkpt lat="32.37941223874678" lon="-4.508524455401826"><ele>1474.0</ele><time>2026-04-27T09:02:08Z</time></trkpt><trkpt lat="32.37952656065811" lon="-4.508422976086285"><ele>1474.0</ele><time>2026-04-27T09:02:09Z</time></trkpt><trkpt lat="32.37963770444364" lon="-4.5083190657590055"><ele>1474.0</ele><time>2026-04-27T09:02:10Z</time></trkpt><trkpt lat="32.37974947238305" lon="-4.50821472471215"><ele>1473.75</ele><time>2026-04-27T09:02:11Z</time></trkpt><trkpt lat="32.379861402017816" lon="-4.508110882600339"><ele>1473.5</ele><time>2026-04-27T09:02:12Z</time></trkpt><trkpt lat="32.37997460268313" lon="-4.508007689182406"><ele>1473.25</ele><time>2026-04-27T09:02:13Z</time></trkpt><trkpt lat="32.38008692387933" lon="-4.50790250801551"><ele>1473.0</ele><time>2026-04-27T09:02:14Z</time></trkpt><trkpt lat="32.38020266990288" lon="-4.507796547771814"><ele>1473.0</ele><time>2026-04-27T09:02:15Z</time></trkpt><trkpt lat="32.380319407653786" lon="-4.507691003542756"><ele>1473.0</ele><time>2026-04-27T09:02:16Z</time></trkpt><trkpt lat="32.380443953993975" lon="-4.507585391967375"><ele>1473.0</ele><time>2026-04-27T09:02:17Z</time></trkpt><trkpt lat="32.38057593196472" lon="-4.507471530417218"><ele>1475.0</ele><time>2026-04-27T09:02:18Z</time></trkpt><trkpt lat="32.380709865395154" lon="-4.507354527472178"><ele>1477.0</ele><time>2026-04-27T09:02:19Z</time></trkpt><trkpt lat="32.38084386716801" lon="-4.507234338182037"><ele>1479.0</ele><time>2026-04-27T09:02:20Z</time></trkpt><trkpt lat="32.38098079630223" lon="-4.507120149016789"><ele>1477.6666666666667</ele><time>2026-04-27T09:02:21Z</time></trkpt><trkpt lat="32.38111690680592" lon="-4.507001491833591"><ele>1476.3333333333335</ele><time>2026-04-27T09:02:22Z</time></trkpt><trkpt lat="32.38124611917743" lon="-4.50688782355687"><ele>1475.0</ele><time>2026-04-27T09:02:23Z</time></trkpt><trkpt lat="32.38136461102916" lon="-4.506778968094027"><ele>1475.0</ele><time>2026-04-27T09:02:24Z</time></trkpt><trkpt lat="32.381484726160835" lon="-4.506667474684544"><ele>1475.0</ele><time>2026-04-27T09:02:25Z</time></trkpt><trkpt lat="32.3816122961339" lon="-4.506552738345528"><ele>1475.0</ele><time>2026-04-27T09:02:26Z</time></trkpt><trkpt lat="32.381747290026134" lon="-4.5064326553756455"><ele>1475.0</ele><time>2026-04-27T09:02:27Z</time></trkpt><trkpt lat="32.381893007446976" lon="-4.506301199412842"><ele>1475.0</ele><time>2026-04-27T09:02:28Z</time></trkpt><trkpt lat="32.382053954716284" lon="-4.50615783911978"><ele>1475.0</ele><time>2026-04-27T09:02:29Z</time></trkpt><trkpt lat="32.38222432086149" lon="-4.506004217461978"><ele>1475.3333333333335</ele><time>2026-04-27T09:02:30Z</time></trkpt><trkpt lat="32.38238705077847" lon="-4.505853094945022"><ele>1475.6666666666667</ele><time>2026-04-27T09:02:31Z</time></trkpt><trkpt lat="32.382540656559335" lon="-4.505702741869481"><ele>1476.0</ele><time>2026-04-27T09:02:32Z</time></trkpt><trkpt lat="32.38269038344849" lon="-4.505558062705499"><ele>1476.0</ele><time>2026-04-27T09:02:33Z</time></trkpt><trkpt lat="32.38283399429609" lon="-4.505422016387676"><ele>1476.0</ele><time>2026-04-27T09:02:34Z</time></trkpt><trkpt lat="32.382975055771276" lon="-4.50529374675043"><ele>1476.0</ele><time>2026-04-27T09:02:35Z</time></trkpt><trkpt lat="32.383118731071164" lon="-4.505167139318831"><ele>1475.0</ele><time>2026-04-27T09:02:36Z</time></trkpt><trkpt lat="32.38326466425497" lon="-4.505040357806989"><ele>1474.0</ele><time>2026-04-27T09:02:37Z</time></trkpt><trkpt lat="32.383415556562696" lon="-4.504909282310746"><ele>1473.0</ele><time>2026-04-27T09:02:38Z</time></trkpt><trkpt lat="32.38356843454076" lon="-4.504775978352699"><ele>1473.0</ele><time>2026-04-27T09:02:39Z</time></trkpt><trkpt lat="32.383719869192745" lon="-4.504642216721685"><ele>1473.0</ele><time>2026-04-27T09:02:40Z</time></trkpt><trkpt lat="32.383870558481824" lon="-4.504506162963649"><ele>1473.0</ele><time>2026-04-27T09:02:41Z</time></trkpt><trkpt lat="32.3840183279282" lon="-4.504372211917292"><ele>1473.3333333333333</ele><time>2026-04-27T09:02:42Z</time></trkpt><trkpt lat="32.384161435362785" lon="-4.504241559178684"><ele>1473.6666666666665</ele><time>2026-04-27T09:02:43Z</time></trkpt><trkpt lat="32.38430215149801" lon="-4.504115250136185"><ele>1474.0</ele><time>2026-04-27T09:02:44Z</time></trkpt><trkpt lat="32.38444071566623" lon="-4.50398543015288"><ele>1474.0</ele><time>2026-04-27T09:02:45Z</time></trkpt><trkpt lat="32.384579432369875" lon="-4.503856720308454"><ele>1474.0</ele><time>2026-04-27T09:02:46Z</time></trkpt><trkpt lat="32.38472028884998" lon="-4.503729238503519"><ele>1474.0</ele><time>2026-04-27T09:02:47Z</time></trkpt><trkpt lat="32.384863286077234" lon="-4.503601286972414"><ele>1472.0</ele><time>2026-04-27T09:02:48Z</time></trkpt><trkpt lat="32.38500481887889" lon="-4.50347419007357"><ele>1470.0</ele><time>2026-04-27T09:02:49Z</time></trkpt><trkpt lat="32.385144625693826" lon="-4.503354539654945"><ele>1468.0</ele><time>2026-04-27T09:02:50Z</time></trkpt><trkpt lat="32.38527815055244" lon="-4.503249250066356"><ele>1468.0</ele><time>2026-04-27T09:02:51Z</time></trkpt><trkpt lat="32.3854127040473" lon="-4.503154747206371"><ele>1468.0</ele><time>2026-04-27T09:02:52Z</time></trkpt><trkpt lat="32.38555706753297" lon="-4.503066747691259"><ele>1468.0</ele><time>2026-04-27T09:02:52.999Z</time></trkpt><trkpt lat="32.385708089112256" lon="-4.502983191694045"><ele>1465.6666666666665</ele><time>2026-04-27T09:02:53.999Z</time></trkpt><trkpt lat="32.38586628550186" lon="-4.502906578996114"><ele>1463.3333333333333</ele><time>2026-04-27T09:02:54.999Z</time></trkpt><trkpt lat="32.386031019300546" lon="-4.502834662845024"><ele>1461.0</ele><time>2026-04-27T09:02:55.999Z</time></trkpt><trkpt lat="32.38619525781011" lon="-4.502774278359866"><ele>1461.3333333333333</ele><time>2026-04-27T09:02:56.999Z</time></trkpt><trkpt lat="32.38636122806959" lon="-4.502721951383692"><ele>1461.6666666666665</ele><time>2026-04-27T09:02:57.999Z</time></trkpt><trkpt lat="32.38652819738926" lon="-4.502681235917788"><ele>1462.0</ele><time>2026-04-27T09:02:58.999Z</time></trkpt><trkpt lat="32.38669880306937" lon="-4.502650211907249"><ele>1462.0</ele><time>2026-04-27T09:02:59.999Z</time></trkpt><trkpt lat="32.386869577349515" lon="-4.502632869061591"><ele>1462.0</ele><time>2026-04-27T09:03:00.999Z</time></trkpt><trkpt lat="32.38705508086058" lon="-4.502629660574801"><ele>1462.0</ele><time>2026-04-27T09:03:01.999Z</time></trkpt><trkpt lat="32.38726616774264" lon="-4.502640455930463"><ele>1461.5</ele><time>2026-04-27T09:03:02.999Z</time></trkpt><trkpt lat="32.387511219159805" lon="-4.502660342327053"><ele>1461.0</ele><time>2026-04-27T09:03:03.999Z</time></trkpt><trkpt lat="32.387757073693564" lon="-4.502685419708683"><ele>1461.0</ele><time>2026-04-27T09:03:04.999Z</time></trkpt><trkpt lat="32.38797784906611" lon="-4.5027111597289915"><ele>1461.0</ele><time>2026-04-27T09:03:05.999Z</time></trkpt><trkpt lat="32.38818553105878" lon="-4.502737822053456"><ele>1461.0</ele><time>2026-04-27T09:03:06.999Z</time></trkpt><trkpt lat="32.3883788827285" lon="-4.5027661357555555"><ele>1460.6666666666667</ele><time>2026-04-27T09:03:07.999Z</time></trkpt><trkpt lat="32.388558618756655" lon="-4.502794583194945"><ele>1460.3333333333335</ele><time>2026-04-27T09:03:08.999Z</time></trkpt><trkpt lat="32.38872733290134" lon="-4.502820650783921"><ele>1460.0</ele><time>2026-04-27T09:03:09.999Z</time></trkpt><trkpt lat="32.38888135072693" lon="-4.502844127804149"><ele>1460.5</ele><time>2026-04-27T09:03:10.999Z</time></trkpt><trkpt lat="32.38902461901844" lon="-4.502866064260056"><ele>1461.0</ele><time>2026-04-27T09:03:11.999Z</time></trkpt><trkpt lat="32.38916267209834" lon="-4.502889146449494"><ele>1461.5</ele><time>2026-04-27T09:03:12.999Z</time></trkpt><trkpt lat="32.38929803391573" lon="-4.502912419241257"><ele>1462.0</ele><time>2026-04-27T09:03:13.999Z</time></trkpt><trkpt lat="32.38943347854448" lon="-4.502934600895354"><ele>1464.0</ele><time>2026-04-27T09:03:14.999Z</time></trkpt><trkpt lat="32.38956945377967" lon="-4.5029570176042695"><ele>1466.0</ele><time>2026-04-27T09:03:15.999Z</time></trkpt><trkpt lat="32.389705494040264" lon="-4.50298237845129"><ele>1468.0</ele><time>2026-04-27T09:03:16.999Z</time></trkpt><trkpt lat="32.3898403479604" lon="-4.5030044679449865"><ele>1470.0</ele><time>2026-04-27T09:03:17.999Z</time></trkpt><trkpt lat="32.38997346469004" lon="-4.503026990613219"><ele>1470.25</ele><time>2026-04-27T09:03:18.999Z</time></trkpt><trkpt lat="32.39010822417092" lon="-4.503047952178797"><ele>1470.5</ele><time>2026-04-27T09:03:19.999Z</time></trkpt><trkpt lat="32.390242554890186" lon="-4.50307130132632"><ele>1470.75</ele><time>2026-04-27T09:03:20.999Z</time></trkpt><trkpt lat="32.390377884482255" lon="-4.503093711338342"><ele>1471.0</ele><time>2026-04-27T09:03:21.999Z</time></trkpt><trkpt lat="32.390516471986935" lon="-4.503114870795068"><ele>1471.0</ele><time>2026-04-27T09:03:22.999Z</time></trkpt><trkpt lat="32.3906583662345" lon="-4.503137470141387"><ele>1471.0</ele><time>2026-04-27T09:03:23.999Z</time></trkpt><trkpt lat="32.39080520871301" lon="-4.503159488061266"><ele>1471.0</ele><time>2026-04-27T09:03:24.999Z</time></trkpt><trkpt lat="32.39095564276897" lon="-4.50317332863315"><ele>1471.0</ele><time>2026-04-27T09:03:25.999Z</time></trkpt><trkpt lat="32.39110508707979" lon="-4.503185224912577"><ele>1471.0</ele><time>2026-04-27T09:03:26.999Z</time></trkpt><trkpt lat="32.391252679939555" lon="-4.503210670631588"><ele>1471.0</ele><time>2026-04-27T09:03:27.999Z</time></trkpt><trkpt lat="32.39140168396106" lon="-4.503235785388558"><ele>1471.0</ele><time>2026-04-27T09:03:28.999Z</time></trkpt><trkpt lat="32.391548756559224" lon="-4.503259233455842"><ele>1471.0</ele><time>2026-04-27T09:03:29.999Z</time></trkpt><trkpt lat="32.391690501894814" lon="-4.5032857775253365"><ele>1469.5</ele><time>2026-04-27T09:03:30.999Z</time></trkpt><trkpt lat="32.39182860398519" lon="-4.503307888467393"><ele>1468.0</ele><time>2026-04-27T09:03:31.999Z</time></trkpt><trkpt lat="32.39196562015616" lon="-4.503330070164522"><ele>1466.5</ele><time>2026-04-27T09:03:32.999Z</time></trkpt><trkpt lat="32.39210234140173" lon="-4.503352938771077"><ele>1465.0</ele><time>2026-04-27T09:03:33.999Z</time></trkpt><trkpt lat="32.392232794300654" lon="-4.503374711881895"><ele>1464.0</ele><time>2026-04-27T09:03:34.999Z</time></trkpt><trkpt lat="32.39235671912522" lon="-4.503394007438573"><ele>1463.0</ele><time>2026-04-27T09:03:35.999Z</time></trkpt><trkpt lat="32.39247588059777" lon="-4.503407260760361"><ele>1462.0</ele><time>2026-04-27T09:03:36.999Z</time></trkpt><trkpt lat="32.39258623983875" lon="-4.503413074149365"><ele>1461.0</ele><time>2026-04-27T09:03:37.999Z</time></trkpt><trkpt lat="32.39269148012963" lon="-4.503411713886652"><ele>1461.0</ele><time>2026-04-27T09:03:38.999Z</time></trkpt><trkpt lat="32.39279564138508" lon="-4.5034051023423896"><ele>1461.0</ele><time>2026-04-27T09:03:39.999Z</time></trkpt><trkpt lat="32.39289339700717" lon="-4.503394138774735"><ele>1461.0</ele><time>2026-04-27T09:03:40.999Z</time></trkpt><trkpt lat="32.39298703884368" lon="-4.503378038342986"><ele>1461.0</ele><time>2026-04-27T09:03:41.999Z</time></trkpt><trkpt lat="32.39307175313369" lon="-4.503357577001729"><ele>1461.0</ele><time>2026-04-27T09:03:42.999Z</time></trkpt><trkpt lat="32.39315073738826" lon="-4.503338717149448"><ele>1461.5</ele><time>2026-04-27T09:03:43.999Z</time></trkpt><trkpt lat="32.39322913272667" lon="-4.503319608224972"><ele>1462.0</ele><time>2026-04-27T09:03:44.999Z</time></trkpt><trkpt lat="32.393308670730995" lon="-4.503297292362159"><ele>1462.5</ele><time>2026-04-27T09:03:45.999Z</time></trkpt><trkpt lat="32.393390292468254" lon="-4.503269981504104"><ele>1463.0</ele><time>2026-04-27T09:03:46.999Z</time></trkpt><trkpt lat="32.393475451162224" lon="-4.503238285232333"><ele>1463.5</ele><time>2026-04-27T09:03:47.999Z</time></trkpt><trkpt lat="32.39356450939648" lon="-4.503199862659008"><ele>1464.0</ele><time>2026-04-27T09:03:48.999Z</time></trkpt><trkpt lat="32.393657259796086" lon="-4.503153123238071"><ele>1464.0</ele><time>2026-04-27T09:03:49.999Z</time></trkpt><trkpt lat="32.39375125942661" lon="-4.503101046378511"><ele>1464.0</ele><time>2026-04-27T09:03:50.999Z</time></trkpt><trkpt lat="32.3938431758477" lon="-4.503045322966024"><ele>1464.0</ele><time>2026-04-27T09:03:51.999Z</time></trkpt><trkpt lat="32.39393124001804" lon="-4.502986998758297"><ele>1464.0</ele><time>2026-04-27T09:03:52.999Z</time></trkpt><trkpt lat="32.39402031328313" lon="-4.502925170704866"><ele>1464.0</ele><time>2026-04-27T09:03:53.999Z</time></trkpt><trkpt lat="32.394110687856404" lon="-4.502856630443481"><ele>1463.8000000000002</ele><time>2026-04-27T09:03:54.999Z</time></trkpt><trkpt lat="32.39419891088977" lon="-4.502779089010457"><ele>1463.6000000000001</ele><time>2026-04-27T09:03:55.999Z</time></trkpt><trkpt lat="32.39428573361921" lon="-4.502695875619126"><ele>1463.4</ele><time>2026-04-27T09:03:56.999Z</time></trkpt><trkpt lat="32.39437076585152" lon="-4.502608449351426"><ele>1463.2</ele><time>2026-04-27T09:03:57.999Z</time></trkpt><trkpt lat="32.394455999919764" lon="-4.502516991486349"><ele>1463.0</ele><time>2026-04-27T09:03:58.999Z</time></trkpt><trkpt lat="32.3945400854481" lon="-4.502421924276761"><ele>1463.0</ele><time>2026-04-27T09:03:59.999Z</time></trkpt><trkpt lat="32.39462064340246" lon="-4.502321478027345"><ele>1463.0</ele><time>2026-04-27T09:04:00.999Z</time></trkpt><trkpt lat="32.39469773151159" lon="-4.502215553623198"><ele>1463.0</ele><time>2026-04-27T09:04:01.999Z</time></trkpt><trkpt lat="32.394777401142164" lon="-4.502103728329392"><ele>1463.0</ele><time>2026-04-27T09:04:02.999Z</time></trkpt><trkpt lat="32.39486598140299" lon="-4.501991572344761"><ele>1464.0</ele><time>2026-04-27T09:04:03.999Z</time></trkpt><trkpt lat="32.394958835277386" lon="-4.501876730779376"><ele>1465.0</ele><time>2026-04-27T09:04:04.999Z</time></trkpt><trkpt lat="32.39506280081828" lon="-4.501744082763807"><ele>1466.0</ele><time>2026-04-27T09:04:06Z</time></trkpt><trkpt lat="32.39518078376398" lon="-4.5015939672060385"><ele>1466.0</ele><time>2026-04-27T09:04:07Z</time></trkpt><trkpt lat="32.39530136223977" lon="-4.501429761700441"><ele>1466.0</ele><time>2026-04-27T09:04:08Z</time></trkpt><trkpt lat="32.39541802852706" lon="-4.501260811162314"><ele>1466.0</ele><time>2026-04-27T09:04:09Z</time></trkpt><trkpt lat="32.39553786189018" lon="-4.501083562062428"><ele>1465.3333333333335</ele><time>2026-04-27T09:04:10Z</time></trkpt><trkpt lat="32.395659750636035" lon="-4.500905571235857"><ele>1464.6666666666667</ele><time>2026-04-27T09:04:11Z</time></trkpt><trkpt lat="32.395785763639935" lon="-4.500729484103573"><ele>1464.0</ele><time>2026-04-27T09:04:12Z</time></trkpt><trkpt lat="32.39591643602485" lon="-4.500558064505702"><ele>1465.6666666666667</ele><time>2026-04-27T09:04:13Z</time></trkpt><trkpt lat="32.396049519957884" lon="-4.500392582667346"><ele>1467.3333333333335</ele><time>2026-04-27T09:04:14Z</time></trkpt><trkpt lat="32.39619015296356" lon="-4.500234436372951"><ele>1469.0</ele><time>2026-04-27T09:04:15Z</time></trkpt><trkpt lat="32.396345061395664" lon="-4.500083785760424"><ele>1469.0</ele><time>2026-04-27T09:04:16Z</time></trkpt><trkpt lat="32.396516797436036" lon="-4.499937331005861"><ele>1469.0</ele><time>2026-04-27T09:04:17Z</time></trkpt><trkpt lat="32.39670426586161" lon="-4.499795571630396"><ele>1469.0</ele><time>2026-04-27T09:04:18Z</time></trkpt><trkpt lat="32.396895624615716" lon="-4.499652518910943"><ele>1469.0</ele><time>2026-04-27T09:04:19Z</time></trkpt><trkpt lat="32.39710061502329" lon="-4.49950119149377"><ele>1469.0</ele><time>2026-04-27T09:04:20Z</time></trkpt><trkpt lat="32.397304259410014" lon="-4.499342220425886"><ele>1467.5</ele><time>2026-04-27T09:04:21Z</time></trkpt><trkpt lat="32.39752131924472" lon="-4.4991704885890185"><ele>1466.0</ele><time>2026-04-27T09:04:22Z</time></trkpt><trkpt lat="32.397748207774605" lon="-4.498995238899408"><ele>1466.0</ele><time>2026-04-27T09:04:23Z</time></trkpt><trkpt lat="32.39798481524444" lon="-4.498815655482376"><ele>1466.0</ele><time>2026-04-27T09:04:24Z</time></trkpt><trkpt lat="32.3982300677407" lon="-4.498633939960204"><ele>1467.0</ele><time>2026-04-27T09:04:25Z</time></trkpt><trkpt lat="32.3984789376346" lon="-4.4984526325387995"><ele>1468.0</ele><time>2026-04-27T09:04:26Z</time></trkpt><trkpt lat="32.398732457675955" lon="-4.498266837805316"><ele>1467.5</ele><time>2026-04-27T09:04:27Z</time></trkpt><trkpt lat="32.39898836728774" lon="-4.498079617046057"><ele>1467.0</ele><time>2026-04-27T09:04:28Z</time></trkpt><trkpt lat="32.39925021801956" lon="-4.4978875330549535"><ele>1467.5</ele><time>2026-04-27T09:04:29Z</time></trkpt><trkpt lat="32.39951748569056" lon="-4.497692985179219"><ele>1468.0</ele><time>2026-04-27T09:04:30Z</time></trkpt><trkpt lat="32.39978737744758" lon="-4.49749765048174"><ele>1468.0</ele><time>2026-04-27T09:04:31Z</time></trkpt><trkpt lat="32.40006136567667" lon="-4.497300557375668"><ele>1468.0</ele><time>2026-04-27T09:04:32Z</time></trkpt><trkpt lat="32.40033816021963" lon="-4.497099347335242"><ele>1468.5</ele><time>2026-04-27T09:04:33Z</time></trkpt><trkpt lat="32.40062022557089" lon="-4.49689288364486"><ele>1469.0</ele><time>2026-04-27T09:04:34Z</time></trkpt><trkpt lat="32.40090262517033" lon="-4.496680862330354"><ele>1469.0</ele><time>2026-04-27T09:04:35Z</time></trkpt><trkpt lat="32.401185362271534" lon="-4.4964645450282985"><ele>1469.0</ele><time>2026-04-27T09:04:36Z</time></trkpt><trkpt lat="32.40146737827835" lon="-4.496242819019109"><ele>1470.5</ele><time>2026-04-27T09:04:37Z</time></trkpt><trkpt lat="32.40174670867489" lon="-4.496016828046725"><ele>1472.0</ele><time>2026-04-27T09:04:38Z</time></trkpt><trkpt lat="32.40202831438778" lon="-4.495783707856567"><ele>1471.5</ele><time>2026-04-27T09:04:39Z</time></trkpt><trkpt lat="32.402313409096934" lon="-4.49554889952656"><ele>1471.0</ele><time>2026-04-27T09:04:40Z</time></trkpt><trkpt lat="32.40259953890661" lon="-4.495314500563442"><ele>1472.5</ele><time>2026-04-27T09:04:41Z</time></trkpt><trkpt lat="32.40288447963504" lon="-4.495081046846973"><ele>1474.0</ele><time>2026-04-27T09:04:42Z</time></trkpt><trkpt lat="32.40317005533936" lon="-4.494844739080241"><ele>1474.5</ele><time>2026-04-27T09:04:43Z</time></trkpt><trkpt lat="32.4034588396702" lon="-4.494604138631681"><ele>1475.0</ele><time>2026-04-27T09:04:44Z</time></trkpt><trkpt lat="32.40374811046946" lon="-4.494360242850773"><ele>1475.0</ele><time>2026-04-27T09:04:45Z</time></trkpt><trkpt lat="32.40403695491957" lon="-4.494117719026254"><ele>1475.0</ele><time>2026-04-27T09:04:46Z</time></trkpt><trkpt lat="32.40432284744446" lon="-4.493878277444584"><ele>1476.0</ele><time>2026-04-27T09:04:47Z</time></trkpt><trkpt lat="32.40460642137141" lon="-4.493642934631773"><ele>1477.0</ele><time>2026-04-27T09:04:48Z</time></trkpt><trkpt lat="32.404886359818704" lon="-4.4934124166494005"><ele>1477.5</ele><time>2026-04-27T09:04:49Z</time></trkpt><trkpt lat="32.40516187468493" lon="-4.493186354584467"><ele>1478.0</ele><time>2026-04-27T09:04:50Z</time></trkpt><trkpt lat="32.40543683786909" lon="-4.492958681819861"><ele>1479.0</ele><time>2026-04-27T09:04:51Z</time></trkpt><trkpt lat="32.405711173381626" lon="-4.492731110652583"><ele>1480.0</ele><time>2026-04-27T09:04:52Z</time></trkpt><trkpt lat="32.40598059233797" lon="-4.492505578298643"><ele>1480.0</ele><time>2026-04-27T09:04:53Z</time></trkpt><trkpt lat="32.40624416608318" lon="-4.492284647437758"><ele>1480.0</ele><time>2026-04-27T09:04:54Z</time></trkpt><trkpt lat="32.4065095783143" lon="-4.492063888208816"><ele>1480.0</ele><time>2026-04-27T09:04:55Z</time></trkpt><trkpt lat="32.40678000402945" lon="-4.4918398660247245"><ele>1480.0</ele><time>2026-04-27T09:04:55.999Z</time></trkpt><trkpt lat="32.40705326649481" lon="-4.49161441520525"><ele>1480.0</ele><time>2026-04-27T09:04:56.999Z</time></trkpt><trkpt lat="32.407329793215304" lon="-4.4913844447811915"><ele>1480.0</ele><time>2026-04-27T09:04:57.999Z</time></trkpt><trkpt lat="32.407608596527055" lon="-4.491152405126578"><ele>1480.0</ele><time>2026-04-27T09:04:58.999Z</time></trkpt><trkpt lat="32.40788973054002" lon="-4.490916377762523"><ele>1480.0</ele><time>2026-04-27T09:04:59.999Z</time></trkpt><trkpt lat="32.408173736642965" lon="-4.490679723149627"><ele>1482.0</ele><time>2026-04-27T09:05:00.999Z</time></trkpt><trkpt lat="32.40846018384445" lon="-4.4904414376940505"><ele>1484.0</ele><time>2026-04-27T09:05:01.999Z</time></trkpt><trkpt lat="32.40875006103936" lon="-4.490201912385921"><ele>1485.5</ele><time>2026-04-27T09:05:02.999Z</time></trkpt><trkpt lat="32.40904083545387" lon="-4.489962179814971"><ele>1487.0</ele><time>2026-04-27T09:05:03.999Z</time></trkpt><trkpt lat="32.40933204296839" lon="-4.489721829089313"><ele>1487.0</ele><time>2026-04-27T09:05:04.999Z</time></trkpt><trkpt lat="32.40962513097453" lon="-4.4894792458440556"><ele>1487.0</ele><time>2026-04-27T09:05:05.999Z</time></trkpt><trkpt lat="32.40991982935426" lon="-4.4892347307928135"><ele>1487.0</ele><time>2026-04-27T09:05:06.999Z</time></trkpt><trkpt lat="32.41021599562659" lon="-4.4889871926061335"><ele>1487.0</ele><time>2026-04-27T09:05:07.999Z</time></trkpt><trkpt lat="32.41051377268642" lon="-4.488737676722412"><ele>1487.0</ele><time>2026-04-27T09:05:08.999Z</time></trkpt><trkpt lat="32.41081234871123" lon="-4.488486776441062"><ele>1487.0</ele><time>2026-04-27T09:05:09.999Z</time></trkpt><trkpt lat="32.41111083581918" lon="-4.488235225225349"><ele>1488.5</ele><time>2026-04-27T09:05:10.999Z</time></trkpt><trkpt lat="32.411412456575384" lon="-4.487982615948606"><ele>1490.0</ele><time>2026-04-27T09:05:11.999Z</time></trkpt><trkpt lat="32.411715978762274" lon="-4.487729307960379"><ele>1490.0</ele><time>2026-04-27T09:05:12.999Z</time></trkpt><trkpt lat="32.41202285412493" lon="-4.487472832165431"><ele>1490.0</ele><time>2026-04-27T09:05:13.999Z</time></trkpt><trkpt lat="32.412328676337566" lon="-4.4872171275566215"><ele>1490.5</ele><time>2026-04-27T09:05:14.999Z</time></trkpt><trkpt lat="32.41263205121536" lon="-4.486962291260684"><ele>1491.0</ele><time>2026-04-27T09:05:15.999Z</time></trkpt><trkpt lat="32.41292977633512" lon="-4.486711241775443"><ele>1492.0</ele><time>2026-04-27T09:05:16.999Z</time></trkpt><trkpt lat="32.413221525585136" lon="-4.4864651321428255"><ele>1493.0</ele><time>2026-04-27T09:05:17.999Z</time></trkpt><trkpt lat="32.413505882938864" lon="-4.48622438045858"><ele>1493.5</ele><time>2026-04-27T09:05:18.999Z</time></trkpt><trkpt lat="32.413783325596214" lon="-4.4859885009821285"><ele>1494.0</ele><time>2026-04-27T09:05:19.999Z</time></trkpt><trkpt lat="32.414054814005034" lon="-4.485761260523241"><ele>1494.0</ele><time>2026-04-27T09:05:20.999Z</time></trkpt><trkpt lat="32.41431865875415" lon="-4.485539912280691"><ele>1494.0</ele><time>2026-04-27T09:05:21.999Z</time></trkpt><trkpt lat="32.41458200240346" lon="-4.485316584100593"><ele>1496.0</ele><time>2026-04-27T09:05:22.999Z</time></trkpt><trkpt lat="32.41484800173842" lon="-4.4850904915724685"><ele>1498.0</ele><time>2026-04-27T09:05:23.999Z</time></trkpt><trkpt lat="32.41511967093578" lon="-4.484859837498047"><ele>1498.0</ele><time>2026-04-27T09:05:24.999Z</time></trkpt><trkpt lat="32.415396484381006" lon="-4.484626456919706"><ele>1498.0</ele><time>2026-04-27T09:05:25.999Z</time></trkpt><trkpt lat="32.41567835278435" lon="-4.484390498991812"><ele>1498.0</ele><time>2026-04-27T09:05:26.999Z</time></trkpt><trkpt lat="32.41596102263663" lon="-4.484154711062781"><ele>1498.0</ele><time>2026-04-27T09:05:27.999Z</time></trkpt><trkpt lat="32.416243755629104" lon="-4.4839176441113855"><ele>1499.5</ele><time>2026-04-27T09:05:28.999Z</time></trkpt><trkpt lat="32.416522695473496" lon="-4.483683654171103"><ele>1501.0</ele><time>2026-04-27T09:05:29.999Z</time></trkpt><trkpt lat="32.4167967268434" lon="-4.48345480059844"><ele>1501.0</ele><time>2026-04-27T09:05:30.999Z</time></trkpt><trkpt lat="32.417063886314935" lon="-4.483232043401244"><ele>1501.0</ele><time>2026-04-27T09:05:31.999Z</time></trkpt><trkpt lat="32.41733248580832" lon="-4.483011946606835"><ele>1501.0</ele><time>2026-04-27T09:05:32.999Z</time></trkpt><trkpt lat="32.41760492125312" lon="-4.48278991153857"><ele>1501.0</ele><time>2026-04-27T09:05:33.999Z</time></trkpt><trkpt lat="32.41787683446139" lon="-4.482567977508576"><ele>1503.0</ele><time>2026-04-27T09:05:34.999Z</time></trkpt><trkpt lat="32.41814913884726" lon="-4.482344159909543"><ele>1505.0</ele><time>2026-04-27T09:05:35.999Z</time></trkpt><trkpt lat="32.418420672212235" lon="-4.482115429218954"><ele>1505.5</ele><time>2026-04-27T09:05:36.999Z</time></trkpt><trkpt lat="32.418693082800765" lon="-4.48187663742799"><ele>1506.0</ele><time>2026-04-27T09:05:37.999Z</time></trkpt><trkpt lat="32.41896432223581" lon="-4.4816353194349725"><ele>1506.0</ele><time>2026-04-27T09:05:38.999Z</time></trkpt><trkpt lat="32.41924262459986" lon="-4.481390937942386"><ele>1506.0</ele><time>2026-04-27T09:05:39.999Z</time></trkpt><trkpt lat="32.41952334986291" lon="-4.481149728947967"><ele>1507.0</ele><time>2026-04-27T09:05:40.999Z</time></trkpt><trkpt lat="32.419805626487" lon="-4.480910634246421"><ele>1508.0</ele><time>2026-04-27T09:05:41.999Z</time></trkpt><trkpt lat="32.42009002889357" lon="-4.480672715683942"><ele>1508.0</ele><time>2026-04-27T09:05:42.999Z</time></trkpt><trkpt lat="32.420375476989875" lon="-4.480437182272208"><ele>1508.0</ele><time>2026-04-27T09:05:43.999Z</time></trkpt><trkpt lat="32.420663291841315" lon="-4.480206115078745"><ele>1508.5</ele><time>2026-04-27T09:05:44.999Z</time></trkpt><trkpt lat="32.42095449790456" lon="-4.479980400009334"><ele>1509.0</ele><time>2026-04-27T09:05:45.999Z</time></trkpt><trkpt lat="32.421247327897355" lon="-4.479761748535031"><ele>1509.0</ele><time>2026-04-27T09:05:46.999Z</time></trkpt><trkpt lat="32.421539117625514" lon="-4.479552658451052"><ele>1509.0</ele><time>2026-04-27T09:05:47.999Z</time></trkpt><trkpt lat="32.421830102772496" lon="-4.479346232219495"><ele>1509.0</ele><time>2026-04-27T09:05:48.999Z</time></trkpt><trkpt lat="32.42212475540042" lon="-4.479136088573167"><ele>1509.0</ele><time>2026-04-27T09:05:49.999Z</time></trkpt><trkpt lat="32.42242762166409" lon="-4.478919458976349"><ele>1509.5</ele><time>2026-04-27T09:05:50.999Z</time></trkpt><trkpt lat="32.42272872603438" lon="-4.478703518261187"><ele>1510.0</ele><time>2026-04-27T09:05:51.999Z</time></trkpt><trkpt lat="32.423021620455955" lon="-4.478493809527609"><ele>1511.0</ele><time>2026-04-27T09:05:52.999Z</time></trkpt><trkpt lat="32.423308641422885" lon="-4.4782883962852456"><ele>1512.0</ele><time>2026-04-27T09:05:53.999Z</time></trkpt><trkpt lat="32.42358879528115" lon="-4.478088534709964"><ele>1512.5</ele><time>2026-04-27T09:05:54.999Z</time></trkpt><trkpt lat="32.42386352963829" lon="-4.477892703565644"><ele>1513.0</ele><time>2026-04-27T09:05:55.999Z</time></trkpt><trkpt lat="32.42413556589934" lon="-4.477697657182113"><ele>1513.0</ele><time>2026-04-27T09:05:56.999Z</time></trkpt><trkpt lat="32.424402127842754" lon="-4.477506783207699"><ele>1513.0</ele><time>2026-04-27T09:05:57.999Z</time></trkpt><trkpt lat="32.42466315654264" lon="-4.477320786430965"><ele>1513.0</ele><time>2026-04-27T09:05:58.999Z</time></trkpt><trkpt lat="32.42491634674316" lon="-4.477139814815444"><ele>1513.0</ele><time>2026-04-27T09:05:59.999Z</time></trkpt><trkpt lat="32.425155687682654" lon="-4.476969349078218"><ele>1513.0</ele><time>2026-04-27T09:06:00.999Z</time></trkpt><trkpt lat="32.425383991469594" lon="-4.476806939302257"><ele>1513.0</ele><time>2026-04-27T09:06:01.999Z</time></trkpt><trkpt lat="32.42560050589772" lon="-4.4766512708783255"><ele>1514.0</ele><time>2026-04-27T09:06:02.999Z</time></trkpt><trkpt lat="32.4258080086917" lon="-4.476501002959824"><ele>1515.0</ele><time>2026-04-27T09:06:03.999Z</time></trkpt><trkpt lat="32.42600502216834" lon="-4.476356951264399"><ele>1515.0</ele><time>2026-04-27T09:06:04.999Z</time></trkpt><trkpt lat="32.426191155305276" lon="-4.47622203128834"><ele>1515.0</ele><time>2026-04-27T09:06:05.999Z</time></trkpt><trkpt lat="32.42636987809437" lon="-4.476094684599148"><ele>1515.0</ele><time>2026-04-27T09:06:06.999Z</time></trkpt><trkpt lat="32.426537360166314" lon="-4.475973817760924"><ele>1515.6666666666667</ele><time>2026-04-27T09:06:07.999Z</time></trkpt><trkpt lat="32.426703879693214" lon="-4.475854665035737"><ele>1516.3333333333335</ele><time>2026-04-27T09:06:08.999Z</time></trkpt><trkpt lat="32.42686949450793" lon="-4.475737801737466"><ele>1517.0</ele><time>2026-04-27T09:06:09.999Z</time></trkpt><trkpt lat="32.42703531399104" lon="-4.475621703340952"><ele>1517.6666666666667</ele><time>2026-04-27T09:06:11Z</time></trkpt><trkpt lat="32.42720151810895" lon="-4.475505475815996"><ele>1518.3333333333333</ele><time>2026-04-27T09:06:12Z</time></trkpt><trkpt lat="32.42736520442328" lon="-4.475390834745232"><ele>1519.0</ele><time>2026-04-27T09:06:13Z</time></trkpt><trkpt lat="32.42752496722258" lon="-4.475279571771099"><ele>1519.0</ele><time>2026-04-27T09:06:14Z</time></trkpt><trkpt lat="32.427681238991404" lon="-4.475171443254979"><ele>1519.0</ele><time>2026-04-27T09:06:15Z</time></trkpt><trkpt lat="32.42783215327173" lon="-4.475064250744602"><ele>1519.0</ele><time>2026-04-27T09:06:16Z</time></trkpt><trkpt lat="32.427978115397835" lon="-4.474955862526915"><ele>1519.3333333333333</ele><time>2026-04-27T09:06:17Z</time></trkpt><trkpt lat="32.428123105492624" lon="-4.474849313371939"><ele>1519.6666666666667</ele><time>2026-04-27T09:06:18Z</time></trkpt><trkpt lat="32.42827814791595" lon="-4.474738820044996"><ele>1520.0</ele><time>2026-04-27T09:06:19Z</time></trkpt><trkpt lat="32.42843914770911" lon="-4.474622993690332"><ele>1520.0</ele><time>2026-04-27T09:06:20Z</time></trkpt><trkpt lat="32.42860495221997" lon="-4.474503815160819"><ele>1520.0</ele><time>2026-04-27T09:06:21Z</time></trkpt><trkpt lat="32.42877430992241" lon="-4.474382971565518"><ele>1520.0</ele><time>2026-04-27T09:06:22Z</time></trkpt><trkpt lat="32.428945310129485" lon="-4.474262444811364"><ele>1520.6666666666667</ele><time>2026-04-27T09:06:23Z</time></trkpt><trkpt lat="32.429115412836765" lon="-4.474143049866957"><ele>1521.3333333333333</ele><time>2026-04-27T09:06:24Z</time></trkpt><trkpt lat="32.42928239758577" lon="-4.474028236864519"><ele>1522.0</ele><time>2026-04-27T09:06:25Z</time></trkpt><trkpt lat="32.42944800329201" lon="-4.473922608134678"><ele>1522.0</ele><time>2026-04-27T09:06:26Z</time></trkpt><trkpt lat="32.42961338645394" lon="-4.473827808664225"><ele>1522.0</ele><time>2026-04-27T09:06:27Z</time></trkpt><trkpt lat="32.429777822672406" lon="-4.473745915035376"><ele>1522.0</ele><time>2026-04-27T09:06:28Z</time></trkpt><trkpt lat="32.429944273857544" lon="-4.473673791912394"><ele>1522.0</ele><time>2026-04-27T09:06:29Z</time></trkpt><trkpt lat="32.430112382135285" lon="-4.4736119383801505"><ele>1522.0</ele><time>2026-04-27T09:06:30Z</time></trkpt><trkpt lat="32.43028720078485" lon="-4.47356705188477"><ele>1522.0</ele><time>2026-04-27T09:06:31Z</time></trkpt><trkpt lat="32.430468852533714" lon="-4.473538233971491"><ele>1522.6666666666665</ele><time>2026-04-27T09:06:32Z</time></trkpt><trkpt lat="32.430663349039015" lon="-4.473524643071213"><ele>1523.3333333333333</ele><time>2026-04-27T09:06:33Z</time></trkpt><trkpt lat="32.43085147742553" lon="-4.473483408370367"><ele>1524.0</ele><time>2026-04-27T09:06:34Z</time></trkpt><trkpt lat="32.431059854994395" lon="-4.47345728222035"><ele>1524.0</ele><time>2026-04-27T09:06:35Z</time></trkpt><trkpt lat="32.431282595896164" lon="-4.473429271904481"><ele>1524.0</ele><time>2026-04-27T09:06:36Z</time></trkpt><trkpt lat="32.43150894143923" lon="-4.4734202373777405"><ele>1524.0</ele><time>2026-04-27T09:06:37Z</time></trkpt><trkpt lat="32.43172959094381" lon="-4.473447963765361"><ele>1524.0</ele><time>2026-04-27T09:06:38Z</time></trkpt><trkpt lat="32.431943048760566" lon="-4.473473207695067"><ele>1524.0</ele><time>2026-04-27T09:06:39Z</time></trkpt><trkpt lat="32.43215305812772" lon="-4.473539727196995"><ele>1523.6666666666667</ele><time>2026-04-27T09:06:40Z</time></trkpt><trkpt lat="32.43235686357679" lon="-4.47362893736798"><ele>1523.3333333333335</ele><time>2026-04-27T09:06:41Z</time></trkpt><trkpt lat="32.43255736511254" lon="-4.473715036058622"><ele>1523.0</ele><time>2026-04-27T09:06:42Z</time></trkpt><trkpt lat="32.43273762946509" lon="-4.473810799021254"><ele>1525.6666666666667</ele><time>2026-04-27T09:06:43Z</time></trkpt><trkpt lat="32.4329043155125" lon="-4.473900585602933"><ele>1528.3333333333333</ele><time>2026-04-27T09:06:44Z</time></trkpt><trkpt lat="32.433043922693194" lon="-4.474034046353475"><ele>1531.0</ele><time>2026-04-27T09:06:45Z</time></trkpt><trkpt lat="32.43318130843928" lon="-4.474158019042843"><ele>1531.0</ele><time>2026-04-27T09:06:46Z</time></trkpt><trkpt lat="32.433297895204205" lon="-4.474326680536385"><ele>1531.0</ele><time>2026-04-27T09:06:47Z</time></trkpt><trkpt lat="32.43341436188517" lon="-4.474519709146259"><ele>1531.0</ele><time>2026-04-27T09:06:48Z</time></trkpt><trkpt lat="32.43348432494259" lon="-4.474767008376197"><ele>1540.0</ele><time>2026-04-27T09:06:49Z</time></trkpt><trkpt lat="32.43357244559284" lon="-4.475014637615977"><ele>1549.0</ele><time>2026-04-27T09:06:50Z</time></trkpt><trkpt lat="32.43366287634036" lon="-4.475269137878933"><ele>1553.6666666666667</ele><time>2026-04-27T09:06:51Z</time></trkpt><trkpt lat="32.433754473739505" lon="-4.4755260280465645"><ele>1558.3333333333335</ele><time>2026-04-27T09:06:52Z</time></trkpt><trkpt lat="32.433832266642135" lon="-4.475760213076435"><ele>1563.0</ele><time>2026-04-27T09:06:53Z</time></trkpt><trkpt lat="32.433893498598856" lon="-4.475978784321458"><ele>1552.0</ele><time>2026-04-27T09:06:53.999Z</time></trkpt><trkpt lat="32.4339280415059" lon="-4.476188381694825"><ele>1541.0</ele><time>2026-04-27T09:06:54.999Z</time></trkpt><trkpt lat="32.43393079547029" lon="-4.476391706523686"><ele>1530.0</ele><time>2026-04-27T09:06:55.999Z</time></trkpt><trkpt lat="32.43390395275538" lon="-4.476605656346816"><ele>1530.0</ele><time>2026-04-27T09:06:56.999Z</time></trkpt><trkpt lat="32.43384653401039" lon="-4.476827521413343"><ele>1530.0</ele><time>2026-04-27T09:06:57.999Z</time></trkpt><trkpt lat="32.43376536380103" lon="-4.477053131124252"><ele>1530.0</ele><time>2026-04-27T09:06:58.999Z</time></trkpt><trkpt lat="32.43367315077992" lon="-4.477276716385713"><ele>1534.6666666666665</ele><time>2026-04-27T09:06:59.999Z</time></trkpt><trkpt lat="32.43358627283916" lon="-4.477495572896613"><ele>1539.3333333333333</ele><time>2026-04-27T09:07:00.999Z</time></trkpt><trkpt lat="32.4335262263914" lon="-4.477736905462023"><ele>1544.0</ele><time>2026-04-27T09:07:01.999Z</time></trkpt><trkpt lat="32.43346554431018" lon="-4.477983818587013"><ele>1544.0</ele><time>2026-04-27T09:07:02.999Z</time></trkpt><trkpt lat="32.43342813781825" lon="-4.47823700193559"><ele>1544.0</ele><time>2026-04-27T09:07:03.999Z</time></trkpt><trkpt lat="32.43341346389237" lon="-4.478504801957556"><ele>1544.0</ele><time>2026-04-27T09:07:04.999Z</time></trkpt><trkpt lat="32.43342884349792" lon="-4.4787749643442"><ele>1543.5</ele><time>2026-04-27T09:07:05.999Z</time></trkpt><trkpt lat="32.43345780872944" lon="-4.479049136957094"><ele>1543.0</ele><time>2026-04-27T09:07:06.999Z</time></trkpt><trkpt lat="32.43351692423234" lon="-4.479324540235694"><ele>1542.5</ele><time>2026-04-27T09:07:07.999Z</time></trkpt><trkpt lat="32.433588073885396" lon="-4.4796040730607425"><ele>1542.0</ele><time>2026-04-27T09:07:08.999Z</time></trkpt><trkpt lat="32.43370629965701" lon="-4.4798735942493915"><ele>1538.0</ele><time>2026-04-27T09:07:09.999Z</time></trkpt><trkpt lat="32.43384996505893" lon="-4.48013649594579"><ele>1534.0</ele><time>2026-04-27T09:07:10.999Z</time></trkpt><trkpt lat="32.43401362400592" lon="-4.480391516041895"><ele>1538.0</ele><time>2026-04-27T09:07:11.999Z</time></trkpt><trkpt lat="32.43419178563608" lon="-4.480640817183201"><ele>1542.0</ele><time>2026-04-27T09:07:12.999Z</time></trkpt><trkpt lat="32.43437090337999" lon="-4.4808730933158545"><ele>1542.0</ele><time>2026-04-27T09:07:13.999Z</time></trkpt><trkpt lat="32.43456144719082" lon="-4.48109177681277"><ele>1542.0</ele><time>2026-04-27T09:07:14.999Z</time></trkpt><trkpt lat="32.434791706358006" lon="-4.481267500889924"><ele>1541.5</ele><time>2026-04-27T09:07:15.999Z</time></trkpt><trkpt lat="32.43503439509008" lon="-4.481437768764745"><ele>1541.0</ele><time>2026-04-27T09:07:16.999Z</time></trkpt><trkpt lat="32.435293697508506" lon="-4.481586136204246"><ele>1538.0</ele><time>2026-04-27T09:07:17.999Z</time></trkpt><trkpt lat="32.43555473783836" lon="-4.481748458202507"><ele>1535.0</ele><time>2026-04-27T09:07:18.999Z</time></trkpt><trkpt lat="32.43582294882759" lon="-4.481904606649037"><ele>1535.0</ele><time>2026-04-27T09:07:19.999Z</time></trkpt><trkpt lat="32.436095176549216" lon="-4.4820644090854005"><ele>1535.0</ele><time>2026-04-27T09:07:20.999Z</time></trkpt><trkpt lat="32.436372669941385" lon="-4.482223124293728"><ele>1536.0</ele><time>2026-04-27T09:07:21.999Z</time></trkpt><trkpt lat="32.43664933601456" lon="-4.482382305679182"><ele>1537.0</ele><time>2026-04-27T09:07:22.999Z</time></trkpt><trkpt lat="32.436923759446735" lon="-4.482541870849033"><ele>1536.0</ele><time>2026-04-27T09:07:23.999Z</time></trkpt><trkpt lat="32.437199590127115" lon="-4.482701703566236"><ele>1535.0</ele><time>2026-04-27T09:07:24.999Z</time></trkpt><trkpt lat="32.43747601814289" lon="-4.482861520932202"><ele>1535.5</ele><time>2026-04-27T09:07:25.999Z</time></trkpt><trkpt lat="32.43774940792649" lon="-4.483018553903272"><ele>1536.0</ele><time>2026-04-27T09:07:26.999Z</time></trkpt><trkpt lat="32.4380187865625" lon="-4.483172329136409"><ele>1536.0</ele><time>2026-04-27T09:07:27.999Z</time></trkpt><trkpt lat="32.43828318252471" lon="-4.483323116928433"><ele>1536.0</ele><time>2026-04-27T09:07:28.999Z</time></trkpt><trkpt lat="32.43854435021659" lon="-4.483470631201578"><ele>1536.0</ele><time>2026-04-27T09:07:29.999Z</time></trkpt><trkpt lat="32.43880053492735" lon="-4.483616314966736"><ele>1536.0</ele><time>2026-04-27T09:07:30.999Z</time></trkpt><trkpt lat="32.43905421737271" lon="-4.483762475286621"><ele>1537.5</ele><time>2026-04-27T09:07:31.999Z</time></trkpt><trkpt lat="32.439306161402264" lon="-4.483908811136237"><ele>1539.0</ele><time>2026-04-27T09:07:32.999Z</time></trkpt><trkpt lat="32.439563060816994" lon="-4.484057450642269"><ele>1538.5</ele><time>2026-04-27T09:07:33.999Z</time></trkpt><trkpt lat="32.43982170166675" lon="-4.4842087368011985"><ele>1538.0</ele><time>2026-04-27T09:07:34.999Z</time></trkpt><trkpt lat="32.440067132502804" lon="-4.48436204223966"><ele>1538.0</ele><time>2026-04-27T09:07:35.999Z</time></trkpt><trkpt lat="32.4402900411916" lon="-4.484526725766392"><ele>1538.0</ele><time>2026-04-27T09:07:36.999Z</time></trkpt><trkpt lat="32.44049701457577" lon="-4.48472389955243"><ele>1538.0</ele><time>2026-04-27T09:07:37.999Z</time></trkpt><trkpt lat="32.44069670894898" lon="-4.484946633650734"><ele>1538.0</ele><time>2026-04-27T09:07:38.999Z</time></trkpt><trkpt lat="32.440891680242345" lon="-4.485193809524785"><ele>1539.5</ele><time>2026-04-27T09:07:39.999Z</time></trkpt><trkpt lat="32.44108284388591" lon="-4.485461778338566"><ele>1541.0</ele><time>2026-04-27T09:07:40.999Z</time></trkpt><trkpt lat="32.44127565116244" lon="-4.485734151784602"><ele>1541.5</ele><time>2026-04-27T09:07:41.999Z</time></trkpt><trkpt lat="32.44146016682549" lon="-4.485990744222208"><ele>1542.0</ele><time>2026-04-27T09:07:42.999Z</time></trkpt><trkpt lat="32.441640173315356" lon="-4.486230861306105"><ele>1542.5</ele><time>2026-04-27T09:07:43.999Z</time></trkpt><trkpt lat="32.44182384020772" lon="-4.486449136986268"><ele>1543.0</ele><time>2026-04-27T09:07:44.999Z</time></trkpt><trkpt lat="32.442022211671386" lon="-4.486646096648035"><ele>1543.5</ele><time>2026-04-27T09:07:45.999Z</time></trkpt><trkpt lat="32.442238713431145" lon="-4.486818625206334"><ele>1544.0</ele><time>2026-04-27T09:07:46.999Z</time></trkpt><trkpt lat="32.4424660553911" lon="-4.486973954434658"><ele>1545.0</ele><time>2026-04-27T09:07:47.999Z</time></trkpt><trkpt lat="32.44271535525495" lon="-4.487097230989126"><ele>1546.0</ele><time>2026-04-27T09:07:48.999Z</time></trkpt><trkpt lat="32.44298267924946" lon="-4.487195476747555"><ele>1547.0</ele><time>2026-04-27T09:07:49.999Z</time></trkpt><trkpt lat="32.44325972372281" lon="-4.487265308219566"><ele>1548.0</ele><time>2026-04-27T09:07:50.999Z</time></trkpt><trkpt lat="32.44353604269163" lon="-4.487296123045779"><ele>1548.0</ele><time>2026-04-27T09:07:51.999Z</time></trkpt><trkpt lat="32.44379586440924" lon="-4.487292719817627"><ele>1548.0</ele><time>2026-04-27T09:07:52.999Z</time></trkpt><trkpt lat="32.44404189514294" lon="-4.487262161069223"><ele>1548.0</ele><time>2026-04-27T09:07:53.999Z</time></trkpt><trkpt lat="32.444282946601355" lon="-4.487208856181754"><ele>1548.0</ele><time>2026-04-27T09:07:54.999Z</time></trkpt><trkpt lat="32.444523607060496" lon="-4.487140671110379"><ele>1548.0</ele><time>2026-04-27T09:07:55.999Z</time></trkpt><trkpt lat="32.44476481068843" lon="-4.487064400214329"><ele>1548.0</ele><time>2026-04-27T09:07:56.999Z</time></trkpt><trkpt lat="32.4450031044652" lon="-4.486988588710619"><ele>1548.0</ele><time>2026-04-27T09:07:57.999Z</time></trkpt><trkpt lat="32.44523615820514" lon="-4.486912773496146"><ele>1548.0</ele><time>2026-04-27T09:07:58.999Z</time></trkpt><trkpt lat="32.44546369967793" lon="-4.486835093002815"><ele>1549.0</ele><time>2026-04-27T09:07:59.999Z</time></trkpt><trkpt lat="32.44568694269015" lon="-4.4867596695025425"><ele>1550.0</ele><time>2026-04-27T09:08:00.999Z</time></trkpt><trkpt lat="32.445905458551636" lon="-4.486691670759101"><ele>1550.0</ele><time>2026-04-27T09:08:01.999Z</time></trkpt><trkpt lat="32.446123046790674" lon="-4.486640513015496"><ele>1550.0</ele><time>2026-04-27T09:08:02.999Z</time></trkpt><trkpt lat="32.44634065516043" lon="-4.4866106871012255"><ele>1550.0</ele><time>2026-04-27T09:08:03.999Z</time></trkpt><trkpt lat="32.446555290836336" lon="-4.4866001350621385"><ele>1550.3333333333333</ele><time>2026-04-27T09:08:04.999Z</time></trkpt><trkpt lat="32.44675777691448" lon="-4.486611733713133"><ele>1550.6666666666665</ele><time>2026-04-27T09:08:05.999Z</time></trkpt><trkpt lat="32.446959109144665" lon="-4.486638853211881"><ele>1551.0</ele><time>2026-04-27T09:08:06.999Z</time></trkpt><trkpt lat="32.4471591811436" lon="-4.486682041796474"><ele>1551.6666666666665</ele><time>2026-04-27T09:08:07.999Z</time></trkpt><trkpt lat="32.44735101217163" lon="-4.486740487250231"><ele>1552.3333333333333</ele><time>2026-04-27T09:08:08.999Z</time></trkpt><trkpt lat="32.447533554438046" lon="-4.48680685404011"><ele>1553.0</ele><time>2026-04-27T09:08:09.999Z</time></trkpt><trkpt lat="32.44770524114369" lon="-4.486881116760499"><ele>1553.0</ele><time>2026-04-27T09:08:10.999Z</time></trkpt><trkpt lat="32.44787395283665" lon="-4.486961513174563"><ele>1553.0</ele><time>2026-04-27T09:08:11.999Z</time></trkpt><trkpt lat="32.44804538473165" lon="-4.487046251121324"><ele>1553.0</ele><time>2026-04-27T09:08:12.999Z</time></trkpt><trkpt lat="32.44821285380787" lon="-4.487139029504594"><ele>1557.0</ele><time>2026-04-27T09:08:13.999Z</time></trkpt><trkpt lat="32.44836830252034" lon="-4.487243525841417"><ele>1561.0</ele><time>2026-04-27T09:08:14.998Z</time></trkpt><trkpt lat="32.44851549116512" lon="-4.487368570827345"><ele>1565.0</ele><time>2026-04-27T09:08:15.998Z</time></trkpt><trkpt lat="32.44866622890486" lon="-4.487512773806756"><ele>1565.3333333333333</ele><time>2026-04-27T09:08:17Z</time></trkpt><trkpt lat="32.4488260085421" lon="-4.487669108610236"><ele>1565.6666666666665</ele><time>2026-04-27T09:08:18Z</time></trkpt><trkpt lat="32.44898988632334" lon="-4.487836103619081"><ele>1566.0</ele><time>2026-04-27T09:08:19Z</time></trkpt><trkpt lat="32.44916078293027" lon="-4.488015431862915"><ele>1566.0</ele><time>2026-04-27T09:08:20Z</time></trkpt><trkpt lat="32.449345660977556" lon="-4.488201187613128"><ele>1566.0</ele><time>2026-04-27T09:08:21Z</time></trkpt><trkpt lat="32.44955028942851" lon="-4.488398209862379"><ele>1563.5</ele><time>2026-04-27T09:08:22Z</time></trkpt><trkpt lat="32.449766227394036" lon="-4.488598595444153"><ele>1561.0</ele><time>2026-04-27T09:08:23Z</time></trkpt><trkpt lat="32.449977953330965" lon="-4.488789815301336"><ele>1567.5</ele><time>2026-04-27T09:08:24Z</time></trkpt><trkpt lat="32.45017954200475" lon="-4.4889764376959524"><ele>1574.0</ele><time>2026-04-27T09:08:25Z</time></trkpt><trkpt lat="32.45035962590945" lon="-4.489161471602431"><ele>1575.3333333333333</ele><time>2026-04-27T09:08:26Z</time></trkpt><trkpt lat="32.45051454781007" lon="-4.489344283707411"><ele>1576.6666666666665</ele><time>2026-04-27T09:08:27Z</time></trkpt><trkpt lat="32.450650905587196" lon="-4.489535577728649"><ele>1578.0</ele><time>2026-04-27T09:08:28Z</time></trkpt><trkpt lat="32.45076511354824" lon="-4.489749416854651"><ele>1578.0</ele><time>2026-04-27T09:08:29Z</time></trkpt><trkpt lat="32.450868760380196" lon="-4.4899838941342285"><ele>1578.0</ele><time>2026-04-27T09:08:30Z</time></trkpt><trkpt lat="32.450960304468175" lon="-4.490216851427266"><ele>1578.0</ele><time>2026-04-27T09:08:31Z</time></trkpt><trkpt lat="32.451037174931635" lon="-4.490435884911414"><ele>1584.0</ele><time>2026-04-27T09:08:32Z</time></trkpt><trkpt lat="32.45111638469813" lon="-4.4906457640408"><ele>1590.0</ele><time>2026-04-27T09:08:33Z</time></trkpt><trkpt lat="32.451190515014325" lon="-4.490856854787585"><ele>1596.0</ele><time>2026-04-27T09:08:34Z</time></trkpt><trkpt lat="32.45124750536808" lon="-4.491073380762307"><ele>1601.0</ele><time>2026-04-27T09:08:35Z</time></trkpt><trkpt lat="32.45128129459185" lon="-4.49128753405692"><ele>1606.0</ele><time>2026-04-27T09:08:36Z</time></trkpt><trkpt lat="32.451287533221176" lon="-4.491511539133032"><ele>1611.0</ele><time>2026-04-27T09:08:37Z</time></trkpt><trkpt lat="32.451290222532364" lon="-4.491746500916188"><ele>1602.3333333333335</ele><time>2026-04-27T09:08:38Z</time></trkpt><trkpt lat="32.451307551152276" lon="-4.491987544544466"><ele>1593.6666666666667</ele><time>2026-04-27T09:08:39Z</time></trkpt><trkpt lat="32.45134665433122" lon="-4.492223352690538"><ele>1585.0</ele><time>2026-04-27T09:08:40Z</time></trkpt><trkpt lat="32.45141504296063" lon="-4.492444006932993"><ele>1585.0</ele><time>2026-04-27T09:08:41Z</time></trkpt><trkpt lat="32.45151581712349" lon="-4.492637724120039"><ele>1585.0</ele><time>2026-04-27T09:08:42Z</time></trkpt><trkpt lat="32.45165459910205" lon="-4.492810441301532"><ele>1585.0</ele><time>2026-04-27T09:08:43Z</time></trkpt><trkpt lat="32.45180738362914" lon="-4.4929804373985744"><ele>1585.0</ele><time>2026-04-27T09:08:44Z</time></trkpt><trkpt lat="32.4519671199717" lon="-4.493165833126988"><ele>1585.0</ele><time>2026-04-27T09:08:45Z</time></trkpt><trkpt lat="32.4521315476042" lon="-4.4933457389135"><ele>1585.0</ele><time>2026-04-27T09:08:46Z</time></trkpt><trkpt lat="32.45228819437301" lon="-4.493490830285676"><ele>1585.0</ele><time>2026-04-27T09:08:47Z</time></trkpt><trkpt lat="32.452431087835095" lon="-4.493595271947481"><ele>1585.0</ele><time>2026-04-27T09:08:48Z</time></trkpt><trkpt lat="32.452557898914705" lon="-4.4936874269634535"><ele>1585.0</ele><time>2026-04-27T09:08:49Z</time></trkpt><trkpt lat="32.452656045446425" lon="-4.493784765446509"><ele>1585.0</ele><time>2026-04-27T09:08:50Z</time></trkpt><trkpt lat="32.452720097847106" lon="-4.493890129545442"><ele>1590.0</ele><time>2026-04-27T09:08:51Z</time></trkpt><trkpt lat="32.45275792458309" lon="-4.494006773811221"><ele>1595.0</ele><time>2026-04-27T09:08:52Z</time></trkpt><trkpt lat="32.45276564660715" lon="-4.494140423653283"><ele>1600.0</ele><time>2026-04-27T09:08:53Z</time></trkpt><trkpt lat="32.4527484987258" lon="-4.494293128426911"><ele>1605.0</ele><time>2026-04-27T09:08:54Z</time></trkpt><trkpt lat="32.452735411352066" lon="-4.494458089004074"><ele>1609.6666666666665</ele><time>2026-04-27T09:08:55Z</time></trkpt><trkpt lat="32.45276200618387" lon="-4.494635799307406"><ele>1614.3333333333333</ele><time>2026-04-27T09:08:56Z</time></trkpt><trkpt lat="32.45282818286877" lon="-4.494816169705476"><ele>1619.0</ele><time>2026-04-27T09:08:57Z</time></trkpt><trkpt lat="32.45291964167313" lon="-4.494987036409043"><ele>1606.75</ele><time>2026-04-27T09:08:58Z</time></trkpt><trkpt lat="32.45300423586295" lon="-4.495140524000541"><ele>1594.5</ele><time>2026-04-27T09:08:59Z</time></trkpt><trkpt lat="32.453056562324065" lon="-4.495288933311007"><ele>1582.25</ele><time>2026-04-27T09:08:59.999Z</time></trkpt><trkpt lat="32.45307740145088" lon="-4.495451666382287"><ele>1570.0</ele><time>2026-04-27T09:09:00.999Z</time></trkpt><trkpt lat="32.45306270039383" lon="-4.495641925650573"><ele>1570.0</ele><time>2026-04-27T09:09:01.999Z</time></trkpt><trkpt lat="32.45303145146475" lon="-4.4958350360090495"><ele>1570.0</ele><time>2026-04-27T09:09:02.999Z</time></trkpt><trkpt lat="32.45298070816306" lon="-4.496026437548758"><ele>1570.0</ele><time>2026-04-27T09:09:03.999Z</time></trkpt><trkpt lat="32.452904701257836" lon="-4.496203826118452"><ele>1576.3333333333335</ele><time>2026-04-27T09:09:04.999Z</time></trkpt><trkpt lat="32.452798931263665" lon="-4.49636299983569"><ele>1582.6666666666665</ele><time>2026-04-27T09:09:05.999Z</time></trkpt><trkpt lat="32.452680314402414" lon="-4.496516694740572"><ele>1589.0</ele><time>2026-04-27T09:09:06.999Z</time></trkpt><trkpt lat="32.45257047618534" lon="-4.496694929388973"><ele>1589.0</ele><time>2026-04-27T09:09:07.999Z</time></trkpt><trkpt lat="32.45248222916416" lon="-4.496897690039986"><ele>1589.0</ele><time>2026-04-27T09:09:08.999Z</time></trkpt><trkpt lat="32.452407630118" lon="-4.497094247851257"><ele>1589.0</ele><time>2026-04-27T09:09:09.999Z</time></trkpt><trkpt lat="32.452350434448654" lon="-4.497283257752437"><ele>1586.0</ele><time>2026-04-27T09:09:10.999Z</time></trkpt><trkpt lat="32.45230531430203" lon="-4.497468448804482"><ele>1583.0</ele><time>2026-04-27T09:09:11.999Z</time></trkpt><trkpt lat="32.452283002597795" lon="-4.497652583080905"><ele>1580.0</ele><time>2026-04-27T09:09:12.999Z</time></trkpt><trkpt lat="32.45228909736288" lon="-4.497843273285462"><ele>1581.0</ele><time>2026-04-27T09:09:13.999Z</time></trkpt><trkpt lat="32.45233239316794" lon="-4.4980361646477744"><ele>1582.0</ele><time>2026-04-27T09:09:14.999Z</time></trkpt><trkpt lat="32.45240817341936" lon="-4.498219926092379"><ele>1583.0</ele><time>2026-04-27T09:09:15.999Z</time></trkpt><trkpt lat="32.45252073672812" lon="-4.498392569654622"><ele>1583.0</ele><time>2026-04-27T09:09:16.999Z</time></trkpt><trkpt lat="32.45266475901274" lon="-4.498549330135956"><ele>1583.0</ele><time>2026-04-27T09:09:17.999Z</time></trkpt><trkpt lat="32.452828357597696" lon="-4.498693400699442"><ele>1583.0</ele><time>2026-04-27T09:09:18.999Z</time></trkpt><trkpt lat="32.45300127890755" lon="-4.498832532210666"><ele>1581.6666666666665</ele><time>2026-04-27T09:09:19.999Z</time></trkpt><trkpt lat="32.45316303516593" lon="-4.4989521780095005"><ele>1580.3333333333335</ele><time>2026-04-27T09:09:20.999Z</time></trkpt><trkpt lat="32.45333019797364" lon="-4.499056192715515"><ele>1579.0</ele><time>2026-04-27T09:09:21.999Z</time></trkpt><trkpt lat="32.45351298746568" lon="-4.499139396359184"><ele>1579.0</ele><time>2026-04-27T09:09:22.999Z</time></trkpt><trkpt lat="32.4537092299667" lon="-4.49918940702532"><ele>1579.0</ele><time>2026-04-27T09:09:23.999Z</time></trkpt><trkpt lat="32.453915719055296" lon="-4.499207550642528"><ele>1579.0</ele><time>2026-04-27T09:09:24.999Z</time></trkpt><trkpt lat="32.45412757811538" lon="-4.499177818181626"><ele>1578.0</ele><time>2026-04-27T09:09:25.999Z</time></trkpt><trkpt lat="32.454340739215944" lon="-4.499103417248069"><ele>1577.0</ele><time>2026-04-27T09:09:26.999Z</time></trkpt><trkpt lat="32.45456304181997" lon="-4.499019214369011"><ele>1577.0</ele><time>2026-04-27T09:09:27.999Z</time></trkpt><trkpt lat="32.45479634803196" lon="-4.498935715115417"><ele>1577.0</ele><time>2026-04-27T09:09:28.999Z</time></trkpt><trkpt lat="32.45503834119054" lon="-4.498844029382774"><ele>1577.0</ele><time>2026-04-27T09:09:29.999Z</time></trkpt><trkpt lat="32.455283448459895" lon="-4.498751685542113"><ele>1577.0</ele><time>2026-04-27T09:09:30.999Z</time></trkpt><trkpt lat="32.45552302665667" lon="-4.498661670924051"><ele>1574.5</ele><time>2026-04-27T09:09:31.999Z</time></trkpt><trkpt lat="32.45574759536875" lon="-4.49858155275522"><ele>1572.0</ele><time>2026-04-27T09:09:32.999Z</time></trkpt><trkpt lat="32.455960509879766" lon="-4.4985062106476335"><ele>1572.0</ele><time>2026-04-27T09:09:33.999Z</time></trkpt><trkpt lat="32.456160128046726" lon="-4.49844408410585"><ele>1572.0</ele><time>2026-04-27T09:09:34.999Z</time></trkpt><trkpt lat="32.4563650768733" lon="-4.498399115550065"><ele>1572.0</ele><time>2026-04-27T09:09:35.999Z</time></trkpt><trkpt lat="32.45657972821427" lon="-4.498383645063394"><ele>1572.0</ele><time>2026-04-27T09:09:36.999Z</time></trkpt><trkpt lat="32.456801715329476" lon="-4.49840389046465"><ele>1572.0</ele><time>2026-04-27T09:09:37.999Z</time></trkpt><trkpt lat="32.45702276381387" lon="-4.498461912808922"><ele>1572.0</ele><time>2026-04-27T09:09:38.999Z</time></trkpt><trkpt lat="32.45723947254158" lon="-4.498547472414486"><ele>1572.0</ele><time>2026-04-27T09:09:39.999Z</time></trkpt><trkpt lat="32.457445865020844" lon="-4.498664523946342"><ele>1572.0</ele><time>2026-04-27T09:09:40.999Z</time></trkpt><trkpt lat="32.45763077709655" lon="-4.498816376827408"><ele>1571.0</ele><time>2026-04-27T09:09:41.999Z</time></trkpt><trkpt lat="32.45781539411481" lon="-4.498999861602379"><ele>1570.0</ele><time>2026-04-27T09:09:42.999Z</time></trkpt><trkpt lat="32.458002953699435" lon="-4.499202846972849"><ele>1570.0</ele><time>2026-04-27T09:09:43.999Z</time></trkpt><trkpt lat="32.45819151355494" lon="-4.4994127929098315"><ele>1570.0</ele><time>2026-04-27T09:09:44.999Z</time></trkpt><trkpt lat="32.45839574115958" lon="-4.499609759250713"><ele>1571.0</ele><time>2026-04-27T09:09:45.999Z</time></trkpt><trkpt lat="32.45858782033217" lon="-4.499812534526874"><ele>1572.0</ele><time>2026-04-27T09:09:46.999Z</time></trkpt><trkpt lat="32.45877597830232" lon="-4.500010820597101"><ele>1573.0</ele><time>2026-04-27T09:09:47.999Z</time></trkpt><trkpt lat="32.45895858300565" lon="-4.500203008404199"><ele>1574.0</ele><time>2026-04-27T09:09:48.999Z</time></trkpt><trkpt lat="32.45913843556382" lon="-4.500399752664465"><ele>1574.0</ele><time>2026-04-27T09:09:49.999Z</time></trkpt><trkpt lat="32.459336305132176" lon="-4.500555939929481"><ele>1574.0</ele><time>2026-04-27T09:09:50.999Z</time></trkpt><trkpt lat="32.459546114584036" lon="-4.500675751428544"><ele>1575.5</ele><time>2026-04-27T09:09:51.999Z</time></trkpt><trkpt lat="32.459760374244425" lon="-4.500758792034189"><ele>1577.0</ele><time>2026-04-27T09:09:52.999Z</time></trkpt><trkpt lat="32.4599823726464" lon="-4.500798808508528"><ele>1577.0</ele><time>2026-04-27T09:09:53.999Z</time></trkpt><trkpt lat="32.46020783472365" lon="-4.500803918594058"><ele>1577.0</ele><time>2026-04-27T09:09:54.999Z</time></trkpt><trkpt lat="32.46043535765252" lon="-4.500776801369931"><ele>1577.0</ele><time>2026-04-27T09:09:55.999Z</time></trkpt><trkpt lat="32.4606569220285" lon="-4.500730710590556"><ele>1577.0</ele><time>2026-04-27T09:09:56.999Z</time></trkpt><trkpt lat="32.46086330357293" lon="-4.500652327828782"><ele>1577.0</ele><time>2026-04-27T09:09:57.999Z</time></trkpt><trkpt lat="32.46106894673194" lon="-4.500540155060704"><ele>1577.0</ele><time>2026-04-27T09:09:58.999Z</time></trkpt><trkpt lat="32.461261747910086" lon="-4.500374080902561"><ele>1577.0</ele><time>2026-04-27T09:09:59.999Z</time></trkpt><trkpt lat="32.461463375219445" lon="-4.500201667442572"><ele>1577.0</ele><time>2026-04-27T09:10:00.999Z</time></trkpt><trkpt lat="32.461681841985666" lon="-4.500037844574794"><ele>1577.0</ele><time>2026-04-27T09:10:01.999Z</time></trkpt><trkpt lat="32.46189109799183" lon="-4.499851452254334"><ele>1577.0</ele><time>2026-04-27T09:10:02.999Z</time></trkpt><trkpt lat="32.462101976828315" lon="-4.499667243859051"><ele>1577.0</ele><time>2026-04-27T09:10:03.999Z</time></trkpt><trkpt lat="32.462307546510864" lon="-4.499487541802061"><ele>1579.0</ele><time>2026-04-27T09:10:04.999Z</time></trkpt><trkpt lat="32.46250496710286" lon="-4.499314838858479"><ele>1581.0</ele><time>2026-04-27T09:10:05.999Z</time></trkpt><trkpt lat="32.46269435957132" lon="-4.499151192759247"><ele>1581.0</ele><time>2026-04-27T09:10:06.999Z</time></trkpt><trkpt lat="32.46288590251037" lon="-4.498992145236646"><ele>1581.0</ele><time>2026-04-27T09:10:07.999Z</time></trkpt><trkpt lat="32.46308278867007" lon="-4.49884212787938"><ele>1581.3333333333335</ele><time>2026-04-27T09:10:08.999Z</time></trkpt><trkpt lat="32.46328073019709" lon="-4.498714025870968"><ele>1581.6666666666667</ele><time>2026-04-27T09:10:09.999Z</time></trkpt><trkpt lat="32.46348000188255" lon="-4.498603316513568"><ele>1582.0</ele><time>2026-04-27T09:10:10.999Z</time></trkpt><trkpt lat="32.46369143446592" lon="-4.498505789542261"><ele>1582.5</ele><time>2026-04-27T09:10:11.999Z</time></trkpt><trkpt lat="32.46391046150081" lon="-4.498427796974859"><ele>1583.0</ele><time>2026-04-27T09:10:12.999Z</time></trkpt><trkpt lat="32.46414054211509" lon="-4.498374743579131"><ele>1583.0</ele><time>2026-04-27T09:10:13.999Z</time></trkpt><trkpt lat="32.464374691697984" lon="-4.4983257153176295"><ele>1583.0</ele><time>2026-04-27T09:10:14.999Z</time></trkpt><trkpt lat="32.464611985686204" lon="-4.498276329714563"><ele>1582.0</ele><time>2026-04-27T09:10:15.999Z</time></trkpt><trkpt lat="32.464849058446106" lon="-4.498221666626526"><ele>1581.0</ele><time>2026-04-27T09:10:16.999Z</time></trkpt><trkpt lat="32.46508508877427" lon="-4.498165819572624"><ele>1581.0</ele><time>2026-04-27T09:10:17.998Z</time></trkpt><trkpt lat="32.465323327860155" lon="-4.4981096781087"><ele>1581.0</ele><time>2026-04-27T09:10:18.998Z</time></trkpt><trkpt lat="32.465563265140176" lon="-4.498053739823466"><ele>1581.5</ele><time>2026-04-27T09:10:19.998Z</time></trkpt><trkpt lat="32.465807692058036" lon="-4.497995096887453"><ele>1582.0</ele><time>2026-04-27T09:10:20.998Z</time></trkpt><trkpt lat="32.466058199782815" lon="-4.497934977152971"><ele>1583.0</ele><time>2026-04-27T09:10:21.998Z</time></trkpt><trkpt lat="32.46631216902031" lon="-4.49787799095576"><ele>1584.0</ele><time>2026-04-27T09:10:23Z</time></trkpt><trkpt lat="32.466570469273144" lon="-4.497822838489007"><ele>1584.0</ele><time>2026-04-27T09:10:24Z</time></trkpt><trkpt lat="32.46683148428598" lon="-4.497765007454406"><ele>1584.0</ele><time>2026-04-27T09:10:25Z</time></trkpt><trkpt lat="32.46709191249527" lon="-4.497701375439087"><ele>1584.0</ele><time>2026-04-27T09:10:26Z</time></trkpt><trkpt lat="32.46735252435101" lon="-4.497638921176449"><ele>1584.0</ele><time>2026-04-27T09:10:27Z</time></trkpt><trkpt lat="32.46761480624665" lon="-4.49757939786958"><ele>1584.0</ele><time>2026-04-27T09:10:28Z</time></trkpt><trkpt lat="32.46787581302245" lon="-4.497519838003358"><ele>1584.0</ele><time>2026-04-27T09:10:29Z</time></trkpt><trkpt lat="32.46813487259265" lon="-4.497460145757132"><ele>1586.0</ele><time>2026-04-27T09:10:30Z</time></trkpt><trkpt lat="32.46839418228703" lon="-4.497395197012539"><ele>1588.0</ele><time>2026-04-27T09:10:31Z</time></trkpt><trkpt lat="32.46865599671248" lon="-4.497314535498574"><ele>1588.5</ele><time>2026-04-27T09:10:32Z</time></trkpt><trkpt lat="32.46891152004906" lon="-4.497207620470366"><ele>1589.0</ele><time>2026-04-27T09:10:33Z</time></trkpt><trkpt lat="32.46915531130911" lon="-4.497074610592207"><ele>1589.0</ele><time>2026-04-27T09:10:34Z</time></trkpt><trkpt lat="32.46939677024366" lon="-4.496915256855129"><ele>1589.0</ele><time>2026-04-27T09:10:35Z</time></trkpt><trkpt lat="32.46963747076749" lon="-4.496744877594992"><ele>1589.0</ele><time>2026-04-27T09:10:36Z</time></trkpt><trkpt lat="32.4698795400311" lon="-4.496561977038606"><ele>1589.0</ele><time>2026-04-27T09:10:37Z</time></trkpt><trkpt lat="32.47012106237579" lon="-4.496377723941771"><ele>1588.5</ele><time>2026-04-27T09:10:38Z</time></trkpt><trkpt lat="32.47036637935321" lon="-4.496187116360725"><ele>1588.0</ele><time>2026-04-27T09:10:39Z</time></trkpt><trkpt lat="32.470619847878595" lon="-4.495992600116011"><ele>1588.0</ele><time>2026-04-27T09:10:40Z</time></trkpt><trkpt lat="32.4708805751156" lon="-4.495797699961772"><ele>1588.0</ele><time>2026-04-27T09:10:41Z</time></trkpt><trkpt lat="32.47114611089747" lon="-4.49560053052133"><ele>1589.0</ele><time>2026-04-27T09:10:42Z</time></trkpt><trkpt lat="32.47141204288632" lon="-4.495400610241332"><ele>1590.0</ele><time>2026-04-27T09:10:43Z</time></trkpt><trkpt lat="32.47167898602939" lon="-4.49520179475933"><ele>1590.0</ele><time>2026-04-27T09:10:44Z</time></trkpt><trkpt lat="32.47194533581147" lon="-4.495002803471907"><ele>1590.0</ele><time>2026-04-27T09:10:45Z</time></trkpt><trkpt lat="32.4722113295543" lon="-4.494802256150813"><ele>1591.0</ele><time>2026-04-27T09:10:46Z</time></trkpt><trkpt lat="32.47247976421546" lon="-4.494596680758779"><ele>1592.0</ele><time>2026-04-27T09:10:47Z</time></trkpt><trkpt lat="32.47275396422846" lon="-4.494384817821875"><ele>1593.5</ele><time>2026-04-27T09:10:48Z</time></trkpt><trkpt lat="32.473034714176315" lon="-4.4941699576727085"><ele>1595.0</ele><time>2026-04-27T09:10:49Z</time></trkpt><trkpt lat="32.47331900327105" lon="-4.493955504301576"><ele>1595.0</ele><time>2026-04-27T09:10:50Z</time></trkpt><trkpt lat="32.47360346519965" lon="-4.493737617355741"><ele>1595.0</ele><time>2026-04-27T09:10:51Z</time></trkpt><trkpt lat="32.47387890260133" lon="-4.493527624177521"><ele>1596.0</ele><time>2026-04-27T09:10:52Z</time></trkpt><trkpt lat="32.47412262078053" lon="-4.493338131569287"><ele>1597.0</ele><time>2026-04-27T09:10:53Z</time></trkpt><trkpt lat="32.47434595249908" lon="-4.493161701874183"><ele>1597.0</ele><time>2026-04-27T09:10:54Z</time></trkpt><trkpt lat="32.474569768257325" lon="-4.492987553727717"><ele>1597.0</ele><time>2026-04-27T09:10:55Z</time></trkpt><trkpt lat="32.47479809774268" lon="-4.492818827881833"><ele>1596.0</ele><time>2026-04-27T09:10:56Z</time></trkpt><trkpt lat="32.47503694045158" lon="-4.492661743609317"><ele>1595.0</ele><time>2026-04-27T09:10:57Z</time></trkpt><trkpt lat="32.47528840319376" lon="-4.492520994272514"><ele>1595.5</ele><time>2026-04-27T09:10:58Z</time></trkpt><trkpt lat="32.475558907680586" lon="-4.492408713559606"><ele>1596.0</ele><time>2026-04-27T09:10:59Z</time></trkpt><trkpt lat="32.475844258059766" lon="-4.492306270973764"><ele>1596.0</ele><time>2026-04-27T09:11:00Z</time></trkpt><trkpt lat="32.47613602455151" lon="-4.492196310197266"><ele>1596.0</ele><time>2026-04-27T09:11:01Z</time></trkpt><trkpt lat="32.476428826550745" lon="-4.492083281659194"><ele>1596.5</ele><time>2026-04-27T09:11:02Z</time></trkpt><trkpt lat="32.476718992755984" lon="-4.491973535763904"><ele>1597.0</ele><time>2026-04-27T09:11:03Z</time></trkpt><trkpt lat="32.47700284691733" lon="-4.4918671867308"><ele>1597.5</ele><time>2026-04-27T09:11:04Z</time></trkpt><trkpt lat="32.477281411557215" lon="-4.49176288124133"><ele>1598.0</ele><time>2026-04-27T09:11:04.999Z</time></trkpt><trkpt lat="32.47755699084349" lon="-4.49165819883115"><ele>1598.0</ele><time>2026-04-27T09:11:05.999Z</time></trkpt><trkpt lat="32.47783354282033" lon="-4.491552212257213"><ele>1598.0</ele><time>2026-04-27T09:11:06.999Z</time></trkpt><trkpt lat="32.478110013204066" lon="-4.491448731105931"><ele>1598.0</ele><time>2026-04-27T09:11:07.999Z</time></trkpt><trkpt lat="32.47838663513294" lon="-4.49134874379503"><ele>1598.0</ele><time>2026-04-27T09:11:08.999Z</time></trkpt><trkpt lat="32.478662163358564" lon="-4.491261519970312"><ele>1598.0</ele><time>2026-04-27T09:11:09.999Z</time></trkpt><trkpt lat="32.47894386218641" lon="-4.491189157808908"><ele>1598.0</ele><time>2026-04-27T09:11:10.999Z</time></trkpt><trkpt lat="32.47923226173996" lon="-4.491129915838168"><ele>1598.0</ele><time>2026-04-27T09:11:11.999Z</time></trkpt><trkpt lat="32.479520305376035" lon="-4.491077447629609"><ele>1598.0</ele><time>2026-04-27T09:11:12.999Z</time></trkpt><trkpt lat="32.47980595059121" lon="-4.491024281279517"><ele>1599.0</ele><time>2026-04-27T09:11:13.999Z</time></trkpt><trkpt lat="32.480089058822315" lon="-4.490969755243643"><ele>1600.0</ele><time>2026-04-27T09:11:14.999Z</time></trkpt><trkpt lat="32.48036706242071" lon="-4.490916742481211"><ele>1600.5</ele><time>2026-04-27T09:11:15.999Z</time></trkpt><trkpt lat="32.48064201763415" lon="-4.490859749024587"><ele>1601.0</ele><time>2026-04-27T09:11:16.999Z</time></trkpt><trkpt lat="32.48091698715027" lon="-4.49079554490328"><ele>1601.0</ele><time>2026-04-27T09:11:17.999Z</time></trkpt><trkpt lat="32.481187084576725" lon="-4.490721810108116"><ele>1601.0</ele><time>2026-04-27T09:11:18.999Z</time></trkpt><trkpt lat="32.481451718932384" lon="-4.490638656588116"><ele>1601.0</ele><time>2026-04-27T09:11:19.999Z</time></trkpt><trkpt lat="32.48171611764224" lon="-4.490545473928987"><ele>1601.0</ele><time>2026-04-27T09:11:20.999Z</time></trkpt><trkpt lat="32.481990415241334" lon="-4.4904492636609135"><ele>1602.0</ele><time>2026-04-27T09:11:21.999Z</time></trkpt><trkpt lat="32.48227293103786" lon="-4.490353131634078"><ele>1603.0</ele><time>2026-04-27T09:11:22.999Z</time></trkpt><trkpt lat="32.48256202596927" lon="-4.490256089793689"><ele>1603.0</ele><time>2026-04-27T09:11:23.999Z</time></trkpt><trkpt lat="32.48285257683814" lon="-4.4901600400155814"><ele>1603.0</ele><time>2026-04-27T09:11:24.999Z</time></trkpt><trkpt lat="32.48313964657467" lon="-4.490062057681653"><ele>1603.5</ele><time>2026-04-27T09:11:25.999Z</time></trkpt><trkpt lat="32.483417965916644" lon="-4.489966768886697"><ele>1604.0</ele><time>2026-04-27T09:11:26.999Z</time></trkpt><trkpt lat="32.48369768885245" lon="-4.489873420468062"><ele>1605.5</ele><time>2026-04-27T09:11:27.999Z</time></trkpt><trkpt lat="32.483978001588824" lon="-4.489782327235565"><ele>1607.0</ele><time>2026-04-27T09:11:28.999Z</time></trkpt><trkpt lat="32.484266222219574" lon="-4.489688795079241"><ele>1607.0</ele><time>2026-04-27T09:11:29.999Z</time></trkpt><trkpt lat="32.48455949391866" lon="-4.48959383289554"><ele>1607.0</ele><time>2026-04-27T09:11:30.999Z</time></trkpt><trkpt lat="32.48485111953953" lon="-4.48950136790148"><ele>1607.5</ele><time>2026-04-27T09:11:31.999Z</time></trkpt><trkpt lat="32.485140203577174" lon="-4.4894116829675506"><ele>1608.0</ele><time>2026-04-27T09:11:32.999Z</time></trkpt><trkpt lat="32.48543439201272" lon="-4.489320634507835"><ele>1608.0</ele><time>2026-04-27T09:11:33.999Z</time></trkpt><trkpt lat="32.485724764562484" lon="-4.489206908347745"><ele>1608.0</ele><time>2026-04-27T09:11:34.999Z</time></trkpt><trkpt lat="32.486018619290284" lon="-4.489113514673913"><ele>1608.5</ele><time>2026-04-27T09:11:35.999Z</time></trkpt><trkpt lat="32.486308063921946" lon="-4.489021344649693"><ele>1609.0</ele><time>2026-04-27T09:11:36.999Z</time></trkpt><trkpt lat="32.48658314383798" lon="-4.488934155561839"><ele>1609.0</ele><time>2026-04-27T09:11:37.999Z</time></trkpt><trkpt lat="32.48681686529841" lon="-4.488859301716998"><ele>1609.0</ele><time>2026-04-27T09:11:38.999Z</time></trkpt><trkpt lat="32.48703270785609" lon="-4.488790204252487"><ele>1609.0</ele><time>2026-04-27T09:11:39.999Z</time></trkpt><trkpt lat="32.48723607455571" lon="-4.488725587456126"><ele>1609.0</ele><time>2026-04-27T09:11:40.999Z</time></trkpt><trkpt lat="32.48743244984934" lon="-4.488663123730009"><ele>1609.0</ele><time>2026-04-27T09:11:41.999Z</time></trkpt><trkpt lat="32.48762453610105" lon="-4.488601890692581"><ele>1609.0</ele><time>2026-04-27T09:11:42.999Z</time></trkpt><trkpt lat="32.48782103402943" lon="-4.488539547534653"><ele>1609.0</ele><time>2026-04-27T09:11:43.999Z</time></trkpt><trkpt lat="32.48801954942604" lon="-4.488475918272653"><ele>1609.0</ele><time>2026-04-27T09:11:44.999Z</time></trkpt><trkpt lat="32.488222543151814" lon="-4.488410853593126"><ele>1609.3333333333335</ele><time>2026-04-27T09:11:45.999Z</time></trkpt><trkpt lat="32.48842495650113" lon="-4.4883454692968385"><ele>1609.6666666666665</ele><time>2026-04-27T09:11:46.999Z</time></trkpt><trkpt lat="32.48862763876726" lon="-4.4882799447334945"><ele>1610.0</ele><time>2026-04-27T09:11:47.999Z</time></trkpt><trkpt lat="32.48883200430994" lon="-4.488214063734955"><ele>1610.3333333333333</ele><time>2026-04-27T09:11:48.999Z</time></trkpt><trkpt lat="32.489037867806076" lon="-4.488148533296465"><ele>1610.6666666666665</ele><time>2026-04-27T09:11:49.999Z</time></trkpt><trkpt lat="32.48924269811195" lon="-4.488082579768558"><ele>1611.0</ele><time>2026-04-27T09:11:50.999Z</time></trkpt><trkpt lat="32.48944488543717" lon="-4.488017781504244"><ele>1611.3333333333335</ele><time>2026-04-27T09:11:51.999Z</time></trkpt><trkpt lat="32.48964709414986" lon="-4.487953287972957"><ele>1611.6666666666667</ele><time>2026-04-27T09:11:52.999Z</time></trkpt><trkpt lat="32.489849250504896" lon="-4.487888416887325"><ele>1612.0</ele><time>2026-04-27T09:11:53.999Z</time></trkpt><trkpt lat="32.490052879059995" lon="-4.487822831999309"><ele>1612.3333333333335</ele><time>2026-04-27T09:11:54.999Z</time></trkpt><trkpt lat="32.49025380084658" lon="-4.48775811884334"><ele>1612.6666666666665</ele><time>2026-04-27T09:11:55.999Z</time></trkpt><trkpt lat="32.49045227991031" lon="-4.487693946914931"><ele>1613.0</ele><time>2026-04-27T09:11:56.999Z</time></trkpt><trkpt lat="32.490646054679274" lon="-4.4876316329011114"><ele>1613.6666666666665</ele><time>2026-04-27T09:11:57.999Z</time></trkpt><trkpt lat="32.49084144873318" lon="-4.487569097083745"><ele>1614.3333333333335</ele><time>2026-04-27T09:11:58.999Z</time></trkpt><trkpt lat="32.491034959914224" lon="-4.487506543866592"><ele>1615.0</ele><time>2026-04-27T09:11:59.999Z</time></trkpt><trkpt lat="32.491227780953764" lon="-4.487444155585775"><ele>1615.3333333333335</ele><time>2026-04-27T09:12:00.999Z</time></trkpt><trkpt lat="32.49142070017999" lon="-4.487401523497596"><ele>1615.6666666666665</ele><time>2026-04-27T09:12:01.999Z</time></trkpt><trkpt lat="32.49160470854016" lon="-4.487323000867543"><ele>1616.0</ele><time>2026-04-27T09:12:02.999Z</time></trkpt><trkpt lat="32.49178987803062" lon="-4.487264838125848"><ele>1616.0</ele><time>2026-04-27T09:12:03.999Z</time></trkpt><trkpt lat="32.491976583636095" lon="-4.487234075429529"><ele>1616.0</ele><time>2026-04-27T09:12:04.999Z</time></trkpt><trkpt lat="32.49214457063436" lon="-4.487179997970999"><ele>1616.0</ele><time>2026-04-27T09:12:05.999Z</time></trkpt><trkpt lat="32.492306602598944" lon="-4.487126935635509"><ele>1615.3333333333333</ele><time>2026-04-27T09:12:06.999Z</time></trkpt><trkpt lat="32.49246778567004" lon="-4.48707457342658"><ele>1614.6666666666665</ele><time>2026-04-27T09:12:07.999Z</time></trkpt><trkpt lat="32.49262413439708" lon="-4.4869986640286434"><ele>1614.0</ele><time>2026-04-27T09:12:08.999Z</time></trkpt><trkpt lat="32.492784931481474" lon="-4.48694637383305"><ele>1614.6666666666665</ele><time>2026-04-27T09:12:09.999Z</time></trkpt><trkpt lat="32.49294698491271" lon="-4.486894084181893"><ele>1615.3333333333333</ele><time>2026-04-27T09:12:10.999Z</time></trkpt><trkpt lat="32.493105572998346" lon="-4.486842697682191"><ele>1616.0</ele><time>2026-04-27T09:12:11.999Z</time></trkpt><trkpt lat="32.49326083727799" lon="-4.486792161265477"><ele>1616.0</ele><time>2026-04-27T09:12:12.999Z</time></trkpt><trkpt lat="32.493415231014815" lon="-4.486741908205694"><ele>1616.0</ele><time>2026-04-27T09:12:13.999Z</time></trkpt><trkpt lat="32.49356620129056" lon="-4.486692770026099"><ele>1616.0</ele><time>2026-04-27T09:12:14.999Z</time></trkpt><trkpt lat="32.493715315754244" lon="-4.486644235896683"><ele>1617.3333333333333</ele><time>2026-04-27T09:12:15.999Z</time></trkpt><trkpt lat="32.493863513057555" lon="-4.486596000286714"><ele>1618.6666666666665</ele><time>2026-04-27T09:12:16.999Z</time></trkpt><trkpt lat="32.49401640664275" lon="-4.486585603963201"><ele>1620.0</ele><time>2026-04-27T09:12:17.999Z</time></trkpt><trkpt lat="32.49415819101463" lon="-4.486537943427589"><ele>1620.0</ele><time>2026-04-27T09:12:18.999Z</time></trkpt><trkpt lat="32.494303638718996" lon="-4.486490356926163"><ele>1620.0</ele><time>2026-04-27T09:12:19.999Z</time></trkpt><trkpt lat="32.49444912274162" lon="-4.486443668214388"><ele>1620.0</ele><time>2026-04-27T09:12:20.999Z</time></trkpt><trkpt lat="32.494597726090554" lon="-4.486397893944861"><ele>1620.6666666666665</ele><time>2026-04-27T09:12:21.999Z</time></trkpt><trkpt lat="32.49474445696013" lon="-4.486351619711535"><ele>1621.3333333333333</ele><time>2026-04-27T09:12:22.999Z</time></trkpt><trkpt lat="32.494890504901505" lon="-4.48630587600767"><ele>1622.0</ele><time>2026-04-27T09:12:23.998Z</time></trkpt><trkpt lat="32.495034877761825" lon="-4.486262064209919"><ele>1621.5</ele><time>2026-04-27T09:12:24.998Z</time></trkpt><trkpt lat="32.495180082344774" lon="-4.486216559391978"><ele>1621.0</ele><time>2026-04-27T09:12:25.998Z</time></trkpt><trkpt lat="32.49532392802127" lon="-4.4861733420081"><ele>1620.5</ele><time>2026-04-27T09:12:26.998Z</time></trkpt><trkpt lat="32.49546725522326" lon="-4.486129718750405"><ele>1620.0</ele><time>2026-04-27T09:12:27.998Z</time></trkpt><trkpt lat="32.49560959572411" lon="-4.4860866903986665"><ele>1620.0</ele><time>2026-04-27T09:12:29Z</time></trkpt><trkpt lat="32.495750469436054" lon="-4.48604344576313"><ele>1620.0</ele><time>2026-04-27T09:12:30Z</time></trkpt><trkpt lat="32.49589143621253" lon="-4.486000236729437"><ele>1620.0</ele><time>2026-04-27T09:12:31Z</time></trkpt><trkpt lat="32.49603254546967" lon="-4.485956256216206"><ele>1620.0</ele><time>2026-04-27T09:12:32Z</time></trkpt><trkpt lat="32.49617545738048" lon="-4.485909697169927"><ele>1621.0</ele><time>2026-04-27T09:12:33Z</time></trkpt><trkpt lat="32.49631639459797" lon="-4.48586579914929"><ele>1622.0</ele><time>2026-04-27T09:12:34Z</time></trkpt><trkpt lat="32.496457900675935" lon="-4.485822114148187"><ele>1623.0</ele><time>2026-04-27T09:12:35Z</time></trkpt><trkpt lat="32.496600709365865" lon="-4.4857781834996775"><ele>1624.0</ele><time>2026-04-27T09:12:36Z</time></trkpt><trkpt lat="32.49674250112923" lon="-4.485733024897234"><ele>1624.0</ele><time>2026-04-27T09:12:37Z</time></trkpt><trkpt lat="32.496883869674086" lon="-4.485686243365361"><ele>1624.0</ele><time>2026-04-27T09:12:38Z</time></trkpt><trkpt lat="32.49702342996582" lon="-4.485638068595774"><ele>1624.0</ele><time>2026-04-27T09:12:39Z</time></trkpt><trkpt lat="32.49716272660287" lon="-4.485590325038839"><ele>1624.0</ele><time>2026-04-27T09:12:40Z</time></trkpt><trkpt lat="32.497304243966035" lon="-4.485544325648269"><ele>1624.25</ele><time>2026-04-27T09:12:41Z</time></trkpt><trkpt lat="32.497445787676355" lon="-4.485498424620557"><ele>1624.5</ele><time>2026-04-27T09:12:42Z</time></trkpt><trkpt lat="32.49758616085547" lon="-4.4854532717870494"><ele>1624.75</ele><time>2026-04-27T09:12:43Z</time></trkpt><trkpt lat="32.49772585351574" lon="-4.485410055256387"><ele>1625.0</ele><time>2026-04-27T09:12:44Z</time></trkpt><trkpt lat="32.49786555667386" lon="-4.48536735140126"><ele>1625.25</ele><time>2026-04-27T09:12:45Z</time></trkpt><trkpt lat="32.49800645053486" lon="-4.485325090648002"><ele>1625.5</ele><time>2026-04-27T09:12:46Z</time></trkpt><trkpt lat="32.49814851333684" lon="-4.485282308113957"><ele>1625.75</ele><time>2026-04-27T09:12:47Z</time></trkpt><trkpt lat="32.498288725612085" lon="-4.485240516347092"><ele>1626.0</ele><time>2026-04-27T09:12:48Z</time></trkpt><trkpt lat="32.49842688336934" lon="-4.48519853017069"><ele>1626.0</ele><time>2026-04-27T09:12:49Z</time></trkpt><trkpt lat="32.498571848474874" lon="-4.485152289713976"><ele>1626.0</ele><time>2026-04-27T09:12:50Z</time></trkpt><trkpt lat="32.498721269588806" lon="-4.485106130747733"><ele>1626.0</ele><time>2026-04-27T09:12:51Z</time></trkpt><trkpt lat="32.498882134040095" lon="-4.485058266508185"><ele>1626.0</ele><time>2026-04-27T09:12:52Z</time></trkpt><trkpt lat="32.49905516565169" lon="-4.485004650154694"><ele>1626.0</ele><time>2026-04-27T09:12:53Z</time></trkpt><trkpt lat="32.49924113546019" lon="-4.4849464170869275"><ele>1626.0</ele><time>2026-04-27T09:12:54Z</time></trkpt><trkpt lat="32.49944138125095" lon="-4.484882358473198"><ele>1626.0</ele><time>2026-04-27T09:12:55Z</time></trkpt><trkpt lat="32.499654749609796" lon="-4.484812418160873"><ele>1626.0</ele><time>2026-04-27T09:12:56Z</time></trkpt><trkpt lat="32.499883690259225" lon="-4.484739382828088"><ele>1626.0</ele><time>2026-04-27T09:12:57Z</time></trkpt><trkpt lat="32.50012947905334" lon="-4.48466339311209"><ele>1626.0</ele><time>2026-04-27T09:12:58Z</time></trkpt><trkpt lat="32.5003871734729" lon="-4.484583783438077"><ele>1626.5</ele><time>2026-04-27T09:12:59Z</time></trkpt><trkpt lat="32.50065877930698" lon="-4.484498609663231"><ele>1627.0</ele><time>2026-04-27T09:13:00Z</time></trkpt><trkpt lat="32.50094109452878" lon="-4.484408613410814"><ele>1627.0</ele><time>2026-04-27T09:13:01Z</time></trkpt><trkpt lat="32.50123053982524" lon="-4.4843167816101674"><ele>1627.0</ele><time>2026-04-27T09:13:02Z</time></trkpt><trkpt lat="32.50152181884069" lon="-4.484224753079184"><ele>1627.0</ele><time>2026-04-27T09:13:03Z</time></trkpt><trkpt lat="32.50181630815351" lon="-4.484131155171072"><ele>1627.0</ele><time>2026-04-27T09:13:04Z</time></trkpt><trkpt lat="32.502105654829805" lon="-4.484038558510941"><ele>1628.0</ele><time>2026-04-27T09:13:05Z</time></trkpt><trkpt lat="32.50238849131079" lon="-4.483947834667173"><ele>1629.0</ele><time>2026-04-27T09:13:06Z</time></trkpt><trkpt lat="32.50266615475939" lon="-4.483859776045667"><ele>1628.5</ele><time>2026-04-27T09:13:07Z</time></trkpt><trkpt lat="32.50293983313092" lon="-4.483774595791224"><ele>1628.0</ele><time>2026-04-27T09:13:08Z</time></trkpt><trkpt lat="32.503214322888866" lon="-4.4836981979930846"><ele>1628.0</ele><time>2026-04-27T09:13:08.999Z</time></trkpt><trkpt lat="32.503500451968584" lon="-4.48363876928213"><ele>1628.0</ele><time>2026-04-27T09:13:09.999Z</time></trkpt><trkpt lat="32.50379427809985" lon="-4.483601645061986"><ele>1627.5</ele><time>2026-04-27T09:13:10.999Z</time></trkpt><trkpt lat="32.50409729160154" lon="-4.483585144008572"><ele>1627.0</ele><time>2026-04-27T09:13:11.999Z</time></trkpt><trkpt lat="32.50440259970925" lon="-4.483571572039708"><ele>1627.0</ele><time>2026-04-27T09:13:12.999Z</time></trkpt><trkpt lat="32.50470582463251" lon="-4.483554509783816"><ele>1627.0</ele><time>2026-04-27T09:13:13.999Z</time></trkpt><trkpt lat="32.50500579892297" lon="-4.483538010593647"><ele>1627.0</ele><time>2026-04-27T09:13:14.999Z</time></trkpt><trkpt lat="32.505308152981904" lon="-4.483500875252808"><ele>1627.0</ele><time>2026-04-27T09:13:15.999Z</time></trkpt><trkpt lat="32.50562028686212" lon="-4.483482722304932"><ele>1628.0</ele><time>2026-04-27T09:13:16.999Z</time></trkpt><trkpt lat="32.50593530956656" lon="-4.483464905868296"><ele>1629.0</ele><time>2026-04-27T09:13:17.999Z</time></trkpt><trkpt lat="32.50624990137932" lon="-4.483446551465189"><ele>1629.5</ele><time>2026-04-27T09:13:18.999Z</time></trkpt><trkpt lat="32.5065603227166" lon="-4.483428440394313"><ele>1630.0</ele><time>2026-04-27T09:13:19.999Z</time></trkpt><trkpt lat="32.506871210042924" lon="-4.48340971324657"><ele>1630.5</ele><time>2026-04-27T09:13:20.999Z</time></trkpt><trkpt lat="32.507189450063244" lon="-4.483391022629974"><ele>1631.0</ele><time>2026-04-27T09:13:21.999Z</time></trkpt><trkpt lat="32.50750830090403" lon="-4.4833705872004375"><ele>1631.0</ele><time>2026-04-27T09:13:22.999Z</time></trkpt><trkpt lat="32.50782606202872" lon="-4.483350795470921"><ele>1631.0</ele><time>2026-04-27T09:13:23.999Z</time></trkpt><trkpt lat="32.508146865226735" lon="-4.483330628214849"><ele>1631.0</ele><time>2026-04-27T09:13:24.999Z</time></trkpt><trkpt lat="32.508472566455126" lon="-4.483310153048854"><ele>1631.0</ele><time>2026-04-27T09:13:25.999Z</time></trkpt><trkpt lat="32.50880226394901" lon="-4.48329066203215"><ele>1632.5</ele><time>2026-04-27T09:13:26.999Z</time></trkpt><trkpt lat="32.509118498748634" lon="-4.483272408683232"><ele>1634.0</ele><time>2026-04-27T09:13:27.999Z</time></trkpt><trkpt lat="32.50942097348527" lon="-4.483255276961801"><ele>1635.0</ele><time>2026-04-27T09:13:28.999Z</time></trkpt><trkpt lat="32.50970073934074" lon="-4.483238703727921"><ele>1636.0</ele><time>2026-04-27T09:13:29.999Z</time></trkpt><trkpt lat="32.509971453584235" lon="-4.483223545917861"><ele>1636.0</ele><time>2026-04-27T09:13:30.999Z</time></trkpt><trkpt lat="32.51024697537152" lon="-4.483207665251737"><ele>1636.0</ele><time>2026-04-27T09:13:31.999Z</time></trkpt><trkpt lat="32.510525313969" lon="-4.4831916169691"><ele>1636.5</ele><time>2026-04-27T09:13:32.999Z</time></trkpt><trkpt lat="32.51081406753296" lon="-4.4831737368718425"><ele>1637.0</ele><time>2026-04-27T09:13:33.999Z</time></trkpt><trkpt lat="32.51111552807628" lon="-4.483148416549356"><ele>1637.0</ele><time>2026-04-27T09:13:34.999Z</time></trkpt><trkpt lat="32.51142109598055" lon="-4.483123054318186"><ele>1637.0</ele><time>2026-04-27T09:13:35.999Z</time></trkpt><trkpt lat="32.51173716244497" lon="-4.483110900606752"><ele>1637.0</ele><time>2026-04-27T09:13:36.999Z</time></trkpt><trkpt lat="32.51206028558531" lon="-4.483072322618255"><ele>1637.0</ele><time>2026-04-27T09:13:37.999Z</time></trkpt><trkpt lat="32.5123827344426" lon="-4.483035090754576"><ele>1636.0</ele><time>2026-04-27T09:13:38.999Z</time></trkpt><trkpt lat="32.51270405759543" lon="-4.482999192266767"><ele>1635.0</ele><time>2026-04-27T09:13:39.999Z</time></trkpt><trkpt lat="32.513011857938906" lon="-4.482943377164021"><ele>1638.5</ele><time>2026-04-27T09:13:40.999Z</time></trkpt><trkpt lat="32.51332178169589" lon="-4.482912340885063"><ele>1642.0</ele><time>2026-04-27T09:13:41.999Z</time></trkpt><trkpt lat="32.513617810720774" lon="-4.482886827173918"><ele>1642.5</ele><time>2026-04-27T09:13:42.999Z</time></trkpt><trkpt lat="32.51390320556681" lon="-4.482862229988982"><ele>1643.0</ele><time>2026-04-27T09:13:43.999Z</time></trkpt><trkpt lat="32.51418104570531" lon="-4.482838241088466"><ele>1643.0</ele><time>2026-04-27T09:13:44.999Z</time></trkpt><trkpt lat="32.514466760669336" lon="-4.482813684346863"><ele>1643.0</ele><time>2026-04-27T09:13:45.999Z</time></trkpt><trkpt lat="32.51475873719039" lon="-4.482807082879404"><ele>1642.5</ele><time>2026-04-27T09:13:46.999Z</time></trkpt><trkpt lat="32.51504607722672" lon="-4.48277776067271"><ele>1642.0</ele><time>2026-04-27T09:13:47.999Z</time></trkpt><trkpt lat="32.515318462387036" lon="-4.482748482693522"><ele>1643.5</ele><time>2026-04-27T09:13:48.999Z</time></trkpt><trkpt lat="32.515580988890136" lon="-4.482722776205232"><ele>1645.0</ele><time>2026-04-27T09:13:49.999Z</time></trkpt><trkpt lat="32.515845948974125" lon="-4.482672842136109"><ele>1645.0</ele><time>2026-04-27T09:13:50.999Z</time></trkpt><trkpt lat="32.51611677763343" lon="-4.482633815932953"><ele>1645.0</ele><time>2026-04-27T09:13:51.999Z</time></trkpt><trkpt lat="32.51639243813065" lon="-4.482594093462448"><ele>1647.0</ele><time>2026-04-27T09:13:52.999Z</time></trkpt><trkpt lat="32.516677909174234" lon="-4.482569457376277"><ele>1649.0</ele><time>2026-04-27T09:13:53.999Z</time></trkpt><trkpt lat="32.51696884024163" lon="-4.482524012055948"><ele>1650.0</ele><time>2026-04-27T09:13:54.999Z</time></trkpt><trkpt lat="32.51726984234636" lon="-4.482478790558506"><ele>1651.0</ele><time>2026-04-27T09:13:55.999Z</time></trkpt><trkpt lat="32.51756778899083" lon="-4.482435370023199"><ele>1651.0</ele><time>2026-04-27T09:13:56.999Z</time></trkpt><trkpt lat="32.517858666341375" lon="-4.482370657216506"><ele>1651.0</ele><time>2026-04-27T09:13:57.999Z</time></trkpt><trkpt lat="32.51815146168349" lon="-4.482324450091021"><ele>1651.5</ele><time>2026-04-27T09:13:58.999Z</time></trkpt><trkpt lat="32.51844169523907" lon="-4.482278647262372"><ele>1652.0</ele><time>2026-04-27T09:13:59.999Z</time></trkpt><trkpt lat="32.518726113175326" lon="-4.4822338296454625"><ele>1652.5</ele><time>2026-04-27T09:14:00.999Z</time></trkpt><trkpt lat="32.51900697259352" lon="-4.482190268290024"><ele>1653.0</ele><time>2026-04-27T09:14:01.999Z</time></trkpt><trkpt lat="32.519287971352" lon="-4.482148844111885"><ele>1653.5</ele><time>2026-04-27T09:14:02.999Z</time></trkpt><trkpt lat="32.5195712767596" lon="-4.482107074377701"><ele>1654.0</ele><time>2026-04-27T09:14:03.999Z</time></trkpt><trkpt lat="32.519856484664245" lon="-4.482066067896419"><ele>1654.0</ele><time>2026-04-27T09:14:04.999Z</time></trkpt><trkpt lat="32.520144122349436" lon="-4.482045310022343"><ele>1654.0</ele><time>2026-04-27T09:14:05.999Z</time></trkpt><trkpt lat="32.520427411905224" lon="-4.4820168733651515"><ele>1655.0</ele><time>2026-04-27T09:14:06.999Z</time></trkpt><trkpt lat="32.52071194637247" lon="-4.482012239284692"><ele>1656.0</ele><time>2026-04-27T09:14:07.999Z</time></trkpt><trkpt lat="32.52099722464914" lon="-4.482038011444109"><ele>1657.0</ele><time>2026-04-27T09:14:08.999Z</time></trkpt><trkpt lat="32.52128208591507" lon="-4.482067968125091"><ele>1658.0</ele><time>2026-04-27T09:14:09.999Z</time></trkpt><trkpt lat="32.52156156667891" lon="-4.482095474308568"><ele>1658.5</ele><time>2026-04-27T09:14:10.999Z</time></trkpt><trkpt lat="32.521836313510796" lon="-4.4821240262469395"><ele>1659.0</ele><time>2026-04-27T09:14:11.999Z</time></trkpt><trkpt lat="32.52210436087072" lon="-4.482150810300254"><ele>1660.5</ele><time>2026-04-27T09:14:12.999Z</time></trkpt><trkpt lat="32.52235788110793" lon="-4.482174364772519"><ele>1662.0</ele><time>2026-04-27T09:14:13.999Z</time></trkpt><trkpt lat="32.522591954690014" lon="-4.4821953404666"><ele>1662.0</ele><time>2026-04-27T09:14:14.999Z</time></trkpt><trkpt lat="32.522813351069146" lon="-4.482216823330284"><ele>1662.0</ele><time>2026-04-27T09:14:15.999Z</time></trkpt><trkpt lat="32.52302494117943" lon="-4.48223757368399"><ele>1662.0</ele><time>2026-04-27T09:14:16.999Z</time></trkpt><trkpt lat="32.52322210923603" lon="-4.48225757335137"><ele>1661.6666666666665</ele><time>2026-04-27T09:14:17.999Z</time></trkpt><trkpt lat="32.52340948988263" lon="-4.482275229679052"><ele>1661.3333333333333</ele><time>2026-04-27T09:14:18.999Z</time></trkpt><trkpt lat="32.52358793019673" lon="-4.482290323707786"><ele>1661.0</ele><time>2026-04-27T09:14:19.999Z</time></trkpt><trkpt lat="32.523753326615825" lon="-4.482304825640344"><ele>1661.6666666666665</ele><time>2026-04-27T09:14:20.999Z</time></trkpt><trkpt lat="32.52391038097822" lon="-4.4823188283973"><ele>1662.3333333333335</ele><time>2026-04-27T09:14:21.999Z</time></trkpt><trkpt lat="32.524064309659515" lon="-4.482333748986732"><ele>1663.0</ele><time>2026-04-27T09:14:22.999Z</time></trkpt><trkpt lat="32.524219629061946" lon="-4.482349554830032"><ele>1663.0</ele><time>2026-04-27T09:14:23.999Z</time></trkpt><trkpt lat="32.5243816936605" lon="-4.482368248106113"><ele>1663.0</ele><time>2026-04-27T09:14:24.999Z</time></trkpt><trkpt lat="32.52456565277519" lon="-4.482392426546404"><ele>1663.0</ele><time>2026-04-27T09:14:25.999Z</time></trkpt><trkpt lat="32.5247663687879" lon="-4.482423128060143"><ele>1663.3333333333335</ele><time>2026-04-27T09:14:26.998Z</time></trkpt><trkpt lat="32.52497495192085" lon="-4.482457926528015"><ele>1663.6666666666665</ele><time>2026-04-27T09:14:27.998Z</time></trkpt><trkpt lat="32.525185803623394" lon="-4.482495702535987"><ele>1664.0</ele><time>2026-04-27T09:14:28.998Z</time></trkpt><trkpt lat="32.525400939235766" lon="-4.482531849524213"><ele>1664.5</ele><time>2026-04-27T09:14:29.998Z</time></trkpt><trkpt lat="32.5256254656226" lon="-4.482563564500675"><ele>1665.0</ele><time>2026-04-27T09:14:30.998Z</time></trkpt><trkpt lat="32.52587295892734" lon="-4.4825971993096125"><ele>1665.0</ele><time>2026-04-27T09:14:31.998Z</time></trkpt><trkpt lat="32.52613759178126" lon="-4.4826370332184275"><ele>1665.0</ele><time>2026-04-27T09:14:32.998Z</time></trkpt><trkpt lat="32.52640303508577" lon="-4.482676769887637"><ele>1665.0</ele><time>2026-04-27T09:14:33.998Z</time></trkpt><trkpt lat="32.526682977204885" lon="-4.482719093236188"><ele>1665.0</ele><time>2026-04-27T09:14:35Z</time></trkpt><trkpt lat="32.52699359687934" lon="-4.4827661861185115"><ele>1666.5</ele><time>2026-04-27T09:14:36Z</time></trkpt><trkpt lat="32.52732688435829" lon="-4.482814507645438"><ele>1668.0</ele><time>2026-04-27T09:14:37Z</time></trkpt><trkpt lat="32.52767298921967" lon="-4.482859023076101"><ele>1668.5</ele><time>2026-04-27T09:14:38Z</time></trkpt><trkpt lat="32.528013738574494" lon="-4.482900727433174"><ele>1669.0</ele><time>2026-04-27T09:14:39Z</time></trkpt><trkpt lat="32.52834461871759" lon="-4.482941410795489"><ele>1669.0</ele><time>2026-04-27T09:14:40Z</time></trkpt><trkpt lat="32.52865511902623" lon="-4.48298319445428"><ele>1669.0</ele><time>2026-04-27T09:14:41Z</time></trkpt><trkpt lat="32.52895736710566" lon="-4.483026989575042"><ele>1669.5</ele><time>2026-04-27T09:14:42Z</time></trkpt><trkpt lat="32.52926096555912" lon="-4.48307176102107"><ele>1670.0</ele><time>2026-04-27T09:14:43Z</time></trkpt><trkpt lat="32.529566892104434" lon="-4.48312874935205"><ele>1671.0</ele><time>2026-04-27T09:14:44Z</time></trkpt><trkpt lat="32.52987238760426" lon="-4.483192294413079"><ele>1672.0</ele><time>2026-04-27T09:14:45Z</time></trkpt><trkpt lat="32.530175569368055" lon="-4.483260130409529"><ele>1672.5</ele><time>2026-04-27T09:14:46Z</time></trkpt><trkpt lat="32.53048510279185" lon="-4.48332836958448"><ele>1673.0</ele><time>2026-04-27T09:14:47Z</time></trkpt><trkpt lat="32.53079699226247" lon="-4.483398806433804"><ele>1673.0</ele><time>2026-04-27T09:14:48Z</time></trkpt><trkpt lat="32.53110495270933" lon="-4.483472194044151"><ele>1673.0</ele><time>2026-04-27T09:14:49Z</time></trkpt><trkpt lat="32.53140750985527" lon="-4.483546114306513"><ele>1674.0</ele><time>2026-04-27T09:14:50Z</time></trkpt><trkpt lat="32.531703472231975" lon="-4.483619634287433"><ele>1675.0</ele><time>2026-04-27T09:14:51Z</time></trkpt><trkpt lat="32.53199457439667" lon="-4.48369036347884"><ele>1676.0</ele><time>2026-04-27T09:14:52Z</time></trkpt><trkpt lat="32.53228615235128" lon="-4.483761928367299"><ele>1677.0</ele><time>2026-04-27T09:14:53Z</time></trkpt><trkpt lat="32.532577597404774" lon="-4.483829637619373"><ele>1677.5</ele><time>2026-04-27T09:14:54Z</time></trkpt><trkpt lat="32.53286933158194" lon="-4.483899621426758"><ele>1678.0</ele><time>2026-04-27T09:14:55Z</time></trkpt><trkpt lat="32.53315748908107" lon="-4.483967398192261"><ele>1678.0</ele><time>2026-04-27T09:14:56Z</time></trkpt><trkpt lat="32.533441803852256" lon="-4.484037069319117"><ele>1678.0</ele><time>2026-04-27T09:14:57Z</time></trkpt><trkpt lat="32.5337210077061" lon="-4.484105515832309"><ele>1680.0</ele><time>2026-04-27T09:14:58Z</time></trkpt><trkpt lat="32.53399276882843" lon="-4.4841715631184735"><ele>1682.0</ele><time>2026-04-27T09:14:59Z</time></trkpt><trkpt lat="32.5342618497708" lon="-4.4842381898420225"><ele>1682.0</ele><time>2026-04-27T09:15:00Z</time></trkpt><trkpt lat="32.53452455597973" lon="-4.484302963268768"><ele>1682.0</ele><time>2026-04-27T09:15:01Z</time></trkpt><trkpt lat="32.53478189113265" lon="-4.484363498567078"><ele>1683.0</ele><time>2026-04-27T09:15:02Z</time></trkpt><trkpt lat="32.5350353554831" lon="-4.484422570218145"><ele>1684.0</ele><time>2026-04-27T09:15:03Z</time></trkpt><trkpt lat="32.535281243503235" lon="-4.484480010753471"><ele>1683.5</ele><time>2026-04-27T09:15:04Z</time></trkpt><trkpt lat="32.53552294593129" lon="-4.484541340647638"><ele>1683.0</ele><time>2026-04-27T09:15:05Z</time></trkpt><trkpt lat="32.53575188164203" lon="-4.484609345963253"><ele>1682.5</ele><time>2026-04-27T09:15:06Z</time></trkpt><trkpt lat="32.53597237974406" lon="-4.484681793779664"><ele>1682.0</ele><time>2026-04-27T09:15:07Z</time></trkpt><trkpt lat="32.53618895701263" lon="-4.48476003080225"><ele>1683.5</ele><time>2026-04-27T09:15:08Z</time></trkpt><trkpt lat="32.536404197359005" lon="-4.484842523704928"><ele>1685.0</ele><time>2026-04-27T09:15:09Z</time></trkpt><trkpt lat="32.53661636663377" lon="-4.484925661216976"><ele>1685.0</ele><time>2026-04-27T09:15:10Z</time></trkpt><trkpt lat="32.53682696980571" lon="-4.485006028480079"><ele>1685.0</ele><time>2026-04-27T09:15:11Z</time></trkpt><trkpt lat="32.53704482387727" lon="-4.485067171643167"><ele>1685.0</ele><time>2026-04-27T09:15:12Z</time></trkpt><trkpt lat="32.537256703990714" lon="-4.485167183920331"><ele>1686.0</ele><time>2026-04-27T09:15:13Z</time></trkpt><trkpt lat="32.537474207080166" lon="-4.4852482182846005"><ele>1687.0</ele><time>2026-04-27T09:15:14Z</time></trkpt><trkpt lat="32.53769826352863" lon="-4.485331675039541"><ele>1688.0</ele><time>2026-04-27T09:15:14.999Z</time></trkpt><trkpt lat="32.53792984351568" lon="-4.485419813345667"><ele>1689.0</ele><time>2026-04-27T09:15:15.999Z</time></trkpt><trkpt lat="32.538167737669056" lon="-4.485509447818257"><ele>1687.0</ele><time>2026-04-27T09:15:16.999Z</time></trkpt><trkpt lat="32.538403486222116" lon="-4.485602718617796"><ele>1685.0</ele><time>2026-04-27T09:15:17.999Z</time></trkpt><trkpt lat="32.538637221618615" lon="-4.4856716669817756"><ele>1686.5</ele><time>2026-04-27T09:15:18.999Z</time></trkpt><trkpt lat="32.538864033912795" lon="-4.48575724820031"><ele>1688.0</ele><time>2026-04-27T09:15:19.999Z</time></trkpt><trkpt lat="32.539095352668234" lon="-4.485844400918688"><ele>1688.0</ele><time>2026-04-27T09:15:20.999Z</time></trkpt><trkpt lat="32.539337567581164" lon="-4.485953321942299"><ele>1688.0</ele><time>2026-04-27T09:15:21.999Z</time></trkpt><trkpt lat="32.53960138352578" lon="-4.486035449710909"><ele>1688.5</ele><time>2026-04-27T09:15:22.999Z</time></trkpt><trkpt lat="32.53988142043673" lon="-4.486113269685633"><ele>1689.0</ele><time>2026-04-27T09:15:23.999Z</time></trkpt><trkpt lat="32.540170675610796" lon="-4.486183328247077"><ele>1688.0</ele><time>2026-04-27T09:15:24.999Z</time></trkpt><trkpt lat="32.54046567849633" lon="-4.486253514738539"><ele>1687.0</ele><time>2026-04-27T09:15:25.999Z</time></trkpt><trkpt lat="32.54076788906003" lon="-4.486327650236948"><ele>1686.5</ele><time>2026-04-27T09:15:26.999Z</time></trkpt><trkpt lat="32.541077684090986" lon="-4.486405153291859"><ele>1686.0</ele><time>2026-04-27T09:15:27.999Z</time></trkpt><trkpt lat="32.541399346180604" lon="-4.486485046038964"><ele>1686.0</ele><time>2026-04-27T09:15:28.999Z</time></trkpt><trkpt lat="32.541730034207646" lon="-4.486568283250268"><ele>1686.0</ele><time>2026-04-27T09:15:29.999Z</time></trkpt><trkpt lat="32.54206788239746" lon="-4.486655262533769"><ele>1686.0</ele><time>2026-04-27T09:15:30.999Z</time></trkpt><trkpt lat="32.54242136210382" lon="-4.48672034806848"><ele>1686.0</ele><time>2026-04-27T09:15:31.999Z</time></trkpt><trkpt lat="32.542780699128414" lon="-4.486807285096549"><ele>1686.5</ele><time>2026-04-27T09:15:32.999Z</time></trkpt><trkpt lat="32.543147179555675" lon="-4.486894892763007"><ele>1687.0</ele><time>2026-04-27T09:15:33.999Z</time></trkpt><trkpt lat="32.54351798406133" lon="-4.486984087448324"><ele>1687.0</ele><time>2026-04-27T09:15:34.999Z</time></trkpt><trkpt lat="32.54388529267121" lon="-4.487072816144184"><ele>1687.0</ele><time>2026-04-27T09:15:35.999Z</time></trkpt><trkpt lat="32.54424391543972" lon="-4.487159205924914"><ele>1688.0</ele><time>2026-04-27T09:15:36.999Z</time></trkpt><trkpt lat="32.54459911988501" lon="-4.487244772265281"><ele>1689.0</ele><time>2026-04-27T09:15:37.999Z</time></trkpt><trkpt lat="32.54494937659883" lon="-4.487329168187883"><ele>1689.0</ele><time>2026-04-27T09:15:38.999Z</time></trkpt><trkpt lat="32.5452947154572" lon="-4.487412066506836"><ele>1689.0</ele><time>2026-04-27T09:15:39.999Z</time></trkpt><trkpt lat="32.54564155270164" lon="-4.487496336430985"><ele>1690.5</ele><time>2026-04-27T09:15:40.999Z</time></trkpt><trkpt lat="32.54599195407005" lon="-4.4875695655572585"><ele>1692.0</ele><time>2026-04-27T09:15:41.999Z</time></trkpt><trkpt lat="32.546349765209385" lon="-4.487623035580382"><ele>1694.0</ele><time>2026-04-27T09:15:42.999Z</time></trkpt><trkpt lat="32.54671423067298" lon="-4.4876828556793225"><ele>1696.0</ele><time>2026-04-27T09:15:43.999Z</time></trkpt><trkpt lat="32.54708062175398" lon="-4.487708359776181"><ele>1696.5</ele><time>2026-04-27T09:15:44.999Z</time></trkpt><trkpt lat="32.54744209559535" lon="-4.487732077332536"><ele>1697.0</ele><time>2026-04-27T09:15:45.999Z</time></trkpt><trkpt lat="32.547795804506826" lon="-4.4877583334991975"><ele>1697.5</ele><time>2026-04-27T09:15:46.999Z</time></trkpt><trkpt lat="32.54813612618208" lon="-4.487781078306823"><ele>1698.0</ele><time>2026-04-27T09:15:47.999Z</time></trkpt><trkpt lat="32.548473438451076" lon="-4.487783862032026"><ele>1698.0</ele><time>2026-04-27T09:15:48.999Z</time></trkpt><trkpt lat="32.54880805647023" lon="-4.48780647762046"><ele>1698.0</ele><time>2026-04-27T09:15:49.999Z</time></trkpt><trkpt lat="32.549137665739394" lon="-4.487827955642134"><ele>1698.0</ele><time>2026-04-27T09:15:50.999Z</time></trkpt><trkpt lat="32.549471077512436" lon="-4.487851770704676"><ele>1698.0</ele><time>2026-04-27T09:15:51.999Z</time></trkpt><trkpt lat="32.549806572409494" lon="-4.487877283871985"><ele>1698.0</ele><time>2026-04-27T09:15:52.999Z</time></trkpt><trkpt lat="32.55014394652496" lon="-4.48790334357528"><ele>1698.0</ele><time>2026-04-27T09:15:53.999Z</time></trkpt><trkpt lat="32.550474505748085" lon="-4.487928876948046"><ele>1700.5</ele><time>2026-04-27T09:15:54.999Z</time></trkpt><trkpt lat="32.550795847463" lon="-4.487953698293147"><ele>1703.0</ele><time>2026-04-27T09:15:55.999Z</time></trkpt><trkpt lat="32.55111079781584" lon="-4.487996807595179"><ele>1705.0</ele><time>2026-04-27T09:15:56.999Z</time></trkpt><trkpt lat="32.55142289977847" lon="-4.488002132630903"><ele>1707.0</ele><time>2026-04-27T09:15:57.999Z</time></trkpt><trkpt lat="32.55174080208719" lon="-4.488026688329777"><ele>1707.5</ele><time>2026-04-27T09:15:58.999Z</time></trkpt><trkpt lat="32.552066916287785" lon="-4.488051878344503"><ele>1708.0</ele><time>2026-04-27T09:15:59.999Z</time></trkpt><trkpt lat="32.55240667469206" lon="-4.488078122284164"><ele>1708.0</ele><time>2026-04-27T09:16:00.999Z</time></trkpt><trkpt lat="32.55275100636461" lon="-4.488104719461817"><ele>1708.0</ele><time>2026-04-27T09:16:01.999Z</time></trkpt><trkpt lat="32.55309754646782" lon="-4.4881510605638875"><ele>1710.0</ele><time>2026-04-27T09:16:02.999Z</time></trkpt><trkpt lat="32.55344757513313" lon="-4.488174924415344"><ele>1712.0</ele><time>2026-04-27T09:16:03.999Z</time></trkpt><trkpt lat="32.55380063405249" lon="-4.488199199743411"><ele>1712.5</ele><time>2026-04-27T09:16:04.999Z</time></trkpt><trkpt lat="32.55415272165358" lon="-4.488224056558097"><ele>1713.0</ele><time>2026-04-27T09:16:05.999Z</time></trkpt><trkpt lat="32.55450560026121" lon="-4.4882511053508845"><ele>1714.0</ele><time>2026-04-27T09:16:06.999Z</time></trkpt><trkpt lat="32.55485951574041" lon="-4.488279543802509"><ele>1715.0</ele><time>2026-04-27T09:16:07.999Z</time></trkpt><trkpt lat="32.55521663902128" lon="-4.488308297719997"><ele>1716.0</ele><time>2026-04-27T09:16:08.999Z</time></trkpt><trkpt lat="32.555576778659514" lon="-4.488338045344287"><ele>1717.0</ele><time>2026-04-27T09:16:09.999Z</time></trkpt><trkpt lat="32.55593512928274" lon="-4.4883670378886364"><ele>1718.0</ele><time>2026-04-27T09:16:10.999Z</time></trkpt><trkpt lat="32.55629799147371" lon="-4.488394680483816"><ele>1719.0</ele><time>2026-04-27T09:16:11.999Z</time></trkpt><trkpt lat="32.556663894695404" lon="-4.488421274676744"><ele>1719.0</ele><time>2026-04-27T09:16:12.999Z</time></trkpt><trkpt lat="32.55703105480482" lon="-4.4884470297053225"><ele>1719.0</ele><time>2026-04-27T09:16:13.999Z</time></trkpt><trkpt lat="32.5573908995868" lon="-4.488475479747567"><ele>1719.0</ele><time>2026-04-27T09:16:14.999Z</time></trkpt><trkpt lat="32.557746089813755" lon="-4.48850497245081"><ele>1719.0</ele><time>2026-04-27T09:16:15.999Z</time></trkpt><trkpt lat="32.55810571811579" lon="-4.488531668965177"><ele>1720.0</ele><time>2026-04-27T09:16:16.999Z</time></trkpt><trkpt lat="32.5584735936499" lon="-4.488556738806852"><ele>1721.0</ele><time>2026-04-27T09:16:17.999Z</time></trkpt><trkpt lat="32.5588392146395" lon="-4.488582390386421"><ele>1722.0</ele><time>2026-04-27T09:16:18.999Z</time></trkpt><trkpt lat="32.55918786565253" lon="-4.4886070955241335"><ele>1723.0</ele><time>2026-04-27T09:16:19.999Z</time></trkpt><trkpt lat="32.559514642569624" lon="-4.4886307539892965"><ele>1723.0</ele><time>2026-04-27T09:16:20.999Z</time></trkpt><trkpt lat="32.559832697265584" lon="-4.488654303169856"><ele>1723.0</ele><time>2026-04-27T09:16:21.999Z</time></trkpt><trkpt lat="32.56014599223371" lon="-4.488678302580267"><ele>1723.0</ele><time>2026-04-27T09:16:22.999Z</time></trkpt><trkpt lat="32.560460395128764" lon="-4.488702824396431"><ele>1723.0</ele><time>2026-04-27T09:16:23.999Z</time></trkpt><trkpt lat="32.5607800194046" lon="-4.488729932910979"><ele>1723.0</ele><time>2026-04-27T09:16:24.999Z</time></trkpt><trkpt lat="32.56111020413651" lon="-4.488753200695635"><ele>1723.0</ele><time>2026-04-27T09:16:25.999Z</time></trkpt><trkpt lat="32.561443380415625" lon="-4.488776955141934"><ele>1724.5</ele><time>2026-04-27T09:16:26.999Z</time></trkpt><trkpt lat="32.56177715066656" lon="-4.488800115637741"><ele>1726.0</ele><time>2026-04-27T09:16:27.999Z</time></trkpt><trkpt lat="32.56211705889422" lon="-4.488824056590556"><ele>1727.5</ele><time>2026-04-27T09:16:28.999Z</time></trkpt><trkpt lat="32.562456817205515" lon="-4.488847306593817"><ele>1729.0</ele><time>2026-04-27T09:16:29.999Z</time></trkpt><trkpt lat="32.562797821200455" lon="-4.488872675896749"><ele>1730.0</ele><time>2026-04-27T09:16:30.999Z</time></trkpt><trkpt lat="32.56313327217762" lon="-4.488899531628674"><ele>1731.0</ele><time>2026-04-27T09:16:31.999Z</time></trkpt><trkpt lat="32.5634629340611" lon="-4.488926375543115"><ele>1732.0</ele><time>2026-04-27T09:16:32.998Z</time></trkpt><trkpt lat="32.56378942671003" lon="-4.488952339979783"><ele>1733.0</ele><time>2026-04-27T09:16:33.998Z</time></trkpt><trkpt lat="32.56411601211645" lon="-4.488978815023145"><ele>1733.0</ele><time>2026-04-27T09:16:34.998Z</time></trkpt><trkpt lat="32.56443521105083" lon="-4.489002655992828"><ele>1733.0</ele><time>2026-04-27T09:16:35.998Z</time></trkpt><trkpt lat="32.56473966594855" lon="-4.489025475430366"><ele>1734.0</ele><time>2026-04-27T09:16:36.998Z</time></trkpt><trkpt lat="32.56503449644242" lon="-4.489042345340247"><ele>1735.0</ele><time>2026-04-27T09:16:37.998Z</time></trkpt><trkpt lat="32.565329814973225" lon="-4.4890383689015305"><ele>1736.0</ele><time>2026-04-27T09:16:38.998Z</time></trkpt><trkpt lat="32.56563431163272" lon="-4.489000847942317"><ele>1737.0</ele><time>2026-04-27T09:16:39.998Z</time></trkpt><trkpt lat="32.565944526598784" lon="-4.4889297341283605"><ele>1737.5</ele><time>2026-04-27T09:16:41Z</time></trkpt><trkpt lat="32.5662436272768" lon="-4.488838677379566"><ele>1738.0</ele><time>2026-04-27T09:16:42Z</time></trkpt><trkpt lat="32.56653686176914" lon="-4.4887454096418375"><ele>1738.0</ele><time>2026-04-27T09:16:43Z</time></trkpt><trkpt lat="32.56681946542153" lon="-4.488658743921634"><ele>1738.0</ele><time>2026-04-27T09:16:44Z</time></trkpt><trkpt lat="32.567092502086574" lon="-4.488580602198144"><ele>1740.0</ele><time>2026-04-27T09:16:45Z</time></trkpt><trkpt lat="32.567357165700706" lon="-4.488501847843858"><ele>1742.0</ele><time>2026-04-27T09:16:46Z</time></trkpt><trkpt lat="32.56761903234165" lon="-4.488421388439682"><ele>1742.0</ele><time>2026-04-27T09:16:47Z</time></trkpt><trkpt lat="32.56788686969989" lon="-4.48834285255802"><ele>1742.0</ele><time>2026-04-27T09:16:48Z</time></trkpt><trkpt lat="32.56816404530061" lon="-4.488263273645111"><ele>1742.0</ele><time>2026-04-27T09:16:49Z</time></trkpt><trkpt lat="32.56845028796896" lon="-4.4881791298088825"><ele>1742.0</ele><time>2026-04-27T09:16:50Z</time></trkpt><trkpt lat="32.5687443958868" lon="-4.488097062535602"><ele>1743.0</ele><time>2026-04-27T09:16:51Z</time></trkpt><trkpt lat="32.56905333198354" lon="-4.488031261136447"><ele>1744.0</ele><time>2026-04-27T09:16:52Z</time></trkpt><trkpt lat="32.56937453353675" lon="-4.487982322166196"><ele>1744.0</ele><time>2026-04-27T09:16:53Z</time></trkpt><trkpt lat="32.56970748945338" lon="-4.4879487810780345"><ele>1744.0</ele><time>2026-04-27T09:16:54Z</time></trkpt><trkpt lat="32.57004837722933" lon="-4.487924202756214"><ele>1743.5</ele><time>2026-04-27T09:16:55Z</time></trkpt><trkpt lat="32.570383390627846" lon="-4.487895983896914"><ele>1743.0</ele><time>2026-04-27T09:16:56Z</time></trkpt><trkpt lat="32.57071438477341" lon="-4.487865068861026"><ele>1743.0</ele><time>2026-04-27T09:16:57Z</time></trkpt><trkpt lat="32.571038268262825" lon="-4.4878348107418615"><ele>1743.0</ele><time>2026-04-27T09:16:58Z</time></trkpt><trkpt lat="32.571354030066175" lon="-4.487803893319838"><ele>1745.5</ele><time>2026-04-27T09:16:59Z</time></trkpt><trkpt lat="32.57166037578636" lon="-4.4877748158454605"><ele>1748.0</ele><time>2026-04-27T09:17:00Z</time></trkpt><trkpt lat="32.571956410920556" lon="-4.487748143781344"><ele>1747.5</ele><time>2026-04-27T09:17:01Z</time></trkpt><trkpt lat="32.5722494329633" lon="-4.487719465546477"><ele>1747.0</ele><time>2026-04-27T09:17:02Z</time></trkpt><trkpt lat="32.57253416648965" lon="-4.487692234636024"><ele>1747.0</ele><time>2026-04-27T09:17:03Z</time></trkpt><trkpt lat="32.572812652227555" lon="-4.4876662780248235"><ele>1747.0</ele><time>2026-04-27T09:17:04Z</time></trkpt><trkpt lat="32.57307762176473" lon="-4.487640644234511"><ele>1749.0</ele><time>2026-04-27T09:17:05Z</time></trkpt><trkpt lat="32.57332482707943" lon="-4.487618743720076"><ele>1751.0</ele><time>2026-04-27T09:17:06Z</time></trkpt><trkpt lat="32.57356034618133" lon="-4.4875996651254395"><ele>1752.0</ele><time>2026-04-27T09:17:07Z</time></trkpt><trkpt lat="32.57379650633521" lon="-4.487587339499992"><ele>1753.0</ele><time>2026-04-27T09:17:08Z</time></trkpt><trkpt lat="32.57403664327503" lon="-4.487595656171992"><ele>1753.0</ele><time>2026-04-27T09:17:09Z</time></trkpt><trkpt lat="32.5742880479597" lon="-4.4876372378855764"><ele>1753.0</ele><time>2026-04-27T09:17:10Z</time></trkpt><trkpt lat="32.574550887934414" lon="-4.487705181474523"><ele>1754.0</ele><time>2026-04-27T09:17:11Z</time></trkpt><trkpt lat="32.57482298555678" lon="-4.48779847188998"><ele>1755.0</ele><time>2026-04-27T09:17:12Z</time></trkpt><trkpt lat="32.57510311926338" lon="-4.487915971134442"><ele>1755.5</ele><time>2026-04-27T09:17:13Z</time></trkpt><trkpt lat="32.57538970713981" lon="-4.488056350795977"><ele>1756.0</ele><time>2026-04-27T09:17:14Z</time></trkpt><trkpt lat="32.57568394517053" lon="-4.488230958938339"><ele>1756.0</ele><time>2026-04-27T09:17:15Z</time></trkpt><trkpt lat="32.57597388826825" lon="-4.488431983589677"><ele>1756.0</ele><time>2026-04-27T09:17:16Z</time></trkpt><trkpt lat="32.576272940467206" lon="-4.4886404794697645"><ele>1756.5</ele><time>2026-04-27T09:17:17Z</time></trkpt><trkpt lat="32.57658223945826" lon="-4.48885084719899"><ele>1757.0</ele><time>2026-04-27T09:17:17.999Z</time></trkpt><trkpt lat="32.57690317296912" lon="-4.489056957736124"><ele>1757.5</ele><time>2026-04-27T09:17:18.999Z</time></trkpt><trkpt lat="32.57724423266645" lon="-4.489244294339205"><ele>1758.0</ele><time>2026-04-27T09:17:19.999Z</time></trkpt><trkpt lat="32.57758575786496" lon="-4.489461173474653"><ele>1759.5</ele><time>2026-04-27T09:17:20.999Z</time></trkpt><trkpt lat="32.57794044781931" lon="-4.4896868300452555"><ele>1761.0</ele><time>2026-04-27T09:17:21.999Z</time></trkpt><trkpt lat="32.57829081033592" lon="-4.489910389499065"><ele>1761.0</ele><time>2026-04-27T09:17:22.999Z</time></trkpt><trkpt lat="32.57862828343495" lon="-4.490126019435014"><ele>1761.0</ele><time>2026-04-27T09:17:23.999Z</time></trkpt><trkpt lat="32.578951090417235" lon="-4.490334737031274"><ele>1763.0</ele><time>2026-04-27T09:17:24.999Z</time></trkpt><trkpt lat="32.57926771202745" lon="-4.490539302016739"><ele>1765.0</ele><time>2026-04-27T09:17:25.999Z</time></trkpt><trkpt lat="32.579578196065825" lon="-4.490740368565357"><ele>1766.0</ele><time>2026-04-27T09:17:26.999Z</time></trkpt><trkpt lat="32.5798875068596" lon="-4.490940834100213"><ele>1767.0</ele><time>2026-04-27T09:17:27.999Z</time></trkpt><trkpt lat="32.58018554155515" lon="-4.491133991587177"><ele>1769.0</ele><time>2026-04-27T09:17:28.999Z</time></trkpt><trkpt lat="32.58048480575935" lon="-4.491327945927007"><ele>1771.0</ele><time>2026-04-27T09:17:29.999Z</time></trkpt><trkpt lat="32.580788437243235" lon="-4.491524730727355"><ele>1771.0</ele><time>2026-04-27T09:17:30.999Z</time></trkpt><trkpt lat="32.58109008555574" lon="-4.4917247197610815"><ele>1771.0</ele><time>2026-04-27T09:17:31.999Z</time></trkpt><trkpt lat="32.581397591726486" lon="-4.4919277122274455"><ele>1774.5</ele><time>2026-04-27T09:17:32.999Z</time></trkpt><trkpt lat="32.58171344663186" lon="-4.492136106026074"><ele>1778.0</ele><time>2026-04-27T09:17:33.999Z</time></trkpt><trkpt lat="32.582040143207756" lon="-4.492351077741696"><ele>1779.5</ele><time>2026-04-27T09:17:34.999Z</time></trkpt><trkpt lat="32.58237470502239" lon="-4.492569264199778"><ele>1781.0</ele><time>2026-04-27T09:17:35.999Z</time></trkpt><trkpt lat="32.5827042408031" lon="-4.492784885917926"><ele>1783.5</ele><time>2026-04-27T09:17:36.999Z</time></trkpt><trkpt lat="32.58302412221756" lon="-4.492994425705434"><ele>1786.0</ele><time>2026-04-27T09:17:37.999Z</time></trkpt><trkpt lat="32.58333489193062" lon="-4.493197448413131"><ele>1786.0</ele><time>2026-04-27T09:17:38.999Z</time></trkpt><trkpt lat="32.583636673771366" lon="-4.493394423203218"><ele>1786.0</ele><time>2026-04-27T09:17:39.999Z</time></trkpt><trkpt lat="32.5839324759819" lon="-4.493586828743164"><ele>1789.5</ele><time>2026-04-27T09:17:40.999Z</time></trkpt><trkpt lat="32.58422361222911" lon="-4.493776143505937"><ele>1793.0</ele><time>2026-04-27T09:17:41.999Z</time></trkpt><trkpt lat="32.58450797970853" lon="-4.493959496868936"><ele>1795.5</ele><time>2026-04-27T09:17:42.999Z</time></trkpt><trkpt lat="32.58478946247186" lon="-4.494141593374306"><ele>1798.0</ele><time>2026-04-27T09:17:43.999Z</time></trkpt><trkpt lat="32.58506261928282" lon="-4.494318681867111"><ele>1798.0</ele><time>2026-04-27T09:17:44.999Z</time></trkpt><trkpt lat="32.58532260202655" lon="-4.494487106014719"><ele>1798.0</ele><time>2026-04-27T09:17:45.999Z</time></trkpt><trkpt lat="32.58557843781015" lon="-4.4946534979685735"><ele>1800.5</ele><time>2026-04-27T09:17:46.999Z</time></trkpt><trkpt lat="32.58582754516422" lon="-4.494814638988391"><ele>1803.0</ele><time>2026-04-27T09:17:47.999Z</time></trkpt><trkpt lat="32.58606810728012" lon="-4.494991823306096"><ele>1805.0</ele><time>2026-04-27T09:17:48.999Z</time></trkpt><trkpt lat="32.5862893653092" lon="-4.4951767560426665"><ele>1807.0</ele><time>2026-04-27T09:17:49.999Z</time></trkpt><trkpt lat="32.586486789834" lon="-4.495390920775693"><ele>1807.0</ele><time>2026-04-27T09:17:50.999Z</time></trkpt><trkpt lat="32.586685111381854" lon="-4.495609188811242"><ele>1807.0</ele><time>2026-04-27T09:17:51.999Z</time></trkpt><trkpt lat="32.58687553280172" lon="-4.495852024245521"><ele>1809.0</ele><time>2026-04-27T09:17:52.999Z</time></trkpt><trkpt lat="32.587070597393364" lon="-4.496106265866282"><ele>1811.0</ele><time>2026-04-27T09:17:53.999Z</time></trkpt><trkpt lat="32.587271862212724" lon="-4.496360375613412"><ele>1811.0</ele><time>2026-04-27T09:17:54.999Z</time></trkpt><trkpt lat="32.58746947767795" lon="-4.496608337370522"><ele>1811.0</ele><time>2026-04-27T09:17:55.999Z</time></trkpt><trkpt lat="32.58766373779989" lon="-4.496848152980532"><ele>1812.0</ele><time>2026-04-27T09:17:56.999Z</time></trkpt><trkpt lat="32.587852264232914" lon="-4.497080942617514"><ele>1813.0</ele><time>2026-04-27T09:17:57.999Z</time></trkpt><trkpt lat="32.58803688950619" lon="-4.497306913333218"><ele>1814.0</ele><time>2026-04-27T09:17:58.999Z</time></trkpt><trkpt lat="32.58821562068066" lon="-4.4975262844632615"><ele>1815.0</ele><time>2026-04-27T09:17:59.999Z</time></trkpt><trkpt lat="32.58838180199827" lon="-4.497732634327305"><ele>1816.0</ele><time>2026-04-27T09:18:00.999Z</time></trkpt><trkpt lat="32.58855680816775" lon="-4.49791911189915"><ele>1817.0</ele><time>2026-04-27T09:18:01.999Z</time></trkpt><trkpt lat="32.58872061122705" lon="-4.498119311635704"><ele>1818.5</ele><time>2026-04-27T09:18:02.999Z</time></trkpt><trkpt lat="32.58888476191242" lon="-4.498320611889339"><ele>1820.0</ele><time>2026-04-27T09:18:03.999Z</time></trkpt><trkpt lat="32.58905190682523" lon="-4.498526296491369"><ele>1820.0</ele><time>2026-04-27T09:18:04.999Z</time></trkpt><trkpt lat="32.589216184656635" lon="-4.498729885973218"><ele>1820.0</ele><time>2026-04-27T09:18:05.999Z</time></trkpt><trkpt lat="32.58937879123288" lon="-4.498930487816447"><ele>1822.5</ele><time>2026-04-27T09:18:06.999Z</time></trkpt><trkpt lat="32.58953927150833" lon="-4.4991284658423565"><ele>1825.0</ele><time>2026-04-27T09:18:07.999Z</time></trkpt><trkpt lat="32.589694215804414" lon="-4.499324017754513"><ele>1825.0</ele><time>2026-04-27T09:18:08.999Z</time></trkpt><trkpt lat="32.58984427863596" lon="-4.499513599696509"><ele>1825.0</ele><time>2026-04-27T09:18:09.999Z</time></trkpt><trkpt lat="32.58998780238444" lon="-4.499694835292741"><ele>1825.0</ele><time>2026-04-27T09:18:10.999Z</time></trkpt><trkpt lat="32.59012489762342" lon="-4.49986593099783"><ele>1825.3333333333335</ele><time>2026-04-27T09:18:11.999Z</time></trkpt><trkpt lat="32.590243109110645" lon="-4.500040005325074"><ele>1825.6666666666665</ele><time>2026-04-27T09:18:12.999Z</time></trkpt><trkpt lat="32.590366051461935" lon="-4.500193095514132"><ele>1826.0</ele><time>2026-04-27T09:18:13.999Z</time></trkpt><trkpt lat="32.590500103632344" lon="-4.50033081503393"><ele>1828.3333333333333</ele><time>2026-04-27T09:18:14.999Z</time></trkpt><trkpt lat="32.59061254757484" lon="-4.50049403503116"><ele>1830.6666666666665</ele><time>2026-04-27T09:18:15.999Z</time></trkpt><trkpt lat="32.59073408087336" lon="-4.500643695371173"><ele>1833.0</ele><time>2026-04-27T09:18:16.999Z</time></trkpt><trkpt lat="32.59085188492193" lon="-4.500788569528061"><ele>1833.0</ele><time>2026-04-27T09:18:17.999Z</time></trkpt><trkpt lat="32.59096306252265" lon="-4.500926952431163"><ele>1833.0</ele><time>2026-04-27T09:18:18.999Z</time></trkpt><trkpt lat="32.59106965153564" lon="-4.501060482478112"><ele>1833.0</ele><time>2026-04-27T09:18:19.999Z</time></trkpt><trkpt lat="32.591176701191195" lon="-4.501190794428608"><ele>1833.6666666666665</ele><time>2026-04-27T09:18:20.999Z</time></trkpt><trkpt lat="32.591290526186945" lon="-4.501326480651298"><ele>1834.3333333333333</ele><time>2026-04-27T09:18:21.999Z</time></trkpt><trkpt lat="32.59141670761693" lon="-4.501476902645887"><ele>1835.0</ele><time>2026-04-27T09:18:22.999Z</time></trkpt><trkpt lat="32.591549861155045" lon="-4.501641519986665"><ele>1835.0</ele><time>2026-04-27T09:18:23.999Z</time></trkpt><trkpt lat="32.591697156333176" lon="-4.501824582315466"><ele>1835.0</ele><time>2026-04-27T09:18:24.999Z</time></trkpt><trkpt lat="32.59185164668997" lon="-4.502019691495549"><ele>1835.0</ele><time>2026-04-27T09:18:25.999Z</time></trkpt><trkpt lat="32.592008560572346" lon="-4.502220840216625"><ele>1838.0</ele><time>2026-04-27T09:18:26.999Z</time></trkpt><trkpt lat="32.59217155078929" lon="-4.502428171597241"><ele>1841.0</ele><time>2026-04-27T09:18:27.999Z</time></trkpt><trkpt lat="32.59233327828122" lon="-4.5026414346153825"><ele>1841.0</ele><time>2026-04-27T09:18:28.999Z</time></trkpt><trkpt lat="32.592492761523445" lon="-4.502872974553922"><ele>1841.0</ele><time>2026-04-27T09:18:29.999Z</time></trkpt><trkpt lat="32.5926430093308" lon="-4.503126058755105"><ele>1841.0</ele><time>2026-04-27T09:18:30.999Z</time></trkpt><trkpt lat="32.59278527712932" lon="-4.50339836635274"><ele>1841.0</ele><time>2026-04-27T09:18:31.999Z</time></trkpt><trkpt lat="32.592916862542324" lon="-4.503688361376136"><ele>1843.5</ele><time>2026-04-27T09:18:32.999Z</time></trkpt><trkpt lat="32.59305837301827" lon="-4.503986920318287"><ele>1846.0</ele><time>2026-04-27T09:18:33.998Z</time></trkpt><trkpt lat="32.5931471783441" lon="-4.504325331745877"><ele>1844.0</ele><time>2026-04-27T09:18:34.998Z</time></trkpt><trkpt lat="32.59323558086099" lon="-4.5046645685576845"><ele>1842.0</ele><time>2026-04-27T09:18:35.998Z</time></trkpt><trkpt lat="32.59330341199685" lon="-4.505003498833934"><ele>1842.0</ele><time>2026-04-27T09:18:36.998Z</time></trkpt><trkpt lat="32.59335101534563" lon="-4.50534152665124"><ele>1842.0</ele><time>2026-04-27T09:18:37.998Z</time></trkpt><trkpt lat="32.59337755171183" lon="-4.505685540299211"><ele>1842.5</ele><time>2026-04-27T09:18:38.998Z</time></trkpt><trkpt lat="32.59338850338495" lon="-4.506039076785212"><ele>1843.0</ele><time>2026-04-27T09:18:39.998Z</time></trkpt><trkpt lat="32.593386023532936" lon="-4.506403473063682"><ele>1843.0</ele><time>2026-04-27T09:18:40.998Z</time></trkpt><trkpt lat="32.59337221944262" lon="-4.506778281269011"><ele>1843.0</ele><time>2026-04-27T09:18:41.998Z</time></trkpt><trkpt lat="32.59335304725212" lon="-4.5071650364074"><ele>1844.0</ele><time>2026-04-27T09:18:42.998Z</time></trkpt><trkpt lat="32.593329156561474" lon="-4.507559262830017"><ele>1845.0</ele><time>2026-04-27T09:18:43.998Z</time></trkpt><trkpt lat="32.59329594261539" lon="-4.507956302541981"><ele>1845.0</ele><time>2026-04-27T09:18:44.998Z</time></trkpt><trkpt lat="32.59324479619685" lon="-4.508354981890456"><ele>1845.0</ele><time>2026-04-27T09:18:45.998Z</time></trkpt><trkpt lat="32.59317695203155" lon="-4.508742744990698"><ele>1846.0</ele><time>2026-04-27T09:18:47Z</time></trkpt><trkpt lat="32.593096357018524" lon="-4.50911768847975"><ele>1847.0</ele><time>2026-04-27T09:18:48Z</time></trkpt><trkpt lat="32.59301438000001" lon="-4.5094849521796485"><ele>1850.0</ele><time>2026-04-27T09:18:49Z</time></trkpt><trkpt lat="32.59294403490537" lon="-4.509841830925293"><ele>1853.0</ele><time>2026-04-27T09:18:50Z</time></trkpt><trkpt lat="32.59288560179615" lon="-4.510201128710662"><ele>1851.5</ele><time>2026-04-27T09:18:51Z</time></trkpt><trkpt lat="32.59284306669105" lon="-4.510577047860488"><ele>1850.0</ele><time>2026-04-27T09:18:52Z</time></trkpt><trkpt lat="32.59281893510659" lon="-4.510963673730075"><ele>1850.5</ele><time>2026-04-27T09:18:53Z</time></trkpt><trkpt lat="32.592812970256794" lon="-4.511358722589673"><ele>1851.0</ele><time>2026-04-27T09:18:54Z</time></trkpt><trkpt lat="32.59281672177539" lon="-4.511763874339762"><ele>1851.0</ele><time>2026-04-27T09:18:55Z</time></trkpt><trkpt lat="32.59282666912444" lon="-4.512181223532022"><ele>1851.0</ele><time>2026-04-27T09:18:56Z</time></trkpt><trkpt lat="32.59284049776425" lon="-4.512604145253087"><ele>1857.5</ele><time>2026-04-27T09:18:57Z</time></trkpt><trkpt lat="32.592852291687564" lon="-4.513024497575456"><ele>1864.0</ele><time>2026-04-27T09:18:58Z</time></trkpt><trkpt lat="32.59285807049545" lon="-4.51343048808237"><ele>1866.0</ele><time>2026-04-27T09:18:59Z</time></trkpt><trkpt lat="32.5928604876527" lon="-4.513824586053556"><ele>1868.0</ele><time>2026-04-27T09:19:00Z</time></trkpt><trkpt lat="32.592855648930296" lon="-4.514199594805825"><ele>1868.0</ele><time>2026-04-27T09:19:01Z</time></trkpt><trkpt lat="32.59284207568546" lon="-4.514559572318681"><ele>1868.0</ele><time>2026-04-27T09:19:02Z</time></trkpt><trkpt lat="32.59281789542604" lon="-4.514906365828177"><ele>1860.0</ele><time>2026-04-27T09:19:03Z</time></trkpt><trkpt lat="32.59278630080931" lon="-4.51525066990204"><ele>1852.0</ele><time>2026-04-27T09:19:04Z</time></trkpt><trkpt lat="32.59275357081502" lon="-4.5156032139862265"><ele>1852.0</ele><time>2026-04-27T09:19:05Z</time></trkpt><trkpt lat="32.59271947111607" lon="-4.515963867663613"><ele>1852.0</ele><time>2026-04-27T09:19:06Z</time></trkpt><trkpt lat="32.5926837544898" lon="-4.516331543552588"><ele>1851.5</ele><time>2026-04-27T09:19:07Z</time></trkpt><trkpt lat="32.59264878827527" lon="-4.5167071989816865"><ele>1851.0</ele><time>2026-04-27T09:19:08Z</time></trkpt><trkpt lat="32.592615179956866" lon="-4.5170989805911335"><ele>1852.0</ele><time>2026-04-27T09:19:09Z</time></trkpt><trkpt lat="32.59258879407196" lon="-4.517504542113952"><ele>1853.0</ele><time>2026-04-27T09:19:10Z</time></trkpt><trkpt lat="32.59258256098504" lon="-4.517918753614891"><ele>1854.5</ele><time>2026-04-27T09:19:11Z</time></trkpt><trkpt lat="32.59259564847287" lon="-4.518338540641905"><ele>1856.0</ele><time>2026-04-27T09:19:12Z</time></trkpt><trkpt lat="32.59263510494232" lon="-4.518766305334309"><ele>1857.0</ele><time>2026-04-27T09:19:13Z</time></trkpt><trkpt lat="32.59269873545629" lon="-4.5192011399736565"><ele>1858.0</ele><time>2026-04-27T09:19:14Z</time></trkpt><trkpt lat="32.59277079009712" lon="-4.5196377422969425"><ele>1864.0</ele><time>2026-04-27T09:19:15Z</time></trkpt><trkpt lat="32.59284334311557" lon="-4.520073949061804"><ele>1870.0</ele><time>2026-04-27T09:19:16Z</time></trkpt><trkpt lat="32.592912574658136" lon="-4.520504999112665"><ele>1870.5</ele><time>2026-04-27T09:19:17Z</time></trkpt><trkpt lat="32.59297998885306" lon="-4.520933584054101"><ele>1871.0</ele><time>2026-04-27T09:19:18Z</time></trkpt><trkpt lat="32.59304943114819" lon="-4.521363181892223"><ele>1871.0</ele><time>2026-04-27T09:19:19Z</time></trkpt><trkpt lat="32.593126134300924" lon="-4.521785435655803"><ele>1871.0</ele><time>2026-04-27T09:19:20Z</time></trkpt><trkpt lat="32.59322485803899" lon="-4.522208330435482"><ele>1870.5</ele><time>2026-04-27T09:19:21Z</time></trkpt><trkpt lat="32.593341165299435" lon="-4.522631852526199"><ele>1870.0</ele><time>2026-04-27T09:19:22Z</time></trkpt><trkpt lat="32.59346769814284" lon="-4.523047279248538"><ele>1869.5</ele><time>2026-04-27T09:19:23Z</time></trkpt><trkpt lat="32.59360213285539" lon="-4.523455846031756"><ele>1869.0</ele><time>2026-04-27T09:19:23.999Z</time></trkpt><trkpt lat="32.593737694246755" lon="-4.523857675935756"><ele>1873.5</ele><time>2026-04-27T09:19:24.999Z</time></trkpt><trkpt lat="32.59387356059209" lon="-4.524259196758557"><ele>1878.0</ele><time>2026-04-27T09:19:25.999Z</time></trkpt><trkpt lat="32.59401260837014" lon="-4.524667747953658"><ele>1878.0</ele><time>2026-04-27T09:19:26.999Z</time></trkpt><trkpt lat="32.59416019824324" lon="-4.525081569525531"><ele>1878.0</ele><time>2026-04-27T09:19:27.999Z</time></trkpt><trkpt lat="32.594318698170454" lon="-4.525491004282315"><ele>1876.0</ele><time>2026-04-27T09:19:28.999Z</time></trkpt><trkpt lat="32.59448543639044" lon="-4.525884343513843"><ele>1874.0</ele><time>2026-04-27T09:19:29.999Z</time></trkpt><trkpt lat="32.594653908719266" lon="-4.5262616711778465"><ele>1878.5</ele><time>2026-04-27T09:19:30.999Z</time></trkpt><trkpt lat="32.59481571212846" lon="-4.5266169623604995"><ele>1883.0</ele><time>2026-04-27T09:19:31.999Z</time></trkpt><trkpt lat="32.59497319429071" lon="-4.526958899212853"><ele>1882.5</ele><time>2026-04-27T09:19:32.999Z</time></trkpt><trkpt lat="32.59513712730973" lon="-4.527280258795751"><ele>1882.0</ele><time>2026-04-27T09:19:33.999Z</time></trkpt><trkpt lat="32.59531919476111" lon="-4.527588009198463"><ele>1885.5</ele><time>2026-04-27T09:19:34.999Z</time></trkpt><trkpt lat="32.59552403415848" lon="-4.527895535812885"><ele>1889.0</ele><time>2026-04-27T09:19:35.999Z</time></trkpt><trkpt lat="32.59575285924555" lon="-4.528190140004232"><ele>1889.0</ele><time>2026-04-27T09:19:36.999Z</time></trkpt><trkpt lat="32.5959994250177" lon="-4.528458542293517"><ele>1889.0</ele><time>2026-04-27T09:19:37.999Z</time></trkpt><trkpt lat="32.596257941692" lon="-4.528701125392559"><ele>1890.5</ele><time>2026-04-27T09:19:38.999Z</time></trkpt><trkpt lat="32.596533787031994" lon="-4.528922683107091"><ele>1892.0</ele><time>2026-04-27T09:19:39.999Z</time></trkpt><trkpt lat="32.59680692661234" lon="-4.529105947047511"><ele>1892.0</ele><time>2026-04-27T09:19:40.999Z</time></trkpt><trkpt lat="32.597081221813845" lon="-4.52927603103746"><ele>1892.0</ele><time>2026-04-27T09:19:41.999Z</time></trkpt><trkpt lat="32.597358546813126" lon="-4.529448943488273"><ele>1890.0</ele><time>2026-04-27T09:19:42.999Z</time></trkpt><trkpt lat="32.597630893966326" lon="-4.529628836005134"><ele>1888.0</ele><time>2026-04-27T09:19:43.999Z</time></trkpt><trkpt lat="32.597903439205275" lon="-4.5298133774973035"><ele>1888.0</ele><time>2026-04-27T09:19:44.999Z</time></trkpt><trkpt lat="32.59817810006367" lon="-4.5299905982054245"><ele>1888.0</ele><time>2026-04-27T09:19:45.999Z</time></trkpt><trkpt lat="32.5984497582375" lon="-4.530152047890832"><ele>1890.0</ele><time>2026-04-27T09:19:46.999Z</time></trkpt><trkpt lat="32.5987176660759" lon="-4.530287412650569"><ele>1892.0</ele><time>2026-04-27T09:19:47.999Z</time></trkpt><trkpt lat="32.598995912518205" lon="-4.530389086733475"><ele>1888.5</ele><time>2026-04-27T09:19:48.999Z</time></trkpt><trkpt lat="32.599294177229304" lon="-4.530463200834135"><ele>1885.0</ele><time>2026-04-27T09:19:49.999Z</time></trkpt><trkpt lat="32.59960570457016" lon="-4.530516956438524"><ele>1885.0</ele><time>2026-04-27T09:19:50.999Z</time></trkpt><trkpt lat="32.59991434142045" lon="-4.530565931748553"><ele>1885.0</ele><time>2026-04-27T09:19:51.999Z</time></trkpt><trkpt lat="32.60019353901425" lon="-4.530600183741261"><ele>1883.5</ele><time>2026-04-27T09:19:52.999Z</time></trkpt><trkpt lat="32.60044299838958" lon="-4.530605437529354"><ele>1882.0</ele><time>2026-04-27T09:19:53.999Z</time></trkpt><trkpt lat="32.600699542548085" lon="-4.5305760200398995"><ele>1882.0</ele><time>2026-04-27T09:19:54.999Z</time></trkpt><trkpt lat="32.60095885019195" lon="-4.530515686687011"><ele>1882.0</ele><time>2026-04-27T09:19:55.999Z</time></trkpt><trkpt lat="32.601216776024046" lon="-4.530443755247578"><ele>1887.5</ele><time>2026-04-27T09:19:56.999Z</time></trkpt><trkpt lat="32.601469009439036" lon="-4.530370859565143"><ele>1893.0</ele><time>2026-04-27T09:19:57.999Z</time></trkpt><trkpt lat="32.60170893447386" lon="-4.5302931070261545"><ele>1893.0</ele><time>2026-04-27T09:19:58.999Z</time></trkpt><trkpt lat="32.60193591819872" lon="-4.53019916145585"><ele>1893.0</ele><time>2026-04-27T09:19:59.999Z</time></trkpt><trkpt lat="32.60214725334961" lon="-4.530084725037279"><ele>1887.6666666666665</ele><time>2026-04-27T09:20:00.999Z</time></trkpt><trkpt lat="32.6023378550734" lon="-4.52994418235293"><ele>1882.3333333333333</ele><time>2026-04-27T09:20:01.999Z</time></trkpt><trkpt lat="32.60251081871239" lon="-4.529776069557565"><ele>1877.0</ele><time>2026-04-27T09:20:02.999Z</time></trkpt><trkpt lat="32.60267652462767" lon="-4.529581597460518"><ele>1871.5</ele><time>2026-04-27T09:20:03.999Z</time></trkpt><trkpt lat="32.60284576346004" lon="-4.529358692826646"><ele>1866.0</ele><time>2026-04-27T09:20:04.999Z</time></trkpt><trkpt lat="32.60301133946476" lon="-4.529132034146508"><ele>1866.0</ele><time>2026-04-27T09:20:05.999Z</time></trkpt><trkpt lat="32.60317000629434" lon="-4.528912731646891"><ele>1866.0</ele><time>2026-04-27T09:20:06.999Z</time></trkpt><trkpt lat="32.603315991152826" lon="-4.528693723475429"><ele>1870.3333333333335</ele><time>2026-04-27T09:20:07.999Z</time></trkpt><trkpt lat="32.60344185832381" lon="-4.528465932966827"><ele>1874.6666666666667</ele><time>2026-04-27T09:20:08.999Z</time></trkpt><trkpt lat="32.60354343557544" lon="-4.5282422619241665"><ele>1879.0</ele><time>2026-04-27T09:20:09.999Z</time></trkpt><trkpt lat="32.603637247163405" lon="-4.5280398254196825"><ele>1875.3333333333335</ele><time>2026-04-27T09:20:10.999Z</time></trkpt><trkpt lat="32.603729386340945" lon="-4.5278601548082635"><ele>1871.6666666666665</ele><time>2026-04-27T09:20:11.999Z</time></trkpt><trkpt lat="32.603829467323514" lon="-4.527705084502685"><ele>1868.0</ele><time>2026-04-27T09:20:12.999Z</time></trkpt><trkpt lat="32.60394208932171" lon="-4.527590753590875"><ele>1868.0</ele><time>2026-04-27T09:20:13.999Z</time></trkpt><trkpt lat="32.60407095856886" lon="-4.527507245905339"><ele>1868.0</ele><time>2026-04-27T09:20:14.999Z</time></trkpt><trkpt lat="32.60421704778164" lon="-4.527455545477699"><ele>1868.0</ele><time>2026-04-27T09:20:15.999Z</time></trkpt><trkpt lat="32.60437939073213" lon="-4.527441542866472"><ele>1870.6666666666665</ele><time>2026-04-27T09:20:16.999Z</time></trkpt><trkpt lat="32.604545363636255" lon="-4.527487750162006"><ele>1873.3333333333335</ele><time>2026-04-27T09:20:17.999Z</time></trkpt><trkpt lat="32.60471746358597" lon="-4.527576168464532"><ele>1876.0</ele><time>2026-04-27T09:20:18.999Z</time></trkpt><trkpt lat="32.604909982769534" lon="-4.52767776345264"><ele>1876.0</ele><time>2026-04-27T09:20:19.999Z</time></trkpt><trkpt lat="32.60509776180407" lon="-4.527819241655927"><ele>1876.0</ele><time>2026-04-27T09:20:20.999Z</time></trkpt><trkpt lat="32.60529128415317" lon="-4.527955942924847"><ele>1876.0</ele><time>2026-04-27T09:20:21.999Z</time></trkpt><trkpt lat="32.60548492468767" lon="-4.52807123531872"><ele>1868.0</ele><time>2026-04-27T09:20:22.999Z</time></trkpt><trkpt lat="32.60567220323149" lon="-4.528146395189769"><ele>1860.0</ele><time>2026-04-27T09:20:23.999Z</time></trkpt><trkpt lat="32.605852607038486" lon="-4.528173751781737"><ele>1852.0</ele><time>2026-04-27T09:20:24.999Z</time></trkpt><trkpt lat="32.606032485626116" lon="-4.528158345828371"><ele>1853.0</ele><time>2026-04-27T09:20:25.999Z</time></trkpt><trkpt lat="32.606203034674174" lon="-4.5280962764449955"><ele>1854.0</ele><time>2026-04-27T09:20:26.999Z</time></trkpt><trkpt lat="32.60636566318966" lon="-4.5279934241669615"><ele>1855.0</ele><time>2026-04-27T09:20:27.999Z</time></trkpt><trkpt lat="32.60652172364534" lon="-4.527842155105988"><ele>1855.0</ele><time>2026-04-27T09:20:28.999Z</time></trkpt><trkpt lat="32.606679697199276" lon="-4.527664595402462"><ele>1855.0</ele><time>2026-04-27T09:20:29.999Z</time></trkpt><trkpt lat="32.60684830432512" lon="-4.527459795290168"><ele>1843.0</ele><time>2026-04-27T09:20:30.999Z</time></trkpt><trkpt lat="32.60702090106646" lon="-4.52726099343447"><ele>1831.0</ele><time>2026-04-27T09:20:31.999Z</time></trkpt><trkpt lat="32.60718205841312" lon="-4.527080208437348"><ele>1839.0</ele><time>2026-04-27T09:20:32.999Z</time></trkpt><trkpt lat="32.60731900943724" lon="-4.526931785464077"><ele>1847.0</ele><time>2026-04-27T09:20:33.999Z</time></trkpt><trkpt lat="32.60744646613852" lon="-4.5268044407426205"><ele>1855.0</ele><time>2026-04-27T09:20:34.999Z</time></trkpt><trkpt lat="32.60759145141645" lon="-4.526703704861678"><ele>1855.0</ele><time>2026-04-27T09:20:35.999Z</time></trkpt><trkpt lat="32.6077476378806" lon="-4.5266451019315905"><ele>1855.0</ele><time>2026-04-27T09:20:36.999Z</time></trkpt><trkpt lat="32.60790050847377" lon="-4.52663553590057"><ele>1855.0</ele><time>2026-04-27T09:20:37.999Z</time></trkpt><trkpt lat="32.608030270846925" lon="-4.526654793550711"><ele>1855.0</ele><time>2026-04-27T09:20:38.999Z</time></trkpt><trkpt lat="32.60813225074023" lon="-4.526684840802167"><ele>1852.1666666666667</ele><time>2026-04-27T09:20:39.999Z</time></trkpt><trkpt lat="32.60820835018627" lon="-4.526705702365047"><ele>1849.3333333333335</ele><time>2026-04-27T09:20:40.998Z</time></trkpt><trkpt lat="32.60830733797098" lon="-4.526725594652676"><ele>1846.5</ele><time>2026-04-27T09:20:42.998Z</time></trkpt><trkpt lat="32.60837461821464" lon="-4.526722700737967"><ele>1843.6666666666665</ele><time>2026-04-27T09:20:44.998Z</time></trkpt><trkpt lat="32.60842639956931" lon="-4.526770610407106"><ele>1840.8333333333333</ele><time>2026-04-27T09:20:48.998Z</time></trkpt><trkpt lat="32.60848149022557" lon="-4.5268333770860005"><ele>1838.0</ele><time>2026-04-27T09:20:53Z</time></trkpt><trkpt lat="32.60852816911307" lon="-4.526891263104452"><ele>1838.0</ele><time>2026-04-27T09:20:55Z</time></trkpt><trkpt lat="32.60856981389914" lon="-4.526948524194598"><ele>1838.0000000000002</ele><time>2026-04-27T09:20:58Z</time></trkpt><trkpt lat="32.60856985333473" lon="-4.5270393393666435"><ele>1838.0000000000002</ele><time>2026-04-27T09:22:49.998Z</time></trkpt><trkpt lat="32.60856217939954" lon="-4.527129712310977"><ele>1838.0</ele><time>2026-04-27T09:22:51.998Z</time></trkpt><trkpt lat="32.60858077117073" lon="-4.527296006990416"><ele>1838.0</ele><time>2026-04-27T09:22:53.998Z</time></trkpt><trkpt lat="32.608596211187965" lon="-4.527404832175613"><ele>1835.25</ele><time>2026-04-27T09:22:54.998Z</time></trkpt><trkpt lat="32.60860820385331" lon="-4.5275264233628105"><ele>1832.5</ele><time>2026-04-27T09:22:55.998Z</time></trkpt><trkpt lat="32.60864199671243" lon="-4.527663844940461"><ele>1829.75</ele><time>2026-04-27T09:22:56.998Z</time></trkpt><trkpt lat="32.60865602559068" lon="-4.527821629984226"><ele>1827.0</ele><time>2026-04-27T09:22:57.998Z</time></trkpt><trkpt lat="32.608652604816484" lon="-4.527990187621862"><ele>1830.3333333333335</ele><time>2026-04-27T09:22:59Z</time></trkpt><trkpt lat="32.60868638308385" lon="-4.528163605091432"><ele>1833.6666666666667</ele><time>2026-04-27T09:23:00Z</time></trkpt><trkpt lat="32.6087322675884" lon="-4.52832358460449"><ele>1837.0</ele><time>2026-04-27T09:23:01Z</time></trkpt><trkpt lat="32.608811457568066" lon="-4.52849993169097"><ele>1837.0</ele><time>2026-04-27T09:23:02Z</time></trkpt><trkpt lat="32.60891268624493" lon="-4.528654212843761"><ele>1837.0</ele><time>2026-04-27T09:23:03Z</time></trkpt><trkpt lat="32.6090344433512" lon="-4.528791122554964"><ele>1837.0</ele><time>2026-04-27T09:23:04Z</time></trkpt><trkpt lat="32.60917470054694" lon="-4.528906372392974"><ele>1828.3333333333335</ele><time>2026-04-27T09:23:05Z</time></trkpt><trkpt lat="32.60933540714604" lon="-4.52899680366297"><ele>1819.6666666666665</ele><time>2026-04-27T09:23:06Z</time></trkpt><trkpt lat="32.60951038899342" lon="-4.529053558242954"><ele>1811.0</ele><time>2026-04-27T09:23:07Z</time></trkpt><trkpt lat="32.609694203507026" lon="-4.529081995967359"><ele>1811.0</ele><time>2026-04-27T09:23:08Z</time></trkpt><trkpt lat="32.60989073698605" lon="-4.529064192132805"><ele>1811.0</ele><time>2026-04-27T09:23:09Z</time></trkpt><trkpt lat="32.61009042033777" lon="-4.529013287095999"><ele>1811.0</ele><time>2026-04-27T09:23:10Z</time></trkpt><trkpt lat="32.6102900037404" lon="-4.528938271978833"><ele>1807.3333333333333</ele><time>2026-04-27T09:23:11Z</time></trkpt><trkpt lat="32.6104907268078" lon="-4.528866821747599"><ele>1803.6666666666665</ele><time>2026-04-27T09:23:12Z</time></trkpt><trkpt lat="32.61069166241533" lon="-4.528819055759938"><ele>1800.0</ele><time>2026-04-27T09:23:13Z</time></trkpt><trkpt lat="32.61089336090632" lon="-4.5288037310123395"><ele>1800.0</ele><time>2026-04-27T09:23:14Z</time></trkpt><trkpt lat="32.6111026189114" lon="-4.528823110964576"><ele>1800.0</ele><time>2026-04-27T09:23:15Z</time></trkpt><trkpt lat="32.61132313154421" lon="-4.52887479921826"><ele>1800.0</ele><time>2026-04-27T09:23:16Z</time></trkpt><trkpt lat="32.61155796917681" lon="-4.528959169410411"><ele>1800.0</ele><time>2026-04-27T09:23:17Z</time></trkpt><trkpt lat="32.61180663311996" lon="-4.529063742846866"><ele>1800.0</ele><time>2026-04-27T09:23:18Z</time></trkpt><trkpt lat="32.61207210544648" lon="-4.5291790564606975"><ele>1795.0</ele><time>2026-04-27T09:23:19Z</time></trkpt><trkpt lat="32.61234218217328" lon="-4.529288277117419"><ele>1790.0</ele><time>2026-04-27T09:23:20Z</time></trkpt><trkpt lat="32.612604935321876" lon="-4.529392211936162"><ele>1792.0</ele><time>2026-04-27T09:23:21Z</time></trkpt><trkpt lat="32.61285886063396" lon="-4.529497119580361"><ele>1794.0</ele><time>2026-04-27T09:23:22Z</time></trkpt><trkpt lat="32.61311775095985" lon="-4.529606333716732"><ele>1794.0</ele><time>2026-04-27T09:23:23Z</time></trkpt><trkpt lat="32.613381814204125" lon="-4.529720353228219"><ele>1794.0</ele><time>2026-04-27T09:23:24Z</time></trkpt><trkpt lat="32.6136472609465" lon="-4.529834987300319"><ele>1790.0</ele><time>2026-04-27T09:23:25Z</time></trkpt><trkpt lat="32.61391212717048" lon="-4.5299477596129485"><ele>1786.0</ele><time>2026-04-27T09:23:26Z</time></trkpt><trkpt lat="32.61414272303643" lon="-4.530043167134146"><ele>1786.0</ele><time>2026-04-27T09:23:27Z</time></trkpt><trkpt lat="32.614328311401074" lon="-4.530120863948365"><ele>1786.0</ele><time>2026-04-27T09:23:28Z</time></trkpt><trkpt lat="32.61449696255058" lon="-4.530196382963937"><ele>1786.0</ele><time>2026-04-27T09:23:29Z</time></trkpt><trkpt lat="32.61464128392341" lon="-4.530263493161541"><ele>1785.8</ele><time>2026-04-27T09:23:29.999Z</time></trkpt><trkpt lat="32.61476287004164" lon="-4.530317881862494"><ele>1785.6</ele><time>2026-04-27T09:23:30.999Z</time></trkpt><trkpt lat="32.61485798650661" lon="-4.530358658550596"><ele>1785.4</ele><time>2026-04-27T09:23:31.999Z</time></trkpt><trkpt lat="32.614940244208746" lon="-4.530390840144375"><ele>1785.2</ele><time>2026-04-27T09:23:32.999Z</time></trkpt><trkpt lat="32.6150189502594" lon="-4.530418181768249"><ele>1785.0</ele><time>2026-04-27T09:23:33.999Z</time></trkpt><trkpt lat="32.61510308776742" lon="-4.530441174585154"><ele>1785.0</ele><time>2026-04-27T09:23:34.999Z</time></trkpt><trkpt lat="32.61519662180525" lon="-4.530457871827638"><ele>1785.0</ele><time>2026-04-27T09:23:35.999Z</time></trkpt><trkpt lat="32.61529280588353" lon="-4.530473868817004"><ele>1785.0</ele><time>2026-04-27T09:23:36.999Z</time></trkpt><trkpt lat="32.615400412358795" lon="-4.530495097426945"><ele>1785.0</ele><time>2026-04-27T09:23:37.999Z</time></trkpt><trkpt lat="32.61552627762822" lon="-4.530520589370926"><ele>1785.0</ele><time>2026-04-27T09:23:38.999Z</time></trkpt><trkpt lat="32.615668776084696" lon="-4.530552664176692"><ele>1785.0</ele><time>2026-04-27T09:23:39.999Z</time></trkpt><trkpt lat="32.61582389855972" lon="-4.530587386827822"><ele>1785.0</ele><time>2026-04-27T09:23:40.999Z</time></trkpt><trkpt lat="32.61599011467834" lon="-4.530623475570721"><ele>1785.0</ele><time>2026-04-27T09:23:41.999Z</time></trkpt><trkpt lat="32.616173512656104" lon="-4.530663499237188"><ele>1781.3333333333335</ele><time>2026-04-27T09:23:42.999Z</time></trkpt><trkpt lat="32.61636029540232" lon="-4.530703196006252"><ele>1777.6666666666667</ele><time>2026-04-27T09:23:43.999Z</time></trkpt><trkpt lat="32.61655107007209" lon="-4.530748315510259"><ele>1774.0</ele><time>2026-04-27T09:23:44.999Z</time></trkpt><trkpt lat="32.616745449085926" lon="-4.530802243533581"><ele>1774.0</ele><time>2026-04-27T09:23:45.999Z</time></trkpt><trkpt lat="32.61694158435579" lon="-4.530866959615348"><ele>1774.0</ele><time>2026-04-27T09:23:46.999Z</time></trkpt><trkpt lat="32.61714300205426" lon="-4.530917031095879"><ele>1774.0</ele><time>2026-04-27T09:23:47.999Z</time></trkpt><trkpt lat="32.61733546027248" lon="-4.531020571611044"><ele>1770.0</ele><time>2026-04-27T09:23:48.999Z</time></trkpt><trkpt lat="32.6175248738342" lon="-4.531102553416016"><ele>1766.0</ele><time>2026-04-27T09:23:49.999Z</time></trkpt><trkpt lat="32.61770731740781" lon="-4.5311853330809235"><ele>1762.0</ele><time>2026-04-27T09:23:50.999Z</time></trkpt><trkpt lat="32.61788497996447" lon="-4.531265752612653"><ele>1762.0</ele><time>2026-04-27T09:23:51.999Z</time></trkpt><trkpt lat="32.61806435549931" lon="-4.531350203183615"><ele>1762.0</ele><time>2026-04-27T09:23:52.999Z</time></trkpt><trkpt lat="32.61825240392174" lon="-4.5314429855101945"><ele>1762.0</ele><time>2026-04-27T09:23:53.999Z</time></trkpt><trkpt lat="32.61844648549342" lon="-4.531540333594599"><ele>1762.0</ele><time>2026-04-27T09:23:54.999Z</time></trkpt><trkpt lat="32.6186388156802" lon="-4.531643060402504"><ele>1762.0</ele><time>2026-04-27T09:23:55.999Z</time></trkpt><trkpt lat="32.61882371139408" lon="-4.531764418998829"><ele>1762.0</ele><time>2026-04-27T09:23:56.999Z</time></trkpt><trkpt lat="32.618999941542334" lon="-4.531909639568078"><ele>1764.0</ele><time>2026-04-27T09:23:57.999Z</time></trkpt><trkpt lat="32.61916669869901" lon="-4.532071147631261"><ele>1766.0</ele><time>2026-04-27T09:23:58.999Z</time></trkpt><trkpt lat="32.61932069738199" lon="-4.532233690155233"><ele>1768.0</ele><time>2026-04-27T09:23:59.999Z</time></trkpt><trkpt lat="32.61947099725062" lon="-4.532388932528082"><ele>1760.0</ele><time>2026-04-27T09:24:00.999Z</time></trkpt><trkpt lat="32.619619113696054" lon="-4.532531559905804"><ele>1752.0</ele><time>2026-04-27T09:24:01.999Z</time></trkpt><trkpt lat="32.619764547630325" lon="-4.532661902720451"><ele>1744.0</ele><time>2026-04-27T09:24:02.999Z</time></trkpt><trkpt lat="32.61990652582998" lon="-4.532779439040658"><ele>1744.0</ele><time>2026-04-27T09:24:03.999Z</time></trkpt><trkpt lat="32.6200447212412" lon="-4.532879235138306"><ele>1744.0</ele><time>2026-04-27T09:24:04.999Z</time></trkpt><trkpt lat="32.620181283997816" lon="-4.532965489280219"><ele>1744.0</ele><time>2026-04-27T09:24:05.999Z</time></trkpt><trkpt lat="32.62031878799158" lon="-4.5330323343668955"><ele>1749.25</ele><time>2026-04-27T09:24:06.999Z</time></trkpt><trkpt lat="32.620455551482344" lon="-4.533062974854964"><ele>1754.5</ele><time>2026-04-27T09:24:07.999Z</time></trkpt><trkpt lat="32.62059555130494" lon="-4.533058515270936"><ele>1759.75</ele><time>2026-04-27T09:24:08.999Z</time></trkpt><trkpt lat="32.620742408289594" lon="-4.533010691125467"><ele>1765.0</ele><time>2026-04-27T09:24:09.999Z</time></trkpt><trkpt lat="32.620886527697024" lon="-4.532917816914194"><ele>1760.0</ele><time>2026-04-27T09:24:10.999Z</time></trkpt><trkpt lat="32.621020718104816" lon="-4.532789397470548"><ele>1755.0</ele><time>2026-04-27T09:24:11.999Z</time></trkpt><trkpt lat="32.62115184580042" lon="-4.532648794109492"><ele>1750.0</ele><time>2026-04-27T09:24:12.999Z</time></trkpt><trkpt lat="32.6212914682775" lon="-4.532526591181105"><ele>1750.0</ele><time>2026-04-27T09:24:13.999Z</time></trkpt><trkpt lat="32.621445843236366" lon="-4.532435160719889"><ele>1750.0</ele><time>2026-04-27T09:24:14.999Z</time></trkpt><trkpt lat="32.62162705719396" lon="-4.532370616984732"><ele>1750.0</ele><time>2026-04-27T09:24:15.999Z</time></trkpt><trkpt lat="32.621832738360794" lon="-4.532329205634196"><ele>1751.3333333333335</ele><time>2026-04-27T09:24:16.999Z</time></trkpt><trkpt lat="32.62204611836756" lon="-4.532302575643518"><ele>1752.6666666666665</ele><time>2026-04-27T09:24:17.999Z</time></trkpt><trkpt lat="32.622263175870714" lon="-4.532277919214059"><ele>1754.0</ele><time>2026-04-27T09:24:18.999Z</time></trkpt><trkpt lat="32.62247148172144" lon="-4.532249414670593"><ele>1754.0</ele><time>2026-04-27T09:24:19.999Z</time></trkpt><trkpt lat="32.622671702310065" lon="-4.532221196046601"><ele>1754.0</ele><time>2026-04-27T09:24:20.999Z</time></trkpt><trkpt lat="32.62286721701784" lon="-4.532208499209489"><ele>1754.0</ele><time>2026-04-27T09:24:21.999Z</time></trkpt><trkpt lat="32.62306547100083" lon="-4.532225247062377"><ele>1747.3333333333333</ele><time>2026-04-27T09:24:22.999Z</time></trkpt><trkpt lat="32.6232549685163" lon="-4.532288825246909"><ele>1740.6666666666665</ele><time>2026-04-27T09:24:23.999Z</time></trkpt><trkpt lat="32.623424384905185" lon="-4.53239616855229"><ele>1734.0</ele><time>2026-04-27T09:24:24.999Z</time></trkpt><trkpt lat="32.623579543890536" lon="-4.532537254623011"><ele>1729.3333333333335</ele><time>2026-04-27T09:24:25.999Z</time></trkpt><trkpt lat="32.62371568696649" lon="-4.532713941859483"><ele>1724.6666666666667</ele><time>2026-04-27T09:24:26.999Z</time></trkpt><trkpt lat="32.623821971518595" lon="-4.53292064220871"><ele>1720.0</ele><time>2026-04-27T09:24:27.999Z</time></trkpt><trkpt lat="32.62390943098919" lon="-4.533132285559359"><ele>1720.0</ele><time>2026-04-27T09:24:28.999Z</time></trkpt><trkpt lat="32.6240095134763" lon="-4.533322206713191"><ele>1720.0</ele><time>2026-04-27T09:24:29.999Z</time></trkpt><trkpt lat="32.62414065792842" lon="-4.533475783703313"><ele>1720.0</ele><time>2026-04-27T09:24:30.999Z</time></trkpt><trkpt lat="32.62429587325075" lon="-4.533606442789855"><ele>1720.0</ele><time>2026-04-27T09:24:31.999Z</time></trkpt><trkpt lat="32.624481900865" lon="-4.533706250007024"><ele>1720.0</ele><time>2026-04-27T09:24:32.999Z</time></trkpt><trkpt lat="32.624693043453554" lon="-4.5337760609665985"><ele>1720.0</ele><time>2026-04-27T09:24:33.999Z</time></trkpt><trkpt lat="32.62491523758545" lon="-4.533814858336233"><ele>1720.0</ele><time>2026-04-27T09:24:34.999Z</time></trkpt><trkpt lat="32.62514008972779" lon="-4.533839726871151"><ele>1720.0</ele><time>2026-04-27T09:24:35.999Z</time></trkpt><trkpt lat="32.62536429705216" lon="-4.53385865233696"><ele>1718.0</ele><time>2026-04-27T09:24:36.999Z</time></trkpt><trkpt lat="32.62559617190711" lon="-4.5338550050103175"><ele>1716.0</ele><time>2026-04-27T09:24:37.999Z</time></trkpt><trkpt lat="32.62583079783652" lon="-4.533818599010484"><ele>1716.0</ele><time>2026-04-27T09:24:38.999Z</time></trkpt><trkpt lat="32.62606540217287" lon="-4.533758716753096"><ele>1716.0</ele><time>2026-04-27T09:24:39.999Z</time></trkpt><trkpt lat="32.62629853590278" lon="-4.533695854142735"><ele>1709.3333333333335</ele><time>2026-04-27T09:24:40.999Z</time></trkpt><trkpt lat="32.62651922961862" lon="-4.533633528950324"><ele>1702.6666666666667</ele><time>2026-04-27T09:24:41.999Z</time></trkpt><trkpt lat="32.62672078563139" lon="-4.533565392672802"><ele>1696.0</ele><time>2026-04-27T09:24:42.999Z</time></trkpt><trkpt lat="32.62690280752289" lon="-4.533479087969494"><ele>1700.6666666666667</ele><time>2026-04-27T09:24:43.999Z</time></trkpt><trkpt lat="32.62706553191283" lon="-4.533347065114878"><ele>1705.3333333333335</ele><time>2026-04-27T09:24:44.999Z</time></trkpt><trkpt lat="32.627204057979505" lon="-4.533173291342458"><ele>1710.0</ele><time>2026-04-27T09:24:45.998Z</time></trkpt><trkpt lat="32.62731939808793" lon="-4.532983216893255"><ele>1703.3333333333335</ele><time>2026-04-27T09:24:46.998Z</time></trkpt><trkpt lat="32.62742621621036" lon="-4.532805056327164"><ele>1696.6666666666667</ele><time>2026-04-27T09:24:47.998Z</time></trkpt><trkpt lat="32.62755051522021" lon="-4.532660135111317"><ele>1690.0</ele><time>2026-04-27T09:24:48.998Z</time></trkpt><trkpt lat="32.627697985981904" lon="-4.532554287433422"><ele>1690.6666666666667</ele><time>2026-04-27T09:24:49.998Z</time></trkpt><trkpt lat="32.62785959838118" lon="-4.532482252220102"><ele>1691.3333333333335</ele><time>2026-04-27T09:24:50.998Z</time></trkpt><trkpt lat="32.628035023028346" lon="-4.532444821068742"><ele>1692.0</ele><time>2026-04-27T09:24:51.998Z</time></trkpt><trkpt lat="32.62822637043759" lon="-4.532433930760267"><ele>1692.0</ele><time>2026-04-27T09:24:52.998Z</time></trkpt><trkpt lat="32.62843189484356" lon="-4.532432195718596"><ele>1692.0</ele><time>2026-04-27T09:24:53.998Z</time></trkpt><trkpt lat="32.62863839293945" lon="-4.532424158355338"><ele>1692.0</ele><time>2026-04-27T09:24:54.998Z</time></trkpt><trkpt lat="32.628836094373014" lon="-4.532411633001202"><ele>1689.3333333333335</ele><time>2026-04-27T09:24:55.998Z</time></trkpt><trkpt lat="32.629025876970246" lon="-4.53239945540077"><ele>1686.6666666666667</ele><time>2026-04-27T09:24:56.998Z</time></trkpt><trkpt lat="32.629204275216594" lon="-4.532391352311332"><ele>1684.0</ele><time>2026-04-27T09:24:57.998Z</time></trkpt><trkpt lat="32.62937028533234" lon="-4.5323922341232015"><ele>1680.3333333333335</ele><time>2026-04-27T09:24:58.998Z</time></trkpt><trkpt lat="32.62953033689788" lon="-4.532415551254424"><ele>1676.6666666666665</ele><time>2026-04-27T09:24:59.998Z</time></trkpt><trkpt lat="32.62967643583792" lon="-4.532475614905771"><ele>1673.0</ele><time>2026-04-27T09:25:00.998Z</time></trkpt><trkpt lat="32.629804438046065" lon="-4.532571067845316"><ele>1673.0</ele><time>2026-04-27T09:25:01.998Z</time></trkpt><trkpt lat="32.62991685669806" lon="-4.532697079721686"><ele>1673.0</ele><time>2026-04-27T09:25:02.998Z</time></trkpt><trkpt lat="32.62999773529415" lon="-4.5328498086477955"><ele>1673.0</ele><time>2026-04-27T09:25:03.998Z</time></trkpt><trkpt lat="32.63005052398895" lon="-4.533013703088417"><ele>1673.75</ele><time>2026-04-27T09:25:05Z</time></trkpt><trkpt lat="32.63007151543829" lon="-4.533184512392055"><ele>1674.5</ele><time>2026-04-27T09:25:06Z</time></trkpt><trkpt lat="32.630060611389474" lon="-4.533352117568642"><ele>1675.25</ele><time>2026-04-27T09:25:07Z</time></trkpt><trkpt lat="32.630019165329244" lon="-4.533518338372863"><ele>1676.0</ele><time>2026-04-27T09:25:08Z</time></trkpt><trkpt lat="32.62995790612221" lon="-4.5336924839115795"><ele>1670.3333333333333</ele><time>2026-04-27T09:25:09Z</time></trkpt><trkpt lat="32.629886532492925" lon="-4.533871794893619"><ele>1664.6666666666665</ele><time>2026-04-27T09:25:10Z</time></trkpt><trkpt lat="32.629813091969396" lon="-4.534053338563287"><ele>1659.0</ele><time>2026-04-27T09:25:11Z</time></trkpt><trkpt lat="32.62974294033239" lon="-4.534233935929841"><ele>1659.0</ele><time>2026-04-27T09:25:12Z</time></trkpt><trkpt lat="32.629671076343534" lon="-4.534417834485383"><ele>1659.0</ele><time>2026-04-27T09:25:13Z</time></trkpt><trkpt lat="32.62959218069806" lon="-4.534600702412441"><ele>1659.0</ele><time>2026-04-27T09:25:14Z</time></trkpt><trkpt lat="32.62949360510274" lon="-4.534770098989819"><ele>1662.6666666666665</ele><time>2026-04-27T09:25:15Z</time></trkpt><trkpt lat="32.629374957161374" lon="-4.534925302803461"><ele>1666.3333333333333</ele><time>2026-04-27T09:25:16Z</time></trkpt><trkpt lat="32.62924294180075" lon="-4.535061239450266"><ele>1670.0</ele><time>2026-04-27T09:25:17Z</time></trkpt><trkpt lat="32.62911006693065" lon="-4.535195667727668"><ele>1670.0</ele><time>2026-04-27T09:25:18Z</time></trkpt><trkpt lat="32.62899083548248" lon="-4.535345998310193"><ele>1670.0</ele><time>2026-04-27T09:25:19Z</time></trkpt><trkpt lat="32.628896458106794" lon="-4.535517271902159"><ele>1670.0</ele><time>2026-04-27T09:25:20Z</time></trkpt><trkpt lat="32.6288304380485" lon="-4.5357076864225725"><ele>1662.6666666666665</ele><time>2026-04-27T09:25:21Z</time></trkpt><trkpt lat="32.62876718636573" lon="-4.535899436996821"><ele>1655.3333333333335</ele><time>2026-04-27T09:25:22Z</time></trkpt><trkpt lat="32.62870786977196" lon="-4.5360750227011275"><ele>1648.0</ele><time>2026-04-27T09:25:23Z</time></trkpt><trkpt lat="32.628649987425916" lon="-4.536233236435599"><ele>1650.25</ele><time>2026-04-27T09:25:24Z</time></trkpt><trkpt lat="32.62858872394007" lon="-4.536375718039383"><ele>1652.5</ele><time>2026-04-27T09:25:25Z</time></trkpt><trkpt lat="32.62852574299736" lon="-4.5364961393793095"><ele>1654.75</ele><time>2026-04-27T09:25:26Z</time></trkpt><trkpt lat="32.62846705458598" lon="-4.536599113677576"><ele>1657.0</ele><time>2026-04-27T09:25:27Z</time></trkpt><trkpt lat="32.628408437209174" lon="-4.536695491718804"><ele>1657.0</ele><time>2026-04-27T09:25:28Z</time></trkpt><trkpt lat="32.62834472828257" lon="-4.5367758650070185"><ele>1657.0</ele><time>2026-04-27T09:25:29Z</time></trkpt><trkpt lat="32.628276111636694" lon="-4.5368510948946685"><ele>1657.0</ele><time>2026-04-27T09:25:30Z</time></trkpt><trkpt lat="32.628197244975745" lon="-4.536928084190969"><ele>1657.0</ele><time>2026-04-27T09:25:31Z</time></trkpt><trkpt lat="32.62811071347386" lon="-4.5369958955048855"><ele>1657.0</ele><time>2026-04-27T09:25:31.999Z</time></trkpt><trkpt lat="32.62801948275153" lon="-4.537053991811085"><ele>1652.25</ele><time>2026-04-27T09:25:32.999Z</time></trkpt><trkpt lat="32.62792535332761" lon="-4.537108230745424"><ele>1647.5</ele><time>2026-04-27T09:25:33.999Z</time></trkpt><trkpt lat="32.62781685342741" lon="-4.537153445013585"><ele>1642.75</ele><time>2026-04-27T09:25:34.999Z</time></trkpt><trkpt lat="32.62769584971784" lon="-4.537186824791539"><ele>1638.0</ele><time>2026-04-27T09:25:35.999Z</time></trkpt><trkpt lat="32.62756311283534" lon="-4.5372103636905345"><ele>1638.0</ele><time>2026-04-27T09:25:36.999Z</time></trkpt><trkpt lat="32.62741500228813" lon="-4.537221917237061"><ele>1638.0</ele><time>2026-04-27T09:25:37.999Z</time></trkpt><trkpt lat="32.62725783487196" lon="-4.537216478587911"><ele>1638.0</ele><time>2026-04-27T09:25:38.999Z</time></trkpt><trkpt lat="32.62709856036435" lon="-4.537196418932024"><ele>1637.75</ele><time>2026-04-27T09:25:39.999Z</time></trkpt><trkpt lat="32.6269442732028" lon="-4.53717813987307"><ele>1637.5</ele><time>2026-04-27T09:25:40.999Z</time></trkpt><trkpt lat="32.62679760599862" lon="-4.5371826298541045"><ele>1637.25</ele><time>2026-04-27T09:25:41.999Z</time></trkpt><trkpt lat="32.626666554731386" lon="-4.537210222577666"><ele>1637.0</ele><time>2026-04-27T09:25:42.999Z</time></trkpt><trkpt lat="32.626553453168036" lon="-4.537253330423783"><ele>1636.9999999999998</ele><time>2026-04-27T09:25:43.999Z</time></trkpt><trkpt lat="32.626457357422716" lon="-4.5373045277040776"><ele>1637.0</ele><time>2026-04-27T09:25:44.999Z</time></trkpt><trkpt lat="32.62637512591944" lon="-4.53735099262032"><ele>1637.0</ele><time>2026-04-27T09:25:45.999Z</time></trkpt><trkpt lat="32.626302126446575" lon="-4.537388931133065"><ele>1637.0</ele><time>2026-04-27T09:25:46.999Z</time></trkpt><trkpt lat="32.62623331619038" lon="-4.537418635127807"><ele>1636.9999999999998</ele><time>2026-04-27T09:25:47.999Z</time></trkpt><trkpt lat="32.6261635005591" lon="-4.537446104698908"><ele>1637.0</ele><time>2026-04-27T09:25:48.999Z</time></trkpt><trkpt lat="32.62608230609301" lon="-4.537477758991349"><ele>1639.0</ele><time>2026-04-27T09:25:49.999Z</time></trkpt><trkpt lat="32.6259855242536" lon="-4.537518523237191"><ele>1641.0</ele><time>2026-04-27T09:25:50.999Z</time></trkpt><trkpt lat="32.62586940873993" lon="-4.53756530728775"><ele>1643.0</ele><time>2026-04-27T09:25:51.999Z</time></trkpt><trkpt lat="32.625742464478336" lon="-4.537618076619142"><ele>1645.0</ele><time>2026-04-27T09:25:52.999Z</time></trkpt><trkpt lat="32.62561372493128" lon="-4.537690624183131"><ele>1645.0</ele><time>2026-04-27T09:25:53.999Z</time></trkpt><trkpt lat="32.62549511009675" lon="-4.537787088002127"><ele>1645.0</ele><time>2026-04-27T09:25:54.999Z</time></trkpt><trkpt lat="32.62539616535904" lon="-4.537919160994312"><ele>1645.0</ele><time>2026-04-27T09:25:55.999Z</time></trkpt><trkpt lat="32.62532524982216" lon="-4.53807873982615"><ele>1645.0</ele><time>2026-04-27T09:25:56.999Z</time></trkpt><trkpt lat="32.6252854009242" lon="-4.538254593395095"><ele>1645.0</ele><time>2026-04-27T09:25:57.999Z</time></trkpt><trkpt lat="32.6252898115365" lon="-4.538442646756066"><ele>1645.0</ele><time>2026-04-27T09:25:58.999Z</time></trkpt><trkpt lat="32.62533414549623" lon="-4.538622138758763"><ele>1645.0</ele><time>2026-04-27T09:25:59.999Z</time></trkpt><trkpt lat="32.62541463947324" lon="-4.538785359043855"><ele>1642.6666666666667</ele><time>2026-04-27T09:26:00.999Z</time></trkpt><trkpt lat="32.62552797778674" lon="-4.538924372797587"><ele>1640.3333333333335</ele><time>2026-04-27T09:26:01.999Z</time></trkpt><trkpt lat="32.6256702053452" lon="-4.53902908235845"><ele>1638.0</ele><time>2026-04-27T09:26:02.999Z</time></trkpt><trkpt lat="32.62583505898331" lon="-4.539110531935206"><ele>1638.0</ele><time>2026-04-27T09:26:03.999Z</time></trkpt><trkpt lat="32.62601147015857" lon="-4.539184513510202"><ele>1638.0</ele><time>2026-04-27T09:26:04.999Z</time></trkpt><trkpt lat="32.62618534174624" lon="-4.539262250805534"><ele>1638.0</ele><time>2026-04-27T09:26:05.999Z</time></trkpt><trkpt lat="32.62635195413171" lon="-4.539343989948074"><ele>1640.6666666666665</ele><time>2026-04-27T09:26:06.999Z</time></trkpt><trkpt lat="32.62650959280757" lon="-4.539446268107724"><ele>1643.3333333333333</ele><time>2026-04-27T09:26:07.999Z</time></trkpt><trkpt lat="32.6266494038987" lon="-4.539585510721761"><ele>1646.0</ele><time>2026-04-27T09:26:08.999Z</time></trkpt><trkpt lat="32.62677290300065" lon="-4.539754764139644"><ele>1646.0</ele><time>2026-04-27T09:26:09.999Z</time></trkpt><trkpt lat="32.62686312813995" lon="-4.539958812417171"><ele>1646.0</ele><time>2026-04-27T09:26:10.999Z</time></trkpt><trkpt lat="32.62692213193825" lon="-4.540189703976722"><ele>1646.0</ele><time>2026-04-27T09:26:11.999Z</time></trkpt><trkpt lat="32.626953626664715" lon="-4.540443705593002"><ele>1648.0</ele><time>2026-04-27T09:26:12.999Z</time></trkpt><trkpt lat="32.62697397901494" lon="-4.540708111528926"><ele>1650.0</ele><time>2026-04-27T09:26:13.999Z</time></trkpt><trkpt lat="32.62699329696299" lon="-4.540975973734907"><ele>1636.0</ele><time>2026-04-27T09:26:14.999Z</time></trkpt><trkpt lat="32.62701595919336" lon="-4.54124456852182"><ele>1622.0</ele><time>2026-04-27T09:26:15.999Z</time></trkpt><trkpt lat="32.62704038559404" lon="-4.541512842303181"><ele>1622.0</ele><time>2026-04-27T09:26:16.999Z</time></trkpt><trkpt lat="32.627065644900775" lon="-4.541780254897423"><ele>1622.0</ele><time>2026-04-27T09:26:17.999Z</time></trkpt><trkpt lat="32.62708358203683" lon="-4.542049192214474"><ele>1624.0</ele><time>2026-04-27T09:26:18.999Z</time></trkpt><trkpt lat="32.627074099885625" lon="-4.54232071261131"><ele>1626.0</ele><time>2026-04-27T09:26:19.999Z</time></trkpt><trkpt lat="32.62703056169576" lon="-4.54259895832105"><ele>1628.5</ele><time>2026-04-27T09:26:20.999Z</time></trkpt><trkpt lat="32.62696249885612" lon="-4.5428777504456725"><ele>1631.0</ele><time>2026-04-27T09:26:21.999Z</time></trkpt><trkpt lat="32.62687993358285" lon="-4.543145669226401"><ele>1631.0</ele><time>2026-04-27T09:26:22.999Z</time></trkpt><trkpt lat="32.626796371754615" lon="-4.543411014233107"><ele>1631.0</ele><time>2026-04-27T09:26:23.999Z</time></trkpt><trkpt lat="32.6267396103863" lon="-4.543672579841342"><ele>1628.0</ele><time>2026-04-27T09:26:24.999Z</time></trkpt><trkpt lat="32.62671119423818" lon="-4.543935281587633"><ele>1625.0</ele><time>2026-04-27T09:26:25.999Z</time></trkpt><trkpt lat="32.626708504972406" lon="-4.544198470929745"><ele>1622.0</ele><time>2026-04-27T09:26:26.999Z</time></trkpt><trkpt lat="32.62673680661706" lon="-4.544466298589741"><ele>1619.5</ele><time>2026-04-27T09:26:27.999Z</time></trkpt><trkpt lat="32.626800642935486" lon="-4.5447305077030755"><ele>1617.0</ele><time>2026-04-27T09:26:28.999Z</time></trkpt><trkpt lat="32.62689388521364" lon="-4.54496706210159"><ele>1615.6666666666665</ele><time>2026-04-27T09:26:29.999Z</time></trkpt><trkpt lat="32.62701469486894" lon="-4.5451754972704554"><ele>1614.3333333333333</ele><time>2026-04-27T09:26:30.999Z</time></trkpt><trkpt lat="32.62715342357193" lon="-4.5453644546701035"><ele>1613.0</ele><time>2026-04-27T09:26:31.999Z</time></trkpt><trkpt lat="32.627309863276345" lon="-4.545536341207984"><ele>1613.0</ele><time>2026-04-27T09:26:32.999Z</time></trkpt><trkpt lat="32.62748539600477" lon="-4.545689971940071"><ele>1613.0</ele><time>2026-04-27T09:26:33.999Z</time></trkpt><trkpt lat="32.62767317878196" lon="-4.54583517007941"><ele>1613.0</ele><time>2026-04-27T09:26:34.999Z</time></trkpt><trkpt lat="32.62786555164214" lon="-4.545988902588979"><ele>1614.5</ele><time>2026-04-27T09:26:35.999Z</time></trkpt><trkpt lat="32.62806161095143" lon="-4.546150494166934"><ele>1616.0</ele><time>2026-04-27T09:26:36.999Z</time></trkpt><trkpt lat="32.628286944991025" lon="-4.546265561315029"><ele>1616.0</ele><time>2026-04-27T09:26:37.999Z</time></trkpt><trkpt lat="32.62849055941479" lon="-4.546428023959585"><ele>1616.0</ele><time>2026-04-27T09:26:38.999Z</time></trkpt><trkpt lat="32.62869745702846" lon="-4.546592566242888"><ele>1609.5</ele><time>2026-04-27T09:26:39.999Z</time></trkpt><trkpt lat="32.6289081528155" lon="-4.546775207660596"><ele>1603.0</ele><time>2026-04-27T09:26:40.999Z</time></trkpt><trkpt lat="32.62913133801352" lon="-4.546942814267915"><ele>1603.0</ele><time>2026-04-27T09:26:41.999Z</time></trkpt><trkpt lat="32.629356602183954" lon="-4.547111844430068"><ele>1603.0</ele><time>2026-04-27T09:26:42.999Z</time></trkpt><trkpt lat="32.62958669612792" lon="-4.547284288400765"><ele>1603.0</ele><time>2026-04-27T09:26:43.999Z</time></trkpt><trkpt lat="32.6298244067759" lon="-4.547458701090558"><ele>1603.0</ele><time>2026-04-27T09:26:44.999Z</time></trkpt><trkpt lat="32.63007182101768" lon="-4.547631988089427"><ele>1601.5</ele><time>2026-04-27T09:26:45.999Z</time></trkpt><trkpt lat="32.63032845961815" lon="-4.5477996610131655"><ele>1600.0</ele><time>2026-04-27T09:26:46.999Z</time></trkpt><trkpt lat="32.63059762948194" lon="-4.547962066065669"><ele>1598.5</ele><time>2026-04-27T09:26:47.999Z</time></trkpt><trkpt lat="32.6308762633401" lon="-4.548118486131119"><ele>1597.0</ele><time>2026-04-27T09:26:48.998Z</time></trkpt><trkpt lat="32.63115693001766" lon="-4.548271700083005"><ele>1597.0</ele><time>2026-04-27T09:26:49.998Z</time></trkpt><trkpt lat="32.631437544671755" lon="-4.548426785058551"><ele>1597.0</ele><time>2026-04-27T09:26:50.998Z</time></trkpt><trkpt lat="32.63172116252901" lon="-4.548586420591171"><ele>1590.0</ele><time>2026-04-27T09:26:51.998Z</time></trkpt><trkpt lat="32.63200444598564" lon="-4.548748198281936"><ele>1583.0</ele><time>2026-04-27T09:26:52.998Z</time></trkpt><trkpt lat="32.63228473924425" lon="-4.548907377678018"><ele>1583.0</ele><time>2026-04-27T09:26:53.998Z</time></trkpt><trkpt lat="32.63256613558362" lon="-4.549064834547832"><ele>1583.0</ele><time>2026-04-27T09:26:54.998Z</time></trkpt><trkpt lat="32.632843774171626" lon="-4.549222837987896"><ele>1584.5</ele><time>2026-04-27T09:26:55.998Z</time></trkpt><trkpt lat="32.63311397513399" lon="-4.549389609611724"><ele>1586.0</ele><time>2026-04-27T09:26:56.998Z</time></trkpt><trkpt lat="32.633376917194546" lon="-4.549564760491883"><ele>1586.0</ele><time>2026-04-27T09:26:57.998Z</time></trkpt><trkpt lat="32.633635494753165" lon="-4.549749635899295"><ele>1586.0</ele><time>2026-04-27T09:26:58.998Z</time></trkpt><trkpt lat="32.63388694047066" lon="-4.549945013133684"><ele>1581.5</ele><time>2026-04-27T09:26:59.998Z</time></trkpt><trkpt lat="32.63413193820698" lon="-4.55015315226817"><ele>1577.0</ele><time>2026-04-27T09:27:00.998Z</time></trkpt><trkpt lat="32.63437692113259" lon="-4.550373715978376"><ele>1575.5</ele><time>2026-04-27T09:27:01.998Z</time></trkpt><trkpt lat="32.63462390986351" lon="-4.55059877111726"><ele>1574.0</ele><time>2026-04-27T09:27:02.998Z</time></trkpt><trkpt lat="32.63486679532295" lon="-4.5508215243661425"><ele>1574.0</ele><time>2026-04-27T09:27:03.998Z</time></trkpt><trkpt lat="32.635109717447186" lon="-4.551045605448707"><ele>1574.0</ele><time>2026-04-27T09:27:04.998Z</time></trkpt><trkpt lat="32.6353543511481" lon="-4.551273301653247"><ele>1572.0</ele><time>2026-04-27T09:27:05.998Z</time></trkpt><trkpt lat="32.635602141378655" lon="-4.551504983231155"><ele>1570.0</ele><time>2026-04-27T09:27:06.998Z</time></trkpt><trkpt lat="32.63585024458962" lon="-4.551740114692886"><ele>1570.0</ele><time>2026-04-27T09:27:07.998Z</time></trkpt><trkpt lat="32.63610122480109" lon="-4.551978027324945"><ele>1570.0</ele><time>2026-04-27T09:27:08.998Z</time></trkpt><trkpt lat="32.63635411376839" lon="-4.552216982051901"><ele>1567.5</ele><time>2026-04-27T09:27:09.998Z</time></trkpt><trkpt lat="32.63660739463619" lon="-4.552455111737254"><ele>1565.0</ele><time>2026-04-27T09:27:11Z</time></trkpt><trkpt lat="32.636855020361295" lon="-4.552689301314499"><ele>1561.5</ele><time>2026-04-27T09:27:12Z</time></trkpt><trkpt lat="32.637095124344434" lon="-4.552920601535827"><ele>1558.0</ele><time>2026-04-27T09:27:13Z</time></trkpt><trkpt lat="32.63733259169857" lon="-4.553146866102064"><ele>1558.0</ele><time>2026-04-27T09:27:14Z</time></trkpt><trkpt lat="32.637568327302354" lon="-4.553371773769519"><ele>1558.0</ele><time>2026-04-27T09:27:15Z</time></trkpt><trkpt lat="32.63780579286539" lon="-4.553597744090308"><ele>1556.5</ele><time>2026-04-27T09:27:16Z</time></trkpt><trkpt lat="32.63804574191104" lon="-4.553824221115553"><ele>1555.0</ele><time>2026-04-27T09:27:17Z</time></trkpt><trkpt lat="32.63828912437094" lon="-4.554051699409831"><ele>1555.0</ele><time>2026-04-27T09:27:18Z</time></trkpt><trkpt lat="32.63853247017916" lon="-4.554279771879243"><ele>1555.0</ele><time>2026-04-27T09:27:19Z</time></trkpt><trkpt lat="32.638775889210706" lon="-4.554509186129901"><ele>1551.5</ele><time>2026-04-27T09:27:20Z</time></trkpt><trkpt lat="32.63902450665612" lon="-4.5547426172217085"><ele>1548.0</ele><time>2026-04-27T09:27:21Z</time></trkpt><trkpt lat="32.63927998297872" lon="-4.55498055882971"><ele>1547.0</ele><time>2026-04-27T09:27:22Z</time></trkpt><trkpt lat="32.639540844646376" lon="-4.555223910033359"><ele>1546.0</ele><time>2026-04-27T09:27:23Z</time></trkpt><trkpt lat="32.639808536661945" lon="-4.5554738653146645"><ele>1547.5</ele><time>2026-04-27T09:27:24Z</time></trkpt><trkpt lat="32.6400816190764" lon="-4.5557292175077615"><ele>1549.0</ele><time>2026-04-27T09:27:25Z</time></trkpt><trkpt lat="32.64035674594919" lon="-4.555987912234192"><ele>1550.0</ele><time>2026-04-27T09:27:26Z</time></trkpt><trkpt lat="32.64063010308038" lon="-4.556250649075245"><ele>1551.0</ele><time>2026-04-27T09:27:27Z</time></trkpt><trkpt lat="32.64090005123228" lon="-4.556509275468865"><ele>1549.0</ele><time>2026-04-27T09:27:28Z</time></trkpt><trkpt lat="32.641163903024506" lon="-4.5567611278502"><ele>1547.0</ele><time>2026-04-27T09:27:29Z</time></trkpt><trkpt lat="32.64142202204692" lon="-4.55701077215736"><ele>1547.0</ele><time>2026-04-27T09:27:30Z</time></trkpt><trkpt lat="32.64167752431" lon="-4.5572523141281405"><ele>1547.0</ele><time>2026-04-27T09:27:31Z</time></trkpt><trkpt lat="32.64192786623405" lon="-4.557488434854611"><ele>1547.0</ele><time>2026-04-27T09:27:32Z</time></trkpt><trkpt lat="32.64216932879318" lon="-4.557717550974157"><ele>1547.0</ele><time>2026-04-27T09:27:33Z</time></trkpt><trkpt lat="32.64240467357321" lon="-4.557939114272957"><ele>1547.0</ele><time>2026-04-27T09:27:34Z</time></trkpt><trkpt lat="32.64263126993717" lon="-4.558153428949349"><ele>1547.0</ele><time>2026-04-27T09:27:35Z</time></trkpt><trkpt lat="32.64284715399744" lon="-4.558359113164962"><ele>1546.5</ele><time>2026-04-27T09:27:36Z</time></trkpt><trkpt lat="32.64305287150362" lon="-4.55855546340486"><ele>1546.0</ele><time>2026-04-27T09:27:36.999Z</time></trkpt><trkpt lat="32.6432480783227" lon="-4.558744316891691"><ele>1547.0</ele><time>2026-04-27T09:27:37.999Z</time></trkpt><trkpt lat="32.64343828236189" lon="-4.558921645684089"><ele>1548.0</ele><time>2026-04-27T09:27:38.999Z</time></trkpt><trkpt lat="32.643623238510486" lon="-4.559096259898658"><ele>1546.5</ele><time>2026-04-27T09:27:39.999Z</time></trkpt><trkpt lat="32.64381433582937" lon="-4.559281494265321"><ele>1545.0</ele><time>2026-04-27T09:27:40.999Z</time></trkpt><trkpt lat="32.644018563976545" lon="-4.559480103773769"><ele>1545.5</ele><time>2026-04-27T09:27:41.999Z</time></trkpt><trkpt lat="32.644231935768524" lon="-4.559690369126258"><ele>1546.0</ele><time>2026-04-27T09:27:42.999Z</time></trkpt><trkpt lat="32.64445574241416" lon="-4.559904980850474"><ele>1544.5</ele><time>2026-04-27T09:27:43.999Z</time></trkpt><trkpt lat="32.64469474308363" lon="-4.560120605902596"><ele>1543.0</ele><time>2026-04-27T09:27:44.999Z</time></trkpt><trkpt lat="32.64494257317806" lon="-4.560337566336912"><ele>1542.5</ele><time>2026-04-27T09:27:45.999Z</time></trkpt><trkpt lat="32.64519463871267" lon="-4.560563485747941"><ele>1542.0</ele><time>2026-04-27T09:27:46.999Z</time></trkpt><trkpt lat="32.645447352115745" lon="-4.560795871873716"><ele>1541.5</ele><time>2026-04-27T09:27:47.999Z</time></trkpt><trkpt lat="32.64569583655104" lon="-4.561029790559471"><ele>1541.0</ele><time>2026-04-27T09:27:48.999Z</time></trkpt><trkpt lat="32.64594455766463" lon="-4.561264783311075"><ele>1540.5</ele><time>2026-04-27T09:27:49.999Z</time></trkpt><trkpt lat="32.64619578946525" lon="-4.561501276811547"><ele>1540.0</ele><time>2026-04-27T09:27:50.999Z</time></trkpt><trkpt lat="32.64644955335838" lon="-4.561739442603833"><ele>1540.0</ele><time>2026-04-27T09:27:51.999Z</time></trkpt><trkpt lat="32.64670437928372" lon="-4.561979286314521"><ele>1540.0</ele><time>2026-04-27T09:27:52.999Z</time></trkpt><trkpt lat="32.64695770747823" lon="-4.562218748019359"><ele>1539.0</ele><time>2026-04-27T09:27:53.999Z</time></trkpt><trkpt lat="32.64721073945424" lon="-4.562457744782888"><ele>1538.0</ele><time>2026-04-27T09:27:54.999Z</time></trkpt><trkpt lat="32.647467226453244" lon="-4.5626995909952255"><ele>1537.5</ele><time>2026-04-27T09:27:55.999Z</time></trkpt><trkpt lat="32.647726088171176" lon="-4.562943396296741"><ele>1537.0</ele><time>2026-04-27T09:27:56.999Z</time></trkpt><trkpt lat="32.64798504317811" lon="-4.563186550383425"><ele>1535.0</ele><time>2026-04-27T09:27:57.999Z</time></trkpt><trkpt lat="32.648242608321794" lon="-4.563428298600224"><ele>1533.0</ele><time>2026-04-27T09:27:58.999Z</time></trkpt><trkpt lat="32.648500132685285" lon="-4.56367114931113"><ele>1530.0</ele><time>2026-04-27T09:27:59.999Z</time></trkpt><trkpt lat="32.648756855639505" lon="-4.563912785668343"><ele>1527.0</ele><time>2026-04-27T09:28:00.999Z</time></trkpt><trkpt lat="32.64901273623056" lon="-4.56415320079202"><ele>1527.0</ele><time>2026-04-27T09:28:01.999Z</time></trkpt><trkpt lat="32.649269521985495" lon="-4.564395142044256"><ele>1527.0</ele><time>2026-04-27T09:28:02.999Z</time></trkpt><trkpt lat="32.649526704553004" lon="-4.564640736299116"><ele>1526.0</ele><time>2026-04-27T09:28:03.999Z</time></trkpt><trkpt lat="32.64978456766595" lon="-4.5648875176465165"><ele>1525.0</ele><time>2026-04-27T09:28:04.999Z</time></trkpt><trkpt lat="32.65004140460697" lon="-4.565129749473966"><ele>1523.5</ele><time>2026-04-27T09:28:05.999Z</time></trkpt><trkpt lat="32.65029102506387" lon="-4.565366032894407"><ele>1522.0</ele><time>2026-04-27T09:28:06.999Z</time></trkpt><trkpt lat="32.650531940885976" lon="-4.565593743374996"><ele>1521.0</ele><time>2026-04-27T09:28:07.999Z</time></trkpt><trkpt lat="32.650764607285645" lon="-4.565814532734293"><ele>1520.0</ele><time>2026-04-27T09:28:08.999Z</time></trkpt><trkpt lat="32.65098778788934" lon="-4.566027048263732"><ele>1521.5</ele><time>2026-04-27T09:28:09.999Z</time></trkpt><trkpt lat="32.651205509734964" lon="-4.566233987826469"><ele>1523.0</ele><time>2026-04-27T09:28:10.999Z</time></trkpt><trkpt lat="32.651414171203875" lon="-4.566432448874825"><ele>1523.0</ele><time>2026-04-27T09:28:11.999Z</time></trkpt><trkpt lat="32.65161188692392" lon="-4.566621221831796"><ele>1523.0</ele><time>2026-04-27T09:28:12.999Z</time></trkpt><trkpt lat="32.65180142635014" lon="-4.566801940353471"><ele>1522.5</ele><time>2026-04-27T09:28:13.999Z</time></trkpt><trkpt lat="32.65198272860953" lon="-4.5669733143633495"><ele>1522.0</ele><time>2026-04-27T09:28:14.999Z</time></trkpt><trkpt lat="32.65215504076731" lon="-4.567140512606211"><ele>1522.0</ele><time>2026-04-27T09:28:15.999Z</time></trkpt><trkpt lat="32.652347066863854" lon="-4.567298873040594"><ele>1522.0</ele><time>2026-04-27T09:28:16.999Z</time></trkpt><trkpt lat="32.65252750578904" lon="-4.567490935212268"><ele>1522.0</ele><time>2026-04-27T09:28:17.999Z</time></trkpt><trkpt lat="32.65270164930711" lon="-4.567701345619421"><ele>1522.0</ele><time>2026-04-27T09:28:18.999Z</time></trkpt><trkpt lat="32.65289507459161" lon="-4.567896971781241"><ele>1519.5</ele><time>2026-04-27T09:28:19.999Z</time></trkpt><trkpt lat="32.65308547025427" lon="-4.568105318490002"><ele>1517.0</ele><time>2026-04-27T09:28:20.999Z</time></trkpt><trkpt lat="32.65327138749112" lon="-4.568329066973101"><ele>1517.0</ele><time>2026-04-27T09:28:21.999Z</time></trkpt><trkpt lat="32.65345517816219" lon="-4.568560484664477"><ele>1517.0</ele><time>2026-04-27T09:28:22.999Z</time></trkpt><trkpt lat="32.65363547010996" lon="-4.568804558927245"><ele>1516.0</ele><time>2026-04-27T09:28:23.999Z</time></trkpt><trkpt lat="32.65381554786814" lon="-4.569057770111703"><ele>1515.0</ele><time>2026-04-27T09:28:24.999Z</time></trkpt><trkpt lat="32.653992913625906" lon="-4.569318366207403"><ele>1516.0</ele><time>2026-04-27T09:28:25.999Z</time></trkpt><trkpt lat="32.65416609806923" lon="-4.569585760387996"><ele>1517.0</ele><time>2026-04-27T09:28:26.999Z</time></trkpt><trkpt lat="32.65433646414799" lon="-4.569862815406367"><ele>1516.5</ele><time>2026-04-27T09:28:27.999Z</time></trkpt><trkpt lat="32.654500226482696" lon="-4.570146448081032"><ele>1516.0</ele><time>2026-04-27T09:28:28.999Z</time></trkpt><trkpt lat="32.654658989026466" lon="-4.57043690872294"><ele>1518.5</ele><time>2026-04-27T09:28:29.999Z</time></trkpt><trkpt lat="32.65480605824029" lon="-4.570723689455643"><ele>1521.0</ele><time>2026-04-27T09:28:30.999Z</time></trkpt><trkpt lat="32.65494685158683" lon="-4.571008230457408"><ele>1521.5</ele><time>2026-04-27T09:28:31.999Z</time></trkpt><trkpt lat="32.65508284670918" lon="-4.5712938435857176"><ele>1522.0</ele><time>2026-04-27T09:28:32.999Z</time></trkpt><trkpt lat="32.65520968744013" lon="-4.571585183475099"><ele>1521.0</ele><time>2026-04-27T09:28:33.999Z</time></trkpt><trkpt lat="32.65533028606003" lon="-4.571884010820732"><ele>1520.0</ele><time>2026-04-27T09:28:34.999Z</time></trkpt><trkpt lat="32.65544738613932" lon="-4.572189260947171"><ele>1520.0</ele><time>2026-04-27T09:28:35.999Z</time></trkpt><trkpt lat="32.65558931849741" lon="-4.572484001502309"><ele>1520.0</ele><time>2026-04-27T09:28:36.999Z</time></trkpt><trkpt lat="32.65571765537304" lon="-4.5727907694913945"><ele>1521.5</ele><time>2026-04-27T09:28:37.999Z</time></trkpt><trkpt lat="32.65578846245797" lon="-4.5731382355805845"><ele>1523.0</ele><time>2026-04-27T09:28:38.999Z</time></trkpt><trkpt lat="32.65590209595931" lon="-4.5734595390472474"><ele>1523.0</ele><time>2026-04-27T09:28:39.999Z</time></trkpt><trkpt lat="32.65601573953018" lon="-4.5737775363427735"><ele>1523.0</ele><time>2026-04-27T09:28:40.999Z</time></trkpt><trkpt lat="32.65612890209739" lon="-4.574095371745978"><ele>1522.0</ele><time>2026-04-27T09:28:41.999Z</time></trkpt><trkpt lat="32.65624221300231" lon="-4.574417130287342"><ele>1521.0</ele><time>2026-04-27T09:28:42.999Z</time></trkpt><trkpt lat="32.65635613888212" lon="-4.574740627418048"><ele>1521.0</ele><time>2026-04-27T09:28:43.999Z</time></trkpt><trkpt lat="32.65646982150926" lon="-4.5750636392594854"><ele>1521.0</ele><time>2026-04-27T09:28:44.999Z</time></trkpt><trkpt lat="32.65658260472551" lon="-4.575388182838926"><ele>1522.0</ele><time>2026-04-27T09:28:45.999Z</time></trkpt><trkpt lat="32.656693838874574" lon="-4.575706806296743"><ele>1523.0</ele><time>2026-04-27T09:28:46.999Z</time></trkpt><trkpt lat="32.656804202874795" lon="-4.576020053020843"><ele>1523.5</ele><time>2026-04-27T09:28:47.999Z</time></trkpt><trkpt lat="32.65691229021622" lon="-4.576325789505133"><ele>1524.0</ele><time>2026-04-27T09:28:48.999Z</time></trkpt><trkpt lat="32.65701756192199" lon="-4.576624777630157"><ele>1523.0</ele><time>2026-04-27T09:28:49.999Z</time></trkpt><trkpt lat="32.65712074295743" lon="-4.576918078982608"><ele>1522.0</ele><time>2026-04-27T09:28:50.999Z</time></trkpt><trkpt lat="32.65722323355071" lon="-4.577209048175656"><ele>1522.0</ele><time>2026-04-27T09:28:51.999Z</time></trkpt><trkpt lat="32.657325472481986" lon="-4.577493689441777"><ele>1522.0</ele><time>2026-04-27T09:28:52.999Z</time></trkpt><trkpt lat="32.65742337323968" lon="-4.577773100919796"><ele>1522.0</ele><time>2026-04-27T09:28:53.999Z</time></trkpt><trkpt lat="32.65752039332246" lon="-4.578048113638762"><ele>1522.0</ele><time>2026-04-27T09:28:54.998Z</time></trkpt><trkpt lat="32.65761277014379" lon="-4.5783152301198315"><ele>1522.0</ele><time>2026-04-27T09:28:55.998Z</time></trkpt><trkpt lat="32.65770142799687" lon="-4.578571785443832"><ele>1522.0</ele><time>2026-04-27T09:28:56.998Z</time></trkpt><trkpt lat="32.65778612770991" lon="-4.578816693626838"><ele>1521.6666666666665</ele><time>2026-04-27T09:28:57.998Z</time></trkpt><trkpt lat="32.65786770939096" lon="-4.57905745171292"><ele>1521.3333333333333</ele><time>2026-04-27T09:28:58.998Z</time></trkpt><trkpt lat="32.65794851416703" lon="-4.579289950113858"><ele>1521.0</ele><time>2026-04-27T09:28:59.998Z</time></trkpt><trkpt lat="32.65802511301232" lon="-4.57951085956521"><ele>1522.0</ele><time>2026-04-27T09:29:00.998Z</time></trkpt><trkpt lat="32.65810038204265" lon="-4.579720338401525"><ele>1523.0</ele><time>2026-04-27T09:29:01.998Z</time></trkpt><trkpt lat="32.658169180615765" lon="-4.57991698214951"><ele>1524.0</ele><time>2026-04-27T09:29:02.998Z</time></trkpt><trkpt lat="32.65823570105518" lon="-4.580102193306438"><ele>1524.0</ele><time>2026-04-27T09:29:03.998Z</time></trkpt><trkpt lat="32.65829536821072" lon="-4.58026528656649"><ele>1524.0</ele><time>2026-04-27T09:29:04.998Z</time></trkpt><trkpt lat="32.65834970514127" lon="-4.580419351854016"><ele>1524.0</ele><time>2026-04-27T09:29:05.998Z</time></trkpt><trkpt lat="32.65840043918861" lon="-4.580571084960183"><ele>1524.0</ele><time>2026-04-27T09:29:06.998Z</time></trkpt><trkpt lat="32.658454119747795" lon="-4.580729381043165"><ele>1524.0</ele><time>2026-04-27T09:29:07.998Z</time></trkpt><trkpt lat="32.65851637074738" lon="-4.580890594990651"><ele>1524.0</ele><time>2026-04-27T09:29:08.998Z</time></trkpt><trkpt lat="32.65858161628666" lon="-4.581062870822024"><ele>1524.0</ele><time>2026-04-27T09:29:09.998Z</time></trkpt><trkpt lat="32.65864964135377" lon="-4.581251271037053"><ele>1524.0</ele><time>2026-04-27T09:29:10.998Z</time></trkpt><trkpt lat="32.658718983636994" lon="-4.581455364221475"><ele>1524.0</ele><time>2026-04-27T09:29:11.998Z</time></trkpt><trkpt lat="32.65879100030111" lon="-4.581666922546078"><ele>1524.0</ele><time>2026-04-27T09:29:12.998Z</time></trkpt><trkpt lat="32.658867324783905" lon="-4.581885696061249"><ele>1525.3333333333333</ele><time>2026-04-27T09:29:13.998Z</time></trkpt><trkpt lat="32.65894853957051" lon="-4.582111963687629"><ele>1526.6666666666665</ele><time>2026-04-27T09:29:14.998Z</time></trkpt><trkpt lat="32.65903104170802" lon="-4.5823432441898735"><ele>1528.0</ele><time>2026-04-27T09:29:15.998Z</time></trkpt><trkpt lat="32.65911201013626" lon="-4.582582771986837"><ele>1528.0</ele><time>2026-04-27T09:29:17Z</time></trkpt><trkpt lat="32.65919729546531" lon="-4.582820891566282"><ele>1528.0</ele><time>2026-04-27T09:29:18Z</time></trkpt><trkpt lat="32.65928039497799" lon="-4.583058755066966"><ele>1528.0</ele><time>2026-04-27T09:29:19Z</time></trkpt><trkpt lat="32.65935939126488" lon="-4.583294615273809"><ele>1527.6666666666665</ele><time>2026-04-27T09:29:20Z</time></trkpt><trkpt lat="32.65941965419767" lon="-4.583527085544647"><ele>1527.3333333333333</ele><time>2026-04-27T09:29:21Z</time></trkpt><trkpt lat="32.65946500060134" lon="-4.583757622869873"><ele>1527.0</ele><time>2026-04-27T09:29:22Z</time></trkpt><trkpt lat="32.659487286031535" lon="-4.583989211497004"><ele>1526.6666666666667</ele><time>2026-04-27T09:29:23Z</time></trkpt><trkpt lat="32.65948880184113" lon="-4.584221380753154"><ele>1526.3333333333335</ele><time>2026-04-27T09:29:24Z</time></trkpt><trkpt lat="32.659472842364096" lon="-4.584450288113421"><ele>1526.0</ele><time>2026-04-27T09:29:25Z</time></trkpt><trkpt lat="32.659436552563086" lon="-4.584671804170234"><ele>1526.6666666666667</ele><time>2026-04-27T09:29:26Z</time></trkpt><trkpt lat="32.659377464848596" lon="-4.58488932443299"><ele>1527.3333333333333</ele><time>2026-04-27T09:29:27Z</time></trkpt><trkpt lat="32.65929439131675" lon="-4.585102548847065"><ele>1528.0</ele><time>2026-04-27T09:29:28Z</time></trkpt><trkpt lat="32.65918702044187" lon="-4.585316093947305"><ele>1525.0</ele><time>2026-04-27T09:29:29Z</time></trkpt><trkpt lat="32.659060187710274" lon="-4.585524489329146"><ele>1522.0</ele><time>2026-04-27T09:29:30Z</time></trkpt><trkpt lat="32.65891736592417" lon="-4.585727158733213"><ele>1519.0</ele><time>2026-04-27T09:29:31Z</time></trkpt><trkpt lat="32.65876786998198" lon="-4.585925546540775"><ele>1520.0</ele><time>2026-04-27T09:29:32Z</time></trkpt><trkpt lat="32.65861738273048" lon="-4.586131293162606"><ele>1521.0</ele><time>2026-04-27T09:29:33Z</time></trkpt><trkpt lat="32.658465237980494" lon="-4.586341716840475"><ele>1521.0</ele><time>2026-04-27T09:29:34Z</time></trkpt><trkpt lat="32.65831299157768" lon="-4.586552296681632"><ele>1521.0</ele><time>2026-04-27T09:29:35Z</time></trkpt><trkpt lat="32.65816012501086" lon="-4.586765135840145"><ele>1521.0</ele><time>2026-04-27T09:29:36Z</time></trkpt><trkpt lat="32.65800631772223" lon="-4.586977807423721"><ele>1521.0</ele><time>2026-04-27T09:29:37Z</time></trkpt><trkpt lat="32.65785140851244" lon="-4.587188278963912"><ele>1522.5</ele><time>2026-04-27T09:29:38Z</time></trkpt><trkpt lat="32.65769476696761" lon="-4.58740005900362"><ele>1524.0</ele><time>2026-04-27T09:29:39Z</time></trkpt><trkpt lat="32.657536600736535" lon="-4.587613642648189"><ele>1524.0</ele><time>2026-04-27T09:29:40Z</time></trkpt><trkpt lat="32.657382370045774" lon="-4.587827159954849"><ele>1524.0</ele><time>2026-04-27T09:29:41Z</time></trkpt><trkpt lat="32.65723322690332" lon="-4.588041393143467"><ele>1521.5</ele><time>2026-04-27T09:29:42Z</time></trkpt><trkpt lat="32.65709177872504" lon="-4.5882650541184535"><ele>1519.0</ele><time>2026-04-27T09:29:42.999Z</time></trkpt><trkpt lat="32.65696487067573" lon="-4.588499647651599"><ele>1521.5</ele><time>2026-04-27T09:29:43.999Z</time></trkpt><trkpt lat="32.65688145685426" lon="-4.58876438117923"><ele>1524.0</ele><time>2026-04-27T09:29:44.999Z</time></trkpt><trkpt lat="32.656786016267496" lon="-4.589030757367472"><ele>1524.0</ele><time>2026-04-27T09:29:45.999Z</time></trkpt><trkpt lat="32.65671662256641" lon="-4.589318452926566"><ele>1524.0</ele><time>2026-04-27T09:29:46.999Z</time></trkpt><trkpt lat="32.65667554241935" lon="-4.589622877208666"><ele>1522.5</ele><time>2026-04-27T09:29:47.999Z</time></trkpt><trkpt lat="32.65665657118332" lon="-4.589942648729785"><ele>1521.0</ele><time>2026-04-27T09:29:48.999Z</time></trkpt><trkpt lat="32.656645777942906" lon="-4.590278938573566"><ele>1519.5</ele><time>2026-04-27T09:29:49.999Z</time></trkpt><trkpt lat="32.65664381311738" lon="-4.590628234037479"><ele>1518.0</ele><time>2026-04-27T09:29:50.999Z</time></trkpt><trkpt lat="32.65664078509508" lon="-4.590974463288093"><ele>1518.0</ele><time>2026-04-27T09:29:51.999Z</time></trkpt><trkpt lat="32.65663616521198" lon="-4.591311789115165"><ele>1518.0</ele><time>2026-04-27T09:29:52.999Z</time></trkpt><trkpt lat="32.65663153418978" lon="-4.591649929171782"><ele>1518.0</ele><time>2026-04-27T09:29:53.999Z</time></trkpt><trkpt lat="32.65662720386872" lon="-4.591997284518125"><ele>1518.0</ele><time>2026-04-27T09:29:54.999Z</time></trkpt><trkpt lat="32.656623177946095" lon="-4.592352120249253"><ele>1518.0</ele><time>2026-04-27T09:29:55.999Z</time></trkpt><trkpt lat="32.656617659242634" lon="-4.592709383881045"><ele>1518.0</ele><time>2026-04-27T09:29:56.999Z</time></trkpt><trkpt lat="32.656596383629804" lon="-4.593073083147895"><ele>1518.0</ele><time>2026-04-27T09:29:57.999Z</time></trkpt><trkpt lat="32.65659333186989" lon="-4.593445849126456"><ele>1518.0</ele><time>2026-04-27T09:29:58.999Z</time></trkpt><trkpt lat="32.65659015177547" lon="-4.59382125125934"><ele>1519.5</ele><time>2026-04-27T09:29:59.999Z</time></trkpt><trkpt lat="32.656587485998365" lon="-4.594200929464115"><ele>1521.0</ele><time>2026-04-27T09:30:00.999Z</time></trkpt><trkpt lat="32.656584043850444" lon="-4.594583286439545"><ele>1524.5</ele><time>2026-04-27T09:30:01.999Z</time></trkpt><trkpt lat="32.656581686339095" lon="-4.59496688322342"><ele>1528.0</ele><time>2026-04-27T09:30:02.999Z</time></trkpt><trkpt lat="32.6565789525392" lon="-4.595352150132058"><ele>1531.0</ele><time>2026-04-27T09:30:03.999Z</time></trkpt><trkpt lat="32.6565765230441" lon="-4.59573516854977"><ele>1534.0</ele><time>2026-04-27T09:30:04.999Z</time></trkpt><trkpt lat="32.65657294025834" lon="-4.596114805671247"><ele>1535.0</ele><time>2026-04-27T09:30:05.999Z</time></trkpt><trkpt lat="32.656566836061515" lon="-4.5964922447290135"><ele>1536.0</ele><time>2026-04-27T09:30:06.999Z</time></trkpt><trkpt lat="32.65655929459919" lon="-4.59686897404136"><ele>1537.5</ele><time>2026-04-27T09:30:07.999Z</time></trkpt><trkpt lat="32.65655332698701" lon="-4.597236872404383"><ele>1539.0</ele><time>2026-04-27T09:30:08.999Z</time></trkpt><trkpt lat="32.65654954108075" lon="-4.59759352390879"><ele>1540.5</ele><time>2026-04-27T09:30:09.999Z</time></trkpt><trkpt lat="32.65654650229012" lon="-4.597937259042768"><ele>1542.0</ele><time>2026-04-27T09:30:10.999Z</time></trkpt><trkpt lat="32.65654893552464" lon="-4.598268587494751"><ele>1542.0</ele><time>2026-04-27T09:30:11.999Z</time></trkpt><trkpt lat="32.65655987852882" lon="-4.598590355317683"><ele>1542.0</ele><time>2026-04-27T09:30:12.999Z</time></trkpt><trkpt lat="32.65657653669964" lon="-4.598906602508785"><ele>1543.0</ele><time>2026-04-27T09:30:13.999Z</time></trkpt><trkpt lat="32.6566021775757" lon="-4.59921473224187"><ele>1544.0</ele><time>2026-04-27T09:30:14.999Z</time></trkpt><trkpt lat="32.65663441074639" lon="-4.5995196506197376"><ele>1544.0</ele><time>2026-04-27T09:30:15.999Z</time></trkpt><trkpt lat="32.65669027584844" lon="-4.599826338018431"><ele>1544.0</ele><time>2026-04-27T09:30:16.999Z</time></trkpt><trkpt lat="32.656725892918416" lon="-4.600146937081363"><ele>1543.5</ele><time>2026-04-27T09:30:17.999Z</time></trkpt><trkpt lat="32.65679756307753" lon="-4.600466666824797"><ele>1543.0</ele><time>2026-04-27T09:30:18.999Z</time></trkpt><trkpt lat="32.65687460729866" lon="-4.6007930353332736"><ele>1541.0</ele><time>2026-04-27T09:30:19.999Z</time></trkpt><trkpt lat="32.65695562653945" lon="-4.601126448836995"><ele>1539.0</ele><time>2026-04-27T09:30:20.999Z</time></trkpt><trkpt lat="32.65704646692813" lon="-4.601465911169053"><ele>1539.5</ele><time>2026-04-27T09:30:21.999Z</time></trkpt><trkpt lat="32.65714815652574" lon="-4.601812210709405"><ele>1540.0</ele><time>2026-04-27T09:30:22.999Z</time></trkpt><trkpt lat="32.65725816279424" lon="-4.602164334337817"><ele>1540.0</ele><time>2026-04-27T09:30:23.999Z</time></trkpt><trkpt lat="32.657370901776986" lon="-4.602518975750399"><ele>1540.0</ele><time>2026-04-27T09:30:24.999Z</time></trkpt><trkpt lat="32.65748374591407" lon="-4.602880471805714"><ele>1541.5</ele><time>2026-04-27T09:30:25.999Z</time></trkpt><trkpt lat="32.65759789500679" lon="-4.603250819346934"><ele>1543.0</ele><time>2026-04-27T09:30:26.999Z</time></trkpt><trkpt lat="32.6577140400371" lon="-4.603625655684736"><ele>1540.5</ele><time>2026-04-27T09:30:27.999Z</time></trkpt><trkpt lat="32.657833232810745" lon="-4.6040052477474935"><ele>1538.0</ele><time>2026-04-27T09:30:28.999Z</time></trkpt><trkpt lat="32.65795119725797" lon="-4.604385680524311"><ele>1538.0</ele><time>2026-04-27T09:30:29.999Z</time></trkpt><trkpt lat="32.658069169441035" lon="-4.60476675853737"><ele>1538.0</ele><time>2026-04-27T09:30:30.999Z</time></trkpt><trkpt lat="32.65818566754386" lon="-4.6051463537866875"><ele>1537.5</ele><time>2026-04-27T09:30:31.999Z</time></trkpt><trkpt lat="32.65830166478417" lon="-4.605522078948738"><ele>1537.0</ele><time>2026-04-27T09:30:32.999Z</time></trkpt><trkpt lat="32.6584162337895" lon="-4.605890219751205"><ele>1535.0</ele><time>2026-04-27T09:30:33.999Z</time></trkpt><trkpt lat="32.6585285822938" lon="-4.606248903192855"><ele>1533.0</ele><time>2026-04-27T09:30:34.999Z</time></trkpt><trkpt lat="32.65863532708024" lon="-4.606598135204817"><ele>1533.0</ele><time>2026-04-27T09:30:35.999Z</time></trkpt><trkpt lat="32.65873809882784" lon="-4.606935736904324"><ele>1533.0</ele><time>2026-04-27T09:30:36.999Z</time></trkpt><trkpt lat="32.65883924612835" lon="-4.607262864348652"><ele>1533.0</ele><time>2026-04-27T09:30:37.999Z</time></trkpt><trkpt lat="32.65893593941131" lon="-4.607571963116266"><ele>1533.0</ele><time>2026-04-27T09:30:38.999Z</time></trkpt><trkpt lat="32.65902931543138" lon="-4.607867830375816"><ele>1533.0</ele><time>2026-04-27T09:30:39.999Z</time></trkpt><trkpt lat="32.65912014637351" lon="-4.608144832812556"><ele>1533.0</ele><time>2026-04-27T09:30:40.999Z</time></trkpt><trkpt lat="32.65920666925361" lon="-4.608399513039698"><ele>1533.0</ele><time>2026-04-27T09:30:41.999Z</time></trkpt><trkpt lat="32.659295498233725" lon="-4.608646538881483"><ele>1533.0</ele><time>2026-04-27T09:30:42.999Z</time></trkpt><trkpt lat="32.65938483080762" lon="-4.608881666191904"><ele>1533.0</ele><time>2026-04-27T09:30:43.999Z</time></trkpt><trkpt lat="32.6594722414849" lon="-4.60910331618967"><ele>1532.6666666666667</ele><time>2026-04-27T09:30:44.999Z</time></trkpt><trkpt lat="32.65956063343464" lon="-4.60931478529304"><ele>1532.3333333333335</ele><time>2026-04-27T09:30:45.999Z</time></trkpt><trkpt lat="32.65965009433323" lon="-4.609515992737478"><ele>1532.0</ele><time>2026-04-27T09:30:46.999Z</time></trkpt><trkpt lat="32.65973995279324" lon="-4.609714100930956"><ele>1532.6666666666667</ele><time>2026-04-27T09:30:47.999Z</time></trkpt><trkpt lat="32.659830305498105" lon="-4.609912609729852"><ele>1533.3333333333333</ele><time>2026-04-27T09:30:48.999Z</time></trkpt><trkpt lat="32.65991942667691" lon="-4.610109166509519"><ele>1534.0</ele><time>2026-04-27T09:30:49.999Z</time></trkpt><trkpt lat="32.66000786128775" lon="-4.610303297522922"><ele>1534.3333333333333</ele><time>2026-04-27T09:30:50.999Z</time></trkpt><trkpt lat="32.66009631921568" lon="-4.61049974951099"><ele>1534.6666666666667</ele><time>2026-04-27T09:30:51.999Z</time></trkpt><trkpt lat="32.66018723285301" lon="-4.610696595743014"><ele>1535.0</ele><time>2026-04-27T09:30:52.999Z</time></trkpt><trkpt lat="32.6602789011559" lon="-4.6108973224803895"><ele>1534.6666666666667</ele><time>2026-04-27T09:30:53.999Z</time></trkpt><trkpt lat="32.660372756784106" lon="-4.611114953495008"><ele>1534.3333333333333</ele><time>2026-04-27T09:30:54.999Z</time></trkpt><trkpt lat="32.660480777223576" lon="-4.611355821803342"><ele>1534.0</ele><time>2026-04-27T09:30:55.999Z</time></trkpt><trkpt lat="32.66059846522393" lon="-4.611609051640818"><ele>1534.0</ele><time>2026-04-27T09:30:56.999Z</time></trkpt><trkpt lat="32.66072798731071" lon="-4.611875883446595"><ele>1534.0</ele><time>2026-04-27T09:30:57.999Z</time></trkpt><trkpt lat="32.66086474989474" lon="-4.612155692883393"><ele>1534.5</ele><time>2026-04-27T09:30:58.999Z</time></trkpt><trkpt lat="32.66100694893363" lon="-4.612445336899733"><ele>1535.0</ele><time>2026-04-27T09:30:59.999Z</time></trkpt><trkpt lat="32.661149550461175" lon="-4.612742571891872"><ele>1534.0</ele><time>2026-04-27T09:31:00.999Z</time></trkpt><trkpt lat="32.66129834299493" lon="-4.613052406131145"><ele>1533.0</ele><time>2026-04-27T09:31:01.998Z</time></trkpt><trkpt lat="32.661447303415756" lon="-4.6133708184559294"><ele>1533.5</ele><time>2026-04-27T09:31:02.998Z</time></trkpt><trkpt lat="32.66159893495261" lon="-4.613691609339569"><ele>1534.0</ele><time>2026-04-27T09:31:03.998Z</time></trkpt><trkpt lat="32.66175130283956" lon="-4.614019628325263"><ele>1534.0</ele><time>2026-04-27T09:31:04.998Z</time></trkpt><trkpt lat="32.66190507047499" lon="-4.6143501668060365"><ele>1534.0</ele><time>2026-04-27T09:31:05.998Z</time></trkpt><trkpt lat="32.662061981964435" lon="-4.614690578186995"><ele>1534.0</ele><time>2026-04-27T09:31:06.998Z</time></trkpt><trkpt lat="32.6622216729392" lon="-4.615035347908665"><ele>1534.0</ele><time>2026-04-27T09:31:07.998Z</time></trkpt><trkpt lat="32.662376985897346" lon="-4.615372965650501"><ele>1534.0</ele><time>2026-04-27T09:31:08.998Z</time></trkpt><trkpt lat="32.66253051397972" lon="-4.615704278232357"><ele>1534.0</ele><time>2026-04-27T09:31:09.998Z</time></trkpt><trkpt lat="32.662682674063284" lon="-4.616035487484159"><ele>1533.0</ele><time>2026-04-27T09:31:10.998Z</time></trkpt><trkpt lat="32.66283501285903" lon="-4.6163698479743145"><ele>1532.0</ele><time>2026-04-27T09:31:11.998Z</time></trkpt><trkpt lat="32.66299353646291" lon="-4.616706010645557"><ele>1533.0</ele><time>2026-04-27T09:31:12.998Z</time></trkpt><trkpt lat="32.66315144458997" lon="-4.617049786765278"><ele>1534.0</ele><time>2026-04-27T09:31:13.998Z</time></trkpt><trkpt lat="32.66331421421729" lon="-4.617398284665895"><ele>1534.0</ele><time>2026-04-27T09:31:14.998Z</time></trkpt><trkpt lat="32.66347759229932" lon="-4.617755706956228"><ele>1534.0</ele><time>2026-04-27T09:31:15.998Z</time></trkpt><trkpt lat="32.66363982513702" lon="-4.618110159743832"><ele>1533.0</ele><time>2026-04-27T09:31:16.998Z</time></trkpt><trkpt lat="32.66379251921068" lon="-4.618448739496088"><ele>1532.0</ele><time>2026-04-27T09:31:17.998Z</time></trkpt><trkpt lat="32.66394209565293" lon="-4.6187829079468425"><ele>1532.0</ele><time>2026-04-27T09:31:18.998Z</time></trkpt><trkpt lat="32.66409381056679" lon="-4.619109893233645"><ele>1532.0</ele><time>2026-04-27T09:31:19.998Z</time></trkpt><trkpt lat="32.664242670327525" lon="-4.619432294257078"><ele>1532.5</ele><time>2026-04-27T09:31:20.998Z</time></trkpt><trkpt lat="32.664390910619545" lon="-4.6197518185282"><ele>1533.0</ele><time>2026-04-27T09:31:21.998Z</time></trkpt><trkpt lat="32.66453931298255" lon="-4.620065306694934"><ele>1532.5</ele><time>2026-04-27T09:31:23Z</time></trkpt><trkpt lat="32.66468121769448" lon="-4.620376473925346"><ele>1532.0</ele><time>2026-04-27T09:31:24Z</time></trkpt><trkpt lat="32.66482547972702" lon="-4.620686742505539"><ele>1532.0</ele><time>2026-04-27T09:31:25Z</time></trkpt><trkpt lat="32.66497181770989" lon="-4.620994036191966"><ele>1532.0</ele><time>2026-04-27T09:31:26Z</time></trkpt><trkpt lat="32.66511754117445" lon="-4.6213047914203464"><ele>1532.0</ele><time>2026-04-27T09:31:27Z</time></trkpt><trkpt lat="32.66526216146135" lon="-4.62161279557402"><ele>1532.0</ele><time>2026-04-27T09:31:28Z</time></trkpt><trkpt lat="32.66540797914918" lon="-4.621921736990738"><ele>1532.5</ele><time>2026-04-27T09:31:29Z</time></trkpt><trkpt lat="32.665550990732775" lon="-4.622232398381082"><ele>1533.0</ele><time>2026-04-27T09:31:30Z</time></trkpt><trkpt lat="32.66569640323293" lon="-4.622541602814125"><ele>1533.0</ele><time>2026-04-27T09:31:31Z</time></trkpt><trkpt lat="32.66584184717249" lon="-4.622852165667541"><ele>1533.0</ele><time>2026-04-27T09:31:32Z</time></trkpt><trkpt lat="32.66598468091011" lon="-4.623167017715276"><ele>1532.0</ele><time>2026-04-27T09:31:33Z</time></trkpt><trkpt lat="32.666131939937316" lon="-4.623477245307314"><ele>1531.0</ele><time>2026-04-27T09:31:34Z</time></trkpt><trkpt lat="32.66626594992737" lon="-4.623786478043211"><ele>1531.0</ele><time>2026-04-27T09:31:35Z</time></trkpt><trkpt lat="32.666396003156734" lon="-4.6240794380381836"><ele>1531.0</ele><time>2026-04-27T09:31:36Z</time></trkpt><trkpt lat="32.66650981877775" lon="-4.624341311475226"><ele>1531.3333333333333</ele><time>2026-04-27T09:31:37Z</time></trkpt><trkpt lat="32.66661005214933" lon="-4.624564946749645"><ele>1531.6666666666667</ele><time>2026-04-27T09:31:38Z</time></trkpt><trkpt lat="32.66670183774122" lon="-4.624764068651273"><ele>1532.0</ele><time>2026-04-27T09:31:39Z</time></trkpt><trkpt lat="32.66678954908186" lon="-4.624953201563902"><ele>1532.0</ele><time>2026-04-27T09:31:40Z</time></trkpt><trkpt lat="32.66687019519751" lon="-4.625128994451958"><ele>1532.0</ele><time>2026-04-27T09:31:41Z</time></trkpt><trkpt lat="32.666947482981975" lon="-4.62529525210713"><ele>1532.0</ele><time>2026-04-27T09:31:42Z</time></trkpt><trkpt lat="32.667020588177046" lon="-4.625451780883521"><ele>1531.25</ele><time>2026-04-27T09:31:43Z</time></trkpt><trkpt lat="32.667088477020506" lon="-4.625596805730498"><ele>1530.5</ele><time>2026-04-27T09:31:44Z</time></trkpt><trkpt lat="32.66715495027199" lon="-4.62573837052938"><ele>1529.75</ele><time>2026-04-27T09:31:45Z</time></trkpt><trkpt lat="32.66722252681303" lon="-4.6258791500149625"><ele>1529.0</ele><time>2026-04-27T09:31:46Z</time></trkpt><trkpt lat="32.66728862233209" lon="-4.626021409915991"><ele>1529.0</ele><time>2026-04-27T09:31:47Z</time></trkpt><trkpt lat="32.667355089025875" lon="-4.6261645372117135"><ele>1529.0</ele><time>2026-04-27T09:31:48Z</time></trkpt><trkpt lat="32.66741914158911" lon="-4.626305526165684"><ele>1529.0</ele><time>2026-04-27T09:31:49Z</time></trkpt><trkpt lat="32.6674737140761" lon="-4.626414963279129"><ele>1529.0</ele><time>2026-04-27T09:31:49.999Z</time></trkpt><trkpt lat="32.66751856264765" lon="-4.626501138066411"><ele>1529.0</ele><time>2026-04-27T09:31:50.999Z</time></trkpt><trkpt lat="32.667572241366486" lon="-4.6265948273616155"><ele>1529.0</ele><time>2026-04-27T09:31:52.999Z</time></trkpt><trkpt lat="32.66764946304258" lon="-4.62664232426669"><ele>1529.0</ele><time>2026-04-27T09:31:54.999Z</time></trkpt><trkpt lat="32.66770940423939" lon="-4.626729147313692"><ele>1529.0</ele><time>2026-04-27T09:31:57.999Z</time></trkpt><trkpt lat="32.667765682269604" lon="-4.626853322541348"><ele>1529.0</ele><time>2026-04-27T09:31:59.999Z</time></trkpt><trkpt lat="32.66782050600006" lon="-4.626972573752118"><ele>1528.6666666666667</ele><time>2026-04-27T09:32:01.999Z</time></trkpt><trkpt lat="32.66786353534652" lon="-4.627066170116706"><ele>1528.3333333333335</ele><time>2026-04-27T09:32:03.999Z</time></trkpt><trkpt lat="32.66785423779363" lon="-4.627150770517695"><ele>1528.0</ele><time>2026-04-27T09:32:06.999Z</time></trkpt><trkpt lat="32.66785556845921" lon="-4.627225886342709"><ele>1527.6666666666667</ele><time>2026-04-27T09:32:10.999Z</time></trkpt><trkpt lat="32.667880773279286" lon="-4.6273004384994465"><ele>1527.3333333333333</ele><time>2026-04-27T09:32:17.999Z</time></trkpt><trkpt lat="32.6679123841627" lon="-4.627365998725044"><ele>1527.0</ele><time>2026-04-27T09:32:22.999Z</time></trkpt><trkpt lat="32.66796805199233" lon="-4.627474613867363"><ele>1527.0</ele><time>2026-04-27T09:32:25.999Z</time></trkpt><trkpt lat="32.66802428709456" lon="-4.627588601176077"><ele>1527.0</ele><time>2026-04-27T09:32:27.999Z</time></trkpt><trkpt lat="32.66808135953798" lon="-4.627720958234022"><ele>1527.0</ele><time>2026-04-27T09:32:29.999Z</time></trkpt><trkpt lat="32.6681167401942" lon="-4.6277951763054865"><ele>1527.0</ele><time>2026-04-27T09:32:30.999Z</time></trkpt><trkpt lat="32.668158931542244" lon="-4.627879844306483"><ele>1527.0</ele><time>2026-04-27T09:32:31.999Z</time></trkpt><trkpt lat="32.66820584222467" lon="-4.627976358868687"><ele>1527.3999999999999</ele><time>2026-04-27T09:32:32.999Z</time></trkpt><trkpt lat="32.668255680508885" lon="-4.628083739336359"><ele>1527.8</ele><time>2026-04-27T09:32:33.999Z</time></trkpt><trkpt lat="32.668306482919434" lon="-4.628197507279666"><ele>1528.2</ele><time>2026-04-27T09:32:34.999Z</time></trkpt><trkpt lat="32.668358979882555" lon="-4.628312835644487"><ele>1528.6</ele><time>2026-04-27T09:32:35.999Z</time></trkpt><trkpt lat="32.66841322009901" lon="-4.628429736060544"><ele>1529.0</ele><time>2026-04-27T09:32:36.999Z</time></trkpt><trkpt lat="32.6684680792143" lon="-4.628547582245662"><ele>1529.0</ele><time>2026-04-27T09:32:37.999Z</time></trkpt><trkpt lat="32.668524932975345" lon="-4.6286698671212845"><ele>1529.0</ele><time>2026-04-27T09:32:38.999Z</time></trkpt><trkpt lat="32.668581377151405" lon="-4.628793919129195"><ele>1529.0</ele><time>2026-04-27T09:32:39.999Z</time></trkpt><trkpt lat="32.6686396696196" lon="-4.6289219314742995"><ele>1529.0</ele><time>2026-04-27T09:32:40.999Z</time></trkpt><trkpt lat="32.668702814867004" lon="-4.629060215809343"><ele>1528.3333333333335</ele><time>2026-04-27T09:32:41.999Z</time></trkpt><trkpt lat="32.66876895662605" lon="-4.629214900894588"><ele>1527.6666666666667</ele><time>2026-04-27T09:32:42.999Z</time></trkpt><trkpt lat="32.668837127777735" lon="-4.629381702387304"><ele>1527.0</ele><time>2026-04-27T09:32:43.999Z</time></trkpt><trkpt lat="32.668955450677814" lon="-4.629534155374696"><ele>1526.3333333333333</ele><time>2026-04-27T09:32:44.999Z</time></trkpt><trkpt lat="32.669044786490325" lon="-4.62972733178109"><ele>1525.6666666666665</ele><time>2026-04-27T09:32:45.999Z</time></trkpt><trkpt lat="32.66909328258469" lon="-4.629966533774308"><ele>1525.0</ele><time>2026-04-27T09:32:46.999Z</time></trkpt><trkpt lat="32.669199692628354" lon="-4.630181815681458"><ele>1526.5</ele><time>2026-04-27T09:32:47.999Z</time></trkpt><trkpt lat="32.669312561319515" lon="-4.630409229405091"><ele>1528.0</ele><time>2026-04-27T09:32:48.999Z</time></trkpt><trkpt lat="32.669431355748415" lon="-4.6306546065634775"><ele>1526.0</ele><time>2026-04-27T09:32:49.999Z</time></trkpt><trkpt lat="32.669551166426075" lon="-4.630916459382763"><ele>1524.0</ele><time>2026-04-27T09:32:50.999Z</time></trkpt><trkpt lat="32.669673434660496" lon="-4.631182381073994"><ele>1524.0</ele><time>2026-04-27T09:32:51.999Z</time></trkpt><trkpt lat="32.669794595730124" lon="-4.631443634769169"><ele>1524.0</ele><time>2026-04-27T09:32:52.999Z</time></trkpt><trkpt lat="32.66994644969339" lon="-4.631677661930703"><ele>1524.0</ele><time>2026-04-27T09:32:53.999Z</time></trkpt><trkpt lat="32.670061109131275" lon="-4.631925799165188"><ele>1524.0</ele><time>2026-04-27T09:32:54.999Z</time></trkpt><trkpt lat="32.67013662363062" lon="-4.632182012333104"><ele>1524.6666666666667</ele><time>2026-04-27T09:32:55.999Z</time></trkpt><trkpt lat="32.670240307362725" lon="-4.632407692963056"><ele>1525.3333333333335</ele><time>2026-04-27T09:32:56.999Z</time></trkpt><trkpt lat="32.67034354063659" lon="-4.632630917973672"><ele>1526.0</ele><time>2026-04-27T09:32:57.999Z</time></trkpt><trkpt lat="32.67043796080059" lon="-4.63284697306926"><ele>1524.6666666666667</ele><time>2026-04-27T09:32:58.999Z</time></trkpt><trkpt lat="32.67053276591765" lon="-4.633055806741457"><ele>1523.3333333333333</ele><time>2026-04-27T09:32:59.999Z</time></trkpt><trkpt lat="32.67062641169893" lon="-4.633261966036689"><ele>1522.0</ele><time>2026-04-27T09:33:00.999Z</time></trkpt><trkpt lat="32.67071977222622" lon="-4.63346795473378"><ele>1523.0</ele><time>2026-04-27T09:33:01.999Z</time></trkpt><trkpt lat="32.67081471503579" lon="-4.6336776450333295"><ele>1524.0</ele><time>2026-04-27T09:33:02.999Z</time></trkpt><trkpt lat="32.67091244295475" lon="-4.633892987157688"><ele>1525.0</ele><time>2026-04-27T09:33:03.999Z</time></trkpt><trkpt lat="32.671010023163056" lon="-4.634109448331369"><ele>1523.6666666666665</ele><time>2026-04-27T09:33:04.999Z</time></trkpt><trkpt lat="32.67110942256381" lon="-4.634328054607745"><ele>1522.3333333333333</ele><time>2026-04-27T09:33:05.999Z</time></trkpt><trkpt lat="32.67125905191491" lon="-4.634518385313824"><ele>1521.0</ele><time>2026-04-27T09:33:06.998Z</time></trkpt><trkpt lat="32.67136302211758" lon="-4.634742484660579"><ele>1521.0</ele><time>2026-04-27T09:33:07.998Z</time></trkpt><trkpt lat="32.67146763624846" lon="-4.634968309381028"><ele>1521.0</ele><time>2026-04-27T09:33:08.998Z</time></trkpt><trkpt lat="32.6715735420324" lon="-4.635196922327564"><ele>1521.0</ele><time>2026-04-27T09:33:09.998Z</time></trkpt><trkpt lat="32.6716806745821" lon="-4.635429651205702"><ele>1521.0</ele><time>2026-04-27T09:33:10.998Z</time></trkpt><trkpt lat="32.67178949925923" lon="-4.635664706263715"><ele>1521.0</ele><time>2026-04-27T09:33:11.998Z</time></trkpt><trkpt lat="32.67190041807527" lon="-4.635905103262646"><ele>1520.0</ele><time>2026-04-27T09:33:12.998Z</time></trkpt><trkpt lat="32.67201243262416" lon="-4.636147633413126"><ele>1519.0</ele><time>2026-04-27T09:33:13.999Z</time></trkpt><trkpt lat="32.6721262236004" lon="-4.636394636514202"><ele>1519.0</ele><time>2026-04-27T09:33:14.998Z</time></trkpt><trkpt lat="32.672239363103664" lon="-4.63664015527596"><ele>1519.0</ele><time>2026-04-27T09:33:15.998Z</time></trkpt><trkpt lat="32.67235184536883" lon="-4.636883271846959"><ele>1518.5</ele><time>2026-04-27T09:33:16.998Z</time></trkpt><trkpt lat="32.67246204976965" lon="-4.637121465093691"><ele>1518.0</ele><time>2026-04-27T09:33:17.998Z</time></trkpt><trkpt lat="32.67257235402685" lon="-4.637359874158259"><ele>1518.0</ele><time>2026-04-27T09:33:18.998Z</time></trkpt><trkpt lat="32.67268154330025" lon="-4.637595873331614"><ele>1518.0</ele><time>2026-04-27T09:33:19.998Z</time></trkpt><trkpt lat="32.672789047086276" lon="-4.637828229532278"><ele>1517.3333333333333</ele><time>2026-04-27T09:33:20.998Z</time></trkpt><trkpt lat="32.672897375537" lon="-4.638062368135354"><ele>1516.6666666666665</ele><time>2026-04-27T09:33:21.998Z</time></trkpt><trkpt lat="32.673003957610824" lon="-4.6382927321713945"><ele>1516.0</ele><time>2026-04-27T09:33:22.998Z</time></trkpt><trkpt lat="32.673067861558295" lon="-4.638547913630162"><ele>1516.0</ele><time>2026-04-27T09:33:23.998Z</time></trkpt><trkpt lat="32.67317479675612" lon="-4.638769972170795"><ele>1516.0</ele><time>2026-04-27T09:33:24.998Z</time></trkpt><trkpt lat="32.67328517106193" lon="-4.639002674654806"><ele>1516.0</ele><time>2026-04-27T09:33:25.998Z</time></trkpt><trkpt lat="32.67340200568238" lon="-4.639276569538563"><ele>1515.5</ele><time>2026-04-27T09:33:26.998Z</time></trkpt><trkpt lat="32.67353024332651" lon="-4.639586688239178"><ele>1515.0</ele><time>2026-04-27T09:33:28Z</time></trkpt><trkpt lat="32.67367868322642" lon="-4.63991653765949"><ele>1515.0</ele><time>2026-04-27T09:33:29Z</time></trkpt><trkpt lat="32.67384995068336" lon="-4.640266311805191"><ele>1515.0</ele><time>2026-04-27T09:33:30Z</time></trkpt><trkpt lat="32.67403035729792" lon="-4.640632499092104"><ele>1515.5</ele><time>2026-04-27T09:33:31Z</time></trkpt><trkpt lat="32.67420889887648" lon="-4.641007116703534"><ele>1516.0</ele><time>2026-04-27T09:33:32Z</time></trkpt><trkpt lat="32.67438026647528" lon="-4.6413748413441"><ele>1516.5</ele><time>2026-04-27T09:33:33Z</time></trkpt><trkpt lat="32.67454952973337" lon="-4.641735704591338"><ele>1517.0</ele><time>2026-04-27T09:33:34Z</time></trkpt><trkpt lat="32.674714533811155" lon="-4.64208373906707"><ele>1518.0</ele><time>2026-04-27T09:33:35Z</time></trkpt><trkpt lat="32.67487398455933" lon="-4.642420621249546"><ele>1519.0</ele><time>2026-04-27T09:33:36Z</time></trkpt><trkpt lat="32.67502829654976" lon="-4.642750659280834"><ele>1518.5</ele><time>2026-04-27T09:33:37Z</time></trkpt><trkpt lat="32.67518126892306" lon="-4.643080296518789"><ele>1518.0</ele><time>2026-04-27T09:33:38Z</time></trkpt><trkpt lat="32.67533430929796" lon="-4.643408711130248"><ele>1517.5</ele><time>2026-04-27T09:33:39Z</time></trkpt><trkpt lat="32.675487989108014" lon="-4.643740647857446"><ele>1517.0</ele><time>2026-04-27T09:33:40Z</time></trkpt><trkpt lat="32.675643342271584" lon="-4.644078771936959"><ele>1517.0</ele><time>2026-04-27T09:33:41Z</time></trkpt><trkpt lat="32.67580032629973" lon="-4.644422021495212"><ele>1517.0</ele><time>2026-04-27T09:33:42Z</time></trkpt><trkpt lat="32.675958496704865" lon="-4.644769261480394"><ele>1517.0</ele><time>2026-04-27T09:33:43Z</time></trkpt><trkpt lat="32.676118599653954" lon="-4.645118952758045"><ele>1517.0</ele><time>2026-04-27T09:33:44Z</time></trkpt><trkpt lat="32.67630985744091" lon="-4.645451154574547"><ele>1517.0</ele><time>2026-04-27T09:33:45Z</time></trkpt><trkpt lat="32.67647088130473" lon="-4.645802953209383"><ele>1517.0</ele><time>2026-04-27T09:33:46Z</time></trkpt><trkpt lat="32.676632336158775" lon="-4.646155692784054"><ele>1517.0</ele><time>2026-04-27T09:33:47Z</time></trkpt><trkpt lat="32.6767928286798" lon="-4.646510767655577"><ele>1517.0</ele><time>2026-04-27T09:33:48Z</time></trkpt><trkpt lat="32.67692486929786" lon="-4.646886910929185"><ele>1516.0</ele><time>2026-04-27T09:33:49Z</time></trkpt><trkpt lat="32.677084348545996" lon="-4.647244244459111"><ele>1515.0</ele><time>2026-04-27T09:33:50Z</time></trkpt><trkpt lat="32.677239439805106" lon="-4.647600765747398"><ele>1515.5</ele><time>2026-04-27T09:33:50.999Z</time></trkpt><trkpt lat="32.67738822276904" lon="-4.647953014587792"><ele>1516.0</ele><time>2026-04-27T09:33:51.999Z</time></trkpt><trkpt lat="32.677524783766806" lon="-4.648293146084711"><ele>1516.0</ele><time>2026-04-27T09:33:52.999Z</time></trkpt><trkpt lat="32.677646282664" lon="-4.648621423400628"><ele>1516.0</ele><time>2026-04-27T09:33:53.999Z</time></trkpt><trkpt lat="32.67775726559627" lon="-4.648939955191902"><ele>1515.5</ele><time>2026-04-27T09:33:54.999Z</time></trkpt><trkpt lat="32.67785695567333" lon="-4.649242449467203"><ele>1515.0</ele><time>2026-04-27T09:33:55.999Z</time></trkpt><trkpt lat="32.677945203043265" lon="-4.649526533639569"><ele>1516.0</ele><time>2026-04-27T09:33:56.999Z</time></trkpt><trkpt lat="32.67802514707607" lon="-4.649794485159405"><ele>1517.0</ele><time>2026-04-27T09:33:57.999Z</time></trkpt><trkpt lat="32.67809620581067" lon="-4.650040409634091"><ele>1517.0</ele><time>2026-04-27T09:33:58.999Z</time></trkpt><trkpt lat="32.67815993375303" lon="-4.650270784565237"><ele>1517.0</ele><time>2026-04-27T09:33:59.999Z</time></trkpt><trkpt lat="32.67821871177407" lon="-4.650492766655295"><ele>1517.0</ele><time>2026-04-27T09:34:00.999Z</time></trkpt><trkpt lat="32.678276740841746" lon="-4.650726412478012"><ele>1518.0</ele><time>2026-04-27T09:34:01.999Z</time></trkpt><trkpt lat="32.6783356194527" lon="-4.651003460489565"><ele>1519.0</ele><time>2026-04-27T09:34:02.999Z</time></trkpt><trkpt lat="32.67841039685747" lon="-4.651310735820189"><ele>1521.0</ele><time>2026-04-27T09:34:03.999Z</time></trkpt><trkpt lat="32.67849955594208" lon="-4.651646022817329"><ele>1523.0</ele><time>2026-04-27T09:34:04.999Z</time></trkpt><trkpt lat="32.67858558400585" lon="-4.65200411123488"><ele>1522.0</ele><time>2026-04-27T09:34:05.999Z</time></trkpt><trkpt lat="32.678665403736325" lon="-4.652382678485446"><ele>1521.0</ele><time>2026-04-27T09:34:06.999Z</time></trkpt><trkpt lat="32.678740391325285" lon="-4.652775292991748"><ele>1521.0</ele><time>2026-04-27T09:34:07.999Z</time></trkpt><trkpt lat="32.6788080693625" lon="-4.653179179129306"><ele>1521.0</ele><time>2026-04-27T09:34:08.999Z</time></trkpt><trkpt lat="32.67887064374591" lon="-4.653580477777801"><ele>1520.5</ele><time>2026-04-27T09:34:09.999Z</time></trkpt><trkpt lat="32.678927227324046" lon="-4.653967151756478"><ele>1520.0</ele><time>2026-04-27T09:34:10.999Z</time></trkpt><trkpt lat="32.67897792124812" lon="-4.654339344336973"><ele>1521.0</ele><time>2026-04-27T09:34:11.999Z</time></trkpt><trkpt lat="32.67902415494334" lon="-4.654708374919157"><ele>1522.0</ele><time>2026-04-27T09:34:12.999Z</time></trkpt><trkpt lat="32.67906340692378" lon="-4.655082220349634"><ele>1522.0</ele><time>2026-04-27T09:34:13.999Z</time></trkpt><trkpt lat="32.67909817352585" lon="-4.655468905646829"><ele>1522.0</ele><time>2026-04-27T09:34:14.999Z</time></trkpt><trkpt lat="32.67912782650993" lon="-4.655860983923737"><ele>1520.5</ele><time>2026-04-27T09:34:15.999Z</time></trkpt><trkpt lat="32.679154320742235" lon="-4.656259182490577"><ele>1519.0</ele><time>2026-04-27T09:34:16.999Z</time></trkpt><trkpt lat="32.679177509828634" lon="-4.656664866747464"><ele>1517.5</ele><time>2026-04-27T09:34:17.999Z</time></trkpt><trkpt lat="32.67919094802802" lon="-4.6570819244898525"><ele>1516.0</ele><time>2026-04-27T09:34:18.999Z</time></trkpt><trkpt lat="32.67919741267022" lon="-4.657516003603804"><ele>1513.5</ele><time>2026-04-27T09:34:19.999Z</time></trkpt><trkpt lat="32.679200510238026" lon="-4.657970419967902"><ele>1511.0</ele><time>2026-04-27T09:34:20.999Z</time></trkpt><trkpt lat="32.67919991577171" lon="-4.658446961526244"><ele>1508.0</ele><time>2026-04-27T09:34:21.999Z</time></trkpt><trkpt lat="32.67919685335706" lon="-4.658938440354711"><ele>1505.0</ele><time>2026-04-27T09:34:22.999Z</time></trkpt><trkpt lat="32.67919268737416" lon="-4.659447781237424"><ele>1503.5</ele><time>2026-04-27T09:34:23.999Z</time></trkpt><trkpt lat="32.67918887613196" lon="-4.659975458473688"><ele>1502.0</ele><time>2026-04-27T09:34:24.999Z</time></trkpt><trkpt lat="32.6791844776758" lon="-4.6605193624775"><ele>1500.0</ele><time>2026-04-27T09:34:25.999Z</time></trkpt><trkpt lat="32.679178523497406" lon="-4.661068101307982"><ele>1497.0</ele><time>2026-04-27T09:34:26.999Z</time></trkpt><trkpt lat="32.67917223763802" lon="-4.661610739914791"><ele>1496.0</ele><time>2026-04-27T09:34:27.999Z</time></trkpt><trkpt lat="32.679165081888755" lon="-4.662152456361964"><ele>1496.0</ele><time>2026-04-27T09:34:28.999Z</time></trkpt><trkpt lat="32.679156729302" lon="-4.6627132535461016"><ele>1495.0</ele><time>2026-04-27T09:34:29.999Z</time></trkpt><trkpt lat="32.67915035564932" lon="-4.663288700493882"><ele>1496.0</ele><time>2026-04-27T09:34:30.999Z</time></trkpt><trkpt lat="32.67914706236054" lon="-4.663871345079864"><ele>1496.0</ele><time>2026-04-27T09:34:31.999Z</time></trkpt><trkpt lat="32.67914569846396" lon="-4.664462157752047"><ele>1496.0</ele><time>2026-04-27T09:34:32.999Z</time></trkpt><trkpt lat="32.679146176379234" lon="-4.665040727947356"><ele>1496.0</ele><time>2026-04-27T09:34:33.999Z</time></trkpt><trkpt lat="32.67914634798206" lon="-4.665598554812418"><ele>1496.0</ele><time>2026-04-27T09:34:34.999Z</time></trkpt><trkpt lat="32.67914524640208" lon="-4.666144302241772"><ele>1496.0</ele><time>2026-04-27T09:34:35.999Z</time></trkpt><trkpt lat="32.679143287095265" lon="-4.666667327996411"><ele>1496.0</ele><time>2026-04-27T09:34:36.999Z</time></trkpt><trkpt lat="32.679140105324294" lon="-4.667173857500347"><ele>1496.0</ele><time>2026-04-27T09:34:37.999Z</time></trkpt><trkpt lat="32.67913805124949" lon="-4.6676607825756005"><ele>1496.0</ele><time>2026-04-27T09:34:38.999Z</time></trkpt><trkpt lat="32.67913643443624" lon="-4.668134155108152"><ele>1496.0</ele><time>2026-04-27T09:34:39.999Z</time></trkpt><trkpt lat="32.679134585883915" lon="-4.668592909968896"><ele>1496.0</ele><time>2026-04-27T09:34:40.999Z</time></trkpt><trkpt lat="32.67913228190529" lon="-4.6690373108529455"><ele>1496.5</ele><time>2026-04-27T09:34:41.999Z</time></trkpt><trkpt lat="32.67913003830212" lon="-4.669466414582328"><ele>1497.0</ele><time>2026-04-27T09:34:42.999Z</time></trkpt><trkpt lat="32.679129133350614" lon="-4.66988045583392"><ele>1497.5</ele><time>2026-04-27T09:34:43.999Z</time></trkpt><trkpt lat="32.679132548529815" lon="-4.67028214895357"><ele>1498.0</ele><time>2026-04-27T09:34:44.999Z</time></trkpt><trkpt lat="32.679147058298184" lon="-4.670679355065282"><ele>1498.0</ele><time>2026-04-27T09:34:45.999Z</time></trkpt><trkpt lat="32.67917511776545" lon="-4.671075642968645"><ele>1498.0</ele><time>2026-04-27T09:34:46.999Z</time></trkpt><trkpt lat="32.679219960228096" lon="-4.671468321882492"><ele>1497.0</ele><time>2026-04-27T09:34:47.999Z</time></trkpt><trkpt lat="32.67927676316084" lon="-4.671851527376069"><ele>1496.0</ele><time>2026-04-27T09:34:48.999Z</time></trkpt><trkpt lat="32.6793373110231" lon="-4.6722248675819715"><ele>1495.5</ele><time>2026-04-27T09:34:49.999Z</time></trkpt><trkpt lat="32.679398280878885" lon="-4.672600008733055"><ele>1495.0</ele><time>2026-04-27T09:34:50.999Z</time></trkpt><trkpt lat="32.67946175996997" lon="-4.672984047819905"><ele>1493.5</ele><time>2026-04-27T09:34:51.999Z</time></trkpt><trkpt lat="32.67952615419373" lon="-4.673374588644802"><ele>1492.0</ele><time>2026-04-27T09:34:52.999Z</time></trkpt><trkpt lat="32.67959174360973" lon="-4.673770445620381"><ele>1492.0</ele><time>2026-04-27T09:34:53.999Z</time></trkpt><trkpt lat="32.67965716751794" lon="-4.67417174248974"><ele>1492.0</ele><time>2026-04-27T09:34:54.999Z</time></trkpt><trkpt lat="32.67972301435858" lon="-4.674582160728412"><ele>1491.5</ele><time>2026-04-27T09:34:55.999Z</time></trkpt><trkpt lat="32.679790195363296" lon="-4.674997121475135"><ele>1491.0</ele><time>2026-04-27T09:34:56.999Z</time></trkpt><trkpt lat="32.67985808182389" lon="-4.675418274988108"><ele>1490.5</ele><time>2026-04-27T09:34:57.999Z</time></trkpt><trkpt lat="32.67992878488874" lon="-4.6758507474796165"><ele>1490.0</ele><time>2026-04-27T09:34:58.999Z</time></trkpt><trkpt lat="32.680001602750735" lon="-4.6762930167707095"><ele>1490.0</ele><time>2026-04-27T09:34:59.999Z</time></trkpt><trkpt lat="32.68007304065241" lon="-4.676736115295134"><ele>1490.0</ele><time>2026-04-27T09:35:00.999Z</time></trkpt><trkpt lat="32.6801439467812" lon="-4.6771834050334045"><ele>1489.0</ele><time>2026-04-27T09:35:01.999Z</time></trkpt><trkpt lat="32.68021383856081" lon="-4.677632000115414"><ele>1488.0</ele><time>2026-04-27T09:35:02.999Z</time></trkpt><trkpt lat="32.68028239531321" lon="-4.678071546341092"><ele>1486.5</ele><time>2026-04-27T09:35:03.999Z</time></trkpt><trkpt lat="32.68035423577047" lon="-4.678511107709732"><ele>1485.0</ele><time>2026-04-27T09:35:04.999Z</time></trkpt><trkpt lat="32.680428235715986" lon="-4.678947688835616"><ele>1485.0</ele><time>2026-04-27T09:35:05.999Z</time></trkpt><trkpt lat="32.68049932213516" lon="-4.67937680433053"><ele>1485.0</ele><time>2026-04-27T09:35:06.998Z</time></trkpt><trkpt lat="32.68056649589033" lon="-4.679803456148672"><ele>1485.5</ele><time>2026-04-27T09:35:07.998Z</time></trkpt><trkpt lat="32.68063306847831" lon="-4.680224566516568"><ele>1486.0</ele><time>2026-04-27T09:35:08.998Z</time></trkpt><trkpt lat="32.68070404921952" lon="-4.680639506779795"><ele>1486.5</ele><time>2026-04-27T09:35:09.998Z</time></trkpt><trkpt lat="32.6807800523458" lon="-4.681047565693777"><ele>1487.0</ele><time>2026-04-27T09:35:10.998Z</time></trkpt><trkpt lat="32.680861487533754" lon="-4.681448732963939"><ele>1487.0</ele><time>2026-04-27T09:35:11.998Z</time></trkpt><trkpt lat="32.6809465747221" lon="-4.681848424268641"><ele>1487.0</ele><time>2026-04-27T09:35:12.998Z</time></trkpt><trkpt lat="32.68103754125888" lon="-4.682250334886948"><ele>1486.0</ele><time>2026-04-27T09:35:13.998Z</time></trkpt><trkpt lat="32.68113253968636" lon="-4.682653061286967"><ele>1485.0</ele><time>2026-04-27T09:35:14.998Z</time></trkpt><trkpt lat="32.68125826787617" lon="-4.683048842787792"><ele>1485.0</ele><time>2026-04-27T09:35:15.998Z</time></trkpt><trkpt lat="32.68135441708126" lon="-4.683453197438902"><ele>1485.0</ele><time>2026-04-27T09:35:16.998Z</time></trkpt><trkpt lat="32.6814505261949" lon="-4.683857188280121"><ele>1485.5</ele><time>2026-04-27T09:35:17.998Z</time></trkpt><trkpt lat="32.681546230505774" lon="-4.684257715419482"><ele>1486.0</ele><time>2026-04-27T09:35:18.998Z</time></trkpt><trkpt lat="32.681639479402904" lon="-4.6846492857247615"><ele>1486.0</ele><time>2026-04-27T09:35:19.998Z</time></trkpt><trkpt lat="32.681730440688646" lon="-4.685032241164068"><ele>1486.0</ele><time>2026-04-27T09:35:20.998Z</time></trkpt><trkpt lat="32.68181699837357" lon="-4.685395068673705"><ele>1486.5</ele><time>2026-04-27T09:35:21.998Z</time></trkpt><trkpt lat="32.681901717552535" lon="-4.685746520130241"><ele>1487.0</ele><time>2026-04-27T09:35:22.998Z</time></trkpt><trkpt lat="32.68196685438357" lon="-4.686098172974677"><ele>1485.5</ele><time>2026-04-27T09:35:23.998Z</time></trkpt><trkpt lat="32.6820492640935" lon="-4.686450511973036"><ele>1484.0</ele><time>2026-04-27T09:35:24.998Z</time></trkpt><trkpt lat="32.68212921879506" lon="-4.6867931671482"><ele>1484.0</ele><time>2026-04-27T09:35:25.998Z</time></trkpt><trkpt lat="32.68220639109971" lon="-4.687122008426823"><ele>1484.0</ele><time>2026-04-27T09:35:26.998Z</time></trkpt><trkpt lat="32.68231221051598" lon="-4.687450798519941"><ele>1484.5</ele><time>2026-04-27T09:35:27.998Z</time></trkpt><trkpt lat="32.682389950642715" lon="-4.687783115223955"><ele>1485.0</ele><time>2026-04-27T09:35:28.998Z</time></trkpt><trkpt lat="32.682457068009505" lon="-4.688117130373757"><ele>1485.0</ele><time>2026-04-27T09:35:29.998Z</time></trkpt><trkpt lat="32.68254311157185" lon="-4.6884379635141755"><ele>1485.0</ele><time>2026-04-27T09:35:30.998Z</time></trkpt><trkpt lat="32.68262344476651" lon="-4.688746088507434"><ele>1485.5</ele><time>2026-04-27T09:35:31.998Z</time></trkpt><trkpt lat="32.68269943454016" lon="-4.689040642951812"><ele>1486.0</ele><time>2026-04-27T09:35:32.998Z</time></trkpt><trkpt lat="32.682771363804356" lon="-4.689326405208197"><ele>1484.5</ele><time>2026-04-27T09:35:34Z</time></trkpt><trkpt lat="32.6828422900238" lon="-4.689614423249315"><ele>1483.0</ele><time>2026-04-27T09:35:35Z</time></trkpt><trkpt lat="32.682912840183974" lon="-4.689904668224714"><ele>1483.0</ele><time>2026-04-27T09:35:36Z</time></trkpt><trkpt lat="32.68298644410572" lon="-4.690204875101505"><ele>1483.0</ele><time>2026-04-27T09:35:37Z</time></trkpt><trkpt lat="32.68306036464311" lon="-4.690514503692814"><ele>1482.0</ele><time>2026-04-27T09:35:38Z</time></trkpt><trkpt lat="32.683130720177445" lon="-4.690827871512016"><ele>1481.0</ele><time>2026-04-27T09:35:39Z</time></trkpt><trkpt lat="32.68321178008502" lon="-4.691136938092769"><ele>1481.0</ele><time>2026-04-27T09:35:40Z</time></trkpt><trkpt lat="32.68328802739405" lon="-4.6914469380694745"><ele>1481.0</ele><time>2026-04-27T09:35:41Z</time></trkpt><trkpt lat="32.68336247375133" lon="-4.691749616436631"><ele>1482.0</ele><time>2026-04-27T09:35:42Z</time></trkpt><trkpt lat="32.68342841521479" lon="-4.692044888454538"><ele>1483.0</ele><time>2026-04-27T09:35:43Z</time></trkpt><trkpt lat="32.68332844585583" lon="-4.692380607753848"><ele>1483.0</ele><time>2026-04-27T09:35:44Z</time></trkpt><trkpt lat="32.68333787447052" lon="-4.692663459639724"><ele>1483.0</ele><time>2026-04-27T09:35:45Z</time></trkpt><trkpt lat="32.68333880086168" lon="-4.692929365167642"><ele>1482.3333333333333</ele><time>2026-04-27T09:35:46Z</time></trkpt><trkpt lat="32.68333347955919" lon="-4.693184146658566"><ele>1481.6666666666667</ele><time>2026-04-27T09:35:47Z</time></trkpt><trkpt lat="32.68332061415589" lon="-4.693435823797226"><ele>1481.0</ele><time>2026-04-27T09:35:48Z</time></trkpt><trkpt lat="32.6833004939366" lon="-4.693688334974306"><ele>1481.0</ele><time>2026-04-27T09:35:49Z</time></trkpt><trkpt lat="32.68327264407116" lon="-4.693947744136141"><ele>1481.0</ele><time>2026-04-27T09:35:50Z</time></trkpt><trkpt lat="32.683242522679166" lon="-4.694202265445889"><ele>1481.0</ele><time>2026-04-27T09:35:50.999Z</time></trkpt><trkpt lat="32.68321623678438" lon="-4.69444208051127"><ele>1481.0</ele><time>2026-04-27T09:35:51.999Z</time></trkpt><trkpt lat="32.68319220074" lon="-4.694664517030588"><ele>1481.0</ele><time>2026-04-27T09:35:52.999Z</time></trkpt><trkpt lat="32.68316888788387" lon="-4.694887681032401"><ele>1481.0</ele><time>2026-04-27T09:35:53.999Z</time></trkpt><trkpt lat="32.683143552672796" lon="-4.695118967255532"><ele>1481.0</ele><time>2026-04-27T09:35:54.999Z</time></trkpt><trkpt lat="32.683115196470084" lon="-4.695358549462365"><ele>1481.0</ele><time>2026-04-27T09:35:55.999Z</time></trkpt><trkpt lat="32.68308736786585" lon="-4.695594262417016"><ele>1481.0</ele><time>2026-04-27T09:35:56.999Z</time></trkpt><trkpt lat="32.683064901103286" lon="-4.695831767405042"><ele>1481.0</ele><time>2026-04-27T09:35:57.999Z</time></trkpt><trkpt lat="32.68304402425679" lon="-4.696066514377419"><ele>1481.0</ele><time>2026-04-27T09:35:58.999Z</time></trkpt><trkpt lat="32.683018506730946" lon="-4.696296409983123"><ele>1481.0</ele><time>2026-04-27T09:35:59.999Z</time></trkpt><trkpt lat="32.68299864506904" lon="-4.696513144378721"><ele>1481.0</ele><time>2026-04-27T09:36:00.999Z</time></trkpt><trkpt lat="32.68298023519212" lon="-4.696727689598"><ele>1481.0</ele><time>2026-04-27T09:36:01.999Z</time></trkpt><trkpt lat="32.68296151786749" lon="-4.696950774615624"><ele>1481.0</ele><time>2026-04-27T09:36:02.999Z</time></trkpt><trkpt lat="32.68294001400571" lon="-4.697189585034788"><ele>1480.6666666666667</ele><time>2026-04-27T09:36:03.999Z</time></trkpt><trkpt lat="32.68291791142643" lon="-4.697448018002669"><ele>1480.3333333333333</ele><time>2026-04-27T09:36:04.999Z</time></trkpt><trkpt lat="32.6829019871933" lon="-4.697721151192429"><ele>1480.0</ele><time>2026-04-27T09:36:05.999Z</time></trkpt><trkpt lat="32.68289357212991" lon="-4.698007138403331"><ele>1479.5</ele><time>2026-04-27T09:36:06.999Z</time></trkpt><trkpt lat="32.6828933314195" lon="-4.698291466589199"><ele>1479.0</ele><time>2026-04-27T09:36:07.999Z</time></trkpt><trkpt lat="32.68289972728565" lon="-4.698561015068918"><ele>1479.6666666666667</ele><time>2026-04-27T09:36:08.999Z</time></trkpt><trkpt lat="32.68290790806834" lon="-4.6988155869815325"><ele>1480.3333333333335</ele><time>2026-04-27T09:36:09.999Z</time></trkpt><trkpt lat="32.6829161412895" lon="-4.699061403642678"><ele>1481.0</ele><time>2026-04-27T09:36:10.999Z</time></trkpt><trkpt lat="32.682924281561974" lon="-4.6993121634964385"><ele>1481.0</ele><time>2026-04-27T09:36:11.999Z</time></trkpt><trkpt lat="32.68293187519241" lon="-4.699560743026199"><ele>1481.0</ele><time>2026-04-27T09:36:12.999Z</time></trkpt><trkpt lat="32.68293677307787" lon="-4.699793413647821"><ele>1481.0</ele><time>2026-04-27T09:36:13.999Z</time></trkpt><trkpt lat="32.68294121291001" lon="-4.700016576441628"><ele>1481.3333333333335</ele><time>2026-04-27T09:36:14.999Z</time></trkpt><trkpt lat="32.68293960049206" lon="-4.700251063664625"><ele>1481.6666666666667</ele><time>2026-04-27T09:36:15.999Z</time></trkpt><trkpt lat="32.682941660184866" lon="-4.7004903300572485"><ele>1482.0</ele><time>2026-04-27T09:36:16.999Z</time></trkpt><trkpt lat="32.68295184841977" lon="-4.700706327983059"><ele>1482.0</ele><time>2026-04-27T09:36:17.999Z</time></trkpt><trkpt lat="32.68296524923173" lon="-4.700909956209947"><ele>1482.0</ele><time>2026-04-27T09:36:18.999Z</time></trkpt><trkpt lat="32.68297413379798" lon="-4.701090980821149"><ele>1482.0</ele><time>2026-04-27T09:36:19.999Z</time></trkpt><trkpt lat="32.68298121079836" lon="-4.701248782023862"><ele>1482.3999999999999</ele><time>2026-04-27T09:36:20.999Z</time></trkpt><trkpt lat="32.68299108426823" lon="-4.701391555020137"><ele>1482.8</ele><time>2026-04-27T09:36:21.999Z</time></trkpt><trkpt lat="32.68300616249702" lon="-4.701524717362076"><ele>1483.2</ele><time>2026-04-27T09:36:22.999Z</time></trkpt><trkpt lat="32.68302909122586" lon="-4.701648122997119"><ele>1483.6</ele><time>2026-04-27T09:36:23.999Z</time></trkpt><trkpt lat="32.68306610363681" lon="-4.701757145270387"><ele>1484.0</ele><time>2026-04-27T09:36:24.999Z</time></trkpt><trkpt lat="32.68312460902569" lon="-4.701853506999575"><ele>1484.6</ele><time>2026-04-27T09:36:25.999Z</time></trkpt><trkpt lat="32.68320319704481" lon="-4.701929737476367"><ele>1485.2</ele><time>2026-04-27T09:36:26.999Z</time></trkpt><trkpt lat="32.683293937653495" lon="-4.7019879370303865"><ele>1485.8</ele><time>2026-04-27T09:36:27.999Z</time></trkpt><trkpt lat="32.68338445304406" lon="-4.702028559974107"><ele>1486.3999999999999</ele><time>2026-04-27T09:36:28.999Z</time></trkpt><trkpt lat="32.683488520358964" lon="-4.702060504422316"><ele>1487.0</ele><time>2026-04-27T09:36:29.999Z</time></trkpt><trkpt lat="32.683612651949126" lon="-4.702077800522219"><ele>1487.25</ele><time>2026-04-27T09:36:30.999Z</time></trkpt><trkpt lat="32.68375024799197" lon="-4.702076395838121"><ele>1487.5</ele><time>2026-04-27T09:36:31.999Z</time></trkpt><trkpt lat="32.68389429253542" lon="-4.702066628894836"><ele>1487.75</ele><time>2026-04-27T09:36:32.999Z</time></trkpt><trkpt lat="32.68403946138981" lon="-4.702058708051107"><ele>1488.0</ele><time>2026-04-27T09:36:33.999Z</time></trkpt><trkpt lat="32.6841889164839" lon="-4.70205448945738"><ele>1488.0</ele><time>2026-04-27T09:36:34.999Z</time></trkpt><trkpt lat="32.68434628949034" lon="-4.702049437041344"><ele>1488.0</ele><time>2026-04-27T09:36:35.999Z</time></trkpt><trkpt lat="32.68450988318464" lon="-4.702043858246795"><ele>1488.0</ele><time>2026-04-27T09:36:36.999Z</time></trkpt><trkpt lat="32.68467711225583" lon="-4.702036640646143"><ele>1488.0</ele><time>2026-04-27T09:36:37.999Z</time></trkpt><trkpt lat="32.68483579109089" lon="-4.702029170283369"><ele>1488.0</ele><time>2026-04-27T09:36:38.999Z</time></trkpt><trkpt lat="32.68498163312052" lon="-4.702021448208787"><ele>1488.0</ele><time>2026-04-27T09:36:39.999Z</time></trkpt><trkpt lat="32.6851078157603" lon="-4.702016987969733"><ele>1488.0</ele><time>2026-04-27T09:36:40.999Z</time></trkpt><trkpt lat="32.68521779232962" lon="-4.7020136021709"><ele>1488.0</ele><time>2026-04-27T09:36:41.999Z</time></trkpt><trkpt lat="32.68530389343334" lon="-4.702009425044687"><ele>1488.0</ele><time>2026-04-27T09:36:42.999Z</time></trkpt><trkpt lat="32.68537103510123" lon="-4.702007822071389"><ele>1488.0</ele><time>2026-04-27T09:36:43.999Z</time></trkpt><trkpt lat="32.68543840739207" lon="-4.702021009077301"><ele>1488.0</ele><time>2026-04-27T09:37:12.998Z</time></trkpt><trkpt lat="32.68539106167954" lon="-4.702070523120414"><ele>1488.0</ele><time>2026-04-27T09:37:18.998Z</time></trkpt><trkpt lat="32.68528740306911" lon="-4.702064974878098"><ele>1488.0</ele><time>2026-04-27T09:37:20.998Z</time></trkpt><trkpt lat="32.685145177256146" lon="-4.702071705922731"><ele>1488.0</ele><time>2026-04-27T09:37:21.998Z</time></trkpt><trkpt lat="32.6850180297324" lon="-4.702073415705727"><ele>1488.0</ele><time>2026-04-27T09:37:22.998Z</time></trkpt><trkpt lat="32.6848999417263" lon="-4.7020756328706215"><ele>1488.0</ele><time>2026-04-27T09:37:23.998Z</time></trkpt><trkpt lat="32.684762347011805" lon="-4.702076947305814"><ele>1488.0</ele><time>2026-04-27T09:37:24.998Z</time></trkpt><trkpt lat="32.684602894424366" lon="-4.702079708289175"><ele>1488.0</ele><time>2026-04-27T09:37:25.998Z</time></trkpt><trkpt lat="32.684442782007615" lon="-4.702081312969346"><ele>1488.0</ele><time>2026-04-27T09:37:26.998Z</time></trkpt><trkpt lat="32.68428066000684" lon="-4.702083196569399"><ele>1488.0</ele><time>2026-04-27T09:37:27.998Z</time></trkpt><trkpt lat="32.68411780499244" lon="-4.702085412648656"><ele>1488.0</ele><time>2026-04-27T09:37:28.998Z</time></trkpt><trkpt lat="32.68395672403748" lon="-4.702090818582008"><ele>1488.0</ele><time>2026-04-27T09:37:29.998Z</time></trkpt><trkpt lat="32.68380117758588" lon="-4.702096881548437"><ele>1488.0</ele><time>2026-04-27T09:37:30.998Z</time></trkpt><trkpt lat="32.68365856125326" lon="-4.7021111769216635"><ele>1487.8000000000002</ele><time>2026-04-27T09:37:31.998Z</time></trkpt><trkpt lat="32.68353632447485" lon="-4.702130386428686"><ele>1487.6</ele><time>2026-04-27T09:37:32.998Z</time></trkpt><trkpt lat="32.683424720488475" lon="-4.702150642423593"><ele>1487.4</ele><time>2026-04-27T09:37:33.998Z</time></trkpt><trkpt lat="32.683320470870804" lon="-4.702175789498836"><ele>1487.1999999999998</ele><time>2026-04-27T09:37:34.998Z</time></trkpt><trkpt lat="32.68323730345604" lon="-4.702217296490022"><ele>1487.0</ele><time>2026-04-27T09:37:35.998Z</time></trkpt><trkpt lat="32.68317460039502" lon="-4.702270819126918"><ele>1487.0</ele><time>2026-04-27T09:37:36.998Z</time></trkpt><trkpt lat="32.683123708121336" lon="-4.702338535509683"><ele>1487.0</ele><time>2026-04-27T09:37:37.998Z</time></trkpt><trkpt lat="32.683086223642384" lon="-4.702425674418709"><ele>1487.0</ele><time>2026-04-27T09:37:38.999Z</time></trkpt><trkpt lat="32.68305984667293" lon="-4.702540997345533"><ele>1487.0</ele><time>2026-04-27T09:37:39.999Z</time></trkpt><trkpt lat="32.68304998248536" lon="-4.702684200825211"><ele>1487.0</ele><time>2026-04-27T09:37:40.999Z</time></trkpt><trkpt lat="32.683046895315194" lon="-4.702854321719233"><ele>1488.3333333333335</ele><time>2026-04-27T09:37:41.999Z</time></trkpt><trkpt lat="32.683050727140184" lon="-4.703045338116406"><ele>1489.6666666666667</ele><time>2026-04-27T09:37:42.999Z</time></trkpt><trkpt lat="32.68305912201943" lon="-4.7032537583110745"><ele>1491.0</ele><time>2026-04-27T09:37:43.999Z</time></trkpt><trkpt lat="32.68306759399737" lon="-4.70345396218893"><ele>1492.6666666666667</ele><time>2026-04-27T09:37:44.999Z</time></trkpt><trkpt lat="32.68307397522354" lon="-4.703656636441749"><ele>1494.3333333333335</ele><time>2026-04-27T09:37:45.999Z</time></trkpt><trkpt lat="32.68308009686953" lon="-4.703861662487273"><ele>1496.0</ele><time>2026-04-27T09:37:46.999Z</time></trkpt><trkpt lat="32.68308611206662" lon="-4.7040674922797265"><ele>1496.0</ele><time>2026-04-27T09:37:47.999Z</time></trkpt><trkpt lat="32.68309113225811" lon="-4.704285663567167"><ele>1496.0</ele><time>2026-04-27T09:37:48.999Z</time></trkpt><trkpt lat="32.68309443256951" lon="-4.7045148394234975"><ele>1496.0</ele><time>2026-04-27T09:37:49.999Z</time></trkpt><trkpt lat="32.6830989724767" lon="-4.704746697507697"><ele>1495.6666666666667</ele><time>2026-04-27T09:37:50.999Z</time></trkpt><trkpt lat="32.68311657324563" lon="-4.704978808266933"><ele>1495.3333333333333</ele><time>2026-04-27T09:37:51.999Z</time></trkpt><trkpt lat="32.683123259435504" lon="-4.705211087635069"><ele>1495.0</ele><time>2026-04-27T09:37:52.999Z</time></trkpt><trkpt lat="32.683129255935064" lon="-4.705433624427972"><ele>1495.0</ele><time>2026-04-27T09:37:53.999Z</time></trkpt><trkpt lat="32.68312372699342" lon="-4.705650232052363"><ele>1495.0</ele><time>2026-04-27T09:37:54.999Z</time></trkpt><trkpt lat="32.68313268600293" lon="-4.705855723292761"><ele>1495.0</ele><time>2026-04-27T09:37:55.999Z</time></trkpt><trkpt lat="32.683139766196376" lon="-4.706058054380681"><ele>1495.6666666666665</ele><time>2026-04-27T09:37:56.999Z</time></trkpt><trkpt lat="32.683146446319405" lon="-4.7062610038231"><ele>1496.3333333333333</ele><time>2026-04-27T09:37:57.999Z</time></trkpt><trkpt lat="32.683154088061436" lon="-4.7064632445672645"><ele>1497.0</ele><time>2026-04-27T09:37:58.999Z</time></trkpt><trkpt lat="32.683162295095784" lon="-4.706664936973645"><ele>1497.0</ele><time>2026-04-27T09:37:59.999Z</time></trkpt><trkpt lat="32.68316684815432" lon="-4.706867197223161"><ele>1497.0</ele><time>2026-04-27T09:38:00.999Z</time></trkpt><trkpt lat="32.68316255327875" lon="-4.7070685195405115"><ele>1497.0</ele><time>2026-04-27T09:38:01.999Z</time></trkpt><trkpt lat="32.68314952778191" lon="-4.707265780110181"><ele>1497.3333333333333</ele><time>2026-04-27T09:38:02.999Z</time></trkpt><trkpt lat="32.68316317793714" lon="-4.707460369851514"><ele>1497.6666666666665</ele><time>2026-04-27T09:38:03.999Z</time></trkpt><trkpt lat="32.68313475292629" lon="-4.70766394138914"><ele>1498.0</ele><time>2026-04-27T09:38:04.999Z</time></trkpt><trkpt lat="32.68310443690997" lon="-4.7078640094644095"><ele>1497.3333333333333</ele><time>2026-04-27T09:38:05.999Z</time></trkpt><trkpt lat="32.683061849207434" lon="-4.7080693655596235"><ele>1496.6666666666667</ele><time>2026-04-27T09:38:06.999Z</time></trkpt><trkpt lat="32.68301339788006" lon="-4.708274600216119"><ele>1496.0</ele><time>2026-04-27T09:38:07.999Z</time></trkpt><trkpt lat="32.68296489870768" lon="-4.7084800376173765"><ele>1496.6666666666667</ele><time>2026-04-27T09:38:08.999Z</time></trkpt><trkpt lat="32.682899183343146" lon="-4.708682368291143"><ele>1497.3333333333333</ele><time>2026-04-27T09:38:09.999Z</time></trkpt><trkpt lat="32.682835281472414" lon="-4.708880176889065"><ele>1498.0</ele><time>2026-04-27T09:38:10.999Z</time></trkpt><trkpt lat="32.68277017241382" lon="-4.709081722369564"><ele>1497.0</ele><time>2026-04-27T09:38:11.999Z</time></trkpt><trkpt lat="32.682693340519045" lon="-4.709287044018944"><ele>1496.0</ele><time>2026-04-27T09:38:12.999Z</time></trkpt><trkpt lat="32.682640446296894" lon="-4.709501098318203"><ele>1495.0</ele><time>2026-04-27T09:38:13.999Z</time></trkpt><trkpt lat="32.68259141355005" lon="-4.709711502028453"><ele>1494.3333333333333</ele><time>2026-04-27T09:38:14.999Z</time></trkpt><trkpt lat="32.68254754331241" lon="-4.709917670769776"><ele>1493.6666666666667</ele><time>2026-04-27T09:38:15.999Z</time></trkpt><trkpt lat="32.682508006995235" lon="-4.710119874620671"><ele>1493.0</ele><time>2026-04-27T09:38:16.999Z</time></trkpt><trkpt lat="32.68247123506654" lon="-4.710319079118058"><ele>1492.6666666666667</ele><time>2026-04-27T09:38:17.999Z</time></trkpt><trkpt lat="32.68243763373257" lon="-4.710519136407456"><ele>1492.3333333333333</ele><time>2026-04-27T09:38:18.999Z</time></trkpt><trkpt lat="32.68240508950932" lon="-4.710716206166649"><ele>1492.0</ele><time>2026-04-27T09:38:19.999Z</time></trkpt><trkpt lat="32.68237350200833" lon="-4.710912478602293"><ele>1491.3333333333333</ele><time>2026-04-27T09:38:20.999Z</time></trkpt><trkpt lat="32.68236667842884" lon="-4.711110168711479"><ele>1490.6666666666667</ele><time>2026-04-27T09:38:21.999Z</time></trkpt><trkpt lat="32.68234307376411" lon="-4.711312598565971"><ele>1490.0</ele><time>2026-04-27T09:38:22.999Z</time></trkpt><trkpt lat="32.68231399078044" lon="-4.7115315754596345"><ele>1490.0</ele><time>2026-04-27T09:38:23.999Z</time></trkpt><trkpt lat="32.682270991411436" lon="-4.711752746405253"><ele>1490.0</ele><time>2026-04-27T09:38:24.999Z</time></trkpt><trkpt lat="32.68222665891918" lon="-4.711974928600882"><ele>1490.0</ele><time>2026-04-27T09:38:25.999Z</time></trkpt><trkpt lat="32.682184522402444" lon="-4.7121926746161655"><ele>1490.0</ele><time>2026-04-27T09:38:26.999Z</time></trkpt><trkpt lat="32.68212739394721" lon="-4.712412604951995"><ele>1490.0</ele><time>2026-04-27T09:38:27.999Z</time></trkpt><trkpt lat="32.68206590641099" lon="-4.712620544805029"><ele>1490.0</ele><time>2026-04-27T09:38:28.999Z</time></trkpt><trkpt lat="32.68200529958186" lon="-4.712824705734539"><ele>1490.6666666666667</ele><time>2026-04-27T09:38:29.999Z</time></trkpt><trkpt lat="32.68194160792005" lon="-4.713023914167484"><ele>1491.3333333333333</ele><time>2026-04-27T09:38:30.999Z</time></trkpt><trkpt lat="32.68187376362723" lon="-4.713219667456344"><ele>1492.0</ele><time>2026-04-27T09:38:31.999Z</time></trkpt><trkpt lat="32.681799652213904" lon="-4.713405722176772"><ele>1492.0</ele><time>2026-04-27T09:38:32.999Z</time></trkpt><trkpt lat="32.6817476658199" lon="-4.71359677260406"><ele>1492.0</ele><time>2026-04-27T09:38:33.999Z</time></trkpt><trkpt lat="32.681695863365846" lon="-4.713792186724004"><ele>1492.0</ele><time>2026-04-27T09:38:34.999Z</time></trkpt><trkpt lat="32.68163998980945" lon="-4.713998287891521"><ele>1492.0</ele><time>2026-04-27T09:38:35.999Z</time></trkpt><trkpt lat="32.68158269447279" lon="-4.7142098779043975"><ele>1492.0</ele><time>2026-04-27T09:38:36.999Z</time></trkpt><trkpt lat="32.681525259238" lon="-4.714421869111139"><ele>1492.0</ele><time>2026-04-27T09:38:37.999Z</time></trkpt><trkpt lat="32.68146797917843" lon="-4.7146336782167255"><ele>1491.3333333333333</ele><time>2026-04-27T09:38:38.999Z</time></trkpt><trkpt lat="32.681412354105674" lon="-4.714840239076037"><ele>1490.6666666666667</ele><time>2026-04-27T09:38:39.999Z</time></trkpt><trkpt lat="32.68135990195276" lon="-4.715044524856539"><ele>1490.0</ele><time>2026-04-27T09:38:40.999Z</time></trkpt><trkpt lat="32.68130711509341" lon="-4.715236861616852"><ele>1489.3333333333335</ele><time>2026-04-27T09:38:41.999Z</time></trkpt><trkpt lat="32.681256710555395" lon="-4.71542958493179"><ele>1488.6666666666667</ele><time>2026-04-27T09:38:42.999Z</time></trkpt><trkpt lat="32.68123436748863" lon="-4.715620698577622"><ele>1488.0</ele><time>2026-04-27T09:38:43.999Z</time></trkpt><trkpt lat="32.681197799251045" lon="-4.7157976378561655"><ele>1488.0</ele><time>2026-04-27T09:38:44.999Z</time></trkpt><trkpt lat="32.68117330073159" lon="-4.715973565031907"><ele>1488.0</ele><time>2026-04-27T09:38:45.999Z</time></trkpt><trkpt lat="32.68115716475634" lon="-4.716163569810695"><ele>1488.0</ele><time>2026-04-27T09:38:46.999Z</time></trkpt><trkpt lat="32.6811409628786" lon="-4.716363899295102"><ele>1487.3333333333333</ele><time>2026-04-27T09:38:47.999Z</time></trkpt><trkpt lat="32.68113358094189" lon="-4.716553712160148"><ele>1486.6666666666665</ele><time>2026-04-27T09:38:48.999Z</time></trkpt><trkpt lat="32.681127918725124" lon="-4.716740792401625"><ele>1486.0</ele><time>2026-04-27T09:38:49.999Z</time></trkpt><trkpt lat="32.68112172322524" lon="-4.716934916214083"><ele>1485.3333333333333</ele><time>2026-04-27T09:38:50.999Z</time></trkpt><trkpt lat="32.68111529396869" lon="-4.717130297429544"><ele>1484.6666666666667</ele><time>2026-04-27T09:38:51.999Z</time></trkpt><trkpt lat="32.68110901418904" lon="-4.7173274531965905"><ele>1484.0</ele><time>2026-04-27T09:38:52.999Z</time></trkpt><trkpt lat="32.681102010336154" lon="-4.717527007538958"><ele>1484.0</ele><time>2026-04-27T09:38:53.999Z</time></trkpt><trkpt lat="32.681095723409136" lon="-4.717725665004342"><ele>1484.0</ele><time>2026-04-27T09:38:54.999Z</time></trkpt><trkpt lat="32.68108950868798" lon="-4.717925588212396"><ele>1484.0</ele><time>2026-04-27T09:38:55.999Z</time></trkpt><trkpt lat="32.68108529481811" lon="-4.71811854199695"><ele>1483.3333333333335</ele><time>2026-04-27T09:38:56.999Z</time></trkpt><trkpt lat="32.681081180531265" lon="-4.718310450672192"><ele>1482.6666666666667</ele><time>2026-04-27T09:38:57.999Z</time></trkpt><trkpt lat="32.681076238242134" lon="-4.718503211627069"><ele>1482.0</ele><time>2026-04-27T09:38:58.999Z</time></trkpt><trkpt lat="32.68107153650282" lon="-4.718693425442151"><ele>1482.0</ele><time>2026-04-27T09:38:59.999Z</time></trkpt><trkpt lat="32.681067580360015" lon="-4.718871452563712"><ele>1482.0</ele><time>2026-04-27T09:39:00.999Z</time></trkpt><trkpt lat="32.68106381797099" lon="-4.719030451540726"><ele>1482.0</ele><time>2026-04-27T09:39:01.999Z</time></trkpt><trkpt lat="32.6810601859748" lon="-4.719176663806737"><ele>1482.0</ele><time>2026-04-27T09:39:02.999Z</time></trkpt><trkpt lat="32.68105635410335" lon="-4.719322199066455"><ele>1481.0</ele><time>2026-04-27T09:39:03.999Z</time></trkpt><trkpt lat="32.681032834823526" lon="-4.719473075571589"><ele>1480.0</ele><time>2026-04-27T09:39:04.999Z</time></trkpt><trkpt lat="32.68102798137347" lon="-4.719629175884926"><ele>1479.0</ele><time>2026-04-27T09:39:05.999Z</time></trkpt><trkpt lat="32.68102059374483" lon="-4.719787391985781"><ele>1478.0</ele><time>2026-04-27T09:39:06.999Z</time></trkpt><trkpt lat="32.681009970508796" lon="-4.719953355029258"><ele>1478.0</ele><time>2026-04-27T09:39:07.999Z</time></trkpt><trkpt lat="32.680994823841345" lon="-4.720133059904544"><ele>1478.0</ele><time>2026-04-27T09:39:08.998Z</time></trkpt><trkpt lat="32.68097446191566" lon="-4.720322110278173"><ele>1478.0</ele><time>2026-04-27T09:39:09.998Z</time></trkpt><trkpt lat="32.680947190506814" lon="-4.720515556760413"><ele>1477.3333333333335</ele><time>2026-04-27T09:39:10.998Z</time></trkpt><trkpt lat="32.68091746302209" lon="-4.72071146611509"><ele>1476.6666666666667</ele><time>2026-04-27T09:39:11.998Z</time></trkpt><trkpt lat="32.680883264673646" lon="-4.720909173738066"><ele>1476.0</ele><time>2026-04-27T09:39:12.998Z</time></trkpt><trkpt lat="32.68085333998756" lon="-4.721107408120146"><ele>1476.0</ele><time>2026-04-27T09:39:13.998Z</time></trkpt><trkpt lat="32.68082544582549" lon="-4.721304362921965"><ele>1476.0</ele><time>2026-04-27T09:39:14.998Z</time></trkpt><trkpt lat="32.680796774061456" lon="-4.721497828815817"><ele>1476.0</ele><time>2026-04-27T09:39:15.998Z</time></trkpt><trkpt lat="32.680771293245115" lon="-4.721688643500478"><ele>1476.0</ele><time>2026-04-27T09:39:16.998Z</time></trkpt><trkpt lat="32.680745787357836" lon="-4.721878166792267"><ele>1476.0</ele><time>2026-04-27T09:39:17.998Z</time></trkpt><trkpt lat="32.680713780850404" lon="-4.72206296840685"><ele>1476.0</ele><time>2026-04-27T09:39:18.998Z</time></trkpt><trkpt lat="32.680684860489784" lon="-4.722247325332188"><ele>1475.0</ele><time>2026-04-27T09:39:19.998Z</time></trkpt><trkpt lat="32.680655718074675" lon="-4.722435308553996"><ele>1474.0</ele><time>2026-04-27T09:39:20.998Z</time></trkpt><trkpt lat="32.68062657631376" lon="-4.722627708183453"><ele>1473.0</ele><time>2026-04-27T09:39:21.998Z</time></trkpt><trkpt lat="32.68059501862845" lon="-4.722823999810896"><ele>1472.6666666666667</ele><time>2026-04-27T09:39:22.998Z</time></trkpt><trkpt lat="32.68056114628604" lon="-4.723029436398636"><ele>1472.3333333333335</ele><time>2026-04-27T09:39:23.998Z</time></trkpt><trkpt lat="32.68052667329464" lon="-4.723237574104733"><ele>1472.0</ele><time>2026-04-27T09:39:24.998Z</time></trkpt><trkpt lat="32.68049489281104" lon="-4.723444439666531"><ele>1472.3333333333335</ele><time>2026-04-27T09:39:25.998Z</time></trkpt><trkpt lat="32.680461999445264" lon="-4.723648487204009"><ele>1472.6666666666667</ele><time>2026-04-27T09:39:26.998Z</time></trkpt><trkpt lat="32.680428751120175" lon="-4.7238468439744405"><ele>1473.0</ele><time>2026-04-27T09:39:27.998Z</time></trkpt><trkpt lat="32.68039688884096" lon="-4.724041524533581"><ele>1473.0</ele><time>2026-04-27T09:39:28.998Z</time></trkpt><trkpt lat="32.68036584389979" lon="-4.72423358523412"><ele>1473.0</ele><time>2026-04-27T09:39:29.998Z</time></trkpt><trkpt lat="32.68033209471375" lon="-4.724424807896357"><ele>1473.0</ele><time>2026-04-27T09:39:30.998Z</time></trkpt><trkpt lat="32.680314742202405" lon="-4.724613513285894"><ele>1475.3333333333333</ele><time>2026-04-27T09:39:31.998Z</time></trkpt><trkpt lat="32.68025770059299" lon="-4.724792370943899"><ele>1477.6666666666665</ele><time>2026-04-27T09:39:32.998Z</time></trkpt><trkpt lat="32.68021571945743" lon="-4.7249698083148415"><ele>1480.0</ele><time>2026-04-27T09:39:33.998Z</time></trkpt><trkpt lat="32.680174009795806" lon="-4.72513911113345"><ele>1479.5</ele><time>2026-04-27T09:39:34.998Z</time></trkpt><trkpt lat="32.68013557279688" lon="-4.72529444071741"><ele>1479.0</ele><time>2026-04-27T09:39:35.998Z</time></trkpt><trkpt lat="32.680099197755695" lon="-4.7254384792113795"><ele>1478.5</ele><time>2026-04-27T09:39:36.998Z</time></trkpt><trkpt lat="32.68006494186255" lon="-4.725571249597349"><ele>1478.0</ele><time>2026-04-27T09:39:37.998Z</time></trkpt><trkpt lat="32.68003360294198" lon="-4.725695736429995"><ele>1478.0</ele><time>2026-04-27T09:39:38.998Z</time></trkpt><trkpt lat="32.680007435666205" lon="-4.725812723954564"><ele>1478.0</ele><time>2026-04-27T09:39:39.998Z</time></trkpt><trkpt lat="32.679987250029136" lon="-4.725927023760752"><ele>1478.0</ele><time>2026-04-27T09:39:40.998Z</time></trkpt><trkpt lat="32.67997192640737" lon="-4.726039717155236"><ele>1478.0</ele><time>2026-04-27T09:39:41.998Z</time></trkpt><trkpt lat="32.67995892255961" lon="-4.726138161972471"><ele>1478.0</ele><time>2026-04-27T09:39:42.998Z</time></trkpt><trkpt lat="32.679939785719945" lon="-4.72624301875941"><ele>1477.6666666666667</ele><time>2026-04-27T09:39:44.999Z</time></trkpt><trkpt lat="32.679914988758824" lon="-4.726377377455134"><ele>1477.3333333333335</ele><time>2026-04-27T09:39:47.999Z</time></trkpt><trkpt lat="32.679892247158726" lon="-4.72645468979229"><ele>1477.0</ele><time>2026-04-27T09:39:48.999Z</time></trkpt><trkpt lat="32.6798618717621" lon="-4.7265322492929105"><ele>1476.6666666666667</ele><time>2026-04-27T09:39:49.999Z</time></trkpt><trkpt lat="32.6798241881197" lon="-4.726606630474407"><ele>1476.3333333333333</ele><time>2026-04-27T09:39:50.999Z</time></trkpt><trkpt lat="32.6797883731284" lon="-4.726680989734902"><ele>1476.0</ele><time>2026-04-27T09:39:51.999Z</time></trkpt><trkpt lat="32.67975720909305" lon="-4.726755397573072"><ele>1476.0</ele><time>2026-04-27T09:39:52.999Z</time></trkpt><trkpt lat="32.679732309074765" lon="-4.726830506447891"><ele>1476.0</ele><time>2026-04-27T09:39:53.999Z</time></trkpt><trkpt lat="32.67972927948625" lon="-4.726910121593973"><ele>1476.0</ele><time>2026-04-27T09:39:54.999Z</time></trkpt><trkpt lat="32.679714318281256" lon="-4.726984474709854"><ele>1476.0</ele><time>2026-04-27T09:39:55.999Z</time></trkpt><trkpt lat="32.67967569789205" lon="-4.727051771883991"><ele>1476.0</ele><time>2026-04-27T09:39:56.999Z</time></trkpt><trkpt lat="32.6796564267451" lon="-4.727129308784105"><ele>1476.0</ele><time>2026-04-27T09:39:57.999Z</time></trkpt><trkpt lat="32.679634982982286" lon="-4.727214311642905"><ele>1476.0</ele><time>2026-04-27T09:39:58.999Z</time></trkpt><trkpt lat="32.67961284459648" lon="-4.7273019280730475"><ele>1475.8333333333333</ele><time>2026-04-27T09:39:59.999Z</time></trkpt><trkpt lat="32.67959167279689" lon="-4.727392135101897"><ele>1475.6666666666667</ele><time>2026-04-27T09:40:00.999Z</time></trkpt><trkpt lat="32.67956825584374" lon="-4.727481213729264"><ele>1475.5</ele><time>2026-04-27T09:40:01.999Z</time></trkpt><trkpt lat="32.67954469132033" lon="-4.7275714551419625"><ele>1475.3333333333335</ele><time>2026-04-27T09:40:02.999Z</time></trkpt><trkpt lat="32.67952199928025" lon="-4.727661965207947"><ele>1475.1666666666667</ele><time>2026-04-27T09:40:03.999Z</time></trkpt><trkpt lat="32.67949994054716" lon="-4.727750968255719"><ele>1475.0</ele><time>2026-04-27T09:40:04.999Z</time></trkpt><trkpt lat="32.67947652538191" lon="-4.727839066269816"><ele>1475.2857142857142</ele><time>2026-04-27T09:40:05.999Z</time></trkpt><trkpt lat="32.67945551968401" lon="-4.727917412107756"><ele>1475.5714285714287</ele><time>2026-04-27T09:40:06.999Z</time></trkpt><trkpt lat="32.67943400523652" lon="-4.727995448452701"><ele>1475.857142857143</ele><time>2026-04-27T09:40:07.999Z</time></trkpt><trkpt lat="32.67941232032443" lon="-4.7280734168230705"><ele>1476.142857142857</ele><time>2026-04-27T09:40:08.999Z</time></trkpt><trkpt lat="32.6793908713857" lon="-4.728155418574069"><ele>1476.4285714285716</ele><time>2026-04-27T09:40:09.999Z</time></trkpt><trkpt lat="32.67936880966336" lon="-4.728241571401027"><ele>1476.7142857142858</ele><time>2026-04-27T09:40:10.999Z</time></trkpt><trkpt lat="32.6793459581683" lon="-4.728331988248893"><ele>1477.0</ele><time>2026-04-27T09:40:11.999Z</time></trkpt><trkpt lat="32.679322447749385" lon="-4.728426329058503"><ele>1477.0</ele><time>2026-04-27T09:40:12.999Z</time></trkpt><trkpt lat="32.67929794081311" lon="-4.728521112405873"><ele>1477.0</ele><time>2026-04-27T09:40:13.999Z</time></trkpt><trkpt lat="32.679273713691146" lon="-4.728616632578561"><ele>1477.0</ele><time>2026-04-27T09:40:14.999Z</time></trkpt><trkpt lat="32.67924996258616" lon="-4.728712696028034"><ele>1477.0</ele><time>2026-04-27T09:40:15.999Z</time></trkpt><trkpt lat="32.67922654013728" lon="-4.728809430384433"><ele>1477.0</ele><time>2026-04-27T09:40:16.999Z</time></trkpt><trkpt lat="32.67920263699964" lon="-4.72890591986177"><ele>1477.0</ele><time>2026-04-27T09:40:17.999Z</time></trkpt><trkpt lat="32.67917791314126" lon="-4.729002162578042"><ele>1477.0</ele><time>2026-04-27T09:40:18.999Z</time></trkpt><trkpt lat="32.679151741833046" lon="-4.729099148035975"><ele>1477.0</ele><time>2026-04-27T09:40:19.999Z</time></trkpt><trkpt lat="32.67912481434571" lon="-4.729197258452487"><ele>1477.0</ele><time>2026-04-27T09:40:20.999Z</time></trkpt><trkpt lat="32.679098004347125" lon="-4.729293654104947"><ele>1477.0</ele><time>2026-04-27T09:40:21.999Z</time></trkpt><trkpt lat="32.679072804250275" lon="-4.7293877988778"><ele>1477.0</ele><time>2026-04-27T09:40:22.999Z</time></trkpt><trkpt lat="32.6790471627635" lon="-4.7294793107770845"><ele>1477.0</ele><time>2026-04-27T09:40:23.999Z</time></trkpt><trkpt lat="32.679021428979276" lon="-4.72956667581175"><ele>1476.5</ele><time>2026-04-27T09:40:24.999Z</time></trkpt><trkpt lat="32.67899876940828" lon="-4.729652522504008"><ele>1476.0</ele><time>2026-04-27T09:40:25.999Z</time></trkpt><trkpt lat="32.67897801197507" lon="-4.72973405451042"><ele>1475.5</ele><time>2026-04-27T09:40:26.999Z</time></trkpt><trkpt lat="32.678958945498444" lon="-4.72981195864934"><ele>1475.0</ele><time>2026-04-27T09:40:27.999Z</time></trkpt><trkpt lat="32.678930096039736" lon="-4.7299202281761685"><ele>1474.5</ele><time>2026-04-27T09:40:29.999Z</time></trkpt><trkpt lat="32.678906769718814" lon="-4.730015694282845"><ele>1474.0</ele><time>2026-04-27T09:40:32.999Z</time></trkpt><trkpt lat="32.67887702261473" lon="-4.730121207836669"><ele>1474.0</ele><time>2026-04-27T09:40:34.999Z</time></trkpt><trkpt lat="32.67885540284368" lon="-4.730205094049455"><ele>1474.0</ele><time>2026-04-27T09:40:35.999Z</time></trkpt><trkpt lat="32.67883169101892" lon="-4.730304995901069"><ele>1474.0</ele><time>2026-04-27T09:40:36.999Z</time></trkpt><trkpt lat="32.67880631955731" lon="-4.730414537508696"><ele>1474.0</ele><time>2026-04-27T09:40:37.999Z</time></trkpt><trkpt lat="32.67877886945381" lon="-4.730532018231666"><ele>1474.0</ele><time>2026-04-27T09:40:38.999Z</time></trkpt><trkpt lat="32.67874930246745" lon="-4.730652296458"><ele>1473.8000000000002</ele><time>2026-04-27T09:40:39.999Z</time></trkpt><trkpt lat="32.678721115991195" lon="-4.730774468514356"><ele>1473.6000000000001</ele><time>2026-04-27T09:40:40.999Z</time></trkpt><trkpt lat="32.67869558444269" lon="-4.730897807148679"><ele>1473.4</ele><time>2026-04-27T09:40:41.999Z</time></trkpt><trkpt lat="32.678675000141745" lon="-4.7310233607356675"><ele>1473.2</ele><time>2026-04-27T09:40:42.999Z</time></trkpt><trkpt lat="32.67865688658137" lon="-4.73115074506757"><ele>1473.0</ele><time>2026-04-27T09:40:43.999Z</time></trkpt><trkpt lat="32.67864413899806" lon="-4.731276961943457"><ele>1473.4</ele><time>2026-04-27T09:40:44.999Z</time></trkpt><trkpt lat="32.67863711372688" lon="-4.73139279124156"><ele>1473.8000000000002</ele><time>2026-04-27T09:40:45.999Z</time></trkpt><trkpt lat="32.67863259150525" lon="-4.731510526465625"><ele>1474.2</ele><time>2026-04-27T09:40:46.999Z</time></trkpt><trkpt lat="32.67862816926668" lon="-4.731632852898046"><ele>1474.6</ele><time>2026-04-27T09:40:47.999Z</time></trkpt><trkpt lat="32.678631270417775" lon="-4.731755437385664"><ele>1475.0</ele><time>2026-04-27T09:40:48.999Z</time></trkpt><trkpt lat="32.67863811442135" lon="-4.7318686991012004"><ele>1475.5</ele><time>2026-04-27T09:40:49.999Z</time></trkpt><trkpt lat="32.67864874211148" lon="-4.731975130051382"><ele>1476.0</ele><time>2026-04-27T09:40:50.999Z</time></trkpt><trkpt lat="32.67865872344946" lon="-4.732072616463393"><ele>1476.5</ele><time>2026-04-27T09:40:51.999Z</time></trkpt><trkpt lat="32.67866901853129" lon="-4.7321614134631975"><ele>1477.0</ele><time>2026-04-27T09:40:52.999Z</time></trkpt><trkpt lat="32.678680857605" lon="-4.732242606513547"><ele>1477.5</ele><time>2026-04-27T09:40:53.999Z</time></trkpt><trkpt lat="32.678699482131464" lon="-4.732337658077703"><ele>1478.0</ele><time>2026-04-27T09:40:54.999Z</time></trkpt><trkpt lat="32.67872071943548" lon="-4.732447609433337"><ele>1478.0</ele><time>2026-04-27T09:40:55.999Z</time></trkpt><trkpt lat="32.67877431441904" lon="-4.732559216379525"><ele>1478.0</ele><time>2026-04-27T09:40:56.999Z</time></trkpt><trkpt lat="32.678823110101376" lon="-4.732684177396041"><ele>1478.0</ele><time>2026-04-27T09:40:57.999Z</time></trkpt><trkpt lat="32.67887411579148" lon="-4.732814797914902"><ele>1478.0</ele><time>2026-04-27T09:40:58.999Z</time></trkpt><trkpt lat="32.678925552903046" lon="-4.732946523257669"><ele>1477.5</ele><time>2026-04-27T09:40:59.999Z</time></trkpt><trkpt lat="32.6789777885636" lon="-4.733077639004864"><ele>1477.0</ele><time>2026-04-27T09:41:00.999Z</time></trkpt><trkpt lat="32.67903902659922" lon="-4.733206997448182"><ele>1476.5</ele><time>2026-04-27T09:41:01.999Z</time></trkpt><trkpt lat="32.67910191938402" lon="-4.733339902149409"><ele>1476.0</ele><time>2026-04-27T09:41:02.999Z</time></trkpt><trkpt lat="32.67916570278782" lon="-4.733475019883519"><ele>1474.75</ele><time>2026-04-27T09:41:03.999Z</time></trkpt><trkpt lat="32.679218515870986" lon="-4.73361982602792"><ele>1473.5</ele><time>2026-04-27T09:41:04.999Z</time></trkpt><trkpt lat="32.6792844864331" lon="-4.7337545357418715"><ele>1472.25</ele><time>2026-04-27T09:41:05.999Z</time></trkpt><trkpt lat="32.67934626138926" lon="-4.733891923653817"><ele>1471.0</ele><time>2026-04-27T09:41:06.999Z</time></trkpt><trkpt lat="32.67941875016222" lon="-4.734011071467814"><ele>1471.1666666666665</ele><time>2026-04-27T09:41:07.999Z</time></trkpt><trkpt lat="32.67944474461595" lon="-4.734147459081017"><ele>1471.3333333333333</ele><time>2026-04-27T09:41:08.999Z</time></trkpt><trkpt lat="32.67948299263813" lon="-4.734258380933008"><ele>1471.5</ele><time>2026-04-27T09:41:09.999Z</time></trkpt><trkpt lat="32.67951434411073" lon="-4.734355324703124"><ele>1471.6666666666667</ele><time>2026-04-27T09:41:10.999Z</time></trkpt><trkpt lat="32.679543194693736" lon="-4.734439461913611"><ele>1471.8333333333335</ele><time>2026-04-27T09:41:11.999Z</time></trkpt><trkpt lat="32.679570158593194" lon="-4.734508638690255"><ele>1472.0</ele><time>2026-04-27T09:41:12.999Z</time></trkpt><trkpt lat="32.67962504916302" lon="-4.734635614005465"><ele>1471.6666666666667</ele><time>2026-04-27T09:41:14.998Z</time></trkpt><trkpt lat="32.679644964941865" lon="-4.734715708606245"><ele>1471.3333333333335</ele><time>2026-04-27T09:41:15.998Z</time></trkpt><trkpt lat="32.679657793117784" lon="-4.734813297419134"><ele>1471.0</ele><time>2026-04-27T09:41:16.998Z</time></trkpt><trkpt lat="32.6796645027433" lon="-4.734924048139389"><ele>1470.6666666666667</ele><time>2026-04-27T09:41:17.998Z</time></trkpt><trkpt lat="32.67966697704723" lon="-4.735042132002225"><ele>1470.3333333333333</ele><time>2026-04-27T09:41:18.998Z</time></trkpt><trkpt lat="32.679671461580575" lon="-4.735161333094024"><ele>1470.0</ele><time>2026-04-27T09:41:19.998Z</time></trkpt><trkpt lat="32.67967872317358" lon="-4.735282816071616"><ele>1470.0</ele><time>2026-04-27T09:41:20.998Z</time></trkpt><trkpt lat="32.67968346021582" lon="-4.735408930688149"><ele>1470.0</ele><time>2026-04-27T09:41:21.998Z</time></trkpt><trkpt lat="32.67968851218321" lon="-4.735534540428242"><ele>1470.0</ele><time>2026-04-27T09:41:22.998Z</time></trkpt><trkpt lat="32.679691840188376" lon="-4.735658019818571"><ele>1470.0</ele><time>2026-04-27T09:41:23.998Z</time></trkpt><trkpt lat="32.6797145952725" lon="-4.735781946911347"><ele>1470.0</ele><time>2026-04-27T09:41:24.998Z</time></trkpt><trkpt lat="32.679711166498286" lon="-4.73590371084125"><ele>1470.0</ele><time>2026-04-27T09:41:25.998Z</time></trkpt><trkpt lat="32.67970772421417" lon="-4.736025797158713"><ele>1470.0</ele><time>2026-04-27T09:41:26.998Z</time></trkpt><trkpt lat="32.679708913048756" lon="-4.736162246516392"><ele>1470.0</ele><time>2026-04-27T09:41:27.998Z</time></trkpt><trkpt lat="32.67968556724009" lon="-4.736294383243926"><ele>1470.0</ele><time>2026-04-27T09:41:28.998Z</time></trkpt><trkpt lat="32.67966183481437" lon="-4.736428709283169"><ele>1470.0</ele><time>2026-04-27T09:41:29.998Z</time></trkpt><trkpt lat="32.679638541872784" lon="-4.736560547849778"><ele>1469.2</ele><time>2026-04-27T09:41:30.998Z</time></trkpt><trkpt lat="32.679615841103846" lon="-4.736689034729416"><ele>1468.4</ele><time>2026-04-27T09:41:31.998Z</time></trkpt><trkpt lat="32.679592563641044" lon="-4.736811336021025"><ele>1467.6</ele><time>2026-04-27T09:41:32.998Z</time></trkpt><trkpt lat="32.67956972952085" lon="-4.736929641570081"><ele>1466.8</ele><time>2026-04-27T09:41:33.998Z</time></trkpt><trkpt lat="32.67954781587431" lon="-4.737043575478212"><ele>1466.0</ele><time>2026-04-27T09:41:34.998Z</time></trkpt><trkpt lat="32.67952686177039" lon="-4.737152705101978"><ele>1465.8</ele><time>2026-04-27T09:41:35.998Z</time></trkpt><trkpt lat="32.67950473948197" lon="-4.737267918652857"><ele>1465.6</ele><time>2026-04-27T09:41:36.998Z</time></trkpt><trkpt lat="32.67948151913871" lon="-4.737388850990726"><ele>1465.4</ele><time>2026-04-27T09:41:37.998Z</time></trkpt><trkpt lat="32.679456913755836" lon="-4.737516995197507"><ele>1465.2</ele><time>2026-04-27T09:41:38.998Z</time></trkpt><trkpt lat="32.67943218715132" lon="-4.737649101535035"><ele>1465.0</ele><time>2026-04-27T09:41:39.998Z</time></trkpt><trkpt lat="32.67940659254574" lon="-4.737784958144662"><ele>1467.0</ele><time>2026-04-27T09:41:40.998Z</time></trkpt><trkpt lat="32.679381734041975" lon="-4.737916907453267"><ele>1469.0</ele><time>2026-04-27T09:41:41.998Z</time></trkpt><trkpt lat="32.67934117439299" lon="-4.738045035663829"><ele>1471.0</ele><time>2026-04-27T09:41:42.998Z</time></trkpt><trkpt lat="32.67931787924078" lon="-4.738177548552061"><ele>1473.0</ele><time>2026-04-27T09:41:43.998Z</time></trkpt><trkpt lat="32.679311771668075" lon="-4.73831380510156"><ele>1473.0</ele><time>2026-04-27T09:41:44.998Z</time></trkpt><trkpt lat="32.67929178168543" lon="-4.738434392134253"><ele>1473.0</ele><time>2026-04-27T09:41:45.998Z</time></trkpt><trkpt lat="32.679275130337686" lon="-4.738535066206927"><ele>1473.0</ele><time>2026-04-27T09:41:46.998Z</time></trkpt><trkpt lat="32.6792619712865" lon="-4.738614672394589"><ele>1473.0</ele><time>2026-04-27T09:41:47.998Z</time></trkpt><trkpt lat="32.67924265550093" lon="-4.738731523677015"><ele>1473.0</ele><time>2026-04-27T09:41:49.999Z</time></trkpt><trkpt lat="32.679229515689386" lon="-4.738811013220989"><ele>1473.0</ele><time>2026-04-27T09:41:52.999Z</time></trkpt><trkpt lat="32.67921733223676" lon="-4.738884717284015"><ele>1473.0</ele><time>2026-04-27T09:42:12.999Z</time></trkpt><trkpt lat="32.67917859698094" lon="-4.739035683327789"><ele>1473.0</ele><time>2026-04-27T09:42:14.999Z</time></trkpt><trkpt lat="32.679189179747226" lon="-4.73914058461406"><ele>1473.0</ele><time>2026-04-27T09:42:15.999Z</time></trkpt><trkpt lat="32.6792010329709" lon="-4.739256148925547"><ele>1473.0</ele><time>2026-04-27T09:42:16.999Z</time></trkpt><trkpt lat="32.67921624012984" lon="-4.73938140847769"><ele>1473.0</ele><time>2026-04-27T09:42:17.999Z</time></trkpt><trkpt lat="32.67922797789825" lon="-4.739511961369841"><ele>1473.3333333333333</ele><time>2026-04-27T09:42:18.999Z</time></trkpt><trkpt lat="32.679243692256954" lon="-4.739641406450269"><ele>1473.6666666666667</ele><time>2026-04-27T09:42:19.999Z</time></trkpt><trkpt lat="32.67925544820908" lon="-4.73975620387716"><ele>1474.0</ele><time>2026-04-27T09:42:20.999Z</time></trkpt><trkpt lat="32.679267747700344" lon="-4.739853566374156"><ele>1474.3333333333335</ele><time>2026-04-27T09:42:21.999Z</time></trkpt><trkpt lat="32.679280153655675" lon="-4.73994882783264"><ele>1474.6666666666667</ele><time>2026-04-27T09:42:22.999Z</time></trkpt><trkpt lat="32.67929522186086" lon="-4.7400388924685695"><ele>1475.0</ele><time>2026-04-27T09:42:23.999Z</time></trkpt><trkpt lat="32.679315669163245" lon="-4.740131551072852"><ele>1475.1666666666667</ele><time>2026-04-27T09:42:25Z</time></trkpt><trkpt lat="32.679339721191525" lon="-4.740225502759878"><ele>1475.3333333333335</ele><time>2026-04-27T09:42:26Z</time></trkpt><trkpt lat="32.6793720509086" lon="-4.740313202117822"><ele>1475.5</ele><time>2026-04-27T09:42:27Z</time></trkpt><trkpt lat="32.67941260648887" lon="-4.740394073974083"><ele>1475.6666666666667</ele><time>2026-04-27T09:42:28Z</time></trkpt><trkpt lat="32.67945997752594" lon="-4.740470111368995"><ele>1475.8333333333333</ele><time>2026-04-27T09:42:29Z</time></trkpt><trkpt lat="32.67951349060845" lon="-4.740533170992974"><ele>1476.0</ele><time>2026-04-27T09:42:30Z</time></trkpt><trkpt lat="32.6795767777342" lon="-4.740585699669017"><ele>1475.5714285714284</ele><time>2026-04-27T09:42:31Z</time></trkpt><trkpt lat="32.679647065337896" lon="-4.7406210168908"><ele>1475.142857142857</ele><time>2026-04-27T09:42:32Z</time></trkpt><trkpt lat="32.67972249354315" lon="-4.740637616306595"><ele>1474.7142857142858</ele><time>2026-04-27T09:42:33Z</time></trkpt><trkpt lat="32.679789009107424" lon="-4.7406452657502"><ele>1474.2857142857142</ele><time>2026-04-27T09:42:34Z</time></trkpt><trkpt lat="32.67985627319347" lon="-4.740647188109076"><ele>1473.857142857143</ele><time>2026-04-27T09:42:35Z</time></trkpt><trkpt lat="32.67992989782798" lon="-4.7406443273375185"><ele>1473.4285714285713</ele><time>2026-04-27T09:42:36Z</time></trkpt><trkpt lat="32.68000123043998" lon="-4.740644753561018"><ele>1473.0</ele><time>2026-04-27T09:42:37Z</time></trkpt><trkpt lat="32.68006999350889" lon="-4.740641746014629"><ele>1473.0</ele><time>2026-04-27T09:42:38Z</time></trkpt><trkpt lat="32.680140773661535" lon="-4.740640364852119"><ele>1473.0</ele><time>2026-04-27T09:42:39Z</time></trkpt><trkpt lat="32.68021571755454" lon="-4.740639234718034"><ele>1473.0</ele><time>2026-04-27T09:42:40Z</time></trkpt><trkpt lat="32.68029264589326" lon="-4.7406389523174655"><ele>1473.0</ele><time>2026-04-27T09:42:41Z</time></trkpt><trkpt lat="32.680369998963606" lon="-4.740634290215923"><ele>1473.0</ele><time>2026-04-27T09:42:42Z</time></trkpt><trkpt lat="32.6804502743121" lon="-4.74063616148915"><ele>1473.0</ele><time>2026-04-27T09:42:43Z</time></trkpt><trkpt lat="32.68053769639349" lon="-4.740637346588967"><ele>1473.2</ele><time>2026-04-27T09:42:44Z</time></trkpt><trkpt lat="32.68063080880477" lon="-4.7406464206502115"><ele>1473.4</ele><time>2026-04-27T09:42:45Z</time></trkpt><trkpt lat="32.68072939028562" lon="-4.740662835924545"><ele>1473.6000000000001</ele><time>2026-04-27T09:42:46Z</time></trkpt><trkpt lat="32.68083160405584" lon="-4.740684069771709"><ele>1473.8000000000002</ele><time>2026-04-27T09:42:47Z</time></trkpt><trkpt lat="32.6809344533892" lon="-4.74070969126539"><ele>1474.0</ele><time>2026-04-27T09:42:48Z</time></trkpt><trkpt lat="32.68103634178183" lon="-4.740736452708778"><ele>1473.4</ele><time>2026-04-27T09:42:49Z</time></trkpt><trkpt lat="32.68114193341627" lon="-4.740765468604958"><ele>1472.8000000000002</ele><time>2026-04-27T09:42:50Z</time></trkpt><trkpt lat="32.681244893362376" lon="-4.740798609006106"><ele>1472.1999999999998</ele><time>2026-04-27T09:42:51Z</time></trkpt><trkpt lat="32.68135022373817" lon="-4.740823766364327"><ele>1471.6</ele><time>2026-04-27T09:42:52Z</time></trkpt><trkpt lat="32.68145446563376" lon="-4.740853206163769"><ele>1471.0</ele><time>2026-04-27T09:42:53Z</time></trkpt><trkpt lat="32.68155717555577" lon="-4.740883851513951"><ele>1471.0</ele><time>2026-04-27T09:42:54Z</time></trkpt><trkpt lat="32.6816565144071" lon="-4.740922404056235"><ele>1471.0</ele><time>2026-04-27T09:42:55Z</time></trkpt><trkpt lat="32.68175243193844" lon="-4.740965672684628"><ele>1471.0</ele><time>2026-04-27T09:42:56Z</time></trkpt><trkpt lat="32.6818449234432" lon="-4.7410118674480355"><ele>1471.0</ele><time>2026-04-27T09:42:57Z</time></trkpt><trkpt lat="32.68193519793255" lon="-4.741060322188898"><ele>1471.0</ele><time>2026-04-27T09:42:58Z</time></trkpt><trkpt lat="32.68202151329594" lon="-4.741113902964203"><ele>1472.1999999999998</ele><time>2026-04-27T09:42:59Z</time></trkpt><trkpt lat="32.68210859697569" lon="-4.741168820275434"><ele>1473.3999999999999</ele><time>2026-04-27T09:43:00Z</time></trkpt><trkpt lat="32.68219682720149" lon="-4.741223721819037"><ele>1474.6</ele><time>2026-04-27T09:43:01Z</time></trkpt><trkpt lat="32.68228453915027" lon="-4.741279856543326"><ele>1475.8</ele><time>2026-04-27T09:43:02Z</time></trkpt><trkpt lat="32.682360808309525" lon="-4.741327212988673"><ele>1477.0</ele><time>2026-04-27T09:43:03Z</time></trkpt><trkpt lat="32.68242586454416" lon="-4.7413662584989735"><ele>1477.0</ele><time>2026-04-27T09:43:04Z</time></trkpt><trkpt lat="32.682496175183815" lon="-4.741405969111177"><ele>1477.0</ele><time>2026-04-27T09:43:06Z</time></trkpt><trkpt lat="32.682559339847074" lon="-4.741447008542003"><ele>1477.0</ele><time>2026-04-27T09:43:09Z</time></trkpt><trkpt lat="32.68261696229808" lon="-4.741485948787454"><ele>1477.0</ele><time>2026-04-27T09:43:13Z</time></trkpt><trkpt lat="32.68256401386665" lon="-4.7414417112712055"><ele>1477.0</ele><time>2026-04-27T09:43:38.999Z</time></trkpt><trkpt lat="32.68249484735931" lon="-4.741397109522696"><ele>1477.0</ele><time>2026-04-27T09:45:00Z</time></trkpt><trkpt lat="32.682542294711645" lon="-4.741454748196579"><ele>1477.0</ele><time>2026-04-27T10:03:59Z</time></trkpt><trkpt lat="32.682604437050664" lon="-4.741512158899661"><ele>1477.0</ele><time>2026-04-27T10:04:01Z</time></trkpt><trkpt lat="32.6826772856595" lon="-4.741587698672147"><ele>1477.0</ele><time>2026-04-27T10:04:03Z</time></trkpt><trkpt lat="32.68276527129306" lon="-4.741683823470388"><ele>1477.0</ele><time>2026-04-27T10:04:05Z</time></trkpt><trkpt lat="32.682835878810614" lon="-4.741788806015463"><ele>1477.0</ele><time>2026-04-27T10:04:07Z</time></trkpt><trkpt lat="32.68292311073364" lon="-4.741873080345915"><ele>1477.0</ele><time>2026-04-27T10:04:09Z</time></trkpt><trkpt lat="32.68295031447344" lon="-4.741946500721399"><ele>1475.6</ele><time>2026-04-27T10:04:10Z</time></trkpt><trkpt lat="32.682970833615265" lon="-4.742017590050179"><ele>1474.1999999999998</ele><time>2026-04-27T10:04:11Z</time></trkpt><trkpt lat="32.683035709748495" lon="-4.742130348334048"><ele>1472.8</ele><time>2026-04-27T10:04:13Z</time></trkpt><trkpt lat="32.68309779389824" lon="-4.742241369921674"><ele>1471.4</ele><time>2026-04-27T10:04:15Z</time></trkpt><trkpt lat="32.68315862694452" lon="-4.742356157560079"><ele>1470.0</ele><time>2026-04-27T10:04:17Z</time></trkpt><trkpt lat="32.68321907041784" lon="-4.7424661324066015"><ele>1470.0</ele><time>2026-04-27T10:04:19Z</time></trkpt><trkpt lat="32.68327918604946" lon="-4.7425692638731105"><ele>1470.0</ele><time>2026-04-27T10:04:21Z</time></trkpt><trkpt lat="32.68332681846568" lon="-4.742648888611502"><ele>1470.0</ele><time>2026-04-27T10:04:44.999Z</time></trkpt><trkpt lat="32.683373660786884" lon="-4.742717893786033"><ele>1470.0</ele><time>2026-04-27T10:04:46.999Z</time></trkpt><trkpt lat="32.683443426885745" lon="-4.742801397459299"><ele>1470.0</ele><time>2026-04-27T10:04:48.999Z</time></trkpt><trkpt lat="32.683493877781515" lon="-4.742853484611673"><ele>1470.0</ele><time>2026-04-27T10:04:49.999Z</time></trkpt><trkpt lat="32.6835461149688" lon="-4.742903001536492"><ele>1469.4</ele><time>2026-04-27T10:04:50.999Z</time></trkpt><trkpt lat="32.68359771262252" lon="-4.742948691854496"><ele>1468.8</ele><time>2026-04-27T10:04:51.999Z</time></trkpt><trkpt lat="32.683649216923214" lon="-4.742991884918821"><ele>1468.1999999999998</ele><time>2026-04-27T10:04:52.999Z</time></trkpt><trkpt lat="32.68375562914889" lon="-4.743056591092831"><ele>1467.6</ele><time>2026-04-27T10:04:55Z</time></trkpt><trkpt lat="32.68386757177675" lon="-4.7430978762388"><ele>1467.0</ele><time>2026-04-27T10:04:57Z</time></trkpt><trkpt lat="32.68396870322676" lon="-4.743130655076312"><ele>1467.0</ele><time>2026-04-27T10:04:59Z</time></trkpt><trkpt lat="32.684039654967776" lon="-4.743156240107074"><ele>1467.0</ele><time>2026-04-27T10:05:01Z</time></trkpt><trkpt lat="32.68412093416003" lon="-4.74318773982672"><ele>1467.0</ele><time>2026-04-27T10:05:04Z</time></trkpt><trkpt lat="32.68423599375631" lon="-4.743226347766551"><ele>1467.0</ele><time>2026-04-27T10:05:06Z</time></trkpt><trkpt lat="32.684307586917726" lon="-4.743250386039926"><ele>1467.0</ele><time>2026-04-27T10:05:07Z</time></trkpt><trkpt lat="32.68438276587515" lon="-4.743275839192243"><ele>1467.0</ele><time>2026-04-27T10:05:08Z</time></trkpt><trkpt lat="32.68446085242153" lon="-4.743302788267084"><ele>1466.6666666666667</ele><time>2026-04-27T10:05:09Z</time></trkpt><trkpt lat="32.684535693812144" lon="-4.743329036063907"><ele>1466.3333333333333</ele><time>2026-04-27T10:05:10Z</time></trkpt><trkpt lat="32.684608581901614" lon="-4.743354849836299"><ele>1466.0</ele><time>2026-04-27T10:05:11Z</time></trkpt><trkpt lat="32.684677400517344" lon="-4.743379599050786"><ele>1465.6666666666665</ele><time>2026-04-27T10:05:12Z</time></trkpt><trkpt lat="32.68474332141604" lon="-4.743403649636737"><ele>1465.3333333333333</ele><time>2026-04-27T10:05:13Z</time></trkpt><trkpt lat="32.684806391988865" lon="-4.743426553718106"><ele>1465.0</ele><time>2026-04-27T10:05:14Z</time></trkpt><trkpt lat="32.684922592161236" lon="-4.74346925183805"><ele>1465.0</ele><time>2026-04-27T10:05:16Z</time></trkpt><trkpt lat="32.685043248482394" lon="-4.743511509302884"><ele>1465.0</ele><time>2026-04-27T10:05:18Z</time></trkpt><trkpt lat="32.68511364392585" lon="-4.743535929030573"><ele>1465.0</ele><time>2026-04-27T10:05:19Z</time></trkpt><trkpt lat="32.68519222745738" lon="-4.74356163893042"><ele>1465.0</ele><time>2026-04-27T10:05:20Z</time></trkpt><trkpt lat="32.685274518507455" lon="-4.743588814419045"><ele>1465.0</ele><time>2026-04-27T10:05:21Z</time></trkpt><trkpt lat="32.685358815697086" lon="-4.743615855561062"><ele>1464.4</ele><time>2026-04-27T10:05:22Z</time></trkpt><trkpt lat="32.68544465585479" lon="-4.743642202589759"><ele>1463.8</ele><time>2026-04-27T10:05:23Z</time></trkpt><trkpt lat="32.6855299415532" lon="-4.743670195786645"><ele>1463.1999999999998</ele><time>2026-04-27T10:05:24Z</time></trkpt><trkpt lat="32.685616233593834" lon="-4.743701226613885"><ele>1462.6</ele><time>2026-04-27T10:05:25Z</time></trkpt><trkpt lat="32.68570435557891" lon="-4.743731306156975"><ele>1462.0</ele><time>2026-04-27T10:05:26Z</time></trkpt><trkpt lat="32.68579277930591" lon="-4.743763773341022"><ele>1462.0</ele><time>2026-04-27T10:05:27Z</time></trkpt><trkpt lat="32.685880760756724" lon="-4.743804401261207"><ele>1462.0</ele><time>2026-04-27T10:05:28Z</time></trkpt><trkpt lat="32.68596846098657" lon="-4.743854659239208"><ele>1462.0</ele><time>2026-04-27T10:05:29Z</time></trkpt><trkpt lat="32.68605596689871" lon="-4.743911782046796"><ele>1462.0</ele><time>2026-04-27T10:05:30Z</time></trkpt><trkpt lat="32.68614952856334" lon="-4.7439541616357275"><ele>1462.0</ele><time>2026-04-27T10:05:31Z</time></trkpt><trkpt lat="32.68623076766368" lon="-4.7440056307113085"><ele>1461.5</ele><time>2026-04-27T10:05:32Z</time></trkpt><trkpt lat="32.68629946807741" lon="-4.744049154692792"><ele>1461.0</ele><time>2026-04-27T10:05:33Z</time></trkpt><trkpt lat="32.686336610174216" lon="-4.7441134752096294"><ele>1460.5</ele><time>2026-04-27T10:05:34Z</time></trkpt><trkpt lat="32.68639739432807" lon="-4.744160369705265"><ele>1460.0</ele><time>2026-04-27T10:05:36Z</time></trkpt><trkpt lat="32.68645606496335" lon="-4.744193741595445"><ele>1459.5</ele><time>2026-04-27T10:05:43Z</time></trkpt><trkpt lat="32.686521086578225" lon="-4.744249146559038"><ele>1459.0</ele><time>2026-04-27T10:05:46Z</time></trkpt><trkpt lat="32.686587020212684" lon="-4.7443221128587645"><ele>1458.6</ele><time>2026-04-27T10:05:52Z</time></trkpt><trkpt lat="32.686639298068854" lon="-4.744408455860928"><ele>1458.2</ele><time>2026-04-27T10:05:54Z</time></trkpt><trkpt lat="32.68672850896555" lon="-4.74450708423096"><ele>1457.8</ele><time>2026-04-27T10:05:56Z</time></trkpt><trkpt lat="32.68678252100193" lon="-4.744566665246451"><ele>1457.3999999999999</ele><time>2026-04-27T10:05:57Z</time></trkpt><trkpt lat="32.68686210808412" lon="-4.744657606816192"><ele>1457.0</ele><time>2026-04-27T10:05:59Z</time></trkpt><trkpt lat="32.686932677656785" lon="-4.7447420392259545"><ele>1456.6</ele><time>2026-04-27T10:06:01Z</time></trkpt><trkpt lat="32.68699756113954" lon="-4.7448267691072"><ele>1456.1999999999998</ele><time>2026-04-27T10:06:03Z</time></trkpt><trkpt lat="32.687064064702476" lon="-4.744909670409396"><ele>1455.8</ele><time>2026-04-27T10:06:05Z</time></trkpt><trkpt lat="32.687161589664896" lon="-4.745015383733845"><ele>1455.4</ele><time>2026-04-27T10:06:07Z</time></trkpt><trkpt lat="32.687221698474005" lon="-4.745082670111511"><ele>1455.0</ele><time>2026-04-27T10:06:08Z</time></trkpt><trkpt lat="32.687285730278745" lon="-4.7451552442673846"><ele>1453.6</ele><time>2026-04-27T10:06:09Z</time></trkpt><trkpt lat="32.68735640573147" lon="-4.74523764043245"><ele>1452.2</ele><time>2026-04-27T10:06:10Z</time></trkpt><trkpt lat="32.68743302122302" lon="-4.745327080370716"><ele>1450.8000000000002</ele><time>2026-04-27T10:06:11Z</time></trkpt><trkpt lat="32.68751618542849" lon="-4.745422061614458"><ele>1449.4</ele><time>2026-04-27T10:06:12Z</time></trkpt><trkpt lat="32.68760020035631" lon="-4.745519989432967"><ele>1448.0</ele><time>2026-04-27T10:06:13Z</time></trkpt><trkpt lat="32.68768800407447" lon="-4.7456183329775685"><ele>1448.25</ele><time>2026-04-27T10:06:14Z</time></trkpt><trkpt lat="32.68777661013819" lon="-4.745717172628289"><ele>1448.5</ele><time>2026-04-27T10:06:14.999Z</time></trkpt><trkpt lat="32.6878641063061" lon="-4.745812021000073"><ele>1448.75</ele><time>2026-04-27T10:06:15.999Z</time></trkpt><trkpt lat="32.68794906701847" lon="-4.745905195396231"><ele>1449.0</ele><time>2026-04-27T10:06:16.999Z</time></trkpt><trkpt lat="32.68803111534562" lon="-4.7459938020133"><ele>1449.3333333333333</ele><time>2026-04-27T10:06:17.999Z</time></trkpt><trkpt lat="32.688104481103025" lon="-4.746075091427939"><ele>1449.6666666666667</ele><time>2026-04-27T10:06:18.999Z</time></trkpt><trkpt lat="32.68816715348117" lon="-4.746146176032209"><ele>1450.0</ele><time>2026-04-27T10:06:19.999Z</time></trkpt><trkpt lat="32.68821918530623" lon="-4.746205787757041"><ele>1450.3333333333335</ele><time>2026-04-27T10:06:20.999Z</time></trkpt><trkpt lat="32.688293401908076" lon="-4.746293695636774"><ele>1450.6666666666667</ele><time>2026-04-27T10:06:22.999Z</time></trkpt><trkpt lat="32.68833984102055" lon="-4.74634669552773"><ele>1451.0</ele><time>2026-04-27T10:06:39.999Z</time></trkpt><trkpt lat="32.6884175552433" lon="-4.746433863474109"><ele>1451.0</ele><time>2026-04-27T10:06:43.999Z</time></trkpt><trkpt lat="32.688496448762805" lon="-4.7465418267923445"><ele>1451.0</ele><time>2026-04-27T10:06:45.999Z</time></trkpt><trkpt lat="32.688539811883004" lon="-4.746603762739276"><ele>1451.0</ele><time>2026-04-27T10:06:46.999Z</time></trkpt><trkpt lat="32.6885902747119" lon="-4.746665896743926"><ele>1451.0</ele><time>2026-04-27T10:06:47.999Z</time></trkpt><trkpt lat="32.68864727616208" lon="-4.7467359728801535"><ele>1451.0</ele><time>2026-04-27T10:06:48.999Z</time></trkpt><trkpt lat="32.68870771841534" lon="-4.746810141340557"><ele>1451.0</ele><time>2026-04-27T10:06:49.999Z</time></trkpt><trkpt lat="32.688769581583784" lon="-4.74688697843967"><ele>1450.8</ele><time>2026-04-27T10:06:50.999Z</time></trkpt><trkpt lat="32.688836175781105" lon="-4.746969840551295"><ele>1450.6</ele><time>2026-04-27T10:06:51.999Z</time></trkpt><trkpt lat="32.688906516743884" lon="-4.747057315681089"><ele>1450.4</ele><time>2026-04-27T10:06:52.999Z</time></trkpt><trkpt lat="32.688980000812535" lon="-4.74714706599214"><ele>1450.2</ele><time>2026-04-27T10:06:53.999Z</time></trkpt><trkpt lat="32.68905695385656" lon="-4.747238860533479"><ele>1450.0</ele><time>2026-04-27T10:06:54.999Z</time></trkpt><trkpt lat="32.689137787410026" lon="-4.747331787279886"><ele>1450.0</ele><time>2026-04-27T10:06:55.999Z</time></trkpt><trkpt lat="32.68922282001108" lon="-4.747427317100571"><ele>1450.0</ele><time>2026-04-27T10:06:56.999Z</time></trkpt><trkpt lat="32.689306578419206" lon="-4.747525682473843"><ele>1450.0</ele><time>2026-04-27T10:06:57.999Z</time></trkpt><trkpt lat="32.68939142490068" lon="-4.747626739595513"><ele>1450.0</ele><time>2026-04-27T10:06:58.999Z</time></trkpt><trkpt lat="32.689479356457205" lon="-4.747729331309901"><ele>1450.25</ele><time>2026-04-27T10:06:59.999Z</time></trkpt><trkpt lat="32.68956705762041" lon="-4.747833173530666"><ele>1450.5</ele><time>2026-04-27T10:07:01Z</time></trkpt><trkpt lat="32.68965371651759" lon="-4.74793738955635"><ele>1450.75</ele><time>2026-04-27T10:07:02Z</time></trkpt><trkpt lat="32.689739966364016" lon="-4.7480405256443285"><ele>1451.0</ele><time>2026-04-27T10:07:03Z</time></trkpt><trkpt lat="32.6898220817927" lon="-4.748138468308984"><ele>1451.0</ele><time>2026-04-27T10:07:04Z</time></trkpt><trkpt lat="32.689905302083496" lon="-4.7482381488982925"><ele>1451.0</ele><time>2026-04-27T10:07:05Z</time></trkpt><trkpt lat="32.689987632303286" lon="-4.748337535138313"><ele>1451.0</ele><time>2026-04-27T10:07:06Z</time></trkpt><trkpt lat="32.690070842435134" lon="-4.748438417254764"><ele>1451.0</ele><time>2026-04-27T10:07:07Z</time></trkpt><trkpt lat="32.69015480587635" lon="-4.748539648503486"><ele>1451.25</ele><time>2026-04-27T10:07:08Z</time></trkpt><trkpt lat="32.69024169345841" lon="-4.748640397885305"><ele>1451.5</ele><time>2026-04-27T10:07:09Z</time></trkpt><trkpt lat="32.690329062878426" lon="-4.748741977660187"><ele>1451.75</ele><time>2026-04-27T10:07:10Z</time></trkpt><trkpt lat="32.690416513753625" lon="-4.748844078010268"><ele>1452.0</ele><time>2026-04-27T10:07:11Z</time></trkpt><trkpt lat="32.690501291344226" lon="-4.748943857909666"><ele>1452.0</ele><time>2026-04-27T10:07:12Z</time></trkpt><trkpt lat="32.69058299008578" lon="-4.749040792322041"><ele>1452.0</ele><time>2026-04-27T10:07:13Z</time></trkpt><trkpt lat="32.69066014341239" lon="-4.749135682990078"><ele>1452.0</ele><time>2026-04-27T10:07:14Z</time></trkpt><trkpt lat="32.69073823149108" lon="-4.749228427421971"><ele>1452.0</ele><time>2026-04-27T10:07:15Z</time></trkpt><trkpt lat="32.69081681035484" lon="-4.7493194302641655"><ele>1452.0</ele><time>2026-04-27T10:07:16Z</time></trkpt><trkpt lat="32.690894407821744" lon="-4.749408496732537"><ele>1452.0</ele><time>2026-04-27T10:07:17Z</time></trkpt><trkpt lat="32.690969577026316" lon="-4.749497251256026"><ele>1452.0</ele><time>2026-04-27T10:07:18Z</time></trkpt><trkpt lat="32.69104552805519" lon="-4.749587989599892"><ele>1452.0</ele><time>2026-04-27T10:07:19Z</time></trkpt><trkpt lat="32.691125270756054" lon="-4.749680881164935"><ele>1452.0</ele><time>2026-04-27T10:07:20Z</time></trkpt><trkpt lat="32.691206693423204" lon="-4.749775678276277"><ele>1452.0</ele><time>2026-04-27T10:07:21Z</time></trkpt><trkpt lat="32.69129027539698" lon="-4.749871322413608"><ele>1452.25</ele><time>2026-04-27T10:07:22Z</time></trkpt><trkpt lat="32.69137507485291" lon="-4.749971692217622"><ele>1452.5</ele><time>2026-04-27T10:07:23Z</time></trkpt><trkpt lat="32.69145796103896" lon="-4.750073572710502"><ele>1452.75</ele><time>2026-04-27T10:07:24Z</time></trkpt><trkpt lat="32.69153976464296" lon="-4.750173018510479"><ele>1453.0</ele><time>2026-04-27T10:07:25Z</time></trkpt><trkpt lat="32.6916193157889" lon="-4.750269594577436"><ele>1453.0</ele><time>2026-04-27T10:07:26Z</time></trkpt><trkpt lat="32.69169762881778" lon="-4.750362386580883"><ele>1453.0</ele><time>2026-04-27T10:07:27Z</time></trkpt><trkpt lat="32.69177555616827" lon="-4.7504507573663615"><ele>1453.0</ele><time>2026-04-27T10:07:28Z</time></trkpt><trkpt lat="32.6918510874529" lon="-4.7505360900416465"><ele>1453.0</ele><time>2026-04-27T10:07:29Z</time></trkpt><trkpt lat="32.69192238439592" lon="-4.750617941684229"><ele>1453.0</ele><time>2026-04-27T10:07:30Z</time></trkpt><trkpt lat="32.691988211001465" lon="-4.750694942240445"><ele>1452.8000000000002</ele><time>2026-04-27T10:07:31Z</time></trkpt><trkpt lat="32.69204793680724" lon="-4.75076763387376"><ele>1452.6</ele><time>2026-04-27T10:07:32Z</time></trkpt><trkpt lat="32.69209993539147" lon="-4.750831756883327"><ele>1452.4</ele><time>2026-04-27T10:07:33Z</time></trkpt><trkpt lat="32.69214707368435" lon="-4.750889787697908"><ele>1452.1999999999998</ele><time>2026-04-27T10:07:34Z</time></trkpt><trkpt lat="32.69223300435358" lon="-4.750996676197818"><ele>1452.0</ele><time>2026-04-27T10:07:36Z</time></trkpt><trkpt lat="32.69231922054247" lon="-4.7510975660812385"><ele>1452.5</ele><time>2026-04-27T10:07:38Z</time></trkpt><trkpt lat="32.69240118592143" lon="-4.751197259712599"><ele>1453.0</ele><time>2026-04-27T10:07:40Z</time></trkpt><trkpt lat="32.69244639964178" lon="-4.751254324849958"><ele>1453.5</ele><time>2026-04-27T10:07:41Z</time></trkpt><trkpt lat="32.692497228803816" lon="-4.751316205110854"><ele>1454.0</ele><time>2026-04-27T10:07:42Z</time></trkpt><trkpt lat="32.69254943583235" lon="-4.751377847382319"><ele>1454.5</ele><time>2026-04-27T10:07:43Z</time></trkpt><trkpt lat="32.69260105096592" lon="-4.751434690306492"><ele>1455.0</ele><time>2026-04-27T10:07:44Z</time></trkpt><trkpt lat="32.69265705195742" lon="-4.751490685825303"><ele>1455.0</ele><time>2026-04-27T10:07:45Z</time></trkpt><trkpt lat="32.69271952752951" lon="-4.751552330540272"><ele>1455.0</ele><time>2026-04-27T10:07:46Z</time></trkpt><trkpt lat="32.692787587727494" lon="-4.751618469484363"><ele>1455.0</ele><time>2026-04-27T10:07:47Z</time></trkpt><trkpt lat="32.69286069758296" lon="-4.751689646813485"><ele>1455.0</ele><time>2026-04-27T10:07:48Z</time></trkpt><trkpt lat="32.6929402162688" lon="-4.7517615173578625"><ele>1455.0</ele><time>2026-04-27T10:07:49Z</time></trkpt><trkpt lat="32.69303162338723" lon="-4.751830076633764"><ele>1455.25</ele><time>2026-04-27T10:07:50Z</time></trkpt><trkpt lat="32.6931312538749" lon="-4.751900014469812"><ele>1455.5</ele><time>2026-04-27T10:07:51Z</time></trkpt><trkpt lat="32.69323599928921" lon="-4.751971067822213"><ele>1455.75</ele><time>2026-04-27T10:07:52Z</time></trkpt><trkpt lat="32.69334057413027" lon="-4.752042847237382"><ele>1456.0</ele><time>2026-04-27T10:07:53Z</time></trkpt><trkpt lat="32.69344513430946" lon="-4.7521160381457115"><ele>1456.0</ele><time>2026-04-27T10:07:54Z</time></trkpt><trkpt lat="32.69355062621406" lon="-4.75219065834576"><ele>1456.0</ele><time>2026-04-27T10:07:55Z</time></trkpt><trkpt lat="32.69365663355518" lon="-4.752265809261427"><ele>1456.0</ele><time>2026-04-27T10:07:56Z</time></trkpt><trkpt lat="32.69376627035831" lon="-4.752343053103646"><ele>1456.0</ele><time>2026-04-27T10:07:57Z</time></trkpt><trkpt lat="32.69387089236174" lon="-4.752416874419248"><ele>1455.25</ele><time>2026-04-27T10:07:58Z</time></trkpt><trkpt lat="32.69396361658029" lon="-4.752484734804607"><ele>1454.5</ele><time>2026-04-27T10:07:59Z</time></trkpt><trkpt lat="32.69405679370168" lon="-4.752551728130582"><ele>1453.75</ele><time>2026-04-27T10:08:00Z</time></trkpt><trkpt lat="32.69415657605668" lon="-4.752619526757741"><ele>1453.0</ele><time>2026-04-27T10:08:01Z</time></trkpt><trkpt lat="32.6942608497732" lon="-4.752689988577108"><ele>1453.0</ele><time>2026-04-27T10:08:02Z</time></trkpt><trkpt lat="32.69437298574442" lon="-4.7527632821716885"><ele>1453.0</ele><time>2026-04-27T10:08:03Z</time></trkpt><trkpt lat="32.69448677717396" lon="-4.752834656558315"><ele>1453.0</ele><time>2026-04-27T10:08:04Z</time></trkpt><trkpt lat="32.694600379512956" lon="-4.752904391755186"><ele>1453.0</ele><time>2026-04-27T10:08:05Z</time></trkpt><trkpt lat="32.69471143179426" lon="-4.752968229298542"><ele>1453.0</ele><time>2026-04-27T10:08:06Z</time></trkpt><trkpt lat="32.69482392253954" lon="-4.753024458455168"><ele>1453.0</ele><time>2026-04-27T10:08:07Z</time></trkpt><trkpt lat="32.694941854418104" lon="-4.753075080511205"><ele>1453.0</ele><time>2026-04-27T10:08:07.999Z</time></trkpt><trkpt lat="32.6950576219554" lon="-4.753115812858614"><ele>1453.0</ele><time>2026-04-27T10:08:08.999Z</time></trkpt><trkpt lat="32.69517269713218" lon="-4.7531459742171"><ele>1453.0</ele><time>2026-04-27T10:08:09.999Z</time></trkpt><trkpt lat="32.69528502059556" lon="-4.753169531015749"><ele>1453.0</ele><time>2026-04-27T10:08:10.999Z</time></trkpt><trkpt lat="32.695397351772655" lon="-4.753187326033656"><ele>1453.0</ele><time>2026-04-27T10:08:11.999Z</time></trkpt><trkpt lat="32.69550658434174" lon="-4.753202255660817"><ele>1453.0</ele><time>2026-04-27T10:08:12.999Z</time></trkpt><trkpt lat="32.69560112381896" lon="-4.753206483200744"><ele>1453.0</ele><time>2026-04-27T10:08:13.999Z</time></trkpt><trkpt lat="32.69567397011561" lon="-4.753199868044876"><ele>1453.0</ele><time>2026-04-27T10:08:14.999Z</time></trkpt><trkpt lat="32.69577030486988" lon="-4.7531687282911825"><ele>1453.0</ele><time>2026-04-27T10:08:16.999Z</time></trkpt><trkpt lat="32.695843305874625" lon="-4.753186215603624"><ele>1453.0</ele><time>2026-04-27T10:08:18.999Z</time></trkpt><trkpt lat="32.695921910389075" lon="-4.753198277044003"><ele>1453.0</ele><time>2026-04-27T10:08:21.999Z</time></trkpt><trkpt lat="32.69599520454138" lon="-4.753209579416418"><ele>1453.0</ele><time>2026-04-27T10:08:24.999Z</time></trkpt><trkpt lat="32.696051308118115" lon="-4.753253201047289"><ele>1453.0</ele><time>2026-04-27T10:17:40Z</time></trkpt><trkpt lat="32.69612033189263" lon="-4.753299561854856"><ele>1452.6666666666665</ele><time>2026-04-27T10:17:43Z</time></trkpt><trkpt lat="32.696183860698376" lon="-4.75329283820157"><ele>1452.3333333333333</ele><time>2026-04-27T10:17:45Z</time></trkpt><trkpt lat="32.6962543759888" lon="-4.7532962432625965"><ele>1452.0</ele><time>2026-04-27T10:17:48.999Z</time></trkpt><trkpt lat="32.69634611473608" lon="-4.753311468382652"><ele>1451.6666666666667</ele><time>2026-04-27T10:18:11.996Z</time></trkpt><trkpt lat="32.69646621259202" lon="-4.753347475918633"><ele>1451.3333333333335</ele><time>2026-04-27T10:18:13.996Z</time></trkpt><trkpt lat="32.69654616322787" lon="-4.753368372013724"><ele>1451.0</ele><time>2026-04-27T10:18:14.996Z</time></trkpt><trkpt lat="32.6966368501342" lon="-4.753389753446439"><ele>1451.0</ele><time>2026-04-27T10:18:15.996Z</time></trkpt><trkpt lat="32.696727830953904" lon="-4.753411592278456"><ele>1451.0</ele><time>2026-04-27T10:18:16.996Z</time></trkpt><trkpt lat="32.69682091564555" lon="-4.75343529748728"><ele>1451.0</ele><time>2026-04-27T10:18:17.996Z</time></trkpt><trkpt lat="32.69691451934641" lon="-4.753463665914144"><ele>1451.0</ele><time>2026-04-27T10:18:18.996Z</time></trkpt><trkpt lat="32.697009197779416" lon="-4.753495229696306"><ele>1451.0</ele><time>2026-04-27T10:18:19.996Z</time></trkpt><trkpt lat="32.6971036473346" lon="-4.753527985318554"><ele>1451.6</ele><time>2026-04-27T10:18:20.996Z</time></trkpt><trkpt lat="32.69719762744073" lon="-4.75356368978634"><ele>1452.1999999999998</ele><time>2026-04-27T10:18:21.996Z</time></trkpt><trkpt lat="32.69729203701494" lon="-4.753604535324198"><ele>1452.8000000000002</ele><time>2026-04-27T10:18:22.996Z</time></trkpt><trkpt lat="32.69738811473796" lon="-4.75365279068666"><ele>1453.4</ele><time>2026-04-27T10:18:23.996Z</time></trkpt><trkpt lat="32.69748522570921" lon="-4.753706907328191"><ele>1454.0</ele><time>2026-04-27T10:18:24.996Z</time></trkpt><trkpt lat="32.69758414505467" lon="-4.753765615669307"><ele>1454.0</ele><time>2026-04-27T10:18:25.996Z</time></trkpt><trkpt lat="32.69768514960038" lon="-4.753831107651778"><ele>1454.0</ele><time>2026-04-27T10:18:26.996Z</time></trkpt><trkpt lat="32.69779352881215" lon="-4.753905448779275"><ele>1454.0</ele><time>2026-04-27T10:18:27.996Z</time></trkpt><trkpt lat="32.69790882605933" lon="-4.753995067494257"><ele>1454.0</ele><time>2026-04-27T10:18:28.996Z</time></trkpt><trkpt lat="32.69802565426117" lon="-4.754090669697645"><ele>1454.0</ele><time>2026-04-27T10:18:29.996Z</time></trkpt><trkpt lat="32.69813924963849" lon="-4.754190720578909"><ele>1454.0</ele><time>2026-04-27T10:18:30.996Z</time></trkpt><trkpt lat="32.69825346862393" lon="-4.754307301258084"><ele>1454.0</ele><time>2026-04-27T10:18:31.996Z</time></trkpt><trkpt lat="32.69837242301005" lon="-4.754430338558888"><ele>1454.0</ele><time>2026-04-27T10:18:32.996Z</time></trkpt><trkpt lat="32.6985010892209" lon="-4.754545219244229"><ele>1454.0</ele><time>2026-04-27T10:18:33.996Z</time></trkpt><trkpt lat="32.69860480643653" lon="-4.754701326315928"><ele>1454.0</ele><time>2026-04-27T10:18:34.996Z</time></trkpt><trkpt lat="32.69871558077269" lon="-4.754849974224842"><ele>1451.3333333333335</ele><time>2026-04-27T10:18:35.996Z</time></trkpt><trkpt lat="32.69882125021572" lon="-4.755005808390965"><ele>1448.6666666666667</ele><time>2026-04-27T10:18:36.996Z</time></trkpt><trkpt lat="32.69892218774679" lon="-4.755169363851169"><ele>1446.0</ele><time>2026-04-27T10:18:37.996Z</time></trkpt><trkpt lat="32.699015475343835" lon="-4.755337804893432"><ele>1446.0</ele><time>2026-04-27T10:18:38.996Z</time></trkpt><trkpt lat="32.699102996599265" lon="-4.755509935469347"><ele>1446.0</ele><time>2026-04-27T10:18:39.996Z</time></trkpt><trkpt lat="32.69918333467348" lon="-4.755682541531581"><ele>1446.0</ele><time>2026-04-27T10:18:40.996Z</time></trkpt><trkpt lat="32.69925630928265" lon="-4.755853547994644"><ele>1446.0</ele><time>2026-04-27T10:18:41.996Z</time></trkpt><trkpt lat="32.69932686774252" lon="-4.756018505531876"><ele>1446.0</ele><time>2026-04-27T10:18:42.996Z</time></trkpt><trkpt lat="32.69939694117909" lon="-4.7561747219260395"><ele>1446.0</ele><time>2026-04-27T10:18:43.996Z</time></trkpt><trkpt lat="32.69946551670474" lon="-4.756328227263645"><ele>1446.25</ele><time>2026-04-27T10:18:44.996Z</time></trkpt><trkpt lat="32.699533376206105" lon="-4.756478660629968"><ele>1446.5</ele><time>2026-04-27T10:18:45.996Z</time></trkpt><trkpt lat="32.699600331582495" lon="-4.756625268064424"><ele>1446.75</ele><time>2026-04-27T10:18:46.996Z</time></trkpt><trkpt lat="32.69966433209106" lon="-4.756766982509569"><ele>1447.0</ele><time>2026-04-27T10:18:47.996Z</time></trkpt><trkpt lat="32.69972627576187" lon="-4.756906650221735"><ele>1447.0</ele><time>2026-04-27T10:18:48.996Z</time></trkpt><trkpt lat="32.69978624165064" lon="-4.757042464355134"><ele>1447.0</ele><time>2026-04-27T10:18:49.996Z</time></trkpt><trkpt lat="32.699844526899376" lon="-4.757172606144026"><ele>1447.0</ele><time>2026-04-27T10:18:50.996Z</time></trkpt><trkpt lat="32.69989815408578" lon="-4.757293571930339"><ele>1447.0</ele><time>2026-04-27T10:18:51.995Z</time></trkpt><trkpt lat="32.69994644779005" lon="-4.7574034510920775"><ele>1447.0</ele><time>2026-04-27T10:18:52.995Z</time></trkpt><trkpt lat="32.6999934006402" lon="-4.757511110983429"><ele>1447.0</ele><time>2026-04-27T10:18:53.995Z</time></trkpt><trkpt lat="32.70003790975676" lon="-4.7576128937079645"><ele>1447.0</ele><time>2026-04-27T10:18:54.995Z</time></trkpt><trkpt lat="32.700081800917616" lon="-4.757710177255807"><ele>1447.0</ele><time>2026-04-27T10:18:55.995Z</time></trkpt><trkpt lat="32.70012310956772" lon="-4.757805307913573"><ele>1447.0</ele><time>2026-04-27T10:18:56.995Z</time></trkpt><trkpt lat="32.70016591688533" lon="-4.757895151991402"><ele>1447.1666666666665</ele><time>2026-04-27T10:18:57.995Z</time></trkpt><trkpt lat="32.700210387742125" lon="-4.757970660403913"><ele>1447.3333333333333</ele><time>2026-04-27T10:18:58.995Z</time></trkpt><trkpt lat="32.70025978852294" lon="-4.758030890746919"><ele>1447.5</ele><time>2026-04-27T10:18:59.995Z</time></trkpt><trkpt lat="32.70031932677217" lon="-4.758079585223546"><ele>1447.6666666666667</ele><time>2026-04-27T10:19:00.995Z</time></trkpt><trkpt lat="32.70038213003746" lon="-4.758119755562424"><ele>1447.8333333333335</ele><time>2026-04-27T10:19:01.995Z</time></trkpt><trkpt lat="32.70043817839827" lon="-4.758164919078619"><ele>1448.0</ele><time>2026-04-27T10:19:02.995Z</time></trkpt><trkpt lat="32.70051051936995" lon="-4.758283787012977"><ele>1447.6666666666667</ele><time>2026-04-27T10:19:04.995Z</time></trkpt><trkpt lat="32.700525047393526" lon="-4.758365807780655"><ele>1447.3333333333335</ele><time>2026-04-27T10:19:05.995Z</time></trkpt><trkpt lat="32.70052093623923" lon="-4.758458118598629"><ele>1447.0</ele><time>2026-04-27T10:19:06.995Z</time></trkpt><trkpt lat="32.70051307436779" lon="-4.7585535185339545"><ele>1446.6666666666667</ele><time>2026-04-27T10:19:07.995Z</time></trkpt><trkpt lat="32.70052186058614" lon="-4.758654334980359"><ele>1446.3333333333333</ele><time>2026-04-27T10:19:08.995Z</time></trkpt><trkpt lat="32.70055429158264" lon="-4.758751809557781"><ele>1446.0</ele><time>2026-04-27T10:19:09.995Z</time></trkpt><trkpt lat="32.70060234440953" lon="-4.758851900375323"><ele>1446.0</ele><time>2026-04-27T10:19:10.995Z</time></trkpt><trkpt lat="32.70066926577312" lon="-4.758956940977316"><ele>1446.0</ele><time>2026-04-27T10:19:11.995Z</time></trkpt><trkpt lat="32.700731035256126" lon="-4.759087594567802"><ele>1446.0</ele><time>2026-04-27T10:19:12.995Z</time></trkpt><trkpt lat="32.70080027978324" lon="-4.7592361212434495"><ele>1446.0</ele><time>2026-04-27T10:19:13.995Z</time></trkpt><trkpt lat="32.70086265335975" lon="-4.759388868517574"><ele>1445.6666666666667</ele><time>2026-04-27T10:19:14.995Z</time></trkpt><trkpt lat="32.70092651940474" lon="-4.759545270717177"><ele>1445.3333333333335</ele><time>2026-04-27T10:19:15.995Z</time></trkpt><trkpt lat="32.70097928544093" lon="-4.759719608354381"><ele>1445.0</ele><time>2026-04-27T10:19:16.995Z</time></trkpt><trkpt lat="32.70102716921549" lon="-4.759894219959231"><ele>1445.0</ele><time>2026-04-27T10:19:17.995Z</time></trkpt><trkpt lat="32.70106063286842" lon="-4.760076905802028"><ele>1445.0</ele><time>2026-04-27T10:19:18.995Z</time></trkpt><trkpt lat="32.70109221929182" lon="-4.760257981065369"><ele>1445.0</ele><time>2026-04-27T10:19:19.995Z</time></trkpt><trkpt lat="32.70109465412163" lon="-4.7604495715187936"><ele>1445.0</ele><time>2026-04-27T10:19:20.995Z</time></trkpt><trkpt lat="32.70109530090339" lon="-4.7606363156168365"><ele>1445.0</ele><time>2026-04-27T10:19:21.995Z</time></trkpt><trkpt lat="32.701077527390524" lon="-4.76081826403103"><ele>1445.0</ele><time>2026-04-27T10:19:22.995Z</time></trkpt><trkpt lat="32.701087786625656" lon="-4.7610001034090645"><ele>1445.25</ele><time>2026-04-27T10:19:23.995Z</time></trkpt><trkpt lat="32.701050268572345" lon="-4.7611765890554985"><ele>1445.5</ele><time>2026-04-27T10:19:24.995Z</time></trkpt><trkpt lat="32.70104729938184" lon="-4.761352228591428"><ele>1445.75</ele><time>2026-04-27T10:19:25.995Z</time></trkpt><trkpt lat="32.7010277223895" lon="-4.76152521425057"><ele>1446.0</ele><time>2026-04-27T10:19:26.995Z</time></trkpt><trkpt lat="32.70098542208185" lon="-4.76169065750105"><ele>1446.0</ele><time>2026-04-27T10:19:27.995Z</time></trkpt><trkpt lat="32.70096204415147" lon="-4.761851075108471"><ele>1446.0</ele><time>2026-04-27T10:19:28.995Z</time></trkpt><trkpt lat="32.70093994609483" lon="-4.762001720241684"><ele>1446.0</ele><time>2026-04-27T10:19:29.995Z</time></trkpt><trkpt lat="32.70092000092824" lon="-4.762142105952134"><ele>1446.0</ele><time>2026-04-27T10:19:30.995Z</time></trkpt><trkpt lat="32.700903807532264" lon="-4.762265981167606"><ele>1445.8333333333333</ele><time>2026-04-27T10:19:31.995Z</time></trkpt><trkpt lat="32.70088983039612" lon="-4.762377079202918"><ele>1445.6666666666667</ele><time>2026-04-27T10:19:32.995Z</time></trkpt><trkpt lat="32.700878385995274" lon="-4.7624796540184455"><ele>1445.5</ele><time>2026-04-27T10:19:33.995Z</time></trkpt><trkpt lat="32.70086962724145" lon="-4.76257618503345"><ele>1445.3333333333335</ele><time>2026-04-27T10:19:34.995Z</time></trkpt><trkpt lat="32.70086636392628" lon="-4.762669832329837"><ele>1445.1666666666667</ele><time>2026-04-27T10:19:35.995Z</time></trkpt><trkpt lat="32.70086904805007" lon="-4.762760677058118"><ele>1445.0</ele><time>2026-04-27T10:19:36.996Z</time></trkpt><trkpt lat="32.700875095357524" lon="-4.762851408632922"><ele>1445.0</ele><time>2026-04-27T10:19:37.996Z</time></trkpt><trkpt lat="32.70087105158929" lon="-4.762942399409289"><ele>1445.0</ele><time>2026-04-27T10:19:38.996Z</time></trkpt><trkpt lat="32.700848190227134" lon="-4.76303561870546"><ele>1445.0</ele><time>2026-04-27T10:19:39.996Z</time></trkpt><trkpt lat="32.7008125538457" lon="-4.763155927829082"><ele>1445.0</ele><time>2026-04-27T10:19:40.996Z</time></trkpt><trkpt lat="32.70078685602484" lon="-4.763255432365746"><ele>1445.0</ele><time>2026-04-27T10:19:41.997Z</time></trkpt><trkpt lat="32.70076307715905" lon="-4.763393138681848"><ele>1445.75</ele><time>2026-04-27T10:19:42.997Z</time></trkpt><trkpt lat="32.70074563394177" lon="-4.763535604509101"><ele>1446.5</ele><time>2026-04-27T10:19:43.997Z</time></trkpt><trkpt lat="32.7007333656086" lon="-4.763674040733257"><ele>1447.25</ele><time>2026-04-27T10:19:44.997Z</time></trkpt><trkpt lat="32.70072102138346" lon="-4.763804973772148"><ele>1448.0</ele><time>2026-04-27T10:19:45.997Z</time></trkpt><trkpt lat="32.70071155866599" lon="-4.763925055512498"><ele>1448.0</ele><time>2026-04-27T10:19:46.997Z</time></trkpt><trkpt lat="32.700704279208445" lon="-4.764035903601233"><ele>1448.0</ele><time>2026-04-27T10:19:47.998Z</time></trkpt><trkpt lat="32.70069730022891" lon="-4.7641432287473355"><ele>1448.0</ele><time>2026-04-27T10:19:48.998Z</time></trkpt><trkpt lat="32.70069246713303" lon="-4.764249850118231"><ele>1448.0</ele><time>2026-04-27T10:19:49.998Z</time></trkpt><trkpt lat="32.700689652309684" lon="-4.764359616699971"><ele>1448.0</ele><time>2026-04-27T10:19:50.998Z</time></trkpt><trkpt lat="32.70069359892822" lon="-4.764471800540023"><ele>1447.4</ele><time>2026-04-27T10:19:51.998Z</time></trkpt><trkpt lat="32.70070043665608" lon="-4.764586957898573"><ele>1446.8000000000002</ele><time>2026-04-27T10:19:52.998Z</time></trkpt><trkpt lat="32.70071148468278" lon="-4.764706304545236"><ele>1446.2</ele><time>2026-04-27T10:19:53.998Z</time></trkpt><trkpt lat="32.70072714721941" lon="-4.764827406868522"><ele>1445.6</ele><time>2026-04-27T10:19:54.998Z</time></trkpt><trkpt lat="32.70074567394432" lon="-4.764946860770194"><ele>1445.0</ele><time>2026-04-27T10:19:55.998Z</time></trkpt><trkpt lat="32.700783479703645" lon="-4.765055689901466"><ele>1445.0</ele><time>2026-04-27T10:19:56.999Z</time></trkpt><trkpt lat="32.700804493463615" lon="-4.765163892785045"><ele>1445.0</ele><time>2026-04-27T10:19:57.999Z</time></trkpt><trkpt lat="32.700824718100705" lon="-4.765268032333792"><ele>1445.0</ele><time>2026-04-27T10:19:58.999Z</time></trkpt><trkpt lat="32.70084329293179" lon="-4.765363676837536"><ele>1445.0</ele><time>2026-04-27T10:19:59.999Z</time></trkpt><trkpt lat="32.70086253756187" lon="-4.76546277020998"><ele>1445.0</ele><time>2026-04-27T10:20:00.999Z</time></trkpt><trkpt lat="32.700881838059246" lon="-4.765561738118927"><ele>1445.0</ele><time>2026-04-27T10:20:01.999Z</time></trkpt><trkpt lat="32.700901245201045" lon="-4.765660712333891"><ele>1444.6666666666667</ele><time>2026-04-27T10:20:02.999Z</time></trkpt><trkpt lat="32.70090395930836" lon="-4.765761439541158"><ele>1444.3333333333335</ele><time>2026-04-27T10:20:03.999Z</time></trkpt><trkpt lat="32.70092219739083" lon="-4.76585103552618"><ele>1444.0</ele><time>2026-04-27T10:20:04.999Z</time></trkpt><trkpt lat="32.700938758577955" lon="-4.765938865676193"><ele>1443.6666666666667</ele><time>2026-04-27T10:20:05.999Z</time></trkpt><trkpt lat="32.70095672168651" lon="-4.766024165021506"><ele>1443.3333333333333</ele><time>2026-04-27T10:20:06.999Z</time></trkpt><trkpt lat="32.70097417729553" lon="-4.766109716360589"><ele>1443.0</ele><time>2026-04-27T10:20:07.999Z</time></trkpt><trkpt lat="32.70099205745676" lon="-4.766198682872044"><ele>1442.4</ele><time>2026-04-27T10:20:08.999Z</time></trkpt><trkpt lat="32.70100907068777" lon="-4.766285774981046"><ele>1441.8000000000002</ele><time>2026-04-27T10:20:09.999Z</time></trkpt><trkpt lat="32.701024908384646" lon="-4.766367432919484"><ele>1441.2</ele><time>2026-04-27T10:20:10.999Z</time></trkpt><trkpt lat="32.70105356657233" lon="-4.766505890573156"><ele>1440.6</ele><time>2026-04-27T10:20:12.999Z</time></trkpt><trkpt lat="32.70107657470709" lon="-4.766623294258828"><ele>1440.0</ele><time>2026-04-27T10:20:14.999Z</time></trkpt><trkpt lat="32.701094446409265" lon="-4.7667218179025275"><ele>1439.8</ele><time>2026-04-27T10:20:16.999Z</time></trkpt><trkpt lat="32.70111396950496" lon="-4.76682779339943"><ele>1439.6</ele><time>2026-04-27T10:20:18.999Z</time></trkpt><trkpt lat="32.70113027801892" lon="-4.766907024848418"><ele>1439.4</ele><time>2026-04-27T10:20:19.999Z</time></trkpt><trkpt lat="32.701153718013394" lon="-4.767005538033859"><ele>1439.2</ele><time>2026-04-27T10:20:20.999Z</time></trkpt><trkpt lat="32.7011789019901" lon="-4.767118351705936"><ele>1439.0</ele><time>2026-04-27T10:20:21.999Z</time></trkpt><trkpt lat="32.70120722720319" lon="-4.7672455212408895"><ele>1438.0</ele><time>2026-04-27T10:20:22.999Z</time></trkpt><trkpt lat="32.70123598352376" lon="-4.767382133228247"><ele>1437.0</ele><time>2026-04-27T10:20:23.999Z</time></trkpt><trkpt lat="32.70126582738355" lon="-4.76752630561236"><ele>1436.0</ele><time>2026-04-27T10:20:24.999Z</time></trkpt><trkpt lat="32.70129580993405" lon="-4.7676756579897965"><ele>1435.0</ele><time>2026-04-27T10:20:25.999Z</time></trkpt><trkpt lat="32.701327780703444" lon="-4.767835017925182"><ele>1435.0</ele><time>2026-04-27T10:20:26.999Z</time></trkpt><trkpt lat="32.70136138505031" lon="-4.768003761918531"><ele>1435.0</ele><time>2026-04-27T10:20:27.999Z</time></trkpt><trkpt lat="32.70139489016453" lon="-4.7681814687361666"><ele>1435.0</ele><time>2026-04-27T10:20:28.999Z</time></trkpt><trkpt lat="32.701429339337885" lon="-4.768362831259139"><ele>1434.6666666666665</ele><time>2026-04-27T10:20:29.999Z</time></trkpt><trkpt lat="32.70146539462986" lon="-4.768548119988285"><ele>1434.3333333333333</ele><time>2026-04-27T10:20:30.999Z</time></trkpt><trkpt lat="32.70150215585091" lon="-4.7687369150405985"><ele>1434.0</ele><time>2026-04-27T10:20:31.999Z</time></trkpt><trkpt lat="32.701537522686294" lon="-4.768923591510793"><ele>1434.0</ele><time>2026-04-27T10:20:32.999Z</time></trkpt><trkpt lat="32.70157378052249" lon="-4.769108143810052"><ele>1434.0</ele><time>2026-04-27T10:20:33.999Z</time></trkpt><trkpt lat="32.70160873315383" lon="-4.769291480429626"><ele>1434.0</ele><time>2026-04-27T10:20:34.999Z</time></trkpt><trkpt lat="32.70164547446458" lon="-4.76947272736811"><ele>1433.3333333333333</ele><time>2026-04-27T10:20:35.999Z</time></trkpt><trkpt lat="32.70168169816105" lon="-4.769651390218082"><ele>1432.6666666666665</ele><time>2026-04-27T10:20:36.999Z</time></trkpt><trkpt lat="32.70171648028628" lon="-4.769832729296441"><ele>1432.0</ele><time>2026-04-27T10:20:37.999Z</time></trkpt><trkpt lat="32.70175215876565" lon="-4.770018490208675"><ele>1432.3333333333333</ele><time>2026-04-27T10:20:38.999Z</time></trkpt><trkpt lat="32.701789568825035" lon="-4.770208903668202"><ele>1432.6666666666667</ele><time>2026-04-27T10:20:39.999Z</time></trkpt><trkpt lat="32.701828063860354" lon="-4.770393807244804"><ele>1433.0</ele><time>2026-04-27T10:20:40.999Z</time></trkpt><trkpt lat="32.70186105076201" lon="-4.770569148045172"><ele>1433.0</ele><time>2026-04-27T10:20:41.999Z</time></trkpt><trkpt lat="32.70189246909187" lon="-4.770732333651054"><ele>1433.0</ele><time>2026-04-27T10:20:42.999Z</time></trkpt><trkpt lat="32.70192108953996" lon="-4.770881950369266"><ele>1433.0</ele><time>2026-04-27T10:20:43.999Z</time></trkpt><trkpt lat="32.70195013619755" lon="-4.771029132242404"><ele>1433.0</ele><time>2026-04-27T10:20:44.999Z</time></trkpt><trkpt lat="32.70197885162759" lon="-4.771174748536473"><ele>1432.25</ele><time>2026-04-27T10:20:45.999Z</time></trkpt><trkpt lat="32.70200685205915" lon="-4.771318777514615"><ele>1431.5</ele><time>2026-04-27T10:20:46.999Z</time></trkpt><trkpt lat="32.70203536621274" lon="-4.7714691465421"><ele>1430.75</ele><time>2026-04-27T10:20:47.999Z</time></trkpt><trkpt lat="32.702064247839594" lon="-4.77162389589925"><ele>1430.0</ele><time>2026-04-27T10:20:48.999Z</time></trkpt><trkpt lat="32.702095469976946" lon="-4.771777002362146"><ele>1430.0</ele><time>2026-04-27T10:20:49.999Z</time></trkpt><trkpt lat="32.70212502515693" lon="-4.771925023005337"><ele>1430.0</ele><time>2026-04-27T10:20:50.999Z</time></trkpt><trkpt lat="32.702155145348485" lon="-4.772073521054141"><ele>1430.0</ele><time>2026-04-27T10:20:51.999Z</time></trkpt><trkpt lat="32.70218536650504" lon="-4.772220672949697"><ele>1430.0</ele><time>2026-04-27T10:20:52.999Z</time></trkpt><trkpt lat="32.702214938058795" lon="-4.772372794601713"><ele>1430.0</ele><time>2026-04-27T10:20:53.999Z</time></trkpt><trkpt lat="32.70224599383631" lon="-4.772538522260297"><ele>1430.0</ele><time>2026-04-27T10:20:54.999Z</time></trkpt><trkpt lat="32.702276737063606" lon="-4.7727107156958875"><ele>1430.0</ele><time>2026-04-27T10:20:55.999Z</time></trkpt><trkpt lat="32.70231049196523" lon="-4.772882743453179"><ele>1430.0</ele><time>2026-04-27T10:20:56.999Z</time></trkpt><trkpt lat="32.70234531011476" lon="-4.773057634499535"><ele>1430.6666666666667</ele><time>2026-04-27T10:20:57.999Z</time></trkpt><trkpt lat="32.70238254296772" lon="-4.773239059453667"><ele>1431.3333333333333</ele><time>2026-04-27T10:20:58.999Z</time></trkpt><trkpt lat="32.702422974790245" lon="-4.773420153021437"><ele>1432.0</ele><time>2026-04-27T10:20:59.999Z</time></trkpt><trkpt lat="32.702472279807935" lon="-4.7735996182088405"><ele>1432.0</ele><time>2026-04-27T10:21:00.999Z</time></trkpt><trkpt lat="32.70253203459112" lon="-4.773776005614055"><ele>1432.0</ele><time>2026-04-27T10:21:01.999Z</time></trkpt><trkpt lat="32.70260558749598" lon="-4.773947806213172"><ele>1432.0</ele><time>2026-04-27T10:21:02.999Z</time></trkpt><trkpt lat="32.702689123716326" lon="-4.774117442930982"><ele>1431.0</ele><time>2026-04-27T10:21:03.999Z</time></trkpt><trkpt lat="32.70278471579863" lon="-4.774285546238683"><ele>1430.0</ele><time>2026-04-27T10:21:04.999Z</time></trkpt><trkpt lat="32.7029007629628" lon="-4.774445958909713"><ele>1429.0</ele><time>2026-04-27T10:21:05.999Z</time></trkpt><trkpt lat="32.70301477153101" lon="-4.774615583760106"><ele>1428.3333333333333</ele><time>2026-04-27T10:21:06.999Z</time></trkpt><trkpt lat="32.703133520488656" lon="-4.774792076446315"><ele>1427.6666666666667</ele><time>2026-04-27T10:21:07.999Z</time></trkpt><trkpt lat="32.70325042495779" lon="-4.774982280573986"><ele>1427.0</ele><time>2026-04-27T10:21:08.999Z</time></trkpt><trkpt lat="32.70336679142831" lon="-4.775171733485791"><ele>1426.6666666666667</ele><time>2026-04-27T10:21:09.999Z</time></trkpt><trkpt lat="32.703483580660006" lon="-4.775362285631482"><ele>1426.3333333333333</ele><time>2026-04-27T10:21:10.999Z</time></trkpt><trkpt lat="32.703601670155635" lon="-4.775556311411236"><ele>1426.0</ele><time>2026-04-27T10:21:11.999Z</time></trkpt><trkpt lat="32.70372204847881" lon="-4.775753240031836"><ele>1426.0</ele><time>2026-04-27T10:21:12.999Z</time></trkpt><trkpt lat="32.703845667683076" lon="-4.775953894045205"><ele>1426.0</ele><time>2026-04-27T10:21:13.999Z</time></trkpt><trkpt lat="32.70397103402499" lon="-4.776156958907934"><ele>1426.0</ele><time>2026-04-27T10:21:14.999Z</time></trkpt><trkpt lat="32.704097454184165" lon="-4.776361579560967"><ele>1424.6666666666665</ele><time>2026-04-27T10:21:15.999Z</time></trkpt><trkpt lat="32.70422489333816" lon="-4.77656724450258"><ele>1423.3333333333333</ele><time>2026-04-27T10:21:16.999Z</time></trkpt><trkpt lat="32.70435320945947" lon="-4.776774781554509"><ele>1422.0</ele><time>2026-04-27T10:21:17.999Z</time></trkpt><trkpt lat="32.70448298204498" lon="-4.776984912680369"><ele>1422.0</ele><time>2026-04-27T10:21:18.999Z</time></trkpt><trkpt lat="32.7046136251316" lon="-4.7771964160795735"><ele>1422.0</ele><time>2026-04-27T10:21:19.999Z</time></trkpt><trkpt lat="32.70474666784406" lon="-4.777409946457631"><ele>1422.0</ele><time>2026-04-27T10:21:20.999Z</time></trkpt><trkpt lat="32.70487852744019" lon="-4.777622168543465"><ele>1421.3333333333333</ele><time>2026-04-27T10:21:21.999Z</time></trkpt><trkpt lat="32.70500990053697" lon="-4.777832972423036"><ele>1420.6666666666665</ele><time>2026-04-27T10:21:22.999Z</time></trkpt><trkpt lat="32.70513834575732" lon="-4.778040505108214"><ele>1420.0</ele><time>2026-04-27T10:21:23.999Z</time></trkpt><trkpt lat="32.70526522215899" lon="-4.778244161680562"><ele>1419.0</ele><time>2026-04-27T10:21:24.999Z</time></trkpt><trkpt lat="32.70538752647913" lon="-4.778450335891504"><ele>1418.0</ele><time>2026-04-27T10:21:25.999Z</time></trkpt><trkpt lat="32.705497157005844" lon="-4.7786612571868305"><ele>1417.0</ele><time>2026-04-27T10:21:26.999Z</time></trkpt><trkpt lat="32.70559612765593" lon="-4.778887093489607"><ele>1417.0</ele><time>2026-04-27T10:21:27.999Z</time></trkpt><trkpt lat="32.70568339151658" lon="-4.779115897813077"><ele>1417.0</ele><time>2026-04-27T10:21:28.999Z</time></trkpt><trkpt lat="32.70574233871435" lon="-4.779356320796433"><ele>1417.0</ele><time>2026-04-27T10:21:29.999Z</time></trkpt><trkpt lat="32.70577033907881" lon="-4.779601301634235"><ele>1417.0</ele><time>2026-04-27T10:21:30.999Z</time></trkpt><trkpt lat="32.70579728425987" lon="-4.779842597490218"><ele>1417.0</ele><time>2026-04-27T10:21:31.999Z</time></trkpt><trkpt lat="32.705813462060775" lon="-4.780078370911511"><ele>1417.0</ele><time>2026-04-27T10:21:32.999Z</time></trkpt><trkpt lat="32.70582282720663" lon="-4.780298499173101"><ele>1417.3333333333333</ele><time>2026-04-27T10:21:33.999Z</time></trkpt><trkpt lat="32.705831217482874" lon="-4.780504070953866"><ele>1417.6666666666667</ele><time>2026-04-27T10:21:34.999Z</time></trkpt><trkpt lat="32.705839318554986" lon="-4.780698459807542"><ele>1418.0</ele><time>2026-04-27T10:21:35.999Z</time></trkpt><trkpt lat="32.70584561856215" lon="-4.78087567000825"><ele>1418.4</ele><time>2026-04-27T10:21:36.999Z</time></trkpt><trkpt lat="32.70585130713594" lon="-4.781037883022691"><ele>1418.8000000000002</ele><time>2026-04-27T10:21:37.999Z</time></trkpt><trkpt lat="32.705856670202486" lon="-4.781179244194266"><ele>1419.2</ele><time>2026-04-27T10:21:38.999Z</time></trkpt><trkpt lat="32.70586151124934" lon="-4.781292650187928"><ele>1419.6</ele><time>2026-04-27T10:21:39.999Z</time></trkpt><trkpt lat="32.705865925108434" lon="-4.78139437329758"><ele>1420.0</ele><time>2026-04-27T10:21:40.999Z</time></trkpt><trkpt lat="32.70587001982637" lon="-4.781496687498118"><ele>1420.0</ele><time>2026-04-27T10:21:41.999Z</time></trkpt><trkpt lat="32.70587552107028" lon="-4.781598836975579"><ele>1420.0</ele><time>2026-04-27T10:21:43Z</time></trkpt><trkpt lat="32.70588104833602" lon="-4.781700197255234"><ele>1420.0</ele><time>2026-04-27T10:21:44Z</time></trkpt><trkpt lat="32.70588642355078" lon="-4.781799208233838"><ele>1420.0</ele><time>2026-04-27T10:21:45Z</time></trkpt><trkpt lat="32.70589199477461" lon="-4.7818986178147105"><ele>1420.0</ele><time>2026-04-27T10:21:46Z</time></trkpt><trkpt lat="32.70589723690334" lon="-4.7820003152583705"><ele>1420.0</ele><time>2026-04-27T10:21:47Z</time></trkpt><trkpt lat="32.70590286629653" lon="-4.7821034508806965"><ele>1420.6</ele><time>2026-04-27T10:21:48Z</time></trkpt><trkpt lat="32.70590801065725" lon="-4.782212378901538"><ele>1421.2</ele><time>2026-04-27T10:21:49Z</time></trkpt><trkpt lat="32.70591186191259" lon="-4.782329012792212"><ele>1421.8000000000002</ele><time>2026-04-27T10:21:50Z</time></trkpt><trkpt lat="32.70591581394974" lon="-4.782452644226084"><ele>1422.4</ele><time>2026-04-27T10:21:51Z</time></trkpt><trkpt lat="32.705917307438526" lon="-4.782581995254134"><ele>1423.0</ele><time>2026-04-27T10:21:52Z</time></trkpt><trkpt lat="32.705920504695094" lon="-4.782713472725915"><ele>1423.0</ele><time>2026-04-27T10:21:53Z</time></trkpt><trkpt lat="32.70592778464866" lon="-4.7828435544037236"><ele>1423.0</ele><time>2026-04-27T10:21:54Z</time></trkpt><trkpt lat="32.70593469758481" lon="-4.782973622030118"><ele>1423.0</ele><time>2026-04-27T10:21:55Z</time></trkpt><trkpt lat="32.70594065353663" lon="-4.783101471916303"><ele>1423.0</ele><time>2026-04-27T10:21:56Z</time></trkpt><trkpt lat="32.705947192757215" lon="-4.783229682254286"><ele>1423.0</ele><time>2026-04-27T10:21:57Z</time></trkpt><trkpt lat="32.70595253888336" lon="-4.783358225599518"><ele>1423.0</ele><time>2026-04-27T10:21:58Z</time></trkpt><trkpt lat="32.705959029437714" lon="-4.783486773695316"><ele>1423.0</ele><time>2026-04-27T10:21:59Z</time></trkpt><trkpt lat="32.70596637062562" lon="-4.783614542684061"><ele>1423.0</ele><time>2026-04-27T10:22:00Z</time></trkpt><trkpt lat="32.705973879863485" lon="-4.783745681410128"><ele>1423.0</ele><time>2026-04-27T10:22:01Z</time></trkpt><trkpt lat="32.705979276663435" lon="-4.783883023219992"><ele>1423.0</ele><time>2026-04-27T10:22:02Z</time></trkpt><trkpt lat="32.70598417268655" lon="-4.784016188172059"><ele>1423.0</ele><time>2026-04-27T10:22:03Z</time></trkpt><trkpt lat="32.70598905958726" lon="-4.784141402321071"><ele>1423.0</ele><time>2026-04-27T10:22:04Z</time></trkpt><trkpt lat="32.70599458241792" lon="-4.7842781441840065"><ele>1423.0</ele><time>2026-04-27T10:22:05Z</time></trkpt><trkpt lat="32.706001744021236" lon="-4.784418965473811"><ele>1423.0</ele><time>2026-04-27T10:22:06Z</time></trkpt><trkpt lat="32.70600935293821" lon="-4.78456241111941"><ele>1423.0</ele><time>2026-04-27T10:22:07Z</time></trkpt><trkpt lat="32.70601682210257" lon="-4.784708810060914"><ele>1423.0</ele><time>2026-04-27T10:22:08Z</time></trkpt><trkpt lat="32.70602410944995" lon="-4.784855858343596"><ele>1423.0</ele><time>2026-04-27T10:22:09Z</time></trkpt><trkpt lat="32.706031071779115" lon="-4.785003443270573"><ele>1423.0</ele><time>2026-04-27T10:22:10Z</time></trkpt><trkpt lat="32.70603796668713" lon="-4.785150027491129"><ele>1423.0</ele><time>2026-04-27T10:22:11Z</time></trkpt><trkpt lat="32.706043802278714" lon="-4.785293218483431"><ele>1423.0</ele><time>2026-04-27T10:22:12Z</time></trkpt><trkpt lat="32.706049686344755" lon="-4.785434888566144"><ele>1423.0</ele><time>2026-04-27T10:22:13Z</time></trkpt><trkpt lat="32.70605624227876" lon="-4.785576252791606"><ele>1423.0</ele><time>2026-04-27T10:22:14Z</time></trkpt><trkpt lat="32.70606179222917" lon="-4.785718252924779"><ele>1423.0</ele><time>2026-04-27T10:22:15Z</time></trkpt><trkpt lat="32.70606743414979" lon="-4.785866311717648"><ele>1423.0</ele><time>2026-04-27T10:22:16Z</time></trkpt><trkpt lat="32.7060718458979" lon="-4.7860197087590475"><ele>1423.0</ele><time>2026-04-27T10:22:17Z</time></trkpt><trkpt lat="32.70607924737811" lon="-4.786175013034755"><ele>1423.0</ele><time>2026-04-27T10:22:18Z</time></trkpt><trkpt lat="32.706087015942174" lon="-4.786331823560955"><ele>1422.5</ele><time>2026-04-27T10:22:19Z</time></trkpt><trkpt lat="32.706092884594575" lon="-4.7864919016838"><ele>1422.0</ele><time>2026-04-27T10:22:20Z</time></trkpt><trkpt lat="32.70610079384395" lon="-4.786659310018942"><ele>1421.5</ele><time>2026-04-27T10:22:21Z</time></trkpt><trkpt lat="32.70610874688131" lon="-4.7868326536957575"><ele>1421.0</ele><time>2026-04-27T10:22:22Z</time></trkpt><trkpt lat="32.7061164644364" lon="-4.787007260073194"><ele>1422.0</ele><time>2026-04-27T10:22:23Z</time></trkpt><trkpt lat="32.706126288503995" lon="-4.787181451835028"><ele>1423.0</ele><time>2026-04-27T10:22:24Z</time></trkpt><trkpt lat="32.7061334483514" lon="-4.787357068012654"><ele>1424.0</ele><time>2026-04-27T10:22:25Z</time></trkpt><trkpt lat="32.70614287531122" lon="-4.787533810645762"><ele>1425.0</ele><time>2026-04-27T10:22:26Z</time></trkpt><trkpt lat="32.70615006333398" lon="-4.787714719045013"><ele>1426.3333333333333</ele><time>2026-04-27T10:22:27Z</time></trkpt><trkpt lat="32.706154703738434" lon="-4.787899452139604"><ele>1427.6666666666665</ele><time>2026-04-27T10:22:28Z</time></trkpt><trkpt lat="32.70618218067756" lon="-4.788084273062893"><ele>1429.0</ele><time>2026-04-27T10:22:29Z</time></trkpt><trkpt lat="32.70619372448787" lon="-4.788274762491963"><ele>1429.0</ele><time>2026-04-27T10:22:29.999Z</time></trkpt><trkpt lat="32.706205418973795" lon="-4.788470210123862"><ele>1429.0</ele><time>2026-04-27T10:22:30.999Z</time></trkpt><trkpt lat="32.70621765318151" lon="-4.788672604351126"><ele>1429.0</ele><time>2026-04-27T10:22:31.999Z</time></trkpt><trkpt lat="32.706229758634656" lon="-4.788875010256598"><ele>1429.0</ele><time>2026-04-27T10:22:32.999Z</time></trkpt><trkpt lat="32.706241763352175" lon="-4.78907573181761"><ele>1429.0</ele><time>2026-04-27T10:22:33.999Z</time></trkpt><trkpt lat="32.706253601717016" lon="-4.789273293991299"><ele>1429.0</ele><time>2026-04-27T10:22:34.999Z</time></trkpt><trkpt lat="32.70626534115838" lon="-4.7894686682355525"><ele>1429.3333333333333</ele><time>2026-04-27T10:22:35.999Z</time></trkpt><trkpt lat="32.706276375923466" lon="-4.78965843944062"><ele>1429.6666666666667</ele><time>2026-04-27T10:22:36.999Z</time></trkpt><trkpt lat="32.70628690900842" lon="-4.7898395830645"><ele>1430.0</ele><time>2026-04-27T10:22:37.999Z</time></trkpt><trkpt lat="32.70629744277428" lon="-4.790009623582399"><ele>1430.5</ele><time>2026-04-27T10:22:38.999Z</time></trkpt><trkpt lat="32.706307686077466" lon="-4.790181885744711"><ele>1431.0</ele><time>2026-04-27T10:22:39.999Z</time></trkpt><trkpt lat="32.70631752497056" lon="-4.7903486434625115"><ele>1431.5</ele><time>2026-04-27T10:22:40.999Z</time></trkpt><trkpt lat="32.70632720588783" lon="-4.79051039498774"><ele>1432.0</ele><time>2026-04-27T10:22:41.999Z</time></trkpt><trkpt lat="32.706335938300455" lon="-4.790664964644633"><ele>1432.0</ele><time>2026-04-27T10:22:42.999Z</time></trkpt><trkpt lat="32.706345012053646" lon="-4.7908188159748795"><ele>1432.0</ele><time>2026-04-27T10:22:43.999Z</time></trkpt><trkpt lat="32.70635459433133" lon="-4.790972223317872"><ele>1432.0</ele><time>2026-04-27T10:22:44.999Z</time></trkpt><trkpt lat="32.70636356617409" lon="-4.791122381879057"><ele>1432.0</ele><time>2026-04-27T10:22:45.999Z</time></trkpt><trkpt lat="32.70637321983442" lon="-4.791275988042949"><ele>1432.0</ele><time>2026-04-27T10:22:46.999Z</time></trkpt><trkpt lat="32.7063775166247" lon="-4.791449765756668"><ele>1432.0</ele><time>2026-04-27T10:22:47.999Z</time></trkpt><trkpt lat="32.706384315757056" lon="-4.791641526174614"><ele>1432.0</ele><time>2026-04-27T10:22:48.999Z</time></trkpt><trkpt lat="32.70639232694234" lon="-4.791853059061085"><ele>1431.6666666666665</ele><time>2026-04-27T10:22:49.999Z</time></trkpt><trkpt lat="32.70639972756522" lon="-4.792050449657646"><ele>1431.3333333333333</ele><time>2026-04-27T10:22:50.999Z</time></trkpt><trkpt lat="32.706410037444925" lon="-4.792322173493634"><ele>1431.0</ele><time>2026-04-27T10:22:51.999Z</time></trkpt><trkpt lat="32.70641916818906" lon="-4.792569157620847"><ele>1430.6666666666667</ele><time>2026-04-27T10:22:52.999Z</time></trkpt><trkpt lat="32.70642825542559" lon="-4.792819314704276"><ele>1430.3333333333335</ele><time>2026-04-27T10:22:53.999Z</time></trkpt><trkpt lat="32.70643750452201" lon="-4.793068606824886"><ele>1430.0</ele><time>2026-04-27T10:22:54.999Z</time></trkpt><trkpt lat="32.706446969527406" lon="-4.7933209137699295"><ele>1430.6666666666667</ele><time>2026-04-27T10:22:55.999Z</time></trkpt><trkpt lat="32.70645675932348" lon="-4.793581163590218"><ele>1431.3333333333333</ele><time>2026-04-27T10:22:56.999Z</time></trkpt><trkpt lat="32.70646630302721" lon="-4.793844230039168"><ele>1432.0</ele><time>2026-04-27T10:22:57.999Z</time></trkpt><trkpt lat="32.706460740686744" lon="-4.79410740986791"><ele>1431.6666666666665</ele><time>2026-04-27T10:22:58.999Z</time></trkpt><trkpt lat="32.70647491649695" lon="-4.794367507393843"><ele>1431.3333333333333</ele><time>2026-04-27T10:22:59.999Z</time></trkpt><trkpt lat="32.70648907824585" lon="-4.794631698920127"><ele>1431.0</ele><time>2026-04-27T10:23:00.999Z</time></trkpt><trkpt lat="32.706502592788034" lon="-4.794895258343328"><ele>1431.0</ele><time>2026-04-27T10:23:01.999Z</time></trkpt><trkpt lat="32.70651428570208" lon="-4.795156887295495"><ele>1431.0</ele><time>2026-04-27T10:23:02.999Z</time></trkpt><trkpt lat="32.706526802051364" lon="-4.795417921462942"><ele>1431.0</ele><time>2026-04-27T10:23:03.999Z</time></trkpt><trkpt lat="32.706537632544396" lon="-4.7956760396165015"><ele>1430.6666666666667</ele><time>2026-04-27T10:23:04.999Z</time></trkpt><trkpt lat="32.70654599782501" lon="-4.795928939809903"><ele>1430.3333333333335</ele><time>2026-04-27T10:23:05.999Z</time></trkpt><trkpt lat="32.70654984298312" lon="-4.796174810476233"><ele>1430.0</ele><time>2026-04-27T10:23:06.999Z</time></trkpt><trkpt lat="32.70655003026921" lon="-4.796416580680769"><ele>1430.6666666666667</ele><time>2026-04-27T10:23:07.999Z</time></trkpt><trkpt lat="32.706540387961624" lon="-4.796654979006579"><ele>1431.3333333333333</ele><time>2026-04-27T10:23:08.999Z</time></trkpt><trkpt lat="32.706518072341325" lon="-4.796887445014675"><ele>1432.0</ele><time>2026-04-27T10:23:09.999Z</time></trkpt><trkpt lat="32.70648772774594" lon="-4.79711282161394"><ele>1433.0</ele><time>2026-04-27T10:23:10.999Z</time></trkpt><trkpt lat="32.706449099548514" lon="-4.7973303265501235"><ele>1434.0</ele><time>2026-04-27T10:23:11.999Z</time></trkpt><trkpt lat="32.70640108450324" lon="-4.797543720225011"><ele>1435.0</ele><time>2026-04-27T10:23:12.999Z</time></trkpt><trkpt lat="32.70634811518485" lon="-4.797761940213734"><ele>1435.6666666666665</ele><time>2026-04-27T10:23:13.999Z</time></trkpt><trkpt lat="32.70629258885475" lon="-4.797984945038437"><ele>1436.3333333333333</ele><time>2026-04-27T10:23:14.999Z</time></trkpt><trkpt lat="32.70623661086391" lon="-4.798211572697142"><ele>1437.0</ele><time>2026-04-27T10:23:15.999Z</time></trkpt><trkpt lat="32.70618164092707" lon="-4.7984407221583805"><ele>1437.0</ele><time>2026-04-27T10:23:16.999Z</time></trkpt><trkpt lat="32.70612675329933" lon="-4.798666775925022"><ele>1437.0</ele><time>2026-04-27T10:23:17.999Z</time></trkpt><trkpt lat="32.706072256640105" lon="-4.798896336100293"><ele>1437.0</ele><time>2026-04-27T10:23:18.999Z</time></trkpt><trkpt lat="32.70601828754484" lon="-4.799128620821937"><ele>1438.0</ele><time>2026-04-27T10:23:19.999Z</time></trkpt><trkpt lat="32.705963437780916" lon="-4.799362537111689"><ele>1439.0</ele><time>2026-04-27T10:23:20.999Z</time></trkpt><trkpt lat="32.70590205513413" lon="-4.799595108414077"><ele>1440.0</ele><time>2026-04-27T10:23:21.999Z</time></trkpt><trkpt lat="32.705842749365885" lon="-4.799834195374732"><ele>1440.0</ele><time>2026-04-27T10:23:22.999Z</time></trkpt><trkpt lat="32.70578221803791" lon="-4.800082509816968"><ele>1440.0</ele><time>2026-04-27T10:23:23.999Z</time></trkpt><trkpt lat="32.705722987087135" lon="-4.800338251320507"><ele>1440.0</ele><time>2026-04-27T10:23:24.999Z</time></trkpt><trkpt lat="32.70566327265229" lon="-4.800594600972074"><ele>1440.0</ele><time>2026-04-27T10:23:25.999Z</time></trkpt><trkpt lat="32.705602805874285" lon="-4.800853895690807"><ele>1440.0</ele><time>2026-04-27T10:23:26.999Z</time></trkpt><trkpt lat="32.705541120707295" lon="-4.801119256705432"><ele>1439.5</ele><time>2026-04-27T10:23:27.999Z</time></trkpt><trkpt lat="32.7054770757322" lon="-4.801388641403015"><ele>1439.0</ele><time>2026-04-27T10:23:28.999Z</time></trkpt><trkpt lat="32.70541114725418" lon="-4.801665462524824"><ele>1440.0</ele><time>2026-04-27T10:23:29.999Z</time></trkpt><trkpt lat="32.70534481943296" lon="-4.801946678299973"><ele>1441.0</ele><time>2026-04-27T10:23:30.999Z</time></trkpt><trkpt lat="32.70528299868081" lon="-4.8022277839582985"><ele>1441.5</ele><time>2026-04-27T10:23:31.999Z</time></trkpt><trkpt lat="32.70522056957606" lon="-4.802511040589036"><ele>1442.0</ele><time>2026-04-27T10:23:32.999Z</time></trkpt><trkpt lat="32.705155728480115" lon="-4.802796954996936"><ele>1442.0</ele><time>2026-04-27T10:23:33.999Z</time></trkpt><trkpt lat="32.70509064500553" lon="-4.803080470555077"><ele>1442.0</ele><time>2026-04-27T10:23:34.999Z</time></trkpt><trkpt lat="32.70502706300117" lon="-4.803359794124247"><ele>1441.5</ele><time>2026-04-27T10:23:35.999Z</time></trkpt><trkpt lat="32.704965557929995" lon="-4.803635496021978"><ele>1441.0</ele><time>2026-04-27T10:23:36.999Z</time></trkpt><trkpt lat="32.70490386008115" lon="-4.8039065340953915"><ele>1441.0</ele><time>2026-04-27T10:23:37.999Z</time></trkpt><trkpt lat="32.70483972243053" lon="-4.804178154649768"><ele>1441.0</ele><time>2026-04-27T10:23:38.999Z</time></trkpt><trkpt lat="32.704765601794094" lon="-4.804449322579674"><ele>1442.0</ele><time>2026-04-27T10:23:39.999Z</time></trkpt><trkpt lat="32.70468099429332" lon="-4.804718908840139"><ele>1443.0</ele><time>2026-04-27T10:23:40.999Z</time></trkpt><trkpt lat="32.70457316900466" lon="-4.804981542386404"><ele>1444.0</ele><time>2026-04-27T10:23:41.999Z</time></trkpt><trkpt lat="32.70443463847197" lon="-4.805228069786471"><ele>1445.0</ele><time>2026-04-27T10:23:42.999Z</time></trkpt><trkpt lat="32.704274126403604" lon="-4.805465849156264"><ele>1446.5</ele><time>2026-04-27T10:23:43.999Z</time></trkpt><trkpt lat="32.704098803035485" lon="-4.805698707338084"><ele>1448.0</ele><time>2026-04-27T10:23:44.999Z</time></trkpt><trkpt lat="32.703920493131406" lon="-4.805932619064237"><ele>1447.5</ele><time>2026-04-27T10:23:45.999Z</time></trkpt><trkpt lat="32.70373966654439" lon="-4.806169767997298"><ele>1447.0</ele><time>2026-04-27T10:23:46.999Z</time></trkpt><trkpt lat="32.70355626167018" lon="-4.80640986356242"><ele>1447.0</ele><time>2026-04-27T10:23:47.999Z</time></trkpt><trkpt lat="32.70337116352699" lon="-4.806657462867847"><ele>1447.0</ele><time>2026-04-27T10:23:49Z</time></trkpt><trkpt lat="32.70318077295451" lon="-4.806910810943442"><ele>1448.0</ele><time>2026-04-27T10:23:50Z</time></trkpt><trkpt lat="32.70298377265284" lon="-4.807168962726167"><ele>1449.0</ele><time>2026-04-27T10:23:51Z</time></trkpt><trkpt lat="32.70278339024401" lon="-4.807432897726924"><ele>1450.5</ele><time>2026-04-27T10:23:52Z</time></trkpt><trkpt lat="32.7025814999553" lon="-4.807699096013057"><ele>1452.0</ele><time>2026-04-27T10:23:53Z</time></trkpt><trkpt lat="32.70237862485992" lon="-4.807965250577532"><ele>1452.0</ele><time>2026-04-27T10:23:54Z</time></trkpt><trkpt lat="32.70218277407959" lon="-4.808224371726355"><ele>1452.0</ele><time>2026-04-27T10:23:55Z</time></trkpt><trkpt lat="32.70198997174538" lon="-4.808480478192225"><ele>1452.0</ele><time>2026-04-27T10:23:56Z</time></trkpt><trkpt lat="32.701799236656" lon="-4.808732342646575"><ele>1452.0</ele><time>2026-04-27T10:23:57Z</time></trkpt><trkpt lat="32.701606064148294" lon="-4.808986888370849"><ele>1452.0</ele><time>2026-04-27T10:23:58Z</time></trkpt><trkpt lat="32.70141183671664" lon="-4.809244524424421"><ele>1452.0</ele><time>2026-04-27T10:23:59Z</time></trkpt><trkpt lat="32.701218468290875" lon="-4.809503212751415"><ele>1453.0</ele><time>2026-04-27T10:24:00Z</time></trkpt><trkpt lat="32.70102492053717" lon="-4.809759938134839"><ele>1454.0</ele><time>2026-04-27T10:24:01Z</time></trkpt><trkpt lat="32.700830663762765" lon="-4.810011419032763"><ele>1454.5</ele><time>2026-04-27T10:24:02Z</time></trkpt><trkpt lat="32.70063853027528" lon="-4.8102617090693665"><ele>1455.0</ele><time>2026-04-27T10:24:03Z</time></trkpt><trkpt lat="32.7004499522276" lon="-4.810513368843581"><ele>1455.0</ele><time>2026-04-27T10:24:04Z</time></trkpt><trkpt lat="32.70026390370958" lon="-4.810760844167857"><ele>1455.0</ele><time>2026-04-27T10:24:05Z</time></trkpt><trkpt lat="32.700079390714926" lon="-4.811005188771176"><ele>1456.0</ele><time>2026-04-27T10:24:06Z</time></trkpt><trkpt lat="32.69989781365306" lon="-4.811243883414682"><ele>1457.0</ele><time>2026-04-27T10:24:07Z</time></trkpt><trkpt lat="32.69972033365947" lon="-4.811474144807993"><ele>1457.0</ele><time>2026-04-27T10:24:08Z</time></trkpt><trkpt lat="32.69954800257214" lon="-4.811698043894149"><ele>1457.0</ele><time>2026-04-27T10:24:09Z</time></trkpt><trkpt lat="32.6993830554563" lon="-4.811916718217719"><ele>1459.0</ele><time>2026-04-27T10:24:10Z</time></trkpt><trkpt lat="32.69923352954869" lon="-4.8121327008674015"><ele>1461.0</ele><time>2026-04-27T10:24:11Z</time></trkpt><trkpt lat="32.69910230600569" lon="-4.812352350255546"><ele>1461.0</ele><time>2026-04-27T10:24:12Z</time></trkpt><trkpt lat="32.698987916229555" lon="-4.81258532735392"><ele>1461.0</ele><time>2026-04-27T10:24:13Z</time></trkpt><trkpt lat="32.69885853115982" lon="-4.812814185313726"><ele>1460.5</ele><time>2026-04-27T10:24:14Z</time></trkpt><trkpt lat="32.69880001618441" lon="-4.813115452122061"><ele>1460.0</ele><time>2026-04-27T10:24:15Z</time></trkpt><trkpt lat="32.69873209905257" lon="-4.813406646080683"><ele>1460.0</ele><time>2026-04-27T10:24:16Z</time></trkpt><trkpt lat="32.6986800419609" lon="-4.813713094242275"><ele>1460.0</ele><time>2026-04-27T10:24:17Z</time></trkpt><trkpt lat="32.69863943637149" lon="-4.814030876668891"><ele>1460.0</ele><time>2026-04-27T10:24:18Z</time></trkpt><trkpt lat="32.698598002932" lon="-4.81435657015903"><ele>1460.0</ele><time>2026-04-27T10:24:19Z</time></trkpt><trkpt lat="32.69855279626582" lon="-4.8146835802587615"><ele>1461.5</ele><time>2026-04-27T10:24:20Z</time></trkpt><trkpt lat="32.69850628701681" lon="-4.815012091117859"><ele>1463.0</ele><time>2026-04-27T10:24:21Z</time></trkpt><trkpt lat="32.69846095422876" lon="-4.815342621013341"><ele>1463.0</ele><time>2026-04-27T10:24:22Z</time></trkpt><trkpt lat="32.69841743585114" lon="-4.815680827829195"><ele>1463.0</ele><time>2026-04-27T10:24:23Z</time></trkpt><trkpt lat="32.698372744725596" lon="-4.816026802100166"><ele>1463.0</ele><time>2026-04-27T10:24:24Z</time></trkpt><trkpt lat="32.69832992871431" lon="-4.81636988749949"><ele>1463.0</ele><time>2026-04-27T10:24:25Z</time></trkpt><trkpt lat="32.698287154452395" lon="-4.816713116369"><ele>1463.0</ele><time>2026-04-27T10:24:26Z</time></trkpt><trkpt lat="32.6982423526293" lon="-4.817059278038257"><ele>1463.0</ele><time>2026-04-27T10:24:27Z</time></trkpt><trkpt lat="32.69819579328746" lon="-4.817408523250628"><ele>1463.5</ele><time>2026-04-27T10:24:28Z</time></trkpt><trkpt lat="32.698148614555095" lon="-4.81775878808726"><ele>1464.0</ele><time>2026-04-27T10:24:29Z</time></trkpt><trkpt lat="32.698101892771206" lon="-4.818106837578926"><ele>1464.0</ele><time>2026-04-27T10:24:30Z</time></trkpt><trkpt lat="32.698055736631005" lon="-4.818457717111781"><ele>1464.0</ele><time>2026-04-27T10:24:31Z</time></trkpt><trkpt lat="32.69800973040937" lon="-4.818813321921726"><ele>1464.0</ele><time>2026-04-27T10:24:32Z</time></trkpt><trkpt lat="32.697962250253354" lon="-4.81917383850828"><ele>1464.0</ele><time>2026-04-27T10:24:33Z</time></trkpt><trkpt lat="32.69791211602627" lon="-4.819539902429373"><ele>1464.0</ele><time>2026-04-27T10:24:34Z</time></trkpt><trkpt lat="32.69786166420997" lon="-4.81990926963292"><ele>1464.0</ele><time>2026-04-27T10:24:35Z</time></trkpt><trkpt lat="32.69781216145508" lon="-4.820276931986049"><ele>1464.0</ele><time>2026-04-27T10:24:36Z</time></trkpt><trkpt lat="32.6977637525676" lon="-4.820643882424876"><ele>1464.0</ele><time>2026-04-27T10:24:37Z</time></trkpt><trkpt lat="32.69771863325771" lon="-4.821009766449105"><ele>1466.5</ele><time>2026-04-27T10:24:38Z</time></trkpt><trkpt lat="32.69767479420845" lon="-4.821371474442061"><ele>1469.0</ele><time>2026-04-27T10:24:39Z</time></trkpt><trkpt lat="32.69762971173895" lon="-4.821727677499691"><ele>1468.5</ele><time>2026-04-27T10:24:40Z</time></trkpt><trkpt lat="32.69758311139953" lon="-4.822068293808718"><ele>1468.0</ele><time>2026-04-27T10:24:41Z</time></trkpt><trkpt lat="32.69753868303104" lon="-4.8223968621094"><ele>1469.5</ele><time>2026-04-27T10:24:42Z</time></trkpt><trkpt lat="32.697500225636446" lon="-4.822707525763756"><ele>1471.0</ele><time>2026-04-27T10:24:43Z</time></trkpt><trkpt lat="32.69746863837804" lon="-4.823013267379486"><ele>1471.0</ele><time>2026-04-27T10:24:44Z</time></trkpt><trkpt lat="32.69745024279014" lon="-4.823325158765382"><ele>1471.0</ele><time>2026-04-27T10:24:45Z</time></trkpt><trkpt lat="32.69744636813263" lon="-4.823641198483476"><ele>1472.0</ele><time>2026-04-27T10:24:46Z</time></trkpt><trkpt lat="32.697449118210606" lon="-4.823955780516804"><ele>1473.0</ele><time>2026-04-27T10:24:47Z</time></trkpt><trkpt lat="32.69745011002249" lon="-4.82427072490527"><ele>1473.0</ele><time>2026-04-27T10:24:48Z</time></trkpt><trkpt lat="32.69745373257813" lon="-4.824582865979332"><ele>1473.0</ele><time>2026-04-27T10:24:49Z</time></trkpt><trkpt lat="32.697459480725826" lon="-4.824887586057319"><ele>1474.0</ele><time>2026-04-27T10:24:50Z</time></trkpt><trkpt lat="32.69746585116421" lon="-4.8251851830930095"><ele>1475.0</ele><time>2026-04-27T10:24:51Z</time></trkpt><trkpt lat="32.69747210837044" lon="-4.825472816660396"><ele>1475.0</ele><time>2026-04-27T10:24:52Z</time></trkpt><trkpt lat="32.69747701377235" lon="-4.825744948482875"><ele>1475.0</ele><time>2026-04-27T10:24:53Z</time></trkpt><trkpt lat="32.69748223479802" lon="-4.826006019368603"><ele>1475.0</ele><time>2026-04-27T10:24:54Z</time></trkpt><trkpt lat="32.697487194592206" lon="-4.8262696891376455"><ele>1475.5</ele><time>2026-04-27T10:24:55Z</time></trkpt><trkpt lat="32.69748971063015" lon="-4.826535912075231"><ele>1476.0</ele><time>2026-04-27T10:24:56Z</time></trkpt><trkpt lat="32.69749238995552" lon="-4.826810775708526"><ele>1475.5</ele><time>2026-04-27T10:24:57Z</time></trkpt><trkpt lat="32.69749430368292" lon="-4.827094266067727"><ele>1475.0</ele><time>2026-04-27T10:24:58Z</time></trkpt><trkpt lat="32.69749741356018" lon="-4.827385875190269"><ele>1474.5</ele><time>2026-04-27T10:24:59Z</time></trkpt><trkpt lat="32.697501119373904" lon="-4.827689700061918"><ele>1474.0</ele><time>2026-04-27T10:25:00Z</time></trkpt><trkpt lat="32.69750508514052" lon="-4.828005559824881"><ele>1474.0</ele><time>2026-04-27T10:25:01Z</time></trkpt><trkpt lat="32.69751012726027" lon="-4.828332899185008"><ele>1474.0</ele><time>2026-04-27T10:25:02Z</time></trkpt><trkpt lat="32.69751484746684" lon="-4.828669495118069"><ele>1473.5</ele><time>2026-04-27T10:25:03Z</time></trkpt><trkpt lat="32.69751866008669" lon="-4.829014974985387"><ele>1473.0</ele><time>2026-04-27T10:25:03.999Z</time></trkpt><trkpt lat="32.69752301341549" lon="-4.829372236687488"><ele>1474.0</ele><time>2026-04-27T10:25:04.999Z</time></trkpt><trkpt lat="32.69752850225975" lon="-4.8297404085996805"><ele>1475.0</ele><time>2026-04-27T10:25:05.999Z</time></trkpt><trkpt lat="32.697533947388116" lon="-4.830117695221897"><ele>1475.0</ele><time>2026-04-27T10:25:06.999Z</time></trkpt><trkpt lat="32.69753922449785" lon="-4.830502784031611"><ele>1475.0</ele><time>2026-04-27T10:25:07.999Z</time></trkpt><trkpt lat="32.697544135909936" lon="-4.830896650330553"><ele>1476.5</ele><time>2026-04-27T10:25:08.999Z</time></trkpt><trkpt lat="32.69754945795452" lon="-4.83129524316946"><ele>1478.0</ele><time>2026-04-27T10:25:09.999Z</time></trkpt><trkpt lat="32.697555772226345" lon="-4.831696001285141"><ele>1478.0</ele><time>2026-04-27T10:25:10.999Z</time></trkpt><trkpt lat="32.697561106506356" lon="-4.83209601781636"><ele>1478.0</ele><time>2026-04-27T10:25:11.999Z</time></trkpt><trkpt lat="32.697565777474466" lon="-4.832493361256127"><ele>1479.0</ele><time>2026-04-27T10:25:12.999Z</time></trkpt><trkpt lat="32.69757230484516" lon="-4.832892479683002"><ele>1480.0</ele><time>2026-04-27T10:25:13.999Z</time></trkpt><trkpt lat="32.69758025454402" lon="-4.833280599354208"><ele>1480.5</ele><time>2026-04-27T10:25:14.999Z</time></trkpt><trkpt lat="32.69758846183756" lon="-4.8336632852154775"><ele>1481.0</ele><time>2026-04-27T10:25:15.999Z</time></trkpt><trkpt lat="32.69759549245523" lon="-4.834053445965062"><ele>1481.5</ele><time>2026-04-27T10:25:16.999Z</time></trkpt><trkpt lat="32.69760104196064" lon="-4.8344525521264545"><ele>1482.0</ele><time>2026-04-27T10:25:17.999Z</time></trkpt><trkpt lat="32.6976094948927" lon="-4.834855596808848"><ele>1481.0</ele><time>2026-04-27T10:25:18.999Z</time></trkpt><trkpt lat="32.697616211921655" lon="-4.8352609136907665"><ele>1480.0</ele><time>2026-04-27T10:25:19.999Z</time></trkpt><trkpt lat="32.697622415298504" lon="-4.835669208257828"><ele>1480.0</ele><time>2026-04-27T10:25:20.999Z</time></trkpt><trkpt lat="32.6976272516657" lon="-4.83607813703383"><ele>1480.0</ele><time>2026-04-27T10:25:21.999Z</time></trkpt><trkpt lat="32.697632233898005" lon="-4.836487591355643"><ele>1479.5</ele><time>2026-04-27T10:25:22.999Z</time></trkpt><trkpt lat="32.69763834015324" lon="-4.836898153114144"><ele>1479.0</ele><time>2026-04-27T10:25:23.999Z</time></trkpt><trkpt lat="32.69764481998816" lon="-4.837308025200312"><ele>1480.5</ele><time>2026-04-27T10:25:24.999Z</time></trkpt><trkpt lat="32.69764934566206" lon="-4.837711863800303"><ele>1482.0</ele><time>2026-04-27T10:25:25.999Z</time></trkpt><trkpt lat="32.69765339135948" lon="-4.838108515727285"><ele>1483.0</ele><time>2026-04-27T10:25:26.999Z</time></trkpt><trkpt lat="32.697658846394276" lon="-4.838503191853886"><ele>1484.0</ele><time>2026-04-27T10:25:27.999Z</time></trkpt><trkpt lat="32.69766544173206" lon="-4.838897092977859"><ele>1484.0</ele><time>2026-04-27T10:25:28.999Z</time></trkpt><trkpt lat="32.697671120572544" lon="-4.839292692202734"><ele>1484.0</ele><time>2026-04-27T10:25:29.999Z</time></trkpt><trkpt lat="32.69767645720345" lon="-4.839688919370035"><ele>1485.0</ele><time>2026-04-27T10:25:30.999Z</time></trkpt><trkpt lat="32.697681357937924" lon="-4.840076124043565"><ele>1486.0</ele><time>2026-04-27T10:25:31.999Z</time></trkpt><trkpt lat="32.69768594022558" lon="-4.8404481631899"><ele>1487.0</ele><time>2026-04-27T10:25:32.999Z</time></trkpt><trkpt lat="32.69768995574135" lon="-4.840802779628377"><ele>1488.0</ele><time>2026-04-27T10:25:33.999Z</time></trkpt><trkpt lat="32.697696029500875" lon="-4.841138521766014"><ele>1489.0</ele><time>2026-04-27T10:25:34.999Z</time></trkpt><trkpt lat="32.6977027590624" lon="-4.841453234008232"><ele>1490.0</ele><time>2026-04-27T10:25:35.999Z</time></trkpt><trkpt lat="32.69771711025916" lon="-4.8417592293939595"><ele>1490.5</ele><time>2026-04-27T10:25:36.999Z</time></trkpt><trkpt lat="32.69774480981018" lon="-4.842060578945116"><ele>1491.0</ele><time>2026-04-27T10:25:37.999Z</time></trkpt><trkpt lat="32.697793345986845" lon="-4.842361031041791"><ele>1494.0</ele><time>2026-04-27T10:25:38.999Z</time></trkpt><trkpt lat="32.69786474500346" lon="-4.842633553677844"><ele>1497.0</ele><time>2026-04-27T10:25:39.999Z</time></trkpt><trkpt lat="32.69795190425175" lon="-4.842906698831026"><ele>1497.0</ele><time>2026-04-27T10:25:40.999Z</time></trkpt><trkpt lat="32.69805610744462" lon="-4.843166568812551"><ele>1497.0</ele><time>2026-04-27T10:25:41.999Z</time></trkpt><trkpt lat="32.69818052444356" lon="-4.8434191916646885"><ele>1498.0</ele><time>2026-04-27T10:25:42.999Z</time></trkpt><trkpt lat="32.698327307083055" lon="-4.8436643322922555"><ele>1499.0</ele><time>2026-04-27T10:25:43.999Z</time></trkpt><trkpt lat="32.6984904936629" lon="-4.843894154186997"><ele>1500.0</ele><time>2026-04-27T10:25:44.999Z</time></trkpt><trkpt lat="32.69866081877072" lon="-4.844101931307704"><ele>1501.0</ele><time>2026-04-27T10:25:45.999Z</time></trkpt><trkpt lat="32.69884700127878" lon="-4.844300243997554"><ele>1501.0</ele><time>2026-04-27T10:25:46.999Z</time></trkpt><trkpt lat="32.69905499178882" lon="-4.844487380537419"><ele>1501.0</ele><time>2026-04-27T10:25:47.999Z</time></trkpt><trkpt lat="32.6992679834796" lon="-4.844689424316322"><ele>1502.0</ele><time>2026-04-27T10:25:48.999Z</time></trkpt><trkpt lat="32.699478910932335" lon="-4.844908007975721"><ele>1503.0</ele><time>2026-04-27T10:25:49.999Z</time></trkpt><trkpt lat="32.699694373211344" lon="-4.845131180362726"><ele>1503.0</ele><time>2026-04-27T10:25:50.999Z</time></trkpt><trkpt lat="32.69991224659155" lon="-4.845358043868726"><ele>1503.0</ele><time>2026-04-27T10:25:51.999Z</time></trkpt><trkpt lat="32.700133341573306" lon="-4.845588576954588"><ele>1504.0</ele><time>2026-04-27T10:25:52.999Z</time></trkpt><trkpt lat="32.700359192132524" lon="-4.845824510706446"><ele>1505.0</ele><time>2026-04-27T10:25:54Z</time></trkpt><trkpt lat="32.70058399766635" lon="-4.846058737650096"><ele>1505.0</ele><time>2026-04-27T10:25:55Z</time></trkpt><trkpt lat="32.70080519147271" lon="-4.846287599316302"><ele>1505.0</ele><time>2026-04-27T10:25:56Z</time></trkpt><trkpt lat="32.701021906031784" lon="-4.846511871500118"><ele>1506.5</ele><time>2026-04-27T10:25:57Z</time></trkpt><trkpt lat="32.701234908347345" lon="-4.846732611101241"><ele>1508.0</ele><time>2026-04-27T10:25:58Z</time></trkpt><trkpt lat="32.70144588886861" lon="-4.84695125561416"><ele>1509.5</ele><time>2026-04-27T10:25:59Z</time></trkpt><trkpt lat="32.70164879724654" lon="-4.847161657719742"><ele>1511.0</ele><time>2026-04-27T10:26:00Z</time></trkpt><trkpt lat="32.70184589178217" lon="-4.847366132405868"><ele>1511.5</ele><time>2026-04-27T10:26:01Z</time></trkpt><trkpt lat="32.702035249359895" lon="-4.847562201534009"><ele>1512.0</ele><time>2026-04-27T10:26:02Z</time></trkpt><trkpt lat="32.7022200665004" lon="-4.847754413963724"><ele>1514.5</ele><time>2026-04-27T10:26:03Z</time></trkpt><trkpt lat="32.70240652045249" lon="-4.8479478774542"><ele>1517.0</ele><time>2026-04-27T10:26:04Z</time></trkpt><trkpt lat="32.702602191212684" lon="-4.848151367438222"><ele>1517.0</ele><time>2026-04-27T10:26:05Z</time></trkpt><trkpt lat="32.70280495264502" lon="-4.848361375104518"><ele>1517.0</ele><time>2026-04-27T10:26:06Z</time></trkpt><trkpt lat="32.70301590335417" lon="-4.848580311056073"><ele>1517.0</ele><time>2026-04-27T10:26:07Z</time></trkpt><trkpt lat="32.70323304078464" lon="-4.848805678031665"><ele>1517.0</ele><time>2026-04-27T10:26:08Z</time></trkpt><trkpt lat="32.70345297900104" lon="-4.849034179620699"><ele>1517.5</ele><time>2026-04-27T10:26:09Z</time></trkpt><trkpt lat="32.703667780605606" lon="-4.849256408852396"><ele>1518.0</ele><time>2026-04-27T10:26:10Z</time></trkpt><trkpt lat="32.70387324590221" lon="-4.849470111879856"><ele>1518.0</ele><time>2026-04-27T10:26:11Z</time></trkpt><trkpt lat="32.704066876830666" lon="-4.8496749732284465"><ele>1518.0</ele><time>2026-04-27T10:26:12Z</time></trkpt><trkpt lat="32.704244123274435" lon="-4.849879940646324"><ele>1519.0</ele><time>2026-04-27T10:26:13Z</time></trkpt><trkpt lat="32.70442046265707" lon="-4.850083858659396"><ele>1520.0</ele><time>2026-04-27T10:26:14Z</time></trkpt><trkpt lat="32.70459535268625" lon="-4.850292860885624"><ele>1522.0</ele><time>2026-04-27T10:26:15Z</time></trkpt><trkpt lat="32.704680671054945" lon="-4.850608428072388"><ele>1524.0</ele><time>2026-04-27T10:26:16Z</time></trkpt><trkpt lat="32.70480364149241" lon="-4.850866460386627"><ele>1525.5</ele><time>2026-04-27T10:26:17Z</time></trkpt><trkpt lat="32.70490436452458" lon="-4.851134502937498"><ele>1527.0</ele><time>2026-04-27T10:26:18Z</time></trkpt><trkpt lat="32.70499211944344" lon="-4.851416552394755"><ele>1527.0</ele><time>2026-04-27T10:26:19Z</time></trkpt><trkpt lat="32.705066529494225" lon="-4.851705917822299"><ele>1527.0</ele><time>2026-04-27T10:26:20Z</time></trkpt><trkpt lat="32.7051359991719" lon="-4.851996889096207"><ele>1527.5</ele><time>2026-04-27T10:26:21Z</time></trkpt><trkpt lat="32.70520646460451" lon="-4.852293804976856"><ele>1528.0</ele><time>2026-04-27T10:26:22Z</time></trkpt><trkpt lat="32.705276314889495" lon="-4.852592702003371"><ele>1527.5</ele><time>2026-04-27T10:26:23Z</time></trkpt><trkpt lat="32.705346308534715" lon="-4.852894183994309"><ele>1527.0</ele><time>2026-04-27T10:26:24Z</time></trkpt><trkpt lat="32.70541638940577" lon="-4.853191123793212"><ele>1527.0</ele><time>2026-04-27T10:26:25Z</time></trkpt><trkpt lat="32.70548527291348" lon="-4.853481698913654"><ele>1527.0</ele><time>2026-04-27T10:26:26Z</time></trkpt><trkpt lat="32.705552178241234" lon="-4.853771094594479"><ele>1527.0</ele><time>2026-04-27T10:26:27Z</time></trkpt><trkpt lat="32.70561975258249" lon="-4.854061387693414"><ele>1527.0</ele><time>2026-04-27T10:26:28Z</time></trkpt><trkpt lat="32.70568883881072" lon="-4.854353960367452"><ele>1527.5</ele><time>2026-04-27T10:26:29Z</time></trkpt><trkpt lat="32.7057564069615" lon="-4.854644320342838"><ele>1528.0</ele><time>2026-04-27T10:26:30Z</time></trkpt><trkpt lat="32.70582394164305" lon="-4.854942237578875"><ele>1527.0</ele><time>2026-04-27T10:26:31Z</time></trkpt><trkpt lat="32.70589266655804" lon="-4.855249861011062"><ele>1526.0</ele><time>2026-04-27T10:26:32Z</time></trkpt><trkpt lat="32.705963466529354" lon="-4.855567634536234"><ele>1526.0</ele><time>2026-04-27T10:26:33Z</time></trkpt><trkpt lat="32.70603124287695" lon="-4.85589592105681"><ele>1526.0</ele><time>2026-04-27T10:26:34Z</time></trkpt><trkpt lat="32.70610409123555" lon="-4.856244761375845"><ele>1527.0</ele><time>2026-04-27T10:26:35Z</time></trkpt><trkpt lat="32.706187220135966" lon="-4.856592972455147"><ele>1528.0</ele><time>2026-04-27T10:26:36Z</time></trkpt><trkpt lat="32.706275881075214" lon="-4.856930486630997"><ele>1528.5</ele><time>2026-04-27T10:26:37Z</time></trkpt><trkpt lat="32.706359864999634" lon="-4.85726289912792"><ele>1529.0</ele><time>2026-04-27T10:26:38Z</time></trkpt><trkpt lat="32.706436770199986" lon="-4.857588245910474"><ele>1528.5</ele><time>2026-04-27T10:26:39Z</time></trkpt><trkpt lat="32.70651296318883" lon="-4.857910510660113"><ele>1528.0</ele><time>2026-04-27T10:26:40Z</time></trkpt><trkpt lat="32.70658884005355" lon="-4.858231104208631"><ele>1528.0</ele><time>2026-04-27T10:26:41Z</time></trkpt><trkpt lat="32.70666568728676" lon="-4.858557810616124"><ele>1528.0</ele><time>2026-04-27T10:26:42Z</time></trkpt><trkpt lat="32.706742821868055" lon="-4.858886248673325"><ele>1528.0</ele><time>2026-04-27T10:26:43Z</time></trkpt><trkpt lat="32.70682063733767" lon="-4.859219157471298"><ele>1528.0</ele><time>2026-04-27T10:26:44Z</time></trkpt><trkpt lat="32.70689865989679" lon="-4.859554690951745"><ele>1527.0</ele><time>2026-04-27T10:26:45Z</time></trkpt><trkpt lat="32.706976455858765" lon="-4.859890848744914"><ele>1526.0</ele><time>2026-04-27T10:26:46Z</time></trkpt><trkpt lat="32.70705636108727" lon="-4.860230019345303"><ele>1526.0</ele><time>2026-04-27T10:26:47Z</time></trkpt><trkpt lat="32.707136165144206" lon="-4.860571207375528"><ele>1526.0</ele><time>2026-04-27T10:26:48Z</time></trkpt><trkpt lat="32.70721432156459" lon="-4.860914674905606"><ele>1527.0</ele><time>2026-04-27T10:26:49Z</time></trkpt><trkpt lat="32.707292189935195" lon="-4.86125987717714"><ele>1528.0</ele><time>2026-04-27T10:26:50Z</time></trkpt><trkpt lat="32.70737227998148" lon="-4.861605494018397"><ele>1529.0</ele><time>2026-04-27T10:26:51Z</time></trkpt><trkpt lat="32.70745397624255" lon="-4.86195358511585"><ele>1530.0</ele><time>2026-04-27T10:26:52Z</time></trkpt><trkpt lat="32.70753447359105" lon="-4.862297750752376"><ele>1531.5</ele><time>2026-04-27T10:26:53Z</time></trkpt><trkpt lat="32.70761150226792" lon="-4.862633687284208"><ele>1533.0</ele><time>2026-04-27T10:26:54Z</time></trkpt><trkpt lat="32.707686095615436" lon="-4.8629606868104"><ele>1534.0</ele><time>2026-04-27T10:26:55Z</time></trkpt><trkpt lat="32.707755063657714" lon="-4.863263812279189"><ele>1535.0</ele><time>2026-04-27T10:26:56Z</time></trkpt><trkpt lat="32.707818906263725" lon="-4.863537566815021"><ele>1535.3333333333335</ele><time>2026-04-27T10:26:57Z</time></trkpt><trkpt lat="32.70787636134702" lon="-4.863785290017007"><ele>1535.6666666666667</ele><time>2026-04-27T10:26:58Z</time></trkpt><trkpt lat="32.7079244475571" lon="-4.86399100962018"><ele>1536.0</ele><time>2026-04-27T10:26:59Z</time></trkpt><trkpt lat="32.70796810065497" lon="-4.864177305170665"><ele>1535.75</ele><time>2026-04-27T10:27:00Z</time></trkpt><trkpt lat="32.708006248583274" lon="-4.8643373462313395"><ele>1535.5</ele><time>2026-04-27T10:27:01Z</time></trkpt><trkpt lat="32.7080394246865" lon="-4.86447981751597"><ele>1535.25</ele><time>2026-04-27T10:27:02Z</time></trkpt><trkpt lat="32.70806899365662" lon="-4.864612122775334"><ele>1535.0</ele><time>2026-04-27T10:27:03Z</time></trkpt><trkpt lat="32.70809791684025" lon="-4.8647491814025745"><ele>1535.0</ele><time>2026-04-27T10:27:04Z</time></trkpt><trkpt lat="32.708131798940336" lon="-4.8648980111036995"><ele>1535.0</ele><time>2026-04-27T10:27:05Z</time></trkpt><trkpt lat="32.708168725457426" lon="-4.8650542338378004"><ele>1535.0</ele><time>2026-04-27T10:27:06Z</time></trkpt><trkpt lat="32.70820504108828" lon="-4.865211831772825"><ele>1535.0</ele><time>2026-04-27T10:27:07Z</time></trkpt><trkpt lat="32.70824163269308" lon="-4.865372027638476"><ele>1535.25</ele><time>2026-04-27T10:27:08Z</time></trkpt><trkpt lat="32.70827944760181" lon="-4.8655329779275975"><ele>1535.5</ele><time>2026-04-27T10:27:09Z</time></trkpt><trkpt lat="32.70831680496925" lon="-4.865693815112069"><ele>1535.75</ele><time>2026-04-27T10:27:10Z</time></trkpt><trkpt lat="32.708353767770156" lon="-4.865853960335184"><ele>1536.0</ele><time>2026-04-27T10:27:11Z</time></trkpt><trkpt lat="32.70839076491313" lon="-4.866012849219244"><ele>1536.5</ele><time>2026-04-27T10:27:12Z</time></trkpt><trkpt lat="32.70842741257236" lon="-4.866168661265122"><ele>1537.0</ele><time>2026-04-27T10:27:13Z</time></trkpt><trkpt lat="32.70846034187485" lon="-4.86632033821966"><ele>1537.5</ele><time>2026-04-27T10:27:14Z</time></trkpt><trkpt lat="32.70849269184632" lon="-4.866467708749696"><ele>1538.0</ele><time>2026-04-27T10:27:15Z</time></trkpt><trkpt lat="32.708525465895" lon="-4.866611069192097"><ele>1538.0</ele><time>2026-04-27T10:27:16Z</time></trkpt><trkpt lat="32.708557920916526" lon="-4.8667525775623925"><ele>1538.0</ele><time>2026-04-27T10:27:17Z</time></trkpt><trkpt lat="32.70859013261211" lon="-4.866892269004687"><ele>1538.0</ele><time>2026-04-27T10:27:18Z</time></trkpt><trkpt lat="32.70862230010851" lon="-4.867024874204157"><ele>1538.0</ele><time>2026-04-27T10:27:19Z</time></trkpt><trkpt lat="32.708655268752345" lon="-4.867149414277495"><ele>1538.0</ele><time>2026-04-27T10:27:20Z</time></trkpt><trkpt lat="32.70869419317017" lon="-4.8672752788906966"><ele>1538.0</ele><time>2026-04-27T10:27:21Z</time></trkpt><trkpt lat="32.70873590548117" lon="-4.867405026187426"><ele>1538.0</ele><time>2026-04-27T10:27:22Z</time></trkpt><trkpt lat="32.70877487998348" lon="-4.867537006495451"><ele>1538.0</ele><time>2026-04-27T10:27:23Z</time></trkpt><trkpt lat="32.70881211075818" lon="-4.867670178418016"><ele>1538.0</ele><time>2026-04-27T10:27:24Z</time></trkpt><trkpt lat="32.70884722297182" lon="-4.8678019490004845"><ele>1538.0</ele><time>2026-04-27T10:27:25Z</time></trkpt><trkpt lat="32.70888342716782" lon="-4.867932077990699"><ele>1538.0</ele><time>2026-04-27T10:27:26Z</time></trkpt><trkpt lat="32.70891962387158" lon="-4.8680689192584135"><ele>1538.0</ele><time>2026-04-27T10:27:27Z</time></trkpt><trkpt lat="32.70895348514628" lon="-4.868216502349628"><ele>1538.0</ele><time>2026-04-27T10:27:28Z</time></trkpt><trkpt lat="32.70898899973014" lon="-4.868375342556384"><ele>1538.0</ele><time>2026-04-27T10:27:29Z</time></trkpt><trkpt lat="32.70902360541352" lon="-4.868537476786746"><ele>1538.0</ele><time>2026-04-27T10:27:30Z</time></trkpt><trkpt lat="32.70905733063407" lon="-4.868701849970117"><ele>1538.0</ele><time>2026-04-27T10:27:30.999Z</time></trkpt><trkpt lat="32.7090912737871" lon="-4.868872069095008"><ele>1537.6666666666665</ele><time>2026-04-27T10:27:31.999Z</time></trkpt><trkpt lat="32.709125305277304" lon="-4.869049515906662"><ele>1537.3333333333335</ele><time>2026-04-27T10:27:32.999Z</time></trkpt><trkpt lat="32.70915662939485" lon="-4.869229047177087"><ele>1537.0</ele><time>2026-04-27T10:27:33.999Z</time></trkpt><trkpt lat="32.70919200548791" lon="-4.8694127021883835"><ele>1537.0</ele><time>2026-04-27T10:27:34.999Z</time></trkpt><trkpt lat="32.70922832904872" lon="-4.869592398817908"><ele>1537.0</ele><time>2026-04-27T10:27:35.999Z</time></trkpt><trkpt lat="32.70926166167301" lon="-4.869772422733198"><ele>1537.0</ele><time>2026-04-27T10:27:36.999Z</time></trkpt><trkpt lat="32.70929982237453" lon="-4.869947854124576"><ele>1538.0</ele><time>2026-04-27T10:27:37.999Z</time></trkpt><trkpt lat="32.70933844416532" lon="-4.870119510774834"><ele>1539.0</ele><time>2026-04-27T10:27:38.999Z</time></trkpt><trkpt lat="32.70937635737994" lon="-4.870288492846752"><ele>1540.0</ele><time>2026-04-27T10:27:39.999Z</time></trkpt><trkpt lat="32.709413110469406" lon="-4.870456828629791"><ele>1541.0</ele><time>2026-04-27T10:27:40.999Z</time></trkpt><trkpt lat="32.70945043865457" lon="-4.870626438354663"><ele>1541.3333333333333</ele><time>2026-04-27T10:27:41.999Z</time></trkpt><trkpt lat="32.709488138280356" lon="-4.870798375587046"><ele>1541.6666666666665</ele><time>2026-04-27T10:27:42.999Z</time></trkpt><trkpt lat="32.70952566477559" lon="-4.870973352215213"><ele>1542.0</ele><time>2026-04-27T10:27:43.999Z</time></trkpt><trkpt lat="32.70956457412118" lon="-4.871148439985922"><ele>1542.6666666666665</ele><time>2026-04-27T10:27:44.999Z</time></trkpt><trkpt lat="32.70960523711943" lon="-4.871322720042005"><ele>1543.3333333333333</ele><time>2026-04-27T10:27:45.999Z</time></trkpt><trkpt lat="32.70965173736669" lon="-4.871494946908454"><ele>1544.0</ele><time>2026-04-27T10:27:46.999Z</time></trkpt><trkpt lat="32.7097022462555" lon="-4.871666075005752"><ele>1543.6666666666665</ele><time>2026-04-27T10:27:47.999Z</time></trkpt><trkpt lat="32.70976160614851" lon="-4.871838260973676"><ele>1543.3333333333335</ele><time>2026-04-27T10:27:48.999Z</time></trkpt><trkpt lat="32.709830642569095" lon="-4.872007340739362"><ele>1543.0</ele><time>2026-04-27T10:27:49.999Z</time></trkpt><trkpt lat="32.70992489003825" lon="-4.8721633268795355"><ele>1543.0</ele><time>2026-04-27T10:27:50.999Z</time></trkpt><trkpt lat="32.7100176123606" lon="-4.872327873832546"><ele>1543.0</ele><time>2026-04-27T10:27:51.999Z</time></trkpt><trkpt lat="32.71009785816693" lon="-4.872503150696918"><ele>1543.0</ele><time>2026-04-27T10:27:52.999Z</time></trkpt><trkpt lat="32.71020191387383" lon="-4.872663242574843"><ele>1542.3333333333335</ele><time>2026-04-27T10:27:53.999Z</time></trkpt><trkpt lat="32.71030822060696" lon="-4.872825971417418"><ele>1541.6666666666665</ele><time>2026-04-27T10:27:54.999Z</time></trkpt><trkpt lat="32.71041843673228" lon="-4.872990626023335"><ele>1541.0</ele><time>2026-04-27T10:27:55.999Z</time></trkpt><trkpt lat="32.71053163412785" lon="-4.873163920789765"><ele>1541.0</ele><time>2026-04-27T10:27:56.999Z</time></trkpt><trkpt lat="32.71064771736743" lon="-4.873347457369967"><ele>1541.0</ele><time>2026-04-27T10:27:57.999Z</time></trkpt><trkpt lat="32.71077421558293" lon="-4.873545601971898"><ele>1541.0</ele><time>2026-04-27T10:27:58.999Z</time></trkpt><trkpt lat="32.710913009178974" lon="-4.873757254212212"><ele>1540.5</ele><time>2026-04-27T10:28:00.001Z</time></trkpt><trkpt lat="32.71106401063369" lon="-4.873983863288069"><ele>1540.0</ele><time>2026-04-27T10:28:01.001Z</time></trkpt><trkpt lat="32.71122201363271" lon="-4.874221895727901"><ele>1539.0</ele><time>2026-04-27T10:28:02.001Z</time></trkpt><trkpt lat="32.71138402931004" lon="-4.874466399423812"><ele>1538.0</ele><time>2026-04-27T10:28:03.001Z</time></trkpt><trkpt lat="32.7115461463975" lon="-4.874713890370194"><ele>1538.0</ele><time>2026-04-27T10:28:04.001Z</time></trkpt><trkpt lat="32.71170832319657" lon="-4.874968519764403"><ele>1538.0</ele><time>2026-04-27T10:28:05.001Z</time></trkpt><trkpt lat="32.71186671738429" lon="-4.875215591419948"><ele>1539.0</ele><time>2026-04-27T10:28:06.001Z</time></trkpt><trkpt lat="32.71202106792557" lon="-4.875450046907131"><ele>1540.0</ele><time>2026-04-27T10:28:07.001Z</time></trkpt><trkpt lat="32.71216506851823" lon="-4.875670645952343"><ele>1540.0</ele><time>2026-04-27T10:28:08.001Z</time></trkpt><trkpt lat="32.712312693959255" lon="-4.875864271118846"><ele>1540.0</ele><time>2026-04-27T10:28:09Z</time></trkpt><trkpt lat="32.71242604248356" lon="-4.8760655510067705"><ele>1540.0</ele><time>2026-04-27T10:28:10Z</time></trkpt><trkpt lat="32.71253977900446" lon="-4.876235726038967"><ele>1539.75</ele><time>2026-04-27T10:28:11Z</time></trkpt><trkpt lat="32.712655137563345" lon="-4.876378465429722"><ele>1539.5</ele><time>2026-04-27T10:28:12Z</time></trkpt><trkpt lat="32.712730973730935" lon="-4.876523969138729"><ele>1539.25</ele><time>2026-04-27T10:28:13Z</time></trkpt><trkpt lat="32.71280573371982" lon="-4.876633256953318"><ele>1539.0</ele><time>2026-04-27T10:28:14Z</time></trkpt><trkpt lat="32.71286706871518" lon="-4.876721494382325"><ele>1538.8000000000002</ele><time>2026-04-27T10:28:15Z</time></trkpt><trkpt lat="32.712916277923696" lon="-4.876787191866744"><ele>1538.6000000000001</ele><time>2026-04-27T10:28:16Z</time></trkpt><trkpt lat="32.71299673351061" lon="-4.876871486161255"><ele>1538.4</ele><time>2026-04-27T10:28:18Z</time></trkpt><trkpt lat="32.71307709659661" lon="-4.876928325545972"><ele>1538.2</ele><time>2026-04-27T10:28:20Z</time></trkpt><trkpt lat="32.71315569697406" lon="-4.87699336440246"><ele>1538.0</ele><time>2026-04-27T10:28:22Z</time></trkpt><trkpt lat="32.71321314127428" lon="-4.87708066899616"><ele>1537.9999999999998</ele><time>2026-04-27T10:28:24Z</time></trkpt><trkpt lat="32.71324199351651" lon="-4.877175365645842"><ele>1538.0</ele><time>2026-04-27T10:28:27Z</time></trkpt><trkpt lat="32.71325254701061" lon="-4.877252842825481"><ele>1538.0</ele><time>2026-04-27T10:28:31Z</time></trkpt><trkpt lat="32.71329683437064" lon="-4.877342971987549"><ele>1538.0</ele><time>2026-04-27T10:29:20Z</time></trkpt><trkpt lat="32.713336975461715" lon="-4.877403307036052"><ele>1537.9999999999998</ele><time>2026-04-27T10:29:21Z</time></trkpt><trkpt lat="32.713384851008634" lon="-4.877475225030012"><ele>1538.0</ele><time>2026-04-27T10:29:22Z</time></trkpt><trkpt lat="32.71343980549286" lon="-4.877557682808433"><ele>1537.8000000000002</ele><time>2026-04-27T10:29:23Z</time></trkpt><trkpt lat="32.71349918622077" lon="-4.877646782033036"><ele>1537.6</ele><time>2026-04-27T10:29:24Z</time></trkpt><trkpt lat="32.713563669605364" lon="-4.877743537675228"><ele>1537.4</ele><time>2026-04-27T10:29:25Z</time></trkpt><trkpt lat="32.7136345249123" lon="-4.877849608868416"><ele>1537.1999999999998</ele><time>2026-04-27T10:29:26Z</time></trkpt><trkpt lat="32.713711980149995" lon="-4.877965882770321"><ele>1537.0</ele><time>2026-04-27T10:29:27Z</time></trkpt><trkpt lat="32.713796134700296" lon="-4.878092827765604"><ele>1537.3333333333335</ele><time>2026-04-27T10:29:28Z</time></trkpt><trkpt lat="32.713884518010794" lon="-4.878226369961891"><ele>1537.6666666666665</ele><time>2026-04-27T10:29:29Z</time></trkpt><trkpt lat="32.71397742438367" lon="-4.878370261523526"><ele>1538.0</ele><time>2026-04-27T10:29:30Z</time></trkpt><trkpt lat="32.71407571937185" lon="-4.878521961731936"><ele>1538.0</ele><time>2026-04-27T10:29:31Z</time></trkpt><trkpt lat="32.714179238522156" lon="-4.878679872286445"><ele>1538.0</ele><time>2026-04-27T10:29:32Z</time></trkpt><trkpt lat="32.71428777646871" lon="-4.878845687697618"><ele>1538.0</ele><time>2026-04-27T10:29:33Z</time></trkpt><trkpt lat="32.71440112193838" lon="-4.879019568305403"><ele>1538.0</ele><time>2026-04-27T10:29:34Z</time></trkpt><trkpt lat="32.71451897673281" lon="-4.879200366556187"><ele>1538.0</ele><time>2026-04-27T10:29:34.999Z</time></trkpt><trkpt lat="32.71464573427648" lon="-4.8793948223081705"><ele>1538.0</ele><time>2026-04-27T10:29:35.999Z</time></trkpt><trkpt lat="32.714777450803965" lon="-4.879596885519334"><ele>1537.5</ele><time>2026-04-27T10:29:36.999Z</time></trkpt><trkpt lat="32.71491463045282" lon="-4.8798073426164725"><ele>1537.0</ele><time>2026-04-27T10:29:37.999Z</time></trkpt><trkpt lat="32.7150552851324" lon="-4.880023134570613"><ele>1536.5</ele><time>2026-04-27T10:29:38.999Z</time></trkpt><trkpt lat="32.71520002893785" lon="-4.880245200042944"><ele>1536.0</ele><time>2026-04-27T10:29:39.999Z</time></trkpt><trkpt lat="32.715336088830036" lon="-4.880479569492283"><ele>1537.0</ele><time>2026-04-27T10:29:40.999Z</time></trkpt><trkpt lat="32.715485975653515" lon="-4.880704842452813"><ele>1538.0</ele><time>2026-04-27T10:29:41.999Z</time></trkpt><trkpt lat="32.71563526383295" lon="-4.880930662959553"><ele>1538.0</ele><time>2026-04-27T10:29:42.999Z</time></trkpt><trkpt lat="32.71578275792059" lon="-4.88115519033176"><ele>1538.0</ele><time>2026-04-27T10:29:43.999Z</time></trkpt><trkpt lat="32.71593021177288" lon="-4.881381754125473"><ele>1535.5</ele><time>2026-04-27T10:29:44.999Z</time></trkpt><trkpt lat="32.716079198487" lon="-4.881609762842518"><ele>1533.0</ele><time>2026-04-27T10:29:45.999Z</time></trkpt><trkpt lat="32.71622880334574" lon="-4.881836776127125"><ele>1532.0</ele><time>2026-04-27T10:29:46.999Z</time></trkpt><trkpt lat="32.716377892277215" lon="-4.882063155473398"><ele>1531.0</ele><time>2026-04-27T10:29:47.999Z</time></trkpt><trkpt lat="32.71652682470775" lon="-4.882288905597018"><ele>1531.0</ele><time>2026-04-27T10:29:48.999Z</time></trkpt><trkpt lat="32.71667407931374" lon="-4.882514534932205"><ele>1531.0</ele><time>2026-04-27T10:29:49.999Z</time></trkpt><trkpt lat="32.716824206832634" lon="-4.882745646507979"><ele>1530.0</ele><time>2026-04-27T10:29:50.999Z</time></trkpt><trkpt lat="32.716977875867" lon="-4.882980559309542"><ele>1529.0</ele><time>2026-04-27T10:29:51.999Z</time></trkpt><trkpt lat="32.71713204168451" lon="-4.883215535160162"><ele>1529.5</ele><time>2026-04-27T10:29:52.999Z</time></trkpt><trkpt lat="32.71728639505687" lon="-4.88345042835425"><ele>1530.0</ele><time>2026-04-27T10:29:53.999Z</time></trkpt><trkpt lat="32.7174410835661" lon="-4.883686616174986"><ele>1530.0</ele><time>2026-04-27T10:29:54.999Z</time></trkpt><trkpt lat="32.7175944390948" lon="-4.883923596448026"><ele>1530.0</ele><time>2026-04-27T10:29:55.999Z</time></trkpt><trkpt lat="32.71774567460221" lon="-4.884161052739428"><ele>1528.0</ele><time>2026-04-27T10:29:56.999Z</time></trkpt><trkpt lat="32.7178960010947" lon="-4.884394824010329"><ele>1526.0</ele><time>2026-04-27T10:29:57.999Z</time></trkpt><trkpt lat="32.7180460446575" lon="-4.884621731541394"><ele>1526.0</ele><time>2026-04-27T10:29:58.999Z</time></trkpt><trkpt lat="32.71819966538986" lon="-4.884843224318301"><ele>1526.0</ele><time>2026-04-27T10:29:59.999Z</time></trkpt><trkpt lat="32.7183621810544" lon="-4.885050816549569"><ele>1525.5</ele><time>2026-04-27T10:30:00.999Z</time></trkpt><trkpt lat="32.71855177734426" lon="-4.885215253532374"><ele>1525.0</ele><time>2026-04-27T10:30:01.999Z</time></trkpt><trkpt lat="32.71873824816662" lon="-4.885388570244861"><ele>1525.0</ele><time>2026-04-27T10:30:02.999Z</time></trkpt><trkpt lat="32.718938448051" lon="-4.885545907846024"><ele>1525.0</ele><time>2026-04-27T10:30:03.999Z</time></trkpt><trkpt lat="32.71913683195291" lon="-4.8857168214992"><ele>1525.0</ele><time>2026-04-27T10:30:04.999Z</time></trkpt><trkpt lat="32.71936524959604" lon="-4.885851818892978"><ele>1525.0</ele><time>2026-04-27T10:30:06Z</time></trkpt><trkpt lat="32.71959403302005" lon="-4.885990569088061"><ele>1524.5</ele><time>2026-04-27T10:30:07Z</time></trkpt><trkpt lat="32.71981406967039" lon="-4.886133272943968"><ele>1524.0</ele><time>2026-04-27T10:30:08Z</time></trkpt><trkpt lat="32.72002121226318" lon="-4.88627412100191"><ele>1524.0</ele><time>2026-04-27T10:30:09Z</time></trkpt><trkpt lat="32.72021977484322" lon="-4.88642981889327"><ele>1524.0</ele><time>2026-04-27T10:30:10Z</time></trkpt><trkpt lat="32.720411853681966" lon="-4.886608485920412"><ele>1523.0</ele><time>2026-04-27T10:30:11Z</time></trkpt><trkpt lat="32.72059362035796" lon="-4.886804126627883"><ele>1522.0</ele><time>2026-04-27T10:30:12Z</time></trkpt><trkpt lat="32.72076007257359" lon="-4.887014506099681"><ele>1522.0</ele><time>2026-04-27T10:30:13Z</time></trkpt><trkpt lat="32.72091606015878" lon="-4.887237417752487"><ele>1522.0</ele><time>2026-04-27T10:30:14Z</time></trkpt><trkpt lat="32.721064421413004" lon="-4.887463031673983"><ele>1517.0</ele><time>2026-04-27T10:30:15Z</time></trkpt><trkpt lat="32.72121002586934" lon="-4.887688535249639"><ele>1512.0</ele><time>2026-04-27T10:30:16Z</time></trkpt><trkpt lat="32.721367940069165" lon="-4.887898268935009"><ele>1512.0</ele><time>2026-04-27T10:30:17Z</time></trkpt><trkpt lat="32.72150789777545" lon="-4.888109497681488"><ele>1512.0</ele><time>2026-04-27T10:30:18Z</time></trkpt><trkpt lat="32.72163954625372" lon="-4.888308601266179"><ele>1512.0</ele><time>2026-04-27T10:30:19Z</time></trkpt><trkpt lat="32.72176344396478" lon="-4.888496094728391"><ele>1511.3333333333333</ele><time>2026-04-27T10:30:20Z</time></trkpt><trkpt lat="32.72187809964308" lon="-4.888669602330165"><ele>1510.6666666666665</ele><time>2026-04-27T10:30:21Z</time></trkpt><trkpt lat="32.721984822490086" lon="-4.888832278752133"><ele>1510.0</ele><time>2026-04-27T10:30:22Z</time></trkpt><trkpt lat="32.72208524448836" lon="-4.888985469064815"><ele>1510.0</ele><time>2026-04-27T10:30:23Z</time></trkpt><trkpt lat="32.72218151925614" lon="-4.889132332480632"><ele>1510.0</ele><time>2026-04-27T10:30:24Z</time></trkpt><trkpt lat="32.722273207037766" lon="-4.889272198626889"><ele>1510.0</ele><time>2026-04-27T10:30:25Z</time></trkpt><trkpt lat="32.72234372664482" lon="-4.8894214560586"><ele>1509.75</ele><time>2026-04-27T10:30:26Z</time></trkpt><trkpt lat="32.72242597006527" lon="-4.889551374209511"><ele>1509.5</ele><time>2026-04-27T10:30:27Z</time></trkpt><trkpt lat="32.722503905754046" lon="-4.889675214569398"><ele>1509.25</ele><time>2026-04-27T10:30:28Z</time></trkpt><trkpt lat="32.7225800435341" lon="-4.889790152026679"><ele>1509.0</ele><time>2026-04-27T10:30:29Z</time></trkpt><trkpt lat="32.72265320105479" lon="-4.889898771821096"><ele>1509.0</ele><time>2026-04-27T10:30:30Z</time></trkpt><trkpt lat="32.72272262027704" lon="-4.890002517676451"><ele>1509.0</ele><time>2026-04-27T10:30:31Z</time></trkpt><trkpt lat="32.72278789596075" lon="-4.890100873017688"><ele>1509.0</ele><time>2026-04-27T10:30:32Z</time></trkpt><trkpt lat="32.722847527761544" lon="-4.890195988186555"><ele>1509.0</ele><time>2026-04-27T10:30:33Z</time></trkpt><trkpt lat="32.72290457658271" lon="-4.89028465186461"><ele>1509.0</ele><time>2026-04-27T10:30:34Z</time></trkpt><trkpt lat="32.72295895228765" lon="-4.890367983007391"><ele>1508.1666666666667</ele><time>2026-04-27T10:30:35Z</time></trkpt><trkpt lat="32.723011422835036" lon="-4.890449118014999"><ele>1507.3333333333333</ele><time>2026-04-27T10:30:36Z</time></trkpt><trkpt lat="32.723062202792875" lon="-4.890527804423027"><ele>1506.5</ele><time>2026-04-27T10:30:37Z</time></trkpt><trkpt lat="32.72311460907652" lon="-4.8906028003264765"><ele>1505.6666666666665</ele><time>2026-04-27T10:30:38Z</time></trkpt><trkpt lat="32.72316485339954" lon="-4.890678401675043"><ele>1504.8333333333333</ele><time>2026-04-27T10:30:39Z</time></trkpt><trkpt lat="32.723213084178646" lon="-4.890754835428643"><ele>1504.0</ele><time>2026-04-27T10:30:40Z</time></trkpt><trkpt lat="32.72326149797499" lon="-4.89082950076897"><ele>1504.0</ele><time>2026-04-27T10:30:41Z</time></trkpt><trkpt lat="32.723310120325074" lon="-4.890900761464633"><ele>1504.0</ele><time>2026-04-27T10:30:42Z</time></trkpt><trkpt lat="32.72335842248074" lon="-4.890970708866548"><ele>1504.0</ele><time>2026-04-27T10:30:43Z</time></trkpt><trkpt lat="32.72340702644324" lon="-4.891040130200051"><ele>1504.0</ele><time>2026-04-27T10:30:44Z</time></trkpt><trkpt lat="32.72345567825071" lon="-4.891111146517773"><ele>1504.0</ele><time>2026-04-27T10:30:45Z</time></trkpt><trkpt lat="32.72350259828572" lon="-4.891183216682815"><ele>1504.0</ele><time>2026-04-27T10:30:46Z</time></trkpt><trkpt lat="32.723548890298034" lon="-4.891257086439995"><ele>1503.3333333333333</ele><time>2026-04-27T10:30:47Z</time></trkpt><trkpt lat="32.723594600060096" lon="-4.89133299662514"><ele>1502.6666666666665</ele><time>2026-04-27T10:30:48Z</time></trkpt><trkpt lat="32.723641778137704" lon="-4.891407094102344"><ele>1502.0</ele><time>2026-04-27T10:30:49Z</time></trkpt><trkpt lat="32.723691399238305" lon="-4.891483322244238"><ele>1501.3333333333333</ele><time>2026-04-27T10:30:50Z</time></trkpt><trkpt lat="32.72374171635274" lon="-4.891559280617876"><ele>1500.6666666666667</ele><time>2026-04-27T10:30:51Z</time></trkpt><trkpt lat="32.72379292048935" lon="-4.891637194415463"><ele>1500.0</ele><time>2026-04-27T10:30:52Z</time></trkpt><trkpt lat="32.7238452090464" lon="-4.891717148636978"><ele>1500.2</ele><time>2026-04-27T10:30:53Z</time></trkpt><trkpt lat="32.72389894637808" lon="-4.891797540662053"><ele>1500.4</ele><time>2026-04-27T10:30:54Z</time></trkpt><trkpt lat="32.72395340614985" lon="-4.891879662708716"><ele>1500.6</ele><time>2026-04-27T10:30:55Z</time></trkpt><trkpt lat="32.72400890416958" lon="-4.891964430237021"><ele>1500.8</ele><time>2026-04-27T10:30:56Z</time></trkpt><trkpt lat="32.724066203898744" lon="-4.892052291453457"><ele>1501.0</ele><time>2026-04-27T10:30:57Z</time></trkpt><trkpt lat="32.724124475590685" lon="-4.892142337563441"><ele>1501.0</ele><time>2026-04-27T10:30:58Z</time></trkpt><trkpt lat="32.72418328797114" lon="-4.892231902384071"><ele>1501.0</ele><time>2026-04-27T10:30:59Z</time></trkpt><trkpt lat="32.72424397517533" lon="-4.892323223318152"><ele>1501.0</ele><time>2026-04-27T10:31:00Z</time></trkpt><trkpt lat="32.724305658780324" lon="-4.892415456470498"><ele>1501.0</ele><time>2026-04-27T10:31:01Z</time></trkpt><trkpt lat="32.724366743402086" lon="-4.892508202958404"><ele>1501.0</ele><time>2026-04-27T10:31:02Z</time></trkpt><trkpt lat="32.7244282575506" lon="-4.892601894966163"><ele>1500.1999999999998</ele><time>2026-04-27T10:31:03Z</time></trkpt><trkpt lat="32.72448805235516" lon="-4.8926958726320375"><ele>1499.3999999999999</ele><time>2026-04-27T10:31:04Z</time></trkpt><trkpt lat="32.72454840693544" lon="-4.892788745278747"><ele>1498.6</ele><time>2026-04-27T10:31:05Z</time></trkpt><trkpt lat="32.72461021448191" lon="-4.892885747314659"><ele>1497.8</ele><time>2026-04-27T10:31:06Z</time></trkpt><trkpt lat="32.724675069971106" lon="-4.892986365387935"><ele>1497.0</ele><time>2026-04-27T10:31:07Z</time></trkpt><trkpt lat="32.72474263790227" lon="-4.893091162128717"><ele>1497.0</ele><time>2026-04-27T10:31:08Z</time></trkpt><trkpt lat="32.72481174155761" lon="-4.893196245748534"><ele>1497.0</ele><time>2026-04-27T10:31:09Z</time></trkpt><trkpt lat="32.72488135152481" lon="-4.893302336064377"><ele>1497.0</ele><time>2026-04-27T10:31:10Z</time></trkpt><trkpt lat="32.72495112283116" lon="-4.893409018357176"><ele>1497.0</ele><time>2026-04-27T10:31:11Z</time></trkpt><trkpt lat="32.725022830266454" lon="-4.893516253281362"><ele>1497.0</ele><time>2026-04-27T10:31:12Z</time></trkpt><trkpt lat="32.72509445151811" lon="-4.893624174975706"><ele>1497.0</ele><time>2026-04-27T10:31:13Z</time></trkpt><trkpt lat="32.72516514237256" lon="-4.893733522851626"><ele>1497.0</ele><time>2026-04-27T10:31:14Z</time></trkpt><trkpt lat="32.725232553918964" lon="-4.893838506507719"><ele>1497.0</ele><time>2026-04-27T10:31:14.999Z</time></trkpt><trkpt lat="32.7252960593739" lon="-4.8939373540544775"><ele>1497.0</ele><time>2026-04-27T10:31:15.999Z</time></trkpt><trkpt lat="32.72536191127227" lon="-4.894032822464898"><ele>1496.3999999999999</ele><time>2026-04-27T10:31:16.999Z</time></trkpt><trkpt lat="32.72542592054462" lon="-4.894129827809551"><ele>1495.8</ele><time>2026-04-27T10:31:17.999Z</time></trkpt><trkpt lat="32.725489931560396" lon="-4.894228222387942"><ele>1495.2</ele><time>2026-04-27T10:31:18.999Z</time></trkpt><trkpt lat="32.72555419730996" lon="-4.894326162570318"><ele>1494.6</ele><time>2026-04-27T10:31:19.999Z</time></trkpt><trkpt lat="32.725617187608954" lon="-4.894426336268559"><ele>1494.0</ele><time>2026-04-27T10:31:20.999Z</time></trkpt><trkpt lat="32.72568044964776" lon="-4.894526491446673"><ele>1493.8000000000002</ele><time>2026-04-27T10:31:21.999Z</time></trkpt><trkpt lat="32.72574515877362" lon="-4.894626082789684"><ele>1493.6000000000001</ele><time>2026-04-27T10:31:22.999Z</time></trkpt><trkpt lat="32.72581038137313" lon="-4.894726547241841"><ele>1493.4</ele><time>2026-04-27T10:31:23.999Z</time></trkpt><trkpt lat="32.725875976917514" lon="-4.89482694468934"><ele>1493.2</ele><time>2026-04-27T10:31:24.999Z</time></trkpt><trkpt lat="32.72594153673653" lon="-4.894928049588172"><ele>1493.0</ele><time>2026-04-27T10:31:25.999Z</time></trkpt><trkpt lat="32.72600536250733" lon="-4.895028010725674"><ele>1491.75</ele><time>2026-04-27T10:31:26.999Z</time></trkpt><trkpt lat="32.72606968512678" lon="-4.895126133489389"><ele>1490.5</ele><time>2026-04-27T10:31:27.999Z</time></trkpt><trkpt lat="32.726134444481225" lon="-4.895224441909532"><ele>1489.25</ele><time>2026-04-27T10:31:28.999Z</time></trkpt><trkpt lat="32.7262065590684" lon="-4.8953378125515945"><ele>1488.0</ele><time>2026-04-27T10:31:29.999Z</time></trkpt><trkpt lat="32.72632521566682" lon="-4.895441050293865"><ele>1488.0</ele><time>2026-04-27T10:31:30.999Z</time></trkpt><trkpt lat="32.726425988068506" lon="-4.895594431213237"><ele>1488.0</ele><time>2026-04-27T10:31:31.999Z</time></trkpt><trkpt lat="32.72653884141363" lon="-4.895766525558553"><ele>1488.0</ele><time>2026-04-27T10:31:32.999Z</time></trkpt><trkpt lat="32.726666345321" lon="-4.895961062145677"><ele>1487.5</ele><time>2026-04-27T10:31:33.999Z</time></trkpt><trkpt lat="32.72681440976372" lon="-4.896186197229092"><ele>1487.0</ele><time>2026-04-27T10:31:34.999Z</time></trkpt><trkpt lat="32.726983444878925" lon="-4.896443323634443"><ele>1487.0</ele><time>2026-04-27T10:31:35.999Z</time></trkpt><trkpt lat="32.72717682831242" lon="-4.896738108159739"><ele>1487.0</ele><time>2026-04-27T10:31:36.999Z</time></trkpt><trkpt lat="32.727389123641814" lon="-4.897061721213167"><ele>1485.0</ele><time>2026-04-27T10:31:37.999Z</time></trkpt><trkpt lat="32.727616675188244" lon="-4.897408589939409"><ele>1483.0</ele><time>2026-04-27T10:31:38.999Z</time></trkpt><trkpt lat="32.72785829516775" lon="-4.89777604122683"><ele>1483.0</ele><time>2026-04-27T10:31:39.999Z</time></trkpt><trkpt lat="32.728104270989824" lon="-4.898150856118039"><ele>1483.0</ele><time>2026-04-27T10:31:40.999Z</time></trkpt><trkpt lat="32.728323105645096" lon="-4.898595954649969"><ele>1480.0</ele><time>2026-04-27T10:31:41.999Z</time></trkpt><trkpt lat="32.72857491711756" lon="-4.89898076733302"><ele>1477.0</ele><time>2026-04-27T10:31:42.999Z</time></trkpt><trkpt lat="32.72886253824824" lon="-4.899306362999107"><ele>1476.0</ele><time>2026-04-27T10:31:43.999Z</time></trkpt><trkpt lat="32.72910049459941" lon="-4.899668868312597"><ele>1475.0</ele><time>2026-04-27T10:31:44.999Z</time></trkpt><trkpt lat="32.72932954399054" lon="-4.900018816169075"><ele>1474.5</ele><time>2026-04-27T10:31:45.999Z</time></trkpt><trkpt lat="32.72954293288566" lon="-4.900351270748062"><ele>1474.0</ele><time>2026-04-27T10:31:46.999Z</time></trkpt><trkpt lat="32.72974716926516" lon="-4.900670926515126"><ele>1474.0</ele><time>2026-04-27T10:31:47.999Z</time></trkpt><trkpt lat="32.72994189232149" lon="-4.900974784720705"><ele>1474.0</ele><time>2026-04-27T10:31:48.999Z</time></trkpt><trkpt lat="32.730127997645724" lon="-4.9012644735412785"><ele>1473.5</ele><time>2026-04-27T10:31:49.999Z</time></trkpt><trkpt lat="32.73031025225072" lon="-4.901548867651059"><ele>1473.0</ele><time>2026-04-27T10:31:50.999Z</time></trkpt><trkpt lat="32.730496237379114" lon="-4.901839922054617"><ele>1474.5</ele><time>2026-04-27T10:31:51.999Z</time></trkpt><trkpt lat="32.73068785341372" lon="-4.902139890528445"><ele>1476.0</ele><time>2026-04-27T10:31:52.999Z</time></trkpt><trkpt lat="32.73088145717627" lon="-4.902443108372847"><ele>1475.0</ele><time>2026-04-27T10:31:53.999Z</time></trkpt><trkpt lat="32.73107061011592" lon="-4.9027380350644165"><ele>1474.0</ele><time>2026-04-27T10:31:54.999Z</time></trkpt><trkpt lat="32.731244941564334" lon="-4.9030386616792985"><ele>1474.0</ele><time>2026-04-27T10:31:55.999Z</time></trkpt><trkpt lat="32.731427094165994" lon="-4.90331773493962"><ele>1474.0</ele><time>2026-04-27T10:31:56.999Z</time></trkpt><trkpt lat="32.731604478165885" lon="-4.9035890515640155"><ele>1473.5</ele><time>2026-04-27T10:31:57.999Z</time></trkpt><trkpt lat="32.73178385035063" lon="-4.903863800528314"><ele>1473.0</ele><time>2026-04-27T10:31:58.999Z</time></trkpt><trkpt lat="32.73196916035278" lon="-4.90414794149083"><ele>1471.5</ele><time>2026-04-27T10:31:59.999Z</time></trkpt><trkpt lat="32.73216039820818" lon="-4.904441553115282"><ele>1470.0</ele><time>2026-04-27T10:32:00.999Z</time></trkpt><trkpt lat="32.7323551167136" lon="-4.904737512022295"><ele>1470.0</ele><time>2026-04-27T10:32:01.999Z</time></trkpt><trkpt lat="32.73255023545619" lon="-4.905034184613973"><ele>1470.0</ele><time>2026-04-27T10:32:02.999Z</time></trkpt><trkpt lat="32.73274355765225" lon="-4.905328012918759"><ele>1468.0</ele><time>2026-04-27T10:32:03.999Z</time></trkpt><trkpt lat="32.73293352167933" lon="-4.905616781684266"><ele>1466.0</ele><time>2026-04-27T10:32:04.999Z</time></trkpt><trkpt lat="32.73311887527014" lon="-4.905898558958777"><ele>1467.0</ele><time>2026-04-27T10:32:05.999Z</time></trkpt><trkpt lat="32.73330285815396" lon="-4.906179529858103"><ele>1468.0</ele><time>2026-04-27T10:32:06.999Z</time></trkpt><trkpt lat="32.733485545803845" lon="-4.906458041687073"><ele>1468.0</ele><time>2026-04-27T10:32:07.999Z</time></trkpt><trkpt lat="32.733667896829154" lon="-4.906735143117157"><ele>1468.0</ele><time>2026-04-27T10:32:08.999Z</time></trkpt><trkpt lat="32.733848236873115" lon="-4.907012147803212"><ele>1469.0</ele><time>2026-04-27T10:32:09.999Z</time></trkpt><trkpt lat="32.73402732703698" lon="-4.907287924025026"><ele>1470.0</ele><time>2026-04-27T10:32:10.999Z</time></trkpt><trkpt lat="32.73419946620364" lon="-4.907550459752492"><ele>1469.5</ele><time>2026-04-27T10:32:12Z</time></trkpt><trkpt lat="32.73436461803704" lon="-4.9078065715978205"><ele>1469.0</ele><time>2026-04-27T10:32:13Z</time></trkpt><trkpt lat="32.73452859939333" lon="-4.908058176183333"><ele>1468.5</ele><time>2026-04-27T10:32:14Z</time></trkpt><trkpt lat="32.73468913139017" lon="-4.9083029800761855"><ele>1468.0</ele><time>2026-04-27T10:32:15Z</time></trkpt><trkpt lat="32.73484428632372" lon="-4.908536028945457"><ele>1468.0</ele><time>2026-04-27T10:32:16Z</time></trkpt><trkpt lat="32.73500138505116" lon="-4.908757251899679"><ele>1468.0</ele><time>2026-04-27T10:32:17Z</time></trkpt><trkpt lat="32.73516914985298" lon="-4.908950285718433"><ele>1467.0</ele><time>2026-04-27T10:32:18Z</time></trkpt><trkpt lat="32.7353502695217" lon="-4.909132653458579"><ele>1466.0</ele><time>2026-04-27T10:32:19Z</time></trkpt><trkpt lat="32.735540729580556" lon="-4.9092967147315"><ele>1466.0</ele><time>2026-04-27T10:32:20Z</time></trkpt><trkpt lat="32.735750260098484" lon="-4.9094462786080015"><ele>1466.0</ele><time>2026-04-27T10:32:21Z</time></trkpt><trkpt lat="32.735975571182365" lon="-4.909585801903404"><ele>1465.5</ele><time>2026-04-27T10:32:22Z</time></trkpt><trkpt lat="32.73621717580551" lon="-4.909713306335586"><ele>1465.0</ele><time>2026-04-27T10:32:23Z</time></trkpt><trkpt lat="32.73647187271072" lon="-4.909828421340403"><ele>1465.0</ele><time>2026-04-27T10:32:24Z</time></trkpt><trkpt lat="32.73673633092144" lon="-4.909935720598684"><ele>1465.0</ele><time>2026-04-27T10:32:25Z</time></trkpt><trkpt lat="32.737005518968395" lon="-4.910042818132982"><ele>1466.0</ele><time>2026-04-27T10:32:26Z</time></trkpt><trkpt lat="32.737274717302405" lon="-4.910157534450278"><ele>1467.0</ele><time>2026-04-27T10:32:27Z</time></trkpt><trkpt lat="32.737544685225686" lon="-4.910272019313809"><ele>1467.0</ele><time>2026-04-27T10:32:28Z</time></trkpt><trkpt lat="32.73781011240269" lon="-4.9103832428387735"><ele>1467.0</ele><time>2026-04-27T10:32:29Z</time></trkpt><trkpt lat="32.73806981429941" lon="-4.910491435381324"><ele>1467.0</ele><time>2026-04-27T10:32:30Z</time></trkpt><trkpt lat="32.738325735378126" lon="-4.910600082128136"><ele>1467.0</ele><time>2026-04-27T10:32:31Z</time></trkpt><trkpt lat="32.73857930602514" lon="-4.9107095134524075"><ele>1466.0</ele><time>2026-04-27T10:32:32Z</time></trkpt><trkpt lat="32.73883634978883" lon="-4.9108227403944555"><ele>1465.0</ele><time>2026-04-27T10:32:33Z</time></trkpt><trkpt lat="32.73909401128381" lon="-4.910935398566498"><ele>1465.0</ele><time>2026-04-27T10:32:34Z</time></trkpt><trkpt lat="32.73935414179071" lon="-4.911046539834026"><ele>1465.0</ele><time>2026-04-27T10:32:35Z</time></trkpt><trkpt lat="32.73962036071887" lon="-4.911157888449296"><ele>1463.0</ele><time>2026-04-27T10:32:36Z</time></trkpt><trkpt lat="32.739892252699114" lon="-4.911273425526099"><ele>1461.0</ele><time>2026-04-27T10:32:37Z</time></trkpt><trkpt lat="32.740167981760536" lon="-4.911391807434269"><ele>1459.5</ele><time>2026-04-27T10:32:38Z</time></trkpt><trkpt lat="32.74044974857144" lon="-4.9115124011616125"><ele>1458.0</ele><time>2026-04-27T10:32:39Z</time></trkpt><trkpt lat="32.7407335256365" lon="-4.911634462631739"><ele>1457.5</ele><time>2026-04-27T10:32:40Z</time></trkpt><trkpt lat="32.74101645357993" lon="-4.911756064777152"><ele>1457.0</ele><time>2026-04-27T10:32:41Z</time></trkpt><trkpt lat="32.741300278939335" lon="-4.91187744703824"><ele>1455.0</ele><time>2026-04-27T10:32:42Z</time></trkpt><trkpt lat="32.74158806488758" lon="-4.911999982587819"><ele>1453.0</ele><time>2026-04-27T10:32:43Z</time></trkpt><trkpt lat="32.741876360113885" lon="-4.91212266235074"><ele>1452.0</ele><time>2026-04-27T10:32:44Z</time></trkpt><trkpt lat="32.74215361658464" lon="-4.912241190011545"><ele>1451.0</ele><time>2026-04-27T10:32:45Z</time></trkpt><trkpt lat="32.74242259262582" lon="-4.912357369025049"><ele>1451.0</ele><time>2026-04-27T10:32:46Z</time></trkpt><trkpt lat="32.74268356528567" lon="-4.9124711439602775"><ele>1451.0</ele><time>2026-04-27T10:32:47Z</time></trkpt><trkpt lat="32.74294242868642" lon="-4.912583144435633"><ele>1451.0</ele><time>2026-04-27T10:32:48Z</time></trkpt><trkpt lat="32.74320397121289" lon="-4.912694819883671"><ele>1451.0</ele><time>2026-04-27T10:32:49Z</time></trkpt><trkpt lat="32.74346117353015" lon="-4.912803465593037"><ele>1453.5</ele><time>2026-04-27T10:32:50Z</time></trkpt><trkpt lat="32.74371064337311" lon="-4.912906119197076"><ele>1456.0</ele><time>2026-04-27T10:32:51Z</time></trkpt><trkpt lat="32.74395890994958" lon="-4.912999921087389"><ele>1456.0</ele><time>2026-04-27T10:32:52Z</time></trkpt><trkpt lat="32.74420860970394" lon="-4.913074445806301"><ele>1456.0</ele><time>2026-04-27T10:32:53Z</time></trkpt><trkpt lat="32.74445707639484" lon="-4.913129106639926"><ele>1458.5</ele><time>2026-04-27T10:32:54Z</time></trkpt><trkpt lat="32.744696349639014" lon="-4.913162564944478"><ele>1461.0</ele><time>2026-04-27T10:32:55Z</time></trkpt><trkpt lat="32.74492829636685" lon="-4.913174688270507"><ele>1461.0</ele><time>2026-04-27T10:32:56Z</time></trkpt><trkpt lat="32.74515344423334" lon="-4.913170204622829"><ele>1461.0</ele><time>2026-04-27T10:32:57Z</time></trkpt><trkpt lat="32.745374008553256" lon="-4.913157944262333"><ele>1461.0</ele><time>2026-04-27T10:32:58Z</time></trkpt><trkpt lat="32.74559692873217" lon="-4.91314598622083"><ele>1461.0</ele><time>2026-04-27T10:32:59Z</time></trkpt><trkpt lat="32.7458229971389" lon="-4.9131391348219235"><ele>1461.0</ele><time>2026-04-27T10:33:00Z</time></trkpt><trkpt lat="32.74605227824418" lon="-4.913142472846499"><ele>1460.0</ele><time>2026-04-27T10:33:01Z</time></trkpt><trkpt lat="32.74629015516707" lon="-4.91316169801541"><ele>1459.0</ele><time>2026-04-27T10:33:02Z</time></trkpt><trkpt lat="32.7465340046352" lon="-4.913200016685625"><ele>1459.0</ele><time>2026-04-27T10:33:03Z</time></trkpt><trkpt lat="32.746777937634995" lon="-4.913264363329028"><ele>1459.0</ele><time>2026-04-27T10:33:03.999Z</time></trkpt><trkpt lat="32.74701912960547" lon="-4.913353668593224"><ele>1461.5</ele><time>2026-04-27T10:33:04.999Z</time></trkpt><trkpt lat="32.74725389384642" lon="-4.913472460658554"><ele>1464.0</ele><time>2026-04-27T10:33:05.999Z</time></trkpt><trkpt lat="32.74748247783391" lon="-4.913604844317128"><ele>1464.0</ele><time>2026-04-27T10:33:06.999Z</time></trkpt><trkpt lat="32.74769882434023" lon="-4.91375182899395"><ele>1464.0</ele><time>2026-04-27T10:33:07.999Z</time></trkpt><trkpt lat="32.74789998017054" lon="-4.913921356184056"><ele>1465.0</ele><time>2026-04-27T10:33:08.999Z</time></trkpt><trkpt lat="32.74807998367053" lon="-4.9141076763555835"><ele>1466.0</ele><time>2026-04-27T10:33:09.999Z</time></trkpt><trkpt lat="32.748245779992786" lon="-4.9142951837889886"><ele>1466.0</ele><time>2026-04-27T10:33:10.999Z</time></trkpt><trkpt lat="32.7483974863967" lon="-4.914487263179086"><ele>1466.0</ele><time>2026-04-27T10:33:11.999Z</time></trkpt><trkpt lat="32.74854277824268" lon="-4.914691339390755"><ele>1466.0</ele><time>2026-04-27T10:33:12.999Z</time></trkpt><trkpt lat="32.748688509825115" lon="-4.914906187801051"><ele>1469.0</ele><time>2026-04-27T10:33:13.999Z</time></trkpt><trkpt lat="32.74883856394736" lon="-4.915126559047386"><ele>1472.0</ele><time>2026-04-27T10:33:14.999Z</time></trkpt><trkpt lat="32.74899173646691" lon="-4.915349942550789"><ele>1472.0</ele><time>2026-04-27T10:33:15.999Z</time></trkpt><trkpt lat="32.74914896349153" lon="-4.9155797297633885"><ele>1472.0</ele><time>2026-04-27T10:33:16.999Z</time></trkpt><trkpt lat="32.74930999675028" lon="-4.915813257636483"><ele>1474.0</ele><time>2026-04-27T10:33:17.999Z</time></trkpt><trkpt lat="32.74947342525379" lon="-4.916049975488179"><ele>1476.0</ele><time>2026-04-27T10:33:18.999Z</time></trkpt><trkpt lat="32.749637343414335" lon="-4.916289389306119"><ele>1476.0</ele><time>2026-04-27T10:33:19.999Z</time></trkpt><trkpt lat="32.74980349311202" lon="-4.916531621481754"><ele>1476.0</ele><time>2026-04-27T10:33:20.999Z</time></trkpt><trkpt lat="32.749970285237616" lon="-4.91677431296884"><ele>1478.0</ele><time>2026-04-27T10:33:21.999Z</time></trkpt><trkpt lat="32.750138725228474" lon="-4.917018921153091"><ele>1480.0</ele><time>2026-04-27T10:33:22.999Z</time></trkpt><trkpt lat="32.75030978752584" lon="-4.9172648636370395"><ele>1481.0</ele><time>2026-04-27T10:33:23.999Z</time></trkpt><trkpt lat="32.7504799791045" lon="-4.917511338169803"><ele>1482.0</ele><time>2026-04-27T10:33:24.999Z</time></trkpt><trkpt lat="32.750647619478734" lon="-4.917756158222721"><ele>1482.0</ele><time>2026-04-27T10:33:25.999Z</time></trkpt><trkpt lat="32.75081409116609" lon="-4.9179982459489056"><ele>1482.0</ele><time>2026-04-27T10:33:26.999Z</time></trkpt><trkpt lat="32.75098445958744" lon="-4.918242006044209"><ele>1482.0</ele><time>2026-04-27T10:33:27.999Z</time></trkpt><trkpt lat="32.75115673292476" lon="-4.9184870830130185"><ele>1482.0</ele><time>2026-04-27T10:33:28.999Z</time></trkpt><trkpt lat="32.75132945713707" lon="-4.918732680626509"><ele>1482.0</ele><time>2026-04-27T10:33:29.999Z</time></trkpt><trkpt lat="32.75149951266309" lon="-4.918973654472417"><ele>1482.0</ele><time>2026-04-27T10:33:30.999Z</time></trkpt><trkpt lat="32.75166790651361" lon="-4.919215270423443"><ele>1482.0</ele><time>2026-04-27T10:33:31.999Z</time></trkpt><trkpt lat="32.7518378305855" lon="-4.919460304821565"><ele>1482.0</ele><time>2026-04-27T10:33:32.999Z</time></trkpt><trkpt lat="32.75201120264767" lon="-4.9197109787869495"><ele>1482.0</ele><time>2026-04-27T10:33:33.999Z</time></trkpt><trkpt lat="32.75218952480524" lon="-4.919964237556839"><ele>1482.0</ele><time>2026-04-27T10:33:34.999Z</time></trkpt><trkpt lat="32.752373165050685" lon="-4.920224084323496"><ele>1482.0</ele><time>2026-04-27T10:33:35.999Z</time></trkpt><trkpt lat="32.752555998850866" lon="-4.920486360186061"><ele>1482.0</ele><time>2026-04-27T10:33:36.999Z</time></trkpt><trkpt lat="32.75273860031339" lon="-4.920748295477085"><ele>1481.0</ele><time>2026-04-27T10:33:37.999Z</time></trkpt><trkpt lat="32.75292070436745" lon="-4.9210072015540245"><ele>1480.0</ele><time>2026-04-27T10:33:38.999Z</time></trkpt><trkpt lat="32.75310073201104" lon="-4.921265383987823"><ele>1480.0</ele><time>2026-04-27T10:33:39.999Z</time></trkpt><trkpt lat="32.75328358497296" lon="-4.921527804525771"><ele>1480.0</ele><time>2026-04-27T10:33:40.999Z</time></trkpt><trkpt lat="32.75346727531874" lon="-4.921792889689778"><ele>1478.5</ele><time>2026-04-27T10:33:41.999Z</time></trkpt><trkpt lat="32.753653746966556" lon="-4.922058354748854"><ele>1477.0</ele><time>2026-04-27T10:33:42.999Z</time></trkpt><trkpt lat="32.75384031340856" lon="-4.922323598417809"><ele>1479.0</ele><time>2026-04-27T10:33:43.999Z</time></trkpt><trkpt lat="32.75402204530568" lon="-4.922588398158343"><ele>1481.0</ele><time>2026-04-27T10:33:44.999Z</time></trkpt><trkpt lat="32.75420415417689" lon="-4.922852396326883"><ele>1481.0</ele><time>2026-04-27T10:33:45.999Z</time></trkpt><trkpt lat="32.75438187662115" lon="-4.923109536610224"><ele>1481.0</ele><time>2026-04-27T10:33:46.999Z</time></trkpt><trkpt lat="32.75455739030502" lon="-4.923362228831619"><ele>1482.0</ele><time>2026-04-27T10:33:47.999Z</time></trkpt><trkpt lat="32.75473320590691" lon="-4.9236152268136895"><ele>1483.0</ele><time>2026-04-27T10:33:48.999Z</time></trkpt><trkpt lat="32.75490619949051" lon="-4.923864699000858"><ele>1483.0</ele><time>2026-04-27T10:33:49.999Z</time></trkpt><trkpt lat="32.75507092022264" lon="-4.924104599383302"><ele>1483.0</ele><time>2026-04-27T10:33:50.999Z</time></trkpt><trkpt lat="32.755231135768064" lon="-4.924335978587126"><ele>1483.0</ele><time>2026-04-27T10:33:51.999Z</time></trkpt><trkpt lat="32.7553863102957" lon="-4.924560270111557"><ele>1483.0</ele><time>2026-04-27T10:33:52.999Z</time></trkpt><trkpt lat="32.75553731498751" lon="-4.924777946298683"><ele>1483.0</ele><time>2026-04-27T10:33:53.999Z</time></trkpt><trkpt lat="32.75568559474097" lon="-4.924989243509773"><ele>1483.0</ele><time>2026-04-27T10:33:54.999Z</time></trkpt><trkpt lat="32.755831297282754" lon="-4.925193416797158"><ele>1483.3333333333333</ele><time>2026-04-27T10:33:55.999Z</time></trkpt><trkpt lat="32.755974270641595" lon="-4.925387726341076"><ele>1483.6666666666667</ele><time>2026-04-27T10:33:56.999Z</time></trkpt><trkpt lat="32.7561201372857" lon="-4.925570218962518"><ele>1484.0</ele><time>2026-04-27T10:33:57.999Z</time></trkpt><trkpt lat="32.75627083615848" lon="-4.92573582145167"><ele>1484.6666666666667</ele><time>2026-04-27T10:33:58.999Z</time></trkpt><trkpt lat="32.75642876354958" lon="-4.925889042448645"><ele>1485.3333333333333</ele><time>2026-04-27T10:33:59.999Z</time></trkpt><trkpt lat="32.75659183835724" lon="-4.926028904295125"><ele>1486.0</ele><time>2026-04-27T10:34:00.999Z</time></trkpt><trkpt lat="32.75676095805652" lon="-4.926156113484373"><ele>1485.6666666666665</ele><time>2026-04-27T10:34:01.999Z</time></trkpt><trkpt lat="32.756936852382324" lon="-4.926268022960839"><ele>1485.3333333333333</ele><time>2026-04-27T10:34:02.999Z</time></trkpt><trkpt lat="32.75712027346575" lon="-4.926365251314097"><ele>1485.0</ele><time>2026-04-27T10:34:03.999Z</time></trkpt><trkpt lat="32.75731091375822" lon="-4.926447703980397"><ele>1485.0</ele><time>2026-04-27T10:34:04.999Z</time></trkpt><trkpt lat="32.75750628227095" lon="-4.926517522444114"><ele>1485.0</ele><time>2026-04-27T10:34:05.999Z</time></trkpt><trkpt lat="32.757706319256705" lon="-4.926579083722632"><ele>1485.0</ele><time>2026-04-27T10:34:06.999Z</time></trkpt><trkpt lat="32.757905936192756" lon="-4.9266418141171275"><ele>1486.0</ele><time>2026-04-27T10:34:07.999Z</time></trkpt><trkpt lat="32.75810431087042" lon="-4.926705798728445"><ele>1487.0</ele><time>2026-04-27T10:34:08.999Z</time></trkpt><trkpt lat="32.758304699582986" lon="-4.926769476532066"><ele>1488.0</ele><time>2026-04-27T10:34:09.999Z</time></trkpt><trkpt lat="32.75850720878377" lon="-4.926832339647556"><ele>1488.0</ele><time>2026-04-27T10:34:10.999Z</time></trkpt><trkpt lat="32.758715156196004" lon="-4.926898611823504"><ele>1488.0</ele><time>2026-04-27T10:34:11.999Z</time></trkpt><trkpt lat="32.758932023256044" lon="-4.926972410128677"><ele>1488.0</ele><time>2026-04-27T10:34:12.999Z</time></trkpt><trkpt lat="32.75915922198249" lon="-4.927049877262027"><ele>1487.0</ele><time>2026-04-27T10:34:13.999Z</time></trkpt><trkpt lat="32.759404229052514" lon="-4.927108810491934"><ele>1486.0</ele><time>2026-04-27T10:34:14.999Z</time></trkpt><trkpt lat="32.75966859983433" lon="-4.927189491972299"><ele>1486.0</ele><time>2026-04-27T10:34:15.999Z</time></trkpt><trkpt lat="32.75993499953555" lon="-4.9272703226630545"><ele>1486.0</ele><time>2026-04-27T10:34:16.999Z</time></trkpt><trkpt lat="32.760189132653196" lon="-4.9273476166084675"><ele>1486.5</ele><time>2026-04-27T10:34:18Z</time></trkpt><trkpt lat="32.76042552374739" lon="-4.927433321243677"><ele>1487.0</ele><time>2026-04-27T10:34:19Z</time></trkpt><trkpt lat="32.76064228326359" lon="-4.927495748553042"><ele>1487.0</ele><time>2026-04-27T10:34:20Z</time></trkpt><trkpt lat="32.76085042905117" lon="-4.927554904324554"><ele>1487.0</ele><time>2026-04-27T10:34:21Z</time></trkpt><trkpt lat="32.7610508321309" lon="-4.9276146405271195"><ele>1487.0</ele><time>2026-04-27T10:34:22Z</time></trkpt><trkpt lat="32.761245850645125" lon="-4.9276759747044245"><ele>1488.3333333333335</ele><time>2026-04-27T10:34:23Z</time></trkpt><trkpt lat="32.76143570656105" lon="-4.927735950782129"><ele>1489.6666666666667</ele><time>2026-04-27T10:34:24Z</time></trkpt><trkpt lat="32.76162237573986" lon="-4.927794849133516"><ele>1491.0</ele><time>2026-04-27T10:34:25Z</time></trkpt><trkpt lat="32.76180848744044" lon="-4.927853285663433"><ele>1490.6666666666667</ele><time>2026-04-27T10:34:26Z</time></trkpt><trkpt lat="32.76199356056055" lon="-4.927912517136704"><ele>1490.3333333333335</ele><time>2026-04-27T10:34:27Z</time></trkpt><trkpt lat="32.762183340535415" lon="-4.927972530536453"><ele>1490.0</ele><time>2026-04-27T10:34:28Z</time></trkpt><trkpt lat="32.76236956390607" lon="-4.928030884879014"><ele>1490.0</ele><time>2026-04-27T10:34:29Z</time></trkpt><trkpt lat="32.76255335186268" lon="-4.928085058878707"><ele>1490.0</ele><time>2026-04-27T10:34:30Z</time></trkpt><trkpt lat="32.762733416396" lon="-4.9281398398623"><ele>1490.0</ele><time>2026-04-27T10:34:31Z</time></trkpt><trkpt lat="32.76291232340242" lon="-4.92819473413333"><ele>1490.3333333333335</ele><time>2026-04-27T10:34:32Z</time></trkpt><trkpt lat="32.76308977186866" lon="-4.928248102907529"><ele>1490.6666666666667</ele><time>2026-04-27T10:34:33Z</time></trkpt><trkpt lat="32.76327469856853" lon="-4.928283583512646"><ele>1491.0</ele><time>2026-04-27T10:34:34Z</time></trkpt><trkpt lat="32.763462305755056" lon="-4.928338254946706"><ele>1491.6666666666667</ele><time>2026-04-27T10:34:35Z</time></trkpt><trkpt lat="32.76365123684899" lon="-4.928393542237667"><ele>1492.3333333333335</ele><time>2026-04-27T10:34:36Z</time></trkpt><trkpt lat="32.763839122612104" lon="-4.928450644831597"><ele>1493.0</ele><time>2026-04-27T10:34:37Z</time></trkpt><trkpt lat="32.76402413437678" lon="-4.928507219925487"><ele>1493.0</ele><time>2026-04-27T10:34:38Z</time></trkpt><trkpt lat="32.76420862692176" lon="-4.9285640199512875"><ele>1493.0</ele><time>2026-04-27T10:34:39Z</time></trkpt><trkpt lat="32.76439241027496" lon="-4.92862049486956"><ele>1493.0</ele><time>2026-04-27T10:34:40Z</time></trkpt><trkpt lat="32.76457504525917" lon="-4.928676596212048"><ele>1492.0</ele><time>2026-04-27T10:34:41Z</time></trkpt><trkpt lat="32.7647585449475" lon="-4.928732964182855"><ele>1491.0</ele><time>2026-04-27T10:34:42Z</time></trkpt><trkpt lat="32.764940743824006" lon="-4.9287889325670236"><ele>1490.0</ele><time>2026-04-27T10:34:43Z</time></trkpt><trkpt lat="32.76512136183049" lon="-4.92884441533564"><ele>1489.3333333333335</ele><time>2026-04-27T10:34:44Z</time></trkpt><trkpt lat="32.76530064674518" lon="-4.928899488601114"><ele>1488.6666666666667</ele><time>2026-04-27T10:34:45Z</time></trkpt><trkpt lat="32.7654792283296" lon="-4.928954862753956"><ele>1488.0</ele><time>2026-04-27T10:34:46Z</time></trkpt><trkpt lat="32.76565639124723" lon="-4.929008742198329"><ele>1488.0</ele><time>2026-04-27T10:34:47Z</time></trkpt><trkpt lat="32.765830526588765" lon="-4.929082526035626"><ele>1488.0</ele><time>2026-04-27T10:34:48Z</time></trkpt><trkpt lat="32.76600832925794" lon="-4.929133425043435"><ele>1488.0</ele><time>2026-04-27T10:34:49Z</time></trkpt><trkpt lat="32.76618479525629" lon="-4.929185857630722"><ele>1488.3333333333333</ele><time>2026-04-27T10:34:50Z</time></trkpt><trkpt lat="32.76636670582409" lon="-4.929243044453546"><ele>1488.6666666666665</ele><time>2026-04-27T10:34:51Z</time></trkpt><trkpt lat="32.76655591325918" lon="-4.929303304998584"><ele>1489.0</ele><time>2026-04-27T10:34:52Z</time></trkpt><trkpt lat="32.76675813484824" lon="-4.929346798014846"><ele>1489.3333333333333</ele><time>2026-04-27T10:34:53Z</time></trkpt><trkpt lat="32.76696358126556" lon="-4.929409921495194"><ele>1489.6666666666667</ele><time>2026-04-27T10:34:54Z</time></trkpt><trkpt lat="32.76717231098734" lon="-4.929474083261808"><ele>1490.0</ele><time>2026-04-27T10:34:55Z</time></trkpt><trkpt lat="32.76738604407536" lon="-4.929539783021467"><ele>1490.0</ele><time>2026-04-27T10:34:56Z</time></trkpt><trkpt lat="32.7676049343352" lon="-4.929607068052425"><ele>1490.0</ele><time>2026-04-27T10:34:57Z</time></trkpt><trkpt lat="32.767825953081115" lon="-4.92967500736161"><ele>1489.5</ele><time>2026-04-27T10:34:58Z</time></trkpt><trkpt lat="32.768047997085084" lon="-4.929743263286382"><ele>1489.0</ele><time>2026-04-27T10:34:59Z</time></trkpt><trkpt lat="32.76826694531967" lon="-4.92982701536885"><ele>1489.0</ele><time>2026-04-27T10:35:00Z</time></trkpt><trkpt lat="32.768488489169876" lon="-4.929894116566349"><ele>1489.0</ele><time>2026-04-27T10:35:01Z</time></trkpt><trkpt lat="32.76871197918306" lon="-4.929963096493965"><ele>1489.0</ele><time>2026-04-27T10:35:01.999Z</time></trkpt><trkpt lat="32.768939711616426" lon="-4.9300335331131935"><ele>1489.0</ele><time>2026-04-27T10:35:02.999Z</time></trkpt><trkpt lat="32.7691774621048" lon="-4.930106842684937"><ele>1487.5</ele><time>2026-04-27T10:35:03.999Z</time></trkpt><trkpt lat="32.76942601176239" lon="-4.930183344870365"><ele>1486.0</ele><time>2026-04-27T10:35:04.999Z</time></trkpt><trkpt lat="32.76968052738414" lon="-4.9302616095035265"><ele>1486.0</ele><time>2026-04-27T10:35:05.999Z</time></trkpt><trkpt lat="32.76993153330867" lon="-4.930336078013277"><ele>1486.0</ele><time>2026-04-27T10:35:06.999Z</time></trkpt><trkpt lat="32.770180690710035" lon="-4.930409187441619"><ele>1487.5</ele><time>2026-04-27T10:35:07.999Z</time></trkpt><trkpt lat="32.77042884900356" lon="-4.930482599761011"><ele>1489.0</ele><time>2026-04-27T10:35:08.999Z</time></trkpt><trkpt lat="32.77068110950668" lon="-4.930557472422673"><ele>1489.0</ele><time>2026-04-27T10:35:09.999Z</time></trkpt><trkpt lat="32.77093610045921" lon="-4.930635329439098"><ele>1489.0</ele><time>2026-04-27T10:35:10.999Z</time></trkpt><trkpt lat="32.77119306450195" lon="-4.930715095301194"><ele>1490.0</ele><time>2026-04-27T10:35:11.999Z</time></trkpt><trkpt lat="32.77145481186213" lon="-4.930797138114271"><ele>1491.0</ele><time>2026-04-27T10:35:12.999Z</time></trkpt><trkpt lat="32.77171890735062" lon="-4.930879201173837"><ele>1492.5</ele><time>2026-04-27T10:35:13.999Z</time></trkpt><trkpt lat="32.7719863607252" lon="-4.930961701389319"><ele>1494.0</ele><time>2026-04-27T10:35:14.999Z</time></trkpt><trkpt lat="32.77225616389211" lon="-4.93104489816256"><ele>1494.0</ele><time>2026-04-27T10:35:15.999Z</time></trkpt><trkpt lat="32.772528432558595" lon="-4.931129526700778"><ele>1494.0</ele><time>2026-04-27T10:35:16.999Z</time></trkpt><trkpt lat="32.7728029440217" lon="-4.931213752271134"><ele>1493.5</ele><time>2026-04-27T10:35:17.999Z</time></trkpt><trkpt lat="32.77307763623391" lon="-4.931297875631037"><ele>1493.0</ele><time>2026-04-27T10:35:18.999Z</time></trkpt><trkpt lat="32.773350846915385" lon="-4.931382072693236"><ele>1493.0</ele><time>2026-04-27T10:35:19.999Z</time></trkpt><trkpt lat="32.77361907108992" lon="-4.931464804027838"><ele>1493.0</ele><time>2026-04-27T10:35:20.999Z</time></trkpt><trkpt lat="32.77388054743374" lon="-4.93154623458224"><ele>1493.0</ele><time>2026-04-27T10:35:21.999Z</time></trkpt><trkpt lat="32.77413708788673" lon="-4.931624621240042"><ele>1493.0</ele><time>2026-04-27T10:35:22.999Z</time></trkpt><trkpt lat="32.774388383871816" lon="-4.931703219873141"><ele>1493.5</ele><time>2026-04-27T10:35:23.999Z</time></trkpt><trkpt lat="32.774640710550116" lon="-4.931783243660957"><ele>1494.0</ele><time>2026-04-27T10:35:24.999Z</time></trkpt><trkpt lat="32.77489712945578" lon="-4.931867440580269"><ele>1494.0</ele><time>2026-04-27T10:35:25.999Z</time></trkpt><trkpt lat="32.775156093156845" lon="-4.931954538947957"><ele>1494.0</ele><time>2026-04-27T10:35:26.999Z</time></trkpt><trkpt lat="32.77541950243744" lon="-4.932042889055475"><ele>1494.5</ele><time>2026-04-27T10:35:27.999Z</time></trkpt><trkpt lat="32.77569097733238" lon="-4.932132285238224"><ele>1495.0</ele><time>2026-04-27T10:35:28.999Z</time></trkpt><trkpt lat="32.77597158409116" lon="-4.932225111279614"><ele>1494.0</ele><time>2026-04-27T10:35:29.999Z</time></trkpt><trkpt lat="32.77625585354367" lon="-4.9323165002794305"><ele>1493.0</ele><time>2026-04-27T10:35:30.999Z</time></trkpt><trkpt lat="32.776542808675686" lon="-4.932403270787335"><ele>1493.0</ele><time>2026-04-27T10:35:31.999Z</time></trkpt><trkpt lat="32.77682933936955" lon="-4.932488488618898"><ele>1493.0</ele><time>2026-04-27T10:35:32.999Z</time></trkpt><trkpt lat="32.777110883474265" lon="-4.932573202611772"><ele>1492.5</ele><time>2026-04-27T10:35:33.999Z</time></trkpt><trkpt lat="32.77739088323074" lon="-4.932659868664713"><ele>1492.0</ele><time>2026-04-27T10:35:34.999Z</time></trkpt><trkpt lat="32.77766847717524" lon="-4.932747020454848"><ele>1493.0</ele><time>2026-04-27T10:35:35.999Z</time></trkpt><trkpt lat="32.77794656751092" lon="-4.932834227154225"><ele>1494.0</ele><time>2026-04-27T10:35:36.999Z</time></trkpt><trkpt lat="32.7782255425459" lon="-4.932922007424465"><ele>1494.0</ele><time>2026-04-27T10:35:37.999Z</time></trkpt><trkpt lat="32.77849977942882" lon="-4.933010112352943"><ele>1494.0</ele><time>2026-04-27T10:35:38.999Z</time></trkpt><trkpt lat="32.7787704428521" lon="-4.933096553744369"><ele>1494.0</ele><time>2026-04-27T10:35:39.999Z</time></trkpt><trkpt lat="32.779043338566325" lon="-4.933182263578031"><ele>1494.0</ele><time>2026-04-27T10:35:40.999Z</time></trkpt><trkpt lat="32.77931737335668" lon="-4.933269106635739"><ele>1494.0</ele><time>2026-04-27T10:35:41.999Z</time></trkpt><trkpt lat="32.77959093323838" lon="-4.933355829817584"><ele>1494.0</ele><time>2026-04-27T10:35:42.999Z</time></trkpt><trkpt lat="32.779867273990384" lon="-4.93344415414291"><ele>1494.0</ele><time>2026-04-27T10:35:43.999Z</time></trkpt><trkpt lat="32.78014623162903" lon="-4.933533546915023"><ele>1494.0</ele><time>2026-04-27T10:35:44.999Z</time></trkpt><trkpt lat="32.78042558032712" lon="-4.9336224882024675"><ele>1495.0</ele><time>2026-04-27T10:35:45.999Z</time></trkpt><trkpt lat="32.78070275032601" lon="-4.933711794772148"><ele>1496.0</ele><time>2026-04-27T10:35:46.999Z</time></trkpt><trkpt lat="32.780980905027285" lon="-4.933800440353078"><ele>1496.0</ele><time>2026-04-27T10:35:47.999Z</time></trkpt><trkpt lat="32.781260182786426" lon="-4.933889464982768"><ele>1496.0</ele><time>2026-04-27T10:35:48.999Z</time></trkpt><trkpt lat="32.781540332426765" lon="-4.933978615622613"><ele>1496.0</ele><time>2026-04-27T10:35:49.999Z</time></trkpt><trkpt lat="32.78182269977593" lon="-4.934067492360316"><ele>1496.0</ele><time>2026-04-27T10:35:50.999Z</time></trkpt><trkpt lat="32.78210562492062" lon="-4.934157071919424"><ele>1495.0</ele><time>2026-04-27T10:35:51.999Z</time></trkpt><trkpt lat="32.78238620802889" lon="-4.934247458554684"><ele>1494.0</ele><time>2026-04-27T10:35:52.999Z</time></trkpt><trkpt lat="32.78266742346089" lon="-4.934337593408106"><ele>1494.0</ele><time>2026-04-27T10:35:53.999Z</time></trkpt><trkpt lat="32.78294737755168" lon="-4.934428394965269"><ele>1494.0</ele><time>2026-04-27T10:35:54.999Z</time></trkpt><trkpt lat="32.783227400015015" lon="-4.934518627647858"><ele>1494.0</ele><time>2026-04-27T10:35:55.999Z</time></trkpt><trkpt lat="32.7835082012344" lon="-4.934607989633849"><ele>1494.0</ele><time>2026-04-27T10:35:56.999Z</time></trkpt><trkpt lat="32.78378608713805" lon="-4.934696104636529"><ele>1494.5</ele><time>2026-04-27T10:35:57.999Z</time></trkpt><trkpt lat="32.78406502154656" lon="-4.934782997576729"><ele>1495.0</ele><time>2026-04-27T10:35:58.999Z</time></trkpt><trkpt lat="32.78434720483107" lon="-4.934870661128129"><ele>1495.5</ele><time>2026-04-27T10:35:59.999Z</time></trkpt><trkpt lat="32.78463181361923" lon="-4.934958911050476"><ele>1496.0</ele><time>2026-04-27T10:36:00.999Z</time></trkpt><trkpt lat="32.78491742995538" lon="-4.9350498348047145"><ele>1494.5</ele><time>2026-04-27T10:36:01.999Z</time></trkpt><trkpt lat="32.78520535300475" lon="-4.935141082462331"><ele>1493.0</ele><time>2026-04-27T10:36:02.999Z</time></trkpt><trkpt lat="32.785495094678616" lon="-4.935233827882746"><ele>1493.0</ele><time>2026-04-27T10:36:03.999Z</time></trkpt><trkpt lat="32.78578490554606" lon="-4.935327040221475"><ele>1493.0</ele><time>2026-04-27T10:36:04.999Z</time></trkpt><trkpt lat="32.786073192296136" lon="-4.935417650107657"><ele>1494.5</ele><time>2026-04-27T10:36:05.999Z</time></trkpt><trkpt lat="32.78635948144375" lon="-4.935508149192895"><ele>1496.0</ele><time>2026-04-27T10:36:06.999Z</time></trkpt><trkpt lat="32.78664410298461" lon="-4.93559804555193"><ele>1497.0</ele><time>2026-04-27T10:36:07.999Z</time></trkpt><trkpt lat="32.786924451804396" lon="-4.935688798497928"><ele>1498.0</ele><time>2026-04-27T10:36:08.999Z</time></trkpt><trkpt lat="32.78720535036235" lon="-4.9357795044909505"><ele>1498.0</ele><time>2026-04-27T10:36:09.999Z</time></trkpt><trkpt lat="32.787483251509386" lon="-4.935869319050016"><ele>1498.0</ele><time>2026-04-27T10:36:10.999Z</time></trkpt><trkpt lat="32.78775933286889" lon="-4.935957421550539"><ele>1499.0</ele><time>2026-04-27T10:36:11.999Z</time></trkpt><trkpt lat="32.78803778832006" lon="-4.936043741334135"><ele>1500.0</ele><time>2026-04-27T10:36:12.999Z</time></trkpt><trkpt lat="32.78831908805697" lon="-4.9361343184106765"><ele>1500.0</ele><time>2026-04-27T10:36:13.999Z</time></trkpt><trkpt lat="32.788599283516426" lon="-4.936225709235211"><ele>1500.0</ele><time>2026-04-27T10:36:14.999Z</time></trkpt><trkpt lat="32.788876247551755" lon="-4.936315477622644"><ele>1500.0</ele><time>2026-04-27T10:36:15.999Z</time></trkpt><trkpt lat="32.78915182096653" lon="-4.936404632327633"><ele>1500.0</ele><time>2026-04-27T10:36:16.999Z</time></trkpt><trkpt lat="32.789429737894864" lon="-4.936491366707417"><ele>1500.5</ele><time>2026-04-27T10:36:17.999Z</time></trkpt><trkpt lat="32.78970472076327" lon="-4.936576612380438"><ele>1501.0</ele><time>2026-04-27T10:36:18.999Z</time></trkpt><trkpt lat="32.789972083015456" lon="-4.936663189676622"><ele>1501.0</ele><time>2026-04-27T10:36:19.999Z</time></trkpt><trkpt lat="32.79023107742905" lon="-4.936755461370988"><ele>1501.0</ele><time>2026-04-27T10:36:20.999Z</time></trkpt><trkpt lat="32.79048618595256" lon="-4.936838778586291"><ele>1501.0</ele><time>2026-04-27T10:36:21.999Z</time></trkpt><trkpt lat="32.79070502470279" lon="-4.936991519276772"><ele>1501.0</ele><time>2026-04-27T10:36:22.999Z</time></trkpt><trkpt lat="32.79092064700849" lon="-4.937142065545775"><ele>1500.5</ele><time>2026-04-27T10:36:24Z</time></trkpt><trkpt lat="32.79112556409338" lon="-4.9373170581594366"><ele>1500.0</ele><time>2026-04-27T10:36:25Z</time></trkpt><trkpt lat="32.79131622364813" lon="-4.93751535765002"><ele>1500.5</ele><time>2026-04-27T10:36:26Z</time></trkpt><trkpt lat="32.791495611429454" lon="-4.937739358503704"><ele>1501.0</ele><time>2026-04-27T10:36:27Z</time></trkpt><trkpt lat="32.79166659297403" lon="-4.937986887786561"><ele>1501.0</ele><time>2026-04-27T10:36:28Z</time></trkpt><trkpt lat="32.79182953595271" lon="-4.938253157513872"><ele>1501.0</ele><time>2026-04-27T10:36:29Z</time></trkpt><trkpt lat="32.791990603161985" lon="-4.938527340422863"><ele>1499.5</ele><time>2026-04-27T10:36:30Z</time></trkpt><trkpt lat="32.79215493371151" lon="-4.9388062244632"><ele>1498.0</ele><time>2026-04-27T10:36:31Z</time></trkpt><trkpt lat="32.79232290665278" lon="-4.939088033481387"><ele>1498.0</ele><time>2026-04-27T10:36:32Z</time></trkpt><trkpt lat="32.792497960281324" lon="-4.939375887365931"><ele>1498.0</ele><time>2026-04-27T10:36:33Z</time></trkpt><trkpt lat="32.792673850889734" lon="-4.939669245404981"><ele>1498.0</ele><time>2026-04-27T10:36:34Z</time></trkpt><trkpt lat="32.792844961980336" lon="-4.939957824944117"><ele>1498.0</ele><time>2026-04-27T10:36:35Z</time></trkpt><trkpt lat="32.79301415239765" lon="-4.940243000331539"><ele>1494.0</ele><time>2026-04-27T10:36:36Z</time></trkpt><trkpt lat="32.7931795597642" lon="-4.940522901122393"><ele>1490.0</ele><time>2026-04-27T10:36:37Z</time></trkpt><trkpt lat="32.793345004987714" lon="-4.940800197045841"><ele>1493.0</ele><time>2026-04-27T10:36:38Z</time></trkpt><trkpt lat="32.79350855068306" lon="-4.9410745451343265"><ele>1496.0</ele><time>2026-04-27T10:36:39Z</time></trkpt><trkpt lat="32.793672620658214" lon="-4.9413425246045914"><ele>1496.0</ele><time>2026-04-27T10:36:40Z</time></trkpt><trkpt lat="32.79383846131031" lon="-4.941603009747814"><ele>1496.0</ele><time>2026-04-27T10:36:41Z</time></trkpt><trkpt lat="32.794007384093455" lon="-4.941843903553121"><ele>1493.5</ele><time>2026-04-27T10:36:42Z</time></trkpt><trkpt lat="32.794188096723666" lon="-4.942065504208132"><ele>1491.0</ele><time>2026-04-27T10:36:43Z</time></trkpt><trkpt lat="32.79439222156866" lon="-4.942243621562604"><ele>1490.5</ele><time>2026-04-27T10:36:44Z</time></trkpt><trkpt lat="32.79458983886048" lon="-4.942430223275113"><ele>1490.0</ele><time>2026-04-27T10:36:45Z</time></trkpt><trkpt lat="32.794823809736165" lon="-4.942562088085804"><ele>1489.5</ele><time>2026-04-27T10:36:46Z</time></trkpt><trkpt lat="32.795071892955725" lon="-4.942678509921817"><ele>1489.0</ele><time>2026-04-27T10:36:47Z</time></trkpt><trkpt lat="32.79533013064777" lon="-4.942801446903086"><ele>1489.0</ele><time>2026-04-27T10:36:48Z</time></trkpt><trkpt lat="32.795588272806775" lon="-4.9429455272425695"><ele>1489.0</ele><time>2026-04-27T10:36:49Z</time></trkpt><trkpt lat="32.79585840419701" lon="-4.943068295333991"><ele>1488.0</ele><time>2026-04-27T10:36:50Z</time></trkpt><trkpt lat="32.79613300202167" lon="-4.943190836147591"><ele>1487.0</ele><time>2026-04-27T10:36:51Z</time></trkpt><trkpt lat="32.7964061897549" lon="-4.943315106266155"><ele>1486.5</ele><time>2026-04-27T10:36:52Z</time></trkpt><trkpt lat="32.79667676296304" lon="-4.943436721470097"><ele>1486.0</ele><time>2026-04-27T10:36:53Z</time></trkpt><trkpt lat="32.79694237461082" lon="-4.943555062335006"><ele>1486.0</ele><time>2026-04-27T10:36:54Z</time></trkpt><trkpt lat="32.797203711510114" lon="-4.943670726567847"><ele>1486.0</ele><time>2026-04-27T10:36:55Z</time></trkpt><trkpt lat="32.79746615230428" lon="-4.943786187537701"><ele>1487.0</ele><time>2026-04-27T10:36:56Z</time></trkpt><trkpt lat="32.79773018384299" lon="-4.943902194384919"><ele>1488.0</ele><time>2026-04-27T10:36:57Z</time></trkpt><trkpt lat="32.7979937154788" lon="-4.944017023362287"><ele>1488.0</ele><time>2026-04-27T10:36:58Z</time></trkpt><trkpt lat="32.798255721970285" lon="-4.944131028970506"><ele>1488.0</ele><time>2026-04-27T10:36:59Z</time></trkpt><trkpt lat="32.79851640947433" lon="-4.944246331909694"><ele>1486.0</ele><time>2026-04-27T10:37:00Z</time></trkpt><trkpt lat="32.79877578732339" lon="-4.9443628038523135"><ele>1484.0</ele><time>2026-04-27T10:37:01Z</time></trkpt><trkpt lat="32.79903338503854" lon="-4.9444768314940895"><ele>1484.0</ele><time>2026-04-27T10:37:02Z</time></trkpt><trkpt lat="32.79928947948357" lon="-4.944592862546496"><ele>1484.0</ele><time>2026-04-27T10:37:03Z</time></trkpt><trkpt lat="32.79954131604273" lon="-4.944707733240389"><ele>1484.0</ele><time>2026-04-27T10:37:04Z</time></trkpt><trkpt lat="32.799789679231296" lon="-4.944820813882616"><ele>1484.0</ele><time>2026-04-27T10:37:05Z</time></trkpt><trkpt lat="32.80003793776798" lon="-4.944933140467919"><ele>1484.0</ele><time>2026-04-27T10:37:05.999Z</time></trkpt><trkpt lat="32.80028481022269" lon="-4.945044257906202"><ele>1484.0</ele><time>2026-04-27T10:37:06.999Z</time></trkpt><trkpt lat="32.800534147337636" lon="-4.945156887209221"><ele>1484.0</ele><time>2026-04-27T10:37:07.999Z</time></trkpt><trkpt lat="32.800784427679886" lon="-4.945272738341936"><ele>1484.0</ele><time>2026-04-27T10:37:08.999Z</time></trkpt><trkpt lat="32.801033249834916" lon="-4.945392150521664"><ele>1483.0</ele><time>2026-04-27T10:37:09.999Z</time></trkpt><trkpt lat="32.80127736059279" lon="-4.945521010880527"><ele>1482.0</ele><time>2026-04-27T10:37:10.999Z</time></trkpt><trkpt lat="32.80151886823991" lon="-4.945663559202855"><ele>1482.0</ele><time>2026-04-27T10:37:11.999Z</time></trkpt><trkpt lat="32.80175319462185" lon="-4.94581939036261"><ele>1482.0</ele><time>2026-04-27T10:37:12.999Z</time></trkpt><trkpt lat="32.80198106987744" lon="-4.945994442173471"><ele>1481.0</ele><time>2026-04-27T10:37:13.999Z</time></trkpt><trkpt lat="32.80220678031347" lon="-4.946191610935819"><ele>1480.0</ele><time>2026-04-27T10:37:14.999Z</time></trkpt><trkpt lat="32.80243318464647" lon="-4.9463929967153195"><ele>1480.0</ele><time>2026-04-27T10:37:15.999Z</time></trkpt><trkpt lat="32.802664727115804" lon="-4.946594547297171"><ele>1480.0</ele><time>2026-04-27T10:37:16.999Z</time></trkpt><trkpt lat="32.80289775204077" lon="-4.946799290668931"><ele>1479.5</ele><time>2026-04-27T10:37:17.999Z</time></trkpt><trkpt lat="32.80313142524989" lon="-4.947000469261612"><ele>1479.0</ele><time>2026-04-27T10:37:18.999Z</time></trkpt><trkpt lat="32.80336371528417" lon="-4.947199931273162"><ele>1478.5</ele><time>2026-04-27T10:37:19.999Z</time></trkpt><trkpt lat="32.80359226208337" lon="-4.947397637826928"><ele>1478.0</ele><time>2026-04-27T10:37:20.999Z</time></trkpt><trkpt lat="32.80382076343077" lon="-4.947594028959179"><ele>1477.5</ele><time>2026-04-27T10:37:21.999Z</time></trkpt><trkpt lat="32.80404809584565" lon="-4.947790138665589"><ele>1477.0</ele><time>2026-04-27T10:37:22.999Z</time></trkpt><trkpt lat="32.80427249290832" lon="-4.947986706404693"><ele>1479.0</ele><time>2026-04-27T10:37:23.999Z</time></trkpt><trkpt lat="32.804496613875145" lon="-4.948181756206051"><ele>1481.0</ele><time>2026-04-27T10:37:24.999Z</time></trkpt><trkpt lat="32.804721348167526" lon="-4.948376060306483"><ele>1480.5</ele><time>2026-04-27T10:37:25.999Z</time></trkpt><trkpt lat="32.80493986964079" lon="-4.948566897010549"><ele>1480.0</ele><time>2026-04-27T10:37:26.999Z</time></trkpt><trkpt lat="32.8051554979408" lon="-4.948753677330181"><ele>1479.0</ele><time>2026-04-27T10:37:27.999Z</time></trkpt><trkpt lat="32.805368663457934" lon="-4.9489372179476225"><ele>1478.0</ele><time>2026-04-27T10:37:28.999Z</time></trkpt><trkpt lat="32.80558426822119" lon="-4.9491251018980895"><ele>1476.5</ele><time>2026-04-27T10:37:29.999Z</time></trkpt><trkpt lat="32.80580178912702" lon="-4.9493149702858"><ele>1475.0</ele><time>2026-04-27T10:37:30.999Z</time></trkpt><trkpt lat="32.80602170910881" lon="-4.949506531838222"><ele>1474.0</ele><time>2026-04-27T10:37:31.999Z</time></trkpt><trkpt lat="32.80624740345597" lon="-4.9496994293433065"><ele>1473.0</ele><time>2026-04-27T10:37:32.999Z</time></trkpt><trkpt lat="32.8064714912193" lon="-4.949893770834066"><ele>1473.0</ele><time>2026-04-27T10:37:33.999Z</time></trkpt><trkpt lat="32.80670017690078" lon="-4.950094444287706"><ele>1473.0</ele><time>2026-04-27T10:37:34.999Z</time></trkpt><trkpt lat="32.80693167878502" lon="-4.950294282581447"><ele>1473.0</ele><time>2026-04-27T10:37:35.999Z</time></trkpt><trkpt lat="32.80716766407717" lon="-4.950494609669344"><ele>1473.0</ele><time>2026-04-27T10:37:36.999Z</time></trkpt><trkpt lat="32.807402320687636" lon="-4.950698032831333"><ele>1473.5</ele><time>2026-04-27T10:37:37.999Z</time></trkpt><trkpt lat="32.80763473301339" lon="-4.950903825133368"><ele>1474.0</ele><time>2026-04-27T10:37:38.999Z</time></trkpt><trkpt lat="32.80786491526958" lon="-4.951106354459709"><ele>1473.0</ele><time>2026-04-27T10:37:39.999Z</time></trkpt><trkpt lat="32.80809463315069" lon="-4.9513044254306555"><ele>1472.0</ele><time>2026-04-27T10:37:40.999Z</time></trkpt><trkpt lat="32.808323556414635" lon="-4.951500666422558"><ele>1471.0</ele><time>2026-04-27T10:37:41.999Z</time></trkpt><trkpt lat="32.8085469417072" lon="-4.951695371885588"><ele>1470.0</ele><time>2026-04-27T10:37:42.999Z</time></trkpt><trkpt lat="32.80876662198842" lon="-4.951886167933108"><ele>1469.5</ele><time>2026-04-27T10:37:43.999Z</time></trkpt><trkpt lat="32.80898232610635" lon="-4.9520746454428"><ele>1469.0</ele><time>2026-04-27T10:37:44.999Z</time></trkpt><trkpt lat="32.80919613397866" lon="-4.9522615489203226"><ele>1469.5</ele><time>2026-04-27T10:37:45.999Z</time></trkpt><trkpt lat="32.80940824171759" lon="-4.9524468278119125"><ele>1470.0</ele><time>2026-04-27T10:37:46.999Z</time></trkpt><trkpt lat="32.809618152133304" lon="-4.952630135913661"><ele>1470.0</ele><time>2026-04-27T10:37:47.999Z</time></trkpt><trkpt lat="32.80982886261587" lon="-4.952811966306069"><ele>1470.0</ele><time>2026-04-27T10:37:48.999Z</time></trkpt><trkpt lat="32.81004028772116" lon="-4.95299407169411"><ele>1468.5</ele><time>2026-04-27T10:37:49.999Z</time></trkpt><trkpt lat="32.810257240300274" lon="-4.953179034288447"><ele>1467.0</ele><time>2026-04-27T10:37:50.999Z</time></trkpt><trkpt lat="32.81047706496133" lon="-4.953367894217724"><ele>1467.0</ele><time>2026-04-27T10:37:51.999Z</time></trkpt><trkpt lat="32.81069379200393" lon="-4.953557586955988"><ele>1467.0</ele><time>2026-04-27T10:37:52.999Z</time></trkpt><trkpt lat="32.81090787922032" lon="-4.953741784505138"><ele>1465.5</ele><time>2026-04-27T10:37:53.999Z</time></trkpt><trkpt lat="32.81111391768864" lon="-4.953913962248159"><ele>1464.0</ele><time>2026-04-27T10:37:54.999Z</time></trkpt><trkpt lat="32.811310219904875" lon="-4.95407843406226"><ele>1463.5</ele><time>2026-04-27T10:37:55.999Z</time></trkpt><trkpt lat="32.811500867183284" lon="-4.954240617345074"><ele>1463.0</ele><time>2026-04-27T10:37:56.999Z</time></trkpt><trkpt lat="32.811681322915135" lon="-4.95439681340579"><ele>1462.6666666666667</ele><time>2026-04-27T10:37:57.999Z</time></trkpt><trkpt lat="32.81185497565257" lon="-4.95454802123298"><ele>1462.3333333333333</ele><time>2026-04-27T10:37:58.999Z</time></trkpt><trkpt lat="32.81202202129491" lon="-4.9546931201363495"><ele>1462.0</ele><time>2026-04-27T10:37:59.999Z</time></trkpt><trkpt lat="32.812190633157016" lon="-4.954837815618718"><ele>1462.0</ele><time>2026-04-27T10:38:00.999Z</time></trkpt><trkpt lat="32.81236440816974" lon="-4.954986526500712"><ele>1462.0</ele><time>2026-04-27T10:38:01.999Z</time></trkpt><trkpt lat="32.812551138993165" lon="-4.955123243050778"><ele>1462.0</ele><time>2026-04-27T10:38:02.999Z</time></trkpt><trkpt lat="32.81272189192557" lon="-4.95529849293252"><ele>1462.0</ele><time>2026-04-27T10:38:03.999Z</time></trkpt><trkpt lat="32.81290886883101" lon="-4.9554588882299955"><ele>1462.0</ele><time>2026-04-27T10:38:04.999Z</time></trkpt><trkpt lat="32.81309342465668" lon="-4.95561688171245"><ele>1462.0</ele><time>2026-04-27T10:38:05.999Z</time></trkpt><trkpt lat="32.813275642155816" lon="-4.955774255461673"><ele>1462.0</ele><time>2026-04-27T10:38:06.999Z</time></trkpt><trkpt lat="32.813457770099106" lon="-4.955934560069771"><ele>1461.3333333333333</ele><time>2026-04-27T10:38:07.999Z</time></trkpt><trkpt lat="32.813639216245434" lon="-4.956092993414768"><ele>1460.6666666666667</ele><time>2026-04-27T10:38:08.999Z</time></trkpt><trkpt lat="32.8138186239497" lon="-4.956248814981713"><ele>1460.0</ele><time>2026-04-27T10:38:09.999Z</time></trkpt><trkpt lat="32.81399513714199" lon="-4.956402904270535"><ele>1460.0</ele><time>2026-04-27T10:38:10.999Z</time></trkpt><trkpt lat="32.81417096413153" lon="-4.956556971222844"><ele>1460.0</ele><time>2026-04-27T10:38:11.999Z</time></trkpt><trkpt lat="32.81434706397191" lon="-4.956712920827744"><ele>1460.0</ele><time>2026-04-27T10:38:12.999Z</time></trkpt><trkpt lat="32.814522940185164" lon="-4.956868238679462"><ele>1459.3333333333335</ele><time>2026-04-27T10:38:13.999Z</time></trkpt><trkpt lat="32.81468512326198" lon="-4.957009395560551"><ele>1458.6666666666667</ele><time>2026-04-27T10:38:14.999Z</time></trkpt><trkpt lat="32.81483928354793" lon="-4.957138387163913"><ele>1458.0</ele><time>2026-04-27T10:38:15.999Z</time></trkpt><trkpt lat="32.81498649675765" lon="-4.957260964341957"><ele>1458.0</ele><time>2026-04-27T10:38:16.999Z</time></trkpt><trkpt lat="32.81512674045243" lon="-4.957380724992912"><ele>1458.0</ele><time>2026-04-27T10:38:17.999Z</time></trkpt><trkpt lat="32.81525518355551" lon="-4.9574960846289065"><ele>1458.0</ele><time>2026-04-27T10:38:18.999Z</time></trkpt><trkpt lat="32.81537764802596" lon="-4.957605697738675"><ele>1457.5</ele><time>2026-04-27T10:38:19.999Z</time></trkpt><trkpt lat="32.81549375317075" lon="-4.95771018838587"><ele>1457.0</ele><time>2026-04-27T10:38:20.999Z</time></trkpt><trkpt lat="32.81560817858947" lon="-4.957813357014499"><ele>1456.5</ele><time>2026-04-27T10:38:21.999Z</time></trkpt><trkpt lat="32.815729861632974" lon="-4.957924069482804"><ele>1456.0</ele><time>2026-04-27T10:38:22.999Z</time></trkpt><trkpt lat="32.81586473408066" lon="-4.958013945624959"><ele>1456.0</ele><time>2026-04-27T10:38:23.999Z</time></trkpt><trkpt lat="32.81597952903935" lon="-4.958134184887638"><ele>1456.0</ele><time>2026-04-27T10:38:24.999Z</time></trkpt><trkpt lat="32.81610370332356" lon="-4.958232479111311"><ele>1456.0</ele><time>2026-04-27T10:38:25.999Z</time></trkpt><trkpt lat="32.81622258802388" lon="-4.958323887362983"><ele>1456.0</ele><time>2026-04-27T10:38:26.999Z</time></trkpt><trkpt lat="32.81633390660559" lon="-4.95840472531001"><ele>1455.5</ele><time>2026-04-27T10:38:27.999Z</time></trkpt><trkpt lat="32.81643543438196" lon="-4.958475253624714"><ele>1455.0</ele><time>2026-04-27T10:38:28.999Z</time></trkpt><trkpt lat="32.81653457091496" lon="-4.958541873729806"><ele>1454.5</ele><time>2026-04-27T10:38:30Z</time></trkpt><trkpt lat="32.81663168881708" lon="-4.958608712418482"><ele>1454.0</ele><time>2026-04-27T10:38:31Z</time></trkpt><trkpt lat="32.81673339879442" lon="-4.958675924553509"><ele>1453.5</ele><time>2026-04-27T10:38:32Z</time></trkpt><trkpt lat="32.81684345962568" lon="-4.958744839243022"><ele>1453.0</ele><time>2026-04-27T10:38:33Z</time></trkpt><trkpt lat="32.81695604065605" lon="-4.958809165162913"><ele>1452.5</ele><time>2026-04-27T10:38:34Z</time></trkpt><trkpt lat="32.81707591380434" lon="-4.9588555438786805"><ele>1452.0</ele><time>2026-04-27T10:38:35Z</time></trkpt><trkpt lat="32.817183056385446" lon="-4.958913447863799"><ele>1452.0</ele><time>2026-04-27T10:38:36Z</time></trkpt><trkpt lat="32.81727759744645" lon="-4.958964306183833"><ele>1452.0</ele><time>2026-04-27T10:38:37Z</time></trkpt><trkpt lat="32.81735679985563" lon="-4.959018101826094"><ele>1452.0</ele><time>2026-04-27T10:38:38Z</time></trkpt><trkpt lat="32.81743515446687" lon="-4.959055175055313"><ele>1452.0</ele><time>2026-04-27T10:38:39Z</time></trkpt><trkpt lat="32.81750896883935" lon="-4.959094567142786"><ele>1452.0</ele><time>2026-04-27T10:38:40Z</time></trkpt><trkpt lat="32.817577337204995" lon="-4.95912929986165"><ele>1452.0</ele><time>2026-04-27T10:38:41Z</time></trkpt><trkpt lat="32.81763719172971" lon="-4.959159524112766"><ele>1453.0</ele><time>2026-04-27T10:38:42Z</time></trkpt><trkpt lat="32.81774908218297" lon="-4.959217448657899"><ele>1454.0</ele><time>2026-04-27T10:38:44Z</time></trkpt><trkpt lat="32.81782493955774" lon="-4.959264140709505"><ele>1455.0</ele><time>2026-04-27T10:38:46Z</time></trkpt><trkpt lat="32.81788566607838" lon="-4.959297592296837"><ele>1456.0</ele><time>2026-04-27T10:38:48Z</time></trkpt><trkpt lat="32.8179681886632" lon="-4.959336144523721"><ele>1457.0</ele><time>2026-04-27T10:38:50Z</time></trkpt><trkpt lat="32.81805122646707" lon="-4.959373738176823"><ele>1457.0</ele><time>2026-04-27T10:38:52Z</time></trkpt><trkpt lat="32.818140418153874" lon="-4.959407428955128"><ele>1457.0</ele><time>2026-04-27T10:38:54Z</time></trkpt><trkpt lat="32.81823678040634" lon="-4.959442571704204"><ele>1457.0</ele><time>2026-04-27T10:38:56Z</time></trkpt><trkpt lat="32.818358904690655" lon="-4.959474763757168"><ele>1457.0</ele><time>2026-04-27T10:38:58Z</time></trkpt><trkpt lat="32.81842882808075" lon="-4.959497424181242"><ele>1457.0</ele><time>2026-04-27T10:38:59Z</time></trkpt><trkpt lat="32.81851079903073" lon="-4.959522419167274"><ele>1457.1666666666667</ele><time>2026-04-27T10:39:00Z</time></trkpt><trkpt lat="32.818588913301646" lon="-4.9595438324831544"><ele>1457.3333333333335</ele><time>2026-04-27T10:39:01Z</time></trkpt><trkpt lat="32.818668070558054" lon="-4.959560764293051"><ele>1457.5</ele><time>2026-04-27T10:39:02Z</time></trkpt><trkpt lat="32.81874621427673" lon="-4.959574721654707"><ele>1457.6666666666667</ele><time>2026-04-27T10:39:03Z</time></trkpt><trkpt lat="32.818821239358236" lon="-4.959586773334056"><ele>1457.8333333333333</ele><time>2026-04-27T10:39:04Z</time></trkpt><trkpt lat="32.818891969092256" lon="-4.959593905828812"><ele>1458.0</ele><time>2026-04-27T10:39:05Z</time></trkpt><trkpt lat="32.81895528867082" lon="-4.959596688215268"><ele>1458.0</ele><time>2026-04-27T10:39:05.999Z</time></trkpt><trkpt lat="32.81906022610957" lon="-4.959599943534054"><ele>1458.0</ele><time>2026-04-27T10:39:07.999Z</time></trkpt><trkpt lat="32.81914607475117" lon="-4.959594304000908"><ele>1458.0</ele><time>2026-04-27T10:39:10.999Z</time></trkpt><trkpt lat="32.81922503437486" lon="-4.959597102191485"><ele>1458.0</ele><time>2026-04-27T10:39:12.999Z</time></trkpt><trkpt lat="32.81933417028214" lon="-4.959602954974966"><ele>1458.0</ele><time>2026-04-27T10:39:14.999Z</time></trkpt><trkpt lat="32.819422813236145" lon="-4.959607708754315"><ele>1457.6666666666667</ele><time>2026-04-27T10:39:16.999Z</time></trkpt><trkpt lat="32.81949152079561" lon="-4.959611393431745"><ele>1457.3333333333333</ele><time>2026-04-27T10:39:21.999Z</time></trkpt><trkpt lat="32.81955827522358" lon="-4.959634706521312"><ele>1457.0</ele><time>2026-04-27T10:39:24.999Z</time></trkpt><trkpt lat="32.81962219226498" lon="-4.959618401128805"><ele>1456.6666666666665</ele><time>2026-04-27T10:39:25.999Z</time></trkpt><trkpt lat="32.819696845181454" lon="-4.959620540002699"><ele>1456.3333333333333</ele><time>2026-04-27T10:39:26.999Z</time></trkpt><trkpt lat="32.819782382681474" lon="-4.959623431004484"><ele>1456.0</ele><time>2026-04-27T10:39:27.999Z</time></trkpt><trkpt lat="32.819877653864715" lon="-4.959626650985183"><ele>1456.0</ele><time>2026-04-27T10:39:28.999Z</time></trkpt><trkpt lat="32.81997429343104" lon="-4.959646428796103"><ele>1456.0</ele><time>2026-04-27T10:39:29.999Z</time></trkpt><trkpt lat="32.82007791435783" lon="-4.959647848744212"><ele>1456.0</ele><time>2026-04-27T10:39:30.999Z</time></trkpt><trkpt lat="32.82018332070231" lon="-4.9596545065483895"><ele>1456.0</ele><time>2026-04-27T10:39:31.999Z</time></trkpt><trkpt lat="32.8202904744851" lon="-4.959664627704366"><ele>1456.0</ele><time>2026-04-27T10:39:32.999Z</time></trkpt><trkpt lat="32.82040191205618" lon="-4.959651154298654"><ele>1456.0</ele><time>2026-04-27T10:39:33.999Z</time></trkpt><trkpt lat="32.82051229793969" lon="-4.9596883189726455"><ele>1456.0</ele><time>2026-04-27T10:39:34.999Z</time></trkpt><trkpt lat="32.820622224580696" lon="-4.959683386062548"><ele>1456.0</ele><time>2026-04-27T10:39:35.999Z</time></trkpt><trkpt lat="32.82072163868785" lon="-4.959725186750965"><ele>1456.0</ele><time>2026-04-27T10:39:36.999Z</time></trkpt><trkpt lat="32.82081745542624" lon="-4.959748951444939"><ele>1456.0</ele><time>2026-04-27T10:39:37.999Z</time></trkpt><trkpt lat="32.82091366665924" lon="-4.959780361865985"><ele>1456.1999999999998</ele><time>2026-04-27T10:39:38.999Z</time></trkpt><trkpt lat="32.821011194102866" lon="-4.959817014461451"><ele>1456.3999999999999</ele><time>2026-04-27T10:39:39.999Z</time></trkpt><trkpt lat="32.82111119092768" lon="-4.959861280091127"><ele>1456.6</ele><time>2026-04-27T10:39:40.999Z</time></trkpt><trkpt lat="32.82121458937244" lon="-4.95991444601146"><ele>1456.8</ele><time>2026-04-27T10:39:41.999Z</time></trkpt><trkpt lat="32.82132081756673" lon="-4.959975043966161"><ele>1457.0</ele><time>2026-04-27T10:39:42.999Z</time></trkpt><trkpt lat="32.82142924644789" lon="-4.960040936057329"><ele>1457.1999999999998</ele><time>2026-04-27T10:39:43.999Z</time></trkpt><trkpt lat="32.82153716414698" lon="-4.960110758629813"><ele>1457.4</ele><time>2026-04-27T10:39:44.999Z</time></trkpt><trkpt lat="32.821637003427824" lon="-4.9601823167189325"><ele>1457.6</ele><time>2026-04-27T10:39:45.999Z</time></trkpt><trkpt lat="32.82172706949692" lon="-4.960252833251356"><ele>1457.8000000000002</ele><time>2026-04-27T10:39:46.999Z</time></trkpt><trkpt lat="32.821809246908906" lon="-4.960321668628707"><ele>1458.0</ele><time>2026-04-27T10:39:47.999Z</time></trkpt><trkpt lat="32.82189020692406" lon="-4.960388473982202"><ele>1458.0</ele><time>2026-04-27T10:39:48.999Z</time></trkpt><trkpt lat="32.82197971404107" lon="-4.9604327012207765"><ele>1458.0</ele><time>2026-04-27T10:39:49.999Z</time></trkpt><trkpt lat="32.82205802656901" lon="-4.960484430204753"><ele>1458.0</ele><time>2026-04-27T10:39:50.999Z</time></trkpt><trkpt lat="32.82213351564967" lon="-4.9605348478695825"><ele>1458.0</ele><time>2026-04-27T10:39:51.999Z</time></trkpt><trkpt lat="32.822208319419374" lon="-4.960586637412009"><ele>1458.0</ele><time>2026-04-27T10:39:52.999Z</time></trkpt><trkpt lat="32.82228097830552" lon="-4.960636941963248"><ele>1458.0</ele><time>2026-04-27T10:39:53.999Z</time></trkpt><trkpt lat="32.82235680623277" lon="-4.960689440574442"><ele>1458.0</ele><time>2026-04-27T10:39:54.999Z</time></trkpt><trkpt lat="32.82242957076256" lon="-4.960759476073506"><ele>1458.0</ele><time>2026-04-27T10:39:55.999Z</time></trkpt><trkpt lat="32.822514051892455" lon="-4.960816551983971"><ele>1458.0</ele><time>2026-04-27T10:39:56.999Z</time></trkpt><trkpt lat="32.82260246378347" lon="-4.960879897547707"><ele>1458.0</ele><time>2026-04-27T10:39:57.999Z</time></trkpt><trkpt lat="32.82269504858813" lon="-4.960944695833826"><ele>1458.0</ele><time>2026-04-27T10:39:58.999Z</time></trkpt><trkpt lat="32.82279288409028" lon="-4.961011523475735"><ele>1458.75</ele><time>2026-04-27T10:39:59.999Z</time></trkpt><trkpt lat="32.822903152052746" lon="-4.9610816241940165"><ele>1459.5</ele><time>2026-04-27T10:40:00.999Z</time></trkpt><trkpt lat="32.82301674751138" lon="-4.961147898049753"><ele>1460.25</ele><time>2026-04-27T10:40:01.999Z</time></trkpt><trkpt lat="32.82313506637331" lon="-4.9611780215412775"><ele>1461.0</ele><time>2026-04-27T10:40:02.999Z</time></trkpt><trkpt lat="32.823238720076475" lon="-4.961221546906693"><ele>1461.0</ele><time>2026-04-27T10:40:03.999Z</time></trkpt><trkpt lat="32.82333985786646" lon="-4.961264015792783"><ele>1461.0</ele><time>2026-04-27T10:40:04.999Z</time></trkpt><trkpt lat="32.82344203256364" lon="-4.96130047340518"><ele>1461.0</ele><time>2026-04-27T10:40:05.999Z</time></trkpt><trkpt lat="32.82354986653351" lon="-4.961335845862065"><ele>1461.0</ele><time>2026-04-27T10:40:06.999Z</time></trkpt><trkpt lat="32.82365577613795" lon="-4.961388320080079"><ele>1461.0</ele><time>2026-04-27T10:40:07.999Z</time></trkpt><trkpt lat="32.82376214618519" lon="-4.96141216473681"><ele>1460.6</ele><time>2026-04-27T10:40:08.999Z</time></trkpt><trkpt lat="32.823866829063945" lon="-4.96141130061738"><ele>1460.1999999999998</ele><time>2026-04-27T10:40:09.999Z</time></trkpt><trkpt lat="32.82396928422976" lon="-4.961426406232992"><ele>1459.8000000000002</ele><time>2026-04-27T10:40:10.999Z</time></trkpt><trkpt lat="32.82407590639564" lon="-4.961434373111521"><ele>1459.4</ele><time>2026-04-27T10:40:11.999Z</time></trkpt><trkpt lat="32.82418321607115" lon="-4.961436869117916"><ele>1459.0</ele><time>2026-04-27T10:40:12.999Z</time></trkpt><trkpt lat="32.824292212697394" lon="-4.961438079894252"><ele>1458.8000000000002</ele><time>2026-04-27T10:40:13.999Z</time></trkpt><trkpt lat="32.824400661519974" lon="-4.961437465866741"><ele>1458.6000000000001</ele><time>2026-04-27T10:40:14.999Z</time></trkpt><trkpt lat="32.824510030526746" lon="-4.961431408227851"><ele>1458.4</ele><time>2026-04-27T10:40:15.999Z</time></trkpt><trkpt lat="32.824619372318324" lon="-4.9614253520938485"><ele>1458.2</ele><time>2026-04-27T10:40:16.999Z</time></trkpt><trkpt lat="32.82472638654275" lon="-4.961419424882313"><ele>1458.0</ele><time>2026-04-27T10:40:17.999Z</time></trkpt><trkpt lat="32.824833307081086" lon="-4.961411557740416"><ele>1458.0</ele><time>2026-04-27T10:40:18.999Z</time></trkpt><trkpt lat="32.82494571052968" lon="-4.961402991965081"><ele>1458.0</ele><time>2026-04-27T10:40:19.999Z</time></trkpt><trkpt lat="32.82506082760058" lon="-4.9613942193947205"><ele>1458.0</ele><time>2026-04-27T10:40:20.999Z</time></trkpt><trkpt lat="32.82517801768054" lon="-4.961385288849204"><ele>1458.0</ele><time>2026-04-27T10:40:21.999Z</time></trkpt><trkpt lat="32.82529603605883" lon="-4.961375844673828"><ele>1458.5</ele><time>2026-04-27T10:40:22.999Z</time></trkpt><trkpt lat="32.82541537551027" lon="-4.961366289767512"><ele>1459.0</ele><time>2026-04-27T10:40:23.999Z</time></trkpt><trkpt lat="32.82553716300867" lon="-4.961356538864145"><ele>1459.5</ele><time>2026-04-27T10:40:24.999Z</time></trkpt><trkpt lat="32.82566027047087" lon="-4.96134710339258"><ele>1460.0</ele><time>2026-04-27T10:40:25.999Z</time></trkpt><trkpt lat="32.825782130330055" lon="-4.961337807893548"><ele>1460.0</ele><time>2026-04-27T10:40:26.999Z</time></trkpt><trkpt lat="32.825901467305115" lon="-4.961328704841161"><ele>1460.0</ele><time>2026-04-27T10:40:27.999Z</time></trkpt><trkpt lat="32.826025208040846" lon="-4.961319265868824"><ele>1460.0</ele><time>2026-04-27T10:40:28.999Z</time></trkpt><trkpt lat="32.82616200187418" lon="-4.961309045368951"><ele>1460.0</ele><time>2026-04-27T10:40:29.999Z</time></trkpt><trkpt lat="32.826306346188424" lon="-4.961298646380119"><ele>1459.0</ele><time>2026-04-27T10:40:30.999Z</time></trkpt><trkpt lat="32.82645727697419" lon="-4.961287931224227"><ele>1458.0</ele><time>2026-04-27T10:40:31.999Z</time></trkpt><trkpt lat="32.82661102967987" lon="-4.961277787769942"><ele>1457.0</ele><time>2026-04-27T10:40:32.999Z</time></trkpt><trkpt lat="32.82677141422269" lon="-4.961266277989345"><ele>1457.0</ele><time>2026-04-27T10:40:33.999Z</time></trkpt><trkpt lat="32.826941363760476" lon="-4.961254039728385"><ele>1457.0</ele><time>2026-04-27T10:40:34.999Z</time></trkpt><trkpt lat="32.827121218149806" lon="-4.961241088204204"><ele>1457.0</ele><time>2026-04-27T10:40:36Z</time></trkpt><trkpt lat="32.827306909537235" lon="-4.961228037162519"><ele>1457.0</ele><time>2026-04-27T10:40:37Z</time></trkpt><trkpt lat="32.82749955284865" lon="-4.961214615782415"><ele>1457.0</ele><time>2026-04-27T10:40:38Z</time></trkpt><trkpt lat="32.82768729456576" lon="-4.961201535893807"><ele>1457.0</ele><time>2026-04-27T10:40:39Z</time></trkpt><trkpt lat="32.82785906493934" lon="-4.961189568721508"><ele>1457.3333333333335</ele><time>2026-04-27T10:40:40Z</time></trkpt><trkpt lat="32.82801883445681" lon="-4.961178128299023"><ele>1457.6666666666667</ele><time>2026-04-27T10:40:41Z</time></trkpt><trkpt lat="32.82816744814163" lon="-4.961167279737332"><ele>1458.0</ele><time>2026-04-27T10:40:42Z</time></trkpt><trkpt lat="32.82831206912003" lon="-4.961157362838477"><ele>1458.0</ele><time>2026-04-27T10:40:43Z</time></trkpt><trkpt lat="32.8284602464064" lon="-4.961146900070602"><ele>1458.0</ele><time>2026-04-27T10:40:44Z</time></trkpt><trkpt lat="32.82861297239472" lon="-4.961136116118237"><ele>1458.0</ele><time>2026-04-27T10:40:45Z</time></trkpt><trkpt lat="32.82876783356985" lon="-4.961125181457716"><ele>1458.3333333333333</ele><time>2026-04-27T10:40:46Z</time></trkpt><trkpt lat="32.82892342330483" lon="-4.961113378015514"><ele>1458.6666666666665</ele><time>2026-04-27T10:40:47Z</time></trkpt><trkpt lat="32.82908203384992" lon="-4.961101559675735"><ele>1459.0</ele><time>2026-04-27T10:40:48Z</time></trkpt><trkpt lat="32.8292456368591" lon="-4.961088728948501"><ele>1459.0</ele><time>2026-04-27T10:40:49Z</time></trkpt><trkpt lat="32.829413531025715" lon="-4.9610753001262005"><ele>1459.0</ele><time>2026-04-27T10:40:50Z</time></trkpt><trkpt lat="32.82958321022975" lon="-4.961062673032432"><ele>1459.0</ele><time>2026-04-27T10:40:51Z</time></trkpt><trkpt lat="32.82975553895317" lon="-4.961049690150318"><ele>1459.0</ele><time>2026-04-27T10:40:52Z</time></trkpt><trkpt lat="32.82992980477197" lon="-4.961036561332287"><ele>1459.0</ele><time>2026-04-27T10:40:53Z</time></trkpt><trkpt lat="32.830106170117894" lon="-4.961023274341128"><ele>1459.0</ele><time>2026-04-27T10:40:54Z</time></trkpt><trkpt lat="32.83028142644001" lon="-4.961009428184802"><ele>1459.3333333333333</ele><time>2026-04-27T10:40:55Z</time></trkpt><trkpt lat="32.83045622663607" lon="-4.960996124694527"><ele>1459.6666666666667</ele><time>2026-04-27T10:40:56Z</time></trkpt><trkpt lat="32.83062892652346" lon="-4.960982981051055"><ele>1460.0</ele><time>2026-04-27T10:40:57Z</time></trkpt><trkpt lat="32.83079818909583" lon="-4.9609700990111705"><ele>1460.0</ele><time>2026-04-27T10:40:58Z</time></trkpt><trkpt lat="32.83096218948898" lon="-4.96095760589149"><ele>1460.0</ele><time>2026-04-27T10:40:59Z</time></trkpt><trkpt lat="32.83112160483667" lon="-4.960945944382859"><ele>1460.0</ele><time>2026-04-27T10:41:00Z</time></trkpt><trkpt lat="32.83127520036044" lon="-4.960933876076929"><ele>1459.75</ele><time>2026-04-27T10:41:01Z</time></trkpt><trkpt lat="32.83142318011052" lon="-4.960923266626809"><ele>1459.5</ele><time>2026-04-27T10:41:01.999Z</time></trkpt><trkpt lat="32.83157046415421" lon="-4.960913372969281"><ele>1459.25</ele><time>2026-04-27T10:41:02.999Z</time></trkpt><trkpt lat="32.831717368649045" lon="-4.960903505907694"><ele>1459.0</ele><time>2026-04-27T10:41:03.999Z</time></trkpt><trkpt lat="32.831859948979975" lon="-4.9608936917536255"><ele>1459.0</ele><time>2026-04-27T10:41:04.999Z</time></trkpt><trkpt lat="32.8319971593033" lon="-4.960884213625531"><ele>1459.0</ele><time>2026-04-27T10:41:05.999Z</time></trkpt><trkpt lat="32.83213455737901" lon="-4.960874722520543"><ele>1459.0</ele><time>2026-04-27T10:41:06.999Z</time></trkpt><trkpt lat="32.83226966994902" lon="-4.960865389302388"><ele>1459.0</ele><time>2026-04-27T10:41:07.999Z</time></trkpt><trkpt lat="32.83240074795194" lon="-4.960856334779818"><ele>1459.0</ele><time>2026-04-27T10:41:08.999Z</time></trkpt><trkpt lat="32.83252721558134" lon="-4.960847598728794"><ele>1459.0</ele><time>2026-04-27T10:41:09.999Z</time></trkpt><trkpt lat="32.83265583820146" lon="-4.960838713810121"><ele>1459.0</ele><time>2026-04-27T10:41:10.999Z</time></trkpt><trkpt lat="32.83278967052105" lon="-4.960829469006042"><ele>1459.0</ele><time>2026-04-27T10:41:11.999Z</time></trkpt><trkpt lat="32.83292173101883" lon="-4.960800873864146"><ele>1459.0</ele><time>2026-04-27T10:41:12.999Z</time></trkpt><trkpt lat="32.8330573583802" lon="-4.960772501164575"><ele>1459.0</ele><time>2026-04-27T10:41:13.999Z</time></trkpt><trkpt lat="32.8331869545962" lon="-4.960739203900343"><ele>1459.0</ele><time>2026-04-27T10:41:14.999Z</time></trkpt><trkpt lat="32.83331683394242" lon="-4.960688695251105"><ele>1459.0</ele><time>2026-04-27T10:41:15.999Z</time></trkpt><trkpt lat="32.83344951046637" lon="-4.960637081549308"><ele>1458.75</ele><time>2026-04-27T10:41:16.999Z</time></trkpt><trkpt lat="32.833587830164355" lon="-4.960583089825494"><ele>1458.5</ele><time>2026-04-27T10:41:17.999Z</time></trkpt><trkpt lat="32.83371941314851" lon="-4.960506816141536"><ele>1458.25</ele><time>2026-04-27T10:41:18.999Z</time></trkpt><trkpt lat="32.8338493379947" lon="-4.960415965562532"><ele>1458.0</ele><time>2026-04-27T10:41:19.999Z</time></trkpt><trkpt lat="32.83397287802436" lon="-4.960329579404422"><ele>1458.0</ele><time>2026-04-27T10:41:20.999Z</time></trkpt><trkpt lat="32.83409030893408" lon="-4.960247465294212"><ele>1458.0</ele><time>2026-04-27T10:41:21.999Z</time></trkpt><trkpt lat="32.83420532234845" lon="-4.960167041548304"><ele>1458.0</ele><time>2026-04-27T10:41:22.999Z</time></trkpt><trkpt lat="32.83431897849609" lon="-4.960081234795042"><ele>1458.0</ele><time>2026-04-27T10:41:23.999Z</time></trkpt><trkpt lat="32.83443896493744" lon="-4.959982490977326"><ele>1457.6666666666667</ele><time>2026-04-27T10:41:24.999Z</time></trkpt><trkpt lat="32.834564645074" lon="-4.9598790641617425"><ele>1457.3333333333335</ele><time>2026-04-27T10:41:25.999Z</time></trkpt><trkpt lat="32.83469482808343" lon="-4.959771933902902"><ele>1457.0</ele><time>2026-04-27T10:41:26.999Z</time></trkpt><trkpt lat="32.83482870330638" lon="-4.959662265995835"><ele>1457.0</ele><time>2026-04-27T10:41:27.999Z</time></trkpt><trkpt lat="32.8349674004886" lon="-4.959547651074062"><ele>1457.0</ele><time>2026-04-27T10:41:28.999Z</time></trkpt><trkpt lat="32.835113119232055" lon="-4.959427791422352"><ele>1457.0</ele><time>2026-04-27T10:41:29.999Z</time></trkpt><trkpt lat="32.835262489829915" lon="-4.959305375457849"><ele>1456.3333333333335</ele><time>2026-04-27T10:41:30.999Z</time></trkpt><trkpt lat="32.835412735949994" lon="-4.959182241939561"><ele>1455.6666666666667</ele><time>2026-04-27T10:41:31.999Z</time></trkpt><trkpt lat="32.835570267406084" lon="-4.959076613237633"><ele>1455.0</ele><time>2026-04-27T10:41:32.999Z</time></trkpt><trkpt lat="32.835715978774395" lon="-4.958952668632907"><ele>1455.0</ele><time>2026-04-27T10:41:33.999Z</time></trkpt><trkpt lat="32.83585970012007" lon="-4.958834029975383"><ele>1455.0</ele><time>2026-04-27T10:41:34.999Z</time></trkpt><trkpt lat="32.8360016624903" lon="-4.958717218252098"><ele>1455.0</ele><time>2026-04-27T10:41:35.999Z</time></trkpt><trkpt lat="32.8361423053459" lon="-4.958600712452401"><ele>1455.3333333333333</ele><time>2026-04-27T10:41:36.999Z</time></trkpt><trkpt lat="32.836284922411025" lon="-4.958485587607251"><ele>1455.6666666666665</ele><time>2026-04-27T10:41:37.999Z</time></trkpt><trkpt lat="32.836426651481126" lon="-4.958369096133733"><ele>1456.0</ele><time>2026-04-27T10:41:38.999Z</time></trkpt><trkpt lat="32.83656705506919" lon="-4.958252457616225"><ele>1456.3333333333333</ele><time>2026-04-27T10:41:39.999Z</time></trkpt><trkpt lat="32.83670529252002" lon="-4.95813341411526"><ele>1456.6666666666667</ele><time>2026-04-27T10:41:40.999Z</time></trkpt><trkpt lat="32.836842716748954" lon="-4.958018780348168"><ele>1457.0</ele><time>2026-04-27T10:41:41.999Z</time></trkpt><trkpt lat="32.83698019473681" lon="-4.957905326717902"><ele>1457.0</ele><time>2026-04-27T10:41:42.999Z</time></trkpt><trkpt lat="32.837117671969466" lon="-4.957791809798625"><ele>1457.0</ele><time>2026-04-27T10:41:43.999Z</time></trkpt><trkpt lat="32.83725606692756" lon="-4.957679225650293"><ele>1457.0</ele><time>2026-04-27T10:41:44.999Z</time></trkpt><trkpt lat="32.83739286836818" lon="-4.957566823524923"><ele>1457.3333333333335</ele><time>2026-04-27T10:41:45.999Z</time></trkpt><trkpt lat="32.837530372543505" lon="-4.957452566095937"><ele>1457.6666666666667</ele><time>2026-04-27T10:41:46.999Z</time></trkpt><trkpt lat="32.83767141879698" lon="-4.957335387532313"><ele>1458.0</ele><time>2026-04-27T10:41:47.999Z</time></trkpt><trkpt lat="32.837821112924956" lon="-4.957214557099999"><ele>1458.0</ele><time>2026-04-27T10:41:48.999Z</time></trkpt><trkpt lat="32.837966993865486" lon="-4.957072348279464"><ele>1458.0</ele><time>2026-04-27T10:41:49.999Z</time></trkpt><trkpt lat="32.838124489887214" lon="-4.956941571230802"><ele>1458.0</ele><time>2026-04-27T10:41:50.999Z</time></trkpt><trkpt lat="32.838292098912056" lon="-4.956801896561909"><ele>1458.0</ele><time>2026-04-27T10:41:51.999Z</time></trkpt><trkpt lat="32.838494914671685" lon="-4.956632883674103"><ele>1458.0</ele><time>2026-04-27T10:41:52.999Z</time></trkpt><trkpt lat="32.83872566289209" lon="-4.956440078620371"><ele>1458.0</ele><time>2026-04-27T10:41:53.999Z</time></trkpt><trkpt lat="32.838981708061596" lon="-4.956226092278005"><ele>1458.0</ele><time>2026-04-27T10:41:54.999Z</time></trkpt><trkpt lat="32.83924086335724" lon="-4.956009275632538"><ele>1457.0</ele><time>2026-04-27T10:41:55.999Z</time></trkpt><trkpt lat="32.839488561382474" lon="-4.9558018754268165"><ele>1456.0</ele><time>2026-04-27T10:41:56.999Z</time></trkpt><trkpt lat="32.83971677811176" lon="-4.9556107871357185"><ele>1456.0</ele><time>2026-04-27T10:41:57.999Z</time></trkpt><trkpt lat="32.83993150024246" lon="-4.955430998133144"><ele>1456.0</ele><time>2026-04-27T10:41:58.999Z</time></trkpt><trkpt lat="32.84013973512963" lon="-4.955256640757557"><ele>1456.0</ele><time>2026-04-27T10:41:59.999Z</time></trkpt><trkpt lat="32.8403588700418" lon="-4.955095066836288"><ele>1456.0</ele><time>2026-04-27T10:42:00.999Z</time></trkpt><trkpt lat="32.84056851576131" lon="-4.9549210133660075"><ele>1455.5</ele><time>2026-04-27T10:42:01.999Z</time></trkpt><trkpt lat="32.840775954962396" lon="-4.954749356390421"><ele>1455.0</ele><time>2026-04-27T10:42:02.999Z</time></trkpt><trkpt lat="32.840974315744916" lon="-4.954562563422274"><ele>1454.0</ele><time>2026-04-27T10:42:03.999Z</time></trkpt><trkpt lat="32.84119454261709" lon="-4.954402901624757"><ele>1453.0</ele><time>2026-04-27T10:42:04.999Z</time></trkpt><trkpt lat="32.84140786945525" lon="-4.954224905644121"><ele>1452.5</ele><time>2026-04-27T10:42:05.999Z</time></trkpt><trkpt lat="32.841619954669376" lon="-4.954048524894335"><ele>1452.0</ele><time>2026-04-27T10:42:06.999Z</time></trkpt><trkpt lat="32.84182316329716" lon="-4.953854761399439"><ele>1454.0</ele><time>2026-04-27T10:42:07.999Z</time></trkpt><trkpt lat="32.84204867817954" lon="-4.953690219060997"><ele>1456.0</ele><time>2026-04-27T10:42:08.999Z</time></trkpt><trkpt lat="32.84225669342615" lon="-4.953492555128111"><ele>1456.0</ele><time>2026-04-27T10:42:09.999Z</time></trkpt><trkpt lat="32.842473041806265" lon="-4.953312377453475"><ele>1456.0</ele><time>2026-04-27T10:42:10.999Z</time></trkpt><trkpt lat="32.842692979016086" lon="-4.953129550276811"><ele>1456.0</ele><time>2026-04-27T10:42:11.999Z</time></trkpt><trkpt lat="32.842912121685906" lon="-4.952949616859254"><ele>1456.0</ele><time>2026-04-27T10:42:12.999Z</time></trkpt><trkpt lat="32.843123973627904" lon="-4.952775415816453"><ele>1456.0</ele><time>2026-04-27T10:42:13.999Z</time></trkpt><trkpt lat="32.84333489972626" lon="-4.952605857718927"><ele>1456.0</ele><time>2026-04-27T10:42:14.999Z</time></trkpt><trkpt lat="32.84355318535695" lon="-4.952444989045397"><ele>1455.5</ele><time>2026-04-27T10:42:15.999Z</time></trkpt><trkpt lat="32.8437811243451" lon="-4.952297808086992"><ele>1455.0</ele><time>2026-04-27T10:42:16.999Z</time></trkpt><trkpt lat="32.84401963740505" lon="-4.95217940211265"><ele>1455.0</ele><time>2026-04-27T10:42:17.999Z</time></trkpt><trkpt lat="32.844262293786386" lon="-4.952096184051314"><ele>1455.0</ele><time>2026-04-27T10:42:18.999Z</time></trkpt><trkpt lat="32.844506601428336" lon="-4.952005305608216"><ele>1452.5</ele><time>2026-04-27T10:42:19.999Z</time></trkpt><trkpt lat="32.844759907214886" lon="-4.951909559607336"><ele>1450.0</ele><time>2026-04-27T10:42:20.999Z</time></trkpt><trkpt lat="32.84501572467843" lon="-4.95184040596201"><ele>1452.5</ele><time>2026-04-27T10:42:21.999Z</time></trkpt><trkpt lat="32.84526348534383" lon="-4.951766510106049"><ele>1455.0</ele><time>2026-04-27T10:42:22.999Z</time></trkpt><trkpt lat="32.845505440483116" lon="-4.951685700683854"><ele>1455.5</ele><time>2026-04-27T10:42:23.999Z</time></trkpt><trkpt lat="32.84573934630498" lon="-4.951608909911252"><ele>1456.0</ele><time>2026-04-27T10:42:24.999Z</time></trkpt><trkpt lat="32.84596492613895" lon="-4.951523257437323"><ele>1454.5</ele><time>2026-04-27T10:42:25.999Z</time></trkpt><trkpt lat="32.84617514460428" lon="-4.951417869152644"><ele>1453.0</ele><time>2026-04-27T10:42:26.999Z</time></trkpt><trkpt lat="32.846383513996" lon="-4.951304353798824"><ele>1453.0</ele><time>2026-04-27T10:42:27.999Z</time></trkpt><trkpt lat="32.84658988987349" lon="-4.951172737286415"><ele>1453.0</ele><time>2026-04-27T10:42:28.999Z</time></trkpt><trkpt lat="32.846791683741046" lon="-4.951027144660594"><ele>1451.5</ele><time>2026-04-27T10:42:29.999Z</time></trkpt><trkpt lat="32.84699474251507" lon="-4.950859575393027"><ele>1450.0</ele><time>2026-04-27T10:42:30.999Z</time></trkpt><trkpt lat="32.84718957116657" lon="-4.950673650375006"><ele>1450.0</ele><time>2026-04-27T10:42:31.999Z</time></trkpt><trkpt lat="32.84736976836188" lon="-4.950474499576806"><ele>1450.0</ele><time>2026-04-27T10:42:32.999Z</time></trkpt><trkpt lat="32.84753772733076" lon="-4.950273816463695"><ele>1449.0</ele><time>2026-04-27T10:42:33.999Z</time></trkpt><trkpt lat="32.84769298174341" lon="-4.950070856758355"><ele>1448.0</ele><time>2026-04-27T10:42:34.999Z</time></trkpt><trkpt lat="32.84784770628153" lon="-4.949878145015717"><ele>1447.3333333333335</ele><time>2026-04-27T10:42:35.999Z</time></trkpt><trkpt lat="32.84800022540489" lon="-4.94969879676996"><ele>1446.6666666666667</ele><time>2026-04-27T10:42:36.999Z</time></trkpt><trkpt lat="32.848151484074606" lon="-4.949525517216581"><ele>1446.0</ele><time>2026-04-27T10:42:37.998Z</time></trkpt><trkpt lat="32.84830207965317" lon="-4.949361649396088"><ele>1446.0</ele><time>2026-04-27T10:42:38.998Z</time></trkpt><trkpt lat="32.84845555843178" lon="-4.949208467507746"><ele>1446.0</ele><time>2026-04-27T10:42:39.998Z</time></trkpt><trkpt lat="32.84861625953417" lon="-4.949061638218808"><ele>1446.0</ele><time>2026-04-27T10:42:41Z</time></trkpt><trkpt lat="32.848783122613284" lon="-4.948923854968511"><ele>1446.0</ele><time>2026-04-27T10:42:42Z</time></trkpt><trkpt lat="32.84895741291193" lon="-4.948805222793579"><ele>1446.0</ele><time>2026-04-27T10:42:43Z</time></trkpt><trkpt lat="32.84911865857037" lon="-4.948704275883378"><ele>1446.0</ele><time>2026-04-27T10:42:44Z</time></trkpt><trkpt lat="32.849272085914215" lon="-4.948615403059275"><ele>1446.6666666666667</ele><time>2026-04-27T10:42:45Z</time></trkpt><trkpt lat="32.84942431508852" lon="-4.9485337231487865"><ele>1447.3333333333335</ele><time>2026-04-27T10:42:46Z</time></trkpt><trkpt lat="32.84958266852244" lon="-4.948461428323547"><ele>1448.0</ele><time>2026-04-27T10:42:47Z</time></trkpt><trkpt lat="32.8497471377281" lon="-4.948391327799276"><ele>1448.0</ele><time>2026-04-27T10:42:48Z</time></trkpt><trkpt lat="32.84993788530976" lon="-4.948365445079072"><ele>1448.0</ele><time>2026-04-27T10:42:49Z</time></trkpt><trkpt lat="32.8501189097546" lon="-4.9483161422098565"><ele>1448.0</ele><time>2026-04-27T10:42:50Z</time></trkpt><trkpt lat="32.850300651488055" lon="-4.9482729774582035"><ele>1448.0</ele><time>2026-04-27T10:42:51Z</time></trkpt><trkpt lat="32.85048561178613" lon="-4.948234993808481"><ele>1448.0</ele><time>2026-04-27T10:42:52Z</time></trkpt><trkpt lat="32.85066209031161" lon="-4.948162702057592"><ele>1448.0</ele><time>2026-04-27T10:42:53Z</time></trkpt><trkpt lat="32.850840100864936" lon="-4.948131004370252"><ele>1448.0</ele><time>2026-04-27T10:42:54Z</time></trkpt><trkpt lat="32.85101559757661" lon="-4.948099754306051"><ele>1448.0</ele><time>2026-04-27T10:42:55Z</time></trkpt><trkpt lat="32.851187982118695" lon="-4.948068860804195"><ele>1448.0</ele><time>2026-04-27T10:42:56Z</time></trkpt><trkpt lat="32.851354714597" lon="-4.948038253740646"><ele>1448.0</ele><time>2026-04-27T10:42:57Z</time></trkpt><trkpt lat="32.851520045391354" lon="-4.948008588311049"><ele>1448.0</ele><time>2026-04-27T10:42:58Z</time></trkpt><trkpt lat="32.851683851210375" lon="-4.947979296048273"><ele>1448.0</ele><time>2026-04-27T10:42:59Z</time></trkpt><trkpt lat="32.85184432916321" lon="-4.947950598889156"><ele>1448.0</ele><time>2026-04-27T10:43:00Z</time></trkpt><trkpt lat="32.85200896715592" lon="-4.9479211573422806"><ele>1448.0</ele><time>2026-04-27T10:43:01Z</time></trkpt><trkpt lat="32.8521782673278" lon="-4.947890881826226"><ele>1448.0</ele><time>2026-04-27T10:43:02Z</time></trkpt><trkpt lat="32.852361052329485" lon="-4.947858194852495"><ele>1448.0</ele><time>2026-04-27T10:43:03Z</time></trkpt><trkpt lat="32.85255837024363" lon="-4.947840271578335"><ele>1448.0</ele><time>2026-04-27T10:43:04Z</time></trkpt><trkpt lat="32.852763665848215" lon="-4.947790026924362"><ele>1448.0</ele><time>2026-04-27T10:43:04.999Z</time></trkpt><trkpt lat="32.85297538046632" lon="-4.947732562097627"><ele>1449.0</ele><time>2026-04-27T10:43:05.999Z</time></trkpt><trkpt lat="32.85320272894389" lon="-4.947666618453386"><ele>1450.0</ele><time>2026-04-27T10:43:06.999Z</time></trkpt><trkpt lat="32.85345432855513" lon="-4.947589773064076"><ele>1449.0</ele><time>2026-04-27T10:43:07.999Z</time></trkpt><trkpt lat="32.853723680485416" lon="-4.947505936779958"><ele>1448.0</ele><time>2026-04-27T10:43:08.999Z</time></trkpt><trkpt lat="32.854023305087516" lon="-4.947408931007184"><ele>1449.0</ele><time>2026-04-27T10:43:09.999Z</time></trkpt><trkpt lat="32.8543527632431" lon="-4.947298220967567"><ele>1450.0</ele><time>2026-04-27T10:43:10.999Z</time></trkpt><trkpt lat="32.85470373654706" lon="-4.947178589794844"><ele>1450.0</ele><time>2026-04-27T10:43:11.999Z</time></trkpt><trkpt lat="32.855073703135055" lon="-4.947056507502605"><ele>1450.0</ele><time>2026-04-27T10:43:12.999Z</time></trkpt><trkpt lat="32.85545181458135" lon="-4.946932486560553"><ele>1451.0</ele><time>2026-04-27T10:43:13.999Z</time></trkpt><trkpt lat="32.85585795885707" lon="-4.946795394005697"><ele>1452.0</ele><time>2026-04-27T10:43:14.999Z</time></trkpt><trkpt lat="32.85626468037627" lon="-4.946651903475859"><ele>1452.5</ele><time>2026-04-27T10:43:15.999Z</time></trkpt><trkpt lat="32.85663793158698" lon="-4.946519470482283"><ele>1453.0</ele><time>2026-04-27T10:43:16.999Z</time></trkpt><trkpt lat="32.856985566206156" lon="-4.946398828256064"><ele>1455.0</ele><time>2026-04-27T10:43:17.999Z</time></trkpt><trkpt lat="32.85731075997812" lon="-4.946285409566029"><ele>1457.0</ele><time>2026-04-27T10:43:18.999Z</time></trkpt><trkpt lat="32.85761989262948" lon="-4.946180469898079"><ele>1458.5</ele><time>2026-04-27T10:43:19.999Z</time></trkpt><trkpt lat="32.85790997916108" lon="-4.946086365303133"><ele>1460.0</ele><time>2026-04-27T10:43:20.999Z</time></trkpt><trkpt lat="32.8581825619475" lon="-4.945998488902485"><ele>1460.5</ele><time>2026-04-27T10:43:21.999Z</time></trkpt><trkpt lat="32.85845656786728" lon="-4.945912086767323"><ele>1461.0</ele><time>2026-04-27T10:43:22.999Z</time></trkpt><trkpt lat="32.85873541520193" lon="-4.945830003681825"><ele>1461.0</ele><time>2026-04-27T10:43:23.999Z</time></trkpt><trkpt lat="32.85903459826155" lon="-4.9457572803090475"><ele>1461.0</ele><time>2026-04-27T10:43:24.999Z</time></trkpt><trkpt lat="32.85933521661373" lon="-4.945701749708164"><ele>1459.5</ele><time>2026-04-27T10:43:25.999Z</time></trkpt><trkpt lat="32.85962290129702" lon="-4.945643895456127"><ele>1458.0</ele><time>2026-04-27T10:43:26.999Z</time></trkpt><trkpt lat="32.85990540044849" lon="-4.945584020464551"><ele>1458.5</ele><time>2026-04-27T10:43:27.999Z</time></trkpt><trkpt lat="32.860175134753625" lon="-4.945528989946678"><ele>1459.0</ele><time>2026-04-27T10:43:28.999Z</time></trkpt><trkpt lat="32.86044411969024" lon="-4.945476457460442"><ele>1459.0</ele><time>2026-04-27T10:43:29.999Z</time></trkpt><trkpt lat="32.860719416588395" lon="-4.945425536586878"><ele>1459.0</ele><time>2026-04-27T10:43:30.999Z</time></trkpt><trkpt lat="32.86099108421985" lon="-4.945373547203505"><ele>1458.5</ele><time>2026-04-27T10:43:31.999Z</time></trkpt><trkpt lat="32.86125660336915" lon="-4.94531867790333"><ele>1458.0</ele><time>2026-04-27T10:43:32.999Z</time></trkpt><trkpt lat="32.86151338768401" lon="-4.945261945232789"><ele>1458.0</ele><time>2026-04-27T10:43:33.999Z</time></trkpt><trkpt lat="32.86176448910225" lon="-4.945205227348627"><ele>1458.0</ele><time>2026-04-27T10:43:34.999Z</time></trkpt><trkpt lat="32.862016238148016" lon="-4.945147029016127"><ele>1458.0</ele><time>2026-04-27T10:43:35.999Z</time></trkpt><trkpt lat="32.86226425860221" lon="-4.94509165221193"><ele>1458.0</ele><time>2026-04-27T10:43:36.999Z</time></trkpt><trkpt lat="32.86251420617374" lon="-4.945037215365141"><ele>1459.5</ele><time>2026-04-27T10:43:37.999Z</time></trkpt><trkpt lat="32.86277734830016" lon="-4.9449838021319446"><ele>1461.0</ele><time>2026-04-27T10:43:38.999Z</time></trkpt><trkpt lat="32.86305182406069" lon="-4.944931088018939"><ele>1461.0</ele><time>2026-04-27T10:43:39.999Z</time></trkpt><trkpt lat="32.863337590435954" lon="-4.944877972040139"><ele>1461.0</ele><time>2026-04-27T10:43:40.999Z</time></trkpt><trkpt lat="32.86362851603666" lon="-4.9448280831513145"><ele>1463.0</ele><time>2026-04-27T10:43:41.999Z</time></trkpt><trkpt lat="32.86392190831297" lon="-4.944777789143861"><ele>1465.0</ele><time>2026-04-27T10:43:42.999Z</time></trkpt><trkpt lat="32.864214795103805" lon="-4.944727168285544"><ele>1465.5</ele><time>2026-04-27T10:43:43.999Z</time></trkpt><trkpt lat="32.864515295778574" lon="-4.944671810838932"><ele>1466.0</ele><time>2026-04-27T10:43:44.999Z</time></trkpt><trkpt lat="32.864823199160725" lon="-4.944613232641126"><ele>1467.0</ele><time>2026-04-27T10:43:45.999Z</time></trkpt><trkpt lat="32.86513942007055" lon="-4.944555175477012"><ele>1468.0</ele><time>2026-04-27T10:43:46.999Z</time></trkpt><trkpt lat="32.86546330863833" lon="-4.944493138395056"><ele>1468.0</ele><time>2026-04-27T10:43:47.999Z</time></trkpt><trkpt lat="32.86579230686996" lon="-4.9444279087834735"><ele>1468.0</ele><time>2026-04-27T10:43:48.999Z</time></trkpt><trkpt lat="32.866116492316145" lon="-4.944363838238573"><ele>1468.5</ele><time>2026-04-27T10:43:49.999Z</time></trkpt><trkpt lat="32.866431491792774" lon="-4.944300307378434"><ele>1469.0</ele><time>2026-04-27T10:43:50.999Z</time></trkpt><trkpt lat="32.866736052927166" lon="-4.9442364331117465"><ele>1468.0</ele><time>2026-04-27T10:43:51.999Z</time></trkpt><trkpt lat="32.86702927717561" lon="-4.944177193108844"><ele>1467.0</ele><time>2026-04-27T10:43:52.999Z</time></trkpt><trkpt lat="32.86731912401951" lon="-4.9441211998329235"><ele>1468.0</ele><time>2026-04-27T10:43:53.999Z</time></trkpt><trkpt lat="32.86761044984533" lon="-4.944067013434382"><ele>1469.0</ele><time>2026-04-27T10:43:54.999Z</time></trkpt><trkpt lat="32.867909465041016" lon="-4.944017515808733"><ele>1469.0</ele><time>2026-04-27T10:43:55.999Z</time></trkpt><trkpt lat="32.86821826495528" lon="-4.943974861534026"><ele>1469.0</ele><time>2026-04-27T10:43:56.999Z</time></trkpt><trkpt lat="32.86853242454409" lon="-4.943947410187455"><ele>1468.5</ele><time>2026-04-27T10:43:57.999Z</time></trkpt><trkpt lat="32.868842360635966" lon="-4.943927394397511"><ele>1468.0</ele><time>2026-04-27T10:43:58.999Z</time></trkpt><trkpt lat="32.86914475139433" lon="-4.943907907067074"><ele>1470.0</ele><time>2026-04-27T10:43:59.999Z</time></trkpt><trkpt lat="32.86943411944371" lon="-4.94389043974022"><ele>1472.0</ele><time>2026-04-27T10:44:00.999Z</time></trkpt><trkpt lat="32.86970823302642" lon="-4.943873692915303"><ele>1472.0</ele><time>2026-04-27T10:44:01.999Z</time></trkpt><trkpt lat="32.86996808478508" lon="-4.9438623537160895"><ele>1472.0</ele><time>2026-04-27T10:44:02.999Z</time></trkpt><trkpt lat="32.87021766231856" lon="-4.9438626629398845"><ele>1472.0</ele><time>2026-04-27T10:44:03.999Z</time></trkpt><trkpt lat="32.870474541727866" lon="-4.94386440848141"><ele>1472.0</ele><time>2026-04-27T10:44:04.999Z</time></trkpt><trkpt lat="32.8707394680759" lon="-4.943933196017668"><ele>1470.0</ele><time>2026-04-27T10:44:05.999Z</time></trkpt><trkpt lat="32.87100980856323" lon="-4.944000787834747"><ele>1468.0</ele><time>2026-04-27T10:44:06.999Z</time></trkpt><trkpt lat="32.87128293349706" lon="-4.94407771541926"><ele>1468.0</ele><time>2026-04-27T10:44:07.999Z</time></trkpt><trkpt lat="32.871550310633516" lon="-4.944156911225789"><ele>1468.0</ele><time>2026-04-27T10:44:08.999Z</time></trkpt><trkpt lat="32.87180956867858" lon="-4.944234671883175"><ele>1468.0</ele><time>2026-04-27T10:44:09.999Z</time></trkpt><trkpt lat="32.87205473449168" lon="-4.944309498983666"><ele>1468.0</ele><time>2026-04-27T10:44:10.999Z</time></trkpt><trkpt lat="32.872289715512565" lon="-4.94438226033688"><ele>1468.0</ele><time>2026-04-27T10:44:11.999Z</time></trkpt><trkpt lat="32.872514176429235" lon="-4.944450703110008"><ele>1468.0</ele><time>2026-04-27T10:44:12.999Z</time></trkpt><trkpt lat="32.87273055228251" lon="-4.944514097027769"><ele>1467.0</ele><time>2026-04-27T10:44:13.999Z</time></trkpt><trkpt lat="32.87293727219327" lon="-4.944573539602661"><ele>1466.0</ele><time>2026-04-27T10:44:14.999Z</time></trkpt><trkpt lat="32.87313805643972" lon="-4.944632684420855"><ele>1465.0</ele><time>2026-04-27T10:44:15.999Z</time></trkpt><trkpt lat="32.87333797990794" lon="-4.944692850702683"><ele>1465.3333333333333</ele><time>2026-04-27T10:44:16.999Z</time></trkpt><trkpt lat="32.873536707084675" lon="-4.944751554809995"><ele>1465.6666666666667</ele><time>2026-04-27T10:44:17.999Z</time></trkpt><trkpt lat="32.87373588973625" lon="-4.944811433274531"><ele>1466.0</ele><time>2026-04-27T10:44:18.999Z</time></trkpt><trkpt lat="32.873933694307105" lon="-4.944871395859037"><ele>1466.0</ele><time>2026-04-27T10:44:19.999Z</time></trkpt><trkpt lat="32.87413147450784" lon="-4.944931616515531"><ele>1466.0</ele><time>2026-04-27T10:44:20.999Z</time></trkpt><trkpt lat="32.87432226953164" lon="-4.944991070316829"><ele>1466.0</ele><time>2026-04-27T10:44:21.999Z</time></trkpt><trkpt lat="32.87451013318677" lon="-4.945048081119159"><ele>1468.3333333333335</ele><time>2026-04-27T10:44:22.999Z</time></trkpt><trkpt lat="32.87470035174369" lon="-4.945102430175696"><ele>1470.6666666666667</ele><time>2026-04-27T10:44:23.999Z</time></trkpt><trkpt lat="32.874889984273054" lon="-4.945154469382088"><ele>1473.0</ele><time>2026-04-27T10:44:24.999Z</time></trkpt><trkpt lat="32.87507616596519" lon="-4.9452083867165175"><ele>1471.3333333333333</ele><time>2026-04-27T10:44:25.999Z</time></trkpt><trkpt lat="32.875257967230226" lon="-4.94526607083893"><ele>1469.6666666666665</ele><time>2026-04-27T10:44:26.999Z</time></trkpt><trkpt lat="32.87543909271312" lon="-4.945326735508963"><ele>1468.0</ele><time>2026-04-27T10:44:27.999Z</time></trkpt><trkpt lat="32.87562050692014" lon="-4.945391004492202"><ele>1468.0</ele><time>2026-04-27T10:44:28.999Z</time></trkpt><trkpt lat="32.875799927923346" lon="-4.945463765151124"><ele>1468.0</ele><time>2026-04-27T10:44:29.999Z</time></trkpt><trkpt lat="32.875978587928195" lon="-4.9455511334559255"><ele>1468.0</ele><time>2026-04-27T10:44:30.999Z</time></trkpt><trkpt lat="32.876151249052334" lon="-4.945651239497953"><ele>1467.6666666666665</ele><time>2026-04-27T10:44:31.999Z</time></trkpt><trkpt lat="32.876319747674025" lon="-4.9457606934738125"><ele>1467.3333333333333</ele><time>2026-04-27T10:44:32.999Z</time></trkpt><trkpt lat="32.87648554921826" lon="-4.945873142695008"><ele>1467.0</ele><time>2026-04-27T10:44:33.999Z</time></trkpt><trkpt lat="32.87664826325998" lon="-4.945992011530837"><ele>1467.0</ele><time>2026-04-27T10:44:34.999Z</time></trkpt><trkpt lat="32.87680703426142" lon="-4.946121094542411"><ele>1467.0</ele><time>2026-04-27T10:44:35.999Z</time></trkpt><trkpt lat="32.87696243439976" lon="-4.946259756465166"><ele>1467.0</ele><time>2026-04-27T10:44:36.999Z</time></trkpt><trkpt lat="32.8771088044768" lon="-4.946399326385284"><ele>1467.0</ele><time>2026-04-27T10:44:37.999Z</time></trkpt><trkpt lat="32.87724157518009" lon="-4.946536690536731"><ele>1467.0</ele><time>2026-04-27T10:44:38.999Z</time></trkpt><trkpt lat="32.87736597968433" lon="-4.946673056227493"><ele>1467.0</ele><time>2026-04-27T10:44:39.999Z</time></trkpt><trkpt lat="32.877477625622184" lon="-4.946806324367848"><ele>1467.0</ele><time>2026-04-27T10:44:40.999Z</time></trkpt><trkpt lat="32.877583796081375" lon="-4.946941058338801"><ele>1467.0</ele><time>2026-04-27T10:44:41.999Z</time></trkpt><trkpt lat="32.87768082590094" lon="-4.94707572012057"><ele>1467.0</ele><time>2026-04-27T10:44:42.999Z</time></trkpt><trkpt lat="32.87777679259129" lon="-4.947209176800045"><ele>1466.75</ele><time>2026-04-27T10:44:43.998Z</time></trkpt><trkpt lat="32.87786329034907" lon="-4.947334939866983"><ele>1466.5</ele><time>2026-04-27T10:44:44.998Z</time></trkpt><trkpt lat="32.877948033197434" lon="-4.947459745039257"><ele>1466.25</ele><time>2026-04-27T10:44:45.998Z</time></trkpt><trkpt lat="32.87803096530046" lon="-4.947582333346604"><ele>1466.0</ele><time>2026-04-27T10:44:47Z</time></trkpt><trkpt lat="32.87811162633456" lon="-4.947706174453709"><ele>1466.0</ele><time>2026-04-27T10:44:48Z</time></trkpt><trkpt lat="32.87819469554392" lon="-4.94783398301713"><ele>1466.0</ele><time>2026-04-27T10:44:49Z</time></trkpt><trkpt lat="32.87827967789272" lon="-4.947964550960139"><ele>1466.0</ele><time>2026-04-27T10:44:50Z</time></trkpt><trkpt lat="32.87836555108466" lon="-4.948097692493956"><ele>1466.0</ele><time>2026-04-27T10:44:51Z</time></trkpt><trkpt lat="32.87844674156323" lon="-4.94823022129116"><ele>1465.75</ele><time>2026-04-27T10:44:52Z</time></trkpt><trkpt lat="32.87852843551833" lon="-4.948360145237348"><ele>1465.5</ele><time>2026-04-27T10:44:53Z</time></trkpt><trkpt lat="32.87861142461483" lon="-4.94848691187852"><ele>1465.25</ele><time>2026-04-27T10:44:54Z</time></trkpt><trkpt lat="32.87869181518105" lon="-4.948614575828437"><ele>1465.0</ele><time>2026-04-27T10:44:55Z</time></trkpt><trkpt lat="32.8787714918786" lon="-4.948744246660664"><ele>1465.0</ele><time>2026-04-27T10:44:56Z</time></trkpt><trkpt lat="32.87885287487633" lon="-4.948881592061591"><ele>1465.0</ele><time>2026-04-27T10:44:57Z</time></trkpt><trkpt lat="32.87894151788192" lon="-4.949035413976828"><ele>1465.0</ele><time>2026-04-27T10:44:58Z</time></trkpt><trkpt lat="32.879055799471885" lon="-4.9491841382362205"><ele>1465.3333333333333</ele><time>2026-04-27T10:44:59Z</time></trkpt><trkpt lat="32.87916650686762" lon="-4.949351983435815"><ele>1465.6666666666667</ele><time>2026-04-27T10:45:00Z</time></trkpt><trkpt lat="32.879285543820046" lon="-4.949532746067642"><ele>1466.0</ele><time>2026-04-27T10:45:01Z</time></trkpt><trkpt lat="32.87941122461509" lon="-4.949722770490005"><ele>1466.0</ele><time>2026-04-27T10:45:02Z</time></trkpt><trkpt lat="32.879544007584535" lon="-4.949923570718048"><ele>1466.0</ele><time>2026-04-27T10:45:03Z</time></trkpt><trkpt lat="32.87967963929212" lon="-4.950132316797969"><ele>1466.0</ele><time>2026-04-27T10:45:04Z</time></trkpt><trkpt lat="32.879813074109556" lon="-4.950339267987149"><ele>1466.0</ele><time>2026-04-27T10:45:05Z</time></trkpt><trkpt lat="32.879948495279656" lon="-4.950549330242993"><ele>1466.0</ele><time>2026-04-27T10:45:06Z</time></trkpt><trkpt lat="32.88006371692289" lon="-4.950775747653637"><ele>1466.0</ele><time>2026-04-27T10:45:07Z</time></trkpt><trkpt lat="32.88019563969015" lon="-4.950981723762429"><ele>1466.0</ele><time>2026-04-27T10:45:08Z</time></trkpt><trkpt lat="32.88032987920058" lon="-4.951189429765608"><ele>1466.0</ele><time>2026-04-27T10:45:09Z</time></trkpt><trkpt lat="32.880462074628106" lon="-4.951397374030997"><ele>1466.0</ele><time>2026-04-27T10:45:10Z</time></trkpt><trkpt lat="32.880589910975836" lon="-4.95160384263289"><ele>1466.3333333333335</ele><time>2026-04-27T10:45:11Z</time></trkpt><trkpt lat="32.880716024549386" lon="-4.951808690996757"><ele>1466.6666666666667</ele><time>2026-04-27T10:45:12Z</time></trkpt><trkpt lat="32.88084385369771" lon="-4.952013589313302"><ele>1467.0</ele><time>2026-04-27T10:45:13Z</time></trkpt><trkpt lat="32.88097774019945" lon="-4.952218306184931"><ele>1468.3333333333333</ele><time>2026-04-27T10:45:14Z</time></trkpt><trkpt lat="32.88111106839555" lon="-4.952416015525719"><ele>1469.6666666666665</ele><time>2026-04-27T10:45:15Z</time></trkpt><trkpt lat="32.881242956808066" lon="-4.9526096207863395"><ele>1471.0</ele><time>2026-04-27T10:45:16Z</time></trkpt><trkpt lat="32.88137053543368" lon="-4.952805706504425"><ele>1472.0</ele><time>2026-04-27T10:45:17Z</time></trkpt><trkpt lat="32.88148949089973" lon="-4.953002799525864"><ele>1473.0</ele><time>2026-04-27T10:45:17.999Z</time></trkpt><trkpt lat="32.88160349661212" lon="-4.953205361740434"><ele>1474.0</ele><time>2026-04-27T10:45:18.999Z</time></trkpt><trkpt lat="32.88171418569568" lon="-4.953416893110974"><ele>1475.3333333333333</ele><time>2026-04-27T10:45:19.999Z</time></trkpt><trkpt lat="32.8818188163346" lon="-4.953636801828629"><ele>1476.6666666666667</ele><time>2026-04-27T10:45:20.999Z</time></trkpt><trkpt lat="32.88191918174418" lon="-4.953862934885268"><ele>1478.0</ele><time>2026-04-27T10:45:21.999Z</time></trkpt><trkpt lat="32.88201780977971" lon="-4.954094858606661"><ele>1479.3333333333335</ele><time>2026-04-27T10:45:22.999Z</time></trkpt><trkpt lat="32.882112141889436" lon="-4.9543360419433755"><ele>1480.6666666666667</ele><time>2026-04-27T10:45:23.999Z</time></trkpt><trkpt lat="32.88220371679577" lon="-4.954581168040068"><ele>1482.0</ele><time>2026-04-27T10:45:24.999Z</time></trkpt><trkpt lat="32.882296849922376" lon="-4.954824773742078"><ele>1482.3333333333333</ele><time>2026-04-27T10:45:25.999Z</time></trkpt><trkpt lat="32.88239315033606" lon="-4.95506715495895"><ele>1482.6666666666665</ele><time>2026-04-27T10:45:26.999Z</time></trkpt><trkpt lat="32.882489402452556" lon="-4.955306193361033"><ele>1483.0</ele><time>2026-04-27T10:45:27.999Z</time></trkpt><trkpt lat="32.88258645324825" lon="-4.95554496735892"><ele>1483.6666666666665</ele><time>2026-04-27T10:45:28.999Z</time></trkpt><trkpt lat="32.882678536567155" lon="-4.955771325372068"><ele>1484.3333333333333</ele><time>2026-04-27T10:45:29.999Z</time></trkpt><trkpt lat="32.882766003278256" lon="-4.955992023264867"><ele>1485.0</ele><time>2026-04-27T10:45:30.999Z</time></trkpt><trkpt lat="32.88284881555603" lon="-4.9562053552270955"><ele>1485.6666666666667</ele><time>2026-04-27T10:45:31.999Z</time></trkpt><trkpt lat="32.88292859846816" lon="-4.956407396661676"><ele>1486.3333333333335</ele><time>2026-04-27T10:45:32.999Z</time></trkpt><trkpt lat="32.88300500429194" lon="-4.956600665709697"><ele>1487.0</ele><time>2026-04-27T10:45:33.999Z</time></trkpt><trkpt lat="32.883081089884044" lon="-4.9567868487282745"><ele>1487.6666666666667</ele><time>2026-04-27T10:45:34.999Z</time></trkpt><trkpt lat="32.8831534272132" lon="-4.95697003508169"><ele>1488.3333333333333</ele><time>2026-04-27T10:45:35.999Z</time></trkpt><trkpt lat="32.88322752791504" lon="-4.957149076084147"><ele>1489.0</ele><time>2026-04-27T10:45:36.999Z</time></trkpt><trkpt lat="32.88329976587113" lon="-4.957312569173242"><ele>1489.0</ele><time>2026-04-27T10:45:37.999Z</time></trkpt><trkpt lat="32.883378552100034" lon="-4.957459262898938"><ele>1489.0</ele><time>2026-04-27T10:45:38.999Z</time></trkpt><trkpt lat="32.883455507662674" lon="-4.957585640767594"><ele>1489.0</ele><time>2026-04-27T10:45:39.999Z</time></trkpt><trkpt lat="32.88353087173732" lon="-4.957696915027972"><ele>1489.0</ele><time>2026-04-27T10:45:40.999Z</time></trkpt><trkpt lat="32.883609507437534" lon="-4.957801044943934"><ele>1490.5</ele><time>2026-04-27T10:45:41.999Z</time></trkpt><trkpt lat="32.883692496186" lon="-4.957901642949534"><ele>1492.0</ele><time>2026-04-27T10:45:42.999Z</time></trkpt><trkpt lat="32.88380869350699" lon="-4.957964463019854"><ele>1493.5</ele><time>2026-04-27T10:45:43.999Z</time></trkpt><trkpt lat="32.88389985307418" lon="-4.958057012501071"><ele>1495.0</ele><time>2026-04-27T10:45:44.999Z</time></trkpt><trkpt lat="32.88398667544414" lon="-4.958138308383129"><ele>1495.0</ele><time>2026-04-27T10:45:45.999Z</time></trkpt><trkpt lat="32.88406390504039" lon="-4.958210913404968"><ele>1495.0</ele><time>2026-04-27T10:45:46.999Z</time></trkpt><trkpt lat="32.8841332438706" lon="-4.958276580104502"><ele>1495.0</ele><time>2026-04-27T10:45:47.999Z</time></trkpt><trkpt lat="32.88420156897382" lon="-4.9583412866857"><ele>1495.0</ele><time>2026-04-27T10:45:48.999Z</time></trkpt><trkpt lat="32.88426663027031" lon="-4.958402639101882"><ele>1495.0</ele><time>2026-04-27T10:45:49.999Z</time></trkpt><trkpt lat="32.884334238901" lon="-4.958466190513579"><ele>1495.0</ele><time>2026-04-27T10:45:50.999Z</time></trkpt><trkpt lat="32.884403214823756" lon="-4.958531026493381"><ele>1495.6</ele><time>2026-04-27T10:45:51.999Z</time></trkpt><trkpt lat="32.88447527973525" lon="-4.958606392738206"><ele>1496.2</ele><time>2026-04-27T10:45:52.999Z</time></trkpt><trkpt lat="32.8845436735003" lon="-4.958684793230514"><ele>1496.8000000000002</ele><time>2026-04-27T10:45:53.999Z</time></trkpt><trkpt lat="32.88461886229191" lon="-4.9587711762020295"><ele>1497.4</ele><time>2026-04-27T10:45:54.999Z</time></trkpt><trkpt lat="32.884700003289986" lon="-4.958870232266558"><ele>1498.0</ele><time>2026-04-27T10:45:55.999Z</time></trkpt><trkpt lat="32.88476226641757" lon="-4.95897111235163"><ele>1498.0</ele><time>2026-04-27T10:45:56.999Z</time></trkpt><trkpt lat="32.88482251811663" lon="-4.959069531330817"><ele>1498.0</ele><time>2026-04-27T10:45:57.999Z</time></trkpt><trkpt lat="32.88488122910082" lon="-4.959165530017133"><ele>1498.0</ele><time>2026-04-27T10:45:58.999Z</time></trkpt><trkpt lat="32.88493299642619" lon="-4.959274008709917"><ele>1498.0</ele><time>2026-04-27T10:45:59.999Z</time></trkpt><trkpt lat="32.884980880194156" lon="-4.959379389910073"><ele>1498.0</ele><time>2026-04-27T10:46:00.999Z</time></trkpt><trkpt lat="32.885030550692015" lon="-4.959489145266326"><ele>1498.5</ele><time>2026-04-27T10:46:01.999Z</time></trkpt><trkpt lat="32.88507556574208" lon="-4.959613623062534"><ele>1499.0</ele><time>2026-04-27T10:46:02.999Z</time></trkpt><trkpt lat="32.88512732814301" lon="-4.959758600880465"><ele>1499.5</ele><time>2026-04-27T10:46:03.999Z</time></trkpt><trkpt lat="32.885179735439955" lon="-4.959936511442885"><ele>1500.0</ele><time>2026-04-27T10:46:04.999Z</time></trkpt><trkpt lat="32.88522648182832" lon="-4.960127225570668"><ele>1501.6666666666667</ele><time>2026-04-27T10:46:05.999Z</time></trkpt><trkpt lat="32.8852764885483" lon="-4.960328012110346"><ele>1503.3333333333335</ele><time>2026-04-27T10:46:06.999Z</time></trkpt><trkpt lat="32.88529791870563" lon="-4.960552166784464"><ele>1505.0</ele><time>2026-04-27T10:46:07.999Z</time></trkpt><trkpt lat="32.88532466803955" lon="-4.960782741620926"><ele>1505.6666666666667</ele><time>2026-04-27T10:46:08.999Z</time></trkpt><trkpt lat="32.885340548504544" lon="-4.961026118609733"><ele>1506.3333333333333</ele><time>2026-04-27T10:46:09.999Z</time></trkpt><trkpt lat="32.8853761685912" lon="-4.961278115506037"><ele>1507.0</ele><time>2026-04-27T10:46:10.999Z</time></trkpt><trkpt lat="32.88540861846506" lon="-4.961539537220262"><ele>1508.5</ele><time>2026-04-27T10:46:11.999Z</time></trkpt><trkpt lat="32.885441024833824" lon="-4.9618119150863995"><ele>1510.0</ele><time>2026-04-27T10:46:12.999Z</time></trkpt><trkpt lat="32.88547438150741" lon="-4.962090789159489"><ele>1510.0</ele><time>2026-04-27T10:46:13.999Z</time></trkpt><trkpt lat="32.88550945178752" lon="-4.96237413903614"><ele>1510.0</ele><time>2026-04-27T10:46:14.999Z</time></trkpt><trkpt lat="32.885544223261334" lon="-4.962662657572869"><ele>1511.5</ele><time>2026-04-27T10:46:15.999Z</time></trkpt><trkpt lat="32.885581049128035" lon="-4.962959558244518"><ele>1513.0</ele><time>2026-04-27T10:46:16.999Z</time></trkpt><trkpt lat="32.88561836764222" lon="-4.963258575859953"><ele>1512.5</ele><time>2026-04-27T10:46:17.999Z</time></trkpt><trkpt lat="32.88565516734769" lon="-4.9635641612835695"><ele>1512.0</ele><time>2026-04-27T10:46:18.999Z</time></trkpt><trkpt lat="32.885691735945464" lon="-4.963875702558902"><ele>1512.0</ele><time>2026-04-27T10:46:19.999Z</time></trkpt><trkpt lat="32.88572922295908" lon="-4.964191589670306"><ele>1512.0</ele><time>2026-04-27T10:46:20.999Z</time></trkpt><trkpt lat="32.88576719419921" lon="-4.964513933105214"><ele>1513.0</ele><time>2026-04-27T10:46:21.999Z</time></trkpt><trkpt lat="32.8858068870251" lon="-4.964847349184731"><ele>1514.0</ele><time>2026-04-27T10:46:22.999Z</time></trkpt><trkpt lat="32.88584719630751" lon="-4.965181891662854"><ele>1515.0</ele><time>2026-04-27T10:46:23.999Z</time></trkpt><trkpt lat="32.88588586858676" lon="-4.965507583391344"><ele>1516.0</ele><time>2026-04-27T10:46:24.999Z</time></trkpt><trkpt lat="32.88592164893561" lon="-4.965823524550468"><ele>1515.0</ele><time>2026-04-27T10:46:25.999Z</time></trkpt><trkpt lat="32.8859561951823" lon="-4.966122656560144"><ele>1514.0</ele><time>2026-04-27T10:46:26.999Z</time></trkpt><trkpt lat="32.885988810179526" lon="-4.966404104572767"><ele>1514.0</ele><time>2026-04-27T10:46:27.999Z</time></trkpt><trkpt lat="32.886019724702344" lon="-4.9666635614558015"><ele>1514.0</ele><time>2026-04-27T10:46:28.999Z</time></trkpt><trkpt lat="32.886046485072406" lon="-4.96689955908707"><ele>1514.0</ele><time>2026-04-27T10:46:29.999Z</time></trkpt><trkpt lat="32.88607199524419" lon="-4.967117546955364"><ele>1516.0</ele><time>2026-04-27T10:46:30.999Z</time></trkpt><trkpt lat="32.886095184669806" lon="-4.96732366821044"><ele>1518.0</ele><time>2026-04-27T10:46:31.999Z</time></trkpt><trkpt lat="32.88611651500463" lon="-4.96752023574846"><ele>1520.0</ele><time>2026-04-27T10:46:32.999Z</time></trkpt><trkpt lat="32.886136060344455" lon="-4.967713307898935"><ele>1520.5</ele><time>2026-04-27T10:46:33.999Z</time></trkpt><trkpt lat="32.88615781760404" lon="-4.9678975219427715"><ele>1521.0</ele><time>2026-04-27T10:46:34.999Z</time></trkpt><trkpt lat="32.886179274131635" lon="-4.968054458491533"><ele>1521.5</ele><time>2026-04-27T10:46:35.999Z</time></trkpt><trkpt lat="32.88619625022811" lon="-4.968190078289603"><ele>1522.0</ele><time>2026-04-27T10:46:36.999Z</time></trkpt><trkpt lat="32.886209115476895" lon="-4.968340281102141"><ele>1522.3333333333333</ele><time>2026-04-27T10:46:37.999Z</time></trkpt><trkpt lat="32.8862231945158" lon="-4.968522091672619"><ele>1522.6666666666667</ele><time>2026-04-27T10:46:38.999Z</time></trkpt><trkpt lat="32.88624649763137" lon="-4.968722565144741"><ele>1523.0</ele><time>2026-04-27T10:46:39.999Z</time></trkpt><trkpt lat="32.88627973403639" lon="-4.9689374186718185"><ele>1523.0</ele><time>2026-04-27T10:46:40.999Z</time></trkpt><trkpt lat="32.88631226254646" lon="-4.969165462416339"><ele>1523.0</ele><time>2026-04-27T10:46:41.999Z</time></trkpt><trkpt lat="32.88634273412833" lon="-4.969401600434395"><ele>1523.0</ele><time>2026-04-27T10:46:42.999Z</time></trkpt><trkpt lat="32.886368174184554" lon="-4.9696456596820555"><ele>1523.6666666666667</ele><time>2026-04-27T10:46:43.999Z</time></trkpt><trkpt lat="32.88638717982671" lon="-4.969905399573979"><ele>1524.3333333333333</ele><time>2026-04-27T10:46:44.999Z</time></trkpt><trkpt lat="32.88640364773086" lon="-4.97017642619183"><ele>1525.0</ele><time>2026-04-27T10:46:45.999Z</time></trkpt><trkpt lat="32.886419294143586" lon="-4.970456197404884"><ele>1526.5</ele><time>2026-04-27T10:46:46.999Z</time></trkpt><trkpt lat="32.886434610504736" lon="-4.970742532352739"><ele>1528.0</ele><time>2026-04-27T10:46:47.999Z</time></trkpt><trkpt lat="32.88645006319291" lon="-4.971036278426212"><ele>1528.5</ele><time>2026-04-27T10:46:48.999Z</time></trkpt><trkpt lat="32.88646389221468" lon="-4.971338291818144"><ele>1529.0</ele><time>2026-04-27T10:46:49.999Z</time></trkpt><trkpt lat="32.886477018131245" lon="-4.971645681675325"><ele>1529.0</ele><time>2026-04-27T10:46:50.999Z</time></trkpt><trkpt lat="32.886491158112094" lon="-4.9719606289010585"><ele>1529.0</ele><time>2026-04-27T10:46:51.999Z</time></trkpt><trkpt lat="32.88650796017392" lon="-4.97227120776902"><ele>1531.0</ele><time>2026-04-27T10:46:53Z</time></trkpt><trkpt lat="32.886523976889926" lon="-4.972576182006279"><ele>1533.0</ele><time>2026-04-27T10:46:54Z</time></trkpt><trkpt lat="32.88653924288208" lon="-4.972873731135523"><ele>1533.0</ele><time>2026-04-27T10:46:55Z</time></trkpt><trkpt lat="32.88655648197502" lon="-4.973178650588322"><ele>1533.0</ele><time>2026-04-27T10:46:56Z</time></trkpt><trkpt lat="32.88658199711635" lon="-4.973489748528848"><ele>1533.0</ele><time>2026-04-27T10:46:57Z</time></trkpt><trkpt lat="32.88662518260087" lon="-4.973811032199654"><ele>1533.0</ele><time>2026-04-27T10:46:58Z</time></trkpt><trkpt lat="32.886685996483266" lon="-4.974133332665487"><ele>1531.0</ele><time>2026-04-27T10:46:59Z</time></trkpt><trkpt lat="32.88676431468024" lon="-4.974457833346989"><ele>1529.0</ele><time>2026-04-27T10:47:00Z</time></trkpt><trkpt lat="32.886859327854715" lon="-4.974781780069663"><ele>1531.0</ele><time>2026-04-27T10:47:01Z</time></trkpt><trkpt lat="32.88695961441582" lon="-4.975107769658263"><ele>1533.0</ele><time>2026-04-27T10:47:02Z</time></trkpt><trkpt lat="32.88705886721263" lon="-4.975433810273138"><ele>1533.0</ele><time>2026-04-27T10:47:03Z</time></trkpt><trkpt lat="32.88715755800578" lon="-4.975756558781856"><ele>1533.0</ele><time>2026-04-27T10:47:04Z</time></trkpt><trkpt lat="32.887254500540664" lon="-4.976074035891929"><ele>1535.5</ele><time>2026-04-27T10:47:05Z</time></trkpt><trkpt lat="32.88735031872299" lon="-4.976389931385004"><ele>1538.0</ele><time>2026-04-27T10:47:06Z</time></trkpt><trkpt lat="32.887445723554684" lon="-4.976701840866619"><ele>1538.5</ele><time>2026-04-27T10:47:07Z</time></trkpt><trkpt lat="32.88754103234492" lon="-4.9770139599773575"><ele>1539.0</ele><time>2026-04-27T10:47:08Z</time></trkpt><trkpt lat="32.88763514186234" lon="-4.97732750989138"><ele>1542.0</ele><time>2026-04-27T10:47:09Z</time></trkpt><trkpt lat="32.88773001046992" lon="-4.977641556407878"><ele>1545.0</ele><time>2026-04-27T10:47:10Z</time></trkpt><trkpt lat="32.8878271573236" lon="-4.977956867701886"><ele>1545.0</ele><time>2026-04-27T10:47:11Z</time></trkpt><trkpt lat="32.887927413083055" lon="-4.978277278552682"><ele>1545.0</ele><time>2026-04-27T10:47:12Z</time></trkpt><trkpt lat="32.888027323988354" lon="-4.978599029703782"><ele>1545.0</ele><time>2026-04-27T10:47:13Z</time></trkpt><trkpt lat="32.88812614423285" lon="-4.978924517865003"><ele>1545.0</ele><time>2026-04-27T10:47:14Z</time></trkpt><trkpt lat="32.88822430724458" lon="-4.979252437260141"><ele>1544.5</ele><time>2026-04-27T10:47:15Z</time></trkpt><trkpt lat="32.88832211396247" lon="-4.97958229324853"><ele>1544.0</ele><time>2026-04-27T10:47:16Z</time></trkpt><trkpt lat="32.88842326470608" lon="-4.979911927529754"><ele>1546.0</ele><time>2026-04-27T10:47:17Z</time></trkpt><trkpt lat="32.88852650561041" lon="-4.98024541313761"><ele>1548.0</ele><time>2026-04-27T10:47:18Z</time></trkpt><trkpt lat="32.88863136462122" lon="-4.980580479796687"><ele>1549.5</ele><time>2026-04-27T10:47:19Z</time></trkpt><trkpt lat="32.88873481528128" lon="-4.980916639388709"><ele>1551.0</ele><time>2026-04-27T10:47:20Z</time></trkpt><trkpt lat="32.88883739595285" lon="-4.981254613187233"><ele>1551.0</ele><time>2026-04-27T10:47:21Z</time></trkpt><trkpt lat="32.888939782016855" lon="-4.981592317570019"><ele>1551.0</ele><time>2026-04-27T10:47:22Z</time></trkpt><trkpt lat="32.88904246107755" lon="-4.981928035461372"><ele>1552.0</ele><time>2026-04-27T10:47:23Z</time></trkpt><trkpt lat="32.88914359322557" lon="-4.982256585065535"><ele>1553.0</ele><time>2026-04-27T10:47:24Z</time></trkpt><trkpt lat="32.889247579851045" lon="-4.9825893110936335"><ele>1554.5</ele><time>2026-04-27T10:47:25Z</time></trkpt><trkpt lat="32.889349393831125" lon="-4.982917297188603"><ele>1556.0</ele><time>2026-04-27T10:47:26Z</time></trkpt><trkpt lat="32.88944868793384" lon="-4.983234837402776"><ele>1557.5</ele><time>2026-04-27T10:47:26.999Z</time></trkpt><trkpt lat="32.88954305838109" lon="-4.983543424948658"><ele>1559.0</ele><time>2026-04-27T10:47:27.999Z</time></trkpt><trkpt lat="32.88963412012414" lon="-4.983850461778846"><ele>1559.0</ele><time>2026-04-27T10:47:28.999Z</time></trkpt><trkpt lat="32.88972700207803" lon="-4.984160701032198"><ele>1559.0</ele><time>2026-04-27T10:47:29.999Z</time></trkpt><trkpt lat="32.88982271801943" lon="-4.984476148105621"><ele>1559.0</ele><time>2026-04-27T10:47:30.999Z</time></trkpt><trkpt lat="32.88991883014108" lon="-4.984792069710318"><ele>1559.0</ele><time>2026-04-27T10:47:31.999Z</time></trkpt><trkpt lat="32.890013587378306" lon="-4.985098955215491"><ele>1559.0</ele><time>2026-04-27T10:47:32.999Z</time></trkpt><trkpt lat="32.89010929812131" lon="-4.985418511688227"><ele>1559.0</ele><time>2026-04-27T10:47:33.999Z</time></trkpt><trkpt lat="32.89020456882093" lon="-4.985741753058977"><ele>1558.5</ele><time>2026-04-27T10:47:34.999Z</time></trkpt><trkpt lat="32.89030296388831" lon="-4.986071749495673"><ele>1558.0</ele><time>2026-04-27T10:47:35.999Z</time></trkpt><trkpt lat="32.89040381355605" lon="-4.986408910230258"><ele>1558.5</ele><time>2026-04-27T10:47:36.999Z</time></trkpt><trkpt lat="32.89050673390142" lon="-4.986748098325452"><ele>1559.0</ele><time>2026-04-27T10:47:37.999Z</time></trkpt><trkpt lat="32.89061132167832" lon="-4.987088445065534"><ele>1559.0</ele><time>2026-04-27T10:47:38.999Z</time></trkpt><trkpt lat="32.89071728728514" lon="-4.987428912607259"><ele>1559.0</ele><time>2026-04-27T10:47:39.999Z</time></trkpt><trkpt lat="32.890820948204414" lon="-4.98776976016848"><ele>1558.5</ele><time>2026-04-27T10:47:40.999Z</time></trkpt><trkpt lat="32.89092341717792" lon="-4.9881121302901885"><ele>1558.0</ele><time>2026-04-27T10:47:41.999Z</time></trkpt><trkpt lat="32.89102815989517" lon="-4.988459113535931"><ele>1554.0</ele><time>2026-04-27T10:47:42.999Z</time></trkpt><trkpt lat="32.89113626088365" lon="-4.988813571807608"><ele>1550.0</ele><time>2026-04-27T10:47:43.999Z</time></trkpt><trkpt lat="32.89124928650534" lon="-4.989178439522187"><ele>1550.0</ele><time>2026-04-27T10:47:44.999Z</time></trkpt><trkpt lat="32.891363513072505" lon="-4.989552863637925"><ele>1550.0</ele><time>2026-04-27T10:47:45.999Z</time></trkpt><trkpt lat="32.89147895325722" lon="-4.989933564255238"><ele>1551.0</ele><time>2026-04-27T10:47:46.999Z</time></trkpt><trkpt lat="32.89159367976193" lon="-4.990314943189229"><ele>1552.0</ele><time>2026-04-27T10:47:47.999Z</time></trkpt><trkpt lat="32.8917087406939" lon="-4.990697739311569"><ele>1551.5</ele><time>2026-04-27T10:47:48.999Z</time></trkpt><trkpt lat="32.89182575149011" lon="-4.99108367422354"><ele>1551.0</ele><time>2026-04-27T10:47:49.999Z</time></trkpt><trkpt lat="32.89194571204277" lon="-4.991480544331213"><ele>1550.5</ele><time>2026-04-27T10:47:50.999Z</time></trkpt><trkpt lat="32.89206840830362" lon="-4.991884864829204"><ele>1550.0</ele><time>2026-04-27T10:47:51.999Z</time></trkpt><trkpt lat="32.892188149472055" lon="-4.992278717530886"><ele>1551.0</ele><time>2026-04-27T10:47:52.999Z</time></trkpt><trkpt lat="32.89230398564776" lon="-4.992657120702769"><ele>1552.0</ele><time>2026-04-27T10:47:53.999Z</time></trkpt><trkpt lat="32.89241484285505" lon="-4.993021525993168"><ele>1553.0</ele><time>2026-04-27T10:47:54.999Z</time></trkpt><trkpt lat="32.89252154869543" lon="-4.993374204310989"><ele>1554.0</ele><time>2026-04-27T10:47:55.999Z</time></trkpt><trkpt lat="32.89262636637253" lon="-4.993718671380354"><ele>1554.0</ele><time>2026-04-27T10:47:56.999Z</time></trkpt><trkpt lat="32.89272857726397" lon="-4.994051304645502"><ele>1554.0</ele><time>2026-04-27T10:47:57.999Z</time></trkpt><trkpt lat="32.89282833133024" lon="-4.994371674746034"><ele>1555.0</ele><time>2026-04-27T10:47:58.999Z</time></trkpt><trkpt lat="32.89292728376193" lon="-4.99469195535321"><ele>1556.0</ele><time>2026-04-27T10:47:59.999Z</time></trkpt><trkpt lat="32.89302687088844" lon="-4.995019903384563"><ele>1556.5</ele><time>2026-04-27T10:48:00.999Z</time></trkpt><trkpt lat="32.89313114458897" lon="-4.995367356030951"><ele>1557.0</ele><time>2026-04-27T10:48:01.999Z</time></trkpt><trkpt lat="32.893236041517966" lon="-4.995710194431874"><ele>1558.0</ele><time>2026-04-27T10:48:02.999Z</time></trkpt><trkpt lat="32.89333814766422" lon="-4.996042823402861"><ele>1559.0</ele><time>2026-04-27T10:48:03.999Z</time></trkpt><trkpt lat="32.893435577417655" lon="-4.996362497896607"><ele>1559.0</ele><time>2026-04-27T10:48:04.999Z</time></trkpt><trkpt lat="32.893528527484904" lon="-4.99666661811034"><ele>1559.0</ele><time>2026-04-27T10:48:05.999Z</time></trkpt><trkpt lat="32.893615862040946" lon="-4.996952935508797"><ele>1560.0</ele><time>2026-04-27T10:48:06.999Z</time></trkpt><trkpt lat="32.89369781561179" lon="-4.997219317306226"><ele>1561.0</ele><time>2026-04-27T10:48:07.999Z</time></trkpt><trkpt lat="32.893773906206945" lon="-4.997471990804194"><ele>1561.3333333333335</ele><time>2026-04-27T10:48:08.999Z</time></trkpt><trkpt lat="32.893845397483815" lon="-4.997708312581691"><ele>1561.6666666666665</ele><time>2026-04-27T10:48:09.999Z</time></trkpt><trkpt lat="32.89391425148779" lon="-4.99793327678479"><ele>1562.0</ele><time>2026-04-27T10:48:10.999Z</time></trkpt><trkpt lat="32.89398079614602" lon="-4.998147397316513"><ele>1562.3333333333333</ele><time>2026-04-27T10:48:11.999Z</time></trkpt><trkpt lat="32.89404389744381" lon="-4.9983504909552785"><ele>1562.6666666666665</ele><time>2026-04-27T10:48:12.999Z</time></trkpt><trkpt lat="32.89410372364869" lon="-4.998543422756893"><ele>1563.0</ele><time>2026-04-27T10:48:13.999Z</time></trkpt><trkpt lat="32.89415994705407" lon="-4.998738052859703"><ele>1563.0</ele><time>2026-04-27T10:48:14.999Z</time></trkpt><trkpt lat="32.894212066920154" lon="-4.998932205860864"><ele>1563.0</ele><time>2026-04-27T10:48:15.999Z</time></trkpt><trkpt lat="32.894307746938274" lon="-4.999103346425833"><ele>1563.0</ele><time>2026-04-27T10:48:16.999Z</time></trkpt><trkpt lat="32.894363040065215" lon="-4.999285439911069"><ele>1564.0</ele><time>2026-04-27T10:48:17.999Z</time></trkpt><trkpt lat="32.89441719649243" lon="-4.999463790115823"><ele>1565.0</ele><time>2026-04-27T10:48:18.999Z</time></trkpt><trkpt lat="32.89447080543282" lon="-4.999640337232422"><ele>1566.0</ele><time>2026-04-27T10:48:19.999Z</time></trkpt><trkpt lat="32.8945239450075" lon="-4.99981533855447"><ele>1566.0</ele><time>2026-04-27T10:48:20.999Z</time></trkpt><trkpt lat="32.89457717202428" lon="-4.9999906844492426"><ele>1566.0</ele><time>2026-04-27T10:48:21.999Z</time></trkpt><trkpt lat="32.89463036028027" lon="-5.000165263709801"><ele>1566.0</ele><time>2026-04-27T10:48:22.999Z</time></trkpt><trkpt lat="32.89468387281573" lon="-5.000340607512424"><ele>1566.0</ele><time>2026-04-27T10:48:23.999Z</time></trkpt><trkpt lat="32.89473705753805" lon="-5.000515871107914"><ele>1566.0</ele><time>2026-04-27T10:48:24.999Z</time></trkpt><trkpt lat="32.894790270952996" lon="-5.000691982084821"><ele>1566.0</ele><time>2026-04-27T10:48:25.999Z</time></trkpt><trkpt lat="32.89484310935277" lon="-5.0008666582857435"><ele>1566.3333333333335</ele><time>2026-04-27T10:48:26.999Z</time></trkpt><trkpt lat="32.89489606502792" lon="-5.001041682780685"><ele>1566.6666666666667</ele><time>2026-04-27T10:48:27.999Z</time></trkpt><trkpt lat="32.89494926930664" lon="-5.001216703168623"><ele>1567.0</ele><time>2026-04-27T10:48:28.999Z</time></trkpt><trkpt lat="32.89500178972744" lon="-5.001388879939768"><ele>1567.0</ele><time>2026-04-27T10:48:29.999Z</time></trkpt><trkpt lat="32.895054322268194" lon="-5.001561096640153"><ele>1567.0</ele><time>2026-04-27T10:48:30.999Z</time></trkpt><trkpt lat="32.89510631044287" lon="-5.0017315283407955"><ele>1567.0</ele><time>2026-04-27T10:48:31.999Z</time></trkpt><trkpt lat="32.895158715438335" lon="-5.001903326724281"><ele>1568.6666666666667</ele><time>2026-04-27T10:48:32.999Z</time></trkpt><trkpt lat="32.895210717893775" lon="-5.0020772820711885"><ele>1570.3333333333335</ele><time>2026-04-27T10:48:33.999Z</time></trkpt><trkpt lat="32.89526539437899" lon="-5.002257478757839"><ele>1572.0</ele><time>2026-04-27T10:48:34.999Z</time></trkpt><trkpt lat="32.89532435234376" lon="-5.002451775480496"><ele>1572.3333333333335</ele><time>2026-04-27T10:48:35.999Z</time></trkpt><trkpt lat="32.895385537864094" lon="-5.002653377691403"><ele>1572.6666666666667</ele><time>2026-04-27T10:48:36.999Z</time></trkpt><trkpt lat="32.895446018273795" lon="-5.002852656689222"><ele>1573.0</ele><time>2026-04-27T10:48:37.999Z</time></trkpt><trkpt lat="32.895504387063596" lon="-5.003043966157019"><ele>1573.0</ele><time>2026-04-27T10:48:38.999Z</time></trkpt><trkpt lat="32.89555982797584" lon="-5.003226375915817"><ele>1573.0</ele><time>2026-04-27T10:48:39.999Z</time></trkpt><trkpt lat="32.89561238050186" lon="-5.003399573627924"><ele>1573.0</ele><time>2026-04-27T10:48:40.999Z</time></trkpt><trkpt lat="32.8956640693958" lon="-5.003569557567942"><ele>1573.25</ele><time>2026-04-27T10:48:41.999Z</time></trkpt><trkpt lat="32.8957141071808" lon="-5.00373411174187"><ele>1573.5</ele><time>2026-04-27T10:48:42.999Z</time></trkpt><trkpt lat="32.895764576609174" lon="-5.0039000853973885"><ele>1573.75</ele><time>2026-04-27T10:48:43.999Z</time></trkpt><trkpt lat="32.8958154668139" lon="-5.004067674332888"><ele>1574.0</ele><time>2026-04-27T10:48:44.999Z</time></trkpt><trkpt lat="32.89586635273877" lon="-5.004235464414515"><ele>1574.5</ele><time>2026-04-27T10:48:45.999Z</time></trkpt><trkpt lat="32.89591557447885" lon="-5.004397767118697"><ele>1575.0</ele><time>2026-04-27T10:48:46.999Z</time></trkpt><trkpt lat="32.89596366762376" lon="-5.0045563483617945"><ele>1575.5</ele><time>2026-04-27T10:48:47.999Z</time></trkpt><trkpt lat="32.89601129409452" lon="-5.004713390903123"><ele>1576.0</ele><time>2026-04-27T10:48:48.999Z</time></trkpt><trkpt lat="32.89605861519915" lon="-5.0048694264110365"><ele>1576.75</ele><time>2026-04-27T10:48:49.999Z</time></trkpt><trkpt lat="32.896107008094546" lon="-5.005028996120912"><ele>1577.5</ele><time>2026-04-27T10:48:50.999Z</time></trkpt><trkpt lat="32.896155974890505" lon="-5.005190127190543"><ele>1578.25</ele><time>2026-04-27T10:48:51.999Z</time></trkpt><trkpt lat="32.89620537962285" lon="-5.005352510571562"><ele>1579.0</ele><time>2026-04-27T10:48:52.999Z</time></trkpt><trkpt lat="32.89625450576605" lon="-5.005513978230834"><ele>1579.0</ele><time>2026-04-27T10:48:53.999Z</time></trkpt><trkpt lat="32.896303463314375" lon="-5.005674534306343"><ele>1579.0</ele><time>2026-04-27T10:48:54.999Z</time></trkpt><trkpt lat="32.89635181894325" lon="-5.00583310157629"><ele>1579.0</ele><time>2026-04-27T10:48:55.999Z</time></trkpt><trkpt lat="32.89639928430597" lon="-5.005989941568049"><ele>1579.0</ele><time>2026-04-27T10:48:56.999Z</time></trkpt><trkpt lat="32.89644554238879" lon="-5.0061438734957"><ele>1579.0</ele><time>2026-04-27T10:48:57.999Z</time></trkpt><trkpt lat="32.89649199981705" lon="-5.006296656800925"><ele>1579.0</ele><time>2026-04-27T10:48:59Z</time></trkpt><trkpt lat="32.89653857950825" lon="-5.006449585269766"><ele>1579.0</ele><time>2026-04-27T10:49:00Z</time></trkpt><trkpt lat="32.896585167949965" lon="-5.006602542293422"><ele>1579.0</ele><time>2026-04-27T10:49:01Z</time></trkpt><trkpt lat="32.896631740856684" lon="-5.006755448566636"><ele>1579.5</ele><time>2026-04-27T10:49:02Z</time></trkpt><trkpt lat="32.89667836794911" lon="-5.006908532518852"><ele>1580.0</ele><time>2026-04-27T10:49:03Z</time></trkpt><trkpt lat="32.896724769995075" lon="-5.007060877781336"><ele>1580.5</ele><time>2026-04-27T10:49:04Z</time></trkpt><trkpt lat="32.89677011919659" lon="-5.00721171806499"><ele>1581.0</ele><time>2026-04-27T10:49:05Z</time></trkpt><trkpt lat="32.896815341661004" lon="-5.007361985518634"><ele>1581.75</ele><time>2026-04-27T10:49:06Z</time></trkpt><trkpt lat="32.89686114058217" lon="-5.007512306322698"><ele>1582.5</ele><time>2026-04-27T10:49:07Z</time></trkpt><trkpt lat="32.89690633161792" lon="-5.007660631982057"><ele>1583.25</ele><time>2026-04-27T10:49:08Z</time></trkpt><trkpt lat="32.89695162528632" lon="-5.007809294326"><ele>1584.0</ele><time>2026-04-27T10:49:09Z</time></trkpt><trkpt lat="32.89699676377518" lon="-5.007957447542771"><ele>1584.0</ele><time>2026-04-27T10:49:10Z</time></trkpt><trkpt lat="32.89704154909071" lon="-5.0081046586163005"><ele>1584.0</ele><time>2026-04-27T10:49:11Z</time></trkpt><trkpt lat="32.89708711625209" lon="-5.008254583070075"><ele>1584.0</ele><time>2026-04-27T10:49:12Z</time></trkpt><trkpt lat="32.89713308976023" lon="-5.008405844517709"><ele>1584.0</ele><time>2026-04-27T10:49:13Z</time></trkpt><trkpt lat="32.89718009627724" lon="-5.008560504779058"><ele>1584.25</ele><time>2026-04-27T10:49:14Z</time></trkpt><trkpt lat="32.89722803115196" lon="-5.008718211380464"><ele>1584.5</ele><time>2026-04-27T10:49:15Z</time></trkpt><trkpt lat="32.89727670096222" lon="-5.008879424187655"><ele>1584.75</ele><time>2026-04-27T10:49:16Z</time></trkpt><trkpt lat="32.897325666329195" lon="-5.009041616036129"><ele>1585.0</ele><time>2026-04-27T10:49:17Z</time></trkpt><trkpt lat="32.89737572175102" lon="-5.009207418536003"><ele>1585.3333333333335</ele><time>2026-04-27T10:49:18Z</time></trkpt><trkpt lat="32.89742648995467" lon="-5.009373822909869"><ele>1585.6666666666665</ele><time>2026-04-27T10:49:19Z</time></trkpt><trkpt lat="32.89747856676163" lon="-5.009544997174539"><ele>1586.0</ele><time>2026-04-27T10:49:20Z</time></trkpt><trkpt lat="32.89753788595397" lon="-5.009739869950732"><ele>1586.0</ele><time>2026-04-27T10:49:21Z</time></trkpt><trkpt lat="32.8976043265974" lon="-5.00995711345417"><ele>1586.0</ele><time>2026-04-27T10:49:22Z</time></trkpt><trkpt lat="32.89767757655439" lon="-5.01019880196912"><ele>1586.0</ele><time>2026-04-27T10:49:23Z</time></trkpt><trkpt lat="32.89775204244958" lon="-5.01044508291781"><ele>1586.5</ele><time>2026-04-27T10:49:24Z</time></trkpt><trkpt lat="32.89782811789182" lon="-5.010696447141692"><ele>1587.0</ele><time>2026-04-27T10:49:25Z</time></trkpt><trkpt lat="32.897906519597335" lon="-5.010954299929817"><ele>1585.5</ele><time>2026-04-27T10:49:26Z</time></trkpt><trkpt lat="32.897972695661416" lon="-5.011228565901739"><ele>1584.0</ele><time>2026-04-27T10:49:26.999Z</time></trkpt><trkpt lat="32.898058294745965" lon="-5.011507703019637"><ele>1585.0</ele><time>2026-04-27T10:49:27.999Z</time></trkpt><trkpt lat="32.89814588918809" lon="-5.011794263082215"><ele>1586.0</ele><time>2026-04-27T10:49:28.999Z</time></trkpt><trkpt lat="32.89823618188841" lon="-5.012089852729888"><ele>1586.0</ele><time>2026-04-27T10:49:29.999Z</time></trkpt><trkpt lat="32.89832731282796" lon="-5.012396637247579"><ele>1586.0</ele><time>2026-04-27T10:49:30.999Z</time></trkpt><trkpt lat="32.898422727767475" lon="-5.012709852287247"><ele>1587.5</ele><time>2026-04-27T10:49:31.999Z</time></trkpt><trkpt lat="32.89853563297703" lon="-5.013024890748437"><ele>1589.0</ele><time>2026-04-27T10:49:32.999Z</time></trkpt><trkpt lat="32.89863483962964" lon="-5.013351269602504"><ele>1589.5</ele><time>2026-04-27T10:49:33.999Z</time></trkpt><trkpt lat="32.898735877882125" lon="-5.013683885578592"><ele>1590.0</ele><time>2026-04-27T10:49:34.999Z</time></trkpt><trkpt lat="32.898839420978945" lon="-5.014024868511035"><ele>1591.0</ele><time>2026-04-27T10:49:35.999Z</time></trkpt><trkpt lat="32.89894480651255" lon="-5.014371918777873"><ele>1592.0</ele><time>2026-04-27T10:49:36.999Z</time></trkpt><trkpt lat="32.89903642147083" lon="-5.014729806377717"><ele>1593.0</ele><time>2026-04-27T10:49:37.999Z</time></trkpt><trkpt lat="32.899144483689604" lon="-5.015085727732142"><ele>1594.0</ele><time>2026-04-27T10:49:38.999Z</time></trkpt><trkpt lat="32.899253823484116" lon="-5.01544562150343"><ele>1595.5</ele><time>2026-04-27T10:49:39.999Z</time></trkpt><trkpt lat="32.89936461176076" lon="-5.015805977313792"><ele>1597.0</ele><time>2026-04-27T10:49:40.999Z</time></trkpt><trkpt lat="32.8994744642486" lon="-5.016164936763046"><ele>1597.0</ele><time>2026-04-27T10:49:41.999Z</time></trkpt><trkpt lat="32.89958370446976" lon="-5.016524223531414"><ele>1597.0</ele><time>2026-04-27T10:49:42.999Z</time></trkpt><trkpt lat="32.89969286528665" lon="-5.016882588176887"><ele>1597.5</ele><time>2026-04-27T10:49:43.999Z</time></trkpt><trkpt lat="32.899802883417294" lon="-5.017241625732674"><ele>1598.0</ele><time>2026-04-27T10:49:44.999Z</time></trkpt><trkpt lat="32.899913699758166" lon="-5.017603809961027"><ele>1598.0</ele><time>2026-04-27T10:49:45.999Z</time></trkpt><trkpt lat="32.900025150595475" lon="-5.017970317678882"><ele>1598.0</ele><time>2026-04-27T10:49:46.999Z</time></trkpt><trkpt lat="32.90013564702235" lon="-5.018338339574079"><ele>1600.0</ele><time>2026-04-27T10:49:47.999Z</time></trkpt><trkpt lat="32.90024707504831" lon="-5.018706833087649"><ele>1602.0</ele><time>2026-04-27T10:49:48.999Z</time></trkpt><trkpt lat="32.90035763090033" lon="-5.019071657831202"><ele>1602.5</ele><time>2026-04-27T10:49:49.999Z</time></trkpt><trkpt lat="32.900467261001765" lon="-5.019431756010187"><ele>1603.0</ele><time>2026-04-27T10:49:50.999Z</time></trkpt><trkpt lat="32.90057630390681" lon="-5.0197920352166765"><ele>1604.5</ele><time>2026-04-27T10:49:51.999Z</time></trkpt><trkpt lat="32.900685151371185" lon="-5.020152412898261"><ele>1606.0</ele><time>2026-04-27T10:49:52.999Z</time></trkpt><trkpt lat="32.90079494045958" lon="-5.020511686548205"><ele>1608.0</ele><time>2026-04-27T10:49:53.999Z</time></trkpt><trkpt lat="32.90090475181102" lon="-5.020870651705215"><ele>1610.0</ele><time>2026-04-27T10:49:54.999Z</time></trkpt><trkpt lat="32.90101088331016" lon="-5.0212214193327975"><ele>1610.5</ele><time>2026-04-27T10:49:55.999Z</time></trkpt><trkpt lat="32.90111751850478" lon="-5.021573145128037"><ele>1611.0</ele><time>2026-04-27T10:49:56.999Z</time></trkpt><trkpt lat="32.90122304840276" lon="-5.0219225707783"><ele>1612.5</ele><time>2026-04-27T10:49:57.999Z</time></trkpt><trkpt lat="32.90132948368767" lon="-5.0222729729408115"><ele>1614.0</ele><time>2026-04-27T10:49:58.999Z</time></trkpt><trkpt lat="32.90143602584976" lon="-5.022622144913466"><ele>1615.0</ele><time>2026-04-27T10:49:59.999Z</time></trkpt><trkpt lat="32.90154264651651" lon="-5.022968807922901"><ele>1616.0</ele><time>2026-04-27T10:50:00.999Z</time></trkpt><trkpt lat="32.901644121813625" lon="-5.023293644260262"><ele>1616.5</ele><time>2026-04-27T10:50:01.999Z</time></trkpt><trkpt lat="32.90174069086584" lon="-5.02359785061541"><ele>1617.0</ele><time>2026-04-27T10:50:02.999Z</time></trkpt><trkpt lat="32.9018427453786" lon="-5.023888753013508"><ele>1619.0</ele><time>2026-04-27T10:50:03.999Z</time></trkpt><trkpt lat="32.901960752859026" lon="-5.024153669232845"><ele>1621.0</ele><time>2026-04-27T10:50:04.999Z</time></trkpt><trkpt lat="32.902095079511135" lon="-5.024389879720021"><ele>1621.0</ele><time>2026-04-27T10:50:05.999Z</time></trkpt><trkpt lat="32.9022495140079" lon="-5.024602492206404"><ele>1621.0</ele><time>2026-04-27T10:50:06.999Z</time></trkpt><trkpt lat="32.90242221428262" lon="-5.024807075349032"><ele>1623.0</ele><time>2026-04-27T10:50:07.999Z</time></trkpt><trkpt lat="32.90261073788633" lon="-5.025002356621829"><ele>1625.0</ele><time>2026-04-27T10:50:08.999Z</time></trkpt><trkpt lat="32.90280976278727" lon="-5.025191856806162"><ele>1625.0</ele><time>2026-04-27T10:50:09.999Z</time></trkpt><trkpt lat="32.90301632466094" lon="-5.0253895269505975"><ele>1625.0</ele><time>2026-04-27T10:50:10.999Z</time></trkpt><trkpt lat="32.903225648734065" lon="-5.025592900661175"><ele>1625.0</ele><time>2026-04-27T10:50:11.999Z</time></trkpt><trkpt lat="32.903432046844934" lon="-5.025796269572024"><ele>1625.0</ele><time>2026-04-27T10:50:12.999Z</time></trkpt><trkpt lat="32.9036355336537" lon="-5.02599531282163"><ele>1625.0</ele><time>2026-04-27T10:50:13.999Z</time></trkpt><trkpt lat="32.90383679590725" lon="-5.02619007776719"><ele>1625.0</ele><time>2026-04-27T10:50:14.999Z</time></trkpt><trkpt lat="32.90403712686198" lon="-5.026384521091776"><ele>1625.0</ele><time>2026-04-27T10:50:15.999Z</time></trkpt><trkpt lat="32.904241391765325" lon="-5.026583384637717"><ele>1625.0</ele><time>2026-04-27T10:50:16.999Z</time></trkpt><trkpt lat="32.90444991452037" lon="-5.0267886014419165"><ele>1626.5</ele><time>2026-04-27T10:50:17.999Z</time></trkpt><trkpt lat="32.90466338177021" lon="-5.026999089742742"><ele>1628.0</ele><time>2026-04-27T10:50:18.999Z</time></trkpt><trkpt lat="32.90488099670249" lon="-5.02721344490026"><ele>1629.5</ele><time>2026-04-27T10:50:19.999Z</time></trkpt><trkpt lat="32.90510283458934" lon="-5.0274316263386885"><ele>1631.0</ele><time>2026-04-27T10:50:20.999Z</time></trkpt><trkpt lat="32.90532812415807" lon="-5.027654289215753"><ele>1632.5</ele><time>2026-04-27T10:50:21.999Z</time></trkpt><trkpt lat="32.90555919910466" lon="-5.027881178260905"><ele>1634.0</ele><time>2026-04-27T10:50:22.999Z</time></trkpt><trkpt lat="32.90579557910124" lon="-5.028112173084181"><ele>1636.5</ele><time>2026-04-27T10:50:23.999Z</time></trkpt><trkpt lat="32.90603723069686" lon="-5.028347892459473"><ele>1639.0</ele><time>2026-04-27T10:50:24.999Z</time></trkpt><trkpt lat="32.90627904657431" lon="-5.028584214006688"><ele>1639.0</ele><time>2026-04-27T10:50:25.999Z</time></trkpt><trkpt lat="32.906520625228026" lon="-5.02882174480859"><ele>1639.0</ele><time>2026-04-27T10:50:26.999Z</time></trkpt><trkpt lat="32.906766687718985" lon="-5.029063477041682"><ele>1640.5</ele><time>2026-04-27T10:50:27.999Z</time></trkpt><trkpt lat="32.907017320648336" lon="-5.029308500743854"><ele>1642.0</ele><time>2026-04-27T10:50:28.999Z</time></trkpt><trkpt lat="32.907267877373535" lon="-5.0295515856066535"><ele>1642.0</ele><time>2026-04-27T10:50:29.999Z</time></trkpt><trkpt lat="32.907512649476125" lon="-5.029789079882119"><ele>1642.0</ele><time>2026-04-27T10:50:30.999Z</time></trkpt><trkpt lat="32.907749059068024" lon="-5.0300185714867585"><ele>1644.0</ele><time>2026-04-27T10:50:31.999Z</time></trkpt><trkpt lat="32.907975239878716" lon="-5.030237448160154"><ele>1646.0</ele><time>2026-04-27T10:50:32.999Z</time></trkpt><trkpt lat="32.908193164878455" lon="-5.030449469208899"><ele>1646.0</ele><time>2026-04-27T10:50:33.999Z</time></trkpt><trkpt lat="32.90840249181693" lon="-5.0306542717308025"><ele>1646.0</ele><time>2026-04-27T10:50:34.999Z</time></trkpt><trkpt lat="32.90860989666715" lon="-5.030855640819501"><ele>1647.0</ele><time>2026-04-27T10:50:35.999Z</time></trkpt><trkpt lat="32.9088251087804" lon="-5.031062885948842"><ele>1648.0</ele><time>2026-04-27T10:50:36.999Z</time></trkpt><trkpt lat="32.909045480194834" lon="-5.031276545016397"><ele>1647.0</ele><time>2026-04-27T10:50:37.999Z</time></trkpt><trkpt lat="32.90927255363959" lon="-5.031495739734054"><ele>1646.0</ele><time>2026-04-27T10:50:38.999Z</time></trkpt><trkpt lat="32.909505463273106" lon="-5.031717975063629"><ele>1648.5</ele><time>2026-04-27T10:50:39.999Z</time></trkpt><trkpt lat="32.909743479718124" lon="-5.031942583694886"><ele>1651.0</ele><time>2026-04-27T10:50:40.999Z</time></trkpt><trkpt lat="32.90998408171562" lon="-5.0321704296880805"><ele>1650.5</ele><time>2026-04-27T10:50:41.999Z</time></trkpt><trkpt lat="32.910229864960364" lon="-5.032402191123622"><ele>1650.0</ele><time>2026-04-27T10:50:42.999Z</time></trkpt><trkpt lat="32.91048113843447" lon="-5.03263897986534"><ele>1651.5</ele><time>2026-04-27T10:50:43.999Z</time></trkpt><trkpt lat="32.910735611442334" lon="-5.032880528995269"><ele>1653.0</ele><time>2026-04-27T10:50:44.999Z</time></trkpt><trkpt lat="32.9109948078129" lon="-5.033127371303352"><ele>1655.0</ele><time>2026-04-27T10:50:45.999Z</time></trkpt><trkpt lat="32.91125875882953" lon="-5.033379576168387"><ele>1657.0</ele><time>2026-04-27T10:50:46.999Z</time></trkpt><trkpt lat="32.91152809549696" lon="-5.033637914785087"><ele>1658.0</ele><time>2026-04-27T10:50:47.999Z</time></trkpt><trkpt lat="32.91180308387192" lon="-5.033900864446612"><ele>1659.0</ele><time>2026-04-27T10:50:48.999Z</time></trkpt><trkpt lat="32.912084928372195" lon="-5.034167594812118"><ele>1659.0</ele><time>2026-04-27T10:50:49.999Z</time></trkpt><trkpt lat="32.91237036217171" lon="-5.034436977255648"><ele>1659.0</ele><time>2026-04-27T10:50:50.999Z</time></trkpt><trkpt lat="32.912659421456055" lon="-5.034708148900764"><ele>1660.0</ele><time>2026-04-27T10:50:51.999Z</time></trkpt><trkpt lat="32.91294193859198" lon="-5.03497515712802"><ele>1661.0</ele><time>2026-04-27T10:50:52.999Z</time></trkpt><trkpt lat="32.91321624533177" lon="-5.035234672241392"><ele>1661.5</ele><time>2026-04-27T10:50:53.999Z</time></trkpt><trkpt lat="32.91348333887899" lon="-5.035489199243235"><ele>1662.0</ele><time>2026-04-27T10:50:54.999Z</time></trkpt><trkpt lat="32.913742159268146" lon="-5.03573435326805"><ele>1663.5</ele><time>2026-04-27T10:50:55.999Z</time></trkpt><trkpt lat="32.9139927307784" lon="-5.035971172817775"><ele>1665.0</ele><time>2026-04-27T10:50:56.999Z</time></trkpt><trkpt lat="32.91423280195588" lon="-5.03619875892922"><ele>1665.5</ele><time>2026-04-27T10:50:57.999Z</time></trkpt><trkpt lat="32.91446968601018" lon="-5.036424165990795"><ele>1666.0</ele><time>2026-04-27T10:50:58.998Z</time></trkpt><trkpt lat="32.914707071812984" lon="-5.036649440047602"><ele>1669.5</ele><time>2026-04-27T10:50:59.998Z</time></trkpt><trkpt lat="32.914948944185284" lon="-5.036878710369729"><ele>1673.0</ele><time>2026-04-27T10:51:00.998Z</time></trkpt><trkpt lat="32.91519264794762" lon="-5.0371099414906295"><ele>1673.5</ele><time>2026-04-27T10:51:01.998Z</time></trkpt><trkpt lat="32.91543800462055" lon="-5.037341849090385"><ele>1674.0</ele><time>2026-04-27T10:51:02.998Z</time></trkpt><trkpt lat="32.91568081617075" lon="-5.037570620196948"><ele>1675.5</ele><time>2026-04-27T10:51:03.998Z</time></trkpt><trkpt lat="32.91592388622937" lon="-5.037800351871445"><ele>1677.0</ele><time>2026-04-27T10:51:05Z</time></trkpt><trkpt lat="32.916167536583146" lon="-5.038030982971388"><ele>1677.0</ele><time>2026-04-27T10:51:06Z</time></trkpt><trkpt lat="32.91641344362387" lon="-5.03826481224827"><ele>1677.0</ele><time>2026-04-27T10:51:07Z</time></trkpt><trkpt lat="32.916658884972726" lon="-5.038497877468737"><ele>1678.5</ele><time>2026-04-27T10:51:08Z</time></trkpt><trkpt lat="32.916906739006066" lon="-5.038731603244206"><ele>1680.0</ele><time>2026-04-27T10:51:09Z</time></trkpt><trkpt lat="32.91715480276186" lon="-5.038966982586694"><ele>1681.5</ele><time>2026-04-27T10:51:10Z</time></trkpt><trkpt lat="32.917401077531636" lon="-5.03920102349029"><ele>1683.0</ele><time>2026-04-27T10:51:11Z</time></trkpt><trkpt lat="32.917646376480356" lon="-5.039433464471613"><ele>1683.0</ele><time>2026-04-27T10:51:12Z</time></trkpt><trkpt lat="32.917891781533655" lon="-5.039666703438435"><ele>1683.0</ele><time>2026-04-27T10:51:13Z</time></trkpt><trkpt lat="32.918142294376004" lon="-5.039905966103486"><ele>1684.5</ele><time>2026-04-27T10:51:14Z</time></trkpt><trkpt lat="32.91839482865117" lon="-5.0401453965689145"><ele>1686.0</ele><time>2026-04-27T10:51:15Z</time></trkpt><trkpt lat="32.91864657290355" lon="-5.0403846330839155"><ele>1687.0</ele><time>2026-04-27T10:51:16Z</time></trkpt><trkpt lat="32.91889627483588" lon="-5.040621662621199"><ele>1688.0</ele><time>2026-04-27T10:51:17Z</time></trkpt><trkpt lat="32.91914346849674" lon="-5.040857449319395"><ele>1690.5</ele><time>2026-04-27T10:51:18Z</time></trkpt><trkpt lat="32.91938973771145" lon="-5.0410917850764765"><ele>1693.0</ele><time>2026-04-27T10:51:19Z</time></trkpt><trkpt lat="32.919639418578356" lon="-5.041328643307121"><ele>1693.0</ele><time>2026-04-27T10:51:20Z</time></trkpt><trkpt lat="32.91989317557112" lon="-5.041569561359429"><ele>1693.0</ele><time>2026-04-27T10:51:21Z</time></trkpt><trkpt lat="32.92014902138998" lon="-5.041813169520082"><ele>1694.5</ele><time>2026-04-27T10:51:22Z</time></trkpt><trkpt lat="32.92040711797815" lon="-5.042056590778229"><ele>1696.0</ele><time>2026-04-27T10:51:23Z</time></trkpt><trkpt lat="32.920663409756386" lon="-5.0422978911087295"><ele>1697.5</ele><time>2026-04-27T10:51:24Z</time></trkpt><trkpt lat="32.920919768848265" lon="-5.042536728540442"><ele>1699.0</ele><time>2026-04-27T10:51:25Z</time></trkpt><trkpt lat="32.92117142335644" lon="-5.042773407301559"><ele>1699.0</ele><time>2026-04-27T10:51:25.999Z</time></trkpt><trkpt lat="32.92142038176178" lon="-5.043010872202206"><ele>1699.0</ele><time>2026-04-27T10:51:26.999Z</time></trkpt><trkpt lat="32.92166907621268" lon="-5.043247632733206"><ele>1701.0</ele><time>2026-04-27T10:51:27.999Z</time></trkpt><trkpt lat="32.92191022261012" lon="-5.043475780126926"><ele>1703.0</ele><time>2026-04-27T10:51:28.999Z</time></trkpt><trkpt lat="32.92214327575608" lon="-5.043693461728377"><ele>1703.0</ele><time>2026-04-27T10:51:29.999Z</time></trkpt><trkpt lat="32.92236996429339" lon="-5.043905823021876"><ele>1703.0</ele><time>2026-04-27T10:51:30.999Z</time></trkpt><trkpt lat="32.9225886044392" lon="-5.044115201048311"><ele>1705.0</ele><time>2026-04-27T10:51:31.999Z</time></trkpt><trkpt lat="32.92281439033179" lon="-5.044331977942021"><ele>1707.0</ele><time>2026-04-27T10:51:32.999Z</time></trkpt><trkpt lat="32.92304796069092" lon="-5.0445535710168325"><ele>1707.0</ele><time>2026-04-27T10:51:33.999Z</time></trkpt><trkpt lat="32.92328605910306" lon="-5.044781001978295"><ele>1707.0</ele><time>2026-04-27T10:51:34.999Z</time></trkpt><trkpt lat="32.9235268482473" lon="-5.045010546103386"><ele>1709.5</ele><time>2026-04-27T10:51:35.999Z</time></trkpt><trkpt lat="32.92376981598908" lon="-5.045243742157554"><ele>1712.0</ele><time>2026-04-27T10:51:36.999Z</time></trkpt><trkpt lat="32.92400963848219" lon="-5.045479723408794"><ele>1712.0</ele><time>2026-04-27T10:51:37.999Z</time></trkpt><trkpt lat="32.92426131766648" lon="-5.045700455224553"><ele>1712.0</ele><time>2026-04-27T10:51:38.999Z</time></trkpt><trkpt lat="32.92450833966868" lon="-5.045933231445351"><ele>1714.0</ele><time>2026-04-27T10:51:39.999Z</time></trkpt><trkpt lat="32.92476399576817" lon="-5.046175445948717"><ele>1716.0</ele><time>2026-04-27T10:51:40.999Z</time></trkpt><trkpt lat="32.92502640796696" lon="-5.046424095684581"><ele>1717.0</ele><time>2026-04-27T10:51:41.999Z</time></trkpt><trkpt lat="32.92529795166035" lon="-5.046681409916079"><ele>1718.0</ele><time>2026-04-27T10:51:42.999Z</time></trkpt><trkpt lat="32.92557500898715" lon="-5.046945792063221"><ele>1718.0</ele><time>2026-04-27T10:51:43.999Z</time></trkpt><trkpt lat="32.92583703409978" lon="-5.047218977428753"><ele>1718.0</ele><time>2026-04-27T10:51:44.999Z</time></trkpt><trkpt lat="32.92609601690522" lon="-5.047455014040141"><ele>1721.0</ele><time>2026-04-27T10:51:45.999Z</time></trkpt><trkpt lat="32.926331787490454" lon="-5.047674760771739"><ele>1724.0</ele><time>2026-04-27T10:51:46.999Z</time></trkpt><trkpt lat="32.92655454401447" lon="-5.047885149423549"><ele>1725.5</ele><time>2026-04-27T10:51:47.999Z</time></trkpt><trkpt lat="32.92676752558702" lon="-5.048086364184302"><ele>1727.0</ele><time>2026-04-27T10:51:48.999Z</time></trkpt><trkpt lat="32.92696336605688" lon="-5.0482705114902515"><ele>1727.3333333333333</ele><time>2026-04-27T10:51:49.999Z</time></trkpt><trkpt lat="32.92713029654078" lon="-5.048426162355087"><ele>1727.6666666666665</ele><time>2026-04-27T10:51:50.999Z</time></trkpt><trkpt lat="32.927274788041906" lon="-5.048560645193184"><ele>1728.0</ele><time>2026-04-27T10:51:51.999Z</time></trkpt><trkpt lat="32.927409650360296" lon="-5.048685974135882"><ele>1728.0</ele><time>2026-04-27T10:51:52.999Z</time></trkpt><trkpt lat="32.92753820905682" lon="-5.048806426749899"><ele>1728.0</ele><time>2026-04-27T10:51:53.999Z</time></trkpt><trkpt lat="32.927660143206424" lon="-5.0489263662003"><ele>1728.0</ele><time>2026-04-27T10:51:54.999Z</time></trkpt><trkpt lat="32.927788923814184" lon="-5.049050287618486"><ele>1730.0</ele><time>2026-04-27T10:51:55.999Z</time></trkpt><trkpt lat="32.92792129098624" lon="-5.049175207770773"><ele>1732.0</ele><time>2026-04-27T10:51:56.999Z</time></trkpt><trkpt lat="32.92806267340687" lon="-5.049307675795891"><ele>1734.0</ele><time>2026-04-27T10:51:57.999Z</time></trkpt><trkpt lat="32.92820849761905" lon="-5.049443191605988"><ele>1734.0</ele><time>2026-04-27T10:51:58.999Z</time></trkpt><trkpt lat="32.92835769459303" lon="-5.0495817977887"><ele>1734.0</ele><time>2026-04-27T10:51:59.999Z</time></trkpt><trkpt lat="32.9285141191737" lon="-5.049729612282123"><ele>1734.0</ele><time>2026-04-27T10:52:00.999Z</time></trkpt><trkpt lat="32.92867837536622" lon="-5.049884399761809"><ele>1734.6666666666665</ele><time>2026-04-27T10:52:01.999Z</time></trkpt><trkpt lat="32.9288467810609" lon="-5.0500448235275"><ele>1735.3333333333333</ele><time>2026-04-27T10:52:02.999Z</time></trkpt><trkpt lat="32.929016156638156" lon="-5.050208039404617"><ele>1736.0</ele><time>2026-04-27T10:52:03.999Z</time></trkpt><trkpt lat="32.92918736006666" lon="-5.050370201374444"><ele>1736.6666666666665</ele><time>2026-04-27T10:52:04.999Z</time></trkpt><trkpt lat="32.92935864348496" lon="-5.050532402129861"><ele>1737.3333333333335</ele><time>2026-04-27T10:52:05.999Z</time></trkpt><trkpt lat="32.929528642891995" lon="-5.050693270747022"><ele>1738.0</ele><time>2026-04-27T10:52:06.999Z</time></trkpt><trkpt lat="32.92969718496727" lon="-5.05085281715708"><ele>1738.0</ele><time>2026-04-27T10:52:07.999Z</time></trkpt><trkpt lat="32.929862126329894" lon="-5.051014920971986"><ele>1738.0</ele><time>2026-04-27T10:52:08.999Z</time></trkpt><trkpt lat="32.93002077513053" lon="-5.051190243602171"><ele>1738.0</ele><time>2026-04-27T10:52:09.999Z</time></trkpt><trkpt lat="32.93016901085585" lon="-5.051383207782948"><ele>1737.5</ele><time>2026-04-27T10:52:10.999Z</time></trkpt><trkpt lat="32.9303101408935" lon="-5.051594525953012"><ele>1737.0</ele><time>2026-04-27T10:52:11.999Z</time></trkpt><trkpt lat="32.93044390558374" lon="-5.051827022161207"><ele>1740.5</ele><time>2026-04-27T10:52:12.999Z</time></trkpt><trkpt lat="32.93056399047108" lon="-5.052080774018564"><ele>1744.0</ele><time>2026-04-27T10:52:13.999Z</time></trkpt><trkpt lat="32.93067112130853" lon="-5.052345751982126"><ele>1748.0</ele><time>2026-04-27T10:52:14.999Z</time></trkpt><trkpt lat="32.9307719743898" lon="-5.052607469690946"><ele>1752.0</ele><time>2026-04-27T10:52:15.999Z</time></trkpt><trkpt lat="32.93087111753822" lon="-5.052854785284737"><ele>1754.0</ele><time>2026-04-27T10:52:16.999Z</time></trkpt><trkpt lat="32.930961189669986" lon="-5.053070033954685"><ele>1756.0</ele><time>2026-04-27T10:52:17.999Z</time></trkpt><trkpt lat="32.931048132374514" lon="-5.053266454321437"><ele>1758.0</ele><time>2026-04-27T10:52:18.999Z</time></trkpt><trkpt lat="32.931138497500775" lon="-5.053452782583166"><ele>1761.0</ele><time>2026-04-27T10:52:19.999Z</time></trkpt><trkpt lat="32.93123979790112" lon="-5.053626007961106"><ele>1764.0</ele><time>2026-04-27T10:52:20.999Z</time></trkpt><trkpt lat="32.931357132025546" lon="-5.053788308837948"><ele>1767.0</ele><time>2026-04-27T10:52:21.999Z</time></trkpt><trkpt lat="32.93148924361635" lon="-5.053935035989028"><ele>1767.0</ele><time>2026-04-27T10:52:22.999Z</time></trkpt><trkpt lat="32.93163131620812" lon="-5.054062119642201"><ele>1767.0</ele><time>2026-04-27T10:52:23.999Z</time></trkpt><trkpt lat="32.93177666081678" lon="-5.054170211885454"><ele>1767.0</ele><time>2026-04-27T10:52:24.999Z</time></trkpt><trkpt lat="32.93192933216069" lon="-5.054268663747664"><ele>1767.3333333333335</ele><time>2026-04-27T10:52:25.999Z</time></trkpt><trkpt lat="32.93209383184414" lon="-5.054351083778663"><ele>1767.6666666666667</ele><time>2026-04-27T10:52:26.999Z</time></trkpt><trkpt lat="32.932274193420426" lon="-5.0544142694057514"><ele>1768.0</ele><time>2026-04-27T10:52:27.999Z</time></trkpt><trkpt lat="32.93246632485575" lon="-5.054455283102823"><ele>1767.3333333333335</ele><time>2026-04-27T10:52:28.999Z</time></trkpt><trkpt lat="32.93266275574792" lon="-5.054479735056465"><ele>1766.6666666666665</ele><time>2026-04-27T10:52:29.999Z</time></trkpt><trkpt lat="32.93285796910533" lon="-5.0545005194058055"><ele>1766.0</ele><time>2026-04-27T10:52:30.999Z</time></trkpt><trkpt lat="32.933052481718235" lon="-5.054532625559548"><ele>1766.0</ele><time>2026-04-27T10:52:31.999Z</time></trkpt><trkpt lat="32.93324965369817" lon="-5.054595438092958"><ele>1766.0</ele><time>2026-04-27T10:52:32.999Z</time></trkpt><trkpt lat="32.933449817168025" lon="-5.05468645861561"><ele>1766.0</ele><time>2026-04-27T10:52:33.999Z</time></trkpt><trkpt lat="32.93365177056636" lon="-5.054795654649567"><ele>1764.0</ele><time>2026-04-27T10:52:34.999Z</time></trkpt><trkpt lat="32.93385653925539" lon="-5.05491995363622"><ele>1762.0</ele><time>2026-04-27T10:52:35.999Z</time></trkpt><trkpt lat="32.93406592890727" lon="-5.055060303077706"><ele>1769.0</ele><time>2026-04-27T10:52:36.999Z</time></trkpt><trkpt lat="32.934283028708464" lon="-5.0552115205751775"><ele>1776.0</ele><time>2026-04-27T10:52:37.999Z</time></trkpt><trkpt lat="32.93451042108064" lon="-5.055366165937466"><ele>1776.0</ele><time>2026-04-27T10:52:38.999Z</time></trkpt><trkpt lat="32.9347498808066" lon="-5.05552459165434"><ele>1776.0</ele><time>2026-04-27T10:52:39.999Z</time></trkpt><trkpt lat="32.93499335544106" lon="-5.055689008775919"><ele>1774.5</ele><time>2026-04-27T10:52:40.999Z</time></trkpt><trkpt lat="32.93523522236936" lon="-5.055857733437707"><ele>1773.0</ele><time>2026-04-27T10:52:41.999Z</time></trkpt><trkpt lat="32.935474468027095" lon="-5.0560222486594"><ele>1773.0</ele><time>2026-04-27T10:52:42.999Z</time></trkpt><trkpt lat="32.93570923690885" lon="-5.056177803290574"><ele>1773.0</ele><time>2026-04-27T10:52:43.999Z</time></trkpt><trkpt lat="32.93593673770579" lon="-5.056329164474043"><ele>1775.5</ele><time>2026-04-27T10:52:44.999Z</time></trkpt><trkpt lat="32.93615324646075" lon="-5.056482854051913"><ele>1778.0</ele><time>2026-04-27T10:52:45.999Z</time></trkpt><trkpt lat="32.93635790404108" lon="-5.056646250976273"><ele>1778.0</ele><time>2026-04-27T10:52:46.999Z</time></trkpt><trkpt lat="32.93654869046532" lon="-5.056814957437265"><ele>1778.0</ele><time>2026-04-27T10:52:47.999Z</time></trkpt><trkpt lat="32.93673421430338" lon="-5.056975567847589"><ele>1783.3333333333333</ele><time>2026-04-27T10:52:48.999Z</time></trkpt><trkpt lat="32.93692087337918" lon="-5.057118840893667"><ele>1788.6666666666665</ele><time>2026-04-27T10:52:49.999Z</time></trkpt><trkpt lat="32.93711382793236" lon="-5.057242405684097"><ele>1794.0</ele><time>2026-04-27T10:52:50.999Z</time></trkpt><trkpt lat="32.9373190603534" lon="-5.0573411076295995"><ele>1794.0</ele><time>2026-04-27T10:52:51.999Z</time></trkpt><trkpt lat="32.93753139514341" lon="-5.057414931316536"><ele>1794.0</ele><time>2026-04-27T10:52:52.999Z</time></trkpt><trkpt lat="32.93774634402961" lon="-5.05747626658902"><ele>1794.0</ele><time>2026-04-27T10:52:53.999Z</time></trkpt><trkpt lat="32.93795736835196" lon="-5.057536010970441"><ele>1796.0</ele><time>2026-04-27T10:52:54.999Z</time></trkpt><trkpt lat="32.93815322374424" lon="-5.057592290546454"><ele>1798.0</ele><time>2026-04-27T10:52:55.999Z</time></trkpt><trkpt lat="32.93832946472789" lon="-5.057650395008769"><ele>1800.0</ele><time>2026-04-27T10:52:56.999Z</time></trkpt><trkpt lat="32.938494540274185" lon="-5.057722275639098"><ele>1800.0</ele><time>2026-04-27T10:52:57.998Z</time></trkpt><trkpt lat="32.938649904062636" lon="-5.057830175161944"><ele>1800.0</ele><time>2026-04-27T10:52:58.998Z</time></trkpt><trkpt lat="32.93878870790251" lon="-5.05798246131823"><ele>1800.0</ele><time>2026-04-27T10:52:59.998Z</time></trkpt><trkpt lat="32.938908200397236" lon="-5.058176354863536"><ele>1796.3333333333335</ele><time>2026-04-27T10:53:00.998Z</time></trkpt><trkpt lat="32.93900450740699" lon="-5.0584001855605"><ele>1792.6666666666667</ele><time>2026-04-27T10:53:01.998Z</time></trkpt><trkpt lat="32.939078211447416" lon="-5.0586318591495765"><ele>1789.0</ele><time>2026-04-27T10:53:02.998Z</time></trkpt><trkpt lat="32.93914962052763" lon="-5.0588686745247955"><ele>1796.0</ele><time>2026-04-27T10:53:03.998Z</time></trkpt><trkpt lat="32.93922630117107" lon="-5.059111456149599"><ele>1803.0</ele><time>2026-04-27T10:53:04.998Z</time></trkpt><trkpt lat="32.939300389111864" lon="-5.059353361400486"><ele>1810.0</ele><time>2026-04-27T10:53:05.998Z</time></trkpt><trkpt lat="32.93936849555601" lon="-5.059590798484454"><ele>1810.0</ele><time>2026-04-27T10:53:06.998Z</time></trkpt><trkpt lat="32.93943127506438" lon="-5.059819546807918"><ele>1810.0</ele><time>2026-04-27T10:53:07.998Z</time></trkpt><trkpt lat="32.939497483012225" lon="-5.060044112878117"><ele>1810.0</ele><time>2026-04-27T10:53:08.998Z</time></trkpt><trkpt lat="32.93957612713641" lon="-5.060259450276807"><ele>1807.3333333333335</ele><time>2026-04-27T10:53:10Z</time></trkpt><trkpt lat="32.93966950915907" lon="-5.060438745109546"><ele>1804.6666666666665</ele><time>2026-04-27T10:53:11Z</time></trkpt><trkpt lat="32.93977807706637" lon="-5.060584405337019"><ele>1802.0</ele><time>2026-04-27T10:53:12Z</time></trkpt><trkpt lat="32.9399083476325" lon="-5.060697178517715"><ele>1800.6666666666665</ele><time>2026-04-27T10:53:13Z</time></trkpt><trkpt lat="32.940063820349316" lon="-5.060781856089415"><ele>1799.3333333333335</ele><time>2026-04-27T10:53:14Z</time></trkpt><trkpt lat="32.94024168932445" lon="-5.0608289732109135"><ele>1798.0</ele><time>2026-04-27T10:53:15Z</time></trkpt><trkpt lat="32.94043011996361" lon="-5.060838772607922"><ele>1798.0</ele><time>2026-04-27T10:53:16Z</time></trkpt><trkpt lat="32.94064230353985" lon="-5.060806463389886"><ele>1798.0</ele><time>2026-04-27T10:53:17Z</time></trkpt><trkpt lat="32.940876038738445" lon="-5.060748616243774"><ele>1805.0</ele><time>2026-04-27T10:53:18Z</time></trkpt><trkpt lat="32.94112117711557" lon="-5.060684976382522"><ele>1812.0</ele><time>2026-04-27T10:53:19Z</time></trkpt><trkpt lat="32.94135506259282" lon="-5.060623078844925"><ele>1812.0</ele><time>2026-04-27T10:53:20Z</time></trkpt><trkpt lat="32.941583041459424" lon="-5.0605620719787785"><ele>1812.0</ele><time>2026-04-27T10:53:21Z</time></trkpt><trkpt lat="32.94180348178607" lon="-5.060502886405668"><ele>1810.5</ele><time>2026-04-27T10:53:22Z</time></trkpt><trkpt lat="32.942019743317736" lon="-5.060441660901205"><ele>1809.0</ele><time>2026-04-27T10:53:23Z</time></trkpt><trkpt lat="32.94224461685227" lon="-5.060365918780824"><ele>1809.0</ele><time>2026-04-27T10:53:24Z</time></trkpt><trkpt lat="32.94247027653907" lon="-5.060288405046902"><ele>1809.0</ele><time>2026-04-27T10:53:25Z</time></trkpt><trkpt lat="32.942679752728765" lon="-5.060225403902187"><ele>1810.0</ele><time>2026-04-27T10:53:26Z</time></trkpt><trkpt lat="32.942871869202904" lon="-5.060170565877453"><ele>1811.0</ele><time>2026-04-27T10:53:27Z</time></trkpt><trkpt lat="32.94304978203833" lon="-5.060113940364146"><ele>1812.0</ele><time>2026-04-27T10:53:28Z</time></trkpt><trkpt lat="32.94323609555722" lon="-5.060052651309206"><ele>1814.6666666666665</ele><time>2026-04-27T10:53:29Z</time></trkpt><trkpt lat="32.94343255741881" lon="-5.05998880916021"><ele>1817.3333333333333</ele><time>2026-04-27T10:53:30Z</time></trkpt><trkpt lat="32.943635173381196" lon="-5.059923430142828"><ele>1820.0</ele><time>2026-04-27T10:53:30.999Z</time></trkpt><trkpt lat="32.94384241493342" lon="-5.059860399569545"><ele>1820.0</ele><time>2026-04-27T10:53:31.999Z</time></trkpt><trkpt lat="32.944056243809136" lon="-5.059796981221663"><ele>1820.0</ele><time>2026-04-27T10:53:32.999Z</time></trkpt><trkpt lat="32.94427713282145" lon="-5.059731004123294"><ele>1820.0</ele><time>2026-04-27T10:53:33.999Z</time></trkpt><trkpt lat="32.94449989101398" lon="-5.059666521093578"><ele>1821.5</ele><time>2026-04-27T10:53:34.999Z</time></trkpt><trkpt lat="32.94472190987026" lon="-5.059603173634641"><ele>1823.0</ele><time>2026-04-27T10:53:35.999Z</time></trkpt><trkpt lat="32.94493706907804" lon="-5.059540716672883"><ele>1823.3333333333333</ele><time>2026-04-27T10:53:36.999Z</time></trkpt><trkpt lat="32.94515009905695" lon="-5.059475285971498"><ele>1823.6666666666665</ele><time>2026-04-27T10:53:37.999Z</time></trkpt><trkpt lat="32.945367557962726" lon="-5.05939470321721"><ele>1824.0</ele><time>2026-04-27T10:53:38.999Z</time></trkpt><trkpt lat="32.945585610537044" lon="-5.059292544804197"><ele>1824.0</ele><time>2026-04-27T10:53:39.999Z</time></trkpt><trkpt lat="32.94580082690473" lon="-5.059171065664576"><ele>1824.0</ele><time>2026-04-27T10:53:40.999Z</time></trkpt><trkpt lat="32.94601543144291" lon="-5.059033868991474"><ele>1827.0</ele><time>2026-04-27T10:53:41.999Z</time></trkpt><trkpt lat="32.946234983215874" lon="-5.058887513386562"><ele>1830.0</ele><time>2026-04-27T10:53:42.999Z</time></trkpt><trkpt lat="32.94645820994398" lon="-5.058739800477734"><ele>1830.0</ele><time>2026-04-27T10:53:43.999Z</time></trkpt><trkpt lat="32.946679728564284" lon="-5.058592580561626"><ele>1830.0</ele><time>2026-04-27T10:53:44.999Z</time></trkpt><trkpt lat="32.94690606416683" lon="-5.058439274939767"><ele>1832.0</ele><time>2026-04-27T10:53:45.999Z</time></trkpt><trkpt lat="32.947126380778684" lon="-5.0582913854924145"><ele>1834.0</ele><time>2026-04-27T10:53:46.999Z</time></trkpt><trkpt lat="32.94734270247593" lon="-5.058145683178255"><ele>1836.0</ele><time>2026-04-27T10:53:47.999Z</time></trkpt><trkpt lat="32.947558791577514" lon="-5.058000363173503"><ele>1838.0</ele><time>2026-04-27T10:53:48.999Z</time></trkpt><trkpt lat="32.94777833956069" lon="-5.057854195926243"><ele>1838.0</ele><time>2026-04-27T10:53:49.999Z</time></trkpt><trkpt lat="32.9479980053881" lon="-5.057710076770435"><ele>1838.0</ele><time>2026-04-27T10:53:50.999Z</time></trkpt><trkpt lat="32.94821615958201" lon="-5.057567653619652"><ele>1841.5</ele><time>2026-04-27T10:53:51.999Z</time></trkpt><trkpt lat="32.9484257138866" lon="-5.057429080144245"><ele>1845.0</ele><time>2026-04-27T10:53:52.999Z</time></trkpt><trkpt lat="32.948626051990544" lon="-5.057295786008761"><ele>1845.0</ele><time>2026-04-27T10:53:53.999Z</time></trkpt><trkpt lat="32.948824444745604" lon="-5.057163397498298"><ele>1845.0</ele><time>2026-04-27T10:53:54.999Z</time></trkpt><trkpt lat="32.94901576193365" lon="-5.057035147482569"><ele>1845.0</ele><time>2026-04-27T10:53:55.999Z</time></trkpt><trkpt lat="32.949191602968135" lon="-5.056916855883676"><ele>1846.3333333333335</ele><time>2026-04-27T10:53:56.999Z</time></trkpt><trkpt lat="32.94935969750858" lon="-5.056808139219623"><ele>1847.6666666666667</ele><time>2026-04-27T10:53:57.999Z</time></trkpt><trkpt lat="32.94952509538572" lon="-5.056704654242708"><ele>1849.0</ele><time>2026-04-27T10:53:58.999Z</time></trkpt><trkpt lat="32.94968828305342" lon="-5.056599856144438"><ele>1849.0</ele><time>2026-04-27T10:53:59.999Z</time></trkpt><trkpt lat="32.94984932982809" lon="-5.056495140782126"><ele>1849.0</ele><time>2026-04-27T10:54:00.999Z</time></trkpt><trkpt lat="32.95000933445668" lon="-5.056388101194351"><ele>1849.0</ele><time>2026-04-27T10:54:01.999Z</time></trkpt><trkpt lat="32.95016907245512" lon="-5.056279348084148"><ele>1849.3333333333335</ele><time>2026-04-27T10:54:02.999Z</time></trkpt><trkpt lat="32.95033164730891" lon="-5.056172271713569"><ele>1849.6666666666665</ele><time>2026-04-27T10:54:03.999Z</time></trkpt><trkpt lat="32.95050247003404" lon="-5.056062437584691"><ele>1850.0</ele><time>2026-04-27T10:54:04.999Z</time></trkpt><trkpt lat="32.9506759797479" lon="-5.0559498604352395"><ele>1850.0</ele><time>2026-04-27T10:54:05.999Z</time></trkpt><trkpt lat="32.950855731041806" lon="-5.055831202628419"><ele>1850.0</ele><time>2026-04-27T10:54:06.999Z</time></trkpt><trkpt lat="32.951048067069024" lon="-5.055702647304653"><ele>1850.0</ele><time>2026-04-27T10:54:07.999Z</time></trkpt><trkpt lat="32.951253549754256" lon="-5.055565917281039"><ele>1852.5</ele><time>2026-04-27T10:54:08.999Z</time></trkpt><trkpt lat="32.95147109915449" lon="-5.055421643395139"><ele>1855.0</ele><time>2026-04-27T10:54:09.999Z</time></trkpt><trkpt lat="32.95170422386275" lon="-5.05526891161671"><ele>1855.5</ele><time>2026-04-27T10:54:10.999Z</time></trkpt><trkpt lat="32.95194462536894" lon="-5.05511214558298"><ele>1856.0</ele><time>2026-04-27T10:54:11.999Z</time></trkpt><trkpt lat="32.95220015449127" lon="-5.054945891591855"><ele>1856.0</ele><time>2026-04-27T10:54:12.999Z</time></trkpt><trkpt lat="32.95244850633375" lon="-5.05478006312195"><ele>1856.0</ele><time>2026-04-27T10:54:13.999Z</time></trkpt><trkpt lat="32.952687729075485" lon="-5.054622389249396"><ele>1857.0</ele><time>2026-04-27T10:54:14.999Z</time></trkpt><trkpt lat="32.952912974606576" lon="-5.0544762193951165"><ele>1858.0</ele><time>2026-04-27T10:54:15.999Z</time></trkpt><trkpt lat="32.95312195705732" lon="-5.054332438827756"><ele>1858.0</ele><time>2026-04-27T10:54:16.999Z</time></trkpt><trkpt lat="32.95332268568737" lon="-5.054198015759494"><ele>1858.0</ele><time>2026-04-27T10:54:17.999Z</time></trkpt><trkpt lat="32.95351526592168" lon="-5.0540698017914965"><ele>1858.0</ele><time>2026-04-27T10:54:18.999Z</time></trkpt><trkpt lat="32.95370022200064" lon="-5.053948275893454"><ele>1858.0</ele><time>2026-04-27T10:54:19.999Z</time></trkpt><trkpt lat="32.953875375142374" lon="-5.05383078411787"><ele>1858.0</ele><time>2026-04-27T10:54:20.999Z</time></trkpt><trkpt lat="32.95404384738246" lon="-5.053725759620872"><ele>1858.0</ele><time>2026-04-27T10:54:21.999Z</time></trkpt><trkpt lat="32.95420528315305" lon="-5.053640442827656"><ele>1858.0</ele><time>2026-04-27T10:54:22.999Z</time></trkpt><trkpt lat="32.95436733748511" lon="-5.053562920234187"><ele>1858.0</ele><time>2026-04-27T10:54:23.999Z</time></trkpt><trkpt lat="32.954533642851146" lon="-5.053496762223433"><ele>1858.0</ele><time>2026-04-27T10:54:24.999Z</time></trkpt><trkpt lat="32.954703354527766" lon="-5.053437193169081"><ele>1858.0</ele><time>2026-04-27T10:54:25.999Z</time></trkpt><trkpt lat="32.95487703848132" lon="-5.053382295267166"><ele>1858.0</ele><time>2026-04-27T10:54:26.999Z</time></trkpt><trkpt lat="32.95505341788215" lon="-5.053329196510204"><ele>1857.0</ele><time>2026-04-27T10:54:27.999Z</time></trkpt><trkpt lat="32.95523012943461" lon="-5.053276348685049"><ele>1856.0</ele><time>2026-04-27T10:54:28.999Z</time></trkpt><trkpt lat="32.95540493373717" lon="-5.0532211122546284"><ele>1855.0</ele><time>2026-04-27T10:54:29.999Z</time></trkpt><trkpt lat="32.955578622734485" lon="-5.053170953235178"><ele>1855.0</ele><time>2026-04-27T10:54:30.999Z</time></trkpt><trkpt lat="32.9557497398601" lon="-5.053124763745557"><ele>1855.0</ele><time>2026-04-27T10:54:31.999Z</time></trkpt><trkpt lat="32.95591836635674" lon="-5.0530794679188125"><ele>1855.0</ele><time>2026-04-27T10:54:32.999Z</time></trkpt><trkpt lat="32.95608856465029" lon="-5.05303774989693"><ele>1856.0</ele><time>2026-04-27T10:54:33.999Z</time></trkpt><trkpt lat="32.95626150173019" lon="-5.053003747866956"><ele>1857.0</ele><time>2026-04-27T10:54:34.999Z</time></trkpt><trkpt lat="32.956436969662946" lon="-5.052976060245075"><ele>1858.0</ele><time>2026-04-27T10:54:35.999Z</time></trkpt><trkpt lat="32.95661287639094" lon="-5.052956974765973"><ele>1859.0</ele><time>2026-04-27T10:54:36.999Z</time></trkpt><trkpt lat="32.95678866295122" lon="-5.052945467301537"><ele>1860.0</ele><time>2026-04-27T10:54:37.999Z</time></trkpt><trkpt lat="32.95696370819463" lon="-5.0529387364145375"><ele>1861.0</ele><time>2026-04-27T10:54:38.999Z</time></trkpt><trkpt lat="32.95714006978473" lon="-5.0529325438023465"><ele>1861.0</ele><time>2026-04-27T10:54:39.999Z</time></trkpt><trkpt lat="32.95731332085112" lon="-5.052934240350149"><ele>1861.0</ele><time>2026-04-27T10:54:40.999Z</time></trkpt><trkpt lat="32.95748558713202" lon="-5.052940907795617"><ele>1861.0</ele><time>2026-04-27T10:54:41.999Z</time></trkpt><trkpt lat="32.957654095138665" lon="-5.052955935065551"><ele>1861.6666666666667</ele><time>2026-04-27T10:54:42.999Z</time></trkpt><trkpt lat="32.9578199887464" lon="-5.052975231593806"><ele>1862.3333333333335</ele><time>2026-04-27T10:54:43.999Z</time></trkpt><trkpt lat="32.95798590093156" lon="-5.053004049146715"><ele>1863.0</ele><time>2026-04-27T10:54:44.999Z</time></trkpt><trkpt lat="32.95815095012005" lon="-5.053043800607319"><ele>1863.0</ele><time>2026-04-27T10:54:45.999Z</time></trkpt><trkpt lat="32.95831109964058" lon="-5.053104069778992"><ele>1863.0</ele><time>2026-04-27T10:54:46.999Z</time></trkpt><trkpt lat="32.958483737989226" lon="-5.053174435527499"><ele>1863.0</ele><time>2026-04-27T10:54:47.999Z</time></trkpt><trkpt lat="32.95865528917636" lon="-5.053269436070487"><ele>1866.6666666666665</ele><time>2026-04-27T10:54:48.999Z</time></trkpt><trkpt lat="32.95884034999798" lon="-5.0533889583725236"><ele>1870.3333333333333</ele><time>2026-04-27T10:54:49.999Z</time></trkpt><trkpt lat="32.9590237401032" lon="-5.053520478005852"><ele>1874.0</ele><time>2026-04-27T10:54:50.999Z</time></trkpt><trkpt lat="32.95919960569302" lon="-5.053648343551483"><ele>1877.3333333333333</ele><time>2026-04-27T10:54:51.999Z</time></trkpt><trkpt lat="32.95935869156431" lon="-5.053786419534549"><ele>1880.6666666666665</ele><time>2026-04-27T10:54:52.999Z</time></trkpt><trkpt lat="32.959522403354185" lon="-5.05388280831582"><ele>1884.0</ele><time>2026-04-27T10:54:53.999Z</time></trkpt><trkpt lat="32.959667748770876" lon="-5.05398990608953"><ele>1884.0</ele><time>2026-04-27T10:54:54.999Z</time></trkpt><trkpt lat="32.95980719575063" lon="-5.054090801108266"><ele>1884.0</ele><time>2026-04-27T10:54:55.999Z</time></trkpt><trkpt lat="32.95994149865898" lon="-5.0541884516324025"><ele>1884.0</ele><time>2026-04-27T10:54:56.999Z</time></trkpt><trkpt lat="32.96007321672785" lon="-5.054284576684647"><ele>1885.0</ele><time>2026-04-27T10:54:57.999Z</time></trkpt><trkpt lat="32.96021111375449" lon="-5.0543853497333915"><ele>1886.0</ele><time>2026-04-27T10:54:58.999Z</time></trkpt><trkpt lat="32.96036040104935" lon="-5.0544942615328505"><ele>1887.0</ele><time>2026-04-27T10:54:59.999Z</time></trkpt><trkpt lat="32.96051831235907" lon="-5.054609322550107"><ele>1887.0</ele><time>2026-04-27T10:55:00.999Z</time></trkpt><trkpt lat="32.96067379953766" lon="-5.054722093925372"><ele>1887.0</ele><time>2026-04-27T10:55:01.999Z</time></trkpt><trkpt lat="32.960828459074776" lon="-5.054834939811374"><ele>1887.0</ele><time>2026-04-27T10:55:02.999Z</time></trkpt><trkpt lat="32.96098526542504" lon="-5.054949352102207"><ele>1888.3333333333335</ele><time>2026-04-27T10:55:03.999Z</time></trkpt><trkpt lat="32.961134101092135" lon="-5.055057948650739"><ele>1889.6666666666667</ele><time>2026-04-27T10:55:04.999Z</time></trkpt><trkpt lat="32.961279136576294" lon="-5.055163753618922"><ele>1891.0</ele><time>2026-04-27T10:55:05.998Z</time></trkpt><trkpt lat="32.961426869717506" lon="-5.055271303504216"><ele>1891.0</ele><time>2026-04-27T10:55:06.998Z</time></trkpt><trkpt lat="32.96157473908746" lon="-5.055379207183785"><ele>1891.0</ele><time>2026-04-27T10:55:07.998Z</time></trkpt><trkpt lat="32.9617234175079" lon="-5.055487575040568"><ele>1891.0</ele><time>2026-04-27T10:55:08.998Z</time></trkpt><trkpt lat="32.96186669161615" lon="-5.05561044176816"><ele>1892.3333333333335</ele><time>2026-04-27T10:55:09.998Z</time></trkpt><trkpt lat="32.962034678200986" lon="-5.055689699510568"><ele>1893.6666666666665</ele><time>2026-04-27T10:55:10.998Z</time></trkpt><trkpt lat="32.962199533914884" lon="-5.055769361955495"><ele>1895.0</ele><time>2026-04-27T10:55:11.998Z</time></trkpt><trkpt lat="32.9623695492081" lon="-5.055842395155586"><ele>1897.3333333333333</ele><time>2026-04-27T10:55:12.998Z</time></trkpt><trkpt lat="32.96254855228385" lon="-5.055907150438443"><ele>1899.6666666666665</ele><time>2026-04-27T10:55:13.998Z</time></trkpt><trkpt lat="32.96272423220217" lon="-5.055943673318186"><ele>1902.0</ele><time>2026-04-27T10:55:14.998Z</time></trkpt><trkpt lat="32.96292373866518" lon="-5.0559751648066555"><ele>1902.0</ele><time>2026-04-27T10:55:16Z</time></trkpt><trkpt lat="32.96315294740766" lon="-5.05600114679972"><ele>1902.0</ele><time>2026-04-27T10:55:17Z</time></trkpt><trkpt lat="32.96340606758852" lon="-5.056031280361631"><ele>1907.5</ele><time>2026-04-27T10:55:18Z</time></trkpt><trkpt lat="32.963669895790424" lon="-5.0560753696470755"><ele>1913.0</ele><time>2026-04-27T10:55:19Z</time></trkpt><trkpt lat="32.963938338974984" lon="-5.056148450531145"><ele>1919.5</ele><time>2026-04-27T10:55:20Z</time></trkpt><trkpt lat="32.964203387716644" lon="-5.056233737712297"><ele>1926.0</ele><time>2026-04-27T10:55:21Z</time></trkpt><trkpt lat="32.96447255684507" lon="-5.05631959498734"><ele>1926.0</ele><time>2026-04-27T10:55:22Z</time></trkpt><trkpt lat="32.96472119053984" lon="-5.05639945497964"><ele>1926.0</ele><time>2026-04-27T10:55:23Z</time></trkpt><trkpt lat="32.96495868327265" lon="-5.056476594923296"><ele>1929.0</ele><time>2026-04-27T10:55:24Z</time></trkpt><trkpt lat="32.96519047732021" lon="-5.0565584666914125"><ele>1932.0</ele><time>2026-04-27T10:55:25Z</time></trkpt><trkpt lat="32.96541443710743" lon="-5.056652747573117"><ele>1932.0</ele><time>2026-04-27T10:55:26Z</time></trkpt><trkpt lat="32.96563213016421" lon="-5.056745678750029"><ele>1932.0</ele><time>2026-04-27T10:55:27Z</time></trkpt><trkpt lat="32.96585073313059" lon="-5.056837101126492"><ele>1939.0</ele><time>2026-04-27T10:55:28Z</time></trkpt><trkpt lat="32.96607562871992" lon="-5.05693157986565"><ele>1946.0</ele><time>2026-04-27T10:55:29Z</time></trkpt><trkpt lat="32.96630046646159" lon="-5.0570270257142695"><ele>1946.0</ele><time>2026-04-27T10:55:30Z</time></trkpt><trkpt lat="32.96652708775961" lon="-5.057124308045389"><ele>1946.0</ele><time>2026-04-27T10:55:31Z</time></trkpt><trkpt lat="32.96675559515254" lon="-5.057222234505859"><ele>1952.0</ele><time>2026-04-27T10:55:32Z</time></trkpt><trkpt lat="32.96699431631402" lon="-5.057327696366936"><ele>1958.0</ele><time>2026-04-27T10:55:33Z</time></trkpt><trkpt lat="32.96723093435678" lon="-5.057427983849124"><ele>1958.0</ele><time>2026-04-27T10:55:34Z</time></trkpt><trkpt lat="32.96745681224842" lon="-5.057517068202819"><ele>1958.0</ele><time>2026-04-27T10:55:35Z</time></trkpt><trkpt lat="32.967668295321914" lon="-5.057600365797233"><ele>1958.0</ele><time>2026-04-27T10:55:36Z</time></trkpt><trkpt lat="32.96786420004443" lon="-5.057674865184809"><ele>1958.0</ele><time>2026-04-27T10:55:37Z</time></trkpt><trkpt lat="32.96805401196758" lon="-5.057745351471333"><ele>1958.0</ele><time>2026-04-27T10:55:38Z</time></trkpt><trkpt lat="32.9682441429586" lon="-5.057815028001328"><ele>1955.0</ele><time>2026-04-27T10:55:39Z</time></trkpt><trkpt lat="32.96843772548071" lon="-5.057884121983538"><ele>1952.0</ele><time>2026-04-27T10:55:40Z</time></trkpt><trkpt lat="32.968637196764234" lon="-5.057955959915575"><ele>1949.0</ele><time>2026-04-27T10:55:40.999Z</time></trkpt><trkpt lat="32.96882990783402" lon="-5.058027620711382"><ele>1949.0</ele><time>2026-04-27T10:55:41.999Z</time></trkpt><trkpt lat="32.96900619880725" lon="-5.058095294372942"><ele>1949.0</ele><time>2026-04-27T10:55:42.999Z</time></trkpt><trkpt lat="32.969171158677305" lon="-5.058152687604625"><ele>1949.0</ele><time>2026-04-27T10:55:43.999Z</time></trkpt><trkpt lat="32.96932444438859" lon="-5.058204135432078"><ele>1950.5</ele><time>2026-04-27T10:55:44.999Z</time></trkpt><trkpt lat="32.96946022881676" lon="-5.058191226884353"><ele>1952.0</ele><time>2026-04-27T10:55:45.999Z</time></trkpt><trkpt lat="32.96958457994897" lon="-5.058158668230071"><ele>1953.5</ele><time>2026-04-27T10:55:46.999Z</time></trkpt><trkpt lat="32.96971022394899" lon="-5.058099510242369"><ele>1955.0</ele><time>2026-04-27T10:55:47.999Z</time></trkpt><trkpt lat="32.969829263615615" lon="-5.057978981322024"><ele>1955.0</ele><time>2026-04-27T10:55:48.999Z</time></trkpt><trkpt lat="32.969937402646465" lon="-5.057851467778548"><ele>1955.0</ele><time>2026-04-27T10:55:49.999Z</time></trkpt><trkpt lat="32.97004853537938" lon="-5.057734434279067"><ele>1955.0</ele><time>2026-04-27T10:55:50.999Z</time></trkpt><trkpt lat="32.970177393812804" lon="-5.057637342024573"><ele>1959.3333333333333</ele><time>2026-04-27T10:55:51.999Z</time></trkpt><trkpt lat="32.97031804659552" lon="-5.05755061000241"><ele>1963.6666666666665</ele><time>2026-04-27T10:55:52.999Z</time></trkpt><trkpt lat="32.97048999296088" lon="-5.057506787318883"><ele>1968.0</ele><time>2026-04-27T10:55:53.999Z</time></trkpt><trkpt lat="32.97067148801405" lon="-5.057482571570665"><ele>1968.0</ele><time>2026-04-27T10:55:54.999Z</time></trkpt><trkpt lat="32.97085195121473" lon="-5.05746762045714"><ele>1968.0</ele><time>2026-04-27T10:55:55.999Z</time></trkpt><trkpt lat="32.971026156244356" lon="-5.057452049975986"><ele>1968.0</ele><time>2026-04-27T10:55:56.999Z</time></trkpt><trkpt lat="32.971194833904995" lon="-5.057432026381755"><ele>1964.3333333333335</ele><time>2026-04-27T10:55:57.999Z</time></trkpt><trkpt lat="32.971354625845876" lon="-5.05738461477708"><ele>1960.6666666666667</ele><time>2026-04-27T10:55:58.999Z</time></trkpt><trkpt lat="32.97151801565949" lon="-5.0573239771742164"><ele>1957.0</ele><time>2026-04-27T10:55:59.999Z</time></trkpt><trkpt lat="32.97167502618227" lon="-5.057239389702294"><ele>1958.0</ele><time>2026-04-27T10:56:00.999Z</time></trkpt><trkpt lat="32.97183040235866" lon="-5.0571605374706134"><ele>1959.0</ele><time>2026-04-27T10:56:01.999Z</time></trkpt><trkpt lat="32.97196814421939" lon="-5.057066808230968"><ele>1960.0</ele><time>2026-04-27T10:56:02.999Z</time></trkpt><trkpt lat="32.9720941166243" lon="-5.056999144056869"><ele>1960.0</ele><time>2026-04-27T10:56:03.999Z</time></trkpt><trkpt lat="32.97220888574061" lon="-5.056937497560699"><ele>1960.0</ele><time>2026-04-27T10:56:04.999Z</time></trkpt><trkpt lat="32.97235513346152" lon="-5.056981876426028"><ele>1960.0</ele><time>2026-04-27T10:56:05.999Z</time></trkpt><trkpt lat="32.97247059940688" lon="-5.057014423627833"><ele>1960.0</ele><time>2026-04-27T10:56:06.999Z</time></trkpt><trkpt lat="32.97255955857479" lon="-5.057081480318136"><ele>1963.0</ele><time>2026-04-27T10:56:07.999Z</time></trkpt><trkpt lat="32.9726326079838" lon="-5.057183437938672"><ele>1966.0</ele><time>2026-04-27T10:56:08.999Z</time></trkpt><trkpt lat="32.97269001105237" lon="-5.057311124495505"><ele>1969.0</ele><time>2026-04-27T10:56:09.999Z</time></trkpt><trkpt lat="32.97274430576297" lon="-5.057453149234116"><ele>1972.0</ele><time>2026-04-27T10:56:10.999Z</time></trkpt><trkpt lat="32.97281746217783" lon="-5.057590761523706"><ele>1972.0</ele><time>2026-04-27T10:56:11.999Z</time></trkpt><trkpt lat="32.972912121160896" lon="-5.057714970563751"><ele>1972.0</ele><time>2026-04-27T10:56:12.999Z</time></trkpt><trkpt lat="32.973027137371844" lon="-5.057814677140679"><ele>1972.0</ele><time>2026-04-27T10:56:13.999Z</time></trkpt><trkpt lat="32.97315278008105" lon="-5.057906441448386"><ele>1972.0</ele><time>2026-04-27T10:56:14.999Z</time></trkpt><trkpt lat="32.97328755220013" lon="-5.058001014449085"><ele>1976.0</ele><time>2026-04-27T10:56:15.999Z</time></trkpt><trkpt lat="32.973428130054835" lon="-5.058103108395942"><ele>1980.0</ele><time>2026-04-27T10:56:16.999Z</time></trkpt><trkpt lat="32.97356523307474" lon="-5.058201188876932"><ele>1984.0</ele><time>2026-04-27T10:56:17.999Z</time></trkpt><trkpt lat="32.97369802354023" lon="-5.0582949364187435"><ele>1984.0</ele><time>2026-04-27T10:56:18.999Z</time></trkpt><trkpt lat="32.97382561857777" lon="-5.058387327733576"><ele>1984.0</ele><time>2026-04-27T10:56:19.999Z</time></trkpt><trkpt lat="32.97394924690822" lon="-5.058474885886615"><ele>1984.0</ele><time>2026-04-27T10:56:20.999Z</time></trkpt><trkpt lat="32.974064598704075" lon="-5.0585619111101225"><ele>1984.0</ele><time>2026-04-27T10:56:21.999Z</time></trkpt><trkpt lat="32.97415673900872" lon="-5.058653508429967"><ele>1980.75</ele><time>2026-04-27T10:56:22.999Z</time></trkpt><trkpt lat="32.97422352454979" lon="-5.058768908938928"><ele>1977.5</ele><time>2026-04-27T10:56:23.999Z</time></trkpt><trkpt lat="32.974255216781245" lon="-5.058911059077821"><ele>1974.25</ele><time>2026-04-27T10:56:24.999Z</time></trkpt><trkpt lat="32.97425688979818" lon="-5.059074617017834"><ele>1971.0</ele><time>2026-04-27T10:56:25.999Z</time></trkpt><trkpt lat="32.974245233244964" lon="-5.059239444619081"><ele>1971.0</ele><time>2026-04-27T10:56:26.999Z</time></trkpt><trkpt lat="32.9742300104226" lon="-5.059394783537233"><ele>1971.0</ele><time>2026-04-27T10:56:27.999Z</time></trkpt><trkpt lat="32.97421755960503" lon="-5.059546722158092"><ele>1971.0</ele><time>2026-04-27T10:56:28.999Z</time></trkpt><trkpt lat="32.97422378536038" lon="-5.059694410630704"><ele>1971.0</ele><time>2026-04-27T10:56:29.999Z</time></trkpt><trkpt lat="32.97426498458123" lon="-5.059832634275887"><ele>1977.5</ele><time>2026-04-27T10:56:30.999Z</time></trkpt><trkpt lat="32.97434427027786" lon="-5.059953237803483"><ele>1984.0</ele><time>2026-04-27T10:56:31.999Z</time></trkpt><trkpt lat="32.974452303429096" lon="-5.060051944022825"><ele>1990.5</ele><time>2026-04-27T10:56:32.999Z</time></trkpt><trkpt lat="32.97457739437932" lon="-5.060136268103785"><ele>1997.0</ele><time>2026-04-27T10:56:33.999Z</time></trkpt><trkpt lat="32.974704646967204" lon="-5.060213954905307"><ele>1997.0</ele><time>2026-04-27T10:56:34.999Z</time></trkpt><trkpt lat="32.97483752763682" lon="-5.060289801880748"><ele>1997.0</ele><time>2026-04-27T10:56:35.999Z</time></trkpt><trkpt lat="32.9749726189202" lon="-5.060360882807482"><ele>1997.0</ele><time>2026-04-27T10:56:36.999Z</time></trkpt><trkpt lat="32.975103255766996" lon="-5.060427401575942"><ele>1997.0</ele><time>2026-04-27T10:56:37.999Z</time></trkpt><trkpt lat="32.97525271778793" lon="-5.060499443851952"><ele>1990.3333333333333</ele><time>2026-04-27T10:56:38.999Z</time></trkpt><trkpt lat="32.97540818974643" lon="-5.060571278969744"><ele>1983.6666666666665</ele><time>2026-04-27T10:56:39.999Z</time></trkpt><trkpt lat="32.9755599351841" lon="-5.060633313123422"><ele>1977.0</ele><time>2026-04-27T10:56:40.999Z</time></trkpt><trkpt lat="32.975702824977226" lon="-5.060696248869166"><ele>1980.0</ele><time>2026-04-27T10:56:41.999Z</time></trkpt><trkpt lat="32.97584462799174" lon="-5.06078645631443"><ele>1983.0</ele><time>2026-04-27T10:56:42.999Z</time></trkpt><trkpt lat="32.97597922248912" lon="-5.060912401729364"><ele>1986.0</ele><time>2026-04-27T10:56:43.999Z</time></trkpt><trkpt lat="32.976101468611674" lon="-5.061061284062187"><ele>1986.0</ele><time>2026-04-27T10:56:44.999Z</time></trkpt><trkpt lat="32.9762186252983" lon="-5.061220201280854"><ele>1986.0</ele><time>2026-04-27T10:56:45.999Z</time></trkpt><trkpt lat="32.97633399921493" lon="-5.061376068728835"><ele>1986.0</ele><time>2026-04-27T10:56:46.999Z</time></trkpt><trkpt lat="32.97644518215573" lon="-5.0615279705550815"><ele>1984.6666666666665</ele><time>2026-04-27T10:56:47.999Z</time></trkpt><trkpt lat="32.97655295846232" lon="-5.061687187446457"><ele>1983.3333333333333</ele><time>2026-04-27T10:56:48.999Z</time></trkpt><trkpt lat="32.976651220621974" lon="-5.061859967389233"><ele>1982.0</ele><time>2026-04-27T10:56:49.999Z</time></trkpt><trkpt lat="32.9767250880729" lon="-5.062044936745498"><ele>1982.0</ele><time>2026-04-27T10:56:50.999Z</time></trkpt><trkpt lat="32.9767830276177" lon="-5.062241617736492"><ele>1982.0</ele><time>2026-04-27T10:56:51.999Z</time></trkpt><trkpt lat="32.976841283105685" lon="-5.062446174584068"><ele>1982.0</ele><time>2026-04-27T10:56:52.999Z</time></trkpt><trkpt lat="32.97691417191628" lon="-5.062649062940344"><ele>1985.6666666666665</ele><time>2026-04-27T10:56:53.999Z</time></trkpt><trkpt lat="32.97699078024292" lon="-5.062847347243232"><ele>1989.3333333333335</ele><time>2026-04-27T10:56:54.999Z</time></trkpt><trkpt lat="32.97707226263697" lon="-5.06304096673348"><ele>1993.0</ele><time>2026-04-27T10:56:55.999Z</time></trkpt><trkpt lat="32.977162630757505" lon="-5.063220630651296"><ele>1994.6666666666667</ele><time>2026-04-27T10:56:56.999Z</time></trkpt><trkpt lat="32.977269512447094" lon="-5.063378697739992"><ele>1996.3333333333335</ele><time>2026-04-27T10:56:57.999Z</time></trkpt><trkpt lat="32.977396745672365" lon="-5.0635073384868505"><ele>1998.0</ele><time>2026-04-27T10:56:58.999Z</time></trkpt><trkpt lat="32.97753820275347" lon="-5.063611973934464"><ele>1998.0</ele><time>2026-04-27T10:56:59.999Z</time></trkpt><trkpt lat="32.97768937997719" lon="-5.063704985135659"><ele>1998.0</ele><time>2026-04-27T10:57:00.999Z</time></trkpt><trkpt lat="32.97784379240926" lon="-5.063793155907351"><ele>1998.0</ele><time>2026-04-27T10:57:01.999Z</time></trkpt><trkpt lat="32.97799423677485" lon="-5.063878307062542"><ele>1998.0</ele><time>2026-04-27T10:57:02.999Z</time></trkpt><trkpt lat="32.97814089540768" lon="-5.063953992211518"><ele>1998.0</ele><time>2026-04-27T10:57:03.999Z</time></trkpt><trkpt lat="32.97827551647502" lon="-5.064019488012121"><ele>1998.0</ele><time>2026-04-27T10:57:04.999Z</time></trkpt><trkpt lat="32.978405021777206" lon="-5.06410012581043"><ele>1998.6666666666665</ele><time>2026-04-27T10:57:06Z</time></trkpt><trkpt lat="32.978518978576794" lon="-5.064219301494238"><ele>1999.3333333333333</ele><time>2026-04-27T10:57:07Z</time></trkpt><trkpt lat="32.97863371420981" lon="-5.064380615041438"><ele>2000.0</ele><time>2026-04-27T10:57:08Z</time></trkpt><trkpt lat="32.97875271088981" lon="-5.064563738372527"><ele>2000.0</ele><time>2026-04-27T10:57:09Z</time></trkpt><trkpt lat="32.978878432870005" lon="-5.064732319896149"><ele>2000.0</ele><time>2026-04-27T10:57:09.999Z</time></trkpt><trkpt lat="32.97900945962883" lon="-5.064897896598837"><ele>2000.0</ele><time>2026-04-27T10:57:10.999Z</time></trkpt><trkpt lat="32.97913633522491" lon="-5.065061862865114"><ele>2000.6666666666665</ele><time>2026-04-27T10:57:11.999Z</time></trkpt><trkpt lat="32.979249181377746" lon="-5.065214195734547"><ele>2001.3333333333335</ele><time>2026-04-27T10:57:12.999Z</time></trkpt><trkpt lat="32.97935314082595" lon="-5.065360198928935"><ele>2002.0</ele><time>2026-04-27T10:57:13.999Z</time></trkpt><trkpt lat="32.979449864845236" lon="-5.065493708685009"><ele>2002.0</ele><time>2026-04-27T10:57:14.999Z</time></trkpt><trkpt lat="32.979542044370675" lon="-5.065616995413305"><ele>2002.0</ele><time>2026-04-27T10:57:15.999Z</time></trkpt><trkpt lat="32.97965752903757" lon="-5.065695727962687"><ele>2002.0</ele><time>2026-04-27T10:57:16.999Z</time></trkpt><trkpt lat="32.97977822989032" lon="-5.065736205560948"><ele>2002.0</ele><time>2026-04-27T10:57:17.999Z</time></trkpt><trkpt lat="32.979917096432985" lon="-5.065743783489707"><ele>2005.6666666666667</ele><time>2026-04-27T10:57:18.999Z</time></trkpt><trkpt lat="32.9800745047809" lon="-5.065739283954593"><ele>2009.3333333333335</ele><time>2026-04-27T10:57:19.999Z</time></trkpt><trkpt lat="32.98023957535534" lon="-5.065725466017014"><ele>2013.0</ele><time>2026-04-27T10:57:20.999Z</time></trkpt><trkpt lat="32.980399832007755" lon="-5.065711380174475"><ele>2013.0</ele><time>2026-04-27T10:57:22.001Z</time></trkpt><trkpt lat="32.98056030150856" lon="-5.0656933674157445"><ele>2013.0</ele><time>2026-04-27T10:57:23.001Z</time></trkpt><trkpt lat="32.98072055251998" lon="-5.06567264438063"><ele>2013.0</ele><time>2026-04-27T10:57:24.001Z</time></trkpt><trkpt lat="32.98087517360059" lon="-5.065651023799607"><ele>2013.5</ele><time>2026-04-27T10:57:25.001Z</time></trkpt><trkpt lat="32.981020957429706" lon="-5.065622757922717"><ele>2014.0</ele><time>2026-04-27T10:57:26.001Z</time></trkpt><trkpt lat="32.981162637524925" lon="-5.065593707301669"><ele>2014.5</ele><time>2026-04-27T10:57:27.001Z</time></trkpt><trkpt lat="32.98131015488358" lon="-5.065580572108369"><ele>2015.0</ele><time>2026-04-27T10:57:28.001Z</time></trkpt><trkpt lat="32.98145839781575" lon="-5.0655920890116315"><ele>2015.0</ele><time>2026-04-27T10:57:29.001Z</time></trkpt><trkpt lat="32.98159727096837" lon="-5.065644654130761"><ele>2015.0</ele><time>2026-04-27T10:57:30.001Z</time></trkpt><trkpt lat="32.98171743964897" lon="-5.0657753759085145"><ele>2015.0</ele><time>2026-04-27T10:57:31.001Z</time></trkpt><trkpt lat="32.98180855116685" lon="-5.065936132096604"><ele>2020.0</ele><time>2026-04-27T10:57:32.001Z</time></trkpt><trkpt lat="32.981908361382224" lon="-5.066092815561016"><ele>2025.0</ele><time>2026-04-27T10:57:33.001Z</time></trkpt><trkpt lat="32.98200330115994" lon="-5.06626253930353"><ele>2030.0</ele><time>2026-04-27T10:57:34.001Z</time></trkpt><trkpt lat="32.98210088676005" lon="-5.066417015807034"><ele>2030.0</ele><time>2026-04-27T10:57:35.001Z</time></trkpt><trkpt lat="32.98218761296997" lon="-5.066568236342331"><ele>2030.0</ele><time>2026-04-27T10:57:36.001Z</time></trkpt><trkpt lat="32.98226933193344" lon="-5.066710306994964"><ele>2030.0</ele><time>2026-04-27T10:57:37.001Z</time></trkpt><trkpt lat="32.98237268932808" lon="-5.066798383169531"><ele>2030.0</ele><time>2026-04-27T10:57:38.001Z</time></trkpt><trkpt lat="32.98248828863514" lon="-5.066871944202953"><ele>2033.5</ele><time>2026-04-27T10:57:39.001Z</time></trkpt><trkpt lat="32.98261798924329" lon="-5.06693221539177"><ele>2037.0</ele><time>2026-04-27T10:57:40.001Z</time></trkpt><trkpt lat="32.9827560640481" lon="-5.066995528764274"><ele>2040.5</ele><time>2026-04-27T10:57:41.001Z</time></trkpt><trkpt lat="32.98289556588089" lon="-5.067061279138155"><ele>2044.0</ele><time>2026-04-27T10:57:42.001Z</time></trkpt><trkpt lat="32.98303590567823" lon="-5.067123725456607"><ele>2044.0</ele><time>2026-04-27T10:57:43.001Z</time></trkpt><trkpt lat="32.9831753495526" lon="-5.067165411776582"><ele>2044.0</ele><time>2026-04-27T10:57:44.001Z</time></trkpt><trkpt lat="32.98332365881048" lon="-5.067168214435974"><ele>2044.0</ele><time>2026-04-27T10:57:45.001Z</time></trkpt><trkpt lat="32.98346943324889" lon="-5.067154640528322"><ele>2044.0</ele><time>2026-04-27T10:57:46.001Z</time></trkpt><trkpt lat="32.98360954824265" lon="-5.067149146357978"><ele>2043.25</ele><time>2026-04-27T10:57:47.001Z</time></trkpt><trkpt lat="32.98373736020477" lon="-5.067162225788472"><ele>2042.5</ele><time>2026-04-27T10:57:48Z</time></trkpt><trkpt lat="32.98385769055777" lon="-5.067222760747761"><ele>2041.75</ele><time>2026-04-27T10:57:49Z</time></trkpt><trkpt lat="32.983966584334674" lon="-5.067330661378236"><ele>2041.0</ele><time>2026-04-27T10:57:50Z</time></trkpt><trkpt lat="32.98406412597076" lon="-5.067442399748332"><ele>2043.0</ele><time>2026-04-27T10:57:51Z</time></trkpt><trkpt lat="32.98416534959416" lon="-5.067556267451289"><ele>2045.0</ele><time>2026-04-27T10:57:52Z</time></trkpt><trkpt lat="32.984274802598975" lon="-5.067678910830887"><ele>2047.0</ele><time>2026-04-27T10:57:53Z</time></trkpt><trkpt lat="32.984387859940455" lon="-5.067794584255209"><ele>2049.0</ele><time>2026-04-27T10:57:54Z</time></trkpt><trkpt lat="32.98451625572746" lon="-5.0678895783964215"><ele>2049.0</ele><time>2026-04-27T10:57:55Z</time></trkpt><trkpt lat="32.984659808373664" lon="-5.067971451550959"><ele>2049.0</ele><time>2026-04-27T10:57:56Z</time></trkpt><trkpt lat="32.98480979532361" lon="-5.068042003249825"><ele>2049.0</ele><time>2026-04-27T10:57:57Z</time></trkpt><trkpt lat="32.98496021308275" lon="-5.068102064081071"><ele>2051.6666666666665</ele><time>2026-04-27T10:57:58Z</time></trkpt><trkpt lat="32.985111057295015" lon="-5.068175616464194"><ele>2054.333333333333</ele><time>2026-04-27T10:57:59Z</time></trkpt><trkpt lat="32.98524774771078" lon="-5.068249666217048"><ele>2057.0</ele><time>2026-04-27T10:58:00Z</time></trkpt><trkpt lat="32.98537097249232" lon="-5.068387075261649"><ele>2057.0</ele><time>2026-04-27T10:58:01Z</time></trkpt><trkpt lat="32.98547473639243" lon="-5.068514254280163"><ele>2057.0</ele><time>2026-04-27T10:58:02Z</time></trkpt><trkpt lat="32.98557159185795" lon="-5.068645980719148"><ele>2057.0</ele><time>2026-04-27T10:58:03Z</time></trkpt><trkpt lat="32.985661866319006" lon="-5.068785807276196"><ele>2057.0</ele><time>2026-04-27T10:58:04Z</time></trkpt><trkpt lat="32.98575417123679" lon="-5.068927825208473"><ele>2058.0</ele><time>2026-04-27T10:58:05Z</time></trkpt><trkpt lat="32.985848416678934" lon="-5.06907465907197"><ele>2059.0</ele><time>2026-04-27T10:58:06Z</time></trkpt><trkpt lat="32.985937024583315" lon="-5.069212603002784"><ele>2060.0</ele><time>2026-04-27T10:58:07Z</time></trkpt><trkpt lat="32.98601545732714" lon="-5.069333778049259"><ele>2061.0</ele><time>2026-04-27T10:58:08Z</time></trkpt><trkpt lat="32.9860805014487" lon="-5.069434556906733"><ele>2061.0</ele><time>2026-04-27T10:58:09Z</time></trkpt><trkpt lat="32.98613273864084" lon="-5.069515708661811"><ele>2061.0</ele><time>2026-04-27T10:58:10Z</time></trkpt><trkpt lat="32.986175755349144" lon="-5.069583236964113"><ele>2061.0</ele><time>2026-04-27T10:58:11Z</time></trkpt><trkpt lat="32.986221210259565" lon="-5.0696559604048685"><ele>2061.0</ele><time>2026-04-27T10:58:12Z</time></trkpt><trkpt lat="32.9862766684343" lon="-5.069745724933774"><ele>2061.0</ele><time>2026-04-27T10:58:13Z</time></trkpt><trkpt lat="32.986338194159636" lon="-5.069845310422006"><ele>2061.0</ele><time>2026-04-27T10:58:14Z</time></trkpt><trkpt lat="32.98640490119899" lon="-5.069951330882212"><ele>2061.75</ele><time>2026-04-27T10:58:15Z</time></trkpt><trkpt lat="32.986475447660354" lon="-5.070063040431554"><ele>2062.5</ele><time>2026-04-27T10:58:16Z</time></trkpt><trkpt lat="32.986547029622095" lon="-5.070178024422151"><ele>2063.25</ele><time>2026-04-27T10:58:17Z</time></trkpt><trkpt lat="32.986607481849525" lon="-5.070292350977229"><ele>2064.0</ele><time>2026-04-27T10:58:18Z</time></trkpt><trkpt lat="32.98666990369684" lon="-5.070410401859337"><ele>2062.75</ele><time>2026-04-27T10:58:19Z</time></trkpt><trkpt lat="32.986734759843465" lon="-5.070534115744505"><ele>2061.5</ele><time>2026-04-27T10:58:20Z</time></trkpt><trkpt lat="32.98680015702376" lon="-5.070658919420698"><ele>2060.25</ele><time>2026-04-27T10:58:21Z</time></trkpt><trkpt lat="32.986859125358315" lon="-5.0707714546951435"><ele>2059.0</ele><time>2026-04-27T10:58:22Z</time></trkpt><trkpt lat="32.9869240412047" lon="-5.070850034041563"><ele>2060.666666666667</ele><time>2026-04-27T10:58:24Z</time></trkpt><trkpt lat="32.98698941268531" lon="-5.070930494717868"><ele>2062.3333333333335</ele><time>2026-04-27T10:58:27Z</time></trkpt><trkpt lat="32.987065635125305" lon="-5.071015293830187"><ele>2064.0</ele><time>2026-04-27T10:58:29Z</time></trkpt><trkpt lat="32.987144881618384" lon="-5.0710748703304835"><ele>2065.6666666666665</ele><time>2026-04-27T10:58:31Z</time></trkpt><trkpt lat="32.987207877342904" lon="-5.071105327736795"><ele>2067.333333333333</ele><time>2026-04-27T10:58:33Z</time></trkpt><trkpt lat="32.9872754757047" lon="-5.071138010417254"><ele>2069.0</ele><time>2026-04-27T10:58:36Z</time></trkpt><trkpt lat="32.987337395947534" lon="-5.0711582322197595"><ele>2069.0</ele><time>2026-04-27T10:58:40Z</time></trkpt><trkpt lat="32.9874272999405" lon="-5.071166188387944"><ele>2069.0</ele><time>2026-04-27T10:58:43Z</time></trkpt><trkpt lat="32.98749130801781" lon="-5.071171921734283"><ele>2069.0</ele><time>2026-04-27T10:58:45Z</time></trkpt><trkpt lat="32.987575629215534" lon="-5.071180233617369"><ele>2069.0</ele><time>2026-04-27T10:58:48Z</time></trkpt><trkpt lat="32.9876417732257" lon="-5.071197443604786"><ele>2069.0</ele><time>2026-04-27T10:58:50Z</time></trkpt><trkpt lat="32.987708022135386" lon="-5.071183477837083"><ele>2069.0</ele><time>2026-04-27T10:58:52Z</time></trkpt><trkpt lat="32.98777219352217" lon="-5.071169952396742"><ele>2069.0</ele><time>2026-04-27T10:58:54Z</time></trkpt><trkpt lat="32.987849351047295" lon="-5.07115260303457"><ele>2069.8571428571427</ele><time>2026-04-27T10:58:56Z</time></trkpt><trkpt lat="32.98791436554419" lon="-5.071137686691074"><ele>2070.7142857142853</ele><time>2026-04-27T10:58:58Z</time></trkpt><trkpt lat="32.9879785270424" lon="-5.071128055710049"><ele>2071.5714285714284</ele><time>2026-04-27T10:59:00Z</time></trkpt><trkpt lat="32.98804446090146" lon="-5.071114749510302"><ele>2072.4285714285716</ele><time>2026-04-27T10:59:02Z</time></trkpt><trkpt lat="32.98811284729631" lon="-5.071096392242839"><ele>2073.2857142857147</ele><time>2026-04-27T10:59:04Z</time></trkpt><trkpt lat="32.988196607230336" lon="-5.071076256167522"><ele>2074.1428571428573</ele><time>2026-04-27T10:59:07Z</time></trkpt><trkpt lat="32.98827335285492" lon="-5.07105921052934"><ele>2075.0</ele><time>2026-04-27T10:59:10Z</time></trkpt><trkpt lat="32.98833905385702" lon="-5.071044087424599"><ele>2076.6666666666665</ele><time>2026-04-27T10:59:12Z</time></trkpt><trkpt lat="32.98842205405473" lon="-5.071017448447498"><ele>2078.333333333333</ele><time>2026-04-27T10:59:13.999Z</time></trkpt><trkpt lat="32.98850458738541" lon="-5.070968340973799"><ele>2080.0</ele><time>2026-04-27T10:59:15.999Z</time></trkpt><trkpt lat="32.98857810900629" lon="-5.070923444718482"><ele>2081.6666666666665</ele><time>2026-04-27T10:59:17.999Z</time></trkpt><trkpt lat="32.98865384629876" lon="-5.070886188317121"><ele>2083.3333333333335</ele><time>2026-04-27T10:59:20.999Z</time></trkpt><trkpt lat="32.98873814089438" lon="-5.070865226003682"><ele>2085.0</ele><time>2026-04-27T11:01:34.001Z</time></trkpt><trkpt lat="32.988811161019115" lon="-5.070825149035682"><ele>2085.0</ele><time>2026-04-27T11:01:37.001Z</time></trkpt><trkpt lat="32.98889453223738" lon="-5.070812584480418"><ele>2085.0</ele><time>2026-04-27T11:01:40.001Z</time></trkpt><trkpt lat="32.988960390490504" lon="-5.0708143130381345"><ele>2085.0</ele><time>2026-04-27T11:01:43.001Z</time></trkpt><trkpt lat="32.989043226028876" lon="-5.070828736772743"><ele>2085.0</ele><time>2026-04-27T11:05:36.999Z</time></trkpt><trkpt lat="32.98911835297731" lon="-5.070847136455479"><ele>2085.0</ele><time>2026-04-27T11:05:38.999Z</time></trkpt><trkpt lat="32.98921676572259" lon="-5.070860349072157"><ele>2085.0</ele><time>2026-04-27T11:05:40.999Z</time></trkpt><trkpt lat="32.989282776218815" lon="-5.07085118626464"><ele>2086.5</ele><time>2026-04-27T11:05:41.999Z</time></trkpt><trkpt lat="32.98935755375729" lon="-5.070840058626752"><ele>2088.0</ele><time>2026-04-27T11:05:43.001Z</time></trkpt><trkpt lat="32.989436661845325" lon="-5.0708034255054875"><ele>2089.5</ele><time>2026-04-27T11:05:44.001Z</time></trkpt><trkpt lat="32.98952303708577" lon="-5.070785220163162"><ele>2091.0</ele><time>2026-04-27T11:05:45.001Z</time></trkpt><trkpt lat="32.98961334683477" lon="-5.070766185539732"><ele>2092.5</ele><time>2026-04-27T11:05:46.001Z</time></trkpt><trkpt lat="32.989710645949515" lon="-5.070745677779153"><ele>2094.0</ele><time>2026-04-27T11:05:47.001Z</time></trkpt><trkpt lat="32.989813468279905" lon="-5.070724188792854"><ele>2091.0</ele><time>2026-04-27T11:05:48Z</time></trkpt><trkpt lat="32.989921931361536" lon="-5.0707016352927905"><ele>2088.0</ele><time>2026-04-27T11:05:49.001Z</time></trkpt><trkpt lat="32.990039849569655" lon="-5.070694283500966"><ele>2085.0</ele><time>2026-04-27T11:05:50.001Z</time></trkpt><trkpt lat="32.99016389222674" lon="-5.070666719847707"><ele>2082.0</ele><time>2026-04-27T11:05:51Z</time></trkpt><trkpt lat="32.990297997704225" lon="-5.070636407138334"><ele>2082.0</ele><time>2026-04-27T11:05:52Z</time></trkpt><trkpt lat="32.990432911964696" lon="-5.070604593201138"><ele>2082.0</ele><time>2026-04-27T11:05:53Z</time></trkpt><trkpt lat="32.990575737673595" lon="-5.07057399810886"><ele>2082.0</ele><time>2026-04-27T11:05:54Z</time></trkpt><trkpt lat="32.99072624257963" lon="-5.070544518557781"><ele>2082.0</ele><time>2026-04-27T11:05:55Z</time></trkpt><trkpt lat="32.99088226146532" lon="-5.070512219320299"><ele>2084.0</ele><time>2026-04-27T11:05:56Z</time></trkpt><trkpt lat="32.99104409731766" lon="-5.07048135583861"><ele>2086.0</ele><time>2026-04-27T11:05:57Z</time></trkpt><trkpt lat="32.99120915617519" lon="-5.070449886490996"><ele>2088.0</ele><time>2026-04-27T11:05:58Z</time></trkpt><trkpt lat="32.991379095786904" lon="-5.070417548000662"><ele>2088.0</ele><time>2026-04-27T11:05:59Z</time></trkpt><trkpt lat="32.99155427583386" lon="-5.070384866685781"><ele>2088.0</ele><time>2026-04-27T11:06:00Z</time></trkpt><trkpt lat="32.99172983847785" lon="-5.070352274369762"><ele>2088.0</ele><time>2026-04-27T11:06:01Z</time></trkpt><trkpt lat="32.99190344195581" lon="-5.070323561663069"><ele>2090.6666666666665</ele><time>2026-04-27T11:06:02Z</time></trkpt><trkpt lat="32.992073655294206" lon="-5.070298783819068"><ele>2093.333333333333</ele><time>2026-04-27T11:06:03Z</time></trkpt><trkpt lat="32.99223947409251" lon="-5.070285531300865"><ele>2096.0</ele><time>2026-04-27T11:06:04Z</time></trkpt><trkpt lat="32.992405283947065" lon="-5.070287750207296"><ele>2095.333333333333</ele><time>2026-04-27T11:06:05Z</time></trkpt><trkpt lat="32.99257293235643" lon="-5.070308714737017"><ele>2094.6666666666665</ele><time>2026-04-27T11:06:06Z</time></trkpt><trkpt lat="32.99274151503643" lon="-5.070350437694224"><ele>2094.0</ele><time>2026-04-27T11:06:07Z</time></trkpt><trkpt lat="32.99289587106388" lon="-5.0703982423398966"><ele>2094.0</ele><time>2026-04-27T11:06:08Z</time></trkpt><trkpt lat="32.99308525002436" lon="-5.070428064085138"><ele>2094.0</ele><time>2026-04-27T11:06:09Z</time></trkpt><trkpt lat="32.993255217867514" lon="-5.070470756840926"><ele>2094.0</ele><time>2026-04-27T11:06:10Z</time></trkpt><trkpt lat="32.99341974728146" lon="-5.0705233067878694"><ele>2094.0</ele><time>2026-04-27T11:06:11Z</time></trkpt><trkpt lat="32.993580687140316" lon="-5.07059088028324"><ele>2094.0</ele><time>2026-04-27T11:06:12Z</time></trkpt><trkpt lat="32.99373518062468" lon="-5.070683977500446"><ele>2094.0</ele><time>2026-04-27T11:06:13Z</time></trkpt><trkpt lat="32.99388347602048" lon="-5.070804552216088"><ele>2095.6666666666665</ele><time>2026-04-27T11:06:14Z</time></trkpt><trkpt lat="32.99401585443981" lon="-5.07095528162452"><ele>2097.333333333333</ele><time>2026-04-27T11:06:15Z</time></trkpt><trkpt lat="32.994159213595914" lon="-5.071100699385304"><ele>2099.0</ele><time>2026-04-27T11:06:16Z</time></trkpt><trkpt lat="32.99430005437544" lon="-5.0712539091032625"><ele>2099.0</ele><time>2026-04-27T11:06:17Z</time></trkpt><trkpt lat="32.99445013269073" lon="-5.071383505800173"><ele>2099.0</ele><time>2026-04-27T11:06:18Z</time></trkpt><trkpt lat="32.994581437040786" lon="-5.071548591865267"><ele>2099.0</ele><time>2026-04-27T11:06:19Z</time></trkpt><trkpt lat="32.99468503734416" lon="-5.071733302099731"><ele>2101.333333333333</ele><time>2026-04-27T11:06:20Z</time></trkpt><trkpt lat="32.99478131579165" lon="-5.07191721542531"><ele>2103.6666666666665</ele><time>2026-04-27T11:06:21Z</time></trkpt><trkpt lat="32.99488072788399" lon="-5.072098902214716"><ele>2106.0</ele><time>2026-04-27T11:06:22Z</time></trkpt><trkpt lat="32.99496835105377" lon="-5.0722871035092085"><ele>2107.3333333333335</ele><time>2026-04-27T11:06:23Z</time></trkpt><trkpt lat="32.995054055868806" lon="-5.072471070259429"><ele>2108.666666666667</ele><time>2026-04-27T11:06:24Z</time></trkpt><trkpt lat="32.99513715948685" lon="-5.0726502873087576"><ele>2110.0</ele><time>2026-04-27T11:06:25Z</time></trkpt><trkpt lat="32.99524209585084" lon="-5.072794171336253"><ele>2110.0</ele><time>2026-04-27T11:06:26Z</time></trkpt><trkpt lat="32.995364764518975" lon="-5.072919239028702"><ele>2110.0</ele><time>2026-04-27T11:06:27Z</time></trkpt><trkpt lat="32.99550949146147" lon="-5.073018808493145"><ele>2110.0</ele><time>2026-04-27T11:06:28Z</time></trkpt><trkpt lat="32.995681322692064" lon="-5.0730870222143745"><ele>2111.0</ele><time>2026-04-27T11:06:29Z</time></trkpt><trkpt lat="32.99585650015252" lon="-5.0730852379617435"><ele>2112.0</ele><time>2026-04-27T11:06:30Z</time></trkpt><trkpt lat="32.99603974596469" lon="-5.073092151981337"><ele>2113.0</ele><time>2026-04-27T11:06:31Z</time></trkpt><trkpt lat="32.99622760652917" lon="-5.073099438587765"><ele>2113.0</ele><time>2026-04-27T11:06:32Z</time></trkpt><trkpt lat="32.99641750603411" lon="-5.0731065525160375"><ele>2113.0</ele><time>2026-04-27T11:06:33Z</time></trkpt><trkpt lat="32.99660640460789" lon="-5.07312304453241"><ele>2113.0</ele><time>2026-04-27T11:06:34Z</time></trkpt><trkpt lat="32.996793144671955" lon="-5.073179821257662"><ele>2116.3333333333335</ele><time>2026-04-27T11:06:35Z</time></trkpt><trkpt lat="32.9969611814217" lon="-5.073280528785327"><ele>2119.6666666666665</ele><time>2026-04-27T11:06:36Z</time></trkpt><trkpt lat="32.99712651695759" lon="-5.0733847535790275"><ele>2123.0</ele><time>2026-04-27T11:06:37Z</time></trkpt><trkpt lat="32.99729152234921" lon="-5.073483982505294"><ele>2123.0</ele><time>2026-04-27T11:06:38Z</time></trkpt><trkpt lat="32.99746320263445" lon="-5.073553251371892"><ele>2123.0</ele><time>2026-04-27T11:06:39Z</time></trkpt><trkpt lat="32.997648296168926" lon="-5.073603946521285"><ele>2123.0</ele><time>2026-04-27T11:06:40Z</time></trkpt><trkpt lat="32.99785509769289" lon="-5.073602570238573"><ele>2123.6666666666665</ele><time>2026-04-27T11:06:41Z</time></trkpt><trkpt lat="32.998062490200184" lon="-5.073576408932608"><ele>2124.3333333333335</ele><time>2026-04-27T11:06:42Z</time></trkpt><trkpt lat="32.998268609934826" lon="-5.073569037402817"><ele>2125.0</ele><time>2026-04-27T11:06:43Z</time></trkpt><trkpt lat="32.99847224530204" lon="-5.073561760083876"><ele>2127.0</ele><time>2026-04-27T11:06:44Z</time></trkpt><trkpt lat="32.998670236681846" lon="-5.073565856105622"><ele>2129.0</ele><time>2026-04-27T11:06:45Z</time></trkpt><trkpt lat="32.998852458833476" lon="-5.073595966171213"><ele>2131.0</ele><time>2026-04-27T11:06:46Z</time></trkpt><trkpt lat="32.998990563476994" lon="-5.073628243644871"><ele>2131.0</ele><time>2026-04-27T11:06:47Z</time></trkpt><trkpt lat="32.99910893792584" lon="-5.073733679797912"><ele>2131.0</ele><time>2026-04-27T11:06:48Z</time></trkpt><trkpt lat="32.99919804868691" lon="-5.073870579111325"><ele>2131.0</ele><time>2026-04-27T11:06:49Z</time></trkpt><trkpt lat="32.999279754614214" lon="-5.074032688250215"><ele>2134.0</ele><time>2026-04-27T11:06:50Z</time></trkpt><trkpt lat="32.999360353626514" lon="-5.074191767394084"><ele>2137.0</ele><time>2026-04-27T11:06:51Z</time></trkpt><trkpt lat="32.9994577904382" lon="-5.0743243913584335"><ele>2140.0</ele><time>2026-04-27T11:06:52Z</time></trkpt><trkpt lat="32.999563854390374" lon="-5.074448333065561"><ele>2140.0</ele><time>2026-04-27T11:06:53Z</time></trkpt><trkpt lat="32.99968814438445" lon="-5.074536536542822"><ele>2140.0</ele><time>2026-04-27T11:06:54Z</time></trkpt><trkpt lat="32.999829515880585" lon="-5.074603533055447"><ele>2140.0</ele><time>2026-04-27T11:06:55Z</time></trkpt><trkpt lat="32.99998167994667" lon="-5.074589110589581"><ele>2140.0</ele><time>2026-04-27T11:06:56Z</time></trkpt><trkpt lat="33.000124308309736" lon="-5.074529617275141"><ele>2140.0</ele><time>2026-04-27T11:06:57Z</time></trkpt><trkpt lat="33.00025865260697" lon="-5.074419154351356"><ele>2140.0</ele><time>2026-04-27T11:06:58Z</time></trkpt><trkpt lat="33.0003836223631" lon="-5.074287286014864"><ele>2140.0</ele><time>2026-04-27T11:06:59Z</time></trkpt><trkpt lat="33.00050766207577" lon="-5.07414715623138"><ele>2139.0</ele><time>2026-04-27T11:07:00Z</time></trkpt><trkpt lat="33.000628075053825" lon="-5.073999314733715"><ele>2138.0</ele><time>2026-04-27T11:07:01Z</time></trkpt><trkpt lat="33.00076183858556" lon="-5.073881459409631"><ele>2137.0</ele><time>2026-04-27T11:07:02Z</time></trkpt><trkpt lat="33.00091607468354" lon="-5.073804297035123"><ele>2137.0</ele><time>2026-04-27T11:07:03Z</time></trkpt><trkpt lat="33.001082497101194" lon="-5.073749416806088"><ele>2137.0</ele><time>2026-04-27T11:07:04Z</time></trkpt><trkpt lat="33.001256788158734" lon="-5.0737309880853765"><ele>2137.0</ele><time>2026-04-27T11:07:05Z</time></trkpt><trkpt lat="33.001427072512875" lon="-5.07370458416801"><ele>2137.0</ele><time>2026-04-27T11:07:06Z</time></trkpt><trkpt lat="33.00159551673635" lon="-5.07367828110499"><ele>2137.0</ele><time>2026-04-27T11:07:07Z</time></trkpt><trkpt lat="33.00176261285292" lon="-5.073650064033409"><ele>2137.0</ele><time>2026-04-27T11:07:08Z</time></trkpt><trkpt lat="33.00192932452855" lon="-5.073620704536945"><ele>2139.0</ele><time>2026-04-27T11:07:09Z</time></trkpt><trkpt lat="33.0020936386361" lon="-5.073588784312753"><ele>2141.0</ele><time>2026-04-27T11:07:10Z</time></trkpt><trkpt lat="33.00225471491661" lon="-5.073543038253628"><ele>2143.0</ele><time>2026-04-27T11:07:10.999Z</time></trkpt><trkpt lat="33.002417854871496" lon="-5.07348160233458"><ele>2144.666666666667</ele><time>2026-04-27T11:07:11.999Z</time></trkpt><trkpt lat="33.002588084483" lon="-5.07340663693688"><ele>2146.3333333333335</ele><time>2026-04-27T11:07:12.999Z</time></trkpt><trkpt lat="33.00276615594877" lon="-5.073329618913451"><ele>2148.0</ele><time>2026-04-27T11:07:13.999Z</time></trkpt><trkpt lat="33.00294797527317" lon="-5.073250323520625"><ele>2151.3333333333335</ele><time>2026-04-27T11:07:14.999Z</time></trkpt><trkpt lat="33.003131762008856" lon="-5.073170443720832"><ele>2154.666666666667</ele><time>2026-04-27T11:07:15.999Z</time></trkpt><trkpt lat="33.00330573316014" lon="-5.073094338443273"><ele>2158.0</ele><time>2026-04-27T11:07:16.999Z</time></trkpt><trkpt lat="33.00347442546532" lon="-5.073020862870671"><ele>2158.0</ele><time>2026-04-27T11:07:17.999Z</time></trkpt><trkpt lat="33.00364436718232" lon="-5.072958450562848"><ele>2158.0</ele><time>2026-04-27T11:07:18.999Z</time></trkpt><trkpt lat="33.00382239988339" lon="-5.072913935938515"><ele>2158.0</ele><time>2026-04-27T11:07:19.999Z</time></trkpt><trkpt lat="33.004010920962884" lon="-5.072888641435558"><ele>2158.666666666667</ele><time>2026-04-27T11:07:20.999Z</time></trkpt><trkpt lat="33.004208980708434" lon="-5.072889698508843"><ele>2159.3333333333335</ele><time>2026-04-27T11:07:21.999Z</time></trkpt><trkpt lat="33.00441258067888" lon="-5.07288886140464"><ele>2160.0</ele><time>2026-04-27T11:07:22.999Z</time></trkpt><trkpt lat="33.0046278847107" lon="-5.07289350190216"><ele>2160.0</ele><time>2026-04-27T11:07:23.999Z</time></trkpt><trkpt lat="33.00485109479956" lon="-5.072898251750967"><ele>2160.0</ele><time>2026-04-27T11:07:24.999Z</time></trkpt><trkpt lat="33.005079146214904" lon="-5.072901141678454"><ele>2164.5</ele><time>2026-04-27T11:07:25.999Z</time></trkpt><trkpt lat="33.005307911323925" lon="-5.072904773451825"><ele>2169.0</ele><time>2026-04-27T11:07:26.999Z</time></trkpt><trkpt lat="33.00553461450243" lon="-5.072908573647466"><ele>2169.0</ele><time>2026-04-27T11:07:27.999Z</time></trkpt><trkpt lat="33.00575819732375" lon="-5.0729109509488115"><ele>2169.0</ele><time>2026-04-27T11:07:28.999Z</time></trkpt><trkpt lat="33.005980567079945" lon="-5.072907456407268"><ele>2169.0</ele><time>2026-04-27T11:07:29.999Z</time></trkpt><trkpt lat="33.006199636357685" lon="-5.072857733141573"><ele>2174.5</ele><time>2026-04-27T11:07:30.999Z</time></trkpt><trkpt lat="33.00642582173461" lon="-5.0728139741101215"><ele>2180.0</ele><time>2026-04-27T11:07:31.999Z</time></trkpt><trkpt lat="33.00665573534766" lon="-5.07277379170619"><ele>2180.0</ele><time>2026-04-27T11:07:32.999Z</time></trkpt><trkpt lat="33.00688824173862" lon="-5.072726772711596"><ele>2180.0</ele><time>2026-04-27T11:07:33.999Z</time></trkpt><trkpt lat="33.00712543665317" lon="-5.0726733119986465"><ele>2180.0</ele><time>2026-04-27T11:07:34.999Z</time></trkpt><trkpt lat="33.00736260988476" lon="-5.072619791483475"><ele>2180.0</ele><time>2026-04-27T11:07:35.999Z</time></trkpt><trkpt lat="33.00759389426793" lon="-5.072567597278303"><ele>2177.0</ele><time>2026-04-27T11:07:36.999Z</time></trkpt><trkpt lat="33.00783001390449" lon="-5.072513205113599"><ele>2174.0</ele><time>2026-04-27T11:07:37.999Z</time></trkpt><trkpt lat="33.008069929222245" lon="-5.072459181512091"><ele>2184.0</ele><time>2026-04-27T11:07:38.999Z</time></trkpt><trkpt lat="33.00831691387471" lon="-5.072421147930186"><ele>2194.0</ele><time>2026-04-27T11:07:39.999Z</time></trkpt><trkpt lat="33.008559300423116" lon="-5.072363548931453"><ele>2194.0</ele><time>2026-04-27T11:07:40.999Z</time></trkpt><trkpt lat="33.008798266502424" lon="-5.072310527431186"><ele>2194.0</ele><time>2026-04-27T11:07:41.999Z</time></trkpt><trkpt lat="33.00903466796931" lon="-5.072259390364096"><ele>2192.5</ele><time>2026-04-27T11:07:42.999Z</time></trkpt><trkpt lat="33.0092698051873" lon="-5.072208182310767"><ele>2191.0</ele><time>2026-04-27T11:07:43.999Z</time></trkpt><trkpt lat="33.00950322243412" lon="-5.072164604973271"><ele>2191.0</ele><time>2026-04-27T11:07:44.999Z</time></trkpt><trkpt lat="33.00973543324404" lon="-5.072113064994541"><ele>2191.0</ele><time>2026-04-27T11:07:45.999Z</time></trkpt><trkpt lat="33.009977583543204" lon="-5.0720898927230795"><ele>2191.0</ele><time>2026-04-27T11:07:46.999Z</time></trkpt><trkpt lat="33.01022881912619" lon="-5.072070842740737"><ele>2191.0</ele><time>2026-04-27T11:07:48Z</time></trkpt><trkpt lat="33.01048979413118" lon="-5.072061581620115"><ele>2191.0</ele><time>2026-04-27T11:07:49Z</time></trkpt><trkpt lat="33.010756001964886" lon="-5.072067933844619"><ele>2191.0</ele><time>2026-04-27T11:07:50Z</time></trkpt><trkpt lat="33.0110211502287" lon="-5.072080913507906"><ele>2190.0</ele><time>2026-04-27T11:07:51Z</time></trkpt><trkpt lat="33.01128711171435" lon="-5.072095926072259"><ele>2189.0</ele><time>2026-04-27T11:07:52Z</time></trkpt><trkpt lat="33.01155068568035" lon="-5.0721158260457075"><ele>2189.5</ele><time>2026-04-27T11:07:53Z</time></trkpt><trkpt lat="33.01181334717642" lon="-5.072151816141017"><ele>2190.0</ele><time>2026-04-27T11:07:54Z</time></trkpt><trkpt lat="33.01207611664598" lon="-5.072170641726281"><ele>2190.0</ele><time>2026-04-27T11:07:55Z</time></trkpt><trkpt lat="33.012330221531606" lon="-5.072191117907165"><ele>2190.0</ele><time>2026-04-27T11:07:56Z</time></trkpt><trkpt lat="33.01257958691879" lon="-5.072182401774979"><ele>2193.5</ele><time>2026-04-27T11:07:57Z</time></trkpt><trkpt lat="33.012829927843754" lon="-5.072184547766321"><ele>2197.0</ele><time>2026-04-27T11:07:58Z</time></trkpt><trkpt lat="33.01308545603542" lon="-5.072171979194712"><ele>2197.5</ele><time>2026-04-27T11:07:59Z</time></trkpt><trkpt lat="33.01334378762262" lon="-5.072159602771674"><ele>2198.0</ele><time>2026-04-27T11:08:00Z</time></trkpt><trkpt lat="33.013592376516435" lon="-5.072124882329606"><ele>2198.0</ele><time>2026-04-27T11:08:01Z</time></trkpt><trkpt lat="33.01383044252767" lon="-5.072077071592447"><ele>2198.0</ele><time>2026-04-27T11:08:02Z</time></trkpt><trkpt lat="33.01405254648612" lon="-5.0720116144731815"><ele>2194.0</ele><time>2026-04-27T11:08:03Z</time></trkpt><trkpt lat="33.01426635351401" lon="-5.071936138267574"><ele>2190.0</ele><time>2026-04-27T11:08:04Z</time></trkpt><trkpt lat="33.014485466544464" lon="-5.071862752648234"><ele>2190.0</ele><time>2026-04-27T11:08:05Z</time></trkpt><trkpt lat="33.01471097721203" lon="-5.071823440574688"><ele>2190.0</ele><time>2026-04-27T11:08:06Z</time></trkpt><trkpt lat="33.0149548431799" lon="-5.071819408307535"><ele>2186.5</ele><time>2026-04-27T11:08:07Z</time></trkpt><trkpt lat="33.01520190158036" lon="-5.071882308413103"><ele>2183.0</ele><time>2026-04-27T11:08:08Z</time></trkpt><trkpt lat="33.015454127814124" lon="-5.071939293145305"><ele>2183.0</ele><time>2026-04-27T11:08:09Z</time></trkpt><trkpt lat="33.01571072630267" lon="-5.071978373657974"><ele>2183.0</ele><time>2026-04-27T11:08:10Z</time></trkpt><trkpt lat="33.01596481724202" lon="-5.072034980422486"><ele>2187.5</ele><time>2026-04-27T11:08:11Z</time></trkpt><trkpt lat="33.01621650391335" lon="-5.07209037675951"><ele>2192.0</ele><time>2026-04-27T11:08:12Z</time></trkpt><trkpt lat="33.016465117261845" lon="-5.072146568418087"><ele>2195.5</ele><time>2026-04-27T11:08:13Z</time></trkpt><trkpt lat="33.01670677361231" lon="-5.072199933432154"><ele>2199.0</ele><time>2026-04-27T11:08:14Z</time></trkpt><trkpt lat="33.016938173422616" lon="-5.0722511035652404"><ele>2199.0</ele><time>2026-04-27T11:08:15Z</time></trkpt><trkpt lat="33.01715899209138" lon="-5.072300014239937"><ele>2199.0</ele><time>2026-04-27T11:08:16Z</time></trkpt><trkpt lat="33.01737522606483" lon="-5.072349313824829"><ele>2199.0</ele><time>2026-04-27T11:08:17Z</time></trkpt><trkpt lat="33.017581838548786" lon="-5.072406108556419"><ele>2193.0</ele><time>2026-04-27T11:08:18Z</time></trkpt><trkpt lat="33.01776232639539" lon="-5.072504164121946"><ele>2187.0</ele><time>2026-04-27T11:08:19Z</time></trkpt><trkpt lat="33.017931443644066" lon="-5.07260620604821"><ele>2181.0</ele><time>2026-04-27T11:08:20Z</time></trkpt><trkpt lat="33.018089300595975" lon="-5.072747505767101"><ele>2181.0</ele><time>2026-04-27T11:08:21Z</time></trkpt><trkpt lat="33.01826673902458" lon="-5.072864058370574"><ele>2181.0</ele><time>2026-04-27T11:08:22Z</time></trkpt><trkpt lat="33.018424860908624" lon="-5.073014512382628"><ele>2181.0</ele><time>2026-04-27T11:08:23Z</time></trkpt><trkpt lat="33.018623262550506" lon="-5.073090022533617"><ele>2183.0</ele><time>2026-04-27T11:08:24Z</time></trkpt><trkpt lat="33.01883993092367" lon="-5.07313460542473"><ele>2185.0</ele><time>2026-04-27T11:08:25Z</time></trkpt><trkpt lat="33.01905234911731" lon="-5.073164816325654"><ele>2187.0</ele><time>2026-04-27T11:08:26Z</time></trkpt><trkpt lat="33.019257201474495" lon="-5.073191639254214"><ele>2189.0</ele><time>2026-04-27T11:08:27Z</time></trkpt><trkpt lat="33.019454599086856" lon="-5.073203885179187"><ele>2191.0</ele><time>2026-04-27T11:08:28Z</time></trkpt><trkpt lat="33.01964725820539" lon="-5.0731897396438805"><ele>2193.0</ele><time>2026-04-27T11:08:29Z</time></trkpt><trkpt lat="33.01982974726933" lon="-5.073141336068209"><ele>2193.0</ele><time>2026-04-27T11:08:30Z</time></trkpt><trkpt lat="33.02000178485883" lon="-5.073050753532702"><ele>2193.0</ele><time>2026-04-27T11:08:31Z</time></trkpt><trkpt lat="33.02016343554836" lon="-5.07293752828016"><ele>2193.0</ele><time>2026-04-27T11:08:32Z</time></trkpt><trkpt lat="33.020324322227566" lon="-5.072829229546762"><ele>2193.0</ele><time>2026-04-27T11:08:33Z</time></trkpt><trkpt lat="33.02047813079504" lon="-5.072746173968749"><ele>2193.0</ele><time>2026-04-27T11:08:34Z</time></trkpt><trkpt lat="33.0206149578645" lon="-5.072688822797156"><ele>2193.0</ele><time>2026-04-27T11:08:35Z</time></trkpt><trkpt lat="33.02073170644681" lon="-5.072647942052969"><ele>2193.0</ele><time>2026-04-27T11:08:36Z</time></trkpt><trkpt lat="33.020822513386065" lon="-5.072619211028262"><ele>2192.5</ele><time>2026-04-27T11:08:37Z</time></trkpt><trkpt lat="33.02089603088715" lon="-5.072598961815977"><ele>2192.0</ele><time>2026-04-27T11:08:38Z</time></trkpt><trkpt lat="33.021008872267515" lon="-5.072576342579937"><ele>2191.5</ele><time>2026-04-27T11:08:40Z</time></trkpt><trkpt lat="33.021074161170894" lon="-5.0725660913359985"><ele>2191.0</ele><time>2026-04-27T11:08:41Z</time></trkpt><trkpt lat="33.021144682096285" lon="-5.072556798717219"><ele>2190.5</ele><time>2026-04-27T11:08:42Z</time></trkpt><trkpt lat="33.02121906090294" lon="-5.072553045596788"><ele>2190.0</ele><time>2026-04-27T11:08:43Z</time></trkpt><trkpt lat="33.02128999586037" lon="-5.072550507522209"><ele>2189.9999999999995</ele><time>2026-04-27T11:08:44Z</time></trkpt><trkpt lat="33.0213573657309" lon="-5.072548106259951"><ele>2190.0</ele><time>2026-04-27T11:08:45Z</time></trkpt><trkpt lat="33.021420809715565" lon="-5.072545213989598"><ele>2190.0</ele><time>2026-04-27T11:08:46Z</time></trkpt><trkpt lat="33.02148649301992" lon="-5.072541755474794"><ele>2190.0</ele><time>2026-04-27T11:08:47Z</time></trkpt><trkpt lat="33.02155167876672" lon="-5.072538865274616"><ele>2190.0</ele><time>2026-04-27T11:08:48Z</time></trkpt><trkpt lat="33.02161891582532" lon="-5.072537851596188"><ele>2189.9999999999995</ele><time>2026-04-27T11:08:49Z</time></trkpt><trkpt lat="33.02168688002703" lon="-5.072533932616621"><ele>2190.0</ele><time>2026-04-27T11:08:50Z</time></trkpt><trkpt lat="33.02175559340275" lon="-5.072533210385257"><ele>2189.3333333333335</ele><time>2026-04-27T11:08:51Z</time></trkpt><trkpt lat="33.02182016705292" lon="-5.072531484239508"><ele>2188.6666666666665</ele><time>2026-04-27T11:08:52Z</time></trkpt><trkpt lat="33.02188534381376" lon="-5.0725303478769685"><ele>2188.0</ele><time>2026-04-27T11:08:53Z</time></trkpt><trkpt lat="33.021949709556864" lon="-5.072527915020671"><ele>2187.333333333333</ele><time>2026-04-27T11:08:54Z</time></trkpt><trkpt lat="33.022075891280366" lon="-5.072522455117725"><ele>2186.6666666666665</ele><time>2026-04-27T11:08:56Z</time></trkpt><trkpt lat="33.02214030110964" lon="-5.07251824269403"><ele>2186.0</ele><time>2026-04-27T11:08:57Z</time></trkpt><trkpt lat="33.022207205510725" lon="-5.07251442400595"><ele>2186.0</ele><time>2026-04-27T11:08:58Z</time></trkpt><trkpt lat="33.02227557204234" lon="-5.072512562868101"><ele>2186.0</ele><time>2026-04-27T11:08:59Z</time></trkpt><trkpt lat="33.02234158669754" lon="-5.0725134546616895"><ele>2186.0</ele><time>2026-04-27T11:09:00Z</time></trkpt><trkpt lat="33.02240627761094" lon="-5.07251283609519"><ele>2186.0</ele><time>2026-04-27T11:09:01Z</time></trkpt><trkpt lat="33.022471333475174" lon="-5.07251079446726"><ele>2186.0</ele><time>2026-04-27T11:09:02Z</time></trkpt><trkpt lat="33.0225350235176" lon="-5.07250974018558"><ele>2186.0</ele><time>2026-04-27T11:09:03Z</time></trkpt><trkpt lat="33.02265791337467" lon="-5.072503594536947"><ele>2185.2</ele><time>2026-04-27T11:09:05Z</time></trkpt><trkpt lat="33.0227882309345" lon="-5.0725002233094605"><ele>2184.3999999999996</ele><time>2026-04-27T11:09:07Z</time></trkpt><trkpt lat="33.02286465619699" lon="-5.072502752846375"><ele>2183.6</ele><time>2026-04-27T11:09:08Z</time></trkpt><trkpt lat="33.02296053379415" lon="-5.072514441095485"><ele>2182.7999999999997</ele><time>2026-04-27T11:09:09Z</time></trkpt><trkpt lat="33.0230761934154" lon="-5.072519043239509"><ele>2182.0</ele><time>2026-04-27T11:09:09.999Z</time></trkpt><trkpt lat="33.02320643215228" lon="-5.072521506414077"><ele>2180.5</ele><time>2026-04-27T11:09:10.999Z</time></trkpt><trkpt lat="33.023345319282924" lon="-5.072521997388572"><ele>2179.0</ele><time>2026-04-27T11:09:11.999Z</time></trkpt><trkpt lat="33.02349412372485" lon="-5.072529424699722"><ele>2177.5</ele><time>2026-04-27T11:09:12.999Z</time></trkpt><trkpt lat="33.023652206565274" lon="-5.0725412467848345"><ele>2176.0</ele><time>2026-04-27T11:09:13.999Z</time></trkpt><trkpt lat="33.023819179845574" lon="-5.072554000414462"><ele>2176.0</ele><time>2026-04-27T11:09:14.999Z</time></trkpt><trkpt lat="33.02399198963632" lon="-5.072560663563404"><ele>2176.0</ele><time>2026-04-27T11:09:15.999Z</time></trkpt><trkpt lat="33.02416910247667" lon="-5.072565082949106"><ele>2176.0</ele><time>2026-04-27T11:09:16.999Z</time></trkpt><trkpt lat="33.02435122829229" lon="-5.07256383580116"><ele>2173.666666666667</ele><time>2026-04-27T11:09:17.999Z</time></trkpt><trkpt lat="33.02454130946712" lon="-5.07254858388774"><ele>2171.3333333333335</ele><time>2026-04-27T11:09:18.999Z</time></trkpt><trkpt lat="33.02473295810168" lon="-5.072533407471131"><ele>2169.0</ele><time>2026-04-27T11:09:19.999Z</time></trkpt><trkpt lat="33.02492465212795" lon="-5.072518458364079"><ele>2166.0</ele><time>2026-04-27T11:09:20.999Z</time></trkpt><trkpt lat="33.02511453153957" lon="-5.072502971843245"><ele>2163.0</ele><time>2026-04-27T11:09:21.999Z</time></trkpt><trkpt lat="33.02530423607889" lon="-5.072483685036193"><ele>2160.0</ele><time>2026-04-27T11:09:22.999Z</time></trkpt><trkpt lat="33.02549133041109" lon="-5.072459395777388"><ele>2164.0</ele><time>2026-04-27T11:09:23.999Z</time></trkpt><trkpt lat="33.02567522957455" lon="-5.07243036400544"><ele>2168.0</ele><time>2026-04-27T11:09:24.999Z</time></trkpt><trkpt lat="33.02585428506474" lon="-5.0723910445738705"><ele>2172.0</ele><time>2026-04-27T11:09:25.999Z</time></trkpt><trkpt lat="33.026035141145286" lon="-5.072337811642613"><ele>2172.0</ele><time>2026-04-27T11:09:26.999Z</time></trkpt><trkpt lat="33.02619555593544" lon="-5.072245488375001"><ele>2172.0</ele><time>2026-04-27T11:09:27.999Z</time></trkpt><trkpt lat="33.02636797102515" lon="-5.07219139825287"><ele>2172.0</ele><time>2026-04-27T11:09:28.999Z</time></trkpt><trkpt lat="33.02653435775067" lon="-5.072106263969687"><ele>2167.3333333333335</ele><time>2026-04-27T11:09:29.999Z</time></trkpt><trkpt lat="33.026703574483264" lon="-5.072022166396466"><ele>2162.666666666667</ele><time>2026-04-27T11:09:30.999Z</time></trkpt><trkpt lat="33.026869652968244" lon="-5.071944163760938"><ele>2158.0</ele><time>2026-04-27T11:09:31.999Z</time></trkpt><trkpt lat="33.02703342536835" lon="-5.071877169565363"><ele>2158.0</ele><time>2026-04-27T11:09:32.999Z</time></trkpt><trkpt lat="33.0271968989341" lon="-5.071828942327015"><ele>2158.0</ele><time>2026-04-27T11:09:33.999Z</time></trkpt><trkpt lat="33.02737171107596" lon="-5.071803394846221"><ele>2158.0</ele><time>2026-04-27T11:09:34.999Z</time></trkpt><trkpt lat="33.027552666586594" lon="-5.071798857812107"><ele>2155.0</ele><time>2026-04-27T11:09:35.999Z</time></trkpt><trkpt lat="33.02774408537623" lon="-5.07178793640846"><ele>2152.0</ele><time>2026-04-27T11:09:36.999Z</time></trkpt><trkpt lat="33.02793436742267" lon="-5.071792598486395"><ele>2149.0</ele><time>2026-04-27T11:09:37.999Z</time></trkpt><trkpt lat="33.028122017495356" lon="-5.071797386951433"><ele>2149.0</ele><time>2026-04-27T11:09:38.999Z</time></trkpt><trkpt lat="33.02830468123425" lon="-5.07179789746104"><ele>2149.0</ele><time>2026-04-27T11:09:39.999Z</time></trkpt><trkpt lat="33.02849290683124" lon="-5.071783096429602"><ele>2149.0</ele><time>2026-04-27T11:09:40.999Z</time></trkpt><trkpt lat="33.02868002608721" lon="-5.07175117313144"><ele>2146.3333333333335</ele><time>2026-04-27T11:09:41.999Z</time></trkpt><trkpt lat="33.02884511985131" lon="-5.071629195874888"><ele>2143.6666666666665</ele><time>2026-04-27T11:09:42.999Z</time></trkpt><trkpt lat="33.029017627342235" lon="-5.071509354807029"><ele>2141.0</ele><time>2026-04-27T11:09:43.999Z</time></trkpt><trkpt lat="33.02917599192582" lon="-5.071354737968017"><ele>2140.0</ele><time>2026-04-27T11:09:44.999Z</time></trkpt><trkpt lat="33.02935267326586" lon="-5.071212778751119"><ele>2139.0</ele><time>2026-04-27T11:09:45.999Z</time></trkpt><trkpt lat="33.02950336056878" lon="-5.07101992527638"><ele>2138.0</ele><time>2026-04-27T11:09:46.999Z</time></trkpt><trkpt lat="33.029668901265346" lon="-5.070828185904997"><ele>2136.5</ele><time>2026-04-27T11:09:47.999Z</time></trkpt><trkpt lat="33.02984422758578" lon="-5.070637694935595"><ele>2135.0</ele><time>2026-04-27T11:09:48.999Z</time></trkpt><trkpt lat="33.03002208870949" lon="-5.070444737696676"><ele>2135.0</ele><time>2026-04-27T11:09:49.999Z</time></trkpt><trkpt lat="33.03020035839412" lon="-5.070251997662844"><ele>2135.0</ele><time>2026-04-27T11:09:50.999Z</time></trkpt><trkpt lat="33.03038786695089" lon="-5.070071260159282"><ele>2134.0</ele><time>2026-04-27T11:09:51.999Z</time></trkpt><trkpt lat="33.03055937374792" lon="-5.069874949733373"><ele>2133.0</ele><time>2026-04-27T11:09:53Z</time></trkpt><trkpt lat="33.030729105471" lon="-5.069671718494783"><ele>2134.0</ele><time>2026-04-27T11:09:54Z</time></trkpt><trkpt lat="33.030898261152416" lon="-5.069464621073668"><ele>2135.0</ele><time>2026-04-27T11:09:55Z</time></trkpt><trkpt lat="33.031063525022134" lon="-5.069252064135739"><ele>2135.0</ele><time>2026-04-27T11:09:56Z</time></trkpt><trkpt lat="33.03120576013106" lon="-5.069012359503465"><ele>2135.0</ele><time>2026-04-27T11:09:57Z</time></trkpt><trkpt lat="33.031364961190214" lon="-5.06878293623336"><ele>2135.0</ele><time>2026-04-27T11:09:58Z</time></trkpt><trkpt lat="33.031537422961925" lon="-5.068560821102543"><ele>2135.0</ele><time>2026-04-27T11:09:59Z</time></trkpt><trkpt lat="33.03168785138116" lon="-5.068313385304177"><ele>2136.5</ele><time>2026-04-27T11:10:00Z</time></trkpt><trkpt lat="33.03183388617032" lon="-5.0680610935192645"><ele>2138.0</ele><time>2026-04-27T11:10:01Z</time></trkpt><trkpt lat="33.03197206321406" lon="-5.067806866141933"><ele>2138.0</ele><time>2026-04-27T11:10:02Z</time></trkpt><trkpt lat="33.032103181122686" lon="-5.067546462972828"><ele>2138.0</ele><time>2026-04-27T11:10:03Z</time></trkpt><trkpt lat="33.03222517187476" lon="-5.067279576768673"><ele>2136.5</ele><time>2026-04-27T11:10:04Z</time></trkpt><trkpt lat="33.03234236516533" lon="-5.067008365874754"><ele>2135.0</ele><time>2026-04-27T11:10:05Z</time></trkpt><trkpt lat="33.03245730513594" lon="-5.066734142437419"><ele>2139.0</ele><time>2026-04-27T11:10:06Z</time></trkpt><trkpt lat="33.03256323140829" lon="-5.066464310300482"><ele>2143.0</ele><time>2026-04-27T11:10:07Z</time></trkpt><trkpt lat="33.03265389519606" lon="-5.066201790285804"><ele>2143.0</ele><time>2026-04-27T11:10:08Z</time></trkpt><trkpt lat="33.03273915630551" lon="-5.06594915058611"><ele>2143.0</ele><time>2026-04-27T11:10:09Z</time></trkpt><trkpt lat="33.032821642825176" lon="-5.065712438015732"><ele>2143.0</ele><time>2026-04-27T11:10:10Z</time></trkpt><trkpt lat="33.03289946043853" lon="-5.06551083262965"><ele>2144.666666666667</ele><time>2026-04-27T11:10:11Z</time></trkpt><trkpt lat="33.032985100423964" lon="-5.065334442302322"><ele>2146.3333333333335</ele><time>2026-04-27T11:10:12Z</time></trkpt><trkpt lat="33.03309564243634" lon="-5.065174207293058"><ele>2148.0</ele><time>2026-04-27T11:10:13Z</time></trkpt><trkpt lat="33.03320898357096" lon="-5.0650008661342145"><ele>2149.3333333333335</ele><time>2026-04-27T11:10:14Z</time></trkpt><trkpt lat="33.033328795324614" lon="-5.0648122109237"><ele>2150.666666666667</ele><time>2026-04-27T11:10:15Z</time></trkpt><trkpt lat="33.033463713070276" lon="-5.064614247666511"><ele>2152.0</ele><time>2026-04-27T11:10:16Z</time></trkpt><trkpt lat="33.03376110608549" lon="-5.064542067692163"><ele>2152.0</ele><time>2026-04-27T11:10:17Z</time></trkpt><trkpt lat="33.03395674507534" lon="-5.064353637044261"><ele>2152.0</ele><time>2026-04-27T11:10:18Z</time></trkpt><trkpt lat="33.03416128913791" lon="-5.064153026463844"><ele>2148.5</ele><time>2026-04-27T11:10:19Z</time></trkpt><trkpt lat="33.0343759876351" lon="-5.06395082063515"><ele>2145.0</ele><time>2026-04-27T11:10:20Z</time></trkpt><trkpt lat="33.034595259658225" lon="-5.063748400932993"><ele>2145.0</ele><time>2026-04-27T11:10:21Z</time></trkpt><trkpt lat="33.03481660874169" lon="-5.063540281411562"><ele>2145.0</ele><time>2026-04-27T11:10:22Z</time></trkpt><trkpt lat="33.035037525413586" lon="-5.063330819194823"><ele>2140.5</ele><time>2026-04-27T11:10:23Z</time></trkpt><trkpt lat="33.035260551045006" lon="-5.063121546696165"><ele>2136.0</ele><time>2026-04-27T11:10:24Z</time></trkpt><trkpt lat="33.03548255929189" lon="-5.062911706881807"><ele>2136.0</ele><time>2026-04-27T11:10:25Z</time></trkpt><trkpt lat="33.0357039569465" lon="-5.0627006371620125"><ele>2136.0</ele><time>2026-04-27T11:10:26Z</time></trkpt><trkpt lat="33.035925749742006" lon="-5.062490326373045"><ele>2137.0</ele><time>2026-04-27T11:10:27Z</time></trkpt><trkpt lat="33.03614736930619" lon="-5.062281957838987"><ele>2138.0</ele><time>2026-04-27T11:10:28Z</time></trkpt><trkpt lat="33.03636852869276" lon="-5.062073119492674"><ele>2138.0</ele><time>2026-04-27T11:10:29Z</time></trkpt><trkpt lat="33.036586822286885" lon="-5.0618655816667975"><ele>2138.0</ele><time>2026-04-27T11:10:30Z</time></trkpt><trkpt lat="33.03680288105907" lon="-5.061662326397769"><ele>2136.0</ele><time>2026-04-27T11:10:31Z</time></trkpt><trkpt lat="33.03701225107384" lon="-5.061466025319423"><ele>2134.0</ele><time>2026-04-27T11:10:32Z</time></trkpt><trkpt lat="33.03722068669461" lon="-5.061279275330837"><ele>2134.0</ele><time>2026-04-27T11:10:33Z</time></trkpt><trkpt lat="33.03743670373491" lon="-5.061103932035288"><ele>2134.0</ele><time>2026-04-27T11:10:34Z</time></trkpt><trkpt lat="33.03766067943657" lon="-5.06094292731016"><ele>2135.0</ele><time>2026-04-27T11:10:35Z</time></trkpt><trkpt lat="33.037891003180704" lon="-5.060796736887287"><ele>2136.0</ele><time>2026-04-27T11:10:36Z</time></trkpt><trkpt lat="33.03812687150314" lon="-5.060663178250617"><ele>2136.5</ele><time>2026-04-27T11:10:37Z</time></trkpt><trkpt lat="33.0383621660956" lon="-5.060525623678102"><ele>2137.0</ele><time>2026-04-27T11:10:38Z</time></trkpt><trkpt lat="33.03859549917122" lon="-5.060386325712119"><ele>2137.0</ele><time>2026-04-27T11:10:39Z</time></trkpt><trkpt lat="33.03882883168471" lon="-5.060246110099812"><ele>2137.0</ele><time>2026-04-27T11:10:40Z</time></trkpt><trkpt lat="33.03906510644748" lon="-5.06010871121487"><ele>2136.5</ele><time>2026-04-27T11:10:41Z</time></trkpt><trkpt lat="33.03930430906638" lon="-5.059969886050519"><ele>2136.0</ele><time>2026-04-27T11:10:42Z</time></trkpt><trkpt lat="33.03954200714985" lon="-5.059829853726112"><ele>2134.5</ele><time>2026-04-27T11:10:43Z</time></trkpt><trkpt lat="33.03977565663658" lon="-5.059693809983529"><ele>2133.0</ele><time>2026-04-27T11:10:44Z</time></trkpt><trkpt lat="33.040002432078246" lon="-5.059561043240877"><ele>2133.0</ele><time>2026-04-27T11:10:45Z</time></trkpt><trkpt lat="33.04022018371445" lon="-5.05942514591823"><ele>2133.0</ele><time>2026-04-27T11:10:46Z</time></trkpt><trkpt lat="33.04042870285778" lon="-5.05927425977429"><ele>2132.5</ele><time>2026-04-27T11:10:47Z</time></trkpt><trkpt lat="33.040619985931926" lon="-5.05910162374975"><ele>2132.0</ele><time>2026-04-27T11:10:48Z</time></trkpt><trkpt lat="33.04079160849474" lon="-5.058904721551956"><ele>2133.5</ele><time>2026-04-27T11:10:49Z</time></trkpt><trkpt lat="33.04095189818872" lon="-5.058691539064505"><ele>2135.0</ele><time>2026-04-27T11:10:50Z</time></trkpt><trkpt lat="33.041095013057614" lon="-5.0584596342822215"><ele>2132.5</ele><time>2026-04-27T11:10:51Z</time></trkpt><trkpt lat="33.04122551961348" lon="-5.058215826628638"><ele>2130.0</ele><time>2026-04-27T11:10:52Z</time></trkpt><trkpt lat="33.041351358894936" lon="-5.057965035401174"><ele>2130.0</ele><time>2026-04-27T11:10:53Z</time></trkpt><trkpt lat="33.0414846398226" lon="-5.0577143754309875"><ele>2130.0</ele><time>2026-04-27T11:10:54Z</time></trkpt><trkpt lat="33.04162243465856" lon="-5.057464241017625"><ele>2132.0</ele><time>2026-04-27T11:10:55Z</time></trkpt><trkpt lat="33.04176286032487" lon="-5.05721446196962"><ele>2134.0</ele><time>2026-04-27T11:10:56Z</time></trkpt><trkpt lat="33.041901262024126" lon="-5.056961024843541"><ele>2134.0</ele><time>2026-04-27T11:10:57Z</time></trkpt><trkpt lat="33.04203813416998" lon="-5.0567021436138955"><ele>2134.0</ele><time>2026-04-27T11:10:58Z</time></trkpt><trkpt lat="33.04217777051579" lon="-5.056438560970737"><ele>2135.0</ele><time>2026-04-27T11:10:59Z</time></trkpt><trkpt lat="33.04231840977842" lon="-5.0561756860823905"><ele>2136.0</ele><time>2026-04-27T11:11:00Z</time></trkpt><trkpt lat="33.042456889188884" lon="-5.055915655501483"><ele>2139.0</ele><time>2026-04-27T11:11:01Z</time></trkpt><trkpt lat="33.04259280261539" lon="-5.055657470211299"><ele>2142.0</ele><time>2026-04-27T11:11:02Z</time></trkpt><trkpt lat="33.04272624276689" lon="-5.055405455748594"><ele>2142.0</ele><time>2026-04-27T11:11:03Z</time></trkpt><trkpt lat="33.042858915934765" lon="-5.055162415474162"><ele>2142.0</ele><time>2026-04-27T11:11:04Z</time></trkpt><trkpt lat="33.04299149507672" lon="-5.054927826242144"><ele>2141.0</ele><time>2026-04-27T11:11:05Z</time></trkpt><trkpt lat="33.04312711747383" lon="-5.054697264155434"><ele>2140.0</ele><time>2026-04-27T11:11:06Z</time></trkpt><trkpt lat="33.043273233173835" lon="-5.054461928618827"><ele>2139.5</ele><time>2026-04-27T11:11:07Z</time></trkpt><trkpt lat="33.04342566907248" lon="-5.054223568633822"><ele>2139.0</ele><time>2026-04-27T11:11:08Z</time></trkpt><trkpt lat="33.043581251251325" lon="-5.0539829486033145"><ele>2138.0</ele><time>2026-04-27T11:11:09Z</time></trkpt><trkpt lat="33.04373025759736" lon="-5.0537537012048555"><ele>2137.0</ele><time>2026-04-27T11:11:10Z</time></trkpt><trkpt lat="33.04387214185663" lon="-5.053529951956477"><ele>2137.0</ele><time>2026-04-27T11:11:11Z</time></trkpt><trkpt lat="33.04401047567334" lon="-5.053307235880686"><ele>2137.0</ele><time>2026-04-27T11:11:12Z</time></trkpt><trkpt lat="33.04414173316688" lon="-5.053100794198723"><ele>2136.3333333333335</ele><time>2026-04-27T11:11:13Z</time></trkpt><trkpt lat="33.04427248929688" lon="-5.05289517164663"><ele>2135.6666666666665</ele><time>2026-04-27T11:11:13.999Z</time></trkpt><trkpt lat="33.04440577603537" lon="-5.052688050990882"><ele>2135.0</ele><time>2026-04-27T11:11:14.999Z</time></trkpt><trkpt lat="33.04454127208111" lon="-5.052472782753387"><ele>2132.0</ele><time>2026-04-27T11:11:15.999Z</time></trkpt><trkpt lat="33.04468208313842" lon="-5.052252464940888"><ele>2129.0</ele><time>2026-04-27T11:11:16.999Z</time></trkpt><trkpt lat="33.04483076952363" lon="-5.052027608566918"><ele>2129.0</ele><time>2026-04-27T11:11:17.999Z</time></trkpt><trkpt lat="33.04498433018261" lon="-5.051797231000021"><ele>2129.0</ele><time>2026-04-27T11:11:18.999Z</time></trkpt><trkpt lat="33.04513754427689" lon="-5.051563829249262"><ele>2129.0</ele><time>2026-04-27T11:11:19.999Z</time></trkpt><trkpt lat="33.04529082944094" lon="-5.051329163818864"><ele>2129.0</ele><time>2026-04-27T11:11:20.999Z</time></trkpt><trkpt lat="33.045439677923305" lon="-5.051098379776715"><ele>2129.0</ele><time>2026-04-27T11:11:21.999Z</time></trkpt><trkpt lat="33.045583534252536" lon="-5.050876861524925"><ele>2129.0</ele><time>2026-04-27T11:11:22.999Z</time></trkpt><trkpt lat="33.04571739315938" lon="-5.050668619510579"><ele>2130.333333333333</ele><time>2026-04-27T11:11:23.999Z</time></trkpt><trkpt lat="33.045839628740325" lon="-5.050464420646062"><ele>2131.6666666666665</ele><time>2026-04-27T11:11:24.999Z</time></trkpt><trkpt lat="33.045943594128474" lon="-5.05026959770678"><ele>2133.0</ele><time>2026-04-27T11:11:25.999Z</time></trkpt><trkpt lat="33.04602774745119" lon="-5.050075059510981"><ele>2132.6666666666665</ele><time>2026-04-27T11:11:26.999Z</time></trkpt><trkpt lat="33.046061923822336" lon="-5.049878237639848"><ele>2132.333333333333</ele><time>2026-04-27T11:11:27.999Z</time></trkpt><trkpt lat="33.04611790649176" lon="-5.049700312385757"><ele>2132.0</ele><time>2026-04-27T11:11:28.999Z</time></trkpt><trkpt lat="33.04614968167284" lon="-5.049526576659539"><ele>2132.0</ele><time>2026-04-27T11:11:29.999Z</time></trkpt><trkpt lat="33.046178690515326" lon="-5.049362849693383"><ele>2132.0</ele><time>2026-04-27T11:11:30.999Z</time></trkpt><trkpt lat="33.04620571232882" lon="-5.0492022625980475"><ele>2132.0</ele><time>2026-04-27T11:11:31.999Z</time></trkpt><trkpt lat="33.04623906885656" lon="-5.049044524738662"><ele>2132.0</ele><time>2026-04-27T11:11:32.999Z</time></trkpt><trkpt lat="33.04627511018736" lon="-5.0488873186774015"><ele>2131.75</ele><time>2026-04-27T11:11:33.999Z</time></trkpt><trkpt lat="33.04631454151724" lon="-5.048724649370059"><ele>2131.5</ele><time>2026-04-27T11:11:34.999Z</time></trkpt><trkpt lat="33.04636136949313" lon="-5.048560301281169"><ele>2131.25</ele><time>2026-04-27T11:11:35.999Z</time></trkpt><trkpt lat="33.04641757089048" lon="-5.048401486304801"><ele>2131.0</ele><time>2026-04-27T11:11:36.999Z</time></trkpt><trkpt lat="33.04647556271844" lon="-5.048251865486802"><ele>2131.0</ele><time>2026-04-27T11:11:37.999Z</time></trkpt><trkpt lat="33.04653860984986" lon="-5.048103156945274"><ele>2131.0</ele><time>2026-04-27T11:11:38.999Z</time></trkpt><trkpt lat="33.046613218922275" lon="-5.047951466552451"><ele>2131.0</ele><time>2026-04-27T11:11:39.999Z</time></trkpt><trkpt lat="33.04671061045887" lon="-5.047787868661799"><ele>2130.666666666667</ele><time>2026-04-27T11:11:40.999Z</time></trkpt><trkpt lat="33.04683270157956" lon="-5.047614699574813"><ele>2130.3333333333335</ele><time>2026-04-27T11:11:41.999Z</time></trkpt><trkpt lat="33.0469593522621" lon="-5.047418090637743"><ele>2130.0</ele><time>2026-04-27T11:11:42.999Z</time></trkpt><trkpt lat="33.04711016381377" lon="-5.047221970518493"><ele>2130.0</ele><time>2026-04-27T11:11:43.999Z</time></trkpt><trkpt lat="33.047279544733996" lon="-5.047025902351749"><ele>2130.0</ele><time>2026-04-27T11:11:44.999Z</time></trkpt><trkpt lat="33.047462010050346" lon="-5.04682548060181"><ele>2125.5</ele><time>2026-04-27T11:11:45.999Z</time></trkpt><trkpt lat="33.047653236119054" lon="-5.046620209789216"><ele>2121.0</ele><time>2026-04-27T11:11:46.999Z</time></trkpt><trkpt lat="33.04784996843622" lon="-5.046411822267154"><ele>2121.0</ele><time>2026-04-27T11:11:47.999Z</time></trkpt><trkpt lat="33.04805228117549" lon="-5.0461955429093885"><ele>2121.0</ele><time>2026-04-27T11:11:48.999Z</time></trkpt><trkpt lat="33.048258370314535" lon="-5.045976484343192"><ele>2118.0</ele><time>2026-04-27T11:11:49.999Z</time></trkpt><trkpt lat="33.04846534044467" lon="-5.045755131315823"><ele>2115.0</ele><time>2026-04-27T11:11:50.999Z</time></trkpt><trkpt lat="33.048673713970594" lon="-5.045533451203885"><ele>2115.0</ele><time>2026-04-27T11:11:51.999Z</time></trkpt><trkpt lat="33.04888324696321" lon="-5.045310120394701"><ele>2115.0</ele><time>2026-04-27T11:11:52.999Z</time></trkpt><trkpt lat="33.049102996710744" lon="-5.045102430425754"><ele>2111.0</ele><time>2026-04-27T11:11:53.999Z</time></trkpt><trkpt lat="33.04931557831886" lon="-5.044885752711595"><ele>2107.0</ele><time>2026-04-27T11:11:54.999Z</time></trkpt><trkpt lat="33.04953447690839" lon="-5.044678479265973"><ele>2107.0</ele><time>2026-04-27T11:11:55.999Z</time></trkpt><trkpt lat="33.049760202512616" lon="-5.044479929772793"><ele>2107.0</ele><time>2026-04-27T11:11:56.999Z</time></trkpt><trkpt lat="33.04998137408727" lon="-5.044268736555334"><ele>2106.0</ele><time>2026-04-27T11:11:57.999Z</time></trkpt><trkpt lat="33.050226525279015" lon="-5.044095674997636"><ele>2105.0</ele><time>2026-04-27T11:11:59Z</time></trkpt><trkpt lat="33.050464190172846" lon="-5.043910048974487"><ele>2105.0</ele><time>2026-04-27T11:12:00Z</time></trkpt><trkpt lat="33.050702553196196" lon="-5.043726948340677"><ele>2105.0</ele><time>2026-04-27T11:12:01Z</time></trkpt><trkpt lat="33.05094035892874" lon="-5.043543953380154"><ele>2103.5</ele><time>2026-04-27T11:12:02Z</time></trkpt><trkpt lat="33.05118057151964" lon="-5.043359924407615"><ele>2102.0</ele><time>2026-04-27T11:12:03Z</time></trkpt><trkpt lat="33.05142058468289" lon="-5.043175140331221"><ele>2101.5</ele><time>2026-04-27T11:12:04Z</time></trkpt><trkpt lat="33.051660980414916" lon="-5.04299067404595"><ele>2101.0</ele><time>2026-04-27T11:12:05Z</time></trkpt><trkpt lat="33.05190105191471" lon="-5.04280729174629"><ele>2101.0</ele><time>2026-04-27T11:12:06Z</time></trkpt><trkpt lat="33.05214004923635" lon="-5.042622715224804"><ele>2101.0</ele><time>2026-04-27T11:12:07Z</time></trkpt><trkpt lat="33.05237911472816" lon="-5.042438048656498"><ele>2099.0</ele><time>2026-04-27T11:12:08Z</time></trkpt><trkpt lat="33.05261880469082" lon="-5.042252496054972"><ele>2097.0</ele><time>2026-04-27T11:12:09Z</time></trkpt><trkpt lat="33.05286099589444" lon="-5.042066563280579"><ele>2097.0</ele><time>2026-04-27T11:12:10Z</time></trkpt><trkpt lat="33.05310450540422" lon="-5.041878952755043"><ele>2097.0</ele><time>2026-04-27T11:12:11Z</time></trkpt><trkpt lat="33.05334629009445" lon="-5.041689726916244"><ele>2095.5</ele><time>2026-04-27T11:12:12Z</time></trkpt><trkpt lat="33.053583381762024" lon="-5.041502828861224"><ele>2094.0</ele><time>2026-04-27T11:12:13Z</time></trkpt><trkpt lat="33.05382012151302" lon="-5.041319883933185"><ele>2094.0</ele><time>2026-04-27T11:12:14Z</time></trkpt><trkpt lat="33.0540571921796" lon="-5.041139386725117"><ele>2094.0</ele><time>2026-04-27T11:12:15Z</time></trkpt><trkpt lat="33.05429490146132" lon="-5.040954136849669"><ele>2094.5</ele><time>2026-04-27T11:12:16Z</time></trkpt><trkpt lat="33.054532299525285" lon="-5.040766985119715"><ele>2095.0</ele><time>2026-04-27T11:12:17Z</time></trkpt><trkpt lat="33.05476926657132" lon="-5.040583151332027"><ele>2094.5</ele><time>2026-04-27T11:12:18Z</time></trkpt><trkpt lat="33.05500547679893" lon="-5.040402450602871"><ele>2094.0</ele><time>2026-04-27T11:12:19Z</time></trkpt><trkpt lat="33.05524118612948" lon="-5.040224254003071"><ele>2094.0</ele><time>2026-04-27T11:12:20Z</time></trkpt><trkpt lat="33.055473350520785" lon="-5.04004947150386"><ele>2094.0</ele><time>2026-04-27T11:12:21Z</time></trkpt><trkpt lat="33.055699236649296" lon="-5.039876420831112"><ele>2095.5</ele><time>2026-04-27T11:12:22Z</time></trkpt><trkpt lat="33.05591892579954" lon="-5.039705697206149"><ele>2097.0</ele><time>2026-04-27T11:12:23Z</time></trkpt><trkpt lat="33.056132589065065" lon="-5.03954000143666"><ele>2097.0</ele><time>2026-04-27T11:12:24Z</time></trkpt><trkpt lat="33.0563434574341" lon="-5.039376623321252"><ele>2097.0</ele><time>2026-04-27T11:12:25Z</time></trkpt><trkpt lat="33.056556641939224" lon="-5.039211725536353"><ele>2099.0</ele><time>2026-04-27T11:12:26Z</time></trkpt><trkpt lat="33.05676987135689" lon="-5.039043467945978"><ele>2101.0</ele><time>2026-04-27T11:12:27Z</time></trkpt><trkpt lat="33.056986041627944" lon="-5.038876936880105"><ele>2101.0</ele><time>2026-04-27T11:12:28Z</time></trkpt><trkpt lat="33.05720380264574" lon="-5.038706929966928"><ele>2101.0</ele><time>2026-04-27T11:12:29Z</time></trkpt><trkpt lat="33.05742885929673" lon="-5.038534373198262"><ele>2101.5</ele><time>2026-04-27T11:12:30Z</time></trkpt><trkpt lat="33.0576563417808" lon="-5.038360197887263"><ele>2102.0</ele><time>2026-04-27T11:12:31Z</time></trkpt><trkpt lat="33.05788409549039" lon="-5.038181962759864"><ele>2100.5</ele><time>2026-04-27T11:12:32Z</time></trkpt><trkpt lat="33.05811290520691" lon="-5.038011199829265"><ele>2099.0</ele><time>2026-04-27T11:12:33Z</time></trkpt><trkpt lat="33.05834932995494" lon="-5.0378484696321735"><ele>2098.0</ele><time>2026-04-27T11:12:34Z</time></trkpt><trkpt lat="33.05858687242843" lon="-5.037700404824954"><ele>2097.0</ele><time>2026-04-27T11:12:35Z</time></trkpt><trkpt lat="33.05882490172212" lon="-5.037559152222547"><ele>2096.0</ele><time>2026-04-27T11:12:36Z</time></trkpt><trkpt lat="33.059059571618704" lon="-5.037424457131632"><ele>2095.0</ele><time>2026-04-27T11:12:37Z</time></trkpt><trkpt lat="33.05928873168688" lon="-5.037292597635855"><ele>2095.0</ele><time>2026-04-27T11:12:38Z</time></trkpt><trkpt lat="33.05951379420001" lon="-5.037160956061315"><ele>2095.0</ele><time>2026-04-27T11:12:39Z</time></trkpt><trkpt lat="33.05973546353372" lon="-5.037034215087548"><ele>2096.5</ele><time>2026-04-27T11:12:40Z</time></trkpt><trkpt lat="33.05995381493691" lon="-5.036906667543078"><ele>2098.0</ele><time>2026-04-27T11:12:41Z</time></trkpt><trkpt lat="33.060162238526615" lon="-5.036757478020441"><ele>2096.0</ele><time>2026-04-27T11:12:42Z</time></trkpt><trkpt lat="33.060357220142315" lon="-5.036565757115126"><ele>2094.0</ele><time>2026-04-27T11:12:43Z</time></trkpt><trkpt lat="33.06053009201483" lon="-5.036324134350203"><ele>2094.0</ele><time>2026-04-27T11:12:44Z</time></trkpt><trkpt lat="33.06068038150956" lon="-5.036053968617764"><ele>2094.0</ele><time>2026-04-27T11:12:45Z</time></trkpt><trkpt lat="33.06081366813469" lon="-5.035767107374993"><ele>2094.5</ele><time>2026-04-27T11:12:46Z</time></trkpt><trkpt lat="33.060948613879944" lon="-5.035498013176009"><ele>2095.0</ele><time>2026-04-27T11:12:47Z</time></trkpt><trkpt lat="33.06108360098886" lon="-5.0352376489877955"><ele>2095.0</ele><time>2026-04-27T11:12:48Z</time></trkpt><trkpt lat="33.06120967716643" lon="-5.034994338823196"><ele>2095.0</ele><time>2026-04-27T11:12:49Z</time></trkpt><trkpt lat="33.06133868389868" lon="-5.034770038644575"><ele>2094.5</ele><time>2026-04-27T11:12:50Z</time></trkpt><trkpt lat="33.06149222582267" lon="-5.034573753824306"><ele>2094.0</ele><time>2026-04-27T11:12:51Z</time></trkpt><trkpt lat="33.06167570380305" lon="-5.034402292108411"><ele>2094.0</ele><time>2026-04-27T11:12:52Z</time></trkpt><trkpt lat="33.061887759007604" lon="-5.034256285353263"><ele>2094.0</ele><time>2026-04-27T11:12:53Z</time></trkpt><trkpt lat="33.06211267947913" lon="-5.034122381615265"><ele>2092.0</ele><time>2026-04-27T11:12:54Z</time></trkpt><trkpt lat="33.06234793015463" lon="-5.033985697586272"><ele>2090.0</ele><time>2026-04-27T11:12:55Z</time></trkpt><trkpt lat="33.062588103525286" lon="-5.033846363188512"><ele>2090.0</ele><time>2026-04-27T11:12:56Z</time></trkpt><trkpt lat="33.06283286264322" lon="-5.033705322245155"><ele>2090.0</ele><time>2026-04-27T11:12:57Z</time></trkpt><trkpt lat="33.06307882334135" lon="-5.033558188836749"><ele>2092.0</ele><time>2026-04-27T11:12:58Z</time></trkpt><trkpt lat="33.06332464739488" lon="-5.0333967397710335"><ele>2094.0</ele><time>2026-04-27T11:12:59Z</time></trkpt><trkpt lat="33.06356803754081" lon="-5.033223663135882"><ele>2094.0</ele><time>2026-04-27T11:13:00Z</time></trkpt><trkpt lat="33.06381037407317" lon="-5.033046599286085"><ele>2094.0</ele><time>2026-04-27T11:13:01Z</time></trkpt><trkpt lat="33.0640505098351" lon="-5.032871878003257"><ele>2093.0</ele><time>2026-04-27T11:13:02Z</time></trkpt><trkpt lat="33.064287523448094" lon="-5.032698430731067"><ele>2092.0</ele><time>2026-04-27T11:13:03Z</time></trkpt><trkpt lat="33.06451976196953" lon="-5.032527082562814"><ele>2091.0</ele><time>2026-04-27T11:13:04Z</time></trkpt><trkpt lat="33.0647482305685" lon="-5.032357924357345"><ele>2090.0</ele><time>2026-04-27T11:13:05Z</time></trkpt><trkpt lat="33.06497126866518" lon="-5.032192156877153"><ele>2090.0</ele><time>2026-04-27T11:13:06Z</time></trkpt><trkpt lat="33.06519207568409" lon="-5.032028187312722"><ele>2090.0</ele><time>2026-04-27T11:13:07Z</time></trkpt><trkpt lat="33.065406197181574" lon="-5.031855029648608"><ele>2090.0</ele><time>2026-04-27T11:13:08Z</time></trkpt><trkpt lat="33.065601887335895" lon="-5.031653793021302"><ele>2090.0</ele><time>2026-04-27T11:13:09Z</time></trkpt><trkpt lat="33.065781289538755" lon="-5.031426040293383"><ele>2090.0</ele><time>2026-04-27T11:13:10Z</time></trkpt><trkpt lat="33.065936162265984" lon="-5.031179669719191"><ele>2090.0</ele><time>2026-04-27T11:13:11Z</time></trkpt><trkpt lat="33.066076928183854" lon="-5.030928737436632"><ele>2090.5</ele><time>2026-04-27T11:13:12Z</time></trkpt><trkpt lat="33.06621380611024" lon="-5.0306937174420225"><ele>2091.0</ele><time>2026-04-27T11:13:13Z</time></trkpt><trkpt lat="33.06635351742026" lon="-5.030474612607933"><ele>2091.0</ele><time>2026-04-27T11:13:14Z</time></trkpt><trkpt lat="33.06650775510704" lon="-5.030258998286268"><ele>2091.0</ele><time>2026-04-27T11:13:15Z</time></trkpt><trkpt lat="33.06667837080669" lon="-5.03004945984154"><ele>2089.5</ele><time>2026-04-27T11:13:16Z</time></trkpt><trkpt lat="33.06688005657175" lon="-5.029868897290208"><ele>2088.0</ele><time>2026-04-27T11:13:17Z</time></trkpt><trkpt lat="33.067094760184816" lon="-5.029711121679346"><ele>2088.0</ele><time>2026-04-27T11:13:18Z</time></trkpt><trkpt lat="33.06731977054129" lon="-5.029558686478322"><ele>2088.0</ele><time>2026-04-27T11:13:19Z</time></trkpt><trkpt lat="33.067547436759796" lon="-5.029394379642419"><ele>2088.5</ele><time>2026-04-27T11:13:20Z</time></trkpt><trkpt lat="33.06776811950533" lon="-5.029204213393349"><ele>2089.0</ele><time>2026-04-27T11:13:21Z</time></trkpt><trkpt lat="33.06797839710222" lon="-5.02898903347436"><ele>2089.0</ele><time>2026-04-27T11:13:22Z</time></trkpt><trkpt lat="33.068180246908646" lon="-5.028757328795063"><ele>2089.0</ele><time>2026-04-27T11:13:22.999Z</time></trkpt><trkpt lat="33.06837492640535" lon="-5.028515902521645"><ele>2089.0</ele><time>2026-04-27T11:13:23.999Z</time></trkpt><trkpt lat="33.06856974910265" lon="-5.028268497003624"><ele>2089.0</ele><time>2026-04-27T11:13:24.999Z</time></trkpt><trkpt lat="33.06876638491132" lon="-5.028018826727975"><ele>2089.0</ele><time>2026-04-27T11:13:25.999Z</time></trkpt><trkpt lat="33.06896292026237" lon="-5.027775357647433"><ele>2089.0</ele><time>2026-04-27T11:13:26.999Z</time></trkpt><trkpt lat="33.06915746107182" lon="-5.027538836732109"><ele>2090.5</ele><time>2026-04-27T11:13:27.999Z</time></trkpt><trkpt lat="33.0693456508791" lon="-5.027307674871642"><ele>2092.0</ele><time>2026-04-27T11:13:28.999Z</time></trkpt><trkpt lat="33.06952404026611" lon="-5.027085464647448"><ele>2092.0</ele><time>2026-04-27T11:13:29.999Z</time></trkpt><trkpt lat="33.069691320637276" lon="-5.0268742081117885"><ele>2092.0</ele><time>2026-04-27T11:13:30.999Z</time></trkpt><trkpt lat="33.06984873251573" lon="-5.026677123153234"><ele>2092.3333333333335</ele><time>2026-04-27T11:13:31.999Z</time></trkpt><trkpt lat="33.06999395858839" lon="-5.026496520646287"><ele>2092.6666666666665</ele><time>2026-04-27T11:13:32.999Z</time></trkpt><trkpt lat="33.07013149871371" lon="-5.026324203259214"><ele>2093.0</ele><time>2026-04-27T11:13:33.999Z</time></trkpt><trkpt lat="33.07026100025258" lon="-5.026158945236919"><ele>2093.0</ele><time>2026-04-27T11:13:34.999Z</time></trkpt><trkpt lat="33.07037935560826" lon="-5.02600350074656"><ele>2093.0</ele><time>2026-04-27T11:13:35.999Z</time></trkpt><trkpt lat="33.07049288346124" lon="-5.025858095449858"><ele>2093.0</ele><time>2026-04-27T11:13:36.999Z</time></trkpt><trkpt lat="33.07061683884422" lon="-5.0257236799837885"><ele>2092.333333333333</ele><time>2026-04-27T11:13:37.999Z</time></trkpt><trkpt lat="33.070737517391706" lon="-5.025558093962482"><ele>2091.6666666666665</ele><time>2026-04-27T11:13:38.999Z</time></trkpt><trkpt lat="33.07089645407229" lon="-5.025391025014986"><ele>2091.0</ele><time>2026-04-27T11:13:39.999Z</time></trkpt><trkpt lat="33.071081904545395" lon="-5.025247220086497"><ele>2091.0</ele><time>2026-04-27T11:13:40.999Z</time></trkpt><trkpt lat="33.071280881881314" lon="-5.025093845900657"><ele>2091.0</ele><time>2026-04-27T11:13:41.999Z</time></trkpt><trkpt lat="33.0714871335367" lon="-5.024934864597427"><ele>2090.5</ele><time>2026-04-27T11:13:42.999Z</time></trkpt><trkpt lat="33.071697761924504" lon="-5.024774606024576"><ele>2090.0</ele><time>2026-04-27T11:13:43.999Z</time></trkpt><trkpt lat="33.07188535103289" lon="-5.024561754065815"><ele>2090.0</ele><time>2026-04-27T11:13:44.999Z</time></trkpt><trkpt lat="33.07204466263301" lon="-5.024307903276186"><ele>2090.0</ele><time>2026-04-27T11:13:45.999Z</time></trkpt><trkpt lat="33.072200374348824" lon="-5.024049843172984"><ele>2090.5</ele><time>2026-04-27T11:13:46.999Z</time></trkpt><trkpt lat="33.072345859571314" lon="-5.023780464794276"><ele>2091.0</ele><time>2026-04-27T11:13:47.999Z</time></trkpt><trkpt lat="33.07248584519703" lon="-5.023519484633681"><ele>2089.5</ele><time>2026-04-27T11:13:48.999Z</time></trkpt><trkpt lat="33.072622262765634" lon="-5.023268562496695"><ele>2088.0</ele><time>2026-04-27T11:13:49.999Z</time></trkpt><trkpt lat="33.07275343742882" lon="-5.023027570657068"><ele>2088.0</ele><time>2026-04-27T11:13:50.999Z</time></trkpt><trkpt lat="33.07289282284225" lon="-5.022798586761881"><ele>2088.0</ele><time>2026-04-27T11:13:51.999Z</time></trkpt><trkpt lat="33.073066754596546" lon="-5.022579143833218"><ele>2087.5</ele><time>2026-04-27T11:13:52.999Z</time></trkpt><trkpt lat="33.07326038520865" lon="-5.022373424349936"><ele>2087.0</ele><time>2026-04-27T11:13:53.999Z</time></trkpt><trkpt lat="33.073474348632274" lon="-5.022178131790906"><ele>2088.5</ele><time>2026-04-27T11:13:54.999Z</time></trkpt><trkpt lat="33.07368680664681" lon="-5.021968603983137"><ele>2090.0</ele><time>2026-04-27T11:13:55.999Z</time></trkpt><trkpt lat="33.073901402263026" lon="-5.021758903904754"><ele>2089.5</ele><time>2026-04-27T11:13:56.999Z</time></trkpt><trkpt lat="33.07411342072101" lon="-5.021545150132235"><ele>2089.0</ele><time>2026-04-27T11:13:57.999Z</time></trkpt><trkpt lat="33.07432323440979" lon="-5.021334406263823"><ele>2089.0</ele><time>2026-04-27T11:13:58.999Z</time></trkpt><trkpt lat="33.074533669982806" lon="-5.021132627053142"><ele>2089.0</ele><time>2026-04-27T11:13:59.999Z</time></trkpt><trkpt lat="33.074748801301844" lon="-5.020949703711334"><ele>2089.5</ele><time>2026-04-27T11:14:00.999Z</time></trkpt><trkpt lat="33.07497424328484" lon="-5.020785055402753"><ele>2090.0</ele><time>2026-04-27T11:14:01.999Z</time></trkpt><trkpt lat="33.075195912719835" lon="-5.020611420445735"><ele>2090.0</ele><time>2026-04-27T11:14:02.999Z</time></trkpt><trkpt lat="33.07542622661051" lon="-5.020457859479893"><ele>2090.0</ele><time>2026-04-27T11:14:03.999Z</time></trkpt><trkpt lat="33.07565423245974" lon="-5.020319997005374"><ele>2090.5</ele><time>2026-04-27T11:14:05Z</time></trkpt><trkpt lat="33.075877102246515" lon="-5.02018513482733"><ele>2091.0</ele><time>2026-04-27T11:14:06Z</time></trkpt><trkpt lat="33.07608604805104" lon="-5.020059051662778"><ele>2090.6666666666665</ele><time>2026-04-27T11:14:07Z</time></trkpt><trkpt lat="33.0762876020052" lon="-5.019959587038313"><ele>2090.333333333333</ele><time>2026-04-27T11:14:08Z</time></trkpt><trkpt lat="33.07647009108497" lon="-5.019854055139324"><ele>2090.0</ele><time>2026-04-27T11:14:09Z</time></trkpt><trkpt lat="33.076650387493736" lon="-5.019769911969309"><ele>2090.0</ele><time>2026-04-27T11:14:10Z</time></trkpt><trkpt lat="33.076841009955245" lon="-5.019711123866404"><ele>2090.0</ele><time>2026-04-27T11:14:11Z</time></trkpt><trkpt lat="33.07704446548844" lon="-5.0196784174126"><ele>2090.0</ele><time>2026-04-27T11:14:12Z</time></trkpt><trkpt lat="33.07725371729788" lon="-5.019649526944679"><ele>2090.0</ele><time>2026-04-27T11:14:13Z</time></trkpt><trkpt lat="33.07746964203817" lon="-5.0196207087552915"><ele>2090.0</ele><time>2026-04-27T11:14:14Z</time></trkpt><trkpt lat="33.07768749705016" lon="-5.019588337358278"><ele>2090.0</ele><time>2026-04-27T11:14:15Z</time></trkpt><trkpt lat="33.07790050210509" lon="-5.019545355737042"><ele>2090.0</ele><time>2026-04-27T11:14:16Z</time></trkpt><trkpt lat="33.07810880537459" lon="-5.019475374619466"><ele>2090.0</ele><time>2026-04-27T11:14:17Z</time></trkpt><trkpt lat="33.07830035838302" lon="-5.019376495610435"><ele>2090.0</ele><time>2026-04-27T11:14:18Z</time></trkpt><trkpt lat="33.07847510626906" lon="-5.019248061229723"><ele>2091.0</ele><time>2026-04-27T11:14:19Z</time></trkpt><trkpt lat="33.07863809148165" lon="-5.01908418186889"><ele>2092.0</ele><time>2026-04-27T11:14:20Z</time></trkpt><trkpt lat="33.07883074844952" lon="-5.0189375394557745"><ele>2093.0</ele><time>2026-04-27T11:14:21Z</time></trkpt><trkpt lat="33.07901252219048" lon="-5.01875855352957"><ele>2093.5</ele><time>2026-04-27T11:14:22Z</time></trkpt><trkpt lat="33.07920462434799" lon="-5.018590647775621"><ele>2094.0</ele><time>2026-04-27T11:14:23Z</time></trkpt><trkpt lat="33.079398166509044" lon="-5.0184203005746655"><ele>2093.0</ele><time>2026-04-27T11:14:24Z</time></trkpt><trkpt lat="33.07958927677568" lon="-5.018252093626405"><ele>2092.0</ele><time>2026-04-27T11:14:25Z</time></trkpt><trkpt lat="33.0797728621266" lon="-5.0180905099874344"><ele>2091.0</ele><time>2026-04-27T11:14:26Z</time></trkpt><trkpt lat="33.07996471062365" lon="-5.0179585932210955"><ele>2090.0</ele><time>2026-04-27T11:14:27Z</time></trkpt><trkpt lat="33.08013764114781" lon="-5.017799965910057"><ele>2089.0</ele><time>2026-04-27T11:14:28Z</time></trkpt><trkpt lat="33.08033021767564" lon="-5.0176778744113975"><ele>2089.0</ele><time>2026-04-27T11:14:29Z</time></trkpt><trkpt lat="33.08053784703605" lon="-5.017585448847362"><ele>2089.0</ele><time>2026-04-27T11:14:30Z</time></trkpt><trkpt lat="33.08076755756162" lon="-5.017547231405796"><ele>2088.0</ele><time>2026-04-27T11:14:31Z</time></trkpt><trkpt lat="33.080998294783925" lon="-5.017513400393711"><ele>2087.0</ele><time>2026-04-27T11:14:32Z</time></trkpt><trkpt lat="33.081243105549305" lon="-5.017517695911953"><ele>2087.0</ele><time>2026-04-27T11:14:33Z</time></trkpt><trkpt lat="33.081499627380914" lon="-5.017541797796252"><ele>2087.0</ele><time>2026-04-27T11:14:34Z</time></trkpt><trkpt lat="33.08176674185063" lon="-5.017539765383222"><ele>2085.5</ele><time>2026-04-27T11:14:35Z</time></trkpt><trkpt lat="33.082044060691274" lon="-5.017567172452328"><ele>2084.0</ele><time>2026-04-27T11:14:36Z</time></trkpt><trkpt lat="33.08231927262159" lon="-5.0175982301228235"><ele>2082.5</ele><time>2026-04-27T11:14:37Z</time></trkpt><trkpt lat="33.08259322426397" lon="-5.01764068288995"><ele>2081.0</ele><time>2026-04-27T11:14:38Z</time></trkpt><trkpt lat="33.08286660855416" lon="-5.017663583051912"><ele>2081.0</ele><time>2026-04-27T11:14:39Z</time></trkpt><trkpt lat="33.08313880302678" lon="-5.017687007058616"><ele>2081.0</ele><time>2026-04-27T11:14:40Z</time></trkpt><trkpt lat="33.08341029871593" lon="-5.017709726805395"><ele>2079.0</ele><time>2026-04-27T11:14:41Z</time></trkpt><trkpt lat="33.08368192773382" lon="-5.017731472996718"><ele>2077.0</ele><time>2026-04-27T11:14:42Z</time></trkpt><trkpt lat="33.083951807156275" lon="-5.017753378547988"><ele>2075.5</ele><time>2026-04-27T11:14:43Z</time></trkpt><trkpt lat="33.08422112916197" lon="-5.017777257712376"><ele>2074.0</ele><time>2026-04-27T11:14:44Z</time></trkpt><trkpt lat="33.08449541849017" lon="-5.017801399872358"><ele>2074.0</ele><time>2026-04-27T11:14:45Z</time></trkpt><trkpt lat="33.08477654323856" lon="-5.017824306240577"><ele>2074.0</ele><time>2026-04-27T11:14:46Z</time></trkpt><trkpt lat="33.08506290896094" lon="-5.017847892661794"><ele>2072.0</ele><time>2026-04-27T11:14:47Z</time></trkpt><trkpt lat="33.08535221371114" lon="-5.017874045185274"><ele>2070.0</ele><time>2026-04-27T11:14:48Z</time></trkpt><trkpt lat="33.08564368444286" lon="-5.017899960468135"><ele>2071.0</ele><time>2026-04-27T11:14:49Z</time></trkpt><trkpt lat="33.08593764161542" lon="-5.017924541574855"><ele>2072.0</ele><time>2026-04-27T11:14:50Z</time></trkpt><trkpt lat="33.086232942891385" lon="-5.017949823585014"><ele>2072.0</ele><time>2026-04-27T11:14:51Z</time></trkpt><trkpt lat="33.086528510979285" lon="-5.017975294748765"><ele>2072.0</ele><time>2026-04-27T11:14:52Z</time></trkpt><trkpt lat="33.08682257590032" lon="-5.017998517852048"><ele>2071.5</ele><time>2026-04-27T11:14:53Z</time></trkpt><trkpt lat="33.087115708484895" lon="-5.0180222922739155"><ele>2071.0</ele><time>2026-04-27T11:14:54Z</time></trkpt><trkpt lat="33.08740895358169" lon="-5.018051487582143"><ele>2068.5</ele><time>2026-04-27T11:14:55Z</time></trkpt><trkpt lat="33.08770144228607" lon="-5.01809155635995"><ele>2066.0</ele><time>2026-04-27T11:14:56Z</time></trkpt><trkpt lat="33.08799104539066" lon="-5.018149243443846"><ele>2063.0</ele><time>2026-04-27T11:14:57Z</time></trkpt><trkpt lat="33.08827623235306" lon="-5.018222355063643"><ele>2060.0</ele><time>2026-04-27T11:14:58Z</time></trkpt><trkpt lat="33.08855780551226" lon="-5.0183046024128535"><ele>2058.0</ele><time>2026-04-27T11:14:59Z</time></trkpt><trkpt lat="33.088835508788925" lon="-5.018388946037429"><ele>2056.0</ele><time>2026-04-27T11:15:00Z</time></trkpt><trkpt lat="33.08910613764259" lon="-5.018468763531562"><ele>2056.0</ele><time>2026-04-27T11:15:01Z</time></trkpt><trkpt lat="33.08936936819283" lon="-5.018544534745782"><ele>2056.0</ele><time>2026-04-27T11:15:02Z</time></trkpt><trkpt lat="33.089621249422095" lon="-5.018618757008175"><ele>2056.0</ele><time>2026-04-27T11:15:03Z</time></trkpt><trkpt lat="33.08986942973389" lon="-5.018699772088047"><ele>2056.0</ele><time>2026-04-27T11:15:04Z</time></trkpt><trkpt lat="33.090111989528374" lon="-5.0188032811712295"><ele>2056.0</ele><time>2026-04-27T11:15:05Z</time></trkpt><trkpt lat="33.090342775108766" lon="-5.018954352388171"><ele>2056.0</ele><time>2026-04-27T11:15:06Z</time></trkpt><trkpt lat="33.09056250622271" lon="-5.019146290840198"><ele>2054.0</ele><time>2026-04-27T11:15:07Z</time></trkpt><trkpt lat="33.090766983066" lon="-5.019378668081717"><ele>2052.0</ele><time>2026-04-27T11:15:08Z</time></trkpt><trkpt lat="33.09095946247236" lon="-5.019631343188841"><ele>2052.0</ele><time>2026-04-27T11:15:09Z</time></trkpt><trkpt lat="33.09116417054006" lon="-5.019888038726019"><ele>2052.0</ele><time>2026-04-27T11:15:10Z</time></trkpt><trkpt lat="33.091386237635284" lon="-5.020122067492667"><ele>2050.5</ele><time>2026-04-27T11:15:11Z</time></trkpt><trkpt lat="33.091616165305155" lon="-5.02034388083664"><ele>2049.0</ele><time>2026-04-27T11:15:12Z</time></trkpt><trkpt lat="33.09186213748188" lon="-5.020555952075123"><ele>2049.0</ele><time>2026-04-27T11:15:13Z</time></trkpt><trkpt lat="33.09212881517065" lon="-5.020753768233979"><ele>2049.0</ele><time>2026-04-27T11:15:14Z</time></trkpt><trkpt lat="33.09241545730309" lon="-5.020936654950506"><ele>2047.0</ele><time>2026-04-27T11:15:15Z</time></trkpt><trkpt lat="33.092717166489855" lon="-5.0211088721631825"><ele>2045.0</ele><time>2026-04-27T11:15:16Z</time></trkpt><trkpt lat="33.09302517167706" lon="-5.021276500150703"><ele>2045.5</ele><time>2026-04-27T11:15:17Z</time></trkpt><trkpt lat="33.093329127401184" lon="-5.021440787771278"><ele>2046.0</ele><time>2026-04-27T11:15:18Z</time></trkpt><trkpt lat="33.09362962207336" lon="-5.02160352760749"><ele>2043.5</ele><time>2026-04-27T11:15:19Z</time></trkpt><trkpt lat="33.0939431603259" lon="-5.021774684407789"><ele>2041.0</ele><time>2026-04-27T11:15:20Z</time></trkpt><trkpt lat="33.09426169546275" lon="-5.021947794096219"><ele>2041.0</ele><time>2026-04-27T11:15:21Z</time></trkpt><trkpt lat="33.09457774401874" lon="-5.022119575404404"><ele>2041.0</ele><time>2026-04-27T11:15:22Z</time></trkpt><trkpt lat="33.09488947533925" lon="-5.022290685850804"><ele>2040.5</ele><time>2026-04-27T11:15:23Z</time></trkpt><trkpt lat="33.09519733913753" lon="-5.022460936434944"><ele>2040.0</ele><time>2026-04-27T11:15:24Z</time></trkpt><trkpt lat="33.0954939450256" lon="-5.022623206147482"><ele>2037.0</ele><time>2026-04-27T11:15:25Z</time></trkpt><trkpt lat="33.09578009896266" lon="-5.022779961661172"><ele>2034.0</ele><time>2026-04-27T11:15:26Z</time></trkpt><trkpt lat="33.09605244113867" lon="-5.022927305160681"><ele>2034.0</ele><time>2026-04-27T11:15:27Z</time></trkpt><trkpt lat="33.09632173639018" lon="-5.023061931718918"><ele>2034.0</ele><time>2026-04-27T11:15:28Z</time></trkpt><trkpt lat="33.096604982960955" lon="-5.023179578880477"><ele>2032.5</ele><time>2026-04-27T11:15:29Z</time></trkpt><trkpt lat="33.09689665348208" lon="-5.0232628509759945"><ele>2031.0</ele><time>2026-04-27T11:15:29.999Z</time></trkpt><trkpt lat="33.09718129034785" lon="-5.023321839250457"><ele>2029.5</ele><time>2026-04-27T11:15:30.999Z</time></trkpt><trkpt lat="33.097456260398815" lon="-5.023371922959081"><ele>2028.0</ele><time>2026-04-27T11:15:31.999Z</time></trkpt><trkpt lat="33.097721979995434" lon="-5.0234474501164"><ele>2028.0</ele><time>2026-04-27T11:15:32.999Z</time></trkpt><trkpt lat="33.09797963894471" lon="-5.023574997314055"><ele>2028.0</ele><time>2026-04-27T11:15:33.999Z</time></trkpt><trkpt lat="33.098236925961785" lon="-5.023742438593601"><ele>2031.0</ele><time>2026-04-27T11:15:34.999Z</time></trkpt><trkpt lat="33.09849684372121" lon="-5.023919718049199"><ele>2034.0</ele><time>2026-04-27T11:15:35.999Z</time></trkpt><trkpt lat="33.09874458758301" lon="-5.0240844445075155"><ele>2031.0</ele><time>2026-04-27T11:15:36.999Z</time></trkpt><trkpt lat="33.09898746485529" lon="-5.02422344071805"><ele>2028.0</ele><time>2026-04-27T11:15:37.999Z</time></trkpt><trkpt lat="33.099235764761225" lon="-5.02434841523258"><ele>2028.0</ele><time>2026-04-27T11:15:38.999Z</time></trkpt><trkpt lat="33.09949576221755" lon="-5.024455989894692"><ele>2028.0</ele><time>2026-04-27T11:15:39.999Z</time></trkpt><trkpt lat="33.099773453292315" lon="-5.024542716449504"><ele>2027.5</ele><time>2026-04-27T11:15:40.999Z</time></trkpt><trkpt lat="33.1000612037077" lon="-5.02461516498123"><ele>2027.0</ele><time>2026-04-27T11:15:41.999Z</time></trkpt><trkpt lat="33.10034477431698" lon="-5.024687570086559"><ele>2027.0</ele><time>2026-04-27T11:15:42.999Z</time></trkpt><trkpt lat="33.10061854150886" lon="-5.02475987557618"><ele>2027.0</ele><time>2026-04-27T11:15:43.999Z</time></trkpt><trkpt lat="33.10088347362814" lon="-5.0248298790689905"><ele>2028.0</ele><time>2026-04-27T11:15:44.999Z</time></trkpt><trkpt lat="33.101142219804366" lon="-5.024894043935151"><ele>2029.0</ele><time>2026-04-27T11:15:45.999Z</time></trkpt><trkpt lat="33.10140310102909" lon="-5.024942697428145"><ele>2027.0</ele><time>2026-04-27T11:15:46.999Z</time></trkpt><trkpt lat="33.1016603595796" lon="-5.024968881719912"><ele>2025.0</ele><time>2026-04-27T11:15:47.999Z</time></trkpt><trkpt lat="33.10192210806723" lon="-5.024955035163262"><ele>2025.0</ele><time>2026-04-27T11:15:48.999Z</time></trkpt><trkpt lat="33.10219077389748" lon="-5.024907885964161"><ele>2025.0</ele><time>2026-04-27T11:15:49.999Z</time></trkpt><trkpt lat="33.10246681269263" lon="-5.024822300054634"><ele>2020.5</ele><time>2026-04-27T11:15:50.999Z</time></trkpt><trkpt lat="33.10274450269093" lon="-5.024719070675168"><ele>2016.0</ele><time>2026-04-27T11:15:51.999Z</time></trkpt><trkpt lat="33.10302059519465" lon="-5.024613026446293"><ele>2013.0</ele><time>2026-04-27T11:15:52.999Z</time></trkpt><trkpt lat="33.10329631280527" lon="-5.024504346302528"><ele>2010.0</ele><time>2026-04-27T11:15:53.999Z</time></trkpt><trkpt lat="33.103566676182375" lon="-5.024399715176045"><ele>2010.0</ele><time>2026-04-27T11:15:54.999Z</time></trkpt><trkpt lat="33.10382784723062" lon="-5.0242978558927955"><ele>2010.0</ele><time>2026-04-27T11:15:55.999Z</time></trkpt><trkpt lat="33.10408287713558" lon="-5.02420254889382"><ele>2014.5</ele><time>2026-04-27T11:15:56.999Z</time></trkpt><trkpt lat="33.1043367487938" lon="-5.024122967892065"><ele>2019.0</ele><time>2026-04-27T11:15:57.999Z</time></trkpt><trkpt lat="33.104590879915264" lon="-5.024070842619447"><ele>2019.0</ele><time>2026-04-27T11:15:58.999Z</time></trkpt><trkpt lat="33.10485517249233" lon="-5.024059580950295"><ele>2019.0</ele><time>2026-04-27T11:15:59.999Z</time></trkpt><trkpt lat="33.1051334944855" lon="-5.024082428268329"><ele>2016.5</ele><time>2026-04-27T11:16:00.999Z</time></trkpt><trkpt lat="33.10540794283896" lon="-5.024123614251273"><ele>2014.0</ele><time>2026-04-27T11:16:01.999Z</time></trkpt><trkpt lat="33.10567908438363" lon="-5.024173962775427"><ele>2009.5</ele><time>2026-04-27T11:16:02.999Z</time></trkpt><trkpt lat="33.105947165729305" lon="-5.024234315760396"><ele>2005.0</ele><time>2026-04-27T11:16:03.999Z</time></trkpt><trkpt lat="33.106217921422044" lon="-5.024290927518115"><ele>2005.0</ele><time>2026-04-27T11:16:04.999Z</time></trkpt><trkpt lat="33.10648160694536" lon="-5.0244301997279015"><ele>2005.0</ele><time>2026-04-27T11:16:05.999Z</time></trkpt><trkpt lat="33.106747042574426" lon="-5.024584470714985"><ele>2005.0</ele><time>2026-04-27T11:16:06.999Z</time></trkpt><trkpt lat="33.107009769521916" lon="-5.024768607991958"><ele>2005.0</ele><time>2026-04-27T11:16:07.999Z</time></trkpt><trkpt lat="33.10726718338872" lon="-5.024976456298995"><ele>2001.0</ele><time>2026-04-27T11:16:08.999Z</time></trkpt><trkpt lat="33.10751626435161" lon="-5.025189607004386"><ele>1997.0</ele><time>2026-04-27T11:16:09.999Z</time></trkpt><trkpt lat="33.10775926648617" lon="-5.025398689360702"><ele>1997.0</ele><time>2026-04-27T11:16:11Z</time></trkpt><trkpt lat="33.10799443812533" lon="-5.025595374344317"><ele>1997.0</ele><time>2026-04-27T11:16:12Z</time></trkpt><trkpt lat="33.10822457815128" lon="-5.025778491723119"><ele>1996.5</ele><time>2026-04-27T11:16:13Z</time></trkpt><trkpt lat="33.108450797462176" lon="-5.025951924346286"><ele>1996.0</ele><time>2026-04-27T11:16:14Z</time></trkpt><trkpt lat="33.10866839652455" lon="-5.02609979874827"><ele>1996.0</ele><time>2026-04-27T11:16:15Z</time></trkpt><trkpt lat="33.108876282612925" lon="-5.026219158502691"><ele>1996.0</ele><time>2026-04-27T11:16:16Z</time></trkpt><trkpt lat="33.10909140665731" lon="-5.026320453428508"><ele>1995.0</ele><time>2026-04-27T11:16:17Z</time></trkpt><trkpt lat="33.10932468251642" lon="-5.026405926704727"><ele>1994.0</ele><time>2026-04-27T11:16:18Z</time></trkpt><trkpt lat="33.109578189668326" lon="-5.026477886257292"><ele>1994.0</ele><time>2026-04-27T11:16:19Z</time></trkpt><trkpt lat="33.10983362318884" lon="-5.026547501400575"><ele>1994.0</ele><time>2026-04-27T11:16:20Z</time></trkpt><trkpt lat="33.11009833074639" lon="-5.026599860797412"><ele>1991.5</ele><time>2026-04-27T11:16:21Z</time></trkpt><trkpt lat="33.110361724319105" lon="-5.026669722224837"><ele>1989.0</ele><time>2026-04-27T11:16:22Z</time></trkpt><trkpt lat="33.110623482966865" lon="-5.026739151079108"><ele>1988.5</ele><time>2026-04-27T11:16:23Z</time></trkpt><trkpt lat="33.110883390900106" lon="-5.026819642900192"><ele>1988.0</ele><time>2026-04-27T11:16:24Z</time></trkpt><trkpt lat="33.11114938816142" lon="-5.026874700629561"><ele>1988.0</ele><time>2026-04-27T11:16:25Z</time></trkpt><trkpt lat="33.11141490072577" lon="-5.0269351804311135"><ele>1988.0</ele><time>2026-04-27T11:16:26Z</time></trkpt><trkpt lat="33.11167478199007" lon="-5.026995454889017"><ele>1988.0</ele><time>2026-04-27T11:16:27Z</time></trkpt><trkpt lat="33.111926392048694" lon="-5.027055580303042"><ele>1988.0</ele><time>2026-04-27T11:16:28Z</time></trkpt><trkpt lat="33.11217562918904" lon="-5.0271148387431355"><ele>1987.0</ele><time>2026-04-27T11:16:29Z</time></trkpt><trkpt lat="33.1124223293289" lon="-5.027175852027142"><ele>1986.0</ele><time>2026-04-27T11:16:30Z</time></trkpt><trkpt lat="33.112661919088" lon="-5.027246657258806"><ele>1986.0</ele><time>2026-04-27T11:16:31Z</time></trkpt><trkpt lat="33.11290241608338" lon="-5.027302549216829"><ele>1986.0</ele><time>2026-04-27T11:16:32Z</time></trkpt><trkpt lat="33.11314009753652" lon="-5.027364880610466"><ele>1984.5</ele><time>2026-04-27T11:16:33Z</time></trkpt><trkpt lat="33.11333537238498" lon="-5.027639055342198"><ele>1983.0</ele><time>2026-04-27T11:16:34Z</time></trkpt><trkpt lat="33.11353418305403" lon="-5.027845160165973"><ele>1983.0</ele><time>2026-04-27T11:16:35Z</time></trkpt><trkpt lat="33.11370654884742" lon="-5.028085287647898"><ele>1983.0</ele><time>2026-04-27T11:16:36Z</time></trkpt><trkpt lat="33.113876430587155" lon="-5.0283332983397235"><ele>1984.0</ele><time>2026-04-27T11:16:37Z</time></trkpt><trkpt lat="33.11406863949711" lon="-5.028560956698797"><ele>1985.0</ele><time>2026-04-27T11:16:38Z</time></trkpt><trkpt lat="33.11427665460215" lon="-5.028768239826648"><ele>1985.0</ele><time>2026-04-27T11:16:39Z</time></trkpt><trkpt lat="33.11449701695602" lon="-5.028960689041771"><ele>1985.0</ele><time>2026-04-27T11:16:40Z</time></trkpt><trkpt lat="33.11472362690521" lon="-5.029148430368324"><ele>1985.5</ele><time>2026-04-27T11:16:41Z</time></trkpt><trkpt lat="33.1149529228392" lon="-5.029329591470341"><ele>1986.0</ele><time>2026-04-27T11:16:42Z</time></trkpt><trkpt lat="33.11518231748234" lon="-5.02949567054238"><ele>1986.0</ele><time>2026-04-27T11:16:43Z</time></trkpt><trkpt lat="33.11541776400137" lon="-5.029639445570288"><ele>1986.0</ele><time>2026-04-27T11:16:44Z</time></trkpt><trkpt lat="33.11566027449377" lon="-5.029761281349579"><ele>1987.5</ele><time>2026-04-27T11:16:45Z</time></trkpt><trkpt lat="33.1159053375165" lon="-5.0298763368608075"><ele>1989.0</ele><time>2026-04-27T11:16:46Z</time></trkpt><trkpt lat="33.11614639165227" lon="-5.02999164363676"><ele>1985.5</ele><time>2026-04-27T11:16:47Z</time></trkpt><trkpt lat="33.11638681138613" lon="-5.030101099364986"><ele>1982.0</ele><time>2026-04-27T11:16:48Z</time></trkpt><trkpt lat="33.11662402357185" lon="-5.030193821482644"><ele>1980.5</ele><time>2026-04-27T11:16:49Z</time></trkpt><trkpt lat="33.116854033784875" lon="-5.030263199627746"><ele>1979.0</ele><time>2026-04-27T11:16:50Z</time></trkpt><trkpt lat="33.11707659145224" lon="-5.030304356247139"><ele>1979.0</ele><time>2026-04-27T11:16:51Z</time></trkpt><trkpt lat="33.117312217902686" lon="-5.030312049053249"><ele>1979.0</ele><time>2026-04-27T11:16:52Z</time></trkpt><trkpt lat="33.11755969511598" lon="-5.030296168748123"><ele>1977.0</ele><time>2026-04-27T11:16:53Z</time></trkpt><trkpt lat="33.11781867355419" lon="-5.030263368562823"><ele>1975.0</ele><time>2026-04-27T11:16:54Z</time></trkpt><trkpt lat="33.118088866748025" lon="-5.030230544096168"><ele>1971.0</ele><time>2026-04-27T11:16:55Z</time></trkpt><trkpt lat="33.11836372539638" lon="-5.030198793470659"><ele>1967.0</ele><time>2026-04-27T11:16:56Z</time></trkpt><trkpt lat="33.11864241166546" lon="-5.030166845226649"><ele>1967.0</ele><time>2026-04-27T11:16:57Z</time></trkpt><trkpt lat="33.11892131778892" lon="-5.030137323322539"><ele>1967.0</ele><time>2026-04-27T11:16:58Z</time></trkpt><trkpt lat="33.11919974750994" lon="-5.030106230565564"><ele>1964.5</ele><time>2026-04-27T11:16:59Z</time></trkpt><trkpt lat="33.11947936942981" lon="-5.030075493418846"><ele>1962.0</ele><time>2026-04-27T11:17:00Z</time></trkpt><trkpt lat="33.11975900357064" lon="-5.030044365730296"><ele>1960.5</ele><time>2026-04-27T11:17:01Z</time></trkpt><trkpt lat="33.120038328374505" lon="-5.0300109069123415"><ele>1959.0</ele><time>2026-04-27T11:17:02Z</time></trkpt><trkpt lat="33.120319131608085" lon="-5.029978856610389"><ele>1958.5</ele><time>2026-04-27T11:17:03Z</time></trkpt><trkpt lat="33.12060030346542" lon="-5.029962378122173"><ele>1958.0</ele><time>2026-04-27T11:17:04Z</time></trkpt><trkpt lat="33.12088600278411" lon="-5.029967536027936"><ele>1955.5</ele><time>2026-04-27T11:17:05Z</time></trkpt><trkpt lat="33.12117905760356" lon="-5.030004240595971"><ele>1953.0</ele><time>2026-04-27T11:17:06Z</time></trkpt><trkpt lat="33.12148683227771" lon="-5.030082315126491"><ele>1951.0</ele><time>2026-04-27T11:17:07Z</time></trkpt><trkpt lat="33.121812623999546" lon="-5.030210423971075"><ele>1949.0</ele><time>2026-04-27T11:17:08Z</time></trkpt><trkpt lat="33.12214170480238" lon="-5.030376156828073"><ele>1948.5</ele><time>2026-04-27T11:17:09Z</time></trkpt><trkpt lat="33.12247424946304" lon="-5.030590661947696"><ele>1948.0</ele><time>2026-04-27T11:17:10Z</time></trkpt><trkpt lat="33.122815667162754" lon="-5.030832406843488"><ele>1948.0</ele><time>2026-04-27T11:17:11Z</time></trkpt><trkpt lat="33.12316841544654" lon="-5.03107159129954"><ele>1948.0</ele><time>2026-04-27T11:17:12Z</time></trkpt><trkpt lat="33.12352913478915" lon="-5.031313290289146"><ele>1949.0</ele><time>2026-04-27T11:17:13Z</time></trkpt><trkpt lat="33.12387091599689" lon="-5.031538471253119"><ele>1950.0</ele><time>2026-04-27T11:17:14Z</time></trkpt><trkpt lat="33.12418972972184" lon="-5.031752911023567"><ele>1950.5</ele><time>2026-04-27T11:17:15Z</time></trkpt><trkpt lat="33.12449430244864" lon="-5.031958959817112"><ele>1951.0</ele><time>2026-04-27T11:17:16Z</time></trkpt><trkpt lat="33.12478298297446" lon="-5.032156235618877"><ele>1951.0</ele><time>2026-04-27T11:17:17Z</time></trkpt><trkpt lat="33.12506051860503" lon="-5.032343368956048"><ele>1951.0</ele><time>2026-04-27T11:17:18Z</time></trkpt><trkpt lat="33.12532496175417" lon="-5.032521589560849"><ele>1951.0</ele><time>2026-04-27T11:17:19Z</time></trkpt><trkpt lat="33.125577913420656" lon="-5.032691107022382"><ele>1951.0</ele><time>2026-04-27T11:17:20Z</time></trkpt><trkpt lat="33.12582337681519" lon="-5.032853962848692"><ele>1951.0</ele><time>2026-04-27T11:17:21Z</time></trkpt><trkpt lat="33.12606763701162" lon="-5.033019197967855"><ele>1951.0</ele><time>2026-04-27T11:17:22Z</time></trkpt><trkpt lat="33.12631568852894" lon="-5.033187464410717"><ele>1948.0</ele><time>2026-04-27T11:17:23Z</time></trkpt><trkpt lat="33.12657006867744" lon="-5.033357543752848"><ele>1945.0</ele><time>2026-04-27T11:17:24Z</time></trkpt><trkpt lat="33.12682751679601" lon="-5.033530278517711"><ele>1945.0</ele><time>2026-04-27T11:17:25Z</time></trkpt><trkpt lat="33.1270838238204" lon="-5.033705927318369"><ele>1945.0</ele><time>2026-04-27T11:17:26Z</time></trkpt><trkpt lat="33.12734116952477" lon="-5.0338814570930035"><ele>1943.5</ele><time>2026-04-27T11:17:27Z</time></trkpt><trkpt lat="33.12759731937729" lon="-5.034053913341641"><ele>1942.0</ele><time>2026-04-27T11:17:28Z</time></trkpt><trkpt lat="33.12784216150197" lon="-5.034218819770018"><ele>1942.0</ele><time>2026-04-27T11:17:29Z</time></trkpt><trkpt lat="33.12806782737014" lon="-5.034371097996511"><ele>1942.0</ele><time>2026-04-27T11:17:30Z</time></trkpt><trkpt lat="33.12827566589227" lon="-5.034503353590622"><ele>1943.5</ele><time>2026-04-27T11:17:31Z</time></trkpt><trkpt lat="33.128488651794" lon="-5.034611163376581"><ele>1945.0</ele><time>2026-04-27T11:17:31.999Z</time></trkpt><trkpt lat="33.12871498537139" lon="-5.034690364314922"><ele>1945.0</ele><time>2026-04-27T11:17:32.999Z</time></trkpt><trkpt lat="33.12895963985915" lon="-5.0347385231708985"><ele>1945.0</ele><time>2026-04-27T11:17:33.999Z</time></trkpt><trkpt lat="33.12921595921557" lon="-5.0347619305403475"><ele>1948.5</ele><time>2026-04-27T11:17:34.999Z</time></trkpt><trkpt lat="33.12947934613911" lon="-5.034773515898539"><ele>1952.0</ele><time>2026-04-27T11:17:35.999Z</time></trkpt><trkpt lat="33.12973276383799" lon="-5.034790249938214"><ele>1950.0</ele><time>2026-04-27T11:17:36.999Z</time></trkpt><trkpt lat="33.12997086742616" lon="-5.034812859170412"><ele>1948.0</ele><time>2026-04-27T11:17:37.999Z</time></trkpt><trkpt lat="33.1301946082214" lon="-5.0348398047471035"><ele>1948.0</ele><time>2026-04-27T11:17:38.999Z</time></trkpt><trkpt lat="33.13040395221739" lon="-5.034885776358637"><ele>1948.0</ele><time>2026-04-27T11:17:39.999Z</time></trkpt><trkpt lat="33.13060343665943" lon="-5.03495731311596"><ele>1948.0</ele><time>2026-04-27T11:17:40.999Z</time></trkpt><trkpt lat="33.13080159627662" lon="-5.035059972199114"><ele>1944.5</ele><time>2026-04-27T11:17:41.999Z</time></trkpt><trkpt lat="33.13099843435436" lon="-5.035200784146468"><ele>1941.0</ele><time>2026-04-27T11:17:42.999Z</time></trkpt><trkpt lat="33.13118748509455" lon="-5.035380368883313"><ele>1941.0</ele><time>2026-04-27T11:17:43.999Z</time></trkpt><trkpt lat="33.131367366624985" lon="-5.035588395191105"><ele>1941.0</ele><time>2026-04-27T11:17:44.999Z</time></trkpt><trkpt lat="33.131537634056265" lon="-5.035826940835754"><ele>1941.0</ele><time>2026-04-27T11:17:45.999Z</time></trkpt><trkpt lat="33.131727993068914" lon="-5.036047662236807"><ele>1941.0</ele><time>2026-04-27T11:17:46.999Z</time></trkpt><trkpt lat="33.13190131251658" lon="-5.036277415039284"><ele>1941.0</ele><time>2026-04-27T11:17:47.999Z</time></trkpt><trkpt lat="33.13207194665407" lon="-5.036504574312158"><ele>1941.0</ele><time>2026-04-27T11:17:48.999Z</time></trkpt><trkpt lat="33.13224239539939" lon="-5.036731707226593"><ele>1940.0</ele><time>2026-04-27T11:17:49.999Z</time></trkpt><trkpt lat="33.13241275590486" lon="-5.036973689363973"><ele>1939.0</ele><time>2026-04-27T11:17:50.999Z</time></trkpt><trkpt lat="33.13257906717777" lon="-5.03723105721414"><ele>1938.5</ele><time>2026-04-27T11:17:51.999Z</time></trkpt><trkpt lat="33.13274496103641" lon="-5.037501096113263"><ele>1938.0</ele><time>2026-04-27T11:17:52.999Z</time></trkpt><trkpt lat="33.13291033032611" lon="-5.037783586676953"><ele>1938.0</ele><time>2026-04-27T11:17:53.999Z</time></trkpt><trkpt lat="33.13305699196741" lon="-5.0380929182274725"><ele>1938.0</ele><time>2026-04-27T11:17:54.999Z</time></trkpt><trkpt lat="33.13322542111009" lon="-5.038389023909275"><ele>1937.5</ele><time>2026-04-27T11:17:55.999Z</time></trkpt><trkpt lat="33.13339315419065" lon="-5.038686802486768"><ele>1937.0</ele><time>2026-04-27T11:17:56.999Z</time></trkpt><trkpt lat="33.13356442704387" lon="-5.03898728710183"><ele>1936.5</ele><time>2026-04-27T11:17:57.999Z</time></trkpt><trkpt lat="33.133741278449655" lon="-5.039292835740645"><ele>1936.0</ele><time>2026-04-27T11:17:58.999Z</time></trkpt><trkpt lat="33.13392076711007" lon="-5.039599817172724"><ele>1935.5</ele><time>2026-04-27T11:17:59.999Z</time></trkpt><trkpt lat="33.13410278660813" lon="-5.039909590615841"><ele>1935.0</ele><time>2026-04-27T11:18:00.999Z</time></trkpt><trkpt lat="33.1342800922169" lon="-5.040214768981204"><ele>1934.0</ele><time>2026-04-27T11:18:01.999Z</time></trkpt><trkpt lat="33.134454662423806" lon="-5.040516565853485"><ele>1933.0</ele><time>2026-04-27T11:18:02.999Z</time></trkpt><trkpt lat="33.13462605330028" lon="-5.040814422399557"><ele>1933.0</ele><time>2026-04-27T11:18:03.999Z</time></trkpt><trkpt lat="33.13479633337938" lon="-5.041111909397424"><ele>1933.0</ele><time>2026-04-27T11:18:04.999Z</time></trkpt><trkpt lat="33.134967907265754" lon="-5.041413000269685"><ele>1933.5</ele><time>2026-04-27T11:18:05.999Z</time></trkpt><trkpt lat="33.13514158535936" lon="-5.041717129477167"><ele>1934.0</ele><time>2026-04-27T11:18:06.999Z</time></trkpt><trkpt lat="33.13531689818684" lon="-5.042024384671473"><ele>1934.0</ele><time>2026-04-27T11:18:07.999Z</time></trkpt><trkpt lat="33.13549424557876" lon="-5.042332216268264"><ele>1934.0</ele><time>2026-04-27T11:18:08.999Z</time></trkpt><trkpt lat="33.13567265734417" lon="-5.042640176473269"><ele>1934.0</ele><time>2026-04-27T11:18:09.999Z</time></trkpt><trkpt lat="33.1358510617485" lon="-5.04294958078737"><ele>1934.0</ele><time>2026-04-27T11:18:10.999Z</time></trkpt><trkpt lat="33.136030131677494" lon="-5.043262922879908"><ele>1934.0</ele><time>2026-04-27T11:18:11.999Z</time></trkpt><trkpt lat="33.13621219225825" lon="-5.043584274760379"><ele>1934.0</ele><time>2026-04-27T11:18:12.999Z</time></trkpt><trkpt lat="33.136397930172706" lon="-5.043911522600697"><ele>1932.5</ele><time>2026-04-27T11:18:13.999Z</time></trkpt><trkpt lat="33.13658617846392" lon="-5.044241012096527"><ele>1931.0</ele><time>2026-04-27T11:18:14.999Z</time></trkpt><trkpt lat="33.136774273763585" lon="-5.044571392311563"><ele>1931.0</ele><time>2026-04-27T11:18:15.999Z</time></trkpt><trkpt lat="33.136961628951674" lon="-5.0449015279924305"><ele>1931.0</ele><time>2026-04-27T11:18:17Z</time></trkpt><trkpt lat="33.137159030387636" lon="-5.045211676503116"><ele>1932.0</ele><time>2026-04-27T11:18:18Z</time></trkpt><trkpt lat="33.13732376237381" lon="-5.045535461101138"><ele>1933.0</ele><time>2026-04-27T11:18:19Z</time></trkpt><trkpt lat="33.137503007583035" lon="-5.045842625538015"><ele>1933.0</ele><time>2026-04-27T11:18:20Z</time></trkpt><trkpt lat="33.13768180107826" lon="-5.046148751243759"><ele>1933.0</ele><time>2026-04-27T11:18:21Z</time></trkpt><trkpt lat="33.13786677023914" lon="-5.0464493769320375"><ele>1933.0</ele><time>2026-04-27T11:18:22Z</time></trkpt><trkpt lat="33.13805827646045" lon="-5.0467482061458675"><ele>1933.0</ele><time>2026-04-27T11:18:23Z</time></trkpt><trkpt lat="33.13825816717962" lon="-5.047047347378914"><ele>1932.5</ele><time>2026-04-27T11:18:24Z</time></trkpt><trkpt lat="33.138472784425836" lon="-5.047341584315184"><ele>1932.0</ele><time>2026-04-27T11:18:25Z</time></trkpt><trkpt lat="33.138698964808334" lon="-5.047630609279673"><ele>1932.0</ele><time>2026-04-27T11:18:26Z</time></trkpt><trkpt lat="33.13893236492934" lon="-5.0479169195003655"><ele>1932.0</ele><time>2026-04-27T11:18:27Z</time></trkpt><trkpt lat="33.139173270369014" lon="-5.048202702121322"><ele>1932.0</ele><time>2026-04-27T11:18:28Z</time></trkpt><trkpt lat="33.13941626650768" lon="-5.048488568776398"><ele>1932.0</ele><time>2026-04-27T11:18:29Z</time></trkpt><trkpt lat="33.13965869846756" lon="-5.048777907807183"><ele>1932.0</ele><time>2026-04-27T11:18:30Z</time></trkpt><trkpt lat="33.13990312031344" lon="-5.0490698269579"><ele>1932.0</ele><time>2026-04-27T11:18:31Z</time></trkpt><trkpt lat="33.140149813830625" lon="-5.049364456110361"><ele>1931.0</ele><time>2026-04-27T11:18:32Z</time></trkpt><trkpt lat="33.14039882762377" lon="-5.049659627398184"><ele>1930.0</ele><time>2026-04-27T11:18:33Z</time></trkpt><trkpt lat="33.140646588376605" lon="-5.049955639676834"><ele>1930.5</ele><time>2026-04-27T11:18:34Z</time></trkpt><trkpt lat="33.14089580737297" lon="-5.050253090051293"><ele>1931.0</ele><time>2026-04-27T11:18:35Z</time></trkpt><trkpt lat="33.141145230989515" lon="-5.050552691788682"><ele>1930.0</ele><time>2026-04-27T11:18:36Z</time></trkpt><trkpt lat="33.14140328388948" lon="-5.050833704235671"><ele>1929.0</ele><time>2026-04-27T11:18:37Z</time></trkpt><trkpt lat="33.14164629316943" lon="-5.05112140356136"><ele>1929.0</ele><time>2026-04-27T11:18:38Z</time></trkpt><trkpt lat="33.14187561575656" lon="-5.0514199969717355"><ele>1929.0</ele><time>2026-04-27T11:18:39Z</time></trkpt><trkpt lat="33.14211374742386" lon="-5.051702761917953"><ele>1928.0</ele><time>2026-04-27T11:18:40Z</time></trkpt><trkpt lat="33.14234428787469" lon="-5.051978447512479"><ele>1927.0</ele><time>2026-04-27T11:18:41Z</time></trkpt><trkpt lat="33.14256527298083" lon="-5.052243386213307"><ele>1927.0</ele><time>2026-04-27T11:18:42Z</time></trkpt><trkpt lat="33.14277740978625" lon="-5.052495116441061"><ele>1927.0</ele><time>2026-04-27T11:18:43Z</time></trkpt><trkpt lat="33.1429832473547" lon="-5.052738299631648"><ele>1927.0</ele><time>2026-04-27T11:18:44Z</time></trkpt><trkpt lat="33.1431812354171" lon="-5.052972553602447"><ele>1927.0</ele><time>2026-04-27T11:18:45Z</time></trkpt><trkpt lat="33.143369062145425" lon="-5.053195696234937"><ele>1926.5</ele><time>2026-04-27T11:18:46Z</time></trkpt><trkpt lat="33.14354872659263" lon="-5.053409636616421"><ele>1926.0</ele><time>2026-04-27T11:18:47Z</time></trkpt><trkpt lat="33.14373253681013" lon="-5.053603392396276"><ele>1926.0</ele><time>2026-04-27T11:18:48Z</time></trkpt><trkpt lat="33.14393892209753" lon="-5.053775317730925"><ele>1926.0</ele><time>2026-04-27T11:18:49Z</time></trkpt><trkpt lat="33.14415030022657" lon="-5.053903528352497"><ele>1926.3333333333335</ele><time>2026-04-27T11:18:50Z</time></trkpt><trkpt lat="33.144345387513674" lon="-5.053993937041277"><ele>1926.6666666666667</ele><time>2026-04-27T11:18:51Z</time></trkpt><trkpt lat="33.14453601202849" lon="-5.054053529833319"><ele>1927.0</ele><time>2026-04-27T11:18:52Z</time></trkpt><trkpt lat="33.144714103281046" lon="-5.054099130717219"><ele>1926.0</ele><time>2026-04-27T11:18:53Z</time></trkpt><trkpt lat="33.1448845329838" lon="-5.05415518544361"><ele>1925.0</ele><time>2026-04-27T11:18:54Z</time></trkpt><trkpt lat="33.14505720880729" lon="-5.0542118629402"><ele>1924.0</ele><time>2026-04-27T11:18:55Z</time></trkpt><trkpt lat="33.14523984732652" lon="-5.0542687921048435"><ele>1924.0</ele><time>2026-04-27T11:18:56Z</time></trkpt><trkpt lat="33.14544077363383" lon="-5.054334237957786"><ele>1924.0</ele><time>2026-04-27T11:18:57Z</time></trkpt><trkpt lat="33.145650225341065" lon="-5.054407795075956"><ele>1924.0</ele><time>2026-04-27T11:18:58Z</time></trkpt><trkpt lat="33.145870829192546" lon="-5.054482231180427"><ele>1923.5</ele><time>2026-04-27T11:18:59Z</time></trkpt><trkpt lat="33.14610323755846" lon="-5.0545585595880995"><ele>1923.0</ele><time>2026-04-27T11:19:00Z</time></trkpt><trkpt lat="33.146349848344215" lon="-5.054637557628516"><ele>1923.5</ele><time>2026-04-27T11:19:01Z</time></trkpt><trkpt lat="33.14660318481298" lon="-5.054717861802228"><ele>1924.0</ele><time>2026-04-27T11:19:02Z</time></trkpt><trkpt lat="33.14686699408107" lon="-5.05480020174307"><ele>1924.0</ele><time>2026-04-27T11:19:03Z</time></trkpt><trkpt lat="33.147137590977216" lon="-5.054884422052586"><ele>1924.0</ele><time>2026-04-27T11:19:04Z</time></trkpt><trkpt lat="33.147407238620445" lon="-5.054970440217795"><ele>1924.0</ele><time>2026-04-27T11:19:05Z</time></trkpt><trkpt lat="33.14767007534397" lon="-5.055054974903108"><ele>1924.0</ele><time>2026-04-27T11:19:06Z</time></trkpt><trkpt lat="33.14792045899531" lon="-5.055134943833146"><ele>1924.0</ele><time>2026-04-27T11:19:07Z</time></trkpt><trkpt lat="33.148156290031274" lon="-5.055207996492669"><ele>1924.0</ele><time>2026-04-27T11:19:08Z</time></trkpt><trkpt lat="33.14838085178598" lon="-5.055279592760843"><ele>1924.0</ele><time>2026-04-27T11:19:09Z</time></trkpt><trkpt lat="33.14859362739866" lon="-5.055353854942017"><ele>1924.0</ele><time>2026-04-27T11:19:10Z</time></trkpt><trkpt lat="33.14879468018302" lon="-5.055443884745678"><ele>1924.0</ele><time>2026-04-27T11:19:11Z</time></trkpt><trkpt lat="33.14898715576101" lon="-5.055559194723654"><ele>1923.3333333333335</ele><time>2026-04-27T11:19:12Z</time></trkpt><trkpt lat="33.14917233783835" lon="-5.0556979677261475"><ele>1922.6666666666665</ele><time>2026-04-27T11:19:13Z</time></trkpt><trkpt lat="33.149344047921126" lon="-5.055868259071178"><ele>1922.0</ele><time>2026-04-27T11:19:14Z</time></trkpt><trkpt lat="33.149500995376044" lon="-5.056061083014213"><ele>1921.5</ele><time>2026-04-27T11:19:15Z</time></trkpt><trkpt lat="33.14964107265068" lon="-5.056282439502376"><ele>1921.0</ele><time>2026-04-27T11:19:16Z</time></trkpt><trkpt lat="33.149760653847615" lon="-5.05653108912581"><ele>1919.5</ele><time>2026-04-27T11:19:17Z</time></trkpt><trkpt lat="33.14985578822516" lon="-5.056807048213287"><ele>1918.0</ele><time>2026-04-27T11:19:18Z</time></trkpt><trkpt lat="33.14992438050775" lon="-5.057108427233322"><ele>1917.5</ele><time>2026-04-27T11:19:19Z</time></trkpt><trkpt lat="33.149969194177565" lon="-5.057436647663607"><ele>1917.0</ele><time>2026-04-27T11:19:20Z</time></trkpt><trkpt lat="33.15001094793525" lon="-5.05777631733005"><ele>1918.0</ele><time>2026-04-27T11:19:21Z</time></trkpt><trkpt lat="33.150066640640595" lon="-5.058118880267849"><ele>1919.0</ele><time>2026-04-27T11:19:22Z</time></trkpt><trkpt lat="33.15013982879024" lon="-5.058460063147149"><ele>1919.0</ele><time>2026-04-27T11:19:23Z</time></trkpt><trkpt lat="33.15022674636212" lon="-5.0587980152936955"><ele>1919.0</ele><time>2026-04-27T11:19:24Z</time></trkpt><trkpt lat="33.15032476363719" lon="-5.059132790103954"><ele>1920.0</ele><time>2026-04-27T11:19:25Z</time></trkpt><trkpt lat="33.15043289118492" lon="-5.0594675739887585"><ele>1921.0</ele><time>2026-04-27T11:19:26Z</time></trkpt><trkpt lat="33.150551916242215" lon="-5.059803510644759"><ele>1924.5</ele><time>2026-04-27T11:19:27Z</time></trkpt><trkpt lat="33.150683298636075" lon="-5.0601333912145465"><ele>1928.0</ele><time>2026-04-27T11:19:28Z</time></trkpt><trkpt lat="33.150820104546085" lon="-5.0604524573558916"><ele>1930.0</ele><time>2026-04-27T11:19:29Z</time></trkpt><trkpt lat="33.150957492228734" lon="-5.060766743496963"><ele>1932.0</ele><time>2026-04-27T11:19:30Z</time></trkpt><trkpt lat="33.15109455799953" lon="-5.061077324126688"><ele>1926.0</ele><time>2026-04-27T11:19:31Z</time></trkpt><trkpt lat="33.15122903975866" lon="-5.061385755924418"><ele>1920.0</ele><time>2026-04-27T11:19:32Z</time></trkpt><trkpt lat="33.1513636210058" lon="-5.06169190777521"><ele>1917.5</ele><time>2026-04-27T11:19:33Z</time></trkpt><trkpt lat="33.151502370467114" lon="-5.061990781618517"><ele>1915.0</ele><time>2026-04-27T11:19:33.999Z</time></trkpt><trkpt lat="33.15165022493252" lon="-5.062278115084568"><ele>1915.0</ele><time>2026-04-27T11:19:34.999Z</time></trkpt><trkpt lat="33.151802358115404" lon="-5.06255203022068"><ele>1915.0</ele><time>2026-04-27T11:19:35.999Z</time></trkpt><trkpt lat="33.15194304154925" lon="-5.062819128069676"><ele>1915.0</ele><time>2026-04-27T11:19:36.999Z</time></trkpt><trkpt lat="33.15206308845489" lon="-5.06308945568218"><ele>1915.0</ele><time>2026-04-27T11:19:37.999Z</time></trkpt><trkpt lat="33.152166818515276" lon="-5.063375741093145"><ele>1917.5</ele><time>2026-04-27T11:19:38.999Z</time></trkpt><trkpt lat="33.15225085806545" lon="-5.063682066001935"><ele>1920.0</ele><time>2026-04-27T11:19:39.999Z</time></trkpt><trkpt lat="33.15231292032462" lon="-5.063999147312461"><ele>1923.5</ele><time>2026-04-27T11:19:40.999Z</time></trkpt><trkpt lat="33.15236454560668" lon="-5.064313362118676"><ele>1927.0</ele><time>2026-04-27T11:19:41.999Z</time></trkpt><trkpt lat="33.15241372644155" lon="-5.064615455068406"><ele>1927.0</ele><time>2026-04-27T11:19:42.999Z</time></trkpt><trkpt lat="33.152460468532496" lon="-5.0649031501324195"><ele>1927.0</ele><time>2026-04-27T11:19:43.999Z</time></trkpt><trkpt lat="33.15250666928651" lon="-5.065177176812963"><ele>1926.0</ele><time>2026-04-27T11:19:44.999Z</time></trkpt><trkpt lat="33.15254964372984" lon="-5.0654425447606"><ele>1925.0</ele><time>2026-04-27T11:19:45.999Z</time></trkpt><trkpt lat="33.15259034860934" lon="-5.065700701525996"><ele>1924.0</ele><time>2026-04-27T11:19:46.999Z</time></trkpt><trkpt lat="33.15263100952317" lon="-5.065950215712824"><ele>1922.3333333333335</ele><time>2026-04-27T11:19:47.999Z</time></trkpt><trkpt lat="33.152672613685034" lon="-5.066191092902348"><ele>1920.6666666666665</ele><time>2026-04-27T11:19:48.999Z</time></trkpt><trkpt lat="33.15272260144832" lon="-5.0664259756851555"><ele>1919.0</ele><time>2026-04-27T11:19:49.999Z</time></trkpt><trkpt lat="33.152790424370615" lon="-5.0666523375088115"><ele>1917.0</ele><time>2026-04-27T11:19:50.999Z</time></trkpt><trkpt lat="33.152883531798764" lon="-5.066865450351106"><ele>1915.0</ele><time>2026-04-27T11:19:51.999Z</time></trkpt><trkpt lat="33.15299282499985" lon="-5.067063528811938"><ele>1913.0</ele><time>2026-04-27T11:19:52.999Z</time></trkpt><trkpt lat="33.153112733686555" lon="-5.0672481303949155"><ele>1914.0</ele><time>2026-04-27T11:19:53.999Z</time></trkpt><trkpt lat="33.15324671020514" lon="-5.067417676176418"><ele>1915.0</ele><time>2026-04-27T11:19:54.999Z</time></trkpt><trkpt lat="33.15339075737627" lon="-5.067570823830385"><ele>1916.0</ele><time>2026-04-27T11:19:55.999Z</time></trkpt><trkpt lat="33.15355113549032" lon="-5.067707605142421"><ele>1916.0</ele><time>2026-04-27T11:19:56.999Z</time></trkpt><trkpt lat="33.15372250035804" lon="-5.067833476245851"><ele>1916.0</ele><time>2026-04-27T11:19:57.999Z</time></trkpt><trkpt lat="33.15390158273579" lon="-5.067943936380887"><ele>1916.0</ele><time>2026-04-27T11:19:58.999Z</time></trkpt><trkpt lat="33.15409397213913" lon="-5.068030431303022"><ele>1919.6666666666665</ele><time>2026-04-27T11:19:59.999Z</time></trkpt><trkpt lat="33.154298037119695" lon="-5.068091120480973"><ele>1923.3333333333335</ele><time>2026-04-27T11:20:00.999Z</time></trkpt><trkpt lat="33.154510366751595" lon="-5.068124371938776"><ele>1927.0</ele><time>2026-04-27T11:20:01.999Z</time></trkpt><trkpt lat="33.15472448122979" lon="-5.06813222193776"><ele>1923.3333333333335</ele><time>2026-04-27T11:20:02.999Z</time></trkpt><trkpt lat="33.15493726112182" lon="-5.068117831512214"><ele>1919.6666666666665</ele><time>2026-04-27T11:20:03.999Z</time></trkpt><trkpt lat="33.15514758436545" lon="-5.068078248693904"><ele>1916.0</ele><time>2026-04-27T11:20:04.999Z</time></trkpt><trkpt lat="33.155362954809014" lon="-5.068015132188382"><ele>1916.0</ele><time>2026-04-27T11:20:05.999Z</time></trkpt><trkpt lat="33.15558342708876" lon="-5.067924881615884"><ele>1916.0</ele><time>2026-04-27T11:20:06.999Z</time></trkpt><trkpt lat="33.15580594687487" lon="-5.06782117527753"><ele>1911.0</ele><time>2026-04-27T11:20:07.999Z</time></trkpt><trkpt lat="33.15604036168746" lon="-5.067712228159166"><ele>1906.0</ele><time>2026-04-27T11:20:08.999Z</time></trkpt><trkpt lat="33.15628677854126" lon="-5.067593444597636"><ele>1905.5</ele><time>2026-04-27T11:20:09.999Z</time></trkpt><trkpt lat="33.156539810194644" lon="-5.067467996412956"><ele>1905.0</ele><time>2026-04-27T11:20:10.999Z</time></trkpt><trkpt lat="33.156800410146104" lon="-5.067335215419404"><ele>1905.0</ele><time>2026-04-27T11:20:11.999Z</time></trkpt><trkpt lat="33.157061565565925" lon="-5.067201357326833"><ele>1905.0</ele><time>2026-04-27T11:20:12.999Z</time></trkpt><trkpt lat="33.157322586040614" lon="-5.067073502640108"><ele>1905.0</ele><time>2026-04-27T11:20:13.999Z</time></trkpt><trkpt lat="33.15758605945087" lon="-5.066945388871431"><ele>1905.0</ele><time>2026-04-27T11:20:14.999Z</time></trkpt><trkpt lat="33.15785477157307" lon="-5.0668157495115755"><ele>1905.0</ele><time>2026-04-27T11:20:15.999Z</time></trkpt><trkpt lat="33.15812369496005" lon="-5.066689012433105"><ele>1905.0</ele><time>2026-04-27T11:20:16.999Z</time></trkpt><trkpt lat="33.15839074995501" lon="-5.066562232501039"><ele>1907.5</ele><time>2026-04-27T11:20:17.999Z</time></trkpt><trkpt lat="33.15865261698744" lon="-5.0664351527762435"><ele>1910.0</ele><time>2026-04-27T11:20:18.999Z</time></trkpt><trkpt lat="33.158914250613414" lon="-5.066309649755663"><ele>1910.0</ele><time>2026-04-27T11:20:19.999Z</time></trkpt><trkpt lat="33.15917295935092" lon="-5.0661896214671875"><ele>1910.0</ele><time>2026-04-27T11:20:20.999Z</time></trkpt><trkpt lat="33.15942145956211" lon="-5.066073782760781"><ele>1910.0</ele><time>2026-04-27T11:20:21.999Z</time></trkpt><trkpt lat="33.159659620766675" lon="-5.06596675411729"><ele>1910.0</ele><time>2026-04-27T11:20:23Z</time></trkpt><trkpt lat="33.15989304012156" lon="-5.065880763381506"><ele>1910.5</ele><time>2026-04-27T11:20:24Z</time></trkpt><trkpt lat="33.160136399884465" lon="-5.065828267452123"><ele>1911.0</ele><time>2026-04-27T11:20:25Z</time></trkpt><trkpt lat="33.16039765533889" lon="-5.0658174995303265"><ele>1911.0</ele><time>2026-04-27T11:20:26Z</time></trkpt><trkpt lat="33.16066949659496" lon="-5.065849472683518"><ele>1911.0</ele><time>2026-04-27T11:20:27Z</time></trkpt><trkpt lat="33.16094833371092" lon="-5.065914089078805"><ele>1910.5</ele><time>2026-04-27T11:20:28Z</time></trkpt><trkpt lat="33.16123685089933" lon="-5.065965976978233"><ele>1910.0</ele><time>2026-04-27T11:20:29Z</time></trkpt><trkpt lat="33.1615119734136" lon="-5.066050375017785"><ele>1911.0</ele><time>2026-04-27T11:20:30Z</time></trkpt><trkpt lat="33.1617811080689" lon="-5.066112782120181"><ele>1912.0</ele><time>2026-04-27T11:20:31Z</time></trkpt><trkpt lat="33.16204588416885" lon="-5.066173895102585"><ele>1912.0</ele><time>2026-04-27T11:20:32Z</time></trkpt><trkpt lat="33.162315150815665" lon="-5.066235192470034"><ele>1912.0</ele><time>2026-04-27T11:20:33Z</time></trkpt><trkpt lat="33.16258887256538" lon="-5.066295767794745"><ele>1913.5</ele><time>2026-04-27T11:20:34Z</time></trkpt><trkpt lat="33.162855855265065" lon="-5.066357225641936"><ele>1915.0</ele><time>2026-04-27T11:20:35Z</time></trkpt><trkpt lat="33.16311815999392" lon="-5.066397786642511"><ele>1916.0</ele><time>2026-04-27T11:20:36Z</time></trkpt><trkpt lat="33.16337433184804" lon="-5.0664499649086014"><ele>1917.0</ele><time>2026-04-27T11:20:37Z</time></trkpt><trkpt lat="33.16362493418821" lon="-5.066501538852091"><ele>1917.0</ele><time>2026-04-27T11:20:38Z</time></trkpt><trkpt lat="33.16386882553612" lon="-5.0665517316661"><ele>1917.0</ele><time>2026-04-27T11:20:39Z</time></trkpt><trkpt lat="33.16410377648948" lon="-5.066604340915412"><ele>1917.5</ele><time>2026-04-27T11:20:40Z</time></trkpt><trkpt lat="33.16433787971361" lon="-5.066600250036212"><ele>1918.0</ele><time>2026-04-27T11:20:41Z</time></trkpt><trkpt lat="33.16455647580468" lon="-5.066566921718446"><ele>1918.0</ele><time>2026-04-27T11:20:42Z</time></trkpt><trkpt lat="33.1647595879507" lon="-5.066509726778105"><ele>1918.0</ele><time>2026-04-27T11:20:43Z</time></trkpt><trkpt lat="33.16495526093989" lon="-5.0664387332220215"><ele>1918.0</ele><time>2026-04-27T11:20:44Z</time></trkpt><trkpt lat="33.165142077698164" lon="-5.066329764581711"><ele>1915.5</ele><time>2026-04-27T11:20:45Z</time></trkpt><trkpt lat="33.16534917840015" lon="-5.066220661991643"><ele>1913.0</ele><time>2026-04-27T11:20:46Z</time></trkpt><trkpt lat="33.165569990759266" lon="-5.06611679247565"><ele>1911.0</ele><time>2026-04-27T11:20:47Z</time></trkpt><trkpt lat="33.16578968218909" lon="-5.065990462919089"><ele>1909.0</ele><time>2026-04-27T11:20:48Z</time></trkpt><trkpt lat="33.166006862504666" lon="-5.065866967244854"><ele>1912.5</ele><time>2026-04-27T11:20:49Z</time></trkpt><trkpt lat="33.16622914968287" lon="-5.065739327904319"><ele>1916.0</ele><time>2026-04-27T11:20:50Z</time></trkpt><trkpt lat="33.166461803563024" lon="-5.065606960551962"><ele>1913.0</ele><time>2026-04-27T11:20:51Z</time></trkpt><trkpt lat="33.166702745164486" lon="-5.0654714424081"><ele>1910.0</ele><time>2026-04-27T11:20:52Z</time></trkpt><trkpt lat="33.16695137085899" lon="-5.065331137622546"><ele>1910.0</ele><time>2026-04-27T11:20:53Z</time></trkpt><trkpt lat="33.167211277842114" lon="-5.0651855569810165"><ele>1910.0</ele><time>2026-04-27T11:20:54Z</time></trkpt><trkpt lat="33.16747883119721" lon="-5.065035763912394"><ele>1912.5</ele><time>2026-04-27T11:20:55Z</time></trkpt><trkpt lat="33.16774997924257" lon="-5.064885395134007"><ele>1915.0</ele><time>2026-04-27T11:20:56Z</time></trkpt><trkpt lat="33.16802714980761" lon="-5.064732689202634"><ele>1910.0</ele><time>2026-04-27T11:20:57Z</time></trkpt><trkpt lat="33.1683109286959" lon="-5.064577083690122"><ele>1905.0</ele><time>2026-04-27T11:20:58Z</time></trkpt><trkpt lat="33.16859776759629" lon="-5.064419341954131"><ele>1905.0</ele><time>2026-04-27T11:20:59Z</time></trkpt><trkpt lat="33.16888724258397" lon="-5.064259202923628"><ele>1905.0</ele><time>2026-04-27T11:21:00Z</time></trkpt><trkpt lat="33.16917823490353" lon="-5.06409753075077"><ele>1905.5</ele><time>2026-04-27T11:21:01Z</time></trkpt><trkpt lat="33.169472321128275" lon="-5.063932103103816"><ele>1906.0</ele><time>2026-04-27T11:21:02Z</time></trkpt><trkpt lat="33.16976636209475" lon="-5.063765602640955"><ele>1900.0</ele><time>2026-04-27T11:21:03Z</time></trkpt><trkpt lat="33.170061808328704" lon="-5.063597978832"><ele>1894.0</ele><time>2026-04-27T11:21:04Z</time></trkpt><trkpt lat="33.17035786210214" lon="-5.063428863307916"><ele>1895.5</ele><time>2026-04-27T11:21:05Z</time></trkpt><trkpt lat="33.17065511161473" lon="-5.063260723798651"><ele>1897.0</ele><time>2026-04-27T11:21:06Z</time></trkpt><trkpt lat="33.170949256130555" lon="-5.063098255432224"><ele>1897.0</ele><time>2026-04-27T11:21:07Z</time></trkpt><trkpt lat="33.17123389912343" lon="-5.062938431845673"><ele>1897.0</ele><time>2026-04-27T11:21:08Z</time></trkpt><trkpt lat="33.171508529960214" lon="-5.062780017093777"><ele>1897.0</ele><time>2026-04-27T11:21:09Z</time></trkpt><trkpt lat="33.17176976294539" lon="-5.062630195196164"><ele>1897.0</ele><time>2026-04-27T11:21:10Z</time></trkpt><trkpt lat="33.17202150214688" lon="-5.062488807928011"><ele>1898.5</ele><time>2026-04-27T11:21:11Z</time></trkpt><trkpt lat="33.17225681593582" lon="-5.062353789092399"><ele>1900.0</ele><time>2026-04-27T11:21:12Z</time></trkpt><trkpt lat="33.17248082186077" lon="-5.062223831830077"><ele>1902.5</ele><time>2026-04-27T11:21:13Z</time></trkpt><trkpt lat="33.17270101368022" lon="-5.062098378539018"><ele>1905.0</ele><time>2026-04-27T11:21:14Z</time></trkpt><trkpt lat="33.172923014432044" lon="-5.061975842532185"><ele>1905.0</ele><time>2026-04-27T11:21:15Z</time></trkpt><trkpt lat="33.17314792356502" lon="-5.061863518327115"><ele>1905.0</ele><time>2026-04-27T11:21:16Z</time></trkpt><trkpt lat="33.173377825351594" lon="-5.061772916624549"><ele>1906.0</ele><time>2026-04-27T11:21:17Z</time></trkpt><trkpt lat="33.17362201780328" lon="-5.061710989461924"><ele>1907.0</ele><time>2026-04-27T11:21:18Z</time></trkpt><trkpt lat="33.17387328348538" lon="-5.061679352758486"><ele>1909.5</ele><time>2026-04-27T11:21:19Z</time></trkpt><trkpt lat="33.17412997150464" lon="-5.061682322105125"><ele>1912.0</ele><time>2026-04-27T11:21:20Z</time></trkpt><trkpt lat="33.174392817890904" lon="-5.061693021224993"><ele>1912.0</ele><time>2026-04-27T11:21:21Z</time></trkpt><trkpt lat="33.17465895510227" lon="-5.061695626702306"><ele>1912.0</ele><time>2026-04-27T11:21:22Z</time></trkpt><trkpt lat="33.174927795688816" lon="-5.061695968290237"><ele>1911.0</ele><time>2026-04-27T11:21:23Z</time></trkpt><trkpt lat="33.17519680374727" lon="-5.061696233198356"><ele>1910.0</ele><time>2026-04-27T11:21:24Z</time></trkpt><trkpt lat="33.17547238632758" lon="-5.061700562503268"><ele>1909.0</ele><time>2026-04-27T11:21:25Z</time></trkpt><trkpt lat="33.1757524980387" lon="-5.061704994596865"><ele>1908.0</ele><time>2026-04-27T11:21:26Z</time></trkpt><trkpt lat="33.17603700454528" lon="-5.061704410102442"><ele>1908.0</ele><time>2026-04-27T11:21:27Z</time></trkpt><trkpt lat="33.17631774872699" lon="-5.061702497040944"><ele>1908.0</ele><time>2026-04-27T11:21:28Z</time></trkpt><trkpt lat="33.17659483619129" lon="-5.06169578363712"><ele>1907.5</ele><time>2026-04-27T11:21:29Z</time></trkpt><trkpt lat="33.176869512808175" lon="-5.061666635364773"><ele>1907.0</ele><time>2026-04-27T11:21:30Z</time></trkpt><trkpt lat="33.1771392563392" lon="-5.061606478611214"><ele>1906.5</ele><time>2026-04-27T11:21:31Z</time></trkpt><trkpt lat="33.17740001822517" lon="-5.06150759519964"><ele>1906.0</ele><time>2026-04-27T11:21:32Z</time></trkpt><trkpt lat="33.17765412780082" lon="-5.061385124487444"><ele>1906.0</ele><time>2026-04-27T11:21:33Z</time></trkpt><trkpt lat="33.17789905792152" lon="-5.061250975763286"><ele>1906.0</ele><time>2026-04-27T11:21:34Z</time></trkpt><trkpt lat="33.17813277198568" lon="-5.061115278818768"><ele>1905.5</ele><time>2026-04-27T11:21:34.999Z</time></trkpt><trkpt lat="33.178353816997266" lon="-5.0609818682519405"><ele>1905.0</ele><time>2026-04-27T11:21:35.999Z</time></trkpt><trkpt lat="33.17856842608207" lon="-5.060856666349144"><ele>1909.5</ele><time>2026-04-27T11:21:36.999Z</time></trkpt><trkpt lat="33.17877792023972" lon="-5.060746326944643"><ele>1914.0</ele><time>2026-04-27T11:21:37.999Z</time></trkpt><trkpt lat="33.17899151081343" lon="-5.060654193217186"><ele>1913.0</ele><time>2026-04-27T11:21:38.999Z</time></trkpt><trkpt lat="33.17921057769646" lon="-5.060586102181651"><ele>1912.0</ele><time>2026-04-27T11:21:39.999Z</time></trkpt><trkpt lat="33.17943910759249" lon="-5.060542630773416"><ele>1912.0</ele><time>2026-04-27T11:21:40.999Z</time></trkpt><trkpt lat="33.179676021381226" lon="-5.060525045156404"><ele>1912.0</ele><time>2026-04-27T11:21:41.999Z</time></trkpt><trkpt lat="33.17992273697151" lon="-5.06054708985593"><ele>1911.5</ele><time>2026-04-27T11:21:42.999Z</time></trkpt><trkpt lat="33.18018328339723" lon="-5.060603992930943"><ele>1911.0</ele><time>2026-04-27T11:21:43.999Z</time></trkpt><trkpt lat="33.18045192611396" lon="-5.060689105599533"><ele>1904.5</ele><time>2026-04-27T11:21:44.999Z</time></trkpt><trkpt lat="33.18072721229163" lon="-5.0607905917504885"><ele>1898.0</ele><time>2026-04-27T11:21:45.999Z</time></trkpt><trkpt lat="33.181012498511066" lon="-5.060894270923288"><ele>1898.0</ele><time>2026-04-27T11:21:46.999Z</time></trkpt><trkpt lat="33.18130538687695" lon="-5.0609954448699215"><ele>1898.0</ele><time>2026-04-27T11:21:47.999Z</time></trkpt><trkpt lat="33.181604949357954" lon="-5.061098175832484"><ele>1897.5</ele><time>2026-04-27T11:21:48.999Z</time></trkpt><trkpt lat="33.181911704234025" lon="-5.061202911413974"><ele>1897.0</ele><time>2026-04-27T11:21:49.999Z</time></trkpt><trkpt lat="33.18221964170924" lon="-5.061307351944734"><ele>1900.0</ele><time>2026-04-27T11:21:50.999Z</time></trkpt><trkpt lat="33.18253083493338" lon="-5.061412768819218"><ele>1903.0</ele><time>2026-04-27T11:21:51.999Z</time></trkpt><trkpt lat="33.182850629066664" lon="-5.061496973268207"><ele>1903.0</ele><time>2026-04-27T11:21:52.999Z</time></trkpt><trkpt lat="33.18315762631486" lon="-5.061601524248452"><ele>1903.0</ele><time>2026-04-27T11:21:53.999Z</time></trkpt><trkpt lat="33.18344720504677" lon="-5.061720265703196"><ele>1899.0</ele><time>2026-04-27T11:21:54.999Z</time></trkpt><trkpt lat="33.18372726046286" lon="-5.061814930239556"><ele>1895.0</ele><time>2026-04-27T11:21:55.999Z</time></trkpt><trkpt lat="33.1839971208475" lon="-5.061899512623239"><ele>1897.5</ele><time>2026-04-27T11:21:56.999Z</time></trkpt><trkpt lat="33.184267456758995" lon="-5.0619661234018345"><ele>1900.0</ele><time>2026-04-27T11:21:57.999Z</time></trkpt><trkpt lat="33.184551416751" lon="-5.0620189033143514"><ele>1900.0</ele><time>2026-04-27T11:21:58.999Z</time></trkpt><trkpt lat="33.1848414296685" lon="-5.062054770937202"><ele>1900.0</ele><time>2026-04-27T11:21:59.999Z</time></trkpt><trkpt lat="33.18512331562729" lon="-5.0620879123772"><ele>1902.0</ele><time>2026-04-27T11:22:00.999Z</time></trkpt><trkpt lat="33.18539628585081" lon="-5.062120966327292"><ele>1904.0</ele><time>2026-04-27T11:22:01.999Z</time></trkpt><trkpt lat="33.18566214230621" lon="-5.06215215180789"><ele>1905.0</ele><time>2026-04-27T11:22:02.999Z</time></trkpt><trkpt lat="33.185913113968574" lon="-5.062168512826292"><ele>1906.0</ele><time>2026-04-27T11:22:03.999Z</time></trkpt><trkpt lat="33.186155455627144" lon="-5.062162282241346"><ele>1906.0</ele><time>2026-04-27T11:22:04.999Z</time></trkpt><trkpt lat="33.186401241789085" lon="-5.062128320032246"><ele>1906.0</ele><time>2026-04-27T11:22:05.999Z</time></trkpt><trkpt lat="33.18665333666241" lon="-5.062068303203709"><ele>1902.0</ele><time>2026-04-27T11:22:06.999Z</time></trkpt><trkpt lat="33.186909042427864" lon="-5.062005430762161"><ele>1898.0</ele><time>2026-04-27T11:22:07.999Z</time></trkpt><trkpt lat="33.18716665257369" lon="-5.061945568915795"><ele>1896.5</ele><time>2026-04-27T11:22:08.999Z</time></trkpt><trkpt lat="33.18742403178521" lon="-5.061889343872608"><ele>1895.0</ele><time>2026-04-27T11:22:09.999Z</time></trkpt><trkpt lat="33.18767750567765" lon="-5.061837672796379"><ele>1895.0</ele><time>2026-04-27T11:22:10.999Z</time></trkpt><trkpt lat="33.187930733256756" lon="-5.061797168118725"><ele>1895.0</ele><time>2026-04-27T11:22:11.999Z</time></trkpt><trkpt lat="33.188189150505046" lon="-5.061773785606213"><ele>1894.0</ele><time>2026-04-27T11:22:12.999Z</time></trkpt><trkpt lat="33.188453838571036" lon="-5.061781704103913"><ele>1893.0</ele><time>2026-04-27T11:22:13.999Z</time></trkpt><trkpt lat="33.18872540116854" lon="-5.061808759757477"><ele>1893.0</ele><time>2026-04-27T11:22:14.999Z</time></trkpt><trkpt lat="33.18900148720257" lon="-5.061844245721373"><ele>1893.0</ele><time>2026-04-27T11:22:15.999Z</time></trkpt><trkpt lat="33.189279177642746" lon="-5.061848978416563"><ele>1891.0</ele><time>2026-04-27T11:22:16.999Z</time></trkpt><trkpt lat="33.18955248332819" lon="-5.061900504195298"><ele>1889.0</ele><time>2026-04-27T11:22:17.999Z</time></trkpt><trkpt lat="33.18982942186618" lon="-5.0619275039201135"><ele>1888.0</ele><time>2026-04-27T11:22:18.999Z</time></trkpt><trkpt lat="33.190105727053265" lon="-5.061957734703764"><ele>1887.0</ele><time>2026-04-27T11:22:19.999Z</time></trkpt><trkpt lat="33.190379693956366" lon="-5.0619897667917995"><ele>1887.0</ele><time>2026-04-27T11:22:20.999Z</time></trkpt><trkpt lat="33.19065230551961" lon="-5.062019689728635"><ele>1887.0</ele><time>2026-04-27T11:22:21.999Z</time></trkpt><trkpt lat="33.19092184469096" lon="-5.062047682508764"><ele>1886.5</ele><time>2026-04-27T11:22:22.999Z</time></trkpt><trkpt lat="33.19118706952454" lon="-5.062074688328879"><ele>1886.0</ele><time>2026-04-27T11:22:23.999Z</time></trkpt><trkpt lat="33.19144208189827" lon="-5.062102745106573"><ele>1882.5</ele><time>2026-04-27T11:22:24.999Z</time></trkpt><trkpt lat="33.19169248746809" lon="-5.062139173083147"><ele>1879.0</ele><time>2026-04-27T11:22:25.999Z</time></trkpt><trkpt lat="33.19193585487545" lon="-5.062195294269039"><ele>1879.0</ele><time>2026-04-27T11:22:26.999Z</time></trkpt><trkpt lat="33.19217829005473" lon="-5.062260177031836"><ele>1879.0</ele><time>2026-04-27T11:22:27.999Z</time></trkpt><trkpt lat="33.19240474480886" lon="-5.062384003022899"><ele>1875.5</ele><time>2026-04-27T11:22:29Z</time></trkpt><trkpt lat="33.192647466284136" lon="-5.062480825517657"><ele>1872.0</ele><time>2026-04-27T11:22:30Z</time></trkpt><trkpt lat="33.192882649612244" lon="-5.062607147496023"><ele>1872.0</ele><time>2026-04-27T11:22:31Z</time></trkpt><trkpt lat="33.19311657383494" lon="-5.062737816115694"><ele>1872.0</ele><time>2026-04-27T11:22:32Z</time></trkpt><trkpt lat="33.193343653073576" lon="-5.062872002778924"><ele>1874.0</ele><time>2026-04-27T11:22:33Z</time></trkpt><trkpt lat="33.19357103885493" lon="-5.063007649693459"><ele>1876.0</ele><time>2026-04-27T11:22:34Z</time></trkpt><trkpt lat="33.19380262223397" lon="-5.063144358706899"><ele>1876.0</ele><time>2026-04-27T11:22:35Z</time></trkpt><trkpt lat="33.19403456268307" lon="-5.0632687213568355"><ele>1876.0</ele><time>2026-04-27T11:22:36Z</time></trkpt><trkpt lat="33.19427839861719" lon="-5.063345671855778"><ele>1872.5</ele><time>2026-04-27T11:22:37Z</time></trkpt><trkpt lat="33.194526843842674" lon="-5.063394899956185"><ele>1869.0</ele><time>2026-04-27T11:22:38Z</time></trkpt><trkpt lat="33.194780889796135" lon="-5.063438041978522"><ele>1868.0</ele><time>2026-04-27T11:22:39Z</time></trkpt><trkpt lat="33.19503976404795" lon="-5.063483247815942"><ele>1867.0</ele><time>2026-04-27T11:22:40Z</time></trkpt><trkpt lat="33.19529682752461" lon="-5.0635290855179855"><ele>1867.0</ele><time>2026-04-27T11:22:41Z</time></trkpt><trkpt lat="33.195554747328565" lon="-5.063576917061216"><ele>1867.0</ele><time>2026-04-27T11:22:42Z</time></trkpt><trkpt lat="33.1958131152098" lon="-5.0636235912507415"><ele>1864.5</ele><time>2026-04-27T11:22:43Z</time></trkpt><trkpt lat="33.19606867338612" lon="-5.063669444063284"><ele>1862.0</ele><time>2026-04-27T11:22:44Z</time></trkpt><trkpt lat="33.19632265931646" lon="-5.063711940760264"><ele>1861.0</ele><time>2026-04-27T11:22:45Z</time></trkpt><trkpt lat="33.19657659681917" lon="-5.063753475394371"><ele>1860.0</ele><time>2026-04-27T11:22:46Z</time></trkpt><trkpt lat="33.19683121853458" lon="-5.063797008865124"><ele>1860.0</ele><time>2026-04-27T11:22:47Z</time></trkpt><trkpt lat="33.1970853037527" lon="-5.063842740294176"><ele>1860.0</ele><time>2026-04-27T11:22:48Z</time></trkpt><trkpt lat="33.197340441949606" lon="-5.063886247771027"><ele>1860.0</ele><time>2026-04-27T11:22:49Z</time></trkpt><trkpt lat="33.197596020578786" lon="-5.0639227694755"><ele>1860.0</ele><time>2026-04-27T11:22:50Z</time></trkpt><trkpt lat="33.19785722060532" lon="-5.063953615767009"><ele>1860.0</ele><time>2026-04-27T11:22:51Z</time></trkpt><trkpt lat="33.19812167185448" lon="-5.063973618931479"><ele>1860.0</ele><time>2026-04-27T11:22:52Z</time></trkpt><trkpt lat="33.19838958842845" lon="-5.063977984612076"><ele>1861.0</ele><time>2026-04-27T11:22:53Z</time></trkpt><trkpt lat="33.198655545402296" lon="-5.0639699616230605"><ele>1862.0</ele><time>2026-04-27T11:22:54Z</time></trkpt><trkpt lat="33.19891717061194" lon="-5.063954362652298"><ele>1861.5</ele><time>2026-04-27T11:22:55Z</time></trkpt><trkpt lat="33.19917407863601" lon="-5.063936043058566"><ele>1861.0</ele><time>2026-04-27T11:22:56Z</time></trkpt><trkpt lat="33.199427709350985" lon="-5.063913541705142"><ele>1861.0</ele><time>2026-04-27T11:22:57Z</time></trkpt><trkpt lat="33.199679050334865" lon="-5.063889234991997"><ele>1861.0</ele><time>2026-04-27T11:22:58Z</time></trkpt><trkpt lat="33.199931829327014" lon="-5.0638627513111585"><ele>1863.0</ele><time>2026-04-27T11:22:59Z</time></trkpt><trkpt lat="33.200182546723525" lon="-5.063827012193792"><ele>1865.0</ele><time>2026-04-27T11:23:00Z</time></trkpt><trkpt lat="33.20043300947508" lon="-5.0637768222920005"><ele>1866.0</ele><time>2026-04-27T11:23:01Z</time></trkpt><trkpt lat="33.20068733594038" lon="-5.063712837185305"><ele>1867.0</ele><time>2026-04-27T11:23:02Z</time></trkpt><trkpt lat="33.20094056583198" lon="-5.063637809851269"><ele>1867.0</ele><time>2026-04-27T11:23:03Z</time></trkpt><trkpt lat="33.20119290792859" lon="-5.06355521501473"><ele>1867.0</ele><time>2026-04-27T11:23:04Z</time></trkpt><trkpt lat="33.20144435931418" lon="-5.063467409870164"><ele>1865.5</ele><time>2026-04-27T11:23:05Z</time></trkpt><trkpt lat="33.201695768863175" lon="-5.06337998210699"><ele>1864.0</ele><time>2026-04-27T11:23:06Z</time></trkpt><trkpt lat="33.201948269745344" lon="-5.063293484008157"><ele>1870.0</ele><time>2026-04-27T11:23:07Z</time></trkpt><trkpt lat="33.202201036788495" lon="-5.063204448467497"><ele>1876.0</ele><time>2026-04-27T11:23:08Z</time></trkpt><trkpt lat="33.20245519585198" lon="-5.0631154056250685"><ele>1876.0</ele><time>2026-04-27T11:23:09Z</time></trkpt><trkpt lat="33.202712402922145" lon="-5.063025860207965"><ele>1876.0</ele><time>2026-04-27T11:23:10Z</time></trkpt><trkpt lat="33.20297235823576" lon="-5.062936257830116"><ele>1873.0</ele><time>2026-04-27T11:23:11Z</time></trkpt><trkpt lat="33.20323183553857" lon="-5.06284738656478"><ele>1870.0</ele><time>2026-04-27T11:23:12Z</time></trkpt><trkpt lat="33.20349120928408" lon="-5.062760045173571"><ele>1870.0</ele><time>2026-04-27T11:23:13Z</time></trkpt><trkpt lat="33.20375172975838" lon="-5.062672824669437"><ele>1870.0</ele><time>2026-04-27T11:23:14Z</time></trkpt><trkpt lat="33.20401252126614" lon="-5.062584778355838"><ele>1874.0</ele><time>2026-04-27T11:23:15Z</time></trkpt><trkpt lat="33.20426972486991" lon="-5.062498317342051"><ele>1878.0</ele><time>2026-04-27T11:23:16Z</time></trkpt><trkpt lat="33.20452330733646" lon="-5.062412420884173"><ele>1878.0</ele><time>2026-04-27T11:23:17Z</time></trkpt><trkpt lat="33.204772998398205" lon="-5.062326617939523"><ele>1878.0</ele><time>2026-04-27T11:23:18Z</time></trkpt><trkpt lat="33.20502270435438" lon="-5.0622419263460445"><ele>1875.5</ele><time>2026-04-27T11:23:19Z</time></trkpt><trkpt lat="33.2052754145342" lon="-5.062155374256338"><ele>1873.0</ele><time>2026-04-27T11:23:20Z</time></trkpt><trkpt lat="33.205524348558185" lon="-5.0620685277329205"><ele>1872.0</ele><time>2026-04-27T11:23:21Z</time></trkpt><trkpt lat="33.20576822743115" lon="-5.061984847319229"><ele>1871.0</ele><time>2026-04-27T11:23:22Z</time></trkpt><trkpt lat="33.20601281367034" lon="-5.061901159836834"><ele>1871.0</ele><time>2026-04-27T11:23:23Z</time></trkpt><trkpt lat="33.2062583712877" lon="-5.0618163866787285"><ele>1871.0</ele><time>2026-04-27T11:23:24Z</time></trkpt><trkpt lat="33.20650158071922" lon="-5.061731720462476"><ele>1870.5</ele><time>2026-04-27T11:23:25Z</time></trkpt><trkpt lat="33.20674130118074" lon="-5.061646950003607"><ele>1870.0</ele><time>2026-04-27T11:23:26Z</time></trkpt><trkpt lat="33.20697771417674" lon="-5.0615638728933146"><ele>1870.0</ele><time>2026-04-27T11:23:27Z</time></trkpt><trkpt lat="33.207211722907736" lon="-5.061482205926145"><ele>1870.0</ele><time>2026-04-27T11:23:28Z</time></trkpt><trkpt lat="33.20744282427515" lon="-5.061401832714483"><ele>1870.5</ele><time>2026-04-27T11:23:29Z</time></trkpt><trkpt lat="33.20767202237734" lon="-5.061321076335818"><ele>1871.0</ele><time>2026-04-27T11:23:30Z</time></trkpt><trkpt lat="33.20789977243467" lon="-5.061243379809923"><ele>1871.0</ele><time>2026-04-27T11:23:31Z</time></trkpt><trkpt lat="33.208115767186506" lon="-5.0611689756983695"><ele>1871.0</ele><time>2026-04-27T11:23:32Z</time></trkpt><trkpt lat="33.20831907042996" lon="-5.0610957159452035"><ele>1871.0</ele><time>2026-04-27T11:23:33Z</time></trkpt><trkpt lat="33.20851297357448" lon="-5.061027613520905"><ele>1870.3333333333333</ele><time>2026-04-27T11:23:34Z</time></trkpt><trkpt lat="33.20870090179337" lon="-5.060964474150955"><ele>1869.6666666666665</ele><time>2026-04-27T11:23:35Z</time></trkpt><trkpt lat="33.20888205327674" lon="-5.060897718297222"><ele>1869.0</ele><time>2026-04-27T11:23:36Z</time></trkpt><trkpt lat="33.20906424805314" lon="-5.060829423736872"><ele>1869.0</ele><time>2026-04-27T11:23:36.999Z</time></trkpt><trkpt lat="33.20925055196546" lon="-5.060749378546315"><ele>1869.0</ele><time>2026-04-27T11:23:37.999Z</time></trkpt><trkpt lat="33.20944254523192" lon="-5.060655753262656"><ele>1869.0</ele><time>2026-04-27T11:23:38.999Z</time></trkpt><trkpt lat="33.20963963352465" lon="-5.060550594746332"><ele>1866.0</ele><time>2026-04-27T11:23:39.999Z</time></trkpt><trkpt lat="33.209839089936516" lon="-5.060435125817389"><ele>1863.0</ele><time>2026-04-27T11:23:40.999Z</time></trkpt><trkpt lat="33.2100434856031" lon="-5.0603099651460814"><ele>1863.0</ele><time>2026-04-27T11:23:41.999Z</time></trkpt><trkpt lat="33.21025250055923" lon="-5.060187093816092"><ele>1863.0</ele><time>2026-04-27T11:23:42.999Z</time></trkpt><trkpt lat="33.210465112388434" lon="-5.060063970125301"><ele>1863.0</ele><time>2026-04-27T11:23:43.999Z</time></trkpt><trkpt lat="33.210679235277574" lon="-5.059944189930967"><ele>1863.0</ele><time>2026-04-27T11:23:44.999Z</time></trkpt><trkpt lat="33.21090019625809" lon="-5.059843239772242"><ele>1863.0</ele><time>2026-04-27T11:23:45.999Z</time></trkpt><trkpt lat="33.21112774956279" lon="-5.059767934353217"><ele>1863.0</ele><time>2026-04-27T11:23:46.999Z</time></trkpt><trkpt lat="33.211360235369845" lon="-5.059713255453479"><ele>1857.0</ele><time>2026-04-27T11:23:47.999Z</time></trkpt><trkpt lat="33.21159604369819" lon="-5.059692457878657"><ele>1851.0</ele><time>2026-04-27T11:23:48.999Z</time></trkpt><trkpt lat="33.211833807362325" lon="-5.0596940501330625"><ele>1851.0</ele><time>2026-04-27T11:23:49.999Z</time></trkpt><trkpt lat="33.21207618315429" lon="-5.059700689878552"><ele>1851.0</ele><time>2026-04-27T11:23:50.999Z</time></trkpt><trkpt lat="33.21232289855879" lon="-5.0597020586690755"><ele>1850.0</ele><time>2026-04-27T11:23:51.999Z</time></trkpt><trkpt lat="33.212569713993126" lon="-5.059705777351654"><ele>1849.0</ele><time>2026-04-27T11:23:52.999Z</time></trkpt><trkpt lat="33.21282083425491" lon="-5.059711063420759"><ele>1849.0</ele><time>2026-04-27T11:23:53.999Z</time></trkpt><trkpt lat="33.21307062065097" lon="-5.059718365336594"><ele>1849.0</ele><time>2026-04-27T11:23:54.999Z</time></trkpt><trkpt lat="33.21332196831542" lon="-5.059725336054222"><ele>1847.5</ele><time>2026-04-27T11:23:55.999Z</time></trkpt><trkpt lat="33.213574281609056" lon="-5.059732625936908"><ele>1846.0</ele><time>2026-04-27T11:23:56.999Z</time></trkpt><trkpt lat="33.21382688163256" lon="-5.059740263554655"><ele>1845.5</ele><time>2026-04-27T11:23:57.999Z</time></trkpt><trkpt lat="33.21407952888784" lon="-5.059745206672394"><ele>1845.0</ele><time>2026-04-27T11:23:58.999Z</time></trkpt><trkpt lat="33.214333390831435" lon="-5.05974878945624"><ele>1845.0</ele><time>2026-04-27T11:23:59.999Z</time></trkpt><trkpt lat="33.214588200250965" lon="-5.059754204589036"><ele>1845.0</ele><time>2026-04-27T11:24:00.999Z</time></trkpt><trkpt lat="33.21484484366138" lon="-5.05976149408756"><ele>1845.5</ele><time>2026-04-27T11:24:01.999Z</time></trkpt><trkpt lat="33.215102109765816" lon="-5.059768699398474"><ele>1846.0</ele><time>2026-04-27T11:24:02.999Z</time></trkpt><trkpt lat="33.21536029477783" lon="-5.059773953479849"><ele>1846.0</ele><time>2026-04-27T11:24:03.999Z</time></trkpt><trkpt lat="33.215619899913456" lon="-5.059780253458415"><ele>1846.0</ele><time>2026-04-27T11:24:04.999Z</time></trkpt><trkpt lat="33.215880473188896" lon="-5.0597879970706545"><ele>1845.0</ele><time>2026-04-27T11:24:05.999Z</time></trkpt><trkpt lat="33.21614193774858" lon="-5.059795138945767"><ele>1844.0</ele><time>2026-04-27T11:24:06.999Z</time></trkpt><trkpt lat="33.21640463300635" lon="-5.059803564514162"><ele>1843.0</ele><time>2026-04-27T11:24:07.999Z</time></trkpt><trkpt lat="33.21666767302914" lon="-5.059812769764466"><ele>1842.0</ele><time>2026-04-27T11:24:08.999Z</time></trkpt><trkpt lat="33.216931867312695" lon="-5.059819970521428"><ele>1842.0</ele><time>2026-04-27T11:24:09.999Z</time></trkpt><trkpt lat="33.217196940415555" lon="-5.059825387492297"><ele>1842.0</ele><time>2026-04-27T11:24:10.999Z</time></trkpt><trkpt lat="33.217463150103725" lon="-5.059831688613481"><ele>1842.0</ele><time>2026-04-27T11:24:11.999Z</time></trkpt><trkpt lat="33.21773041818964" lon="-5.059836931054549"><ele>1842.0</ele><time>2026-04-27T11:24:12.999Z</time></trkpt><trkpt lat="33.21799050058225" lon="-5.059841968747801"><ele>1843.0</ele><time>2026-04-27T11:24:13.999Z</time></trkpt><trkpt lat="33.21822869529684" lon="-5.059848082095473"><ele>1844.0</ele><time>2026-04-27T11:24:14.999Z</time></trkpt><trkpt lat="33.2184495526184" lon="-5.05985316871918"><ele>1844.0</ele><time>2026-04-27T11:24:15.999Z</time></trkpt><trkpt lat="33.21865510700557" lon="-5.059857417806725"><ele>1844.0</ele><time>2026-04-27T11:24:16.999Z</time></trkpt><trkpt lat="33.21884424255955" lon="-5.05986083438946"><ele>1844.0</ele><time>2026-04-27T11:24:17.999Z</time></trkpt><trkpt lat="33.21902604210263" lon="-5.059864416524253"><ele>1843.6666666666665</ele><time>2026-04-27T11:24:18.999Z</time></trkpt><trkpt lat="33.21919894475772" lon="-5.0598687371283315"><ele>1843.3333333333335</ele><time>2026-04-27T11:24:19.999Z</time></trkpt><trkpt lat="33.21936445346573" lon="-5.059873887889824"><ele>1843.0</ele><time>2026-04-27T11:24:20.999Z</time></trkpt><trkpt lat="33.219521933705984" lon="-5.0598767143554095"><ele>1843.0</ele><time>2026-04-27T11:24:21.999Z</time></trkpt><trkpt lat="33.219678959086686" lon="-5.05988364982764"><ele>1843.0</ele><time>2026-04-27T11:24:22.999Z</time></trkpt><trkpt lat="33.21983783335729" lon="-5.0598871086571595"><ele>1843.0</ele><time>2026-04-27T11:24:23.999Z</time></trkpt><trkpt lat="33.21999976418999" lon="-5.059890393951659"><ele>1842.6666666666667</ele><time>2026-04-27T11:24:24.999Z</time></trkpt><trkpt lat="33.22016480050132" lon="-5.059893213361153"><ele>1842.3333333333335</ele><time>2026-04-27T11:24:25.999Z</time></trkpt><trkpt lat="33.22033241254798" lon="-5.059898512331491"><ele>1842.0</ele><time>2026-04-27T11:24:26.999Z</time></trkpt><trkpt lat="33.22050325705489" lon="-5.0599047446657135"><ele>1841.3333333333335</ele><time>2026-04-27T11:24:27.999Z</time></trkpt><trkpt lat="33.22067701028519" lon="-5.059907915600004"><ele>1840.6666666666667</ele><time>2026-04-27T11:24:28.999Z</time></trkpt><trkpt lat="33.22085071672487" lon="-5.0599105265044795"><ele>1840.0</ele><time>2026-04-27T11:24:29.999Z</time></trkpt><trkpt lat="33.221024417052625" lon="-5.059914199906004"><ele>1840.0</ele><time>2026-04-27T11:24:30.999Z</time></trkpt><trkpt lat="33.2211978580359" lon="-5.059918527440813"><ele>1840.0</ele><time>2026-04-27T11:24:31.999Z</time></trkpt><trkpt lat="33.22136896813951" lon="-5.059918469641049"><ele>1840.0</ele><time>2026-04-27T11:24:32.999Z</time></trkpt><trkpt lat="33.22153325504892" lon="-5.059915803447036"><ele>1839.3333333333335</ele><time>2026-04-27T11:24:33.999Z</time></trkpt><trkpt lat="33.22169304265882" lon="-5.059918099120276"><ele>1838.6666666666665</ele><time>2026-04-27T11:24:35Z</time></trkpt><trkpt lat="33.22184264275402" lon="-5.059921809727076"><ele>1838.0</ele><time>2026-04-27T11:24:36Z</time></trkpt><trkpt lat="33.22199916145264" lon="-5.059925198020069"><ele>1838.0</ele><time>2026-04-27T11:24:37Z</time></trkpt><trkpt lat="33.22216483910433" lon="-5.059928640006544"><ele>1838.0</ele><time>2026-04-27T11:24:38Z</time></trkpt><trkpt lat="33.222339932022834" lon="-5.0599333504830115"><ele>1838.0</ele><time>2026-04-27T11:24:39Z</time></trkpt><trkpt lat="33.222526596441206" lon="-5.059941383884145"><ele>1838.0</ele><time>2026-04-27T11:24:40Z</time></trkpt><trkpt lat="33.22272127735367" lon="-5.059948444249332"><ele>1838.0</ele><time>2026-04-27T11:24:41Z</time></trkpt><trkpt lat="33.22292770144711" lon="-5.059953546933184"><ele>1838.0</ele><time>2026-04-27T11:24:42Z</time></trkpt><trkpt lat="33.22314565832733" lon="-5.059961518416914"><ele>1837.5</ele><time>2026-04-27T11:24:43Z</time></trkpt><trkpt lat="33.22337473376105" lon="-5.059965798258685"><ele>1837.0</ele><time>2026-04-27T11:24:44Z</time></trkpt><trkpt lat="33.22361285346921" lon="-5.059971750437217"><ele>1837.0</ele><time>2026-04-27T11:24:45Z</time></trkpt><trkpt lat="33.223854751246165" lon="-5.059976095711488"><ele>1837.0</ele><time>2026-04-27T11:24:46Z</time></trkpt><trkpt lat="33.22409892440875" lon="-5.0599829854924145"><ele>1836.5</ele><time>2026-04-27T11:24:47Z</time></trkpt><trkpt lat="33.22434506083336" lon="-5.059990681725295"><ele>1836.0</ele><time>2026-04-27T11:24:48Z</time></trkpt><trkpt lat="33.224587070398705" lon="-5.05999741099178"><ele>1836.0</ele><time>2026-04-27T11:24:49Z</time></trkpt><trkpt lat="33.22482527181016" lon="-5.060002964499644"><ele>1836.0</ele><time>2026-04-27T11:24:50Z</time></trkpt><trkpt lat="33.22505896266228" lon="-5.06000918723366"><ele>1836.0</ele><time>2026-04-27T11:24:51Z</time></trkpt><trkpt lat="33.225289679309924" lon="-5.060016008183031"><ele>1836.0</ele><time>2026-04-27T11:24:52Z</time></trkpt><trkpt lat="33.22552064078931" lon="-5.060022984067025"><ele>1836.5</ele><time>2026-04-27T11:24:53Z</time></trkpt><trkpt lat="33.22575450980541" lon="-5.060028067617679"><ele>1837.0</ele><time>2026-04-27T11:24:54Z</time></trkpt><trkpt lat="33.22598722728174" lon="-5.060033853711431"><ele>1837.0</ele><time>2026-04-27T11:24:55Z</time></trkpt><trkpt lat="33.22621970333929" lon="-5.060037141501282"><ele>1837.0</ele><time>2026-04-27T11:24:56Z</time></trkpt><trkpt lat="33.2264526858202" lon="-5.060040821466495"><ele>1836.5</ele><time>2026-04-27T11:24:57Z</time></trkpt><trkpt lat="33.226685937030865" lon="-5.060046211060866"><ele>1836.0</ele><time>2026-04-27T11:24:58Z</time></trkpt><trkpt lat="33.22692004179476" lon="-5.0600535424613"><ele>1836.0</ele><time>2026-04-27T11:24:59Z</time></trkpt><trkpt lat="33.22715514621783" lon="-5.060061685832126"><ele>1836.0</ele><time>2026-04-27T11:25:00Z</time></trkpt><trkpt lat="33.22739203201724" lon="-5.060066405518918"><ele>1834.0</ele><time>2026-04-27T11:25:01Z</time></trkpt><trkpt lat="33.227630268585294" lon="-5.060073130562917"><ele>1832.0</ele><time>2026-04-27T11:25:02Z</time></trkpt><trkpt lat="33.22786679817334" lon="-5.060078893389965"><ele>1832.0</ele><time>2026-04-27T11:25:03Z</time></trkpt><trkpt lat="33.22810116932948" lon="-5.06008500383269"><ele>1832.0</ele><time>2026-04-27T11:25:04Z</time></trkpt><trkpt lat="33.228331804247055" lon="-5.060092286056185"><ele>1833.0</ele><time>2026-04-27T11:25:05Z</time></trkpt><trkpt lat="33.228560732227216" lon="-5.0600945793361145"><ele>1834.0</ele><time>2026-04-27T11:25:06Z</time></trkpt><trkpt lat="33.22878350747032" lon="-5.060088278543787"><ele>1834.3333333333335</ele><time>2026-04-27T11:25:07Z</time></trkpt><trkpt lat="33.22899858062629" lon="-5.060067718073345"><ele>1834.6666666666665</ele><time>2026-04-27T11:25:08Z</time></trkpt><trkpt lat="33.22920309241148" lon="-5.060026118379476"><ele>1835.0</ele><time>2026-04-27T11:25:09Z</time></trkpt><trkpt lat="33.22939689024808" lon="-5.059965926571971"><ele>1835.3333333333333</ele><time>2026-04-27T11:25:10Z</time></trkpt><trkpt lat="33.22958108669698" lon="-5.059889500005175"><ele>1835.6666666666665</ele><time>2026-04-27T11:25:11Z</time></trkpt><trkpt lat="33.22975698932176" lon="-5.0598233848535275"><ele>1836.0</ele><time>2026-04-27T11:25:12Z</time></trkpt><trkpt lat="33.229926125660164" lon="-5.059782269020215"><ele>1836.0</ele><time>2026-04-27T11:25:13Z</time></trkpt><trkpt lat="33.23005877901157" lon="-5.059592704657428"><ele>1836.0</ele><time>2026-04-27T11:25:14Z</time></trkpt><trkpt lat="33.23019536680944" lon="-5.059471491595452"><ele>1836.0</ele><time>2026-04-27T11:25:15Z</time></trkpt><trkpt lat="33.23031573647797" lon="-5.059345745657679"><ele>1836.0</ele><time>2026-04-27T11:25:16Z</time></trkpt><trkpt lat="33.230411989672206" lon="-5.059237637130132"><ele>1836.0</ele><time>2026-04-27T11:25:17Z</time></trkpt><trkpt lat="33.23048541924802" lon="-5.059154789953754"><ele>1836.0</ele><time>2026-04-27T11:25:18Z</time></trkpt><trkpt lat="33.23055037675334" lon="-5.059084805825568"><ele>1836.0</ele><time>2026-04-27T11:25:19Z</time></trkpt><trkpt lat="33.230611764206735" lon="-5.059022990730536"><ele>1836.0</ele><time>2026-04-27T11:25:20Z</time></trkpt><trkpt lat="33.23067733666168" lon="-5.05895614071886"><ele>1835.25</ele><time>2026-04-27T11:25:21Z</time></trkpt><trkpt lat="33.23075065529096" lon="-5.058882318410682"><ele>1834.5</ele><time>2026-04-27T11:25:22Z</time></trkpt><trkpt lat="33.23083430758712" lon="-5.058801742302155"><ele>1833.75</ele><time>2026-04-27T11:25:23Z</time></trkpt><trkpt lat="33.230931640290116" lon="-5.058724442943138"><ele>1833.0</ele><time>2026-04-27T11:25:24Z</time></trkpt><trkpt lat="33.23104703952474" lon="-5.058644038512157"><ele>1833.0</ele><time>2026-04-27T11:25:25Z</time></trkpt><trkpt lat="33.23118148889469" lon="-5.0585580169973845"><ele>1833.0</ele><time>2026-04-27T11:25:26Z</time></trkpt><trkpt lat="33.231322124598016" lon="-5.058477491842411"><ele>1833.0</ele><time>2026-04-27T11:25:27Z</time></trkpt><trkpt lat="33.23147102770075" lon="-5.058397394941958"><ele>1832.75</ele><time>2026-04-27T11:25:28Z</time></trkpt><trkpt lat="33.23161761268485" lon="-5.058327083525322"><ele>1832.5</ele><time>2026-04-27T11:25:29Z</time></trkpt><trkpt lat="33.231760215251974" lon="-5.058269802317471"><ele>1832.25</ele><time>2026-04-27T11:25:30Z</time></trkpt><trkpt lat="33.23189620263241" lon="-5.058224785898516"><ele>1832.0</ele><time>2026-04-27T11:25:31Z</time></trkpt><trkpt lat="33.23202386579438" lon="-5.058193188790783"><ele>1832.0</ele><time>2026-04-27T11:25:32Z</time></trkpt><trkpt lat="33.23214151582108" lon="-5.058170115963353"><ele>1831.9999999999998</ele><time>2026-04-27T11:25:33Z</time></trkpt><trkpt lat="33.23224775778869" lon="-5.058158315537768"><ele>1831.9999999999998</ele><time>2026-04-27T11:25:34Z</time></trkpt><trkpt lat="33.23234611400582" lon="-5.058151167732915"><ele>1832.0</ele><time>2026-04-27T11:25:35Z</time></trkpt><trkpt lat="33.23244051224855" lon="-5.058147923554212"><ele>1832.0</ele><time>2026-04-27T11:25:36Z</time></trkpt><trkpt lat="33.23253188574213" lon="-5.058148410665815"><ele>1831.6</ele><time>2026-04-27T11:25:37Z</time></trkpt><trkpt lat="33.23263220462702" lon="-5.058149634345893"><ele>1831.1999999999998</ele><time>2026-04-27T11:25:38Z</time></trkpt><trkpt lat="33.23273966426698" lon="-5.058152935343594"><ele>1830.8</ele><time>2026-04-27T11:25:39Z</time></trkpt><trkpt lat="33.23285621653003" lon="-5.058156980844027"><ele>1830.4</ele><time>2026-04-27T11:25:40Z</time></trkpt><trkpt lat="33.23297957689373" lon="-5.058162330843422"><ele>1830.0</ele><time>2026-04-27T11:25:41Z</time></trkpt><trkpt lat="33.23310357825317" lon="-5.058171182618657"><ele>1829.5</ele><time>2026-04-27T11:25:42Z</time></trkpt><trkpt lat="33.233227500750736" lon="-5.058180626218157"><ele>1829.0</ele><time>2026-04-27T11:25:42.999Z</time></trkpt><trkpt lat="33.23334983674128" lon="-5.058191588870116"><ele>1828.5</ele><time>2026-04-27T11:25:43.999Z</time></trkpt><trkpt lat="33.23347189198288" lon="-5.058201353868098"><ele>1828.0</ele><time>2026-04-27T11:25:44.999Z</time></trkpt><trkpt lat="33.23359289775862" lon="-5.05820992136114"><ele>1828.0</ele><time>2026-04-27T11:25:45.999Z</time></trkpt><trkpt lat="33.233712232078936" lon="-5.058216767936221"><ele>1828.0000000000002</ele><time>2026-04-27T11:25:46.999Z</time></trkpt><trkpt lat="33.233829170267384" lon="-5.058222262269542"><ele>1828.0000000000002</ele><time>2026-04-27T11:25:47.999Z</time></trkpt><trkpt lat="33.23393825131577" lon="-5.0582313788483155"><ele>1828.0</ele><time>2026-04-27T11:25:48.999Z</time></trkpt><trkpt lat="33.23404099249661" lon="-5.0582441631492445"><ele>1828.0</ele><time>2026-04-27T11:25:49.999Z</time></trkpt><trkpt lat="33.23413175254253" lon="-5.058257535935327"><ele>1827.8333333333335</ele><time>2026-04-27T11:25:50.999Z</time></trkpt><trkpt lat="33.23421321539207" lon="-5.058272358861257"><ele>1827.6666666666667</ele><time>2026-04-27T11:25:51.999Z</time></trkpt><trkpt lat="33.234287930368836" lon="-5.058286680876641"><ele>1827.5</ele><time>2026-04-27T11:25:52.999Z</time></trkpt><trkpt lat="33.23436495990763" lon="-5.0582972575974035"><ele>1827.3333333333335</ele><time>2026-04-27T11:25:53.999Z</time></trkpt><trkpt lat="33.234450825376875" lon="-5.058310381128489"><ele>1827.1666666666667</ele><time>2026-04-27T11:25:54.999Z</time></trkpt><trkpt lat="33.2345398900653" lon="-5.058328042628212"><ele>1827.0</ele><time>2026-04-27T11:25:55.999Z</time></trkpt><trkpt lat="33.23463665516313" lon="-5.058351751706017"><ele>1826.6</ele><time>2026-04-27T11:25:56.999Z</time></trkpt><trkpt lat="33.23473699176252" lon="-5.058377327544341"><ele>1826.1999999999998</ele><time>2026-04-27T11:25:57.999Z</time></trkpt><trkpt lat="33.234838975478176" lon="-5.058403014098331"><ele>1825.8</ele><time>2026-04-27T11:25:58.999Z</time></trkpt><trkpt lat="33.234940215902434" lon="-5.058428983050396"><ele>1825.4</ele><time>2026-04-27T11:25:59.999Z</time></trkpt><trkpt lat="33.23503132794693" lon="-5.0584530423394245"><ele>1825.0</ele><time>2026-04-27T11:26:00.999Z</time></trkpt><trkpt lat="33.23511516395673" lon="-5.058475252129864"><ele>1824.8333333333335</ele><time>2026-04-27T11:26:01.999Z</time></trkpt><trkpt lat="33.23519933637615" lon="-5.058499950916956"><ele>1824.6666666666667</ele><time>2026-04-27T11:26:02.999Z</time></trkpt><trkpt lat="33.235282397423134" lon="-5.058524775800171"><ele>1824.5</ele><time>2026-04-27T11:26:03.999Z</time></trkpt><trkpt lat="33.2353657641579" lon="-5.0585479265101645"><ele>1824.3333333333335</ele><time>2026-04-27T11:26:04.999Z</time></trkpt><trkpt lat="33.235448893459015" lon="-5.058571381133132"><ele>1824.1666666666667</ele><time>2026-04-27T11:26:05.999Z</time></trkpt><trkpt lat="33.23553280662756" lon="-5.058595490040798"><ele>1824.0</ele><time>2026-04-27T11:26:06.999Z</time></trkpt><trkpt lat="33.235619433514216" lon="-5.05862428725372"><ele>1823.4</ele><time>2026-04-27T11:26:07.999Z</time></trkpt><trkpt lat="33.235709965767995" lon="-5.058655327294453"><ele>1822.8000000000002</ele><time>2026-04-27T11:26:08.999Z</time></trkpt><trkpt lat="33.23579984305754" lon="-5.0586935160923225"><ele>1822.1999999999998</ele><time>2026-04-27T11:26:09.999Z</time></trkpt><trkpt lat="33.23588932061079" lon="-5.058734498543041"><ele>1821.6</ele><time>2026-04-27T11:26:10.999Z</time></trkpt><trkpt lat="33.23597446944877" lon="-5.0587741823706125"><ele>1821.0</ele><time>2026-04-27T11:26:11.999Z</time></trkpt><trkpt lat="33.236057054065476" lon="-5.058815302383932"><ele>1821.0000000000002</ele><time>2026-04-27T11:26:12.999Z</time></trkpt><trkpt lat="33.236130366207085" lon="-5.058856485728882"><ele>1821.0</ele><time>2026-04-27T11:26:13.999Z</time></trkpt><trkpt lat="33.236192344315555" lon="-5.058886673169221"><ele>1821.0000000000002</ele><time>2026-04-27T11:26:14.999Z</time></trkpt><trkpt lat="33.23625531350601" lon="-5.058920832937475"><ele>1821.0000000000002</ele><time>2026-04-27T11:26:15.999Z</time></trkpt><trkpt lat="33.236309571168455" lon="-5.058960234102297"><ele>1821.0</ele><time>2026-04-27T11:26:16.999Z</time></trkpt><trkpt lat="33.23636155277825" lon="-5.059003417267535"><ele>1821.0000000000002</ele><time>2026-04-27T11:26:17.999Z</time></trkpt><trkpt lat="33.236413339006134" lon="-5.059047249374001"><ele>1821.0000000000002</ele><time>2026-04-27T11:26:18.999Z</time></trkpt><trkpt lat="33.23651568590332" lon="-5.059136559174569"><ele>1820.6666666666667</ele><time>2026-04-27T11:26:20.999Z</time></trkpt><trkpt lat="33.23657837974132" lon="-5.0591936907786135"><ele>1820.3333333333335</ele><time>2026-04-27T11:26:21.999Z</time></trkpt><trkpt lat="33.236643168175426" lon="-5.059261430649457"><ele>1820.0</ele><time>2026-04-27T11:26:22.999Z</time></trkpt><trkpt lat="33.23672422487632" lon="-5.059316136807089"><ele>1819.6666666666667</ele><time>2026-04-27T11:26:23.999Z</time></trkpt><trkpt lat="33.236793770319174" lon="-5.059386983591751"><ele>1819.3333333333335</ele><time>2026-04-27T11:26:24.999Z</time></trkpt><trkpt lat="33.23686207786672" lon="-5.059456569318997"><ele>1819.0</ele><time>2026-04-27T11:26:25.999Z</time></trkpt><trkpt lat="33.236926502039985" lon="-5.05952219907058"><ele>1819.0</ele><time>2026-04-27T11:26:26.999Z</time></trkpt><trkpt lat="33.236973480772754" lon="-5.059609485350543"><ele>1819.0</ele><time>2026-04-27T11:26:27.999Z</time></trkpt><trkpt lat="33.23701557398267" lon="-5.0596750396322445"><ele>1819.0</ele><time>2026-04-27T11:26:28.999Z</time></trkpt><trkpt lat="33.23704368857965" lon="-5.059744489096172"><ele>1819.0</ele><time>2026-04-27T11:26:29.999Z</time></trkpt><trkpt lat="33.237131396735045" lon="-5.059845916838348"><ele>1819.0</ele><time>2026-04-27T11:26:31.999Z</time></trkpt><trkpt lat="33.237206774269865" lon="-5.059941116756689"><ele>1819.0</ele><time>2026-04-27T11:26:33.999Z</time></trkpt><trkpt lat="33.23725094961189" lon="-5.060060173742896"><ele>1819.0</ele><time>2026-04-27T11:26:35.999Z</time></trkpt><trkpt lat="33.23728275740199" lon="-5.060163752216256"><ele>1819.0</ele><time>2026-04-27T11:26:37.999Z</time></trkpt><trkpt lat="33.237324451033444" lon="-5.06028388112637"><ele>1819.0</ele><time>2026-04-27T11:26:39.999Z</time></trkpt><trkpt lat="33.237369800518856" lon="-5.0603502004561935"><ele>1819.0</ele><time>2026-04-27T11:26:41Z</time></trkpt><trkpt lat="33.23740700746189" lon="-5.060434775266095"><ele>1818.8000000000002</ele><time>2026-04-27T11:26:42Z</time></trkpt><trkpt lat="33.237447059427566" lon="-5.060525817084978"><ele>1818.6000000000001</ele><time>2026-04-27T11:26:43Z</time></trkpt><trkpt lat="33.2374881544321" lon="-5.060621431772557"><ele>1818.4</ele><time>2026-04-27T11:26:44Z</time></trkpt><trkpt lat="33.237514272671206" lon="-5.060728530046451"><ele>1818.2</ele><time>2026-04-27T11:26:45Z</time></trkpt><trkpt lat="33.237556799101064" lon="-5.060826940172167"><ele>1818.0</ele><time>2026-04-27T11:26:46Z</time></trkpt><trkpt lat="33.23760103207448" lon="-5.06092992091909"><ele>1817.6000000000001</ele><time>2026-04-27T11:26:47Z</time></trkpt><trkpt lat="33.23764577551789" lon="-5.061034821837921"><ele>1817.2000000000003</ele><time>2026-04-27T11:26:48Z</time></trkpt><trkpt lat="33.23769181537577" lon="-5.061145696047417"><ele>1816.8</ele><time>2026-04-27T11:26:49Z</time></trkpt><trkpt lat="33.23773518370289" lon="-5.061253876994266"><ele>1816.4</ele><time>2026-04-27T11:26:50Z</time></trkpt><trkpt lat="33.2377757313686" lon="-5.061353132783437"><ele>1816.0</ele><time>2026-04-27T11:26:51Z</time></trkpt><trkpt lat="33.23781820492571" lon="-5.061443462070167"><ele>1816.0</ele><time>2026-04-27T11:26:52Z</time></trkpt><trkpt lat="33.237861610131645" lon="-5.061539247772014"><ele>1816.0</ele><time>2026-04-27T11:26:53Z</time></trkpt><trkpt lat="33.2379045116573" lon="-5.061636674131171"><ele>1816.0</ele><time>2026-04-27T11:26:54Z</time></trkpt><trkpt lat="33.23794601826672" lon="-5.0617350766810265"><ele>1816.0</ele><time>2026-04-27T11:26:55Z</time></trkpt><trkpt lat="33.237990085432074" lon="-5.0618398851289355"><ele>1816.0</ele><time>2026-04-27T11:26:56Z</time></trkpt><trkpt lat="33.23803614035884" lon="-5.061950396998096"><ele>1815.0</ele><time>2026-04-27T11:26:57Z</time></trkpt><trkpt lat="33.2380856790673" lon="-5.062065719097633"><ele>1814.0</ele><time>2026-04-27T11:26:58Z</time></trkpt><trkpt lat="33.23813683734645" lon="-5.062184997681939"><ele>1813.0</ele><time>2026-04-27T11:26:59Z</time></trkpt><trkpt lat="33.23818838843273" lon="-5.062307746756675"><ele>1812.0</ele><time>2026-04-27T11:27:00Z</time></trkpt><trkpt lat="33.238245303714535" lon="-5.062432703242469"><ele>1812.25</ele><time>2026-04-27T11:27:01Z</time></trkpt><trkpt lat="33.23830452250498" lon="-5.062559018319784"><ele>1812.5</ele><time>2026-04-27T11:27:02Z</time></trkpt><trkpt lat="33.238361016361466" lon="-5.062688584879798"><ele>1812.75</ele><time>2026-04-27T11:27:03Z</time></trkpt><trkpt lat="33.23841428710839" lon="-5.062816541446684"><ele>1813.0</ele><time>2026-04-27T11:27:04Z</time></trkpt><trkpt lat="33.238468298135885" lon="-5.06293946876828"><ele>1813.0</ele><time>2026-04-27T11:27:05Z</time></trkpt><trkpt lat="33.23851805255162" lon="-5.063058958336677"><ele>1813.0</ele><time>2026-04-27T11:27:06Z</time></trkpt><trkpt lat="33.238566567689034" lon="-5.063177105096346"><ele>1813.0</ele><time>2026-04-27T11:27:07Z</time></trkpt><trkpt lat="33.23861678742825" lon="-5.063300039560175"><ele>1813.0</ele><time>2026-04-27T11:27:08Z</time></trkpt><trkpt lat="33.23867151171415" lon="-5.063430922332724"><ele>1813.0</ele><time>2026-04-27T11:27:09Z</time></trkpt><trkpt lat="33.23872846116724" lon="-5.063567699716241"><ele>1813.0</ele><time>2026-04-27T11:27:10Z</time></trkpt><trkpt lat="33.23878715275441" lon="-5.063708383733145"><ele>1813.0</ele><time>2026-04-27T11:27:11Z</time></trkpt><trkpt lat="33.23884643236059" lon="-5.06384968345424"><ele>1813.0</ele><time>2026-04-27T11:27:12Z</time></trkpt><trkpt lat="33.23890341938183" lon="-5.063993497611523"><ele>1812.75</ele><time>2026-04-27T11:27:13Z</time></trkpt><trkpt lat="33.23895684684538" lon="-5.064138319622467"><ele>1812.5</ele><time>2026-04-27T11:27:14Z</time></trkpt><trkpt lat="33.239009707734645" lon="-5.064279677605683"><ele>1812.25</ele><time>2026-04-27T11:27:15Z</time></trkpt><trkpt lat="33.23906158756058" lon="-5.06442086860993"><ele>1812.0</ele><time>2026-04-27T11:27:16Z</time></trkpt><trkpt lat="33.23910926219722" lon="-5.064562487575423"><ele>1811.75</ele><time>2026-04-27T11:27:17Z</time></trkpt><trkpt lat="33.23915172858051" lon="-5.0647039556682145"><ele>1811.5</ele><time>2026-04-27T11:27:18Z</time></trkpt><trkpt lat="33.23919465109044" lon="-5.064846749352303"><ele>1811.25</ele><time>2026-04-27T11:27:19Z</time></trkpt><trkpt lat="33.23923698759523" lon="-5.064990072852567"><ele>1811.0</ele><time>2026-04-27T11:27:20Z</time></trkpt><trkpt lat="33.23927534733291" lon="-5.065129203747201"><ele>1811.5</ele><time>2026-04-27T11:27:21Z</time></trkpt><trkpt lat="33.23931671605975" lon="-5.065273775975871"><ele>1812.0</ele><time>2026-04-27T11:27:22Z</time></trkpt><trkpt lat="33.23935401928681" lon="-5.06541411971735"><ele>1812.5</ele><time>2026-04-27T11:27:23Z</time></trkpt><trkpt lat="33.2393900310587" lon="-5.065556806952212"><ele>1813.0</ele><time>2026-04-27T11:27:24Z</time></trkpt><trkpt lat="33.23943008335342" lon="-5.06570165797219"><ele>1813.25</ele><time>2026-04-27T11:27:25Z</time></trkpt><trkpt lat="33.23947227720457" lon="-5.0658482123489375"><ele>1813.5</ele><time>2026-04-27T11:27:26Z</time></trkpt><trkpt lat="33.2395126875218" lon="-5.065999262558163"><ele>1813.75</ele><time>2026-04-27T11:27:27Z</time></trkpt><trkpt lat="33.239551954725435" lon="-5.066154069104905"><ele>1814.0</ele><time>2026-04-27T11:27:28Z</time></trkpt><trkpt lat="33.23959043225332" lon="-5.066312731105032"><ele>1814.0</ele><time>2026-04-27T11:27:29Z</time></trkpt><trkpt lat="33.23963054845299" lon="-5.0664753337231945"><ele>1814.0</ele><time>2026-04-27T11:27:30Z</time></trkpt><trkpt lat="33.2396744599896" lon="-5.066644651436501"><ele>1814.0</ele><time>2026-04-27T11:27:31Z</time></trkpt><trkpt lat="33.23971716856923" lon="-5.066814102369975"><ele>1814.0</ele><time>2026-04-27T11:27:32Z</time></trkpt><trkpt lat="33.23975821311414" lon="-5.066977211784107"><ele>1814.0</ele><time>2026-04-27T11:27:33Z</time></trkpt><trkpt lat="33.23979673406334" lon="-5.067122723797538"><ele>1814.0</ele><time>2026-04-27T11:27:34Z</time></trkpt><trkpt lat="33.239831291496046" lon="-5.067251276723557"><ele>1814.0</ele><time>2026-04-27T11:27:35Z</time></trkpt><trkpt lat="33.23986395569342" lon="-5.067372563128994"><ele>1814.0</ele><time>2026-04-27T11:27:36Z</time></trkpt><trkpt lat="33.23989705550617" lon="-5.067498340907765"><ele>1813.5</ele><time>2026-04-27T11:27:37Z</time></trkpt><trkpt lat="33.239929831672136" lon="-5.067630277819905"><ele>1813.0</ele><time>2026-04-27T11:27:38Z</time></trkpt><trkpt lat="33.239965789014065" lon="-5.067770112092954"><ele>1812.5</ele><time>2026-04-27T11:27:39Z</time></trkpt><trkpt lat="33.24000387336667" lon="-5.067917683489965"><ele>1812.0</ele><time>2026-04-27T11:27:40Z</time></trkpt><trkpt lat="33.240043290351394" lon="-5.0680699610153095"><ele>1812.0</ele><time>2026-04-27T11:27:40.999Z</time></trkpt><trkpt lat="33.24008398295718" lon="-5.068245605013038"><ele>1812.0</ele><time>2026-04-27T11:27:41.999Z</time></trkpt><trkpt lat="33.24015147029826" lon="-5.068436881345408"><ele>1812.0</ele><time>2026-04-27T11:27:42.999Z</time></trkpt><trkpt lat="33.2401997828218" lon="-5.068665417660223"><ele>1813.0</ele><time>2026-04-27T11:27:43.999Z</time></trkpt><trkpt lat="33.24027365473951" lon="-5.068907539487461"><ele>1814.0</ele><time>2026-04-27T11:27:44.999Z</time></trkpt><trkpt lat="33.24034820586716" lon="-5.069162329989754"><ele>1815.0</ele><time>2026-04-27T11:27:45.999Z</time></trkpt><trkpt lat="33.24042317160248" lon="-5.069436013964075"><ele>1816.0</ele><time>2026-04-27T11:27:46.999Z</time></trkpt><trkpt lat="33.24047808535278" lon="-5.069697458682746"><ele>1817.0</ele><time>2026-04-27T11:27:47.999Z</time></trkpt><trkpt lat="33.24057222376892" lon="-5.0699583996972"><ele>1817.0</ele><time>2026-04-27T11:27:48.999Z</time></trkpt><trkpt lat="33.24066169225379" lon="-5.0701993177680915"><ele>1817.0</ele><time>2026-04-27T11:27:49.999Z</time></trkpt><trkpt lat="33.24074373276779" lon="-5.070433979086093"><ele>1817.0</ele><time>2026-04-27T11:27:50.999Z</time></trkpt><trkpt lat="33.240859811803816" lon="-5.070633836763752"><ele>1818.0</ele><time>2026-04-27T11:27:51.999Z</time></trkpt><trkpt lat="33.24098883870156" lon="-5.070822875914682"><ele>1819.0</ele><time>2026-04-27T11:27:52.999Z</time></trkpt><trkpt lat="33.24113619236272" lon="-5.0710031935331505"><ele>1820.0</ele><time>2026-04-27T11:27:53.999Z</time></trkpt><trkpt lat="33.2413003639224" lon="-5.071171792829092"><ele>1817.5</ele><time>2026-04-27T11:27:54.999Z</time></trkpt><trkpt lat="33.241481311262206" lon="-5.0713266443596385"><ele>1815.0</ele><time>2026-04-27T11:27:55.999Z</time></trkpt><trkpt lat="33.24167905508606" lon="-5.07146481823991"><ele>1815.0</ele><time>2026-04-27T11:27:56.999Z</time></trkpt><trkpt lat="33.241891691843534" lon="-5.071577772112786"><ele>1815.0</ele><time>2026-04-27T11:27:57.999Z</time></trkpt><trkpt lat="33.24211740311597" lon="-5.071662324376849"><ele>1813.5</ele><time>2026-04-27T11:27:58.999Z</time></trkpt><trkpt lat="33.2423534799167" lon="-5.071718094407709"><ele>1812.0</ele><time>2026-04-27T11:27:59.999Z</time></trkpt><trkpt lat="33.24259523907666" lon="-5.0717436802089075"><ele>1812.0</ele><time>2026-04-27T11:28:00.999Z</time></trkpt><trkpt lat="33.24284795300831" lon="-5.071744308581474"><ele>1812.0</ele><time>2026-04-27T11:28:01.999Z</time></trkpt><trkpt lat="33.24310461360251" lon="-5.071728336109954"><ele>1810.0</ele><time>2026-04-27T11:28:02.999Z</time></trkpt><trkpt lat="33.24336486949639" lon="-5.07170811558975"><ele>1808.0</ele><time>2026-04-27T11:28:03.999Z</time></trkpt><trkpt lat="33.2436268301912" lon="-5.071686952535259"><ele>1808.0</ele><time>2026-04-27T11:28:04.999Z</time></trkpt><trkpt lat="33.24389228294616" lon="-5.071664885440664"><ele>1808.0</ele><time>2026-04-27T11:28:05.999Z</time></trkpt><trkpt lat="33.24416204903277" lon="-5.07164295185383"><ele>1807.0</ele><time>2026-04-27T11:28:06.999Z</time></trkpt><trkpt lat="33.24443540289791" lon="-5.0716205407230115"><ele>1806.0</ele><time>2026-04-27T11:28:07.999Z</time></trkpt><trkpt lat="33.24471226579162" lon="-5.071596464258743"><ele>1805.5</ele><time>2026-04-27T11:28:08.999Z</time></trkpt><trkpt lat="33.2449926166615" lon="-5.071570962493322"><ele>1805.0</ele><time>2026-04-27T11:28:09.999Z</time></trkpt><trkpt lat="33.245279114645236" lon="-5.071546357475903"><ele>1805.0</ele><time>2026-04-27T11:28:10.999Z</time></trkpt><trkpt lat="33.24556783433501" lon="-5.071523667141098"><ele>1805.0</ele><time>2026-04-27T11:28:11.999Z</time></trkpt><trkpt lat="33.24585720112175" lon="-5.071501628929713"><ele>1804.5</ele><time>2026-04-27T11:28:12.999Z</time></trkpt><trkpt lat="33.24614774188431" lon="-5.0714797564053296"><ele>1804.0</ele><time>2026-04-27T11:28:13.999Z</time></trkpt><trkpt lat="33.246438962953086" lon="-5.071456630241225"><ele>1804.0</ele><time>2026-04-27T11:28:14.999Z</time></trkpt><trkpt lat="33.246730273669236" lon="-5.071431718379345"><ele>1804.0</ele><time>2026-04-27T11:28:15.999Z</time></trkpt><trkpt lat="33.24702354033336" lon="-5.071408018334238"><ele>1804.5</ele><time>2026-04-27T11:28:16.999Z</time></trkpt><trkpt lat="33.247318459816185" lon="-5.071385309186975"><ele>1805.0</ele><time>2026-04-27T11:28:17.999Z</time></trkpt><trkpt lat="33.24761434873409" lon="-5.07136080328277"><ele>1805.0</ele><time>2026-04-27T11:28:18.999Z</time></trkpt><trkpt lat="33.24790847921204" lon="-5.071335058071468"><ele>1805.0</ele><time>2026-04-27T11:28:19.999Z</time></trkpt><trkpt lat="33.24820040712552" lon="-5.071310834242923"><ele>1805.0</ele><time>2026-04-27T11:28:20.999Z</time></trkpt><trkpt lat="33.24849017923424" lon="-5.071287608355985"><ele>1805.0</ele><time>2026-04-27T11:28:21.999Z</time></trkpt><trkpt lat="33.24877689776568" lon="-5.071263473954256"><ele>1806.0</ele><time>2026-04-27T11:28:22.999Z</time></trkpt><trkpt lat="33.24905722666812" lon="-5.071239907197621"><ele>1807.0</ele><time>2026-04-27T11:28:23.999Z</time></trkpt><trkpt lat="33.249333454193696" lon="-5.071215679297641"><ele>1807.0</ele><time>2026-04-27T11:28:24.999Z</time></trkpt><trkpt lat="33.24960663481425" lon="-5.071192887162204"><ele>1807.0</ele><time>2026-04-27T11:28:25.999Z</time></trkpt><trkpt lat="33.24988062930214" lon="-5.071171094705411"><ele>1808.0</ele><time>2026-04-27T11:28:26.999Z</time></trkpt><trkpt lat="33.25016608810601" lon="-5.071148312857308"><ele>1809.0</ele><time>2026-04-27T11:28:27.999Z</time></trkpt><trkpt lat="33.25046100508318" lon="-5.071125618390543"><ele>1808.0</ele><time>2026-04-27T11:28:28.999Z</time></trkpt><trkpt lat="33.25076370847223" lon="-5.071101030014451"><ele>1807.0</ele><time>2026-04-27T11:28:29.999Z</time></trkpt><trkpt lat="33.251068945736264" lon="-5.071076289367687"><ele>1807.0</ele><time>2026-04-27T11:28:30.999Z</time></trkpt><trkpt lat="33.25137325639945" lon="-5.071053891484147"><ele>1807.0</ele><time>2026-04-27T11:28:31.999Z</time></trkpt><trkpt lat="33.251676734413465" lon="-5.071032192067327"><ele>1805.0</ele><time>2026-04-27T11:28:32.999Z</time></trkpt><trkpt lat="33.251982858904114" lon="-5.071007172053238"><ele>1803.0</ele><time>2026-04-27T11:28:33.999Z</time></trkpt><trkpt lat="33.25228989089732" lon="-5.070980511965897"><ele>1801.5</ele><time>2026-04-27T11:28:34.999Z</time></trkpt><trkpt lat="33.252597810582046" lon="-5.070954196254089"><ele>1800.0</ele><time>2026-04-27T11:28:35.999Z</time></trkpt><trkpt lat="33.25290466530564" lon="-5.070930492003653"><ele>1798.5</ele><time>2026-04-27T11:28:36.999Z</time></trkpt><trkpt lat="33.25320811550055" lon="-5.070906556843188"><ele>1797.0</ele><time>2026-04-27T11:28:37.999Z</time></trkpt><trkpt lat="33.253507495643156" lon="-5.070884797659635"><ele>1797.0</ele><time>2026-04-27T11:28:38.999Z</time></trkpt><trkpt lat="33.253804500229585" lon="-5.0708623468236285"><ele>1797.0</ele><time>2026-04-27T11:28:39.999Z</time></trkpt><trkpt lat="33.254098766491495" lon="-5.07084046945195"><ele>1796.5</ele><time>2026-04-27T11:28:40.999Z</time></trkpt><trkpt lat="33.25438411066687" lon="-5.070818767492443"><ele>1796.0</ele><time>2026-04-27T11:28:41.999Z</time></trkpt><trkpt lat="33.25465576173716" lon="-5.070795619425451"><ele>1795.0</ele><time>2026-04-27T11:28:42.999Z</time></trkpt><trkpt lat="33.25491746437076" lon="-5.0707718702383655"><ele>1794.0</ele><time>2026-04-27T11:28:43.999Z</time></trkpt><trkpt lat="33.25516651616547" lon="-5.070754559070516"><ele>1794.0</ele><time>2026-04-27T11:28:44.999Z</time></trkpt><trkpt lat="33.25540896737884" lon="-5.070747622804888"><ele>1794.0</ele><time>2026-04-27T11:28:45.999Z</time></trkpt><trkpt lat="33.25565696609764" lon="-5.070758816921493"><ele>1796.0</ele><time>2026-04-27T11:28:47Z</time></trkpt><trkpt lat="33.25589712212055" lon="-5.070787722995756"><ele>1798.0</ele><time>2026-04-27T11:28:48Z</time></trkpt><trkpt lat="33.256152350805834" lon="-5.070848705287419"><ele>1798.0</ele><time>2026-04-27T11:28:49Z</time></trkpt><trkpt lat="33.25640816656841" lon="-5.070937113259007"><ele>1798.0</ele><time>2026-04-27T11:28:50Z</time></trkpt><trkpt lat="33.256662659839364" lon="-5.071061342664866"><ele>1798.0</ele><time>2026-04-27T11:28:51Z</time></trkpt><trkpt lat="33.256914574029594" lon="-5.071210318405827"><ele>1798.0</ele><time>2026-04-27T11:28:52Z</time></trkpt><trkpt lat="33.257164483309" lon="-5.07138104142589"><ele>1798.5</ele><time>2026-04-27T11:28:53Z</time></trkpt><trkpt lat="33.257415776515316" lon="-5.071563175984273"><ele>1799.0</ele><time>2026-04-27T11:28:54Z</time></trkpt><trkpt lat="33.257667376202164" lon="-5.07174231536389"><ele>1799.0</ele><time>2026-04-27T11:28:55Z</time></trkpt><trkpt lat="33.25791627251576" lon="-5.071909889091459"><ele>1799.0</ele><time>2026-04-27T11:28:56Z</time></trkpt><trkpt lat="33.258168189738285" lon="-5.072063856381201"><ele>1799.5</ele><time>2026-04-27T11:28:57Z</time></trkpt><trkpt lat="33.258427253256926" lon="-5.072198322352933"><ele>1800.0</ele><time>2026-04-27T11:28:58Z</time></trkpt><trkpt lat="33.25870168929067" lon="-5.072307340626565"><ele>1801.0</ele><time>2026-04-27T11:28:59Z</time></trkpt><trkpt lat="33.25898855518756" lon="-5.072389316249917"><ele>1802.0</ele><time>2026-04-27T11:29:00Z</time></trkpt><trkpt lat="33.25928491414029" lon="-5.072439344349485"><ele>1802.5</ele><time>2026-04-27T11:29:01Z</time></trkpt><trkpt lat="33.25958578452263" lon="-5.072464035476531"><ele>1803.0</ele><time>2026-04-27T11:29:02Z</time></trkpt><trkpt lat="33.25988645774117" lon="-5.072482850060325"><ele>1805.0</ele><time>2026-04-27T11:29:03Z</time></trkpt><trkpt lat="33.260181275721244" lon="-5.0725140266718025"><ele>1807.0</ele><time>2026-04-27T11:29:04Z</time></trkpt><trkpt lat="33.26047728907516" lon="-5.072546631289268"><ele>1807.0</ele><time>2026-04-27T11:29:05Z</time></trkpt><trkpt lat="33.26078300073159" lon="-5.072572973410753"><ele>1807.0</ele><time>2026-04-27T11:29:06Z</time></trkpt><trkpt lat="33.26109579637435" lon="-5.072600409012463"><ele>1807.0</ele><time>2026-04-27T11:29:07Z</time></trkpt><trkpt lat="33.261414677612386" lon="-5.072632303754014"><ele>1807.0</ele><time>2026-04-27T11:29:08Z</time></trkpt><trkpt lat="33.261740955303935" lon="-5.072664608738873"><ele>1806.5</ele><time>2026-04-27T11:29:09Z</time></trkpt><trkpt lat="33.26207586500288" lon="-5.072695386679803"><ele>1806.0</ele><time>2026-04-27T11:29:10Z</time></trkpt><trkpt lat="33.262416219410696" lon="-5.072725606915962"><ele>1807.0</ele><time>2026-04-27T11:29:11Z</time></trkpt><trkpt lat="33.26275850897894" lon="-5.072756975977858"><ele>1808.0</ele><time>2026-04-27T11:29:12Z</time></trkpt><trkpt lat="33.263102920114996" lon="-5.072790152495763"><ele>1807.0</ele><time>2026-04-27T11:29:13Z</time></trkpt><trkpt lat="33.26344878246158" lon="-5.072825271831983"><ele>1806.0</ele><time>2026-04-27T11:29:14Z</time></trkpt><trkpt lat="33.26379482834237" lon="-5.072859047269897"><ele>1807.0</ele><time>2026-04-27T11:29:15Z</time></trkpt><trkpt lat="33.26413777830597" lon="-5.072891140321493"><ele>1808.0</ele><time>2026-04-27T11:29:16Z</time></trkpt><trkpt lat="33.26447884218286" lon="-5.072922293162858"><ele>1809.0</ele><time>2026-04-27T11:29:17Z</time></trkpt><trkpt lat="33.264813158522585" lon="-5.072952051797526"><ele>1810.0</ele><time>2026-04-27T11:29:18Z</time></trkpt><trkpt lat="33.265143827241644" lon="-5.0729817427446156"><ele>1810.0</ele><time>2026-04-27T11:29:19Z</time></trkpt><trkpt lat="33.265466989137714" lon="-5.073010594255669"><ele>1810.0</ele><time>2026-04-27T11:29:20Z</time></trkpt><trkpt lat="33.265793026331075" lon="-5.0730415168420615"><ele>1810.5</ele><time>2026-04-27T11:29:21Z</time></trkpt><trkpt lat="33.26612139317941" lon="-5.073073953768157"><ele>1811.0</ele><time>2026-04-27T11:29:22Z</time></trkpt><trkpt lat="33.266453040179194" lon="-5.0731058307296415"><ele>1812.0</ele><time>2026-04-27T11:29:23Z</time></trkpt><trkpt lat="33.266790969192854" lon="-5.073135876745736"><ele>1813.0</ele><time>2026-04-27T11:29:24Z</time></trkpt><trkpt lat="33.26712992714608" lon="-5.0731654519138045"><ele>1813.0</ele><time>2026-04-27T11:29:25Z</time></trkpt><trkpt lat="33.26746762675928" lon="-5.073197514843994"><ele>1813.0</ele><time>2026-04-27T11:29:26Z</time></trkpt><trkpt lat="33.26780830667262" lon="-5.073231296348632"><ele>1812.0</ele><time>2026-04-27T11:29:27Z</time></trkpt><trkpt lat="33.26815031038966" lon="-5.073265061103897"><ele>1811.0</ele><time>2026-04-27T11:29:28Z</time></trkpt><trkpt lat="33.26849605166147" lon="-5.073297427968013"><ele>1814.0</ele><time>2026-04-27T11:29:29Z</time></trkpt><trkpt lat="33.26884124662337" lon="-5.073330836812705"><ele>1817.0</ele><time>2026-04-27T11:29:30Z</time></trkpt><trkpt lat="33.26918080091831" lon="-5.073366931877837"><ele>1817.0</ele><time>2026-04-27T11:29:31Z</time></trkpt><trkpt lat="33.269520827960605" lon="-5.073406554310555"><ele>1817.0</ele><time>2026-04-27T11:29:32Z</time></trkpt><trkpt lat="33.26986234734996" lon="-5.073450770099483"><ele>1817.0</ele><time>2026-04-27T11:29:33Z</time></trkpt><trkpt lat="33.270203854775765" lon="-5.073497427140124"><ele>1817.0</ele><time>2026-04-27T11:29:34Z</time></trkpt><trkpt lat="33.27054444649258" lon="-5.0735466476089375"><ele>1818.5</ele><time>2026-04-27T11:29:35Z</time></trkpt><trkpt lat="33.27088623096716" lon="-5.073596625470714"><ele>1820.0</ele><time>2026-04-27T11:29:36Z</time></trkpt><trkpt lat="33.271226720111216" lon="-5.073645263731995"><ele>1820.5</ele><time>2026-04-27T11:29:37Z</time></trkpt><trkpt lat="33.27155839093429" lon="-5.073690657722765"><ele>1821.0</ele><time>2026-04-27T11:29:38Z</time></trkpt><trkpt lat="33.27187190459064" lon="-5.073734471326596"><ele>1821.0</ele><time>2026-04-27T11:29:39Z</time></trkpt><trkpt lat="33.272174895676415" lon="-5.073778385819881"><ele>1821.0</ele><time>2026-04-27T11:29:40Z</time></trkpt><trkpt lat="33.27247340769859" lon="-5.073823524295448"><ele>1822.0</ele><time>2026-04-27T11:29:41Z</time></trkpt><trkpt lat="33.27276965648936" lon="-5.073867426041103"><ele>1823.0</ele><time>2026-04-27T11:29:42Z</time></trkpt><trkpt lat="33.27306094395146" lon="-5.073908531134889"><ele>1821.0</ele><time>2026-04-27T11:29:43Z</time></trkpt><trkpt lat="33.27334574199455" lon="-5.073946269978145"><ele>1819.0</ele><time>2026-04-27T11:29:44Z</time></trkpt><trkpt lat="33.27362054685548" lon="-5.073984366399265"><ele>1819.0</ele><time>2026-04-27T11:29:44.999Z</time></trkpt><trkpt lat="33.27388193844046" lon="-5.074021982859963"><ele>1819.0</ele><time>2026-04-27T11:29:45.999Z</time></trkpt><trkpt lat="33.274134803505" lon="-5.074057878461169"><ele>1820.0</ele><time>2026-04-27T11:29:46.999Z</time></trkpt><trkpt lat="33.27437712711907" lon="-5.074092665760286"><ele>1821.0</ele><time>2026-04-27T11:29:47.999Z</time></trkpt><trkpt lat="33.27460712614478" lon="-5.07412618628561"><ele>1822.0</ele><time>2026-04-27T11:29:48.999Z</time></trkpt><trkpt lat="33.274833121892016" lon="-5.074158784474292"><ele>1823.0</ele><time>2026-04-27T11:29:49.999Z</time></trkpt><trkpt lat="33.275058406976704" lon="-5.074190798463457"><ele>1823.0</ele><time>2026-04-27T11:29:50.999Z</time></trkpt><trkpt lat="33.27528481140442" lon="-5.07422192967516"><ele>1823.0</ele><time>2026-04-27T11:29:51.999Z</time></trkpt><trkpt lat="33.27551122840739" lon="-5.074253834830111"><ele>1823.3333333333333</ele><time>2026-04-27T11:29:52.999Z</time></trkpt><trkpt lat="33.275735549499025" lon="-5.074287829998832"><ele>1823.6666666666665</ele><time>2026-04-27T11:29:53.999Z</time></trkpt><trkpt lat="33.27595323937584" lon="-5.074322254344072"><ele>1824.0</ele><time>2026-04-27T11:29:54.999Z</time></trkpt><trkpt lat="33.27615903384227" lon="-5.074356332654659"><ele>1824.0</ele><time>2026-04-27T11:29:55.999Z</time></trkpt><trkpt lat="33.27636291257089" lon="-5.074391970325509"><ele>1824.0</ele><time>2026-04-27T11:29:56.999Z</time></trkpt><trkpt lat="33.27656366201415" lon="-5.074430152330435"><ele>1824.0</ele><time>2026-04-27T11:29:57.999Z</time></trkpt><trkpt lat="33.2767618243476" lon="-5.07447021859501"><ele>1824.0</ele><time>2026-04-27T11:29:58.999Z</time></trkpt><trkpt lat="33.27695608851811" lon="-5.074510671533213"><ele>1824.0</ele><time>2026-04-27T11:29:59.999Z</time></trkpt><trkpt lat="33.27714837870901" lon="-5.074550004973665"><ele>1824.0</ele><time>2026-04-27T11:30:00.999Z</time></trkpt><trkpt lat="33.27734210254346" lon="-5.074589980262221"><ele>1823.3333333333335</ele><time>2026-04-27T11:30:01.999Z</time></trkpt><trkpt lat="33.277535277943635" lon="-5.074630990798343"><ele>1822.6666666666667</ele><time>2026-04-27T11:30:02.999Z</time></trkpt><trkpt lat="33.27771898547845" lon="-5.074669948553916"><ele>1822.0</ele><time>2026-04-27T11:30:03.999Z</time></trkpt><trkpt lat="33.277899061516436" lon="-5.074708287333572"><ele>1822.0</ele><time>2026-04-27T11:30:04.999Z</time></trkpt><trkpt lat="33.27808201553238" lon="-5.074748630202222"><ele>1822.0</ele><time>2026-04-27T11:30:05.999Z</time></trkpt><trkpt lat="33.27827070980995" lon="-5.074790918240622"><ele>1822.0</ele><time>2026-04-27T11:30:06.999Z</time></trkpt><trkpt lat="33.27846085075468" lon="-5.07483407716993"><ele>1822.0</ele><time>2026-04-27T11:30:07.999Z</time></trkpt><trkpt lat="33.278652469128296" lon="-5.0748749566037485"><ele>1822.0</ele><time>2026-04-27T11:30:08.999Z</time></trkpt><trkpt lat="33.27884504150053" lon="-5.0749161880481095"><ele>1822.0</ele><time>2026-04-27T11:30:09.999Z</time></trkpt><trkpt lat="33.279037605849" lon="-5.074959724247271"><ele>1821.6666666666667</ele><time>2026-04-27T11:30:10.999Z</time></trkpt><trkpt lat="33.27922642827862" lon="-5.075002375471753"><ele>1821.3333333333335</ele><time>2026-04-27T11:30:11.999Z</time></trkpt><trkpt lat="33.279414121289854" lon="-5.075042036191291"><ele>1821.0</ele><time>2026-04-27T11:30:12.999Z</time></trkpt><trkpt lat="33.279603282702965" lon="-5.075081527028809"><ele>1820.3333333333335</ele><time>2026-04-27T11:30:13.999Z</time></trkpt><trkpt lat="33.27979578204892" lon="-5.075122488592211"><ele>1819.6666666666667</ele><time>2026-04-27T11:30:14.999Z</time></trkpt><trkpt lat="33.27999375987594" lon="-5.0751645583553096"><ele>1819.0</ele><time>2026-04-27T11:30:15.999Z</time></trkpt><trkpt lat="33.280193229396254" lon="-5.075205963149494"><ele>1819.0</ele><time>2026-04-27T11:30:16.999Z</time></trkpt><trkpt lat="33.2803936694763" lon="-5.075248030818146"><ele>1819.0</ele><time>2026-04-27T11:30:17.999Z</time></trkpt><trkpt lat="33.28059243738784" lon="-5.075294003404414"><ele>1819.0</ele><time>2026-04-27T11:30:18.999Z</time></trkpt><trkpt lat="33.28078721070757" lon="-5.075337036502337"><ele>1818.3333333333335</ele><time>2026-04-27T11:30:19.999Z</time></trkpt><trkpt lat="33.280977147719206" lon="-5.0753799088781095"><ele>1817.6666666666665</ele><time>2026-04-27T11:30:20.999Z</time></trkpt><trkpt lat="33.281159995355836" lon="-5.0754284031279475"><ele>1817.0</ele><time>2026-04-27T11:30:21.999Z</time></trkpt><trkpt lat="33.28133998925859" lon="-5.0754690711665855"><ele>1816.0</ele><time>2026-04-27T11:30:22.999Z</time></trkpt><trkpt lat="33.28151437420302" lon="-5.075510721076716"><ele>1815.0</ele><time>2026-04-27T11:30:23.999Z</time></trkpt><trkpt lat="33.281686588167204" lon="-5.075555257364852"><ele>1814.0</ele><time>2026-04-27T11:30:24.999Z</time></trkpt><trkpt lat="33.28185896365513" lon="-5.075605399793815"><ele>1814.0</ele><time>2026-04-27T11:30:25.999Z</time></trkpt><trkpt lat="33.28203083278151" lon="-5.0756520930836375"><ele>1814.0</ele><time>2026-04-27T11:30:26.999Z</time></trkpt><trkpt lat="33.28220109306735" lon="-5.075698596520215"><ele>1814.0</ele><time>2026-04-27T11:30:27.999Z</time></trkpt><trkpt lat="33.28237153976596" lon="-5.075749173825172"><ele>1816.0</ele><time>2026-04-27T11:30:28.999Z</time></trkpt><trkpt lat="33.28254135255937" lon="-5.075799976964216"><ele>1818.0</ele><time>2026-04-27T11:30:29.999Z</time></trkpt><trkpt lat="33.28271302617661" lon="-5.075847597446305"><ele>1820.0</ele><time>2026-04-27T11:30:30.999Z</time></trkpt><trkpt lat="33.28288789405425" lon="-5.075893849273157"><ele>1820.0</ele><time>2026-04-27T11:30:31.999Z</time></trkpt><trkpt lat="33.283065982290125" lon="-5.075943353706445"><ele>1820.0</ele><time>2026-04-27T11:30:32.999Z</time></trkpt><trkpt lat="33.28324821272739" lon="-5.075990709516087"><ele>1820.0</ele><time>2026-04-27T11:30:33.999Z</time></trkpt><trkpt lat="33.283435324123765" lon="-5.076034167566202"><ele>1820.6666666666665</ele><time>2026-04-27T11:30:34.999Z</time></trkpt><trkpt lat="33.28362185302345" lon="-5.076084344279453"><ele>1821.3333333333335</ele><time>2026-04-27T11:30:35.999Z</time></trkpt><trkpt lat="33.2838052443727" lon="-5.0761333513233104"><ele>1822.0</ele><time>2026-04-27T11:30:36.999Z</time></trkpt><trkpt lat="33.283989784742644" lon="-5.076182528169664"><ele>1820.6666666666667</ele><time>2026-04-27T11:30:37.999Z</time></trkpt><trkpt lat="33.284179258144384" lon="-5.076234794448128"><ele>1819.3333333333335</ele><time>2026-04-27T11:30:38.999Z</time></trkpt><trkpt lat="33.284371511566945" lon="-5.076291505522945"><ele>1818.0</ele><time>2026-04-27T11:30:39.999Z</time></trkpt><trkpt lat="33.28455818008413" lon="-5.076349441414909"><ele>1818.0</ele><time>2026-04-27T11:30:40.999Z</time></trkpt><trkpt lat="33.28476132705787" lon="-5.0764020566760255"><ele>1818.0</ele><time>2026-04-27T11:30:41.999Z</time></trkpt><trkpt lat="33.284962786949364" lon="-5.076449576473909"><ele>1818.0</ele><time>2026-04-27T11:30:42.999Z</time></trkpt><trkpt lat="33.285165511610195" lon="-5.076500037743496"><ele>1817.6666666666665</ele><time>2026-04-27T11:30:43.999Z</time></trkpt><trkpt lat="33.285363985919275" lon="-5.0765550306550695"><ele>1817.3333333333333</ele><time>2026-04-27T11:30:44.999Z</time></trkpt><trkpt lat="33.28555929906151" lon="-5.076607226743554"><ele>1817.0</ele><time>2026-04-27T11:30:45.999Z</time></trkpt><trkpt lat="33.285745144288455" lon="-5.076654424589977"><ele>1819.3333333333333</ele><time>2026-04-27T11:30:46.999Z</time></trkpt><trkpt lat="33.28592275350157" lon="-5.076700881720636"><ele>1821.6666666666665</ele><time>2026-04-27T11:30:47.999Z</time></trkpt><trkpt lat="33.286090476566635" lon="-5.076744402677889"><ele>1824.0</ele><time>2026-04-27T11:30:48.999Z</time></trkpt><trkpt lat="33.286257765854096" lon="-5.076789919856786"><ele>1824.0</ele><time>2026-04-27T11:30:49.999Z</time></trkpt><trkpt lat="33.28642528709594" lon="-5.076834000195858"><ele>1824.0</ele><time>2026-04-27T11:30:50.999Z</time></trkpt><trkpt lat="33.28659810146413" lon="-5.0768783598603004"><ele>1824.0</ele><time>2026-04-27T11:30:52Z</time></trkpt><trkpt lat="33.28677775735264" lon="-5.076925144413317"><ele>1824.0</ele><time>2026-04-27T11:30:53Z</time></trkpt><trkpt lat="33.286963289136985" lon="-5.076972117139202"><ele>1824.0</ele><time>2026-04-27T11:30:54Z</time></trkpt><trkpt lat="33.287146969011616" lon="-5.077018568292414"><ele>1824.0</ele><time>2026-04-27T11:30:55Z</time></trkpt><trkpt lat="33.28732457434865" lon="-5.0770661464304325"><ele>1824.6666666666665</ele><time>2026-04-27T11:30:56Z</time></trkpt><trkpt lat="33.28749486572545" lon="-5.077114187886322"><ele>1825.3333333333333</ele><time>2026-04-27T11:30:57Z</time></trkpt><trkpt lat="33.28766478870392" lon="-5.0771596793884175"><ele>1826.0</ele><time>2026-04-27T11:30:58Z</time></trkpt><trkpt lat="33.28783619652901" lon="-5.077203983613367"><ele>1826.0</ele><time>2026-04-27T11:30:59Z</time></trkpt><trkpt lat="33.288009672708654" lon="-5.077250305343994"><ele>1826.0</ele><time>2026-04-27T11:31:00Z</time></trkpt><trkpt lat="33.28818326740133" lon="-5.07730073905949"><ele>1826.0</ele><time>2026-04-27T11:31:01Z</time></trkpt><trkpt lat="33.288356368050955" lon="-5.077356188977545"><ele>1826.0</ele><time>2026-04-27T11:31:02Z</time></trkpt><trkpt lat="33.288529829605224" lon="-5.077420101629745"><ele>1826.0</ele><time>2026-04-27T11:31:03Z</time></trkpt><trkpt lat="33.28869962399947" lon="-5.077497400535881"><ele>1826.0</ele><time>2026-04-27T11:31:04Z</time></trkpt><trkpt lat="33.28886576002414" lon="-5.077590917270198"><ele>1828.0</ele><time>2026-04-27T11:31:05Z</time></trkpt><trkpt lat="33.28902614201831" lon="-5.077694828046767"><ele>1830.0</ele><time>2026-04-27T11:31:06Z</time></trkpt><trkpt lat="33.28918287969365" lon="-5.077805884944501"><ele>1832.0</ele><time>2026-04-27T11:31:07Z</time></trkpt><trkpt lat="33.28933554859843" lon="-5.07791947837617"><ele>1832.0</ele><time>2026-04-27T11:31:08Z</time></trkpt><trkpt lat="33.28948542788418" lon="-5.078031067513808"><ele>1832.0</ele><time>2026-04-27T11:31:09Z</time></trkpt><trkpt lat="33.289628822695505" lon="-5.078138423854843"><ele>1832.0</ele><time>2026-04-27T11:31:10Z</time></trkpt><trkpt lat="33.28976844574454" lon="-5.078247716515639"><ele>1834.0</ele><time>2026-04-27T11:31:11Z</time></trkpt><trkpt lat="33.28990453893092" lon="-5.078364564628763"><ele>1836.0</ele><time>2026-04-27T11:31:12Z</time></trkpt><trkpt lat="33.2900347532902" lon="-5.07849138613552"><ele>1838.0</ele><time>2026-04-27T11:31:13Z</time></trkpt><trkpt lat="33.290155509201554" lon="-5.078631114012613"><ele>1838.0</ele><time>2026-04-27T11:31:14Z</time></trkpt><trkpt lat="33.290277470385504" lon="-5.07877985213784"><ele>1838.0</ele><time>2026-04-27T11:31:15Z</time></trkpt><trkpt lat="33.29039912793286" lon="-5.078934127227278"><ele>1838.0</ele><time>2026-04-27T11:31:16Z</time></trkpt><trkpt lat="33.29052053755828" lon="-5.07909256392025"><ele>1838.3333333333333</ele><time>2026-04-27T11:31:17Z</time></trkpt><trkpt lat="33.29064117697693" lon="-5.079250594607396"><ele>1838.6666666666665</ele><time>2026-04-27T11:31:18Z</time></trkpt><trkpt lat="33.29075873928964" lon="-5.079410773910126"><ele>1839.0</ele><time>2026-04-27T11:31:19Z</time></trkpt><trkpt lat="33.29087843503669" lon="-5.079573184742067"><ele>1839.0</ele><time>2026-04-27T11:31:20Z</time></trkpt><trkpt lat="33.29099879357346" lon="-5.079738684121828"><ele>1839.0</ele><time>2026-04-27T11:31:21Z</time></trkpt><trkpt lat="33.29112155638142" lon="-5.079913044377891"><ele>1839.0</ele><time>2026-04-27T11:31:22Z</time></trkpt><trkpt lat="33.291239633183004" lon="-5.080096837497864"><ele>1839.0</ele><time>2026-04-27T11:31:23Z</time></trkpt><trkpt lat="33.291354903735844" lon="-5.080288105422555"><ele>1839.0</ele><time>2026-04-27T11:31:24Z</time></trkpt><trkpt lat="33.291468956285094" lon="-5.080480384231968"><ele>1839.0</ele><time>2026-04-27T11:31:25Z</time></trkpt><trkpt lat="33.29157999542046" lon="-5.080672786269459"><ele>1839.6666666666665</ele><time>2026-04-27T11:31:26Z</time></trkpt><trkpt lat="33.29168894594128" lon="-5.0808619878193495"><ele>1840.3333333333333</ele><time>2026-04-27T11:31:27Z</time></trkpt><trkpt lat="33.29179508867489" lon="-5.081047600438716"><ele>1841.0</ele><time>2026-04-27T11:31:28Z</time></trkpt><trkpt lat="33.29189858854352" lon="-5.081231615212286"><ele>1841.0</ele><time>2026-04-27T11:31:29Z</time></trkpt><trkpt lat="33.29200095399405" lon="-5.081417781811494"><ele>1841.0</ele><time>2026-04-27T11:31:30Z</time></trkpt><trkpt lat="33.292102838262764" lon="-5.081600163494261"><ele>1841.0</ele><time>2026-04-27T11:31:31Z</time></trkpt><trkpt lat="33.29220375256821" lon="-5.081781662997806"><ele>1842.0</ele><time>2026-04-27T11:31:32Z</time></trkpt><trkpt lat="33.292306929227564" lon="-5.081965494643917"><ele>1843.0</ele><time>2026-04-27T11:31:33Z</time></trkpt><trkpt lat="33.29241002762317" lon="-5.082148639706217"><ele>1844.0</ele><time>2026-04-27T11:31:34Z</time></trkpt><trkpt lat="33.29251144908235" lon="-5.082334711912234"><ele>1844.6666666666665</ele><time>2026-04-27T11:31:35Z</time></trkpt><trkpt lat="33.292609973785204" lon="-5.082520975224639"><ele>1845.3333333333335</ele><time>2026-04-27T11:31:36Z</time></trkpt><trkpt lat="33.292709902823894" lon="-5.082703576586359"><ele>1846.0</ele><time>2026-04-27T11:31:37Z</time></trkpt><trkpt lat="33.292811496602454" lon="-5.082883598057063"><ele>1846.0</ele><time>2026-04-27T11:31:38Z</time></trkpt><trkpt lat="33.29291354715713" lon="-5.083064341142289"><ele>1846.0</ele><time>2026-04-27T11:31:39Z</time></trkpt><trkpt lat="33.293014737704205" lon="-5.083246325615562"><ele>1846.0</ele><time>2026-04-27T11:31:40Z</time></trkpt><trkpt lat="33.29311522571365" lon="-5.083426180769729"><ele>1846.6666666666667</ele><time>2026-04-27T11:31:41Z</time></trkpt><trkpt lat="33.29321308589257" lon="-5.083608033951975"><ele>1847.3333333333335</ele><time>2026-04-27T11:31:42Z</time></trkpt><trkpt lat="33.29331661077757" lon="-5.083794246517419"><ele>1848.0</ele><time>2026-04-27T11:31:43Z</time></trkpt><trkpt lat="33.293427015363896" lon="-5.083992212099107"><ele>1849.3333333333335</ele><time>2026-04-27T11:31:44Z</time></trkpt><trkpt lat="33.29353976279198" lon="-5.084207779993565"><ele>1850.6666666666667</ele><time>2026-04-27T11:31:45Z</time></trkpt><trkpt lat="33.29366631712104" lon="-5.084405533827714"><ele>1852.0</ele><time>2026-04-27T11:31:46Z</time></trkpt><trkpt lat="33.29381528984335" lon="-5.0846712891325"><ele>1853.0</ele><time>2026-04-27T11:31:47Z</time></trkpt><trkpt lat="33.293963068134275" lon="-5.084933434496226"><ele>1854.0</ele><time>2026-04-27T11:31:48Z</time></trkpt><trkpt lat="33.29410585623982" lon="-5.085219725605911"><ele>1854.0</ele><time>2026-04-27T11:31:49Z</time></trkpt><trkpt lat="33.294274626699234" lon="-5.08550558560249"><ele>1854.0</ele><time>2026-04-27T11:31:50Z</time></trkpt><trkpt lat="33.294446708945735" lon="-5.085797754235114"><ele>1854.5</ele><time>2026-04-27T11:31:50.999Z</time></trkpt><trkpt lat="33.29462050032174" lon="-5.0860956398819654"><ele>1855.0</ele><time>2026-04-27T11:31:51.999Z</time></trkpt><trkpt lat="33.294789759224884" lon="-5.086391723867901"><ele>1855.5</ele><time>2026-04-27T11:31:52.999Z</time></trkpt><trkpt lat="33.29495636651534" lon="-5.086688903244985"><ele>1856.0</ele><time>2026-04-27T11:31:53.999Z</time></trkpt><trkpt lat="33.29512378094474" lon="-5.086989687501631"><ele>1856.0</ele><time>2026-04-27T11:31:54.999Z</time></trkpt><trkpt lat="33.295291712788526" lon="-5.087290194382875"><ele>1856.0</ele><time>2026-04-27T11:31:55.999Z</time></trkpt><trkpt lat="33.29546147639563" lon="-5.087597521968594"><ele>1856.0</ele><time>2026-04-27T11:31:56.999Z</time></trkpt><trkpt lat="33.29563371936097" lon="-5.087919033183814"><ele>1856.0</ele><time>2026-04-27T11:31:57.999Z</time></trkpt><trkpt lat="33.29580807318792" lon="-5.088250562586502"><ele>1856.0</ele><time>2026-04-27T11:31:58.999Z</time></trkpt><trkpt lat="33.29598357584564" lon="-5.088589047025831"><ele>1856.0</ele><time>2026-04-27T11:31:59.999Z</time></trkpt><trkpt lat="33.29616241045382" lon="-5.088934388254249"><ele>1856.0</ele><time>2026-04-27T11:32:00.999Z</time></trkpt><trkpt lat="33.29633996727294" lon="-5.089278172780366"><ele>1856.0</ele><time>2026-04-27T11:32:01.999Z</time></trkpt><trkpt lat="33.29651489954717" lon="-5.08961823022481"><ele>1856.0</ele><time>2026-04-27T11:32:02.999Z</time></trkpt><trkpt lat="33.29668723438806" lon="-5.0899517130642336"><ele>1856.0</ele><time>2026-04-27T11:32:03.999Z</time></trkpt><trkpt lat="33.29685747896063" lon="-5.090279932029417"><ele>1856.0</ele><time>2026-04-27T11:32:04.999Z</time></trkpt><trkpt lat="33.29702628585344" lon="-5.09060655796034"><ele>1856.0</ele><time>2026-04-27T11:32:05.999Z</time></trkpt><trkpt lat="33.297197011192175" lon="-5.090938520469771"><ele>1855.0</ele><time>2026-04-27T11:32:06.999Z</time></trkpt><trkpt lat="33.297367420981594" lon="-5.09127308032536"><ele>1854.0</ele><time>2026-04-27T11:32:07.999Z</time></trkpt><trkpt lat="33.2975362071108" lon="-5.091605515602297"><ele>1854.0</ele><time>2026-04-27T11:32:08.999Z</time></trkpt><trkpt lat="33.297708604269694" lon="-5.091941338524828"><ele>1854.0</ele><time>2026-04-27T11:32:09.999Z</time></trkpt><trkpt lat="33.29788755353435" lon="-5.092285852149425"><ele>1855.5</ele><time>2026-04-27T11:32:10.999Z</time></trkpt><trkpt lat="33.29806839568971" lon="-5.092635087869497"><ele>1857.0</ele><time>2026-04-27T11:32:11.999Z</time></trkpt><trkpt lat="33.298247960617296" lon="-5.092985788442172"><ele>1856.5</ele><time>2026-04-27T11:32:12.999Z</time></trkpt><trkpt lat="33.298425909718496" lon="-5.093336132175739"><ele>1856.0</ele><time>2026-04-27T11:32:13.999Z</time></trkpt><trkpt lat="33.29860447915013" lon="-5.0936860605004535"><ele>1856.0</ele><time>2026-04-27T11:32:14.999Z</time></trkpt><trkpt lat="33.29878600859442" lon="-5.094037351491373"><ele>1856.0</ele><time>2026-04-27T11:32:15.999Z</time></trkpt><trkpt lat="33.298967590257305" lon="-5.094390703810693"><ele>1855.5</ele><time>2026-04-27T11:32:16.999Z</time></trkpt><trkpt lat="33.299147131751816" lon="-5.094739874380159"><ele>1855.0</ele><time>2026-04-27T11:32:17.999Z</time></trkpt><trkpt lat="33.29932375170521" lon="-5.095085995629983"><ele>1855.0</ele><time>2026-04-27T11:32:18.999Z</time></trkpt><trkpt lat="33.29950063273737" lon="-5.095428356919476"><ele>1855.0</ele><time>2026-04-27T11:32:19.999Z</time></trkpt><trkpt lat="33.29968647455002" lon="-5.09575764112727"><ele>1853.5</ele><time>2026-04-27T11:32:20.999Z</time></trkpt><trkpt lat="33.29989227505788" lon="-5.096068392315555"><ele>1852.0</ele><time>2026-04-27T11:32:21.999Z</time></trkpt><trkpt lat="33.30011481506492" lon="-5.096356395466502"><ele>1852.5</ele><time>2026-04-27T11:32:22.999Z</time></trkpt><trkpt lat="33.30033794475972" lon="-5.096613297651696"><ele>1853.0</ele><time>2026-04-27T11:32:23.999Z</time></trkpt><trkpt lat="33.30054643500606" lon="-5.096845414253378"><ele>1852.5</ele><time>2026-04-27T11:32:24.999Z</time></trkpt><trkpt lat="33.30073368144471" lon="-5.097061884451369"><ele>1852.0</ele><time>2026-04-27T11:32:25.999Z</time></trkpt><trkpt lat="33.30091335381954" lon="-5.097277619899628"><ele>1854.5</ele><time>2026-04-27T11:32:26.999Z</time></trkpt><trkpt lat="33.301084032825344" lon="-5.097506081347435"><ele>1857.0</ele><time>2026-04-27T11:32:27.999Z</time></trkpt><trkpt lat="33.301239132351" lon="-5.097757415002789"><ele>1857.0</ele><time>2026-04-27T11:32:28.999Z</time></trkpt><trkpt lat="33.301399417662374" lon="-5.098004327983409"><ele>1857.0</ele><time>2026-04-27T11:32:29.999Z</time></trkpt><trkpt lat="33.30155467658807" lon="-5.0982549230712255"><ele>1856.5</ele><time>2026-04-27T11:32:30.999Z</time></trkpt><trkpt lat="33.30166100394007" lon="-5.098550832107593"><ele>1856.0</ele><time>2026-04-27T11:32:31.999Z</time></trkpt><trkpt lat="33.301797908594004" lon="-5.098814542232451"><ele>1856.0</ele><time>2026-04-27T11:32:32.999Z</time></trkpt><trkpt lat="33.30192678823824" lon="-5.099081093267645"><ele>1856.0</ele><time>2026-04-27T11:32:33.999Z</time></trkpt><trkpt lat="33.30204716623663" lon="-5.099361291273549"><ele>1857.5</ele><time>2026-04-27T11:32:34.999Z</time></trkpt><trkpt lat="33.30215396080693" lon="-5.099657899942143"><ele>1859.0</ele><time>2026-04-27T11:32:35.999Z</time></trkpt><trkpt lat="33.30224752843507" lon="-5.099977677158474"><ele>1860.0</ele><time>2026-04-27T11:32:36.999Z</time></trkpt><trkpt lat="33.302332460726845" lon="-5.100293140307596"><ele>1861.0</ele><time>2026-04-27T11:32:37.999Z</time></trkpt><trkpt lat="33.30241698558815" lon="-5.100609123457265"><ele>1861.5</ele><time>2026-04-27T11:32:38.999Z</time></trkpt><trkpt lat="33.30250450307952" lon="-5.100929977784803"><ele>1862.0</ele><time>2026-04-27T11:32:39.999Z</time></trkpt><trkpt lat="33.302591445344845" lon="-5.101255809539927"><ele>1862.5</ele><time>2026-04-27T11:32:40.999Z</time></trkpt><trkpt lat="33.3026745137481" lon="-5.101582756461694"><ele>1863.0</ele><time>2026-04-27T11:32:41.999Z</time></trkpt><trkpt lat="33.30275754010213" lon="-5.101910383735062"><ele>1863.0</ele><time>2026-04-27T11:32:42.999Z</time></trkpt><trkpt lat="33.302842888702216" lon="-5.1022421666962146"><ele>1863.0</ele><time>2026-04-27T11:32:43.999Z</time></trkpt><trkpt lat="33.30293362813749" lon="-5.102573719450077"><ele>1863.0</ele><time>2026-04-27T11:32:44.999Z</time></trkpt><trkpt lat="33.30303513167594" lon="-5.10290257457875"><ele>1863.0</ele><time>2026-04-27T11:32:45.999Z</time></trkpt><trkpt lat="33.30315537069294" lon="-5.103225061174528"><ele>1864.0</ele><time>2026-04-27T11:32:46.999Z</time></trkpt><trkpt lat="33.303292434496456" lon="-5.103531313647627"><ele>1865.0</ele><time>2026-04-27T11:32:47.999Z</time></trkpt><trkpt lat="33.30344144991567" lon="-5.10382171166741"><ele>1866.0</ele><time>2026-04-27T11:32:48.999Z</time></trkpt><trkpt lat="33.30359140842294" lon="-5.1041027607804015"><ele>1867.0</ele><time>2026-04-27T11:32:49.999Z</time></trkpt><trkpt lat="33.30373584569916" lon="-5.104386201056974"><ele>1867.0</ele><time>2026-04-27T11:32:50.999Z</time></trkpt><trkpt lat="33.30388041953249" lon="-5.104670406660479"><ele>1867.0</ele><time>2026-04-27T11:32:51.999Z</time></trkpt><trkpt lat="33.304027084705446" lon="-5.104946799391179"><ele>1867.0</ele><time>2026-04-27T11:32:52.999Z</time></trkpt><trkpt lat="33.30417926190424" lon="-5.10521111588395"><ele>1867.0</ele><time>2026-04-27T11:32:53.999Z</time></trkpt><trkpt lat="33.30433205680555" lon="-5.105465856496922"><ele>1867.0</ele><time>2026-04-27T11:32:54.999Z</time></trkpt><trkpt lat="33.30448359156128" lon="-5.105723003900521"><ele>1867.0</ele><time>2026-04-27T11:32:55.999Z</time></trkpt><trkpt lat="33.30463730374893" lon="-5.105985918858498"><ele>1866.5</ele><time>2026-04-27T11:32:56.999Z</time></trkpt><trkpt lat="33.30478822239289" lon="-5.106243257350502"><ele>1866.0</ele><time>2026-04-27T11:32:58Z</time></trkpt><trkpt lat="33.304938395751776" lon="-5.106496963904525"><ele>1865.0</ele><time>2026-04-27T11:32:59Z</time></trkpt><trkpt lat="33.305085113429925" lon="-5.106746562703547"><ele>1864.0</ele><time>2026-04-27T11:33:00Z</time></trkpt><trkpt lat="33.30523195192121" lon="-5.106994226825988"><ele>1864.0</ele><time>2026-04-27T11:33:01Z</time></trkpt><trkpt lat="33.3053784826001" lon="-5.107241968372878"><ele>1864.0</ele><time>2026-04-27T11:33:02Z</time></trkpt><trkpt lat="33.30553038855197" lon="-5.107496088335564"><ele>1863.0</ele><time>2026-04-27T11:33:03Z</time></trkpt><trkpt lat="33.30568689234505" lon="-5.107755097941184"><ele>1862.0</ele><time>2026-04-27T11:33:04Z</time></trkpt><trkpt lat="33.305848794999285" lon="-5.108015887608469"><ele>1862.5</ele><time>2026-04-27T11:33:05Z</time></trkpt><trkpt lat="33.30601436523138" lon="-5.108277384138704"><ele>1863.0</ele><time>2026-04-27T11:33:06Z</time></trkpt><trkpt lat="33.30618726396981" lon="-5.108540831089327"><ele>1863.0</ele><time>2026-04-27T11:33:07Z</time></trkpt><trkpt lat="33.30636581190832" lon="-5.1087980588489526"><ele>1863.0</ele><time>2026-04-27T11:33:08Z</time></trkpt><trkpt lat="33.30655237704079" lon="-5.109047027832501"><ele>1863.5</ele><time>2026-04-27T11:33:09Z</time></trkpt><trkpt lat="33.30674453167125" lon="-5.10929390180861"><ele>1864.0</ele><time>2026-04-27T11:33:10Z</time></trkpt><trkpt lat="33.30694337704878" lon="-5.109546695241781"><ele>1864.0</ele><time>2026-04-27T11:33:11Z</time></trkpt><trkpt lat="33.30714576779207" lon="-5.109804592300422"><ele>1864.0</ele><time>2026-04-27T11:33:12Z</time></trkpt><trkpt lat="33.30733011158449" lon="-5.110034926607565"><ele>1864.0</ele><time>2026-04-27T11:33:13Z</time></trkpt><trkpt lat="33.30750008789508" lon="-5.110249183459219"><ele>1864.0</ele><time>2026-04-27T11:33:14Z</time></trkpt><trkpt lat="33.30766320352573" lon="-5.110455953504789"><ele>1864.0</ele><time>2026-04-27T11:33:15Z</time></trkpt><trkpt lat="33.30781931360489" lon="-5.1106573564495275"><ele>1864.0</ele><time>2026-04-27T11:33:16Z</time></trkpt><trkpt lat="33.307976209387405" lon="-5.110855613649432"><ele>1866.6666666666667</ele><time>2026-04-27T11:33:17Z</time></trkpt><trkpt lat="33.30813040010075" lon="-5.1110488869334985"><ele>1869.3333333333335</ele><time>2026-04-27T11:33:18Z</time></trkpt><trkpt lat="33.30828467598795" lon="-5.111242818224891"><ele>1872.0</ele><time>2026-04-27T11:33:19Z</time></trkpt><trkpt lat="33.30843950294732" lon="-5.111438524412767"><ele>1874.0</ele><time>2026-04-27T11:33:20Z</time></trkpt><trkpt lat="33.30859849609011" lon="-5.111641049121479"><ele>1876.0</ele><time>2026-04-27T11:33:21Z</time></trkpt><trkpt lat="33.30875632147904" lon="-5.111844812244402"><ele>1874.0</ele><time>2026-04-27T11:33:22Z</time></trkpt><trkpt lat="33.308915487940006" lon="-5.112047535717504"><ele>1872.0</ele><time>2026-04-27T11:33:23Z</time></trkpt><trkpt lat="33.30907395045508" lon="-5.112245576989204"><ele>1875.0</ele><time>2026-04-27T11:33:24Z</time></trkpt><trkpt lat="33.309230011858396" lon="-5.112448737064442"><ele>1878.0</ele><time>2026-04-27T11:33:25Z</time></trkpt><trkpt lat="33.3093809569029" lon="-5.112651749472638"><ele>1878.0</ele><time>2026-04-27T11:33:26Z</time></trkpt><trkpt lat="33.309533187920096" lon="-5.112849040753648"><ele>1878.0</ele><time>2026-04-27T11:33:27Z</time></trkpt><trkpt lat="33.309686394120504" lon="-5.113049380642667"><ele>1880.0</ele><time>2026-04-27T11:33:28Z</time></trkpt><trkpt lat="33.309847107578676" lon="-5.113257539904522"><ele>1882.0</ele><time>2026-04-27T11:33:29Z</time></trkpt><trkpt lat="33.31001613649521" lon="-5.113471602041813"><ele>1882.0</ele><time>2026-04-27T11:33:30Z</time></trkpt><trkpt lat="33.31018654458038" lon="-5.113700381880955"><ele>1882.0</ele><time>2026-04-27T11:33:31Z</time></trkpt><trkpt lat="33.31036813384601" lon="-5.11394566312955"><ele>1882.5</ele><time>2026-04-27T11:33:32Z</time></trkpt><trkpt lat="33.31055255188216" lon="-5.114191780332582"><ele>1883.0</ele><time>2026-04-27T11:33:33Z</time></trkpt><trkpt lat="33.31075025993884" lon="-5.114445983722462"><ele>1883.0</ele><time>2026-04-27T11:33:34Z</time></trkpt><trkpt lat="33.310944068529494" lon="-5.114680098924506"><ele>1883.0</ele><time>2026-04-27T11:33:35Z</time></trkpt><trkpt lat="33.31114064736962" lon="-5.114895818458441"><ele>1884.5</ele><time>2026-04-27T11:33:36Z</time></trkpt><trkpt lat="33.31134414136249" lon="-5.115092808528616"><ele>1886.0</ele><time>2026-04-27T11:33:37Z</time></trkpt><trkpt lat="33.311557897506496" lon="-5.115275606713149"><ele>1886.0</ele><time>2026-04-27T11:33:38Z</time></trkpt><trkpt lat="33.31177845973978" lon="-5.115456044061756"><ele>1886.0</ele><time>2026-04-27T11:33:39Z</time></trkpt><trkpt lat="33.31201103631658" lon="-5.11562825814254"><ele>1890.5</ele><time>2026-04-27T11:33:40Z</time></trkpt><trkpt lat="33.31225223899149" lon="-5.115789682407309"><ele>1895.0</ele><time>2026-04-27T11:33:41Z</time></trkpt><trkpt lat="33.31249606694819" lon="-5.115937219817766"><ele>1895.0</ele><time>2026-04-27T11:33:42Z</time></trkpt><trkpt lat="33.31272149232568" lon="-5.116067617053853"><ele>1895.0</ele><time>2026-04-27T11:33:43Z</time></trkpt><trkpt lat="33.3129255728583" lon="-5.116184877395857"><ele>1896.0</ele><time>2026-04-27T11:33:44Z</time></trkpt><trkpt lat="33.313111397451856" lon="-5.116290549561362"><ele>1897.0</ele><time>2026-04-27T11:33:45Z</time></trkpt><trkpt lat="33.31328772871912" lon="-5.116391315432664"><ele>1898.0</ele><time>2026-04-27T11:33:46Z</time></trkpt><trkpt lat="33.31345373467193" lon="-5.116486913508817"><ele>1899.3333333333333</ele><time>2026-04-27T11:33:47Z</time></trkpt><trkpt lat="33.31361710327926" lon="-5.116580551367178"><ele>1900.6666666666665</ele><time>2026-04-27T11:33:48Z</time></trkpt><trkpt lat="33.313777282688626" lon="-5.116671973200309"><ele>1902.0</ele><time>2026-04-27T11:33:49Z</time></trkpt><trkpt lat="33.313932345262856" lon="-5.116762563600585"><ele>1902.3333333333335</ele><time>2026-04-27T11:33:50Z</time></trkpt><trkpt lat="33.31408478845056" lon="-5.116849292619683"><ele>1902.6666666666667</ele><time>2026-04-27T11:33:51Z</time></trkpt><trkpt lat="33.314230140533866" lon="-5.116929488453192"><ele>1903.0</ele><time>2026-04-27T11:33:52Z</time></trkpt><trkpt lat="33.314362366742664" lon="-5.117001921480046"><ele>1903.0</ele><time>2026-04-27T11:33:53Z</time></trkpt><trkpt lat="33.31447344870094" lon="-5.1170631381557925"><ele>1903.0000000000002</ele><time>2026-04-27T11:33:53.999Z</time></trkpt><trkpt lat="33.31457589988352" lon="-5.117119523022624"><ele>1903.0000000000002</ele><time>2026-04-27T11:33:54.999Z</time></trkpt><trkpt lat="33.31467153291694" lon="-5.117172123763565"><ele>1903.0</ele><time>2026-04-27T11:33:55.999Z</time></trkpt><trkpt lat="33.31475823856691" lon="-5.117221659959692"><ele>1903.0</ele><time>2026-04-27T11:33:56.999Z</time></trkpt><trkpt lat="33.314847393104046" lon="-5.117272850512372"><ele>1903.6000000000001</ele><time>2026-04-27T11:33:57.999Z</time></trkpt><trkpt lat="33.31493422497552" lon="-5.117325436161253"><ele>1904.2000000000003</ele><time>2026-04-27T11:33:58.999Z</time></trkpt><trkpt lat="33.31502115527723" lon="-5.117379887070865"><ele>1904.8</ele><time>2026-04-27T11:33:59.999Z</time></trkpt><trkpt lat="33.31510621549115" lon="-5.117433777855586"><ele>1905.4</ele><time>2026-04-27T11:34:00.999Z</time></trkpt><trkpt lat="33.31518883524748" lon="-5.117488792444386"><ele>1906.0</ele><time>2026-04-27T11:34:01.999Z</time></trkpt><trkpt lat="33.31526934134184" lon="-5.117544918188764"><ele>1907.0</ele><time>2026-04-27T11:34:02.999Z</time></trkpt><trkpt lat="33.31534809434501" lon="-5.117600001612123"><ele>1908.0</ele><time>2026-04-27T11:34:03.999Z</time></trkpt><trkpt lat="33.315427145741594" lon="-5.117655070837591"><ele>1909.0</ele><time>2026-04-27T11:34:04.999Z</time></trkpt><trkpt lat="33.31550613202495" lon="-5.117712377915837"><ele>1910.0</ele><time>2026-04-27T11:34:05.999Z</time></trkpt><trkpt lat="33.3155839416391" lon="-5.117775890084367"><ele>1911.0</ele><time>2026-04-27T11:34:06.999Z</time></trkpt><trkpt lat="33.31566834398451" lon="-5.117843045695914"><ele>1911.1999999999998</ele><time>2026-04-27T11:34:07.999Z</time></trkpt><trkpt lat="33.315758110021626" lon="-5.117916715380798"><ele>1911.3999999999999</ele><time>2026-04-27T11:34:08.999Z</time></trkpt><trkpt lat="33.31584612277896" lon="-5.117997789604652"><ele>1911.6</ele><time>2026-04-27T11:34:09.999Z</time></trkpt><trkpt lat="33.31593395846826" lon="-5.118079533456668"><ele>1911.8</ele><time>2026-04-27T11:34:10.999Z</time></trkpt><trkpt lat="33.31601732796543" lon="-5.1181626162818095"><ele>1912.0</ele><time>2026-04-27T11:34:11.999Z</time></trkpt><trkpt lat="33.316093185047194" lon="-5.118243515074068"><ele>1912.3999999999999</ele><time>2026-04-27T11:34:12.999Z</time></trkpt><trkpt lat="33.3161654947671" lon="-5.1183230719868735"><ele>1912.7999999999997</ele><time>2026-04-27T11:34:13.999Z</time></trkpt><trkpt lat="33.31623652414498" lon="-5.1184017918527145"><ele>1913.2</ele><time>2026-04-27T11:34:14.999Z</time></trkpt><trkpt lat="33.3163044509071" lon="-5.118482454390019"><ele>1913.6</ele><time>2026-04-27T11:34:15.999Z</time></trkpt><trkpt lat="33.316369920312006" lon="-5.118562858217358"><ele>1914.0</ele><time>2026-04-27T11:34:16.999Z</time></trkpt><trkpt lat="33.316437326220246" lon="-5.11864404321975"><ele>1914.0</ele><time>2026-04-27T11:34:17.999Z</time></trkpt><trkpt lat="33.316504205454784" lon="-5.118725899508648"><ele>1914.0</ele><time>2026-04-27T11:34:18.999Z</time></trkpt><trkpt lat="33.31656810391908" lon="-5.118808974638482"><ele>1914.0</ele><time>2026-04-27T11:34:19.999Z</time></trkpt><trkpt lat="33.31663047132794" lon="-5.118893433765657"><ele>1914.0</ele><time>2026-04-27T11:34:20.999Z</time></trkpt><trkpt lat="33.31669393527201" lon="-5.118979055282965"><ele>1914.0</ele><time>2026-04-27T11:34:21.999Z</time></trkpt><trkpt lat="33.316758622188516" lon="-5.11906462788395"><ele>1914.8000000000002</ele><time>2026-04-27T11:34:22.999Z</time></trkpt><trkpt lat="33.31682256625525" lon="-5.119151687075523"><ele>1915.6000000000001</ele><time>2026-04-27T11:34:23.999Z</time></trkpt><trkpt lat="33.31689058336767" lon="-5.119240354255177"><ele>1916.4</ele><time>2026-04-27T11:34:24.999Z</time></trkpt><trkpt lat="33.3169624355566" lon="-5.119335496245853"><ele>1917.2</ele><time>2026-04-27T11:34:25.999Z</time></trkpt><trkpt lat="33.3170453804689" lon="-5.1194510200992935"><ele>1918.0</ele><time>2026-04-27T11:34:26.999Z</time></trkpt><trkpt lat="33.31713582034672" lon="-5.119578768570932"><ele>1918.0</ele><time>2026-04-27T11:34:27.999Z</time></trkpt><trkpt lat="33.317221419086884" lon="-5.119691793711536"><ele>1918.0</ele><time>2026-04-27T11:34:28.999Z</time></trkpt><trkpt lat="33.31730535816529" lon="-5.119805146293178"><ele>1918.0</ele><time>2026-04-27T11:34:29.999Z</time></trkpt><trkpt lat="33.31738434946279" lon="-5.119915356929084"><ele>1918.0</ele><time>2026-04-27T11:34:30.999Z</time></trkpt><trkpt lat="33.31746562018927" lon="-5.1200245316481885"><ele>1918.25</ele><time>2026-04-27T11:34:31.999Z</time></trkpt><trkpt lat="33.31755033805135" lon="-5.120139965545436"><ele>1918.5</ele><time>2026-04-27T11:34:32.999Z</time></trkpt><trkpt lat="33.31763915731525" lon="-5.120258889788652"><ele>1918.75</ele><time>2026-04-27T11:34:33.999Z</time></trkpt><trkpt lat="33.317740650138454" lon="-5.120365188442762"><ele>1919.0</ele><time>2026-04-27T11:34:34.999Z</time></trkpt><trkpt lat="33.31782614039051" lon="-5.120478578294261"><ele>1919.0</ele><time>2026-04-27T11:34:35.999Z</time></trkpt><trkpt lat="33.31791033838355" lon="-5.120590359740213"><ele>1919.0</ele><time>2026-04-27T11:34:36.999Z</time></trkpt><trkpt lat="33.31799297091148" lon="-5.1207000628704336"><ele>1919.0</ele><time>2026-04-27T11:34:37.999Z</time></trkpt><trkpt lat="33.31807260521571" lon="-5.120805785551847"><ele>1919.0</ele><time>2026-04-27T11:34:38.999Z</time></trkpt><trkpt lat="33.31814865653963" lon="-5.120906751460258"><ele>1919.75</ele><time>2026-04-27T11:34:39.999Z</time></trkpt><trkpt lat="33.31822259187517" lon="-5.121004908177589"><ele>1920.5</ele><time>2026-04-27T11:34:40.999Z</time></trkpt><trkpt lat="33.31829848620074" lon="-5.1211056230682015"><ele>1921.25</ele><time>2026-04-27T11:34:41.999Z</time></trkpt><trkpt lat="33.31838532765398" lon="-5.121220856709094"><ele>1922.0</ele><time>2026-04-27T11:34:42.999Z</time></trkpt><trkpt lat="33.31849330227891" lon="-5.121364132856944"><ele>1922.0</ele><time>2026-04-27T11:34:43.999Z</time></trkpt><trkpt lat="33.31861271768783" lon="-5.1215225902631225"><ele>1922.0</ele><time>2026-04-27T11:34:44.999Z</time></trkpt><trkpt lat="33.31875509913503" lon="-5.121711476880997"><ele>1922.0</ele><time>2026-04-27T11:34:45.999Z</time></trkpt><trkpt lat="33.31891252972622" lon="-5.12192021575096"><ele>1921.5</ele><time>2026-04-27T11:34:46.999Z</time></trkpt><trkpt lat="33.319087053288804" lon="-5.122151424464384"><ele>1921.0</ele><time>2026-04-27T11:34:47.999Z</time></trkpt><trkpt lat="33.31926430883039" lon="-5.122415250752347"><ele>1922.5</ele><time>2026-04-27T11:34:48.999Z</time></trkpt><trkpt lat="33.31946104332933" lon="-5.122668456040937"><ele>1924.0</ele><time>2026-04-27T11:34:49.999Z</time></trkpt><trkpt lat="33.31965643106449" lon="-5.122925476667168"><ele>1923.0</ele><time>2026-04-27T11:34:50.999Z</time></trkpt><trkpt lat="33.31985116338904" lon="-5.123184458285035"><ele>1922.0</ele><time>2026-04-27T11:34:51.999Z</time></trkpt><trkpt lat="33.320040829422105" lon="-5.123439144263457"><ele>1924.0</ele><time>2026-04-27T11:34:52.999Z</time></trkpt><trkpt lat="33.32022997393089" lon="-5.123699421653152"><ele>1926.0</ele><time>2026-04-27T11:34:53.999Z</time></trkpt><trkpt lat="33.320440607344125" lon="-5.123955692533909"><ele>1926.5</ele><time>2026-04-27T11:34:54.999Z</time></trkpt><trkpt lat="33.32064909784344" lon="-5.124236541083513"><ele>1927.0</ele><time>2026-04-27T11:34:55.999Z</time></trkpt><trkpt lat="33.32086675386745" lon="-5.124529612626848"><ele>1927.0</ele><time>2026-04-27T11:34:56.999Z</time></trkpt><trkpt lat="33.3210892512706" lon="-5.1248280731107725"><ele>1927.0</ele><time>2026-04-27T11:34:57.999Z</time></trkpt><trkpt lat="33.32130201257906" lon="-5.12511257602235"><ele>1927.5</ele><time>2026-04-27T11:34:58.999Z</time></trkpt><trkpt lat="33.32149946308801" lon="-5.125375838067649"><ele>1928.0</ele><time>2026-04-27T11:34:59.999Z</time></trkpt><trkpt lat="33.32166843330921" lon="-5.1256008478111115"><ele>1930.0</ele><time>2026-04-27T11:35:00.999Z</time></trkpt><trkpt lat="33.32180787398048" lon="-5.125813899114641"><ele>1932.0</ele><time>2026-04-27T11:35:01.999Z</time></trkpt><trkpt lat="33.32196026636725" lon="-5.126011845259927"><ele>1932.0</ele><time>2026-04-27T11:35:03Z</time></trkpt><trkpt lat="33.322110275051145" lon="-5.1262078298574245"><ele>1932.0</ele><time>2026-04-27T11:35:04Z</time></trkpt><trkpt lat="33.322253192521295" lon="-5.126397711621289"><ele>1932.0</ele><time>2026-04-27T11:35:05Z</time></trkpt><trkpt lat="33.32238779069757" lon="-5.126580228240967"><ele>1933.3333333333335</ele><time>2026-04-27T11:35:06Z</time></trkpt><trkpt lat="33.32252525580819" lon="-5.126764741005159"><ele>1934.6666666666667</ele><time>2026-04-27T11:35:07Z</time></trkpt><trkpt lat="33.322661493553774" lon="-5.1269482800438935"><ele>1936.0</ele><time>2026-04-27T11:35:08Z</time></trkpt><trkpt lat="33.32280283092695" lon="-5.127129883251596"><ele>1936.0</ele><time>2026-04-27T11:35:09Z</time></trkpt><trkpt lat="33.32297029877189" lon="-5.127293499593678"><ele>1936.0</ele><time>2026-04-27T11:35:10Z</time></trkpt><trkpt lat="33.32314509543754" lon="-5.127462860437048"><ele>1936.0</ele><time>2026-04-27T11:35:11Z</time></trkpt><trkpt lat="33.323345824402566" lon="-5.127632818452383"><ele>1937.0</ele><time>2026-04-27T11:35:12Z</time></trkpt><trkpt lat="33.32356673632774" lon="-5.127815548859172"><ele>1938.0</ele><time>2026-04-27T11:35:13Z</time></trkpt><trkpt lat="33.323808215229114" lon="-5.127972588128318"><ele>1937.0</ele><time>2026-04-27T11:35:14Z</time></trkpt><trkpt lat="33.32406825388178" lon="-5.128116620342014"><ele>1936.0</ele><time>2026-04-27T11:35:15Z</time></trkpt><trkpt lat="33.32434851439853" lon="-5.128296511143166"><ele>1934.5</ele><time>2026-04-27T11:35:16Z</time></trkpt><trkpt lat="33.32464983183032" lon="-5.128492737834676"><ele>1933.0</ele><time>2026-04-27T11:35:17Z</time></trkpt><trkpt lat="33.32494528192849" lon="-5.128738243010375"><ele>1932.5</ele><time>2026-04-27T11:35:18Z</time></trkpt><trkpt lat="33.32526572771208" lon="-5.128938366135915"><ele>1932.0</ele><time>2026-04-27T11:35:19Z</time></trkpt><trkpt lat="33.32557207137853" lon="-5.1291262800198485"><ele>1933.0</ele><time>2026-04-27T11:35:20Z</time></trkpt><trkpt lat="33.32586602282965" lon="-5.129310495224601"><ele>1934.0</ele><time>2026-04-27T11:35:21Z</time></trkpt><trkpt lat="33.32614314194101" lon="-5.129490078411489"><ele>1935.5</ele><time>2026-04-27T11:35:22Z</time></trkpt><trkpt lat="33.326407999316174" lon="-5.129668725894125"><ele>1937.0</ele><time>2026-04-27T11:35:23Z</time></trkpt><trkpt lat="33.326658906103724" lon="-5.129859757414334"><ele>1938.5</ele><time>2026-04-27T11:35:24Z</time></trkpt><trkpt lat="33.326894665465815" lon="-5.130061065972425"><ele>1940.0</ele><time>2026-04-27T11:35:25Z</time></trkpt><trkpt lat="33.32711755615528" lon="-5.130268552049253"><ele>1941.0</ele><time>2026-04-27T11:35:26Z</time></trkpt><trkpt lat="33.327331012629784" lon="-5.130470084228107"><ele>1942.0</ele><time>2026-04-27T11:35:27Z</time></trkpt><trkpt lat="33.327540416723856" lon="-5.1306669889039735"><ele>1941.0</ele><time>2026-04-27T11:35:28Z</time></trkpt><trkpt lat="33.32775144655332" lon="-5.1308654321420315"><ele>1940.0</ele><time>2026-04-27T11:35:29Z</time></trkpt><trkpt lat="33.32796314879273" lon="-5.1310576642841825"><ele>1939.5</ele><time>2026-04-27T11:35:30Z</time></trkpt><trkpt lat="33.328180901655855" lon="-5.131236758842036"><ele>1939.0</ele><time>2026-04-27T11:35:31Z</time></trkpt><trkpt lat="33.328415233796306" lon="-5.131386989119956"><ele>1939.0</ele><time>2026-04-27T11:35:32Z</time></trkpt><trkpt lat="33.328668728814996" lon="-5.131505699489944"><ele>1939.0</ele><time>2026-04-27T11:35:33Z</time></trkpt><trkpt lat="33.3289387210181" lon="-5.13160522810656"><ele>1936.5</ele><time>2026-04-27T11:35:34Z</time></trkpt><trkpt lat="33.329224198461226" lon="-5.131693821456717"><ele>1934.0</ele><time>2026-04-27T11:35:35Z</time></trkpt><trkpt lat="33.32952179014194" lon="-5.13178092375676"><ele>1934.0</ele><time>2026-04-27T11:35:36Z</time></trkpt><trkpt lat="33.32982994516961" lon="-5.131870660312277"><ele>1934.0</ele><time>2026-04-27T11:35:37Z</time></trkpt><trkpt lat="33.33014946662079" lon="-5.131961350879672"><ele>1934.0</ele><time>2026-04-27T11:35:38Z</time></trkpt><trkpt lat="33.330479724110646" lon="-5.132056065622687"><ele>1934.0</ele><time>2026-04-27T11:35:39Z</time></trkpt><trkpt lat="33.33082094715149" lon="-5.132152277332039"><ele>1931.5</ele><time>2026-04-27T11:35:40Z</time></trkpt><trkpt lat="33.33117117631668" lon="-5.13224761870274"><ele>1929.0</ele><time>2026-04-27T11:35:41Z</time></trkpt><trkpt lat="33.331528483491134" lon="-5.1323407789537585"><ele>1927.5</ele><time>2026-04-27T11:35:42Z</time></trkpt><trkpt lat="33.33188929987297" lon="-5.132432418880991"><ele>1926.0</ele><time>2026-04-27T11:35:43Z</time></trkpt><trkpt lat="33.332250289188075" lon="-5.132522206354239"><ele>1925.0</ele><time>2026-04-27T11:35:44Z</time></trkpt><trkpt lat="33.33261044813595" lon="-5.132608851313955"><ele>1924.0</ele><time>2026-04-27T11:35:45Z</time></trkpt><trkpt lat="33.33296898408511" lon="-5.132693413874222"><ele>1922.5</ele><time>2026-04-27T11:35:46Z</time></trkpt><trkpt lat="33.33332269207776" lon="-5.1327779571711964"><ele>1921.0</ele><time>2026-04-27T11:35:47Z</time></trkpt><trkpt lat="33.333671760229834" lon="-5.132863539264463"><ele>1921.0</ele><time>2026-04-27T11:35:48Z</time></trkpt><trkpt lat="33.33401951453548" lon="-5.132952848087841"><ele>1921.0</ele><time>2026-04-27T11:35:49Z</time></trkpt><trkpt lat="33.33436420171414" lon="-5.133057540685001"><ele>1921.0</ele><time>2026-04-27T11:35:50Z</time></trkpt><trkpt lat="33.334701460752214" lon="-5.133189285177005"><ele>1921.0</ele><time>2026-04-27T11:35:51Z</time></trkpt><trkpt lat="33.33502716250185" lon="-5.133355606744389"><ele>1920.5</ele><time>2026-04-27T11:35:52Z</time></trkpt><trkpt lat="33.33534488983378" lon="-5.133540776582233"><ele>1920.0</ele><time>2026-04-27T11:35:53Z</time></trkpt><trkpt lat="33.33566307505411" lon="-5.133726623868083"><ele>1921.5</ele><time>2026-04-27T11:35:54Z</time></trkpt><trkpt lat="33.3359747285931" lon="-5.13390619745804"><ele>1923.0</ele><time>2026-04-27T11:35:55Z</time></trkpt><trkpt lat="33.33627649155203" lon="-5.1340780510829305"><ele>1926.0</ele><time>2026-04-27T11:35:56Z</time></trkpt><trkpt lat="33.33656329902872" lon="-5.134239728770661"><ele>1929.0</ele><time>2026-04-27T11:35:57Z</time></trkpt><trkpt lat="33.33684217918427" lon="-5.134394640480365"><ele>1929.0</ele><time>2026-04-27T11:35:58Z</time></trkpt><trkpt lat="33.33712296778408" lon="-5.134553668677333"><ele>1929.0</ele><time>2026-04-27T11:35:58.999Z</time></trkpt><trkpt lat="33.337411162141606" lon="-5.134719905741566"><ele>1929.0</ele><time>2026-04-27T11:35:59.999Z</time></trkpt><trkpt lat="33.33770789532661" lon="-5.134892535662233"><ele>1929.0</ele><time>2026-04-27T11:36:00.999Z</time></trkpt><trkpt lat="33.33801154125767" lon="-5.135063586016664"><ele>1928.0</ele><time>2026-04-27T11:36:01.999Z</time></trkpt><trkpt lat="33.338320970496106" lon="-5.135234982608194"><ele>1927.0</ele><time>2026-04-27T11:36:02.999Z</time></trkpt><trkpt lat="33.33863249889283" lon="-5.135409635618334"><ele>1927.0</ele><time>2026-04-27T11:36:03.999Z</time></trkpt><trkpt lat="33.338943113710805" lon="-5.1355837412480225"><ele>1927.0</ele><time>2026-04-27T11:36:04.999Z</time></trkpt><trkpt lat="33.33924695776382" lon="-5.13575402587903"><ele>1927.0</ele><time>2026-04-27T11:36:05.999Z</time></trkpt><trkpt lat="33.33954545283507" lon="-5.135919895340123"><ele>1927.0</ele><time>2026-04-27T11:36:06.999Z</time></trkpt><trkpt lat="33.33983893123489" lon="-5.136083923887069"><ele>1928.0</ele><time>2026-04-27T11:36:07.999Z</time></trkpt><trkpt lat="33.34012514063558" lon="-5.136244728885773"><ele>1929.0</ele><time>2026-04-27T11:36:08.999Z</time></trkpt><trkpt lat="33.34040666219623" lon="-5.136404202914797"><ele>1927.0</ele><time>2026-04-27T11:36:09.999Z</time></trkpt><trkpt lat="33.34068318956541" lon="-5.136562371445015"><ele>1925.0</ele><time>2026-04-27T11:36:10.999Z</time></trkpt><trkpt lat="33.34095721177798" lon="-5.136716427472599"><ele>1925.0</ele><time>2026-04-27T11:36:11.999Z</time></trkpt><trkpt lat="33.3412349867003" lon="-5.136871296587865"><ele>1925.0</ele><time>2026-04-27T11:36:12.999Z</time></trkpt><trkpt lat="33.3415177022064" lon="-5.137030301455175"><ele>1926.5</ele><time>2026-04-27T11:36:13.999Z</time></trkpt><trkpt lat="33.341805473664195" lon="-5.13719075845857"><ele>1928.0</ele><time>2026-04-27T11:36:14.999Z</time></trkpt><trkpt lat="33.342094636026324" lon="-5.137349102809098"><ele>1928.5</ele><time>2026-04-27T11:36:15.999Z</time></trkpt><trkpt lat="33.34238305701987" lon="-5.137508248675214"><ele>1929.0</ele><time>2026-04-27T11:36:16.999Z</time></trkpt><trkpt lat="33.34267280156285" lon="-5.137672430630572"><ele>1929.0</ele><time>2026-04-27T11:36:17.999Z</time></trkpt><trkpt lat="33.34296979182959" lon="-5.137842903765548"><ele>1929.0</ele><time>2026-04-27T11:36:18.999Z</time></trkpt><trkpt lat="33.343276601012604" lon="-5.13801564770327"><ele>1929.0</ele><time>2026-04-27T11:36:19.999Z</time></trkpt><trkpt lat="33.343588339499945" lon="-5.138190194266961"><ele>1929.0</ele><time>2026-04-27T11:36:20.999Z</time></trkpt><trkpt lat="33.343902754207335" lon="-5.138368413592089"><ele>1928.0</ele><time>2026-04-27T11:36:21.999Z</time></trkpt><trkpt lat="33.34422356176188" lon="-5.138550070915571"><ele>1927.0</ele><time>2026-04-27T11:36:22.999Z</time></trkpt><trkpt lat="33.34454687213114" lon="-5.138732906325997"><ele>1925.5</ele><time>2026-04-27T11:36:23.999Z</time></trkpt><trkpt lat="33.34487239872718" lon="-5.1389189298336975"><ele>1924.0</ele><time>2026-04-27T11:36:24.999Z</time></trkpt><trkpt lat="33.34520182648124" lon="-5.139106556750869"><ele>1924.0</ele><time>2026-04-27T11:36:25.999Z</time></trkpt><trkpt lat="33.34553397340493" lon="-5.139295219782373"><ele>1924.0</ele><time>2026-04-27T11:36:26.999Z</time></trkpt><trkpt lat="33.34587014680013" lon="-5.13948560076125"><ele>1924.0</ele><time>2026-04-27T11:36:27.999Z</time></trkpt><trkpt lat="33.346208041314284" lon="-5.139676933202452"><ele>1924.0</ele><time>2026-04-27T11:36:28.999Z</time></trkpt><trkpt lat="33.34654779224266" lon="-5.139868346611121"><ele>1924.5</ele><time>2026-04-27T11:36:29.999Z</time></trkpt><trkpt lat="33.34689055490111" lon="-5.1400628979202025"><ele>1925.0</ele><time>2026-04-27T11:36:30.999Z</time></trkpt><trkpt lat="33.34723547120574" lon="-5.140258134268163"><ele>1926.5</ele><time>2026-04-27T11:36:31.999Z</time></trkpt><trkpt lat="33.3475837264355" lon="-5.140455460034301"><ele>1928.0</ele><time>2026-04-27T11:36:32.999Z</time></trkpt><trkpt lat="33.347932298179614" lon="-5.140653106538741"><ele>1928.5</ele><time>2026-04-27T11:36:33.999Z</time></trkpt><trkpt lat="33.348279853417445" lon="-5.140849606278473"><ele>1929.0</ele><time>2026-04-27T11:36:34.999Z</time></trkpt><trkpt lat="33.348616178241315" lon="-5.141041584588167"><ele>1928.5</ele><time>2026-04-27T11:36:35.999Z</time></trkpt><trkpt lat="33.34894487210069" lon="-5.141225696291703"><ele>1928.0</ele><time>2026-04-27T11:36:36.999Z</time></trkpt><trkpt lat="33.34926267326305" lon="-5.141403522096606"><ele>1928.5</ele><time>2026-04-27T11:36:37.999Z</time></trkpt><trkpt lat="33.3495830019515" lon="-5.141582258152969"><ele>1929.0</ele><time>2026-04-27T11:36:38.999Z</time></trkpt><trkpt lat="33.34990809266428" lon="-5.14176084941158"><ele>1929.0</ele><time>2026-04-27T11:36:39.999Z</time></trkpt><trkpt lat="33.35022522951747" lon="-5.141938075085288"><ele>1929.0</ele><time>2026-04-27T11:36:40.999Z</time></trkpt><trkpt lat="33.35052999270808" lon="-5.142110475112878"><ele>1929.5</ele><time>2026-04-27T11:36:41.999Z</time></trkpt><trkpt lat="33.350821156571904" lon="-5.1422763384558765"><ele>1930.0</ele><time>2026-04-27T11:36:42.999Z</time></trkpt><trkpt lat="33.35109556754404" lon="-5.1424349731014845"><ele>1932.0</ele><time>2026-04-27T11:36:43.999Z</time></trkpt><trkpt lat="33.35135569736269" lon="-5.142585012475098"><ele>1934.0</ele><time>2026-04-27T11:36:44.999Z</time></trkpt><trkpt lat="33.35160568592115" lon="-5.142726956965802"><ele>1935.0</ele><time>2026-04-27T11:36:45.999Z</time></trkpt><trkpt lat="33.351854576490226" lon="-5.142868909465064"><ele>1936.0</ele><time>2026-04-27T11:36:46.999Z</time></trkpt><trkpt lat="33.35210817994829" lon="-5.143013938129661"><ele>1935.0</ele><time>2026-04-27T11:36:47.999Z</time></trkpt><trkpt lat="33.35237677508026" lon="-5.143148824372571"><ele>1934.0</ele><time>2026-04-27T11:36:48.999Z</time></trkpt><trkpt lat="33.352643943088644" lon="-5.1433199036433"><ele>1934.0</ele><time>2026-04-27T11:36:49.999Z</time></trkpt><trkpt lat="33.35292662766651" lon="-5.143476233651353"><ele>1934.0</ele><time>2026-04-27T11:36:50.999Z</time></trkpt><trkpt lat="33.35321019668165" lon="-5.14362852794448"><ele>1935.5</ele><time>2026-04-27T11:36:51.999Z</time></trkpt><trkpt lat="33.35348757643247" lon="-5.143778536806085"><ele>1937.0</ele><time>2026-04-27T11:36:52.999Z</time></trkpt><trkpt lat="33.3537537315637" lon="-5.143922664347993"><ele>1935.5</ele><time>2026-04-27T11:36:53.999Z</time></trkpt><trkpt lat="33.35401087336133" lon="-5.144070361554906"><ele>1934.0</ele><time>2026-04-27T11:36:54.999Z</time></trkpt><trkpt lat="33.354245150157794" lon="-5.144227851038907"><ele>1934.0</ele><time>2026-04-27T11:36:55.999Z</time></trkpt><trkpt lat="33.354472715750106" lon="-5.14442201161812"><ele>1934.0</ele><time>2026-04-27T11:36:56.999Z</time></trkpt><trkpt lat="33.354683550878455" lon="-5.144662185779561"><ele>1934.5</ele><time>2026-04-27T11:36:57.999Z</time></trkpt><trkpt lat="33.354880617691705" lon="-5.144936621623109"><ele>1935.0</ele><time>2026-04-27T11:36:58.999Z</time></trkpt><trkpt lat="33.355073712155004" lon="-5.145228306716157"><ele>1935.0</ele><time>2026-04-27T11:36:59.999Z</time></trkpt><trkpt lat="33.35527106092226" lon="-5.145526930473373"><ele>1935.0</ele><time>2026-04-27T11:37:00.999Z</time></trkpt><trkpt lat="33.35547446518538" lon="-5.1458263822201"><ele>1941.0</ele><time>2026-04-27T11:37:01.999Z</time></trkpt><trkpt lat="33.3556792585928" lon="-5.146124845114371"><ele>1947.0</ele><time>2026-04-27T11:37:02.999Z</time></trkpt><trkpt lat="33.35589502123944" lon="-5.146409418667302"><ele>1944.0</ele><time>2026-04-27T11:37:03.999Z</time></trkpt><trkpt lat="33.35610155137641" lon="-5.146710165151795"><ele>1941.0</ele><time>2026-04-27T11:37:04.999Z</time></trkpt><trkpt lat="33.356309326168294" lon="-5.147011416786472"><ele>1942.0</ele><time>2026-04-27T11:37:05.999Z</time></trkpt><trkpt lat="33.35652267416829" lon="-5.147312866296561"><ele>1943.0</ele><time>2026-04-27T11:37:06.999Z</time></trkpt><trkpt lat="33.35673708280867" lon="-5.147622917622831"><ele>1943.0</ele><time>2026-04-27T11:37:07.999Z</time></trkpt><trkpt lat="33.35694673498623" lon="-5.147928162361787"><ele>1943.0</ele><time>2026-04-27T11:37:09Z</time></trkpt><trkpt lat="33.35714367506424" lon="-5.148213617860346"><ele>1945.5</ele><time>2026-04-27T11:37:10Z</time></trkpt><trkpt lat="33.35731995007798" lon="-5.148497144417348"><ele>1948.0</ele><time>2026-04-27T11:37:11Z</time></trkpt><trkpt lat="33.357500222600265" lon="-5.148752014414196"><ele>1948.0</ele><time>2026-04-27T11:37:12Z</time></trkpt><trkpt lat="33.35767475958709" lon="-5.148991044782525"><ele>1948.0</ele><time>2026-04-27T11:37:13Z</time></trkpt><trkpt lat="33.35784842131639" lon="-5.14920522069192"><ele>1947.5</ele><time>2026-04-27T11:37:14Z</time></trkpt><trkpt lat="33.35803053903183" lon="-5.149397285263239"><ele>1947.0</ele><time>2026-04-27T11:37:15Z</time></trkpt><trkpt lat="33.358216235387395" lon="-5.149575917829188"><ele>1947.0</ele><time>2026-04-27T11:37:16Z</time></trkpt><trkpt lat="33.35839299656999" lon="-5.149726715483397"><ele>1947.0</ele><time>2026-04-27T11:37:17Z</time></trkpt><trkpt lat="33.35857456329088" lon="-5.149835704349545"><ele>1947.0</ele><time>2026-04-27T11:37:18Z</time></trkpt><trkpt lat="33.358778274312364" lon="-5.1499011003126745"><ele>1944.0</ele><time>2026-04-27T11:37:19Z</time></trkpt><trkpt lat="33.35899972768151" lon="-5.149936247476878"><ele>1941.0</ele><time>2026-04-27T11:37:20Z</time></trkpt><trkpt lat="33.359240321772916" lon="-5.149945052727177"><ele>1941.0</ele><time>2026-04-27T11:37:21Z</time></trkpt><trkpt lat="33.359496122546155" lon="-5.149945502957254"><ele>1941.0</ele><time>2026-04-27T11:37:22Z</time></trkpt><trkpt lat="33.359769486268306" lon="-5.149948403459156"><ele>1937.5</ele><time>2026-04-27T11:37:23Z</time></trkpt><trkpt lat="33.360060176580575" lon="-5.149946195937134"><ele>1934.0</ele><time>2026-04-27T11:37:24Z</time></trkpt><trkpt lat="33.36036735408932" lon="-5.149936654941858"><ele>1932.0</ele><time>2026-04-27T11:37:25Z</time></trkpt><trkpt lat="33.360687588781815" lon="-5.149921176747822"><ele>1930.0</ele><time>2026-04-27T11:37:26Z</time></trkpt><trkpt lat="33.36101280571156" lon="-5.149902636160779"><ele>1930.0</ele><time>2026-04-27T11:37:27Z</time></trkpt><trkpt lat="33.36133011939611" lon="-5.149884349484836"><ele>1930.0</ele><time>2026-04-27T11:37:28Z</time></trkpt><trkpt lat="33.36164015312587" lon="-5.149868816961533"><ele>1930.0</ele><time>2026-04-27T11:37:29Z</time></trkpt><trkpt lat="33.361940906288844" lon="-5.149854994568686"><ele>1930.0</ele><time>2026-04-27T11:37:30Z</time></trkpt><trkpt lat="33.362229486423296" lon="-5.149841559513474"><ele>1929.0</ele><time>2026-04-27T11:37:31Z</time></trkpt><trkpt lat="33.362506299464556" lon="-5.149828834751375"><ele>1928.0</ele><time>2026-04-27T11:37:32Z</time></trkpt><trkpt lat="33.36277043067539" lon="-5.1498134575178645"><ele>1928.0</ele><time>2026-04-27T11:37:33Z</time></trkpt><trkpt lat="33.36302180183757" lon="-5.1498000354621984"><ele>1928.0</ele><time>2026-04-27T11:37:34Z</time></trkpt><trkpt lat="33.36325204501443" lon="-5.149790562825965"><ele>1927.6666666666665</ele><time>2026-04-27T11:37:35Z</time></trkpt><trkpt lat="33.36347464968081" lon="-5.149785257577151"><ele>1927.3333333333335</ele><time>2026-04-27T11:37:36Z</time></trkpt><trkpt lat="33.36369442628701" lon="-5.14978457144623"><ele>1927.0</ele><time>2026-04-27T11:37:37Z</time></trkpt><trkpt lat="33.36391500597048" lon="-5.149800966747183"><ele>1926.0</ele><time>2026-04-27T11:37:38Z</time></trkpt><trkpt lat="33.364132471574585" lon="-5.14984231816238"><ele>1925.0</ele><time>2026-04-27T11:37:39Z</time></trkpt><trkpt lat="33.364342845196234" lon="-5.149901563811254"><ele>1924.0</ele><time>2026-04-27T11:37:40Z</time></trkpt><trkpt lat="33.364535074393444" lon="-5.149972934603394"><ele>1922.3333333333335</ele><time>2026-04-27T11:37:41Z</time></trkpt><trkpt lat="33.3647130138921" lon="-5.150053511883242"><ele>1920.6666666666665</ele><time>2026-04-27T11:37:42Z</time></trkpt><trkpt lat="33.36488211027817" lon="-5.1501465292683095"><ele>1919.0</ele><time>2026-04-27T11:37:43Z</time></trkpt><trkpt lat="33.36503858843539" lon="-5.150251700845688"><ele>1919.0</ele><time>2026-04-27T11:37:44Z</time></trkpt><trkpt lat="33.365182347254276" lon="-5.150353447625475"><ele>1919.0</ele><time>2026-04-27T11:37:45Z</time></trkpt><trkpt lat="33.36531959919415" lon="-5.150451177642051"><ele>1919.0</ele><time>2026-04-27T11:37:46Z</time></trkpt><trkpt lat="33.365456696925236" lon="-5.150547921944814"><ele>1919.0</ele><time>2026-04-27T11:37:47Z</time></trkpt><trkpt lat="33.36559155177181" lon="-5.150642475734389"><ele>1919.0</ele><time>2026-04-27T11:37:48Z</time></trkpt><trkpt lat="33.365719221573954" lon="-5.150734903433582"><ele>1919.0</ele><time>2026-04-27T11:37:49Z</time></trkpt><trkpt lat="33.365840930955365" lon="-5.150821628388697"><ele>1919.0</ele><time>2026-04-27T11:37:50Z</time></trkpt><trkpt lat="33.365965911054694" lon="-5.150909292488611"><ele>1919.75</ele><time>2026-04-27T11:37:51Z</time></trkpt><trkpt lat="33.36609320201823" lon="-5.150998043266182"><ele>1920.5</ele><time>2026-04-27T11:37:52Z</time></trkpt><trkpt lat="33.36621344449613" lon="-5.1510871002386365"><ele>1921.25</ele><time>2026-04-27T11:37:53Z</time></trkpt><trkpt lat="33.36632815564508" lon="-5.151172215270044"><ele>1922.0</ele><time>2026-04-27T11:37:54Z</time></trkpt><trkpt lat="33.36644517362633" lon="-5.151256553486698"><ele>1920.75</ele><time>2026-04-27T11:37:55Z</time></trkpt><trkpt lat="33.36656532742321" lon="-5.151340933242771"><ele>1919.5</ele><time>2026-04-27T11:37:56Z</time></trkpt><trkpt lat="33.36668615606959" lon="-5.151425917115536"><ele>1918.25</ele><time>2026-04-27T11:37:57Z</time></trkpt><trkpt lat="33.3668083567178" lon="-5.151513034737156"><ele>1917.0</ele><time>2026-04-27T11:37:58Z</time></trkpt><trkpt lat="33.36693197708981" lon="-5.1516013093564785"><ele>1917.0</ele><time>2026-04-27T11:37:59Z</time></trkpt><trkpt lat="33.36705573268525" lon="-5.151688133562355"><ele>1917.0</ele><time>2026-04-27T11:38:00Z</time></trkpt><trkpt lat="33.3671748903008" lon="-5.1517721058708705"><ele>1917.0</ele><time>2026-04-27T11:38:01Z</time></trkpt><trkpt lat="33.367291038157965" lon="-5.15185291522398"><ele>1917.0</ele><time>2026-04-27T11:38:02Z</time></trkpt><trkpt lat="33.36740897602656" lon="-5.151936142235197"><ele>1916.5</ele><time>2026-04-27T11:38:03Z</time></trkpt><trkpt lat="33.367531242687114" lon="-5.152020794261687"><ele>1916.0</ele><time>2026-04-27T11:38:03.999Z</time></trkpt><trkpt lat="33.367658417674974" lon="-5.152108711324444"><ele>1915.5</ele><time>2026-04-27T11:38:04.999Z</time></trkpt><trkpt lat="33.36777796582586" lon="-5.152196019763616"><ele>1915.0</ele><time>2026-04-27T11:38:05.999Z</time></trkpt><trkpt lat="33.36788793183591" lon="-5.152274701957411"><ele>1915.0</ele><time>2026-04-27T11:38:06.999Z</time></trkpt><trkpt lat="33.368003528131425" lon="-5.152357374770055"><ele>1915.0</ele><time>2026-04-27T11:38:07.999Z</time></trkpt><trkpt lat="33.368127324927976" lon="-5.152441735072202"><ele>1915.0</ele><time>2026-04-27T11:38:08.999Z</time></trkpt><trkpt lat="33.368256474723474" lon="-5.152531296569846"><ele>1915.0</ele><time>2026-04-27T11:38:09.999Z</time></trkpt><trkpt lat="33.368389813601794" lon="-5.1526275761882525"><ele>1915.3333333333335</ele><time>2026-04-27T11:38:10.999Z</time></trkpt><trkpt lat="33.3685319332078" lon="-5.152728844346991"><ele>1915.6666666666665</ele><time>2026-04-27T11:38:11.999Z</time></trkpt><trkpt lat="33.368681595145496" lon="-5.152834872952529"><ele>1916.0</ele><time>2026-04-27T11:38:12.999Z</time></trkpt><trkpt lat="33.36884056730121" lon="-5.152949877723359"><ele>1915.6666666666665</ele><time>2026-04-27T11:38:13.999Z</time></trkpt><trkpt lat="33.369004318496025" lon="-5.15307282038287"><ele>1915.3333333333335</ele><time>2026-04-27T11:38:14.999Z</time></trkpt><trkpt lat="33.36917143643214" lon="-5.153198297473712"><ele>1915.0</ele><time>2026-04-27T11:38:15.999Z</time></trkpt><trkpt lat="33.36934158486607" lon="-5.153323359478938"><ele>1915.0</ele><time>2026-04-27T11:38:16.999Z</time></trkpt><trkpt lat="33.36951863462304" lon="-5.153444698273723"><ele>1915.0</ele><time>2026-04-27T11:38:17.999Z</time></trkpt><trkpt lat="33.36970227037093" lon="-5.153567389732374"><ele>1915.0</ele><time>2026-04-27T11:38:18.999Z</time></trkpt><trkpt lat="33.36988865869585" lon="-5.1536947731495175"><ele>1915.0</ele><time>2026-04-27T11:38:19.999Z</time></trkpt><trkpt lat="33.37007542099686" lon="-5.153828047344052"><ele>1915.0</ele><time>2026-04-27T11:38:20.999Z</time></trkpt><trkpt lat="33.37026090993184" lon="-5.153966482597731"><ele>1915.0</ele><time>2026-04-27T11:38:21.999Z</time></trkpt><trkpt lat="33.37044953076567" lon="-5.154100152501698"><ele>1916.0</ele><time>2026-04-27T11:38:22.999Z</time></trkpt><trkpt lat="33.37065083943783" lon="-5.1542117634955"><ele>1917.0</ele><time>2026-04-27T11:38:23.999Z</time></trkpt><trkpt lat="33.37084027777266" lon="-5.154346074438099"><ele>1918.0</ele><time>2026-04-27T11:38:24.999Z</time></trkpt><trkpt lat="33.37103036520289" lon="-5.154481275140321"><ele>1918.0</ele><time>2026-04-27T11:38:25.999Z</time></trkpt><trkpt lat="33.37122612723756" lon="-5.1546200099455595"><ele>1918.0</ele><time>2026-04-27T11:38:26.999Z</time></trkpt><trkpt lat="33.37142841008297" lon="-5.1547628873460045"><ele>1918.5</ele><time>2026-04-27T11:38:27.999Z</time></trkpt><trkpt lat="33.37163272002511" lon="-5.154907819992551"><ele>1919.0</ele><time>2026-04-27T11:38:28.999Z</time></trkpt><trkpt lat="33.37183982480733" lon="-5.155054735174073"><ele>1919.0</ele><time>2026-04-27T11:38:29.999Z</time></trkpt><trkpt lat="33.37204630520644" lon="-5.155201207765419"><ele>1919.0</ele><time>2026-04-27T11:38:30.999Z</time></trkpt><trkpt lat="33.372249384487105" lon="-5.155345267498136"><ele>1920.0</ele><time>2026-04-27T11:38:31.999Z</time></trkpt><trkpt lat="33.3724580141539" lon="-5.155492686422876"><ele>1921.0</ele><time>2026-04-27T11:38:32.999Z</time></trkpt><trkpt lat="33.37268076605805" lon="-5.155649766906557"><ele>1921.5</ele><time>2026-04-27T11:38:33.999Z</time></trkpt><trkpt lat="33.37291884240818" lon="-5.155821250098932"><ele>1922.0</ele><time>2026-04-27T11:38:34.999Z</time></trkpt><trkpt lat="33.37317363907267" lon="-5.156005620302828"><ele>1920.5</ele><time>2026-04-27T11:38:35.999Z</time></trkpt><trkpt lat="33.37344345427507" lon="-5.1562008577082405"><ele>1919.0</ele><time>2026-04-27T11:38:36.999Z</time></trkpt><trkpt lat="33.37371165928998" lon="-5.156394914951853"><ele>1918.0</ele><time>2026-04-27T11:38:37.999Z</time></trkpt><trkpt lat="33.37401899597949" lon="-5.1566148336674615"><ele>1917.0</ele><time>2026-04-27T11:38:38.999Z</time></trkpt><trkpt lat="33.37432019526819" lon="-5.156828915866336"><ele>1917.0</ele><time>2026-04-27T11:38:39.999Z</time></trkpt><trkpt lat="33.37462088123841" lon="-5.157042180864374"><ele>1917.0</ele><time>2026-04-27T11:38:40.999Z</time></trkpt><trkpt lat="33.374913095631996" lon="-5.157249448149991"><ele>1917.0</ele><time>2026-04-27T11:38:41.999Z</time></trkpt><trkpt lat="33.37520043039777" lon="-5.157453255498743"><ele>1917.0</ele><time>2026-04-27T11:38:42.999Z</time></trkpt><trkpt lat="33.37549130675838" lon="-5.157659332120268"><ele>1918.0</ele><time>2026-04-27T11:38:43.999Z</time></trkpt><trkpt lat="33.375786995678936" lon="-5.157868498611271"><ele>1919.0</ele><time>2026-04-27T11:38:44.999Z</time></trkpt><trkpt lat="33.376089479853874" lon="-5.1580824467035935"><ele>1921.0</ele><time>2026-04-27T11:38:45.999Z</time></trkpt><trkpt lat="33.37639360762596" lon="-5.158297502390391"><ele>1923.0</ele><time>2026-04-27T11:38:46.999Z</time></trkpt><trkpt lat="33.376693899173915" lon="-5.158510352754784"><ele>1923.0</ele><time>2026-04-27T11:38:47.999Z</time></trkpt><trkpt lat="33.37698659937647" lon="-5.158717581848482"><ele>1923.0</ele><time>2026-04-27T11:38:48.999Z</time></trkpt><trkpt lat="33.37727859104863" lon="-5.158924442609819"><ele>1925.0</ele><time>2026-04-27T11:38:49.999Z</time></trkpt><trkpt lat="33.3775728875681" lon="-5.159133259962938"><ele>1927.0</ele><time>2026-04-27T11:38:50.999Z</time></trkpt><trkpt lat="33.377875698398626" lon="-5.159347785418443"><ele>1928.5</ele><time>2026-04-27T11:38:51.999Z</time></trkpt><trkpt lat="33.378188448509455" lon="-5.15956891066179"><ele>1930.0</ele><time>2026-04-27T11:38:52.999Z</time></trkpt><trkpt lat="33.378507233295444" lon="-5.15979456485129"><ele>1929.0</ele><time>2026-04-27T11:38:53.999Z</time></trkpt><trkpt lat="33.37883100118477" lon="-5.1600243054635895"><ele>1928.0</ele><time>2026-04-27T11:38:54.999Z</time></trkpt><trkpt lat="33.37915330437211" lon="-5.160253222651818"><ele>1930.5</ele><time>2026-04-27T11:38:55.999Z</time></trkpt><trkpt lat="33.37947760384492" lon="-5.160483032982159"><ele>1933.0</ele><time>2026-04-27T11:38:56.999Z</time></trkpt><trkpt lat="33.37980220103717" lon="-5.160713038643457"><ele>1934.5</ele><time>2026-04-27T11:38:57.999Z</time></trkpt><trkpt lat="33.38011662759779" lon="-5.160935777970945"><ele>1936.0</ele><time>2026-04-27T11:38:58.999Z</time></trkpt><trkpt lat="33.38042040085731" lon="-5.1611509703254415"><ele>1939.0</ele><time>2026-04-27T11:38:59.999Z</time></trkpt><trkpt lat="33.38071977309643" lon="-5.161363044907614"><ele>1942.0</ele><time>2026-04-27T11:39:00.999Z</time></trkpt><trkpt lat="33.38101959444441" lon="-5.161575474766926"><ele>1942.0</ele><time>2026-04-27T11:39:01.999Z</time></trkpt><trkpt lat="33.38131541301861" lon="-5.161788341443449"><ele>1942.0</ele><time>2026-04-27T11:39:02.999Z</time></trkpt><trkpt lat="33.381599054955736" lon="-5.1620145645710505"><ele>1946.0</ele><time>2026-04-27T11:39:03.999Z</time></trkpt><trkpt lat="33.38188509675757" lon="-5.1622169777374545"><ele>1950.0</ele><time>2026-04-27T11:39:04.999Z</time></trkpt><trkpt lat="33.382160893022565" lon="-5.162413567189725"><ele>1954.0</ele><time>2026-04-27T11:39:05.999Z</time></trkpt><trkpt lat="33.38241994518386" lon="-5.162597981198585"><ele>1958.0</ele><time>2026-04-27T11:39:06.999Z</time></trkpt><trkpt lat="33.38266944849732" lon="-5.162771180965282"><ele>1958.0</ele><time>2026-04-27T11:39:07.999Z</time></trkpt><trkpt lat="33.38291175455916" lon="-5.162933237543497"><ele>1958.0</ele><time>2026-04-27T11:39:08.999Z</time></trkpt><trkpt lat="33.38315922604654" lon="-5.163078433396574"><ele>1957.5</ele><time>2026-04-27T11:39:09.999Z</time></trkpt><trkpt lat="33.3834287950824" lon="-5.163208132722942"><ele>1957.0</ele><time>2026-04-27T11:39:10.999Z</time></trkpt><trkpt lat="33.38371791506212" lon="-5.163324877914819"><ele>1957.0</ele><time>2026-04-27T11:39:11.999Z</time></trkpt><trkpt lat="33.38402218798567" lon="-5.163428111564799"><ele>1957.0</ele><time>2026-04-27T11:39:12.999Z</time></trkpt><trkpt lat="33.38433664651119" lon="-5.1635308572773235"><ele>1957.0</ele><time>2026-04-27T11:39:13.999Z</time></trkpt><trkpt lat="33.384653688404235" lon="-5.163639585055689"><ele>1957.0</ele><time>2026-04-27T11:39:15Z</time></trkpt><trkpt lat="33.384964384937796" lon="-5.163752092794956"><ele>1954.5</ele><time>2026-04-27T11:39:16Z</time></trkpt><trkpt lat="33.38526626602284" lon="-5.163862942595199"><ele>1952.0</ele><time>2026-04-27T11:39:17Z</time></trkpt><trkpt lat="33.38556132817999" lon="-5.163969482794232"><ele>1953.0</ele><time>2026-04-27T11:39:18Z</time></trkpt><trkpt lat="33.38584944219944" lon="-5.164072893129649"><ele>1954.0</ele><time>2026-04-27T11:39:19Z</time></trkpt><trkpt lat="33.386127051386104" lon="-5.164171286843723"><ele>1954.0</ele><time>2026-04-27T11:39:20Z</time></trkpt><trkpt lat="33.386400254464014" lon="-5.164264723649579"><ele>1954.0</ele><time>2026-04-27T11:39:21Z</time></trkpt><trkpt lat="33.3866672349955" lon="-5.1643595803548"><ele>1954.0</ele><time>2026-04-27T11:39:22Z</time></trkpt><trkpt lat="33.3869282943551" lon="-5.164460155972131"><ele>1954.0</ele><time>2026-04-27T11:39:23Z</time></trkpt><trkpt lat="33.38719190757925" lon="-5.164567301779807"><ele>1952.5</ele><time>2026-04-27T11:39:24Z</time></trkpt><trkpt lat="33.387469071025414" lon="-5.164687698793191"><ele>1951.0</ele><time>2026-04-27T11:39:25Z</time></trkpt><trkpt lat="33.387758878581636" lon="-5.164818669624651"><ele>1949.5</ele><time>2026-04-27T11:39:26Z</time></trkpt><trkpt lat="33.388055900594125" lon="-5.164956600155628"><ele>1948.0</ele><time>2026-04-27T11:39:27Z</time></trkpt><trkpt lat="33.38835876342925" lon="-5.165101883817064"><ele>1948.0</ele><time>2026-04-27T11:39:28Z</time></trkpt><trkpt lat="33.38866963572654" lon="-5.165249943905257"><ele>1948.0</ele><time>2026-04-27T11:39:29Z</time></trkpt><trkpt lat="33.38898729361937" lon="-5.1653992669312006"><ele>1946.5</ele><time>2026-04-27T11:39:30Z</time></trkpt><trkpt lat="33.389304299170085" lon="-5.165549336463303"><ele>1945.0</ele><time>2026-04-27T11:39:31Z</time></trkpt><trkpt lat="33.38961985956314" lon="-5.165698636873475"><ele>1942.5</ele><time>2026-04-27T11:39:32Z</time></trkpt><trkpt lat="33.389934527670476" lon="-5.165848592180347"><ele>1940.0</ele><time>2026-04-27T11:39:33Z</time></trkpt><trkpt lat="33.39024391563878" lon="-5.165998216355017"><ele>1938.5</ele><time>2026-04-27T11:39:34Z</time></trkpt><trkpt lat="33.3905429767365" lon="-5.166140489325379"><ele>1937.0</ele><time>2026-04-27T11:39:35Z</time></trkpt><trkpt lat="33.39083251132946" lon="-5.1662787473210585"><ele>1937.0</ele><time>2026-04-27T11:39:36Z</time></trkpt><trkpt lat="33.391112720138274" lon="-5.1664131718223745"><ele>1937.0</ele><time>2026-04-27T11:39:37Z</time></trkpt><trkpt lat="33.39138917693733" lon="-5.1665454016583165"><ele>1935.5</ele><time>2026-04-27T11:39:38Z</time></trkpt><trkpt lat="33.39165561902294" lon="-5.166673292594577"><ele>1934.0</ele><time>2026-04-27T11:39:39Z</time></trkpt><trkpt lat="33.39191727163589" lon="-5.166798520613598"><ele>1933.0</ele><time>2026-04-27T11:39:40Z</time></trkpt><trkpt lat="33.392180281576046" lon="-5.16692425275068"><ele>1932.0</ele><time>2026-04-27T11:39:41Z</time></trkpt><trkpt lat="33.39244673904148" lon="-5.167053256570053"><ele>1932.0</ele><time>2026-04-27T11:39:42Z</time></trkpt><trkpt lat="33.39271352400256" lon="-5.167188046487545"><ele>1932.0</ele><time>2026-04-27T11:39:43Z</time></trkpt><trkpt lat="33.392980897593695" lon="-5.167338005478297"><ele>1929.5</ele><time>2026-04-27T11:39:44Z</time></trkpt><trkpt lat="33.393243510184064" lon="-5.167515911829618"><ele>1927.0</ele><time>2026-04-27T11:39:45Z</time></trkpt><trkpt lat="33.39349960046318" lon="-5.167710948404279"><ele>1927.0</ele><time>2026-04-27T11:39:46Z</time></trkpt><trkpt lat="33.393746373055315" lon="-5.167912925863939"><ele>1927.0</ele><time>2026-04-27T11:39:47Z</time></trkpt><trkpt lat="33.39398851557382" lon="-5.168116184813715"><ele>1923.5</ele><time>2026-04-27T11:39:48Z</time></trkpt><trkpt lat="33.39422542505039" lon="-5.168314578429524"><ele>1920.0</ele><time>2026-04-27T11:39:49Z</time></trkpt><trkpt lat="33.394434525438996" lon="-5.168495364986173"><ele>1920.0</ele><time>2026-04-27T11:39:50Z</time></trkpt><trkpt lat="33.39462829211136" lon="-5.168669759946036"><ele>1920.0</ele><time>2026-04-27T11:39:51Z</time></trkpt><trkpt lat="33.3948243895377" lon="-5.168850322809841"><ele>1918.5</ele><time>2026-04-27T11:39:52Z</time></trkpt><trkpt lat="33.39502363952309" lon="-5.169045336682309"><ele>1917.0</ele><time>2026-04-27T11:39:53Z</time></trkpt><trkpt lat="33.39522994474538" lon="-5.169254693449284"><ele>1917.0</ele><time>2026-04-27T11:39:54Z</time></trkpt><trkpt lat="33.39543580728195" lon="-5.169485197190026"><ele>1917.0</ele><time>2026-04-27T11:39:55Z</time></trkpt><trkpt lat="33.39562831185459" lon="-5.169739478486903"><ele>1915.0</ele><time>2026-04-27T11:39:56Z</time></trkpt><trkpt lat="33.395804088525196" lon="-5.170002902401658"><ele>1913.0</ele><time>2026-04-27T11:39:57Z</time></trkpt><trkpt lat="33.39597302769802" lon="-5.170274704692742"><ele>1913.0</ele><time>2026-04-27T11:39:58Z</time></trkpt><trkpt lat="33.39613824094383" lon="-5.1705530538834275"><ele>1913.0</ele><time>2026-04-27T11:39:59Z</time></trkpt><trkpt lat="33.39630280002758" lon="-5.170833362130513"><ele>1912.0</ele><time>2026-04-27T11:40:00Z</time></trkpt><trkpt lat="33.39646475590216" lon="-5.171116068949045"><ele>1911.0</ele><time>2026-04-27T11:40:01Z</time></trkpt><trkpt lat="33.39662612308702" lon="-5.171395971026824"><ele>1911.0</ele><time>2026-04-27T11:40:02Z</time></trkpt><trkpt lat="33.39678656734025" lon="-5.1716681954757435"><ele>1911.0</ele><time>2026-04-27T11:40:03Z</time></trkpt><trkpt lat="33.39695091588876" lon="-5.171941352750327"><ele>1911.0</ele><time>2026-04-27T11:40:04Z</time></trkpt><trkpt lat="33.39711914643944" lon="-5.172222292570436"><ele>1911.0</ele><time>2026-04-27T11:40:05Z</time></trkpt><trkpt lat="33.397285891775745" lon="-5.172503158327633"><ele>1909.5</ele><time>2026-04-27T11:40:06Z</time></trkpt><trkpt lat="33.397455620557025" lon="-5.1727794653882"><ele>1908.0</ele><time>2026-04-27T11:40:07Z</time></trkpt><trkpt lat="33.39762936438305" lon="-5.173047934067369"><ele>1908.0</ele><time>2026-04-27T11:40:08Z</time></trkpt><trkpt lat="33.39781562717726" lon="-5.1733026110420015"><ele>1908.0</ele><time>2026-04-27T11:40:09Z</time></trkpt><trkpt lat="33.39802001067009" lon="-5.173534939615721"><ele>1905.5</ele><time>2026-04-27T11:40:10Z</time></trkpt><trkpt lat="33.398228080022804" lon="-5.173754441151001"><ele>1903.0</ele><time>2026-04-27T11:40:11Z</time></trkpt><trkpt lat="33.39842912149513" lon="-5.17396776725416"><ele>1902.5</ele><time>2026-04-27T11:40:11.999Z</time></trkpt><trkpt lat="33.39862316613486" lon="-5.174178905545512"><ele>1902.0</ele><time>2026-04-27T11:40:12.999Z</time></trkpt><trkpt lat="33.39880978672501" lon="-5.174381819903873"><ele>1900.0</ele><time>2026-04-27T11:40:13.999Z</time></trkpt><trkpt lat="33.39898077541142" lon="-5.174566584840895"><ele>1898.0</ele><time>2026-04-27T11:40:14.999Z</time></trkpt><trkpt lat="33.399139606195554" lon="-5.174737548489043"><ele>1896.0</ele><time>2026-04-27T11:40:15.999Z</time></trkpt><trkpt lat="33.399285904098186" lon="-5.174896959024615"><ele>1895.3333333333335</ele><time>2026-04-27T11:40:16.999Z</time></trkpt><trkpt lat="33.39941825947276" lon="-5.175044453532273"><ele>1894.6666666666667</ele><time>2026-04-27T11:40:17.999Z</time></trkpt><trkpt lat="33.3995399796911" lon="-5.175185326015184"><ele>1894.0</ele><time>2026-04-27T11:40:18.999Z</time></trkpt><trkpt lat="33.39965646789618" lon="-5.175329838850915"><ele>1891.6666666666667</ele><time>2026-04-27T11:40:19.999Z</time></trkpt><trkpt lat="33.399764305819325" lon="-5.175484348601105"><ele>1889.3333333333335</ele><time>2026-04-27T11:40:20.999Z</time></trkpt><trkpt lat="33.3998669376533" lon="-5.1756498523802446"><ele>1887.0</ele><time>2026-04-27T11:40:21.999Z</time></trkpt><trkpt lat="33.399957859330776" lon="-5.175825128450476"><ele>1886.3333333333335</ele><time>2026-04-27T11:40:22.999Z</time></trkpt><trkpt lat="33.400037614364365" lon="-5.176008769095837"><ele>1885.6666666666667</ele><time>2026-04-27T11:40:23.999Z</time></trkpt><trkpt lat="33.400121515397984" lon="-5.1761900682593005"><ele>1885.0</ele><time>2026-04-27T11:40:24.999Z</time></trkpt><trkpt lat="33.40018285113648" lon="-5.176378451641601"><ele>1884.3333333333335</ele><time>2026-04-27T11:40:25.999Z</time></trkpt><trkpt lat="33.40023708172509" lon="-5.176570568958429"><ele>1883.6666666666665</ele><time>2026-04-27T11:40:26.999Z</time></trkpt><trkpt lat="33.40029807479219" lon="-5.176789615339728"><ele>1883.0</ele><time>2026-04-27T11:40:27.999Z</time></trkpt><trkpt lat="33.40036892499336" lon="-5.177041523090272"><ele>1883.0</ele><time>2026-04-27T11:40:28.999Z</time></trkpt><trkpt lat="33.400447263631456" lon="-5.177323522525676"><ele>1883.0</ele><time>2026-04-27T11:40:29.999Z</time></trkpt><trkpt lat="33.40052996340962" lon="-5.17762398639077"><ele>1876.5</ele><time>2026-04-27T11:40:30.999Z</time></trkpt><trkpt lat="33.40061115271238" lon="-5.177923762544748"><ele>1870.0</ele><time>2026-04-27T11:40:31.999Z</time></trkpt><trkpt lat="33.40069196158504" lon="-5.178221517930897"><ele>1868.0</ele><time>2026-04-27T11:40:32.999Z</time></trkpt><trkpt lat="33.40075814963117" lon="-5.178523934766472"><ele>1866.0</ele><time>2026-04-27T11:40:33.999Z</time></trkpt><trkpt lat="33.400867932267836" lon="-5.178810225270985"><ele>1864.5</ele><time>2026-04-27T11:40:34.999Z</time></trkpt><trkpt lat="33.40098246991919" lon="-5.179099590979249"><ele>1863.0</ele><time>2026-04-27T11:40:35.999Z</time></trkpt><trkpt lat="33.401109321935195" lon="-5.179389523353171"><ele>1863.0</ele><time>2026-04-27T11:40:36.999Z</time></trkpt><trkpt lat="33.40127832756162" lon="-5.179659736309081"><ele>1863.0</ele><time>2026-04-27T11:40:37.999Z</time></trkpt><trkpt lat="33.401467874957085" lon="-5.179919236734939"><ele>1859.5</ele><time>2026-04-27T11:40:38.999Z</time></trkpt><trkpt lat="33.40167819837151" lon="-5.180169737203247"><ele>1856.0</ele><time>2026-04-27T11:40:39.999Z</time></trkpt><trkpt lat="33.401894661031086" lon="-5.180421528564691"><ele>1854.0</ele><time>2026-04-27T11:40:40.999Z</time></trkpt><trkpt lat="33.40211570680768" lon="-5.180685170564273"><ele>1852.0</ele><time>2026-04-27T11:40:41.999Z</time></trkpt><trkpt lat="33.40233934230871" lon="-5.18095390254951"><ele>1850.0</ele><time>2026-04-27T11:40:42.999Z</time></trkpt><trkpt lat="33.40256958775247" lon="-5.181223636749734"><ele>1848.0</ele><time>2026-04-27T11:40:43.999Z</time></trkpt><trkpt lat="33.40280313821289" lon="-5.181494888903358"><ele>1844.0</ele><time>2026-04-27T11:40:44.999Z</time></trkpt><trkpt lat="33.40303493831749" lon="-5.181769262951357"><ele>1840.0</ele><time>2026-04-27T11:40:45.999Z</time></trkpt><trkpt lat="33.40326362943912" lon="-5.182043938685704"><ele>1840.0</ele><time>2026-04-27T11:40:46.999Z</time></trkpt><trkpt lat="33.403490304181375" lon="-5.182315139309593"><ele>1840.0</ele><time>2026-04-27T11:40:47.999Z</time></trkpt><trkpt lat="33.40370920333823" lon="-5.182579102894663"><ele>1838.5</ele><time>2026-04-27T11:40:48.999Z</time></trkpt><trkpt lat="33.40392212244941" lon="-5.182835227965581"><ele>1837.0</ele><time>2026-04-27T11:40:49.999Z</time></trkpt><trkpt lat="33.404127951306606" lon="-5.183083876757048"><ele>1837.0</ele><time>2026-04-27T11:40:50.999Z</time></trkpt><trkpt lat="33.4043237865598" lon="-5.183324867810219"><ele>1837.0</ele><time>2026-04-27T11:40:51.999Z</time></trkpt><trkpt lat="33.40450940784387" lon="-5.183554577758673"><ele>1837.0</ele><time>2026-04-27T11:40:52.999Z</time></trkpt><trkpt lat="33.4046796401414" lon="-5.183759370466239"><ele>1837.0</ele><time>2026-04-27T11:40:53.999Z</time></trkpt><trkpt lat="33.404844099338796" lon="-5.183939984954247"><ele>1836.0</ele><time>2026-04-27T11:40:54.999Z</time></trkpt><trkpt lat="33.405011726118786" lon="-5.184098394234011"><ele>1835.0</ele><time>2026-04-27T11:40:55.999Z</time></trkpt><trkpt lat="33.405193545668546" lon="-5.184228959900367"><ele>1834.0</ele><time>2026-04-27T11:40:56.999Z</time></trkpt><trkpt lat="33.40539018552632" lon="-5.18434628308388"><ele>1835.6666666666667</ele><time>2026-04-27T11:40:57.999Z</time></trkpt><trkpt lat="33.40558890488809" lon="-5.184457228888017"><ele>1837.3333333333335</ele><time>2026-04-27T11:40:58.999Z</time></trkpt><trkpt lat="33.405785650040826" lon="-5.184559037043532"><ele>1839.0</ele><time>2026-04-27T11:40:59.999Z</time></trkpt><trkpt lat="33.40597744666278" lon="-5.184657673572153"><ele>1839.0</ele><time>2026-04-27T11:41:00.999Z</time></trkpt><trkpt lat="33.40616450025335" lon="-5.184755853644518"><ele>1839.0</ele><time>2026-04-27T11:41:01.999Z</time></trkpt><trkpt lat="33.406354404393085" lon="-5.18485594318212"><ele>1839.0</ele><time>2026-04-27T11:41:02.999Z</time></trkpt><trkpt lat="33.40654725768457" lon="-5.184955934149038"><ele>1840.3333333333335</ele><time>2026-04-27T11:41:03.999Z</time></trkpt><trkpt lat="33.406738001599635" lon="-5.185049879712278"><ele>1841.6666666666667</ele><time>2026-04-27T11:41:04.999Z</time></trkpt><trkpt lat="33.40692007770162" lon="-5.185124753189593"><ele>1843.0</ele><time>2026-04-27T11:41:05.999Z</time></trkpt><trkpt lat="33.407099679029756" lon="-5.18517297900934"><ele>1840.3333333333335</ele><time>2026-04-27T11:41:06.999Z</time></trkpt><trkpt lat="33.407283208993604" lon="-5.1851936810625725"><ele>1837.6666666666665</ele><time>2026-04-27T11:41:07.999Z</time></trkpt><trkpt lat="33.40746928447964" lon="-5.185178342094349"><ele>1835.0</ele><time>2026-04-27T11:41:08.999Z</time></trkpt><trkpt lat="33.40766164800474" lon="-5.185119608896319"><ele>1835.0</ele><time>2026-04-27T11:41:09.999Z</time></trkpt><trkpt lat="33.40784987877599" lon="-5.185029317736505"><ele>1835.0</ele><time>2026-04-27T11:41:10.999Z</time></trkpt><trkpt lat="33.40803892237437" lon="-5.184916019709786"><ele>1835.0</ele><time>2026-04-27T11:41:11.999Z</time></trkpt><trkpt lat="33.408221476255434" lon="-5.184780256327103"><ele>1833.3333333333333</ele><time>2026-04-27T11:41:12.999Z</time></trkpt><trkpt lat="33.40840442380654" lon="-5.184636918404737"><ele>1831.6666666666665</ele><time>2026-04-27T11:41:13.999Z</time></trkpt><trkpt lat="33.40858970047967" lon="-5.184497049808537"><ele>1830.0</ele><time>2026-04-27T11:41:14.999Z</time></trkpt><trkpt lat="33.408783685450985" lon="-5.184361524127299"><ele>1824.5</ele><time>2026-04-27T11:41:15.999Z</time></trkpt><trkpt lat="33.40897447749661" lon="-5.184222046897831"><ele>1819.0</ele><time>2026-04-27T11:41:16.999Z</time></trkpt><trkpt lat="33.40916755671266" lon="-5.184081034419873"><ele>1823.5</ele><time>2026-04-27T11:41:17.999Z</time></trkpt><trkpt lat="33.40936158881191" lon="-5.183941330876742"><ele>1828.0</ele><time>2026-04-27T11:41:18.999Z</time></trkpt><trkpt lat="33.40955622272562" lon="-5.183799178617663"><ele>1819.5</ele><time>2026-04-27T11:41:19.999Z</time></trkpt><trkpt lat="33.409752825844194" lon="-5.183657482718992"><ele>1811.0</ele><time>2026-04-27T11:41:21Z</time></trkpt><trkpt lat="33.40995060088509" lon="-5.183514666721376"><ele>1811.0</ele><time>2026-04-27T11:41:22Z</time></trkpt><trkpt lat="33.41014862637913" lon="-5.183369667575553"><ele>1811.0</ele><time>2026-04-27T11:41:23Z</time></trkpt><trkpt lat="33.4103595168308" lon="-5.183219103500185"><ele>1810.0</ele><time>2026-04-27T11:41:24Z</time></trkpt><trkpt lat="33.41057209708117" lon="-5.1830619359746954"><ele>1809.0</ele><time>2026-04-27T11:41:25Z</time></trkpt><trkpt lat="33.41078920094614" lon="-5.182902530054858"><ele>1809.0</ele><time>2026-04-27T11:41:26Z</time></trkpt><trkpt lat="33.411014145269746" lon="-5.182742212079519"><ele>1809.0</ele><time>2026-04-27T11:41:27Z</time></trkpt><trkpt lat="33.41123710333959" lon="-5.182580050300605"><ele>1804.5</ele><time>2026-04-27T11:41:28Z</time></trkpt><trkpt lat="33.41146174321346" lon="-5.182417801199718"><ele>1800.0</ele><time>2026-04-27T11:41:29Z</time></trkpt><trkpt lat="33.41168851321986" lon="-5.182253586466283"><ele>1800.0</ele><time>2026-04-27T11:41:30Z</time></trkpt><trkpt lat="33.41191566736858" lon="-5.182093101670215"><ele>1800.0</ele><time>2026-04-27T11:41:31Z</time></trkpt><trkpt lat="33.41213020973878" lon="-5.1819323610292285"><ele>1794.5</ele><time>2026-04-27T11:41:32Z</time></trkpt><trkpt lat="33.41234356832121" lon="-5.1817721228390825"><ele>1789.0</ele><time>2026-04-27T11:41:33Z</time></trkpt><trkpt lat="33.41255500329958" lon="-5.181610634057771"><ele>1790.0</ele><time>2026-04-27T11:41:34Z</time></trkpt><trkpt lat="33.41275768961004" lon="-5.181447957027151"><ele>1791.0</ele><time>2026-04-27T11:41:35Z</time></trkpt><trkpt lat="33.412956490024364" lon="-5.1812879561139855"><ele>1788.0</ele><time>2026-04-27T11:41:36Z</time></trkpt><trkpt lat="33.4131537459287" lon="-5.1811319242841725"><ele>1785.0</ele><time>2026-04-27T11:41:37Z</time></trkpt><trkpt lat="33.413347996630904" lon="-5.180978403260591"><ele>1785.0</ele><time>2026-04-27T11:41:38Z</time></trkpt><trkpt lat="33.413539631729996" lon="-5.1808266950831054"><ele>1785.0</ele><time>2026-04-27T11:41:39Z</time></trkpt><trkpt lat="33.413735991194415" lon="-5.180672779325382"><ele>1781.5</ele><time>2026-04-27T11:41:40Z</time></trkpt><trkpt lat="33.413935701533326" lon="-5.1805154594859815"><ele>1778.0</ele><time>2026-04-27T11:41:41Z</time></trkpt><trkpt lat="33.414139474396414" lon="-5.1803516118943405"><ele>1778.0</ele><time>2026-04-27T11:41:42Z</time></trkpt><trkpt lat="33.414348117346684" lon="-5.180184985218623"><ele>1778.0</ele><time>2026-04-27T11:41:43Z</time></trkpt><trkpt lat="33.41455641166281" lon="-5.180020388789962"><ele>1777.0</ele><time>2026-04-27T11:41:44Z</time></trkpt><trkpt lat="33.41476177081731" lon="-5.179868662624405"><ele>1776.0</ele><time>2026-04-27T11:41:45Z</time></trkpt><trkpt lat="33.41497002651952" lon="-5.179727459089333"><ele>1776.0</ele><time>2026-04-27T11:41:46Z</time></trkpt><trkpt lat="33.4151891758224" lon="-5.17960061236228"><ele>1776.0</ele><time>2026-04-27T11:41:47Z</time></trkpt><trkpt lat="33.415415754556406" lon="-5.179489402637689"><ele>1771.0</ele><time>2026-04-27T11:41:48Z</time></trkpt><trkpt lat="33.41565244790057" lon="-5.179394796836586"><ele>1766.0</ele><time>2026-04-27T11:41:49Z</time></trkpt><trkpt lat="33.4158910586804" lon="-5.1793171749411595"><ele>1766.0</ele><time>2026-04-27T11:41:50Z</time></trkpt><trkpt lat="33.41611859044663" lon="-5.17924836457864"><ele>1766.0</ele><time>2026-04-27T11:41:51Z</time></trkpt><trkpt lat="33.41631761837903" lon="-5.179183621341886"><ele>1766.0</ele><time>2026-04-27T11:41:52Z</time></trkpt><trkpt lat="33.416504407899296" lon="-5.1791254865776715"><ele>1763.0</ele><time>2026-04-27T11:41:53Z</time></trkpt><trkpt lat="33.41668402102715" lon="-5.179070804686214"><ele>1760.0</ele><time>2026-04-27T11:41:54Z</time></trkpt><trkpt lat="33.416858929266375" lon="-5.1790188283406495"><ele>1757.0</ele><time>2026-04-27T11:41:55Z</time></trkpt><trkpt lat="33.41702830858202" lon="-5.178969691100987"><ele>1754.3333333333333</ele><time>2026-04-27T11:41:56Z</time></trkpt><trkpt lat="33.41718825235932" lon="-5.178923404227396"><ele>1751.6666666666665</ele><time>2026-04-27T11:41:57Z</time></trkpt><trkpt lat="33.417343014745455" lon="-5.1788765240890555"><ele>1749.0</ele><time>2026-04-27T11:41:58Z</time></trkpt><trkpt lat="33.417491319128416" lon="-5.178831531108574"><ele>1749.0</ele><time>2026-04-27T11:41:59Z</time></trkpt><trkpt lat="33.417632351714055" lon="-5.1787907016502155"><ele>1749.0</ele><time>2026-04-27T11:42:00Z</time></trkpt><trkpt lat="33.417763067870176" lon="-5.178753887246044"><ele>1749.0</ele><time>2026-04-27T11:42:01Z</time></trkpt><trkpt lat="33.41788571168108" lon="-5.178719611546006"><ele>1749.0</ele><time>2026-04-27T11:42:02Z</time></trkpt><trkpt lat="33.418007737208804" lon="-5.178691089194046"><ele>1748.25</ele><time>2026-04-27T11:42:03Z</time></trkpt><trkpt lat="33.41813983399418" lon="-5.178655898681318"><ele>1747.5</ele><time>2026-04-27T11:42:04Z</time></trkpt><trkpt lat="33.418278413088075" lon="-5.178614656813199"><ele>1746.75</ele><time>2026-04-27T11:42:05Z</time></trkpt><trkpt lat="33.41842147652587" lon="-5.178568986320875"><ele>1746.0</ele><time>2026-04-27T11:42:06Z</time></trkpt><trkpt lat="33.41856851079635" lon="-5.178517565189261"><ele>1746.0</ele><time>2026-04-27T11:42:07Z</time></trkpt><trkpt lat="33.418718751200466" lon="-5.178464593706717"><ele>1746.0</ele><time>2026-04-27T11:42:08Z</time></trkpt><trkpt lat="33.41887250435712" lon="-5.1784114899076"><ele>1746.0</ele><time>2026-04-27T11:42:09Z</time></trkpt><trkpt lat="33.41902525914132" lon="-5.178360764728219"><ele>1745.75</ele><time>2026-04-27T11:42:10Z</time></trkpt><trkpt lat="33.41917211813213" lon="-5.178312722573644"><ele>1745.5</ele><time>2026-04-27T11:42:11Z</time></trkpt><trkpt lat="33.41931184044235" lon="-5.1782667503298"><ele>1745.25</ele><time>2026-04-27T11:42:12Z</time></trkpt><trkpt lat="33.41944351644952" lon="-5.178224193991725"><ele>1745.0</ele><time>2026-04-27T11:42:13Z</time></trkpt><trkpt lat="33.41956933337122" lon="-5.178185431742907"><ele>1745.75</ele><time>2026-04-27T11:42:14Z</time></trkpt><trkpt lat="33.41968591672025" lon="-5.178150257511396"><ele>1746.5</ele><time>2026-04-27T11:42:15Z</time></trkpt><trkpt lat="33.41979940617077" lon="-5.1781188552799975"><ele>1747.25</ele><time>2026-04-27T11:42:15.999Z</time></trkpt><trkpt lat="33.419916312276584" lon="-5.178092245675656"><ele>1748.0</ele><time>2026-04-27T11:42:16.999Z</time></trkpt><trkpt lat="33.42003784818522" lon="-5.178060516354808"><ele>1748.0</ele><time>2026-04-27T11:42:17.999Z</time></trkpt><trkpt lat="33.42016363578139" lon="-5.178025297786007"><ele>1748.0</ele><time>2026-04-27T11:42:18.999Z</time></trkpt><trkpt lat="33.42029205298998" lon="-5.177999466842631"><ele>1748.0</ele><time>2026-04-27T11:42:19.999Z</time></trkpt><trkpt lat="33.42041956057184" lon="-5.177996746907019"><ele>1748.0</ele><time>2026-04-27T11:42:20.999Z</time></trkpt><trkpt lat="33.420546252247625" lon="-5.178015606098441"><ele>1749.75</ele><time>2026-04-27T11:42:21.999Z</time></trkpt><trkpt lat="33.42067372258639" lon="-5.1780569891552295"><ele>1751.5</ele><time>2026-04-27T11:42:22.999Z</time></trkpt><trkpt lat="33.420802486745735" lon="-5.178123932316418"><ele>1753.25</ele><time>2026-04-27T11:42:23.999Z</time></trkpt><trkpt lat="33.42093448457555" lon="-5.178210076245159"><ele>1755.0</ele><time>2026-04-27T11:42:24.999Z</time></trkpt><trkpt lat="33.42106653043279" lon="-5.1783058930860415"><ele>1755.0</ele><time>2026-04-27T11:42:25.999Z</time></trkpt><trkpt lat="33.421183778587434" lon="-5.178392994521299"><ele>1755.0</ele><time>2026-04-27T11:42:26.999Z</time></trkpt><trkpt lat="33.421297224338936" lon="-5.178475421036593"><ele>1755.0</ele><time>2026-04-27T11:42:27.999Z</time></trkpt><trkpt lat="33.42141272332144" lon="-5.178549877582814"><ele>1755.0</ele><time>2026-04-27T11:42:28.999Z</time></trkpt><trkpt lat="33.421528761290205" lon="-5.178617668265324"><ele>1753.4</ele><time>2026-04-27T11:42:29.999Z</time></trkpt><trkpt lat="33.42164485223195" lon="-5.178667708959674"><ele>1751.8</ele><time>2026-04-27T11:42:30.999Z</time></trkpt><trkpt lat="33.42174452203864" lon="-5.178701608002765"><ele>1750.1999999999998</ele><time>2026-04-27T11:42:31.999Z</time></trkpt><trkpt lat="33.42182983390028" lon="-5.1787187547051925"><ele>1748.6</ele><time>2026-04-27T11:42:32.999Z</time></trkpt><trkpt lat="33.421923700550884" lon="-5.1787129549784785"><ele>1747.0</ele><time>2026-04-27T11:42:33.999Z</time></trkpt><trkpt lat="33.42201526876868" lon="-5.178688233565641"><ele>1747.0</ele><time>2026-04-27T11:42:34.999Z</time></trkpt><trkpt lat="33.4221158515001" lon="-5.178668745388215"><ele>1746.9999999999998</ele><time>2026-04-27T11:42:35.999Z</time></trkpt><trkpt lat="33.422218141574675" lon="-5.178643409603536"><ele>1746.9999999999998</ele><time>2026-04-27T11:42:36.999Z</time></trkpt><trkpt lat="33.42232595509252" lon="-5.178615577105286"><ele>1747.0</ele><time>2026-04-27T11:42:37.999Z</time></trkpt><trkpt lat="33.42244076416189" lon="-5.178601879238533"><ele>1747.0</ele><time>2026-04-27T11:42:38.999Z</time></trkpt><trkpt lat="33.422564283178694" lon="-5.178606331356649"><ele>1744.75</ele><time>2026-04-27T11:42:39.999Z</time></trkpt><trkpt lat="33.42269590775169" lon="-5.178633864504776"><ele>1742.5</ele><time>2026-04-27T11:42:40.999Z</time></trkpt><trkpt lat="33.42283181663176" lon="-5.178680033018067"><ele>1740.25</ele><time>2026-04-27T11:42:41.999Z</time></trkpt><trkpt lat="33.42296890568937" lon="-5.178741655100899"><ele>1738.0</ele><time>2026-04-27T11:42:42.999Z</time></trkpt><trkpt lat="33.423112904863466" lon="-5.178813163670306"><ele>1736.6666666666667</ele><time>2026-04-27T11:42:43.999Z</time></trkpt><trkpt lat="33.42326403142237" lon="-5.17888525672591"><ele>1735.3333333333335</ele><time>2026-04-27T11:42:44.999Z</time></trkpt><trkpt lat="33.423419286426956" lon="-5.178948707090701"><ele>1734.0</ele><time>2026-04-27T11:42:45.999Z</time></trkpt><trkpt lat="33.423578416551436" lon="-5.178996753320996"><ele>1733.3333333333335</ele><time>2026-04-27T11:42:46.999Z</time></trkpt><trkpt lat="33.42374231089106" lon="-5.17902782764167"><ele>1732.6666666666667</ele><time>2026-04-27T11:42:47.999Z</time></trkpt><trkpt lat="33.42390847087826" lon="-5.179046141126346"><ele>1732.0</ele><time>2026-04-27T11:42:48.999Z</time></trkpt><trkpt lat="33.42407280866495" lon="-5.179059184894332"><ele>1730.3333333333335</ele><time>2026-04-27T11:42:49.999Z</time></trkpt><trkpt lat="33.42423896612987" lon="-5.179066751648347"><ele>1728.6666666666665</ele><time>2026-04-27T11:42:50.999Z</time></trkpt><trkpt lat="33.42440587304851" lon="-5.17906115457098"><ele>1727.0</ele><time>2026-04-27T11:42:51.999Z</time></trkpt><trkpt lat="33.424570111288325" lon="-5.179027963482665"><ele>1725.3333333333333</ele><time>2026-04-27T11:42:52.999Z</time></trkpt><trkpt lat="33.42472603672988" lon="-5.17897330219131"><ele>1723.6666666666665</ele><time>2026-04-27T11:42:53.999Z</time></trkpt><trkpt lat="33.42487579751763" lon="-5.1788997033163575"><ele>1722.0</ele><time>2026-04-27T11:42:54.999Z</time></trkpt><trkpt lat="33.42502594056868" lon="-5.178821199324827"><ele>1722.0</ele><time>2026-04-27T11:42:55.999Z</time></trkpt><trkpt lat="33.42517530618372" lon="-5.178738997658119"><ele>1722.0</ele><time>2026-04-27T11:42:56.999Z</time></trkpt><trkpt lat="33.42532499659764" lon="-5.178655312202256"><ele>1722.0</ele><time>2026-04-27T11:42:57.999Z</time></trkpt><trkpt lat="33.42547437077942" lon="-5.178567141961094"><ele>1718.3333333333335</ele><time>2026-04-27T11:42:58.999Z</time></trkpt><trkpt lat="33.42561825621309" lon="-5.178464787375674"><ele>1714.6666666666667</ele><time>2026-04-27T11:42:59.999Z</time></trkpt><trkpt lat="33.42575609926485" lon="-5.178347201019875"><ele>1711.0</ele><time>2026-04-27T11:43:00.999Z</time></trkpt><trkpt lat="33.425883156358076" lon="-5.178207737139569"><ele>1709.0</ele><time>2026-04-27T11:43:01.999Z</time></trkpt><trkpt lat="33.42599850922175" lon="-5.178052139384"><ele>1707.0</ele><time>2026-04-27T11:43:02.999Z</time></trkpt><trkpt lat="33.42610232347917" lon="-5.177884849174661"><ele>1705.0</ele><time>2026-04-27T11:43:03.999Z</time></trkpt><trkpt lat="33.426186729706984" lon="-5.177707331158161"><ele>1705.0</ele><time>2026-04-27T11:43:04.999Z</time></trkpt><trkpt lat="33.42623888176279" lon="-5.177506418026571"><ele>1705.0</ele><time>2026-04-27T11:43:05.999Z</time></trkpt><trkpt lat="33.426252760213735" lon="-5.177299425446427"><ele>1705.0</ele><time>2026-04-27T11:43:06.999Z</time></trkpt><trkpt lat="33.42625788606062" lon="-5.177102364320406"><ele>1704.6666666666667</ele><time>2026-04-27T11:43:07.999Z</time></trkpt><trkpt lat="33.426280915181415" lon="-5.176906783735145"><ele>1704.3333333333335</ele><time>2026-04-27T11:43:08.999Z</time></trkpt><trkpt lat="33.42633828638874" lon="-5.1767134029738155"><ele>1704.0</ele><time>2026-04-27T11:43:09.999Z</time></trkpt><trkpt lat="33.42641897626724" lon="-5.176522152223757"><ele>1700.3333333333335</ele><time>2026-04-27T11:43:10.999Z</time></trkpt><trkpt lat="33.426518619680785" lon="-5.176325941437729"><ele>1696.6666666666667</ele><time>2026-04-27T11:43:11.999Z</time></trkpt><trkpt lat="33.42663140216463" lon="-5.176129041300367"><ele>1693.0</ele><time>2026-04-27T11:43:12.999Z</time></trkpt><trkpt lat="33.42675689716774" lon="-5.175933082112529"><ele>1693.0</ele><time>2026-04-27T11:43:13.999Z</time></trkpt><trkpt lat="33.42689282732905" lon="-5.175735881150612"><ele>1693.0</ele><time>2026-04-27T11:43:14.999Z</time></trkpt><trkpt lat="33.42703447412919" lon="-5.175539575812634"><ele>1693.0</ele><time>2026-04-27T11:43:15.999Z</time></trkpt><trkpt lat="33.42717732129977" lon="-5.175346405557331"><ele>1691.0</ele><time>2026-04-27T11:43:16.999Z</time></trkpt><trkpt lat="33.4273072904702" lon="-5.175172291745696"><ele>1689.0</ele><time>2026-04-27T11:43:17.999Z</time></trkpt><trkpt lat="33.427432783551794" lon="-5.175008461698254"><ele>1687.0</ele><time>2026-04-27T11:43:18.999Z</time></trkpt><trkpt lat="33.42754860373906" lon="-5.1748580858108895"><ele>1686.3333333333335</ele><time>2026-04-27T11:43:19.999Z</time></trkpt><trkpt lat="33.42766853494669" lon="-5.1747108820384256"><ele>1685.6666666666665</ele><time>2026-04-27T11:43:20.999Z</time></trkpt><trkpt lat="33.427778964866114" lon="-5.174556209316986"><ele>1685.0</ele><time>2026-04-27T11:43:21.999Z</time></trkpt><trkpt lat="33.427918997421266" lon="-5.174443071035201"><ele>1682.6666666666665</ele><time>2026-04-27T11:43:22.999Z</time></trkpt><trkpt lat="33.428069548891756" lon="-5.17435627528719"><ele>1680.3333333333335</ele><time>2026-04-27T11:43:23.999Z</time></trkpt><trkpt lat="33.42822606349369" lon="-5.1742888185506954"><ele>1678.0</ele><time>2026-04-27T11:43:24.999Z</time></trkpt><trkpt lat="33.42838384703901" lon="-5.174231229626955"><ele>1678.0</ele><time>2026-04-27T11:43:25.999Z</time></trkpt><trkpt lat="33.42854011639575" lon="-5.174195439130608"><ele>1678.0</ele><time>2026-04-27T11:43:27Z</time></trkpt><trkpt lat="33.428682601381794" lon="-5.174126108118592"><ele>1678.0</ele><time>2026-04-27T11:43:28Z</time></trkpt><trkpt lat="33.42883296558905" lon="-5.174093076027058"><ele>1677.0</ele><time>2026-04-27T11:43:29Z</time></trkpt><trkpt lat="33.42899981490561" lon="-5.174095401509067"><ele>1676.0</ele><time>2026-04-27T11:43:30Z</time></trkpt><trkpt lat="33.429170023502586" lon="-5.174171812524089"><ele>1675.0</ele><time>2026-04-27T11:43:31Z</time></trkpt><trkpt lat="33.4293520249034" lon="-5.174238998129073"><ele>1675.0</ele><time>2026-04-27T11:43:32Z</time></trkpt><trkpt lat="33.4295356041355" lon="-5.174299503430963"><ele>1675.0</ele><time>2026-04-27T11:43:33Z</time></trkpt><trkpt lat="33.429728833588534" lon="-5.174333574443363"><ele>1675.0</ele><time>2026-04-27T11:43:34Z</time></trkpt><trkpt lat="33.42992054239234" lon="-5.174404850440817"><ele>1673.6666666666667</ele><time>2026-04-27T11:43:35Z</time></trkpt><trkpt lat="33.4301199532503" lon="-5.174456384812105"><ele>1672.3333333333335</ele><time>2026-04-27T11:43:36Z</time></trkpt><trkpt lat="33.430311087094836" lon="-5.174524666688369"><ele>1671.0</ele><time>2026-04-27T11:43:37Z</time></trkpt><trkpt lat="33.43049391075495" lon="-5.174607433515124"><ele>1669.6666666666665</ele><time>2026-04-27T11:43:38Z</time></trkpt><trkpt lat="33.430673271969276" lon="-5.174689860598412"><ele>1668.3333333333333</ele><time>2026-04-27T11:43:39Z</time></trkpt><trkpt lat="33.43084935807127" lon="-5.174769406567851"><ele>1667.0</ele><time>2026-04-27T11:43:40Z</time></trkpt><trkpt lat="33.431022663779366" lon="-5.174839138972292"><ele>1666.0</ele><time>2026-04-27T11:43:41Z</time></trkpt><trkpt lat="33.43118476616105" lon="-5.174894874967539"><ele>1665.0</ele><time>2026-04-27T11:43:42Z</time></trkpt><trkpt lat="33.431337624916544" lon="-5.174954786880228"><ele>1664.0</ele><time>2026-04-27T11:43:43Z</time></trkpt><trkpt lat="33.43147740880889" lon="-5.1750389749160215"><ele>1660.3333333333333</ele><time>2026-04-27T11:43:44Z</time></trkpt><trkpt lat="33.43159670544256" lon="-5.175172338460054"><ele>1656.6666666666665</ele><time>2026-04-27T11:43:45Z</time></trkpt><trkpt lat="33.43169518416015" lon="-5.175337140582624"><ele>1653.0</ele><time>2026-04-27T11:43:46Z</time></trkpt><trkpt lat="33.431779870500364" lon="-5.175526271161379"><ele>1653.0</ele><time>2026-04-27T11:43:47Z</time></trkpt><trkpt lat="33.43186507559042" lon="-5.175710897807152"><ele>1653.0</ele><time>2026-04-27T11:43:48Z</time></trkpt><trkpt lat="33.4319540024067" lon="-5.175898676921754"><ele>1653.0</ele><time>2026-04-27T11:43:49Z</time></trkpt><trkpt lat="33.43204238018071" lon="-5.176084568917941"><ele>1653.0</ele><time>2026-04-27T11:43:50Z</time></trkpt><trkpt lat="33.43212943795722" lon="-5.176270217055824"><ele>1653.0</ele><time>2026-04-27T11:43:51Z</time></trkpt><trkpt lat="33.43221107545138" lon="-5.17645138310192"><ele>1653.0</ele><time>2026-04-27T11:43:52Z</time></trkpt><trkpt lat="33.432291610141384" lon="-5.176623064505642"><ele>1649.0</ele><time>2026-04-27T11:43:53Z</time></trkpt><trkpt lat="33.43236938063906" lon="-5.1767897086230406"><ele>1645.0</ele><time>2026-04-27T11:43:54Z</time></trkpt><trkpt lat="33.43244292093582" lon="-5.176948170448315"><ele>1641.0</ele><time>2026-04-27T11:43:55Z</time></trkpt><trkpt lat="33.43251428416933" lon="-5.177100740126023"><ele>1641.0</ele><time>2026-04-27T11:43:56Z</time></trkpt><trkpt lat="33.4325826580454" lon="-5.177251103188843"><ele>1641.0</ele><time>2026-04-27T11:43:57Z</time></trkpt><trkpt lat="33.432665956457086" lon="-5.177390570522371"><ele>1641.0</ele><time>2026-04-27T11:43:58Z</time></trkpt><trkpt lat="33.43272300756041" lon="-5.177552195610869"><ele>1641.0</ele><time>2026-04-27T11:43:59Z</time></trkpt><trkpt lat="33.43279744478044" lon="-5.177708795781965"><ele>1638.0</ele><time>2026-04-27T11:44:00Z</time></trkpt><trkpt lat="33.43287287753975" lon="-5.177872005247799"><ele>1635.0</ele><time>2026-04-27T11:44:01Z</time></trkpt><trkpt lat="33.432952089509065" lon="-5.178040440790938"><ele>1632.0</ele><time>2026-04-27T11:44:02Z</time></trkpt><trkpt lat="33.43303460686934" lon="-5.17821317714658"><ele>1629.3333333333335</ele><time>2026-04-27T11:44:03Z</time></trkpt><trkpt lat="33.43311913939275" lon="-5.178392335607423"><ele>1626.6666666666667</ele><time>2026-04-27T11:44:04Z</time></trkpt><trkpt lat="33.4332066620426" lon="-5.178579676936897"><ele>1624.0</ele><time>2026-04-27T11:44:05Z</time></trkpt><trkpt lat="33.4332967283924" lon="-5.178773297164294"><ele>1624.0</ele><time>2026-04-27T11:44:06Z</time></trkpt><trkpt lat="33.43339111742683" lon="-5.178974233765426"><ele>1624.0</ele><time>2026-04-27T11:44:07Z</time></trkpt><trkpt lat="33.433503693029756" lon="-5.179170150829988"><ele>1624.0</ele><time>2026-04-27T11:44:08Z</time></trkpt><trkpt lat="33.43360468683312" lon="-5.17938154496283"><ele>1623.3333333333335</ele><time>2026-04-27T11:44:09Z</time></trkpt><trkpt lat="33.433707591576635" lon="-5.179598471540086"><ele>1622.6666666666665</ele><time>2026-04-27T11:44:10Z</time></trkpt><trkpt lat="33.433810038100766" lon="-5.1798147816509355"><ele>1622.0</ele><time>2026-04-27T11:44:11Z</time></trkpt><trkpt lat="33.43391205998317" lon="-5.180028022125209"><ele>1621.6666666666665</ele><time>2026-04-27T11:44:12Z</time></trkpt><trkpt lat="33.4340175759124" lon="-5.180246035946487"><ele>1621.3333333333335</ele><time>2026-04-27T11:44:13Z</time></trkpt><trkpt lat="33.43411726953021" lon="-5.180475712856049"><ele>1621.0</ele><time>2026-04-27T11:44:14Z</time></trkpt><trkpt lat="33.43419446794614" lon="-5.18070555574029"><ele>1621.0</ele><time>2026-04-27T11:44:15Z</time></trkpt><trkpt lat="33.434279985652736" lon="-5.180923785397281"><ele>1621.0</ele><time>2026-04-27T11:44:16Z</time></trkpt><trkpt lat="33.434349457389665" lon="-5.18114126168142"><ele>1621.0</ele><time>2026-04-27T11:44:16.999Z</time></trkpt><trkpt lat="33.43440138557256" lon="-5.181349338955757"><ele>1622.3333333333335</ele><time>2026-04-27T11:44:17.999Z</time></trkpt><trkpt lat="33.43444465739701" lon="-5.181550389732152"><ele>1623.6666666666665</ele><time>2026-04-27T11:44:18.999Z</time></trkpt><trkpt lat="33.434480668372146" lon="-5.1817469266272695"><ele>1625.0</ele><time>2026-04-27T11:44:19.999Z</time></trkpt><trkpt lat="33.43451368338388" lon="-5.181938862438481"><ele>1625.0</ele><time>2026-04-27T11:44:20.999Z</time></trkpt><trkpt lat="33.43454466436798" lon="-5.182125341389555"><ele>1625.0</ele><time>2026-04-27T11:44:21.999Z</time></trkpt><trkpt lat="33.43457832760196" lon="-5.182312111419247"><ele>1625.0</ele><time>2026-04-27T11:44:22.999Z</time></trkpt><trkpt lat="33.43461206589202" lon="-5.1825015303906214"><ele>1623.3333333333333</ele><time>2026-04-27T11:44:23.999Z</time></trkpt><trkpt lat="33.43464548353802" lon="-5.182688028204335"><ele>1621.6666666666665</ele><time>2026-04-27T11:44:24.999Z</time></trkpt><trkpt lat="33.434676088112106" lon="-5.182869345247844"><ele>1620.0</ele><time>2026-04-27T11:44:25.999Z</time></trkpt><trkpt lat="33.43470791676105" lon="-5.1830453566718555"><ele>1618.5</ele><time>2026-04-27T11:44:26.999Z</time></trkpt><trkpt lat="33.434736105275746" lon="-5.1832168560068155"><ele>1617.0</ele><time>2026-04-27T11:44:27.999Z</time></trkpt><trkpt lat="33.434781433328425" lon="-5.18338115752995"><ele>1615.5</ele><time>2026-04-27T11:44:28.999Z</time></trkpt><trkpt lat="33.434793213500534" lon="-5.183546809066152"><ele>1614.0</ele><time>2026-04-27T11:44:29.999Z</time></trkpt><trkpt lat="33.434821874411746" lon="-5.183702885061331"><ele>1614.0</ele><time>2026-04-27T11:44:30.999Z</time></trkpt><trkpt lat="33.43485018975845" lon="-5.1838542198651965"><ele>1614.0</ele><time>2026-04-27T11:44:31.999Z</time></trkpt><trkpt lat="33.434876063232515" lon="-5.184003507951956"><ele>1614.0</ele><time>2026-04-27T11:44:32.999Z</time></trkpt><trkpt lat="33.434918779037226" lon="-5.184150986196762"><ele>1614.0</ele><time>2026-04-27T11:44:33.999Z</time></trkpt><trkpt lat="33.434953056558456" lon="-5.184302636066521"><ele>1613.5</ele><time>2026-04-27T11:44:34.999Z</time></trkpt><trkpt lat="33.43498832735243" lon="-5.184456482629868"><ele>1613.0</ele><time>2026-04-27T11:44:35.999Z</time></trkpt><trkpt lat="33.43502352510682" lon="-5.184613450865662"><ele>1612.5</ele><time>2026-04-27T11:44:36.999Z</time></trkpt><trkpt lat="33.435043187649015" lon="-5.184770530498674"><ele>1612.0</ele><time>2026-04-27T11:44:37.999Z</time></trkpt><trkpt lat="33.43506458551433" lon="-5.184930540228802"><ele>1611.0</ele><time>2026-04-27T11:44:38.999Z</time></trkpt><trkpt lat="33.435088827910704" lon="-5.185091082558639"><ele>1610.0</ele><time>2026-04-27T11:44:39.999Z</time></trkpt><trkpt lat="33.43509807564765" lon="-5.185258753333509"><ele>1609.0</ele><time>2026-04-27T11:44:40.999Z</time></trkpt><trkpt lat="33.435082788611915" lon="-5.1854316634001645"><ele>1608.0</ele><time>2026-04-27T11:44:41.999Z</time></trkpt><trkpt lat="33.435031059174214" lon="-5.185598805296664"><ele>1605.6666666666665</ele><time>2026-04-27T11:44:42.999Z</time></trkpt><trkpt lat="33.434932350696265" lon="-5.185744513871285"><ele>1603.3333333333333</ele><time>2026-04-27T11:44:43.999Z</time></trkpt><trkpt lat="33.434796616144" lon="-5.185844313779408"><ele>1601.0</ele><time>2026-04-27T11:44:44.999Z</time></trkpt><trkpt lat="33.434664929882324" lon="-5.185946026195181"><ele>1604.0</ele><time>2026-04-27T11:44:45.999Z</time></trkpt><trkpt lat="33.434535418975564" lon="-5.186053149261903"><ele>1607.0</ele><time>2026-04-27T11:44:46.999Z</time></trkpt><trkpt lat="33.4343988780081" lon="-5.18614876905444"><ele>1610.0</ele><time>2026-04-27T11:44:47.999Z</time></trkpt><trkpt lat="33.43427191159194" lon="-5.186257927016314"><ele>1610.0</ele><time>2026-04-27T11:44:48.999Z</time></trkpt><trkpt lat="33.43416179866821" lon="-5.186379527801038"><ele>1610.0</ele><time>2026-04-27T11:44:49.999Z</time></trkpt><trkpt lat="33.434068641027935" lon="-5.1865213898997595"><ele>1610.0</ele><time>2026-04-27T11:44:50.999Z</time></trkpt><trkpt lat="33.43398004946886" lon="-5.186668423166657"><ele>1607.6666666666665</ele><time>2026-04-27T11:44:51.999Z</time></trkpt><trkpt lat="33.43388117209687" lon="-5.18681318454261"><ele>1605.3333333333335</ele><time>2026-04-27T11:44:52.999Z</time></trkpt><trkpt lat="33.43375463084996" lon="-5.18693196265861"><ele>1603.0</ele><time>2026-04-27T11:44:53.999Z</time></trkpt><trkpt lat="33.43360573567227" lon="-5.187014288500057"><ele>1603.0</ele><time>2026-04-27T11:44:54.999Z</time></trkpt><trkpt lat="33.43345188516852" lon="-5.187067468826391"><ele>1603.0</ele><time>2026-04-27T11:44:55.999Z</time></trkpt><trkpt lat="33.433306577560785" lon="-5.187151783799553"><ele>1603.0</ele><time>2026-04-27T11:44:56.999Z</time></trkpt><trkpt lat="33.433155700539444" lon="-5.187219716504971"><ele>1603.0</ele><time>2026-04-27T11:44:57.999Z</time></trkpt><trkpt lat="33.433008796458886" lon="-5.187288049731473"><ele>1603.0</ele><time>2026-04-27T11:44:58.999Z</time></trkpt><trkpt lat="33.43286801072661" lon="-5.18737524104117"><ele>1603.0</ele><time>2026-04-27T11:44:59.999Z</time></trkpt><trkpt lat="33.43273310612134" lon="-5.1874759857945545"><ele>1598.0</ele><time>2026-04-27T11:45:00.999Z</time></trkpt><trkpt lat="33.43259360514051" lon="-5.187576003472769"><ele>1593.0</ele><time>2026-04-27T11:45:01.999Z</time></trkpt><trkpt lat="33.4324569617409" lon="-5.187674240343575"><ele>1588.0</ele><time>2026-04-27T11:45:02.999Z</time></trkpt><trkpt lat="33.43231968115919" lon="-5.18777313363762"><ele>1588.0</ele><time>2026-04-27T11:45:03.999Z</time></trkpt><trkpt lat="33.43217633451564" lon="-5.18787066448707"><ele>1588.0</ele><time>2026-04-27T11:45:04.999Z</time></trkpt><trkpt lat="33.43202084668021" lon="-5.1879365368698735"><ele>1588.0</ele><time>2026-04-27T11:45:05.999Z</time></trkpt><trkpt lat="33.431866442633016" lon="-5.188010213936193"><ele>1592.3333333333335</ele><time>2026-04-27T11:45:06.999Z</time></trkpt><trkpt lat="33.431706396141855" lon="-5.188077455223736"><ele>1596.6666666666665</ele><time>2026-04-27T11:45:07.999Z</time></trkpt><trkpt lat="33.43155704952654" lon="-5.188181307683197"><ele>1601.0</ele><time>2026-04-27T11:45:08.999Z</time></trkpt><trkpt lat="33.43140769483038" lon="-5.188287219098041"><ele>1594.3333333333333</ele><time>2026-04-27T11:45:09.999Z</time></trkpt><trkpt lat="33.431255702229095" lon="-5.1883955428708175"><ele>1587.6666666666665</ele><time>2026-04-27T11:45:10.999Z</time></trkpt><trkpt lat="33.43110434390226" lon="-5.188504099750954"><ele>1581.0</ele><time>2026-04-27T11:45:11.999Z</time></trkpt><trkpt lat="33.43095355467706" lon="-5.188614867133384"><ele>1581.0</ele><time>2026-04-27T11:45:12.999Z</time></trkpt><trkpt lat="33.43080002690252" lon="-5.188723335755403"><ele>1581.0</ele><time>2026-04-27T11:45:13.999Z</time></trkpt><trkpt lat="33.43064129191979" lon="-5.188811416172209"><ele>1581.0</ele><time>2026-04-27T11:45:14.999Z</time></trkpt><trkpt lat="33.43050138742626" lon="-5.188937140217932"><ele>1575.3333333333335</ele><time>2026-04-27T11:45:15.999Z</time></trkpt><trkpt lat="33.430354102347465" lon="-5.189047716950154"><ele>1569.6666666666667</ele><time>2026-04-27T11:45:16.999Z</time></trkpt><trkpt lat="33.430203005466154" lon="-5.189152058173183"><ele>1564.0</ele><time>2026-04-27T11:45:17.999Z</time></trkpt><trkpt lat="33.430055604194486" lon="-5.189256776011501"><ele>1564.0</ele><time>2026-04-27T11:45:18.999Z</time></trkpt><trkpt lat="33.42989379477483" lon="-5.189342683913266"><ele>1564.0</ele><time>2026-04-27T11:45:19.999Z</time></trkpt><trkpt lat="33.42974287023184" lon="-5.189447287691777"><ele>1564.0</ele><time>2026-04-27T11:45:20.999Z</time></trkpt><trkpt lat="33.42959174898292" lon="-5.189540640329928"><ele>1567.0</ele><time>2026-04-27T11:45:21.999Z</time></trkpt><trkpt lat="33.42943815108634" lon="-5.189620805277964"><ele>1570.0</ele><time>2026-04-27T11:45:22.999Z</time></trkpt><trkpt lat="33.42928401792509" lon="-5.189689303103151"><ele>1573.0</ele><time>2026-04-27T11:45:23.999Z</time></trkpt><trkpt lat="33.4291270994316" lon="-5.189757936619019"><ele>1568.3333333333335</ele><time>2026-04-27T11:45:24.999Z</time></trkpt><trkpt lat="33.42897797278325" lon="-5.189860442735643"><ele>1563.6666666666665</ele><time>2026-04-27T11:45:25.999Z</time></trkpt><trkpt lat="33.428828017931686" lon="-5.189965837720499"><ele>1559.0</ele><time>2026-04-27T11:45:26.999Z</time></trkpt><trkpt lat="33.42867692085361" lon="-5.190090747572613"><ele>1559.0</ele><time>2026-04-27T11:45:27.999Z</time></trkpt><trkpt lat="33.428522163788955" lon="-5.190219066298679"><ele>1559.0</ele><time>2026-04-27T11:45:28.999Z</time></trkpt><trkpt lat="33.428362241247314" lon="-5.1903415744104135"><ele>1559.0</ele><time>2026-04-27T11:45:29.999Z</time></trkpt><trkpt lat="33.4282028284864" lon="-5.190458531625855"><ele>1559.0</ele><time>2026-04-27T11:45:30.999Z</time></trkpt><trkpt lat="33.428051640603265" lon="-5.19056191030009"><ele>1559.0</ele><time>2026-04-27T11:45:32Z</time></trkpt><trkpt lat="33.427926184233726" lon="-5.190623023820969"><ele>1559.0</ele><time>2026-04-27T11:45:33Z</time></trkpt><trkpt lat="33.42781943571427" lon="-5.190701227120098"><ele>1559.0</ele><time>2026-04-27T11:45:34Z</time></trkpt><trkpt lat="33.427707605966354" lon="-5.190791501512998"><ele>1554.25</ele><time>2026-04-27T11:45:35Z</time></trkpt><trkpt lat="33.4276352035866" lon="-5.190928661541492"><ele>1549.5</ele><time>2026-04-27T11:45:36Z</time></trkpt><trkpt lat="33.427555326221245" lon="-5.191062731972135"><ele>1544.75</ele><time>2026-04-27T11:45:37Z</time></trkpt><trkpt lat="33.427469066623225" lon="-5.191203760746654"><ele>1540.0</ele><time>2026-04-27T11:45:38Z</time></trkpt><trkpt lat="33.42737259385137" lon="-5.1913444199910215"><ele>1540.0</ele><time>2026-04-27T11:45:39Z</time></trkpt><trkpt lat="33.427259100097196" lon="-5.191479747826158"><ele>1540.0</ele><time>2026-04-27T11:45:40Z</time></trkpt><trkpt lat="33.42713592444447" lon="-5.191611798524455"><ele>1540.0</ele><time>2026-04-27T11:45:41Z</time></trkpt><trkpt lat="33.427004040341" lon="-5.191730437794761"><ele>1536.6666666666667</ele><time>2026-04-27T11:45:42Z</time></trkpt><trkpt lat="33.42685281130938" lon="-5.1918132853816665"><ele>1533.3333333333335</ele><time>2026-04-27T11:45:43Z</time></trkpt><trkpt lat="33.426706371682094" lon="-5.19189733468117"><ele>1530.0</ele><time>2026-04-27T11:45:44Z</time></trkpt><trkpt lat="33.426556508914786" lon="-5.191964192966254"><ele>1530.0</ele><time>2026-04-27T11:45:45Z</time></trkpt><trkpt lat="33.42640839014831" lon="-5.192034208835648"><ele>1530.0</ele><time>2026-04-27T11:45:46Z</time></trkpt><trkpt lat="33.4262639311774" lon="-5.192116642067809"><ele>1530.0</ele><time>2026-04-27T11:45:47Z</time></trkpt><trkpt lat="33.426135041196964" lon="-5.192217731348536"><ele>1526.0</ele><time>2026-04-27T11:45:48Z</time></trkpt><trkpt lat="33.426042916570296" lon="-5.192363821194934"><ele>1522.0</ele><time>2026-04-27T11:45:49Z</time></trkpt><trkpt lat="33.42598806644747" lon="-5.192526683890798"><ele>1518.0</ele><time>2026-04-27T11:45:50Z</time></trkpt><trkpt lat="33.42594875840152" lon="-5.192706988413607"><ele>1518.0</ele><time>2026-04-27T11:45:51Z</time></trkpt><trkpt lat="33.42589305233335" lon="-5.19289116754628"><ele>1518.0</ele><time>2026-04-27T11:45:52Z</time></trkpt><trkpt lat="33.42585928229158" lon="-5.193086862418267"><ele>1518.0</ele><time>2026-04-27T11:45:53Z</time></trkpt><trkpt lat="33.42581946406033" lon="-5.193287915854224"><ele>1513.6666666666667</ele><time>2026-04-27T11:45:54Z</time></trkpt><trkpt lat="33.42577549035949" lon="-5.193490590428441"><ele>1509.3333333333335</ele><time>2026-04-27T11:45:55Z</time></trkpt><trkpt lat="33.42573053164887" lon="-5.1936933882848955"><ele>1505.0</ele><time>2026-04-27T11:45:56Z</time></trkpt><trkpt lat="33.4256859441352" lon="-5.193899530858533"><ele>1502.6666666666667</ele><time>2026-04-27T11:45:57Z</time></trkpt><trkpt lat="33.4256428325583" lon="-5.194108979113043"><ele>1500.3333333333333</ele><time>2026-04-27T11:45:58Z</time></trkpt><trkpt lat="33.42559871029456" lon="-5.194322063378095"><ele>1498.0</ele><time>2026-04-27T11:45:59Z</time></trkpt><trkpt lat="33.425556075495756" lon="-5.194532464102875"><ele>1498.0</ele><time>2026-04-27T11:46:00Z</time></trkpt><trkpt lat="33.42552079570337" lon="-5.194747472029555"><ele>1498.0</ele><time>2026-04-27T11:46:01Z</time></trkpt><trkpt lat="33.42551180292442" lon="-5.194970617143379"><ele>1498.0</ele><time>2026-04-27T11:46:02Z</time></trkpt><trkpt lat="33.42554277654106" lon="-5.195194632656573"><ele>1495.0</ele><time>2026-04-27T11:46:03Z</time></trkpt><trkpt lat="33.425597640594845" lon="-5.195411926483379"><ele>1492.0</ele><time>2026-04-27T11:46:04Z</time></trkpt><trkpt lat="33.425637116399635" lon="-5.195619010635164"><ele>1489.0</ele><time>2026-04-27T11:46:05Z</time></trkpt><trkpt lat="33.42566763563235" lon="-5.195787631593025"><ele>1488.4</ele><time>2026-04-27T11:46:06Z</time></trkpt><trkpt lat="33.425687762414285" lon="-5.195913011809416"><ele>1487.8000000000002</ele><time>2026-04-27T11:46:07Z</time></trkpt><trkpt lat="33.42569823930666" lon="-5.196020392717423"><ele>1487.1999999999998</ele><time>2026-04-27T11:46:08Z</time></trkpt><trkpt lat="33.42570238376519" lon="-5.196127444962706"><ele>1486.6</ele><time>2026-04-27T11:46:09Z</time></trkpt><trkpt lat="33.42570155929442" lon="-5.196246197787071"><ele>1486.0</ele><time>2026-04-27T11:46:10Z</time></trkpt><trkpt lat="33.425698839649044" lon="-5.196378282680686"><ele>1485.75</ele><time>2026-04-27T11:46:11Z</time></trkpt><trkpt lat="33.42570205436087" lon="-5.196526608623231"><ele>1485.5</ele><time>2026-04-27T11:46:12Z</time></trkpt><trkpt lat="33.425714538584316" lon="-5.196683434972723"><ele>1485.25</ele><time>2026-04-27T11:46:13Z</time></trkpt><trkpt lat="33.42574988275556" lon="-5.196846925185063"><ele>1485.0</ele><time>2026-04-27T11:46:14Z</time></trkpt><trkpt lat="33.425817922097416" lon="-5.197003418731118"><ele>1485.0</ele><time>2026-04-27T11:46:14.999Z</time></trkpt><trkpt lat="33.42591270213092" lon="-5.197147785446026"><ele>1485.0</ele><time>2026-04-27T11:46:15.999Z</time></trkpt><trkpt lat="33.426030454685204" lon="-5.197257720918562"><ele>1485.0</ele><time>2026-04-27T11:46:16.999Z</time></trkpt><trkpt lat="33.42613070663542" lon="-5.197381768332041"><ele>1485.0</ele><time>2026-04-27T11:46:17.999Z</time></trkpt><trkpt lat="33.42621525700414" lon="-5.197515848901787"><ele>1486.75</ele><time>2026-04-27T11:46:18.999Z</time></trkpt><trkpt lat="33.42631021913354" lon="-5.197631006061307"><ele>1488.5</ele><time>2026-04-27T11:46:19.999Z</time></trkpt><trkpt lat="33.426414581426656" lon="-5.197728951746138"><ele>1490.25</ele><time>2026-04-27T11:46:20.999Z</time></trkpt><trkpt lat="33.42650649463196" lon="-5.197840043799262"><ele>1492.0</ele><time>2026-04-27T11:46:21.999Z</time></trkpt><trkpt lat="33.42659400236615" lon="-5.197951673896229"><ele>1490.0</ele><time>2026-04-27T11:46:22.999Z</time></trkpt><trkpt lat="33.4266772856012" lon="-5.198054560131262"><ele>1488.0</ele><time>2026-04-27T11:46:23.999Z</time></trkpt><trkpt lat="33.42673914833077" lon="-5.198158330679283"><ele>1486.0</ele><time>2026-04-27T11:46:24.999Z</time></trkpt><trkpt lat="33.42680779857823" lon="-5.198240057445289"><ele>1484.0</ele><time>2026-04-27T11:46:25.999Z</time></trkpt><trkpt lat="33.42687163328919" lon="-5.198313348981646"><ele>1482.0</ele><time>2026-04-27T11:46:26.999Z</time></trkpt><trkpt lat="33.42693418284466" lon="-5.198381834842843"><ele>1482.0</ele><time>2026-04-27T11:46:27.999Z</time></trkpt><trkpt lat="33.426996211421624" lon="-5.198442803731811"><ele>1482.0</ele><time>2026-04-27T11:46:28.999Z</time></trkpt><trkpt lat="33.42705479846037" lon="-5.198492109516711"><ele>1482.0</ele><time>2026-04-27T11:46:29.999Z</time></trkpt><trkpt lat="33.42711047750893" lon="-5.198535807483514"><ele>1482.0</ele><time>2026-04-27T11:46:30.999Z</time></trkpt><trkpt lat="33.42721159178803" lon="-5.198609500731904"><ele>1482.0</ele><time>2026-04-27T11:46:32.999Z</time></trkpt><trkpt lat="33.42730760004497" lon="-5.198671929703931"><ele>1482.0</ele><time>2026-04-27T11:46:34.999Z</time></trkpt><trkpt lat="33.42738293264993" lon="-5.198718262221839"><ele>1480.0</ele><time>2026-04-27T11:46:37.999Z</time></trkpt><trkpt lat="33.427475969944446" lon="-5.19877692530863"><ele>1478.0</ele><time>2026-04-27T11:46:40.999Z</time></trkpt><trkpt lat="33.42753647308875" lon="-5.198814366336395"><ele>1476.0</ele><time>2026-04-27T11:46:41.999Z</time></trkpt><trkpt lat="33.42760611942311" lon="-5.198859057061993"><ele>1474.0</ele><time>2026-04-27T11:46:42.999Z</time></trkpt><trkpt lat="33.42769170748351" lon="-5.198893862565917"><ele>1472.0</ele><time>2026-04-27T11:46:43.999Z</time></trkpt><trkpt lat="33.42776378154069" lon="-5.198960194827419"><ele>1470.0</ele><time>2026-04-27T11:46:44.999Z</time></trkpt><trkpt lat="33.42782421714786" lon="-5.199043067837919"><ele>1470.0</ele><time>2026-04-27T11:46:45.999Z</time></trkpt><trkpt lat="33.42787392422164" lon="-5.19915397896604"><ele>1470.0</ele><time>2026-04-27T11:46:46.999Z</time></trkpt><trkpt lat="33.42789467528606" lon="-5.199297821404414"><ele>1470.0</ele><time>2026-04-27T11:46:47.999Z</time></trkpt><trkpt lat="33.42790052299202" lon="-5.199446783000484"><ele>1470.0</ele><time>2026-04-27T11:46:48.999Z</time></trkpt><trkpt lat="33.42789489640942" lon="-5.199604945018615"><ele>1470.0</ele><time>2026-04-27T11:46:49.999Z</time></trkpt><trkpt lat="33.42788715947756" lon="-5.199774586314475"><ele>1470.0</ele><time>2026-04-27T11:46:50.999Z</time></trkpt><trkpt lat="33.42788379657004" lon="-5.199954042537529"><ele>1470.0</ele><time>2026-04-27T11:46:51.999Z</time></trkpt><trkpt lat="33.427896150854735" lon="-5.200142722660933"><ele>1472.6666666666667</ele><time>2026-04-27T11:46:52.999Z</time></trkpt><trkpt lat="33.42791793015106" lon="-5.200339278594369"><ele>1475.3333333333335</ele><time>2026-04-27T11:46:53.999Z</time></trkpt><trkpt lat="33.42794637611839" lon="-5.2005443490939784"><ele>1478.0</ele><time>2026-04-27T11:46:54.999Z</time></trkpt><trkpt lat="33.42798575098475" lon="-5.200755860458449"><ele>1469.0</ele><time>2026-04-27T11:46:55.999Z</time></trkpt><trkpt lat="33.42803202140925" lon="-5.2009749691088505"><ele>1460.0</ele><time>2026-04-27T11:46:56.999Z</time></trkpt><trkpt lat="33.42808838944074" lon="-5.201191953201498"><ele>1451.0</ele><time>2026-04-27T11:46:57.999Z</time></trkpt><trkpt lat="33.428129797332055" lon="-5.201423131626083"><ele>1451.0</ele><time>2026-04-27T11:46:58.999Z</time></trkpt><trkpt lat="33.42819196627688" lon="-5.201640404526316"><ele>1451.0</ele><time>2026-04-27T11:46:59.999Z</time></trkpt><trkpt lat="33.428246289744955" lon="-5.2018524753281685"><ele>1451.0</ele><time>2026-04-27T11:47:00.999Z</time></trkpt><trkpt lat="33.42829585081257" lon="-5.202055713262797"><ele>1451.0</ele><time>2026-04-27T11:47:01.999Z</time></trkpt><trkpt lat="33.42834239435781" lon="-5.202246316658934"><ele>1451.0</ele><time>2026-04-27T11:47:02.999Z</time></trkpt><trkpt lat="33.42840533845949" lon="-5.202423741332303"><ele>1451.0</ele><time>2026-04-27T11:47:03.999Z</time></trkpt><trkpt lat="33.42849979119185" lon="-5.2025741797743175"><ele>1450.3333333333335</ele><time>2026-04-27T11:47:04.999Z</time></trkpt><trkpt lat="33.428608262511986" lon="-5.202709952785588"><ele>1449.6666666666667</ele><time>2026-04-27T11:47:05.999Z</time></trkpt><trkpt lat="33.42873842393595" lon="-5.202819016935407"><ele>1449.0</ele><time>2026-04-27T11:47:06.999Z</time></trkpt><trkpt lat="33.42888196087052" lon="-5.202901789258934"><ele>1443.6666666666667</ele><time>2026-04-27T11:47:07.999Z</time></trkpt><trkpt lat="33.42903712269713" lon="-5.202945760246552"><ele>1438.3333333333335</ele><time>2026-04-27T11:47:08.999Z</time></trkpt><trkpt lat="33.42919563110992" lon="-5.202956280895175"><ele>1433.0</ele><time>2026-04-27T11:47:09.999Z</time></trkpt><trkpt lat="33.42935517578658" lon="-5.20294217322612"><ele>1433.0</ele><time>2026-04-27T11:47:10.999Z</time></trkpt><trkpt lat="33.42950936797239" lon="-5.20290272162586"><ele>1433.0</ele><time>2026-04-27T11:47:11.999Z</time></trkpt><trkpt lat="33.42965749663065" lon="-5.202856761516895"><ele>1433.0</ele><time>2026-04-27T11:47:12.999Z</time></trkpt><trkpt lat="33.4298079702308" lon="-5.2028130587629775"><ele>1429.6666666666667</ele><time>2026-04-27T11:47:13.999Z</time></trkpt><trkpt lat="33.42995768192517" lon="-5.202768266950534"><ele>1426.3333333333333</ele><time>2026-04-27T11:47:14.999Z</time></trkpt><trkpt lat="33.43010921808755" lon="-5.202724602446079"><ele>1423.0</ele><time>2026-04-27T11:47:15.999Z</time></trkpt><trkpt lat="33.430261526046195" lon="-5.202686860877432"><ele>1423.0</ele><time>2026-04-27T11:47:16.999Z</time></trkpt><trkpt lat="33.43041554540746" lon="-5.2026573233539555"><ele>1423.0</ele><time>2026-04-27T11:47:17.999Z</time></trkpt><trkpt lat="33.430570597518845" lon="-5.202635307937224"><ele>1423.0</ele><time>2026-04-27T11:47:18.999Z</time></trkpt><trkpt lat="33.4307249028603" lon="-5.2026258778930785"><ele>1421.0</ele><time>2026-04-27T11:47:19.999Z</time></trkpt><trkpt lat="33.43088049957467" lon="-5.20262263510241"><ele>1419.0</ele><time>2026-04-27T11:47:20.999Z</time></trkpt><trkpt lat="33.43103328393702" lon="-5.202629193727842"><ele>1417.0</ele><time>2026-04-27T11:47:21.999Z</time></trkpt><trkpt lat="33.43118621818885" lon="-5.202647896981407"><ele>1415.75</ele><time>2026-04-27T11:47:22.999Z</time></trkpt><trkpt lat="33.431335940225566" lon="-5.202675085183355"><ele>1414.5</ele><time>2026-04-27T11:47:23.999Z</time></trkpt><trkpt lat="33.4314822925447" lon="-5.202711211991169"><ele>1413.25</ele><time>2026-04-27T11:47:24.999Z</time></trkpt><trkpt lat="33.43162420371107" lon="-5.202758903885981"><ele>1412.0</ele><time>2026-04-27T11:47:25.999Z</time></trkpt><trkpt lat="33.431768044538316" lon="-5.202787157093211"><ele>1412.0</ele><time>2026-04-27T11:47:26.999Z</time></trkpt><trkpt lat="33.43190539030751" lon="-5.202852422568071"><ele>1412.0</ele><time>2026-04-27T11:47:27.999Z</time></trkpt><trkpt lat="33.43202570340246" lon="-5.202947344320884"><ele>1412.0</ele><time>2026-04-27T11:47:28.999Z</time></trkpt><trkpt lat="33.43215345661668" lon="-5.203024780959399"><ele>1412.0</ele><time>2026-04-27T11:47:29.999Z</time></trkpt><trkpt lat="33.432279230118226" lon="-5.203107354736029"><ele>1410.25</ele><time>2026-04-27T11:47:30.999Z</time></trkpt><trkpt lat="33.43240255649582" lon="-5.203190268652555"><ele>1408.5</ele><time>2026-04-27T11:47:31.999Z</time></trkpt><trkpt lat="33.432524210709545" lon="-5.203273689269548"><ele>1406.75</ele><time>2026-04-27T11:47:32.999Z</time></trkpt><trkpt lat="33.432646694191114" lon="-5.2033585281780805"><ele>1405.0</ele><time>2026-04-27T11:47:33.999Z</time></trkpt><trkpt lat="33.4327698893614" lon="-5.203448477989438"><ele>1405.0</ele><time>2026-04-27T11:47:34.999Z</time></trkpt><trkpt lat="33.432897287381294" lon="-5.203547226891005"><ele>1405.0</ele><time>2026-04-27T11:47:35.999Z</time></trkpt><trkpt lat="33.43303210859041" lon="-5.2036512261867065"><ele>1405.0</ele><time>2026-04-27T11:47:36.999Z</time></trkpt><trkpt lat="33.433182903834336" lon="-5.203738022296329"><ele>1403.0</ele><time>2026-04-27T11:47:38Z</time></trkpt><trkpt lat="33.43333130664866" lon="-5.203842385595789"><ele>1401.0</ele><time>2026-04-27T11:47:39Z</time></trkpt><trkpt lat="33.433485340112384" lon="-5.203948542713536"><ele>1399.0</ele><time>2026-04-27T11:47:40Z</time></trkpt><trkpt lat="33.433643313452066" lon="-5.204057392644244"><ele>1397.6666666666665</ele><time>2026-04-27T11:47:41Z</time></trkpt><trkpt lat="33.433799420234486" lon="-5.204164792262172"><ele>1396.3333333333333</ele><time>2026-04-27T11:47:42Z</time></trkpt><trkpt lat="33.43395041259077" lon="-5.2042708010005745"><ele>1395.0</ele><time>2026-04-27T11:47:43Z</time></trkpt><trkpt lat="33.43410054036138" lon="-5.2043762333216375"><ele>1393.3333333333333</ele><time>2026-04-27T11:47:44Z</time></trkpt><trkpt lat="33.43425094885376" lon="-5.204481996754476"><ele>1391.6666666666665</ele><time>2026-04-27T11:47:45Z</time></trkpt><trkpt lat="33.434400108520734" lon="-5.20458614917927"><ele>1390.0</ele><time>2026-04-27T11:47:46Z</time></trkpt><trkpt lat="33.4345449065292" lon="-5.2046859840294655"><ele>1388.3333333333333</ele><time>2026-04-27T11:47:47Z</time></trkpt><trkpt lat="33.434685649854835" lon="-5.204788574937619"><ele>1386.6666666666667</ele><time>2026-04-27T11:47:48Z</time></trkpt><trkpt lat="33.43482334386669" lon="-5.204887445403931"><ele>1385.0</ele><time>2026-04-27T11:47:49Z</time></trkpt><trkpt lat="33.434956839568606" lon="-5.2049870818716855"><ele>1385.0</ele><time>2026-04-27T11:47:50Z</time></trkpt><trkpt lat="33.43508712277913" lon="-5.2050891260805425"><ele>1385.0</ele><time>2026-04-27T11:47:51Z</time></trkpt><trkpt lat="33.43520229802641" lon="-5.205209759782519"><ele>1385.0</ele><time>2026-04-27T11:47:52Z</time></trkpt><trkpt lat="33.4353300145919" lon="-5.20530329228773"><ele>1385.0</ele><time>2026-04-27T11:47:53Z</time></trkpt><trkpt lat="33.43545754757284" lon="-5.2053866522637415"><ele>1385.0</ele><time>2026-04-27T11:47:54Z</time></trkpt><trkpt lat="33.435586065895734" lon="-5.2054628820936495"><ele>1385.0</ele><time>2026-04-27T11:47:55Z</time></trkpt><trkpt lat="33.43571866656091" lon="-5.205530182244411"><ele>1385.0</ele><time>2026-04-27T11:47:56Z</time></trkpt><trkpt lat="33.43585868539776" lon="-5.205593019931395"><ele>1385.0</ele><time>2026-04-27T11:47:57Z</time></trkpt><trkpt lat="33.436009662418556" lon="-5.205647296836945"><ele>1385.0</ele><time>2026-04-27T11:47:58Z</time></trkpt><trkpt lat="33.43616637785158" lon="-5.205691002590618"><ele>1385.0</ele><time>2026-04-27T11:47:59Z</time></trkpt><trkpt lat="33.43632840478697" lon="-5.205725108890723"><ele>1385.0</ele><time>2026-04-27T11:48:00Z</time></trkpt><trkpt lat="33.43649534493623" lon="-5.205751894690547"><ele>1385.0</ele><time>2026-04-27T11:48:01Z</time></trkpt><trkpt lat="33.43666282146775" lon="-5.205773375814995"><ele>1385.0</ele><time>2026-04-27T11:48:02Z</time></trkpt><trkpt lat="33.436834032683905" lon="-5.205794054851331"><ele>1385.0</ele><time>2026-04-27T11:48:03Z</time></trkpt><trkpt lat="33.4370082063369" lon="-5.205810731860177"><ele>1385.0</ele><time>2026-04-27T11:48:04Z</time></trkpt><trkpt lat="33.437187530170625" lon="-5.205817524458053"><ele>1385.0</ele><time>2026-04-27T11:48:05Z</time></trkpt><trkpt lat="33.43737173351633" lon="-5.205812430943853"><ele>1387.6666666666667</ele><time>2026-04-27T11:48:06Z</time></trkpt><trkpt lat="33.43755776780234" lon="-5.205799623206975"><ele>1390.3333333333333</ele><time>2026-04-27T11:48:06.999Z</time></trkpt><trkpt lat="33.43774619669606" lon="-5.205786391072653"><ele>1393.0</ele><time>2026-04-27T11:48:07.999Z</time></trkpt><trkpt lat="33.43793493543411" lon="-5.2057703412221175"><ele>1396.3333333333333</ele><time>2026-04-27T11:48:08.999Z</time></trkpt><trkpt lat="33.438114048520596" lon="-5.20575043231874"><ele>1399.6666666666667</ele><time>2026-04-27T11:48:09.999Z</time></trkpt><trkpt lat="33.43828031944151" lon="-5.205727488302988"><ele>1403.0</ele><time>2026-04-27T11:48:10.999Z</time></trkpt><trkpt lat="33.43844143054394" lon="-5.20569439282108"><ele>1402.0</ele><time>2026-04-27T11:48:11.999Z</time></trkpt><trkpt lat="33.438591008654065" lon="-5.2056341355764815"><ele>1401.0</ele><time>2026-04-27T11:48:12.999Z</time></trkpt><trkpt lat="33.43872640599797" lon="-5.205545259173103"><ele>1400.0</ele><time>2026-04-27T11:48:13.999Z</time></trkpt><trkpt lat="33.43884045366349" lon="-5.205429110384726"><ele>1400.0</ele><time>2026-04-27T11:48:14.999Z</time></trkpt><trkpt lat="33.43894696786296" lon="-5.2052998355546976"><ele>1400.0</ele><time>2026-04-27T11:48:15.999Z</time></trkpt><trkpt lat="33.43904581446773" lon="-5.2051550266755"><ele>1400.0</ele><time>2026-04-27T11:48:16.999Z</time></trkpt><trkpt lat="33.4391348680595" lon="-5.2049963551358305"><ele>1400.6666666666667</ele><time>2026-04-27T11:48:17.999Z</time></trkpt><trkpt lat="33.43921579330184" lon="-5.204827871577425"><ele>1401.3333333333333</ele><time>2026-04-27T11:48:18.999Z</time></trkpt><trkpt lat="33.43928926727264" lon="-5.204652325702778"><ele>1402.0</ele><time>2026-04-27T11:48:19.999Z</time></trkpt><trkpt lat="33.43936781266176" lon="-5.204475382995163"><ele>1402.0</ele><time>2026-04-27T11:48:20.999Z</time></trkpt><trkpt lat="33.43944594414411" lon="-5.204301382902756"><ele>1402.0</ele><time>2026-04-27T11:48:21.999Z</time></trkpt><trkpt lat="33.439520358717054" lon="-5.204133912293469"><ele>1402.0</ele><time>2026-04-27T11:48:22.999Z</time></trkpt><trkpt lat="33.439592235047726" lon="-5.203976837765451"><ele>1399.75</ele><time>2026-04-27T11:48:23.999Z</time></trkpt><trkpt lat="33.43966134026138" lon="-5.203827519128905"><ele>1397.5</ele><time>2026-04-27T11:48:24.999Z</time></trkpt><trkpt lat="33.4397283244576" lon="-5.203683262921396"><ele>1395.25</ele><time>2026-04-27T11:48:25.999Z</time></trkpt><trkpt lat="33.43979308073132" lon="-5.203541438868371"><ele>1393.0</ele><time>2026-04-27T11:48:26.999Z</time></trkpt><trkpt lat="33.43985340754994" lon="-5.20340072339702"><ele>1393.0</ele><time>2026-04-27T11:48:27.999Z</time></trkpt><trkpt lat="33.4399153429442" lon="-5.20326028441726"><ele>1393.0</ele><time>2026-04-27T11:48:28.999Z</time></trkpt><trkpt lat="33.439978871679685" lon="-5.203123585363797"><ele>1393.0</ele><time>2026-04-27T11:48:29.999Z</time></trkpt><trkpt lat="33.440040443425126" lon="-5.2029863269513585"><ele>1393.0</ele><time>2026-04-27T11:48:30.999Z</time></trkpt><trkpt lat="33.440102877388796" lon="-5.202850462516735"><ele>1394.0</ele><time>2026-04-27T11:48:31.999Z</time></trkpt><trkpt lat="33.44016366666989" lon="-5.202714722796146"><ele>1395.0</ele><time>2026-04-27T11:48:32.999Z</time></trkpt><trkpt lat="33.44022337743211" lon="-5.202577518717697"><ele>1396.0</ele><time>2026-04-27T11:48:33.999Z</time></trkpt><trkpt lat="33.440283974167194" lon="-5.202440743061122"><ele>1397.0</ele><time>2026-04-27T11:48:34.999Z</time></trkpt><trkpt lat="33.440345076518334" lon="-5.202304532558314"><ele>1396.5</ele><time>2026-04-27T11:48:35.999Z</time></trkpt><trkpt lat="33.44040447728792" lon="-5.202167980801078"><ele>1396.0</ele><time>2026-04-27T11:48:36.999Z</time></trkpt><trkpt lat="33.440467424101314" lon="-5.202027847560812"><ele>1395.5</ele><time>2026-04-27T11:48:37.999Z</time></trkpt><trkpt lat="33.44053304317245" lon="-5.201885347387549"><ele>1395.0</ele><time>2026-04-27T11:48:38.999Z</time></trkpt><trkpt lat="33.440599321121866" lon="-5.20173995564391"><ele>1395.0</ele><time>2026-04-27T11:48:39.999Z</time></trkpt><trkpt lat="33.440665349630024" lon="-5.201591797903428"><ele>1395.0</ele><time>2026-04-27T11:48:40.999Z</time></trkpt><trkpt lat="33.44073023318123" lon="-5.201441673678156"><ele>1395.0</ele><time>2026-04-27T11:48:41.999Z</time></trkpt><trkpt lat="33.44079420608294" lon="-5.201285886658635"><ele>1395.0</ele><time>2026-04-27T11:48:42.999Z</time></trkpt><trkpt lat="33.44085455318359" lon="-5.201119247935572"><ele>1395.75</ele><time>2026-04-27T11:48:43.999Z</time></trkpt><trkpt lat="33.44090633132478" lon="-5.200953718982005"><ele>1396.5</ele><time>2026-04-27T11:48:44.999Z</time></trkpt><trkpt lat="33.44095216384895" lon="-5.200786919695763"><ele>1397.25</ele><time>2026-04-27T11:48:45.999Z</time></trkpt><trkpt lat="33.440991439793216" lon="-5.20062169461585"><ele>1398.0</ele><time>2026-04-27T11:48:46.999Z</time></trkpt><trkpt lat="33.44102460699191" lon="-5.200457923528043"><ele>1398.0</ele><time>2026-04-27T11:48:47.999Z</time></trkpt><trkpt lat="33.441052988375056" lon="-5.2002928686520224"><ele>1398.0</ele><time>2026-04-27T11:48:48.999Z</time></trkpt><trkpt lat="33.44108129461203" lon="-5.200124825506194"><ele>1398.0</ele><time>2026-04-27T11:48:49.999Z</time></trkpt><trkpt lat="33.441111031274694" lon="-5.199959996005299"><ele>1398.0</ele><time>2026-04-27T11:48:50.999Z</time></trkpt><trkpt lat="33.44114164958262" lon="-5.199800782461069"><ele>1398.5</ele><time>2026-04-27T11:48:51.999Z</time></trkpt><trkpt lat="33.44117260342002" lon="-5.1996450312641604"><ele>1399.0</ele><time>2026-04-27T11:48:52.999Z</time></trkpt><trkpt lat="33.441209210740844" lon="-5.199485292694768"><ele>1399.5</ele><time>2026-04-27T11:48:53.999Z</time></trkpt><trkpt lat="33.44125464935214" lon="-5.199326555459724"><ele>1400.0</ele><time>2026-04-27T11:48:54.999Z</time></trkpt><trkpt lat="33.44130914574329" lon="-5.1991714217458265"><ele>1400.75</ele><time>2026-04-27T11:48:55.999Z</time></trkpt><trkpt lat="33.44137070556169" lon="-5.199016480719295"><ele>1401.5</ele><time>2026-04-27T11:48:56.999Z</time></trkpt><trkpt lat="33.44143967824449" lon="-5.19886413812806"><ele>1402.25</ele><time>2026-04-27T11:48:57.999Z</time></trkpt><trkpt lat="33.44151279356847" lon="-5.19871666832857"><ele>1403.0</ele><time>2026-04-27T11:48:58.999Z</time></trkpt><trkpt lat="33.44158544779447" lon="-5.198575463402585"><ele>1403.0</ele><time>2026-04-27T11:48:59.999Z</time></trkpt><trkpt lat="33.44165783750228" lon="-5.1984380785484054"><ele>1403.0</ele><time>2026-04-27T11:49:00.999Z</time></trkpt><trkpt lat="33.44173181975709" lon="-5.198299441714907"><ele>1403.0</ele><time>2026-04-27T11:49:01.999Z</time></trkpt><trkpt lat="33.44180479732786" lon="-5.198160923377194"><ele>1403.0</ele><time>2026-04-27T11:49:02.999Z</time></trkpt><trkpt lat="33.44187872830442" lon="-5.198021529583814"><ele>1403.0</ele><time>2026-04-27T11:49:03.999Z</time></trkpt><trkpt lat="33.44195343701868" lon="-5.197884644058415"><ele>1403.0</ele><time>2026-04-27T11:49:04.999Z</time></trkpt><trkpt lat="33.44202925943376" lon="-5.197748777934108"><ele>1403.0</ele><time>2026-04-27T11:49:05.999Z</time></trkpt><trkpt lat="33.44210579855206" lon="-5.197611351530849"><ele>1403.0</ele><time>2026-04-27T11:49:06.999Z</time></trkpt><trkpt lat="33.44218237896247" lon="-5.197471836540735"><ele>1403.75</ele><time>2026-04-27T11:49:07.999Z</time></trkpt><trkpt lat="33.442260451335265" lon="-5.1973319151965285"><ele>1404.5</ele><time>2026-04-27T11:49:08.999Z</time></trkpt><trkpt lat="33.44233910163479" lon="-5.197191969929652"><ele>1405.25</ele><time>2026-04-27T11:49:09.999Z</time></trkpt><trkpt lat="33.44241786371456" lon="-5.197047785508522"><ele>1406.0</ele><time>2026-04-27T11:49:10.999Z</time></trkpt><trkpt lat="33.44249603679708" lon="-5.196906060929938"><ele>1406.0</ele><time>2026-04-27T11:49:11.999Z</time></trkpt><trkpt lat="33.44257305866576" lon="-5.196768156121958"><ele>1406.0</ele><time>2026-04-27T11:49:12.999Z</time></trkpt><trkpt lat="33.44264894136432" lon="-5.19663242139844"><ele>1406.0</ele><time>2026-04-27T11:49:13.999Z</time></trkpt><trkpt lat="33.44272243828405" lon="-5.196497489093645"><ele>1406.0</ele><time>2026-04-27T11:49:14.999Z</time></trkpt><trkpt lat="33.442793955720106" lon="-5.196364238918525"><ele>1406.75</ele><time>2026-04-27T11:49:15.999Z</time></trkpt><trkpt lat="33.44286402667579" lon="-5.1962327227313825"><ele>1407.5</ele><time>2026-04-27T11:49:16.999Z</time></trkpt><trkpt lat="33.442935431656764" lon="-5.196103453533292"><ele>1408.25</ele><time>2026-04-27T11:49:17.999Z</time></trkpt><trkpt lat="33.44300701829889" lon="-5.195977360255723"><ele>1409.0</ele><time>2026-04-27T11:49:18.999Z</time></trkpt><trkpt lat="33.443075990382304" lon="-5.1958509683206655"><ele>1409.0</ele><time>2026-04-27T11:49:19.999Z</time></trkpt><trkpt lat="33.443142790463014" lon="-5.195726081642373"><ele>1409.0</ele><time>2026-04-27T11:49:20.999Z</time></trkpt><trkpt lat="33.44320885658728" lon="-5.195602836963096"><ele>1409.0</ele><time>2026-04-27T11:49:21.999Z</time></trkpt><trkpt lat="33.44327597123329" lon="-5.195483256102307"><ele>1409.0</ele><time>2026-04-27T11:49:22.999Z</time></trkpt><trkpt lat="33.443342235194436" lon="-5.195365443270937"><ele>1410.5</ele><time>2026-04-27T11:49:23.999Z</time></trkpt><trkpt lat="33.443406833204975" lon="-5.195248388780512"><ele>1412.0</ele><time>2026-04-27T11:49:24.999Z</time></trkpt><trkpt lat="33.443470818828864" lon="-5.195133666415888"><ele>1413.5</ele><time>2026-04-27T11:49:25.999Z</time></trkpt><trkpt lat="33.443534764205786" lon="-5.195018029505698"><ele>1415.0</ele><time>2026-04-27T11:49:26.999Z</time></trkpt><trkpt lat="33.443596924684236" lon="-5.194903113428169"><ele>1414.6</ele><time>2026-04-27T11:49:27.999Z</time></trkpt><trkpt lat="33.4436564805951" lon="-5.194792240195052"><ele>1414.2</ele><time>2026-04-27T11:49:28.999Z</time></trkpt><trkpt lat="33.44370984659569" lon="-5.1946905940738475"><ele>1413.8000000000002</ele><time>2026-04-27T11:49:29.999Z</time></trkpt><trkpt lat="33.443755391558796" lon="-5.19459681508023"><ele>1413.4</ele><time>2026-04-27T11:49:30.999Z</time></trkpt><trkpt lat="33.443797056969444" lon="-5.1945077733907015"><ele>1413.0</ele><time>2026-04-27T11:49:31.999Z</time></trkpt><trkpt lat="33.443835889545014" lon="-5.19442034171199"><ele>1413.0</ele><time>2026-04-27T11:49:32.999Z</time></trkpt><trkpt lat="33.44387683153347" lon="-5.194328449068751"><ele>1413.0</ele><time>2026-04-27T11:49:33.999Z</time></trkpt><trkpt lat="33.443919869745955" lon="-5.1942271610388"><ele>1413.0</ele><time>2026-04-27T11:49:34.999Z</time></trkpt><trkpt lat="33.4439558284881" lon="-5.1941064002950865"><ele>1413.0</ele><time>2026-04-27T11:49:35.999Z</time></trkpt><trkpt lat="33.44399680361641" lon="-5.193976780922925"><ele>1413.0</ele><time>2026-04-27T11:49:36.999Z</time></trkpt><trkpt lat="33.444042008148756" lon="-5.193835568727119"><ele>1413.5</ele><time>2026-04-27T11:49:37.999Z</time></trkpt><trkpt lat="33.444088208628976" lon="-5.193684365184155"><ele>1414.0</ele><time>2026-04-27T11:49:38.999Z</time></trkpt><trkpt lat="33.4441329954149" lon="-5.193530150620185"><ele>1414.5</ele><time>2026-04-27T11:49:39.999Z</time></trkpt><trkpt lat="33.44418237280969" lon="-5.193363188519358"><ele>1415.0</ele><time>2026-04-27T11:49:40.999Z</time></trkpt><trkpt lat="33.44423399346771" lon="-5.19318742416258"><ele>1417.0</ele><time>2026-04-27T11:49:41.999Z</time></trkpt><trkpt lat="33.44428760600529" lon="-5.193005688484919"><ele>1419.0</ele><time>2026-04-27T11:49:42.999Z</time></trkpt><trkpt lat="33.44434346667869" lon="-5.192816848466318"><ele>1421.0</ele><time>2026-04-27T11:49:43.999Z</time></trkpt><trkpt lat="33.44439971191751" lon="-5.192630181168447"><ele>1421.0</ele><time>2026-04-27T11:49:44.999Z</time></trkpt><trkpt lat="33.444455542973955" lon="-5.192442107283486"><ele>1421.0</ele><time>2026-04-27T11:49:45.999Z</time></trkpt><trkpt lat="33.44451029433122" lon="-5.192258715859743"><ele>1421.0</ele><time>2026-04-27T11:49:46.999Z</time></trkpt><trkpt lat="33.444564672860665" lon="-5.1920717154681375"><ele>1421.3333333333335</ele><time>2026-04-27T11:49:47.999Z</time></trkpt><trkpt lat="33.444619267241656" lon="-5.19188172309859"><ele>1421.6666666666667</ele><time>2026-04-27T11:49:48.999Z</time></trkpt><trkpt lat="33.4446714092887" lon="-5.191704255885519"><ele>1422.0</ele><time>2026-04-27T11:49:49.999Z</time></trkpt><trkpt lat="33.44471984659923" lon="-5.191537506294743"><ele>1422.0</ele><time>2026-04-27T11:49:50.999Z</time></trkpt><trkpt lat="33.444765458694654" lon="-5.1913798911583555"><ele>1422.0</ele><time>2026-04-27T11:49:51.999Z</time></trkpt><trkpt lat="33.44480943347703" lon="-5.1912411879802836"><ele>1422.0</ele><time>2026-04-27T11:49:52.999Z</time></trkpt><trkpt lat="33.44485163245036" lon="-5.191115701790529"><ele>1422.0</ele><time>2026-04-27T11:49:53.999Z</time></trkpt><trkpt lat="33.44488531773011" lon="-5.191006244010829"><ele>1422.0</ele><time>2026-04-27T11:49:54.999Z</time></trkpt><trkpt lat="33.444911890111015" lon="-5.1909130425548975"><ele>1422.0</ele><time>2026-04-27T11:49:55.999Z</time></trkpt><trkpt lat="33.44493720617931" lon="-5.19082826732961"><ele>1422.0</ele><time>2026-04-27T11:49:56.999Z</time></trkpt><trkpt lat="33.44496450291872" lon="-5.190736788254277"><ele>1422.0</ele><time>2026-04-27T11:49:57.999Z</time></trkpt><trkpt lat="33.44499522739146" lon="-5.1906343060186675"><ele>1422.0</ele><time>2026-04-27T11:49:58.999Z</time></trkpt><trkpt lat="33.44503093332597" lon="-5.190522220422761"><ele>1422.0</ele><time>2026-04-27T11:49:59.999Z</time></trkpt><trkpt lat="33.44506853275136" lon="-5.190400801962051"><ele>1422.8</ele><time>2026-04-27T11:50:00.999Z</time></trkpt><trkpt lat="33.44510216874899" lon="-5.190285933558082"><ele>1423.6</ele><time>2026-04-27T11:50:01.999Z</time></trkpt><trkpt lat="33.44513682038298" lon="-5.190164755019012"><ele>1424.3999999999999</ele><time>2026-04-27T11:50:02.999Z</time></trkpt><trkpt lat="33.44517333893023" lon="-5.190038537063506"><ele>1425.1999999999998</ele><time>2026-04-27T11:50:03.999Z</time></trkpt><trkpt lat="33.445213467348545" lon="-5.18989889676852"><ele>1426.0</ele><time>2026-04-27T11:50:04.999Z</time></trkpt><trkpt lat="33.44525847607874" lon="-5.189747035939696"><ele>1427.3333333333333</ele><time>2026-04-27T11:50:05.999Z</time></trkpt><trkpt lat="33.44530791470647" lon="-5.189583660830896"><ele>1428.6666666666667</ele><time>2026-04-27T11:50:06.999Z</time></trkpt><trkpt lat="33.445362379930856" lon="-5.189405473563726"><ele>1430.0</ele><time>2026-04-27T11:50:07.999Z</time></trkpt><trkpt lat="33.44542086461284" lon="-5.189212178566758"><ele>1431.0</ele><time>2026-04-27T11:50:08.999Z</time></trkpt><trkpt lat="33.44548173236805" lon="-5.189005437223786"><ele>1432.0</ele><time>2026-04-27T11:50:09.999Z</time></trkpt><trkpt lat="33.445544395993394" lon="-5.188789445461945"><ele>1433.0</ele><time>2026-04-27T11:50:10.999Z</time></trkpt><trkpt lat="33.445609731116825" lon="-5.188566456581742"><ele>1433.0</ele><time>2026-04-27T11:50:11.999Z</time></trkpt><trkpt lat="33.44567901338416" lon="-5.18834017511196"><ele>1433.0</ele><time>2026-04-27T11:50:12.999Z</time></trkpt><trkpt lat="33.44574794742181" lon="-5.188118163226701"><ele>1433.0</ele><time>2026-04-27T11:50:13.999Z</time></trkpt><trkpt lat="33.44581539005137" lon="-5.187900653098108"><ele>1434.6666666666667</ele><time>2026-04-27T11:50:14.999Z</time></trkpt><trkpt lat="33.4458800523053" lon="-5.18768732412138"><ele>1436.3333333333333</ele><time>2026-04-27T11:50:15.999Z</time></trkpt><trkpt lat="33.44594317985154" lon="-5.187475712337411"><ele>1438.0</ele><time>2026-04-27T11:50:16.999Z</time></trkpt><trkpt lat="33.44600445117506" lon="-5.1872645032846965"><ele>1440.0</ele><time>2026-04-27T11:50:17.999Z</time></trkpt><trkpt lat="33.44606526571757" lon="-5.187046376910545"><ele>1442.0</ele><time>2026-04-27T11:50:18.999Z</time></trkpt><trkpt lat="33.44612428922436" lon="-5.18681814716104"><ele>1444.0</ele><time>2026-04-27T11:50:19.999Z</time></trkpt><trkpt lat="33.44617982712603" lon="-5.186583112835701"><ele>1445.0</ele><time>2026-04-27T11:50:20.999Z</time></trkpt><trkpt lat="33.446227732631996" lon="-5.1863370966914255"><ele>1446.0</ele><time>2026-04-27T11:50:21.999Z</time></trkpt><trkpt lat="33.44626539574938" lon="-5.18609266030504"><ele>1447.0</ele><time>2026-04-27T11:50:22.999Z</time></trkpt><trkpt lat="33.44629155881291" lon="-5.185846115240567"><ele>1447.0</ele><time>2026-04-27T11:50:23.999Z</time></trkpt><trkpt lat="33.446310285999076" lon="-5.185600893139349"><ele>1447.0</ele><time>2026-04-27T11:50:24.999Z</time></trkpt><trkpt lat="33.4463220431278" lon="-5.18536192005864"><ele>1447.0</ele><time>2026-04-27T11:50:25.999Z</time></trkpt><trkpt lat="33.44632383734294" lon="-5.1851273672289455"><ele>1447.0</ele><time>2026-04-27T11:50:26.999Z</time></trkpt><trkpt lat="33.44631408446732" lon="-5.184888263406318"><ele>1447.0</ele><time>2026-04-27T11:50:27.999Z</time></trkpt><trkpt lat="33.446292792082886" lon="-5.184639624531167"><ele>1447.0</ele><time>2026-04-27T11:50:28.999Z</time></trkpt><trkpt lat="33.44626041570888" lon="-5.184387612359139"><ele>1449.3333333333333</ele><time>2026-04-27T11:50:29.999Z</time></trkpt><trkpt lat="33.44622146460902" lon="-5.1841333498607005"><ele>1451.6666666666667</ele><time>2026-04-27T11:50:30.999Z</time></trkpt><trkpt lat="33.44618267154305" lon="-5.183879639646938"><ele>1454.0</ele><time>2026-04-27T11:50:31.999Z</time></trkpt><trkpt lat="33.4461447023556" lon="-5.183629933986869"><ele>1454.6666666666667</ele><time>2026-04-27T11:50:32.999Z</time></trkpt><trkpt lat="33.44610889987083" lon="-5.183377865221127"><ele>1455.3333333333333</ele><time>2026-04-27T11:50:33.999Z</time></trkpt><trkpt lat="33.446079829489456" lon="-5.183123502967592"><ele>1456.0</ele><time>2026-04-27T11:50:34.999Z</time></trkpt><trkpt lat="33.446063522223525" lon="-5.182857814386679"><ele>1456.0</ele><time>2026-04-27T11:50:35.999Z</time></trkpt><trkpt lat="33.44606433803019" lon="-5.182580613181322"><ele>1456.0</ele><time>2026-04-27T11:50:36.999Z</time></trkpt><trkpt lat="33.446084438108656" lon="-5.182298563705149"><ele>1458.5</ele><time>2026-04-27T11:50:37.999Z</time></trkpt><trkpt lat="33.446123098535075" lon="-5.182015726093018"><ele>1461.0</ele><time>2026-04-27T11:50:38.999Z</time></trkpt><trkpt lat="33.446183633084" lon="-5.1817400819833885"><ele>1462.6666666666667</ele><time>2026-04-27T11:50:39.999Z</time></trkpt><trkpt lat="33.446263386707194" lon="-5.181477563477875"><ele>1464.3333333333335</ele><time>2026-04-27T11:50:40.999Z</time></trkpt><trkpt lat="33.44635498410789" lon="-5.181242692088601"><ele>1466.0</ele><time>2026-04-27T11:50:41.999Z</time></trkpt><trkpt lat="33.44645463876993" lon="-5.181032909618802"><ele>1466.0</ele><time>2026-04-27T11:50:42.999Z</time></trkpt><trkpt lat="33.44656040881188" lon="-5.180829241606329"><ele>1466.0</ele><time>2026-04-27T11:50:43.999Z</time></trkpt><trkpt lat="33.4466653544316" lon="-5.180631635738992"><ele>1466.0</ele><time>2026-04-27T11:50:44.999Z</time></trkpt><trkpt lat="33.446770257434174" lon="-5.180435605437025"><ele>1468.0</ele><time>2026-04-27T11:50:45.999Z</time></trkpt><trkpt lat="33.44687069127343" lon="-5.1802237245318965"><ele>1470.0</ele><time>2026-04-27T11:50:46.999Z</time></trkpt><trkpt lat="33.44696367123305" lon="-5.179998564302608"><ele>1472.0</ele><time>2026-04-27T11:50:47.999Z</time></trkpt><trkpt lat="33.44705139847823" lon="-5.179765583524651"><ele>1470.6666666666667</ele><time>2026-04-27T11:50:48.999Z</time></trkpt><trkpt lat="33.44712997114764" lon="-5.179521588090292"><ele>1469.3333333333333</ele><time>2026-04-27T11:50:49.999Z</time></trkpt><trkpt lat="33.4472032416924" lon="-5.179271410556076"><ele>1468.0</ele><time>2026-04-27T11:50:50.999Z</time></trkpt><trkpt lat="33.44727177663409" lon="-5.179022664461938"><ele>1469.6666666666665</ele><time>2026-04-27T11:50:51.999Z</time></trkpt><trkpt lat="33.447339693759304" lon="-5.178776561716097"><ele>1471.3333333333333</ele><time>2026-04-27T11:50:52.999Z</time></trkpt><trkpt lat="33.44740468600522" lon="-5.178536285491677"><ele>1473.0</ele><time>2026-04-27T11:50:53.999Z</time></trkpt><trkpt lat="33.44746733625087" lon="-5.178299170123906"><ele>1473.6666666666667</ele><time>2026-04-27T11:50:54.999Z</time></trkpt><trkpt lat="33.44752486747356" lon="-5.1780631294870725"><ele>1474.3333333333335</ele><time>2026-04-27T11:50:55.999Z</time></trkpt><trkpt lat="33.44758012086292" lon="-5.177825819715019"><ele>1475.0</ele><time>2026-04-27T11:50:56.999Z</time></trkpt><trkpt lat="33.44763780936276" lon="-5.177585778960802"><ele>1476.0</ele><time>2026-04-27T11:50:57.999Z</time></trkpt><trkpt lat="33.44770265877966" lon="-5.177339001840045"><ele>1477.0</ele><time>2026-04-27T11:50:58.999Z</time></trkpt><trkpt lat="33.44776845456209" lon="-5.177085866605896"><ele>1478.0</ele><time>2026-04-27T11:50:59.999Z</time></trkpt><trkpt lat="33.44783505319155" lon="-5.176828215657369"><ele>1478.0</ele><time>2026-04-27T11:51:00.999Z</time></trkpt><trkpt lat="33.44790111478193" lon="-5.176567798480805"><ele>1478.0</ele><time>2026-04-27T11:51:01.999Z</time></trkpt><trkpt lat="33.44796816526648" lon="-5.176304227866275"><ele>1478.5</ele><time>2026-04-27T11:51:02.999Z</time></trkpt><trkpt lat="33.44803726772698" lon="-5.17603735192395"><ele>1479.0</ele><time>2026-04-27T11:51:03.999Z</time></trkpt><trkpt lat="33.44810523007091" lon="-5.175769288127581"><ele>1481.5</ele><time>2026-04-27T11:51:04.999Z</time></trkpt><trkpt lat="33.44817204444379" lon="-5.175499768279619"><ele>1484.0</ele><time>2026-04-27T11:51:05.999Z</time></trkpt><trkpt lat="33.44823892457871" lon="-5.17523289099701"><ele>1484.0</ele><time>2026-04-27T11:51:06.999Z</time></trkpt><trkpt lat="33.44830358476364" lon="-5.174973770583922"><ele>1484.0</ele><time>2026-04-27T11:51:07.999Z</time></trkpt><trkpt lat="33.4483660269431" lon="-5.174725502232066"><ele>1484.0</ele><time>2026-04-27T11:51:08.999Z</time></trkpt><trkpt lat="33.448426116602654" lon="-5.174486081514008"><ele>1484.6666666666667</ele><time>2026-04-27T11:51:09.999Z</time></trkpt><trkpt lat="33.448483030042595" lon="-5.174261702196204"><ele>1485.3333333333333</ele><time>2026-04-27T11:51:10.999Z</time></trkpt><trkpt lat="33.44853897849531" lon="-5.174041370380356"><ele>1486.0</ele><time>2026-04-27T11:51:11.999Z</time></trkpt><trkpt lat="33.448594493734774" lon="-5.173826070031697"><ele>1486.0</ele><time>2026-04-27T11:51:12.999Z</time></trkpt><trkpt lat="33.44864809444545" lon="-5.173618162994666"><ele>1486.0</ele><time>2026-04-27T11:51:13.999Z</time></trkpt><trkpt lat="33.44869979914382" lon="-5.1734177678164945"><ele>1486.0</ele><time>2026-04-27T11:51:14.999Z</time></trkpt><trkpt lat="33.44874930443538" lon="-5.173218479341744"><ele>1487.6666666666665</ele><time>2026-04-27T11:51:15.999Z</time></trkpt><trkpt lat="33.44879682616801" lon="-5.173024434009659"><ele>1489.3333333333333</ele><time>2026-04-27T11:51:16.999Z</time></trkpt><trkpt lat="33.448841163107126" lon="-5.1728446959594"><ele>1491.0</ele><time>2026-04-27T11:51:17.999Z</time></trkpt><trkpt lat="33.448884737292545" lon="-5.172674738336136"><ele>1491.0</ele><time>2026-04-27T11:51:18.999Z</time></trkpt><trkpt lat="33.44892701787925" lon="-5.172513307789419"><ele>1491.0</ele><time>2026-04-27T11:51:19.999Z</time></trkpt><trkpt lat="33.44896911976646" lon="-5.172353154334039"><ele>1491.0</ele><time>2026-04-27T11:51:20.999Z</time></trkpt><trkpt lat="33.4490106443159" lon="-5.172193662697713"><ele>1491.0</ele><time>2026-04-27T11:51:21.999Z</time></trkpt><trkpt lat="33.4490506674598" lon="-5.1720308957145935"><ele>1491.75</ele><time>2026-04-27T11:51:22.999Z</time></trkpt><trkpt lat="33.449092887884206" lon="-5.171868392421491"><ele>1492.5</ele><time>2026-04-27T11:51:23.999Z</time></trkpt><trkpt lat="33.44913760378241" lon="-5.171705981463743"><ele>1493.25</ele><time>2026-04-27T11:51:24.999Z</time></trkpt><trkpt lat="33.44918468912388" lon="-5.171542922551156"><ele>1494.0</ele><time>2026-04-27T11:51:25.999Z</time></trkpt><trkpt lat="33.44923884436276" lon="-5.171382445305494"><ele>1495.0</ele><time>2026-04-27T11:51:26.999Z</time></trkpt><trkpt lat="33.449302980912535" lon="-5.171224000972742"><ele>1496.0</ele><time>2026-04-27T11:51:27.999Z</time></trkpt><trkpt lat="33.44937983250688" lon="-5.171067698781687"><ele>1497.0</ele><time>2026-04-27T11:51:28.999Z</time></trkpt><trkpt lat="33.449465796597835" lon="-5.170917077248243"><ele>1497.0</ele><time>2026-04-27T11:51:29.999Z</time></trkpt><trkpt lat="33.44955913138022" lon="-5.170781945685023"><ele>1497.0</ele><time>2026-04-27T11:51:30.999Z</time></trkpt><trkpt lat="33.44965936262528" lon="-5.170662570925253"><ele>1497.0</ele><time>2026-04-27T11:51:31.999Z</time></trkpt><trkpt lat="33.4497627859484" lon="-5.17056145530719"><ele>1497.0</ele><time>2026-04-27T11:51:32.999Z</time></trkpt><trkpt lat="33.44987189480412" lon="-5.170468119223218"><ele>1498.25</ele><time>2026-04-27T11:51:33.999Z</time></trkpt><trkpt lat="33.449989385798276" lon="-5.170379296393414"><ele>1499.5</ele><time>2026-04-27T11:51:34.999Z</time></trkpt><trkpt lat="33.45011663951278" lon="-5.170292475910683"><ele>1500.75</ele><time>2026-04-27T11:51:35.999Z</time></trkpt><trkpt lat="33.45024872649998" lon="-5.1702098457135035"><ele>1502.0</ele><time>2026-04-27T11:51:36.999Z</time></trkpt><trkpt lat="33.450382046647334" lon="-5.170134538937874"><ele>1502.5</ele><time>2026-04-27T11:51:37.999Z</time></trkpt><trkpt lat="33.45051098466815" lon="-5.170062412048587"><ele>1503.0</ele><time>2026-04-27T11:51:38.999Z</time></trkpt><trkpt lat="33.45063524285578" lon="-5.16999310457785"><ele>1503.5</ele><time>2026-04-27T11:51:39.999Z</time></trkpt><trkpt lat="33.45075483080975" lon="-5.169927217299549"><ele>1504.0</ele><time>2026-04-27T11:51:40.999Z</time></trkpt><trkpt lat="33.45086993345175" lon="-5.1698628052922055"><ele>1504.4</ele><time>2026-04-27T11:51:41.999Z</time></trkpt><trkpt lat="33.45098099866942" lon="-5.1697997896973025"><ele>1504.8000000000002</ele><time>2026-04-27T11:51:42.999Z</time></trkpt><trkpt lat="33.45108810374931" lon="-5.169737523025583"><ele>1505.1999999999998</ele><time>2026-04-27T11:51:43.999Z</time></trkpt><trkpt lat="33.45119235531463" lon="-5.169674870139881"><ele>1505.6</ele><time>2026-04-27T11:51:44.999Z</time></trkpt><trkpt lat="33.451274201262876" lon="-5.169627492755155"><ele>1506.0</ele><time>2026-04-27T11:51:45.999Z</time></trkpt><trkpt lat="33.45135579152201" lon="-5.169580886583311"><ele>1506.1666666666667</ele><time>2026-04-27T11:51:47.999Z</time></trkpt><trkpt lat="33.45141390859395" lon="-5.169550325620608"><ele>1506.3333333333333</ele><time>2026-04-27T11:51:51Z</time></trkpt><trkpt lat="33.4514916235136" lon="-5.169500166945168"><ele>1506.5</ele><time>2026-04-27T11:51:54Z</time></trkpt><trkpt lat="33.45159699482106" lon="-5.169449056416949"><ele>1506.6666666666665</ele><time>2026-04-27T11:51:56Z</time></trkpt><trkpt lat="33.451664463503704" lon="-5.169410267669296"><ele>1506.8333333333333</ele><time>2026-04-27T11:51:57Z</time></trkpt><trkpt lat="33.451744233892356" lon="-5.169365144273635"><ele>1507.0</ele><time>2026-04-27T11:51:58Z</time></trkpt><trkpt lat="33.45183601969672" lon="-5.169315130259472"><ele>1507.0</ele><time>2026-04-27T11:51:59Z</time></trkpt><trkpt lat="33.45192962085814" lon="-5.169263633948093"><ele>1507.0</ele><time>2026-04-27T11:52:00Z</time></trkpt><trkpt lat="33.45203080546585" lon="-5.169205648083341"><ele>1507.0</ele><time>2026-04-27T11:52:01Z</time></trkpt><trkpt lat="33.45213334014083" lon="-5.169146827232231"><ele>1507.0</ele><time>2026-04-27T11:52:02Z</time></trkpt><trkpt lat="33.45223086443994" lon="-5.169090850719029"><ele>1507.0</ele><time>2026-04-27T11:52:03Z</time></trkpt><trkpt lat="33.45233136610701" lon="-5.169031852968285"><ele>1509.0</ele><time>2026-04-27T11:52:04Z</time></trkpt><trkpt lat="33.45243881002969" lon="-5.168972087931669"><ele>1511.0</ele><time>2026-04-27T11:52:05Z</time></trkpt><trkpt lat="33.4525536192548" lon="-5.168909353950032"><ele>1513.0</ele><time>2026-04-27T11:52:06Z</time></trkpt><trkpt lat="33.45267489260449" lon="-5.168840460119859"><ele>1515.0</ele><time>2026-04-27T11:52:07Z</time></trkpt><trkpt lat="33.45280239549431" lon="-5.168765353527948"><ele>1515.0</ele><time>2026-04-27T11:52:08Z</time></trkpt><trkpt lat="33.45293815542958" lon="-5.168688756041734"><ele>1515.0</ele><time>2026-04-27T11:52:09Z</time></trkpt><trkpt lat="33.45307727138005" lon="-5.168611820149257"><ele>1515.0</ele><time>2026-04-27T11:52:10Z</time></trkpt><trkpt lat="33.45322481813784" lon="-5.168527684490098"><ele>1515.0</ele><time>2026-04-27T11:52:11Z</time></trkpt><trkpt lat="33.45337715730975" lon="-5.168443165748146"><ele>1515.0</ele><time>2026-04-27T11:52:12Z</time></trkpt><trkpt lat="33.45352488686235" lon="-5.168361451770849"><ele>1515.0</ele><time>2026-04-27T11:52:13Z</time></trkpt><trkpt lat="33.453668475624" lon="-5.168281406387549"><ele>1514.75</ele><time>2026-04-27T11:52:14Z</time></trkpt><trkpt lat="33.45380780777174" lon="-5.16820112421045"><ele>1514.5</ele><time>2026-04-27T11:52:15Z</time></trkpt><trkpt lat="33.453927203646096" lon="-5.16809286765778"><ele>1514.25</ele><time>2026-04-27T11:52:16Z</time></trkpt><trkpt lat="33.454051777697124" lon="-5.168025810277422"><ele>1514.0</ele><time>2026-04-27T11:52:17Z</time></trkpt><trkpt lat="33.45417727153776" lon="-5.167958301742471"><ele>1515.0</ele><time>2026-04-27T11:52:18Z</time></trkpt><trkpt lat="33.454304875972745" lon="-5.167887525577919"><ele>1516.0</ele><time>2026-04-27T11:52:19Z</time></trkpt><trkpt lat="33.45443371738834" lon="-5.167814900040227"><ele>1517.0</ele><time>2026-04-27T11:52:20Z</time></trkpt><trkpt lat="33.454570512971046" lon="-5.167760686937238"><ele>1518.0</ele><time>2026-04-27T11:52:21Z</time></trkpt><trkpt lat="33.45470037341002" lon="-5.167686718036128"><ele>1518.5</ele><time>2026-04-27T11:52:22Z</time></trkpt><trkpt lat="33.454831856290994" lon="-5.167610317647125"><ele>1519.0</ele><time>2026-04-27T11:52:23Z</time></trkpt><trkpt lat="33.454964520018294" lon="-5.16753656746326"><ele>1519.5</ele><time>2026-04-27T11:52:24Z</time></trkpt><trkpt lat="33.4550929666116" lon="-5.167444430875482"><ele>1520.0</ele><time>2026-04-27T11:52:25Z</time></trkpt><trkpt lat="33.455242075201774" lon="-5.167362721759597"><ele>1522.0</ele><time>2026-04-27T11:52:26Z</time></trkpt><trkpt lat="33.45540924464904" lon="-5.167286402982535"><ele>1524.0</ele><time>2026-04-27T11:52:26.999Z</time></trkpt><trkpt lat="33.455597828216504" lon="-5.167215894183855"><ele>1526.0</ele><time>2026-04-27T11:52:27.999Z</time></trkpt><trkpt lat="33.45578948602031" lon="-5.167148181459681"><ele>1529.0</ele><time>2026-04-27T11:52:28.999Z</time></trkpt><trkpt lat="33.455979579604254" lon="-5.167083014332771"><ele>1532.0</ele><time>2026-04-27T11:52:29.999Z</time></trkpt><trkpt lat="33.45616701327774" lon="-5.167016775658857"><ele>1535.0</ele><time>2026-04-27T11:52:30.999Z</time></trkpt><trkpt lat="33.45635742679201" lon="-5.166966886740774"><ele>1535.0</ele><time>2026-04-27T11:52:31.999Z</time></trkpt><trkpt lat="33.45654604692412" lon="-5.16688412621524"><ele>1535.0</ele><time>2026-04-27T11:52:32.999Z</time></trkpt><trkpt lat="33.45673798615918" lon="-5.1667881598041365"><ele>1535.0</ele><time>2026-04-27T11:52:33.999Z</time></trkpt><trkpt lat="33.45693154259405" lon="-5.1666783330389885"><ele>1535.6666666666667</ele><time>2026-04-27T11:52:34.999Z</time></trkpt><trkpt lat="33.457124315617044" lon="-5.166551397255949"><ele>1536.3333333333335</ele><time>2026-04-27T11:52:35.999Z</time></trkpt><trkpt lat="33.45731697593662" lon="-5.166418842391074"><ele>1537.0</ele><time>2026-04-27T11:52:36.999Z</time></trkpt><trkpt lat="33.45751287284916" lon="-5.16627831222712"><ele>1541.0</ele><time>2026-04-27T11:52:37.999Z</time></trkpt><trkpt lat="33.45771605929749" lon="-5.166142014148491"><ele>1545.0</ele><time>2026-04-27T11:52:38.999Z</time></trkpt><trkpt lat="33.45791333430562" lon="-5.1660018496146085"><ele>1544.5</ele><time>2026-04-27T11:52:39.999Z</time></trkpt><trkpt lat="33.45810643493549" lon="-5.165862776292195"><ele>1544.0</ele><time>2026-04-27T11:52:40.999Z</time></trkpt><trkpt lat="33.45830643894758" lon="-5.165732890537676"><ele>1547.5</ele><time>2026-04-27T11:52:41.999Z</time></trkpt><trkpt lat="33.45851934108643" lon="-5.165622412611915"><ele>1551.0</ele><time>2026-04-27T11:52:42.999Z</time></trkpt><trkpt lat="33.45874145602204" lon="-5.165526560630706"><ele>1552.5</ele><time>2026-04-27T11:52:43.999Z</time></trkpt><trkpt lat="33.4589705824579" lon="-5.165467132051139"><ele>1554.0</ele><time>2026-04-27T11:52:44.999Z</time></trkpt><trkpt lat="33.459194060195465" lon="-5.165414264069077"><ele>1554.0</ele><time>2026-04-27T11:52:45.999Z</time></trkpt><trkpt lat="33.45941151787191" lon="-5.165361976963245"><ele>1554.0</ele><time>2026-04-27T11:52:46.999Z</time></trkpt><trkpt lat="33.459621687924376" lon="-5.165323557445801"><ele>1554.0</ele><time>2026-04-27T11:52:47.999Z</time></trkpt><trkpt lat="33.45980929779614" lon="-5.165231032757945"><ele>1554.6666666666665</ele><time>2026-04-27T11:52:48.999Z</time></trkpt><trkpt lat="33.459982595155395" lon="-5.165111371129983"><ele>1555.3333333333333</ele><time>2026-04-27T11:52:49.999Z</time></trkpt><trkpt lat="33.46014892225527" lon="-5.164960104336232"><ele>1556.0</ele><time>2026-04-27T11:52:50.999Z</time></trkpt><trkpt lat="33.46030436719064" lon="-5.164780522868466"><ele>1557.6666666666665</ele><time>2026-04-27T11:52:51.999Z</time></trkpt><trkpt lat="33.460447466971935" lon="-5.164586458949025"><ele>1559.3333333333335</ele><time>2026-04-27T11:52:52.999Z</time></trkpt><trkpt lat="33.46058212011175" lon="-5.164398450047164"><ele>1561.0</ele><time>2026-04-27T11:52:53.999Z</time></trkpt><trkpt lat="33.46071974385842" lon="-5.16422526712973"><ele>1561.0</ele><time>2026-04-27T11:52:54.999Z</time></trkpt><trkpt lat="33.46087327907251" lon="-5.164061518609029"><ele>1561.0</ele><time>2026-04-27T11:52:55.999Z</time></trkpt><trkpt lat="33.461042864273615" lon="-5.16390975541709"><ele>1561.0</ele><time>2026-04-27T11:52:56.999Z</time></trkpt><trkpt lat="33.461230252411376" lon="-5.163769918498616"><ele>1565.0</ele><time>2026-04-27T11:52:57.999Z</time></trkpt><trkpt lat="33.461415537095164" lon="-5.163639632681479"><ele>1569.0</ele><time>2026-04-27T11:52:58.999Z</time></trkpt><trkpt lat="33.46159179858615" lon="-5.163515372433634"><ele>1573.0</ele><time>2026-04-27T11:52:59.999Z</time></trkpt><trkpt lat="33.46175979918247" lon="-5.163399028443547"><ele>1573.0</ele><time>2026-04-27T11:53:00.999Z</time></trkpt><trkpt lat="33.46192307294041" lon="-5.163287363680186"><ele>1573.0</ele><time>2026-04-27T11:53:01.999Z</time></trkpt><trkpt lat="33.46208167569416" lon="-5.1631764018122315"><ele>1573.0</ele><time>2026-04-27T11:53:02.999Z</time></trkpt><trkpt lat="33.46223895705451" lon="-5.163066401087238"><ele>1576.6666666666667</ele><time>2026-04-27T11:53:03.999Z</time></trkpt><trkpt lat="33.46239477031893" lon="-5.162962138797255"><ele>1580.3333333333335</ele><time>2026-04-27T11:53:04.999Z</time></trkpt><trkpt lat="33.46255284822526" lon="-5.1628539626584695"><ele>1584.0</ele><time>2026-04-27T11:53:05.999Z</time></trkpt><trkpt lat="33.4627098242287" lon="-5.162742574649469"><ele>1584.0</ele><time>2026-04-27T11:53:06.999Z</time></trkpt><trkpt lat="33.46286829393758" lon="-5.1626317024690405"><ele>1584.0</ele><time>2026-04-27T11:53:07.999Z</time></trkpt><trkpt lat="33.46302609582822" lon="-5.162522501254472"><ele>1584.0</ele><time>2026-04-27T11:53:08.999Z</time></trkpt><trkpt lat="33.46318128430154" lon="-5.16241315382989"><ele>1586.6666666666665</ele><time>2026-04-27T11:53:09.999Z</time></trkpt><trkpt lat="33.46333346395301" lon="-5.162303787956775"><ele>1589.3333333333333</ele><time>2026-04-27T11:53:10.999Z</time></trkpt><trkpt lat="33.46348861491035" lon="-5.16219271155712"><ele>1592.0</ele><time>2026-04-27T11:53:11.999Z</time></trkpt><trkpt lat="33.46364520893844" lon="-5.162085191986722"><ele>1593.3333333333333</ele><time>2026-04-27T11:53:12.999Z</time></trkpt><trkpt lat="33.463793179863444" lon="-5.1619945567744985"><ele>1594.6666666666665</ele><time>2026-04-27T11:53:13.999Z</time></trkpt><trkpt lat="33.463940311641686" lon="-5.161928503262907"><ele>1596.0</ele><time>2026-04-27T11:53:14.999Z</time></trkpt><trkpt lat="33.46409076913693" lon="-5.161869950289339"><ele>1596.0</ele><time>2026-04-27T11:53:15.999Z</time></trkpt><trkpt lat="33.46425865948504" lon="-5.161866111827013"><ele>1596.0</ele><time>2026-04-27T11:53:16.999Z</time></trkpt><trkpt lat="33.46442779916235" lon="-5.16188751851645"><ele>1596.0</ele><time>2026-04-27T11:53:17.999Z</time></trkpt><trkpt lat="33.46458889203361" lon="-5.1619549014280866"><ele>1596.6666666666665</ele><time>2026-04-27T11:53:18.999Z</time></trkpt><trkpt lat="33.4647268138797" lon="-5.162073285369022"><ele>1597.3333333333333</ele><time>2026-04-27T11:53:19.999Z</time></trkpt><trkpt lat="33.464849259381886" lon="-5.162202184501441"><ele>1598.0</ele><time>2026-04-27T11:53:20.999Z</time></trkpt><trkpt lat="33.46496018549884" lon="-5.1623372226790805"><ele>1599.3333333333333</ele><time>2026-04-27T11:53:21.999Z</time></trkpt><trkpt lat="33.46507018409993" lon="-5.162474720362858"><ele>1600.6666666666665</ele><time>2026-04-27T11:53:22.999Z</time></trkpt><trkpt lat="33.46518045285918" lon="-5.16261561229519"><ele>1602.0</ele><time>2026-04-27T11:53:23.999Z</time></trkpt><trkpt lat="33.46529085058842" lon="-5.162759826035028"><ele>1602.0</ele><time>2026-04-27T11:53:24.999Z</time></trkpt><trkpt lat="33.465418629697076" lon="-5.162890794560038"><ele>1602.0</ele><time>2026-04-27T11:53:25.999Z</time></trkpt><trkpt lat="33.46554247751462" lon="-5.163039199751719"><ele>1602.0</ele><time>2026-04-27T11:53:26.999Z</time></trkpt><trkpt lat="33.46567133093968" lon="-5.1631922828205"><ele>1603.6666666666665</ele><time>2026-04-27T11:53:27.999Z</time></trkpt><trkpt lat="33.46579607184781" lon="-5.1633602452862"><ele>1605.3333333333333</ele><time>2026-04-27T11:53:28.999Z</time></trkpt><trkpt lat="33.46592850567165" lon="-5.1635283369479055"><ele>1607.0</ele><time>2026-04-27T11:53:29.999Z</time></trkpt><trkpt lat="33.4660597468391" lon="-5.163694637749603"><ele>1607.0</ele><time>2026-04-27T11:53:30.999Z</time></trkpt><trkpt lat="33.46618375084345" lon="-5.163871307818403"><ele>1607.0</ele><time>2026-04-27T11:53:31.999Z</time></trkpt><trkpt lat="33.46631504774404" lon="-5.164030323721013"><ele>1607.0</ele><time>2026-04-27T11:53:32.999Z</time></trkpt><trkpt lat="33.46644214659798" lon="-5.164181037749817"><ele>1609.6666666666665</ele><time>2026-04-27T11:53:33.999Z</time></trkpt><trkpt lat="33.466579435248356" lon="-5.164318309682552"><ele>1612.3333333333335</ele><time>2026-04-27T11:53:34.999Z</time></trkpt><trkpt lat="33.46673994705301" lon="-5.1644289220074695"><ele>1615.0</ele><time>2026-04-27T11:53:35.999Z</time></trkpt><trkpt lat="33.466916554968044" lon="-5.164516335137565"><ele>1615.0</ele><time>2026-04-27T11:53:36.999Z</time></trkpt><trkpt lat="33.467104392866695" lon="-5.164580656745019"><ele>1615.0</ele><time>2026-04-27T11:53:37.999Z</time></trkpt><trkpt lat="33.46729628400848" lon="-5.164632475497202"><ele>1615.0</ele><time>2026-04-27T11:53:38.999Z</time></trkpt><trkpt lat="33.467482967268445" lon="-5.164678719401892"><ele>1620.6666666666667</ele><time>2026-04-27T11:53:39.999Z</time></trkpt><trkpt lat="33.46766682014989" lon="-5.164697012811569"><ele>1626.3333333333335</ele><time>2026-04-27T11:53:40.999Z</time></trkpt><trkpt lat="33.46784404635081" lon="-5.164662396981455"><ele>1632.0</ele><time>2026-04-27T11:53:41.999Z</time></trkpt><trkpt lat="33.468016492878526" lon="-5.164616236968496"><ele>1634.3333333333335</ele><time>2026-04-27T11:53:42.999Z</time></trkpt><trkpt lat="33.46818945861906" lon="-5.164581193910141"><ele>1636.6666666666667</ele><time>2026-04-27T11:53:43.999Z</time></trkpt><trkpt lat="33.468364035171774" lon="-5.164573640649018"><ele>1639.0</ele><time>2026-04-27T11:53:44.999Z</time></trkpt><trkpt lat="33.46854595297942" lon="-5.164598236445776"><ele>1639.0</ele><time>2026-04-27T11:53:45.999Z</time></trkpt><trkpt lat="33.4687248646131" lon="-5.164645261416271"><ele>1639.0</ele><time>2026-04-27T11:53:46.999Z</time></trkpt><trkpt lat="33.468894720445675" lon="-5.164703487161427"><ele>1639.0</ele><time>2026-04-27T11:53:47.999Z</time></trkpt><trkpt lat="33.46906259514932" lon="-5.164765672316866"><ele>1643.0</ele><time>2026-04-27T11:53:48.999Z</time></trkpt><trkpt lat="33.46923634976764" lon="-5.164805598760533"><ele>1647.0</ele><time>2026-04-27T11:53:49.999Z</time></trkpt><trkpt lat="33.46941279470488" lon="-5.16484782390961"><ele>1651.0</ele><time>2026-04-27T11:53:50.999Z</time></trkpt><trkpt lat="33.469584918242454" lon="-5.164899977977225"><ele>1650.6666666666667</ele><time>2026-04-27T11:53:51.999Z</time></trkpt><trkpt lat="33.46975835505605" lon="-5.164907813890827"><ele>1650.3333333333335</ele><time>2026-04-27T11:53:52.999Z</time></trkpt><trkpt lat="33.469922652401266" lon="-5.164879022336549"><ele>1650.0</ele><time>2026-04-27T11:53:53.999Z</time></trkpt><trkpt lat="33.470069290986494" lon="-5.164816634145524"><ele>1650.0</ele><time>2026-04-27T11:53:54.999Z</time></trkpt><trkpt lat="33.47019939999533" lon="-5.164721343396082"><ele>1650.0</ele><time>2026-04-27T11:53:56Z</time></trkpt><trkpt lat="33.470328499640736" lon="-5.164610560806807"><ele>1650.0</ele><time>2026-04-27T11:53:57Z</time></trkpt><trkpt lat="33.47045554748859" lon="-5.1644831792776635"><ele>1645.3333333333335</ele><time>2026-04-27T11:53:58Z</time></trkpt><trkpt lat="33.470580337917916" lon="-5.164335965759373"><ele>1640.6666666666667</ele><time>2026-04-27T11:53:59Z</time></trkpt><trkpt lat="33.47070485298312" lon="-5.16418396779289"><ele>1636.0</ele><time>2026-04-27T11:54:00Z</time></trkpt><trkpt lat="33.47082701014704" lon="-5.164037048415356"><ele>1645.0</ele><time>2026-04-27T11:54:01Z</time></trkpt><trkpt lat="33.47094831298816" lon="-5.163893524270638"><ele>1654.0</ele><time>2026-04-27T11:54:02Z</time></trkpt><trkpt lat="33.47106772454852" lon="-5.163765328823663"><ele>1663.0</ele><time>2026-04-27T11:54:03Z</time></trkpt><trkpt lat="33.471198833502115" lon="-5.1636516682550075"><ele>1659.25</ele><time>2026-04-27T11:54:04Z</time></trkpt><trkpt lat="33.471331773429135" lon="-5.163555386609008"><ele>1655.5</ele><time>2026-04-27T11:54:05Z</time></trkpt><trkpt lat="33.471464951844965" lon="-5.1634775398469035"><ele>1651.75</ele><time>2026-04-27T11:54:06Z</time></trkpt><trkpt lat="33.47159361823455" lon="-5.163406715578431"><ele>1648.0</ele><time>2026-04-27T11:54:07Z</time></trkpt><trkpt lat="33.47171999389649" lon="-5.163337037211787"><ele>1648.0</ele><time>2026-04-27T11:54:08Z</time></trkpt><trkpt lat="33.47184701632213" lon="-5.163269941073173"><ele>1648.0</ele><time>2026-04-27T11:54:09Z</time></trkpt><trkpt lat="33.47196938605192" lon="-5.163200257961463"><ele>1648.0</ele><time>2026-04-27T11:54:10Z</time></trkpt><trkpt lat="33.472088991985196" lon="-5.1631192675462865"><ele>1648.0</ele><time>2026-04-27T11:54:11Z</time></trkpt><trkpt lat="33.472205644753316" lon="-5.163021541442457"><ele>1649.6666666666667</ele><time>2026-04-27T11:54:12Z</time></trkpt><trkpt lat="33.47231630411284" lon="-5.162904421859716"><ele>1651.3333333333335</ele><time>2026-04-27T11:54:13Z</time></trkpt><trkpt lat="33.47241958651553" lon="-5.162767758484745"><ele>1653.0</ele><time>2026-04-27T11:54:14Z</time></trkpt><trkpt lat="33.47252028989165" lon="-5.162618555812959"><ele>1653.0</ele><time>2026-04-27T11:54:15Z</time></trkpt><trkpt lat="33.47261331364332" lon="-5.162469755640711"><ele>1653.0</ele><time>2026-04-27T11:54:16Z</time></trkpt><trkpt lat="33.472703434102414" lon="-5.162320505361994"><ele>1653.0</ele><time>2026-04-27T11:54:17Z</time></trkpt><trkpt lat="33.472792427475596" lon="-5.162173890822195"><ele>1653.3333333333335</ele><time>2026-04-27T11:54:18Z</time></trkpt><trkpt lat="33.47288586254052" lon="-5.162027441492579"><ele>1653.6666666666667</ele><time>2026-04-27T11:54:19Z</time></trkpt><trkpt lat="33.47298700590457" lon="-5.161887175172944"><ele>1654.0</ele><time>2026-04-27T11:54:20Z</time></trkpt><trkpt lat="33.473095398087374" lon="-5.161761203945576"><ele>1654.0</ele><time>2026-04-27T11:54:21Z</time></trkpt><trkpt lat="33.47321104891364" lon="-5.161648427303887"><ele>1654.0</ele><time>2026-04-27T11:54:22Z</time></trkpt><trkpt lat="33.47333148938132" lon="-5.161543776193448"><ele>1654.0</ele><time>2026-04-27T11:54:23Z</time></trkpt><trkpt lat="33.47345082171288" lon="-5.161441884332454"><ele>1654.0</ele><time>2026-04-27T11:54:24Z</time></trkpt><trkpt lat="33.47356780557488" lon="-5.16134283670873"><ele>1655.75</ele><time>2026-04-27T11:54:25Z</time></trkpt><trkpt lat="33.473680390912406" lon="-5.161248616427294"><ele>1657.5</ele><time>2026-04-27T11:54:26Z</time></trkpt><trkpt lat="33.473784869693965" lon="-5.161162067331013"><ele>1659.25</ele><time>2026-04-27T11:54:27Z</time></trkpt><trkpt lat="33.47388666009281" lon="-5.161076949075973"><ele>1661.0</ele><time>2026-04-27T11:54:28Z</time></trkpt><trkpt lat="33.47398981519786" lon="-5.160991186088291"><ele>1661.0</ele><time>2026-04-27T11:54:29Z</time></trkpt><trkpt lat="33.474094298929145" lon="-5.160900543264884"><ele>1661.0</ele><time>2026-04-27T11:54:30Z</time></trkpt><trkpt lat="33.47419937240247" lon="-5.160810845465446"><ele>1661.0</ele><time>2026-04-27T11:54:31Z</time></trkpt><trkpt lat="33.474303077490866" lon="-5.160718543828873"><ele>1661.0</ele><time>2026-04-27T11:54:32Z</time></trkpt><trkpt lat="33.47440403443653" lon="-5.1606144873527855"><ele>1661.0</ele><time>2026-04-27T11:54:33Z</time></trkpt><trkpt lat="33.47449891848852" lon="-5.16049768850956"><ele>1661.0</ele><time>2026-04-27T11:54:34Z</time></trkpt><trkpt lat="33.4745836009035" lon="-5.160363577512828"><ele>1661.0</ele><time>2026-04-27T11:54:35Z</time></trkpt><trkpt lat="33.474656256625174" lon="-5.160213886706771"><ele>1661.0</ele><time>2026-04-27T11:54:36Z</time></trkpt><trkpt lat="33.474719150943805" lon="-5.160051946483483"><ele>1661.0</ele><time>2026-04-27T11:54:37Z</time></trkpt><trkpt lat="33.47476259152411" lon="-5.159876168641673"><ele>1661.0</ele><time>2026-04-27T11:54:38Z</time></trkpt><trkpt lat="33.47479324220874" lon="-5.15970386291201"><ele>1661.0</ele><time>2026-04-27T11:54:39Z</time></trkpt><trkpt lat="33.47482271909673" lon="-5.159498400179062"><ele>1662.0</ele><time>2026-04-27T11:54:39.999Z</time></trkpt><trkpt lat="33.47484648718658" lon="-5.159309283819626"><ele>1663.0</ele><time>2026-04-27T11:54:40.999Z</time></trkpt><trkpt lat="33.47487338974201" lon="-5.159124209752364"><ele>1664.0</ele><time>2026-04-27T11:54:41.999Z</time></trkpt><trkpt lat="33.4749128958884" lon="-5.158943774761006"><ele>1664.3333333333333</ele><time>2026-04-27T11:54:42.999Z</time></trkpt><trkpt lat="33.47496627233276" lon="-5.158768719933156"><ele>1664.6666666666665</ele><time>2026-04-27T11:54:43.999Z</time></trkpt><trkpt lat="33.47503119655561" lon="-5.158598230551009"><ele>1665.0</ele><time>2026-04-27T11:54:44.999Z</time></trkpt><trkpt lat="33.475107311926074" lon="-5.15843310046724"><ele>1665.0</ele><time>2026-04-27T11:54:45.999Z</time></trkpt><trkpt lat="33.47519505498321" lon="-5.158275542721861"><ele>1665.0</ele><time>2026-04-27T11:54:46.999Z</time></trkpt><trkpt lat="33.4752924216912" lon="-5.158124419575277"><ele>1665.0</ele><time>2026-04-27T11:54:47.999Z</time></trkpt><trkpt lat="33.47540609743261" lon="-5.157985602446925"><ele>1664.6666666666665</ele><time>2026-04-27T11:54:48.999Z</time></trkpt><trkpt lat="33.475532949586004" lon="-5.157856362128411"><ele>1664.3333333333333</ele><time>2026-04-27T11:54:49.999Z</time></trkpt><trkpt lat="33.47566949647628" lon="-5.15773597598048"><ele>1664.0</ele><time>2026-04-27T11:54:50.999Z</time></trkpt><trkpt lat="33.475816317150674" lon="-5.1576194356589085"><ele>1664.0</ele><time>2026-04-27T11:54:51.999Z</time></trkpt><trkpt lat="33.47597339397441" lon="-5.157504602395221"><ele>1664.0</ele><time>2026-04-27T11:54:52.999Z</time></trkpt><trkpt lat="33.47613846005099" lon="-5.157390016441186"><ele>1664.0</ele><time>2026-04-27T11:54:53.999Z</time></trkpt><trkpt lat="33.47630422084336" lon="-5.157272445213565"><ele>1664.0</ele><time>2026-04-27T11:54:54.999Z</time></trkpt><trkpt lat="33.47647416124836" lon="-5.157150484985759"><ele>1664.0</ele><time>2026-04-27T11:54:55.999Z</time></trkpt><trkpt lat="33.47665494133336" lon="-5.15702890965898"><ele>1664.0</ele><time>2026-04-27T11:54:56.999Z</time></trkpt><trkpt lat="33.47684380790838" lon="-5.156898098506522"><ele>1664.0</ele><time>2026-04-27T11:54:57.999Z</time></trkpt><trkpt lat="33.47704613601994" lon="-5.156757156226763"><ele>1664.0</ele><time>2026-04-27T11:54:58.999Z</time></trkpt><trkpt lat="33.47725951548787" lon="-5.156610391664287"><ele>1661.5</ele><time>2026-04-27T11:54:59.999Z</time></trkpt><trkpt lat="33.47746515470725" lon="-5.1564269765558155"><ele>1659.0</ele><time>2026-04-27T11:55:00.999Z</time></trkpt><trkpt lat="33.47769838209139" lon="-5.156258831775016"><ele>1657.0</ele><time>2026-04-27T11:55:01.999Z</time></trkpt><trkpt lat="33.47794282665087" lon="-5.156075277400719"><ele>1655.0</ele><time>2026-04-27T11:55:02.999Z</time></trkpt><trkpt lat="33.47819588689514" lon="-5.1558871461624065"><ele>1655.0</ele><time>2026-04-27T11:55:03.999Z</time></trkpt><trkpt lat="33.47845256201179" lon="-5.155725234976006"><ele>1655.0</ele><time>2026-04-27T11:55:04.999Z</time></trkpt><trkpt lat="33.47868592746155" lon="-5.155541150408935"><ele>1656.0</ele><time>2026-04-27T11:55:05.999Z</time></trkpt><trkpt lat="33.478906693953626" lon="-5.155372141320404"><ele>1657.0</ele><time>2026-04-27T11:55:06.999Z</time></trkpt><trkpt lat="33.479114192124364" lon="-5.15521587446516"><ele>1657.0</ele><time>2026-04-27T11:55:07.999Z</time></trkpt><trkpt lat="33.47931597425796" lon="-5.155064149562671"><ele>1657.0</ele><time>2026-04-27T11:55:08.999Z</time></trkpt><trkpt lat="33.4795163946679" lon="-5.154915143403018"><ele>1659.0</ele><time>2026-04-27T11:55:09.999Z</time></trkpt><trkpt lat="33.479715133006806" lon="-5.154769213130329"><ele>1661.0</ele><time>2026-04-27T11:55:10.999Z</time></trkpt><trkpt lat="33.47990774370835" lon="-5.154627220163367"><ele>1661.0</ele><time>2026-04-27T11:55:11.999Z</time></trkpt><trkpt lat="33.480087684129494" lon="-5.154495404966159"><ele>1661.0</ele><time>2026-04-27T11:55:12.999Z</time></trkpt><trkpt lat="33.48025716232702" lon="-5.154369077097594"><ele>1661.0</ele><time>2026-04-27T11:55:13.999Z</time></trkpt><trkpt lat="33.48042102189812" lon="-5.154245105547258"><ele>1659.6666666666665</ele><time>2026-04-27T11:55:14.999Z</time></trkpt><trkpt lat="33.480574690732674" lon="-5.15412550915826"><ele>1658.3333333333335</ele><time>2026-04-27T11:55:15.999Z</time></trkpt><trkpt lat="33.480728230088445" lon="-5.154002471364402"><ele>1657.0</ele><time>2026-04-27T11:55:16.999Z</time></trkpt><trkpt lat="33.4808817550187" lon="-5.153877994592908"><ele>1657.0</ele><time>2026-04-27T11:55:17.999Z</time></trkpt><trkpt lat="33.48103385113858" lon="-5.1537541045849515"><ele>1657.0</ele><time>2026-04-27T11:55:18.999Z</time></trkpt><trkpt lat="33.48118172182809" lon="-5.153633454193627"><ele>1657.0</ele><time>2026-04-27T11:55:19.999Z</time></trkpt><trkpt lat="33.48132328639272" lon="-5.153518729787406"><ele>1655.3333333333335</ele><time>2026-04-27T11:55:20.999Z</time></trkpt><trkpt lat="33.48145801407304" lon="-5.153409086061285"><ele>1653.6666666666665</ele><time>2026-04-27T11:55:21.999Z</time></trkpt><trkpt lat="33.48158728958661" lon="-5.153304707869903"><ele>1652.0</ele><time>2026-04-27T11:55:22.999Z</time></trkpt><trkpt lat="33.48171158758007" lon="-5.153204725234954"><ele>1652.0</ele><time>2026-04-27T11:55:23.999Z</time></trkpt><trkpt lat="33.4818354566417" lon="-5.1531046172570125"><ele>1652.0</ele><time>2026-04-27T11:55:24.999Z</time></trkpt><trkpt lat="33.481961724298664" lon="-5.153002256381501"><ele>1652.0</ele><time>2026-04-27T11:55:25.999Z</time></trkpt><trkpt lat="33.48208912484876" lon="-5.152895967236562"><ele>1650.3333333333333</ele><time>2026-04-27T11:55:26.999Z</time></trkpt><trkpt lat="33.48221797253064" lon="-5.152788447869593"><ele>1648.6666666666665</ele><time>2026-04-27T11:55:27.999Z</time></trkpt><trkpt lat="33.482353964445686" lon="-5.152678328969697"><ele>1647.0</ele><time>2026-04-27T11:55:28.999Z</time></trkpt><trkpt lat="33.48249026138404" lon="-5.152567557758095"><ele>1647.0</ele><time>2026-04-27T11:55:29.999Z</time></trkpt><trkpt lat="33.482617030518114" lon="-5.152458167185344"><ele>1647.0</ele><time>2026-04-27T11:55:30.999Z</time></trkpt><trkpt lat="33.48274216548455" lon="-5.1523511026871285"><ele>1647.0</ele><time>2026-04-27T11:55:31.999Z</time></trkpt><trkpt lat="33.482866608865685" lon="-5.1522469736880705"><ele>1646.25</ele><time>2026-04-27T11:55:32.999Z</time></trkpt><trkpt lat="33.48298457521018" lon="-5.152142121099682"><ele>1645.5</ele><time>2026-04-27T11:55:33.999Z</time></trkpt><trkpt lat="33.48309391079314" lon="-5.152035752121464"><ele>1644.75</ele><time>2026-04-27T11:55:34.999Z</time></trkpt><trkpt lat="33.48319650560474" lon="-5.151929031212807"><ele>1644.0</ele><time>2026-04-27T11:55:35.999Z</time></trkpt><trkpt lat="33.483289758713724" lon="-5.151816540945621"><ele>1644.0</ele><time>2026-04-27T11:55:36.999Z</time></trkpt><trkpt lat="33.48337225814898" lon="-5.1516956310123385"><ele>1644.0</ele><time>2026-04-27T11:55:37.999Z</time></trkpt><trkpt lat="33.483445761385376" lon="-5.151569397154726"><ele>1644.0</ele><time>2026-04-27T11:55:38.999Z</time></trkpt><trkpt lat="33.48351080033086" lon="-5.151439698406974"><ele>1644.0</ele><time>2026-04-27T11:55:39.999Z</time></trkpt><trkpt lat="33.48357277754417" lon="-5.151309770948575"><ele>1644.0</ele><time>2026-04-27T11:55:40.999Z</time></trkpt><trkpt lat="33.483632619046865" lon="-5.151178006377127"><ele>1644.0</ele><time>2026-04-27T11:55:41.999Z</time></trkpt><trkpt lat="33.48369298438068" lon="-5.151048737902756"><ele>1644.0</ele><time>2026-04-27T11:55:42.999Z</time></trkpt><trkpt lat="33.48375217023358" lon="-5.150919731531385"><ele>1644.0</ele><time>2026-04-27T11:55:43.999Z</time></trkpt><trkpt lat="33.483808813996674" lon="-5.150790558773361"><ele>1645.0</ele><time>2026-04-27T11:55:44.999Z</time></trkpt><trkpt lat="33.483870204799985" lon="-5.150657043688613"><ele>1646.0</ele><time>2026-04-27T11:55:45.999Z</time></trkpt><trkpt lat="33.483931441226275" lon="-5.1505195132364285"><ele>1647.0</ele><time>2026-04-27T11:55:46.999Z</time></trkpt><trkpt lat="33.48399173595862" lon="-5.150376368141247"><ele>1648.0</ele><time>2026-04-27T11:55:47.999Z</time></trkpt><trkpt lat="33.48405596858766" lon="-5.150232140060579"><ele>1648.0</ele><time>2026-04-27T11:55:48.999Z</time></trkpt><trkpt lat="33.48412065968947" lon="-5.150080369535022"><ele>1648.0</ele><time>2026-04-27T11:55:49.999Z</time></trkpt><trkpt lat="33.48418949689727" lon="-5.149930261899024"><ele>1648.0</ele><time>2026-04-27T11:55:50.999Z</time></trkpt><trkpt lat="33.48426829012946" lon="-5.149765479974697"><ele>1648.0</ele><time>2026-04-27T11:55:51.999Z</time></trkpt><trkpt lat="33.48436011253485" lon="-5.149579639589585"><ele>1650.3333333333335</ele><time>2026-04-27T11:55:52.999Z</time></trkpt><trkpt lat="33.484438312286365" lon="-5.149363736386499"><ele>1652.6666666666665</ele><time>2026-04-27T11:55:53.999Z</time></trkpt><trkpt lat="33.48454848983274" lon="-5.149157454376834"><ele>1655.0</ele><time>2026-04-27T11:55:54.999Z</time></trkpt><trkpt lat="33.48463579841967" lon="-5.14894816931601"><ele>1655.6666666666665</ele><time>2026-04-27T11:55:55.999Z</time></trkpt><trkpt lat="33.4847186738349" lon="-5.148744999430003"><ele>1656.3333333333335</ele><time>2026-04-27T11:55:56.999Z</time></trkpt><trkpt lat="33.48480029268064" lon="-5.148546424879232"><ele>1657.0</ele><time>2026-04-27T11:55:57.999Z</time></trkpt><trkpt lat="33.484882846360044" lon="-5.1483586154662095"><ele>1661.0</ele><time>2026-04-27T11:55:58.999Z</time></trkpt><trkpt lat="33.48496775326805" lon="-5.148181032710825"><ele>1665.0</ele><time>2026-04-27T11:55:59.999Z</time></trkpt><trkpt lat="33.485056593855695" lon="-5.1480138399566755"><ele>1669.0</ele><time>2026-04-27T11:56:01Z</time></trkpt><trkpt lat="33.485149819213376" lon="-5.1478606222820025"><ele>1669.0</ele><time>2026-04-27T11:56:02Z</time></trkpt><trkpt lat="33.485228647632546" lon="-5.147702476126734"><ele>1669.0</ele><time>2026-04-27T11:56:03Z</time></trkpt><trkpt lat="33.485331215833924" lon="-5.147563093737699"><ele>1669.0</ele><time>2026-04-27T11:56:04Z</time></trkpt><trkpt lat="33.48543967870668" lon="-5.147443909458351"><ele>1671.0</ele><time>2026-04-27T11:56:05Z</time></trkpt><trkpt lat="33.48555860876204" lon="-5.147340861701751"><ele>1673.0</ele><time>2026-04-27T11:56:06Z</time></trkpt><trkpt lat="33.4856794792672" lon="-5.14725310354469"><ele>1675.0</ele><time>2026-04-27T11:56:07Z</time></trkpt><trkpt lat="33.4857959721544" lon="-5.147181727072469"><ele>1677.0</ele><time>2026-04-27T11:56:08Z</time></trkpt><trkpt lat="33.48591429509529" lon="-5.147121340744218"><ele>1677.0</ele><time>2026-04-27T11:56:09Z</time></trkpt><trkpt lat="33.48604317899899" lon="-5.147068148643178"><ele>1677.0</ele><time>2026-04-27T11:56:10Z</time></trkpt><trkpt lat="33.48619584052095" lon="-5.147030124015676"><ele>1677.0</ele><time>2026-04-27T11:56:11Z</time></trkpt><trkpt lat="33.48635971387886" lon="-5.147001410541326"><ele>1676.3333333333335</ele><time>2026-04-27T11:56:12Z</time></trkpt><trkpt lat="33.48652795732506" lon="-5.146971445534531"><ele>1675.6666666666667</ele><time>2026-04-27T11:56:13Z</time></trkpt><trkpt lat="33.48670615833396" lon="-5.146940804443445"><ele>1675.0</ele><time>2026-04-27T11:56:14Z</time></trkpt><trkpt lat="33.48690503827737" lon="-5.146912682354659"><ele>1676.3333333333335</ele><time>2026-04-27T11:56:15Z</time></trkpt><trkpt lat="33.48710582212979" lon="-5.1468860472310505"><ele>1677.6666666666665</ele><time>2026-04-27T11:56:16Z</time></trkpt><trkpt lat="33.48730416912061" lon="-5.146860441236245"><ele>1679.0</ele><time>2026-04-27T11:56:17Z</time></trkpt><trkpt lat="33.48750484511497" lon="-5.14684319698385"><ele>1679.0</ele><time>2026-04-27T11:56:18Z</time></trkpt><trkpt lat="33.48770306411133" lon="-5.146849680789458"><ele>1679.0</ele><time>2026-04-27T11:56:19Z</time></trkpt><trkpt lat="33.48790029371558" lon="-5.146853591458118"><ele>1679.0</ele><time>2026-04-27T11:56:20Z</time></trkpt><trkpt lat="33.488099216713785" lon="-5.146882301337871"><ele>1681.3333333333333</ele><time>2026-04-27T11:56:21Z</time></trkpt><trkpt lat="33.48830443764227" lon="-5.146922342533215"><ele>1683.6666666666665</ele><time>2026-04-27T11:56:22Z</time></trkpt><trkpt lat="33.48850304556613" lon="-5.147004655729231"><ele>1686.0</ele><time>2026-04-27T11:56:23Z</time></trkpt><trkpt lat="33.488699225641064" lon="-5.147092565566714"><ele>1687.6666666666665</ele><time>2026-04-27T11:56:24Z</time></trkpt><trkpt lat="33.48889090177299" lon="-5.1472085592409345"><ele>1689.3333333333333</ele><time>2026-04-27T11:56:25Z</time></trkpt><trkpt lat="33.48908093215779" lon="-5.147314853730372"><ele>1691.0</ele><time>2026-04-27T11:56:26Z</time></trkpt><trkpt lat="33.48926193939177" lon="-5.147431691104007"><ele>1689.0</ele><time>2026-04-27T11:56:27Z</time></trkpt><trkpt lat="33.48945225359648" lon="-5.147514749748952"><ele>1687.0</ele><time>2026-04-27T11:56:28Z</time></trkpt><trkpt lat="33.48964857466809" lon="-5.1475831134780865"><ele>1685.0</ele><time>2026-04-27T11:56:29Z</time></trkpt><trkpt lat="33.48984235168569" lon="-5.147627988562741"><ele>1685.0</ele><time>2026-04-27T11:56:30Z</time></trkpt><trkpt lat="33.49003282545799" lon="-5.1476588080797265"><ele>1685.0</ele><time>2026-04-27T11:56:31Z</time></trkpt><trkpt lat="33.49021918369464" lon="-5.147688948921109"><ele>1685.0</ele><time>2026-04-27T11:56:32Z</time></trkpt><trkpt lat="33.49040190952226" lon="-5.147721527165626"><ele>1686.3333333333333</ele><time>2026-04-27T11:56:33Z</time></trkpt><trkpt lat="33.49058251935985" lon="-5.147754503653146"><ele>1687.6666666666665</ele><time>2026-04-27T11:56:34Z</time></trkpt><trkpt lat="33.49076155981503" lon="-5.147785460395155"><ele>1689.0</ele><time>2026-04-27T11:56:35Z</time></trkpt><trkpt lat="33.49093983186895" lon="-5.14781349335023"><ele>1689.0</ele><time>2026-04-27T11:56:36Z</time></trkpt><trkpt lat="33.49112232783573" lon="-5.14783922168403"><ele>1689.0</ele><time>2026-04-27T11:56:37Z</time></trkpt><trkpt lat="33.49130386710398" lon="-5.147867275654104"><ele>1689.0</ele><time>2026-04-27T11:56:38Z</time></trkpt><trkpt lat="33.491483913376804" lon="-5.147893238725862"><ele>1689.3333333333335</ele><time>2026-04-27T11:56:39Z</time></trkpt><trkpt lat="33.49166545036682" lon="-5.147921549010161"><ele>1689.6666666666667</ele><time>2026-04-27T11:56:40Z</time></trkpt><trkpt lat="33.4918494825903" lon="-5.147949399046621"><ele>1690.0</ele><time>2026-04-27T11:56:41Z</time></trkpt><trkpt lat="33.49202897490426" lon="-5.147975233745343"><ele>1690.0</ele><time>2026-04-27T11:56:42Z</time></trkpt><trkpt lat="33.49220598271507" lon="-5.147999652735202"><ele>1690.0</ele><time>2026-04-27T11:56:43Z</time></trkpt><trkpt lat="33.49238272646084" lon="-5.148024180897512"><ele>1690.0</ele><time>2026-04-27T11:56:44Z</time></trkpt><trkpt lat="33.49255584731269" lon="-5.148049229773346"><ele>1690.0</ele><time>2026-04-27T11:56:45Z</time></trkpt><trkpt lat="33.49272609337112" lon="-5.148074759241479"><ele>1690.0</ele><time>2026-04-27T11:56:46Z</time></trkpt><trkpt lat="33.49289304654897" lon="-5.148098858378582"><ele>1690.0</ele><time>2026-04-27T11:56:47Z</time></trkpt><trkpt lat="33.49305913495405" lon="-5.1481227451028815"><ele>1690.6666666666667</ele><time>2026-04-27T11:56:48Z</time></trkpt><trkpt lat="33.493228448483904" lon="-5.148147972043782"><ele>1691.3333333333335</ele><time>2026-04-27T11:56:49Z</time></trkpt><trkpt lat="33.49340386236377" lon="-5.148176120215492"><ele>1692.0</ele><time>2026-04-27T11:56:49.999Z</time></trkpt><trkpt lat="33.49358427329615" lon="-5.148204279707654"><ele>1687.0</ele><time>2026-04-27T11:56:50.999Z</time></trkpt><trkpt lat="33.49377077896923" lon="-5.148233730746098"><ele>1682.0</ele><time>2026-04-27T11:56:51.999Z</time></trkpt><trkpt lat="33.49395999354062" lon="-5.148262334658586"><ele>1677.0</ele><time>2026-04-27T11:56:52.999Z</time></trkpt><trkpt lat="33.4941529897278" lon="-5.148292602486253"><ele>1677.0</ele><time>2026-04-27T11:56:53.999Z</time></trkpt><trkpt lat="33.49434848956216" lon="-5.148326455547617"><ele>1677.0</ele><time>2026-04-27T11:56:54.999Z</time></trkpt><trkpt lat="33.49455011436213" lon="-5.148361384027731"><ele>1677.0</ele><time>2026-04-27T11:56:55.999Z</time></trkpt><trkpt lat="33.494754591655195" lon="-5.148393872929082"><ele>1678.0</ele><time>2026-04-27T11:56:56.999Z</time></trkpt><trkpt lat="33.494960616627544" lon="-5.148421792195583"><ele>1679.0</ele><time>2026-04-27T11:56:57.999Z</time></trkpt><trkpt lat="33.49516457654591" lon="-5.148451111243134"><ele>1680.0</ele><time>2026-04-27T11:56:58.999Z</time></trkpt><trkpt lat="33.49537074885683" lon="-5.148484137281794"><ele>1679.6666666666665</ele><time>2026-04-27T11:56:59.999Z</time></trkpt><trkpt lat="33.49558576660294" lon="-5.148517548906209"><ele>1679.3333333333333</ele><time>2026-04-27T11:57:00.999Z</time></trkpt><trkpt lat="33.49580221485705" lon="-5.148550818476048"><ele>1679.0</ele><time>2026-04-27T11:57:01.999Z</time></trkpt><trkpt lat="33.49602249951642" lon="-5.148584709079717"><ele>1679.0</ele><time>2026-04-27T11:57:02.999Z</time></trkpt><trkpt lat="33.496240737926136" lon="-5.14861837997938"><ele>1679.0</ele><time>2026-04-27T11:57:03.999Z</time></trkpt><trkpt lat="33.496455080938276" lon="-5.148653148392856"><ele>1679.0</ele><time>2026-04-27T11:57:04.999Z</time></trkpt><trkpt lat="33.49667019241098" lon="-5.148686372521164"><ele>1678.3333333333333</ele><time>2026-04-27T11:57:05.999Z</time></trkpt><trkpt lat="33.496884776789415" lon="-5.148719664904636"><ele>1677.6666666666665</ele><time>2026-04-27T11:57:06.999Z</time></trkpt><trkpt lat="33.49709753255904" lon="-5.14875247400352"><ele>1677.0</ele><time>2026-04-27T11:57:07.999Z</time></trkpt><trkpt lat="33.49731247419706" lon="-5.148784923654526"><ele>1676.3333333333335</ele><time>2026-04-27T11:57:08.999Z</time></trkpt><trkpt lat="33.49753270625186" lon="-5.14881685471802"><ele>1675.6666666666667</ele><time>2026-04-27T11:57:09.999Z</time></trkpt><trkpt lat="33.49775465574864" lon="-5.148848525186441"><ele>1675.0</ele><time>2026-04-27T11:57:10.999Z</time></trkpt><trkpt lat="33.497977611432596" lon="-5.14888113444607"><ele>1674.0</ele><time>2026-04-27T11:57:11.999Z</time></trkpt><trkpt lat="33.4982012044153" lon="-5.14891487035059"><ele>1673.0</ele><time>2026-04-27T11:57:12.999Z</time></trkpt><trkpt lat="33.49842548438011" lon="-5.148948183294936"><ele>1673.0</ele><time>2026-04-27T11:57:13.999Z</time></trkpt><trkpt lat="33.49864786656681" lon="-5.148981891111352"><ele>1673.0</ele><time>2026-04-27T11:57:14.999Z</time></trkpt><trkpt lat="33.498874213128076" lon="-5.1490175332393715"><ele>1669.0</ele><time>2026-04-27T11:57:15.999Z</time></trkpt><trkpt lat="33.49910529775625" lon="-5.149053432445525"><ele>1665.0</ele><time>2026-04-27T11:57:16.999Z</time></trkpt><trkpt lat="33.49934516108021" lon="-5.149090506667014"><ele>1664.0</ele><time>2026-04-27T11:57:17.999Z</time></trkpt><trkpt lat="33.499588741951555" lon="-5.149128072128945"><ele>1663.0</ele><time>2026-04-27T11:57:18.999Z</time></trkpt><trkpt lat="33.49983343428907" lon="-5.149164936070519"><ele>1663.0</ele><time>2026-04-27T11:57:19.999Z</time></trkpt><trkpt lat="33.50007579898211" lon="-5.149201607347107"><ele>1663.0</ele><time>2026-04-27T11:57:20.999Z</time></trkpt><trkpt lat="33.50031839638897" lon="-5.149236399659767"><ele>1664.0</ele><time>2026-04-27T11:57:21.999Z</time></trkpt><trkpt lat="33.500559344537784" lon="-5.149270964301808"><ele>1665.0</ele><time>2026-04-27T11:57:22.999Z</time></trkpt><trkpt lat="33.50079738580433" lon="-5.149307455379299"><ele>1665.0</ele><time>2026-04-27T11:57:23.999Z</time></trkpt><trkpt lat="33.501032672070394" lon="-5.149345449671147"><ele>1665.0</ele><time>2026-04-27T11:57:24.999Z</time></trkpt><trkpt lat="33.501270670903395" lon="-5.149383283408622"><ele>1665.0</ele><time>2026-04-27T11:57:25.999Z</time></trkpt><trkpt lat="33.50150819900876" lon="-5.1494184177620825"><ele>1665.0</ele><time>2026-04-27T11:57:26.999Z</time></trkpt><trkpt lat="33.50174596960317" lon="-5.149447523335072"><ele>1665.0</ele><time>2026-04-27T11:57:27.999Z</time></trkpt><trkpt lat="33.50198237569139" lon="-5.149466897001494"><ele>1665.0</ele><time>2026-04-27T11:57:28.999Z</time></trkpt><trkpt lat="33.50221683684164" lon="-5.149461766686098"><ele>1664.0</ele><time>2026-04-27T11:57:29.999Z</time></trkpt><trkpt lat="33.50244860604606" lon="-5.149422013530192"><ele>1663.0</ele><time>2026-04-27T11:57:30.999Z</time></trkpt><trkpt lat="33.50267278402538" lon="-5.149355972127049"><ele>1663.0</ele><time>2026-04-27T11:57:31.999Z</time></trkpt><trkpt lat="33.502888682392985" lon="-5.149271550563044"><ele>1663.0</ele><time>2026-04-27T11:57:32.999Z</time></trkpt><trkpt lat="33.50309406382161" lon="-5.149170244566534"><ele>1663.0</ele><time>2026-04-27T11:57:33.999Z</time></trkpt><trkpt lat="33.50328520407487" lon="-5.149044881131966"><ele>1662.3333333333335</ele><time>2026-04-27T11:57:34.999Z</time></trkpt><trkpt lat="33.50346249104605" lon="-5.148903894989505"><ele>1661.6666666666665</ele><time>2026-04-27T11:57:35.999Z</time></trkpt><trkpt lat="33.50362498502992" lon="-5.148746911954776"><ele>1661.0</ele><time>2026-04-27T11:57:36.999Z</time></trkpt><trkpt lat="33.503774569695146" lon="-5.148577466661029"><ele>1660.3333333333333</ele><time>2026-04-27T11:57:37.999Z</time></trkpt><trkpt lat="33.503911308070606" lon="-5.148397843237187"><ele>1659.6666666666665</ele><time>2026-04-27T11:57:38.999Z</time></trkpt><trkpt lat="33.50403382425419" lon="-5.148203782064028"><ele>1659.0</ele><time>2026-04-27T11:57:39.999Z</time></trkpt><trkpt lat="33.504136877660805" lon="-5.147994351982199"><ele>1657.0</ele><time>2026-04-27T11:57:40.999Z</time></trkpt><trkpt lat="33.50422594690383" lon="-5.147772767574636"><ele>1655.0</ele><time>2026-04-27T11:57:41.999Z</time></trkpt><trkpt lat="33.50430671224698" lon="-5.147544154908292"><ele>1653.0</ele><time>2026-04-27T11:57:42.999Z</time></trkpt><trkpt lat="33.504375022463535" lon="-5.147307058424287"><ele>1651.3333333333335</ele><time>2026-04-27T11:57:43.999Z</time></trkpt><trkpt lat="33.50442119267861" lon="-5.147061528857605"><ele>1649.6666666666667</ele><time>2026-04-27T11:57:44.999Z</time></trkpt><trkpt lat="33.504448900874756" lon="-5.146812509940552"><ele>1648.0</ele><time>2026-04-27T11:57:45.999Z</time></trkpt><trkpt lat="33.504459506083705" lon="-5.146562929459618"><ele>1647.3333333333335</ele><time>2026-04-27T11:57:46.999Z</time></trkpt><trkpt lat="33.50445206456437" lon="-5.1463152660804505"><ele>1646.6666666666665</ele><time>2026-04-27T11:57:47.999Z</time></trkpt><trkpt lat="33.50442954909631" lon="-5.14607065756517"><ele>1646.0</ele><time>2026-04-27T11:57:48.999Z</time></trkpt><trkpt lat="33.50438991951338" lon="-5.145827894865859"><ele>1645.3333333333333</ele><time>2026-04-27T11:57:49.999Z</time></trkpt><trkpt lat="33.50433197244773" lon="-5.145590130350139"><ele>1644.6666666666665</ele><time>2026-04-27T11:57:50.999Z</time></trkpt><trkpt lat="33.504256175288376" lon="-5.145359027084791"><ele>1644.0</ele><time>2026-04-27T11:57:51.999Z</time></trkpt><trkpt lat="33.50417034768041" lon="-5.145132126836555"><ele>1644.0</ele><time>2026-04-27T11:57:52.999Z</time></trkpt><trkpt lat="33.50408074921142" lon="-5.144906746553431"><ele>1644.0</ele><time>2026-04-27T11:57:53.999Z</time></trkpt><trkpt lat="33.5039944547307" lon="-5.144680263268357"><ele>1644.0</ele><time>2026-04-27T11:57:54.999Z</time></trkpt><trkpt lat="33.50390851273624" lon="-5.144451038139567"><ele>1643.6666666666665</ele><time>2026-04-27T11:57:55.999Z</time></trkpt><trkpt lat="33.503819548040795" lon="-5.14421806304177"><ele>1643.3333333333333</ele><time>2026-04-27T11:57:56.999Z</time></trkpt><trkpt lat="33.50372937882785" lon="-5.143978713471962"><ele>1643.0</ele><time>2026-04-27T11:57:57.999Z</time></trkpt><trkpt lat="33.50363969340076" lon="-5.143736890986085"><ele>1643.6666666666665</ele><time>2026-04-27T11:57:58.999Z</time></trkpt><trkpt lat="33.5035499784599" lon="-5.143495184438643"><ele>1644.3333333333335</ele><time>2026-04-27T11:57:59.999Z</time></trkpt><trkpt lat="33.503460634424194" lon="-5.143251287715787"><ele>1645.0</ele><time>2026-04-27T11:58:00.999Z</time></trkpt><trkpt lat="33.50337024549242" lon="-5.143006670070002"><ele>1646.0</ele><time>2026-04-27T11:58:01.999Z</time></trkpt><trkpt lat="33.50327953960841" lon="-5.1427640200056794"><ele>1647.0</ele><time>2026-04-27T11:58:02.999Z</time></trkpt><trkpt lat="33.5031887024158" lon="-5.142528410337459"><ele>1648.0</ele><time>2026-04-27T11:58:03.999Z</time></trkpt><trkpt lat="33.50310030961409" lon="-5.14229239788067"><ele>1649.0</ele><time>2026-04-27T11:58:04.999Z</time></trkpt><trkpt lat="33.50301119989986" lon="-5.142053219827154"><ele>1650.0</ele><time>2026-04-27T11:58:05.999Z</time></trkpt><trkpt lat="33.50292146302303" lon="-5.141814385595213"><ele>1651.0</ele><time>2026-04-27T11:58:07Z</time></trkpt><trkpt lat="33.502829549508334" lon="-5.141573046245921"><ele>1652.0</ele><time>2026-04-27T11:58:08Z</time></trkpt><trkpt lat="33.502738888686274" lon="-5.141332630771273"><ele>1653.0</ele><time>2026-04-27T11:58:09Z</time></trkpt><trkpt lat="33.50264921816429" lon="-5.141090680776728"><ele>1654.0</ele><time>2026-04-27T11:58:10Z</time></trkpt><trkpt lat="33.502559461543036" lon="-5.140847872727727"><ele>1653.6666666666667</ele><time>2026-04-27T11:58:11Z</time></trkpt><trkpt lat="33.50247029577072" lon="-5.140607109834471"><ele>1653.3333333333335</ele><time>2026-04-27T11:58:12Z</time></trkpt><trkpt lat="33.50237946910932" lon="-5.140365304360238"><ele>1653.0</ele><time>2026-04-27T11:58:13Z</time></trkpt><trkpt lat="33.502289434036314" lon="-5.140123555212843"><ele>1654.0</ele><time>2026-04-27T11:58:14Z</time></trkpt><trkpt lat="33.50219973227331" lon="-5.139881811149084"><ele>1655.0</ele><time>2026-04-27T11:58:15Z</time></trkpt><trkpt lat="33.50210994492462" lon="-5.139640439547997"><ele>1656.0</ele><time>2026-04-27T11:58:16Z</time></trkpt><trkpt lat="33.50201987214367" lon="-5.139398952548444"><ele>1655.6666666666665</ele><time>2026-04-27T11:58:17Z</time></trkpt><trkpt lat="33.50192931867539" lon="-5.139158992833231"><ele>1655.3333333333333</ele><time>2026-04-27T11:58:18Z</time></trkpt><trkpt lat="33.50183973885051" lon="-5.138924588988699"><ele>1655.0</ele><time>2026-04-27T11:58:19Z</time></trkpt><trkpt lat="33.50175359468712" lon="-5.138699554964308"><ele>1655.0</ele><time>2026-04-27T11:58:20Z</time></trkpt><trkpt lat="33.50167166300496" lon="-5.138478654296009"><ele>1655.0</ele><time>2026-04-27T11:58:21Z</time></trkpt><trkpt lat="33.50158996085754" lon="-5.138259411431442"><ele>1655.0</ele><time>2026-04-27T11:58:22Z</time></trkpt><trkpt lat="33.501509320017114" lon="-5.13804364683419"><ele>1656.6666666666665</ele><time>2026-04-27T11:58:23Z</time></trkpt><trkpt lat="33.50143371574921" lon="-5.137832750640263"><ele>1658.3333333333335</ele><time>2026-04-27T11:58:24Z</time></trkpt><trkpt lat="33.50136750910064" lon="-5.137626749602399"><ele>1660.0</ele><time>2026-04-27T11:58:25Z</time></trkpt><trkpt lat="33.50131300383589" lon="-5.137428948725458"><ele>1659.0</ele><time>2026-04-27T11:58:26Z</time></trkpt><trkpt lat="33.50127080047269" lon="-5.137239294636724"><ele>1658.0</ele><time>2026-04-27T11:58:27Z</time></trkpt><trkpt lat="33.501239770330834" lon="-5.137055129255423"><ele>1657.0</ele><time>2026-04-27T11:58:28Z</time></trkpt><trkpt lat="33.50121737175813" lon="-5.13687846836298"><ele>1659.3333333333335</ele><time>2026-04-27T11:58:29Z</time></trkpt><trkpt lat="33.50120326723633" lon="-5.136699093868397"><ele>1661.6666666666665</ele><time>2026-04-27T11:58:30Z</time></trkpt><trkpt lat="33.50119781242356" lon="-5.136519818016896"><ele>1664.0</ele><time>2026-04-27T11:58:31Z</time></trkpt><trkpt lat="33.50120211371553" lon="-5.136340081502909"><ele>1664.0</ele><time>2026-04-27T11:58:32Z</time></trkpt><trkpt lat="33.501214495433494" lon="-5.136159131844397"><ele>1664.0</ele><time>2026-04-27T11:58:33Z</time></trkpt><trkpt lat="33.50123799286371" lon="-5.13597865499428"><ele>1664.0</ele><time>2026-04-27T11:58:34Z</time></trkpt><trkpt lat="33.50127080052585" lon="-5.135797291563099"><ele>1662.0</ele><time>2026-04-27T11:58:35Z</time></trkpt><trkpt lat="33.5013066257005" lon="-5.135616574654385"><ele>1660.0</ele><time>2026-04-27T11:58:36Z</time></trkpt><trkpt lat="33.50135093733246" lon="-5.135433717303165"><ele>1658.0</ele><time>2026-04-27T11:58:37Z</time></trkpt><trkpt lat="33.50140770950789" lon="-5.135254372970043"><ele>1658.0</ele><time>2026-04-27T11:58:38Z</time></trkpt><trkpt lat="33.50147388118237" lon="-5.13508085169408"><ele>1658.0</ele><time>2026-04-27T11:58:39Z</time></trkpt><trkpt lat="33.50155015190705" lon="-5.134908819089375"><ele>1658.0</ele><time>2026-04-27T11:58:39.999Z</time></trkpt><trkpt lat="33.50163632621638" lon="-5.134742217324057"><ele>1657.6666666666665</ele><time>2026-04-27T11:58:40.999Z</time></trkpt><trkpt lat="33.501731550456014" lon="-5.1345798560922"><ele>1657.3333333333335</ele><time>2026-04-27T11:58:41.999Z</time></trkpt><trkpt lat="33.50183609580209" lon="-5.134424965931248"><ele>1657.0</ele><time>2026-04-27T11:58:42.999Z</time></trkpt><trkpt lat="33.50194960050671" lon="-5.134273992974705"><ele>1657.0</ele><time>2026-04-27T11:58:43.999Z</time></trkpt><trkpt lat="33.50207183657671" lon="-5.134128463967857"><ele>1657.0</ele><time>2026-04-27T11:58:44.999Z</time></trkpt><trkpt lat="33.50219866022489" lon="-5.133985195541688"><ele>1657.0</ele><time>2026-04-27T11:58:45.999Z</time></trkpt><trkpt lat="33.50232798503541" lon="-5.133842204316788"><ele>1656.0</ele><time>2026-04-27T11:58:46.999Z</time></trkpt><trkpt lat="33.50245875317068" lon="-5.133699319304664"><ele>1655.0</ele><time>2026-04-27T11:58:47.999Z</time></trkpt><trkpt lat="33.50258991892426" lon="-5.133554143592662"><ele>1654.0</ele><time>2026-04-27T11:58:48.999Z</time></trkpt><trkpt lat="33.502721629403375" lon="-5.133408546620539"><ele>1654.0</ele><time>2026-04-27T11:58:49.999Z</time></trkpt><trkpt lat="33.50285477589271" lon="-5.1332648691857"><ele>1654.0</ele><time>2026-04-27T11:58:50.999Z</time></trkpt><trkpt lat="33.502986353440924" lon="-5.133121051485792"><ele>1654.0</ele><time>2026-04-27T11:58:51.999Z</time></trkpt><trkpt lat="33.5031173340192" lon="-5.132976947595686"><ele>1653.3333333333335</ele><time>2026-04-27T11:58:52.999Z</time></trkpt><trkpt lat="33.50325005574841" lon="-5.1328343012443325"><ele>1652.6666666666665</ele><time>2026-04-27T11:58:53.999Z</time></trkpt><trkpt lat="33.50338307966225" lon="-5.13269224127726"><ele>1652.0</ele><time>2026-04-27T11:58:54.999Z</time></trkpt><trkpt lat="33.50351600265381" lon="-5.1325491891497865"><ele>1652.0</ele><time>2026-04-27T11:58:55.999Z</time></trkpt><trkpt lat="33.50365101651102" lon="-5.132404263088955"><ele>1652.0</ele><time>2026-04-27T11:58:56.999Z</time></trkpt><trkpt lat="33.503788208711285" lon="-5.1322588023208375"><ele>1652.0</ele><time>2026-04-27T11:58:57.999Z</time></trkpt><trkpt lat="33.50392454586717" lon="-5.132113589370982"><ele>1652.6666666666665</ele><time>2026-04-27T11:58:58.999Z</time></trkpt><trkpt lat="33.50406143937811" lon="-5.13196651871982"><ele>1653.3333333333335</ele><time>2026-04-27T11:58:59.999Z</time></trkpt><trkpt lat="33.5041973767756" lon="-5.131816976388269"><ele>1654.0</ele><time>2026-04-27T11:59:00.999Z</time></trkpt><trkpt lat="33.50433256843588" lon="-5.131664490169269"><ele>1654.3333333333335</ele><time>2026-04-27T11:59:01.999Z</time></trkpt><trkpt lat="33.504464951832425" lon="-5.131504402007583"><ele>1654.6666666666665</ele><time>2026-04-27T11:59:02.999Z</time></trkpt><trkpt lat="33.50459532023523" lon="-5.131338319793344"><ele>1655.0</ele><time>2026-04-27T11:59:03.999Z</time></trkpt><trkpt lat="33.50472264520669" lon="-5.1311671350581385"><ele>1655.0</ele><time>2026-04-27T11:59:04.999Z</time></trkpt><trkpt lat="33.504849980203986" lon="-5.130992657751338"><ele>1655.0</ele><time>2026-04-27T11:59:05.999Z</time></trkpt><trkpt lat="33.50497778545885" lon="-5.1308140176090955"><ele>1655.0</ele><time>2026-04-27T11:59:06.999Z</time></trkpt><trkpt lat="33.505105260637414" lon="-5.130636626300631"><ele>1655.0</ele><time>2026-04-27T11:59:07.999Z</time></trkpt><trkpt lat="33.50523328504859" lon="-5.130458026931853"><ele>1655.0</ele><time>2026-04-27T11:59:08.999Z</time></trkpt><trkpt lat="33.5053616678581" lon="-5.130279780291798"><ele>1655.0</ele><time>2026-04-27T11:59:09.999Z</time></trkpt><trkpt lat="33.505491086405364" lon="-5.1301008013137"><ele>1654.6666666666665</ele><time>2026-04-27T11:59:10.999Z</time></trkpt><trkpt lat="33.50561961254899" lon="-5.129920571692989"><ele>1654.3333333333335</ele><time>2026-04-27T11:59:11.999Z</time></trkpt><trkpt lat="33.505747757109695" lon="-5.129742350004675"><ele>1654.0</ele><time>2026-04-27T11:59:12.999Z</time></trkpt><trkpt lat="33.505875001700325" lon="-5.129564507904836"><ele>1654.0</ele><time>2026-04-27T11:59:13.999Z</time></trkpt><trkpt lat="33.50600298364531" lon="-5.129387544510998"><ele>1654.0</ele><time>2026-04-27T11:59:14.999Z</time></trkpt><trkpt lat="33.506129481089395" lon="-5.129211294328108"><ele>1654.0</ele><time>2026-04-27T11:59:15.999Z</time></trkpt><trkpt lat="33.506255616306184" lon="-5.129035556304438"><ele>1654.0</ele><time>2026-04-27T11:59:16.999Z</time></trkpt><trkpt lat="33.50638128064016" lon="-5.1288610895573585"><ele>1654.0</ele><time>2026-04-27T11:59:17.999Z</time></trkpt><trkpt lat="33.506507564107444" lon="-5.128687354641955"><ele>1654.0</ele><time>2026-04-27T11:59:18.999Z</time></trkpt><trkpt lat="33.50663481363809" lon="-5.128516552601425"><ele>1654.0</ele><time>2026-04-27T11:59:19.999Z</time></trkpt><trkpt lat="33.506761560030924" lon="-5.128344781202886"><ele>1654.0</ele><time>2026-04-27T11:59:20.999Z</time></trkpt><trkpt lat="33.50688761888807" lon="-5.128172948682841"><ele>1654.0</ele><time>2026-04-27T11:59:21.999Z</time></trkpt><trkpt lat="33.50701356752832" lon="-5.127998997495222"><ele>1653.6666666666667</ele><time>2026-04-27T11:59:22.999Z</time></trkpt><trkpt lat="33.50713863677516" lon="-5.127824550304528"><ele>1653.3333333333335</ele><time>2026-04-27T11:59:23.999Z</time></trkpt><trkpt lat="33.507264563516124" lon="-5.127650602745598"><ele>1653.0</ele><time>2026-04-27T11:59:24.999Z</time></trkpt><trkpt lat="33.50739238651316" lon="-5.127478662567617"><ele>1653.6666666666665</ele><time>2026-04-27T11:59:25.999Z</time></trkpt><trkpt lat="33.507519744946066" lon="-5.127307809984301"><ele>1654.3333333333333</ele><time>2026-04-27T11:59:26.999Z</time></trkpt><trkpt lat="33.50763416578066" lon="-5.127123410263242"><ele>1655.0</ele><time>2026-04-27T11:59:27.999Z</time></trkpt><trkpt lat="33.50775939496349" lon="-5.126948142722858"><ele>1655.0</ele><time>2026-04-27T11:59:28.999Z</time></trkpt><trkpt lat="33.50788472675948" lon="-5.1267738106971645"><ele>1655.0</ele><time>2026-04-27T11:59:29.999Z</time></trkpt><trkpt lat="33.50800507969758" lon="-5.126606584720222"><ele>1655.0</ele><time>2026-04-27T11:59:30.999Z</time></trkpt><trkpt lat="33.508125962264806" lon="-5.126453501973306"><ele>1655.0</ele><time>2026-04-27T11:59:31.999Z</time></trkpt><trkpt lat="33.50822893386701" lon="-5.126282216952964"><ele>1655.0</ele><time>2026-04-27T11:59:32.999Z</time></trkpt><trkpt lat="33.508324319533905" lon="-5.126105149133565"><ele>1655.0</ele><time>2026-04-27T11:59:33.999Z</time></trkpt><trkpt lat="33.50841268742587" lon="-5.125920610346392"><ele>1655.0</ele><time>2026-04-27T11:59:34.999Z</time></trkpt><trkpt lat="33.50849476351748" lon="-5.125730221481783"><ele>1655.0</ele><time>2026-04-27T11:59:35.999Z</time></trkpt><trkpt lat="33.508569889827974" lon="-5.125544777767213"><ele>1655.0</ele><time>2026-04-27T11:59:36.999Z</time></trkpt><trkpt lat="33.50864273192601" lon="-5.125365419965087"><ele>1655.3333333333333</ele><time>2026-04-27T11:59:37.999Z</time></trkpt><trkpt lat="33.50871343699163" lon="-5.125185212201252"><ele>1655.6666666666665</ele><time>2026-04-27T11:59:38.999Z</time></trkpt><trkpt lat="33.50878166781984" lon="-5.125003881737488"><ele>1656.0</ele><time>2026-04-27T11:59:39.999Z</time></trkpt><trkpt lat="33.508849104670624" lon="-5.124827951546557"><ele>1654.0</ele><time>2026-04-27T11:59:40.999Z</time></trkpt><trkpt lat="33.508918483414206" lon="-5.124658843275156"><ele>1652.0</ele><time>2026-04-27T11:59:41.999Z</time></trkpt><trkpt lat="33.50898973118895" lon="-5.124490761803935"><ele>1650.0</ele><time>2026-04-27T11:59:42.999Z</time></trkpt><trkpt lat="33.509068022700916" lon="-5.124324992381038"><ele>1650.0</ele><time>2026-04-27T11:59:43.999Z</time></trkpt><trkpt lat="33.50915756832506" lon="-5.124164811296563"><ele>1650.0</ele><time>2026-04-27T11:59:44.999Z</time></trkpt><trkpt lat="33.50925742942073" lon="-5.124012884860836"><ele>1650.0</ele><time>2026-04-27T11:59:45.999Z</time></trkpt><trkpt lat="33.509363137238886" lon="-5.12386855060923"><ele>1650.3333333333335</ele><time>2026-04-27T11:59:46.999Z</time></trkpt><trkpt lat="33.509473541873305" lon="-5.123729444152367"><ele>1650.6666666666667</ele><time>2026-04-27T11:59:47.999Z</time></trkpt><trkpt lat="33.50959193459193" lon="-5.123598883026488"><ele>1651.0</ele><time>2026-04-27T11:59:48.999Z</time></trkpt><trkpt lat="33.50971597443529" lon="-5.123474154995783"><ele>1651.0</ele><time>2026-04-27T11:59:49.999Z</time></trkpt><trkpt lat="33.509843941821416" lon="-5.123354997285079"><ele>1651.0</ele><time>2026-04-27T11:59:50.999Z</time></trkpt><trkpt lat="33.50997603885794" lon="-5.12323934391203"><ele>1651.0</ele><time>2026-04-27T11:59:51.999Z</time></trkpt><trkpt lat="33.51010934812696" lon="-5.12312285296124"><ele>1651.0</ele><time>2026-04-27T11:59:52.999Z</time></trkpt><trkpt lat="33.51024215469493" lon="-5.123006165862607"><ele>1651.0</ele><time>2026-04-27T11:59:53.999Z</time></trkpt><trkpt lat="33.510375907673044" lon="-5.1228927599449925"><ele>1651.0</ele><time>2026-04-27T11:59:54.999Z</time></trkpt><trkpt lat="33.51050583415491" lon="-5.1227821184804965"><ele>1649.0</ele><time>2026-04-27T11:59:55.999Z</time></trkpt><trkpt lat="33.5106308938041" lon="-5.122675287050879"><ele>1647.0</ele><time>2026-04-27T11:59:56.999Z</time></trkpt><trkpt lat="33.51075500153075" lon="-5.122571190773249"><ele>1645.0</ele><time>2026-04-27T11:59:57.999Z</time></trkpt><trkpt lat="33.51087738372363" lon="-5.122470428409911"><ele>1645.75</ele><time>2026-04-27T11:59:58.999Z</time></trkpt><trkpt lat="33.51099706010453" lon="-5.122372116154853"><ele>1646.5</ele><time>2026-04-27T11:59:59.999Z</time></trkpt><trkpt lat="33.51111550492284" lon="-5.122275308439893"><ele>1647.25</ele><time>2026-04-27T12:00:00.999Z</time></trkpt><trkpt lat="33.511231773696885" lon="-5.122178655473187"><ele>1648.0</ele><time>2026-04-27T12:00:01.999Z</time></trkpt><trkpt lat="33.511348422394896" lon="-5.122081914700402"><ele>1648.0</ele><time>2026-04-27T12:00:02.999Z</time></trkpt><trkpt lat="33.51146521404604" lon="-5.121983756754062"><ele>1648.0</ele><time>2026-04-27T12:00:03.999Z</time></trkpt><trkpt lat="33.511580027043316" lon="-5.121886082726939"><ele>1648.0</ele><time>2026-04-27T12:00:04.999Z</time></trkpt><trkpt lat="33.511693904672406" lon="-5.121790425535622"><ele>1648.0</ele><time>2026-04-27T12:00:05.999Z</time></trkpt><trkpt lat="33.51180571314335" lon="-5.121696364838563"><ele>1648.0</ele><time>2026-04-27T12:00:06.999Z</time></trkpt><trkpt lat="33.51191554811405" lon="-5.121601340360673"><ele>1648.0</ele><time>2026-04-27T12:00:07.999Z</time></trkpt><trkpt lat="33.51202549263288" lon="-5.121506240780915"><ele>1648.0</ele><time>2026-04-27T12:00:08.999Z</time></trkpt><trkpt lat="33.51213528568807" lon="-5.121411200843756"><ele>1648.0</ele><time>2026-04-27T12:00:09.999Z</time></trkpt><trkpt lat="33.512246091442435" lon="-5.121317539879045"><ele>1647.25</ele><time>2026-04-27T12:00:10.999Z</time></trkpt><trkpt lat="33.512356420341916" lon="-5.121224858027623"><ele>1646.5</ele><time>2026-04-27T12:00:11.999Z</time></trkpt><trkpt lat="33.512462522310194" lon="-5.121134277723288"><ele>1645.75</ele><time>2026-04-27T12:00:13Z</time></trkpt><trkpt lat="33.51256390539036" lon="-5.121046605676248"><ele>1645.0</ele><time>2026-04-27T12:00:14Z</time></trkpt><trkpt lat="33.51266539796418" lon="-5.120958470757752"><ele>1645.0</ele><time>2026-04-27T12:00:15Z</time></trkpt><trkpt lat="33.51276614287276" lon="-5.120873137443879"><ele>1645.0</ele><time>2026-04-27T12:00:16Z</time></trkpt><trkpt lat="33.51286178565909" lon="-5.120792341431235"><ele>1645.0</ele><time>2026-04-27T12:00:17Z</time></trkpt><trkpt lat="33.51295488023961" lon="-5.1207139871777585"><ele>1645.0</ele><time>2026-04-27T12:00:18Z</time></trkpt><trkpt lat="33.51304458736605" lon="-5.120636622271777"><ele>1643.8</ele><time>2026-04-27T12:00:19Z</time></trkpt><trkpt lat="33.5131291011751" lon="-5.120562265697835"><ele>1642.6</ele><time>2026-04-27T12:00:20Z</time></trkpt><trkpt lat="33.51320563350112" lon="-5.12049112466115"><ele>1641.4</ele><time>2026-04-27T12:00:21Z</time></trkpt><trkpt lat="33.5132762728395" lon="-5.120424880190057"><ele>1640.2</ele><time>2026-04-27T12:00:22Z</time></trkpt><trkpt lat="33.51334356057074" lon="-5.120363794690885"><ele>1639.0</ele><time>2026-04-27T12:00:23Z</time></trkpt><trkpt lat="33.513402465146456" lon="-5.120308980598666"><ele>1639.0000000000002</ele><time>2026-04-27T12:00:24Z</time></trkpt><trkpt lat="33.513448227951834" lon="-5.120251811594053"><ele>1639.0</ele><time>2026-04-27T12:00:25Z</time></trkpt><trkpt lat="33.51348411081804" lon="-5.12018592037195"><ele>1639.0</ele><time>2026-04-27T12:00:26Z</time></trkpt><trkpt lat="33.513508462534226" lon="-5.120112391841054"><ele>1639.0</ele><time>2026-04-27T12:00:27Z</time></trkpt><trkpt lat="33.51352876159514" lon="-5.120040740436915"><ele>1639.0000000000002</ele><time>2026-04-27T12:00:28Z</time></trkpt><trkpt lat="33.51359783092939" lon="-5.119920216757098"><ele>1639.0</ele><time>2026-04-27T12:00:30Z</time></trkpt><trkpt lat="33.513702655479236" lon="-5.119859332089518"><ele>1640.0</ele><time>2026-04-27T12:00:32Z</time></trkpt><trkpt lat="33.51383235040342" lon="-5.119857278954884"><ele>1641.0</ele><time>2026-04-27T12:00:34Z</time></trkpt><trkpt lat="33.513909568428375" lon="-5.11984374240164"><ele>1642.0</ele><time>2026-04-27T12:00:35Z</time></trkpt><trkpt lat="33.5139910556715" lon="-5.119806321379524"><ele>1643.0</ele><time>2026-04-27T12:00:36Z</time></trkpt><trkpt lat="33.51407332684739" lon="-5.119749101656125"><ele>1644.0</ele><time>2026-04-27T12:00:37Z</time></trkpt><trkpt lat="33.51415830271019" lon="-5.1196810634732115"><ele>1644.0</ele><time>2026-04-27T12:00:38Z</time></trkpt><trkpt lat="33.514245512832545" lon="-5.119607516003328"><ele>1644.0</ele><time>2026-04-27T12:00:39Z</time></trkpt><trkpt lat="33.51433553958037" lon="-5.1195297643551925"><ele>1644.0</ele><time>2026-04-27T12:00:39.999Z</time></trkpt><trkpt lat="33.51442977405495" lon="-5.119449257475607"><ele>1644.0</ele><time>2026-04-27T12:00:40.999Z</time></trkpt><trkpt lat="33.51452773137288" lon="-5.119365317240501"><ele>1643.25</ele><time>2026-04-27T12:00:41.999Z</time></trkpt><trkpt lat="33.514626875938795" lon="-5.119280697612781"><ele>1642.5</ele><time>2026-04-27T12:00:42.999Z</time></trkpt><trkpt lat="33.51472697217191" lon="-5.119196292556499"><ele>1641.75</ele><time>2026-04-27T12:00:43.999Z</time></trkpt><trkpt lat="33.51482327031812" lon="-5.119113618068055"><ele>1641.0</ele><time>2026-04-27T12:00:44.999Z</time></trkpt><trkpt lat="33.51491332681458" lon="-5.119036811559935"><ele>1641.0</ele><time>2026-04-27T12:00:45.999Z</time></trkpt><trkpt lat="33.515001440449836" lon="-5.118963415861534"><ele>1641.0</ele><time>2026-04-27T12:00:46.999Z</time></trkpt><trkpt lat="33.51508679634726" lon="-5.118893181736795"><ele>1641.0</ele><time>2026-04-27T12:00:47.999Z</time></trkpt><trkpt lat="33.515165762452824" lon="-5.118828472896344"><ele>1641.0</ele><time>2026-04-27T12:00:48.999Z</time></trkpt><trkpt lat="33.5152373875147" lon="-5.118769123425074"><ele>1641.0</ele><time>2026-04-27T12:00:49.999Z</time></trkpt><trkpt lat="33.515305378789094" lon="-5.11871380185324"><ele>1641.0</ele><time>2026-04-27T12:00:50.999Z</time></trkpt><trkpt lat="33.51536369703853" lon="-5.118670286434521"><ele>1641.0</ele><time>2026-04-27T12:00:51.999Z</time></trkpt><trkpt lat="33.515429996702004" lon="-5.1186178782211975"><ele>1641.0</ele><time>2026-04-27T12:00:53.999Z</time></trkpt><trkpt lat="33.5154989521148" lon="-5.1185505126902955"><ele>1641.0</ele><time>2026-04-27T12:00:57.999Z</time></trkpt><trkpt lat="33.515558339171186" lon="-5.11850100083469"><ele>1641.0</ele><time>2026-04-27T12:00:59.999Z</time></trkpt><trkpt lat="33.51564784984378" lon="-5.118436121488893"><ele>1641.0</ele><time>2026-04-27T12:01:01.999Z</time></trkpt><trkpt lat="33.515756709077046" lon="-5.118357572155671"><ele>1640.8</ele><time>2026-04-27T12:01:03.999Z</time></trkpt><trkpt lat="33.515827214268135" lon="-5.118312052160891"><ele>1640.6</ele><time>2026-04-27T12:01:04.999Z</time></trkpt><trkpt lat="33.51590386672987" lon="-5.118260791955217"><ele>1640.4</ele><time>2026-04-27T12:01:05.999Z</time></trkpt><trkpt lat="33.51598337269027" lon="-5.1182061584221605"><ele>1640.2</ele><time>2026-04-27T12:01:06.999Z</time></trkpt><trkpt lat="33.516071258053984" lon="-5.118146628552478"><ele>1640.0</ele><time>2026-04-27T12:01:07.999Z</time></trkpt><trkpt lat="33.51616750609403" lon="-5.1180800259702055"><ele>1640.25</ele><time>2026-04-27T12:01:08.999Z</time></trkpt><trkpt lat="33.51626929844744" lon="-5.118009170833675"><ele>1640.5</ele><time>2026-04-27T12:01:09.999Z</time></trkpt><trkpt lat="33.51637510669795" lon="-5.117935068106106"><ele>1640.75</ele><time>2026-04-27T12:01:10.999Z</time></trkpt><trkpt lat="33.516483103467856" lon="-5.117861332988059"><ele>1641.0</ele><time>2026-04-27T12:01:11.999Z</time></trkpt><trkpt lat="33.51659128679164" lon="-5.11779088442099"><ele>1641.0</ele><time>2026-04-27T12:01:12.999Z</time></trkpt><trkpt lat="33.516700476218126" lon="-5.117720030004721"><ele>1641.0</ele><time>2026-04-27T12:01:13.999Z</time></trkpt><trkpt lat="33.51681254127744" lon="-5.117644855619551"><ele>1641.0</ele><time>2026-04-27T12:01:14.999Z</time></trkpt><trkpt lat="33.51692495685258" lon="-5.117570692790267"><ele>1641.0</ele><time>2026-04-27T12:01:15.999Z</time></trkpt><trkpt lat="33.51703774992294" lon="-5.1174960829775475"><ele>1640.0</ele><time>2026-04-27T12:01:16.999Z</time></trkpt><trkpt lat="33.517146100448386" lon="-5.117423743870145"><ele>1639.0</ele><time>2026-04-27T12:01:17.999Z</time></trkpt><trkpt lat="33.5172492696728" lon="-5.1173527534513665"><ele>1638.0</ele><time>2026-04-27T12:01:18.999Z</time></trkpt><trkpt lat="33.517345500158534" lon="-5.117285705280595"><ele>1637.0</ele><time>2026-04-27T12:01:19.999Z</time></trkpt><trkpt lat="33.517437812825264" lon="-5.117222794885219"><ele>1636.1999999999998</ele><time>2026-04-27T12:01:20.999Z</time></trkpt><trkpt lat="33.517524606842365" lon="-5.117163429398033"><ele>1635.4</ele><time>2026-04-27T12:01:21.999Z</time></trkpt><trkpt lat="33.51761359179639" lon="-5.117105598007035"><ele>1634.6</ele><time>2026-04-27T12:01:22.999Z</time></trkpt><trkpt lat="33.51770836448108" lon="-5.117043061676419"><ele>1633.8000000000002</ele><time>2026-04-27T12:01:23.999Z</time></trkpt><trkpt lat="33.51781282956548" lon="-5.11697106205216"><ele>1633.0</ele><time>2026-04-27T12:01:24.999Z</time></trkpt><trkpt lat="33.51792901559711" lon="-5.116892008637458"><ele>1633.0</ele><time>2026-04-27T12:01:25.999Z</time></trkpt><trkpt lat="33.51805417130806" lon="-5.1168055277629385"><ele>1633.0</ele><time>2026-04-27T12:01:26.999Z</time></trkpt><trkpt lat="33.51818630126104" lon="-5.1167149486732315"><ele>1633.0</ele><time>2026-04-27T12:01:27.999Z</time></trkpt><trkpt lat="33.51832127564601" lon="-5.11662519445064"><ele>1633.25</ele><time>2026-04-27T12:01:28.999Z</time></trkpt><trkpt lat="33.518454098864005" lon="-5.116535522451573"><ele>1633.5</ele><time>2026-04-27T12:01:29.999Z</time></trkpt><trkpt lat="33.51858467062415" lon="-5.116448557981731"><ele>1633.75</ele><time>2026-04-27T12:01:30.999Z</time></trkpt><trkpt lat="33.518713451604135" lon="-5.116362142180558"><ele>1634.0</ele><time>2026-04-27T12:01:31.999Z</time></trkpt><trkpt lat="33.51884049097457" lon="-5.116277167505404"><ele>1634.0</ele><time>2026-04-27T12:01:32.999Z</time></trkpt><trkpt lat="33.518966443628216" lon="-5.116191240798418"><ele>1634.0</ele><time>2026-04-27T12:01:33.999Z</time></trkpt><trkpt lat="33.51909453957808" lon="-5.116099972986209"><ele>1634.0</ele><time>2026-04-27T12:01:34.999Z</time></trkpt><trkpt lat="33.51922128801926" lon="-5.1159984884785255"><ele>1634.0</ele><time>2026-04-27T12:01:35.999Z</time></trkpt><trkpt lat="33.519344764650306" lon="-5.115881168151885"><ele>1634.0</ele><time>2026-04-27T12:01:36.999Z</time></trkpt><trkpt lat="33.51946675882312" lon="-5.115757513771362"><ele>1634.0</ele><time>2026-04-27T12:01:37.999Z</time></trkpt><trkpt lat="33.51958665637299" lon="-5.115631274526275"><ele>1634.0</ele><time>2026-04-27T12:01:38.999Z</time></trkpt><trkpt lat="33.519704840871746" lon="-5.115502921728491"><ele>1634.6666666666665</ele><time>2026-04-27T12:01:39.999Z</time></trkpt><trkpt lat="33.51982401715124" lon="-5.11537719414673"><ele>1635.3333333333335</ele><time>2026-04-27T12:01:40.999Z</time></trkpt><trkpt lat="33.51994409831254" lon="-5.115246638830854"><ele>1636.0</ele><time>2026-04-27T12:01:41.999Z</time></trkpt><trkpt lat="33.52006811067968" lon="-5.115116180976992"><ele>1636.0</ele><time>2026-04-27T12:01:42.999Z</time></trkpt><trkpt lat="33.52019319214921" lon="-5.114985280883877"><ele>1636.0</ele><time>2026-04-27T12:01:43.999Z</time></trkpt><trkpt lat="33.52031767341443" lon="-5.1148547406958755"><ele>1636.0</ele><time>2026-04-27T12:01:44.999Z</time></trkpt><trkpt lat="33.520443423782154" lon="-5.114721740419167"><ele>1636.0</ele><time>2026-04-27T12:01:45.999Z</time></trkpt><trkpt lat="33.520569971985175" lon="-5.114586779622693"><ele>1636.0</ele><time>2026-04-27T12:01:46.999Z</time></trkpt><trkpt lat="33.520698569503594" lon="-5.114448258247002"><ele>1636.0</ele><time>2026-04-27T12:01:47.999Z</time></trkpt><trkpt lat="33.52083170357382" lon="-5.1143102369736955"><ele>1636.0</ele><time>2026-04-27T12:01:48.999Z</time></trkpt><trkpt lat="33.52096412610081" lon="-5.114169808892358"><ele>1636.0</ele><time>2026-04-27T12:01:49.999Z</time></trkpt><trkpt lat="33.521096725873704" lon="-5.114028697276054"><ele>1636.0</ele><time>2026-04-27T12:01:50.999Z</time></trkpt><trkpt lat="33.521231046800644" lon="-5.113887476087452"><ele>1637.6666666666667</ele><time>2026-04-27T12:01:51.999Z</time></trkpt><trkpt lat="33.52136456226328" lon="-5.113749073640715"><ele>1639.3333333333335</ele><time>2026-04-27T12:01:52.999Z</time></trkpt><trkpt lat="33.521498590003944" lon="-5.113607425662959"><ele>1641.0</ele><time>2026-04-27T12:01:53.999Z</time></trkpt><trkpt lat="33.52163195193389" lon="-5.113465823817877"><ele>1641.0</ele><time>2026-04-27T12:01:54.999Z</time></trkpt><trkpt lat="33.521764508903935" lon="-5.113325524313116"><ele>1641.0</ele><time>2026-04-27T12:01:55.999Z</time></trkpt><trkpt lat="33.5218964134624" lon="-5.113187424459483"><ele>1641.0</ele><time>2026-04-27T12:01:56.999Z</time></trkpt><trkpt lat="33.52202814158901" lon="-5.113050778301272"><ele>1641.6666666666665</ele><time>2026-04-27T12:01:57.999Z</time></trkpt><trkpt lat="33.52215812550012" lon="-5.112916912351714"><ele>1642.3333333333333</ele><time>2026-04-27T12:01:58.999Z</time></trkpt><trkpt lat="33.52228420784645" lon="-5.112785368039486"><ele>1643.0</ele><time>2026-04-27T12:01:59.999Z</time></trkpt><trkpt lat="33.52241030246757" lon="-5.112656715986188"><ele>1643.0</ele><time>2026-04-27T12:02:00.999Z</time></trkpt><trkpt lat="33.52253226017406" lon="-5.112526512027859"><ele>1643.0</ele><time>2026-04-27T12:02:01.999Z</time></trkpt><trkpt lat="33.52265076659715" lon="-5.112396648610285"><ele>1643.0</ele><time>2026-04-27T12:02:02.999Z</time></trkpt><trkpt lat="33.52276572438778" lon="-5.112273082295348"><ele>1643.0</ele><time>2026-04-27T12:02:03.999Z</time></trkpt><trkpt lat="33.52287270031048" lon="-5.112157873803545"><ele>1643.0</ele><time>2026-04-27T12:02:04.999Z</time></trkpt><trkpt lat="33.52297480790844" lon="-5.11204727389381"><ele>1643.0</ele><time>2026-04-27T12:02:05.999Z</time></trkpt><trkpt lat="33.52307139143713" lon="-5.111939359612226"><ele>1643.0</ele><time>2026-04-27T12:02:06.999Z</time></trkpt><trkpt lat="33.52316157618169" lon="-5.111835071757243"><ele>1643.0</ele><time>2026-04-27T12:02:07.999Z</time></trkpt><trkpt lat="33.523242993185775" lon="-5.111732577184153"><ele>1643.0</ele><time>2026-04-27T12:02:08.999Z</time></trkpt><trkpt lat="33.52332183858501" lon="-5.111631820786853"><ele>1643.0</ele><time>2026-04-27T12:02:09.999Z</time></trkpt><trkpt lat="33.52339478797253" lon="-5.1115280056419765"><ele>1643.0</ele><time>2026-04-27T12:02:10.999Z</time></trkpt><trkpt lat="33.523465394710534" lon="-5.111423006077272"><ele>1643.4</ele><time>2026-04-27T12:02:11.999Z</time></trkpt><trkpt lat="33.52353194092207" lon="-5.111317843458056"><ele>1643.8000000000002</ele><time>2026-04-27T12:02:12.999Z</time></trkpt><trkpt lat="33.52359446874851" lon="-5.111210892594057"><ele>1644.2</ele><time>2026-04-27T12:02:13.999Z</time></trkpt><trkpt lat="33.523653599530654" lon="-5.111104658621132"><ele>1644.6</ele><time>2026-04-27T12:02:14.999Z</time></trkpt><trkpt lat="33.523707577846174" lon="-5.110998039193958"><ele>1645.0</ele><time>2026-04-27T12:02:15.999Z</time></trkpt><trkpt lat="33.5237587004549" lon="-5.1108937319814345"><ele>1645.0</ele><time>2026-04-27T12:02:16.999Z</time></trkpt><trkpt lat="33.52380945727986" lon="-5.110791941829892"><ele>1645.0</ele><time>2026-04-27T12:02:17.999Z</time></trkpt><trkpt lat="33.52385863504489" lon="-5.110687044977618"><ele>1645.0</ele><time>2026-04-27T12:02:19Z</time></trkpt><trkpt lat="33.52390579650203" lon="-5.110584379826959"><ele>1645.0</ele><time>2026-04-27T12:02:20Z</time></trkpt><trkpt lat="33.52395302601375" lon="-5.110479750812522"><ele>1645.0</ele><time>2026-04-27T12:02:21Z</time></trkpt><trkpt lat="33.52399968775219" lon="-5.110368636749814"><ele>1645.75</ele><time>2026-04-27T12:02:22Z</time></trkpt><trkpt lat="33.52404901536278" lon="-5.110250000880722"><ele>1646.5</ele><time>2026-04-27T12:02:23Z</time></trkpt><trkpt lat="33.5240988233499" lon="-5.110123164023564"><ele>1647.25</ele><time>2026-04-27T12:02:24Z</time></trkpt><trkpt lat="33.5241521422179" lon="-5.109989457216242"><ele>1648.0</ele><time>2026-04-27T12:02:25Z</time></trkpt><trkpt lat="33.524207968739155" lon="-5.109851497308626"><ele>1648.5</ele><time>2026-04-27T12:02:26Z</time></trkpt><trkpt lat="33.524264588175285" lon="-5.1097096444159975"><ele>1649.0</ele><time>2026-04-27T12:02:27Z</time></trkpt><trkpt lat="33.52432155013273" lon="-5.109565836417759"><ele>1649.5</ele><time>2026-04-27T12:02:28Z</time></trkpt><trkpt lat="33.52437855295813" lon="-5.109419928790402"><ele>1650.0</ele><time>2026-04-27T12:02:29Z</time></trkpt><trkpt lat="33.52443680946756" lon="-5.109277590411212"><ele>1650.0</ele><time>2026-04-27T12:02:30Z</time></trkpt><trkpt lat="33.52449610744142" lon="-5.109138833611516"><ele>1650.0</ele><time>2026-04-27T12:02:31Z</time></trkpt><trkpt lat="33.52455208314504" lon="-5.109005606489838"><ele>1650.0</ele><time>2026-04-27T12:02:32Z</time></trkpt><trkpt lat="33.52460575418853" lon="-5.10887714786618"><ele>1650.0</ele><time>2026-04-27T12:02:33Z</time></trkpt><trkpt lat="33.52465700019758" lon="-5.108751618220339"><ele>1650.2</ele><time>2026-04-27T12:02:34Z</time></trkpt><trkpt lat="33.524707132926906" lon="-5.108628740540478"><ele>1650.4</ele><time>2026-04-27T12:02:35Z</time></trkpt><trkpt lat="33.52475523444755" lon="-5.1085070941095925"><ele>1650.6</ele><time>2026-04-27T12:02:36Z</time></trkpt><trkpt lat="33.524802430117774" lon="-5.1083899853543695"><ele>1650.8</ele><time>2026-04-27T12:02:37Z</time></trkpt><trkpt lat="33.52485260308956" lon="-5.108273292054087"><ele>1651.0</ele><time>2026-04-27T12:02:38Z</time></trkpt><trkpt lat="33.52490086278088" lon="-5.108156960972837"><ele>1651.4</ele><time>2026-04-27T12:02:39Z</time></trkpt><trkpt lat="33.52494790400749" lon="-5.108030127315481"><ele>1651.8</ele><time>2026-04-27T12:02:40Z</time></trkpt><trkpt lat="33.52497538547468" lon="-5.107909809026579"><ele>1652.2</ele><time>2026-04-27T12:02:41Z</time></trkpt><trkpt lat="33.52500973727677" lon="-5.107782058550347"><ele>1652.6000000000001</ele><time>2026-04-27T12:02:42Z</time></trkpt><trkpt lat="33.52505661326406" lon="-5.10766012029422"><ele>1653.0</ele><time>2026-04-27T12:02:43Z</time></trkpt><trkpt lat="33.52511788552791" lon="-5.10754243809446"><ele>1653.0</ele><time>2026-04-27T12:02:44Z</time></trkpt><trkpt lat="33.52518587322712" lon="-5.107429213085386"><ele>1653.0</ele><time>2026-04-27T12:02:45Z</time></trkpt><trkpt lat="33.525264168063565" lon="-5.107321810847956"><ele>1653.0</ele><time>2026-04-27T12:02:46Z</time></trkpt><trkpt lat="33.52535264151112" lon="-5.107217112079176"><ele>1653.0</ele><time>2026-04-27T12:02:47Z</time></trkpt><trkpt lat="33.525447503839594" lon="-5.107111492204449"><ele>1652.25</ele><time>2026-04-27T12:02:48Z</time></trkpt><trkpt lat="33.5255463723254" lon="-5.107002363059383"><ele>1651.5</ele><time>2026-04-27T12:02:49Z</time></trkpt><trkpt lat="33.52565125576081" lon="-5.106893909000925"><ele>1650.75</ele><time>2026-04-27T12:02:49.999Z</time></trkpt><trkpt lat="33.525758912005344" lon="-5.10678279014828"><ele>1650.0</ele><time>2026-04-27T12:02:50.999Z</time></trkpt><trkpt lat="33.52586713243691" lon="-5.1066738426049"><ele>1650.0</ele><time>2026-04-27T12:02:51.999Z</time></trkpt><trkpt lat="33.52596630301677" lon="-5.1065476304459425"><ele>1650.0</ele><time>2026-04-27T12:02:52.999Z</time></trkpt><trkpt lat="33.526076043375156" lon="-5.106434764920605"><ele>1650.0</ele><time>2026-04-27T12:02:53.999Z</time></trkpt><trkpt lat="33.526188226137656" lon="-5.106319387518567"><ele>1650.0</ele><time>2026-04-27T12:02:54.999Z</time></trkpt><trkpt lat="33.52629689653799" lon="-5.106208033712769"><ele>1648.0</ele><time>2026-04-27T12:02:55.999Z</time></trkpt><trkpt lat="33.52641613151255" lon="-5.106109605814029"><ele>1646.0</ele><time>2026-04-27T12:02:56.999Z</time></trkpt><trkpt lat="33.526524901150374" lon="-5.105994687575067"><ele>1644.0</ele><time>2026-04-27T12:02:57.999Z</time></trkpt><trkpt lat="33.52663383740208" lon="-5.105881891574583"><ele>1642.0</ele><time>2026-04-27T12:02:58.999Z</time></trkpt><trkpt lat="33.52674071713461" lon="-5.105768212994213"><ele>1642.0</ele><time>2026-04-27T12:02:59.999Z</time></trkpt><trkpt lat="33.526845809439585" lon="-5.10565919689936"><ele>1642.0</ele><time>2026-04-27T12:03:00.999Z</time></trkpt><trkpt lat="33.526950504680556" lon="-5.105556715130793"><ele>1642.0</ele><time>2026-04-27T12:03:01.999Z</time></trkpt><trkpt lat="33.527046168141794" lon="-5.105459358541169"><ele>1642.0</ele><time>2026-04-27T12:03:02.999Z</time></trkpt><trkpt lat="33.52712998561378" lon="-5.105371281806611"><ele>1641.3333333333335</ele><time>2026-04-27T12:03:03.999Z</time></trkpt><trkpt lat="33.527205370097946" lon="-5.1052947702972515"><ele>1640.6666666666667</ele><time>2026-04-27T12:03:04.999Z</time></trkpt><trkpt lat="33.52727045138744" lon="-5.105226902388441"><ele>1640.0</ele><time>2026-04-27T12:03:05.999Z</time></trkpt><trkpt lat="33.52732893252297" lon="-5.1051669084440485"><ele>1639.3333333333335</ele><time>2026-04-27T12:03:06.999Z</time></trkpt><trkpt lat="33.52737948618761" lon="-5.10511501081477"><ele>1638.6666666666667</ele><time>2026-04-27T12:03:07.999Z</time></trkpt><trkpt lat="33.52744956444382" lon="-5.105044597450994"><ele>1638.0</ele><time>2026-04-27T12:03:09.999Z</time></trkpt><trkpt lat="33.52750247325586" lon="-5.10500085218578"><ele>1638.0</ele><time>2026-04-27T12:03:18.999Z</time></trkpt><trkpt lat="33.527547827013635" lon="-5.104934201699611"><ele>1638.0</ele><time>2026-04-27T12:03:20.999Z</time></trkpt><trkpt lat="33.5276409300521" lon="-5.105017072819928"><ele>1638.0</ele><time>2026-04-27T12:03:21.999Z</time></trkpt><trkpt lat="33.52769497964423" lon="-5.105060953266741"><ele>1638.0</ele><time>2026-04-27T12:03:22.999Z</time></trkpt><trkpt lat="33.52775468830734" lon="-5.1051081246925625"><ele>1638.0</ele><time>2026-04-27T12:03:23.999Z</time></trkpt><trkpt lat="33.52781803259766" lon="-5.105157300127521"><ele>1638.0</ele><time>2026-04-27T12:03:24.999Z</time></trkpt><trkpt lat="33.52788028724743" lon="-5.105203988442351"><ele>1637.2857142857142</ele><time>2026-04-27T12:03:25.999Z</time></trkpt><trkpt lat="33.527941383460934" lon="-5.10524853776159"><ele>1636.5714285714284</ele><time>2026-04-27T12:03:26.999Z</time></trkpt><trkpt lat="33.527999322978495" lon="-5.105293129387304"><ele>1635.857142857143</ele><time>2026-04-27T12:03:27.999Z</time></trkpt><trkpt lat="33.52805666208506" lon="-5.105334922274154"><ele>1635.142857142857</ele><time>2026-04-27T12:03:28.999Z</time></trkpt><trkpt lat="33.52811230938624" lon="-5.105378179606952"><ele>1634.4285714285713</ele><time>2026-04-27T12:03:29.999Z</time></trkpt><trkpt lat="33.528167844042315" lon="-5.10542290500797"><ele>1633.7142857142858</ele><time>2026-04-27T12:03:30.999Z</time></trkpt><trkpt lat="33.52822569038041" lon="-5.105468991208341"><ele>1633.0</ele><time>2026-04-27T12:03:31.999Z</time></trkpt><trkpt lat="33.52828134000084" lon="-5.105519205644735"><ele>1633.0000000000002</ele><time>2026-04-27T12:03:32.999Z</time></trkpt><trkpt lat="33.52833899047215" lon="-5.105566399338925"><ele>1633.0</ele><time>2026-04-27T12:03:33.999Z</time></trkpt><trkpt lat="33.52839736330882" lon="-5.105608251170399"><ele>1633.0</ele><time>2026-04-27T12:03:34.999Z</time></trkpt><trkpt lat="33.52845432067439" lon="-5.105644911245712"><ele>1633.0</ele><time>2026-04-27T12:03:35.999Z</time></trkpt><trkpt lat="33.52854407458683" lon="-5.105709599086424"><ele>1633.0000000000002</ele><time>2026-04-27T12:03:37.999Z</time></trkpt><trkpt lat="33.52860993901617" lon="-5.105762965907773"><ele>1633.0</ele><time>2026-04-27T12:03:40.999Z</time></trkpt><trkpt lat="33.528655723277765" lon="-5.10581626924233"><ele>1634.5</ele><time>2026-04-27T12:03:43.999Z</time></trkpt><trkpt lat="33.528653266108854" lon="-5.106121529527452"><ele>1636.0</ele><time>2026-04-27T12:04:30.999Z</time></trkpt><trkpt lat="33.52862208175123" lon="-5.106196285143106"><ele>1637.5</ele><time>2026-04-27T12:04:32.999Z</time></trkpt><trkpt lat="33.528580020127215" lon="-5.106255588514966"><ele>1639.0</ele><time>2026-04-27T12:04:36.999Z</time></trkpt><trkpt lat="33.52855859988371" lon="-5.10632891753727"><ele>1639.0</ele><time>2026-04-27T12:04:58.999Z</time></trkpt><trkpt lat="33.5284909417355" lon="-5.106379990851188"><ele>1639.0</ele><time>2026-04-27T12:05:00.999Z</time></trkpt><trkpt lat="33.528407589618766" lon="-5.106436128829922"><ele>1639.0</ele><time>2026-04-27T12:05:02.999Z</time></trkpt><trkpt lat="33.52831552555408" lon="-5.1064681469722695"><ele>1639.0</ele><time>2026-04-27T12:05:04.999Z</time></trkpt><trkpt lat="33.5281957521137" lon="-5.10637578445951"><ele>1639.0</ele><time>2026-04-27T12:05:06.999Z</time></trkpt><trkpt lat="33.528138737560425" lon="-5.106328086846231"><ele>1639.0000000000002</ele><time>2026-04-27T12:05:07.999Z</time></trkpt><trkpt lat="33.52808191408417" lon="-5.106287723598305"><ele>1639.0</ele><time>2026-04-27T12:05:08.999Z</time></trkpt><trkpt lat="33.5280378294129" lon="-5.106151112055872"><ele>1639.0</ele><time>2026-04-27T12:05:10.999Z</time></trkpt><trkpt lat="33.52807445281647" lon="-5.10608085026101"><ele>1639.0</ele><time>2026-04-27T12:05:11.999Z</time></trkpt><trkpt lat="33.528126261144145" lon="-5.105959528258074"><ele>1639.0000000000002</ele><time>2026-04-27T12:05:13.999Z</time></trkpt><trkpt lat="33.528157354395404" lon="-5.105884341282147"><ele>1639.0</ele><time>2026-04-27T12:05:15.999Z</time></trkpt><trkpt lat="33.52815674614963" lon="-5.105807539017462"><ele>1639.0</ele><time>2026-04-27T12:05:18.999Z</time></trkpt><trkpt lat="33.528210685303854" lon="-5.1057472170122224"><ele>1639.0</ele><time>2026-04-27T12:05:36.999Z</time></trkpt><trkpt lat="33.52822517489892" lon="-5.105672684378048"><ele>1639.0</ele><time>2026-04-27T12:07:58.999Z</time></trkpt><trkpt lat="33.528255763951485" lon="-5.10560635858126"><ele>1639.0</ele><time>2026-04-27T12:08:08.999Z</time></trkpt><trkpt lat="33.528315139039066" lon="-5.105558866365894"><ele>1639.0</ele><time>2026-04-27T12:08:13.999Z</time></trkpt><trkpt lat="33.52839361265787" lon="-5.105580883405388"><ele>1639.0</ele><time>2026-04-27T12:08:15.999Z</time></trkpt><trkpt lat="33.52846940452247" lon="-5.105645687715432"><ele>1639.0</ele><time>2026-04-27T12:08:17.999Z</time></trkpt><trkpt lat="33.528535487771016" lon="-5.10569468269469"><ele>1639.0000000000002</ele><time>2026-04-27T12:08:19.999Z</time></trkpt><trkpt lat="33.52861876908235" lon="-5.105737273293818"><ele>1639.0</ele><time>2026-04-27T12:08:22.999Z</time></trkpt><trkpt lat="33.52869927594373" lon="-5.105770317705994"><ele>1639.0</ele><time>2026-04-27T12:08:25.999Z</time></trkpt><trkpt lat="33.528775936638795" lon="-5.105766437917489"><ele>1639.0</ele><time>2026-04-27T12:08:28.999Z</time></trkpt><trkpt lat="33.52881707209318" lon="-5.1056842687591635"><ele>1639.0000000000002</ele><time>2026-04-27T12:08:32.999Z</time></trkpt><trkpt lat="33.528836702104755" lon="-5.105609285972637"><ele>1639.0</ele><time>2026-04-27T12:08:35.998Z</time></trkpt><trkpt lat="33.52880735509472" lon="-5.105717126010422"><ele>1639.0</ele><time>2026-04-27T12:09:07.999Z</time></trkpt><trkpt lat="33.528781600302814" lon="-5.105804214131927"><ele>1639.0</ele><time>2026-04-27T12:09:15.999Z</time></trkpt><trkpt lat="33.52888812224203" lon="-5.105917999073357"><ele>1639.0</ele><time>2026-04-27T12:09:17.999Z</time></trkpt><trkpt lat="33.528983106930646" lon="-5.106004962674251"><ele>1639.0</ele><time>2026-04-27T12:09:19.999Z</time></trkpt><trkpt lat="33.52904975038174" lon="-5.106048378193824"><ele>1639.0</ele><time>2026-04-27T12:09:20.999Z</time></trkpt><trkpt lat="33.52911519594124" lon="-5.106096861974492"><ele>1639.0</ele><time>2026-04-27T12:09:21.999Z</time></trkpt><trkpt lat="33.52917876766763" lon="-5.106145147578254"><ele>1639.0</ele><time>2026-04-27T12:09:22.999Z</time></trkpt><trkpt lat="33.5292433682186" lon="-5.106191273285556"><ele>1639.0</ele><time>2026-04-27T12:09:23.999Z</time></trkpt><trkpt lat="33.529307587770404" lon="-5.106237061776021"><ele>1639.0</ele><time>2026-04-27T12:09:24.999Z</time></trkpt><trkpt lat="33.529374590991445" lon="-5.106276859468879"><ele>1639.0</ele><time>2026-04-27T12:09:25.999Z</time></trkpt><trkpt lat="33.529441111559926" lon="-5.10630654976811"><ele>1639.0</ele><time>2026-04-27T12:09:26.999Z</time></trkpt><trkpt lat="33.529512731892694" lon="-5.106328895940403"><ele>1639.0</ele><time>2026-04-27T12:09:27.999Z</time></trkpt><trkpt lat="33.52959109150964" lon="-5.106340118164988"><ele>1639.0000000000002</ele><time>2026-04-27T12:09:28.999Z</time></trkpt><trkpt lat="33.529673662146514" lon="-5.106338204723912"><ele>1639.0</ele><time>2026-04-27T12:09:29.999Z</time></trkpt><trkpt lat="33.529759355117704" lon="-5.106331257303697"><ele>1639.0</ele><time>2026-04-27T12:09:30.999Z</time></trkpt><trkpt lat="33.52984808352829" lon="-5.1063276814362"><ele>1639.0</ele><time>2026-04-27T12:09:31.999Z</time></trkpt><trkpt lat="33.52993597100204" lon="-5.106326842020818"><ele>1639.0000000000002</ele><time>2026-04-27T12:09:32.999Z</time></trkpt><trkpt lat="33.53002273978673" lon="-5.106324242117006"><ele>1639.0</ele><time>2026-04-27T12:09:33.999Z</time></trkpt><trkpt lat="33.5301109487591" lon="-5.106320291637536"><ele>1639.0000000000002</ele><time>2026-04-27T12:09:34.999Z</time></trkpt><trkpt lat="33.53019569239445" lon="-5.106319331280235"><ele>1639.0</ele><time>2026-04-27T12:09:35.999Z</time></trkpt><trkpt lat="33.53027450717608" lon="-5.1063214355694795"><ele>1639.0</ele><time>2026-04-27T12:09:36.999Z</time></trkpt><trkpt lat="33.53034730144442" lon="-5.106327042086201"><ele>1639.0</ele><time>2026-04-27T12:09:37.999Z</time></trkpt><trkpt lat="33.53041854381663" lon="-5.106333269136144"><ele>1639.0000000000002</ele><time>2026-04-27T12:09:38.999Z</time></trkpt><trkpt lat="33.53048880855908" lon="-5.106344159030019"><ele>1639.0</ele><time>2026-04-27T12:09:39.999Z</time></trkpt><trkpt lat="33.530559093685724" lon="-5.106362472415598"><ele>1638.0000000000002</ele><time>2026-04-27T12:09:40.999Z</time></trkpt><trkpt lat="33.53062920859921" lon="-5.106385741671603"><ele>1637.0</ele><time>2026-04-27T12:09:41.999Z</time></trkpt><trkpt lat="33.530699534083084" lon="-5.1064074033886255"><ele>1636.0</ele><time>2026-04-27T12:09:42.999Z</time></trkpt><trkpt lat="33.53077444731" lon="-5.106428561440897"><ele>1635.0</ele><time>2026-04-27T12:09:43.999Z</time></trkpt><trkpt lat="33.53085332623874" lon="-5.106451054407578"><ele>1634.0000000000002</ele><time>2026-04-27T12:09:44.999Z</time></trkpt><trkpt lat="33.53093576009347" lon="-5.106472502228115"><ele>1633.0</ele><time>2026-04-27T12:09:45.999Z</time></trkpt><trkpt lat="33.53101837845382" lon="-5.106496800659145"><ele>1633.0000000000002</ele><time>2026-04-27T12:09:46.999Z</time></trkpt><trkpt lat="33.53110317116399" lon="-5.106521282155991"><ele>1633.0</ele><time>2026-04-27T12:09:47.999Z</time></trkpt><trkpt lat="33.53118955414202" lon="-5.106546143611699"><ele>1633.0</ele><time>2026-04-27T12:09:48.999Z</time></trkpt><trkpt lat="33.531278229845434" lon="-5.106567181803161"><ele>1633.0</ele><time>2026-04-27T12:09:49.999Z</time></trkpt><trkpt lat="33.5313680398217" lon="-5.106587611413071"><ele>1633.0000000000002</ele><time>2026-04-27T12:09:50.999Z</time></trkpt><trkpt lat="33.531456601128454" lon="-5.106608601794612"><ele>1633.0</ele><time>2026-04-27T12:09:51.999Z</time></trkpt><trkpt lat="33.53154390557061" lon="-5.1066285029880865"><ele>1632.6666666666667</ele><time>2026-04-27T12:09:52.999Z</time></trkpt><trkpt lat="33.53163050796407" lon="-5.106644289760433"><ele>1632.3333333333335</ele><time>2026-04-27T12:09:53.999Z</time></trkpt><trkpt lat="33.53171815688202" lon="-5.1066539551477375"><ele>1632.0</ele><time>2026-04-27T12:09:54.999Z</time></trkpt><trkpt lat="33.531804656738785" lon="-5.106648252754163"><ele>1631.6666666666665</ele><time>2026-04-27T12:09:55.999Z</time></trkpt><trkpt lat="33.53189149415721" lon="-5.106636522365567"><ele>1631.3333333333333</ele><time>2026-04-27T12:09:56.999Z</time></trkpt><trkpt lat="33.53197429082628" lon="-5.106612429166743"><ele>1631.0</ele><time>2026-04-27T12:09:57.999Z</time></trkpt><trkpt lat="33.53205060857301" lon="-5.106577519794734"><ele>1630.8333333333333</ele><time>2026-04-27T12:09:58.999Z</time></trkpt><trkpt lat="33.53212023718695" lon="-5.106532542592243"><ele>1630.6666666666665</ele><time>2026-04-27T12:09:59.998Z</time></trkpt><trkpt lat="33.53218542929325" lon="-5.106481749609252"><ele>1630.5</ele><time>2026-04-27T12:10:00.998Z</time></trkpt><trkpt lat="33.532249592096534" lon="-5.106429849275439"><ele>1630.3333333333335</ele><time>2026-04-27T12:10:01.998Z</time></trkpt><trkpt lat="33.53230972008577" lon="-5.106375127838662"><ele>1630.1666666666667</ele><time>2026-04-27T12:10:02.998Z</time></trkpt><trkpt lat="33.53236771380109" lon="-5.106316421661063"><ele>1630.0</ele><time>2026-04-27T12:10:03.998Z</time></trkpt><trkpt lat="33.53242402705499" lon="-5.106255134132976"><ele>1630.0000000000002</ele><time>2026-04-27T12:10:04.998Z</time></trkpt><trkpt lat="33.53248070387057" lon="-5.106192787877724"><ele>1630.0</ele><time>2026-04-27T12:10:05.998Z</time></trkpt><trkpt lat="33.532537961472734" lon="-5.106128778185796"><ele>1630.0</ele><time>2026-04-27T12:10:06.998Z</time></trkpt><trkpt lat="33.53259715013774" lon="-5.106065784366959"><ele>1630.0</ele><time>2026-04-27T12:10:07.998Z</time></trkpt><trkpt lat="33.532641898342604" lon="-5.105985538013658"><ele>1630.0000000000002</ele><time>2026-04-27T12:10:08.998Z</time></trkpt><trkpt lat="33.53269809495348" lon="-5.105918181432786"><ele>1630.0</ele><time>2026-04-27T12:10:09.998Z</time></trkpt><trkpt lat="33.53275688391102" lon="-5.1058497240911835"><ele>1630.0000000000002</ele><time>2026-04-27T12:10:10.998Z</time></trkpt><trkpt lat="33.532815496168155" lon="-5.105779970461095"><ele>1630.0</ele><time>2026-04-27T12:10:11.998Z</time></trkpt><trkpt lat="33.532887219412906" lon="-5.105722046373101"><ele>1630.0</ele><time>2026-04-27T12:10:12.998Z</time></trkpt><trkpt lat="33.53294144868184" lon="-5.105635802186671"><ele>1630.0</ele><time>2026-04-27T12:10:13.998Z</time></trkpt><trkpt lat="33.53299574100056" lon="-5.105546077693099"><ele>1630.0000000000002</ele><time>2026-04-27T12:10:14.998Z</time></trkpt><trkpt lat="33.53304894732577" lon="-5.105453679867882"><ele>1630.0</ele><time>2026-04-27T12:10:15.998Z</time></trkpt><trkpt lat="33.53310170484433" lon="-5.105358160637761"><ele>1630.8</ele><time>2026-04-27T12:10:16.998Z</time></trkpt><trkpt lat="33.533148983474796" lon="-5.105260379162624"><ele>1631.6</ele><time>2026-04-27T12:10:17.998Z</time></trkpt><trkpt lat="33.53319327878571" lon="-5.1051572557477405"><ele>1632.4</ele><time>2026-04-27T12:10:18.998Z</time></trkpt><trkpt lat="33.53322752166261" lon="-5.105049546837855"><ele>1633.2</ele><time>2026-04-27T12:10:19.998Z</time></trkpt><trkpt lat="33.53325933403889" lon="-5.104942440212171"><ele>1634.0</ele><time>2026-04-27T12:10:20.998Z</time></trkpt><trkpt lat="33.53328970458157" lon="-5.104835801171188"><ele>1634.0</ele><time>2026-04-27T12:10:21.998Z</time></trkpt><trkpt lat="33.53328830210208" lon="-5.104720819154207"><ele>1634.0</ele><time>2026-04-27T12:10:22.998Z</time></trkpt><trkpt lat="33.53330025079641" lon="-5.104605593100591"><ele>1634.0</ele><time>2026-04-27T12:10:23.998Z</time></trkpt><trkpt lat="33.53331268156822" lon="-5.104486218911076"><ele>1634.0</ele><time>2026-04-27T12:10:24.998Z</time></trkpt><trkpt lat="33.53332426175386" lon="-5.104365638127618"><ele>1634.0</ele><time>2026-04-27T12:10:25.998Z</time></trkpt><trkpt lat="33.53333150781566" lon="-5.104240589770127"><ele>1634.0</ele><time>2026-04-27T12:10:26.998Z</time></trkpt><trkpt lat="33.53335256478826" lon="-5.104113933847633"><ele>1634.0</ele><time>2026-04-27T12:10:27.998Z</time></trkpt><trkpt lat="33.533355021403096" lon="-5.103986285916722"><ele>1634.0</ele><time>2026-04-27T12:10:28.998Z</time></trkpt><trkpt lat="33.53335789838374" lon="-5.103858852266655"><ele>1634.0</ele><time>2026-04-27T12:10:29.998Z</time></trkpt><trkpt lat="33.53335838965842" lon="-5.103727800526857"><ele>1634.0</ele><time>2026-04-27T12:10:30.998Z</time></trkpt><trkpt lat="33.53336233338931" lon="-5.103592170833208"><ele>1634.0</ele><time>2026-04-27T12:10:31.998Z</time></trkpt><trkpt lat="33.53337229265278" lon="-5.103457942897083"><ele>1634.0</ele><time>2026-04-27T12:10:32.998Z</time></trkpt><trkpt lat="33.533384927293895" lon="-5.10332311449462"><ele>1634.0</ele><time>2026-04-27T12:10:33.998Z</time></trkpt><trkpt lat="33.53340558793006" lon="-5.103188932496893"><ele>1634.0</ele><time>2026-04-27T12:10:34.998Z</time></trkpt><trkpt lat="33.533436115325316" lon="-5.103057436350042"><ele>1635.0</ele><time>2026-04-27T12:10:35.998Z</time></trkpt><trkpt lat="33.53347659793633" lon="-5.102929647843076"><ele>1636.0</ele><time>2026-04-27T12:10:36.998Z</time></trkpt><trkpt lat="33.53352461630405" lon="-5.102805238305117"><ele>1637.0</ele><time>2026-04-27T12:10:37.998Z</time></trkpt><trkpt lat="33.53358029437941" lon="-5.102686238378647"><ele>1638.0</ele><time>2026-04-27T12:10:38.998Z</time></trkpt><trkpt lat="33.53364316832848" lon="-5.102573686197662"><ele>1638.0</ele><time>2026-04-27T12:10:39.998Z</time></trkpt><trkpt lat="33.533711788027645" lon="-5.102468706224964"><ele>1638.0</ele><time>2026-04-27T12:10:40.999Z</time></trkpt><trkpt lat="33.53378606250512" lon="-5.102371535038358"><ele>1638.0</ele><time>2026-04-27T12:10:41.999Z</time></trkpt><trkpt lat="33.53386628545057" lon="-5.102281681449629"><ele>1638.0</ele><time>2026-04-27T12:10:42.999Z</time></trkpt><trkpt lat="33.53395571429047" lon="-5.1022006594331675"><ele>1638.0</ele><time>2026-04-27T12:10:43.999Z</time></trkpt><trkpt lat="33.534050192897126" lon="-5.102132466556195"><ele>1639.75</ele><time>2026-04-27T12:10:44.999Z</time></trkpt><trkpt lat="33.53414698011322" lon="-5.102070650870253"><ele>1641.5</ele><time>2026-04-27T12:10:45.999Z</time></trkpt><trkpt lat="33.53424938150191" lon="-5.102015080724414"><ele>1643.25</ele><time>2026-04-27T12:10:46.999Z</time></trkpt><trkpt lat="33.534355776272434" lon="-5.101968190066347"><ele>1645.0</ele><time>2026-04-27T12:10:47.999Z</time></trkpt><trkpt lat="33.53446634728759" lon="-5.101929693002053"><ele>1644.75</ele><time>2026-04-27T12:10:48.999Z</time></trkpt><trkpt lat="33.53458123724943" lon="-5.101897253134662"><ele>1644.5</ele><time>2026-04-27T12:10:49.999Z</time></trkpt><trkpt lat="33.5346979794318" lon="-5.101875052126957"><ele>1644.25</ele><time>2026-04-27T12:10:50.999Z</time></trkpt><trkpt lat="33.53481570135499" lon="-5.101864804285674"><ele>1644.0</ele><time>2026-04-27T12:10:51.999Z</time></trkpt><trkpt lat="33.534935923478535" lon="-5.101868688677216"><ele>1644.0</ele><time>2026-04-27T12:10:52.999Z</time></trkpt><trkpt lat="33.53505705377875" lon="-5.101877165068204"><ele>1644.0</ele><time>2026-04-27T12:10:53.999Z</time></trkpt><trkpt lat="33.53518141962795" lon="-5.10188492819922"><ele>1644.0</ele><time>2026-04-27T12:10:54.999Z</time></trkpt><trkpt lat="33.53530912028002" lon="-5.101893848714915"><ele>1644.0</ele><time>2026-04-27T12:10:55.999Z</time></trkpt><trkpt lat="33.535435561468965" lon="-5.101902986383731"><ele>1644.25</ele><time>2026-04-27T12:10:56.999Z</time></trkpt><trkpt lat="33.53556185680817" lon="-5.1019144504324085"><ele>1644.5</ele><time>2026-04-27T12:10:57.999Z</time></trkpt><trkpt lat="33.53567529793658" lon="-5.101924229517605"><ele>1644.75</ele><time>2026-04-27T12:10:58.999Z</time></trkpt><trkpt lat="33.53578582536079" lon="-5.101933820085283"><ele>1645.0</ele><time>2026-04-27T12:10:59.999Z</time></trkpt><trkpt lat="33.5358908301826" lon="-5.1019423010631"><ele>1645.0</ele><time>2026-04-27T12:11:00.999Z</time></trkpt><trkpt lat="33.535987832214" lon="-5.101950330179046"><ele>1645.0</ele><time>2026-04-27T12:11:01.999Z</time></trkpt><trkpt lat="33.53607987931135" lon="-5.1019594531319346"><ele>1645.0</ele><time>2026-04-27T12:11:02.999Z</time></trkpt><trkpt lat="33.536169201965066" lon="-5.101966562670342"><ele>1645.0</ele><time>2026-04-27T12:11:03.999Z</time></trkpt><trkpt lat="33.53626122435964" lon="-5.101977537402439"><ele>1645.0</ele><time>2026-04-27T12:11:04.999Z</time></trkpt><trkpt lat="33.536366033531365" lon="-5.101992161361565"><ele>1645.5</ele><time>2026-04-27T12:11:05.999Z</time></trkpt><trkpt lat="33.53648274580107" lon="-5.1020009462261156"><ele>1646.0</ele><time>2026-04-27T12:11:06.999Z</time></trkpt><trkpt lat="33.536614169542716" lon="-5.102012841813005"><ele>1646.5</ele><time>2026-04-27T12:11:07.999Z</time></trkpt><trkpt lat="33.536755550000876" lon="-5.102018250026437"><ele>1647.0</ele><time>2026-04-27T12:11:08.999Z</time></trkpt><trkpt lat="33.536899762369934" lon="-5.102022985088273"><ele>1647.0</ele><time>2026-04-27T12:11:09.999Z</time></trkpt><trkpt lat="33.537041497305836" lon="-5.102030180862909"><ele>1647.0</ele><time>2026-04-27T12:11:10.999Z</time></trkpt><trkpt lat="33.537182383770386" lon="-5.102037986843637"><ele>1647.0</ele><time>2026-04-27T12:11:11.999Z</time></trkpt><trkpt lat="33.53732146792931" lon="-5.102045167933193"><ele>1647.0</ele><time>2026-04-27T12:11:12.999Z</time></trkpt><trkpt lat="33.5374581082928" lon="-5.10205073877354"><ele>1647.25</ele><time>2026-04-27T12:11:13.999Z</time></trkpt><trkpt lat="33.53759136512701" lon="-5.10205879551817"><ele>1647.5</ele><time>2026-04-27T12:11:14.999Z</time></trkpt><trkpt lat="33.537721387424035" lon="-5.102070108791871"><ele>1647.75</ele><time>2026-04-27T12:11:15.999Z</time></trkpt><trkpt lat="33.53784638913478" lon="-5.102084293512621"><ele>1648.0</ele><time>2026-04-27T12:11:16.999Z</time></trkpt><trkpt lat="33.53796701341214" lon="-5.102096951003576"><ele>1647.5</ele><time>2026-04-27T12:11:17.999Z</time></trkpt><trkpt lat="33.538085639458636" lon="-5.102111751622186"><ele>1647.0</ele><time>2026-04-27T12:11:18.999Z</time></trkpt><trkpt lat="33.538205969729944" lon="-5.102116477078556"><ele>1646.5</ele><time>2026-04-27T12:11:19.999Z</time></trkpt><trkpt lat="33.53833219454532" lon="-5.102113974038731"><ele>1646.0</ele><time>2026-04-27T12:11:20.999Z</time></trkpt><trkpt lat="33.53846039151592" lon="-5.102111839049928"><ele>1646.0</ele><time>2026-04-27T12:11:21.999Z</time></trkpt><trkpt lat="33.53858033029871" lon="-5.102110715868571"><ele>1646.0</ele><time>2026-04-27T12:11:22.999Z</time></trkpt><trkpt lat="33.53869613872615" lon="-5.102113005806702"><ele>1646.0</ele><time>2026-04-27T12:11:23.999Z</time></trkpt><trkpt lat="33.53879390252462" lon="-5.102114728707897"><ele>1646.0</ele><time>2026-04-27T12:11:24.999Z</time></trkpt><trkpt lat="33.53888292795493" lon="-5.102116039705323"><ele>1646.0</ele><time>2026-04-27T12:11:26.999Z</time></trkpt><trkpt lat="33.538958936822326" lon="-5.102123888801146"><ele>1644.6</ele><time>2026-04-27T12:11:29.999Z</time></trkpt><trkpt lat="33.53902363073546" lon="-5.102128413273978"><ele>1643.1999999999998</ele><time>2026-04-27T12:12:02.999Z</time></trkpt><trkpt lat="33.53914591417299" lon="-5.102130213260577"><ele>1641.8000000000002</ele><time>2026-04-27T12:12:04.999Z</time></trkpt><trkpt lat="33.5392278247641" lon="-5.10214065150306"><ele>1640.4</ele><time>2026-04-27T12:12:05.999Z</time></trkpt><trkpt lat="33.53931956397668" lon="-5.102152549804994"><ele>1639.0</ele><time>2026-04-27T12:12:06.999Z</time></trkpt><trkpt lat="33.53941961100838" lon="-5.102163860306638"><ele>1639.0</ele><time>2026-04-27T12:12:07.999Z</time></trkpt><trkpt lat="33.539526510372895" lon="-5.102178194548381"><ele>1639.0</ele><time>2026-04-27T12:12:08.999Z</time></trkpt><trkpt lat="33.53963687362234" lon="-5.102187544956872"><ele>1639.0</ele><time>2026-04-27T12:12:09.999Z</time></trkpt><trkpt lat="33.53974922554485" lon="-5.102191518228668"><ele>1639.0</ele><time>2026-04-27T12:12:10.999Z</time></trkpt><trkpt lat="33.53985955157605" lon="-5.102190825385087"><ele>1639.0</ele><time>2026-04-27T12:12:11.999Z</time></trkpt><trkpt lat="33.539967281600575" lon="-5.102178058688209"><ele>1637.0</ele><time>2026-04-27T12:12:12.999Z</time></trkpt><trkpt lat="33.54007503297651" lon="-5.102164333739553"><ele>1635.0</ele><time>2026-04-27T12:12:13.999Z</time></trkpt><trkpt lat="33.54019239787757" lon="-5.1021400222772675"><ele>1633.0</ele><time>2026-04-27T12:12:14.999Z</time></trkpt><trkpt lat="33.54031552944094" lon="-5.102102315381142"><ele>1631.0</ele><time>2026-04-27T12:12:15.999Z</time></trkpt><trkpt lat="33.54043740563414" lon="-5.102051522292436"><ele>1630.5</ele><time>2026-04-27T12:12:16.999Z</time></trkpt><trkpt lat="33.54056108912486" lon="-5.101989772212793"><ele>1630.0</ele><time>2026-04-27T12:12:17.999Z</time></trkpt><trkpt lat="33.540685547329474" lon="-5.10191781473251"><ele>1629.5</ele><time>2026-04-27T12:12:18.999Z</time></trkpt><trkpt lat="33.540807101432975" lon="-5.1018356707424095"><ele>1629.0</ele><time>2026-04-27T12:12:19.999Z</time></trkpt><trkpt lat="33.54092487875997" lon="-5.101740270068083"><ele>1629.0</ele><time>2026-04-27T12:12:20.999Z</time></trkpt><trkpt lat="33.54103599714722" lon="-5.101629935865093"><ele>1629.0</ele><time>2026-04-27T12:12:21.999Z</time></trkpt><trkpt lat="33.54113671242594" lon="-5.101501840547046"><ele>1629.0</ele><time>2026-04-27T12:12:22.999Z</time></trkpt><trkpt lat="33.54123356983801" lon="-5.101363605945841"><ele>1629.0</ele><time>2026-04-27T12:12:23.999Z</time></trkpt><trkpt lat="33.54132805850173" lon="-5.1012243318396795"><ele>1628.25</ele><time>2026-04-27T12:12:24.999Z</time></trkpt><trkpt lat="33.541419819143265" lon="-5.101083510269027"><ele>1627.5</ele><time>2026-04-27T12:12:25.999Z</time></trkpt><trkpt lat="33.54151019810805" lon="-5.10094926390116"><ele>1626.75</ele><time>2026-04-27T12:12:26.999Z</time></trkpt><trkpt lat="33.54159650697888" lon="-5.100817162087001"><ele>1626.0</ele><time>2026-04-27T12:12:27.999Z</time></trkpt><trkpt lat="33.54166485911981" lon="-5.1006715351421335"><ele>1624.5</ele><time>2026-04-27T12:12:28.999Z</time></trkpt><trkpt lat="33.54174417321558" lon="-5.100528877420588"><ele>1623.0</ele><time>2026-04-27T12:12:29.999Z</time></trkpt><trkpt lat="33.541830728136404" lon="-5.100385878472949"><ele>1621.5</ele><time>2026-04-27T12:12:30.999Z</time></trkpt><trkpt lat="33.54191697796207" lon="-5.100241194344806"><ele>1620.0</ele><time>2026-04-27T12:12:31.999Z</time></trkpt><trkpt lat="33.54200676509105" lon="-5.100092968745101"><ele>1618.6666666666665</ele><time>2026-04-27T12:12:32.999Z</time></trkpt><trkpt lat="33.54210896991133" lon="-5.09994370380488"><ele>1617.3333333333333</ele><time>2026-04-27T12:12:33.999Z</time></trkpt><trkpt lat="33.54222739198797" lon="-5.099804595712671"><ele>1616.0</ele><time>2026-04-27T12:12:34.999Z</time></trkpt><trkpt lat="33.54235854098421" lon="-5.09967713507033"><ele>1616.0</ele><time>2026-04-27T12:12:35.999Z</time></trkpt><trkpt lat="33.5424993233213" lon="-5.099555952782983"><ele>1616.0</ele><time>2026-04-27T12:12:36.999Z</time></trkpt><trkpt lat="33.54265162926083" lon="-5.0994460364216065"><ele>1616.0</ele><time>2026-04-27T12:12:37.999Z</time></trkpt><trkpt lat="33.54282663139191" lon="-5.099364601060074"><ele>1617.3333333333333</ele><time>2026-04-27T12:12:38.999Z</time></trkpt><trkpt lat="33.54300499863299" lon="-5.099271451808967"><ele>1618.6666666666665</ele><time>2026-04-27T12:12:39.999Z</time></trkpt><trkpt lat="33.54319568371564" lon="-5.099185172991922"><ele>1620.0</ele><time>2026-04-27T12:12:40.999Z</time></trkpt><trkpt lat="33.54339521835592" lon="-5.099096353936594"><ele>1618.5</ele><time>2026-04-27T12:12:41.999Z</time></trkpt><trkpt lat="33.543601234721805" lon="-5.099001181106229"><ele>1617.0</ele><time>2026-04-27T12:12:42.999Z</time></trkpt><trkpt lat="33.543814320740296" lon="-5.098901057026399"><ele>1616.5</ele><time>2026-04-27T12:12:43.999Z</time></trkpt><trkpt lat="33.54403661509928" lon="-5.098797498096152"><ele>1616.0</ele><time>2026-04-27T12:12:44.999Z</time></trkpt><trkpt lat="33.544263639123415" lon="-5.098688510583232"><ele>1616.0</ele><time>2026-04-27T12:12:45.999Z</time></trkpt><trkpt lat="33.54449217645805" lon="-5.098579147201953"><ele>1616.0</ele><time>2026-04-27T12:12:46.999Z</time></trkpt><trkpt lat="33.544717303310264" lon="-5.09847007181973"><ele>1616.0</ele><time>2026-04-27T12:12:47.999Z</time></trkpt><trkpt lat="33.544938102100154" lon="-5.098365618428732"><ele>1616.0</ele><time>2026-04-27T12:12:48.999Z</time></trkpt><trkpt lat="33.545156562178065" lon="-5.098264688884368"><ele>1615.0</ele><time>2026-04-27T12:12:49.999Z</time></trkpt><trkpt lat="33.54536244471121" lon="-5.098169190008982"><ele>1614.0</ele><time>2026-04-27T12:12:50.999Z</time></trkpt><trkpt lat="33.545555342751314" lon="-5.098083871137245"><ele>1613.0</ele><time>2026-04-27T12:12:51.999Z</time></trkpt><trkpt lat="33.54573845136639" lon="-5.098008783984098"><ele>1612.6666666666665</ele><time>2026-04-27T12:12:52.999Z</time></trkpt><trkpt lat="33.545907868448495" lon="-5.097951636574459"><ele>1612.3333333333335</ele><time>2026-04-27T12:12:53.999Z</time></trkpt><trkpt lat="33.546078088418156" lon="-5.097919560897453"><ele>1612.0</ele><time>2026-04-27T12:12:54.999Z</time></trkpt><trkpt lat="33.54624538441436" lon="-5.097901244895263"><ele>1611.3333333333335</ele><time>2026-04-27T12:12:55.999Z</time></trkpt><trkpt lat="33.54641220566017" lon="-5.09788966944338"><ele>1610.6666666666665</ele><time>2026-04-27T12:12:56.999Z</time></trkpt><trkpt lat="33.54657796707055" lon="-5.097880291001576"><ele>1610.0</ele><time>2026-04-27T12:12:57.999Z</time></trkpt><trkpt lat="33.54674042441032" lon="-5.097870769099805"><ele>1610.0</ele><time>2026-04-27T12:12:58.999Z</time></trkpt><trkpt lat="33.54689573239651" lon="-5.09786216533524"><ele>1610.0</ele><time>2026-04-27T12:12:59.999Z</time></trkpt><trkpt lat="33.547046036257626" lon="-5.0978507399999335"><ele>1610.0</ele><time>2026-04-27T12:13:00.999Z</time></trkpt><trkpt lat="33.54719507741995" lon="-5.097836225747025"><ele>1610.0</ele><time>2026-04-27T12:13:01.999Z</time></trkpt><trkpt lat="33.54733470956152" lon="-5.097794188934461"><ele>1610.0</ele><time>2026-04-27T12:13:02.999Z</time></trkpt><trkpt lat="33.547480418330345" lon="-5.097784345137634"><ele>1610.0</ele><time>2026-04-27T12:13:03.999Z</time></trkpt><trkpt lat="33.54762728207975" lon="-5.097740804250967"><ele>1610.0</ele><time>2026-04-27T12:13:04.999Z</time></trkpt><trkpt lat="33.547776394172644" lon="-5.0976872188987805"><ele>1609.0</ele><time>2026-04-27T12:13:05.999Z</time></trkpt><trkpt lat="33.547925900004365" lon="-5.0976312196880125"><ele>1608.0</ele><time>2026-04-27T12:13:06.999Z</time></trkpt><trkpt lat="33.54807545236022" lon="-5.097570581812961"><ele>1607.0</ele><time>2026-04-27T12:13:07.999Z</time></trkpt><trkpt lat="33.54822151164043" lon="-5.097505914931655"><ele>1607.0</ele><time>2026-04-27T12:13:08.999Z</time></trkpt><trkpt lat="33.54836757547965" lon="-5.0974369366420245"><ele>1607.0</ele><time>2026-04-27T12:13:09.999Z</time></trkpt><trkpt lat="33.54851218280978" lon="-5.0973630076568694"><ele>1607.0</ele><time>2026-04-27T12:13:10.999Z</time></trkpt><trkpt lat="33.54865673843868" lon="-5.097285980429547"><ele>1606.3333333333333</ele><time>2026-04-27T12:13:11.999Z</time></trkpt><trkpt lat="33.54880032371354" lon="-5.097209098359762"><ele>1605.6666666666665</ele><time>2026-04-27T12:13:12.999Z</time></trkpt><trkpt lat="33.54894484717342" lon="-5.097135382136746"><ele>1605.0</ele><time>2026-04-27T12:13:13.999Z</time></trkpt><trkpt lat="33.54908264497823" lon="-5.097064534497161"><ele>1605.0</ele><time>2026-04-27T12:13:14.999Z</time></trkpt><trkpt lat="33.549214828065615" lon="-5.0969979454594"><ele>1605.0</ele><time>2026-04-27T12:13:15.999Z</time></trkpt><trkpt lat="33.549348753753854" lon="-5.0969302139927795"><ele>1605.0</ele><time>2026-04-27T12:13:16.999Z</time></trkpt><trkpt lat="33.54948028178664" lon="-5.096860177660399"><ele>1605.0</ele><time>2026-04-27T12:13:17.999Z</time></trkpt><trkpt lat="33.549612760942" lon="-5.0967910494980675"><ele>1606.0</ele><time>2026-04-27T12:13:18.999Z</time></trkpt><trkpt lat="33.54974775135896" lon="-5.096719671148213"><ele>1607.0</ele><time>2026-04-27T12:13:19.999Z</time></trkpt><trkpt lat="33.549886447102054" lon="-5.096646709144981"><ele>1608.0</ele><time>2026-04-27T12:13:20.999Z</time></trkpt><trkpt lat="33.550027433703306" lon="-5.09657416803109"><ele>1608.3333333333335</ele><time>2026-04-27T12:13:21.999Z</time></trkpt><trkpt lat="33.55017046179928" lon="-5.096504600019862"><ele>1608.6666666666667</ele><time>2026-04-27T12:13:22.999Z</time></trkpt><trkpt lat="33.550315677330566" lon="-5.0964367619456405"><ele>1609.0</ele><time>2026-04-27T12:13:23.999Z</time></trkpt><trkpt lat="33.55046171339909" lon="-5.096370561970889"><ele>1609.3333333333335</ele><time>2026-04-27T12:13:24.999Z</time></trkpt><trkpt lat="33.55061341881264" lon="-5.096313706987374"><ele>1609.6666666666665</ele><time>2026-04-27T12:13:25.999Z</time></trkpt><trkpt lat="33.55077184494214" lon="-5.096273105326655"><ele>1610.0</ele><time>2026-04-27T12:13:26.999Z</time></trkpt><trkpt lat="33.55093690908848" lon="-5.096248123957674"><ele>1610.0</ele><time>2026-04-27T12:13:27.999Z</time></trkpt><trkpt lat="33.55110357751656" lon="-5.0962256317735"><ele>1610.0</ele><time>2026-04-27T12:13:28.999Z</time></trkpt><trkpt lat="33.55127076338524" lon="-5.096246894835276"><ele>1610.0</ele><time>2026-04-27T12:13:29.999Z</time></trkpt><trkpt lat="33.551437617251786" lon="-5.096293005052845"><ele>1610.3333333333333</ele><time>2026-04-27T12:13:30.999Z</time></trkpt><trkpt lat="33.55160144058784" lon="-5.096362025181865"><ele>1610.6666666666665</ele><time>2026-04-27T12:13:31.999Z</time></trkpt><trkpt lat="33.55177279829079" lon="-5.096470631102906"><ele>1611.0</ele><time>2026-04-27T12:13:32.999Z</time></trkpt><trkpt lat="33.551951200456735" lon="-5.09656222463182"><ele>1610.6666666666665</ele><time>2026-04-27T12:13:33.999Z</time></trkpt><trkpt lat="33.55212875416328" lon="-5.096656277965223"><ele>1610.3333333333333</ele><time>2026-04-27T12:13:34.999Z</time></trkpt><trkpt lat="33.55230172902037" lon="-5.09674945731165"><ele>1610.0</ele><time>2026-04-27T12:13:35.999Z</time></trkpt><trkpt lat="33.55247804046354" lon="-5.096843447233997"><ele>1610.0</ele><time>2026-04-27T12:13:36.999Z</time></trkpt><trkpt lat="33.55265627907398" lon="-5.096937998374235"><ele>1610.0</ele><time>2026-04-27T12:13:37.999Z</time></trkpt><trkpt lat="33.55283378130112" lon="-5.097033175363843"><ele>1610.0</ele><time>2026-04-27T12:13:38.999Z</time></trkpt><trkpt lat="33.55301443727901" lon="-5.097132779717289"><ele>1610.6666666666665</ele><time>2026-04-27T12:13:39.999Z</time></trkpt><trkpt lat="33.55319566400145" lon="-5.097235203716821"><ele>1611.3333333333335</ele><time>2026-04-27T12:13:40.999Z</time></trkpt><trkpt lat="33.553377572788406" lon="-5.097333387142401"><ele>1612.0</ele><time>2026-04-27T12:13:41.999Z</time></trkpt><trkpt lat="33.553559358089636" lon="-5.09742939281312"><ele>1611.0</ele><time>2026-04-27T12:13:42.999Z</time></trkpt><trkpt lat="33.55373795266636" lon="-5.097523390414184"><ele>1610.0</ele><time>2026-04-27T12:13:43.999Z</time></trkpt><trkpt lat="33.553906448825174" lon="-5.0976142158830235"><ele>1609.0</ele><time>2026-04-27T12:13:44.999Z</time></trkpt><trkpt lat="33.55406362563362" lon="-5.097700153490397"><ele>1609.0</ele><time>2026-04-27T12:13:45.999Z</time></trkpt><trkpt lat="33.554207005524816" lon="-5.097773697406246"><ele>1609.0</ele><time>2026-04-27T12:13:46.999Z</time></trkpt><trkpt lat="33.55433644067869" lon="-5.09783059677396"><ele>1609.0</ele><time>2026-04-27T12:13:47.999Z</time></trkpt><trkpt lat="33.554452316125925" lon="-5.097867879135775"><ele>1609.0</ele><time>2026-04-27T12:13:48.999Z</time></trkpt><trkpt lat="33.554550207231124" lon="-5.097888229790429"><ele>1609.1666666666667</ele><time>2026-04-27T12:13:49.999Z</time></trkpt><trkpt lat="33.55463031118821" lon="-5.097899553675692"><ele>1609.3333333333335</ele><time>2026-04-27T12:13:50.999Z</time></trkpt><trkpt lat="33.55470071146974" lon="-5.09790557815655"><ele>1609.5</ele><time>2026-04-27T12:13:51.999Z</time></trkpt><trkpt lat="33.55480773722279" lon="-5.0978916838531285"><ele>1609.6666666666665</ele><time>2026-04-27T12:13:53.999Z</time></trkpt><trkpt lat="33.554737426870126" lon="-5.09790849081189"><ele>1609.8333333333333</ele><time>2026-04-27T12:14:00.999Z</time></trkpt><trkpt lat="33.55471702075342" lon="-5.09803026258716"><ele>1610.0</ele><time>2026-04-27T12:14:01.999Z</time></trkpt><trkpt lat="33.554646325221405" lon="-5.098001640462822"><ele>1610.0</ele><time>2026-04-27T12:14:04.999Z</time></trkpt><trkpt lat="33.55455020665637" lon="-5.097944971117013"><ele>1610.0</ele><time>2026-04-27T12:14:07.999Z</time></trkpt><trkpt lat="33.554490596123614" lon="-5.09791536538528"><ele>1610.0</ele><time>2026-04-27T12:14:08.999Z</time></trkpt><trkpt lat="33.554412244724055" lon="-5.097880372248127"><ele>1610.0</ele><time>2026-04-27T12:14:09.999Z</time></trkpt><trkpt lat="33.5543154433759" lon="-5.09784673173742"><ele>1610.0</ele><time>2026-04-27T12:14:10.999Z</time></trkpt><trkpt lat="33.55420143832577" lon="-5.097805098311588"><ele>1609.75</ele><time>2026-04-27T12:14:11.999Z</time></trkpt><trkpt lat="33.55407536823003" lon="-5.097750149247322"><ele>1609.5</ele><time>2026-04-27T12:14:12.999Z</time></trkpt><trkpt lat="33.55393937872818" lon="-5.097681261537813"><ele>1609.25</ele><time>2026-04-27T12:14:13.999Z</time></trkpt><trkpt lat="33.55380483918736" lon="-5.097607457340724"><ele>1609.0</ele><time>2026-04-27T12:14:14.999Z</time></trkpt><trkpt lat="33.55365607047888" lon="-5.097524384652945"><ele>1610.0</ele><time>2026-04-27T12:14:15.999Z</time></trkpt><trkpt lat="33.55349392470867" lon="-5.0974391488974655"><ele>1611.0</ele><time>2026-04-27T12:14:16.999Z</time></trkpt><trkpt lat="33.553321529349894" lon="-5.0973467921433855"><ele>1612.0</ele><time>2026-04-27T12:14:17.999Z</time></trkpt><trkpt lat="33.55314234019194" lon="-5.097250419416774"><ele>1612.0</ele><time>2026-04-27T12:14:18.999Z</time></trkpt><trkpt lat="33.5529656405581" lon="-5.097152878650236"><ele>1612.0</ele><time>2026-04-27T12:14:19.999Z</time></trkpt><trkpt lat="33.55278391448638" lon="-5.097053491238354"><ele>1612.0</ele><time>2026-04-27T12:14:20.999Z</time></trkpt><trkpt lat="33.55260193935162" lon="-5.096958173621816"><ele>1611.3333333333335</ele><time>2026-04-27T12:14:21.999Z</time></trkpt><trkpt lat="33.55242261480081" lon="-5.096861412931646"><ele>1610.6666666666665</ele><time>2026-04-27T12:14:22.999Z</time></trkpt><trkpt lat="33.552244942537925" lon="-5.096762717692939"><ele>1610.0</ele><time>2026-04-27T12:14:23.999Z</time></trkpt><trkpt lat="33.552062916589215" lon="-5.096663720584897"><ele>1610.3333333333333</ele><time>2026-04-27T12:14:24.999Z</time></trkpt><trkpt lat="33.5518709671827" lon="-5.096564086622096"><ele>1610.6666666666665</ele><time>2026-04-27T12:14:25.999Z</time></trkpt><trkpt lat="33.551675084900054" lon="-5.09646853631977"><ele>1611.0</ele><time>2026-04-27T12:14:26.999Z</time></trkpt><trkpt lat="33.55147906606341" lon="-5.096386555614194"><ele>1611.0</ele><time>2026-04-27T12:14:27.999Z</time></trkpt><trkpt lat="33.551286237581195" lon="-5.096323891175721"><ele>1611.0</ele><time>2026-04-27T12:14:28.999Z</time></trkpt><trkpt lat="33.55109481591923" lon="-5.096284752767308"><ele>1611.0</ele><time>2026-04-27T12:14:29.999Z</time></trkpt><trkpt lat="33.55091350873402" lon="-5.096292641330703"><ele>1610.6666666666665</ele><time>2026-04-27T12:14:30.999Z</time></trkpt><trkpt lat="33.55072758672206" lon="-5.096330256539009"><ele>1610.3333333333333</ele><time>2026-04-27T12:14:31.999Z</time></trkpt><trkpt lat="33.55053587347117" lon="-5.096389425408234"><ele>1610.0</ele><time>2026-04-27T12:14:32.999Z</time></trkpt><trkpt lat="33.55034465923525" lon="-5.09646252758017"><ele>1609.6666666666665</ele><time>2026-04-27T12:14:33.999Z</time></trkpt><trkpt lat="33.55015633405406" lon="-5.096552237664073"><ele>1609.3333333333335</ele><time>2026-04-27T12:14:34.999Z</time></trkpt><trkpt lat="33.54997208580917" lon="-5.096649881778716"><ele>1609.0</ele><time>2026-04-27T12:14:35.999Z</time></trkpt><trkpt lat="33.54978882251186" lon="-5.09674681605372"><ele>1608.6666666666667</ele><time>2026-04-27T12:14:36.999Z</time></trkpt><trkpt lat="33.549601945975944" lon="-5.09683961598044"><ele>1608.3333333333335</ele><time>2026-04-27T12:14:38Z</time></trkpt><trkpt lat="33.549410582466656" lon="-5.096932921539343"><ele>1608.0</ele><time>2026-04-27T12:14:39Z</time></trkpt><trkpt lat="33.54921377793884" lon="-5.097036415097908"><ele>1607.3333333333335</ele><time>2026-04-27T12:14:40Z</time></trkpt><trkpt lat="33.54901421005712" lon="-5.097146264102574"><ele>1606.6666666666667</ele><time>2026-04-27T12:14:41Z</time></trkpt><trkpt lat="33.54880971538389" lon="-5.0972557285785935"><ele>1606.0</ele><time>2026-04-27T12:14:42Z</time></trkpt><trkpt lat="33.54859978489549" lon="-5.097364015793445"><ele>1606.3333333333335</ele><time>2026-04-27T12:14:43Z</time></trkpt><trkpt lat="33.54839286676121" lon="-5.097467419620291"><ele>1606.6666666666665</ele><time>2026-04-27T12:14:44Z</time></trkpt><trkpt lat="33.548193400371304" lon="-5.097563133229525"><ele>1607.0</ele><time>2026-04-27T12:14:45Z</time></trkpt><trkpt lat="33.548001078102416" lon="-5.097654325846224"><ele>1608.0</ele><time>2026-04-27T12:14:46Z</time></trkpt><trkpt lat="33.54781262434511" lon="-5.097729185902638"><ele>1609.0</ele><time>2026-04-27T12:14:47Z</time></trkpt><trkpt lat="33.5476253867384" lon="-5.0977929721172694"><ele>1610.0</ele><time>2026-04-27T12:14:48Z</time></trkpt><trkpt lat="33.547430118912516" lon="-5.097848239952746"><ele>1610.0</ele><time>2026-04-27T12:14:49Z</time></trkpt><trkpt lat="33.547227895973656" lon="-5.097885367696372"><ele>1610.0</ele><time>2026-04-27T12:14:50Z</time></trkpt><trkpt lat="33.54702712946185" lon="-5.097905569588441"><ele>1610.0</ele><time>2026-04-27T12:14:51Z</time></trkpt><trkpt lat="33.546827592544126" lon="-5.097912163025697"><ele>1610.0</ele><time>2026-04-27T12:14:52Z</time></trkpt><trkpt lat="33.546633868463005" lon="-5.097922448083652"><ele>1610.0</ele><time>2026-04-27T12:14:53Z</time></trkpt><trkpt lat="33.54645720516832" lon="-5.097935281860079"><ele>1610.0</ele><time>2026-04-27T12:14:54Z</time></trkpt><trkpt lat="33.546293893797525" lon="-5.0979483528036384"><ele>1610.6666666666665</ele><time>2026-04-27T12:14:55Z</time></trkpt><trkpt lat="33.54613082137091" lon="-5.097963261494957"><ele>1611.3333333333335</ele><time>2026-04-27T12:14:56Z</time></trkpt><trkpt lat="33.54597655821255" lon="-5.097986305947152"><ele>1612.0</ele><time>2026-04-27T12:14:57Z</time></trkpt><trkpt lat="33.545821806134" lon="-5.098024087932102"><ele>1612.0</ele><time>2026-04-27T12:14:58Z</time></trkpt><trkpt lat="33.5456660609825" lon="-5.098078787085401"><ele>1612.0</ele><time>2026-04-27T12:14:59Z</time></trkpt><trkpt lat="33.54550815382834" lon="-5.098144925216482"><ele>1612.0</ele><time>2026-04-27T12:15:00Z</time></trkpt><trkpt lat="33.54534334514033" lon="-5.098219916912973"><ele>1613.3333333333335</ele><time>2026-04-27T12:15:01Z</time></trkpt><trkpt lat="33.54516064666021" lon="-5.098296842837627"><ele>1614.6666666666665</ele><time>2026-04-27T12:15:02Z</time></trkpt><trkpt lat="33.544963425296075" lon="-5.098380478790747"><ele>1616.0</ele><time>2026-04-27T12:15:03Z</time></trkpt><trkpt lat="33.54475418556613" lon="-5.098478822813812"><ele>1616.0</ele><time>2026-04-27T12:15:04Z</time></trkpt><trkpt lat="33.544535336156876" lon="-5.098585690463851"><ele>1616.0</ele><time>2026-04-27T12:15:05Z</time></trkpt><trkpt lat="33.544310932180245" lon="-5.0987000699356715"><ele>1616.0</ele><time>2026-04-27T12:15:06.001Z</time></trkpt><trkpt lat="33.544082862777366" lon="-5.098813801746856"><ele>1616.0</ele><time>2026-04-27T12:15:07.001Z</time></trkpt><trkpt lat="33.54384910037523" lon="-5.098925540919379"><ele>1616.5</ele><time>2026-04-27T12:15:08.001Z</time></trkpt><trkpt lat="33.54362351222244" lon="-5.099032420212139"><ele>1617.0</ele><time>2026-04-27T12:15:09Z</time></trkpt><trkpt lat="33.543404755150014" lon="-5.099133699645408"><ele>1618.5</ele><time>2026-04-27T12:15:10Z</time></trkpt><trkpt lat="33.54318895697493" lon="-5.099233506272929"><ele>1620.0</ele><time>2026-04-27T12:15:11Z</time></trkpt><trkpt lat="33.54297764209313" lon="-5.099336629755496"><ele>1618.6666666666665</ele><time>2026-04-27T12:15:12Z</time></trkpt><trkpt lat="33.542778169117554" lon="-5.099444822243301"><ele>1617.3333333333333</ele><time>2026-04-27T12:15:13Z</time></trkpt><trkpt lat="33.54259447567273" lon="-5.0995646211109955"><ele>1616.0</ele><time>2026-04-27T12:15:14Z</time></trkpt><trkpt lat="33.54242992841" lon="-5.099703330017388"><ele>1616.0</ele><time>2026-04-27T12:15:15Z</time></trkpt><trkpt lat="33.54228053768741" lon="-5.099863913863448"><ele>1616.0</ele><time>2026-04-27T12:15:16Z</time></trkpt><trkpt lat="33.5421488305663" lon="-5.100046511452323"><ele>1616.0</ele><time>2026-04-27T12:15:17Z</time></trkpt><trkpt lat="33.542019832894056" lon="-5.100243989145662"><ele>1617.3333333333333</ele><time>2026-04-27T12:15:18Z</time></trkpt><trkpt lat="33.541887792995716" lon="-5.100451919250165"><ele>1618.6666666666665</ele><time>2026-04-27T12:15:19Z</time></trkpt><trkpt lat="33.54174733081269" lon="-5.100667498385691"><ele>1620.0</ele><time>2026-04-27T12:15:20Z</time></trkpt><trkpt lat="33.54160480721678" lon="-5.100888134131151"><ele>1623.0</ele><time>2026-04-27T12:15:21Z</time></trkpt><trkpt lat="33.541464466402395" lon="-5.101105028662231"><ele>1626.0</ele><time>2026-04-27T12:15:22Z</time></trkpt><trkpt lat="33.54132773663235" lon="-5.101314947680521"><ele>1625.3333333333335</ele><time>2026-04-27T12:15:23Z</time></trkpt><trkpt lat="33.54119046660403" lon="-5.101515461554352"><ele>1624.6666666666667</ele><time>2026-04-27T12:15:24Z</time></trkpt><trkpt lat="33.54104280552964" lon="-5.10169367716248"><ele>1624.0</ele><time>2026-04-27T12:15:25Z</time></trkpt><trkpt lat="33.54087977050471" lon="-5.101849980946709"><ele>1625.6666666666667</ele><time>2026-04-27T12:15:26Z</time></trkpt><trkpt lat="33.540703109114375" lon="-5.10197860888559"><ele>1627.3333333333335</ele><time>2026-04-27T12:15:27Z</time></trkpt><trkpt lat="33.54052087789805" lon="-5.102080878852411"><ele>1629.0</ele><time>2026-04-27T12:15:28Z</time></trkpt><trkpt lat="33.54033821680224" lon="-5.102158700591045"><ele>1629.6666666666665</ele><time>2026-04-27T12:15:29Z</time></trkpt><trkpt lat="33.54015885180425" lon="-5.102205699309184"><ele>1630.3333333333333</ele><time>2026-04-27T12:15:30Z</time></trkpt><trkpt lat="33.53998395622445" lon="-5.102258651383935"><ele>1631.0</ele><time>2026-04-27T12:15:31Z</time></trkpt><trkpt lat="33.53980718432179" lon="-5.102270986294088"><ele>1631.0</ele><time>2026-04-27T12:15:32Z</time></trkpt><trkpt lat="33.539632878307174" lon="-5.102269223569153"><ele>1631.0</ele><time>2026-04-27T12:15:33Z</time></trkpt><trkpt lat="33.53946954753972" lon="-5.102266208954234"><ele>1631.0</ele><time>2026-04-27T12:15:34Z</time></trkpt><trkpt lat="33.53931965104077" lon="-5.102257855276475"><ele>1633.0</ele><time>2026-04-27T12:15:35Z</time></trkpt><trkpt lat="33.53918562184518" lon="-5.102249823111775"><ele>1635.0</ele><time>2026-04-27T12:15:36Z</time></trkpt><trkpt lat="33.539066927569884" lon="-5.102242214135511"><ele>1637.0</ele><time>2026-04-27T12:15:37Z</time></trkpt><trkpt lat="33.53895773662438" lon="-5.1022346484692145"><ele>1639.0</ele><time>2026-04-27T12:15:38Z</time></trkpt><trkpt lat="33.53885994357728" lon="-5.102228218442659"><ele>1639.0</ele><time>2026-04-27T12:15:39Z</time></trkpt><trkpt lat="33.53876503802431" lon="-5.102221744337373"><ele>1639.0</ele><time>2026-04-27T12:15:40Z</time></trkpt><trkpt lat="33.538669335146714" lon="-5.102214989571856"><ele>1639.0</ele><time>2026-04-27T12:15:41Z</time></trkpt><trkpt lat="33.53857724185037" lon="-5.102208180589634"><ele>1639.0</ele><time>2026-04-27T12:15:42Z</time></trkpt><trkpt lat="33.53849287118374" lon="-5.102202267580803"><ele>1639.0</ele><time>2026-04-27T12:15:43Z</time></trkpt><trkpt lat="33.53841010601324" lon="-5.102196413162453"><ele>1640.1666666666667</ele><time>2026-04-27T12:15:44Z</time></trkpt><trkpt lat="33.53832537484839" lon="-5.102190342080815"><ele>1641.3333333333335</ele><time>2026-04-27T12:15:45Z</time></trkpt><trkpt lat="33.538240850858436" lon="-5.1021690464671785"><ele>1642.5</ele><time>2026-04-27T12:15:46Z</time></trkpt><trkpt lat="33.53815551484859" lon="-5.102170360747327"><ele>1643.6666666666665</ele><time>2026-04-27T12:15:47Z</time></trkpt><trkpt lat="33.53807107104454" lon="-5.102169917342114"><ele>1644.8333333333333</ele><time>2026-04-27T12:15:48Z</time></trkpt><trkpt lat="33.53798552875792" lon="-5.102170813460461"><ele>1646.0</ele><time>2026-04-27T12:15:49Z</time></trkpt><trkpt lat="33.53790140126699" lon="-5.102174119532282"><ele>1646.3333333333333</ele><time>2026-04-27T12:15:50Z</time></trkpt><trkpt lat="33.537818969696914" lon="-5.1021764058040775"><ele>1646.6666666666665</ele><time>2026-04-27T12:15:51Z</time></trkpt><trkpt lat="33.53773882599223" lon="-5.102179468591817"><ele>1647.0</ele><time>2026-04-27T12:15:52Z</time></trkpt><trkpt lat="33.537658793630754" lon="-5.10218307471325"><ele>1647.3333333333335</ele><time>2026-04-27T12:15:53Z</time></trkpt><trkpt lat="33.537577199859584" lon="-5.102184583576277"><ele>1647.6666666666667</ele><time>2026-04-27T12:15:54Z</time></trkpt><trkpt lat="33.537496204215614" lon="-5.102184005371291"><ele>1648.0</ele><time>2026-04-27T12:15:55Z</time></trkpt><trkpt lat="33.53742317074919" lon="-5.102182462920719"><ele>1648.0000000000002</ele><time>2026-04-27T12:15:56Z</time></trkpt><trkpt lat="33.53735530645774" lon="-5.1021791837708115"><ele>1648.0</ele><time>2026-04-27T12:15:57Z</time></trkpt><trkpt lat="33.53723849379472" lon="-5.1021732520993295"><ele>1648.0</ele><time>2026-04-27T12:15:59Z</time></trkpt><trkpt lat="33.53715929846769" lon="-5.102171199270232"><ele>1648.0</ele><time>2026-04-27T12:16:01Z</time></trkpt><trkpt lat="33.53708732716761" lon="-5.102174636482075"><ele>1648.0000000000002</ele><time>2026-04-27T12:16:05Z</time></trkpt><trkpt lat="33.5370041358723" lon="-5.102178413505068"><ele>1648.0</ele><time>2026-04-27T12:16:07Z</time></trkpt><trkpt lat="33.53693572493023" lon="-5.102169311749509"><ele>1647.8333333333335</ele><time>2026-04-27T12:16:08Z</time></trkpt><trkpt lat="33.536860267697875" lon="-5.102163185840341"><ele>1647.6666666666667</ele><time>2026-04-27T12:16:09Z</time></trkpt><trkpt lat="33.536776333837494" lon="-5.102159083300763"><ele>1647.5</ele><time>2026-04-27T12:16:10Z</time></trkpt><trkpt lat="33.536693492913834" lon="-5.102153749814858"><ele>1647.3333333333335</ele><time>2026-04-27T12:16:11Z</time></trkpt><trkpt lat="33.5366073873557" lon="-5.1021463178661834"><ele>1647.1666666666667</ele><time>2026-04-27T12:16:12Z</time></trkpt><trkpt lat="33.53651700255659" lon="-5.102138562822207"><ele>1647.0</ele><time>2026-04-27T12:16:13Z</time></trkpt><trkpt lat="33.536420612389634" lon="-5.10213268707021"><ele>1647.0</ele><time>2026-04-27T12:16:14Z</time></trkpt><trkpt lat="33.5363208456687" lon="-5.10212644459707"><ele>1647.0</ele><time>2026-04-27T12:16:15Z</time></trkpt><trkpt lat="33.536218947210365" lon="-5.1021187559696095"><ele>1647.0</ele><time>2026-04-27T12:16:16Z</time></trkpt><trkpt lat="33.536116624678115" lon="-5.102114192720215"><ele>1647.0</ele><time>2026-04-27T12:16:17Z</time></trkpt><trkpt lat="33.53601080775848" lon="-5.102110137608744"><ele>1647.0</ele><time>2026-04-27T12:16:18Z</time></trkpt><trkpt lat="33.53590925549165" lon="-5.102106098600891"><ele>1646.6</ele><time>2026-04-27T12:16:19Z</time></trkpt><trkpt lat="33.535805438377686" lon="-5.102100399455189"><ele>1646.1999999999998</ele><time>2026-04-27T12:16:20Z</time></trkpt><trkpt lat="33.53569612453008" lon="-5.1020951250923305"><ele>1645.8</ele><time>2026-04-27T12:16:21Z</time></trkpt><trkpt lat="33.53558186679582" lon="-5.102086517565236"><ele>1645.4</ele><time>2026-04-27T12:16:22Z</time></trkpt><trkpt lat="33.535465317213614" lon="-5.102077605105572"><ele>1645.0</ele><time>2026-04-27T12:16:23Z</time></trkpt><trkpt lat="33.535344057773266" lon="-5.1020712461304205"><ele>1644.75</ele><time>2026-04-27T12:16:24Z</time></trkpt><trkpt lat="33.53521955732344" lon="-5.10206275158468"><ele>1644.5</ele><time>2026-04-27T12:16:25Z</time></trkpt><trkpt lat="33.53509668157925" lon="-5.102055054396302"><ele>1644.25</ele><time>2026-04-27T12:16:26Z</time></trkpt><trkpt lat="33.534982386714574" lon="-5.102044195489543"><ele>1644.0</ele><time>2026-04-27T12:16:27Z</time></trkpt><trkpt lat="33.53487633670976" lon="-5.102039567598005"><ele>1644.0</ele><time>2026-04-27T12:16:28Z</time></trkpt><trkpt lat="33.53477088642571" lon="-5.102035254119728"><ele>1644.0</ele><time>2026-04-27T12:16:29Z</time></trkpt><trkpt lat="33.5346656709227" lon="-5.102028199794203"><ele>1644.0</ele><time>2026-04-27T12:16:30Z</time></trkpt><trkpt lat="33.53456125906826" lon="-5.1020319759980035"><ele>1644.0</ele><time>2026-04-27T12:16:31Z</time></trkpt><trkpt lat="33.534457200109884" lon="-5.10204947278723"><ele>1644.0</ele><time>2026-04-27T12:16:32Z</time></trkpt><trkpt lat="33.53435479673628" lon="-5.102081328837161"><ele>1644.2</ele><time>2026-04-27T12:16:33Z</time></trkpt><trkpt lat="33.53425297142408" lon="-5.102122197107142"><ele>1644.4</ele><time>2026-04-27T12:16:34Z</time></trkpt><trkpt lat="33.53415519493738" lon="-5.102173077703676"><ele>1644.6</ele><time>2026-04-27T12:16:35Z</time></trkpt><trkpt lat="33.53406113398908" lon="-5.102230945088316"><ele>1644.8</ele><time>2026-04-27T12:16:36Z</time></trkpt><trkpt lat="33.53397239109661" lon="-5.1022977942605925"><ele>1645.0</ele><time>2026-04-27T12:16:37Z</time></trkpt><trkpt lat="33.53389073508448" lon="-5.102369750886824"><ele>1644.2</ele><time>2026-04-27T12:16:38Z</time></trkpt><trkpt lat="33.5338147564959" lon="-5.1024494341059805"><ele>1643.4</ele><time>2026-04-27T12:16:39Z</time></trkpt><trkpt lat="33.5337436768923" lon="-5.1025369121264905"><ele>1642.6</ele><time>2026-04-27T12:16:40Z</time></trkpt><trkpt lat="33.5336794507046" lon="-5.102632463698531"><ele>1641.8</ele><time>2026-04-27T12:16:41Z</time></trkpt><trkpt lat="33.53362721834937" lon="-5.102732053979008"><ele>1641.0</ele><time>2026-04-27T12:16:42Z</time></trkpt><trkpt lat="33.53357980459251" lon="-5.102836457507823"><ele>1640.4</ele><time>2026-04-27T12:16:43Z</time></trkpt><trkpt lat="33.53353747933654" lon="-5.102947754247554"><ele>1639.8</ele><time>2026-04-27T12:16:44Z</time></trkpt><trkpt lat="33.53350084982446" lon="-5.103062679627328"><ele>1639.2</ele><time>2026-04-27T12:16:45Z</time></trkpt><trkpt lat="33.533469348954775" lon="-5.103180641552529"><ele>1638.6000000000001</ele><time>2026-04-27T12:16:46Z</time></trkpt><trkpt lat="33.53344675093792" lon="-5.103303036899815"><ele>1638.0</ele><time>2026-04-27T12:16:47Z</time></trkpt><trkpt lat="33.533433329547336" lon="-5.103424406678922"><ele>1637.2</ele><time>2026-04-27T12:16:48Z</time></trkpt><trkpt lat="33.53342613931155" lon="-5.103544064820156"><ele>1636.4</ele><time>2026-04-27T12:16:49Z</time></trkpt><trkpt lat="33.533421130636704" lon="-5.103662108306246"><ele>1635.6000000000001</ele><time>2026-04-27T12:16:50Z</time></trkpt><trkpt lat="33.53341561422641" lon="-5.103778829005987"><ele>1634.8000000000002</ele><time>2026-04-27T12:16:51Z</time></trkpt><trkpt lat="33.53341112221937" lon="-5.103887503268166"><ele>1634.0</ele><time>2026-04-27T12:16:52Z</time></trkpt><trkpt lat="33.53340461334803" lon="-5.103989808970062"><ele>1633.9999999999998</ele><time>2026-04-27T12:16:53Z</time></trkpt><trkpt lat="33.5334016524052" lon="-5.10408306773592"><ele>1634.0</ele><time>2026-04-27T12:16:54Z</time></trkpt><trkpt lat="33.53339896765906" lon="-5.104172804118747"><ele>1634.0</ele><time>2026-04-27T12:16:55Z</time></trkpt><trkpt lat="33.5333944111666" lon="-5.104263109966721"><ele>1634.0</ele><time>2026-04-27T12:16:56Z</time></trkpt><trkpt lat="33.53339072250711" lon="-5.104364426512806"><ele>1633.9999999999998</ele><time>2026-04-27T12:16:57Z</time></trkpt><trkpt lat="33.53338817012679" lon="-5.104474294005158"><ele>1634.0</ele><time>2026-04-27T12:16:58Z</time></trkpt><trkpt lat="33.53337715567694" lon="-5.1045901928355475"><ele>1634.0</ele><time>2026-04-27T12:16:59.001Z</time></trkpt><trkpt lat="33.53336417049104" lon="-5.104708997814362"><ele>1634.0</ele><time>2026-04-27T12:17:00.001Z</time></trkpt><trkpt lat="33.533344511381955" lon="-5.104829745018354"><ele>1634.0</ele><time>2026-04-27T12:17:01.001Z</time></trkpt><trkpt lat="33.53331686277539" lon="-5.10494799457066"><ele>1634.0</ele><time>2026-04-27T12:17:02.001Z</time></trkpt><trkpt lat="33.53328553009433" lon="-5.105058258665342"><ele>1634.0</ele><time>2026-04-27T12:17:03.001Z</time></trkpt><trkpt lat="33.53325092452767" lon="-5.105163481291083"><ele>1634.2</ele><time>2026-04-27T12:17:04.001Z</time></trkpt><trkpt lat="33.53321252048382" lon="-5.105264765609439"><ele>1634.4</ele><time>2026-04-27T12:17:05.001Z</time></trkpt><trkpt lat="33.53317010185715" lon="-5.1053635558087915"><ele>1634.6</ele><time>2026-04-27T12:17:06.001Z</time></trkpt><trkpt lat="33.53312571096891" lon="-5.105459632861479"><ele>1634.8</ele><time>2026-04-27T12:17:07.001Z</time></trkpt><trkpt lat="33.53307305362561" lon="-5.10554995485484"><ele>1635.0</ele><time>2026-04-27T12:17:08.001Z</time></trkpt><trkpt lat="33.53301796023984" lon="-5.105636951069626"><ele>1635.0</ele><time>2026-04-27T12:17:09.001Z</time></trkpt><trkpt lat="33.53296283761011" lon="-5.105721547659797"><ele>1635.0</ele><time>2026-04-27T12:17:10.001Z</time></trkpt><trkpt lat="33.53290337098649" lon="-5.105801543364506"><ele>1635.0</ele><time>2026-04-27T12:17:11.001Z</time></trkpt><trkpt lat="33.532842624003756" lon="-5.105879637525738"><ele>1635.0</ele><time>2026-04-27T12:17:12.001Z</time></trkpt><trkpt lat="33.53278293882856" lon="-5.105959772853863"><ele>1635.0</ele><time>2026-04-27T12:17:13.001Z</time></trkpt><trkpt lat="33.53271811248147" lon="-5.106041193711284"><ele>1634.0</ele><time>2026-04-27T12:17:14.001Z</time></trkpt><trkpt lat="33.532648817101894" lon="-5.1061202131999845"><ele>1633.0</ele><time>2026-04-27T12:17:15.001Z</time></trkpt><trkpt lat="33.53258116130412" lon="-5.106197090859397"><ele>1632.0</ele><time>2026-04-27T12:17:16.001Z</time></trkpt><trkpt lat="33.53251166404645" lon="-5.1062679918783465"><ele>1631.0</ele><time>2026-04-27T12:17:17.001Z</time></trkpt><trkpt lat="33.53243949494918" lon="-5.1063417455984315"><ele>1630.0</ele><time>2026-04-27T12:17:18.001Z</time></trkpt><trkpt lat="33.5323648380137" lon="-5.10641738688677"><ele>1630.0</ele><time>2026-04-27T12:17:19.001Z</time></trkpt><trkpt lat="33.5322898224078" lon="-5.106488673780648"><ele>1630.0</ele><time>2026-04-27T12:17:20.001Z</time></trkpt><trkpt lat="33.53221205007127" lon="-5.1065542427943"><ele>1630.0</ele><time>2026-04-27T12:17:21.001Z</time></trkpt><trkpt lat="33.53213101847767" lon="-5.106615067301236"><ele>1630.0</ele><time>2026-04-27T12:17:22.001Z</time></trkpt><trkpt lat="33.532042050978475" lon="-5.106663691372829"><ele>1630.0</ele><time>2026-04-27T12:17:23.001Z</time></trkpt><trkpt lat="33.53194935859024" lon="-5.106700060960363"><ele>1630.2</ele><time>2026-04-27T12:17:24.001Z</time></trkpt><trkpt lat="33.53185327409957" lon="-5.106720415940896"><ele>1630.4</ele><time>2026-04-27T12:17:25.001Z</time></trkpt><trkpt lat="33.531753995137976" lon="-5.1067463155870065"><ele>1630.6</ele><time>2026-04-27T12:17:26.001Z</time></trkpt><trkpt lat="33.53165408095027" lon="-5.106747381108324"><ele>1630.8</ele><time>2026-04-27T12:17:27.001Z</time></trkpt><trkpt lat="33.53155054831493" lon="-5.106713451136157"><ele>1631.0</ele><time>2026-04-27T12:17:28.001Z</time></trkpt><trkpt lat="33.531447699003714" lon="-5.106688834927148"><ele>1631.0</ele><time>2026-04-27T12:17:29.001Z</time></trkpt><trkpt lat="33.53134350628739" lon="-5.106660258696131"><ele>1631.0</ele><time>2026-04-27T12:17:30.001Z</time></trkpt><trkpt lat="33.53123678813161" lon="-5.106633569001421"><ele>1631.0</ele><time>2026-04-27T12:17:31.001Z</time></trkpt><trkpt lat="33.5311317283151" lon="-5.106602227677583"><ele>1631.0</ele><time>2026-04-27T12:17:32.001Z</time></trkpt><trkpt lat="33.53103003957732" lon="-5.106571015071576"><ele>1631.0</ele><time>2026-04-27T12:17:33.001Z</time></trkpt><trkpt lat="33.53093168426633" lon="-5.10654546804933"><ele>1631.4</ele><time>2026-04-27T12:17:34.001Z</time></trkpt><trkpt lat="33.5308371745868" lon="-5.106515776115818"><ele>1631.8</ele><time>2026-04-27T12:17:35.001Z</time></trkpt><trkpt lat="33.530747002094024" lon="-5.1064888190345945"><ele>1632.2</ele><time>2026-04-27T12:17:36.001Z</time></trkpt><trkpt lat="33.53065512115886" lon="-5.106462649721709"><ele>1632.6000000000001</ele><time>2026-04-27T12:17:37.001Z</time></trkpt><trkpt lat="33.53056244126338" lon="-5.10643920372682"><ele>1633.0</ele><time>2026-04-27T12:17:38.001Z</time></trkpt><trkpt lat="33.530469681105835" lon="-5.106421207436131"><ele>1634.2</ele><time>2026-04-27T12:17:39.001Z</time></trkpt><trkpt lat="33.53037666046861" lon="-5.106412782066102"><ele>1635.4</ele><time>2026-04-27T12:17:40.001Z</time></trkpt><trkpt lat="33.5302814523337" lon="-5.106409825102739"><ele>1636.6000000000001</ele><time>2026-04-27T12:17:41.001Z</time></trkpt><trkpt lat="33.53018768972211" lon="-5.106408425304392"><ele>1637.8000000000002</ele><time>2026-04-27T12:17:42.001Z</time></trkpt><trkpt lat="33.53009748590237" lon="-5.106407695889516"><ele>1639.0</ele><time>2026-04-27T12:17:43.001Z</time></trkpt><trkpt lat="33.53001299433256" lon="-5.106409382664718"><ele>1639.0000000000002</ele><time>2026-04-27T12:17:44.001Z</time></trkpt><trkpt lat="33.52993459675486" lon="-5.106414945957432"><ele>1639.0</ele><time>2026-04-27T12:17:45.001Z</time></trkpt><trkpt lat="33.52985555628746" lon="-5.106418727536684"><ele>1639.0</ele><time>2026-04-27T12:17:46.001Z</time></trkpt><trkpt lat="33.52977086616002" lon="-5.10642122585801"><ele>1639.0</ele><time>2026-04-27T12:17:47.001Z</time></trkpt><trkpt lat="33.52968592789783" lon="-5.106425148900969"><ele>1639.0000000000002</ele><time>2026-04-27T12:17:48.001Z</time></trkpt><trkpt lat="33.52959755241654" lon="-5.106425561108837"><ele>1639.0</ele><time>2026-04-27T12:17:49.001Z</time></trkpt><trkpt lat="33.52950861242761" lon="-5.106418730633187"><ele>1639.0000000000002</ele><time>2026-04-27T12:17:50.001Z</time></trkpt><trkpt lat="33.52941870621355" lon="-5.106394384881081"><ele>1639.0</ele><time>2026-04-27T12:17:51.001Z</time></trkpt><trkpt lat="33.52933403611766" lon="-5.106356614919462"><ele>1639.0</ele><time>2026-04-27T12:17:52.001Z</time></trkpt><trkpt lat="33.529260258505566" lon="-5.106311457355813"><ele>1639.0</ele><time>2026-04-27T12:17:53.001Z</time></trkpt><trkpt lat="33.52919621888607" lon="-5.106266432071882"><ele>1639.0000000000002</ele><time>2026-04-27T12:17:54.001Z</time></trkpt><trkpt lat="33.52913799596548" lon="-5.10622441397181"><ele>1639.0</ele><time>2026-04-27T12:17:55.001Z</time></trkpt><trkpt lat="33.52904562028156" lon="-5.106151613908206"><ele>1639.0000000000002</ele><time>2026-04-27T12:17:57.001Z</time></trkpt><trkpt lat="33.528976088728285" lon="-5.1060963140258195"><ele>1639.0</ele><time>2026-04-27T12:17:59.001Z</time></trkpt><trkpt lat="33.52891052370245" lon="-5.1060393854925765"><ele>1639.0</ele><time>2026-04-27T12:18:01.001Z</time></trkpt><trkpt lat="33.52882732703328" lon="-5.105989984852726"><ele>1639.0</ele><time>2026-04-27T12:18:03.001Z</time></trkpt><trkpt lat="33.52872449111614" lon="-5.105985869498892"><ele>1639.0000000000002</ele><time>2026-04-27T12:18:05.001Z</time></trkpt><trkpt lat="33.528673152899536" lon="-5.1060309726737305"><ele>1639.0</ele><time>2026-04-27T12:18:06.001Z</time></trkpt><trkpt lat="33.52863173146235" lon="-5.106095860829792"><ele>1639.0000000000002</ele><time>2026-04-27T12:18:07.001Z</time></trkpt><trkpt lat="33.52859484319177" lon="-5.1061789182265915"><ele>1639.0</ele><time>2026-04-27T12:18:08.001Z</time></trkpt><trkpt lat="33.5285558524575" lon="-5.1062667392058545"><ele>1639.0</ele><time>2026-04-27T12:18:09.001Z</time></trkpt><trkpt lat="33.52850789763441" lon="-5.106347034916308"><ele>1639.0</ele><time>2026-04-27T12:18:10.001Z</time></trkpt><trkpt lat="33.528449573654804" lon="-5.106415425965757"><ele>1639.0000000000002</ele><time>2026-04-27T12:18:11.001Z</time></trkpt><trkpt lat="33.5283828301071" lon="-5.106466046549376"><ele>1639.0</ele><time>2026-04-27T12:18:12.001Z</time></trkpt><trkpt lat="33.52831249163189" lon="-5.106510122456093"><ele>1639.0000000000002</ele><time>2026-04-27T12:18:13.001Z</time></trkpt><trkpt lat="33.52825130145015" lon="-5.1065546393564345"><ele>1639.0</ele><time>2026-04-27T12:18:14.001Z</time></trkpt><trkpt lat="33.52819907063236" lon="-5.106617986258951"><ele>1639.0</ele><time>2026-04-27T12:18:15.001Z</time></trkpt><trkpt lat="33.52815885012042" lon="-5.1066989625127786"><ele>1639.0</ele><time>2026-04-27T12:18:16.001Z</time></trkpt><trkpt lat="33.52812977960007" lon="-5.106789206334834"><ele>1639.0000000000002</ele><time>2026-04-27T12:18:17.001Z</time></trkpt><trkpt lat="33.52810361360646" lon="-5.106880067454938"><ele>1639.0</ele><time>2026-04-27T12:18:18.001Z</time></trkpt><trkpt lat="33.52807946918589" lon="-5.1069749044374095"><ele>1639.6666666666667</ele><time>2026-04-27T12:18:19.001Z</time></trkpt><trkpt lat="33.52805865127224" lon="-5.107078574646617"><ele>1640.3333333333335</ele><time>2026-04-27T12:18:20.001Z</time></trkpt><trkpt lat="33.528033697114225" lon="-5.107178693162023"><ele>1641.0</ele><time>2026-04-27T12:18:21.001Z</time></trkpt><trkpt lat="33.52800813476379" lon="-5.1072769492421575"><ele>1641.6666666666665</ele><time>2026-04-27T12:18:22.001Z</time></trkpt><trkpt lat="33.52798309840251" lon="-5.107378921793196"><ele>1642.3333333333333</ele><time>2026-04-27T12:18:23.001Z</time></trkpt><trkpt lat="33.527959213837846" lon="-5.107479613072854"><ele>1643.0</ele><time>2026-04-27T12:18:24.001Z</time></trkpt><trkpt lat="33.52793598127617" lon="-5.10757771838836"><ele>1642.9999999999998</ele><time>2026-04-27T12:18:25.001Z</time></trkpt><trkpt lat="33.52791389536084" lon="-5.107675977556185"><ele>1643.0</ele><time>2026-04-27T12:18:26.001Z</time></trkpt><trkpt lat="33.527892530222346" lon="-5.107770418804874"><ele>1643.0</ele><time>2026-04-27T12:18:27.001Z</time></trkpt><trkpt lat="33.52786919928206" lon="-5.107862901257914"><ele>1643.0</ele><time>2026-04-27T12:18:28.001Z</time></trkpt><trkpt lat="33.52784762322444" lon="-5.107954651167898"><ele>1642.9999999999998</ele><time>2026-04-27T12:18:29.001Z</time></trkpt><trkpt lat="33.5278259470141" lon="-5.108045866706702"><ele>1643.0</ele><time>2026-04-27T12:18:30.001Z</time></trkpt><trkpt lat="33.52780281062849" lon="-5.108133955823386"><ele>1644.1666666666665</ele><time>2026-04-27T12:18:31.001Z</time></trkpt><trkpt lat="33.52777887582726" lon="-5.108227277239494"><ele>1645.3333333333333</ele><time>2026-04-27T12:18:32.001Z</time></trkpt><trkpt lat="33.52775397170115" lon="-5.108322659075655"><ele>1646.5</ele><time>2026-04-27T12:18:33.001Z</time></trkpt><trkpt lat="33.52772851544593" lon="-5.108425089860572"><ele>1647.6666666666665</ele><time>2026-04-27T12:18:34.001Z</time></trkpt><trkpt lat="33.52770286655729" lon="-5.108525938344785"><ele>1648.8333333333333</ele><time>2026-04-27T12:18:35.001Z</time></trkpt><trkpt lat="33.527680872475294" lon="-5.108621218180973"><ele>1650.0</ele><time>2026-04-27T12:18:36.001Z</time></trkpt><trkpt lat="33.52766285510386" lon="-5.108709622122638"><ele>1650.0</ele><time>2026-04-27T12:18:37.001Z</time></trkpt><trkpt lat="33.52764976087077" lon="-5.108793900140062"><ele>1650.0</ele><time>2026-04-27T12:18:38.001Z</time></trkpt><trkpt lat="33.52764470552497" lon="-5.1088799435004795"><ele>1650.0</ele><time>2026-04-27T12:18:39.001Z</time></trkpt><trkpt lat="33.52765539461068" lon="-5.108970268361222"><ele>1650.0</ele><time>2026-04-27T12:18:40.001Z</time></trkpt><trkpt lat="33.5276839399823" lon="-5.10906362886506"><ele>1650.0</ele><time>2026-04-27T12:18:41.001Z</time></trkpt><trkpt lat="33.52772207941296" lon="-5.109152938617641"><ele>1650.0</ele><time>2026-04-27T12:18:42.001Z</time></trkpt><trkpt lat="33.527768569295304" lon="-5.109238407582831"><ele>1649.8</ele><time>2026-04-27T12:18:43.001Z</time></trkpt><trkpt lat="33.5278204272006" lon="-5.109323962520922"><ele>1649.6</ele><time>2026-04-27T12:18:44.001Z</time></trkpt><trkpt lat="33.52787162745057" lon="-5.109414198644106"><ele>1649.4</ele><time>2026-04-27T12:18:45Z</time></trkpt><trkpt lat="33.5279264101554" lon="-5.109510194438989"><ele>1649.2</ele><time>2026-04-27T12:18:46Z</time></trkpt><trkpt lat="33.52798084612526" lon="-5.1096093781272724"><ele>1649.0</ele><time>2026-04-27T12:18:47Z</time></trkpt><trkpt lat="33.528026708996414" lon="-5.109712522952004"><ele>1648.8333333333333</ele><time>2026-04-27T12:18:48Z</time></trkpt><trkpt lat="33.528063550470975" lon="-5.1098189114082535"><ele>1648.6666666666665</ele><time>2026-04-27T12:18:49Z</time></trkpt><trkpt lat="33.52808373775714" lon="-5.109922524007809"><ele>1648.5</ele><time>2026-04-27T12:18:50Z</time></trkpt><trkpt lat="33.528088292515456" lon="-5.110026572990025"><ele>1648.3333333333335</ele><time>2026-04-27T12:18:51Z</time></trkpt><trkpt lat="33.528069867708766" lon="-5.11011921435505"><ele>1648.1666666666667</ele><time>2026-04-27T12:18:52Z</time></trkpt><trkpt lat="33.52803352598199" lon="-5.11020385389303"><ele>1648.0</ele><time>2026-04-27T12:18:53Z</time></trkpt><trkpt lat="33.52798883224568" lon="-5.110292430807932"><ele>1648.0</ele><time>2026-04-27T12:18:54Z</time></trkpt><trkpt lat="33.52793639446453" lon="-5.1103819412605205"><ele>1648.0</ele><time>2026-04-27T12:18:55Z</time></trkpt><trkpt lat="33.52787875289714" lon="-5.1104756169981895"><ele>1648.0</ele><time>2026-04-27T12:18:56Z</time></trkpt><trkpt lat="33.52782057283887" lon="-5.110571026886864"><ele>1648.0</ele><time>2026-04-27T12:18:57Z</time></trkpt><trkpt lat="33.527760363144814" lon="-5.11066410478564"><ele>1648.0</ele><time>2026-04-27T12:18:58Z</time></trkpt><trkpt lat="33.527695554187616" lon="-5.110759618510224"><ele>1648.25</ele><time>2026-04-27T12:18:59Z</time></trkpt><trkpt lat="33.52762952920256" lon="-5.110858353889084"><ele>1648.5</ele><time>2026-04-27T12:19:00Z</time></trkpt><trkpt lat="33.52756090851265" lon="-5.110959845742433"><ele>1648.75</ele><time>2026-04-27T12:19:01Z</time></trkpt><trkpt lat="33.52749037785595" lon="-5.1110700586883855"><ele>1649.0</ele><time>2026-04-27T12:19:02Z</time></trkpt><trkpt lat="33.527418364360365" lon="-5.111186422745923"><ele>1649.0</ele><time>2026-04-27T12:19:03Z</time></trkpt><trkpt lat="33.527345889646035" lon="-5.111302442295239"><ele>1649.0</ele><time>2026-04-27T12:19:04Z</time></trkpt><trkpt lat="33.52727521783336" lon="-5.111414616470829"><ele>1649.0</ele><time>2026-04-27T12:19:05.002Z</time></trkpt><trkpt lat="33.52720778900521" lon="-5.111526636902976"><ele>1649.0</ele><time>2026-04-27T12:19:06.002Z</time></trkpt><trkpt lat="33.5271443202001" lon="-5.111637006045122"><ele>1648.3333333333333</ele><time>2026-04-27T12:19:07.002Z</time></trkpt><trkpt lat="33.52709139401135" lon="-5.111740915238814"><ele>1647.6666666666665</ele><time>2026-04-27T12:19:08.002Z</time></trkpt><trkpt lat="33.5270503740727" lon="-5.111836720594325"><ele>1647.0</ele><time>2026-04-27T12:19:09.002Z</time></trkpt><trkpt lat="33.52701816069811" lon="-5.111922592846237"><ele>1646.3333333333335</ele><time>2026-04-27T12:19:10.002Z</time></trkpt><trkpt lat="33.52699017625845" lon="-5.112006257835496"><ele>1645.6666666666667</ele><time>2026-04-27T12:19:11.002Z</time></trkpt><trkpt lat="33.526963644325264" lon="-5.112082113234437"><ele>1645.0</ele><time>2026-04-27T12:19:12.002Z</time></trkpt><trkpt lat="33.52693603466882" lon="-5.112151933075338"><ele>1644.6</ele><time>2026-04-27T12:19:13.002Z</time></trkpt><trkpt lat="33.52686590783764" lon="-5.112257827789236"><ele>1644.2</ele><time>2026-04-27T12:19:15.002Z</time></trkpt><trkpt lat="33.526769896480744" lon="-5.112303503190405"><ele>1643.8000000000002</ele><time>2026-04-27T12:19:17.002Z</time></trkpt><trkpt lat="33.526672623254335" lon="-5.112265623539635"><ele>1643.4</ele><time>2026-04-27T12:19:19.001Z</time></trkpt><trkpt lat="33.52661201850889" lon="-5.112162761717424"><ele>1643.0</ele><time>2026-04-27T12:19:21.001Z</time></trkpt><trkpt lat="33.526601829269815" lon="-5.112038461147804"><ele>1643.0</ele><time>2026-04-27T12:19:23.001Z</time></trkpt><trkpt lat="33.52664096548708" lon="-5.111917411685461"><ele>1643.0</ele><time>2026-04-27T12:19:25.001Z</time></trkpt><trkpt lat="33.526718791138244" lon="-5.111890859787553"><ele>1643.0</ele><time>2026-04-27T12:19:26.001Z</time></trkpt><trkpt lat="33.52681836949561" lon="-5.111874817992195"><ele>1643.0</ele><time>2026-04-27T12:19:28.001Z</time></trkpt><trkpt lat="33.52690932820403" lon="-5.111940836342063"><ele>1643.0</ele><time>2026-04-27T12:19:30.001Z</time></trkpt><trkpt lat="33.52694846653232" lon="-5.112087218849643"><ele>1642.9999999999998</ele><time>2026-04-27T12:19:32.001Z</time></trkpt><trkpt lat="33.526940330202414" lon="-5.11216676732805"><ele>1643.0</ele><time>2026-04-27T12:19:33.001Z</time></trkpt><trkpt lat="33.526908829325826" lon="-5.112243564420893"><ele>1643.0</ele><time>2026-04-27T12:19:34.001Z</time></trkpt><trkpt lat="33.52685557152359" lon="-5.112298530203487"><ele>1643.0</ele><time>2026-04-27T12:19:35.001Z</time></trkpt><trkpt lat="33.526793434112186" lon="-5.112322717929065"><ele>1642.9999999999998</ele><time>2026-04-27T12:19:36.001Z</time></trkpt><trkpt lat="33.52668418236334" lon="-5.112294774907977"><ele>1643.0</ele><time>2026-04-27T12:19:38.001Z</time></trkpt><trkpt lat="33.5266335196519" lon="-5.112242963133624"><ele>1642.9999999999998</ele><time>2026-04-27T12:19:39.001Z</time></trkpt><trkpt lat="33.52659188039532" lon="-5.1121649031110925"><ele>1643.0</ele><time>2026-04-27T12:19:40.001Z</time></trkpt><trkpt lat="33.52656041780567" lon="-5.11207906247513"><ele>1643.0</ele><time>2026-04-27T12:19:41.001Z</time></trkpt><trkpt lat="33.52653053178609" lon="-5.111987397112428"><ele>1643.0</ele><time>2026-04-27T12:19:42.001Z</time></trkpt><trkpt lat="33.52649923995474" lon="-5.11189781847603"><ele>1642.9999999999998</ele><time>2026-04-27T12:19:43.001Z</time></trkpt><trkpt lat="33.52646416367553" lon="-5.111803495181812"><ele>1643.0</ele><time>2026-04-27T12:19:44.001Z</time></trkpt><trkpt lat="33.52642980597879" lon="-5.111705475144913"><ele>1643.0</ele><time>2026-04-27T12:19:45.001Z</time></trkpt><trkpt lat="33.5263960528935" lon="-5.11160108147463"><ele>1643.0</ele><time>2026-04-27T12:19:46.001Z</time></trkpt><trkpt lat="33.52636329968951" lon="-5.111494382131201"><ele>1643.0</ele><time>2026-04-27T12:19:47.001Z</time></trkpt><trkpt lat="33.52633009777405" lon="-5.111385212849161"><ele>1643.0</ele><time>2026-04-27T12:19:48.001Z</time></trkpt><trkpt lat="33.52629761322758" lon="-5.111269029204362"><ele>1643.0</ele><time>2026-04-27T12:19:49.001Z</time></trkpt><trkpt lat="33.526261279891784" lon="-5.111156190357571"><ele>1643.8000000000002</ele><time>2026-04-27T12:19:50.001Z</time></trkpt><trkpt lat="33.52622210168957" lon="-5.1110450552663025"><ele>1644.6</ele><time>2026-04-27T12:19:51.001Z</time></trkpt><trkpt lat="33.52617957792088" lon="-5.110933439360648"><ele>1645.4</ele><time>2026-04-27T12:19:52.001Z</time></trkpt><trkpt lat="33.52613789841329" lon="-5.110817619974513"><ele>1646.1999999999998</ele><time>2026-04-27T12:19:53.001Z</time></trkpt><trkpt lat="33.52609779622356" lon="-5.110701346562524"><ele>1647.0</ele><time>2026-04-27T12:19:54.001Z</time></trkpt><trkpt lat="33.526066673939845" lon="-5.110578149756838"><ele>1647.6</ele><time>2026-04-27T12:19:55.001Z</time></trkpt><trkpt lat="33.52603851046571" lon="-5.1104554288777635"><ele>1648.1999999999998</ele><time>2026-04-27T12:19:56.001Z</time></trkpt><trkpt lat="33.526025553410584" lon="-5.110330344254873"><ele>1648.8</ele><time>2026-04-27T12:19:57.001Z</time></trkpt><trkpt lat="33.52606875215418" lon="-5.110205990599141"><ele>1649.4</ele><time>2026-04-27T12:19:58.001Z</time></trkpt><trkpt lat="33.52612929908581" lon="-5.110101619554354"><ele>1650.0</ele><time>2026-04-27T12:19:59.001Z</time></trkpt><trkpt lat="33.52621282450287" lon="-5.110020564662036"><ele>1650.2</ele><time>2026-04-27T12:20:00.001Z</time></trkpt><trkpt lat="33.52629552584031" lon="-5.109978503433393"><ele>1650.4</ele><time>2026-04-27T12:20:01.001Z</time></trkpt><trkpt lat="33.5263652864441" lon="-5.109948641717707"><ele>1650.6</ele><time>2026-04-27T12:20:02.001Z</time></trkpt><trkpt lat="33.52647925176423" lon="-5.109930299124981"><ele>1650.8</ele><time>2026-04-27T12:20:04.001Z</time></trkpt><trkpt lat="33.52659670895503" lon="-5.109885686563376"><ele>1651.0</ele><time>2026-04-27T12:20:06.001Z</time></trkpt><trkpt lat="33.52667316612915" lon="-5.109842133027713"><ele>1651.0</ele><time>2026-04-27T12:20:07.001Z</time></trkpt><trkpt lat="33.52676191887833" lon="-5.109797255087139"><ele>1651.0</ele><time>2026-04-27T12:20:08.001Z</time></trkpt><trkpt lat="33.52685864803249" lon="-5.109750250640835"><ele>1651.0</ele><time>2026-04-27T12:20:09.001Z</time></trkpt><trkpt lat="33.52695775458541" lon="-5.109702109933538"><ele>1651.0</ele><time>2026-04-27T12:20:10.001Z</time></trkpt><trkpt lat="33.52705413446114" lon="-5.109650442837224"><ele>1651.0</ele><time>2026-04-27T12:20:11.001Z</time></trkpt><trkpt lat="33.527145337310216" lon="-5.109595170379326"><ele>1650.6</ele><time>2026-04-27T12:20:12.001Z</time></trkpt><trkpt lat="33.5272204218944" lon="-5.109526825368396"><ele>1650.1999999999998</ele><time>2026-04-27T12:20:13.001Z</time></trkpt><trkpt lat="33.5272849116697" lon="-5.1094476102603155"><ele>1649.8000000000002</ele><time>2026-04-27T12:20:14.001Z</time></trkpt><trkpt lat="33.52733764069232" lon="-5.1093647992632825"><ele>1649.4</ele><time>2026-04-27T12:20:15.001Z</time></trkpt><trkpt lat="33.52738893503939" lon="-5.109275816607749"><ele>1649.0</ele><time>2026-04-27T12:20:16.001Z</time></trkpt><trkpt lat="33.52743816848571" lon="-5.109182049564207"><ele>1649.0</ele><time>2026-04-27T12:20:17.001Z</time></trkpt><trkpt lat="33.52748488048867" lon="-5.1090807312431386"><ele>1649.0</ele><time>2026-04-27T12:20:18.001Z</time></trkpt><trkpt lat="33.52753026192541" lon="-5.1089744378568165"><ele>1649.0</ele><time>2026-04-27T12:20:19.001Z</time></trkpt><trkpt lat="33.527569660072864" lon="-5.108861349458443"><ele>1649.0</ele><time>2026-04-27T12:20:20.001Z</time></trkpt><trkpt lat="33.527604263726786" lon="-5.1087433472983905"><ele>1649.0</ele><time>2026-04-27T12:20:21.001Z</time></trkpt><trkpt lat="33.52763499383162" lon="-5.10863146471429"><ele>1649.1666666666665</ele><time>2026-04-27T12:20:22.001Z</time></trkpt><trkpt lat="33.52765987313446" lon="-5.108538841143245"><ele>1649.3333333333333</ele><time>2026-04-27T12:20:23.001Z</time></trkpt><trkpt lat="33.52767888544981" lon="-5.108462372118767"><ele>1649.5</ele><time>2026-04-27T12:20:24.001Z</time></trkpt><trkpt lat="33.52770930173762" lon="-5.108335343912745"><ele>1649.6666666666665</ele><time>2026-04-27T12:20:26.001Z</time></trkpt><trkpt lat="33.527733843904365" lon="-5.108230461908017"><ele>1649.8333333333333</ele><time>2026-04-27T12:20:28.001Z</time></trkpt><trkpt lat="33.52774179888074" lon="-5.10814747013205"><ele>1650.0</ele><time>2026-04-27T12:20:30.001Z</time></trkpt><trkpt lat="33.52775913800991" lon="-5.108054914363667"><ele>1650.2</ele><time>2026-04-27T12:20:49Z</time></trkpt><trkpt lat="33.52778683272965" lon="-5.107958895769408"><ele>1650.4</ele><time>2026-04-27T12:20:51Z</time></trkpt><trkpt lat="33.527829822970695" lon="-5.107814862955741"><ele>1650.6</ele><time>2026-04-27T12:20:53Z</time></trkpt><trkpt lat="33.52785168595723" lon="-5.107716989256046"><ele>1650.8</ele><time>2026-04-27T12:20:54Z</time></trkpt><trkpt lat="33.52787186642292" lon="-5.107615003573121"><ele>1651.0</ele><time>2026-04-27T12:20:55Z</time></trkpt><trkpt lat="33.527896250641724" lon="-5.107504836073562"><ele>1649.6</ele><time>2026-04-27T12:20:56Z</time></trkpt><trkpt lat="33.52792712727722" lon="-5.107387806986558"><ele>1648.1999999999998</ele><time>2026-04-27T12:20:57Z</time></trkpt><trkpt lat="33.52795750534035" lon="-5.107264174712083"><ele>1646.8000000000002</ele><time>2026-04-27T12:20:58Z</time></trkpt><trkpt lat="33.52798756946472" lon="-5.107142528518775"><ele>1645.4</ele><time>2026-04-27T12:20:59Z</time></trkpt><trkpt lat="33.52801396767353" lon="-5.1070295535426125"><ele>1644.0</ele><time>2026-04-27T12:21:00Z</time></trkpt><trkpt lat="33.528035407733654" lon="-5.1069248245751755"><ele>1644.0</ele><time>2026-04-27T12:21:01Z</time></trkpt><trkpt lat="33.52806032067336" lon="-5.106822947382675"><ele>1644.0</ele><time>2026-04-27T12:21:02Z</time></trkpt><trkpt lat="33.52808701699967" lon="-5.1067212174717325"><ele>1644.0</ele><time>2026-04-27T12:21:03Z</time></trkpt><trkpt lat="33.52810976858072" lon="-5.10661703284247"><ele>1644.0</ele><time>2026-04-27T12:21:04Z</time></trkpt><trkpt lat="33.52811832690302" lon="-5.106511160673974"><ele>1644.0</ele><time>2026-04-27T12:21:05Z</time></trkpt><trkpt lat="33.528103742170536" lon="-5.106404581400769"><ele>1644.0</ele><time>2026-04-27T12:21:06Z</time></trkpt><trkpt lat="33.52807666040988" lon="-5.106326261895865"><ele>1643.1666666666667</ele><time>2026-04-27T12:21:07Z</time></trkpt><trkpt lat="33.52805671025638" lon="-5.106239460547438"><ele>1642.3333333333335</ele><time>2026-04-27T12:21:08Z</time></trkpt><trkpt lat="33.52803754463426" lon="-5.10614717659849"><ele>1641.5</ele><time>2026-04-27T12:21:09Z</time></trkpt><trkpt lat="33.52808664853455" lon="-5.106049943704257"><ele>1640.6666666666667</ele><time>2026-04-27T12:21:10Z</time></trkpt><trkpt lat="33.52813437143209" lon="-5.10596314746762"><ele>1639.8333333333335</ele><time>2026-04-27T12:21:11.001Z</time></trkpt><trkpt lat="33.528178633297486" lon="-5.105884036774794"><ele>1639.0</ele><time>2026-04-27T12:21:12.001Z</time></trkpt><trkpt lat="33.528218214776714" lon="-5.105814376251495"><ele>1637.8000000000002</ele><time>2026-04-27T12:21:13.001Z</time></trkpt><trkpt lat="33.52826411327971" lon="-5.105719787444047"><ele>1636.6000000000001</ele><time>2026-04-27T12:21:15.001Z</time></trkpt><trkpt lat="33.5282907089954" lon="-5.105631221129801"><ele>1635.4</ele><time>2026-04-27T12:21:20.001Z</time></trkpt><trkpt lat="33.52846133314381" lon="-5.105640568648267"><ele>1634.2</ele><time>2026-04-27T12:21:23.001Z</time></trkpt><trkpt lat="33.52853174941352" lon="-5.105690928071652"><ele>1633.0</ele><time>2026-04-27T12:21:24.001Z</time></trkpt><trkpt lat="33.528607208536975" lon="-5.105741362544196"><ele>1634.2</ele><time>2026-04-27T12:21:25.001Z</time></trkpt><trkpt lat="33.52868641425966" lon="-5.105797749558243"><ele>1635.4</ele><time>2026-04-27T12:21:26.001Z</time></trkpt><trkpt lat="33.52877228489916" lon="-5.105862191116415"><ele>1636.6000000000001</ele><time>2026-04-27T12:21:27.001Z</time></trkpt><trkpt lat="33.528865153405945" lon="-5.105930514024416"><ele>1637.8000000000002</ele><time>2026-04-27T12:21:28.001Z</time></trkpt><trkpt lat="33.528962946615465" lon="-5.1060037231159505"><ele>1639.0</ele><time>2026-04-27T12:21:29.001Z</time></trkpt><trkpt lat="33.529064497440174" lon="-5.1060804384558995"><ele>1639.0</ele><time>2026-04-27T12:21:30.001Z</time></trkpt><trkpt lat="33.529168803615214" lon="-5.106157001680151"><ele>1639.0</ele><time>2026-04-27T12:21:31.001Z</time></trkpt><trkpt lat="33.52927552657085" lon="-5.1062315447844195"><ele>1639.0</ele><time>2026-04-27T12:21:32.001Z</time></trkpt><trkpt lat="33.52938171634644" lon="-5.106293921480595"><ele>1639.0</ele><time>2026-04-27T12:21:33.001Z</time></trkpt><trkpt lat="33.529497397414254" lon="-5.106333818033868"><ele>1639.0</ele><time>2026-04-27T12:21:34.001Z</time></trkpt><trkpt lat="33.52962118958187" lon="-5.106346113962601"><ele>1639.0</ele><time>2026-04-27T12:21:35.001Z</time></trkpt><trkpt lat="33.52975225438928" lon="-5.106341232325109"><ele>1639.0</ele><time>2026-04-27T12:21:36.001Z</time></trkpt><trkpt lat="33.52988796377609" lon="-5.106337411065478"><ele>1639.0</ele><time>2026-04-27T12:21:37.001Z</time></trkpt><trkpt lat="33.53002387621774" lon="-5.106332291492429"><ele>1639.0</ele><time>2026-04-27T12:21:38.001Z</time></trkpt><trkpt lat="33.530157393917904" lon="-5.106332950004838"><ele>1639.0</ele><time>2026-04-27T12:21:39.001Z</time></trkpt><trkpt lat="33.53028941435917" lon="-5.10633927475807"><ele>1639.0</ele><time>2026-04-27T12:21:40.001Z</time></trkpt><trkpt lat="33.53041934115088" lon="-5.106355237674206"><ele>1639.0</ele><time>2026-04-27T12:21:41.001Z</time></trkpt><trkpt lat="33.5305493324793" lon="-5.1063784442614475"><ele>1637.5</ele><time>2026-04-27T12:21:42.001Z</time></trkpt><trkpt lat="33.53068070951209" lon="-5.106412118470877"><ele>1636.0</ele><time>2026-04-27T12:21:43.001Z</time></trkpt><trkpt lat="33.53081373577268" lon="-5.106455630809316"><ele>1634.5</ele><time>2026-04-27T12:21:44.001Z</time></trkpt><trkpt lat="33.53094907745343" lon="-5.1064938045977"><ele>1633.0</ele><time>2026-04-27T12:21:45.001Z</time></trkpt><trkpt lat="33.53108600997355" lon="-5.106527401762135"><ele>1632.5</ele><time>2026-04-27T12:21:46.001Z</time></trkpt><trkpt lat="33.53122586633721" lon="-5.106563771816173"><ele>1632.0</ele><time>2026-04-27T12:21:47.001Z</time></trkpt><trkpt lat="33.53136627529167" lon="-5.106604762202924"><ele>1631.5</ele><time>2026-04-27T12:21:48.001Z</time></trkpt><trkpt lat="33.53150972053375" lon="-5.106637005800994"><ele>1631.0</ele><time>2026-04-27T12:21:49.001Z</time></trkpt><trkpt lat="33.531655012559256" lon="-5.106653564372547"><ele>1631.0</ele><time>2026-04-27T12:21:50.001Z</time></trkpt><trkpt lat="33.53179968994926" lon="-5.106650558285896"><ele>1631.0</ele><time>2026-04-27T12:21:51.001Z</time></trkpt><trkpt lat="33.531931726698254" lon="-5.106630413809524"><ele>1631.0</ele><time>2026-04-27T12:21:52.001Z</time></trkpt><trkpt lat="33.53204815913955" lon="-5.106588388554775"><ele>1631.0</ele><time>2026-04-27T12:21:53.001Z</time></trkpt><trkpt lat="33.532154241301825" lon="-5.1065292490099115"><ele>1630.75</ele><time>2026-04-27T12:21:54.001Z</time></trkpt><trkpt lat="33.53226139186797" lon="-5.106442869708885"><ele>1630.5</ele><time>2026-04-27T12:21:55.001Z</time></trkpt><trkpt lat="33.53235765024128" lon="-5.10631576798528"><ele>1630.25</ele><time>2026-04-27T12:21:56.001Z</time></trkpt><trkpt lat="33.532476880359155" lon="-5.106203849841703"><ele>1630.0</ele><time>2026-04-27T12:21:57.001Z</time></trkpt><trkpt lat="33.53257330628886" lon="-5.106067776042265"><ele>1630.0</ele><time>2026-04-27T12:21:58.001Z</time></trkpt><trkpt lat="33.53267928523081" lon="-5.105940726626228"><ele>1630.0</ele><time>2026-04-27T12:21:59.001Z</time></trkpt><trkpt lat="33.532786468485796" lon="-5.105814803756463"><ele>1630.0</ele><time>2026-04-27T12:22:00.001Z</time></trkpt><trkpt lat="33.53290254200825" lon="-5.105699040688583"><ele>1631.6666666666667</ele><time>2026-04-27T12:22:01.001Z</time></trkpt><trkpt lat="33.532996769752906" lon="-5.105558722747529"><ele>1633.3333333333335</ele><time>2026-04-27T12:22:02.001Z</time></trkpt><trkpt lat="33.53308450529278" lon="-5.105409500873749"><ele>1635.0</ele><time>2026-04-27T12:22:03.001Z</time></trkpt><trkpt lat="33.53316058722236" lon="-5.105252234304468"><ele>1635.0</ele><time>2026-04-27T12:22:04Z</time></trkpt><trkpt lat="33.53322252463556" lon="-5.105085768353831"><ele>1635.0</ele><time>2026-04-27T12:22:05Z</time></trkpt><trkpt lat="33.533258913976205" lon="-5.104906708304133"><ele>1635.0</ele><time>2026-04-27T12:22:06Z</time></trkpt><trkpt lat="33.53328721018646" lon="-5.104731420470548"><ele>1634.75</ele><time>2026-04-27T12:22:07Z</time></trkpt><trkpt lat="33.533305273159066" lon="-5.104557362675951"><ele>1634.5</ele><time>2026-04-27T12:22:08Z</time></trkpt><trkpt lat="33.53332210295887" lon="-5.104395991908516"><ele>1634.25</ele><time>2026-04-27T12:22:09Z</time></trkpt><trkpt lat="33.5333317385165" lon="-5.104236608459087"><ele>1634.0</ele><time>2026-04-27T12:22:10Z</time></trkpt><trkpt lat="33.53334117648328" lon="-5.1040749132873025"><ele>1634.0</ele><time>2026-04-27T12:22:11Z</time></trkpt><trkpt lat="33.53334803738694" lon="-5.10391211729152"><ele>1634.0</ele><time>2026-04-27T12:22:12Z</time></trkpt><trkpt lat="33.53335527502509" lon="-5.103745786192769"><ele>1634.0</ele><time>2026-04-27T12:22:13Z</time></trkpt><trkpt lat="33.5333663386212" lon="-5.103575294053828"><ele>1634.0</ele><time>2026-04-27T12:22:14Z</time></trkpt><trkpt lat="33.53337792386931" lon="-5.103399841240089"><ele>1635.3333333333333</ele><time>2026-04-27T12:22:15Z</time></trkpt><trkpt lat="33.53339762893102" lon="-5.103215418849832"><ele>1636.6666666666665</ele><time>2026-04-27T12:22:16Z</time></trkpt><trkpt lat="33.53343524440357" lon="-5.103030334586155"><ele>1638.0</ele><time>2026-04-27T12:22:17Z</time></trkpt><trkpt lat="33.53349211400828" lon="-5.10285068033835"><ele>1638.0</ele><time>2026-04-27T12:22:18Z</time></trkpt><trkpt lat="33.533581036511286" lon="-5.102680958909147"><ele>1638.0</ele><time>2026-04-27T12:22:19Z</time></trkpt><trkpt lat="33.533679585820174" lon="-5.102517693022545"><ele>1638.0</ele><time>2026-04-27T12:22:20Z</time></trkpt><trkpt lat="33.53379435859866" lon="-5.10236582691602"><ele>1640.3333333333335</ele><time>2026-04-27T12:22:21Z</time></trkpt><trkpt lat="33.53393755313219" lon="-5.102250875069038"><ele>1642.6666666666667</ele><time>2026-04-27T12:22:22Z</time></trkpt><trkpt lat="33.5340818332408" lon="-5.102136735340338"><ele>1645.0</ele><time>2026-04-27T12:22:23Z</time></trkpt><trkpt lat="33.53423198003911" lon="-5.10205041168972"><ele>1645.0</ele><time>2026-04-27T12:22:24Z</time></trkpt><trkpt lat="33.534376196702674" lon="-5.1019896539251235"><ele>1645.0</ele><time>2026-04-27T12:22:25Z</time></trkpt><trkpt lat="33.534512417865386" lon="-5.1019372010991235"><ele>1645.0</ele><time>2026-04-27T12:22:26Z</time></trkpt><trkpt lat="33.53465089010624" lon="-5.101904585471995"><ele>1645.0</ele><time>2026-04-27T12:22:27Z</time></trkpt><trkpt lat="33.53478761777144" lon="-5.101885156806359"><ele>1644.75</ele><time>2026-04-27T12:22:28Z</time></trkpt><trkpt lat="33.53492505474735" lon="-5.101882088507407"><ele>1644.5</ele><time>2026-04-27T12:22:29Z</time></trkpt><trkpt lat="33.53506357521721" lon="-5.1018876296306965"><ele>1644.25</ele><time>2026-04-27T12:22:30Z</time></trkpt><trkpt lat="33.535200203215986" lon="-5.101895278098391"><ele>1644.0</ele><time>2026-04-27T12:22:31Z</time></trkpt><trkpt lat="33.535337561104335" lon="-5.101903077181226"><ele>1644.25</ele><time>2026-04-27T12:22:32Z</time></trkpt><trkpt lat="33.53547939641678" lon="-5.101912295236246"><ele>1644.5</ele><time>2026-04-27T12:22:33Z</time></trkpt><trkpt lat="33.535627242456606" lon="-5.101921953645986"><ele>1644.75</ele><time>2026-04-27T12:22:34Z</time></trkpt><trkpt lat="33.535775673874866" lon="-5.101931931768001"><ele>1645.0</ele><time>2026-04-27T12:22:35Z</time></trkpt><trkpt lat="33.53590068789861" lon="-5.101937894256856"><ele>1645.0</ele><time>2026-04-27T12:22:36Z</time></trkpt><trkpt lat="33.53600731116625" lon="-5.101943392180871"><ele>1645.0</ele><time>2026-04-27T12:22:37Z</time></trkpt><trkpt lat="33.53610411752417" lon="-5.101949554350211"><ele>1645.0</ele><time>2026-04-27T12:22:38Z</time></trkpt><trkpt lat="33.53620422409811" lon="-5.1019569954310615"><ele>1645.0</ele><time>2026-04-27T12:22:39Z</time></trkpt><trkpt lat="33.536315925976716" lon="-5.101964145587591"><ele>1645.0</ele><time>2026-04-27T12:22:40Z</time></trkpt><trkpt lat="33.5364372524545" lon="-5.101972174576275"><ele>1645.5</ele><time>2026-04-27T12:22:41Z</time></trkpt><trkpt lat="33.53655934449549" lon="-5.101977470232791"><ele>1646.0</ele><time>2026-04-27T12:22:42Z</time></trkpt><trkpt lat="33.53668001414903" lon="-5.1019854384269445"><ele>1646.5</ele><time>2026-04-27T12:22:43Z</time></trkpt><trkpt lat="33.53680733183029" lon="-5.101991380562991"><ele>1647.0</ele><time>2026-04-27T12:22:44Z</time></trkpt><trkpt lat="33.53693972843837" lon="-5.102000352892343"><ele>1647.25</ele><time>2026-04-27T12:22:45Z</time></trkpt><trkpt lat="33.5370757015518" lon="-5.102007264505208"><ele>1647.5</ele><time>2026-04-27T12:22:46Z</time></trkpt><trkpt lat="33.53721581173842" lon="-5.102015729008588"><ele>1647.75</ele><time>2026-04-27T12:22:47Z</time></trkpt><trkpt lat="33.53736156558691" lon="-5.102025546990944"><ele>1648.0</ele><time>2026-04-27T12:22:48Z</time></trkpt><trkpt lat="33.53750879127483" lon="-5.102040532321147"><ele>1648.0</ele><time>2026-04-27T12:22:49Z</time></trkpt><trkpt lat="33.53765859657862" lon="-5.102057117182375"><ele>1648.0</ele><time>2026-04-27T12:22:50Z</time></trkpt><trkpt lat="33.53780371525796" lon="-5.102048458609486"><ele>1648.0</ele><time>2026-04-27T12:22:51Z</time></trkpt><trkpt lat="33.53827814431712" lon="-5.102103541418199"><ele>1647.3333333333335</ele><time>2026-04-27T12:22:54Z</time></trkpt><trkpt lat="33.538447603999785" lon="-5.102109481007132"><ele>1646.6666666666665</ele><time>2026-04-27T12:22:55Z</time></trkpt><trkpt lat="33.53861562371496" lon="-5.10211792964658"><ele>1646.0</ele><time>2026-04-27T12:22:56Z</time></trkpt><trkpt lat="33.53879314030004" lon="-5.1021275029572175"><ele>1643.6666666666665</ele><time>2026-04-27T12:22:57Z</time></trkpt><trkpt lat="33.53897690896111" lon="-5.10214301996295"><ele>1641.3333333333335</ele><time>2026-04-27T12:22:58Z</time></trkpt><trkpt lat="33.53916222744247" lon="-5.102159200248092"><ele>1639.0</ele><time>2026-04-27T12:22:59Z</time></trkpt><trkpt lat="33.5393465019404" lon="-5.102174549085625"><ele>1639.0</ele><time>2026-04-27T12:23:00Z</time></trkpt><trkpt lat="33.53952917717835" lon="-5.102188764277012"><ele>1639.0</ele><time>2026-04-27T12:23:01Z</time></trkpt><trkpt lat="33.539709968848435" lon="-5.102192495582267"><ele>1639.0</ele><time>2026-04-27T12:23:02Z</time></trkpt><trkpt lat="33.53989240670568" lon="-5.102182914232585"><ele>1636.3333333333335</ele><time>2026-04-27T12:23:03Z</time></trkpt><trkpt lat="33.54007550594646" lon="-5.102155048501368"><ele>1633.6666666666665</ele><time>2026-04-27T12:23:04Z</time></trkpt><trkpt lat="33.5402595564436" lon="-5.1021060540456125"><ele>1631.0</ele><time>2026-04-27T12:23:05Z</time></trkpt><trkpt lat="33.540446348248224" lon="-5.102036710004015"><ele>1630.3333333333333</ele><time>2026-04-27T12:23:06Z</time></trkpt><trkpt lat="33.54062183415656" lon="-5.101946475742857"><ele>1629.6666666666665</ele><time>2026-04-27T12:23:07Z</time></trkpt><trkpt lat="33.540809201293094" lon="-5.101822715699916"><ele>1629.0</ele><time>2026-04-27T12:23:08Z</time></trkpt><trkpt lat="33.54097843987172" lon="-5.101674336233009"><ele>1628.0</ele><time>2026-04-27T12:23:09Z</time></trkpt><trkpt lat="33.541130408310416" lon="-5.10150030104267"><ele>1627.0</ele><time>2026-04-27T12:23:10Z</time></trkpt><trkpt lat="33.5412628100773" lon="-5.101303892815911"><ele>1626.0</ele><time>2026-04-27T12:23:11Z</time></trkpt><trkpt lat="33.541391969352205" lon="-5.101099899903939"><ele>1626.0</ele><time>2026-04-27T12:23:12Z</time></trkpt><trkpt lat="33.541523543781246" lon="-5.100897373599554"><ele>1626.0</ele><time>2026-04-27T12:23:13Z</time></trkpt><trkpt lat="33.54165256328154" lon="-5.1006972662798225"><ele>1626.0</ele><time>2026-04-27T12:23:14Z</time></trkpt><trkpt lat="33.54177942787115" lon="-5.100498299347436"><ele>1624.0</ele><time>2026-04-27T12:23:15Z</time></trkpt><trkpt lat="33.541889360954464" lon="-5.100287740760864"><ele>1622.0</ele><time>2026-04-27T12:23:16Z</time></trkpt><trkpt lat="33.542013109588545" lon="-5.100082699033799"><ele>1620.0</ele><time>2026-04-27T12:23:17.001Z</time></trkpt><trkpt lat="33.542152722922786" lon="-5.099884850368267"><ele>1618.6666666666665</ele><time>2026-04-27T12:23:18.001Z</time></trkpt><trkpt lat="33.542323821605066" lon="-5.099718879987241"><ele>1617.3333333333333</ele><time>2026-04-27T12:23:19.001Z</time></trkpt><trkpt lat="33.54250044249573" lon="-5.099555730165141"><ele>1616.0</ele><time>2026-04-27T12:23:20.001Z</time></trkpt><trkpt lat="33.54269481293498" lon="-5.099412390751851"><ele>1618.0</ele><time>2026-04-27T12:23:21.001Z</time></trkpt><trkpt lat="33.5429064576629" lon="-5.0992913441712675"><ele>1620.0</ele><time>2026-04-27T12:23:22Z</time></trkpt><trkpt lat="33.54312952027095" lon="-5.099184854593995"><ele>1618.5</ele><time>2026-04-27T12:23:23Z</time></trkpt><trkpt lat="33.543361759865405" lon="-5.099079958752062"><ele>1617.0</ele><time>2026-04-27T12:23:24.001Z</time></trkpt><trkpt lat="33.54360065761894" lon="-5.0989671665646235"><ele>1616.5</ele><time>2026-04-27T12:23:25.001Z</time></trkpt><trkpt lat="33.54384503002898" lon="-5.098850954223286"><ele>1616.0</ele><time>2026-04-27T12:23:26.001Z</time></trkpt><trkpt lat="33.54409261110989" lon="-5.098734467758392"><ele>1616.0</ele><time>2026-04-27T12:23:27.001Z</time></trkpt><trkpt lat="33.544337529302986" lon="-5.0986215874960905"><ele>1616.0</ele><time>2026-04-27T12:23:28.001Z</time></trkpt><trkpt lat="33.54457793117496" lon="-5.098509594555519"><ele>1616.0</ele><time>2026-04-27T12:23:29.001Z</time></trkpt><trkpt lat="33.54481455892069" lon="-5.098399230761664"><ele>1616.0</ele><time>2026-04-27T12:23:30.001Z</time></trkpt><trkpt lat="33.545047873682066" lon="-5.0982929282206815"><ele>1614.5</ele><time>2026-04-27T12:23:31.001Z</time></trkpt><trkpt lat="33.54527651475212" lon="-5.0981866908247255"><ele>1613.0</ele><time>2026-04-27T12:23:32.001Z</time></trkpt><trkpt lat="33.545497289366594" lon="-5.098081357730823"><ele>1612.5</ele><time>2026-04-27T12:23:33.001Z</time></trkpt><trkpt lat="33.54571404176763" lon="-5.09799004568518"><ele>1612.0</ele><time>2026-04-27T12:23:34.001Z</time></trkpt><trkpt lat="33.545941488572" lon="-5.097924470765642"><ele>1612.0</ele><time>2026-04-27T12:23:35.001Z</time></trkpt><trkpt lat="33.54617279120339" lon="-5.097885679240922"><ele>1612.0</ele><time>2026-04-27T12:23:36.001Z</time></trkpt><trkpt lat="33.54640612897114" lon="-5.097869247819268"><ele>1611.3333333333335</ele><time>2026-04-27T12:23:37.001Z</time></trkpt><trkpt lat="33.5466341131696" lon="-5.097858335179143"><ele>1610.6666666666665</ele><time>2026-04-27T12:23:38.001Z</time></trkpt><trkpt lat="33.54685240292489" lon="-5.0978451105163725"><ele>1610.0</ele><time>2026-04-27T12:23:39.001Z</time></trkpt><trkpt lat="33.54706350526088" lon="-5.097827764121267"><ele>1610.0</ele><time>2026-04-27T12:23:40.001Z</time></trkpt><trkpt lat="33.54726818028351" lon="-5.097803140077242"><ele>1610.0</ele><time>2026-04-27T12:23:41.001Z</time></trkpt><trkpt lat="33.547469433954234" lon="-5.097766355301426"><ele>1610.0</ele><time>2026-04-27T12:23:42Z</time></trkpt><trkpt lat="33.547669115942995" lon="-5.097707588541824"><ele>1610.0</ele><time>2026-04-27T12:23:43Z</time></trkpt><trkpt lat="33.547863850885975" lon="-5.097638264099371"><ele>1610.0</ele><time>2026-04-27T12:23:44Z</time></trkpt><trkpt lat="33.54804930819806" lon="-5.097566103919827"><ele>1610.0</ele><time>2026-04-27T12:23:45Z</time></trkpt><trkpt lat="33.54822598504799" lon="-5.097490539148648"><ele>1608.6666666666665</ele><time>2026-04-27T12:23:46Z</time></trkpt><trkpt lat="33.54839982121392" lon="-5.097408196333761"><ele>1607.3333333333335</ele><time>2026-04-27T12:23:47Z</time></trkpt><trkpt lat="33.54856452630127" lon="-5.097321470372003"><ele>1606.0</ele><time>2026-04-27T12:23:48Z</time></trkpt><trkpt lat="33.54872144035225" lon="-5.097239782605163"><ele>1605.6666666666667</ele><time>2026-04-27T12:23:49Z</time></trkpt><trkpt lat="33.548873108886966" lon="-5.097161338814359"><ele>1605.3333333333335</ele><time>2026-04-27T12:23:50Z</time></trkpt><trkpt lat="33.549015465403855" lon="-5.097087854616622"><ele>1605.0</ele><time>2026-04-27T12:23:51Z</time></trkpt><trkpt lat="33.54915265486205" lon="-5.0970176135222385"><ele>1605.0</ele><time>2026-04-27T12:23:52Z</time></trkpt><trkpt lat="33.54928650571324" lon="-5.096949308717293"><ele>1605.0</ele><time>2026-04-27T12:23:53Z</time></trkpt><trkpt lat="33.54941764063576" lon="-5.096877260403095"><ele>1605.0</ele><time>2026-04-27T12:23:54Z</time></trkpt><trkpt lat="33.54954906478133" lon="-5.096806396682608"><ele>1605.0</ele><time>2026-04-27T12:23:55Z</time></trkpt><trkpt lat="33.549678840564304" lon="-5.096737622173438"><ele>1605.75</ele><time>2026-04-27T12:23:56Z</time></trkpt><trkpt lat="33.54980778850463" lon="-5.0966699586295725"><ele>1606.5</ele><time>2026-04-27T12:23:57Z</time></trkpt><trkpt lat="33.549938765530264" lon="-5.096603985516551"><ele>1607.25</ele><time>2026-04-27T12:23:58Z</time></trkpt><trkpt lat="33.55007398431896" lon="-5.096534681400461"><ele>1608.0</ele><time>2026-04-27T12:23:59Z</time></trkpt><trkpt lat="33.55020870097745" lon="-5.096465583586934"><ele>1608.25</ele><time>2026-04-27T12:24:00Z</time></trkpt><trkpt lat="33.550343887149424" lon="-5.096400566422431"><ele>1608.5</ele><time>2026-04-27T12:24:01Z</time></trkpt><trkpt lat="33.55047746328999" lon="-5.096345299884695"><ele>1608.75</ele><time>2026-04-27T12:24:02Z</time></trkpt><trkpt lat="33.55060826876764" lon="-5.096299470340438"><ele>1609.0</ele><time>2026-04-27T12:24:03Z</time></trkpt><trkpt lat="33.55073698234512" lon="-5.096262336434917"><ele>1609.25</ele><time>2026-04-27T12:24:04Z</time></trkpt><trkpt lat="33.5508625179595" lon="-5.096237268565689"><ele>1609.5</ele><time>2026-04-27T12:24:05Z</time></trkpt><trkpt lat="33.550988049654386" lon="-5.096223434960336"><ele>1609.75</ele><time>2026-04-27T12:24:06Z</time></trkpt><trkpt lat="33.55111837820805" lon="-5.096222581216605"><ele>1610.0</ele><time>2026-04-27T12:24:07Z</time></trkpt><trkpt lat="33.5512528281264" lon="-5.096246264054345"><ele>1610.25</ele><time>2026-04-27T12:24:08Z</time></trkpt><trkpt lat="33.55138814609252" lon="-5.096293469872061"><ele>1610.5</ele><time>2026-04-27T12:24:09Z</time></trkpt><trkpt lat="33.55153272959949" lon="-5.0963255054844705"><ele>1610.75</ele><time>2026-04-27T12:24:10Z</time></trkpt><trkpt lat="33.55167852359508" lon="-5.096404033111022"><ele>1611.0</ele><time>2026-04-27T12:24:11Z</time></trkpt><trkpt lat="33.5518252642916" lon="-5.09650205355893"><ele>1611.0</ele><time>2026-04-27T12:24:12Z</time></trkpt><trkpt lat="33.55200226206727" lon="-5.096580497680003"><ele>1611.0</ele><time>2026-04-27T12:24:13Z</time></trkpt><trkpt lat="33.552190387497646" lon="-5.096682140092935"><ele>1611.0</ele><time>2026-04-27T12:24:14Z</time></trkpt><trkpt lat="33.55238576000908" lon="-5.096808784317773"><ele>1610.5</ele><time>2026-04-27T12:24:15Z</time></trkpt><trkpt lat="33.552601955353715" lon="-5.096916997385984"><ele>1610.0</ele><time>2026-04-27T12:24:16Z</time></trkpt><trkpt lat="33.552828990766905" lon="-5.097031779293631"><ele>1611.0</ele><time>2026-04-27T12:24:17Z</time></trkpt><trkpt lat="33.55306205173054" lon="-5.097151221699527"><ele>1612.0</ele><time>2026-04-27T12:24:18Z</time></trkpt><trkpt lat="33.55329591837314" lon="-5.0972744103879215"><ele>1612.0</ele><time>2026-04-27T12:24:19Z</time></trkpt><trkpt lat="33.553522648222355" lon="-5.097399655112909"><ele>1612.0</ele><time>2026-04-27T12:24:20Z</time></trkpt><trkpt lat="33.553738501015914" lon="-5.097519985222285"><ele>1611.0</ele><time>2026-04-27T12:24:21Z</time></trkpt><trkpt lat="33.5539431443889" lon="-5.097631576775708"><ele>1610.0</ele><time>2026-04-27T12:24:22Z</time></trkpt><trkpt lat="33.55414622777136" lon="-5.097736598603957"><ele>1609.0</ele><time>2026-04-27T12:24:23Z</time></trkpt><trkpt lat="33.554346931980895" lon="-5.097815872923118"><ele>1609.3333333333335</ele><time>2026-04-27T12:24:24Z</time></trkpt><trkpt lat="33.55455762473515" lon="-5.097860669592081"><ele>1609.6666666666665</ele><time>2026-04-27T12:24:25Z</time></trkpt><trkpt lat="33.554780311682656" lon="-5.097874959543379"><ele>1610.0</ele><time>2026-04-27T12:24:26Z</time></trkpt><trkpt lat="33.555011377060495" lon="-5.0978595864578224"><ele>1610.0</ele><time>2026-04-27T12:24:27Z</time></trkpt><trkpt lat="33.55524940684551" lon="-5.097828359448505"><ele>1610.0</ele><time>2026-04-27T12:24:28Z</time></trkpt><trkpt lat="33.55549590379483" lon="-5.097795567838624"><ele>1610.0</ele><time>2026-04-27T12:24:29Z</time></trkpt><trkpt lat="33.55574621104937" lon="-5.097766185262293"><ele>1610.0</ele><time>2026-04-27T12:24:30Z</time></trkpt><trkpt lat="33.5559987462495" lon="-5.097736095121683"><ele>1609.5</ele><time>2026-04-27T12:24:31Z</time></trkpt><trkpt lat="33.55625053308186" lon="-5.0977055134190525"><ele>1609.0</ele><time>2026-04-27T12:24:32Z</time></trkpt><trkpt lat="33.55649628760098" lon="-5.097674830305795"><ele>1609.0</ele><time>2026-04-27T12:24:33Z</time></trkpt><trkpt lat="33.556735372877164" lon="-5.097643866006103"><ele>1609.0</ele><time>2026-04-27T12:24:34Z</time></trkpt><trkpt lat="33.55696579663609" lon="-5.097617861207438"><ele>1609.6666666666667</ele><time>2026-04-27T12:24:35Z</time></trkpt><trkpt lat="33.55718473596117" lon="-5.0975939377066375"><ele>1610.3333333333335</ele><time>2026-04-27T12:24:36Z</time></trkpt><trkpt lat="33.557397179885534" lon="-5.097563862332048"><ele>1611.0</ele><time>2026-04-27T12:24:37Z</time></trkpt><trkpt lat="33.55760306299074" lon="-5.097520706146452"><ele>1611.0</ele><time>2026-04-27T12:24:38Z</time></trkpt><trkpt lat="33.557814516346276" lon="-5.097445406836029"><ele>1611.0</ele><time>2026-04-27T12:24:39Z</time></trkpt><trkpt lat="33.558043390998684" lon="-5.097396515893699"><ele>1610.0</ele><time>2026-04-27T12:24:40Z</time></trkpt><trkpt lat="33.55827505776188" lon="-5.097316606216807"><ele>1609.0</ele><time>2026-04-27T12:24:41Z</time></trkpt><trkpt lat="33.5585109448866" lon="-5.097236283263653"><ele>1610.0</ele><time>2026-04-27T12:24:42Z</time></trkpt><trkpt lat="33.558750488471944" lon="-5.0971603206658145"><ele>1611.0</ele><time>2026-04-27T12:24:43Z</time></trkpt><trkpt lat="33.55899889317286" lon="-5.097085755083957"><ele>1611.0</ele><time>2026-04-27T12:24:44Z</time></trkpt><trkpt lat="33.5592488737899" lon="-5.097009555288925"><ele>1611.0</ele><time>2026-04-27T12:24:45Z</time></trkpt><trkpt lat="33.55950027157318" lon="-5.096931865326799"><ele>1611.0</ele><time>2026-04-27T12:24:46Z</time></trkpt><trkpt lat="33.559753845926934" lon="-5.0968529157651625"><ele>1611.0</ele><time>2026-04-27T12:24:47Z</time></trkpt><trkpt lat="33.56001085035697" lon="-5.096772979188578"><ele>1611.0</ele><time>2026-04-27T12:24:48Z</time></trkpt><trkpt lat="33.560268893126924" lon="-5.096693250922308"><ele>1611.0</ele><time>2026-04-27T12:24:49Z</time></trkpt><trkpt lat="33.560529633812024" lon="-5.096612276249655"><ele>1611.0</ele><time>2026-04-27T12:24:50Z</time></trkpt><trkpt lat="33.56078796531739" lon="-5.096532190234978"><ele>1611.0</ele><time>2026-04-27T12:24:51Z</time></trkpt><trkpt lat="33.56103968552681" lon="-5.096454405963403"><ele>1610.0</ele><time>2026-04-27T12:24:52Z</time></trkpt><trkpt lat="33.561278986194004" lon="-5.09638348808074"><ele>1609.0</ele><time>2026-04-27T12:24:53Z</time></trkpt><trkpt lat="33.561517546169604" lon="-5.096321582830654"><ele>1609.0</ele><time>2026-04-27T12:24:54Z</time></trkpt><trkpt lat="33.56176499462286" lon="-5.0962815160463935"><ele>1609.0</ele><time>2026-04-27T12:24:55Z</time></trkpt><trkpt lat="33.56202520453349" lon="-5.096269563741996"><ele>1608.5</ele><time>2026-04-27T12:24:56Z</time></trkpt><trkpt lat="33.56229739821571" lon="-5.0962754594046"><ele>1608.0</ele><time>2026-04-27T12:24:57Z</time></trkpt><trkpt lat="33.56257813793714" lon="-5.0962886399576215"><ele>1607.0</ele><time>2026-04-27T12:24:58Z</time></trkpt><trkpt lat="33.56286751330167" lon="-5.096303150754212"><ele>1606.0</ele><time>2026-04-27T12:24:59Z</time></trkpt><trkpt lat="33.563157386763216" lon="-5.096314423069503"><ele>1606.0</ele><time>2026-04-27T12:25:00Z</time></trkpt><trkpt lat="33.56344946049729" lon="-5.096326657944332"><ele>1606.0</ele><time>2026-04-27T12:25:01Z</time></trkpt><trkpt lat="33.56374551995428" lon="-5.096341290449507"><ele>1606.0</ele><time>2026-04-27T12:25:02Z</time></trkpt><trkpt lat="33.56405325106872" lon="-5.09635557696788"><ele>1606.0</ele><time>2026-04-27T12:25:03Z</time></trkpt><trkpt lat="33.56436611763889" lon="-5.096369547172043"><ele>1604.5</ele><time>2026-04-27T12:25:04Z</time></trkpt><trkpt lat="33.5646856059229" lon="-5.096383955697165"><ele>1603.0</ele><time>2026-04-27T12:25:05Z</time></trkpt><trkpt lat="33.56501109622124" lon="-5.096399778664698"><ele>1603.0</ele><time>2026-04-27T12:25:06Z</time></trkpt><trkpt lat="33.5653406415029" lon="-5.0964144429243925"><ele>1603.0</ele><time>2026-04-27T12:25:07Z</time></trkpt><trkpt lat="33.56567361921933" lon="-5.0964278244864705"><ele>1601.5</ele><time>2026-04-27T12:25:08Z</time></trkpt><trkpt lat="33.56600936110682" lon="-5.096442231801895"><ele>1600.0</ele><time>2026-04-27T12:25:09Z</time></trkpt><trkpt lat="33.56634716102222" lon="-5.0964577700516465"><ele>1598.0</ele><time>2026-04-27T12:25:10Z</time></trkpt><trkpt lat="33.56668824105563" lon="-5.096474069641815"><ele>1596.0</ele><time>2026-04-27T12:25:11Z</time></trkpt><trkpt lat="33.56702895643889" lon="-5.096490359396714"><ele>1595.5</ele><time>2026-04-27T12:25:12Z</time></trkpt><trkpt lat="33.56736370252341" lon="-5.0965028947905076"><ele>1595.0</ele><time>2026-04-27T12:25:13Z</time></trkpt><trkpt lat="33.56769243178522" lon="-5.096514776750011"><ele>1594.0</ele><time>2026-04-27T12:25:14Z</time></trkpt><trkpt lat="33.56800905483358" lon="-5.096529698717684"><ele>1593.0</ele><time>2026-04-27T12:25:15Z</time></trkpt><trkpt lat="33.568312450254275" lon="-5.096544341193457"><ele>1593.0</ele><time>2026-04-27T12:25:16Z</time></trkpt><trkpt lat="33.56860742644903" lon="-5.096556027402867"><ele>1593.0</ele><time>2026-04-27T12:25:17Z</time></trkpt><trkpt lat="33.568893139873886" lon="-5.096555478295462"><ele>1593.5</ele><time>2026-04-27T12:25:18Z</time></trkpt><trkpt lat="33.56917324625742" lon="-5.096530640823844"><ele>1594.0</ele><time>2026-04-27T12:25:19Z</time></trkpt><trkpt lat="33.56945346684103" lon="-5.096481260154754"><ele>1593.5</ele><time>2026-04-27T12:25:20Z</time></trkpt><trkpt lat="33.56973257509475" lon="-5.096413837626016"><ele>1593.0</ele><time>2026-04-27T12:25:21Z</time></trkpt><trkpt lat="33.5700094249071" lon="-5.096311124589723"><ele>1593.0</ele><time>2026-04-27T12:25:22Z</time></trkpt><trkpt lat="33.570278288428305" lon="-5.096188709710513"><ele>1593.0</ele><time>2026-04-27T12:25:23.001Z</time></trkpt><trkpt lat="33.57053629554894" lon="-5.096060699064194"><ele>1591.0</ele><time>2026-04-27T12:25:24.001Z</time></trkpt><trkpt lat="33.570791347259764" lon="-5.095942008392397"><ele>1589.0</ele><time>2026-04-27T12:25:25.001Z</time></trkpt><trkpt lat="33.57105816079788" lon="-5.09583559468152"><ele>1589.0</ele><time>2026-04-27T12:25:26.001Z</time></trkpt><trkpt lat="33.57133781940693" lon="-5.095743779470146"><ele>1589.0</ele><time>2026-04-27T12:25:27.001Z</time></trkpt><trkpt lat="33.571623704318" lon="-5.09567114790376"><ele>1589.0</ele><time>2026-04-27T12:25:28.001Z</time></trkpt><trkpt lat="33.571905620344594" lon="-5.095608633946481"><ele>1589.0</ele><time>2026-04-27T12:25:29.001Z</time></trkpt><trkpt lat="33.57218540103829" lon="-5.095545163901456"><ele>1590.0</ele><time>2026-04-27T12:25:30.001Z</time></trkpt><trkpt lat="33.572472495122575" lon="-5.09548025172926"><ele>1591.0</ele><time>2026-04-27T12:25:31.001Z</time></trkpt><trkpt lat="33.572767898959995" lon="-5.095417376708136"><ele>1589.5</ele><time>2026-04-27T12:25:32.001Z</time></trkpt><trkpt lat="33.573066222805615" lon="-5.095353307014993"><ele>1588.0</ele><time>2026-04-27T12:25:33.001Z</time></trkpt><trkpt lat="33.573360782458735" lon="-5.095290278009639"><ele>1588.0</ele><time>2026-04-27T12:25:34.001Z</time></trkpt><trkpt lat="33.57365033183303" lon="-5.09522701772206"><ele>1588.0</ele><time>2026-04-27T12:25:35.001Z</time></trkpt><trkpt lat="33.573937174079404" lon="-5.0951632413612185"><ele>1586.5</ele><time>2026-04-27T12:25:36.001Z</time></trkpt><trkpt lat="33.57421737133577" lon="-5.095102046040925"><ele>1585.0</ele><time>2026-04-27T12:25:37.001Z</time></trkpt><trkpt lat="33.57448730915163" lon="-5.095040815531232"><ele>1584.5</ele><time>2026-04-27T12:25:38.001Z</time></trkpt><trkpt lat="33.57474971484162" lon="-5.094978823143758"><ele>1584.0</ele><time>2026-04-27T12:25:39.001Z</time></trkpt><trkpt lat="33.57499830127364" lon="-5.094916931823325"><ele>1584.0</ele><time>2026-04-27T12:25:40.001Z</time></trkpt><trkpt lat="33.575230627966334" lon="-5.094853479011187"><ele>1584.0</ele><time>2026-04-27T12:25:41.001Z</time></trkpt><trkpt lat="33.575444586534104" lon="-5.094784702814508"><ele>1584.0</ele><time>2026-04-27T12:25:42Z</time></trkpt><trkpt lat="33.57564001549145" lon="-5.094708723317065"><ele>1584.0</ele><time>2026-04-27T12:25:43Z</time></trkpt><trkpt lat="33.57580417885135" lon="-5.094626918099509"><ele>1584.0</ele><time>2026-04-27T12:25:44Z</time></trkpt><trkpt lat="33.57595502273415" lon="-5.094555665095234"><ele>1584.0</ele><time>2026-04-27T12:25:45Z</time></trkpt><trkpt lat="33.576096083010604" lon="-5.094493038859049"><ele>1584.0</ele><time>2026-04-27T12:25:46Z</time></trkpt><trkpt lat="33.576229726730084" lon="-5.094433240322637"><ele>1584.0</ele><time>2026-04-27T12:25:47Z</time></trkpt><trkpt lat="33.57636599562063" lon="-5.094368175911709"><ele>1584.0</ele><time>2026-04-27T12:25:48Z</time></trkpt><trkpt lat="33.57650119932378" lon="-5.094297168041707"><ele>1582.75</ele><time>2026-04-27T12:25:49Z</time></trkpt><trkpt lat="33.57663409928382" lon="-5.094225658264943"><ele>1581.5</ele><time>2026-04-27T12:25:50Z</time></trkpt><trkpt lat="33.57675936262765" lon="-5.094152260545428"><ele>1580.25</ele><time>2026-04-27T12:25:51Z</time></trkpt><trkpt lat="33.576880673774525" lon="-5.0940721895310626"><ele>1579.0</ele><time>2026-04-27T12:25:52Z</time></trkpt><trkpt lat="33.57700132246617" lon="-5.0939814620795785"><ele>1578.0</ele><time>2026-04-27T12:25:53Z</time></trkpt><trkpt lat="33.577119532457296" lon="-5.093882259330456"><ele>1577.0</ele><time>2026-04-27T12:25:54Z</time></trkpt><trkpt lat="33.57723427020802" lon="-5.093784326059883"><ele>1576.0</ele><time>2026-04-27T12:25:55Z</time></trkpt><trkpt lat="33.57734672066449" lon="-5.093685217767043"><ele>1575.0</ele><time>2026-04-27T12:25:56Z</time></trkpt><trkpt lat="33.577458903773966" lon="-5.093583664884305"><ele>1575.0</ele><time>2026-04-27T12:25:57Z</time></trkpt><trkpt lat="33.5775711604561" lon="-5.093477264317004"><ele>1575.0</ele><time>2026-04-27T12:25:58Z</time></trkpt><trkpt lat="33.577687321480425" lon="-5.0933661326990185"><ele>1575.0</ele><time>2026-04-27T12:25:59Z</time></trkpt><trkpt lat="33.57780557336773" lon="-5.093253396693517"><ele>1575.0</ele><time>2026-04-27T12:26:00Z</time></trkpt><trkpt lat="33.577923711872856" lon="-5.093140232192226"><ele>1573.0</ele><time>2026-04-27T12:26:01Z</time></trkpt><trkpt lat="33.57804323244269" lon="-5.093026239653334"><ele>1571.0</ele><time>2026-04-27T12:26:02Z</time></trkpt><trkpt lat="33.57816344912933" lon="-5.092911758874939"><ele>1569.0</ele><time>2026-04-27T12:26:03Z</time></trkpt><trkpt lat="33.578282097586445" lon="-5.09279979048466"><ele>1569.0</ele><time>2026-04-27T12:26:04Z</time></trkpt><trkpt lat="33.578406430220106" lon="-5.092681793716897"><ele>1569.0</ele><time>2026-04-27T12:26:05Z</time></trkpt><trkpt lat="33.57853509458392" lon="-5.092561188023362"><ele>1569.0</ele><time>2026-04-27T12:26:06Z</time></trkpt><trkpt lat="33.57866566087985" lon="-5.092436668600619"><ele>1568.3333333333335</ele><time>2026-04-27T12:26:07Z</time></trkpt><trkpt lat="33.578796124732015" lon="-5.092315269187054"><ele>1567.6666666666667</ele><time>2026-04-27T12:26:08Z</time></trkpt><trkpt lat="33.57892543603508" lon="-5.092193986125045"><ele>1567.0</ele><time>2026-04-27T12:26:09Z</time></trkpt><trkpt lat="33.5790562995242" lon="-5.092068039296017"><ele>1567.0</ele><time>2026-04-27T12:26:10Z</time></trkpt><trkpt lat="33.57918881154161" lon="-5.091941891272961"><ele>1567.0</ele><time>2026-04-27T12:26:11Z</time></trkpt><trkpt lat="33.579322547173426" lon="-5.0918199094226475"><ele>1567.0</ele><time>2026-04-27T12:26:12Z</time></trkpt><trkpt lat="33.57945826375108" lon="-5.091696403045827"><ele>1566.3333333333335</ele><time>2026-04-27T12:26:13Z</time></trkpt><trkpt lat="33.57959700367226" lon="-5.091575540411106"><ele>1565.6666666666665</ele><time>2026-04-27T12:26:14Z</time></trkpt><trkpt lat="33.57974318778947" lon="-5.091463250106096"><ele>1565.0</ele><time>2026-04-27T12:26:15Z</time></trkpt><trkpt lat="33.57989412855299" lon="-5.0913618694465494"><ele>1565.0</ele><time>2026-04-27T12:26:16Z</time></trkpt><trkpt lat="33.58004694545678" lon="-5.0912710442533795"><ele>1565.0</ele><time>2026-04-27T12:26:17Z</time></trkpt><trkpt lat="33.580195395312835" lon="-5.0911904385316396"><ele>1565.0</ele><time>2026-04-27T12:26:18Z</time></trkpt><trkpt lat="33.580346737545725" lon="-5.091120999105895"><ele>1564.3333333333333</ele><time>2026-04-27T12:26:19Z</time></trkpt><trkpt lat="33.5805019718177" lon="-5.091056777379601"><ele>1563.6666666666665</ele><time>2026-04-27T12:26:20Z</time></trkpt><trkpt lat="33.58066569744338" lon="-5.091000876801845"><ele>1563.0</ele><time>2026-04-27T12:26:21Z</time></trkpt><trkpt lat="33.58083797409872" lon="-5.090955362955287"><ele>1563.0</ele><time>2026-04-27T12:26:22Z</time></trkpt><trkpt lat="33.5810142072025" lon="-5.0909164632854464"><ele>1563.0</ele><time>2026-04-27T12:26:23Z</time></trkpt><trkpt lat="33.58123076757781" lon="-5.090865212942588"><ele>1563.0</ele><time>2026-04-27T12:26:24Z</time></trkpt><trkpt lat="33.58145097157397" lon="-5.090802553784971"><ele>1563.0</ele><time>2026-04-27T12:26:25Z</time></trkpt><trkpt lat="33.58168430895387" lon="-5.090730056427429"><ele>1563.0</ele><time>2026-04-27T12:26:26Z</time></trkpt><trkpt lat="33.58192749082434" lon="-5.090658645249663"><ele>1562.5</ele><time>2026-04-27T12:26:27Z</time></trkpt><trkpt lat="33.582180567862125" lon="-5.090590277080303"><ele>1562.0</ele><time>2026-04-27T12:26:28Z</time></trkpt><trkpt lat="33.582443658973254" lon="-5.090521129394373"><ele>1562.0</ele><time>2026-04-27T12:26:29Z</time></trkpt><trkpt lat="33.582713766206226" lon="-5.090451375487997"><ele>1562.0</ele><time>2026-04-27T12:26:30Z</time></trkpt><trkpt lat="33.58298341494187" lon="-5.090381156028772"><ele>1560.5</ele><time>2026-04-27T12:26:31Z</time></trkpt><trkpt lat="33.583255004709955" lon="-5.090308420536003"><ele>1559.0</ele><time>2026-04-27T12:26:32Z</time></trkpt><trkpt lat="33.58352707791936" lon="-5.090236329066643"><ele>1558.5</ele><time>2026-04-27T12:26:33Z</time></trkpt><trkpt lat="33.58380100384812" lon="-5.090165971571564"><ele>1558.0</ele><time>2026-04-27T12:26:34Z</time></trkpt><trkpt lat="33.58407411750063" lon="-5.090097551707268"><ele>1558.0</ele><time>2026-04-27T12:26:35Z</time></trkpt><trkpt lat="33.584349159637355" lon="-5.090025096043974"><ele>1558.0</ele><time>2026-04-27T12:26:36Z</time></trkpt><trkpt lat="33.584623486556744" lon="-5.089944723646186"><ele>1557.5</ele><time>2026-04-27T12:26:37Z</time></trkpt><trkpt lat="33.584901448114536" lon="-5.089851642357057"><ele>1557.0</ele><time>2026-04-27T12:26:38Z</time></trkpt><trkpt lat="33.58518222541554" lon="-5.089748914113446"><ele>1557.0</ele><time>2026-04-27T12:26:39Z</time></trkpt><trkpt lat="33.585463475831155" lon="-5.089635756065564"><ele>1557.0</ele><time>2026-04-27T12:26:40Z</time></trkpt><trkpt lat="33.585742415178466" lon="-5.089517818647694"><ele>1557.0</ele><time>2026-04-27T12:26:41Z</time></trkpt><trkpt lat="33.586020057800894" lon="-5.089400013473519"><ele>1557.0</ele><time>2026-04-27T12:26:42Z</time></trkpt><trkpt lat="33.586296881283836" lon="-5.089280980638038"><ele>1557.0</ele><time>2026-04-27T12:26:43Z</time></trkpt><trkpt lat="33.586567563460285" lon="-5.089158875012453"><ele>1557.0</ele><time>2026-04-27T12:26:44Z</time></trkpt><trkpt lat="33.58683627422243" lon="-5.089042356597059"><ele>1556.0</ele><time>2026-04-27T12:26:45Z</time></trkpt><trkpt lat="33.58710387739199" lon="-5.088925645964383"><ele>1555.0</ele><time>2026-04-27T12:26:46Z</time></trkpt><trkpt lat="33.58736470257457" lon="-5.088813676208778"><ele>1555.0</ele><time>2026-04-27T12:26:47Z</time></trkpt><trkpt lat="33.58761802230348" lon="-5.088705743700065"><ele>1555.0</ele><time>2026-04-27T12:26:48Z</time></trkpt><trkpt lat="33.5878660699592" lon="-5.088597664392517"><ele>1553.5</ele><time>2026-04-27T12:26:49Z</time></trkpt><trkpt lat="33.58811008899107" lon="-5.088493388712275"><ele>1552.0</ele><time>2026-04-27T12:26:50Z</time></trkpt><trkpt lat="33.588350514451356" lon="-5.088391802228993"><ele>1552.0</ele><time>2026-04-27T12:26:51Z</time></trkpt><trkpt lat="33.58859358260155" lon="-5.088289497531214"><ele>1552.0</ele><time>2026-04-27T12:26:52Z</time></trkpt><trkpt lat="33.5888469330439" lon="-5.08819184365665"><ele>1551.0</ele><time>2026-04-27T12:26:53Z</time></trkpt><trkpt lat="33.58910724489134" lon="-5.088106019751518"><ele>1550.0</ele><time>2026-04-27T12:26:54Z</time></trkpt><trkpt lat="33.58937329454627" lon="-5.0880305130753944"><ele>1548.0</ele><time>2026-04-27T12:26:55Z</time></trkpt><trkpt lat="33.589644434464866" lon="-5.087967997204063"><ele>1546.0</ele><time>2026-04-27T12:26:56Z</time></trkpt><trkpt lat="33.589915896466294" lon="-5.087917051538655"><ele>1546.0</ele><time>2026-04-27T12:26:57Z</time></trkpt><trkpt lat="33.59018304004747" lon="-5.087879740171584"><ele>1546.0</ele><time>2026-04-27T12:26:58Z</time></trkpt><trkpt lat="33.590446677856576" lon="-5.087850869922856"><ele>1544.5</ele><time>2026-04-27T12:26:59Z</time></trkpt><trkpt lat="33.59070996982761" lon="-5.08781747561322"><ele>1543.0</ele><time>2026-04-27T12:27:00Z</time></trkpt><trkpt lat="33.590976597413025" lon="-5.0877730855424925"><ele>1541.5</ele><time>2026-04-27T12:27:01Z</time></trkpt><trkpt lat="33.5912463330908" lon="-5.0877172489529805"><ele>1540.0</ele><time>2026-04-27T12:27:02Z</time></trkpt><trkpt lat="33.591519246511886" lon="-5.087648952518667"><ele>1540.0</ele><time>2026-04-27T12:27:03Z</time></trkpt><trkpt lat="33.59178702606273" lon="-5.0875659693611395"><ele>1540.0</ele><time>2026-04-27T12:27:04Z</time></trkpt><trkpt lat="33.59199362933333" lon="-5.087491840309028"><ele>1540.25</ele><time>2026-04-27T12:27:05Z</time></trkpt><trkpt lat="33.592137096743954" lon="-5.087436247337358"><ele>1540.5</ele><time>2026-04-27T12:27:06Z</time></trkpt><trkpt lat="33.5922743023288" lon="-5.087385634810399"><ele>1540.75</ele><time>2026-04-27T12:27:07Z</time></trkpt><trkpt lat="33.592418174678436" lon="-5.087331565405373"><ele>1541.0</ele><time>2026-04-27T12:27:08Z</time></trkpt><trkpt lat="33.592559290582585" lon="-5.087279676168013"><ele>1541.25</ele><time>2026-04-27T12:27:09Z</time></trkpt><trkpt lat="33.59269462373469" lon="-5.087229505286223"><ele>1541.5</ele><time>2026-04-27T12:27:10Z</time></trkpt><trkpt lat="33.59283034584718" lon="-5.08717788401156"><ele>1541.75</ele><time>2026-04-27T12:27:11Z</time></trkpt><trkpt lat="33.5929646566207" lon="-5.08712856119313"><ele>1542.0</ele><time>2026-04-27T12:27:12Z</time></trkpt><trkpt lat="33.5930953539716" lon="-5.087080880369629"><ele>1542.0</ele><time>2026-04-27T12:27:13Z</time></trkpt><trkpt lat="33.5932237199094" lon="-5.087031916276535"><ele>1542.0</ele><time>2026-04-27T12:27:14Z</time></trkpt><trkpt lat="33.59335383961597" lon="-5.086984872277912"><ele>1542.0</ele><time>2026-04-27T12:27:15Z</time></trkpt><trkpt lat="33.59348707527251" lon="-5.086939500027072"><ele>1542.0</ele><time>2026-04-27T12:27:16Z</time></trkpt><trkpt lat="33.59362189941576" lon="-5.086890430269114"><ele>1541.75</ele><time>2026-04-27T12:27:17Z</time></trkpt><trkpt lat="33.59375623530845" lon="-5.086843098851063"><ele>1541.5</ele><time>2026-04-27T12:27:18Z</time></trkpt><trkpt lat="33.593890479445676" lon="-5.086797625739533"><ele>1541.25</ele><time>2026-04-27T12:27:19Z</time></trkpt><trkpt lat="33.594025186207666" lon="-5.086749763520616"><ele>1541.0</ele><time>2026-04-27T12:27:20Z</time></trkpt><trkpt lat="33.59416292968701" lon="-5.086698636325618"><ele>1541.0</ele><time>2026-04-27T12:27:21Z</time></trkpt><trkpt lat="33.59430093121607" lon="-5.08664667751422"><ele>1541.0</ele><time>2026-04-27T12:27:22Z</time></trkpt><trkpt lat="33.59443968486584" lon="-5.086596680371527"><ele>1541.0</ele><time>2026-04-27T12:27:23Z</time></trkpt><trkpt lat="33.59458049511029" lon="-5.0865476024817315"><ele>1541.0</ele><time>2026-04-27T12:27:24Z</time></trkpt><trkpt lat="33.59472308676875" lon="-5.086496357058882"><ele>1540.75</ele><time>2026-04-27T12:27:25Z</time></trkpt><trkpt lat="33.59486575481993" lon="-5.086444951323022"><ele>1540.5</ele><time>2026-04-27T12:27:26Z</time></trkpt><trkpt lat="33.59500749071294" lon="-5.086395942621351"><ele>1540.25</ele><time>2026-04-27T12:27:26.999Z</time></trkpt><trkpt lat="33.59515007059495" lon="-5.0863475906731805"><ele>1540.0</ele><time>2026-04-27T12:27:28.001Z</time></trkpt><trkpt lat="33.59529598617328" lon="-5.086297186687648"><ele>1539.6666666666667</ele><time>2026-04-27T12:27:29.001Z</time></trkpt><trkpt lat="33.595442581992614" lon="-5.086244922972448"><ele>1539.3333333333335</ele><time>2026-04-27T12:27:30.001Z</time></trkpt><trkpt lat="33.59558960327364" lon="-5.086190201785958"><ele>1539.0</ele><time>2026-04-27T12:27:31.001Z</time></trkpt><trkpt lat="33.5957385388307" lon="-5.086134955971586"><ele>1539.0</ele><time>2026-04-27T12:27:32.001Z</time></trkpt><trkpt lat="33.59588727571516" lon="-5.0860819128668195"><ele>1539.0</ele><time>2026-04-27T12:27:33.001Z</time></trkpt><trkpt lat="33.59603833215748" lon="-5.086030117026343"><ele>1539.0</ele><time>2026-04-27T12:27:34.001Z</time></trkpt><trkpt lat="33.59618990993287" lon="-5.08597729569503"><ele>1538.3333333333335</ele><time>2026-04-27T12:27:35.001Z</time></trkpt><trkpt lat="33.5963423010257" lon="-5.085924427499087"><ele>1537.6666666666667</ele><time>2026-04-27T12:27:36.001Z</time></trkpt><trkpt lat="33.59649377461601" lon="-5.085872476160726"><ele>1537.0</ele><time>2026-04-27T12:27:37.001Z</time></trkpt><trkpt lat="33.59664463173244" lon="-5.085818000930148"><ele>1536.3333333333335</ele><time>2026-04-27T12:27:38.001Z</time></trkpt><trkpt lat="33.59679763212334" lon="-5.08576178450663"><ele>1535.6666666666667</ele><time>2026-04-27T12:27:39.001Z</time></trkpt><trkpt lat="33.596952192508596" lon="-5.085706174960743"><ele>1535.0</ele><time>2026-04-27T12:27:40.001Z</time></trkpt><trkpt lat="33.597108662003144" lon="-5.085650258761935"><ele>1534.3333333333335</ele><time>2026-04-27T12:27:41.001Z</time></trkpt><trkpt lat="33.59726434573335" lon="-5.08559663952935"><ele>1533.6666666666667</ele><time>2026-04-27T12:27:42.001Z</time></trkpt><trkpt lat="33.59741864768946" lon="-5.085536731015068"><ele>1533.0</ele><time>2026-04-27T12:27:43.001Z</time></trkpt><trkpt lat="33.59757449598423" lon="-5.085478412322115"><ele>1533.0</ele><time>2026-04-27T12:27:44.001Z</time></trkpt><trkpt lat="33.59773131333055" lon="-5.085422362863765"><ele>1533.0</ele><time>2026-04-27T12:27:45.001Z</time></trkpt><trkpt lat="33.59788845215502" lon="-5.085367986168981"><ele>1533.0</ele><time>2026-04-27T12:27:46.001Z</time></trkpt><trkpt lat="33.59804570876231" lon="-5.08531529354575"><ele>1533.3333333333333</ele><time>2026-04-27T12:27:47.001Z</time></trkpt><trkpt lat="33.598205526102895" lon="-5.085260563029735"><ele>1533.6666666666665</ele><time>2026-04-27T12:27:48.001Z</time></trkpt><trkpt lat="33.59836762316263" lon="-5.0852034600551335"><ele>1534.0</ele><time>2026-04-27T12:27:49.001Z</time></trkpt><trkpt lat="33.598534207246466" lon="-5.085144370585017"><ele>1533.6666666666665</ele><time>2026-04-27T12:27:50Z</time></trkpt><trkpt lat="33.5987037559159" lon="-5.085084286078424"><ele>1533.3333333333333</ele><time>2026-04-27T12:27:51Z</time></trkpt><trkpt lat="33.59887440220162" lon="-5.0850237101452045"><ele>1533.0</ele><time>2026-04-27T12:27:52Z</time></trkpt><trkpt lat="33.599046940224504" lon="-5.084961322524243"><ele>1533.0</ele><time>2026-04-27T12:27:53Z</time></trkpt><trkpt lat="33.599224931802475" lon="-5.084898112559969"><ele>1533.0</ele><time>2026-04-27T12:27:54Z</time></trkpt><trkpt lat="33.599405085354284" lon="-5.084834830319906"><ele>1533.0</ele><time>2026-04-27T12:27:55Z</time></trkpt><trkpt lat="33.59958584696751" lon="-5.084769630272646"><ele>1533.0</ele><time>2026-04-27T12:27:56Z</time></trkpt><trkpt lat="33.599768169624994" lon="-5.084704164024453"><ele>1533.0</ele><time>2026-04-27T12:27:57Z</time></trkpt><trkpt lat="33.5999526412635" lon="-5.084638247040006"><ele>1533.0</ele><time>2026-04-27T12:27:58Z</time></trkpt><trkpt lat="33.60013661148944" lon="-5.084572198938494"><ele>1533.0</ele><time>2026-04-27T12:27:59Z</time></trkpt><trkpt lat="33.60032202516714" lon="-5.084507250513228"><ele>1533.0</ele><time>2026-04-27T12:28:00Z</time></trkpt><trkpt lat="33.60050659038734" lon="-5.0844421119095085"><ele>1533.0</ele><time>2026-04-27T12:28:01Z</time></trkpt><trkpt lat="33.600690482043746" lon="-5.084377706643912"><ele>1531.3333333333333</ele><time>2026-04-27T12:28:02Z</time></trkpt><trkpt lat="33.6008728110584" lon="-5.084316738032896"><ele>1529.6666666666665</ele><time>2026-04-27T12:28:03Z</time></trkpt><trkpt lat="33.601051988117995" lon="-5.084249137117392"><ele>1528.0</ele><time>2026-04-27T12:28:04Z</time></trkpt><trkpt lat="33.601234705271544" lon="-5.084182087440095"><ele>1527.0</ele><time>2026-04-27T12:28:05Z</time></trkpt><trkpt lat="33.601418003844934" lon="-5.084117684591426"><ele>1526.0</ele><time>2026-04-27T12:28:06Z</time></trkpt><trkpt lat="33.601602248219315" lon="-5.084051351715663"><ele>1525.0</ele><time>2026-04-27T12:28:07Z</time></trkpt><trkpt lat="33.60178733602059" lon="-5.083984617523706"><ele>1525.0</ele><time>2026-04-27T12:28:08Z</time></trkpt><trkpt lat="33.60197173616275" lon="-5.083920741501917"><ele>1525.0</ele><time>2026-04-27T12:28:09Z</time></trkpt><trkpt lat="33.602156672313804" lon="-5.08385576772255"><ele>1525.0</ele><time>2026-04-27T12:28:10Z</time></trkpt><trkpt lat="33.60234190985052" lon="-5.083790865687426"><ele>1524.0</ele><time>2026-04-27T12:28:11Z</time></trkpt><trkpt lat="33.6025293045308" lon="-5.083723794324774"><ele>1523.0</ele><time>2026-04-27T12:28:12Z</time></trkpt><trkpt lat="33.60271711307035" lon="-5.083655708193622"><ele>1522.0</ele><time>2026-04-27T12:28:13Z</time></trkpt><trkpt lat="33.602905904905725" lon="-5.083590430104272"><ele>1520.3333333333333</ele><time>2026-04-27T12:28:14Z</time></trkpt><trkpt lat="33.603097662831864" lon="-5.08352243046845"><ele>1518.6666666666667</ele><time>2026-04-27T12:28:15Z</time></trkpt><trkpt lat="33.6032890381349" lon="-5.083453626145961"><ele>1517.0</ele><time>2026-04-27T12:28:16Z</time></trkpt><trkpt lat="33.6034822809962" lon="-5.083385954131479"><ele>1516.6666666666667</ele><time>2026-04-27T12:28:17Z</time></trkpt><trkpt lat="33.60367647597734" lon="-5.083315981185192"><ele>1516.3333333333333</ele><time>2026-04-27T12:28:18Z</time></trkpt><trkpt lat="33.60387193793694" lon="-5.083246487057712"><ele>1516.0</ele><time>2026-04-27T12:28:19Z</time></trkpt><trkpt lat="33.60406583847249" lon="-5.083175708982403"><ele>1516.0</ele><time>2026-04-27T12:28:20Z</time></trkpt><trkpt lat="33.604261377345736" lon="-5.083106260934906"><ele>1516.0</ele><time>2026-04-27T12:28:21Z</time></trkpt><trkpt lat="33.60445623566328" lon="-5.08303507977423"><ele>1516.0</ele><time>2026-04-27T12:28:22Z</time></trkpt><trkpt lat="33.604650895687854" lon="-5.082965499625311"><ele>1516.0</ele><time>2026-04-27T12:28:23Z</time></trkpt><trkpt lat="33.60484625235387" lon="-5.08289482645208"><ele>1516.0</ele><time>2026-04-27T12:28:24Z</time></trkpt><trkpt lat="33.60504354862933" lon="-5.082824340220779"><ele>1516.0</ele><time>2026-04-27T12:28:25Z</time></trkpt><trkpt lat="33.60524163710884" lon="-5.0827553439099855"><ele>1516.0</ele><time>2026-04-27T12:28:26Z</time></trkpt><trkpt lat="33.60544008221022" lon="-5.082684451808459"><ele>1516.0</ele><time>2026-04-27T12:28:27Z</time></trkpt><trkpt lat="33.60564074128566" lon="-5.082613869858633"><ele>1516.0</ele><time>2026-04-27T12:28:28Z</time></trkpt><trkpt lat="33.60584235185538" lon="-5.082544717180923"><ele>1516.0</ele><time>2026-04-27T12:28:29Z</time></trkpt><trkpt lat="33.606042922462684" lon="-5.082471859543165"><ele>1516.0</ele><time>2026-04-27T12:28:30Z</time></trkpt><trkpt lat="33.606245285299494" lon="-5.082397892454622"><ele>1516.0</ele><time>2026-04-27T12:28:31Z</time></trkpt><trkpt lat="33.60644953793463" lon="-5.082323767865799"><ele>1517.3333333333333</ele><time>2026-04-27T12:28:32Z</time></trkpt><trkpt lat="33.60665383906678" lon="-5.082251155045695"><ele>1518.6666666666667</ele><time>2026-04-27T12:28:33Z</time></trkpt><trkpt lat="33.606858855764635" lon="-5.082179203267733"><ele>1520.0</ele><time>2026-04-27T12:28:34Z</time></trkpt><trkpt lat="33.60706238802051" lon="-5.082107985556671"><ele>1520.3333333333335</ele><time>2026-04-27T12:28:35Z</time></trkpt><trkpt lat="33.60726235022237" lon="-5.082035642086639"><ele>1520.6666666666667</ele><time>2026-04-27T12:28:36Z</time></trkpt><trkpt lat="33.60746408631007" lon="-5.081963106638593"><ele>1521.0</ele><time>2026-04-27T12:28:37Z</time></trkpt><trkpt lat="33.60766762503839" lon="-5.081890781075636"><ele>1520.6666666666667</ele><time>2026-04-27T12:28:38Z</time></trkpt><trkpt lat="33.607872031334495" lon="-5.081819128285861"><ele>1520.3333333333335</ele><time>2026-04-27T12:28:39Z</time></trkpt><trkpt lat="33.608074371056986" lon="-5.08174815138558"><ele>1520.0</ele><time>2026-04-27T12:28:40Z</time></trkpt><trkpt lat="33.60827732038649" lon="-5.081678934142369"><ele>1520.0</ele><time>2026-04-27T12:28:41Z</time></trkpt><trkpt lat="33.60847963513965" lon="-5.081609832332553"><ele>1520.0</ele><time>2026-04-27T12:28:42Z</time></trkpt><trkpt lat="33.6086817823037" lon="-5.081539452453888"><ele>1520.0</ele><time>2026-04-27T12:28:43Z</time></trkpt><trkpt lat="33.60888383266233" lon="-5.081474804316835"><ele>1519.6666666666667</ele><time>2026-04-27T12:28:44Z</time></trkpt><trkpt lat="33.609084709998136" lon="-5.081414063170347"><ele>1519.3333333333333</ele><time>2026-04-27T12:28:45Z</time></trkpt><trkpt lat="33.609284853259474" lon="-5.081361518602703"><ele>1519.0</ele><time>2026-04-27T12:28:46Z</time></trkpt><trkpt lat="33.6094816468467" lon="-5.081316342574556"><ele>1518.0</ele><time>2026-04-27T12:28:47Z</time></trkpt><trkpt lat="33.60967777404738" lon="-5.081274498624386"><ele>1517.0</ele><time>2026-04-27T12:28:48Z</time></trkpt><trkpt lat="33.609872374406244" lon="-5.081238179653071"><ele>1516.0</ele><time>2026-04-27T12:28:49Z</time></trkpt><trkpt lat="33.61006607497354" lon="-5.081203739335763"><ele>1516.0</ele><time>2026-04-27T12:28:50Z</time></trkpt><trkpt lat="33.61026253416745" lon="-5.081175254532878"><ele>1516.0</ele><time>2026-04-27T12:28:51Z</time></trkpt><trkpt lat="33.61046352649967" lon="-5.081153097780089"><ele>1516.0</ele><time>2026-04-27T12:28:52Z</time></trkpt><trkpt lat="33.61066962445329" lon="-5.081140774901468"><ele>1515.6666666666665</ele><time>2026-04-27T12:28:53Z</time></trkpt><trkpt lat="33.61087951744425" lon="-5.081135439055718"><ele>1515.3333333333333</ele><time>2026-04-27T12:28:54Z</time></trkpt><trkpt lat="33.611094563614344" lon="-5.081138282186731"><ele>1515.0</ele><time>2026-04-27T12:28:55Z</time></trkpt><trkpt lat="33.6113129301634" lon="-5.081139343581614"><ele>1514.0</ele><time>2026-04-27T12:28:56Z</time></trkpt><trkpt lat="33.61153339475392" lon="-5.0811435782020204"><ele>1513.0</ele><time>2026-04-27T12:28:57Z</time></trkpt><trkpt lat="33.61175470850852" lon="-5.081155405630041"><ele>1512.0</ele><time>2026-04-27T12:28:58Z</time></trkpt><trkpt lat="33.61197075148314" lon="-5.0811758390988"><ele>1511.0</ele><time>2026-04-27T12:28:59Z</time></trkpt><trkpt lat="33.6121818181844" lon="-5.081198290019822"><ele>1510.0</ele><time>2026-04-27T12:29:00Z</time></trkpt><trkpt lat="33.61239126543294" lon="-5.081218276887163"><ele>1509.0</ele><time>2026-04-27T12:29:01Z</time></trkpt><trkpt lat="33.61260090862309" lon="-5.081238439096787"><ele>1509.0</ele><time>2026-04-27T12:29:02Z</time></trkpt><trkpt lat="33.612809113744774" lon="-5.081257983150353"><ele>1509.0</ele><time>2026-04-27T12:29:03Z</time></trkpt><trkpt lat="33.61301660240149" lon="-5.081277794752296"><ele>1509.0</ele><time>2026-04-27T12:29:04Z</time></trkpt><trkpt lat="33.61322411748491" lon="-5.081299019587695"><ele>1508.3333333333333</ele><time>2026-04-27T12:29:05Z</time></trkpt><trkpt lat="33.61343260105879" lon="-5.081321048935719"><ele>1507.6666666666665</ele><time>2026-04-27T12:29:06Z</time></trkpt><trkpt lat="33.61364277721434" lon="-5.08134037957255"><ele>1507.0</ele><time>2026-04-27T12:29:07Z</time></trkpt><trkpt lat="33.61384900078561" lon="-5.081358991873991"><ele>1506.6666666666665</ele><time>2026-04-27T12:29:08Z</time></trkpt><trkpt lat="33.614051652289355" lon="-5.081377269580784"><ele>1506.3333333333333</ele><time>2026-04-27T12:29:09Z</time></trkpt><trkpt lat="33.61425152517815" lon="-5.081394125041518"><ele>1506.0</ele><time>2026-04-27T12:29:10Z</time></trkpt><trkpt lat="33.61444502692451" lon="-5.081411844510319"><ele>1505.6666666666667</ele><time>2026-04-27T12:29:11Z</time></trkpt><trkpt lat="33.6146327563761" lon="-5.081428272955904"><ele>1505.3333333333335</ele><time>2026-04-27T12:29:12Z</time></trkpt><trkpt lat="33.6148167598457" lon="-5.081446442472132"><ele>1505.0</ele><time>2026-04-27T12:29:13Z</time></trkpt><trkpt lat="33.61499489120053" lon="-5.081464688160169"><ele>1505.0</ele><time>2026-04-27T12:29:14Z</time></trkpt><trkpt lat="33.61516610520927" lon="-5.081481128107793"><ele>1505.0</ele><time>2026-04-27T12:29:15Z</time></trkpt><trkpt lat="33.61533225361508" lon="-5.081497566015081"><ele>1505.0</ele><time>2026-04-27T12:29:16Z</time></trkpt><trkpt lat="33.61548860553785" lon="-5.081513418618822"><ele>1505.5</ele><time>2026-04-27T12:29:17Z</time></trkpt><trkpt lat="33.61563731700043" lon="-5.081524890119569"><ele>1506.0</ele><time>2026-04-27T12:29:18Z</time></trkpt><trkpt lat="33.6157755491568" lon="-5.08153561244007"><ele>1506.5</ele><time>2026-04-27T12:29:19Z</time></trkpt><trkpt lat="33.615906251438055" lon="-5.08154838070799"><ele>1507.0</ele><time>2026-04-27T12:29:20Z</time></trkpt><trkpt lat="33.616029462392234" lon="-5.08156085634889"><ele>1507.0</ele><time>2026-04-27T12:29:21Z</time></trkpt><trkpt lat="33.61614817908072" lon="-5.081573378478171"><ele>1507.0</ele><time>2026-04-27T12:29:22Z</time></trkpt><trkpt lat="33.61625882154396" lon="-5.081584426174343"><ele>1507.0</ele><time>2026-04-27T12:29:23Z</time></trkpt><trkpt lat="33.616358429222075" lon="-5.081592167453226"><ele>1507.0</ele><time>2026-04-27T12:29:24Z</time></trkpt><trkpt lat="33.616447098103" lon="-5.081600176054525"><ele>1507.0</ele><time>2026-04-27T12:29:24.999Z</time></trkpt><trkpt lat="33.6165226428146" lon="-5.081607528276241"><ele>1507.0</ele><time>2026-04-27T12:29:25.999Z</time></trkpt><trkpt lat="33.61663346214378" lon="-5.081615436929635"><ele>1507.0</ele><time>2026-04-27T12:29:27.999Z</time></trkpt><trkpt lat="33.61670764353276" lon="-5.081615255079878"><ele>1507.0</ele><time>2026-04-27T12:29:29.999Z</time></trkpt><trkpt lat="33.61677236159463" lon="-5.081590425202076"><ele>1507.0</ele><time>2026-04-27T12:29:32.999Z</time></trkpt><trkpt lat="33.616853682437124" lon="-5.081611332429411"><ele>1507.0</ele><time>2026-04-27T12:29:51Z</time></trkpt><trkpt lat="33.61694746103988" lon="-5.081635929609296"><ele>1507.0</ele><time>2026-04-27T12:29:54Z</time></trkpt><trkpt lat="33.61706212586382" lon="-5.081652320047694"><ele>1506.8</ele><time>2026-04-27T12:29:56Z</time></trkpt><trkpt lat="33.61713827872312" lon="-5.081661763208301"><ele>1506.6</ele><time>2026-04-27T12:29:57Z</time></trkpt><trkpt lat="33.617226300509664" lon="-5.08167001426422"><ele>1506.3999999999999</ele><time>2026-04-27T12:29:58Z</time></trkpt><trkpt lat="33.6173207806827" lon="-5.0816756251185495"><ele>1506.1999999999998</ele><time>2026-04-27T12:29:59Z</time></trkpt><trkpt lat="33.61742375320657" lon="-5.081675614284227"><ele>1506.0</ele><time>2026-04-27T12:30:00Z</time></trkpt><trkpt lat="33.61753573915873" lon="-5.081689778706618"><ele>1506.0</ele><time>2026-04-27T12:30:01Z</time></trkpt><trkpt lat="33.617657503282" lon="-5.081703822588128"><ele>1506.0</ele><time>2026-04-27T12:30:02Z</time></trkpt><trkpt lat="33.617784331494775" lon="-5.081717681958959"><ele>1506.0</ele><time>2026-04-27T12:30:03Z</time></trkpt><trkpt lat="33.61791612608925" lon="-5.081731379195156"><ele>1506.0</ele><time>2026-04-27T12:30:04Z</time></trkpt><trkpt lat="33.61805373529715" lon="-5.081739498691391"><ele>1506.0</ele><time>2026-04-27T12:30:05Z</time></trkpt><trkpt lat="33.61819662055826" lon="-5.081751840530117"><ele>1506.0</ele><time>2026-04-27T12:30:06Z</time></trkpt><trkpt lat="33.61834445232389" lon="-5.081766427021226"><ele>1506.0</ele><time>2026-04-27T12:30:07Z</time></trkpt><trkpt lat="33.61849469460698" lon="-5.081776091855049"><ele>1506.0</ele><time>2026-04-27T12:30:08Z</time></trkpt><trkpt lat="33.61865172119584" lon="-5.0817829312566625"><ele>1505.3333333333333</ele><time>2026-04-27T12:30:09Z</time></trkpt><trkpt lat="33.61881259311863" lon="-5.0817836480213145"><ele>1504.6666666666665</ele><time>2026-04-27T12:30:10Z</time></trkpt><trkpt lat="33.618977549189864" lon="-5.081780974978831"><ele>1504.0</ele><time>2026-04-27T12:30:11Z</time></trkpt><trkpt lat="33.61914725721165" lon="-5.081769477924974"><ele>1504.0</ele><time>2026-04-27T12:30:12Z</time></trkpt><trkpt lat="33.61931935413985" lon="-5.081747779295264"><ele>1504.0</ele><time>2026-04-27T12:30:13Z</time></trkpt><trkpt lat="33.619492609835085" lon="-5.081712992186508"><ele>1504.0</ele><time>2026-04-27T12:30:14Z</time></trkpt><trkpt lat="33.619664209758504" lon="-5.081673417115393"><ele>1504.0</ele><time>2026-04-27T12:30:15Z</time></trkpt><trkpt lat="33.61983944679447" lon="-5.081631659500731"><ele>1504.0</ele><time>2026-04-27T12:30:16Z</time></trkpt><trkpt lat="33.62001650279031" lon="-5.081574526920439"><ele>1504.0</ele><time>2026-04-27T12:30:17Z</time></trkpt><trkpt lat="33.620196381079026" lon="-5.081510824619426"><ele>1504.3333333333333</ele><time>2026-04-27T12:30:18Z</time></trkpt><trkpt lat="33.62037729448559" lon="-5.081437879398558"><ele>1504.6666666666667</ele><time>2026-04-27T12:30:19Z</time></trkpt><trkpt lat="33.62056118618015" lon="-5.081353332658696"><ele>1505.0</ele><time>2026-04-27T12:30:20Z</time></trkpt><trkpt lat="33.620744735430804" lon="-5.081263609631236"><ele>1505.0</ele><time>2026-04-27T12:30:21Z</time></trkpt><trkpt lat="33.62092897786648" lon="-5.08116646988323"><ele>1505.0</ele><time>2026-04-27T12:30:22Z</time></trkpt><trkpt lat="33.62111488293088" lon="-5.081068928590167"><ele>1505.0</ele><time>2026-04-27T12:30:23Z</time></trkpt><trkpt lat="33.621305513065636" lon="-5.080971005771517"><ele>1504.6666666666667</ele><time>2026-04-27T12:30:24Z</time></trkpt><trkpt lat="33.62149846989749" lon="-5.0808716125980125"><ele>1504.3333333333333</ele><time>2026-04-27T12:30:25Z</time></trkpt><trkpt lat="33.621693735095405" lon="-5.080767404851492"><ele>1504.0</ele><time>2026-04-27T12:30:26Z</time></trkpt><trkpt lat="33.62189147872848" lon="-5.080665270123776"><ele>1503.0</ele><time>2026-04-27T12:30:27Z</time></trkpt><trkpt lat="33.62209089867511" lon="-5.0805587405960155"><ele>1502.0</ele><time>2026-04-27T12:30:28Z</time></trkpt><trkpt lat="33.622296095359054" lon="-5.080453932019123"><ele>1501.0</ele><time>2026-04-27T12:30:29Z</time></trkpt><trkpt lat="33.62250200455743" lon="-5.080347415147914"><ele>1501.0</ele><time>2026-04-27T12:30:30Z</time></trkpt><trkpt lat="33.62271280972762" lon="-5.080241234418667"><ele>1501.0</ele><time>2026-04-27T12:30:31Z</time></trkpt><trkpt lat="33.62292363233554" lon="-5.080131243301037"><ele>1501.0</ele><time>2026-04-27T12:30:32Z</time></trkpt><trkpt lat="33.623136408872014" lon="-5.080025111374203"><ele>1501.0</ele><time>2026-04-27T12:30:33Z</time></trkpt><trkpt lat="33.6233491917386" lon="-5.0799186770923495"><ele>1501.0</ele><time>2026-04-27T12:30:34Z</time></trkpt><trkpt lat="33.62356319317544" lon="-5.079809762992664"><ele>1501.0</ele><time>2026-04-27T12:30:35Z</time></trkpt><trkpt lat="33.62377825934164" lon="-5.079700076224264"><ele>1499.0</ele><time>2026-04-27T12:30:36Z</time></trkpt><trkpt lat="33.62399328099612" lon="-5.079588784893891"><ele>1497.0</ele><time>2026-04-27T12:30:37Z</time></trkpt><trkpt lat="33.62421080689245" lon="-5.079475901275197"><ele>1497.0</ele><time>2026-04-27T12:30:38Z</time></trkpt><trkpt lat="33.62442985045664" lon="-5.079363294310938"><ele>1497.0</ele><time>2026-04-27T12:30:39Z</time></trkpt><trkpt lat="33.62465211426179" lon="-5.079247472798032"><ele>1497.5</ele><time>2026-04-27T12:30:40Z</time></trkpt><trkpt lat="33.62487157625328" lon="-5.07913263064439"><ele>1498.0</ele><time>2026-04-27T12:30:41Z</time></trkpt><trkpt lat="33.6250973696016" lon="-5.0790156347032065"><ele>1494.0</ele><time>2026-04-27T12:30:42Z</time></trkpt><trkpt lat="33.625328530235734" lon="-5.078896095953702"><ele>1490.0</ele><time>2026-04-27T12:30:43Z</time></trkpt><trkpt lat="33.62556591243561" lon="-5.078774777925392"><ele>1490.0</ele><time>2026-04-27T12:30:44Z</time></trkpt><trkpt lat="33.625804744458826" lon="-5.078653051398141"><ele>1490.0</ele><time>2026-04-27T12:30:45Z</time></trkpt><trkpt lat="33.626041804609024" lon="-5.078527953349824"><ele>1488.5</ele><time>2026-04-27T12:30:46Z</time></trkpt><trkpt lat="33.6262843646054" lon="-5.078398916447639"><ele>1487.0</ele><time>2026-04-27T12:30:47Z</time></trkpt><trkpt lat="33.62652979686" lon="-5.078272779681192"><ele>1487.5</ele><time>2026-04-27T12:30:48Z</time></trkpt><trkpt lat="33.62677764778701" lon="-5.078145804174622"><ele>1488.0</ele><time>2026-04-27T12:30:49Z</time></trkpt><trkpt lat="33.62702682664703" lon="-5.078019145362862"><ele>1488.0</ele><time>2026-04-27T12:30:50Z</time></trkpt><trkpt lat="33.62727610963497" lon="-5.077891413526164"><ele>1488.0</ele><time>2026-04-27T12:30:51Z</time></trkpt><trkpt lat="33.627525803199845" lon="-5.077764858448575"><ele>1488.0</ele><time>2026-04-27T12:30:52Z</time></trkpt><trkpt lat="33.62777604762797" lon="-5.077635718078776"><ele>1488.0</ele><time>2026-04-27T12:30:53Z</time></trkpt><trkpt lat="33.6280235823592" lon="-5.077505231600429"><ele>1488.5</ele><time>2026-04-27T12:30:54Z</time></trkpt><trkpt lat="33.62827104654929" lon="-5.077375579683699"><ele>1489.0</ele><time>2026-04-27T12:30:55Z</time></trkpt><trkpt lat="33.62851859493431" lon="-5.077248138968317"><ele>1490.0</ele><time>2026-04-27T12:30:56Z</time></trkpt><trkpt lat="33.62876620232095" lon="-5.077120754253998"><ele>1491.0</ele><time>2026-04-27T12:30:57Z</time></trkpt><trkpt lat="33.62901128984579" lon="-5.076993320560348"><ele>1491.0</ele><time>2026-04-27T12:30:58Z</time></trkpt><trkpt lat="33.62925644110023" lon="-5.076866315493312"><ele>1491.0</ele><time>2026-04-27T12:30:59Z</time></trkpt><trkpt lat="33.62949867464088" lon="-5.076739627641518"><ele>1490.0</ele><time>2026-04-27T12:31:00Z</time></trkpt><trkpt lat="33.629740422997244" lon="-5.076614332658922"><ele>1489.0</ele><time>2026-04-27T12:31:01Z</time></trkpt><trkpt lat="33.629979363396224" lon="-5.076492352938682"><ele>1488.0</ele><time>2026-04-27T12:31:02Z</time></trkpt><trkpt lat="33.63021883537363" lon="-5.076367577789206"><ele>1487.0</ele><time>2026-04-27T12:31:03Z</time></trkpt><trkpt lat="33.63045913605844" lon="-5.076242036960596"><ele>1487.0</ele><time>2026-04-27T12:31:04Z</time></trkpt><trkpt lat="33.63070031522813" lon="-5.076115852081631"><ele>1487.0</ele><time>2026-04-27T12:31:05Z</time></trkpt><trkpt lat="33.63094185117488" lon="-5.075994369488282"><ele>1487.0</ele><time>2026-04-27T12:31:06Z</time></trkpt><trkpt lat="33.63118491016108" lon="-5.075870390160906"><ele>1487.0</ele><time>2026-04-27T12:31:07Z</time></trkpt><trkpt lat="33.63142729524207" lon="-5.075744202243471"><ele>1487.0</ele><time>2026-04-27T12:31:08Z</time></trkpt><trkpt lat="33.63167153665553" lon="-5.075620209402198"><ele>1487.0</ele><time>2026-04-27T12:31:09Z</time></trkpt><trkpt lat="33.631914518668964" lon="-5.075495886130562"><ele>1485.5</ele><time>2026-04-27T12:31:10Z</time></trkpt><trkpt lat="33.6321576106147" lon="-5.075375010344078"><ele>1484.0</ele><time>2026-04-27T12:31:11Z</time></trkpt><trkpt lat="33.63239976227087" lon="-5.075252919417592"><ele>1484.0</ele><time>2026-04-27T12:31:12Z</time></trkpt><trkpt lat="33.63263615283672" lon="-5.075128819947397"><ele>1484.0</ele><time>2026-04-27T12:31:13Z</time></trkpt><trkpt lat="33.6328677048686" lon="-5.0750071992653645"><ele>1484.0</ele><time>2026-04-27T12:31:14Z</time></trkpt><trkpt lat="33.6330965652936" lon="-5.074891774966786"><ele>1484.0</ele><time>2026-04-27T12:31:15Z</time></trkpt><trkpt lat="33.63332701971465" lon="-5.07477425785946"><ele>1484.0</ele><time>2026-04-27T12:31:16Z</time></trkpt><trkpt lat="33.633558930313455" lon="-5.074651646042342"><ele>1484.0</ele><time>2026-04-27T12:31:17Z</time></trkpt><trkpt lat="33.63379394897212" lon="-5.074533210443514"><ele>1484.0</ele><time>2026-04-27T12:31:17.999Z</time></trkpt><trkpt lat="33.634028917783446" lon="-5.074412018990672"><ele>1484.0</ele><time>2026-04-27T12:31:18.999Z</time></trkpt><trkpt lat="33.634264796986415" lon="-5.074287060332808"><ele>1484.0</ele><time>2026-04-27T12:31:19.999Z</time></trkpt><trkpt lat="33.63450642463018" lon="-5.07416064598264"><ele>1484.0</ele><time>2026-04-27T12:31:20.999Z</time></trkpt><trkpt lat="33.63474916088299" lon="-5.0740315756473215"><ele>1485.0</ele><time>2026-04-27T12:31:21.999Z</time></trkpt><trkpt lat="33.63499542119174" lon="-5.073906272524273"><ele>1486.0</ele><time>2026-04-27T12:31:22.999Z</time></trkpt><trkpt lat="33.63524261418547" lon="-5.0737771326524985"><ele>1484.0</ele><time>2026-04-27T12:31:23.999Z</time></trkpt><trkpt lat="33.63549044899662" lon="-5.07365155542141"><ele>1482.0</ele><time>2026-04-27T12:31:24.999Z</time></trkpt><trkpt lat="33.63573685975351" lon="-5.0735241343714055"><ele>1482.0</ele><time>2026-04-27T12:31:25.999Z</time></trkpt><trkpt lat="33.63598270313138" lon="-5.073395496742588"><ele>1482.0</ele><time>2026-04-27T12:31:26.999Z</time></trkpt><trkpt lat="33.636226556909186" lon="-5.073268392863464"><ele>1481.5</ele><time>2026-04-27T12:31:27.999Z</time></trkpt><trkpt lat="33.63646840820905" lon="-5.0731401741102005"><ele>1481.0</ele><time>2026-04-27T12:31:28.999Z</time></trkpt><trkpt lat="33.63670740827618" lon="-5.07301628563186"><ele>1481.0</ele><time>2026-04-27T12:31:29.999Z</time></trkpt><trkpt lat="33.63694802708043" lon="-5.072893917663213"><ele>1481.0</ele><time>2026-04-27T12:31:30.999Z</time></trkpt><trkpt lat="33.63718687500685" lon="-5.072770594213298"><ele>1480.0</ele><time>2026-04-27T12:31:31.999Z</time></trkpt><trkpt lat="33.63742598827658" lon="-5.0726440453042505"><ele>1479.0</ele><time>2026-04-27T12:31:32.999Z</time></trkpt><trkpt lat="33.637663418822825" lon="-5.07251997059215"><ele>1478.5</ele><time>2026-04-27T12:31:33.999Z</time></trkpt><trkpt lat="33.63790091366285" lon="-5.072398644430505"><ele>1478.0</ele><time>2026-04-27T12:31:34.999Z</time></trkpt><trkpt lat="33.63813710171286" lon="-5.072275353145526"><ele>1478.0</ele><time>2026-04-27T12:31:35.999Z</time></trkpt><trkpt lat="33.63837237499624" lon="-5.072152031327205"><ele>1478.0</ele><time>2026-04-27T12:31:36.999Z</time></trkpt><trkpt lat="33.63860546485496" lon="-5.0720315641945115"><ele>1475.5</ele><time>2026-04-27T12:31:37.999Z</time></trkpt><trkpt lat="33.63883924664854" lon="-5.071910573423662"><ele>1473.0</ele><time>2026-04-27T12:31:38.999Z</time></trkpt><trkpt lat="33.63906938375133" lon="-5.071791770135618"><ele>1473.0</ele><time>2026-04-27T12:31:40.001Z</time></trkpt><trkpt lat="33.63929275796392" lon="-5.071673308300575"><ele>1473.0</ele><time>2026-04-27T12:31:41.001Z</time></trkpt><trkpt lat="33.63951484175577" lon="-5.07155961436059"><ele>1472.0</ele><time>2026-04-27T12:31:42.001Z</time></trkpt><trkpt lat="33.63973479047945" lon="-5.071446614931801"><ele>1471.0</ele><time>2026-04-27T12:31:43.001Z</time></trkpt><trkpt lat="33.639954582429645" lon="-5.071328755789372"><ele>1471.0</ele><time>2026-04-27T12:31:44.001Z</time></trkpt><trkpt lat="33.64016819849044" lon="-5.071216727192825"><ele>1471.0</ele><time>2026-04-27T12:31:45Z</time></trkpt><trkpt lat="33.6403762523532" lon="-5.071110707022538"><ele>1469.6666666666665</ele><time>2026-04-27T12:31:46.001Z</time></trkpt><trkpt lat="33.64058339301485" lon="-5.071010533594351"><ele>1468.3333333333333</ele><time>2026-04-27T12:31:47.001Z</time></trkpt><trkpt lat="33.6407911522163" lon="-5.070909406001251"><ele>1467.0</ele><time>2026-04-27T12:31:48Z</time></trkpt><trkpt lat="33.64099498291893" lon="-5.070807628924253"><ele>1468.0</ele><time>2026-04-27T12:31:49Z</time></trkpt><trkpt lat="33.641188781728026" lon="-5.070707688073176"><ele>1469.0</ele><time>2026-04-27T12:31:50Z</time></trkpt><trkpt lat="33.6413738583094" lon="-5.070611047877604"><ele>1470.0</ele><time>2026-04-27T12:31:51Z</time></trkpt><trkpt lat="33.64155213288609" lon="-5.070519698758925"><ele>1470.0</ele><time>2026-04-27T12:31:52Z</time></trkpt><trkpt lat="33.64171956772311" lon="-5.0704302848184755"><ele>1470.0</ele><time>2026-04-27T12:31:53Z</time></trkpt><trkpt lat="33.64187952830584" lon="-5.070344326090361"><ele>1470.0</ele><time>2026-04-27T12:31:54Z</time></trkpt><trkpt lat="33.64203486460553" lon="-5.070265173580231"><ele>1469.3333333333333</ele><time>2026-04-27T12:31:55Z</time></trkpt><trkpt lat="33.642189017650885" lon="-5.070183719292221"><ele>1468.6666666666665</ele><time>2026-04-27T12:31:56Z</time></trkpt><trkpt lat="33.6423415052125" lon="-5.070102040365313"><ele>1468.0</ele><time>2026-04-27T12:31:57Z</time></trkpt><trkpt lat="33.64249046788769" lon="-5.070025409787547"><ele>1468.0</ele><time>2026-04-27T12:31:58Z</time></trkpt><trkpt lat="33.6426358728249" lon="-5.06995223074254"><ele>1468.0</ele><time>2026-04-27T12:31:59Z</time></trkpt><trkpt lat="33.64277870109643" lon="-5.069879038168126"><ele>1468.0</ele><time>2026-04-27T12:32:00Z</time></trkpt><trkpt lat="33.642918187570515" lon="-5.069806011395591"><ele>1469.0</ele><time>2026-04-27T12:32:01Z</time></trkpt><trkpt lat="33.643058063740774" lon="-5.0697338675157795"><ele>1470.0</ele><time>2026-04-27T12:32:02Z</time></trkpt><trkpt lat="33.64319722673675" lon="-5.069659898224323"><ele>1471.0</ele><time>2026-04-27T12:32:03Z</time></trkpt><trkpt lat="33.64333519394191" lon="-5.0695861637057185"><ele>1471.0</ele><time>2026-04-27T12:32:04Z</time></trkpt><trkpt lat="33.64346979876361" lon="-5.069513918495932"><ele>1471.0</ele><time>2026-04-27T12:32:05Z</time></trkpt><trkpt lat="33.64359450632519" lon="-5.0694423580564765"><ele>1471.0</ele><time>2026-04-27T12:32:06Z</time></trkpt><trkpt lat="33.64371692071414" lon="-5.069374413126288"><ele>1471.0</ele><time>2026-04-27T12:32:07Z</time></trkpt><trkpt lat="33.64384642564343" lon="-5.06931547530867"><ele>1469.6666666666665</ele><time>2026-04-27T12:32:08Z</time></trkpt><trkpt lat="33.64397877373696" lon="-5.069257353219154"><ele>1468.3333333333333</ele><time>2026-04-27T12:32:09Z</time></trkpt><trkpt lat="33.644118195545666" lon="-5.069193455090177"><ele>1467.0</ele><time>2026-04-27T12:32:10Z</time></trkpt><trkpt lat="33.64427303758323" lon="-5.069122880669299"><ele>1468.0</ele><time>2026-04-27T12:32:11Z</time></trkpt><trkpt lat="33.6444338821347" lon="-5.069042116541826"><ele>1469.0</ele><time>2026-04-27T12:32:12Z</time></trkpt><trkpt lat="33.64458901654694" lon="-5.06895087819261"><ele>1470.0</ele><time>2026-04-27T12:32:13Z</time></trkpt><trkpt lat="33.644733843192725" lon="-5.068860220182225"><ele>1470.0</ele><time>2026-04-27T12:32:14Z</time></trkpt><trkpt lat="33.64488230952184" lon="-5.068785120767875"><ele>1470.0</ele><time>2026-04-27T12:32:15Z</time></trkpt><trkpt lat="33.64502210311946" lon="-5.068708388048848"><ele>1470.0</ele><time>2026-04-27T12:32:16Z</time></trkpt><trkpt lat="33.64516403370592" lon="-5.068632181780988"><ele>1469.0</ele><time>2026-04-27T12:32:17Z</time></trkpt><trkpt lat="33.645306318974264" lon="-5.068556568820262"><ele>1468.0</ele><time>2026-04-27T12:32:18Z</time></trkpt><trkpt lat="33.64544987699772" lon="-5.068480515629539"><ele>1467.0</ele><time>2026-04-27T12:32:19Z</time></trkpt><trkpt lat="33.64559484385336" lon="-5.068406545431445"><ele>1467.0</ele><time>2026-04-27T12:32:20Z</time></trkpt><trkpt lat="33.64574044047649" lon="-5.068332878961484"><ele>1467.0</ele><time>2026-04-27T12:32:21Z</time></trkpt><trkpt lat="33.64588655894045" lon="-5.068257563104924"><ele>1467.0</ele><time>2026-04-27T12:32:22Z</time></trkpt><trkpt lat="33.646033799427016" lon="-5.068178901279956"><ele>1467.6666666666667</ele><time>2026-04-27T12:32:23Z</time></trkpt><trkpt lat="33.64618208486723" lon="-5.068101471161818"><ele>1468.3333333333335</ele><time>2026-04-27T12:32:24Z</time></trkpt><trkpt lat="33.646331793343506" lon="-5.068024141652931"><ele>1469.0</ele><time>2026-04-27T12:32:25Z</time></trkpt><trkpt lat="33.64647950698434" lon="-5.067945890763154"><ele>1469.0</ele><time>2026-04-27T12:32:26Z</time></trkpt><trkpt lat="33.64662784022953" lon="-5.067868324940425"><ele>1469.0</ele><time>2026-04-27T12:32:27Z</time></trkpt><trkpt lat="33.64677620113" lon="-5.0677936427684"><ele>1469.0</ele><time>2026-04-27T12:32:28Z</time></trkpt><trkpt lat="33.64692327980622" lon="-5.067716257141262"><ele>1468.3333333333335</ele><time>2026-04-27T12:32:29Z</time></trkpt><trkpt lat="33.64707124293934" lon="-5.067639052923931"><ele>1467.6666666666667</ele><time>2026-04-27T12:32:30Z</time></trkpt><trkpt lat="33.6472202389658" lon="-5.067566469726726"><ele>1467.0</ele><time>2026-04-27T12:32:31Z</time></trkpt><trkpt lat="33.64736550151511" lon="-5.06749386238312"><ele>1468.0</ele><time>2026-04-27T12:32:32Z</time></trkpt><trkpt lat="33.64750874903158" lon="-5.067419116264542"><ele>1469.0</ele><time>2026-04-27T12:32:33Z</time></trkpt><trkpt lat="33.64764811829531" lon="-5.0673456518780355"><ele>1470.0</ele><time>2026-04-27T12:32:34Z</time></trkpt><trkpt lat="33.64778821773513" lon="-5.067270625917916"><ele>1471.3333333333333</ele><time>2026-04-27T12:32:35Z</time></trkpt><trkpt lat="33.64792744395227" lon="-5.067195524027264"><ele>1472.6666666666665</ele><time>2026-04-27T12:32:36Z</time></trkpt><trkpt lat="33.64806681175708" lon="-5.067122026933981"><ele>1474.0</ele><time>2026-04-27T12:32:37Z</time></trkpt><trkpt lat="33.648207169441" lon="-5.06704874195847"><ele>1474.0</ele><time>2026-04-27T12:32:38Z</time></trkpt><trkpt lat="33.64834294118564" lon="-5.066965571116229"><ele>1474.0</ele><time>2026-04-27T12:32:39Z</time></trkpt><trkpt lat="33.64847542433726" lon="-5.066875507418675"><ele>1474.0</ele><time>2026-04-27T12:32:40Z</time></trkpt><trkpt lat="33.648602180933196" lon="-5.066780197631222"><ele>1474.5</ele><time>2026-04-27T12:32:41Z</time></trkpt><trkpt lat="33.648722255923296" lon="-5.066680996800701"><ele>1475.0</ele><time>2026-04-27T12:32:42Z</time></trkpt><trkpt lat="33.64884430535537" lon="-5.066574950673626"><ele>1475.5</ele><time>2026-04-27T12:32:43Z</time></trkpt><trkpt lat="33.64896888842252" lon="-5.066474781470893"><ele>1476.0</ele><time>2026-04-27T12:32:44Z</time></trkpt><trkpt lat="33.64909642024756" lon="-5.06637969676628"><ele>1476.75</ele><time>2026-04-27T12:32:45Z</time></trkpt><trkpt lat="33.64921820544668" lon="-5.066289095497176"><ele>1477.5</ele><time>2026-04-27T12:32:46Z</time></trkpt><trkpt lat="33.649336705684" lon="-5.0661979006232425"><ele>1478.25</ele><time>2026-04-27T12:32:47Z</time></trkpt><trkpt lat="33.64945184986043" lon="-5.0661045278870205"><ele>1479.0</ele><time>2026-04-27T12:32:48Z</time></trkpt><trkpt lat="33.6495640962711" lon="-5.066011435901547"><ele>1479.0</ele><time>2026-04-27T12:32:49Z</time></trkpt><trkpt lat="33.64968035037982" lon="-5.065916706342376"><ele>1479.0</ele><time>2026-04-27T12:32:50Z</time></trkpt><trkpt lat="33.649802430602904" lon="-5.065818546004225"><ele>1479.0</ele><time>2026-04-27T12:32:51Z</time></trkpt><trkpt lat="33.649937590966424" lon="-5.065716926827293"><ele>1479.0</ele><time>2026-04-27T12:32:52Z</time></trkpt><trkpt lat="33.650101195412425" lon="-5.06559437691306"><ele>1480.0</ele><time>2026-04-27T12:32:53Z</time></trkpt><trkpt lat="33.650271374726714" lon="-5.065449993900057"><ele>1481.0</ele><time>2026-04-27T12:32:54Z</time></trkpt><trkpt lat="33.650448797495024" lon="-5.065280604412112"><ele>1482.0</ele><time>2026-04-27T12:32:55Z</time></trkpt><trkpt lat="33.65063555434832" lon="-5.065116785028916"><ele>1482.0</ele><time>2026-04-27T12:32:56Z</time></trkpt><trkpt lat="33.650830735532004" lon="-5.064958470215735"><ele>1482.0</ele><time>2026-04-27T12:32:57Z</time></trkpt><trkpt lat="33.65102752601686" lon="-5.064799472973255"><ele>1481.0</ele><time>2026-04-27T12:32:58Z</time></trkpt><trkpt lat="33.65122869464823" lon="-5.064636360543403"><ele>1480.0</ele><time>2026-04-27T12:32:59Z</time></trkpt><trkpt lat="33.65142923130461" lon="-5.064474164315089"><ele>1480.0</ele><time>2026-04-27T12:33:00Z</time></trkpt><trkpt lat="33.65162962386225" lon="-5.0643103174768"><ele>1480.0</ele><time>2026-04-27T12:33:01Z</time></trkpt><trkpt lat="33.651831415518075" lon="-5.0641466281736776"><ele>1482.0</ele><time>2026-04-27T12:33:02Z</time></trkpt><trkpt lat="33.65203430344496" lon="-5.063984296824658"><ele>1484.0</ele><time>2026-04-27T12:33:03Z</time></trkpt><trkpt lat="33.65223802676753" lon="-5.063820504566126"><ele>1484.0</ele><time>2026-04-27T12:33:04Z</time></trkpt><trkpt lat="33.65244476004901" lon="-5.063652744720339"><ele>1484.0</ele><time>2026-04-27T12:33:05Z</time></trkpt><trkpt lat="33.65265758680158" lon="-5.063481059212294"><ele>1486.5</ele><time>2026-04-27T12:33:06Z</time></trkpt><trkpt lat="33.652865835507825" lon="-5.063311408930912"><ele>1489.0</ele><time>2026-04-27T12:33:07Z</time></trkpt><trkpt lat="33.65306863134188" lon="-5.063148113452103"><ele>1489.0</ele><time>2026-04-27T12:33:08Z</time></trkpt><trkpt lat="33.653267337666726" lon="-5.06298770189752"><ele>1489.0</ele><time>2026-04-27T12:33:09Z</time></trkpt><trkpt lat="33.65346561869148" lon="-5.0628260041632105"><ele>1487.0</ele><time>2026-04-27T12:33:10Z</time></trkpt><trkpt lat="33.653660600761185" lon="-5.062666645278538"><ele>1485.0</ele><time>2026-04-27T12:33:11Z</time></trkpt><trkpt lat="33.65385663739915" lon="-5.0625023513611636"><ele>1488.0</ele><time>2026-04-27T12:33:12Z</time></trkpt><trkpt lat="33.654053363111146" lon="-5.062326335331635"><ele>1491.0</ele><time>2026-04-27T12:33:13Z</time></trkpt><trkpt lat="33.65424186069966" lon="-5.062139137522025"><ele>1491.0</ele><time>2026-04-27T12:33:14Z</time></trkpt><trkpt lat="33.65442463371337" lon="-5.061940531151501"><ele>1491.0</ele><time>2026-04-27T12:33:15Z</time></trkpt><trkpt lat="33.65459920654961" lon="-5.061725490558942"><ele>1492.5</ele><time>2026-04-27T12:33:16Z</time></trkpt><trkpt lat="33.65476401661307" lon="-5.061488928217182"><ele>1494.0</ele><time>2026-04-27T12:33:17Z</time></trkpt><trkpt lat="33.65491388417396" lon="-5.061239829936578"><ele>1494.0</ele><time>2026-04-27T12:33:18Z</time></trkpt><trkpt lat="33.655057535814386" lon="-5.0609855404580255"><ele>1494.0</ele><time>2026-04-27T12:33:18.999Z</time></trkpt><trkpt lat="33.65519790347242" lon="-5.060726521428504"><ele>1493.0</ele><time>2026-04-27T12:33:19.999Z</time></trkpt><trkpt lat="33.65533205701625" lon="-5.060471790301192"><ele>1492.0</ele><time>2026-04-27T12:33:20.999Z</time></trkpt><trkpt lat="33.655464061669555" lon="-5.060219457537837"><ele>1492.0</ele><time>2026-04-27T12:33:21.999Z</time></trkpt><trkpt lat="33.65559617991409" lon="-5.059962259434876"><ele>1492.0</ele><time>2026-04-27T12:33:22.999Z</time></trkpt><trkpt lat="33.65572995358477" lon="-5.0596981584097165"><ele>1493.5</ele><time>2026-04-27T12:33:23.999Z</time></trkpt><trkpt lat="33.655864811569565" lon="-5.059427078611815"><ele>1495.0</ele><time>2026-04-27T12:33:24.999Z</time></trkpt><trkpt lat="33.6560031016234" lon="-5.059152048570872"><ele>1495.0</ele><time>2026-04-27T12:33:25.999Z</time></trkpt><trkpt lat="33.65613979537616" lon="-5.058880395380286"><ele>1495.0</ele><time>2026-04-27T12:33:26.999Z</time></trkpt><trkpt lat="33.65627486768649" lon="-5.0586067583241405"><ele>1495.0</ele><time>2026-04-27T12:33:27.999Z</time></trkpt><trkpt lat="33.65640860134382" lon="-5.058329760006261"><ele>1495.0</ele><time>2026-04-27T12:33:28.999Z</time></trkpt><trkpt lat="33.656541454719374" lon="-5.0580554672623625"><ele>1497.5</ele><time>2026-04-27T12:33:29.999Z</time></trkpt><trkpt lat="33.65667569483268" lon="-5.057788781378008"><ele>1500.0</ele><time>2026-04-27T12:33:30.999Z</time></trkpt><trkpt lat="33.65681318138958" lon="-5.05752001494778"><ele>1497.5</ele><time>2026-04-27T12:33:31.999Z</time></trkpt><trkpt lat="33.656951090460616" lon="-5.0572507169036784"><ele>1495.0</ele><time>2026-04-27T12:33:32.999Z</time></trkpt><trkpt lat="33.65708539258001" lon="-5.056985315849836"><ele>1495.0</ele><time>2026-04-27T12:33:33.999Z</time></trkpt><trkpt lat="33.65721321048564" lon="-5.056724487978175"><ele>1495.0</ele><time>2026-04-27T12:33:34.999Z</time></trkpt><trkpt lat="33.65733630581645" lon="-5.056460366686634"><ele>1500.0</ele><time>2026-04-27T12:33:35.999Z</time></trkpt><trkpt lat="33.65745825704223" lon="-5.056192258668689"><ele>1505.0</ele><time>2026-04-27T12:33:36.999Z</time></trkpt><trkpt lat="33.65758234650836" lon="-5.055928053400771"><ele>1511.0</ele><time>2026-04-27T12:33:37.999Z</time></trkpt><trkpt lat="33.65770740229698" lon="-5.055658763180492"><ele>1517.0</ele><time>2026-04-27T12:33:38.999Z</time></trkpt><trkpt lat="33.65783104873158" lon="-5.0553761347218025"><ele>1509.0</ele><time>2026-04-27T12:33:39.999Z</time></trkpt><trkpt lat="33.65795535003136" lon="-5.055085444282265"><ele>1501.0</ele><time>2026-04-27T12:33:40.999Z</time></trkpt><trkpt lat="33.658078520230625" lon="-5.054790183809503"><ele>1501.0</ele><time>2026-04-27T12:33:41.999Z</time></trkpt><trkpt lat="33.65819864209148" lon="-5.054487136584877"><ele>1501.0</ele><time>2026-04-27T12:33:42.999Z</time></trkpt><trkpt lat="33.65832055233601" lon="-5.054176770160403"><ele>1504.0</ele><time>2026-04-27T12:33:43.999Z</time></trkpt><trkpt lat="33.65844431943546" lon="-5.053860461151949"><ele>1507.0</ele><time>2026-04-27T12:33:44.999Z</time></trkpt><trkpt lat="33.65856783981871" lon="-5.053541478093474"><ele>1499.5</ele><time>2026-04-27T12:33:46Z</time></trkpt><trkpt lat="33.658694769367536" lon="-5.05321723089106"><ele>1492.0</ele><time>2026-04-27T12:33:47Z</time></trkpt><trkpt lat="33.65882309493579" lon="-5.052893285528286"><ele>1492.0</ele><time>2026-04-27T12:33:48Z</time></trkpt><trkpt lat="33.65894745143543" lon="-5.052573253482059"><ele>1492.0</ele><time>2026-04-27T12:33:49Z</time></trkpt><trkpt lat="33.659063700193144" lon="-5.052270014381793"><ele>1496.5</ele><time>2026-04-27T12:33:50Z</time></trkpt><trkpt lat="33.659173456264575" lon="-5.051982283903836"><ele>1501.0</ele><time>2026-04-27T12:33:51Z</time></trkpt><trkpt lat="33.65928348652726" lon="-5.051699084668627"><ele>1499.0</ele><time>2026-04-27T12:33:52Z</time></trkpt><trkpt lat="33.65938249053818" lon="-5.051412375567567"><ele>1497.0</ele><time>2026-04-27T12:33:53Z</time></trkpt><trkpt lat="33.65946773764432" lon="-5.0511134532965745"><ele>1497.0</ele><time>2026-04-27T12:33:54Z</time></trkpt><trkpt lat="33.65953979608718" lon="-5.050806138551784"><ele>1497.0</ele><time>2026-04-27T12:33:55Z</time></trkpt><trkpt lat="33.659606343406736" lon="-5.050495290278645"><ele>1499.5</ele><time>2026-04-27T12:33:56Z</time></trkpt><trkpt lat="33.65966906032558" lon="-5.050190959503753"><ele>1502.0</ele><time>2026-04-27T12:33:57Z</time></trkpt><trkpt lat="33.65972966398751" lon="-5.049891357196036"><ele>1503.0</ele><time>2026-04-27T12:33:58Z</time></trkpt><trkpt lat="33.65978720890227" lon="-5.049596749816565"><ele>1504.0</ele><time>2026-04-27T12:33:59Z</time></trkpt><trkpt lat="33.65984260479126" lon="-5.049306350321186"><ele>1506.0</ele><time>2026-04-27T12:34:00Z</time></trkpt><trkpt lat="33.65989940994959" lon="-5.049013790421038"><ele>1508.0</ele><time>2026-04-27T12:34:01Z</time></trkpt><trkpt lat="33.659957791256986" lon="-5.048717391100668"><ele>1508.0</ele><time>2026-04-27T12:34:02Z</time></trkpt><trkpt lat="33.660017170706446" lon="-5.048423678555647"><ele>1508.0</ele><time>2026-04-27T12:34:03Z</time></trkpt><trkpt lat="33.66007616683068" lon="-5.048132189898506"><ele>1509.0</ele><time>2026-04-27T12:34:04Z</time></trkpt><trkpt lat="33.660137294206535" lon="-5.047841386136497"><ele>1510.0</ele><time>2026-04-27T12:34:05Z</time></trkpt><trkpt lat="33.66020334143483" lon="-5.047552222111958"><ele>1510.5</ele><time>2026-04-27T12:34:06Z</time></trkpt><trkpt lat="33.66027981170188" lon="-5.047266048166545"><ele>1511.0</ele><time>2026-04-27T12:34:07Z</time></trkpt><trkpt lat="33.6603710140639" lon="-5.046986121758815"><ele>1511.0</ele><time>2026-04-27T12:34:08Z</time></trkpt><trkpt lat="33.660477893355704" lon="-5.046718332944795"><ele>1511.0</ele><time>2026-04-27T12:34:09Z</time></trkpt><trkpt lat="33.66059206536078" lon="-5.046454209311617"><ele>1510.0</ele><time>2026-04-27T12:34:10Z</time></trkpt><trkpt lat="33.66071925951861" lon="-5.046200300963348"><ele>1509.0</ele><time>2026-04-27T12:34:11Z</time></trkpt><trkpt lat="33.660853811434365" lon="-5.04596224724632"><ele>1507.6666666666667</ele><time>2026-04-27T12:34:12Z</time></trkpt><trkpt lat="33.66098997753474" lon="-5.045746998493656"><ele>1506.3333333333335</ele><time>2026-04-27T12:34:13Z</time></trkpt><trkpt lat="33.66112849775858" lon="-5.045545955131446"><ele>1505.0</ele><time>2026-04-27T12:34:14Z</time></trkpt><trkpt lat="33.66127190991086" lon="-5.04535494481221"><ele>1505.0</ele><time>2026-04-27T12:34:15Z</time></trkpt><trkpt lat="33.66141582744728" lon="-5.0451675344663105"><ele>1505.0</ele><time>2026-04-27T12:34:16Z</time></trkpt><trkpt lat="33.661558548432126" lon="-5.044987446188171"><ele>1505.0</ele><time>2026-04-27T12:34:17Z</time></trkpt><trkpt lat="33.66169649113871" lon="-5.044815587376899"><ele>1504.6666666666667</ele><time>2026-04-27T12:34:18Z</time></trkpt><trkpt lat="33.66182901719424" lon="-5.044647684886296"><ele>1504.3333333333333</ele><time>2026-04-27T12:34:19Z</time></trkpt><trkpt lat="33.661955154737555" lon="-5.0444896919764854"><ele>1504.0</ele><time>2026-04-27T12:34:20Z</time></trkpt><trkpt lat="33.66206796946827" lon="-5.044351637976956"><ele>1504.0</ele><time>2026-04-27T12:34:21Z</time></trkpt><trkpt lat="33.6621556468677" lon="-5.044242869731829"><ele>1504.0</ele><time>2026-04-27T12:34:22Z</time></trkpt><trkpt lat="33.66223016017543" lon="-5.044149583805402"><ele>1504.0</ele><time>2026-04-27T12:34:23Z</time></trkpt><trkpt lat="33.662297815007115" lon="-5.044070861976773"><ele>1504.0</ele><time>2026-04-27T12:34:24Z</time></trkpt><trkpt lat="33.66235782532805" lon="-5.043999147038494"><ele>1504.0</ele><time>2026-04-27T12:34:25Z</time></trkpt><trkpt lat="33.66241850998057" lon="-5.0439258694064835"><ele>1503.1666666666665</ele><time>2026-04-27T12:34:26Z</time></trkpt><trkpt lat="33.66247815737867" lon="-5.043853177881015"><ele>1502.3333333333333</ele><time>2026-04-27T12:34:27Z</time></trkpt><trkpt lat="33.6625377922935" lon="-5.043779839504664"><ele>1501.5</ele><time>2026-04-27T12:34:28Z</time></trkpt><trkpt lat="33.66259867823026" lon="-5.0437054015869895"><ele>1500.6666666666667</ele><time>2026-04-27T12:34:29Z</time></trkpt><trkpt lat="33.66265879981861" lon="-5.043631789059172"><ele>1499.8333333333335</ele><time>2026-04-27T12:34:30Z</time></trkpt><trkpt lat="33.66271665118266" lon="-5.0435597336704365"><ele>1499.0</ele><time>2026-04-27T12:34:31Z</time></trkpt><trkpt lat="33.66276777726696" lon="-5.043495192766809"><ele>1499.0</ele><time>2026-04-27T12:34:32Z</time></trkpt><trkpt lat="33.662812917019416" lon="-5.043436333966464"><ele>1499.0</ele><time>2026-04-27T12:34:33Z</time></trkpt><trkpt lat="33.66285631996348" lon="-5.043380549053196"><ele>1499.0</ele><time>2026-04-27T12:34:34Z</time></trkpt><trkpt lat="33.66292634725391" lon="-5.043296180463448"><ele>1499.0</ele><time>2026-04-27T12:34:36Z</time></trkpt><trkpt lat="33.66297408863513" lon="-5.043238501595067"><ele>1499.0</ele><time>2026-04-27T12:34:39Z</time></trkpt><trkpt lat="33.66302157419818" lon="-5.043188188164075"><ele>1499.0</ele><time>2026-04-27T12:34:45Z</time></trkpt><trkpt lat="33.66308305714134" lon="-5.043119398682537"><ele>1499.0</ele><time>2026-04-27T12:34:47Z</time></trkpt><trkpt lat="33.6631649988207" lon="-5.043021005118274"><ele>1498.5</ele><time>2026-04-27T12:34:49Z</time></trkpt><trkpt lat="33.6632123926769" lon="-5.042953794578636"><ele>1498.0</ele><time>2026-04-27T12:34:50Z</time></trkpt><trkpt lat="33.66326479642796" lon="-5.042876599831623"><ele>1497.5</ele><time>2026-04-27T12:34:51Z</time></trkpt><trkpt lat="33.66332279526892" lon="-5.042794596802806"><ele>1497.0</ele><time>2026-04-27T12:34:52Z</time></trkpt><trkpt lat="33.66338793696634" lon="-5.0427103456280085"><ele>1496.5</ele><time>2026-04-27T12:34:53Z</time></trkpt><trkpt lat="33.66346118462373" lon="-5.042621515462326"><ele>1496.0</ele><time>2026-04-27T12:34:54Z</time></trkpt><trkpt lat="33.66353853726728" lon="-5.042525038867475"><ele>1495.75</ele><time>2026-04-27T12:34:55Z</time></trkpt><trkpt lat="33.6636213688797" lon="-5.042424964386293"><ele>1495.5</ele><time>2026-04-27T12:34:56Z</time></trkpt><trkpt lat="33.663707365412215" lon="-5.042319413955501"><ele>1495.25</ele><time>2026-04-27T12:34:57Z</time></trkpt><trkpt lat="33.663794380056686" lon="-5.04221065531285"><ele>1495.0</ele><time>2026-04-27T12:34:58Z</time></trkpt><trkpt lat="33.66388635211057" lon="-5.042096950379768"><ele>1495.0</ele><time>2026-04-27T12:34:59Z</time></trkpt><trkpt lat="33.66398356727888" lon="-5.041980577346073"><ele>1495.0</ele><time>2026-04-27T12:35:00Z</time></trkpt><trkpt lat="33.66408759010818" lon="-5.04185855156651"><ele>1495.0</ele><time>2026-04-27T12:35:01Z</time></trkpt><trkpt lat="33.66419780009975" lon="-5.041730730893942"><ele>1495.0</ele><time>2026-04-27T12:35:02Z</time></trkpt><trkpt lat="33.66431498164368" lon="-5.041600546555945"><ele>1495.6666666666665</ele><time>2026-04-27T12:35:03Z</time></trkpt><trkpt lat="33.664439635875134" lon="-5.041475545503235"><ele>1496.3333333333333</ele><time>2026-04-27T12:35:04Z</time></trkpt><trkpt lat="33.66456802650829" lon="-5.04135050998961"><ele>1497.0</ele><time>2026-04-27T12:35:05Z</time></trkpt><trkpt lat="33.66470064117305" lon="-5.0412246827233"><ele>1495.0</ele><time>2026-04-27T12:35:06Z</time></trkpt><trkpt lat="33.66483722964083" lon="-5.041101169635298"><ele>1493.0</ele><time>2026-04-27T12:35:07Z</time></trkpt><trkpt lat="33.664979004993796" lon="-5.040979032026128"><ele>1491.0</ele><time>2026-04-27T12:35:08Z</time></trkpt><trkpt lat="33.6651226575092" lon="-5.040857488195763"><ele>1490.0</ele><time>2026-04-27T12:35:09Z</time></trkpt><trkpt lat="33.66526987845988" lon="-5.040736054429476"><ele>1489.0</ele><time>2026-04-27T12:35:10Z</time></trkpt><trkpt lat="33.66541820445976" lon="-5.040616191738524"><ele>1488.0</ele><time>2026-04-27T12:35:11Z</time></trkpt><trkpt lat="33.66556530709752" lon="-5.040496622542943"><ele>1488.0</ele><time>2026-04-27T12:35:12Z</time></trkpt><trkpt lat="33.66570782507932" lon="-5.040380153321488"><ele>1488.0</ele><time>2026-04-27T12:35:13Z</time></trkpt><trkpt lat="33.66584890627863" lon="-5.0402641331384395"><ele>1488.0</ele><time>2026-04-27T12:35:14Z</time></trkpt><trkpt lat="33.665991945712" lon="-5.040148922032758"><ele>1487.3333333333333</ele><time>2026-04-27T12:35:15Z</time></trkpt><trkpt lat="33.66613950360771" lon="-5.040030374628194"><ele>1486.6666666666665</ele><time>2026-04-27T12:35:16Z</time></trkpt><trkpt lat="33.6662895585578" lon="-5.03991088776194"><ele>1486.0</ele><time>2026-04-27T12:35:16.999Z</time></trkpt><trkpt lat="33.666443943096674" lon="-5.039785815578056"><ele>1485.6666666666665</ele><time>2026-04-27T12:35:17.999Z</time></trkpt><trkpt lat="33.666600989708854" lon="-5.039660519242248"><ele>1485.3333333333333</ele><time>2026-04-27T12:35:18.999Z</time></trkpt><trkpt lat="33.66676065473859" lon="-5.039536790555012"><ele>1485.0</ele><time>2026-04-27T12:35:19.999Z</time></trkpt><trkpt lat="33.66692160861333" lon="-5.03941205968124"><ele>1485.3333333333333</ele><time>2026-04-27T12:35:20.999Z</time></trkpt><trkpt lat="33.66708312430106" lon="-5.039284675910043"><ele>1485.6666666666665</ele><time>2026-04-27T12:35:21.999Z</time></trkpt><trkpt lat="33.66724389540717" lon="-5.039158325628702"><ele>1486.0</ele><time>2026-04-27T12:35:22.999Z</time></trkpt><trkpt lat="33.66739754313702" lon="-5.039036619870402"><ele>1486.0</ele><time>2026-04-27T12:35:23.999Z</time></trkpt><trkpt lat="33.667546676072384" lon="-5.038918036208672"><ele>1486.0</ele><time>2026-04-27T12:35:24.999Z</time></trkpt><trkpt lat="33.6676918211521" lon="-5.038798325507028"><ele>1486.0</ele><time>2026-04-27T12:35:25.999Z</time></trkpt><trkpt lat="33.66783384419513" lon="-5.03868631248268"><ele>1484.6666666666665</ele><time>2026-04-27T12:35:26.999Z</time></trkpt><trkpt lat="33.667973751496405" lon="-5.0385744288333445"><ele>1483.3333333333333</ele><time>2026-04-27T12:35:27.999Z</time></trkpt><trkpt lat="33.6681080092964" lon="-5.0384648733516215"><ele>1482.0</ele><time>2026-04-27T12:35:28.999Z</time></trkpt><trkpt lat="33.668243471511126" lon="-5.038358598972388"><ele>1481.0</ele><time>2026-04-27T12:35:29.999Z</time></trkpt><trkpt lat="33.668383874277296" lon="-5.038252534060009"><ele>1480.0</ele><time>2026-04-27T12:35:30.999Z</time></trkpt><trkpt lat="33.66853489991867" lon="-5.038144431372594"><ele>1479.0</ele><time>2026-04-27T12:35:31.999Z</time></trkpt><trkpt lat="33.66870173428431" lon="-5.038018850620484"><ele>1479.0</ele><time>2026-04-27T12:35:32.999Z</time></trkpt><trkpt lat="33.66887791388238" lon="-5.037873548017982"><ele>1479.0</ele><time>2026-04-27T12:35:33.999Z</time></trkpt><trkpt lat="33.6690499520838" lon="-5.037724020592591"><ele>1479.0</ele><time>2026-04-27T12:35:34.999Z</time></trkpt><trkpt lat="33.66922044593594" lon="-5.037578194059236"><ele>1477.0</ele><time>2026-04-27T12:35:35.999Z</time></trkpt><trkpt lat="33.66938867667658" lon="-5.037430637347112"><ele>1475.0</ele><time>2026-04-27T12:35:36.999Z</time></trkpt><trkpt lat="33.669557572145074" lon="-5.037276810775885"><ele>1473.0</ele><time>2026-04-27T12:35:37.999Z</time></trkpt><trkpt lat="33.66972604781713" lon="-5.037112269073428"><ele>1473.0</ele><time>2026-04-27T12:35:38.999Z</time></trkpt><trkpt lat="33.66988815543273" lon="-5.036934641422982"><ele>1473.0</ele><time>2026-04-27T12:35:39.999Z</time></trkpt><trkpt lat="33.670044280710876" lon="-5.036748579639066"><ele>1473.0</ele><time>2026-04-27T12:35:40.999Z</time></trkpt><trkpt lat="33.67019400640678" lon="-5.03655573236706"><ele>1472.0</ele><time>2026-04-27T12:35:41.999Z</time></trkpt><trkpt lat="33.67033766900099" lon="-5.036354407545456"><ele>1471.0</ele><time>2026-04-27T12:35:42.999Z</time></trkpt><trkpt lat="33.67047546731565" lon="-5.036146512128649"><ele>1470.0</ele><time>2026-04-27T12:35:43.999Z</time></trkpt><trkpt lat="33.670607676039566" lon="-5.03593535895868"><ele>1469.0</ele><time>2026-04-27T12:35:44.999Z</time></trkpt><trkpt lat="33.67073932912546" lon="-5.0357225470393505"><ele>1468.0</ele><time>2026-04-27T12:35:45.999Z</time></trkpt><trkpt lat="33.67086950140277" lon="-5.035513851366611"><ele>1467.0</ele><time>2026-04-27T12:35:46.999Z</time></trkpt><trkpt lat="33.671001810153584" lon="-5.035306332782261"><ele>1465.0</ele><time>2026-04-27T12:35:47.999Z</time></trkpt><trkpt lat="33.67113475540115" lon="-5.035102034221324"><ele>1463.0</ele><time>2026-04-27T12:35:48.999Z</time></trkpt><trkpt lat="33.67126964536439" lon="-5.034899383825304"><ele>1461.0</ele><time>2026-04-27T12:35:49.999Z</time></trkpt><trkpt lat="33.67140646646831" lon="-5.034698628453764"><ele>1461.0</ele><time>2026-04-27T12:35:50.999Z</time></trkpt><trkpt lat="33.67155019522136" lon="-5.034499597633156"><ele>1461.0</ele><time>2026-04-27T12:35:52Z</time></trkpt><trkpt lat="33.67169880769759" lon="-5.03430122079836"><ele>1461.0</ele><time>2026-04-27T12:35:53Z</time></trkpt><trkpt lat="33.671850442266745" lon="-5.034106814956514"><ele>1460.3333333333333</ele><time>2026-04-27T12:35:54Z</time></trkpt><trkpt lat="33.672003888105166" lon="-5.033917018964474"><ele>1459.6666666666665</ele><time>2026-04-27T12:35:55Z</time></trkpt><trkpt lat="33.672160986258895" lon="-5.033727892212346"><ele>1459.0</ele><time>2026-04-27T12:35:56Z</time></trkpt><trkpt lat="33.67232241837692" lon="-5.033538333434989"><ele>1459.0</ele><time>2026-04-27T12:35:57Z</time></trkpt><trkpt lat="33.672483672520556" lon="-5.033353652657266"><ele>1459.0</ele><time>2026-04-27T12:35:58Z</time></trkpt><trkpt lat="33.67264459067254" lon="-5.0331657370494725"><ele>1459.0</ele><time>2026-04-27T12:35:59Z</time></trkpt><trkpt lat="33.672810299156446" lon="-5.032981512158813"><ele>1457.3333333333333</ele><time>2026-04-27T12:36:00Z</time></trkpt><trkpt lat="33.67297162022246" lon="-5.032796116256952"><ele>1455.6666666666667</ele><time>2026-04-27T12:36:01Z</time></trkpt><trkpt lat="33.6731328394738" lon="-5.032610475442817"><ele>1454.0</ele><time>2026-04-27T12:36:02Z</time></trkpt><trkpt lat="33.67329774584952" lon="-5.032428618174407"><ele>1452.3333333333335</ele><time>2026-04-27T12:36:03Z</time></trkpt><trkpt lat="33.67346746866691" lon="-5.032256768166083"><ele>1450.6666666666667</ele><time>2026-04-27T12:36:04Z</time></trkpt><trkpt lat="33.67364069163902" lon="-5.032088980654311"><ele>1449.0</ele><time>2026-04-27T12:36:05Z</time></trkpt><trkpt lat="33.67381920453493" lon="-5.03192433394515"><ele>1449.0</ele><time>2026-04-27T12:36:06Z</time></trkpt><trkpt lat="33.67400160161149" lon="-5.031769939400057"><ele>1449.0</ele><time>2026-04-27T12:36:07Z</time></trkpt><trkpt lat="33.67418611733383" lon="-5.03162537858126"><ele>1449.0</ele><time>2026-04-27T12:36:08Z</time></trkpt><trkpt lat="33.674376838553535" lon="-5.031490739074971"><ele>1446.3333333333333</ele><time>2026-04-27T12:36:09Z</time></trkpt><trkpt lat="33.67457115377575" lon="-5.031360646047157"><ele>1443.6666666666665</ele><time>2026-04-27T12:36:10Z</time></trkpt><trkpt lat="33.67476711532467" lon="-5.031235125726598"><ele>1441.0</ele><time>2026-04-27T12:36:11Z</time></trkpt><trkpt lat="33.674964808840926" lon="-5.031112853348995"><ele>1441.0</ele><time>2026-04-27T12:36:12Z</time></trkpt><trkpt lat="33.675163712963226" lon="-5.030993894499101"><ele>1441.0</ele><time>2026-04-27T12:36:13Z</time></trkpt><trkpt lat="33.67536366721828" lon="-5.030879274249903"><ele>1441.0</ele><time>2026-04-27T12:36:14Z</time></trkpt><trkpt lat="33.675567080586966" lon="-5.030767582591748"><ele>1435.5</ele><time>2026-04-27T12:36:15Z</time></trkpt><trkpt lat="33.67577373130962" lon="-5.030657024905313"><ele>1430.0</ele><time>2026-04-27T12:36:16Z</time></trkpt><trkpt lat="33.67597860363893" lon="-5.030546980007296"><ele>1428.5</ele><time>2026-04-27T12:36:17Z</time></trkpt><trkpt lat="33.67618337957458" lon="-5.030435380692894"><ele>1427.0</ele><time>2026-04-27T12:36:18Z</time></trkpt><trkpt lat="33.676392358804605" lon="-5.0303231067761285"><ele>1427.0</ele><time>2026-04-27T12:36:19Z</time></trkpt><trkpt lat="33.67660745503736" lon="-5.030208746004335"><ele>1427.0</ele><time>2026-04-27T12:36:20Z</time></trkpt><trkpt lat="33.67682444480075" lon="-5.030091498650571"><ele>1426.5</ele><time>2026-04-27T12:36:21Z</time></trkpt><trkpt lat="33.677042436500805" lon="-5.029975931274898"><ele>1426.0</ele><time>2026-04-27T12:36:22Z</time></trkpt><trkpt lat="33.67725988112917" lon="-5.02986085798166"><ele>1424.5</ele><time>2026-04-27T12:36:23Z</time></trkpt><trkpt lat="33.67747616746798" lon="-5.029743884029182"><ele>1423.0</ele><time>2026-04-27T12:36:24Z</time></trkpt><trkpt lat="33.67769195371651" lon="-5.029625845155352"><ele>1422.0</ele><time>2026-04-27T12:36:25Z</time></trkpt><trkpt lat="33.677907823082286" lon="-5.029510076293805"><ele>1421.0</ele><time>2026-04-27T12:36:26Z</time></trkpt><trkpt lat="33.67812308278632" lon="-5.02939620349638"><ele>1421.0</ele><time>2026-04-27T12:36:27Z</time></trkpt><trkpt lat="33.67833790925598" lon="-5.029282209881704"><ele>1421.0</ele><time>2026-04-27T12:36:28Z</time></trkpt><trkpt lat="33.678551346506936" lon="-5.0291680393075175"><ele>1421.0</ele><time>2026-04-27T12:36:29Z</time></trkpt><trkpt lat="33.67876346553099" lon="-5.029053048862691"><ele>1421.0</ele><time>2026-04-27T12:36:30Z</time></trkpt><trkpt lat="33.67897502406114" lon="-5.028936270872677"><ele>1421.0</ele><time>2026-04-27T12:36:31Z</time></trkpt><trkpt lat="33.679186752179056" lon="-5.028822920607026"><ele>1421.0</ele><time>2026-04-27T12:36:32Z</time></trkpt><trkpt lat="33.67939971645391" lon="-5.028709658240443"><ele>1421.0</ele><time>2026-04-27T12:36:33Z</time></trkpt><trkpt lat="33.67961360340163" lon="-5.028591457783085"><ele>1421.0</ele><time>2026-04-27T12:36:34Z</time></trkpt><trkpt lat="33.67982859308874" lon="-5.028473602425815"><ele>1421.0</ele><time>2026-04-27T12:36:35Z</time></trkpt><trkpt lat="33.68004461000534" lon="-5.028358301547195"><ele>1421.0</ele><time>2026-04-27T12:36:36Z</time></trkpt><trkpt lat="33.680261529719914" lon="-5.028243693889977"><ele>1421.0</ele><time>2026-04-27T12:36:37Z</time></trkpt><trkpt lat="33.68047916540029" lon="-5.028127306472474"><ele>1421.0</ele><time>2026-04-27T12:36:38Z</time></trkpt><trkpt lat="33.68069780534543" lon="-5.028009714725105"><ele>1421.0</ele><time>2026-04-27T12:36:39Z</time></trkpt><trkpt lat="33.6809155823589" lon="-5.0278907363171585"><ele>1421.0</ele><time>2026-04-27T12:36:40Z</time></trkpt><trkpt lat="33.68113205677807" lon="-5.027768622137186"><ele>1424.5</ele><time>2026-04-27T12:36:41Z</time></trkpt><trkpt lat="33.68134769066287" lon="-5.027642144337219"><ele>1428.0</ele><time>2026-04-27T12:36:42Z</time></trkpt><trkpt lat="33.68156215715948" lon="-5.027513134305838"><ele>1427.5</ele><time>2026-04-27T12:36:43Z</time></trkpt><trkpt lat="33.681777060618415" lon="-5.027384362175776"><ele>1427.0</ele><time>2026-04-27T12:36:44Z</time></trkpt><trkpt lat="33.6819924212557" lon="-5.0272553484678655"><ele>1427.0</ele><time>2026-04-27T12:36:45Z</time></trkpt><trkpt lat="33.682208482090424" lon="-5.027125941164273"><ele>1427.0</ele><time>2026-04-27T12:36:46Z</time></trkpt><trkpt lat="33.682426708203295" lon="-5.026996229467674"><ele>1427.0</ele><time>2026-04-27T12:36:47Z</time></trkpt><trkpt lat="33.68264356691111" lon="-5.026864942470777"><ele>1427.0</ele><time>2026-04-27T12:36:48Z</time></trkpt><trkpt lat="33.682859560471464" lon="-5.026731501831759"><ele>1425.0</ele><time>2026-04-27T12:36:49Z</time></trkpt><trkpt lat="33.68307724391796" lon="-5.026598010743372"><ele>1423.0</ele><time>2026-04-27T12:36:50Z</time></trkpt><trkpt lat="33.68329499696101" lon="-5.026465697980391"><ele>1423.0</ele><time>2026-04-27T12:36:51Z</time></trkpt><trkpt lat="33.68351315803422" lon="-5.026329930073841"><ele>1423.0</ele><time>2026-04-27T12:36:52Z</time></trkpt><trkpt lat="33.68373153543668" lon="-5.026196781543436"><ele>1425.0</ele><time>2026-04-27T12:36:53Z</time></trkpt><trkpt lat="33.683949886745125" lon="-5.026062678333887"><ele>1427.0</ele><time>2026-04-27T12:36:54Z</time></trkpt><trkpt lat="33.68416780181992" lon="-5.025928982720913"><ele>1426.5</ele><time>2026-04-27T12:36:55Z</time></trkpt><trkpt lat="33.68438620088967" lon="-5.025794480702474"><ele>1426.0</ele><time>2026-04-27T12:36:56Z</time></trkpt><trkpt lat="33.684603677963786" lon="-5.025658941842819"><ele>1426.0</ele><time>2026-04-27T12:36:57Z</time></trkpt><trkpt lat="33.68482081662729" lon="-5.025523818143677"><ele>1426.0</ele><time>2026-04-27T12:36:58Z</time></trkpt><trkpt lat="33.6850397994479" lon="-5.0253930965461"><ele>1426.0</ele><time>2026-04-27T12:36:59Z</time></trkpt><trkpt lat="33.68525760394257" lon="-5.025262204380031"><ele>1426.0</ele><time>2026-04-27T12:37:00Z</time></trkpt><trkpt lat="33.68547347071307" lon="-5.025128299856131"><ele>1425.5</ele><time>2026-04-27T12:37:01Z</time></trkpt><trkpt lat="33.68568950147704" lon="-5.024998211219066"><ele>1425.0</ele><time>2026-04-27T12:37:02Z</time></trkpt><trkpt lat="33.68590623794433" lon="-5.024866923335494"><ele>1424.0</ele><time>2026-04-27T12:37:03Z</time></trkpt><trkpt lat="33.68612156013438" lon="-5.024734182882117"><ele>1423.0</ele><time>2026-04-27T12:37:04Z</time></trkpt><trkpt lat="33.68633445691462" lon="-5.0245990011349"><ele>1423.0</ele><time>2026-04-27T12:37:05Z</time></trkpt><trkpt lat="33.68654636603866" lon="-5.024467587246368"><ele>1423.0</ele><time>2026-04-27T12:37:06Z</time></trkpt><trkpt lat="33.686755560833085" lon="-5.0243366599226285"><ele>1424.0</ele><time>2026-04-27T12:37:07Z</time></trkpt><trkpt lat="33.68696267720155" lon="-5.024208299860986"><ele>1425.0</ele><time>2026-04-27T12:37:08Z</time></trkpt><trkpt lat="33.68716704703733" lon="-5.024080736736626"><ele>1425.0</ele><time>2026-04-27T12:37:09Z</time></trkpt><trkpt lat="33.687371168045765" lon="-5.023956091377828"><ele>1425.0</ele><time>2026-04-27T12:37:10Z</time></trkpt><trkpt lat="33.68757429678214" lon="-5.023832941536383"><ele>1424.0</ele><time>2026-04-27T12:37:11Z</time></trkpt><trkpt lat="33.687775666864106" lon="-5.023709507771125"><ele>1423.0</ele><time>2026-04-27T12:37:12Z</time></trkpt><trkpt lat="33.68797750416695" lon="-5.023587155748321"><ele>1423.0</ele><time>2026-04-27T12:37:13Z</time></trkpt><trkpt lat="33.6881770707386" lon="-5.023461938620898"><ele>1423.0</ele><time>2026-04-27T12:37:14Z</time></trkpt><trkpt lat="33.688376760560274" lon="-5.023335904313845"><ele>1423.0</ele><time>2026-04-27T12:37:15Z</time></trkpt><trkpt lat="33.68857545189031" lon="-5.023210413000186"><ele>1423.0</ele><time>2026-04-27T12:37:15.999Z</time></trkpt><trkpt lat="33.68877498771683" lon="-5.023088381390317"><ele>1423.0</ele><time>2026-04-27T12:37:16.999Z</time></trkpt><trkpt lat="33.68896177560449" lon="-5.022974322519342"><ele>1423.0</ele><time>2026-04-27T12:37:17.999Z</time></trkpt><trkpt lat="33.689134964121365" lon="-5.022870462772993"><ele>1423.0</ele><time>2026-04-27T12:37:18.999Z</time></trkpt><trkpt lat="33.689292710191644" lon="-5.022772257897201"><ele>1423.0</ele><time>2026-04-27T12:37:19.999Z</time></trkpt><trkpt lat="33.68944266048246" lon="-5.02267952295392"><ele>1422.3333333333333</ele><time>2026-04-27T12:37:20.999Z</time></trkpt><trkpt lat="33.6895869636079" lon="-5.022590994959739"><ele>1421.6666666666667</ele><time>2026-04-27T12:37:21.999Z</time></trkpt><trkpt lat="33.68972592408937" lon="-5.0225079588419765"><ele>1421.0</ele><time>2026-04-27T12:37:22.999Z</time></trkpt><trkpt lat="33.689854802468275" lon="-5.022428890391111"><ele>1421.0</ele><time>2026-04-27T12:37:23.999Z</time></trkpt><trkpt lat="33.68997368239574" lon="-5.022354701886942"><ele>1421.0</ele><time>2026-04-27T12:37:24.999Z</time></trkpt><trkpt lat="33.69008095300933" lon="-5.022287995243181"><ele>1421.0</ele><time>2026-04-27T12:37:25.999Z</time></trkpt><trkpt lat="33.6901764827426" lon="-5.0222288830934785"><ele>1421.0</ele><time>2026-04-27T12:37:26.999Z</time></trkpt><trkpt lat="33.6902557857455" lon="-5.022182230332501"><ele>1420.8333333333335</ele><time>2026-04-27T12:37:27.999Z</time></trkpt><trkpt lat="33.690323830301985" lon="-5.022145149216503"><ele>1420.6666666666667</ele><time>2026-04-27T12:37:28.999Z</time></trkpt><trkpt lat="33.69042318990194" lon="-5.022135974355162"><ele>1420.5</ele><time>2026-04-27T12:37:30.999Z</time></trkpt><trkpt lat="33.690504851725244" lon="-5.0221888346310015"><ele>1420.3333333333333</ele><time>2026-04-27T12:37:32.999Z</time></trkpt><trkpt lat="33.69058451624523" lon="-5.022245777273467"><ele>1420.1666666666665</ele><time>2026-04-27T12:37:34.999Z</time></trkpt><trkpt lat="33.69067148503255" lon="-5.022266616617242"><ele>1420.0</ele><time>2026-04-27T12:37:36.999Z</time></trkpt><trkpt lat="33.69073451251571" lon="-5.022282055998288"><ele>1420.0</ele><time>2026-04-27T12:37:38.999Z</time></trkpt><trkpt lat="33.690803612011344" lon="-5.02232469086979"><ele>1420.0</ele><time>2026-04-27T12:37:41.999Z</time></trkpt><trkpt lat="33.69085637918042" lon="-5.022278719169435"><ele>1420.0</ele><time>2026-04-27T12:40:20Z</time></trkpt><trkpt lat="33.690888892793346" lon="-5.022211014778914"><ele>1420.0</ele><time>2026-04-27T12:40:23Z</time></trkpt><trkpt lat="33.69083410805303" lon="-5.022147590291556"><ele>1420.0</ele><time>2026-04-27T12:40:25Z</time></trkpt><trkpt lat="33.69074048095064" lon="-5.022197899482927"><ele>1420.0</ele><time>2026-04-27T12:40:27Z</time></trkpt><trkpt lat="33.690649075770516" lon="-5.022122759158029"><ele>1420.0</ele><time>2026-04-27T12:40:28Z</time></trkpt><trkpt lat="33.69055583234419" lon="-5.022179928566015"><ele>1420.0</ele><time>2026-04-27T12:40:30Z</time></trkpt><trkpt lat="33.690491873432535" lon="-5.022219143009974"><ele>1420.0</ele><time>2026-04-27T12:40:32Z</time></trkpt><trkpt lat="33.690426922284765" lon="-5.022258965702551"><ele>1420.0</ele><time>2026-04-27T12:42:03.999Z</time></trkpt><trkpt lat="33.690435074511754" lon="-5.022390156265718"><ele>1420.0</ele><time>2026-04-27T12:42:14Z</time></trkpt><trkpt lat="33.690414502934864" lon="-5.022493258883831"><ele>1420.0</ele><time>2026-04-27T12:42:49Z</time></trkpt><trkpt lat="33.69053996725962" lon="-5.0224460954701255"><ele>1420.0</ele><time>2026-04-27T12:47:10.803Z</time></trkpt><trkpt lat="33.69060230230635" lon="-5.022350059724128"><ele>1420.0</ele><time>2026-04-27T12:47:18.454Z</time></trkpt><trkpt lat="33.69051139497989" lon="-5.022414921823412"><ele>1420.0</ele><time>2026-04-27T12:47:29.998Z</time></trkpt><trkpt lat="33.690452221531665" lon="-5.022478075405332"><ele>1420.0</ele><time>2026-04-27T12:47:31.998Z</time></trkpt><trkpt lat="33.69038524090485" lon="-5.022477872952435"><ele>1420.0</ele><time>2026-04-27T13:19:48Z</time></trkpt><trkpt lat="33.69042786026056" lon="-5.022402824476126"><ele>1420.0</ele><time>2026-04-27T13:28:44.999Z</time></trkpt><trkpt lat="33.69049602120801" lon="-5.022383120263147"><ele>1420.0</ele><time>2026-04-27T13:28:49.999Z</time></trkpt><trkpt lat="33.69050944350865" lon="-5.022302261832088"><ele>1420.0</ele><time>2026-04-27T13:32:19Z</time></trkpt><trkpt lat="33.690474433464686" lon="-5.022217534530749"><ele>1420.0</ele><time>2026-04-27T13:32:57Z</time></trkpt><trkpt lat="33.69046972628901" lon="-5.0221261362758165"><ele>1420.0</ele><time>2026-04-27T13:33:08Z</time></trkpt><trkpt lat="33.69051059227728" lon="-5.02203441119682"><ele>1420.0</ele><time>2026-04-27T13:33:10Z</time></trkpt><trkpt lat="33.69060946735264" lon="-5.021951463122369"><ele>1420.0</ele><time>2026-04-27T13:33:11Z</time></trkpt><trkpt lat="33.69069699051063" lon="-5.021900092912685"><ele>1420.0</ele><time>2026-04-27T13:33:12Z</time></trkpt><trkpt lat="33.690793115671404" lon="-5.021847183499535"><ele>1420.0</ele><time>2026-04-27T13:33:13Z</time></trkpt><trkpt lat="33.69088004647658" lon="-5.021796289107041"><ele>1420.0</ele><time>2026-04-27T13:33:14Z</time></trkpt><trkpt lat="33.6909660273921" lon="-5.021743697561191"><ele>1420.0</ele><time>2026-04-27T13:33:15Z</time></trkpt><trkpt lat="33.69105028982875" lon="-5.021690717762882"><ele>1420.0</ele><time>2026-04-27T13:33:16Z</time></trkpt><trkpt lat="33.69113100092666" lon="-5.021642012717306"><ele>1419.8333333333333</ele><time>2026-04-27T13:33:17Z</time></trkpt><trkpt lat="33.691207722185304" lon="-5.021595752986417"><ele>1419.6666666666665</ele><time>2026-04-27T13:33:18Z</time></trkpt><trkpt lat="33.69128034484905" lon="-5.021550249282128"><ele>1419.5</ele><time>2026-04-27T13:33:19Z</time></trkpt><trkpt lat="33.69134893021706" lon="-5.021505910744974"><ele>1419.3333333333333</ele><time>2026-04-27T13:33:20Z</time></trkpt><trkpt lat="33.69141645534801" lon="-5.021464151839273"><ele>1419.1666666666667</ele><time>2026-04-27T13:33:21Z</time></trkpt><trkpt lat="33.691485612430675" lon="-5.021424328115827"><ele>1419.0</ele><time>2026-04-27T13:33:22Z</time></trkpt><trkpt lat="33.69155657720876" lon="-5.0213825283462405"><ele>1419.0</ele><time>2026-04-27T13:33:23Z</time></trkpt><trkpt lat="33.69162862410968" lon="-5.021338817898898"><ele>1419.0</ele><time>2026-04-27T13:33:24Z</time></trkpt><trkpt lat="33.69170486787476" lon="-5.021292718460133"><ele>1419.0</ele><time>2026-04-27T13:33:25Z</time></trkpt><trkpt lat="33.69178657315938" lon="-5.021241557611643"><ele>1419.0</ele><time>2026-04-27T13:33:26Z</time></trkpt><trkpt lat="33.69187710267202" lon="-5.021184807840764"><ele>1419.0</ele><time>2026-04-27T13:33:27Z</time></trkpt><trkpt lat="33.69197542979271" lon="-5.021122592873897"><ele>1419.25</ele><time>2026-04-27T13:33:28Z</time></trkpt><trkpt lat="33.69208442221674" lon="-5.021055646809959"><ele>1419.5</ele><time>2026-04-27T13:33:29Z</time></trkpt><trkpt lat="33.69220373869274" lon="-5.020982418057695"><ele>1419.75</ele><time>2026-04-27T13:33:30Z</time></trkpt><trkpt lat="33.69233229358623" lon="-5.020903676611057"><ele>1420.0</ele><time>2026-04-27T13:33:31Z</time></trkpt><trkpt lat="33.69246004395342" lon="-5.0208259609532835"><ele>1419.0</ele><time>2026-04-27T13:33:32Z</time></trkpt><trkpt lat="33.692592400182455" lon="-5.0207430361026875"><ele>1418.0</ele><time>2026-04-27T13:33:33Z</time></trkpt><trkpt lat="33.6927319311228" lon="-5.020657934675361"><ele>1417.0</ele><time>2026-04-27T13:33:34Z</time></trkpt><trkpt lat="33.692875516773306" lon="-5.020571676774985"><ele>1417.0</ele><time>2026-04-27T13:33:35Z</time></trkpt><trkpt lat="33.69302153819347" lon="-5.020482000273656"><ele>1417.0</ele><time>2026-04-27T13:33:36Z</time></trkpt><trkpt lat="33.69317075521282" lon="-5.0203920645646845"><ele>1417.0</ele><time>2026-04-27T13:33:37Z</time></trkpt><trkpt lat="33.69332213904076" lon="-5.02029881363805"><ele>1417.0</ele><time>2026-04-27T13:33:38Z</time></trkpt><trkpt lat="33.693475579944106" lon="-5.020202936296637"><ele>1417.0</ele><time>2026-04-27T13:33:39Z</time></trkpt><trkpt lat="33.69363260148229" lon="-5.02010269050655"><ele>1417.0</ele><time>2026-04-27T13:33:40Z</time></trkpt><trkpt lat="33.69379007375035" lon="-5.020009524869142"><ele>1417.3333333333333</ele><time>2026-04-27T13:33:41Z</time></trkpt><trkpt lat="33.69394386280951" lon="-5.019916553740434"><ele>1417.6666666666667</ele><time>2026-04-27T13:33:42Z</time></trkpt><trkpt lat="33.694098391859235" lon="-5.0198205134924505"><ele>1418.0</ele><time>2026-04-27T13:33:43Z</time></trkpt><trkpt lat="33.694255113608506" lon="-5.019725036079228"><ele>1418.0</ele><time>2026-04-27T13:33:44Z</time></trkpt><trkpt lat="33.69441367566621" lon="-5.01962557841774"><ele>1418.0</ele><time>2026-04-27T13:33:45Z</time></trkpt><trkpt lat="33.69457042025588" lon="-5.019526601308112"><ele>1418.0</ele><time>2026-04-27T13:33:46Z</time></trkpt><trkpt lat="33.694727425460684" lon="-5.019427274687154"><ele>1417.3333333333335</ele><time>2026-04-27T13:33:47Z</time></trkpt><trkpt lat="33.69488869707195" lon="-5.019328054338871"><ele>1416.6666666666667</ele><time>2026-04-27T13:33:48Z</time></trkpt><trkpt lat="33.69505182614095" lon="-5.019229501238854"><ele>1416.0</ele><time>2026-04-27T13:33:49Z</time></trkpt><trkpt lat="33.69521765635785" lon="-5.019128663149181"><ele>1416.6666666666667</ele><time>2026-04-27T13:33:50Z</time></trkpt><trkpt lat="33.69538405058049" lon="-5.019025868320972"><ele>1417.3333333333335</ele><time>2026-04-27T13:33:51Z</time></trkpt><trkpt lat="33.6955486612711" lon="-5.018925570829253"><ele>1418.0</ele><time>2026-04-27T13:33:52Z</time></trkpt><trkpt lat="33.69570525114751" lon="-5.018829223948174"><ele>1418.0</ele><time>2026-04-27T13:33:53Z</time></trkpt><trkpt lat="33.69585032441141" lon="-5.018738573684495"><ele>1418.0</ele><time>2026-04-27T13:33:54Z</time></trkpt><trkpt lat="33.69598199002972" lon="-5.0186565375083445"><ele>1418.0</ele><time>2026-04-27T13:33:55Z</time></trkpt><trkpt lat="33.69610510260262" lon="-5.01858172503179"><ele>1417.25</ele><time>2026-04-27T13:33:56Z</time></trkpt><trkpt lat="33.69622696816466" lon="-5.018507906957738"><ele>1416.5</ele><time>2026-04-27T13:33:57Z</time></trkpt><trkpt lat="33.696347644630855" lon="-5.018429421594365"><ele>1415.75</ele><time>2026-04-27T13:33:58Z</time></trkpt><trkpt lat="33.696472346555964" lon="-5.018351776140913"><ele>1415.0</ele><time>2026-04-27T13:33:59Z</time></trkpt><trkpt lat="33.69659724864525" lon="-5.018274975772703"><ele>1415.0</ele><time>2026-04-27T13:34:00Z</time></trkpt><trkpt lat="33.69672000040074" lon="-5.018198808219565"><ele>1415.0</ele><time>2026-04-27T13:34:01Z</time></trkpt><trkpt lat="33.696843326447635" lon="-5.018123782532061"><ele>1415.0</ele><time>2026-04-27T13:34:02Z</time></trkpt><trkpt lat="33.6969666775082" lon="-5.018048593323549"><ele>1415.0</ele><time>2026-04-27T13:34:03Z</time></trkpt><trkpt lat="33.69709080128055" lon="-5.017972333862409"><ele>1415.25</ele><time>2026-04-27T13:34:04Z</time></trkpt><trkpt lat="33.69721308836269" lon="-5.0178957198612615"><ele>1415.5</ele><time>2026-04-27T13:34:05Z</time></trkpt><trkpt lat="33.69733512632815" lon="-5.017819353871412"><ele>1415.75</ele><time>2026-04-27T13:34:06Z</time></trkpt><trkpt lat="33.69745704596618" lon="-5.017741487472665"><ele>1416.0</ele><time>2026-04-27T13:34:07Z</time></trkpt><trkpt lat="33.6975809364447" lon="-5.017661259185593"><ele>1416.0</ele><time>2026-04-27T13:34:08Z</time></trkpt><trkpt lat="33.69770861892748" lon="-5.017579660368558"><ele>1416.0</ele><time>2026-04-27T13:34:09Z</time></trkpt><trkpt lat="33.697834333250995" lon="-5.017500098296954"><ele>1416.0</ele><time>2026-04-27T13:34:10Z</time></trkpt><trkpt lat="33.697958506169904" lon="-5.01742490792552"><ele>1416.0</ele><time>2026-04-27T13:34:11Z</time></trkpt><trkpt lat="33.69807721999747" lon="-5.017353504479089"><ele>1415.75</ele><time>2026-04-27T13:34:12Z</time></trkpt><trkpt lat="33.698192702018694" lon="-5.017282431716849"><ele>1415.5</ele><time>2026-04-27T13:34:13Z</time></trkpt><trkpt lat="33.69830736623891" lon="-5.0172113692334905"><ele>1415.25</ele><time>2026-04-27T13:34:14Z</time></trkpt><trkpt lat="33.69842138542305" lon="-5.017138906746844"><ele>1415.0</ele><time>2026-04-27T13:34:15Z</time></trkpt><trkpt lat="33.698540832229014" lon="-5.017066699394905"><ele>1416.75</ele><time>2026-04-27T13:34:16Z</time></trkpt><trkpt lat="33.69866487358162" lon="-5.016991441356261"><ele>1418.5</ele><time>2026-04-27T13:34:17Z</time></trkpt><trkpt lat="33.698793325613956" lon="-5.016914869370123"><ele>1420.25</ele><time>2026-04-27T13:34:18Z</time></trkpt><trkpt lat="33.69892663598434" lon="-5.0168350120435266"><ele>1422.0</ele><time>2026-04-27T13:34:19Z</time></trkpt><trkpt lat="33.69906266270993" lon="-5.016750850757986"><ele>1422.0</ele><time>2026-04-27T13:34:20Z</time></trkpt><trkpt lat="33.6992009531658" lon="-5.016665263068822"><ele>1422.0</ele><time>2026-04-27T13:34:21Z</time></trkpt><trkpt lat="33.69934238871248" lon="-5.016578245036706"><ele>1422.0</ele><time>2026-04-27T13:34:22Z</time></trkpt><trkpt lat="33.6994858233062" lon="-5.016489842674842"><ele>1420.0</ele><time>2026-04-27T13:34:23Z</time></trkpt><trkpt lat="33.69963134606284" lon="-5.016406408804727"><ele>1418.0</ele><time>2026-04-27T13:34:24Z</time></trkpt><trkpt lat="33.69977976254223" lon="-5.01631702715037"><ele>1416.0</ele><time>2026-04-27T13:34:25Z</time></trkpt><trkpt lat="33.69993097517829" lon="-5.0162267334490345"><ele>1416.0</ele><time>2026-04-27T13:34:26Z</time></trkpt><trkpt lat="33.700083469412704" lon="-5.0161340131451455"><ele>1416.0</ele><time>2026-04-27T13:34:27Z</time></trkpt><trkpt lat="33.70023957888388" lon="-5.016039689011217"><ele>1416.0</ele><time>2026-04-27T13:34:28Z</time></trkpt><trkpt lat="33.70040193258062" lon="-5.015948051044479"><ele>1416.3333333333333</ele><time>2026-04-27T13:34:29Z</time></trkpt><trkpt lat="33.7005704363964" lon="-5.015859041308849"><ele>1416.6666666666665</ele><time>2026-04-27T13:34:30Z</time></trkpt><trkpt lat="33.700744226268405" lon="-5.015764970859754"><ele>1417.0</ele><time>2026-04-27T13:34:31Z</time></trkpt><trkpt lat="33.700922464045625" lon="-5.015674531633925"><ele>1414.0</ele><time>2026-04-27T13:34:32Z</time></trkpt><trkpt lat="33.70110447167888" lon="-5.01558915600026"><ele>1411.0</ele><time>2026-04-27T13:34:33Z</time></trkpt><trkpt lat="33.70128926097749" lon="-5.01550702679763"><ele>1408.0</ele><time>2026-04-27T13:34:34Z</time></trkpt><trkpt lat="33.701478858159476" lon="-5.015429250985004"><ele>1408.0</ele><time>2026-04-27T13:34:35Z</time></trkpt><trkpt lat="33.70167118617724" lon="-5.015356077925844"><ele>1408.0</ele><time>2026-04-27T13:34:36Z</time></trkpt><trkpt lat="33.70186583670097" lon="-5.0152871837126325"><ele>1408.0</ele><time>2026-04-27T13:34:37Z</time></trkpt><trkpt lat="33.70206263662653" lon="-5.01522178280689"><ele>1408.0</ele><time>2026-04-27T13:34:38Z</time></trkpt><trkpt lat="33.70226261611439" lon="-5.015159871142231"><ele>1408.0</ele><time>2026-04-27T13:34:39Z</time></trkpt><trkpt lat="33.70246411845152" lon="-5.015102567752222"><ele>1408.0</ele><time>2026-04-27T13:34:40Z</time></trkpt><trkpt lat="33.70266924440195" lon="-5.015050390126662"><ele>1408.0</ele><time>2026-04-27T13:34:41Z</time></trkpt><trkpt lat="33.7028760118928" lon="-5.015002374854974"><ele>1408.0</ele><time>2026-04-27T13:34:42Z</time></trkpt><trkpt lat="33.70308266118872" lon="-5.014954791356581"><ele>1408.0</ele><time>2026-04-27T13:34:43Z</time></trkpt><trkpt lat="33.703288654932045" lon="-5.0149084715771926"><ele>1404.0</ele><time>2026-04-27T13:34:44Z</time></trkpt><trkpt lat="33.70348711231668" lon="-5.014865520097281"><ele>1400.0</ele><time>2026-04-27T13:34:45Z</time></trkpt><trkpt lat="33.70368056357682" lon="-5.014822300365335"><ele>1396.0</ele><time>2026-04-27T13:34:46Z</time></trkpt><trkpt lat="33.70387182052909" lon="-5.014781337860138"><ele>1396.0</ele><time>2026-04-27T13:34:47Z</time></trkpt><trkpt lat="33.70406202769182" lon="-5.014739280456291"><ele>1396.0</ele><time>2026-04-27T13:34:48Z</time></trkpt><trkpt lat="33.70425102041359" lon="-5.014692855764997"><ele>1396.0</ele><time>2026-04-27T13:34:49Z</time></trkpt><trkpt lat="33.7044455813413" lon="-5.014644654815799"><ele>1395.0</ele><time>2026-04-27T13:34:50Z</time></trkpt><trkpt lat="33.704642598339134" lon="-5.014597475644335"><ele>1394.0</ele><time>2026-04-27T13:34:51Z</time></trkpt><trkpt lat="33.70483785764752" lon="-5.0145555154384365"><ele>1393.0</ele><time>2026-04-27T13:34:52Z</time></trkpt><trkpt lat="33.70503446537246" lon="-5.014509131626589"><ele>1393.0</ele><time>2026-04-27T13:34:53Z</time></trkpt><trkpt lat="33.705233701386994" lon="-5.014463395208266"><ele>1393.0</ele><time>2026-04-27T13:34:54Z</time></trkpt><trkpt lat="33.70543305363506" lon="-5.014418490923243"><ele>1393.0</ele><time>2026-04-27T13:34:55Z</time></trkpt><trkpt lat="33.705632513551755" lon="-5.014375797639907"><ele>1393.3333333333333</ele><time>2026-04-27T13:34:56Z</time></trkpt><trkpt lat="33.705832555762356" lon="-5.014333663145233"><ele>1393.6666666666667</ele><time>2026-04-27T13:34:57Z</time></trkpt><trkpt lat="33.70603297932232" lon="-5.014289129721261"><ele>1394.0</ele><time>2026-04-27T13:34:58Z</time></trkpt><trkpt lat="33.706233240212484" lon="-5.014243380638529"><ele>1394.3333333333335</ele><time>2026-04-27T13:34:59Z</time></trkpt><trkpt lat="33.706434498331724" lon="-5.0141977570771195"><ele>1394.6666666666667</ele><time>2026-04-27T13:35:00Z</time></trkpt><trkpt lat="33.70663677840232" lon="-5.014154426548828"><ele>1395.0</ele><time>2026-04-27T13:35:01Z</time></trkpt><trkpt lat="33.706838888715474" lon="-5.014110217547429"><ele>1392.6666666666667</ele><time>2026-04-27T13:35:02Z</time></trkpt><trkpt lat="33.70703971867505" lon="-5.014068814851615"><ele>1390.3333333333335</ele><time>2026-04-27T13:35:03Z</time></trkpt><trkpt lat="33.70724051896388" lon="-5.014029071526389"><ele>1388.0</ele><time>2026-04-27T13:35:04Z</time></trkpt><trkpt lat="33.70743885842759" lon="-5.013990677786505"><ele>1388.0</ele><time>2026-04-27T13:35:05Z</time></trkpt><trkpt lat="33.707636549842135" lon="-5.013955652647817"><ele>1388.0</ele><time>2026-04-27T13:35:06Z</time></trkpt><trkpt lat="33.707832439119386" lon="-5.013923555543664"><ele>1388.0</ele><time>2026-04-27T13:35:07Z</time></trkpt><trkpt lat="33.70802597994279" lon="-5.013889239503973"><ele>1387.0</ele><time>2026-04-27T13:35:08Z</time></trkpt><trkpt lat="33.70821897925046" lon="-5.013856597186495"><ele>1386.0</ele><time>2026-04-27T13:35:09Z</time></trkpt><trkpt lat="33.70841080478452" lon="-5.013821492908074"><ele>1385.0</ele><time>2026-04-27T13:35:10Z</time></trkpt><trkpt lat="33.708601243208065" lon="-5.013787935816742"><ele>1384.6666666666667</ele><time>2026-04-27T13:35:11Z</time></trkpt><trkpt lat="33.70878928028057" lon="-5.013752043093646"><ele>1384.3333333333333</ele><time>2026-04-27T13:35:12Z</time></trkpt><trkpt lat="33.708975088618395" lon="-5.0137195289930965"><ele>1384.0</ele><time>2026-04-27T13:35:13Z</time></trkpt><trkpt lat="33.70916060505903" lon="-5.013692245831716"><ele>1384.0</ele><time>2026-04-27T13:35:14Z</time></trkpt><trkpt lat="33.70934314520081" lon="-5.013665897267261"><ele>1384.0</ele><time>2026-04-27T13:35:15Z</time></trkpt><trkpt lat="33.7095215816642" lon="-5.013636184983845"><ele>1384.0</ele><time>2026-04-27T13:35:16Z</time></trkpt><trkpt lat="33.70969663260844" lon="-5.013604432672145"><ele>1383.6666666666665</ele><time>2026-04-27T13:35:17Z</time></trkpt><trkpt lat="33.70986788407932" lon="-5.013575280621545"><ele>1383.3333333333333</ele><time>2026-04-27T13:35:18Z</time></trkpt><trkpt lat="33.71003611158924" lon="-5.013547929653874"><ele>1383.0</ele><time>2026-04-27T13:35:19Z</time></trkpt><trkpt lat="33.710200289755335" lon="-5.013524004818405"><ele>1382.6666666666667</ele><time>2026-04-27T13:35:20Z</time></trkpt><trkpt lat="33.710362049940535" lon="-5.013496289968049"><ele>1382.3333333333335</ele><time>2026-04-27T13:35:21Z</time></trkpt><trkpt lat="33.71052086824203" lon="-5.013471473060775"><ele>1382.0</ele><time>2026-04-27T13:35:22Z</time></trkpt><trkpt lat="33.710676062105726" lon="-5.013447956992761"><ele>1382.0</ele><time>2026-04-27T13:35:23Z</time></trkpt><trkpt lat="33.71082963481812" lon="-5.013421506680055"><ele>1382.0</ele><time>2026-04-27T13:35:24Z</time></trkpt><trkpt lat="33.71098870880151" lon="-5.013395059145505"><ele>1382.0</ele><time>2026-04-27T13:35:25Z</time></trkpt><trkpt lat="33.71115359102738" lon="-5.013366426000255"><ele>1382.0</ele><time>2026-04-27T13:35:26Z</time></trkpt><trkpt lat="33.71132403955341" lon="-5.013337835451292"><ele>1382.0</ele><time>2026-04-27T13:35:27Z</time></trkpt><trkpt lat="33.71150061818656" lon="-5.013308349383604"><ele>1382.0</ele><time>2026-04-27T13:35:28Z</time></trkpt><trkpt lat="33.71167702986652" lon="-5.013278625818857"><ele>1381.3333333333335</ele><time>2026-04-27T13:35:29Z</time></trkpt><trkpt lat="33.711851358374375" lon="-5.013244938745992"><ele>1380.6666666666667</ele><time>2026-04-27T13:35:30Z</time></trkpt><trkpt lat="33.71202468919114" lon="-5.013209339839352"><ele>1380.0</ele><time>2026-04-27T13:35:31Z</time></trkpt><trkpt lat="33.71219081906716" lon="-5.013172459551705"><ele>1379.0</ele><time>2026-04-27T13:35:32Z</time></trkpt><trkpt lat="33.71234807214193" lon="-5.013134309347105"><ele>1378.0</ele><time>2026-04-27T13:35:33Z</time></trkpt><trkpt lat="33.712508092170324" lon="-5.01309316826114"><ele>1377.0</ele><time>2026-04-27T13:35:34Z</time></trkpt><trkpt lat="33.712670061129636" lon="-5.013045239576811"><ele>1376.3333333333333</ele><time>2026-04-27T13:35:35Z</time></trkpt><trkpt lat="33.712836275787275" lon="-5.012990370385072"><ele>1375.6666666666665</ele><time>2026-04-27T13:35:36Z</time></trkpt><trkpt lat="33.71300436862043" lon="-5.012926565926209"><ele>1375.0</ele><time>2026-04-27T13:35:37Z</time></trkpt><trkpt lat="33.71317512329856" lon="-5.012863084001405"><ele>1375.0</ele><time>2026-04-27T13:35:38Z</time></trkpt><trkpt lat="33.713344562740645" lon="-5.012797718641168"><ele>1375.0</ele><time>2026-04-27T13:35:39Z</time></trkpt><trkpt lat="33.713511547950375" lon="-5.01273291490307"><ele>1375.0</ele><time>2026-04-27T13:35:40Z</time></trkpt><trkpt lat="33.71367924741387" lon="-5.012665858248964"><ele>1374.0</ele><time>2026-04-27T13:35:41Z</time></trkpt><trkpt lat="33.71384820318939" lon="-5.0125997268558855"><ele>1373.0</ele><time>2026-04-27T13:35:42Z</time></trkpt><trkpt lat="33.71401966787417" lon="-5.012533222329538"><ele>1372.0</ele><time>2026-04-27T13:35:43Z</time></trkpt><trkpt lat="33.71419480663616" lon="-5.012464510672856"><ele>1372.0</ele><time>2026-04-27T13:35:44Z</time></trkpt><trkpt lat="33.71437278950133" lon="-5.012396724059518"><ele>1372.0</ele><time>2026-04-27T13:35:45Z</time></trkpt><trkpt lat="33.71454882633534" lon="-5.01232541016091"><ele>1372.0</ele><time>2026-04-27T13:35:46Z</time></trkpt><trkpt lat="33.714725542132776" lon="-5.012257811854715"><ele>1372.0</ele><time>2026-04-27T13:35:47Z</time></trkpt><trkpt lat="33.71489357492344" lon="-5.012188914980866"><ele>1372.0</ele><time>2026-04-27T13:35:48Z</time></trkpt><trkpt lat="33.71505454516661" lon="-5.012124573457612"><ele>1372.0</ele><time>2026-04-27T13:35:49Z</time></trkpt><trkpt lat="33.7152126690285" lon="-5.012062332176288"><ele>1371.6666666666665</ele><time>2026-04-27T13:35:50Z</time></trkpt><trkpt lat="33.71536855431065" lon="-5.012000884461821"><ele>1371.3333333333333</ele><time>2026-04-27T13:35:51Z</time></trkpt><trkpt lat="33.71552196022107" lon="-5.011941795088721"><ele>1371.0</ele><time>2026-04-27T13:35:52Z</time></trkpt><trkpt lat="33.71566964779378" lon="-5.011883021482543"><ele>1371.0</ele><time>2026-04-27T13:35:53Z</time></trkpt><trkpt lat="33.71581409485027" lon="-5.011827219810153"><ele>1371.0</ele><time>2026-04-27T13:35:54Z</time></trkpt><trkpt lat="33.71595804483582" lon="-5.011769732591495"><ele>1371.0</ele><time>2026-04-27T13:35:55Z</time></trkpt><trkpt lat="33.71610251585571" lon="-5.011714587004417"><ele>1371.25</ele><time>2026-04-27T13:35:56Z</time></trkpt><trkpt lat="33.71624236020259" lon="-5.011661421981001"><ele>1371.5</ele><time>2026-04-27T13:35:57Z</time></trkpt><trkpt lat="33.71637477147334" lon="-5.011616175702639"><ele>1371.75</ele><time>2026-04-27T13:35:58Z</time></trkpt><trkpt lat="33.71649982465413" lon="-5.011575284597964"><ele>1372.0</ele><time>2026-04-27T13:35:59Z</time></trkpt><trkpt lat="33.7166168220426" lon="-5.011537349771368"><ele>1372.0</ele><time>2026-04-27T13:36:00Z</time></trkpt><trkpt lat="33.71672476100855" lon="-5.011504083338815"><ele>1372.0</ele><time>2026-04-27T13:36:01Z</time></trkpt><trkpt lat="33.716827865603335" lon="-5.011472555100889"><ele>1372.0</ele><time>2026-04-27T13:36:02Z</time></trkpt><trkpt lat="33.71692183497943" lon="-5.011444269682001"><ele>1372.0</ele><time>2026-04-27T13:36:03Z</time></trkpt><trkpt lat="33.71700916491237" lon="-5.011417640619234"><ele>1372.0</ele><time>2026-04-27T13:36:04Z</time></trkpt><trkpt lat="33.71709129639573" lon="-5.011394130507075"><ele>1371.5</ele><time>2026-04-27T13:36:05Z</time></trkpt><trkpt lat="33.717166771130884" lon="-5.0113759037079255"><ele>1371.0</ele><time>2026-04-27T13:36:06Z</time></trkpt><trkpt lat="33.71723520180529" lon="-5.011360179213406"><ele>1370.5</ele><time>2026-04-27T13:36:07Z</time></trkpt><trkpt lat="33.71734949314354" lon="-5.011333752827584"><ele>1370.0</ele><time>2026-04-27T13:36:09Z</time></trkpt><trkpt lat="33.717447581377755" lon="-5.011309467488764"><ele>1369.5</ele><time>2026-04-27T13:36:11Z</time></trkpt><trkpt lat="33.717525175400844" lon="-5.011293715515756"><ele>1369.0</ele><time>2026-04-27T13:36:13Z</time></trkpt><trkpt lat="33.7175901012121" lon="-5.01127967027538"><ele>1369.0</ele><time>2026-04-27T13:36:15Z</time></trkpt><trkpt lat="33.71767250758917" lon="-5.011263831131523"><ele>1369.0</ele><time>2026-04-27T13:36:18Z</time></trkpt><trkpt lat="33.71775515539974" lon="-5.011247977775544"><ele>1369.0</ele><time>2026-04-27T13:36:21Z</time></trkpt><trkpt lat="33.7178343095672" lon="-5.011235013903839"><ele>1369.0</ele><time>2026-04-27T13:36:24Z</time></trkpt><trkpt lat="33.71790351821759" lon="-5.011223923874226"><ele>1369.0</ele><time>2026-04-27T13:36:26Z</time></trkpt><trkpt lat="33.71796798391363" lon="-5.011211040234951"><ele>1369.0</ele><time>2026-04-27T13:36:28Z</time></trkpt><trkpt lat="33.718048144122264" lon="-5.011196066637789"><ele>1368.6</ele><time>2026-04-27T13:36:30Z</time></trkpt><trkpt lat="33.718148853581596" lon="-5.011180228113612"><ele>1368.2</ele><time>2026-04-27T13:36:32Z</time></trkpt><trkpt lat="33.71826678103363" lon="-5.011162299343247"><ele>1367.8</ele><time>2026-04-27T13:36:34Z</time></trkpt><trkpt lat="33.71833624990038" lon="-5.0111513769974545"><ele>1367.3999999999999</ele><time>2026-04-27T13:36:35Z</time></trkpt><trkpt lat="33.71841220888247" lon="-5.01113998722846"><ele>1367.0</ele><time>2026-04-27T13:36:36Z</time></trkpt><trkpt lat="33.718494906824304" lon="-5.011128903246361"><ele>1366.6</ele><time>2026-04-27T13:36:37Z</time></trkpt><trkpt lat="33.71858344526816" lon="-5.011113292378464"><ele>1366.1999999999998</ele><time>2026-04-27T13:36:38Z</time></trkpt><trkpt lat="33.718676409498" lon="-5.011098462133486"><ele>1365.8</ele><time>2026-04-27T13:36:39Z</time></trkpt><trkpt lat="33.71877373408372" lon="-5.01108419806475"><ele>1365.4</ele><time>2026-04-27T13:36:40Z</time></trkpt><trkpt lat="33.718873797319134" lon="-5.011070047737859"><ele>1365.0</ele><time>2026-04-27T13:36:41Z</time></trkpt><trkpt lat="33.71897568254801" lon="-5.0110550479626825"><ele>1365.0</ele><time>2026-04-27T13:36:42Z</time></trkpt><trkpt lat="33.71908136843764" lon="-5.0110385770059365"><ele>1365.0</ele><time>2026-04-27T13:36:43Z</time></trkpt><trkpt lat="33.71918868471571" lon="-5.011023037908499"><ele>1365.0</ele><time>2026-04-27T13:36:44Z</time></trkpt><trkpt lat="33.71929570649453" lon="-5.011007696233737"><ele>1365.0</ele><time>2026-04-27T13:36:45Z</time></trkpt><trkpt lat="33.71939898963879" lon="-5.0109927424648575"><ele>1365.0</ele><time>2026-04-27T13:36:46Z</time></trkpt><trkpt lat="33.71949952682995" lon="-5.010978669073713"><ele>1365.0</ele><time>2026-04-27T13:36:47Z</time></trkpt><trkpt lat="33.71959963573788" lon="-5.010964465073814"><ele>1365.0</ele><time>2026-04-27T13:36:48Z</time></trkpt><trkpt lat="33.71969758551764" lon="-5.010950027848089"><ele>1365.0</ele><time>2026-04-27T13:36:49Z</time></trkpt><trkpt lat="33.71979128571658" lon="-5.010936334065679"><ele>1365.0</ele><time>2026-04-27T13:36:50Z</time></trkpt><trkpt lat="33.719881859618646" lon="-5.010923468929715"><ele>1365.0</ele><time>2026-04-27T13:36:51Z</time></trkpt><trkpt lat="33.719969462883505" lon="-5.0109084959320045"><ele>1365.0</ele><time>2026-04-27T13:36:52Z</time></trkpt><trkpt lat="33.72005301478294" lon="-5.010894145698306"><ele>1365.0</ele><time>2026-04-27T13:36:53Z</time></trkpt><trkpt lat="33.7201339374633" lon="-5.010878567060969"><ele>1365.0</ele><time>2026-04-27T13:36:54Z</time></trkpt><trkpt lat="33.72021156321688" lon="-5.010860015172725"><ele>1365.0</ele><time>2026-04-27T13:36:55Z</time></trkpt><trkpt lat="33.720283900038915" lon="-5.010834582411212"><ele>1365.0</ele><time>2026-04-27T13:36:56Z</time></trkpt><trkpt lat="33.72035315553635" lon="-5.010798968335804"><ele>1365.0</ele><time>2026-04-27T13:36:57Z</time></trkpt><trkpt lat="33.720426032980164" lon="-5.010756247633656"><ele>1364.6</ele><time>2026-04-27T13:36:58Z</time></trkpt><trkpt lat="33.720497723798154" lon="-5.0107493467952136"><ele>1364.2</ele><time>2026-04-27T13:36:59Z</time></trkpt><trkpt lat="33.720582912353386" lon="-5.010765535918065"><ele>1363.8000000000002</ele><time>2026-04-27T13:37:00Z</time></trkpt><trkpt lat="33.72067560964054" lon="-5.010773929954324"><ele>1363.4</ele><time>2026-04-27T13:37:01Z</time></trkpt><trkpt lat="33.72077892430923" lon="-5.0107611039226025"><ele>1363.0</ele><time>2026-04-27T13:37:02Z</time></trkpt><trkpt lat="33.72088951067093" lon="-5.010766880704745"><ele>1363.0</ele><time>2026-04-27T13:37:03Z</time></trkpt><trkpt lat="33.721010415311184" lon="-5.010733326606201"><ele>1363.0</ele><time>2026-04-27T13:37:04Z</time></trkpt><trkpt lat="33.72114128391233" lon="-5.010717124748535"><ele>1363.0</ele><time>2026-04-27T13:37:05Z</time></trkpt><trkpt lat="33.721281624713534" lon="-5.010698625299943"><ele>1363.0</ele><time>2026-04-27T13:37:06Z</time></trkpt><trkpt lat="33.721420620629516" lon="-5.0106766132404035"><ele>1363.0</ele><time>2026-04-27T13:37:07Z</time></trkpt><trkpt lat="33.72155565278035" lon="-5.010654272247645"><ele>1363.0</ele><time>2026-04-27T13:37:08Z</time></trkpt><trkpt lat="33.721695489553596" lon="-5.010628050596909"><ele>1363.0</ele><time>2026-04-27T13:37:09Z</time></trkpt><trkpt lat="33.72183711559499" lon="-5.01060212147961"><ele>1363.0</ele><time>2026-04-27T13:37:10Z</time></trkpt><trkpt lat="33.72197963390632" lon="-5.010577170518269"><ele>1363.0</ele><time>2026-04-27T13:37:11Z</time></trkpt><trkpt lat="33.72212181212784" lon="-5.010552877316667"><ele>1363.0</ele><time>2026-04-27T13:37:12Z</time></trkpt><trkpt lat="33.722260210672296" lon="-5.010530514594707"><ele>1363.0</ele><time>2026-04-27T13:37:13Z</time></trkpt><trkpt lat="33.72239635240605" lon="-5.010508883471061"><ele>1363.0</ele><time>2026-04-27T13:37:14Z</time></trkpt><trkpt lat="33.72253486479959" lon="-5.010487210840716"><ele>1363.0</ele><time>2026-04-27T13:37:15Z</time></trkpt><trkpt lat="33.722675661667374" lon="-5.010465572750696"><ele>1363.0</ele><time>2026-04-27T13:37:16Z</time></trkpt><trkpt lat="33.722819493904574" lon="-5.010444326480921"><ele>1363.0</ele><time>2026-04-27T13:37:17Z</time></trkpt><trkpt lat="33.72296240109095" lon="-5.010423715772954"><ele>1363.0</ele><time>2026-04-27T13:37:18Z</time></trkpt><trkpt lat="33.723107068200775" lon="-5.010405153341244"><ele>1361.75</ele><time>2026-04-27T13:37:19Z</time></trkpt><trkpt lat="33.72325250615657" lon="-5.0103889913361135"><ele>1360.5</ele><time>2026-04-27T13:37:20Z</time></trkpt><trkpt lat="33.72339635926767" lon="-5.0103753929993475"><ele>1359.25</ele><time>2026-04-27T13:37:21Z</time></trkpt><trkpt lat="33.72353842385546" lon="-5.010363062841304"><ele>1358.0</ele><time>2026-04-27T13:37:22Z</time></trkpt><trkpt lat="33.72367927015826" lon="-5.010352056519065"><ele>1357.75</ele><time>2026-04-27T13:37:23Z</time></trkpt><trkpt lat="33.72381838710867" lon="-5.01034316820215"><ele>1357.5</ele><time>2026-04-27T13:37:24Z</time></trkpt><trkpt lat="33.72395653373418" lon="-5.010339767065694"><ele>1357.25</ele><time>2026-04-27T13:37:25Z</time></trkpt><trkpt lat="33.72408898552821" lon="-5.010338807556273"><ele>1357.0</ele><time>2026-04-27T13:37:26Z</time></trkpt><trkpt lat="33.724211356947016" lon="-5.010340166909871"><ele>1357.0</ele><time>2026-04-27T13:37:27Z</time></trkpt><trkpt lat="33.72433517789197" lon="-5.010344217805436"><ele>1357.0</ele><time>2026-04-27T13:37:28Z</time></trkpt><trkpt lat="33.72446349198295" lon="-5.010348001981646"><ele>1357.0</ele><time>2026-04-27T13:37:29Z</time></trkpt><trkpt lat="33.72459565292946" lon="-5.010352529013435"><ele>1357.0</ele><time>2026-04-27T13:37:30Z</time></trkpt><trkpt lat="33.72473183413796" lon="-5.010358875861992"><ele>1356.75</ele><time>2026-04-27T13:37:31Z</time></trkpt><trkpt lat="33.72486917859429" lon="-5.010365681856358"><ele>1356.5</ele><time>2026-04-27T13:37:32Z</time></trkpt><trkpt lat="33.72500834410742" lon="-5.010373914930636"><ele>1356.25</ele><time>2026-04-27T13:37:33Z</time></trkpt><trkpt lat="33.725152103611855" lon="-5.01038293894006"><ele>1356.0</ele><time>2026-04-27T13:37:34Z</time></trkpt><trkpt lat="33.725297435494696" lon="-5.010392651801815"><ele>1356.0</ele><time>2026-04-27T13:37:35Z</time></trkpt><trkpt lat="33.725445046178194" lon="-5.010401339111375"><ele>1356.0</ele><time>2026-04-27T13:37:36Z</time></trkpt><trkpt lat="33.72559257994563" lon="-5.010411050379605"><ele>1356.0</ele><time>2026-04-27T13:37:37Z</time></trkpt><trkpt lat="33.72574165990906" lon="-5.010421632931159"><ele>1356.0</ele><time>2026-04-27T13:37:38Z</time></trkpt><trkpt lat="33.72589205562543" lon="-5.0104305094255706"><ele>1356.0</ele><time>2026-04-27T13:37:39Z</time></trkpt><trkpt lat="33.72604342952001" lon="-5.010439008157721"><ele>1356.0</ele><time>2026-04-27T13:37:40Z</time></trkpt><trkpt lat="33.72619383727415" lon="-5.010448675467729"><ele>1356.0</ele><time>2026-04-27T13:37:41Z</time></trkpt><trkpt lat="33.72634272721605" lon="-5.0104585843037786"><ele>1355.75</ele><time>2026-04-27T13:37:42Z</time></trkpt><trkpt lat="33.726491446803884" lon="-5.0104658209285216"><ele>1355.5</ele><time>2026-04-27T13:37:43Z</time></trkpt><trkpt lat="33.726639761881216" lon="-5.010474508499509"><ele>1355.25</ele><time>2026-04-27T13:37:44Z</time></trkpt><trkpt lat="33.72678838256347" lon="-5.01048388713974"><ele>1355.0</ele><time>2026-04-27T13:37:45Z</time></trkpt><trkpt lat="33.726935427954416" lon="-5.010494118352862"><ele>1354.5</ele><time>2026-04-27T13:37:46Z</time></trkpt><trkpt lat="33.72708308432142" lon="-5.010503893437007"><ele>1354.0</ele><time>2026-04-27T13:37:47Z</time></trkpt><trkpt lat="33.72722979304366" lon="-5.010515177149215"><ele>1353.5</ele><time>2026-04-27T13:37:48Z</time></trkpt><trkpt lat="33.72737436351656" lon="-5.01052336649748"><ele>1353.0</ele><time>2026-04-27T13:37:49Z</time></trkpt><trkpt lat="33.72751485757043" lon="-5.010531172220324"><ele>1353.0</ele><time>2026-04-27T13:37:50Z</time></trkpt><trkpt lat="33.72764823345159" lon="-5.0105411413004255"><ele>1353.0</ele><time>2026-04-27T13:37:51Z</time></trkpt><trkpt lat="33.72776896554071" lon="-5.010549565975563"><ele>1353.0</ele><time>2026-04-27T13:37:52Z</time></trkpt><trkpt lat="33.72787636049195" lon="-5.010555347880426"><ele>1353.0</ele><time>2026-04-27T13:37:53Z</time></trkpt><trkpt lat="33.72797404009411" lon="-5.010560608582236"><ele>1353.0</ele><time>2026-04-27T13:37:54.001Z</time></trkpt><trkpt lat="33.7280647036182" lon="-5.0105653904140866"><ele>1353.0</ele><time>2026-04-27T13:37:55.001Z</time></trkpt><trkpt lat="33.728147792871255" lon="-5.010570433875477"><ele>1353.0</ele><time>2026-04-27T13:37:56.001Z</time></trkpt><trkpt lat="33.728230107236676" lon="-5.010575186561143"><ele>1353.0</ele><time>2026-04-27T13:37:57.001Z</time></trkpt><trkpt lat="33.72831118208556" lon="-5.0105794459694915"><ele>1353.0</ele><time>2026-04-27T13:37:58.001Z</time></trkpt><trkpt lat="33.728389532311404" lon="-5.010584531785542"><ele>1353.0</ele><time>2026-04-27T13:37:59.001Z</time></trkpt><trkpt lat="33.728464892767306" lon="-5.010588598365673"><ele>1353.0</ele><time>2026-04-27T13:38:00.001Z</time></trkpt><trkpt lat="33.72854038297687" lon="-5.010593726340601"><ele>1353.0</ele><time>2026-04-27T13:38:01.001Z</time></trkpt><trkpt lat="33.72861404133525" lon="-5.010598845651712"><ele>1353.0</ele><time>2026-04-27T13:38:02.001Z</time></trkpt><trkpt lat="33.7286832869203" lon="-5.010604232684302"><ele>1353.0</ele><time>2026-04-27T13:38:03.001Z</time></trkpt><trkpt lat="33.72874654833753" lon="-5.010607793163293"><ele>1353.0</ele><time>2026-04-27T13:38:04.001Z</time></trkpt><trkpt lat="33.72886100543398" lon="-5.010606550863745"><ele>1353.0</ele><time>2026-04-27T13:38:06.001Z</time></trkpt><trkpt lat="33.72894311407614" lon="-5.010590535560835"><ele>1353.0</ele><time>2026-04-27T13:38:08.001Z</time></trkpt><trkpt lat="33.72902495380208" lon="-5.010560738004314"><ele>1353.0</ele><time>2026-04-27T13:38:10.001Z</time></trkpt><trkpt lat="33.72914228683657" lon="-5.010568328223304"><ele>1353.0</ele><time>2026-04-27T13:38:12.001Z</time></trkpt><trkpt lat="33.72926006600491" lon="-5.01058838476381"><ele>1353.0</ele><time>2026-04-27T13:38:14Z</time></trkpt><trkpt lat="33.7293685536725" lon="-5.010580293454748"><ele>1353.0</ele><time>2026-04-27T13:38:16Z</time></trkpt><trkpt lat="33.72947809651611" lon="-5.010567113317972"><ele>1352.6000000000001</ele><time>2026-04-27T13:38:18Z</time></trkpt><trkpt lat="33.729598257152766" lon="-5.010549339511351"><ele>1352.2</ele><time>2026-04-27T13:38:20Z</time></trkpt><trkpt lat="33.729719635225116" lon="-5.010526852929677"><ele>1351.8</ele><time>2026-04-27T13:38:22Z</time></trkpt><trkpt lat="33.72978561521924" lon="-5.010512132871548"><ele>1351.4</ele><time>2026-04-27T13:38:23Z</time></trkpt><trkpt lat="33.72985415462075" lon="-5.0104948400856015"><ele>1351.0</ele><time>2026-04-27T13:38:24Z</time></trkpt><trkpt lat="33.72992284243509" lon="-5.010476273835049"><ele>1351.0</ele><time>2026-04-27T13:38:25Z</time></trkpt><trkpt lat="33.72999070594552" lon="-5.010457811911797"><ele>1351.0</ele><time>2026-04-27T13:38:26Z</time></trkpt><trkpt lat="33.73005350241152" lon="-5.010442115046935"><ele>1351.0</ele><time>2026-04-27T13:38:27Z</time></trkpt><trkpt lat="33.73016230536353" lon="-5.0104134520616475"><ele>1351.0</ele><time>2026-04-27T13:38:29Z</time></trkpt><trkpt lat="33.730274977751634" lon="-5.010377901729835"><ele>1351.0</ele><time>2026-04-27T13:38:31Z</time></trkpt><trkpt lat="33.73033819747176" lon="-5.010363444138504"><ele>1351.0</ele><time>2026-04-27T13:38:32Z</time></trkpt><trkpt lat="33.730408247632234" lon="-5.010344245029762"><ele>1350.8333333333333</ele><time>2026-04-27T13:38:33Z</time></trkpt><trkpt lat="33.730483799541226" lon="-5.010324949457364"><ele>1350.6666666666665</ele><time>2026-04-27T13:38:34Z</time></trkpt><trkpt lat="33.73056062149275" lon="-5.010297679277156"><ele>1350.5</ele><time>2026-04-27T13:38:35Z</time></trkpt><trkpt lat="33.73063766896063" lon="-5.0102652415867075"><ele>1350.3333333333333</ele><time>2026-04-27T13:38:36Z</time></trkpt><trkpt lat="33.73071284401017" lon="-5.010231948516305"><ele>1350.1666666666667</ele><time>2026-04-27T13:38:37Z</time></trkpt><trkpt lat="33.73078460313838" lon="-5.010199486075598"><ele>1350.0</ele><time>2026-04-27T13:38:38Z</time></trkpt><trkpt lat="33.730859192822614" lon="-5.0101670439339765"><ele>1350.0</ele><time>2026-04-27T13:38:39Z</time></trkpt><trkpt lat="33.730934991715934" lon="-5.010130724963761"><ele>1350.0</ele><time>2026-04-27T13:38:40Z</time></trkpt><trkpt lat="33.73101449142561" lon="-5.010091641829709"><ele>1350.0</ele><time>2026-04-27T13:38:41Z</time></trkpt><trkpt lat="33.73109630011586" lon="-5.010053654154679"><ele>1350.0</ele><time>2026-04-27T13:38:42Z</time></trkpt><trkpt lat="33.73117921900351" lon="-5.010009856686402"><ele>1350.0</ele><time>2026-04-27T13:38:43Z</time></trkpt><trkpt lat="33.731265429161326" lon="-5.009965513913886"><ele>1350.0</ele><time>2026-04-27T13:38:44Z</time></trkpt><trkpt lat="33.731352042407956" lon="-5.00991992506458"><ele>1350.1666666666667</ele><time>2026-04-27T13:38:45Z</time></trkpt><trkpt lat="33.73143380939467" lon="-5.009873702253969"><ele>1350.3333333333333</ele><time>2026-04-27T13:38:46Z</time></trkpt><trkpt lat="33.73151299556516" lon="-5.0098287033493225"><ele>1350.5</ele><time>2026-04-27T13:38:47Z</time></trkpt><trkpt lat="33.73158970658359" lon="-5.009786780009872"><ele>1350.6666666666665</ele><time>2026-04-27T13:38:48Z</time></trkpt><trkpt lat="33.73165975767706" lon="-5.009751911977121"><ele>1350.8333333333333</ele><time>2026-04-27T13:38:49Z</time></trkpt><trkpt lat="33.731725883536285" lon="-5.009715609813462"><ele>1351.0</ele><time>2026-04-27T13:38:50Z</time></trkpt><trkpt lat="33.731789946215414" lon="-5.009677518811914"><ele>1351.0</ele><time>2026-04-27T13:38:51Z</time></trkpt><trkpt lat="33.731855230569934" lon="-5.009636319204742"><ele>1351.0</ele><time>2026-04-27T13:38:52Z</time></trkpt><trkpt lat="33.73192493337409" lon="-5.009597473510876"><ele>1351.0</ele><time>2026-04-27T13:38:53Z</time></trkpt><trkpt lat="33.73199496246184" lon="-5.009560724508988"><ele>1351.0</ele><time>2026-04-27T13:38:54Z</time></trkpt><trkpt lat="33.732063165260215" lon="-5.009522496143497"><ele>1351.0</ele><time>2026-04-27T13:38:55Z</time></trkpt><trkpt lat="33.732128578235674" lon="-5.009486402091733"><ele>1351.0</ele><time>2026-04-27T13:38:56Z</time></trkpt><trkpt lat="33.73218802430546" lon="-5.009451876186822"><ele>1351.0</ele><time>2026-04-27T13:38:57Z</time></trkpt><trkpt lat="33.732263407343254" lon="-5.009408838295755"><ele>1350.6666666666665</ele><time>2026-04-27T13:38:59Z</time></trkpt><trkpt lat="33.732358431117476" lon="-5.009348295225775"><ele>1350.3333333333333</ele><time>2026-04-27T13:39:02Z</time></trkpt><trkpt lat="33.732469027504216" lon="-5.009283139132373"><ele>1350.0</ele><time>2026-04-27T13:39:04Z</time></trkpt><trkpt lat="33.73252701749559" lon="-5.009233838968389"><ele>1349.6666666666667</ele><time>2026-04-27T13:39:05Z</time></trkpt><trkpt lat="33.73258314987846" lon="-5.009178600056016"><ele>1349.3333333333335</ele><time>2026-04-27T13:39:06Z</time></trkpt><trkpt lat="33.73263526064609" lon="-5.009121348311941"><ele>1349.0</ele><time>2026-04-27T13:39:07Z</time></trkpt><trkpt lat="33.732682350424525" lon="-5.009066789870304"><ele>1349.1666666666667</ele><time>2026-04-27T13:39:08Z</time></trkpt><trkpt lat="33.73275366061477" lon="-5.008966856807329"><ele>1349.3333333333335</ele><time>2026-04-27T13:39:10Z</time></trkpt><trkpt lat="33.73282155880755" lon="-5.008861560102955"><ele>1349.5</ele><time>2026-04-27T13:39:12Z</time></trkpt><trkpt lat="33.73287878205044" lon="-5.008815141487884"><ele>1349.6666666666667</ele><time>2026-04-27T13:39:13Z</time></trkpt><trkpt lat="33.732945778999095" lon="-5.008775922548847"><ele>1349.8333333333333</ele><time>2026-04-27T13:39:14Z</time></trkpt><trkpt lat="33.73301917630717" lon="-5.008737906678092"><ele>1350.0</ele><time>2026-04-27T13:39:15Z</time></trkpt><trkpt lat="33.73309251527887" lon="-5.008684635176477"><ele>1350.0</ele><time>2026-04-27T13:39:16Z</time></trkpt><trkpt lat="33.73316497905712" lon="-5.008638181730028"><ele>1350.0</ele><time>2026-04-27T13:39:17Z</time></trkpt><trkpt lat="33.733226165503716" lon="-5.008591008057351"><ele>1350.0</ele><time>2026-04-27T13:39:18Z</time></trkpt><trkpt lat="33.73328943986326" lon="-5.0085538917658114"><ele>1350.0</ele><time>2026-04-27T13:39:19Z</time></trkpt><trkpt lat="33.73335520323429" lon="-5.00851136540394"><ele>1350.0</ele><time>2026-04-27T13:39:20Z</time></trkpt><trkpt lat="33.73342605245481" lon="-5.008464872872885"><ele>1350.0</ele><time>2026-04-27T13:39:21Z</time></trkpt><trkpt lat="33.733505393463346" lon="-5.008417730290215"><ele>1349.6</ele><time>2026-04-27T13:39:22Z</time></trkpt><trkpt lat="33.733592026159" lon="-5.008367495497853"><ele>1349.2</ele><time>2026-04-27T13:39:23Z</time></trkpt><trkpt lat="33.73367922658157" lon="-5.008315034824223"><ele>1348.8000000000002</ele><time>2026-04-27T13:39:24Z</time></trkpt><trkpt lat="33.733771762035" lon="-5.008270656145177"><ele>1348.4</ele><time>2026-04-27T13:39:25Z</time></trkpt><trkpt lat="33.73385567772111" lon="-5.00822347826985"><ele>1348.0</ele><time>2026-04-27T13:39:26Z</time></trkpt><trkpt lat="33.73395410570386" lon="-5.008173760561875"><ele>1348.0</ele><time>2026-04-27T13:39:28Z</time></trkpt><trkpt lat="33.73403871533616" lon="-5.008135546953871"><ele>1348.0</ele><time>2026-04-27T13:39:30Z</time></trkpt><trkpt lat="33.73414216703142" lon="-5.008080808352249"><ele>1348.0</ele><time>2026-04-27T13:39:32Z</time></trkpt><trkpt lat="33.734203028187274" lon="-5.008046657516493"><ele>1348.0</ele><time>2026-04-27T13:39:33Z</time></trkpt><trkpt lat="33.734272842079676" lon="-5.008002795104584"><ele>1348.0</ele><time>2026-04-27T13:39:34Z</time></trkpt><trkpt lat="33.73435257873963" lon="-5.007956251161201"><ele>1348.0</ele><time>2026-04-27T13:39:35Z</time></trkpt><trkpt lat="33.734440210997704" lon="-5.007905609286411"><ele>1346.4</ele><time>2026-04-27T13:39:36Z</time></trkpt><trkpt lat="33.73453187302745" lon="-5.007852369049333"><ele>1344.8000000000002</ele><time>2026-04-27T13:39:37Z</time></trkpt><trkpt lat="33.734630116279966" lon="-5.007795072324036"><ele>1343.2</ele><time>2026-04-27T13:39:38Z</time></trkpt><trkpt lat="33.73473177263562" lon="-5.00774142070374"><ele>1341.6</ele><time>2026-04-27T13:39:39Z</time></trkpt><trkpt lat="33.734834771958724" lon="-5.007689290932421"><ele>1340.0</ele><time>2026-04-27T13:39:40Z</time></trkpt><trkpt lat="33.73493216666054" lon="-5.007635236372512"><ele>1340.0</ele><time>2026-04-27T13:39:41Z</time></trkpt><trkpt lat="33.73502569508372" lon="-5.007581086489351"><ele>1340.0</ele><time>2026-04-27T13:39:42Z</time></trkpt><trkpt lat="33.73511313735408" lon="-5.00751966092979"><ele>1340.0</ele><time>2026-04-27T13:39:43Z</time></trkpt><trkpt lat="33.735190965277994" lon="-5.007446047156548"><ele>1340.0</ele><time>2026-04-27T13:39:44Z</time></trkpt><trkpt lat="33.735259468833476" lon="-5.007359501500393"><ele>1340.0</ele><time>2026-04-27T13:39:45Z</time></trkpt><trkpt lat="33.73532298801743" lon="-5.007266392406626"><ele>1336.8</ele><time>2026-04-27T13:39:46Z</time></trkpt><trkpt lat="33.735370107204794" lon="-5.0071678148225125"><ele>1333.6</ele><time>2026-04-27T13:39:47Z</time></trkpt><trkpt lat="33.735401072924674" lon="-5.007067473253341"><ele>1330.4</ele><time>2026-04-27T13:39:48Z</time></trkpt><trkpt lat="33.735424706084906" lon="-5.006967851985013"><ele>1327.2</ele><time>2026-04-27T13:39:49Z</time></trkpt><trkpt lat="33.73544922986722" lon="-5.0068640536611575"><ele>1324.0</ele><time>2026-04-27T13:39:50Z</time></trkpt><trkpt lat="33.73547536974449" lon="-5.006756098917134"><ele>1324.5</ele><time>2026-04-27T13:39:51Z</time></trkpt><trkpt lat="33.735504719462355" lon="-5.006637959299871"><ele>1325.0</ele><time>2026-04-27T13:39:52Z</time></trkpt><trkpt lat="33.73553808850741" lon="-5.00650915121202"><ele>1325.5</ele><time>2026-04-27T13:39:53Z</time></trkpt><trkpt lat="33.735567479629566" lon="-5.006374181707995"><ele>1326.0</ele><time>2026-04-27T13:39:54Z</time></trkpt><trkpt lat="33.735595641041925" lon="-5.00623412631475"><ele>1326.0</ele><time>2026-04-27T13:39:55Z</time></trkpt><trkpt lat="33.735625738115544" lon="-5.00609215008884"><ele>1326.0</ele><time>2026-04-27T13:39:56Z</time></trkpt><trkpt lat="33.735659910154496" lon="-5.005953323885936"><ele>1326.0</ele><time>2026-04-27T13:39:57Z</time></trkpt><trkpt lat="33.73570177534318" lon="-5.005811962937363"><ele>1326.0</ele><time>2026-04-27T13:39:58Z</time></trkpt><trkpt lat="33.735750246288845" lon="-5.005675393123574"><ele>1328.75</ele><time>2026-04-27T13:39:59.001Z</time></trkpt><trkpt lat="33.73581168696643" lon="-5.005541013387265"><ele>1331.5</ele><time>2026-04-27T13:40:00.001Z</time></trkpt><trkpt lat="33.735882396164676" lon="-5.005404404236348"><ele>1334.25</ele><time>2026-04-27T13:40:01.001Z</time></trkpt><trkpt lat="33.73595818919759" lon="-5.005270657588449"><ele>1337.0</ele><time>2026-04-27T13:40:02.001Z</time></trkpt><trkpt lat="33.73603852108476" lon="-5.005141401200991"><ele>1335.25</ele><time>2026-04-27T13:40:03.001Z</time></trkpt><trkpt lat="33.73612367549542" lon="-5.005020239958422"><ele>1333.5</ele><time>2026-04-27T13:40:04.001Z</time></trkpt><trkpt lat="33.73621046436459" lon="-5.004905194509819"><ele>1331.75</ele><time>2026-04-27T13:40:05.001Z</time></trkpt><trkpt lat="33.736291955334174" lon="-5.00479086853419"><ele>1330.0</ele><time>2026-04-27T13:40:06.001Z</time></trkpt><trkpt lat="33.736371101825625" lon="-5.0046829764161735"><ele>1330.0</ele><time>2026-04-27T13:40:07.001Z</time></trkpt><trkpt lat="33.73644550430889" lon="-5.004584144580617"><ele>1330.0</ele><time>2026-04-27T13:40:08.001Z</time></trkpt><trkpt lat="33.73652006673989" lon="-5.0044936116067085"><ele>1330.0</ele><time>2026-04-27T13:40:09.001Z</time></trkpt><trkpt lat="33.73659068127935" lon="-5.004411761020052"><ele>1330.0</ele><time>2026-04-27T13:40:10.001Z</time></trkpt><trkpt lat="33.73665836902138" lon="-5.004332901189892"><ele>1330.0</ele><time>2026-04-27T13:40:11.001Z</time></trkpt><trkpt lat="33.73672313246303" lon="-5.004260287458791"><ele>1330.0</ele><time>2026-04-27T13:40:12.001Z</time></trkpt><trkpt lat="33.736786446533074" lon="-5.004187391286928"><ele>1330.0</ele><time>2026-04-27T13:40:13.001Z</time></trkpt><trkpt lat="33.73684931836696" lon="-5.004114609225668"><ele>1330.0</ele><time>2026-04-27T13:40:14.001Z</time></trkpt><trkpt lat="33.736912206661685" lon="-5.0040394189203825"><ele>1330.0</ele><time>2026-04-27T13:40:15.001Z</time></trkpt><trkpt lat="33.73697508088351" lon="-5.003966117807974"><ele>1330.0</ele><time>2026-04-27T13:40:16.001Z</time></trkpt><trkpt lat="33.73703463981392" lon="-5.003896746991178"><ele>1330.0</ele><time>2026-04-27T13:40:17.001Z</time></trkpt><trkpt lat="33.73709123718292" lon="-5.003832562341497"><ele>1329.5</ele><time>2026-04-27T13:40:18.001Z</time></trkpt><trkpt lat="33.73714774347836" lon="-5.003770934715005"><ele>1329.0</ele><time>2026-04-27T13:40:19.001Z</time></trkpt><trkpt lat="33.737203052334834" lon="-5.003711006200311"><ele>1328.5</ele><time>2026-04-27T13:40:20.001Z</time></trkpt><trkpt lat="33.73726006119821" lon="-5.003654247470667"><ele>1328.0</ele><time>2026-04-27T13:40:21.001Z</time></trkpt><trkpt lat="33.73731771619814" lon="-5.003599317820218"><ele>1327.5</ele><time>2026-04-27T13:40:22.001Z</time></trkpt><trkpt lat="33.7373800841813" lon="-5.0035507124657235"><ele>1327.0</ele><time>2026-04-27T13:40:23.001Z</time></trkpt><trkpt lat="33.73745482422353" lon="-5.00351183146339"><ele>1327.0</ele><time>2026-04-27T13:40:24.001Z</time></trkpt><trkpt lat="33.737538972983884" lon="-5.003484718870833"><ele>1327.0</ele><time>2026-04-27T13:40:25.001Z</time></trkpt><trkpt lat="33.73764038648672" lon="-5.003471933625655"><ele>1327.0</ele><time>2026-04-27T13:40:26.001Z</time></trkpt><trkpt lat="33.73774557516301" lon="-5.003464338920716"><ele>1327.0</ele><time>2026-04-27T13:40:27.001Z</time></trkpt><trkpt lat="33.73785639582499" lon="-5.003465943697684"><ele>1327.0</ele><time>2026-04-27T13:40:28.001Z</time></trkpt><trkpt lat="33.737971763615825" lon="-5.0034870777128715"><ele>1325.0</ele><time>2026-04-27T13:40:29.001Z</time></trkpt><trkpt lat="33.738086606270606" lon="-5.003532122701728"><ele>1323.0</ele><time>2026-04-27T13:40:30.001Z</time></trkpt><trkpt lat="33.73820199181389" lon="-5.003598195209668"><ele>1321.0</ele><time>2026-04-27T13:40:31Z</time></trkpt><trkpt lat="33.73831498797176" lon="-5.003682707896125"><ele>1319.0</ele><time>2026-04-27T13:40:32Z</time></trkpt><trkpt lat="33.73841729522631" lon="-5.003790306838982"><ele>1319.0</ele><time>2026-04-27T13:40:33Z</time></trkpt><trkpt lat="33.7385054575214" lon="-5.003917475112999"><ele>1319.0</ele><time>2026-04-27T13:40:34Z</time></trkpt><trkpt lat="33.7385760937774" lon="-5.004060509354193"><ele>1319.0</ele><time>2026-04-27T13:40:35Z</time></trkpt><trkpt lat="33.73862784167432" lon="-5.004211781547849"><ele>1319.0</ele><time>2026-04-27T13:40:36Z</time></trkpt><trkpt lat="33.738658306952345" lon="-5.004368396827577"><ele>1323.25</ele><time>2026-04-27T13:40:37Z</time></trkpt><trkpt lat="33.738666922499384" lon="-5.004532288366849"><ele>1327.5</ele><time>2026-04-27T13:40:38Z</time></trkpt><trkpt lat="33.73866113535248" lon="-5.004699458575182"><ele>1331.75</ele><time>2026-04-27T13:40:39Z</time></trkpt><trkpt lat="33.73863980088166" lon="-5.004866969702011"><ele>1336.0</ele><time>2026-04-27T13:40:40Z</time></trkpt><trkpt lat="33.73863544656129" lon="-5.0050120453748805"><ele>1336.0</ele><time>2026-04-27T13:40:41Z</time></trkpt><trkpt lat="33.73859963510122" lon="-5.0052056211715215"><ele>1336.0</ele><time>2026-04-27T13:40:42Z</time></trkpt><trkpt lat="33.73858396550274" lon="-5.005375128617537"><ele>1336.0</ele><time>2026-04-27T13:40:43Z</time></trkpt><trkpt lat="33.73858172952948" lon="-5.0055420268048"><ele>1336.0</ele><time>2026-04-27T13:40:44Z</time></trkpt><trkpt lat="33.73859330028376" lon="-5.005704140818724"><ele>1334.0</ele><time>2026-04-27T13:40:45Z</time></trkpt><trkpt lat="33.73861892644044" lon="-5.005865700157521"><ele>1332.0</ele><time>2026-04-27T13:40:46Z</time></trkpt><trkpt lat="33.738655770309585" lon="-5.0060240763140955"><ele>1330.0</ele><time>2026-04-27T13:40:47Z</time></trkpt><trkpt lat="33.73870181794798" lon="-5.006179055546359"><ele>1328.0</ele><time>2026-04-27T13:40:48Z</time></trkpt><trkpt lat="33.73875626621361" lon="-5.006330431580718"><ele>1328.0</ele><time>2026-04-27T13:40:49Z</time></trkpt><trkpt lat="33.73881132427555" lon="-5.006483824502955"><ele>1328.0</ele><time>2026-04-27T13:40:50Z</time></trkpt><trkpt lat="33.73886437767157" lon="-5.006641679604991"><ele>1328.0</ele><time>2026-04-27T13:40:51Z</time></trkpt><trkpt lat="33.73892158016833" lon="-5.00679725083101"><ele>1328.0</ele><time>2026-04-27T13:40:52Z</time></trkpt><trkpt lat="33.73898368218916" lon="-5.006949674956329"><ele>1324.75</ele><time>2026-04-27T13:40:53Z</time></trkpt><trkpt lat="33.73905226230959" lon="-5.007098610020521"><ele>1321.5</ele><time>2026-04-27T13:40:54Z</time></trkpt><trkpt lat="33.73912423062056" lon="-5.007243565494115"><ele>1318.25</ele><time>2026-04-27T13:40:55Z</time></trkpt><trkpt lat="33.73919859418149" lon="-5.007383481699185"><ele>1315.0</ele><time>2026-04-27T13:40:56Z</time></trkpt><trkpt lat="33.73927206712873" lon="-5.007514781376172"><ele>1313.25</ele><time>2026-04-27T13:40:57Z</time></trkpt><trkpt lat="33.739345900111786" lon="-5.007636752767429"><ele>1311.5</ele><time>2026-04-27T13:40:58Z</time></trkpt><trkpt lat="33.73942564339905" lon="-5.007746858423847"><ele>1309.75</ele><time>2026-04-27T13:40:59Z</time></trkpt><trkpt lat="33.73951546185834" lon="-5.007839146857368"><ele>1308.0</ele><time>2026-04-27T13:41:00Z</time></trkpt><trkpt lat="33.73961283389256" lon="-5.007912647107123"><ele>1308.0</ele><time>2026-04-27T13:41:01Z</time></trkpt><trkpt lat="33.73971308264762" lon="-5.0079716478320035"><ele>1308.0</ele><time>2026-04-27T13:41:02Z</time></trkpt><trkpt lat="33.739815346803645" lon="-5.008020813318531"><ele>1308.0</ele><time>2026-04-27T13:41:03Z</time></trkpt><trkpt lat="33.73992339193785" lon="-5.008052398866417"><ele>1308.0</ele><time>2026-04-27T13:41:04Z</time></trkpt><trkpt lat="33.74003466328587" lon="-5.008066715727191"><ele>1308.0</ele><time>2026-04-27T13:41:05Z</time></trkpt><trkpt lat="33.74014012310543" lon="-5.008069727300784"><ele>1307.25</ele><time>2026-04-27T13:41:06Z</time></trkpt><trkpt lat="33.740243708121376" lon="-5.008056381198784"><ele>1306.5</ele><time>2026-04-27T13:41:07Z</time></trkpt><trkpt lat="33.740351848568956" lon="-5.008033748223678"><ele>1305.75</ele><time>2026-04-27T13:41:08Z</time></trkpt><trkpt lat="33.74046781956861" lon="-5.008016111097056"><ele>1305.0</ele><time>2026-04-27T13:41:09Z</time></trkpt><trkpt lat="33.74059169067413" lon="-5.007997012155337"><ele>1305.0</ele><time>2026-04-27T13:41:10Z</time></trkpt><trkpt lat="33.7407230649293" lon="-5.007976900028755"><ele>1305.0</ele><time>2026-04-27T13:41:11Z</time></trkpt><trkpt lat="33.74085752942958" lon="-5.007954279014052"><ele>1305.0</ele><time>2026-04-27T13:41:12Z</time></trkpt><trkpt lat="33.74099215666932" lon="-5.007926361898032"><ele>1305.0</ele><time>2026-04-27T13:41:13Z</time></trkpt><trkpt lat="33.74112477590019" lon="-5.007900189951487"><ele>1301.75</ele><time>2026-04-27T13:41:14Z</time></trkpt><trkpt lat="33.74126047624887" lon="-5.007875408631947"><ele>1298.5</ele><time>2026-04-27T13:41:15Z</time></trkpt><trkpt lat="33.741395379492886" lon="-5.007850007598176"><ele>1295.25</ele><time>2026-04-27T13:41:16Z</time></trkpt><trkpt lat="33.74152682248452" lon="-5.007822725021691"><ele>1292.0</ele><time>2026-04-27T13:41:17Z</time></trkpt><trkpt lat="33.741656192497445" lon="-5.007797430691714"><ele>1292.0</ele><time>2026-04-27T13:41:18Z</time></trkpt><trkpt lat="33.741782355150306" lon="-5.0077667274267545"><ele>1292.0</ele><time>2026-04-27T13:41:19Z</time></trkpt><trkpt lat="33.74190805034616" lon="-5.007725733490868"><ele>1292.0</ele><time>2026-04-27T13:41:20Z</time></trkpt><trkpt lat="33.74202926141309" lon="-5.007673014586625"><ele>1292.0</ele><time>2026-04-27T13:41:21Z</time></trkpt><trkpt lat="33.74214863923189" lon="-5.007610772005776"><ele>1292.75</ele><time>2026-04-27T13:41:22Z</time></trkpt><trkpt lat="33.74226582369643" lon="-5.007542636414512"><ele>1293.5</ele><time>2026-04-27T13:41:23Z</time></trkpt><trkpt lat="33.742383022402635" lon="-5.007464461704528"><ele>1294.25</ele><time>2026-04-27T13:41:24Z</time></trkpt><trkpt lat="33.742497315419214" lon="-5.007376668623458"><ele>1295.0</ele><time>2026-04-27T13:41:25Z</time></trkpt><trkpt lat="33.74260943368892" lon="-5.0072849428674155"><ele>1295.0</ele><time>2026-04-27T13:41:26Z</time></trkpt><trkpt lat="33.74271001318229" lon="-5.007183108443156"><ele>1295.0</ele><time>2026-04-27T13:41:27Z</time></trkpt><trkpt lat="33.74280629440813" lon="-5.0070770304932255"><ele>1295.0</ele><time>2026-04-27T13:41:28Z</time></trkpt><trkpt lat="33.74289626752956" lon="-5.006959194634616"><ele>1295.0</ele><time>2026-04-27T13:41:29Z</time></trkpt><trkpt lat="33.742984085008544" lon="-5.006834065368381"><ele>1290.0</ele><time>2026-04-27T13:41:30Z</time></trkpt><trkpt lat="33.74306700329493" lon="-5.006701646096389"><ele>1285.0</ele><time>2026-04-27T13:41:31Z</time></trkpt><trkpt lat="33.74314245578275" lon="-5.006556593789343"><ele>1280.0</ele><time>2026-04-27T13:41:32Z</time></trkpt><trkpt lat="33.743217010715384" lon="-5.00640157427637"><ele>1275.0</ele><time>2026-04-27T13:41:33Z</time></trkpt><trkpt lat="33.743288660153716" lon="-5.006247308210181"><ele>1275.0</ele><time>2026-04-27T13:41:34Z</time></trkpt><trkpt lat="33.743361289247495" lon="-5.00609639443415"><ele>1275.0</ele><time>2026-04-27T13:41:35Z</time></trkpt><trkpt lat="33.743429932368436" lon="-5.00594717348086"><ele>1275.0</ele><time>2026-04-27T13:41:36Z</time></trkpt><trkpt lat="33.74350013551702" lon="-5.005793684778635"><ele>1275.0</ele><time>2026-04-27T13:41:37Z</time></trkpt><trkpt lat="33.74357727952925" lon="-5.005643359991143"><ele>1270.5</ele><time>2026-04-27T13:41:38Z</time></trkpt><trkpt lat="33.743661250667934" lon="-5.005497156140471"><ele>1266.0</ele><time>2026-04-27T13:41:39Z</time></trkpt><trkpt lat="33.74374494317865" lon="-5.005351214233336"><ele>1261.5</ele><time>2026-04-27T13:41:40Z</time></trkpt><trkpt lat="33.743834055630224" lon="-5.005208420083167"><ele>1257.0</ele><time>2026-04-27T13:41:41Z</time></trkpt><trkpt lat="33.74392251678844" lon="-5.005070500737576"><ele>1261.0</ele><time>2026-04-27T13:41:42Z</time></trkpt><trkpt lat="33.74400836694881" lon="-5.004936710064032"><ele>1265.0</ele><time>2026-04-27T13:41:43Z</time></trkpt><trkpt lat="33.74409503410581" lon="-5.0048095115788325"><ele>1269.0</ele><time>2026-04-27T13:41:44Z</time></trkpt><trkpt lat="33.74418190012888" lon="-5.004683525496558"><ele>1273.0</ele><time>2026-04-27T13:41:45Z</time></trkpt><trkpt lat="33.74426954530486" lon="-5.004565170319215"><ele>1273.0</ele><time>2026-04-27T13:41:46Z</time></trkpt><trkpt lat="33.744350853353325" lon="-5.004447103555828"><ele>1273.0</ele><time>2026-04-27T13:41:47Z</time></trkpt><trkpt lat="33.744432793600744" lon="-5.004333119572727"><ele>1273.0</ele><time>2026-04-27T13:41:48Z</time></trkpt><trkpt lat="33.74451878699809" lon="-5.0042254357794675"><ele>1273.0</ele><time>2026-04-27T13:41:49Z</time></trkpt><trkpt lat="33.744611051206455" lon="-5.004134237434713"><ele>1272.0</ele><time>2026-04-27T13:41:50Z</time></trkpt><trkpt lat="33.744712152476446" lon="-5.004057265037893"><ele>1271.0</ele><time>2026-04-27T13:41:51Z</time></trkpt><trkpt lat="33.744817135613964" lon="-5.003992507489169"><ele>1270.0</ele><time>2026-04-27T13:41:52Z</time></trkpt><trkpt lat="33.74493131962935" lon="-5.003945511061004"><ele>1269.0</ele><time>2026-04-27T13:41:53Z</time></trkpt><trkpt lat="33.74504965426025" lon="-5.003918411385229"><ele>1269.0</ele><time>2026-04-27T13:41:54Z</time></trkpt><trkpt lat="33.74517397363483" lon="-5.003904992964368"><ele>1269.0</ele><time>2026-04-27T13:41:55Z</time></trkpt><trkpt lat="33.74530528609963" lon="-5.003910462469461"><ele>1269.0</ele><time>2026-04-27T13:41:56Z</time></trkpt><trkpt lat="33.74543940622656" lon="-5.003940776693563"><ele>1269.0</ele><time>2026-04-27T13:41:57Z</time></trkpt><trkpt lat="33.745573521572204" lon="-5.003986093809782"><ele>1266.75</ele><time>2026-04-27T13:41:58Z</time></trkpt><trkpt lat="33.745701461066446" lon="-5.004047010726038"><ele>1264.5</ele><time>2026-04-27T13:41:59Z</time></trkpt><trkpt lat="33.74582242691082" lon="-5.004108890289944"><ele>1262.25</ele><time>2026-04-27T13:42:00Z</time></trkpt><trkpt lat="33.745943949486005" lon="-5.004161292806981"><ele>1260.0</ele><time>2026-04-27T13:42:01Z</time></trkpt><trkpt lat="33.74606229179342" lon="-5.004213537689611"><ele>1256.5</ele><time>2026-04-27T13:42:02Z</time></trkpt><trkpt lat="33.74617596415068" lon="-5.004270458590427"><ele>1253.0</ele><time>2026-04-27T13:42:03Z</time></trkpt><trkpt lat="33.746291265912525" lon="-5.0043250495306655"><ele>1249.5</ele><time>2026-04-27T13:42:04Z</time></trkpt><trkpt lat="33.7464063909723" lon="-5.004365421283619"><ele>1246.0</ele><time>2026-04-27T13:42:05.001Z</time></trkpt><trkpt lat="33.746524182517526" lon="-5.0043897364101175"><ele>1246.0</ele><time>2026-04-27T13:42:06.001Z</time></trkpt><trkpt lat="33.746644883368276" lon="-5.004396941424883"><ele>1246.0</ele><time>2026-04-27T13:42:07.001Z</time></trkpt><trkpt lat="33.746767166533495" lon="-5.004387686508622"><ele>1246.0</ele><time>2026-04-27T13:42:08.001Z</time></trkpt><trkpt lat="33.74688837928293" lon="-5.004358324657413"><ele>1246.0</ele><time>2026-04-27T13:42:09.001Z</time></trkpt><trkpt lat="33.74700794128733" lon="-5.00431300162115"><ele>1245.75</ele><time>2026-04-27T13:42:10.001Z</time></trkpt><trkpt lat="33.74712543269074" lon="-5.004254514025837"><ele>1245.5</ele><time>2026-04-27T13:42:11.001Z</time></trkpt><trkpt lat="33.747240665202696" lon="-5.004192286187527"><ele>1245.25</ele><time>2026-04-27T13:42:12.001Z</time></trkpt><trkpt lat="33.74735573325888" lon="-5.004132043222363"><ele>1245.0</ele><time>2026-04-27T13:42:13.001Z</time></trkpt><trkpt lat="33.74747368397624" lon="-5.00407434423366"><ele>1245.0</ele><time>2026-04-27T13:42:14.001Z</time></trkpt><trkpt lat="33.74759865597367" lon="-5.00401632968017"><ele>1245.0</ele><time>2026-04-27T13:42:15.001Z</time></trkpt><trkpt lat="33.74773044250352" lon="-5.003956792373796"><ele>1245.0</ele><time>2026-04-27T13:42:16.001Z</time></trkpt><trkpt lat="33.747871977558496" lon="-5.003904011414024"><ele>1245.0</ele><time>2026-04-27T13:42:17.001Z</time></trkpt><trkpt lat="33.748025570020864" lon="-5.003868621884507"><ele>1243.0</ele><time>2026-04-27T13:42:18.001Z</time></trkpt><trkpt lat="33.74819040656851" lon="-5.0038497409576195"><ele>1241.0</ele><time>2026-04-27T13:42:19.001Z</time></trkpt><trkpt lat="33.74835090751783" lon="-5.0038442606154065"><ele>1239.0</ele><time>2026-04-27T13:42:20.001Z</time></trkpt><trkpt lat="33.74850948399762" lon="-5.003849105808495"><ele>1237.6666666666667</ele><time>2026-04-27T13:42:21.001Z</time></trkpt><trkpt lat="33.748671604356005" lon="-5.0038563595388466"><ele>1236.3333333333335</ele><time>2026-04-27T13:42:22.001Z</time></trkpt><trkpt lat="33.74883572110194" lon="-5.0038632346625125"><ele>1235.0</ele><time>2026-04-27T13:42:23.001Z</time></trkpt><trkpt lat="33.749000196597926" lon="-5.003872791512706"><ele>1235.0</ele><time>2026-04-27T13:42:24.001Z</time></trkpt><trkpt lat="33.74916652358338" lon="-5.0038808278979205"><ele>1235.0</ele><time>2026-04-27T13:42:25.001Z</time></trkpt><trkpt lat="33.74933881918047" lon="-5.003888120375838"><ele>1235.0</ele><time>2026-04-27T13:42:26.001Z</time></trkpt><trkpt lat="33.749516385080625" lon="-5.003893579527841"><ele>1233.3333333333335</ele><time>2026-04-27T13:42:27.001Z</time></trkpt><trkpt lat="33.749695598966234" lon="-5.003894250768846"><ele>1231.6666666666667</ele><time>2026-04-27T13:42:28.001Z</time></trkpt><trkpt lat="33.749871032582206" lon="-5.003897555377051"><ele>1230.0</ele><time>2026-04-27T13:42:29.001Z</time></trkpt><trkpt lat="33.75004170368917" lon="-5.00390224117598"><ele>1229.3333333333333</ele><time>2026-04-27T13:42:30.001Z</time></trkpt><trkpt lat="33.750213531359854" lon="-5.003908414693492"><ele>1228.6666666666665</ele><time>2026-04-27T13:42:31.001Z</time></trkpt><trkpt lat="33.750385264549756" lon="-5.003911974478396"><ele>1228.0</ele><time>2026-04-27T13:42:32.001Z</time></trkpt><trkpt lat="33.75055363595846" lon="-5.003916912579785"><ele>1228.0</ele><time>2026-04-27T13:42:33.001Z</time></trkpt><trkpt lat="33.75072081661182" lon="-5.00392268654139"><ele>1228.0</ele><time>2026-04-27T13:42:34.001Z</time></trkpt><trkpt lat="33.75090300531622" lon="-5.003933694466563"><ele>1228.0</ele><time>2026-04-27T13:42:35.001Z</time></trkpt><trkpt lat="33.75109854730642" lon="-5.003943867167221"><ele>1225.3333333333333</ele><time>2026-04-27T13:42:36.001Z</time></trkpt><trkpt lat="33.75129906108078" lon="-5.003939095184501"><ele>1222.6666666666667</ele><time>2026-04-27T13:42:37.001Z</time></trkpt><trkpt lat="33.75150475106051" lon="-5.003930335532328"><ele>1220.0</ele><time>2026-04-27T13:42:38.001Z</time></trkpt><trkpt lat="33.75171426598267" lon="-5.003928676293231"><ele>1218.6666666666667</ele><time>2026-04-27T13:42:39.001Z</time></trkpt><trkpt lat="33.75192432681085" lon="-5.00393935300288"><ele>1217.3333333333333</ele><time>2026-04-27T13:42:40Z</time></trkpt><trkpt lat="33.75213808767865" lon="-5.003964545158646"><ele>1216.0</ele><time>2026-04-27T13:42:41Z</time></trkpt><trkpt lat="33.75235617746311" lon="-5.004010873627395"><ele>1216.0</ele><time>2026-04-27T13:42:42Z</time></trkpt><trkpt lat="33.75257391422757" lon="-5.004081352301853"><ele>1216.0</ele><time>2026-04-27T13:42:43Z</time></trkpt><trkpt lat="33.75278625808378" lon="-5.004175650257733"><ele>1210.0</ele><time>2026-04-27T13:42:44Z</time></trkpt><trkpt lat="33.75299965018568" lon="-5.004272023070267"><ele>1204.0</ele><time>2026-04-27T13:42:45Z</time></trkpt><trkpt lat="33.753206625240765" lon="-5.004375305163734"><ele>1204.0</ele><time>2026-04-27T13:42:46Z</time></trkpt><trkpt lat="33.753414007970676" lon="-5.004476481954545"><ele>1204.0</ele><time>2026-04-27T13:42:47Z</time></trkpt><trkpt lat="33.75361869151839" lon="-5.00457383257546"><ele>1204.0</ele><time>2026-04-27T13:42:48Z</time></trkpt><trkpt lat="33.75381925653331" lon="-5.004667355690155"><ele>1203.3333333333333</ele><time>2026-04-27T13:42:49Z</time></trkpt><trkpt lat="33.75401152141394" lon="-5.004759104288469"><ele>1202.6666666666667</ele><time>2026-04-27T13:42:50Z</time></trkpt><trkpt lat="33.75419793327284" lon="-5.004851090152676"><ele>1202.0</ele><time>2026-04-27T13:42:51Z</time></trkpt><trkpt lat="33.754378261862215" lon="-5.00494338712265"><ele>1198.0</ele><time>2026-04-27T13:42:52Z</time></trkpt><trkpt lat="33.75455591664156" lon="-5.005021588789347"><ele>1194.0</ele><time>2026-04-27T13:42:53Z</time></trkpt><trkpt lat="33.75474007239793" lon="-5.005061233151402"><ele>1190.0</ele><time>2026-04-27T13:42:54Z</time></trkpt><trkpt lat="33.754930889105374" lon="-5.005057757974764"><ele>1190.0</ele><time>2026-04-27T13:42:55Z</time></trkpt><trkpt lat="33.75512668859306" lon="-5.005013788272627"><ele>1190.0</ele><time>2026-04-27T13:42:56Z</time></trkpt><trkpt lat="33.755320346599966" lon="-5.0049382222629415"><ele>1190.0</ele><time>2026-04-27T13:42:57Z</time></trkpt><trkpt lat="33.75550854039071" lon="-5.004855547781599"><ele>1189.3333333333335</ele><time>2026-04-27T13:42:58Z</time></trkpt><trkpt lat="33.75569271260789" lon="-5.004778866194634"><ele>1188.6666666666667</ele><time>2026-04-27T13:42:59Z</time></trkpt><trkpt lat="33.7558735159078" lon="-5.004713135208572"><ele>1188.0</ele><time>2026-04-27T13:43:00Z</time></trkpt><trkpt lat="33.75605490877891" lon="-5.004666299469207"><ele>1187.0</ele><time>2026-04-27T13:43:01Z</time></trkpt><trkpt lat="33.756242304024234" lon="-5.004653712082233"><ele>1186.0</ele><time>2026-04-27T13:43:02Z</time></trkpt><trkpt lat="33.75643445246834" lon="-5.004684076619623"><ele>1185.0</ele><time>2026-04-27T13:43:03Z</time></trkpt><trkpt lat="33.75662710518529" lon="-5.004760051982369"><ele>1185.0</ele><time>2026-04-27T13:43:04Z</time></trkpt><trkpt lat="33.756816304720964" lon="-5.00486763631813"><ele>1185.0</ele><time>2026-04-27T13:43:05Z</time></trkpt><trkpt lat="33.757014781532426" lon="-5.004977070912325"><ele>1185.0</ele><time>2026-04-27T13:43:06Z</time></trkpt><trkpt lat="33.757220006538375" lon="-5.005065597675834"><ele>1181.0</ele><time>2026-04-27T13:43:07Z</time></trkpt><trkpt lat="33.75742985377988" lon="-5.005134190368077"><ele>1177.0</ele><time>2026-04-27T13:43:08Z</time></trkpt><trkpt lat="33.75764613357859" lon="-5.005181703618118"><ele>1173.0</ele><time>2026-04-27T13:43:09Z</time></trkpt><trkpt lat="33.757866016512985" lon="-5.005216105069613"><ele>1171.6666666666667</ele><time>2026-04-27T13:43:10Z</time></trkpt><trkpt lat="33.75808371053307" lon="-5.005246559412515"><ele>1170.3333333333335</ele><time>2026-04-27T13:43:11Z</time></trkpt><trkpt lat="33.758298258502876" lon="-5.005275031876665"><ele>1169.0</ele><time>2026-04-27T13:43:12Z</time></trkpt><trkpt lat="33.75851156445341" lon="-5.005301814909209"><ele>1169.3333333333335</ele><time>2026-04-27T13:43:13Z</time></trkpt><trkpt lat="33.758725177342505" lon="-5.005327458999919"><ele>1169.6666666666667</ele><time>2026-04-27T13:43:14Z</time></trkpt><trkpt lat="33.75894064529401" lon="-5.005347658915205"><ele>1170.0</ele><time>2026-04-27T13:43:15Z</time></trkpt><trkpt lat="33.759158458151255" lon="-5.005358457764392"><ele>1168.5</ele><time>2026-04-27T13:43:16Z</time></trkpt><trkpt lat="33.759382664602846" lon="-5.005358841882564"><ele>1167.0</ele><time>2026-04-27T13:43:17Z</time></trkpt><trkpt lat="33.759608620524794" lon="-5.005351837560918"><ele>1167.0</ele><time>2026-04-27T13:43:18Z</time></trkpt><trkpt lat="33.75983411084111" lon="-5.005336991908911"><ele>1167.0</ele><time>2026-04-27T13:43:19Z</time></trkpt><trkpt lat="33.760060335144225" lon="-5.005316642724609"><ele>1164.3333333333333</ele><time>2026-04-27T13:43:20Z</time></trkpt><trkpt lat="33.76028553846417" lon="-5.005292410681022"><ele>1161.6666666666665</ele><time>2026-04-27T13:43:21Z</time></trkpt><trkpt lat="33.760507442838865" lon="-5.00526828860099"><ele>1159.0</ele><time>2026-04-27T13:43:22Z</time></trkpt><trkpt lat="33.760725986657185" lon="-5.0052471093705435"><ele>1159.0</ele><time>2026-04-27T13:43:23Z</time></trkpt><trkpt lat="33.76094089034573" lon="-5.005224953007492"><ele>1159.0</ele><time>2026-04-27T13:43:24Z</time></trkpt><trkpt lat="33.76114906058001" lon="-5.0052018784652885"><ele>1159.0</ele><time>2026-04-27T13:43:25Z</time></trkpt><trkpt lat="33.76135101547446" lon="-5.005179124206412"><ele>1156.3333333333333</ele><time>2026-04-27T13:43:26Z</time></trkpt><trkpt lat="33.761547487495484" lon="-5.005157932790661"><ele>1153.6666666666667</ele><time>2026-04-27T13:43:27Z</time></trkpt><trkpt lat="33.761739737549675" lon="-5.005137566305953"><ele>1151.0</ele><time>2026-04-27T13:43:28Z</time></trkpt><trkpt lat="33.76192536866997" lon="-5.005117493652922"><ele>1150.6666666666667</ele><time>2026-04-27T13:43:29Z</time></trkpt><trkpt lat="33.76210163518341" lon="-5.005088994088122"><ele>1150.3333333333333</ele><time>2026-04-27T13:43:30Z</time></trkpt><trkpt lat="33.76227093166723" lon="-5.005040301718389"><ele>1150.0</ele><time>2026-04-27T13:43:31Z</time></trkpt><trkpt lat="33.7624343702888" lon="-5.004963725552944"><ele>1150.0</ele><time>2026-04-27T13:43:32Z</time></trkpt><trkpt lat="33.7625898648551" lon="-5.00485693577377"><ele>1150.0</ele><time>2026-04-27T13:43:33Z</time></trkpt><trkpt lat="33.762737465526875" lon="-5.004730676144642"><ele>1150.0</ele><time>2026-04-27T13:43:34Z</time></trkpt><trkpt lat="33.762871948202616" lon="-5.00459026444978"><ele>1145.0</ele><time>2026-04-27T13:43:35Z</time></trkpt><trkpt lat="33.762993243889575" lon="-5.004451887682668"><ele>1140.0</ele><time>2026-04-27T13:43:36Z</time></trkpt><trkpt lat="33.76311354491972" lon="-5.004322524267306"><ele>1135.0</ele><time>2026-04-27T13:43:37Z</time></trkpt><trkpt lat="33.76323233320846" lon="-5.00420312823627"><ele>1135.25</ele><time>2026-04-27T13:43:38Z</time></trkpt><trkpt lat="33.763357500322975" lon="-5.004100635898495"><ele>1135.5</ele><time>2026-04-27T13:43:39Z</time></trkpt><trkpt lat="33.76349461834775" lon="-5.004027829720376"><ele>1135.75</ele><time>2026-04-27T13:43:40Z</time></trkpt><trkpt lat="33.763636746369876" lon="-5.003985680904543"><ele>1136.0</ele><time>2026-04-27T13:43:41Z</time></trkpt><trkpt lat="33.76378519656488" lon="-5.003967238578099"><ele>1136.0</ele><time>2026-04-27T13:43:42Z</time></trkpt><trkpt lat="33.76393976669868" lon="-5.0039685192674215"><ele>1136.0</ele><time>2026-04-27T13:43:43Z</time></trkpt><trkpt lat="33.76409763029337" lon="-5.003969820111188"><ele>1136.0</ele><time>2026-04-27T13:43:44Z</time></trkpt><trkpt lat="33.76425188515439" lon="-5.003974192795105"><ele>1134.25</ele><time>2026-04-27T13:43:45Z</time></trkpt><trkpt lat="33.764401861229395" lon="-5.003979165884297"><ele>1132.5</ele><time>2026-04-27T13:43:46Z</time></trkpt><trkpt lat="33.764548143152034" lon="-5.003980263593221"><ele>1130.75</ele><time>2026-04-27T13:43:47Z</time></trkpt><trkpt lat="33.764689942224344" lon="-5.003974559601263"><ele>1129.0</ele><time>2026-04-27T13:43:48Z</time></trkpt><trkpt lat="33.76482905675017" lon="-5.00396101254433"><ele>1129.0</ele><time>2026-04-27T13:43:49Z</time></trkpt><trkpt lat="33.76496777973722" lon="-5.0039347187655006"><ele>1129.0</ele><time>2026-04-27T13:43:50Z</time></trkpt><trkpt lat="33.765113906752326" lon="-5.003889912838233"><ele>1129.0</ele><time>2026-04-27T13:43:51Z</time></trkpt><trkpt lat="33.76525950782411" lon="-5.003831666927728"><ele>1129.0</ele><time>2026-04-27T13:43:52Z</time></trkpt><trkpt lat="33.7654040054211" lon="-5.003769414545528"><ele>1126.75</ele><time>2026-04-27T13:43:53Z</time></trkpt><trkpt lat="33.76554499052908" lon="-5.0037041704684695"><ele>1124.5</ele><time>2026-04-27T13:43:54Z</time></trkpt><trkpt lat="33.76568062453172" lon="-5.003644380863228"><ele>1122.25</ele><time>2026-04-27T13:43:55Z</time></trkpt><trkpt lat="33.76581948178097" lon="-5.003599394649126"><ele>1120.0</ele><time>2026-04-27T13:43:56Z</time></trkpt><trkpt lat="33.76596438017505" lon="-5.003571280653229"><ele>1117.25</ele><time>2026-04-27T13:43:57Z</time></trkpt><trkpt lat="33.76610790801584" lon="-5.0035666861420385"><ele>1114.5</ele><time>2026-04-27T13:43:58Z</time></trkpt><trkpt lat="33.76625077423956" lon="-5.003589136512184"><ele>1111.75</ele><time>2026-04-27T13:43:59Z</time></trkpt><trkpt lat="33.76639564849102" lon="-5.00363870091922"><ele>1109.0</ele><time>2026-04-27T13:44:00Z</time></trkpt><trkpt lat="33.766541868915255" lon="-5.003710475163115"><ele>1109.0</ele><time>2026-04-27T13:44:01Z</time></trkpt><trkpt lat="33.76668840194952" lon="-5.003798869179596"><ele>1109.0</ele><time>2026-04-27T13:44:02Z</time></trkpt><trkpt lat="33.76683261715008" lon="-5.003897307025849"><ele>1109.0</ele><time>2026-04-27T13:44:03Z</time></trkpt><trkpt lat="33.766988152498584" lon="-5.004004334822894"><ele>1108.0</ele><time>2026-04-27T13:44:04Z</time></trkpt><trkpt lat="33.76715709760061" lon="-5.004115819349762"><ele>1107.0</ele><time>2026-04-27T13:44:05Z</time></trkpt><trkpt lat="33.7673354678944" lon="-5.004225145929421"><ele>1106.0</ele><time>2026-04-27T13:44:06Z</time></trkpt><trkpt lat="33.76752838629087" lon="-5.004313903751328"><ele>1103.3333333333335</ele><time>2026-04-27T13:44:07Z</time></trkpt><trkpt lat="33.76773105766914" lon="-5.004374133763337"><ele>1100.6666666666667</ele><time>2026-04-27T13:44:08Z</time></trkpt><trkpt lat="33.76793564010511" lon="-5.004403349409216"><ele>1098.0</ele><time>2026-04-27T13:44:09Z</time></trkpt><trkpt lat="33.76814172810432" lon="-5.004391961923705"><ele>1098.0</ele><time>2026-04-27T13:44:10Z</time></trkpt><trkpt lat="33.76834141022098" lon="-5.0043469010640305"><ele>1098.0</ele><time>2026-04-27T13:44:11.001Z</time></trkpt><trkpt lat="33.76853798045199" lon="-5.00428340228453"><ele>1098.0</ele><time>2026-04-27T13:44:12.001Z</time></trkpt><trkpt lat="33.768731441878394" lon="-5.004182568357483"><ele>1098.6666666666667</ele><time>2026-04-27T13:44:13.001Z</time></trkpt><trkpt lat="33.76892141138967" lon="-5.00405097062126"><ele>1099.3333333333335</ele><time>2026-04-27T13:44:14.001Z</time></trkpt><trkpt lat="33.769103006160684" lon="-5.003891336929204"><ele>1100.0</ele><time>2026-04-27T13:44:15.001Z</time></trkpt><trkpt lat="33.769263152532304" lon="-5.003710805898862"><ele>1094.6666666666667</ele><time>2026-04-27T13:44:16.001Z</time></trkpt><trkpt lat="33.76941649940555" lon="-5.003516811388167"><ele>1089.3333333333333</ele><time>2026-04-27T13:44:17.001Z</time></trkpt><trkpt lat="33.76957656556313" lon="-5.0033317700754445"><ele>1084.0</ele><time>2026-04-27T13:44:18.001Z</time></trkpt><trkpt lat="33.76973801638055" lon="-5.003147031656536"><ele>1084.0</ele><time>2026-04-27T13:44:19.001Z</time></trkpt><trkpt lat="33.76988816782403" lon="-5.002949693688694"><ele>1084.0</ele><time>2026-04-27T13:44:20.001Z</time></trkpt><trkpt lat="33.77003323524273" lon="-5.002737795025073"><ele>1084.0</ele><time>2026-04-27T13:44:21.001Z</time></trkpt><trkpt lat="33.770167537440884" lon="-5.0025110055339725"><ele>1084.0</ele><time>2026-04-27T13:44:22.001Z</time></trkpt><trkpt lat="33.77028842712152" lon="-5.002280394318258"><ele>1082.0</ele><time>2026-04-27T13:44:23.001Z</time></trkpt><trkpt lat="33.77040357411639" lon="-5.0020595343501535"><ele>1080.0</ele><time>2026-04-27T13:44:24.001Z</time></trkpt><trkpt lat="33.770507630946035" lon="-5.001861350344245"><ele>1078.0</ele><time>2026-04-27T13:44:25.001Z</time></trkpt><trkpt lat="33.770604843637926" lon="-5.0016768457196665"><ele>1079.0</ele><time>2026-04-27T13:44:26.001Z</time></trkpt><trkpt lat="33.770697730732" lon="-5.001496627800349"><ele>1080.0</ele><time>2026-04-27T13:44:27.001Z</time></trkpt><trkpt lat="33.77078985395844" lon="-5.001321328490604"><ele>1081.0</ele><time>2026-04-27T13:44:28.001Z</time></trkpt><trkpt lat="33.77088795877584" lon="-5.001150584845942"><ele>1081.0</ele><time>2026-04-27T13:44:29.001Z</time></trkpt><trkpt lat="33.7709975025111" lon="-5.000989867178898"><ele>1081.0</ele><time>2026-04-27T13:44:30.001Z</time></trkpt><trkpt lat="33.77111396518117" lon="-5.000849922024822"><ele>1081.0</ele><time>2026-04-27T13:44:31.001Z</time></trkpt><trkpt lat="33.77123743776055" lon="-5.000722550531365"><ele>1079.6666666666665</ele><time>2026-04-27T13:44:32.001Z</time></trkpt><trkpt lat="33.77137126652162" lon="-5.000605252039958"><ele>1078.3333333333333</ele><time>2026-04-27T13:44:33.001Z</time></trkpt><trkpt lat="33.77152413009129" lon="-5.00049151254633"><ele>1077.0</ele><time>2026-04-27T13:44:34.001Z</time></trkpt><trkpt lat="33.77168952990433" lon="-5.000374493285521"><ele>1075.3333333333333</ele><time>2026-04-27T13:44:35.001Z</time></trkpt><trkpt lat="33.771863532222405" lon="-5.000246871782719"><ele>1073.6666666666665</ele><time>2026-04-27T13:44:36.001Z</time></trkpt><trkpt lat="33.77204707433366" lon="-5.000108783422505"><ele>1072.0</ele><time>2026-04-27T13:44:37.001Z</time></trkpt><trkpt lat="33.772235457903676" lon="-4.999952180289071"><ele>1072.0</ele><time>2026-04-27T13:44:38.001Z</time></trkpt><trkpt lat="33.77242822089853" lon="-4.999783716978872"><ele>1072.0</ele><time>2026-04-27T13:44:39.001Z</time></trkpt><trkpt lat="33.77262848181542" lon="-4.999610772659794"><ele>1072.0</ele><time>2026-04-27T13:44:40.001Z</time></trkpt><trkpt lat="33.772828745021855" lon="-4.999441865354325"><ele>1072.0</ele><time>2026-04-27T13:44:41Z</time></trkpt><trkpt lat="33.77302418352614" lon="-4.99928180998804"><ele>1072.0</ele><time>2026-04-27T13:44:42Z</time></trkpt><trkpt lat="33.77321574536389" lon="-4.999126338673154"><ele>1072.0</ele><time>2026-04-27T13:44:43Z</time></trkpt><trkpt lat="33.77340886007547" lon="-4.998968422550913"><ele>1072.5</ele><time>2026-04-27T13:44:44Z</time></trkpt><trkpt lat="33.773600845181726" lon="-4.99881150810541"><ele>1073.0</ele><time>2026-04-27T13:44:45Z</time></trkpt><trkpt lat="33.77379060289041" lon="-4.998659214579595"><ele>1073.0</ele><time>2026-04-27T13:44:46Z</time></trkpt><trkpt lat="33.77397577236745" lon="-4.998510507705867"><ele>1073.0</ele><time>2026-04-27T13:44:47Z</time></trkpt><trkpt lat="33.77415302892719" lon="-4.998367124216529"><ele>1073.0</ele><time>2026-04-27T13:44:48Z</time></trkpt><trkpt lat="33.77432441615277" lon="-4.998226665890301"><ele>1072.6666666666667</ele><time>2026-04-27T13:44:49Z</time></trkpt><trkpt lat="33.774496319661225" lon="-4.998089249551087"><ele>1072.3333333333333</ele><time>2026-04-27T13:44:50Z</time></trkpt><trkpt lat="33.77467374984555" lon="-4.99794696411502"><ele>1072.0</ele><time>2026-04-27T13:44:51Z</time></trkpt><trkpt lat="33.77485609232371" lon="-4.997799681477299"><ele>1072.0</ele><time>2026-04-27T13:44:52Z</time></trkpt><trkpt lat="33.77504169847469" lon="-4.997650588204198"><ele>1072.0</ele><time>2026-04-27T13:44:53Z</time></trkpt><trkpt lat="33.7752280854645" lon="-4.9975036379896"><ele>1072.0</ele><time>2026-04-27T13:44:54Z</time></trkpt><trkpt lat="33.77541172821595" lon="-4.997358123463432"><ele>1070.0</ele><time>2026-04-27T13:44:55Z</time></trkpt><trkpt lat="33.775592446176205" lon="-4.997216322787176"><ele>1068.0</ele><time>2026-04-27T13:44:56Z</time></trkpt><trkpt lat="33.775773134386334" lon="-4.997076678897085"><ele>1066.0</ele><time>2026-04-27T13:44:57Z</time></trkpt><trkpt lat="33.77596197235631" lon="-4.9969328700915145"><ele>1065.5</ele><time>2026-04-27T13:44:58Z</time></trkpt><trkpt lat="33.77615510987696" lon="-4.996783088044608"><ele>1065.0</ele><time>2026-04-27T13:44:59Z</time></trkpt><trkpt lat="33.776347753001176" lon="-4.9966291921214046"><ele>1063.5</ele><time>2026-04-27T13:45:00Z</time></trkpt><trkpt lat="33.776543644542045" lon="-4.996476085396689"><ele>1062.0</ele><time>2026-04-27T13:45:01Z</time></trkpt><trkpt lat="33.776741101366916" lon="-4.996323489487252"><ele>1058.5</ele><time>2026-04-27T13:45:02Z</time></trkpt><trkpt lat="33.776940425771286" lon="-4.996164215797033"><ele>1055.0</ele><time>2026-04-27T13:45:03Z</time></trkpt><trkpt lat="33.777143694737" lon="-4.995975713768219"><ele>1054.0</ele><time>2026-04-27T13:45:04Z</time></trkpt><trkpt lat="33.77736287322768" lon="-4.995817052719471"><ele>1053.0</ele><time>2026-04-27T13:45:05Z</time></trkpt><trkpt lat="33.777562594261724" lon="-4.995641701911945"><ele>1050.5</ele><time>2026-04-27T13:45:06Z</time></trkpt><trkpt lat="33.77775937414289" lon="-4.995467461972967"><ele>1048.0</ele><time>2026-04-27T13:45:07Z</time></trkpt><trkpt lat="33.77795651333586" lon="-4.995293936594273"><ele>1048.0</ele><time>2026-04-27T13:45:08Z</time></trkpt><trkpt lat="33.77815243380754" lon="-4.995121936718192"><ele>1048.0</ele><time>2026-04-27T13:45:09Z</time></trkpt><trkpt lat="33.778346351846956" lon="-4.9949515023785445"><ele>1046.0</ele><time>2026-04-27T13:45:10Z</time></trkpt><trkpt lat="33.77853613520025" lon="-4.994785572574363"><ele>1044.0</ele><time>2026-04-27T13:45:11Z</time></trkpt><trkpt lat="33.778721732801095" lon="-4.994624345031312"><ele>1049.0</ele><time>2026-04-27T13:45:12Z</time></trkpt><trkpt lat="33.77863031380264" lon="-4.994044751739535"><ele>1049.0</ele><time>2026-04-27T13:45:13Z</time></trkpt><trkpt lat="33.77831673086752" lon="-4.994039137543334"><ele>1049.0</ele><time>2026-04-27T13:45:14Z</time></trkpt><trkpt lat="33.779294891534775" lon="-4.994130878454204"><ele>1043.0</ele><time>2026-04-27T13:45:15Z</time></trkpt><trkpt lat="33.779489626201574" lon="-4.993951590726221"><ele>1037.0</ele><time>2026-04-27T13:45:16Z</time></trkpt><trkpt lat="33.77968711477694" lon="-4.99376963736268"><ele>1037.0</ele><time>2026-04-27T13:45:17Z</time></trkpt><trkpt lat="33.77988633102797" lon="-4.99358953138069"><ele>1037.0</ele><time>2026-04-27T13:45:18Z</time></trkpt><trkpt lat="33.78008156000856" lon="-4.993408084781197"><ele>1029.5</ele><time>2026-04-27T13:45:19Z</time></trkpt><trkpt lat="33.780275416508154" lon="-4.993226705791858"><ele>1022.0</ele><time>2026-04-27T13:45:20Z</time></trkpt><trkpt lat="33.78046497185573" lon="-4.993051561838191"><ele>1022.0</ele><time>2026-04-27T13:45:21Z</time></trkpt><trkpt lat="33.78065225676699" lon="-4.992886384666241"><ele>1022.0</ele><time>2026-04-27T13:45:22Z</time></trkpt><trkpt lat="33.78084760451312" lon="-4.992733558109358"><ele>1023.0</ele><time>2026-04-27T13:45:23Z</time></trkpt><trkpt lat="33.78105596291927" lon="-4.992597744505823"><ele>1024.0</ele><time>2026-04-27T13:45:24Z</time></trkpt><trkpt lat="33.78127564667637" lon="-4.992476283269783"><ele>1024.0</ele><time>2026-04-27T13:45:25Z</time></trkpt><trkpt lat="33.78149887950187" lon="-4.992354383414092"><ele>1024.0</ele><time>2026-04-27T13:45:26Z</time></trkpt><trkpt lat="33.78171840215174" lon="-4.992224671785279"><ele>1016.5</ele><time>2026-04-27T13:45:27Z</time></trkpt><trkpt lat="33.781937622420585" lon="-4.992097794320863"><ele>1009.0</ele><time>2026-04-27T13:45:28Z</time></trkpt><trkpt lat="33.78215309772775" lon="-4.991977340388183"><ele>1009.0</ele><time>2026-04-27T13:45:29Z</time></trkpt><trkpt lat="33.78235947138018" lon="-4.99185863353518"><ele>1009.0</ele><time>2026-04-27T13:45:30Z</time></trkpt><trkpt lat="33.78255703238757" lon="-4.991744359479619"><ele>1009.0</ele><time>2026-04-27T13:45:31Z</time></trkpt><trkpt lat="33.78273874290111" lon="-4.991648286750711"><ele>1010.0</ele><time>2026-04-27T13:45:32Z</time></trkpt><trkpt lat="33.78291212740002" lon="-4.991576616515776"><ele>1011.0</ele><time>2026-04-27T13:45:33Z</time></trkpt><trkpt lat="33.78309586808743" lon="-4.991536845618419"><ele>1012.0</ele><time>2026-04-27T13:45:34Z</time></trkpt><trkpt lat="33.78328850991684" lon="-4.991527505920954"><ele>1012.0</ele><time>2026-04-27T13:45:35Z</time></trkpt><trkpt lat="33.78348545609723" lon="-4.991549190171595"><ele>1012.0</ele><time>2026-04-27T13:45:36Z</time></trkpt><trkpt lat="33.783680464961506" lon="-4.991608540599973"><ele>1012.0</ele><time>2026-04-27T13:45:37Z</time></trkpt><trkpt lat="33.78386818240332" lon="-4.991704539169507"><ele>1009.3333333333333</ele><time>2026-04-27T13:45:38Z</time></trkpt><trkpt lat="33.78404073502817" lon="-4.991835619964037"><ele>1006.6666666666667</ele><time>2026-04-27T13:45:39Z</time></trkpt><trkpt lat="33.784195648177416" lon="-4.991998130044092"><ele>1004.0</ele><time>2026-04-27T13:45:40Z</time></trkpt><trkpt lat="33.784335670699484" lon="-4.992179379444441"><ele>1002.6666666666667</ele><time>2026-04-27T13:45:41Z</time></trkpt><trkpt lat="33.78447072111839" lon="-4.992372366852898"><ele>1001.3333333333333</ele><time>2026-04-27T13:45:42Z</time></trkpt><trkpt lat="33.78460308932618" lon="-4.992569133596516"><ele>1000.0</ele><time>2026-04-27T13:45:43Z</time></trkpt><trkpt lat="33.784730869330254" lon="-4.992755536912076"><ele>1000.0</ele><time>2026-04-27T13:45:44Z</time></trkpt><trkpt lat="33.784860867555814" lon="-4.992939001232833"><ele>1000.0</ele><time>2026-04-27T13:45:45Z</time></trkpt><trkpt lat="33.7849897245458" lon="-4.99312413252127"><ele>1000.0</ele><time>2026-04-27T13:45:46Z</time></trkpt><trkpt lat="33.78511948095455" lon="-4.993308974764631"><ele>999.3333333333333</ele><time>2026-04-27T13:45:47Z</time></trkpt><trkpt lat="33.785249857501725" lon="-4.993493088063003"><ele>998.6666666666667</ele><time>2026-04-27T13:45:48Z</time></trkpt><trkpt lat="33.785383637555526" lon="-4.993678759574094"><ele>998.0</ele><time>2026-04-27T13:45:49Z</time></trkpt><trkpt lat="33.785520960373226" lon="-4.993865523326849"><ele>998.0</ele><time>2026-04-27T13:45:50Z</time></trkpt><trkpt lat="33.7856579826836" lon="-4.994051588583468"><ele>998.0</ele><time>2026-04-27T13:45:51Z</time></trkpt><trkpt lat="33.785799820150245" lon="-4.994229855999694"><ele>998.0</ele><time>2026-04-27T13:45:52Z</time></trkpt><trkpt lat="33.785953504894515" lon="-4.9943891120124615"><ele>993.3333333333334</ele><time>2026-04-27T13:45:53Z</time></trkpt><trkpt lat="33.78612204182755" lon="-4.994524926347367"><ele>988.6666666666667</ele><time>2026-04-27T13:45:54Z</time></trkpt><trkpt lat="33.786304156854484" lon="-4.994638817465218"><ele>984.0</ele><time>2026-04-27T13:45:55Z</time></trkpt><trkpt lat="33.786493829017544" lon="-4.994722858055437"><ele>984.0</ele><time>2026-04-27T13:45:56Z</time></trkpt><trkpt lat="33.78669321553023" lon="-4.994775453798137"><ele>984.0</ele><time>2026-04-27T13:45:57Z</time></trkpt><trkpt lat="33.786897925266" lon="-4.994797568663922"><ele>984.0</ele><time>2026-04-27T13:45:58Z</time></trkpt><trkpt lat="33.787097526911" lon="-4.9947903340682815"><ele>982.5</ele><time>2026-04-27T13:45:59Z</time></trkpt><trkpt lat="33.787263163502466" lon="-4.994759688737513"><ele>981.0</ele><time>2026-04-27T13:46:00Z</time></trkpt><trkpt lat="33.78740661401309" lon="-4.994715789305637"><ele>979.5</ele><time>2026-04-27T13:46:01Z</time></trkpt><trkpt lat="33.787530620060075" lon="-4.994657702495203"><ele>978.0</ele><time>2026-04-27T13:46:02Z</time></trkpt><trkpt lat="33.787639633145936" lon="-4.994601749842231"><ele>974.8</ele><time>2026-04-27T13:46:03Z</time></trkpt><trkpt lat="33.78772892049605" lon="-4.994544568275535"><ele>971.5999999999999</ele><time>2026-04-27T13:46:04Z</time></trkpt><trkpt lat="33.78780848328545" lon="-4.994489230440915"><ele>968.4000000000001</ele><time>2026-04-27T13:46:05Z</time></trkpt><trkpt lat="33.78788553058974" lon="-4.9944381215133875"><ele>965.2</ele><time>2026-04-27T13:46:06Z</time></trkpt><trkpt lat="33.78796784084278" lon="-4.994373270031173"><ele>962.0</ele><time>2026-04-27T13:46:07Z</time></trkpt><trkpt lat="33.78805506607521" lon="-4.994289414003354"><ele>962.0</ele><time>2026-04-27T13:46:08Z</time></trkpt><trkpt lat="33.78814172791307" lon="-4.9941876771987515"><ele>962.0</ele><time>2026-04-27T13:46:09Z</time></trkpt><trkpt lat="33.78821567360271" lon="-4.994076324005591"><ele>962.0</ele><time>2026-04-27T13:46:10Z</time></trkpt><trkpt lat="33.788280663118904" lon="-4.993961277830929"><ele>962.0</ele><time>2026-04-27T13:46:11Z</time></trkpt><trkpt lat="33.7883399485712" lon="-4.993852217564917"><ele>961.8333333333334</ele><time>2026-04-27T13:46:12Z</time></trkpt><trkpt lat="33.788389881338375" lon="-4.993748143434631"><ele>961.6666666666667</ele><time>2026-04-27T13:46:13Z</time></trkpt><trkpt lat="33.78842696472779" lon="-4.99365473674541"><ele>961.5</ele><time>2026-04-27T13:46:14Z</time></trkpt><trkpt lat="33.788455394923176" lon="-4.993570997167542"><ele>961.3333333333333</ele><time>2026-04-27T13:46:15Z</time></trkpt><trkpt lat="33.78847735351236" lon="-4.993492940855171"><ele>961.1666666666666</ele><time>2026-04-27T13:46:16Z</time></trkpt><trkpt lat="33.788503869213" lon="-4.993406441310571"><ele>961.0</ele><time>2026-04-27T13:46:17.001Z</time></trkpt><trkpt lat="33.78853329905867" lon="-4.993293813352253"><ele>960.9999999999999</ele><time>2026-04-27T13:46:18.001Z</time></trkpt><trkpt lat="33.78855490663519" lon="-4.993170983899256"><ele>961.0</ele><time>2026-04-27T13:46:19.001Z</time></trkpt><trkpt lat="33.78856617205359" lon="-4.993070575780815"><ele>961.0</ele><time>2026-04-27T13:46:20.001Z</time></trkpt><trkpt lat="33.78857295291146" lon="-4.992994508666636"><ele>961.0</ele><time>2026-04-27T13:46:21.001Z</time></trkpt><trkpt lat="33.7885882562434" lon="-4.992840046113425"><ele>960.9999999999999</ele><time>2026-04-27T13:46:23.001Z</time></trkpt><trkpt lat="33.78859670114566" lon="-4.992761154255082"><ele>961.0</ele><time>2026-04-27T13:46:24.001Z</time></trkpt><trkpt lat="33.788615261739366" lon="-4.992623529218224"><ele>960.4</ele><time>2026-04-27T13:46:26.001Z</time></trkpt><trkpt lat="33.78863092886288" lon="-4.992489263227488"><ele>959.8</ele><time>2026-04-27T13:46:28.001Z</time></trkpt><trkpt lat="33.78863997198637" lon="-4.9923672954882266"><ele>959.1999999999999</ele><time>2026-04-27T13:46:30.001Z</time></trkpt><trkpt lat="33.78864871511978" lon="-4.992240635940201"><ele>958.5999999999999</ele><time>2026-04-27T13:46:32.001Z</time></trkpt><trkpt lat="33.78864703893425" lon="-4.992094054785651"><ele>958.0</ele><time>2026-04-27T13:46:34.001Z</time></trkpt><trkpt lat="33.78864426001995" lon="-4.992016775077684"><ele>958.0</ele><time>2026-04-27T13:46:35.001Z</time></trkpt><trkpt lat="33.788638575832884" lon="-4.991936907432595"><ele>958.0</ele><time>2026-04-27T13:46:36.001Z</time></trkpt><trkpt lat="33.78862945489409" lon="-4.9918522361794215"><ele>958.0</ele><time>2026-04-27T13:46:37.001Z</time></trkpt><trkpt lat="33.78861437654798" lon="-4.991745371195209"><ele>958.0</ele><time>2026-04-27T13:46:38.001Z</time></trkpt><trkpt lat="33.78859065464992" lon="-4.991611631368201"><ele>958.0</ele><time>2026-04-27T13:46:39.001Z</time></trkpt><trkpt lat="33.78855345068114" lon="-4.991454239109926"><ele>964.0</ele><time>2026-04-27T13:46:40Z</time></trkpt><trkpt lat="33.78850167995536" lon="-4.991280835739335"><ele>970.0</ele><time>2026-04-27T13:46:41Z</time></trkpt><trkpt lat="33.78844352963601" lon="-4.9910955370073795"><ele>976.0</ele><time>2026-04-27T13:46:42Z</time></trkpt><trkpt lat="33.7883864599981" lon="-4.990894829314319"><ele>971.6666666666666</ele><time>2026-04-27T13:46:43Z</time></trkpt><trkpt lat="33.788325723984336" lon="-4.9906442675063385"><ele>967.3333333333333</ele><time>2026-04-27T13:46:44Z</time></trkpt><trkpt lat="33.78826824228042" lon="-4.990413383245083"><ele>963.0</ele><time>2026-04-27T13:46:45Z</time></trkpt><trkpt lat="33.78822255507496" lon="-4.990194025811304"><ele>960.6666666666667</ele><time>2026-04-27T13:46:46Z</time></trkpt><trkpt lat="33.78819900453202" lon="-4.989976314157968"><ele>958.3333333333334</ele><time>2026-04-27T13:46:47Z</time></trkpt><trkpt lat="33.788200545999985" lon="-4.989751956286246"><ele>956.0</ele><time>2026-04-27T13:46:48Z</time></trkpt><trkpt lat="33.78823289554429" lon="-4.989525249578416"><ele>956.0</ele><time>2026-04-27T13:46:49Z</time></trkpt><trkpt lat="33.78829712639513" lon="-4.9893032600023535"><ele>956.0</ele><time>2026-04-27T13:46:50Z</time></trkpt><trkpt lat="33.788390306089234" lon="-4.989084390560101"><ele>956.0</ele><time>2026-04-27T13:46:51Z</time></trkpt><trkpt lat="33.788494016946466" lon="-4.988867010746887"><ele>953.6666666666667</ele><time>2026-04-27T13:46:52Z</time></trkpt><trkpt lat="33.78859418840314" lon="-4.9886480678600105"><ele>951.3333333333333</ele><time>2026-04-27T13:46:53Z</time></trkpt><trkpt lat="33.78868904335314" lon="-4.9884281737615135"><ele>949.0</ele><time>2026-04-27T13:46:54Z</time></trkpt><trkpt lat="33.788782805304606" lon="-4.988209344427385"><ele>949.0</ele><time>2026-04-27T13:46:55Z</time></trkpt><trkpt lat="33.78887721088286" lon="-4.987989221172081"><ele>949.0</ele><time>2026-04-27T13:46:56Z</time></trkpt><trkpt lat="33.788972354776455" lon="-4.987767593018973"><ele>949.0</ele><time>2026-04-27T13:46:57Z</time></trkpt><trkpt lat="33.78906925177749" lon="-4.987551149740571"><ele>950.0</ele><time>2026-04-27T13:46:58Z</time></trkpt><trkpt lat="33.789167397183824" lon="-4.987353440606687"><ele>951.0</ele><time>2026-04-27T13:46:59Z</time></trkpt><trkpt lat="33.78927546614351" lon="-4.9871732484786815"><ele>952.0</ele><time>2026-04-27T13:47:00Z</time></trkpt><trkpt lat="33.789406329183244" lon="-4.987009809085939"><ele>952.0</ele><time>2026-04-27T13:47:01Z</time></trkpt><trkpt lat="33.78955790846357" lon="-4.986871174809399"><ele>952.0</ele><time>2026-04-27T13:47:02Z</time></trkpt><trkpt lat="33.7897252975055" lon="-4.9867543081433325"><ele>952.0</ele><time>2026-04-27T13:47:03Z</time></trkpt><trkpt lat="33.78990461665506" lon="-4.986659564340572"><ele>952.0</ele><time>2026-04-27T13:47:04Z</time></trkpt><trkpt lat="33.79009243455248" lon="-4.986586310664094"><ele>952.0</ele><time>2026-04-27T13:47:05Z</time></trkpt><trkpt lat="33.790284062931995" lon="-4.986530572193793"><ele>952.0</ele><time>2026-04-27T13:47:06Z</time></trkpt><trkpt lat="33.790473170973854" lon="-4.986483815964584"><ele>949.3333333333333</ele><time>2026-04-27T13:47:07Z</time></trkpt><trkpt lat="33.79065186449147" lon="-4.986440164016656"><ele>946.6666666666667</ele><time>2026-04-27T13:47:08Z</time></trkpt><trkpt lat="33.79082540781446" lon="-4.986410748619375"><ele>944.0</ele><time>2026-04-27T13:47:09Z</time></trkpt><trkpt lat="33.790993088369866" lon="-4.986413314314206"><ele>945.0</ele><time>2026-04-27T13:47:10Z</time></trkpt><trkpt lat="33.791149380688736" lon="-4.986475521551757"><ele>946.0</ele><time>2026-04-27T13:47:11Z</time></trkpt><trkpt lat="33.79130496655732" lon="-4.986551099344444"><ele>947.0</ele><time>2026-04-27T13:47:12Z</time></trkpt><trkpt lat="33.791459534794676" lon="-4.986650971428778"><ele>943.0</ele><time>2026-04-27T13:47:13Z</time></trkpt><trkpt lat="33.791590017903324" lon="-4.986802159139524"><ele>939.0</ele><time>2026-04-27T13:47:14Z</time></trkpt><trkpt lat="33.791695854159194" lon="-4.986977859050627"><ele>935.0</ele><time>2026-04-27T13:47:15Z</time></trkpt><trkpt lat="33.791767797821095" lon="-4.987181823563114"><ele>935.0</ele><time>2026-04-27T13:47:16Z</time></trkpt><trkpt lat="33.79181282420348" lon="-4.987404886497206"><ele>935.0</ele><time>2026-04-27T13:47:17Z</time></trkpt><trkpt lat="33.79185515856683" lon="-4.987631756609516"><ele>935.0</ele><time>2026-04-27T13:47:18Z</time></trkpt><trkpt lat="33.7919025978902" lon="-4.987861656967071"><ele>932.6666666666667</ele><time>2026-04-27T13:47:19Z</time></trkpt><trkpt lat="33.791949056862734" lon="-4.98809607711317"><ele>930.3333333333333</ele><time>2026-04-27T13:47:20Z</time></trkpt><trkpt lat="33.79199316836737" lon="-4.988319745804987"><ele>928.0</ele><time>2026-04-27T13:47:21Z</time></trkpt><trkpt lat="33.79203586035575" lon="-4.988531477714071"><ele>928.0</ele><time>2026-04-27T13:47:22Z</time></trkpt><trkpt lat="33.792088802305" lon="-4.98873181177111"><ele>928.0</ele><time>2026-04-27T13:47:23Z</time></trkpt><trkpt lat="33.792156256010465" lon="-4.988921189550371"><ele>928.0</ele><time>2026-04-27T13:47:24Z</time></trkpt><trkpt lat="33.79224521428495" lon="-4.989094332316538"><ele>923.3333333333333</ele><time>2026-04-27T13:47:25Z</time></trkpt><trkpt lat="33.792353301505166" lon="-4.98924855374094"><ele>918.6666666666667</ele><time>2026-04-27T13:47:26Z</time></trkpt><trkpt lat="33.79247002984153" lon="-4.989391222319278"><ele>914.0</ele><time>2026-04-27T13:47:27Z</time></trkpt><trkpt lat="33.79259311703251" lon="-4.989532165253242"><ele>917.3333333333334</ele><time>2026-04-27T13:47:28Z</time></trkpt><trkpt lat="33.792716767888386" lon="-4.989679006004313"><ele>920.6666666666667</ele><time>2026-04-27T13:47:29Z</time></trkpt><trkpt lat="33.792841411153105" lon="-4.989830374602"><ele>924.0</ele><time>2026-04-27T13:47:30Z</time></trkpt><trkpt lat="33.79297016098768" lon="-4.989984738709336"><ele>920.3333333333333</ele><time>2026-04-27T13:47:31Z</time></trkpt><trkpt lat="33.79310331832087" lon="-4.990140545569443"><ele>916.6666666666666</ele><time>2026-04-27T13:47:32Z</time></trkpt><trkpt lat="33.79323794607415" lon="-4.99029775175406"><ele>913.0</ele><time>2026-04-27T13:47:33Z</time></trkpt><trkpt lat="33.79337647701661" lon="-4.990452211363394"><ele>914.0</ele><time>2026-04-27T13:47:34Z</time></trkpt><trkpt lat="33.79352376629736" lon="-4.990593295778657"><ele>915.0</ele><time>2026-04-27T13:47:35Z</time></trkpt><trkpt lat="33.79368381992932" lon="-4.99071498709659"><ele>916.0</ele><time>2026-04-27T13:47:36Z</time></trkpt><trkpt lat="33.7938553848056" lon="-4.990811390427291"><ele>913.3333333333333</ele><time>2026-04-27T13:47:37Z</time></trkpt><trkpt lat="33.79403047169542" lon="-4.990906543903978"><ele>910.6666666666667</ele><time>2026-04-27T13:47:38Z</time></trkpt><trkpt lat="33.794206375560954" lon="-4.990957632536649"><ele>908.0</ele><time>2026-04-27T13:47:39Z</time></trkpt><trkpt lat="33.794387055124396" lon="-4.990964786139331"><ele>907.3333333333334</ele><time>2026-04-27T13:47:40Z</time></trkpt><trkpt lat="33.79456019721109" lon="-4.99098153851802"><ele>906.6666666666667</ele><time>2026-04-27T13:47:41Z</time></trkpt><trkpt lat="33.79473224436268" lon="-4.990970747409107"><ele>906.0</ele><time>2026-04-27T13:47:42Z</time></trkpt><trkpt lat="33.794902988150206" lon="-4.990930299981877"><ele>906.0</ele><time>2026-04-27T13:47:43Z</time></trkpt><trkpt lat="33.79507059615039" lon="-4.9908797311169995"><ele>906.0</ele><time>2026-04-27T13:47:44Z</time></trkpt><trkpt lat="33.795237903279144" lon="-4.990814516619336"><ele>906.0</ele><time>2026-04-27T13:47:45Z</time></trkpt><trkpt lat="33.79540492096967" lon="-4.9907396622405535"><ele>905.6666666666667</ele><time>2026-04-27T13:47:46Z</time></trkpt><trkpt lat="33.795578491516956" lon="-4.990658585730181"><ele>905.3333333333334</ele><time>2026-04-27T13:47:47Z</time></trkpt><trkpt lat="33.79576814404711" lon="-4.990571398848671"><ele>905.0</ele><time>2026-04-27T13:47:48Z</time></trkpt><trkpt lat="33.795962791651235" lon="-4.9904821442301115"><ele>902.3333333333334</ele><time>2026-04-27T13:47:49Z</time></trkpt><trkpt lat="33.796144278850164" lon="-4.990395236858953"><ele>899.6666666666667</ele><time>2026-04-27T13:47:50Z</time></trkpt><trkpt lat="33.796315715769936" lon="-4.990312620728399"><ele>897.0</ele><time>2026-04-27T13:47:51Z</time></trkpt><trkpt lat="33.796481300933166" lon="-4.990236645472301"><ele>897.0</ele><time>2026-04-27T13:47:52Z</time></trkpt><trkpt lat="33.79663978074872" lon="-4.990164424937474"><ele>897.0</ele><time>2026-04-27T13:47:53Z</time></trkpt><trkpt lat="33.796791494492275" lon="-4.9900934951603"><ele>897.0</ele><time>2026-04-27T13:47:54Z</time></trkpt><trkpt lat="33.79694333945121" lon="-4.990021743446107"><ele>897.0</ele><time>2026-04-27T13:47:55Z</time></trkpt><trkpt lat="33.79709591790188" lon="-4.989955145266937"><ele>897.0</ele><time>2026-04-27T13:47:56Z</time></trkpt><trkpt lat="33.79725228414635" lon="-4.989891233263458"><ele>897.0</ele><time>2026-04-27T13:47:57Z</time></trkpt><trkpt lat="33.79741531698794" lon="-4.98981740046953"><ele>897.0</ele><time>2026-04-27T13:47:58Z</time></trkpt><trkpt lat="33.797590134050466" lon="-4.989735418038726"><ele>897.0</ele><time>2026-04-27T13:47:59Z</time></trkpt><trkpt lat="33.79777721667455" lon="-4.989655084682637"><ele>897.0</ele><time>2026-04-27T13:48:00Z</time></trkpt><trkpt lat="33.79796453172488" lon="-4.989567706321608"><ele>894.6666666666667</ele><time>2026-04-27T13:48:01Z</time></trkpt><trkpt lat="33.798139664158555" lon="-4.989474942799752"><ele>892.3333333333334</ele><time>2026-04-27T13:48:02Z</time></trkpt><trkpt lat="33.79829245150293" lon="-4.989393875592393"><ele>890.0</ele><time>2026-04-27T13:48:03Z</time></trkpt><trkpt lat="33.79843378882401" lon="-4.989324835428165"><ele>890.5</ele><time>2026-04-27T13:48:04Z</time></trkpt><trkpt lat="33.798567289157035" lon="-4.989260879779848"><ele>891.0</ele><time>2026-04-27T13:48:05Z</time></trkpt><trkpt lat="33.798693600037176" lon="-4.989201219651357"><ele>891.5</ele><time>2026-04-27T13:48:06Z</time></trkpt><trkpt lat="33.79880770583901" lon="-4.989149010150464"><ele>892.0</ele><time>2026-04-27T13:48:07Z</time></trkpt><trkpt lat="33.798904805144126" lon="-4.989105820116815"><ele>891.9999999999999</ele><time>2026-04-27T13:48:08Z</time></trkpt><trkpt lat="33.7989903377644" lon="-4.9890708568175315"><ele>892.0</ele><time>2026-04-27T13:48:09Z</time></trkpt><trkpt lat="33.7990709980448" lon="-4.98903625334681"><ele>892.0</ele><time>2026-04-27T13:48:10Z</time></trkpt><trkpt lat="33.79914959161153" lon="-4.989003831261282"><ele>892.0</ele><time>2026-04-27T13:48:10.999Z</time></trkpt><trkpt lat="33.799225297179866" lon="-4.9889734360612135"><ele>891.9999999999999</ele><time>2026-04-27T13:48:11.999Z</time></trkpt><trkpt lat="33.79930171767526" lon="-4.98894024377752"><ele>892.0</ele><time>2026-04-27T13:48:12.999Z</time></trkpt><trkpt lat="33.79937713639214" lon="-4.988907258849304"><ele>890.6666666666666</ele><time>2026-04-27T13:48:13.999Z</time></trkpt><trkpt lat="33.799455792551036" lon="-4.988872735368046"><ele>889.3333333333333</ele><time>2026-04-27T13:48:14.999Z</time></trkpt><trkpt lat="33.799532990578946" lon="-4.988839381260661"><ele>888.0</ele><time>2026-04-27T13:48:15.999Z</time></trkpt><trkpt lat="33.79960334354188" lon="-4.988806275465751"><ele>886.6666666666667</ele><time>2026-04-27T13:48:16.999Z</time></trkpt><trkpt lat="33.79966928865487" lon="-4.988771451307869"><ele>885.3333333333334</ele><time>2026-04-27T13:48:17.999Z</time></trkpt><trkpt lat="33.79973044994185" lon="-4.988732707963475"><ele>884.0</ele><time>2026-04-27T13:48:18.999Z</time></trkpt><trkpt lat="33.79979277645909" lon="-4.9886916485942985"><ele>884.0000000000001</ele><time>2026-04-27T13:48:19.999Z</time></trkpt><trkpt lat="33.79986002893955" lon="-4.988646300953515"><ele>884.0</ele><time>2026-04-27T13:48:20.999Z</time></trkpt><trkpt lat="33.799929362444495" lon="-4.988596668456453"><ele>884.0</ele><time>2026-04-27T13:48:22Z</time></trkpt><trkpt lat="33.800000886380545" lon="-4.988546725560353"><ele>884.0</ele><time>2026-04-27T13:48:23Z</time></trkpt><trkpt lat="33.80007079799764" lon="-4.9884944240532345"><ele>884.0000000000001</ele><time>2026-04-27T13:48:24Z</time></trkpt><trkpt lat="33.800140715709695" lon="-4.98843508505597"><ele>884.0</ele><time>2026-04-27T13:48:25Z</time></trkpt><trkpt lat="33.80021276787709" lon="-4.98837207317201"><ele>883.6</ele><time>2026-04-27T13:48:26Z</time></trkpt><trkpt lat="33.800286612884335" lon="-4.988306202808426"><ele>883.2</ele><time>2026-04-27T13:48:27Z</time></trkpt><trkpt lat="33.80036324700787" lon="-4.988238923281009"><ele>882.8000000000001</ele><time>2026-04-27T13:48:28Z</time></trkpt><trkpt lat="33.80044218955657" lon="-4.9881673286412"><ele>882.4000000000001</ele><time>2026-04-27T13:48:29Z</time></trkpt><trkpt lat="33.800520062622184" lon="-4.9880930674889905"><ele>882.0</ele><time>2026-04-27T13:48:30Z</time></trkpt><trkpt lat="33.80059972904706" lon="-4.988018931749289"><ele>882.0</ele><time>2026-04-27T13:48:31Z</time></trkpt><trkpt lat="33.80068188864737" lon="-4.987944146315771"><ele>882.0</ele><time>2026-04-27T13:48:32Z</time></trkpt><trkpt lat="33.80076760290304" lon="-4.987863792297174"><ele>882.0</ele><time>2026-04-27T13:48:33Z</time></trkpt><trkpt lat="33.80085174873813" lon="-4.987784146888566"><ele>882.0</ele><time>2026-04-27T13:48:34Z</time></trkpt><trkpt lat="33.80093060672205" lon="-4.987698612954229"><ele>882.0</ele><time>2026-04-27T13:48:35Z</time></trkpt><trkpt lat="33.801007737459756" lon="-4.987616433881089"><ele>881.4000000000001</ele><time>2026-04-27T13:48:36Z</time></trkpt><trkpt lat="33.801085350010744" lon="-4.987536148407908"><ele>880.8000000000001</ele><time>2026-04-27T13:48:37Z</time></trkpt><trkpt lat="33.80116755514727" lon="-4.987457911036261"><ele>880.2</ele><time>2026-04-27T13:48:38Z</time></trkpt><trkpt lat="33.80124808144029" lon="-4.987376166147308"><ele>879.6</ele><time>2026-04-27T13:48:39Z</time></trkpt><trkpt lat="33.8013315109842" lon="-4.987290006976715"><ele>879.0</ele><time>2026-04-27T13:48:40Z</time></trkpt><trkpt lat="33.801419903875484" lon="-4.987199260609881"><ele>879.0</ele><time>2026-04-27T13:48:41Z</time></trkpt><trkpt lat="33.80151306310852" lon="-4.98710347626369"><ele>879.0</ele><time>2026-04-27T13:48:42Z</time></trkpt><trkpt lat="33.801611460676256" lon="-4.987003866302794"><ele>879.0</ele><time>2026-04-27T13:48:43Z</time></trkpt><trkpt lat="33.8017136994222" lon="-4.986897734072597"><ele>879.0</ele><time>2026-04-27T13:48:44Z</time></trkpt><trkpt lat="33.801820078178814" lon="-4.986790179989055"><ele>878.3333333333333</ele><time>2026-04-27T13:48:45Z</time></trkpt><trkpt lat="33.80193090625414" lon="-4.986678744778128"><ele>877.6666666666666</ele><time>2026-04-27T13:48:46Z</time></trkpt><trkpt lat="33.80205422156211" lon="-4.986561099925971"><ele>877.0</ele><time>2026-04-27T13:48:47Z</time></trkpt><trkpt lat="33.80218876122502" lon="-4.986434605821661"><ele>877.0</ele><time>2026-04-27T13:48:48Z</time></trkpt><trkpt lat="33.802328085512755" lon="-4.986299112745296"><ele>877.0</ele><time>2026-04-27T13:48:49Z</time></trkpt><trkpt lat="33.802468482976515" lon="-4.986150703083402"><ele>877.0</ele><time>2026-04-27T13:48:50Z</time></trkpt><trkpt lat="33.80260465008562" lon="-4.986005082500436"><ele>876.6666666666666</ele><time>2026-04-27T13:48:51Z</time></trkpt><trkpt lat="33.80273471483223" lon="-4.985868520581433"><ele>876.3333333333333</ele><time>2026-04-27T13:48:52Z</time></trkpt><trkpt lat="33.80285762126431" lon="-4.98574121660941"><ele>876.0</ele><time>2026-04-27T13:48:53Z</time></trkpt><trkpt lat="33.80297484394684" lon="-4.9856221627770045"><ele>875.25</ele><time>2026-04-27T13:48:54Z</time></trkpt><trkpt lat="33.80308313738448" lon="-4.985508110668499"><ele>874.5</ele><time>2026-04-27T13:48:55Z</time></trkpt><trkpt lat="33.803186771448246" lon="-4.985403657197582"><ele>873.75</ele><time>2026-04-27T13:48:56Z</time></trkpt><trkpt lat="33.80328692468218" lon="-4.985303617756326"><ele>873.0</ele><time>2026-04-27T13:48:57Z</time></trkpt><trkpt lat="33.80338229001885" lon="-4.985206081760423"><ele>873.0</ele><time>2026-04-27T13:48:58Z</time></trkpt><trkpt lat="33.80347705204252" lon="-4.985112417162599"><ele>873.0</ele><time>2026-04-27T13:48:59Z</time></trkpt><trkpt lat="33.80357188282457" lon="-4.985018242104522"><ele>873.0</ele><time>2026-04-27T13:49:00Z</time></trkpt><trkpt lat="33.80366887850505" lon="-4.9849231608499105"><ele>873.0</ele><time>2026-04-27T13:49:01Z</time></trkpt><trkpt lat="33.80376972029225" lon="-4.984833575506629"><ele>872.25</ele><time>2026-04-27T13:49:02Z</time></trkpt><trkpt lat="33.80386926002471" lon="-4.984742384966509"><ele>871.5</ele><time>2026-04-27T13:49:03Z</time></trkpt><trkpt lat="33.80397211045446" lon="-4.984653607076187"><ele>870.75</ele><time>2026-04-27T13:49:04Z</time></trkpt><trkpt lat="33.80407635318458" lon="-4.984570735040459"><ele>870.0</ele><time>2026-04-27T13:49:05Z</time></trkpt><trkpt lat="33.80418064333176" lon="-4.9844897378789215"><ele>870.0</ele><time>2026-04-27T13:49:06Z</time></trkpt><trkpt lat="33.80428941651297" lon="-4.984411049238756"><ele>870.0</ele><time>2026-04-27T13:49:07Z</time></trkpt><trkpt lat="33.8044077133978" lon="-4.984334580695158"><ele>870.0</ele><time>2026-04-27T13:49:08Z</time></trkpt><trkpt lat="33.804530379459855" lon="-4.984259087260739"><ele>870.0</ele><time>2026-04-27T13:49:09Z</time></trkpt><trkpt lat="33.8046520803851" lon="-4.984186786230196"><ele>870.5</ele><time>2026-04-27T13:49:10Z</time></trkpt><trkpt lat="33.80476890716909" lon="-4.984123415764431"><ele>871.0</ele><time>2026-04-27T13:49:11Z</time></trkpt><trkpt lat="33.804882859441655" lon="-4.984063903430267"><ele>871.5</ele><time>2026-04-27T13:49:12Z</time></trkpt><trkpt lat="33.80499831286858" lon="-4.9840079745019805"><ele>872.0</ele><time>2026-04-27T13:49:13Z</time></trkpt><trkpt lat="33.805117047224755" lon="-4.9839593378102105"><ele>871.5</ele><time>2026-04-27T13:49:14Z</time></trkpt><trkpt lat="33.805239635498765" lon="-4.983915082781092"><ele>871.0</ele><time>2026-04-27T13:49:15Z</time></trkpt><trkpt lat="33.80536589275438" lon="-4.9838729081189665"><ele>870.5</ele><time>2026-04-27T13:49:16Z</time></trkpt><trkpt lat="33.80549212618201" lon="-4.983833253848464"><ele>870.0</ele><time>2026-04-27T13:49:17Z</time></trkpt><trkpt lat="33.80562027600668" lon="-4.98379429218897"><ele>870.0</ele><time>2026-04-27T13:49:18Z</time></trkpt><trkpt lat="33.80574830438336" lon="-4.983764913762726"><ele>870.0</ele><time>2026-04-27T13:49:19Z</time></trkpt><trkpt lat="33.80587610673972" lon="-4.983741340731689"><ele>870.0</ele><time>2026-04-27T13:49:20Z</time></trkpt><trkpt lat="33.806004452135056" lon="-4.983719950306371"><ele>870.0</ele><time>2026-04-27T13:49:21Z</time></trkpt><trkpt lat="33.80613587971644" lon="-4.983706504377762"><ele>869.0</ele><time>2026-04-27T13:49:22Z</time></trkpt><trkpt lat="33.806277584270056" lon="-4.9837016043874485"><ele>868.0</ele><time>2026-04-27T13:49:23Z</time></trkpt><trkpt lat="33.806443697110986" lon="-4.983702372826482"><ele>867.0</ele><time>2026-04-27T13:49:24Z</time></trkpt><trkpt lat="33.80662445154096" lon="-4.983696607155573"><ele>867.0</ele><time>2026-04-27T13:49:25Z</time></trkpt><trkpt lat="33.8067956468836" lon="-4.983694043995843"><ele>867.0</ele><time>2026-04-27T13:49:26Z</time></trkpt><trkpt lat="33.806950565386" lon="-4.9836918813866085"><ele>867.0</ele><time>2026-04-27T13:49:27Z</time></trkpt><trkpt lat="33.807087881943325" lon="-4.983693122470932"><ele>866.25</ele><time>2026-04-27T13:49:28Z</time></trkpt><trkpt lat="33.807214043690166" lon="-4.983693356207804"><ele>865.5</ele><time>2026-04-27T13:49:29Z</time></trkpt><trkpt lat="33.807338197080604" lon="-4.983695566828194"><ele>864.75</ele><time>2026-04-27T13:49:30Z</time></trkpt><trkpt lat="33.807464267465235" lon="-4.983697439644444"><ele>864.0</ele><time>2026-04-27T13:49:31Z</time></trkpt><trkpt lat="33.807592753075895" lon="-4.983699253162438"><ele>863.0</ele><time>2026-04-27T13:49:32Z</time></trkpt><trkpt lat="33.80771903368456" lon="-4.983700258683343"><ele>862.0</ele><time>2026-04-27T13:49:33Z</time></trkpt><trkpt lat="33.807845416229505" lon="-4.983702173766715"><ele>861.0</ele><time>2026-04-27T13:49:34Z</time></trkpt><trkpt lat="33.80797258052609" lon="-4.983704938270636"><ele>860.0</ele><time>2026-04-27T13:49:35Z</time></trkpt><trkpt lat="33.80810026418882" lon="-4.98370785391297"><ele>860.0</ele><time>2026-04-27T13:49:36Z</time></trkpt><trkpt lat="33.8082274607585" lon="-4.983714340854986"><ele>860.0</ele><time>2026-04-27T13:49:37Z</time></trkpt><trkpt lat="33.80835523254149" lon="-4.983719472472514"><ele>860.0</ele><time>2026-04-27T13:49:38Z</time></trkpt><trkpt lat="33.808482365938424" lon="-4.98372174639855"><ele>860.0</ele><time>2026-04-27T13:49:39Z</time></trkpt><trkpt lat="33.80860830191141" lon="-4.983724462483189"><ele>859.25</ele><time>2026-04-27T13:49:40Z</time></trkpt><trkpt lat="33.80873372816425" lon="-4.983728049323824"><ele>858.5</ele><time>2026-04-27T13:49:41Z</time></trkpt><trkpt lat="33.80885807719846" lon="-4.983732995827322"><ele>857.75</ele><time>2026-04-27T13:49:42Z</time></trkpt><trkpt lat="33.80897987057055" lon="-4.983734626094536"><ele>857.0</ele><time>2026-04-27T13:49:43Z</time></trkpt><trkpt lat="33.809100119985445" lon="-4.983734654795542"><ele>857.0</ele><time>2026-04-27T13:49:44Z</time></trkpt><trkpt lat="33.809220211614594" lon="-4.983736804846058"><ele>857.0</ele><time>2026-04-27T13:49:45Z</time></trkpt><trkpt lat="33.80934061433706" lon="-4.983739337335983"><ele>857.0</ele><time>2026-04-27T13:49:46Z</time></trkpt><trkpt lat="33.80945906373033" lon="-4.983742812032671"><ele>857.0</ele><time>2026-04-27T13:49:47Z</time></trkpt><trkpt lat="33.809575970109556" lon="-4.983745754699882"><ele>856.0</ele><time>2026-04-27T13:49:48Z</time></trkpt><trkpt lat="33.80969068203667" lon="-4.9837483058395655"><ele>855.0</ele><time>2026-04-27T13:49:49Z</time></trkpt><trkpt lat="33.80980296795112" lon="-4.983748557780129"><ele>854.0</ele><time>2026-04-27T13:49:50Z</time></trkpt><trkpt lat="33.809915969723626" lon="-4.9837476328862405"><ele>853.0</ele><time>2026-04-27T13:49:51Z</time></trkpt><trkpt lat="33.81003239468297" lon="-4.983747425294884"><ele>853.0</ele><time>2026-04-27T13:49:51.999Z</time></trkpt><trkpt lat="33.81015101777061" lon="-4.9837537557260445"><ele>853.0</ele><time>2026-04-27T13:49:52.999Z</time></trkpt><trkpt lat="33.81026925546881" lon="-4.9837599276543925"><ele>853.0</ele><time>2026-04-27T13:49:53.999Z</time></trkpt><trkpt lat="33.81038894542656" lon="-4.983765343139747"><ele>853.0</ele><time>2026-04-27T13:49:54.999Z</time></trkpt><trkpt lat="33.810510119078884" lon="-4.983767707947676"><ele>853.25</ele><time>2026-04-27T13:49:55.999Z</time></trkpt><trkpt lat="33.81063324692079" lon="-4.983773853323895"><ele>853.5</ele><time>2026-04-27T13:49:56.999Z</time></trkpt><trkpt lat="33.81075955799191" lon="-4.983783511699618"><ele>853.75</ele><time>2026-04-27T13:49:57.999Z</time></trkpt><trkpt lat="33.81089395383566" lon="-4.983786986451431"><ele>854.0</ele><time>2026-04-27T13:49:58.999Z</time></trkpt><trkpt lat="33.81103709920383" lon="-4.983793739240919"><ele>852.0</ele><time>2026-04-27T13:49:59.999Z</time></trkpt><trkpt lat="33.81118729292601" lon="-4.983801437395478"><ele>850.0</ele><time>2026-04-27T13:50:00.999Z</time></trkpt><trkpt lat="33.81134975378237" lon="-4.983810700290648"><ele>848.0</ele><time>2026-04-27T13:50:01.999Z</time></trkpt><trkpt lat="33.81152414761071" lon="-4.983792260977049"><ele>848.0</ele><time>2026-04-27T13:50:02.999Z</time></trkpt><trkpt lat="33.81170715499805" lon="-4.983798862959934"><ele>848.0</ele><time>2026-04-27T13:50:03.999Z</time></trkpt><trkpt lat="33.811893288768914" lon="-4.9838036485645985"><ele>848.0</ele><time>2026-04-27T13:50:04.999Z</time></trkpt><trkpt lat="33.812085866474774" lon="-4.983824841062729"><ele>847.0</ele><time>2026-04-27T13:50:05.999Z</time></trkpt><trkpt lat="33.812284141999434" lon="-4.983814204487047"><ele>846.0</ele><time>2026-04-27T13:50:06.999Z</time></trkpt><trkpt lat="33.81248178216021" lon="-4.983804404583813"><ele>845.0</ele><time>2026-04-27T13:50:07.999Z</time></trkpt><trkpt lat="33.81268027475935" lon="-4.98380002059844"><ele>844.0</ele><time>2026-04-27T13:50:08.999Z</time></trkpt><trkpt lat="33.812880060302696" lon="-4.983805294660996"><ele>843.0</ele><time>2026-04-27T13:50:09.999Z</time></trkpt><trkpt lat="33.813081976449524" lon="-4.983810476851643"><ele>842.0</ele><time>2026-04-27T13:50:10.999Z</time></trkpt><trkpt lat="33.81328962067131" lon="-4.98381504507274"><ele>841.0</ele><time>2026-04-27T13:50:11.999Z</time></trkpt><trkpt lat="33.81350229521798" lon="-4.98381895566159"><ele>840.0</ele><time>2026-04-27T13:50:12.999Z</time></trkpt><trkpt lat="33.813721496131905" lon="-4.983828704818805"><ele>839.0</ele><time>2026-04-27T13:50:13.999Z</time></trkpt><trkpt lat="33.81394783340288" lon="-4.983836330577915"><ele>839.0</ele><time>2026-04-27T13:50:14.999Z</time></trkpt><trkpt lat="33.814179099863466" lon="-4.9838407746021725"><ele>839.0</ele><time>2026-04-27T13:50:15.999Z</time></trkpt><trkpt lat="33.81440716726214" lon="-4.983844517118333"><ele>836.5</ele><time>2026-04-27T13:50:16.999Z</time></trkpt><trkpt lat="33.81463439011587" lon="-4.983849626909497"><ele>834.0</ele><time>2026-04-27T13:50:17.999Z</time></trkpt><trkpt lat="33.814861536722354" lon="-4.983855417889727"><ele>834.0</ele><time>2026-04-27T13:50:18.999Z</time></trkpt><trkpt lat="33.81509586390068" lon="-4.983860906311113"><ele>834.0</ele><time>2026-04-27T13:50:19.999Z</time></trkpt><trkpt lat="33.81533674052145" lon="-4.983865484214068"><ele>832.0</ele><time>2026-04-27T13:50:20.999Z</time></trkpt><trkpt lat="33.81557722602658" lon="-4.983866205369469"><ele>830.0</ele><time>2026-04-27T13:50:21.999Z</time></trkpt><trkpt lat="33.81582210463144" lon="-4.983872349946069"><ele>828.5</ele><time>2026-04-27T13:50:22.999Z</time></trkpt><trkpt lat="33.81606908666486" lon="-4.983879503566399"><ele>827.0</ele><time>2026-04-27T13:50:23.999Z</time></trkpt><trkpt lat="33.816318023284595" lon="-4.983888017198137"><ele>827.0</ele><time>2026-04-27T13:50:24.999Z</time></trkpt><trkpt lat="33.8165700810866" lon="-4.983897239481403"><ele>827.0</ele><time>2026-04-27T13:50:25.999Z</time></trkpt><trkpt lat="33.81682583988743" lon="-4.983904668911932"><ele>826.0</ele><time>2026-04-27T13:50:26.999Z</time></trkpt><trkpt lat="33.8170865877295" lon="-4.983911645513259"><ele>825.0</ele><time>2026-04-27T13:50:28Z</time></trkpt><trkpt lat="33.81735038687319" lon="-4.983917073521563"><ele>825.0</ele><time>2026-04-27T13:50:29Z</time></trkpt><trkpt lat="33.81761627338735" lon="-4.983921124278829"><ele>825.0</ele><time>2026-04-27T13:50:30Z</time></trkpt><trkpt lat="33.817881561232674" lon="-4.983924966886997"><ele>824.0</ele><time>2026-04-27T13:50:31Z</time></trkpt><trkpt lat="33.8181490982017" lon="-4.983933342884389"><ele>823.0</ele><time>2026-04-27T13:50:32Z</time></trkpt><trkpt lat="33.81841546715986" lon="-4.98393926630897"><ele>821.5</ele><time>2026-04-27T13:50:33Z</time></trkpt><trkpt lat="33.818681722833055" lon="-4.983944149950154"><ele>820.0</ele><time>2026-04-27T13:50:34Z</time></trkpt><trkpt lat="33.818950277786264" lon="-4.983950566288073"><ele>820.0</ele><time>2026-04-27T13:50:35Z</time></trkpt><trkpt lat="33.81922186298425" lon="-4.9839573051048465"><ele>820.0</ele><time>2026-04-27T13:50:36Z</time></trkpt><trkpt lat="33.81949395562979" lon="-4.983962211117562"><ele>819.5</ele><time>2026-04-27T13:50:37Z</time></trkpt><trkpt lat="33.81976463015097" lon="-4.9839685763209"><ele>819.0</ele><time>2026-04-27T13:50:38Z</time></trkpt><trkpt lat="33.82003342681545" lon="-4.983976350500002"><ele>816.5</ele><time>2026-04-27T13:50:39Z</time></trkpt><trkpt lat="33.82030325667432" lon="-4.983981310253224"><ele>814.0</ele><time>2026-04-27T13:50:40Z</time></trkpt><trkpt lat="33.82057277091036" lon="-4.983987907810948"><ele>814.0</ele><time>2026-04-27T13:50:41Z</time></trkpt><trkpt lat="33.82084114989273" lon="-4.983997260919101"><ele>814.0</ele><time>2026-04-27T13:50:42Z</time></trkpt><trkpt lat="33.821109702790274" lon="-4.9840055703346176"><ele>812.0</ele><time>2026-04-27T13:50:43Z</time></trkpt><trkpt lat="33.82137806823877" lon="-4.984011299649855"><ele>810.0</ele><time>2026-04-27T13:50:44Z</time></trkpt><trkpt lat="33.82164673062857" lon="-4.984014881192246"><ele>809.0</ele><time>2026-04-27T13:50:45Z</time></trkpt><trkpt lat="33.821913023778954" lon="-4.984022053616038"><ele>808.0</ele><time>2026-04-27T13:50:46Z</time></trkpt><trkpt lat="33.822180717757774" lon="-4.9840302543971475"><ele>808.0</ele><time>2026-04-27T13:50:47Z</time></trkpt><trkpt lat="33.82244960731839" lon="-4.984036548609719"><ele>808.0</ele><time>2026-04-27T13:50:48Z</time></trkpt><trkpt lat="33.822721031898695" lon="-4.984040109791278"><ele>806.0</ele><time>2026-04-27T13:50:49Z</time></trkpt><trkpt lat="33.82299209268624" lon="-4.984045346241645"><ele>804.0</ele><time>2026-04-27T13:50:50Z</time></trkpt><trkpt lat="33.82326134954876" lon="-4.984051565179"><ele>803.0</ele><time>2026-04-27T13:50:51Z</time></trkpt><trkpt lat="33.823528507012576" lon="-4.984058850301101"><ele>802.0</ele><time>2026-04-27T13:50:52Z</time></trkpt><trkpt lat="33.823793714655864" lon="-4.984065553837943"><ele>802.0</ele><time>2026-04-27T13:50:53Z</time></trkpt><trkpt lat="33.82405773301784" lon="-4.984072899126623"><ele>802.0</ele><time>2026-04-27T13:50:54Z</time></trkpt><trkpt lat="33.82432309155191" lon="-4.984077337454192"><ele>800.5</ele><time>2026-04-27T13:50:55Z</time></trkpt><trkpt lat="33.82458730472059" lon="-4.984084942766441"><ele>799.0</ele><time>2026-04-27T13:50:56Z</time></trkpt><trkpt lat="33.82485365502041" lon="-4.984092354070147"><ele>799.0</ele><time>2026-04-27T13:50:57Z</time></trkpt><trkpt lat="33.825125278373825" lon="-4.984097932510267"><ele>799.0</ele><time>2026-04-27T13:50:58Z</time></trkpt><trkpt lat="33.825395855063135" lon="-4.984104336082404"><ele>798.5</ele><time>2026-04-27T13:50:59Z</time></trkpt><trkpt lat="33.82566345749312" lon="-4.984108016142708"><ele>798.0</ele><time>2026-04-27T13:51:00Z</time></trkpt><trkpt lat="33.825927251762174" lon="-4.984112816191714"><ele>796.0</ele><time>2026-04-27T13:51:01Z</time></trkpt><trkpt lat="33.82618519889929" lon="-4.9841191205725535"><ele>794.0</ele><time>2026-04-27T13:51:02Z</time></trkpt><trkpt lat="33.82643965313908" lon="-4.984124286756635"><ele>794.0</ele><time>2026-04-27T13:51:03Z</time></trkpt><trkpt lat="33.82668774859829" lon="-4.984129639837444"><ele>794.0</ele><time>2026-04-27T13:51:04Z</time></trkpt><trkpt lat="33.826929811680365" lon="-4.984136893367622"><ele>792.0</ele><time>2026-04-27T13:51:05Z</time></trkpt><trkpt lat="33.82716942409101" lon="-4.9841436154251095"><ele>790.0</ele><time>2026-04-27T13:51:06Z</time></trkpt><trkpt lat="33.827409091099085" lon="-4.984147193259841"><ele>788.5</ele><time>2026-04-27T13:51:07Z</time></trkpt><trkpt lat="33.82765087121677" lon="-4.98415552767391"><ele>787.0</ele><time>2026-04-27T13:51:08Z</time></trkpt><trkpt lat="33.82789557317426" lon="-4.984161128640849"><ele>787.0</ele><time>2026-04-27T13:51:09Z</time></trkpt><trkpt lat="33.82814276631832" lon="-4.98416849536508"><ele>787.0</ele><time>2026-04-27T13:51:10Z</time></trkpt><trkpt lat="33.8283922565918" lon="-4.984174095696411"><ele>786.0</ele><time>2026-04-27T13:51:11Z</time></trkpt><trkpt lat="33.828643338961115" lon="-4.984179542114993"><ele>785.0</ele><time>2026-04-27T13:51:12Z</time></trkpt><trkpt lat="33.82889481194826" lon="-4.984184911922901"><ele>785.0</ele><time>2026-04-27T13:51:13Z</time></trkpt><trkpt lat="33.829147743193985" lon="-4.984191401759353"><ele>785.0</ele><time>2026-04-27T13:51:14Z</time></trkpt><trkpt lat="33.82940008142228" lon="-4.9841984588186685"><ele>783.5</ele><time>2026-04-27T13:51:15Z</time></trkpt><trkpt lat="33.82965436104123" lon="-4.9842054940393075"><ele>782.0</ele><time>2026-04-27T13:51:16Z</time></trkpt><trkpt lat="33.82991110923161" lon="-4.98421205295171"><ele>780.5</ele><time>2026-04-27T13:51:17Z</time></trkpt><trkpt lat="33.830170610390674" lon="-4.98421771839622"><ele>779.0</ele><time>2026-04-27T13:51:18Z</time></trkpt><trkpt lat="33.83042992465097" lon="-4.984222279504617"><ele>779.0</ele><time>2026-04-27T13:51:19Z</time></trkpt><trkpt lat="33.8306871866924" lon="-4.9842249156256315"><ele>779.0</ele><time>2026-04-27T13:51:20Z</time></trkpt><trkpt lat="33.83094747216671" lon="-4.984229398856464"><ele>778.0</ele><time>2026-04-27T13:51:21Z</time></trkpt><trkpt lat="33.83120934531462" lon="-4.9842342253165475"><ele>777.0</ele><time>2026-04-27T13:51:22Z</time></trkpt><trkpt lat="33.83147102769585" lon="-4.984239259124391"><ele>777.0</ele><time>2026-04-27T13:51:23Z</time></trkpt><trkpt lat="33.83173327606841" lon="-4.984246376933669"><ele>777.0</ele><time>2026-04-27T13:51:24Z</time></trkpt><trkpt lat="33.831988824517346" lon="-4.984252264066665"><ele>775.6666666666667</ele><time>2026-04-27T13:51:25Z</time></trkpt><trkpt lat="33.83219842408082" lon="-4.9842606925247"><ele>774.3333333333334</ele><time>2026-04-27T13:51:26Z</time></trkpt><trkpt lat="33.83240481221975" lon="-4.984267477935272"><ele>773.0</ele><time>2026-04-27T13:51:27Z</time></trkpt><trkpt lat="33.83260923524504" lon="-4.984271772218658"><ele>773.0</ele><time>2026-04-27T13:51:28Z</time></trkpt><trkpt lat="33.83281086883533" lon="-4.984276529849147"><ele>773.0</ele><time>2026-04-27T13:51:29Z</time></trkpt><trkpt lat="33.833008638275196" lon="-4.984281580201644"><ele>773.0</ele><time>2026-04-27T13:51:30Z</time></trkpt><trkpt lat="33.83320460391179" lon="-4.984283799900666"><ele>773.0</ele><time>2026-04-27T13:51:31Z</time></trkpt><trkpt lat="33.83340012041577" lon="-4.984284602785467"><ele>773.0</ele><time>2026-04-27T13:51:32Z</time></trkpt><trkpt lat="33.83359677139137" lon="-4.984288787648216"><ele>773.0</ele><time>2026-04-27T13:51:33Z</time></trkpt><trkpt lat="33.83379404773155" lon="-4.984294633932041"><ele>771.6666666666667</ele><time>2026-04-27T13:51:34Z</time></trkpt><trkpt lat="33.83398851692307" lon="-4.98430016495215"><ele>770.3333333333333</ele><time>2026-04-27T13:51:35Z</time></trkpt><trkpt lat="33.8341822756087" lon="-4.984305376883675"><ele>769.0</ele><time>2026-04-27T13:51:36Z</time></trkpt><trkpt lat="33.834375831153" lon="-4.98430934900121"><ele>768.3333333333333</ele><time>2026-04-27T13:51:37Z</time></trkpt><trkpt lat="33.83456909935534" lon="-4.984312880668113"><ele>767.6666666666666</ele><time>2026-04-27T13:51:38Z</time></trkpt><trkpt lat="33.83476111623119" lon="-4.984316928852597"><ele>767.0</ele><time>2026-04-27T13:51:39Z</time></trkpt><trkpt lat="33.83495242099554" lon="-4.984321239233867"><ele>766.0</ele><time>2026-04-27T13:51:40Z</time></trkpt><trkpt lat="33.835141562977775" lon="-4.984325377826401"><ele>765.0</ele><time>2026-04-27T13:51:41Z</time></trkpt><trkpt lat="33.835330893921785" lon="-4.984330854991283"><ele>764.0</ele><time>2026-04-27T13:51:42Z</time></trkpt><trkpt lat="33.8355198401899" lon="-4.984335340539174"><ele>764.0</ele><time>2026-04-27T13:51:43Z</time></trkpt><trkpt lat="33.83571283196712" lon="-4.984338093992558"><ele>764.0</ele><time>2026-04-27T13:51:44Z</time></trkpt><trkpt lat="33.83590671788096" lon="-4.984341200684646"><ele>764.0</ele><time>2026-04-27T13:51:45Z</time></trkpt><trkpt lat="33.83609876398983" lon="-4.984345266474876"><ele>763.3333333333333</ele><time>2026-04-27T13:51:46Z</time></trkpt><trkpt lat="33.83628960242107" lon="-4.9843502095435985"><ele>762.6666666666666</ele><time>2026-04-27T13:51:46.999Z</time></trkpt><trkpt lat="33.83647813915032" lon="-4.984353968616297"><ele>762.0</ele><time>2026-04-27T13:51:47.999Z</time></trkpt><trkpt lat="33.836668067102586" lon="-4.984356422686655"><ele>760.6666666666666</ele><time>2026-04-27T13:51:48.999Z</time></trkpt><trkpt lat="33.836859847750446" lon="-4.984360180841292"><ele>759.3333333333333</ele><time>2026-04-27T13:51:49.999Z</time></trkpt><trkpt lat="33.837052494990886" lon="-4.984366592757812"><ele>758.0</ele><time>2026-04-27T13:51:50.999Z</time></trkpt><trkpt lat="33.8372456414832" lon="-4.984372650302743"><ele>758.0</ele><time>2026-04-27T13:51:51.999Z</time></trkpt><trkpt lat="33.83743669702424" lon="-4.984377020286594"><ele>758.0</ele><time>2026-04-27T13:51:52.999Z</time></trkpt><trkpt lat="33.83762630080679" lon="-4.984381409266126"><ele>758.0</ele><time>2026-04-27T13:51:53.999Z</time></trkpt><trkpt lat="33.8378147031208" lon="-4.984385317117331"><ele>758.0</ele><time>2026-04-27T13:51:54.999Z</time></trkpt><trkpt lat="33.838002609076526" lon="-4.984388314730194"><ele>758.0</ele><time>2026-04-27T13:51:55.999Z</time></trkpt><trkpt lat="33.83819082010254" lon="-4.98439108717021"><ele>758.0</ele><time>2026-04-27T13:51:56.999Z</time></trkpt><trkpt lat="33.838378560604156" lon="-4.9843942607646845"><ele>757.0</ele><time>2026-04-27T13:51:57.999Z</time></trkpt><trkpt lat="33.83856453591381" lon="-4.984399858637211"><ele>756.0</ele><time>2026-04-27T13:51:58.999Z</time></trkpt><trkpt lat="33.83874967365842" lon="-4.984404680248258"><ele>755.0</ele><time>2026-04-27T13:51:59.999Z</time></trkpt><trkpt lat="33.83893513478479" lon="-4.9844111922173155"><ele>755.0</ele><time>2026-04-27T13:52:00.999Z</time></trkpt><trkpt lat="33.83911906350975" lon="-4.98441630886345"><ele>755.0</ele><time>2026-04-27T13:52:01.999Z</time></trkpt><trkpt lat="33.83930216210085" lon="-4.984420505684291"><ele>755.0</ele><time>2026-04-27T13:52:02.999Z</time></trkpt><trkpt lat="33.83948365760774" lon="-4.984425357818482"><ele>754.0</ele><time>2026-04-27T13:52:03.999Z</time></trkpt><trkpt lat="33.83966419698726" lon="-4.984428348097252"><ele>753.0</ele><time>2026-04-27T13:52:04.999Z</time></trkpt><trkpt lat="33.83984613827787" lon="-4.984434616854496"><ele>752.0</ele><time>2026-04-27T13:52:05.999Z</time></trkpt><trkpt lat="33.840029070616076" lon="-4.984416678973642"><ele>751.0</ele><time>2026-04-27T13:52:06.999Z</time></trkpt><trkpt lat="33.84021450597228" lon="-4.9844206331947944"><ele>750.0</ele><time>2026-04-27T13:52:07.999Z</time></trkpt><trkpt lat="33.840403420361454" lon="-4.98444366010573"><ele>749.0</ele><time>2026-04-27T13:52:08.999Z</time></trkpt><trkpt lat="33.840598208968395" lon="-4.984448887177464"><ele>749.0</ele><time>2026-04-27T13:52:09.999Z</time></trkpt><trkpt lat="33.84079506970017" lon="-4.984456245216779"><ele>749.0</ele><time>2026-04-27T13:52:10.999Z</time></trkpt><trkpt lat="33.84099021936766" lon="-4.984463922739537"><ele>749.0</ele><time>2026-04-27T13:52:11.999Z</time></trkpt><trkpt lat="33.84117680695525" lon="-4.984464229999646"><ele>747.3333333333333</ele><time>2026-04-27T13:52:12.999Z</time></trkpt><trkpt lat="33.841367849077" lon="-4.984467590972619"><ele>745.6666666666666</ele><time>2026-04-27T13:52:13.999Z</time></trkpt><trkpt lat="33.84156650702598" lon="-4.984472191300318"><ele>744.0</ele><time>2026-04-27T13:52:14.999Z</time></trkpt><trkpt lat="33.841774240740556" lon="-4.984475597682773"><ele>743.6666666666666</ele><time>2026-04-27T13:52:15.999Z</time></trkpt><trkpt lat="33.84198737498562" lon="-4.984480673794473"><ele>743.3333333333333</ele><time>2026-04-27T13:52:16.999Z</time></trkpt><trkpt lat="33.84220384238438" lon="-4.984489093114272"><ele>743.0</ele><time>2026-04-27T13:52:17.999Z</time></trkpt><trkpt lat="33.84242413155639" lon="-4.984496696180176"><ele>742.0</ele><time>2026-04-27T13:52:18.999Z</time></trkpt><trkpt lat="33.842647802326255" lon="-4.98450507856165"><ele>741.0</ele><time>2026-04-27T13:52:19.999Z</time></trkpt><trkpt lat="33.84287448593829" lon="-4.9845103348866635"><ele>741.0</ele><time>2026-04-27T13:52:20.999Z</time></trkpt><trkpt lat="33.84310482450153" lon="-4.984517128932345"><ele>741.0</ele><time>2026-04-27T13:52:21.999Z</time></trkpt><trkpt lat="33.843335450427006" lon="-4.984523013623248"><ele>739.5</ele><time>2026-04-27T13:52:22.999Z</time></trkpt><trkpt lat="33.843564461984485" lon="-4.984526397236706"><ele>738.0</ele><time>2026-04-27T13:52:23.999Z</time></trkpt><trkpt lat="33.843794409796935" lon="-4.984528511094405"><ele>738.0</ele><time>2026-04-27T13:52:24.999Z</time></trkpt><trkpt lat="33.844024611457016" lon="-4.984532783875739"><ele>738.0</ele><time>2026-04-27T13:52:25.999Z</time></trkpt><trkpt lat="33.844258351901516" lon="-4.984534955874204"><ele>737.5</ele><time>2026-04-27T13:52:26.999Z</time></trkpt><trkpt lat="33.84449627730198" lon="-4.98453807332382"><ele>737.0</ele><time>2026-04-27T13:52:27.999Z</time></trkpt><trkpt lat="33.84473725352" lon="-4.984542406996578"><ele>737.0</ele><time>2026-04-27T13:52:28.999Z</time></trkpt><trkpt lat="33.84497920531396" lon="-4.984548981368264"><ele>737.0</ele><time>2026-04-27T13:52:29.999Z</time></trkpt><trkpt lat="33.84521934372266" lon="-4.984555715206079"><ele>736.5</ele><time>2026-04-27T13:52:30.999Z</time></trkpt><trkpt lat="33.84546009091594" lon="-4.984562574707308"><ele>736.0</ele><time>2026-04-27T13:52:31.999Z</time></trkpt><trkpt lat="33.84570358965089" lon="-4.984568521696928"><ele>736.0</ele><time>2026-04-27T13:52:33Z</time></trkpt><trkpt lat="33.84594758118582" lon="-4.984574802267473"><ele>736.0</ele><time>2026-04-27T13:52:34Z</time></trkpt><trkpt lat="33.84619264261725" lon="-4.984580699390738"><ele>734.5</ele><time>2026-04-27T13:52:35Z</time></trkpt><trkpt lat="33.84643836925277" lon="-4.984587236044507"><ele>733.0</ele><time>2026-04-27T13:52:36Z</time></trkpt><trkpt lat="33.84668298218233" lon="-4.984593156339057"><ele>731.0</ele><time>2026-04-27T13:52:37Z</time></trkpt><trkpt lat="33.84692707699034" lon="-4.984601899169961"><ele>729.0</ele><time>2026-04-27T13:52:38Z</time></trkpt><trkpt lat="33.8471728103045" lon="-4.984610249030006"><ele>729.0</ele><time>2026-04-27T13:52:39Z</time></trkpt><trkpt lat="33.847419159017164" lon="-4.9846156084054885"><ele>729.0</ele><time>2026-04-27T13:52:40Z</time></trkpt><trkpt lat="33.847665781795264" lon="-4.984618677336648"><ele>729.0</ele><time>2026-04-27T13:52:41Z</time></trkpt><trkpt lat="33.847912511103935" lon="-4.984621945540148"><ele>729.0</ele><time>2026-04-27T13:52:42Z</time></trkpt><trkpt lat="33.848160383658936" lon="-4.984624818577243"><ele>729.0</ele><time>2026-04-27T13:52:43Z</time></trkpt><trkpt lat="33.8484082745958" lon="-4.98463027815493"><ele>729.0</ele><time>2026-04-27T13:52:44Z</time></trkpt><trkpt lat="33.84865685419027" lon="-4.984638501366488"><ele>727.5</ele><time>2026-04-27T13:52:45Z</time></trkpt><trkpt lat="33.848904404315874" lon="-4.984642999817516"><ele>726.0</ele><time>2026-04-27T13:52:46Z</time></trkpt><trkpt lat="33.84915405757787" lon="-4.984648868907098"><ele>725.0</ele><time>2026-04-27T13:52:47Z</time></trkpt><trkpt lat="33.8494010957781" lon="-4.98465622670582"><ele>724.0</ele><time>2026-04-27T13:52:48Z</time></trkpt><trkpt lat="33.84964672385197" lon="-4.984664100862994"><ele>724.0</ele><time>2026-04-27T13:52:49Z</time></trkpt><trkpt lat="33.84988987165919" lon="-4.984671320113021"><ele>724.0</ele><time>2026-04-27T13:52:50Z</time></trkpt><trkpt lat="33.8501288312377" lon="-4.984678130255432"><ele>723.0</ele><time>2026-04-27T13:52:51Z</time></trkpt><trkpt lat="33.85036585990585" lon="-4.984685593701664"><ele>722.0</ele><time>2026-04-27T13:52:52Z</time></trkpt><trkpt lat="33.85059738242454" lon="-4.984692488923906"><ele>722.0</ele><time>2026-04-27T13:52:53Z</time></trkpt><trkpt lat="33.8508231775813" lon="-4.984699177413424"><ele>722.0</ele><time>2026-04-27T13:52:54Z</time></trkpt><trkpt lat="33.851045838773764" lon="-4.984703410020586"><ele>722.0</ele><time>2026-04-27T13:52:55Z</time></trkpt><trkpt lat="33.8512641289091" lon="-4.984706749308389"><ele>721.0</ele><time>2026-04-27T13:52:56Z</time></trkpt><trkpt lat="33.85147992800084" lon="-4.9847145592448205"><ele>720.0</ele><time>2026-04-27T13:52:57Z</time></trkpt><trkpt lat="33.85169200390105" lon="-4.984723015237027"><ele>719.0</ele><time>2026-04-27T13:52:58Z</time></trkpt><trkpt lat="33.851902694031594" lon="-4.984729093063129"><ele>718.3333333333333</ele><time>2026-04-27T13:52:59Z</time></trkpt><trkpt lat="33.852113137853735" lon="-4.98473373780328"><ele>717.6666666666666</ele><time>2026-04-27T13:53:00Z</time></trkpt><trkpt lat="33.852323774143684" lon="-4.984736606433917"><ele>717.0</ele><time>2026-04-27T13:53:01Z</time></trkpt><trkpt lat="33.85253434566089" lon="-4.984742364231696"><ele>716.3333333333334</ele><time>2026-04-27T13:53:02Z</time></trkpt><trkpt lat="33.85274441907031" lon="-4.9847494398849514"><ele>715.6666666666667</ele><time>2026-04-27T13:53:03Z</time></trkpt><trkpt lat="33.852952183259454" lon="-4.9847516145559325"><ele>715.0</ele><time>2026-04-27T13:53:04Z</time></trkpt><trkpt lat="33.85315898347021" lon="-4.984755257166063"><ele>715.0</ele><time>2026-04-27T13:53:05Z</time></trkpt><trkpt lat="33.85336415714057" lon="-4.984761203111739"><ele>715.0</ele><time>2026-04-27T13:53:06Z</time></trkpt><trkpt lat="33.85357024187665" lon="-4.984769238601691"><ele>715.0</ele><time>2026-04-27T13:53:07Z</time></trkpt><trkpt lat="33.853778479653116" lon="-4.984774805230753"><ele>714.6666666666667</ele><time>2026-04-27T13:53:08Z</time></trkpt><trkpt lat="33.8539920018155" lon="-4.984776846042942"><ele>714.3333333333334</ele><time>2026-04-27T13:53:09Z</time></trkpt><trkpt lat="33.85420879352151" lon="-4.984787884757724"><ele>714.0</ele><time>2026-04-27T13:53:10Z</time></trkpt><trkpt lat="33.85442571298345" lon="-4.984795673476432"><ele>712.6666666666666</ele><time>2026-04-27T13:53:11Z</time></trkpt><trkpt lat="33.8546412921225" lon="-4.984801250900423"><ele>711.3333333333333</ele><time>2026-04-27T13:53:12Z</time></trkpt><trkpt lat="33.85485770855072" lon="-4.984813596645137"><ele>710.0</ele><time>2026-04-27T13:53:13Z</time></trkpt><trkpt lat="33.855076069188165" lon="-4.98482145984451"><ele>709.6666666666666</ele><time>2026-04-27T13:53:14Z</time></trkpt><trkpt lat="33.85529552689787" lon="-4.984824905432715"><ele>709.3333333333334</ele><time>2026-04-27T13:53:15Z</time></trkpt><trkpt lat="33.85551453756975" lon="-4.984824853831361"><ele>709.0</ele><time>2026-04-27T13:53:16Z</time></trkpt><trkpt lat="33.8557299344971" lon="-4.984822006847755"><ele>709.0</ele><time>2026-04-27T13:53:17Z</time></trkpt><trkpt lat="33.85594238847832" lon="-4.984820438520552"><ele>709.0</ele><time>2026-04-27T13:53:18Z</time></trkpt><trkpt lat="33.856153217643886" lon="-4.984825949404919"><ele>709.0</ele><time>2026-04-27T13:53:19Z</time></trkpt><trkpt lat="33.85635972281103" lon="-4.984828184372761"><ele>708.3333333333334</ele><time>2026-04-27T13:53:20Z</time></trkpt><trkpt lat="33.856559743396254" lon="-4.98483190701938"><ele>707.6666666666666</ele><time>2026-04-27T13:53:21Z</time></trkpt><trkpt lat="33.8567610693575" lon="-4.984836111445456"><ele>707.0</ele><time>2026-04-27T13:53:22Z</time></trkpt><trkpt lat="33.856965239761294" lon="-4.984840578987727"><ele>706.3333333333333</ele><time>2026-04-27T13:53:23Z</time></trkpt><trkpt lat="33.8571722089055" lon="-4.984844318447515"><ele>705.6666666666666</ele><time>2026-04-27T13:53:24Z</time></trkpt><trkpt lat="33.85738397086466" lon="-4.984851327029142"><ele>705.0</ele><time>2026-04-27T13:53:25Z</time></trkpt><trkpt lat="33.857603714717236" lon="-4.984855921940456"><ele>703.5</ele><time>2026-04-27T13:53:26Z</time></trkpt><trkpt lat="33.85782928981" lon="-4.984866065998036"><ele>702.0</ele><time>2026-04-27T13:53:27Z</time></trkpt><trkpt lat="33.858056615572806" lon="-4.984874084832287"><ele>702.0</ele><time>2026-04-27T13:53:28Z</time></trkpt><trkpt lat="33.858286056389304" lon="-4.984883060995299"><ele>702.0</ele><time>2026-04-27T13:53:29Z</time></trkpt><trkpt lat="33.85851537494411" lon="-4.984889343434575"><ele>701.0</ele><time>2026-04-27T13:53:30Z</time></trkpt><trkpt lat="33.858745736332544" lon="-4.984891516288088"><ele>700.0</ele><time>2026-04-27T13:53:31Z</time></trkpt><trkpt lat="33.85897606964235" lon="-4.984891883966239"><ele>700.0</ele><time>2026-04-27T13:53:32Z</time></trkpt><trkpt lat="33.85920412655425" lon="-4.98489469089573"><ele>700.0</ele><time>2026-04-27T13:53:33Z</time></trkpt><trkpt lat="33.85943426360883" lon="-4.9848970827357775"><ele>699.5</ele><time>2026-04-27T13:53:34Z</time></trkpt><trkpt lat="33.85966429663773" lon="-4.984901658102349"><ele>699.0</ele><time>2026-04-27T13:53:35Z</time></trkpt><trkpt lat="33.859894298316725" lon="-4.984906989200575"><ele>697.5</ele><time>2026-04-27T13:53:36Z</time></trkpt><trkpt lat="33.86012279568307" lon="-4.9849135618361125"><ele>696.0</ele><time>2026-04-27T13:53:37Z</time></trkpt><trkpt lat="33.86035012622711" lon="-4.984924729658899"><ele>696.0</ele><time>2026-04-27T13:53:38Z</time></trkpt><trkpt lat="33.860580105777395" lon="-4.984940814584513"><ele>696.0</ele><time>2026-04-27T13:53:39Z</time></trkpt><trkpt lat="33.860810132722555" lon="-4.984954947673551"><ele>695.5</ele><time>2026-04-27T13:53:40Z</time></trkpt><trkpt lat="33.86103888592533" lon="-4.984971221917992"><ele>695.0</ele><time>2026-04-27T13:53:41Z</time></trkpt><trkpt lat="33.86126673726703" lon="-4.98499128206328"><ele>695.0</ele><time>2026-04-27T13:53:42Z</time></trkpt><trkpt lat="33.86149223251353" lon="-4.985008686247207"><ele>695.0</ele><time>2026-04-27T13:53:43Z</time></trkpt><trkpt lat="33.8617150090879" lon="-4.985027590068275"><ele>695.0</ele><time>2026-04-27T13:53:44Z</time></trkpt><trkpt lat="33.8619341066938" lon="-4.985046330785716"><ele>694.3333333333333</ele><time>2026-04-27T13:53:45Z</time></trkpt><trkpt lat="33.862149679496014" lon="-4.9850655301762705"><ele>693.6666666666666</ele><time>2026-04-27T13:53:45.999Z</time></trkpt><trkpt lat="33.8623620220505" lon="-4.985085681306421"><ele>693.0</ele><time>2026-04-27T13:53:46.999Z</time></trkpt><trkpt lat="33.86256920184611" lon="-4.985108395008581"><ele>693.0</ele><time>2026-04-27T13:53:47.999Z</time></trkpt><trkpt lat="33.86277248689961" lon="-4.985129316947407"><ele>693.0</ele><time>2026-04-27T13:53:48.999Z</time></trkpt><trkpt lat="33.86297167422358" lon="-4.98514724107318"><ele>693.0</ele><time>2026-04-27T13:53:49.999Z</time></trkpt><trkpt lat="33.86316737337249" lon="-4.985165307925573"><ele>693.0</ele><time>2026-04-27T13:53:50.999Z</time></trkpt><trkpt lat="33.863358307884155" lon="-4.985187867588081"><ele>693.0</ele><time>2026-04-27T13:53:51.999Z</time></trkpt><trkpt lat="33.86354542353537" lon="-4.985205523394751"><ele>693.0</ele><time>2026-04-27T13:53:52.999Z</time></trkpt><trkpt lat="33.86372787277103" lon="-4.98522291239024"><ele>693.0</ele><time>2026-04-27T13:53:53.999Z</time></trkpt><trkpt lat="33.86390511409475" lon="-4.985240253412576"><ele>693.0</ele><time>2026-04-27T13:53:54.999Z</time></trkpt><trkpt lat="33.864079017085174" lon="-4.985259907088176"><ele>693.0</ele><time>2026-04-27T13:53:55.999Z</time></trkpt><trkpt lat="33.864251462293986" lon="-4.98528232324701"><ele>692.6666666666666</ele><time>2026-04-27T13:53:56.999Z</time></trkpt><trkpt lat="33.86442236591684" lon="-4.985300755312856"><ele>692.3333333333333</ele><time>2026-04-27T13:53:57.999Z</time></trkpt><trkpt lat="33.864590576990516" lon="-4.985315507978825"><ele>692.0</ele><time>2026-04-27T13:53:58.999Z</time></trkpt><trkpt lat="33.86475635245326" lon="-4.985331879868795"><ele>692.0</ele><time>2026-04-27T13:53:59.999Z</time></trkpt><trkpt lat="33.864920418401326" lon="-4.98534573909703"><ele>692.0</ele><time>2026-04-27T13:54:00.999Z</time></trkpt><trkpt lat="33.86508226974729" lon="-4.985359667143181"><ele>692.0</ele><time>2026-04-27T13:54:01.999Z</time></trkpt><trkpt lat="33.86524234148595" lon="-4.985373920974376"><ele>691.0</ele><time>2026-04-27T13:54:02.999Z</time></trkpt><trkpt lat="33.86540114127792" lon="-4.985389629275304"><ele>690.0</ele><time>2026-04-27T13:54:03.999Z</time></trkpt><trkpt lat="33.86556220513578" lon="-4.98540697470131"><ele>689.0</ele><time>2026-04-27T13:54:04.999Z</time></trkpt><trkpt lat="33.86572678305862" lon="-4.985423239684136"><ele>689.0</ele><time>2026-04-27T13:54:05.999Z</time></trkpt><trkpt lat="33.86589385484947" lon="-4.985441001752298"><ele>689.0</ele><time>2026-04-27T13:54:06.999Z</time></trkpt><trkpt lat="33.8660621662953" lon="-4.985457205196008"><ele>689.0</ele><time>2026-04-27T13:54:07.999Z</time></trkpt><trkpt lat="33.86623081579294" lon="-4.985471736112675"><ele>689.3333333333333</ele><time>2026-04-27T13:54:08.999Z</time></trkpt><trkpt lat="33.8663960544462" lon="-4.985486851330323"><ele>689.6666666666666</ele><time>2026-04-27T13:54:09.999Z</time></trkpt><trkpt lat="33.86655688983412" lon="-4.985503860330616"><ele>690.0</ele><time>2026-04-27T13:54:10.999Z</time></trkpt><trkpt lat="33.86671356422721" lon="-4.985522730736798"><ele>689.0</ele><time>2026-04-27T13:54:11.999Z</time></trkpt><trkpt lat="33.86686627883606" lon="-4.985539458988745"><ele>688.0</ele><time>2026-04-27T13:54:12.999Z</time></trkpt><trkpt lat="33.86701623055859" lon="-4.985553317665239"><ele>687.0</ele><time>2026-04-27T13:54:13.999Z</time></trkpt><trkpt lat="33.86716062658717" lon="-4.9855680895732"><ele>686.0</ele><time>2026-04-27T13:54:14.999Z</time></trkpt><trkpt lat="33.867300640795015" lon="-4.985581588814537"><ele>686.0</ele><time>2026-04-27T13:54:15.999Z</time></trkpt><trkpt lat="33.86743951203614" lon="-4.985593751795525"><ele>686.0</ele><time>2026-04-27T13:54:16.999Z</time></trkpt><trkpt lat="33.86758062071737" lon="-4.985610213382146"><ele>686.0</ele><time>2026-04-27T13:54:17.999Z</time></trkpt><trkpt lat="33.867722017294" lon="-4.985622636909497"><ele>686.0</ele><time>2026-04-27T13:54:18.999Z</time></trkpt><trkpt lat="33.86786384985742" lon="-4.985635789748436"><ele>685.25</ele><time>2026-04-27T13:54:19.999Z</time></trkpt><trkpt lat="33.86800552692361" lon="-4.985650499174654"><ele>684.5</ele><time>2026-04-27T13:54:20.999Z</time></trkpt><trkpt lat="33.868146982655155" lon="-4.985664568774324"><ele>683.75</ele><time>2026-04-27T13:54:21.999Z</time></trkpt><trkpt lat="33.86828674449155" lon="-4.9856782030278675"><ele>683.0</ele><time>2026-04-27T13:54:22.999Z</time></trkpt><trkpt lat="33.868427056597554" lon="-4.985692321344448"><ele>682.75</ele><time>2026-04-27T13:54:23.999Z</time></trkpt><trkpt lat="33.86856687585301" lon="-4.985707161739084"><ele>682.5</ele><time>2026-04-27T13:54:24.999Z</time></trkpt><trkpt lat="33.8687082332666" lon="-4.9857189267907875"><ele>682.25</ele><time>2026-04-27T13:54:25.999Z</time></trkpt><trkpt lat="33.86885037495197" lon="-4.985730924467528"><ele>682.0</ele><time>2026-04-27T13:54:26.999Z</time></trkpt><trkpt lat="33.86899372115715" lon="-4.985741361339787"><ele>682.0</ele><time>2026-04-27T13:54:27.999Z</time></trkpt><trkpt lat="33.86913712484161" lon="-4.985754475618409"><ele>682.0</ele><time>2026-04-27T13:54:28.999Z</time></trkpt><trkpt lat="33.869287716593654" lon="-4.985768615816849"><ele>682.0</ele><time>2026-04-27T13:54:29.999Z</time></trkpt><trkpt lat="33.86944702159065" lon="-4.985785608595338"><ele>681.3333333333334</ele><time>2026-04-27T13:54:30.999Z</time></trkpt><trkpt lat="33.86962031263169" lon="-4.985803182484133"><ele>680.6666666666666</ele><time>2026-04-27T13:54:31.999Z</time></trkpt><trkpt lat="33.86980350951621" lon="-4.985822894531155"><ele>680.0</ele><time>2026-04-27T13:54:32.999Z</time></trkpt><trkpt lat="33.86999048677949" lon="-4.985844310888323"><ele>680.0</ele><time>2026-04-27T13:54:33.999Z</time></trkpt><trkpt lat="33.87018143846549" lon="-4.985865102717882"><ele>680.0</ele><time>2026-04-27T13:54:34.999Z</time></trkpt><trkpt lat="33.870375494867915" lon="-4.985887137064362"><ele>680.0</ele><time>2026-04-27T13:54:35.999Z</time></trkpt><trkpt lat="33.87056990544346" lon="-4.985909761405976"><ele>680.0</ele><time>2026-04-27T13:54:36.999Z</time></trkpt><trkpt lat="33.87076501425399" lon="-4.985930911098373"><ele>680.0</ele><time>2026-04-27T13:54:37.999Z</time></trkpt><trkpt lat="33.87095838628705" lon="-4.985952309204252"><ele>680.0</ele><time>2026-04-27T13:54:39Z</time></trkpt><trkpt lat="33.871159474895286" lon="-4.98597607574398"><ele>679.0</ele><time>2026-04-27T13:54:40Z</time></trkpt><trkpt lat="33.87136679428881" lon="-4.985996063713455"><ele>678.0</ele><time>2026-04-27T13:54:41Z</time></trkpt><trkpt lat="33.871578409066885" lon="-4.98601547267751"><ele>677.0</ele><time>2026-04-27T13:54:42Z</time></trkpt><trkpt lat="33.87178863215078" lon="-4.986030547325348"><ele>676.6666666666666</ele><time>2026-04-27T13:54:43Z</time></trkpt><trkpt lat="33.871999953509366" lon="-4.986044179226068"><ele>676.3333333333334</ele><time>2026-04-27T13:54:44Z</time></trkpt><trkpt lat="33.872210015941576" lon="-4.986057228909267"><ele>676.0</ele><time>2026-04-27T13:54:45Z</time></trkpt><trkpt lat="33.872416767085845" lon="-4.986068634935109"><ele>675.6666666666667</ele><time>2026-04-27T13:54:46Z</time></trkpt><trkpt lat="33.87262017387997" lon="-4.98607275692319"><ele>675.3333333333334</ele><time>2026-04-27T13:54:47Z</time></trkpt><trkpt lat="33.87282105525107" lon="-4.9860731598882095"><ele>675.0</ele><time>2026-04-27T13:54:48Z</time></trkpt><trkpt lat="33.873023597240476" lon="-4.98606911817158"><ele>675.0</ele><time>2026-04-27T13:54:49Z</time></trkpt><trkpt lat="33.87322493115451" lon="-4.98606246213595"><ele>675.0</ele><time>2026-04-27T13:54:50Z</time></trkpt><trkpt lat="33.87342440202903" lon="-4.986054513896138"><ele>675.0</ele><time>2026-04-27T13:54:51Z</time></trkpt><trkpt lat="33.87361887953057" lon="-4.986046468923919"><ele>674.0</ele><time>2026-04-27T13:54:52Z</time></trkpt><trkpt lat="33.873805614743404" lon="-4.986039327511845"><ele>673.0</ele><time>2026-04-27T13:54:53Z</time></trkpt><trkpt lat="33.873981661967555" lon="-4.986029603877497"><ele>672.0</ele><time>2026-04-27T13:54:54Z</time></trkpt><trkpt lat="33.8741472959052" lon="-4.986019423000154"><ele>671.5</ele><time>2026-04-27T13:54:55Z</time></trkpt><trkpt lat="33.87430356031596" lon="-4.986011874216852"><ele>671.0</ele><time>2026-04-27T13:54:56Z</time></trkpt><trkpt lat="33.87445446805926" lon="-4.986001670862401"><ele>670.5</ele><time>2026-04-27T13:54:57Z</time></trkpt><trkpt lat="33.87459557342824" lon="-4.985991034501463"><ele>670.0</ele><time>2026-04-27T13:54:58Z</time></trkpt><trkpt lat="33.87473429030094" lon="-4.985982584026927"><ele>670.0</ele><time>2026-04-27T13:54:59Z</time></trkpt><trkpt lat="33.874863545027566" lon="-4.985970447722917"><ele>670.0</ele><time>2026-04-27T13:55:00Z</time></trkpt><trkpt lat="33.874991224792325" lon="-4.985962174498235"><ele>670.0</ele><time>2026-04-27T13:55:01Z</time></trkpt><trkpt lat="33.87511696070236" lon="-4.98595047833006"><ele>670.0</ele><time>2026-04-27T13:55:02Z</time></trkpt><trkpt lat="33.87524524134784" lon="-4.9859397098970115"><ele>670.25</ele><time>2026-04-27T13:55:03Z</time></trkpt><trkpt lat="33.8753742639185" lon="-4.985931000978109"><ele>670.5</ele><time>2026-04-27T13:55:04Z</time></trkpt><trkpt lat="33.875500030220785" lon="-4.985922218612837"><ele>670.75</ele><time>2026-04-27T13:55:05Z</time></trkpt><trkpt lat="33.87562247313571" lon="-4.9859143001531425"><ele>671.0</ele><time>2026-04-27T13:55:06Z</time></trkpt><trkpt lat="33.875743635850895" lon="-4.985907079632894"><ele>671.0</ele><time>2026-04-27T13:55:07Z</time></trkpt><trkpt lat="33.875860610757215" lon="-4.985896689805763"><ele>671.0</ele><time>2026-04-27T13:55:08Z</time></trkpt><trkpt lat="33.87597476775787" lon="-4.985890272249013"><ele>671.0</ele><time>2026-04-27T13:55:09Z</time></trkpt><trkpt lat="33.87608054697958" lon="-4.985884933869594"><ele>671.0</ele><time>2026-04-27T13:55:10Z</time></trkpt><trkpt lat="33.87617875532007" lon="-4.985879834958189"><ele>671.0</ele><time>2026-04-27T13:55:11Z</time></trkpt><trkpt lat="33.87627431466397" lon="-4.985875438483938"><ele>670.5999999999999</ele><time>2026-04-27T13:55:12Z</time></trkpt><trkpt lat="33.87636776350723" lon="-4.9858690733463105"><ele>670.2</ele><time>2026-04-27T13:55:13Z</time></trkpt><trkpt lat="33.87646692033457" lon="-4.985862650702967"><ele>669.8</ele><time>2026-04-27T13:55:14Z</time></trkpt><trkpt lat="33.87657012201842" lon="-4.985855125353335"><ele>669.4000000000001</ele><time>2026-04-27T13:55:15Z</time></trkpt><trkpt lat="33.876677323913995" lon="-4.985848057969377"><ele>669.0</ele><time>2026-04-27T13:55:16Z</time></trkpt><trkpt lat="33.87678803051941" lon="-4.9858426636442355"><ele>668.75</ele><time>2026-04-27T13:55:17Z</time></trkpt><trkpt lat="33.87690230792609" lon="-4.985836636933011"><ele>668.5</ele><time>2026-04-27T13:55:18Z</time></trkpt><trkpt lat="33.87702040313414" lon="-4.985828914530492"><ele>668.25</ele><time>2026-04-27T13:55:19Z</time></trkpt><trkpt lat="33.87714118665374" lon="-4.985820084403951"><ele>668.0</ele><time>2026-04-27T13:55:20Z</time></trkpt><trkpt lat="33.87726569990036" lon="-4.9858118586233875"><ele>668.0</ele><time>2026-04-27T13:55:21Z</time></trkpt><trkpt lat="33.87739504416962" lon="-4.9858019717975255"><ele>668.0</ele><time>2026-04-27T13:55:22Z</time></trkpt><trkpt lat="33.8775260199565" lon="-4.9857915706900355"><ele>668.0</ele><time>2026-04-27T13:55:23Z</time></trkpt><trkpt lat="33.877661806801896" lon="-4.9857812049857335"><ele>668.0</ele><time>2026-04-27T13:55:24Z</time></trkpt><trkpt lat="33.87780053734095" lon="-4.985771519534612"><ele>667.5</ele><time>2026-04-27T13:55:25Z</time></trkpt><trkpt lat="33.877937235082584" lon="-4.9857643455240686"><ele>667.0</ele><time>2026-04-27T13:55:26Z</time></trkpt><trkpt lat="33.878073723979156" lon="-4.985756969216884"><ele>666.5</ele><time>2026-04-27T13:55:27Z</time></trkpt><trkpt lat="33.87821146795731" lon="-4.985751264326475"><ele>666.0</ele><time>2026-04-27T13:55:28Z</time></trkpt><trkpt lat="33.87834698450962" lon="-4.985743773165964"><ele>665.5</ele><time>2026-04-27T13:55:29Z</time></trkpt><trkpt lat="33.87848474193265" lon="-4.98573413410599"><ele>665.0</ele><time>2026-04-27T13:55:30Z</time></trkpt><trkpt lat="33.878620449239236" lon="-4.985722420915045"><ele>664.5</ele><time>2026-04-27T13:55:31Z</time></trkpt><trkpt lat="33.87876231413396" lon="-4.985711267476431"><ele>664.0</ele><time>2026-04-27T13:55:32Z</time></trkpt><trkpt lat="33.8789118998369" lon="-4.985703397338799"><ele>664.0</ele><time>2026-04-27T13:55:33Z</time></trkpt><trkpt lat="33.879065632619266" lon="-4.985696699038346"><ele>664.0</ele><time>2026-04-27T13:55:34Z</time></trkpt><trkpt lat="33.879224108861614" lon="-4.985686527217306"><ele>664.0</ele><time>2026-04-27T13:55:35Z</time></trkpt><trkpt lat="33.87938597387854" lon="-4.98567454355665"><ele>664.0</ele><time>2026-04-27T13:55:35.999Z</time></trkpt><trkpt lat="33.879548452503855" lon="-4.985661723574088"><ele>664.0</ele><time>2026-04-27T13:55:36.999Z</time></trkpt><trkpt lat="33.879712959055034" lon="-4.985649590017915"><ele>664.0</ele><time>2026-04-27T13:55:37.999Z</time></trkpt><trkpt lat="33.879880672105806" lon="-4.985639545347097"><ele>664.0</ele><time>2026-04-27T13:55:38.999Z</time></trkpt><trkpt lat="33.88004389119106" lon="-4.985630345979208"><ele>664.0</ele><time>2026-04-27T13:55:39.999Z</time></trkpt><trkpt lat="33.88020279386479" lon="-4.985621791475209"><ele>664.0</ele><time>2026-04-27T13:55:40.999Z</time></trkpt><trkpt lat="33.880351363141564" lon="-4.985612269773033"><ele>663.5</ele><time>2026-04-27T13:55:41.999Z</time></trkpt><trkpt lat="33.88049488682299" lon="-4.9856002701179705"><ele>663.0</ele><time>2026-04-27T13:55:42.999Z</time></trkpt><trkpt lat="33.88063226996585" lon="-4.985592295774054"><ele>662.5</ele><time>2026-04-27T13:55:43.999Z</time></trkpt><trkpt lat="33.88076631842417" lon="-4.985584556473576"><ele>662.0</ele><time>2026-04-27T13:55:44.999Z</time></trkpt><trkpt lat="33.88089883876975" lon="-4.98557590784277"><ele>661.5</ele><time>2026-04-27T13:55:45.999Z</time></trkpt><trkpt lat="33.8810307075008" lon="-4.985566588099366"><ele>661.0</ele><time>2026-04-27T13:55:46.999Z</time></trkpt><trkpt lat="33.88116698206589" lon="-4.985553326276701"><ele>660.5</ele><time>2026-04-27T13:55:47.999Z</time></trkpt><trkpt lat="33.88130905232726" lon="-4.985544359462159"><ele>660.0</ele><time>2026-04-27T13:55:48.999Z</time></trkpt><trkpt lat="33.88145914545655" lon="-4.98553724782001"><ele>660.0</ele><time>2026-04-27T13:55:49.999Z</time></trkpt><trkpt lat="33.88161233138175" lon="-4.985529511579056"><ele>660.0</ele><time>2026-04-27T13:55:50.999Z</time></trkpt><trkpt lat="33.881769428062846" lon="-4.985520816946465"><ele>660.0</ele><time>2026-04-27T13:55:51.999Z</time></trkpt><trkpt lat="33.88193158433179" lon="-4.985512223507598"><ele>659.6666666666666</ele><time>2026-04-27T13:55:52.999Z</time></trkpt><trkpt lat="33.882098262064105" lon="-4.985502013126341"><ele>659.3333333333333</ele><time>2026-04-27T13:55:53.999Z</time></trkpt><trkpt lat="33.88226817645175" lon="-4.985491165660506"><ele>659.0</ele><time>2026-04-27T13:55:54.999Z</time></trkpt><trkpt lat="33.88243160686733" lon="-4.985484582677965"><ele>659.0</ele><time>2026-04-27T13:55:55.999Z</time></trkpt><trkpt lat="33.882590240404795" lon="-4.985472771745288"><ele>659.0</ele><time>2026-04-27T13:55:56.999Z</time></trkpt><trkpt lat="33.88274625314955" lon="-4.98546494416314"><ele>659.0</ele><time>2026-04-27T13:55:57.999Z</time></trkpt><trkpt lat="33.882898424327294" lon="-4.985455415702138"><ele>658.6666666666666</ele><time>2026-04-27T13:55:58.999Z</time></trkpt><trkpt lat="33.883048155707385" lon="-4.9854452812596275"><ele>658.3333333333334</ele><time>2026-04-27T13:55:59.999Z</time></trkpt><trkpt lat="33.883199561263105" lon="-4.985435899617196"><ele>658.0</ele><time>2026-04-27T13:56:00.999Z</time></trkpt><trkpt lat="33.883349547705855" lon="-4.985425161307408"><ele>657.3333333333334</ele><time>2026-04-27T13:56:01.999Z</time></trkpt><trkpt lat="33.883500719035375" lon="-4.985414018023864"><ele>656.6666666666666</ele><time>2026-04-27T13:56:02.999Z</time></trkpt><trkpt lat="33.88365569464103" lon="-4.985405264161697"><ele>656.0</ele><time>2026-04-27T13:56:03.999Z</time></trkpt><trkpt lat="33.88381062601037" lon="-4.985395986442076"><ele>656.0</ele><time>2026-04-27T13:56:04.999Z</time></trkpt><trkpt lat="33.88397031111078" lon="-4.985386741698501"><ele>656.0</ele><time>2026-04-27T13:56:05.999Z</time></trkpt><trkpt lat="33.88413137767674" lon="-4.985378193359786"><ele>656.0</ele><time>2026-04-27T13:56:06.999Z</time></trkpt><trkpt lat="33.8842936320229" lon="-4.9853666159743595"><ele>655.0</ele><time>2026-04-27T13:56:07.999Z</time></trkpt><trkpt lat="33.88445731068233" lon="-4.985354692128356"><ele>654.0</ele><time>2026-04-27T13:56:08.999Z</time></trkpt><trkpt lat="33.88462158982935" lon="-4.985343660076684"><ele>653.0</ele><time>2026-04-27T13:56:09.999Z</time></trkpt><trkpt lat="33.88478911913935" lon="-4.9853313897488505"><ele>653.0</ele><time>2026-04-27T13:56:10.999Z</time></trkpt><trkpt lat="33.88495831762456" lon="-4.985320707917623"><ele>653.0</ele><time>2026-04-27T13:56:11.999Z</time></trkpt><trkpt lat="33.88513000248124" lon="-4.985309868186223"><ele>653.0</ele><time>2026-04-27T13:56:12.999Z</time></trkpt><trkpt lat="33.8853047940353" lon="-4.985302126961121"><ele>652.3333333333333</ele><time>2026-04-27T13:56:13.999Z</time></trkpt><trkpt lat="33.8854809826456" lon="-4.985294385349187"><ele>651.6666666666666</ele><time>2026-04-27T13:56:14.999Z</time></trkpt><trkpt lat="33.885659295795485" lon="-4.98528120711041"><ele>651.0</ele><time>2026-04-27T13:56:15.999Z</time></trkpt><trkpt lat="33.885840516921476" lon="-4.985267939706297"><ele>650.0</ele><time>2026-04-27T13:56:16.999Z</time></trkpt><trkpt lat="33.88602142163431" lon="-4.985256710293189"><ele>649.0</ele><time>2026-04-27T13:56:17.999Z</time></trkpt><trkpt lat="33.886203363058556" lon="-4.985246739914657"><ele>648.0</ele><time>2026-04-27T13:56:18.999Z</time></trkpt><trkpt lat="33.88638458897782" lon="-4.985232306333386"><ele>648.0</ele><time>2026-04-27T13:56:19.999Z</time></trkpt><trkpt lat="33.88656248371826" lon="-4.985219174182604"><ele>648.0</ele><time>2026-04-27T13:56:20.999Z</time></trkpt><trkpt lat="33.886737028688835" lon="-4.985204790693092"><ele>648.0</ele><time>2026-04-27T13:56:21.999Z</time></trkpt><trkpt lat="33.886904977567276" lon="-4.98519701135787"><ele>648.0</ele><time>2026-04-27T13:56:22.999Z</time></trkpt><trkpt lat="33.88707037636529" lon="-4.985188892881787"><ele>648.0</ele><time>2026-04-27T13:56:23.999Z</time></trkpt><trkpt lat="33.88723344468224" lon="-4.985177209108075"><ele>648.0</ele><time>2026-04-27T13:56:24.999Z</time></trkpt><trkpt lat="33.88739490544689" lon="-4.985163622314417"><ele>648.0</ele><time>2026-04-27T13:56:25.999Z</time></trkpt><trkpt lat="33.88755405786427" lon="-4.985150092426988"><ele>648.0</ele><time>2026-04-27T13:56:26.999Z</time></trkpt><trkpt lat="33.88771068116966" lon="-4.98514210764719"><ele>648.0</ele><time>2026-04-27T13:56:27.999Z</time></trkpt><trkpt lat="33.88787017589452" lon="-4.985134163552766"><ele>647.0</ele><time>2026-04-27T13:56:28.999Z</time></trkpt><trkpt lat="33.888035568392546" lon="-4.985123107931623"><ele>646.0</ele><time>2026-04-27T13:56:29.999Z</time></trkpt><trkpt lat="33.8882048100565" lon="-4.985112983908055"><ele>645.0</ele><time>2026-04-27T13:56:30.999Z</time></trkpt><trkpt lat="33.88837553485779" lon="-4.985104826456512"><ele>643.6666666666666</ele><time>2026-04-27T13:56:31.999Z</time></trkpt><trkpt lat="33.8885464534078" lon="-4.985095837451192"><ele>642.3333333333333</ele><time>2026-04-27T13:56:32.999Z</time></trkpt><trkpt lat="33.88872357086148" lon="-4.985082379153177"><ele>641.0</ele><time>2026-04-27T13:56:33.999Z</time></trkpt><trkpt lat="33.88890243360577" lon="-4.985070575174825"><ele>641.0</ele><time>2026-04-27T13:56:34.999Z</time></trkpt><trkpt lat="33.889083309775735" lon="-4.985061107001984"><ele>641.0</ele><time>2026-04-27T13:56:35.999Z</time></trkpt><trkpt lat="33.88926499616588" lon="-4.985049255293853"><ele>641.0</ele><time>2026-04-27T13:56:36.999Z</time></trkpt><trkpt lat="33.889448074314565" lon="-4.985036736300893"><ele>641.3333333333333</ele><time>2026-04-27T13:56:37.999Z</time></trkpt><trkpt lat="33.88963384075408" lon="-4.985024619412392"><ele>641.6666666666666</ele><time>2026-04-27T13:56:38.999Z</time></trkpt><trkpt lat="33.88981943795193" lon="-4.985013197587058"><ele>642.0</ele><time>2026-04-27T13:56:39.999Z</time></trkpt><trkpt lat="33.89000741969532" lon="-4.985001446643234"><ele>640.6666666666666</ele><time>2026-04-27T13:56:40.999Z</time></trkpt><trkpt lat="33.89019418392931" lon="-4.984990983457116"><ele>639.3333333333333</ele><time>2026-04-27T13:56:41.999Z</time></trkpt><trkpt lat="33.89038222686164" lon="-4.984982852412291"><ele>638.0</ele><time>2026-04-27T13:56:42.999Z</time></trkpt><trkpt lat="33.890571053040496" lon="-4.984976110482898"><ele>638.0</ele><time>2026-04-27T13:56:43.999Z</time></trkpt><trkpt lat="33.89076302633878" lon="-4.984963695126429"><ele>638.0</ele><time>2026-04-27T13:56:45Z</time></trkpt><trkpt lat="33.89095781281507" lon="-4.984951062045575"><ele>638.0</ele><time>2026-04-27T13:56:46Z</time></trkpt><trkpt lat="33.8911484641993" lon="-4.984934996450819"><ele>639.0</ele><time>2026-04-27T13:56:47Z</time></trkpt><trkpt lat="33.89133272259588" lon="-4.984917150533"><ele>640.0</ele><time>2026-04-27T13:56:48Z</time></trkpt><trkpt lat="33.89150865752973" lon="-4.984901376146316"><ele>641.0</ele><time>2026-04-27T13:56:49Z</time></trkpt><trkpt lat="33.89168135251794" lon="-4.984887791810519"><ele>640.0</ele><time>2026-04-27T13:56:50Z</time></trkpt><trkpt lat="33.89184982009596" lon="-4.984877224031229"><ele>639.0</ele><time>2026-04-27T13:56:51Z</time></trkpt><trkpt lat="33.89201539831914" lon="-4.984866755265279"><ele>638.0</ele><time>2026-04-27T13:56:52Z</time></trkpt><trkpt lat="33.892179995213134" lon="-4.9848583951142675"><ele>638.0</ele><time>2026-04-27T13:56:53Z</time></trkpt><trkpt lat="33.89234263989988" lon="-4.984853681243407"><ele>638.0</ele><time>2026-04-27T13:56:54Z</time></trkpt><trkpt lat="33.89250312819156" lon="-4.984846316147438"><ele>638.0</ele><time>2026-04-27T13:56:55Z</time></trkpt><trkpt lat="33.892661898196934" lon="-4.984843173627654"><ele>637.6666666666666</ele><time>2026-04-27T13:56:56Z</time></trkpt><trkpt lat="33.892817578539145" lon="-4.984838903992683"><ele>637.3333333333334</ele><time>2026-04-27T13:56:57Z</time></trkpt><trkpt lat="33.89296983030342" lon="-4.984837686091591"><ele>637.0</ele><time>2026-04-27T13:56:58Z</time></trkpt><trkpt lat="33.89312131185782" lon="-4.984834715939027"><ele>637.0</ele><time>2026-04-27T13:56:59Z</time></trkpt><trkpt lat="33.89327162595627" lon="-4.984832909639201"><ele>637.0</ele><time>2026-04-27T13:57:00Z</time></trkpt><trkpt lat="33.89341918526521" lon="-4.984830129640058"><ele>637.0</ele><time>2026-04-27T13:57:01Z</time></trkpt><trkpt lat="33.893562887625585" lon="-4.984827902598579"><ele>637.0</ele><time>2026-04-27T13:57:02Z</time></trkpt><trkpt lat="33.89370114969443" lon="-4.984824820699325"><ele>637.25</ele><time>2026-04-27T13:57:03Z</time></trkpt><trkpt lat="33.89382778965904" lon="-4.984824858250376"><ele>637.5</ele><time>2026-04-27T13:57:04Z</time></trkpt><trkpt lat="33.8939424421134" lon="-4.98482102641349"><ele>637.75</ele><time>2026-04-27T13:57:05Z</time></trkpt><trkpt lat="33.89406242885658" lon="-4.984821037025906"><ele>638.0</ele><time>2026-04-27T13:57:06Z</time></trkpt><trkpt lat="33.89419455876443" lon="-4.984819040068012"><ele>637.25</ele><time>2026-04-27T13:57:07Z</time></trkpt><trkpt lat="33.89433065913756" lon="-4.984812657379785"><ele>636.5</ele><time>2026-04-27T13:57:08Z</time></trkpt><trkpt lat="33.89445943655646" lon="-4.984809502695127"><ele>635.75</ele><time>2026-04-27T13:57:09Z</time></trkpt><trkpt lat="33.894578691795985" lon="-4.984804109488166"><ele>635.0</ele><time>2026-04-27T13:57:10Z</time></trkpt><trkpt lat="33.894690652375864" lon="-4.984797499527527"><ele>635.0</ele><time>2026-04-27T13:57:11Z</time></trkpt><trkpt lat="33.89479411599482" lon="-4.98478934399777"><ele>635.0</ele><time>2026-04-27T13:57:12Z</time></trkpt><trkpt lat="33.89488895037075" lon="-4.98477763212323"><ele>635.0</ele><time>2026-04-27T13:57:13Z</time></trkpt><trkpt lat="33.894977217622284" lon="-4.984763737682876"><ele>635.0</ele><time>2026-04-27T13:57:14Z</time></trkpt><trkpt lat="33.89506485423496" lon="-4.9847461369991635"><ele>635.0</ele><time>2026-04-27T13:57:15Z</time></trkpt><trkpt lat="33.89514550751462" lon="-4.984725920401141"><ele>634.8333333333333</ele><time>2026-04-27T13:57:16Z</time></trkpt><trkpt lat="33.89522652954293" lon="-4.984705644042472"><ele>634.6666666666666</ele><time>2026-04-27T13:57:17Z</time></trkpt><trkpt lat="33.89531035623525" lon="-4.984678881522675"><ele>634.5</ele><time>2026-04-27T13:57:18Z</time></trkpt><trkpt lat="33.89539573532569" lon="-4.98464420400315"><ele>634.3333333333334</ele><time>2026-04-27T13:57:19Z</time></trkpt><trkpt lat="33.89548115613228" lon="-4.984602774835666"><ele>634.1666666666667</ele><time>2026-04-27T13:57:20Z</time></trkpt><trkpt lat="33.8955629803546" lon="-4.984565168954209"><ele>634.0</ele><time>2026-04-27T13:57:21Z</time></trkpt><trkpt lat="33.895641268069994" lon="-4.984543842560395"><ele>634.0</ele><time>2026-04-27T13:57:22Z</time></trkpt><trkpt lat="33.89572193280099" lon="-4.984536247174464"><ele>634.0</ele><time>2026-04-27T13:57:23Z</time></trkpt><trkpt lat="33.895808486329706" lon="-4.984553253841766"><ele>634.0</ele><time>2026-04-27T13:57:23.999Z</time></trkpt><trkpt lat="33.895900759536254" lon="-4.984594025172629"><ele>634.0</ele><time>2026-04-27T13:57:24.999Z</time></trkpt><trkpt lat="33.895999236406325" lon="-4.984634345384899"><ele>634.0</ele><time>2026-04-27T13:57:25.999Z</time></trkpt><trkpt lat="33.8961159473228" lon="-4.984656986726667"><ele>633.75</ele><time>2026-04-27T13:57:26.999Z</time></trkpt><trkpt lat="33.89624296910375" lon="-4.984667491157413"><ele>633.5</ele><time>2026-04-27T13:57:27.999Z</time></trkpt><trkpt lat="33.89638285979748" lon="-4.984670110374582"><ele>633.25</ele><time>2026-04-27T13:57:28.999Z</time></trkpt><trkpt lat="33.89653146419713" lon="-4.984672542785644"><ele>633.0</ele><time>2026-04-27T13:57:29.999Z</time></trkpt><trkpt lat="33.89668619483733" lon="-4.984673147728999"><ele>632.6666666666666</ele><time>2026-04-27T13:57:30.999Z</time></trkpt><trkpt lat="33.896848276787935" lon="-4.984669136391805"><ele>632.3333333333333</ele><time>2026-04-27T13:57:31.999Z</time></trkpt><trkpt lat="33.89701109724834" lon="-4.984660136925819"><ele>632.0</ele><time>2026-04-27T13:57:32.999Z</time></trkpt><trkpt lat="33.89716939135777" lon="-4.984649830089878"><ele>632.0</ele><time>2026-04-27T13:57:33.999Z</time></trkpt><trkpt lat="33.897328199375984" lon="-4.984638011480778"><ele>632.0</ele><time>2026-04-27T13:57:34.999Z</time></trkpt><trkpt lat="33.897492757464974" lon="-4.984627414834432"><ele>632.0</ele><time>2026-04-27T13:57:35.999Z</time></trkpt><trkpt lat="33.89766149096773" lon="-4.984619067181807"><ele>630.6666666666666</ele><time>2026-04-27T13:57:36.999Z</time></trkpt><trkpt lat="33.89783877565466" lon="-4.9846125862941495"><ele>629.3333333333334</ele><time>2026-04-27T13:57:37.999Z</time></trkpt><trkpt lat="33.89801911731662" lon="-4.984605243806093"><ele>628.0</ele><time>2026-04-27T13:57:38.999Z</time></trkpt><trkpt lat="33.898200574625825" lon="-4.984597059097196"><ele>628.0</ele><time>2026-04-27T13:57:39.999Z</time></trkpt><trkpt lat="33.8983854625547" lon="-4.984589966502262"><ele>628.0</ele><time>2026-04-27T13:57:40.999Z</time></trkpt><trkpt lat="33.898573468286756" lon="-4.984583822602404"><ele>628.0</ele><time>2026-04-27T13:57:41.999Z</time></trkpt><trkpt lat="33.8987600884835" lon="-4.9845797679821"><ele>628.3333333333334</ele><time>2026-04-27T13:57:42.999Z</time></trkpt><trkpt lat="33.898948069717946" lon="-4.984573455839643"><ele>628.6666666666666</ele><time>2026-04-27T13:57:43.999Z</time></trkpt><trkpt lat="33.8991391644059" lon="-4.984566428470348"><ele>629.0</ele><time>2026-04-27T13:57:44.999Z</time></trkpt><trkpt lat="33.89933328471636" lon="-4.984559363980775"><ele>628.3333333333333</ele><time>2026-04-27T13:57:45.999Z</time></trkpt><trkpt lat="33.89952831680194" lon="-4.984553698823696"><ele>627.6666666666666</ele><time>2026-04-27T13:57:46.999Z</time></trkpt><trkpt lat="33.89972189309234" lon="-4.984547266659736"><ele>627.0</ele><time>2026-04-27T13:57:47.999Z</time></trkpt><trkpt lat="33.89990621891726" lon="-4.984539779484082"><ele>627.0</ele><time>2026-04-27T13:57:48.999Z</time></trkpt><trkpt lat="33.90007804820794" lon="-4.984531211027002"><ele>627.0</ele><time>2026-04-27T13:57:49.999Z</time></trkpt><trkpt lat="33.90023903263962" lon="-4.984523143785066"><ele>627.0</ele><time>2026-04-27T13:57:50.999Z</time></trkpt><trkpt lat="33.900391609192276" lon="-4.984519467545128"><ele>626.0</ele><time>2026-04-27T13:57:51.999Z</time></trkpt><trkpt lat="33.9005363247291" lon="-4.9845160790578635"><ele>625.0</ele><time>2026-04-27T13:57:52.999Z</time></trkpt><trkpt lat="33.90067232796603" lon="-4.984530416926971"><ele>624.0</ele><time>2026-04-27T13:57:53.999Z</time></trkpt><trkpt lat="33.9007984054385" lon="-4.984526380996057"><ele>623.0</ele><time>2026-04-27T13:57:54.999Z</time></trkpt><trkpt lat="33.90091110315329" lon="-4.984522773375901"><ele>623.25</ele><time>2026-04-27T13:57:55.999Z</time></trkpt><trkpt lat="33.90101865520731" lon="-4.984519330478637"><ele>623.5</ele><time>2026-04-27T13:57:56.999Z</time></trkpt><trkpt lat="33.90114276940676" lon="-4.984497138487178"><ele>623.75</ele><time>2026-04-27T13:57:57.999Z</time></trkpt><trkpt lat="33.90127719919039" lon="-4.984498375369095"><ele>624.0</ele><time>2026-04-27T13:57:58.999Z</time></trkpt><trkpt lat="33.901433546901785" lon="-4.984498435859164"><ele>624.0</ele><time>2026-04-27T13:57:59.999Z</time></trkpt><trkpt lat="33.901595110657574" lon="-4.984494970928604"><ele>624.0</ele><time>2026-04-27T13:58:00.999Z</time></trkpt><trkpt lat="33.901767550202585" lon="-4.984490127874711"><ele>624.0</ele><time>2026-04-27T13:58:01.999Z</time></trkpt><trkpt lat="33.90194895683578" lon="-4.9844870447742675"><ele>623.0</ele><time>2026-04-27T13:58:02.999Z</time></trkpt><trkpt lat="33.90213028377511" lon="-4.9844856788459895"><ele>622.0</ele><time>2026-04-27T13:58:03.999Z</time></trkpt><trkpt lat="33.90232150050546" lon="-4.9844820422075165"><ele>621.0</ele><time>2026-04-27T13:58:04.999Z</time></trkpt><trkpt lat="33.902517165113366" lon="-4.984478240141994"><ele>620.6666666666666</ele><time>2026-04-27T13:58:05.999Z</time></trkpt><trkpt lat="33.902716930655444" lon="-4.984473462100012"><ele>620.3333333333333</ele><time>2026-04-27T13:58:06.999Z</time></trkpt><trkpt lat="33.90291721948877" lon="-4.984467227329227"><ele>620.0</ele><time>2026-04-27T13:58:07.999Z</time></trkpt><trkpt lat="33.903118488207596" lon="-4.984457754914176"><ele>620.0</ele><time>2026-04-27T13:58:08.999Z</time></trkpt><trkpt lat="33.903323660916634" lon="-4.984450137513338"><ele>620.0</ele><time>2026-04-27T13:58:09.999Z</time></trkpt><trkpt lat="33.90353262831116" lon="-4.9844467429284425"><ele>620.0</ele><time>2026-04-27T13:58:10.999Z</time></trkpt><trkpt lat="33.90374896410187" lon="-4.98444277950614"><ele>619.3333333333333</ele><time>2026-04-27T13:58:11.999Z</time></trkpt><trkpt lat="33.90396951293506" lon="-4.984438030155592"><ele>618.6666666666666</ele><time>2026-04-27T13:58:12.999Z</time></trkpt><trkpt lat="33.90419145634043" lon="-4.984431046916831"><ele>618.0</ele><time>2026-04-27T13:58:13.999Z</time></trkpt><trkpt lat="33.904411383367304" lon="-4.984423607413031"><ele>617.3333333333334</ele><time>2026-04-27T13:58:14.999Z</time></trkpt><trkpt lat="33.90463264864273" lon="-4.984416801508046"><ele>616.6666666666667</ele><time>2026-04-27T13:58:15.999Z</time></trkpt><trkpt lat="33.904852565601786" lon="-4.984411043642427"><ele>616.0</ele><time>2026-04-27T13:58:16.999Z</time></trkpt><trkpt lat="33.90507161132515" lon="-4.984404306052362"><ele>615.3333333333334</ele><time>2026-04-27T13:58:17.999Z</time></trkpt><trkpt lat="33.90528801815374" lon="-4.984397076019221"><ele>614.6666666666666</ele><time>2026-04-27T13:58:18.999Z</time></trkpt><trkpt lat="33.90550142182322" lon="-4.984388847840847"><ele>614.0</ele><time>2026-04-27T13:58:19.999Z</time></trkpt><trkpt lat="33.90571198480871" lon="-4.9843821408474716"><ele>613.3333333333333</ele><time>2026-04-27T13:58:20.999Z</time></trkpt><trkpt lat="33.905912934422496" lon="-4.984377994044356"><ele>612.6666666666666</ele><time>2026-04-27T13:58:21.999Z</time></trkpt><trkpt lat="33.90610436519905" lon="-4.98437778055551"><ele>612.0</ele><time>2026-04-27T13:58:22.999Z</time></trkpt><trkpt lat="33.906287778697376" lon="-4.984383970065406"><ele>612.0</ele><time>2026-04-27T13:58:23.999Z</time></trkpt><trkpt lat="33.9064598963061" lon="-4.9843952609739555"><ele>612.0</ele><time>2026-04-27T13:58:24.999Z</time></trkpt><trkpt lat="33.90662458347449" lon="-4.984407227064139"><ele>612.0</ele><time>2026-04-27T13:58:25.999Z</time></trkpt><trkpt lat="33.90678913709143" lon="-4.9844225672819595"><ele>611.3333333333334</ele><time>2026-04-27T13:58:26.999Z</time></trkpt><trkpt lat="33.90696744589483" lon="-4.984447560984389"><ele>610.6666666666667</ele><time>2026-04-27T13:58:27.999Z</time></trkpt><trkpt lat="33.907155877434136" lon="-4.984486087289195"><ele>610.0</ele><time>2026-04-27T13:58:28.999Z</time></trkpt><trkpt lat="33.907349152135886" lon="-4.984530365749486"><ele>610.0</ele><time>2026-04-27T13:58:29.999Z</time></trkpt><trkpt lat="33.9075458175468" lon="-4.984584069073936"><ele>610.0</ele><time>2026-04-27T13:58:30.999Z</time></trkpt><trkpt lat="33.90774222951691" lon="-4.984645988704011"><ele>610.0</ele><time>2026-04-27T13:58:31.999Z</time></trkpt><trkpt lat="33.907937178125756" lon="-4.984716107720534"><ele>609.0</ele><time>2026-04-27T13:58:32.999Z</time></trkpt><trkpt lat="33.90812563644809" lon="-4.984791798236416"><ele>608.0</ele><time>2026-04-27T13:58:33.999Z</time></trkpt><trkpt lat="33.90830842827667" lon="-4.984875466217895"><ele>607.0</ele><time>2026-04-27T13:58:34.999Z</time></trkpt><trkpt lat="33.90848430461685" lon="-4.984962634198853"><ele>606.0</ele><time>2026-04-27T13:58:35.999Z</time></trkpt><trkpt lat="33.908655940127794" lon="-4.985053482892306"><ele>605.0</ele><time>2026-04-27T13:58:36.999Z</time></trkpt><trkpt lat="33.908819469429005" lon="-4.985146091879376"><ele>604.0</ele><time>2026-04-27T13:58:37.999Z</time></trkpt><trkpt lat="33.90897390289041" lon="-4.985242361127441"><ele>604.0</ele><time>2026-04-27T13:58:38.999Z</time></trkpt><trkpt lat="33.90911982597718" lon="-4.985342091302387"><ele>604.0</ele><time>2026-04-27T13:58:39.999Z</time></trkpt><trkpt lat="33.90925717937183" lon="-4.985445318151"><ele>604.0</ele><time>2026-04-27T13:58:40.999Z</time></trkpt><trkpt lat="33.909388460377315" lon="-4.985545919028979"><ele>604.0</ele><time>2026-04-27T13:58:41.999Z</time></trkpt><trkpt lat="33.90951576151978" lon="-4.985644439271554"><ele>604.0</ele><time>2026-04-27T13:58:42.999Z</time></trkpt><trkpt lat="33.909638085212634" lon="-4.985748719974508"><ele>604.0</ele><time>2026-04-27T13:58:43.999Z</time></trkpt><trkpt lat="33.90975175638504" lon="-4.985851464550562"><ele>604.0</ele><time>2026-04-27T13:58:44.999Z</time></trkpt><trkpt lat="33.909858671439444" lon="-4.9859546810527435"><ele>604.0</ele><time>2026-04-27T13:58:45.999Z</time></trkpt><trkpt lat="33.90995882838595" lon="-4.986056755697022"><ele>604.0</ele><time>2026-04-27T13:58:46.999Z</time></trkpt><trkpt lat="33.91005431069216" lon="-4.986156519838337"><ele>604.0</ele><time>2026-04-27T13:58:47.999Z</time></trkpt><trkpt lat="33.9101454744355" lon="-4.986253849628826"><ele>604.0</ele><time>2026-04-27T13:58:48.999Z</time></trkpt><trkpt lat="33.91023224993854" lon="-4.98634929289318"><ele>603.2</ele><time>2026-04-27T13:58:49.999Z</time></trkpt><trkpt lat="33.910315471808865" lon="-4.986442772457419"><ele>602.4</ele><time>2026-04-27T13:58:50.999Z</time></trkpt><trkpt lat="33.910397805242" lon="-4.986529897882161"><ele>601.6</ele><time>2026-04-27T13:58:51.999Z</time></trkpt><trkpt lat="33.910479096875925" lon="-4.986609902077194"><ele>600.8</ele><time>2026-04-27T13:58:52.999Z</time></trkpt><trkpt lat="33.910558695523505" lon="-4.9866783045482315"><ele>600.0</ele><time>2026-04-27T13:58:53.999Z</time></trkpt><trkpt lat="33.910638742795534" lon="-4.98674085443153"><ele>600.0</ele><time>2026-04-27T13:58:54.999Z</time></trkpt><trkpt lat="33.910722183473304" lon="-4.986793067666559"><ele>600.0</ele><time>2026-04-27T13:58:55.999Z</time></trkpt><trkpt lat="33.91080296536542" lon="-4.986845971197797"><ele>600.0</ele><time>2026-04-27T13:58:56.999Z</time></trkpt><trkpt lat="33.91087590779944" lon="-4.986906374427216"><ele>600.0</ele><time>2026-04-27T13:58:57.999Z</time></trkpt><trkpt lat="33.91093496133573" lon="-4.9869871197260585"><ele>600.0</ele><time>2026-04-27T13:58:58.999Z</time></trkpt><trkpt lat="33.91096859374938" lon="-4.987088381312574"><ele>600.0</ele><time>2026-04-27T13:58:59.999Z</time></trkpt><trkpt lat="33.91098493962135" lon="-4.987202883184131"><ele>600.0</ele><time>2026-04-27T13:59:00.999Z</time></trkpt><trkpt lat="33.91100193346276" lon="-4.987321667168643"><ele>600.0</ele><time>2026-04-27T13:59:01.999Z</time></trkpt><trkpt lat="33.91103680536344" lon="-4.987441314179436"><ele>600.0</ele><time>2026-04-27T13:59:02.999Z</time></trkpt><trkpt lat="33.91108890320914" lon="-4.987558191173849"><ele>600.0</ele><time>2026-04-27T13:59:03.999Z</time></trkpt><trkpt lat="33.911151014866974" lon="-4.987677551822531"><ele>600.0</ele><time>2026-04-27T13:59:04.999Z</time></trkpt><trkpt lat="33.91122036457988" lon="-4.987807052962478"><ele>600.0</ele><time>2026-04-27T13:59:05.999Z</time></trkpt><trkpt lat="33.91130062613956" lon="-4.987946404289753"><ele>600.0</ele><time>2026-04-27T13:59:06.999Z</time></trkpt><trkpt lat="33.91138206376072" lon="-4.988084791039262"><ele>600.0</ele><time>2026-04-27T13:59:07.999Z</time></trkpt><trkpt lat="33.91146719952727" lon="-4.988232937689474"><ele>600.3333333333334</ele><time>2026-04-27T13:59:08.999Z</time></trkpt><trkpt lat="33.91155805502808" lon="-4.988393167065305"><ele>600.6666666666667</ele><time>2026-04-27T13:59:09.999Z</time></trkpt><trkpt lat="33.91165385469013" lon="-4.988559923821623"><ele>601.0</ele><time>2026-04-27T13:59:10.999Z</time></trkpt><trkpt lat="33.91175409307807" lon="-4.988734977913774"><ele>601.0</ele><time>2026-04-27T13:59:11.999Z</time></trkpt><trkpt lat="33.91185950649426" lon="-4.988918638461288"><ele>601.0</ele><time>2026-04-27T13:59:12.999Z</time></trkpt><trkpt lat="33.911964651533516" lon="-4.989101580663833"><ele>601.0</ele><time>2026-04-27T13:59:13.999Z</time></trkpt><trkpt lat="33.91207437954212" lon="-4.98929357499478"><ele>601.6666666666667</ele><time>2026-04-27T13:59:14.999Z</time></trkpt><trkpt lat="33.91218843394654" lon="-4.98949439522296"><ele>602.3333333333334</ele><time>2026-04-27T13:59:15.999Z</time></trkpt><trkpt lat="33.912305570155894" lon="-4.989699954155168"><ele>603.0</ele><time>2026-04-27T13:59:16.999Z</time></trkpt><trkpt lat="33.91242241967609" lon="-4.989902745912086"><ele>603.0</ele><time>2026-04-27T13:59:17.999Z</time></trkpt><trkpt lat="33.912537695671084" lon="-4.990104219438962"><ele>603.0</ele><time>2026-04-27T13:59:18.999Z</time></trkpt><trkpt lat="33.91265467113143" lon="-4.99031239318254"><ele>603.0</ele><time>2026-04-27T13:59:19.999Z</time></trkpt><trkpt lat="33.91277215366324" lon="-4.9905247133642385"><ele>601.6666666666666</ele><time>2026-04-27T13:59:20.999Z</time></trkpt><trkpt lat="33.9128933486213" lon="-4.990738664535117"><ele>600.3333333333333</ele><time>2026-04-27T13:59:21.999Z</time></trkpt><trkpt lat="33.913019228491144" lon="-4.99095663495425"><ele>599.0</ele><time>2026-04-27T13:59:22.999Z</time></trkpt><trkpt lat="33.91314867484779" lon="-4.991179947508059"><ele>599.0</ele><time>2026-04-27T13:59:23.999Z</time></trkpt><trkpt lat="33.913278866337166" lon="-4.99140594589257"><ele>599.0</ele><time>2026-04-27T13:59:24.999Z</time></trkpt><trkpt lat="33.913408579468424" lon="-4.99163579537787"><ele>596.0</ele><time>2026-04-27T13:59:25.999Z</time></trkpt><trkpt lat="33.91353905692109" lon="-4.991866755193108"><ele>593.0</ele><time>2026-04-27T13:59:26.999Z</time></trkpt><trkpt lat="33.91367036728686" lon="-4.992096298664317"><ele>593.0</ele><time>2026-04-27T13:59:27.999Z</time></trkpt><trkpt lat="33.913804409685284" lon="-4.992332092831104"><ele>593.0</ele><time>2026-04-27T13:59:28.999Z</time></trkpt><trkpt lat="33.91394012243391" lon="-4.992573829528396"><ele>593.5</ele><time>2026-04-27T13:59:29.999Z</time></trkpt><trkpt lat="33.91407802791949" lon="-4.99282259044503"><ele>594.0</ele><time>2026-04-27T13:59:30.999Z</time></trkpt><trkpt lat="33.91421736565983" lon="-4.993074972389871"><ele>593.5</ele><time>2026-04-27T13:59:31.999Z</time></trkpt><trkpt lat="33.91435745650405" lon="-4.993329622642695"><ele>593.0</ele><time>2026-04-27T13:59:32.999Z</time></trkpt><trkpt lat="33.914499786964036" lon="-4.993583615323981"><ele>593.0</ele><time>2026-04-27T13:59:33.999Z</time></trkpt><trkpt lat="33.914645539709305" lon="-4.99383716884769"><ele>593.0</ele><time>2026-04-27T13:59:34.999Z</time></trkpt><trkpt lat="33.91479302670351" lon="-4.9940892839779"><ele>593.0</ele><time>2026-04-27T13:59:35.999Z</time></trkpt><trkpt lat="33.91494138223356" lon="-4.994339308270053"><ele>593.0</ele><time>2026-04-27T13:59:36.999Z</time></trkpt><trkpt lat="33.91508819728267" lon="-4.9945901758433555"><ele>591.0</ele><time>2026-04-27T13:59:37.999Z</time></trkpt><trkpt lat="33.9152339048423" lon="-4.9948438921026925"><ele>589.0</ele><time>2026-04-27T13:59:38.999Z</time></trkpt><trkpt lat="33.91537788864616" lon="-4.99509824689971"><ele>589.0</ele><time>2026-04-27T13:59:39.999Z</time></trkpt><trkpt lat="33.91552265697634" lon="-4.995351749752205"><ele>589.0</ele><time>2026-04-27T13:59:40.999Z</time></trkpt><trkpt lat="33.915667324356676" lon="-4.995604108797318"><ele>588.5</ele><time>2026-04-27T13:59:41.999Z</time></trkpt><trkpt lat="33.915811606613126" lon="-4.995855130187065"><ele>588.0</ele><time>2026-04-27T13:59:42.999Z</time></trkpt><trkpt lat="33.91595421770443" lon="-4.996105382093365"><ele>588.0</ele><time>2026-04-27T13:59:43.999Z</time></trkpt><trkpt lat="33.91609656593858" lon="-4.996357113603789"><ele>588.0</ele><time>2026-04-27T13:59:44.999Z</time></trkpt><trkpt lat="33.91623913682678" lon="-4.996608737726259"><ele>587.5</ele><time>2026-04-27T13:59:45.999Z</time></trkpt><trkpt lat="33.916380193648116" lon="-4.996859214440744"><ele>587.0</ele><time>2026-04-27T13:59:46.999Z</time></trkpt><trkpt lat="33.916521867789164" lon="-4.99710957643168"><ele>587.0</ele><time>2026-04-27T13:59:47.999Z</time></trkpt><trkpt lat="33.916660725359336" lon="-4.997357589346652"><ele>587.0</ele><time>2026-04-27T13:59:48.999Z</time></trkpt><trkpt lat="33.91679973125423" lon="-4.997603448053651"><ele>586.0</ele><time>2026-04-27T13:59:49.999Z</time></trkpt><trkpt lat="33.91693868896461" lon="-4.997848313394504"><ele>585.0</ele><time>2026-04-27T13:59:50.999Z</time></trkpt><trkpt lat="33.9170802770128" lon="-4.9980941665537815"><ele>585.0</ele><time>2026-04-27T13:59:51.999Z</time></trkpt><trkpt lat="33.91722196454052" lon="-4.998339175333815"><ele>585.0</ele><time>2026-04-27T13:59:52.999Z</time></trkpt><trkpt lat="33.917360174482425" lon="-4.99858082325747"><ele>585.0</ele><time>2026-04-27T13:59:53.999Z</time></trkpt><trkpt lat="33.91749608228114" lon="-4.998820433492872"><ele>585.0</ele><time>2026-04-27T13:59:54.999Z</time></trkpt><trkpt lat="33.917631157436105" lon="-4.9990603081199545"><ele>582.0</ele><time>2026-04-27T13:59:55.999Z</time></trkpt><trkpt lat="33.91776959341147" lon="-4.999300068156692"><ele>579.0</ele><time>2026-04-27T13:59:56.999Z</time></trkpt><trkpt lat="33.91791434428157" lon="-4.999548058212346"><ele>579.0</ele><time>2026-04-27T13:59:57.999Z</time></trkpt><trkpt lat="33.918064646224856" lon="-4.999799391842731"><ele>579.0</ele><time>2026-04-27T13:59:58.999Z</time></trkpt><trkpt lat="33.91821620261007" lon="-5.000052799555941"><ele>579.0</ele><time>2026-04-27T13:59:59.999Z</time></trkpt><trkpt lat="33.918367802803985" lon="-5.000306675155985"><ele>579.0</ele><time>2026-04-27T14:00:00.999Z</time></trkpt><trkpt lat="33.91851626549297" lon="-5.000560950183557"><ele>579.0</ele><time>2026-04-27T14:00:01.999Z</time></trkpt><trkpt lat="33.91866293113056" lon="-5.000815001694177"><ele>579.0</ele><time>2026-04-27T14:00:02.999Z</time></trkpt><trkpt lat="33.918809548436734" lon="-5.001070096893669"><ele>579.0</ele><time>2026-04-27T14:00:03.999Z</time></trkpt><trkpt lat="33.918955393897576" lon="-5.001326070359586"><ele>579.0</ele><time>2026-04-27T14:00:04.999Z</time></trkpt><trkpt lat="33.919104955817886" lon="-5.001583921278593"><ele>580.5</ele><time>2026-04-27T14:00:05.999Z</time></trkpt><trkpt lat="33.91925363522594" lon="-5.001848210990396"><ele>582.0</ele><time>2026-04-27T14:00:06.999Z</time></trkpt><trkpt lat="33.91940529259987" lon="-5.002112978653486"><ele>582.0</ele><time>2026-04-27T14:00:07.999Z</time></trkpt><trkpt lat="33.91955827623021" lon="-5.002378446008005"><ele>582.0</ele><time>2026-04-27T14:00:08.999Z</time></trkpt><trkpt lat="33.91971071235213" lon="-5.002645484802021"><ele>582.0</ele><time>2026-04-27T14:00:09.999Z</time></trkpt><trkpt lat="33.9198648882479" lon="-5.002912499371102"><ele>582.0</ele><time>2026-04-27T14:00:10.999Z</time></trkpt><trkpt lat="33.92001892042525" lon="-5.0031819089201335"><ele>581.0</ele><time>2026-04-27T14:00:11.999Z</time></trkpt><trkpt lat="33.92017402611243" lon="-5.003452510045978"><ele>580.0</ele><time>2026-04-27T14:00:12.999Z</time></trkpt><trkpt lat="33.92032912779429" lon="-5.003723286194681"><ele>580.0</ele><time>2026-04-27T14:00:13.999Z</time></trkpt><trkpt lat="33.92048463470784" lon="-5.003995776895129"><ele>580.0</ele><time>2026-04-27T14:00:14.999Z</time></trkpt><trkpt lat="33.92064036708588" lon="-5.004269643803424"><ele>578.5</ele><time>2026-04-27T14:00:15.999Z</time></trkpt><trkpt lat="33.92079720813844" lon="-5.00454279906294"><ele>577.0</ele><time>2026-04-27T14:00:16.999Z</time></trkpt><trkpt lat="33.92095357408639" lon="-5.004815134300213"><ele>574.5</ele><time>2026-04-27T14:00:17.999Z</time></trkpt><trkpt lat="33.921108447736266" lon="-5.005087985247176"><ele>572.0</ele><time>2026-04-27T14:00:18.999Z</time></trkpt><trkpt lat="33.921262525079065" lon="-5.005364584367399"><ele>572.0</ele><time>2026-04-27T14:00:19.999Z</time></trkpt><trkpt lat="33.921417697656906" lon="-5.005639221892941"><ele>572.0</ele><time>2026-04-27T14:00:20.999Z</time></trkpt><trkpt lat="33.921571916125416" lon="-5.005912756960113"><ele>573.5</ele><time>2026-04-27T14:00:21.999Z</time></trkpt><trkpt lat="33.92172447702108" lon="-5.006187370241157"><ele>575.0</ele><time>2026-04-27T14:00:22.999Z</time></trkpt><trkpt lat="33.921876733089725" lon="-5.006459596803912"><ele>575.5</ele><time>2026-04-27T14:00:23.999Z</time></trkpt><trkpt lat="33.92202786699736" lon="-5.006729262996251"><ele>576.0</ele><time>2026-04-27T14:00:24.999Z</time></trkpt><trkpt lat="33.922184504318516" lon="-5.006992158515469"><ele>576.0</ele><time>2026-04-27T14:00:25.999Z</time></trkpt><trkpt lat="33.92234895684169" lon="-5.007248848021253"><ele>576.0</ele><time>2026-04-27T14:00:26.999Z</time></trkpt><trkpt lat="33.92252424775654" lon="-5.0074917947931015"><ele>575.0</ele><time>2026-04-27T14:00:27.999Z</time></trkpt><trkpt lat="33.92271112621823" lon="-5.007718666407016"><ele>574.0</ele><time>2026-04-27T14:00:28.999Z</time></trkpt><trkpt lat="33.922908024800876" lon="-5.007924722976627"><ele>574.0</ele><time>2026-04-27T14:00:29.999Z</time></trkpt><trkpt lat="33.923115285907635" lon="-5.008119154852577"><ele>574.0</ele><time>2026-04-27T14:00:30.999Z</time></trkpt><trkpt lat="33.92332854610421" lon="-5.008300847712874"><ele>571.5</ele><time>2026-04-27T14:00:31.999Z</time></trkpt><trkpt lat="33.92354481679737" lon="-5.008464289167635"><ele>569.0</ele><time>2026-04-27T14:00:32.999Z</time></trkpt><trkpt lat="33.92375722712773" lon="-5.00860570644513"><ele>569.0</ele><time>2026-04-27T14:00:33.999Z</time></trkpt><trkpt lat="33.92397025781545" lon="-5.00873274436651"><ele>569.0</ele><time>2026-04-27T14:00:34.999Z</time></trkpt><trkpt lat="33.924184470923976" lon="-5.008844030972932"><ele>566.5</ele><time>2026-04-27T14:00:35.999Z</time></trkpt><trkpt lat="33.924398316649636" lon="-5.008944716145207"><ele>564.0</ele><time>2026-04-27T14:00:36.999Z</time></trkpt><trkpt lat="33.9246134181016" lon="-5.009032186909796"><ele>564.0</ele><time>2026-04-27T14:00:37.999Z</time></trkpt><trkpt lat="33.9248303265619" lon="-5.009104595443931"><ele>564.0</ele><time>2026-04-27T14:00:38.999Z</time></trkpt><trkpt lat="33.92504137320902" lon="-5.009158372353146"><ele>564.0</ele><time>2026-04-27T14:00:39.999Z</time></trkpt><trkpt lat="33.925249836502026" lon="-5.0091945512373"><ele>563.0</ele><time>2026-04-27T14:00:40.999Z</time></trkpt><trkpt lat="33.925437408733295" lon="-5.009214016247639"><ele>562.0</ele><time>2026-04-27T14:00:41.999Z</time></trkpt><trkpt lat="33.92561019911847" lon="-5.009223350186097"><ele>561.0</ele><time>2026-04-27T14:00:42.999Z</time></trkpt><trkpt lat="33.92575878020844" lon="-5.009224917216148"><ele>561.0</ele><time>2026-04-27T14:00:43.999Z</time></trkpt><trkpt lat="33.925889614347554" lon="-5.009221002566867"><ele>561.0</ele><time>2026-04-27T14:00:44.999Z</time></trkpt><trkpt lat="33.926006578924415" lon="-5.009213776511085"><ele>561.0</ele><time>2026-04-27T14:00:45.999Z</time></trkpt><trkpt lat="33.92610587638886" lon="-5.009203769078882"><ele>561.0</ele><time>2026-04-27T14:00:46.999Z</time></trkpt><trkpt lat="33.92618391599391" lon="-5.00919325246083"><ele>561.0</ele><time>2026-04-27T14:00:47.999Z</time></trkpt><trkpt lat="33.92628398683634" lon="-5.009173802298282"><ele>560.3333333333334</ele><time>2026-04-27T14:00:49.999Z</time></trkpt><trkpt lat="33.92637023476652" lon="-5.009150293487911"><ele>559.6666666666666</ele><time>2026-04-27T14:00:52.999Z</time></trkpt><trkpt lat="33.92645315151448" lon="-5.009117177551111"><ele>559.0</ele><time>2026-04-27T14:00:55.999Z</time></trkpt><trkpt lat="33.926549400171574" lon="-5.00905277356438"><ele>558.3333333333333</ele><time>2026-04-27T14:00:57.999Z</time></trkpt><trkpt lat="33.92661234608495" lon="-5.009007912119875"><ele>557.6666666666666</ele><time>2026-04-27T14:00:58.999Z</time></trkpt><trkpt lat="33.926687703337954" lon="-5.008966513015565"><ele>557.0</ele><time>2026-04-27T14:00:59.999Z</time></trkpt><trkpt lat="33.92677400134512" lon="-5.008945714545256"><ele>557.0</ele><time>2026-04-27T14:01:00.999Z</time></trkpt><trkpt lat="33.92687038125142" lon="-5.008944027759843"><ele>557.0</ele><time>2026-04-27T14:01:01.999Z</time></trkpt><trkpt lat="33.92697473133927" lon="-5.008950121045315"><ele>557.0</ele><time>2026-04-27T14:01:02.999Z</time></trkpt><trkpt lat="33.92708720045519" lon="-5.008949825072375"><ele>557.0</ele><time>2026-04-27T14:01:03.999Z</time></trkpt><trkpt lat="33.92720877994173" lon="-5.0089321881083375"><ele>557.0</ele><time>2026-04-27T14:01:04.999Z</time></trkpt><trkpt lat="33.92733444729267" lon="-5.008900629545545"><ele>557.0</ele><time>2026-04-27T14:01:05.999Z</time></trkpt><trkpt lat="33.92746167316065" lon="-5.008861003805453"><ele>557.0</ele><time>2026-04-27T14:01:06.999Z</time></trkpt><trkpt lat="33.92759605408683" lon="-5.008815423984912"><ele>557.0</ele><time>2026-04-27T14:01:07.999Z</time></trkpt><trkpt lat="33.927741115373976" lon="-5.008766345180115"><ele>557.0</ele><time>2026-04-27T14:01:08.999Z</time></trkpt><trkpt lat="33.92789191972737" lon="-5.0087199212937135"><ele>557.0</ele><time>2026-04-27T14:01:09.999Z</time></trkpt><trkpt lat="33.92804914270693" lon="-5.0086714851439265"><ele>557.0</ele><time>2026-04-27T14:01:10.999Z</time></trkpt><trkpt lat="33.92821070893632" lon="-5.008617115292724"><ele>557.0</ele><time>2026-04-27T14:01:11.999Z</time></trkpt><trkpt lat="33.92837527901007" lon="-5.008561145682465"><ele>556.3333333333333</ele><time>2026-04-27T14:01:12.999Z</time></trkpt><trkpt lat="33.92854140716941" lon="-5.008504972979398"><ele>555.6666666666666</ele><time>2026-04-27T14:01:13.999Z</time></trkpt><trkpt lat="33.92871326581367" lon="-5.008446997422523"><ele>555.0</ele><time>2026-04-27T14:01:14.999Z</time></trkpt><trkpt lat="33.92888780344381" lon="-5.008388300113936"><ele>555.0</ele><time>2026-04-27T14:01:15.999Z</time></trkpt><trkpt lat="33.92907082198721" lon="-5.0083270248754035"><ele>555.0</ele><time>2026-04-27T14:01:16.999Z</time></trkpt><trkpt lat="33.929256516843594" lon="-5.008265775647814"><ele>555.0</ele><time>2026-04-27T14:01:17.999Z</time></trkpt><trkpt lat="33.9294447156553" lon="-5.008202649558804"><ele>554.3333333333334</ele><time>2026-04-27T14:01:18.999Z</time></trkpt><trkpt lat="33.92963695764358" lon="-5.008138131868147"><ele>553.6666666666667</ele><time>2026-04-27T14:01:19.999Z</time></trkpt><trkpt lat="33.92983147449994" lon="-5.00807389892849"><ele>553.0</ele><time>2026-04-27T14:01:20.999Z</time></trkpt><trkpt lat="33.93002588917479" lon="-5.0080100645015895"><ele>553.0</ele><time>2026-04-27T14:01:21.999Z</time></trkpt><trkpt lat="33.93021645465208" lon="-5.007948381332485"><ele>553.0</ele><time>2026-04-27T14:01:22.999Z</time></trkpt><trkpt lat="33.930405926660335" lon="-5.007886114150323"><ele>553.0</ele><time>2026-04-27T14:01:23.999Z</time></trkpt><trkpt lat="33.93059688626916" lon="-5.007823995878643"><ele>553.0</ele><time>2026-04-27T14:01:24.999Z</time></trkpt><trkpt lat="33.93079049293123" lon="-5.00776136284481"><ele>553.0</ele><time>2026-04-27T14:01:25.999Z</time></trkpt><trkpt lat="33.93098699446889" lon="-5.007697348946619"><ele>553.0</ele><time>2026-04-27T14:01:26.999Z</time></trkpt><trkpt lat="33.93118558528118" lon="-5.0076293245440615"><ele>552.0</ele><time>2026-04-27T14:01:27.999Z</time></trkpt><trkpt lat="33.931386354964324" lon="-5.007559259490445"><ele>551.0</ele><time>2026-04-27T14:01:28.999Z</time></trkpt><trkpt lat="33.931589273152085" lon="-5.0074897849052675"><ele>550.0</ele><time>2026-04-27T14:01:29.999Z</time></trkpt><trkpt lat="33.931786643125264" lon="-5.007423836147718"><ele>549.3333333333334</ele><time>2026-04-27T14:01:30.999Z</time></trkpt><trkpt lat="33.931981587113356" lon="-5.007358989804832"><ele>548.6666666666666</ele><time>2026-04-27T14:01:31.999Z</time></trkpt><trkpt lat="33.932176287358004" lon="-5.007295762408631"><ele>548.0</ele><time>2026-04-27T14:01:32.999Z</time></trkpt><trkpt lat="33.932370268581444" lon="-5.0072320476057754"><ele>547.3333333333333</ele><time>2026-04-27T14:01:33.999Z</time></trkpt><trkpt lat="33.932565117943724" lon="-5.007167824198023"><ele>546.6666666666666</ele><time>2026-04-27T14:01:34.999Z</time></trkpt><trkpt lat="33.93276362947475" lon="-5.007101379895763"><ele>546.0</ele><time>2026-04-27T14:01:35.999Z</time></trkpt><trkpt lat="33.93295934021817" lon="-5.007036722093108"><ele>546.0</ele><time>2026-04-27T14:01:36.999Z</time></trkpt><trkpt lat="33.933155292491556" lon="-5.006972950806135"><ele>546.0</ele><time>2026-04-27T14:01:37.999Z</time></trkpt><trkpt lat="33.933352705371874" lon="-5.006909618817072"><ele>546.0</ele><time>2026-04-27T14:01:38.999Z</time></trkpt><trkpt lat="33.93355281694512" lon="-5.006842777423386"><ele>546.0</ele><time>2026-04-27T14:01:39.999Z</time></trkpt><trkpt lat="33.93375618636887" lon="-5.0067701132627835"><ele>546.0</ele><time>2026-04-27T14:01:40.999Z</time></trkpt><trkpt lat="33.93396102797687" lon="-5.0066896429441545"><ele>546.0</ele><time>2026-04-27T14:01:41.999Z</time></trkpt><trkpt lat="33.93416610214452" lon="-5.006598109125956"><ele>546.0</ele><time>2026-04-27T14:01:42.999Z</time></trkpt><trkpt lat="33.93437156700714" lon="-5.006495886706191"><ele>546.0</ele><time>2026-04-27T14:01:43.999Z</time></trkpt><trkpt lat="33.934578115637336" lon="-5.006386750882334"><ele>546.0</ele><time>2026-04-27T14:01:44.999Z</time></trkpt><trkpt lat="33.934783259332306" lon="-5.0062740788008115"><ele>546.0</ele><time>2026-04-27T14:01:45.999Z</time></trkpt><trkpt lat="33.93498238814704" lon="-5.00614551013432"><ele>546.0</ele><time>2026-04-27T14:01:46.999Z</time></trkpt><trkpt lat="33.93517832388285" lon="-5.006003866705537"><ele>546.0</ele><time>2026-04-27T14:01:47.999Z</time></trkpt><trkpt lat="33.93536968084586" lon="-5.0058512395660735"><ele>546.0</ele><time>2026-04-27T14:01:48.999Z</time></trkpt><trkpt lat="33.9355586442392" lon="-5.0056904231485975"><ele>545.0</ele><time>2026-04-27T14:01:49.999Z</time></trkpt><trkpt lat="33.935742646417154" lon="-5.005523165937213"><ele>544.0</ele><time>2026-04-27T14:01:50.999Z</time></trkpt><trkpt lat="33.93592148187023" lon="-5.005348443968428"><ele>544.0</ele><time>2026-04-27T14:01:51.999Z</time></trkpt><trkpt lat="33.936097600754444" lon="-5.005168814108347"><ele>544.0</ele><time>2026-04-27T14:01:52.999Z</time></trkpt><trkpt lat="33.936268515797885" lon="-5.004981548665777"><ele>544.0</ele><time>2026-04-27T14:01:53.999Z</time></trkpt><trkpt lat="33.9364341426337" lon="-5.004789345287821"><ele>544.0</ele><time>2026-04-27T14:01:54.999Z</time></trkpt><trkpt lat="33.93659334791948" lon="-5.004591165867368"><ele>543.6666666666667</ele><time>2026-04-27T14:01:55.999Z</time></trkpt><trkpt lat="33.93674561461808" lon="-5.004389689814585"><ele>543.3333333333334</ele><time>2026-04-27T14:01:56.999Z</time></trkpt><trkpt lat="33.93688962175219" lon="-5.0041856490268595"><ele>543.0</ele><time>2026-04-27T14:01:57.999Z</time></trkpt><trkpt lat="33.937024960883555" lon="-5.003978314040837"><ele>542.3333333333334</ele><time>2026-04-27T14:01:58.999Z</time></trkpt><trkpt lat="33.93715536856971" lon="-5.003773023060687"><ele>541.6666666666667</ele><time>2026-04-27T14:01:59.999Z</time></trkpt><trkpt lat="33.93728275274921" lon="-5.00357133962422"><ele>541.0</ele><time>2026-04-27T14:02:00.999Z</time></trkpt><trkpt lat="33.937410199745436" lon="-5.003371076555489"><ele>541.0</ele><time>2026-04-27T14:02:01.999Z</time></trkpt><trkpt lat="33.93753745446146" lon="-5.003170654084481"><ele>541.0</ele><time>2026-04-27T14:02:02.999Z</time></trkpt><trkpt lat="33.93766224831393" lon="-5.002976143744167"><ele>541.0</ele><time>2026-04-27T14:02:03.999Z</time></trkpt><trkpt lat="33.937784752015375" lon="-5.0027847101200145"><ele>541.0</ele><time>2026-04-27T14:02:04.999Z</time></trkpt><trkpt lat="33.93790824329293" lon="-5.0025861201266055"><ele>541.0</ele><time>2026-04-27T14:02:05.999Z</time></trkpt><trkpt lat="33.93803468452693" lon="-5.002384473549384"><ele>541.0</ele><time>2026-04-27T14:02:06.999Z</time></trkpt><trkpt lat="33.93816344893214" lon="-5.002177987002524"><ele>541.0</ele><time>2026-04-27T14:02:07.999Z</time></trkpt><trkpt lat="33.93829584078553" lon="-5.00196602714592"><ele>541.0</ele><time>2026-04-27T14:02:08.999Z</time></trkpt><trkpt lat="33.93843001186555" lon="-5.001750793381313"><ele>541.0</ele><time>2026-04-27T14:02:09.999Z</time></trkpt><trkpt lat="33.938565029977205" lon="-5.001531800835176"><ele>539.5</ele><time>2026-04-27T14:02:10.999Z</time></trkpt><trkpt lat="33.93870317790432" lon="-5.001308062980536"><ele>538.0</ele><time>2026-04-27T14:02:11.999Z</time></trkpt><trkpt lat="33.93884326248839" lon="-5.0010830780334325"><ele>538.0</ele><time>2026-04-27T14:02:12.999Z</time></trkpt><trkpt lat="33.93898765330505" lon="-5.000856017870477"><ele>538.0</ele><time>2026-04-27T14:02:13.999Z</time></trkpt><trkpt lat="33.93913208947348" lon="-5.000630069232542"><ele>536.0</ele><time>2026-04-27T14:02:14.999Z</time></trkpt><trkpt lat="33.939273134344525" lon="-5.000405583864916"><ele>534.0</ele><time>2026-04-27T14:02:15.999Z</time></trkpt><trkpt lat="33.93940778735898" lon="-5.000187754895785"><ele>534.0</ele><time>2026-04-27T14:02:16.999Z</time></trkpt><trkpt lat="33.939535340706556" lon="-4.999981307269614"><ele>534.0</ele><time>2026-04-27T14:02:17.999Z</time></trkpt><trkpt lat="33.93965807376736" lon="-4.9997847467086105"><ele>534.0</ele><time>2026-04-27T14:02:18.999Z</time></trkpt><trkpt lat="33.93977524325043" lon="-4.9995980703439695"><ele>534.0</ele><time>2026-04-27T14:02:19.999Z</time></trkpt><trkpt lat="33.93988659155133" lon="-4.999419931926116"><ele>534.0</ele><time>2026-04-27T14:02:20.999Z</time></trkpt><trkpt lat="33.93999488205722" lon="-4.99924501424982"><ele>534.0</ele><time>2026-04-27T14:02:21.999Z</time></trkpt><trkpt lat="33.94010100566869" lon="-4.999074734212219"><ele>533.3333333333334</ele><time>2026-04-27T14:02:22.999Z</time></trkpt><trkpt lat="33.94020593395575" lon="-4.9989091282657006"><ele>532.6666666666667</ele><time>2026-04-27T14:02:23.999Z</time></trkpt><trkpt lat="33.94030871286457" lon="-4.99874577606667"><ele>532.0</ele><time>2026-04-27T14:02:24.999Z</time></trkpt><trkpt lat="33.94041155238343" lon="-4.998582609668655"><ele>532.0</ele><time>2026-04-27T14:02:25.999Z</time></trkpt><trkpt lat="33.94051588283866" lon="-4.998418212387733"><ele>532.0</ele><time>2026-04-27T14:02:26.999Z</time></trkpt><trkpt lat="33.940621515893945" lon="-4.998250335314183"><ele>532.0</ele><time>2026-04-27T14:02:27.999Z</time></trkpt><trkpt lat="33.94072557538053" lon="-4.998082718831752"><ele>531.6666666666667</ele><time>2026-04-27T14:02:28.999Z</time></trkpt><trkpt lat="33.94083017737397" lon="-4.997912784665733"><ele>531.3333333333334</ele><time>2026-04-27T14:02:29.999Z</time></trkpt><trkpt lat="33.94093520628087" lon="-4.997744118353167"><ele>531.0</ele><time>2026-04-27T14:02:30.999Z</time></trkpt><trkpt lat="33.94103890673906" lon="-4.997577988097009"><ele>533.0</ele><time>2026-04-27T14:02:31.999Z</time></trkpt><trkpt lat="33.94114325777022" lon="-4.997411407651423"><ele>535.0</ele><time>2026-04-27T14:02:32.999Z</time></trkpt><trkpt lat="33.94124615569042" lon="-4.99724753279925"><ele>537.0</ele><time>2026-04-27T14:02:33.999Z</time></trkpt><trkpt lat="33.94134990589251" lon="-4.99708183955826"><ele>537.0</ele><time>2026-04-27T14:02:34.999Z</time></trkpt><trkpt lat="33.94144840996839" lon="-4.996923348856307"><ele>537.0</ele><time>2026-04-27T14:02:35.999Z</time></trkpt><trkpt lat="33.94154395006263" lon="-4.9967747080468214"><ele>537.0</ele><time>2026-04-27T14:02:36.999Z</time></trkpt><trkpt lat="33.94163354844891" lon="-4.996633470656567"><ele>537.25</ele><time>2026-04-27T14:02:37.999Z</time></trkpt><trkpt lat="33.94172050514757" lon="-4.996494516653017"><ele>537.5</ele><time>2026-04-27T14:02:38.999Z</time></trkpt><trkpt lat="33.94180865782161" lon="-4.996355085278911"><ele>537.75</ele><time>2026-04-27T14:02:39.999Z</time></trkpt><trkpt lat="33.94189769233893" lon="-4.996215389883079"><ele>538.0</ele><time>2026-04-27T14:02:40.999Z</time></trkpt><trkpt lat="33.941988091617716" lon="-4.996074913669256"><ele>538.0</ele><time>2026-04-27T14:02:41.999Z</time></trkpt><trkpt lat="33.942079203399615" lon="-4.995933419122932"><ele>538.0</ele><time>2026-04-27T14:02:42.999Z</time></trkpt><trkpt lat="33.942174337552956" lon="-4.995789502754234"><ele>538.0</ele><time>2026-04-27T14:02:43.999Z</time></trkpt><trkpt lat="33.9422719951254" lon="-4.995642735021691"><ele>538.3333333333334</ele><time>2026-04-27T14:02:44.999Z</time></trkpt><trkpt lat="33.94237349805442" lon="-4.995495409309202"><ele>538.6666666666666</ele><time>2026-04-27T14:02:45.999Z</time></trkpt><trkpt lat="33.9424792027257" lon="-4.995342401216538"><ele>539.0</ele><time>2026-04-27T14:02:46.999Z</time></trkpt><trkpt lat="33.942589472462316" lon="-4.995184427610474"><ele>539.0</ele><time>2026-04-27T14:02:47.999Z</time></trkpt><trkpt lat="33.942704045663795" lon="-4.995027841176945"><ele>539.0</ele><time>2026-04-27T14:02:48.999Z</time></trkpt><trkpt lat="33.94282441122536" lon="-4.994868204578151"><ele>539.0</ele><time>2026-04-27T14:02:49.999Z</time></trkpt><trkpt lat="33.942953772477004" lon="-4.99470872926632"><ele>540.3333333333333</ele><time>2026-04-27T14:02:50.999Z</time></trkpt><trkpt lat="33.94308859302471" lon="-4.994550818419368"><ele>541.6666666666666</ele><time>2026-04-27T14:02:51.999Z</time></trkpt><trkpt lat="33.94323031543153" lon="-4.99439405155548"><ele>543.0</ele><time>2026-04-27T14:02:52.999Z</time></trkpt><trkpt lat="33.94337684185422" lon="-4.994240243900467"><ele>542.6666666666666</ele><time>2026-04-27T14:02:53.999Z</time></trkpt><trkpt lat="33.9435255865733" lon="-4.994091000708946"><ele>542.3333333333333</ele><time>2026-04-27T14:02:54.999Z</time></trkpt><trkpt lat="33.943679290056096" lon="-4.993944451634093"><ele>542.0</ele><time>2026-04-27T14:02:55.999Z</time></trkpt><trkpt lat="33.94383932899544" lon="-4.993800028917812"><ele>542.0</ele><time>2026-04-27T14:02:56.999Z</time></trkpt><trkpt lat="33.94400465596419" lon="-4.993659302377353"><ele>542.0</ele><time>2026-04-27T14:02:57.999Z</time></trkpt><trkpt lat="33.94417383504457" lon="-4.99352248991367"><ele>542.0</ele><time>2026-04-27T14:02:58.999Z</time></trkpt><trkpt lat="33.94434827432131" lon="-4.993393771460467"><ele>539.6666666666666</ele><time>2026-04-27T14:02:59.999Z</time></trkpt><trkpt lat="33.944525200551624" lon="-4.993269745688903"><ele>537.3333333333334</ele><time>2026-04-27T14:03:00.999Z</time></trkpt><trkpt lat="33.94470407417273" lon="-4.993151308830917"><ele>535.0</ele><time>2026-04-27T14:03:01.999Z</time></trkpt><trkpt lat="33.9448839887162" lon="-4.993041742820845"><ele>534.6666666666667</ele><time>2026-04-27T14:03:02.999Z</time></trkpt><trkpt lat="33.945063077240064" lon="-4.992940576016582"><ele>534.3333333333334</ele><time>2026-04-27T14:03:03.999Z</time></trkpt><trkpt lat="33.94523709597345" lon="-4.9928469089795495"><ele>534.0</ele><time>2026-04-27T14:03:04.999Z</time></trkpt><trkpt lat="33.94540432004593" lon="-4.992761928496844"><ele>534.0</ele><time>2026-04-27T14:03:05.999Z</time></trkpt><trkpt lat="33.945566707941474" lon="-4.992685203552374"><ele>534.0</ele><time>2026-04-27T14:03:06.999Z</time></trkpt><trkpt lat="33.945725090599126" lon="-4.992614834188848"><ele>534.0</ele><time>2026-04-27T14:03:07.999Z</time></trkpt><trkpt lat="33.94587711162748" lon="-4.9925529671028075"><ele>534.5</ele><time>2026-04-27T14:03:08.999Z</time></trkpt><trkpt lat="33.946019666855754" lon="-4.992494921196581"><ele>535.0</ele><time>2026-04-27T14:03:09.999Z</time></trkpt><trkpt lat="33.94615085718959" lon="-4.9924413590493595"><ele>535.5</ele><time>2026-04-27T14:03:10.999Z</time></trkpt><trkpt lat="33.946270934515205" lon="-4.992390739335066"><ele>536.0</ele><time>2026-04-27T14:03:11.999Z</time></trkpt><trkpt lat="33.94638166054888" lon="-4.992343190940071"><ele>536.0</ele><time>2026-04-27T14:03:12.999Z</time></trkpt><trkpt lat="33.946482749338436" lon="-4.992297360688664"><ele>536.0</ele><time>2026-04-27T14:03:13.999Z</time></trkpt><trkpt lat="33.946576552963755" lon="-4.9922533453553415"><ele>536.0</ele><time>2026-04-27T14:03:14.999Z</time></trkpt><trkpt lat="33.9466663946396" lon="-4.992210874164976"><ele>536.0</ele><time>2026-04-27T14:03:15.999Z</time></trkpt><trkpt lat="33.94675687601288" lon="-4.992163673250751"><ele>536.0</ele><time>2026-04-27T14:03:16.999Z</time></trkpt><trkpt lat="33.946841039263546" lon="-4.992111172837382"><ele>535.8333333333333</ele><time>2026-04-27T14:03:17.999Z</time></trkpt><trkpt lat="33.946917159092415" lon="-4.992045488663214"><ele>535.6666666666666</ele><time>2026-04-27T14:03:18.999Z</time></trkpt><trkpt lat="33.94698176606479" lon="-4.991968834138104"><ele>535.5</ele><time>2026-04-27T14:03:19.999Z</time></trkpt><trkpt lat="33.9470424040172" lon="-4.991895237700228"><ele>535.3333333333334</ele><time>2026-04-27T14:03:20.999Z</time></trkpt><trkpt lat="33.94710687450655" lon="-4.991846618302205"><ele>535.1666666666667</ele><time>2026-04-27T14:03:21.999Z</time></trkpt><trkpt lat="33.94717169305353" lon="-4.99182573448813"><ele>535.0</ele><time>2026-04-27T14:03:22.999Z</time></trkpt><trkpt lat="33.947237591642065" lon="-4.991829013015079"><ele>535.0</ele><time>2026-04-27T14:03:23.999Z</time></trkpt><trkpt lat="33.947297876831506" lon="-4.991859344742616"><ele>535.0</ele><time>2026-04-27T14:03:24.999Z</time></trkpt><trkpt lat="33.947360638426034" lon="-4.9919017421827965"><ele>535.0</ele><time>2026-04-27T14:03:25.999Z</time></trkpt><trkpt lat="33.947426182294194" lon="-4.991943062802451"><ele>535.0</ele><time>2026-04-27T14:03:26.999Z</time></trkpt><trkpt lat="33.94749804218853" lon="-4.9919743437887245"><ele>535.0</ele><time>2026-04-27T14:03:27.999Z</time></trkpt><trkpt lat="33.9475780995511" lon="-4.99199405186953"><ele>535.0</ele><time>2026-04-27T14:03:28.999Z</time></trkpt><trkpt lat="33.94766456590308" lon="-4.992009654595625"><ele>535.4</ele><time>2026-04-27T14:03:29.999Z</time></trkpt><trkpt lat="33.94775806310162" lon="-4.992025589113798"><ele>535.8</ele><time>2026-04-27T14:03:30.999Z</time></trkpt><trkpt lat="33.947855826063844" lon="-4.992043353355692"><ele>536.2</ele><time>2026-04-27T14:03:31.999Z</time></trkpt><trkpt lat="33.94795582265438" lon="-4.992062200220484"><ele>536.6</ele><time>2026-04-27T14:03:32.999Z</time></trkpt><trkpt lat="33.94805714532688" lon="-4.99208079273688"><ele>537.0</ele><time>2026-04-27T14:03:33.999Z</time></trkpt><trkpt lat="33.94816297175532" lon="-4.9921011723639435"><ele>537.0</ele><time>2026-04-27T14:03:34.999Z</time></trkpt><trkpt lat="33.948275686415" lon="-4.99212735723955"><ele>537.0</ele><time>2026-04-27T14:03:35.999Z</time></trkpt><trkpt lat="33.94839370437241" lon="-4.992159458016814"><ele>537.0</ele><time>2026-04-27T14:03:36.999Z</time></trkpt><trkpt lat="33.94851247052119" lon="-4.992195348805786"><ele>537.0</ele><time>2026-04-27T14:03:37.999Z</time></trkpt><trkpt lat="33.948634198345935" lon="-4.992234928511429"><ele>536.5</ele><time>2026-04-27T14:03:38.999Z</time></trkpt><trkpt lat="33.94875626161741" lon="-4.992278937820577"><ele>536.0</ele><time>2026-04-27T14:03:39.999Z</time></trkpt><trkpt lat="33.94887948288991" lon="-4.992319981775663"><ele>535.5</ele><time>2026-04-27T14:03:40.999Z</time></trkpt><trkpt lat="33.94900168955698" lon="-4.992359609794135"><ele>535.0</ele><time>2026-04-27T14:03:41.999Z</time></trkpt><trkpt lat="33.94912382981892" lon="-4.992400492997883"><ele>534.5</ele><time>2026-04-27T14:03:42.999Z</time></trkpt><trkpt lat="33.94924657474254" lon="-4.992440836283538"><ele>534.0</ele><time>2026-04-27T14:03:43.999Z</time></trkpt><trkpt lat="33.94936774789932" lon="-4.9924818092154"><ele>533.5</ele><time>2026-04-27T14:03:44.999Z</time></trkpt><trkpt lat="33.94948875402499" lon="-4.992523911336362"><ele>533.0</ele><time>2026-04-27T14:03:45.999Z</time></trkpt><trkpt lat="33.949610556128476" lon="-4.992564621430116"><ele>532.25</ele><time>2026-04-27T14:03:46.999Z</time></trkpt><trkpt lat="33.94973308704792" lon="-4.992606060023862"><ele>531.5</ele><time>2026-04-27T14:03:47.999Z</time></trkpt><trkpt lat="33.949850790106886" lon="-4.992648480708164"><ele>530.75</ele><time>2026-04-27T14:03:48.999Z</time></trkpt><trkpt lat="33.9499624696783" lon="-4.992690252925125"><ele>530.0</ele><time>2026-04-27T14:03:49.999Z</time></trkpt><trkpt lat="33.95006831364927" lon="-4.99272657449314"><ele>530.0</ele><time>2026-04-27T14:03:50.999Z</time></trkpt><trkpt lat="33.95017292350552" lon="-4.992762942435251"><ele>530.0</ele><time>2026-04-27T14:03:51.999Z</time></trkpt><trkpt lat="33.95027447746922" lon="-4.992800682328344"><ele>530.0</ele><time>2026-04-27T14:03:52.999Z</time></trkpt><trkpt lat="33.950371305520775" lon="-4.992840437744317"><ele>530.0</ele><time>2026-04-27T14:03:53.999Z</time></trkpt><trkpt lat="33.95046711117923" lon="-4.9928779028896555"><ele>530.0</ele><time>2026-04-27T14:03:54.999Z</time></trkpt><trkpt lat="33.95056192263057" lon="-4.992913693424089"><ele>530.0</ele><time>2026-04-27T14:03:55.999Z</time></trkpt><trkpt lat="33.95065359203194" lon="-4.99294719052883"><ele>530.0</ele><time>2026-04-27T14:03:56.999Z</time></trkpt><trkpt lat="33.950736638383056" lon="-4.992978535228608"><ele>530.0</ele><time>2026-04-27T14:03:57.999Z</time></trkpt><trkpt lat="33.95082758410671" lon="-4.993012535084096"><ele>530.0</ele><time>2026-04-27T14:03:58.999Z</time></trkpt><trkpt lat="33.95092870638838" lon="-4.993053316848312"><ele>530.0</ele><time>2026-04-27T14:03:59.999Z</time></trkpt><trkpt lat="33.95104158004384" lon="-4.993100523062271"><ele>529.75</ele><time>2026-04-27T14:04:00.999Z</time></trkpt><trkpt lat="33.95116466060613" lon="-4.993149418405198"><ele>529.5</ele><time>2026-04-27T14:04:01.999Z</time></trkpt><trkpt lat="33.95129601375644" lon="-4.9931981417237425"><ele>529.25</ele><time>2026-04-27T14:04:02.999Z</time></trkpt><trkpt lat="33.95142824268411" lon="-4.993243010373475"><ele>529.0</ele><time>2026-04-27T14:04:03.999Z</time></trkpt><trkpt lat="33.95156131633312" lon="-4.99328764012738"><ele>529.0</ele><time>2026-04-27T14:04:04.999Z</time></trkpt><trkpt lat="33.95169419395861" lon="-4.99333231375807"><ele>529.0</ele><time>2026-04-27T14:04:05.999Z</time></trkpt><trkpt lat="33.95182660153687" lon="-4.993378649475707"><ele>529.0</ele><time>2026-04-27T14:04:06.999Z</time></trkpt><trkpt lat="33.95195980750631" lon="-4.9934248114392785"><ele>529.0</ele><time>2026-04-27T14:04:07.999Z</time></trkpt><trkpt lat="33.95208878138165" lon="-4.993470423532616"><ele>528.5</ele><time>2026-04-27T14:04:08.999Z</time></trkpt><trkpt lat="33.95221164911385" lon="-4.9935161872441824"><ele>528.0</ele><time>2026-04-27T14:04:09.999Z</time></trkpt><trkpt lat="33.95233235548857" lon="-4.993563114018989"><ele>527.5</ele><time>2026-04-27T14:04:10.999Z</time></trkpt><trkpt lat="33.95245124747809" lon="-4.9936097708993215"><ele>527.0</ele><time>2026-04-27T14:04:11.999Z</time></trkpt><trkpt lat="33.952567327721766" lon="-4.993654769947366"><ele>526.8000000000001</ele><time>2026-04-27T14:04:12.999Z</time></trkpt><trkpt lat="33.952681030682925" lon="-4.9936981748730185"><ele>526.6</ele><time>2026-04-27T14:04:13.999Z</time></trkpt><trkpt lat="33.95279025662554" lon="-4.993739587821705"><ele>526.4000000000001</ele><time>2026-04-27T14:04:14.999Z</time></trkpt><trkpt lat="33.95289310742037" lon="-4.993778490778212"><ele>526.2</ele><time>2026-04-27T14:04:15.999Z</time></trkpt><trkpt lat="33.9529865474042" lon="-4.993815357861747"><ele>526.0</ele><time>2026-04-27T14:04:16.999Z</time></trkpt><trkpt lat="33.95306932386797" lon="-4.993846464577623"><ele>526.0</ele><time>2026-04-27T14:04:17.999Z</time></trkpt><trkpt lat="33.95313944653646" lon="-4.993873124104367"><ele>526.0</ele><time>2026-04-27T14:04:18.999Z</time></trkpt><trkpt lat="33.95324513767108" lon="-4.993917801106199"><ele>526.0</ele><time>2026-04-27T14:04:20.999Z</time></trkpt><trkpt lat="33.95331432306745" lon="-4.993943015297228"><ele>526.0</ele><time>2026-04-27T14:04:22.999Z</time></trkpt><trkpt lat="33.95337435264323" lon="-4.993966111015572"><ele>526.0</ele><time>2026-04-27T14:04:32.999Z</time></trkpt><trkpt lat="33.95347887403528" lon="-4.994004062617167"><ele>526.0</ele><time>2026-04-27T14:04:35.999Z</time></trkpt><trkpt lat="33.953540966060054" lon="-4.994025063267813"><ele>525.6666666666667</ele><time>2026-04-27T14:04:36.999Z</time></trkpt><trkpt lat="33.9536040191104" lon="-4.994041683483176"><ele>525.3333333333334</ele><time>2026-04-27T14:04:37.999Z</time></trkpt><trkpt lat="33.95367373717083" lon="-4.994060134616645"><ele>525.0</ele><time>2026-04-27T14:04:38.999Z</time></trkpt><trkpt lat="33.95375609334804" lon="-4.994081637044089"><ele>524.6666666666666</ele><time>2026-04-27T14:04:39.999Z</time></trkpt><trkpt lat="33.953848991574496" lon="-4.9941070187464645"><ele>524.3333333333333</ele><time>2026-04-27T14:04:40.999Z</time></trkpt><trkpt lat="33.95394978112827" lon="-4.99414245309239"><ele>524.0</ele><time>2026-04-27T14:04:41.999Z</time></trkpt><trkpt lat="33.954056673816204" lon="-4.994183269356863"><ele>524.0</ele><time>2026-04-27T14:04:42.999Z</time></trkpt><trkpt lat="33.9541731222781" lon="-4.994227710710091"><ele>524.0</ele><time>2026-04-27T14:04:43.999Z</time></trkpt><trkpt lat="33.95430075360795" lon="-4.994271971849673"><ele>524.0</ele><time>2026-04-27T14:04:44.999Z</time></trkpt><trkpt lat="33.95443605155307" lon="-4.9943180238202"><ele>524.0</ele><time>2026-04-27T14:04:45.999Z</time></trkpt><trkpt lat="33.95457555689253" lon="-4.994365685948965"><ele>523.0</ele><time>2026-04-27T14:04:46.999Z</time></trkpt><trkpt lat="33.954719200085904" lon="-4.994413094637975"><ele>522.0</ele><time>2026-04-27T14:04:47.999Z</time></trkpt><trkpt lat="33.9548662605218" lon="-4.994458111564756"><ele>521.0</ele><time>2026-04-27T14:04:48.999Z</time></trkpt><trkpt lat="33.95501218209695" lon="-4.9945042763554275"><ele>521.3333333333333</ele><time>2026-04-27T14:04:49.999Z</time></trkpt><trkpt lat="33.9551582496834" lon="-4.994550357679582"><ele>521.6666666666666</ele><time>2026-04-27T14:04:50.999Z</time></trkpt><trkpt lat="33.955305865307395" lon="-4.994596098027525"><ele>522.0</ele><time>2026-04-27T14:04:51.999Z</time></trkpt><trkpt lat="33.95545542764712" lon="-4.9946412031938605"><ele>522.0</ele><time>2026-04-27T14:04:52.999Z</time></trkpt><trkpt lat="33.95560705914458" lon="-4.9946890214624355"><ele>522.0</ele><time>2026-04-27T14:04:53.999Z</time></trkpt><trkpt lat="33.95576245626564" lon="-4.994739246073562"><ele>522.0</ele><time>2026-04-27T14:04:54.999Z</time></trkpt><trkpt lat="33.95591987478691" lon="-4.994791039404925"><ele>521.3333333333334</ele><time>2026-04-27T14:04:55.999Z</time></trkpt><trkpt lat="33.95607838909673" lon="-4.994842168027361"><ele>520.6666666666667</ele><time>2026-04-27T14:04:56.999Z</time></trkpt><trkpt lat="33.956234530038735" lon="-4.994893480575625"><ele>520.0</ele><time>2026-04-27T14:04:57.999Z</time></trkpt><trkpt lat="33.95638773397381" lon="-4.994944005689638"><ele>520.0</ele><time>2026-04-27T14:04:58.999Z</time></trkpt><trkpt lat="33.95653526390922" lon="-4.994991641611317"><ele>520.0</ele><time>2026-04-27T14:04:59.999Z</time></trkpt><trkpt lat="33.95667765545023" lon="-4.995036583780172"><ele>520.0</ele><time>2026-04-27T14:05:00.999Z</time></trkpt><trkpt lat="33.956812985754084" lon="-4.995080201797116"><ele>520.0</ele><time>2026-04-27T14:05:01.999Z</time></trkpt><trkpt lat="33.95693937262407" lon="-4.995121493059469"><ele>520.0</ele><time>2026-04-27T14:05:02.999Z</time></trkpt><trkpt lat="33.95705531766336" lon="-4.995157778196185"><ele>520.0</ele><time>2026-04-27T14:05:03.999Z</time></trkpt><trkpt lat="33.957165543028204" lon="-4.995190749493081"><ele>520.0</ele><time>2026-04-27T14:05:04.999Z</time></trkpt><trkpt lat="33.95726797082542" lon="-4.995222822827949"><ele>520.0</ele><time>2026-04-27T14:05:05.999Z</time></trkpt><trkpt lat="33.9573672734892" lon="-4.9952544560310965"><ele>520.0</ele><time>2026-04-27T14:05:06.999Z</time></trkpt><trkpt lat="33.957470755935304" lon="-4.995287719905687"><ele>519.25</ele><time>2026-04-27T14:05:07.999Z</time></trkpt><trkpt lat="33.957576887689584" lon="-4.995322697718317"><ele>518.5</ele><time>2026-04-27T14:05:08.999Z</time></trkpt><trkpt lat="33.957686903674244" lon="-4.9953598089224105"><ele>517.75</ele><time>2026-04-27T14:05:09.999Z</time></trkpt><trkpt lat="33.957802681930346" lon="-4.995398667174891"><ele>517.0</ele><time>2026-04-27T14:05:10.999Z</time></trkpt><trkpt lat="33.957916050931736" lon="-4.995437746806194"><ele>517.0</ele><time>2026-04-27T14:05:11.999Z</time></trkpt><trkpt lat="33.95802925225943" lon="-4.995474139189914"><ele>517.0</ele><time>2026-04-27T14:05:12.999Z</time></trkpt><trkpt lat="33.958140584917" lon="-4.995508247450322"><ele>517.0</ele><time>2026-04-27T14:05:13.999Z</time></trkpt><trkpt lat="33.958249798594046" lon="-4.9955442285499245"><ele>517.0</ele><time>2026-04-27T14:05:14.999Z</time></trkpt><trkpt lat="33.958358351760396" lon="-4.995578531858375"><ele>516.2</ele><time>2026-04-27T14:05:15.999Z</time></trkpt><trkpt lat="33.95846849723647" lon="-4.995608901284726"><ele>515.4000000000001</ele><time>2026-04-27T14:05:16.999Z</time></trkpt><trkpt lat="33.95857775742541" lon="-4.995643440122819"><ele>514.5999999999999</ele><time>2026-04-27T14:05:17.999Z</time></trkpt><trkpt lat="33.9586844969364" lon="-4.995678003053916"><ele>513.8</ele><time>2026-04-27T14:05:18.999Z</time></trkpt><trkpt lat="33.958790208335536" lon="-4.9957090689638575"><ele>513.0</ele><time>2026-04-27T14:05:19.999Z</time></trkpt><trkpt lat="33.95889148632763" lon="-4.995741394176854"><ele>513.0</ele><time>2026-04-27T14:05:20.999Z</time></trkpt><trkpt lat="33.9589882303905" lon="-4.9957722220154865"><ele>513.0</ele><time>2026-04-27T14:05:21.999Z</time></trkpt><trkpt lat="33.959074810419715" lon="-4.99579959730733"><ele>513.0</ele><time>2026-04-27T14:05:22.999Z</time></trkpt><trkpt lat="33.95915517681542" lon="-4.9958255831533265"><ele>513.0</ele><time>2026-04-27T14:05:23.999Z</time></trkpt><trkpt lat="33.959233487110886" lon="-4.9958506157158675"><ele>513.0</ele><time>2026-04-27T14:05:24.999Z</time></trkpt><trkpt lat="33.9593086045037" lon="-4.995874932743873"><ele>513.0</ele><time>2026-04-27T14:05:25.999Z</time></trkpt><trkpt lat="33.959381724657916" lon="-4.995898328641758"><ele>513.0000000000001</ele><time>2026-04-27T14:05:26.999Z</time></trkpt><trkpt lat="33.959452381312815" lon="-4.995919960078629"><ele>513.0</ele><time>2026-04-27T14:05:27.999Z</time></trkpt><trkpt lat="33.9595223026978" lon="-4.995941630737386"><ele>513.0</ele><time>2026-04-27T14:05:28.999Z</time></trkpt><trkpt lat="33.959591290591234" lon="-4.995962270985188"><ele>513.0</ele><time>2026-04-27T14:05:29.999Z</time></trkpt><trkpt lat="33.959662035146366" lon="-4.995983169241344"><ele>513.0</ele><time>2026-04-27T14:05:30.999Z</time></trkpt><trkpt lat="33.95973638783465" lon="-4.996006812794199"><ele>513.0000000000001</ele><time>2026-04-27T14:05:31.999Z</time></trkpt><trkpt lat="33.95981458440322" lon="-4.996033490796498"><ele>513.0</ele><time>2026-04-27T14:05:32.999Z</time></trkpt><trkpt lat="33.95990027047398" lon="-4.996063283211346"><ele>513.0</ele><time>2026-04-27T14:05:33.999Z</time></trkpt><trkpt lat="33.959994141442934" lon="-4.996093446921587"><ele>513.0</ele><time>2026-04-27T14:05:34.999Z</time></trkpt><trkpt lat="33.960092106963344" lon="-4.996122391446203"><ele>513.0</ele><time>2026-04-27T14:05:35.999Z</time></trkpt><trkpt lat="33.96019064086946" lon="-4.996155153150697"><ele>513.0</ele><time>2026-04-27T14:05:36.999Z</time></trkpt><trkpt lat="33.96028975355521" lon="-4.996186008915316"><ele>513.0</ele><time>2026-04-27T14:05:37.999Z</time></trkpt><trkpt lat="33.96039051348259" lon="-4.9962171795448285"><ele>512.1999999999999</ele><time>2026-04-27T14:05:38.999Z</time></trkpt><trkpt lat="33.96049075145841" lon="-4.996248560310253"><ele>511.4</ele><time>2026-04-27T14:05:39.999Z</time></trkpt><trkpt lat="33.96059044968838" lon="-4.996280172674121"><ele>510.59999999999997</ele><time>2026-04-27T14:05:40.999Z</time></trkpt><trkpt lat="33.96068900276266" lon="-4.996311744668546"><ele>509.79999999999995</ele><time>2026-04-27T14:05:41.999Z</time></trkpt><trkpt lat="33.96078627929572" lon="-4.996343059713725"><ele>509.0</ele><time>2026-04-27T14:05:42.999Z</time></trkpt><trkpt lat="33.960877498486994" lon="-4.996371649052514"><ele>508.66666666666663</ele><time>2026-04-27T14:05:43.999Z</time></trkpt><trkpt lat="33.96095877119253" lon="-4.996397981641998"><ele>508.3333333333333</ele><time>2026-04-27T14:05:44.999Z</time></trkpt><trkpt lat="33.9610376645904" lon="-4.996420657020575"><ele>508.0</ele><time>2026-04-27T14:05:45.999Z</time></trkpt><trkpt lat="33.96111524899821" lon="-4.99644305037008"><ele>507.66666666666663</ele><time>2026-04-27T14:05:46.999Z</time></trkpt><trkpt lat="33.961190546538155" lon="-4.9964655443354715"><ele>507.3333333333333</ele><time>2026-04-27T14:05:47.999Z</time></trkpt><trkpt lat="33.96126615568" lon="-4.9964905411935545"><ele>507.0</ele><time>2026-04-27T14:05:48.999Z</time></trkpt><trkpt lat="33.96133845397126" lon="-4.9965144381891955"><ele>507.0</ele><time>2026-04-27T14:05:49.999Z</time></trkpt><trkpt lat="33.96140671339639" lon="-4.9965370102474935"><ele>507.0</ele><time>2026-04-27T14:05:50.999Z</time></trkpt><trkpt lat="33.96147762153367" lon="-4.996559661370873"><ele>507.0</ele><time>2026-04-27T14:05:51.999Z</time></trkpt><trkpt lat="33.961551417187415" lon="-4.996582656176297"><ele>507.0</ele><time>2026-04-27T14:05:52.999Z</time></trkpt><trkpt lat="33.96162618179583" lon="-4.9966060815311435"><ele>507.0</ele><time>2026-04-27T14:05:53.999Z</time></trkpt><trkpt lat="33.96170018217703" lon="-4.996627246234531"><ele>507.0</ele><time>2026-04-27T14:05:54.999Z</time></trkpt><trkpt lat="33.96177462141791" lon="-4.996649202269964"><ele>506.8333333333333</ele><time>2026-04-27T14:05:55.999Z</time></trkpt><trkpt lat="33.96185235254279" lon="-4.996673384364989"><ele>506.66666666666663</ele><time>2026-04-27T14:05:56.999Z</time></trkpt><trkpt lat="33.9619325616142" lon="-4.996697595851715"><ele>506.5</ele><time>2026-04-27T14:05:57.999Z</time></trkpt><trkpt lat="33.96201589495474" lon="-4.996722600719273"><ele>506.3333333333333</ele><time>2026-04-27T14:05:58.999Z</time></trkpt><trkpt lat="33.962102143895784" lon="-4.996751407031127"><ele>506.16666666666663</ele><time>2026-04-27T14:05:59.999Z</time></trkpt><trkpt lat="33.9621926281613" lon="-4.996781301506989"><ele>506.0</ele><time>2026-04-27T14:06:00.999Z</time></trkpt><trkpt lat="33.96228706418938" lon="-4.996810715416476"><ele>506.0</ele><time>2026-04-27T14:06:01.999Z</time></trkpt><trkpt lat="33.96238244639184" lon="-4.996840226287632"><ele>506.0</ele><time>2026-04-27T14:06:02.999Z</time></trkpt><trkpt lat="33.962479525759555" lon="-4.996869920449987"><ele>506.0</ele><time>2026-04-27T14:06:03.999Z</time></trkpt><trkpt lat="33.962579945750704" lon="-4.996901750519193"><ele>506.0</ele><time>2026-04-27T14:06:04.999Z</time></trkpt><trkpt lat="33.962681442540735" lon="-4.996934391196135"><ele>506.0</ele><time>2026-04-27T14:06:05.999Z</time></trkpt><trkpt lat="33.962784621718754" lon="-4.996965514795694"><ele>505.8</ele><time>2026-04-27T14:06:06.999Z</time></trkpt><trkpt lat="33.9628869864873" lon="-4.996996053602213"><ele>505.6</ele><time>2026-04-27T14:06:07.999Z</time></trkpt><trkpt lat="33.96298877293511" lon="-4.997027433234299"><ele>505.4</ele><time>2026-04-27T14:06:08.999Z</time></trkpt><trkpt lat="33.96309146886284" lon="-4.997059719057265"><ele>505.2</ele><time>2026-04-27T14:06:09.999Z</time></trkpt><trkpt lat="33.963195658557694" lon="-4.99709303476248"><ele>505.0</ele><time>2026-04-27T14:06:10.999Z</time></trkpt><trkpt lat="33.963301811274256" lon="-4.997126028422148"><ele>504.4</ele><time>2026-04-27T14:06:11.999Z</time></trkpt><trkpt lat="33.963408980753684" lon="-4.997159597552437"><ele>503.8</ele><time>2026-04-27T14:06:12.999Z</time></trkpt><trkpt lat="33.96351606129764" lon="-4.997193785157487"><ele>503.20000000000005</ele><time>2026-04-27T14:06:13.999Z</time></trkpt><trkpt lat="33.96362482729891" lon="-4.9972294087349525"><ele>502.6</ele><time>2026-04-27T14:06:14.999Z</time></trkpt><trkpt lat="33.9637353792047" lon="-4.997265321290022"><ele>502.0</ele><time>2026-04-27T14:06:15.999Z</time></trkpt><trkpt lat="33.96384574357061" lon="-4.997301323920376"><ele>502.0</ele><time>2026-04-27T14:06:16.999Z</time></trkpt><trkpt lat="33.96395700290952" lon="-4.997338016910248"><ele>502.0</ele><time>2026-04-27T14:06:17.999Z</time></trkpt><trkpt lat="33.96406940584342" lon="-4.997371260702657"><ele>502.0</ele><time>2026-04-27T14:06:18.999Z</time></trkpt><trkpt lat="33.96418035449752" lon="-4.997405705288884"><ele>502.0</ele><time>2026-04-27T14:06:19.999Z</time></trkpt><trkpt lat="33.964288321784196" lon="-4.997439318769529"><ele>502.0</ele><time>2026-04-27T14:06:20.999Z</time></trkpt><trkpt lat="33.96439440085522" lon="-4.997469930336633"><ele>502.00000000000006</ele><time>2026-04-27T14:06:21.999Z</time></trkpt><trkpt lat="33.96449819710622" lon="-4.9975008428171055"><ele>502.00000000000006</ele><time>2026-04-27T14:06:22.999Z</time></trkpt><trkpt lat="33.96460184739423" lon="-4.997530821891768"><ele>502.0</ele><time>2026-04-27T14:06:23.999Z</time></trkpt><trkpt lat="33.96470550036826" lon="-4.997560483243371"><ele>502.0</ele><time>2026-04-27T14:06:24.999Z</time></trkpt><trkpt lat="33.964806071853445" lon="-4.9975885624496605"><ele>502.0</ele><time>2026-04-27T14:06:25.999Z</time></trkpt><trkpt lat="33.96490427635508" lon="-4.997615748881517"><ele>502.00000000000006</ele><time>2026-04-27T14:06:26.999Z</time></trkpt><trkpt lat="33.96499947435547" lon="-4.997642118611355"><ele>502.00000000000006</ele><time>2026-04-27T14:06:27.999Z</time></trkpt><trkpt lat="33.96509111796794" lon="-4.997667013211042"><ele>502.0</ele><time>2026-04-27T14:06:28.999Z</time></trkpt><trkpt lat="33.96518383369579" lon="-4.997690535918881"><ele>502.0</ele><time>2026-04-27T14:06:29.999Z</time></trkpt><trkpt lat="33.96527473985899" lon="-4.9977141917248575"><ele>501.6</ele><time>2026-04-27T14:06:30.999Z</time></trkpt><trkpt lat="33.96536422775286" lon="-4.997737253735247"><ele>501.20000000000005</ele><time>2026-04-27T14:06:31.999Z</time></trkpt><trkpt lat="33.96545539454589" lon="-4.997758771145136"><ele>500.8</ele><time>2026-04-27T14:06:32.999Z</time></trkpt><trkpt lat="33.96554985152256" lon="-4.997779610348345"><ele>500.4</ele><time>2026-04-27T14:06:33.999Z</time></trkpt><trkpt lat="33.96564017712888" lon="-4.997801117130133"><ele>500.0</ele><time>2026-04-27T14:06:34.999Z</time></trkpt><trkpt lat="33.96572841224691" lon="-4.997825136204932"><ele>499.99999999999994</ele><time>2026-04-27T14:06:35.999Z</time></trkpt><trkpt lat="33.965817680234" lon="-4.997847298074357"><ele>500.0</ele><time>2026-04-27T14:06:36.999Z</time></trkpt><trkpt lat="33.965906306697704" lon="-4.997870911633839"><ele>500.0</ele><time>2026-04-27T14:06:37.999Z</time></trkpt><trkpt lat="33.965991537293014" lon="-4.997889905620409"><ele>500.0</ele><time>2026-04-27T14:06:38.999Z</time></trkpt><trkpt lat="33.9660713923196" lon="-4.9979088179887095"><ele>499.99999999999994</ele><time>2026-04-27T14:06:39.999Z</time></trkpt><trkpt lat="33.966146594874296" lon="-4.997925234265117"><ele>500.0</ele><time>2026-04-27T14:06:40.999Z</time></trkpt><trkpt lat="33.966225250551325" lon="-4.997944434727612"><ele>499.6</ele><time>2026-04-27T14:06:41.999Z</time></trkpt><trkpt lat="33.96630968172838" lon="-4.997965127515222"><ele>499.2</ele><time>2026-04-27T14:06:42.999Z</time></trkpt><trkpt lat="33.96639915205172" lon="-4.997986065682615"><ele>498.79999999999995</ele><time>2026-04-27T14:06:43.999Z</time></trkpt><trkpt lat="33.96649371560522" lon="-4.998008596192493"><ele>498.4</ele><time>2026-04-27T14:06:44.999Z</time></trkpt><trkpt lat="33.96659398897127" lon="-4.998029032084319"><ele>498.0</ele><time>2026-04-27T14:06:45.999Z</time></trkpt><trkpt lat="33.96669777577169" lon="-4.998051788816445"><ele>497.5</ele><time>2026-04-27T14:06:46.999Z</time></trkpt><trkpt lat="33.96680495082462" lon="-4.998074837622077"><ele>497.0</ele><time>2026-04-27T14:06:47.999Z</time></trkpt><trkpt lat="33.96691300812821" lon="-4.998097712434218"><ele>496.5</ele><time>2026-04-27T14:06:48.999Z</time></trkpt><trkpt lat="33.967026502490484" lon="-4.998122517622493"><ele>496.0</ele><time>2026-04-27T14:06:49.999Z</time></trkpt><trkpt lat="33.96714554656348" lon="-4.9981477504705625"><ele>496.0</ele><time>2026-04-27T14:06:50.999Z</time></trkpt><trkpt lat="33.96726765631018" lon="-4.998174066762025"><ele>496.0</ele><time>2026-04-27T14:06:51.999Z</time></trkpt><trkpt lat="33.96739189959553" lon="-4.998196414301671"><ele>496.0</ele><time>2026-04-27T14:06:52.999Z</time></trkpt><trkpt lat="33.96752015881092" lon="-4.998218400940831"><ele>496.0</ele><time>2026-04-27T14:06:53.999Z</time></trkpt><trkpt lat="33.967647058857196" lon="-4.998242077454106"><ele>496.0</ele><time>2026-04-27T14:06:54.999Z</time></trkpt><trkpt lat="33.9677715298047" lon="-4.998266368623504"><ele>496.0</ele><time>2026-04-27T14:06:55.999Z</time></trkpt><trkpt lat="33.96789371132683" lon="-4.998293933328042"><ele>496.0</ele><time>2026-04-27T14:06:56.999Z</time></trkpt><trkpt lat="33.96801079754237" lon="-4.9983192373958705"><ele>496.0</ele><time>2026-04-27T14:06:57.999Z</time></trkpt><trkpt lat="33.9681225998452" lon="-4.998341796720859"><ele>496.0</ele><time>2026-04-27T14:06:58.999Z</time></trkpt><trkpt lat="33.968230813165206" lon="-4.99836656953856"><ele>496.0</ele><time>2026-04-27T14:06:59.999Z</time></trkpt><trkpt lat="33.968335940092345" lon="-4.998391166984506"><ele>496.0</ele><time>2026-04-27T14:07:00.999Z</time></trkpt><trkpt lat="33.968432623531825" lon="-4.998414923481973"><ele>496.0</ele><time>2026-04-27T14:07:01.999Z</time></trkpt><trkpt lat="33.96851297945093" lon="-4.99843536425834"><ele>496.0</ele><time>2026-04-27T14:07:02.999Z</time></trkpt><trkpt lat="33.96860967929082" lon="-4.998459759082749"><ele>495.6666666666667</ele><time>2026-04-27T14:07:04.999Z</time></trkpt><trkpt lat="33.96868630118372" lon="-4.998476859139561"><ele>495.33333333333337</ele><time>2026-04-27T14:07:07.999Z</time></trkpt><trkpt lat="33.96875327466521" lon="-4.998488760051497"><ele>495.0</ele><time>2026-04-27T14:07:17Z</time></trkpt><trkpt lat="33.96883641707966" lon="-4.99851947001172"><ele>494.66666666666663</ele><time>2026-04-27T14:07:19Z</time></trkpt><trkpt lat="33.96890100157004" lon="-4.998548789951968"><ele>494.3333333333333</ele><time>2026-04-27T14:07:22Z</time></trkpt><trkpt lat="33.968977149992476" lon="-4.998575920819194"><ele>494.0</ele><time>2026-04-27T14:07:26Z</time></trkpt><trkpt lat="33.96905226832939" lon="-4.998588892838143"><ele>493.99999999999994</ele><time>2026-04-27T14:07:28Z</time></trkpt><trkpt lat="33.9691331922683" lon="-4.998606697768186"><ele>494.0</ele><time>2026-04-27T14:07:30Z</time></trkpt><trkpt lat="33.96922483291601" lon="-4.998631788969235"><ele>494.0</ele><time>2026-04-27T14:07:32Z</time></trkpt><trkpt lat="33.96932658564101" lon="-4.998666328906365"><ele>494.0</ele><time>2026-04-27T14:07:34Z</time></trkpt><trkpt lat="33.969390719178875" lon="-4.99868197319543"><ele>493.99999999999994</ele><time>2026-04-27T14:07:35Z</time></trkpt><trkpt lat="33.96946374662204" lon="-4.9987056189399945"><ele>494.0</ele><time>2026-04-27T14:07:36Z</time></trkpt><trkpt lat="33.96954686749453" lon="-4.9987314925551605"><ele>493.6</ele><time>2026-04-27T14:07:37Z</time></trkpt><trkpt lat="33.96963818204089" lon="-4.998757776448832"><ele>493.2</ele><time>2026-04-27T14:07:38Z</time></trkpt><trkpt lat="33.96973618965466" lon="-4.998785522182865"><ele>492.80000000000007</ele><time>2026-04-27T14:07:39Z</time></trkpt><trkpt lat="33.96984122462985" lon="-4.998816343275646"><ele>492.40000000000003</ele><time>2026-04-27T14:07:40Z</time></trkpt><trkpt lat="33.96995419838931" lon="-4.998850497413683"><ele>492.0</ele><time>2026-04-27T14:07:41Z</time></trkpt><trkpt lat="33.97007490030789" lon="-4.9988832964188905"><ele>492.0</ele><time>2026-04-27T14:07:42Z</time></trkpt><trkpt lat="33.97019730406442" lon="-4.998919611210636"><ele>492.0</ele><time>2026-04-27T14:07:43Z</time></trkpt><trkpt lat="33.97032380342412" lon="-4.998958572020456"><ele>492.0</ele><time>2026-04-27T14:07:44Z</time></trkpt><trkpt lat="33.97045098671389" lon="-4.998998783409067"><ele>492.0</ele><time>2026-04-27T14:07:45Z</time></trkpt><trkpt lat="33.97058161412497" lon="-4.999039589532674"><ele>492.0</ele><time>2026-04-27T14:07:46Z</time></trkpt><trkpt lat="33.97071571778845" lon="-4.999080313945117"><ele>492.0</ele><time>2026-04-27T14:07:47Z</time></trkpt><trkpt lat="33.970852796993576" lon="-4.999119889135488"><ele>492.0</ele><time>2026-04-27T14:07:48Z</time></trkpt><trkpt lat="33.970990135353745" lon="-4.999161375426142"><ele>492.0</ele><time>2026-04-27T14:07:49Z</time></trkpt><trkpt lat="33.97112857772271" lon="-4.999203091574468"><ele>491.25</ele><time>2026-04-27T14:07:50Z</time></trkpt><trkpt lat="33.97126718267561" lon="-4.999243466307717"><ele>490.5</ele><time>2026-04-27T14:07:51Z</time></trkpt><trkpt lat="33.971405898181544" lon="-4.9992814292422585"><ele>489.75</ele><time>2026-04-27T14:07:52Z</time></trkpt><trkpt lat="33.97154887837489" lon="-4.999320672167985"><ele>489.0</ele><time>2026-04-27T14:07:53Z</time></trkpt><trkpt lat="33.97169404262786" lon="-4.9993599933678095"><ele>489.0</ele><time>2026-04-27T14:07:54Z</time></trkpt><trkpt lat="33.97183762831813" lon="-4.999403715114831"><ele>489.0</ele><time>2026-04-27T14:07:55Z</time></trkpt><trkpt lat="33.971985569703754" lon="-4.999449332467228"><ele>489.0</ele><time>2026-04-27T14:07:56Z</time></trkpt><trkpt lat="33.97213555405671" lon="-4.999493747609135"><ele>489.0</ele><time>2026-04-27T14:07:57Z</time></trkpt><trkpt lat="33.97228547976719" lon="-4.999539060402802"><ele>489.0</ele><time>2026-04-27T14:07:58Z</time></trkpt><trkpt lat="33.97243537835595" lon="-4.9995856874948466"><ele>489.0</ele><time>2026-04-27T14:07:59Z</time></trkpt><trkpt lat="33.97258415142249" lon="-4.999631018857489"><ele>488.33333333333337</ele><time>2026-04-27T14:08:00Z</time></trkpt><trkpt lat="33.972735127871246" lon="-4.99967568519015"><ele>487.6666666666667</ele><time>2026-04-27T14:08:01Z</time></trkpt><trkpt lat="33.97288599183701" lon="-4.999718720223988"><ele>487.0</ele><time>2026-04-27T14:08:02Z</time></trkpt><trkpt lat="33.97303704507891" lon="-4.9997644468557825"><ele>487.0</ele><time>2026-04-27T14:08:03Z</time></trkpt><trkpt lat="33.97318844468761" lon="-4.9998079620331595"><ele>487.0</ele><time>2026-04-27T14:08:04Z</time></trkpt><trkpt lat="33.973339295207005" lon="-4.999852640622772"><ele>487.0</ele><time>2026-04-27T14:08:05Z</time></trkpt><trkpt lat="33.97348893297215" lon="-4.999898608230946"><ele>486.33333333333337</ele><time>2026-04-27T14:08:06Z</time></trkpt><trkpt lat="33.97364067652737" lon="-4.999943837167835"><ele>485.66666666666663</ele><time>2026-04-27T14:08:07Z</time></trkpt><trkpt lat="33.973791629203916" lon="-4.9999881714687415"><ele>485.0</ele><time>2026-04-27T14:08:08Z</time></trkpt><trkpt lat="33.97394330951008" lon="-5.000033981625716"><ele>485.0</ele><time>2026-04-27T14:08:09Z</time></trkpt><trkpt lat="33.97409140072415" lon="-5.000079402098061"><ele>485.0</ele><time>2026-04-27T14:08:10Z</time></trkpt><trkpt lat="33.97423703954083" lon="-5.000122086400022"><ele>485.0</ele><time>2026-04-27T14:08:11Z</time></trkpt><trkpt lat="33.97437902477735" lon="-5.000162077831529"><ele>485.0</ele><time>2026-04-27T14:08:12Z</time></trkpt><trkpt lat="33.97451965818492" lon="-5.00020105678142"><ele>484.5</ele><time>2026-04-27T14:08:13Z</time></trkpt><trkpt lat="33.9746579718019" lon="-5.000240912773198"><ele>484.0</ele><time>2026-04-27T14:08:14Z</time></trkpt><trkpt lat="33.974795824048584" lon="-5.000281419960212"><ele>483.5</ele><time>2026-04-27T14:08:15Z</time></trkpt><trkpt lat="33.97493484565352" lon="-5.000321609021986"><ele>483.0</ele><time>2026-04-27T14:08:16Z</time></trkpt><trkpt lat="33.97507183640136" lon="-5.000360326921089"><ele>483.0</ele><time>2026-04-27T14:08:17Z</time></trkpt><trkpt lat="33.975209432605055" lon="-5.000398113749754"><ele>483.0</ele><time>2026-04-27T14:08:18Z</time></trkpt><trkpt lat="33.975346470926915" lon="-5.000435595318182"><ele>483.0</ele><time>2026-04-27T14:08:19Z</time></trkpt><trkpt lat="33.97547888948569" lon="-5.0004702086653605"><ele>483.0</ele><time>2026-04-27T14:08:20Z</time></trkpt><trkpt lat="33.97560153256826" lon="-5.000513412918971"><ele>483.0</ele><time>2026-04-27T14:08:21Z</time></trkpt><trkpt lat="33.97572306202524" lon="-5.000546307183918"><ele>483.0</ele><time>2026-04-27T14:08:22Z</time></trkpt><trkpt lat="33.9758430718453" lon="-5.000579572210403"><ele>483.0</ele><time>2026-04-27T14:08:23Z</time></trkpt><trkpt lat="33.97596107301165" lon="-5.000614655313555"><ele>483.0</ele><time>2026-04-27T14:08:24Z</time></trkpt><trkpt lat="33.97607931257155" lon="-5.000651128739022"><ele>482.75</ele><time>2026-04-27T14:08:25Z</time></trkpt><trkpt lat="33.976197593770586" lon="-5.0006853515539555"><ele>482.5</ele><time>2026-04-27T14:08:26Z</time></trkpt><trkpt lat="33.976317300515404" lon="-5.000719476696649"><ele>482.25</ele><time>2026-04-27T14:08:27Z</time></trkpt><trkpt lat="33.976434622011624" lon="-5.000754044236339"><ele>482.0</ele><time>2026-04-27T14:08:28Z</time></trkpt><trkpt lat="33.97655105687087" lon="-5.000782836694136"><ele>482.0</ele><time>2026-04-27T14:08:29Z</time></trkpt><trkpt lat="33.97666672778176" lon="-5.000809227881437"><ele>482.0</ele><time>2026-04-27T14:08:30Z</time></trkpt><trkpt lat="33.97678215288294" lon="-5.000833101691859"><ele>482.0</ele><time>2026-04-27T14:08:31Z</time></trkpt><trkpt lat="33.976894804765685" lon="-5.00085988219943"><ele>482.0</ele><time>2026-04-27T14:08:32Z</time></trkpt><trkpt lat="33.97700987449606" lon="-5.000882505712736"><ele>481.6</ele><time>2026-04-27T14:08:33Z</time></trkpt><trkpt lat="33.97712496972686" lon="-5.000903055687173"><ele>481.20000000000005</ele><time>2026-04-27T14:08:34Z</time></trkpt><trkpt lat="33.97724026980476" lon="-5.000920058561345"><ele>480.8</ele><time>2026-04-27T14:08:35Z</time></trkpt><trkpt lat="33.97735313753623" lon="-5.000934779935028"><ele>480.4</ele><time>2026-04-27T14:08:36Z</time></trkpt><trkpt lat="33.97745507268453" lon="-5.000946440223803"><ele>480.0</ele><time>2026-04-27T14:08:37Z</time></trkpt><trkpt lat="33.97754564501083" lon="-5.0009563916474"><ele>479.8333333333333</ele><time>2026-04-27T14:08:38Z</time></trkpt><trkpt lat="33.97762665294919" lon="-5.000965910058495"><ele>479.66666666666663</ele><time>2026-04-27T14:08:39Z</time></trkpt><trkpt lat="33.97769782574734" lon="-5.000972758363567"><ele>479.5</ele><time>2026-04-27T14:08:40Z</time></trkpt><trkpt lat="33.97779774869015" lon="-5.000974805512751"><ele>479.3333333333333</ele><time>2026-04-27T14:08:42Z</time></trkpt><trkpt lat="33.977876639549656" lon="-5.000959144764347"><ele>479.16666666666663</ele><time>2026-04-27T14:08:59.999Z</time></trkpt><trkpt lat="33.97798161399979" lon="-5.000960186784193"><ele>479.0</ele><time>2026-04-27T14:09:01.999Z</time></trkpt><trkpt lat="33.9780668977131" lon="-5.0009509556852265"><ele>479.0</ele><time>2026-04-27T14:09:02.999Z</time></trkpt><trkpt lat="33.978168042830646" lon="-5.000946357803602"><ele>479.0</ele><time>2026-04-27T14:09:03.999Z</time></trkpt><trkpt lat="33.978274596474485" lon="-5.000936262221684"><ele>479.0</ele><time>2026-04-27T14:09:04.999Z</time></trkpt><trkpt lat="33.97839121183929" lon="-5.000921375922999"><ele>479.0</ele><time>2026-04-27T14:09:05.999Z</time></trkpt><trkpt lat="33.9785185943327" lon="-5.000902026685412"><ele>478.75</ele><time>2026-04-27T14:09:06.999Z</time></trkpt><trkpt lat="33.97865821855987" lon="-5.0008759697464615"><ele>478.5</ele><time>2026-04-27T14:09:07.999Z</time></trkpt><trkpt lat="33.97880436215255" lon="-5.000843871429709"><ele>478.25</ele><time>2026-04-27T14:09:08.999Z</time></trkpt><trkpt lat="33.978955001385955" lon="-5.000807862960879"><ele>478.0</ele><time>2026-04-27T14:09:09.999Z</time></trkpt><trkpt lat="33.979111874016155" lon="-5.000761865085593"><ele>478.33333333333337</ele><time>2026-04-27T14:09:10.999Z</time></trkpt><trkpt lat="33.97927111668655" lon="-5.000707109975483"><ele>478.66666666666663</ele><time>2026-04-27T14:09:11.999Z</time></trkpt><trkpt lat="33.97942566086179" lon="-5.0006465407830865"><ele>479.0</ele><time>2026-04-27T14:09:12.999Z</time></trkpt><trkpt lat="33.97958079628994" lon="-5.000582536384142"><ele>479.0</ele><time>2026-04-27T14:09:13.999Z</time></trkpt><trkpt lat="33.97973458756474" lon="-5.000519633032668"><ele>479.0</ele><time>2026-04-27T14:09:14.999Z</time></trkpt><trkpt lat="33.9798871969658" lon="-5.000458171895684"><ele>479.0</ele><time>2026-04-27T14:09:15.999Z</time></trkpt><trkpt lat="33.98004439964959" lon="-5.000395816466578"><ele>478.3333333333333</ele><time>2026-04-27T14:09:16.999Z</time></trkpt><trkpt lat="33.980202630445916" lon="-5.000331799780315"><ele>477.66666666666663</ele><time>2026-04-27T14:09:17.999Z</time></trkpt><trkpt lat="33.98036709005653" lon="-5.00026496568666"><ele>477.0</ele><time>2026-04-27T14:09:18.999Z</time></trkpt><trkpt lat="33.98053549091924" lon="-5.000191145839175"><ele>477.0</ele><time>2026-04-27T14:09:19.999Z</time></trkpt><trkpt lat="33.98070996002119" lon="-5.000119062553339"><ele>477.0</ele><time>2026-04-27T14:09:20.999Z</time></trkpt><trkpt lat="33.980887103931224" lon="-5.000046021270993"><ele>477.0</ele><time>2026-04-27T14:09:21.999Z</time></trkpt><trkpt lat="33.981063160943926" lon="-4.9999739073468366"><ele>476.33333333333337</ele><time>2026-04-27T14:09:22.999Z</time></trkpt><trkpt lat="33.98124208006569" lon="-4.999902429867888"><ele>475.6666666666667</ele><time>2026-04-27T14:09:23.999Z</time></trkpt><trkpt lat="33.98142227003403" lon="-4.999827724107723"><ele>475.0</ele><time>2026-04-27T14:09:24.999Z</time></trkpt><trkpt lat="33.98160594669608" lon="-4.999751651582491"><ele>474.0</ele><time>2026-04-27T14:09:25.999Z</time></trkpt><trkpt lat="33.981790673375954" lon="-4.999673885470289"><ele>473.0</ele><time>2026-04-27T14:09:26.999Z</time></trkpt><trkpt lat="33.98197663058493" lon="-4.999600837735425"><ele>472.0</ele><time>2026-04-27T14:09:27.999Z</time></trkpt><trkpt lat="33.98216363906256" lon="-4.999521975193056"><ele>472.0</ele><time>2026-04-27T14:09:28.999Z</time></trkpt><trkpt lat="33.98235094005407" lon="-4.999443097687227"><ele>472.0</ele><time>2026-04-27T14:09:29.999Z</time></trkpt><trkpt lat="33.98252772232019" lon="-4.999369702036557"><ele>472.0</ele><time>2026-04-27T14:09:30.999Z</time></trkpt><trkpt lat="33.98269358524952" lon="-4.999301876764442"><ele>471.6666666666667</ele><time>2026-04-27T14:09:31.999Z</time></trkpt><trkpt lat="33.982848824915436" lon="-4.999239605750893"><ele>471.33333333333337</ele><time>2026-04-27T14:09:33Z</time></trkpt><trkpt lat="33.98299259588767" lon="-4.999181228186344"><ele>471.0</ele><time>2026-04-27T14:09:34Z</time></trkpt><trkpt lat="33.9831252703769" lon="-4.999124782791161"><ele>471.0</ele><time>2026-04-27T14:09:35Z</time></trkpt><trkpt lat="33.98324758708457" lon="-4.9990737743336355"><ele>471.0</ele><time>2026-04-27T14:09:36Z</time></trkpt><trkpt lat="33.98336226726782" lon="-4.999026305115045"><ele>471.0</ele><time>2026-04-27T14:09:37Z</time></trkpt><trkpt lat="33.983469005527574" lon="-4.9989830712865295"><ele>471.0</ele><time>2026-04-27T14:09:38Z</time></trkpt><trkpt lat="33.983570449481284" lon="-4.998942017733122"><ele>470.20000000000005</ele><time>2026-04-27T14:09:39Z</time></trkpt><trkpt lat="33.98366886629005" lon="-4.9989018620792"><ele>469.40000000000003</ele><time>2026-04-27T14:09:40Z</time></trkpt><trkpt lat="33.98375930243268" lon="-4.998863853400408"><ele>468.6</ele><time>2026-04-27T14:09:41Z</time></trkpt><trkpt lat="33.98384546439317" lon="-4.998829337306266"><ele>467.8</ele><time>2026-04-27T14:09:42Z</time></trkpt><trkpt lat="33.98392620993926" lon="-4.9987984785747726"><ele>467.0</ele><time>2026-04-27T14:09:43Z</time></trkpt><trkpt lat="33.98400377978268" lon="-4.9987664043143125"><ele>467.0</ele><time>2026-04-27T14:09:44Z</time></trkpt><trkpt lat="33.98407474811224" lon="-4.998736603546243"><ele>467.00000000000006</ele><time>2026-04-27T14:09:45Z</time></trkpt><trkpt lat="33.98413990742305" lon="-4.998709991981093"><ele>467.00000000000006</ele><time>2026-04-27T14:09:46Z</time></trkpt><trkpt lat="33.984201592983744" lon="-4.998684478266896"><ele>467.0</ele><time>2026-04-27T14:09:47Z</time></trkpt><trkpt lat="33.98431700853557" lon="-4.998638080726829"><ele>467.0</ele><time>2026-04-27T14:09:49Z</time></trkpt><trkpt lat="33.98443631092437" lon="-4.998591460434643"><ele>466.3333333333333</ele><time>2026-04-27T14:09:51Z</time></trkpt><trkpt lat="33.984499607142176" lon="-4.99856487518411"><ele>465.66666666666663</ele><time>2026-04-27T14:09:52Z</time></trkpt><trkpt lat="33.984608624640146" lon="-4.99851726360579"><ele>465.0</ele><time>2026-04-27T14:09:54Z</time></trkpt><trkpt lat="33.98469984327848" lon="-4.998482315166666"><ele>464.33333333333337</ele><time>2026-04-27T14:09:56Z</time></trkpt><trkpt lat="33.984774896870896" lon="-4.998451449553447"><ele>463.6666666666667</ele><time>2026-04-27T14:09:58Z</time></trkpt><trkpt lat="33.984851352645975" lon="-4.998421783273003"><ele>463.0</ele><time>2026-04-27T14:10:00Z</time></trkpt><trkpt lat="33.984958107878676" lon="-4.9983799419822"><ele>463.4</ele><time>2026-04-27T14:10:02Z</time></trkpt><trkpt lat="33.985025181172276" lon="-4.9983476379313405"><ele>463.79999999999995</ele><time>2026-04-27T14:10:03Z</time></trkpt><trkpt lat="33.98510307164302" lon="-4.998310825452249"><ele>464.2</ele><time>2026-04-27T14:10:04Z</time></trkpt><trkpt lat="33.985188740064835" lon="-4.998273348575171"><ele>464.6</ele><time>2026-04-27T14:10:05Z</time></trkpt><trkpt lat="33.9852813466774" lon="-4.998234625307986"><ele>465.0</ele><time>2026-04-27T14:10:06Z</time></trkpt><trkpt lat="33.98538209666039" lon="-4.998193286462288"><ele>465.0</ele><time>2026-04-27T14:10:07Z</time></trkpt><trkpt lat="33.98549380407601" lon="-4.998147649833525"><ele>465.0</ele><time>2026-04-27T14:10:08Z</time></trkpt><trkpt lat="33.98561192249711" lon="-4.998101215316329"><ele>465.0</ele><time>2026-04-27T14:10:09Z</time></trkpt><trkpt lat="33.98574084570269" lon="-4.998050161162047"><ele>465.0</ele><time>2026-04-27T14:10:10Z</time></trkpt><trkpt lat="33.98587044080787" lon="-4.997999048111246"><ele>464.75</ele><time>2026-04-27T14:10:11Z</time></trkpt><trkpt lat="33.98600648750125" lon="-4.997946678199387"><ele>464.5</ele><time>2026-04-27T14:10:12Z</time></trkpt><trkpt lat="33.98614586711692" lon="-4.997890545606517"><ele>464.25</ele><time>2026-04-27T14:10:13Z</time></trkpt><trkpt lat="33.98628740079993" lon="-4.997833759389175"><ele>464.0</ele><time>2026-04-27T14:10:14Z</time></trkpt><trkpt lat="33.986429840092555" lon="-4.997774116672088"><ele>464.0</ele><time>2026-04-27T14:10:15Z</time></trkpt><trkpt lat="33.98657016305933" lon="-4.997714775555485"><ele>464.0</ele><time>2026-04-27T14:10:16Z</time></trkpt><trkpt lat="33.98670768448704" lon="-4.9976551460016"><ele>464.0</ele><time>2026-04-27T14:10:17Z</time></trkpt><trkpt lat="33.98684156681242" lon="-4.997595387586373"><ele>464.0</ele><time>2026-04-27T14:10:18Z</time></trkpt><trkpt lat="33.98697535783671" lon="-4.99754216712204"><ele>464.0</ele><time>2026-04-27T14:10:19Z</time></trkpt><trkpt lat="33.987107399385245" lon="-4.997488896125358"><ele>464.0</ele><time>2026-04-27T14:10:20Z</time></trkpt><trkpt lat="33.98723395377428" lon="-4.997434809079911"><ele>464.0</ele><time>2026-04-27T14:10:21Z</time></trkpt><trkpt lat="33.98735880753585" lon="-4.997386941128589"><ele>464.0</ele><time>2026-04-27T14:10:22Z</time></trkpt><trkpt lat="33.98747925464988" lon="-4.997336807942801"><ele>465.0</ele><time>2026-04-27T14:10:23Z</time></trkpt><trkpt lat="33.987597506086566" lon="-4.9972875109517405"><ele>466.0</ele><time>2026-04-27T14:10:24Z</time></trkpt><trkpt lat="33.98771313337199" lon="-4.997241871675018"><ele>467.0</ele><time>2026-04-27T14:10:25Z</time></trkpt><trkpt lat="33.98782993032943" lon="-4.997194785100182"><ele>468.0</ele><time>2026-04-27T14:10:26Z</time></trkpt><trkpt lat="33.98794242844473" lon="-4.997133977177917"><ele>468.0</ele><time>2026-04-27T14:10:26.999Z</time></trkpt><trkpt lat="33.988049336682536" lon="-4.99705840360601"><ele>467.99999999999994</ele><time>2026-04-27T14:10:27.999Z</time></trkpt><trkpt lat="33.98814355136081" lon="-4.996984970405244"><ele>467.99999999999994</ele><time>2026-04-27T14:10:28.999Z</time></trkpt><trkpt lat="33.98823521663185" lon="-4.9969225394983905"><ele>468.0</ele><time>2026-04-27T14:10:29.999Z</time></trkpt><trkpt lat="33.98832728171865" lon="-4.9968810300030855"><ele>468.0</ele><time>2026-04-27T14:10:30.999Z</time></trkpt><trkpt lat="33.98842011822811" lon="-4.996863537330208"><ele>467.59999999999997</ele><time>2026-04-27T14:10:31.999Z</time></trkpt><trkpt lat="33.98851677380956" lon="-4.996858977756411"><ele>467.19999999999993</ele><time>2026-04-27T14:10:32.999Z</time></trkpt><trkpt lat="33.98861948361157" lon="-4.996850638209764"><ele>466.8</ele><time>2026-04-27T14:10:33.999Z</time></trkpt><trkpt lat="33.98872504948958" lon="-4.996828232098068"><ele>466.4</ele><time>2026-04-27T14:10:34.999Z</time></trkpt><trkpt lat="33.98883683219031" lon="-4.996790138771417"><ele>466.0</ele><time>2026-04-27T14:10:35.999Z</time></trkpt><trkpt lat="33.98895330374346" lon="-4.996739344999382"><ele>466.0</ele><time>2026-04-27T14:10:36.999Z</time></trkpt><trkpt lat="33.98907708610747" lon="-4.996682123187815"><ele>466.0</ele><time>2026-04-27T14:10:37.999Z</time></trkpt><trkpt lat="33.9892022923524" lon="-4.996626980303786"><ele>466.0</ele><time>2026-04-27T14:10:38.999Z</time></trkpt><trkpt lat="33.98933178990298" lon="-4.996573759485904"><ele>466.0</ele><time>2026-04-27T14:10:39.999Z</time></trkpt><trkpt lat="33.98946422786768" lon="-4.996516877017301"><ele>465.0</ele><time>2026-04-27T14:10:40.999Z</time></trkpt><trkpt lat="33.98959908705167" lon="-4.996460121261235"><ele>464.0</ele><time>2026-04-27T14:10:41.999Z</time></trkpt><trkpt lat="33.98973348259846" lon="-4.996403821713528"><ele>463.0</ele><time>2026-04-27T14:10:42.999Z</time></trkpt><trkpt lat="33.98986832929544" lon="-4.996347354548932"><ele>462.0</ele><time>2026-04-27T14:10:43.999Z</time></trkpt><trkpt lat="33.989999695421226" lon="-4.9962920618446445"><ele>461.25</ele><time>2026-04-27T14:10:44.999Z</time></trkpt><trkpt lat="33.990127204415295" lon="-4.996240590496336"><ele>460.5</ele><time>2026-04-27T14:10:45.999Z</time></trkpt><trkpt lat="33.99025010899083" lon="-4.996190537303523"><ele>459.75</ele><time>2026-04-27T14:10:46.999Z</time></trkpt><trkpt lat="33.99036930656083" lon="-4.996139131682117"><ele>459.0</ele><time>2026-04-27T14:10:47.999Z</time></trkpt><trkpt lat="33.9904864559909" lon="-4.99608666643167"><ele>459.0</ele><time>2026-04-27T14:10:48.999Z</time></trkpt><trkpt lat="33.99060226724544" lon="-4.996037778408437"><ele>459.0</ele><time>2026-04-27T14:10:49.999Z</time></trkpt><trkpt lat="33.99072390091139" lon="-4.995988944517777"><ele>459.0</ele><time>2026-04-27T14:10:50.999Z</time></trkpt><trkpt lat="33.99084504778843" lon="-4.995938449018844"><ele>459.0</ele><time>2026-04-27T14:10:51.999Z</time></trkpt><trkpt lat="33.990973571760485" lon="-4.995883643798276"><ele>458.75</ele><time>2026-04-27T14:10:52.999Z</time></trkpt><trkpt lat="33.99110657986611" lon="-4.99583050304673"><ele>458.5</ele><time>2026-04-27T14:10:53.999Z</time></trkpt><trkpt lat="33.991243990516" lon="-4.995775922598691"><ele>458.25</ele><time>2026-04-27T14:10:54.999Z</time></trkpt><trkpt lat="33.991385956993646" lon="-4.995719030440344"><ele>458.0</ele><time>2026-04-27T14:10:55.999Z</time></trkpt><trkpt lat="33.99152620738958" lon="-4.995663135460181"><ele>458.0</ele><time>2026-04-27T14:10:56.999Z</time></trkpt><trkpt lat="33.99165746953064" lon="-4.995611075072389"><ele>458.0</ele><time>2026-04-27T14:10:57.999Z</time></trkpt><trkpt lat="33.99178163280084" lon="-4.995566182368551"><ele>458.0</ele><time>2026-04-27T14:10:58.999Z</time></trkpt><trkpt lat="33.99190012938476" lon="-4.9955171175068624"><ele>458.0</ele><time>2026-04-27T14:10:59.999Z</time></trkpt><trkpt lat="33.99201473027822" lon="-4.995467755567597"><ele>457.5</ele><time>2026-04-27T14:11:00.999Z</time></trkpt><trkpt lat="33.99213049141594" lon="-4.9954254138057195"><ele>457.0</ele><time>2026-04-27T14:11:01.999Z</time></trkpt><trkpt lat="33.99224402511514" lon="-4.995384462028177"><ele>456.5</ele><time>2026-04-27T14:11:02.999Z</time></trkpt><trkpt lat="33.992360242904404" lon="-4.995340794353418"><ele>456.0</ele><time>2026-04-27T14:11:03.999Z</time></trkpt><trkpt lat="33.99248264515348" lon="-4.995292381825487"><ele>455.5</ele><time>2026-04-27T14:11:04.999Z</time></trkpt><trkpt lat="33.99260968091656" lon="-4.995246666488678"><ele>455.0</ele><time>2026-04-27T14:11:05.999Z</time></trkpt><trkpt lat="33.99272950248869" lon="-4.995194302289331"><ele>454.5</ele><time>2026-04-27T14:11:06.999Z</time></trkpt><trkpt lat="33.9928451103678" lon="-4.995141859740755"><ele>454.0</ele><time>2026-04-27T14:11:07.999Z</time></trkpt><trkpt lat="33.9929522140667" lon="-4.995092911731166"><ele>454.0</ele><time>2026-04-27T14:11:08.999Z</time></trkpt><trkpt lat="33.993049589604524" lon="-4.995049454792008"><ele>454.0</ele><time>2026-04-27T14:11:09.999Z</time></trkpt><trkpt lat="33.993132088771546" lon="-4.995010728496756"><ele>454.0</ele><time>2026-04-27T14:11:10.999Z</time></trkpt><trkpt lat="33.99319697705491" lon="-4.9949774860246"><ele>454.0</ele><time>2026-04-27T14:11:11.999Z</time></trkpt><trkpt lat="33.993281707007505" lon="-4.994927320740976"><ele>454.0</ele><time>2026-04-27T14:11:13.999Z</time></trkpt><trkpt lat="33.99337259513643" lon="-4.994868208125544"><ele>453.79999999999995</ele><time>2026-04-27T14:12:00.999Z</time></trkpt><trkpt lat="33.99346745124917" lon="-4.994810193810068"><ele>453.59999999999997</ele><time>2026-04-27T14:12:02.999Z</time></trkpt><trkpt lat="33.99357569080286" lon="-4.994750786337558"><ele>453.4</ele><time>2026-04-27T14:12:04.999Z</time></trkpt><trkpt lat="33.99363852934557" lon="-4.994712422630555"><ele>453.2</ele><time>2026-04-27T14:12:05.999Z</time></trkpt><trkpt lat="33.99370843202324" lon="-4.994670668466977"><ele>453.0</ele><time>2026-04-27T14:12:06.999Z</time></trkpt><trkpt lat="33.993782950698005" lon="-4.994624661085663"><ele>453.0</ele><time>2026-04-27T14:12:07.999Z</time></trkpt><trkpt lat="33.99385886219603" lon="-4.9945791422107995"><ele>452.99999999999994</ele><time>2026-04-27T14:12:08.999Z</time></trkpt><trkpt lat="33.993938737065896" lon="-4.994528468508515"><ele>452.99999999999994</ele><time>2026-04-27T14:12:09.999Z</time></trkpt><trkpt lat="33.99402153805201" lon="-4.994474452098833"><ele>453.0</ele><time>2026-04-27T14:12:10.999Z</time></trkpt><trkpt lat="33.99410992954042" lon="-4.99441443339271"><ele>453.0</ele><time>2026-04-27T14:12:11.999Z</time></trkpt><trkpt lat="33.99420776637928" lon="-4.994350407876337"><ele>453.5</ele><time>2026-04-27T14:12:12.999Z</time></trkpt><trkpt lat="33.99430818652462" lon="-4.994275031965136"><ele>454.0</ele><time>2026-04-27T14:12:13.999Z</time></trkpt><trkpt lat="33.994411212542865" lon="-4.994196376579922"><ele>454.5</ele><time>2026-04-27T14:12:14.999Z</time></trkpt><trkpt lat="33.99451772906593" lon="-4.994112186415369"><ele>455.0</ele><time>2026-04-27T14:12:15.999Z</time></trkpt><trkpt lat="33.99462273908075" lon="-4.994023146145804"><ele>455.0</ele><time>2026-04-27T14:12:16.999Z</time></trkpt><trkpt lat="33.994726498541525" lon="-4.993934389127267"><ele>455.0</ele><time>2026-04-27T14:12:17.999Z</time></trkpt><trkpt lat="33.99482799520441" lon="-4.993844440852674"><ele>455.0</ele><time>2026-04-27T14:12:18.999Z</time></trkpt><trkpt lat="33.99493352371601" lon="-4.993758450678763"><ele>455.0</ele><time>2026-04-27T14:12:19.999Z</time></trkpt><trkpt lat="33.995038584191896" lon="-4.993668728000419"><ele>454.75</ele><time>2026-04-27T14:12:20.999Z</time></trkpt><trkpt lat="33.99514185108315" lon="-4.993578263545437"><ele>454.5</ele><time>2026-04-27T14:12:21.999Z</time></trkpt><trkpt lat="33.99524362700766" lon="-4.993487581756482"><ele>454.25</ele><time>2026-04-27T14:12:22.999Z</time></trkpt><trkpt lat="33.99535186102658" lon="-4.993393127328187"><ele>454.0</ele><time>2026-04-27T14:12:23.999Z</time></trkpt><trkpt lat="33.99546305745042" lon="-4.9932982782022854"><ele>454.0</ele><time>2026-04-27T14:12:24.999Z</time></trkpt><trkpt lat="33.99557575360972" lon="-4.993201579123324"><ele>454.0</ele><time>2026-04-27T14:12:25.999Z</time></trkpt><trkpt lat="33.995689566865614" lon="-4.993102484922582"><ele>454.0</ele><time>2026-04-27T14:12:26.999Z</time></trkpt><trkpt lat="33.995805011292596" lon="-4.993002673209277"><ele>454.0</ele><time>2026-04-27T14:12:27.999Z</time></trkpt><trkpt lat="33.995920850611526" lon="-4.992900826228902"><ele>453.5</ele><time>2026-04-27T14:12:28.999Z</time></trkpt><trkpt lat="33.996038608773894" lon="-4.99279718596495"><ele>453.0</ele><time>2026-04-27T14:12:29.999Z</time></trkpt><trkpt lat="33.99615924488955" lon="-4.992690994486834"><ele>452.5</ele><time>2026-04-27T14:12:30.999Z</time></trkpt><trkpt lat="33.99628257102154" lon="-4.992583115146589"><ele>452.0</ele><time>2026-04-27T14:12:31.999Z</time></trkpt><trkpt lat="33.99640825729473" lon="-4.992471884777319"><ele>452.3333333333333</ele><time>2026-04-27T14:12:32.999Z</time></trkpt><trkpt lat="33.99653583189358" lon="-4.992359630149208"><ele>452.66666666666663</ele><time>2026-04-27T14:12:33.999Z</time></trkpt><trkpt lat="33.996662370071576" lon="-4.99225057301151"><ele>453.0</ele><time>2026-04-27T14:12:34.999Z</time></trkpt><trkpt lat="33.99678881011385" lon="-4.992139765403591"><ele>453.0</ele><time>2026-04-27T14:12:35.999Z</time></trkpt><trkpt lat="33.996913939139276" lon="-4.992027721635711"><ele>453.0</ele><time>2026-04-27T14:12:36.999Z</time></trkpt><trkpt lat="33.99703815235383" lon="-4.991914993026327"><ele>453.0</ele><time>2026-04-27T14:12:37.999Z</time></trkpt><trkpt lat="33.99716291528337" lon="-4.991799832152622"><ele>453.0</ele><time>2026-04-27T14:12:38.999Z</time></trkpt><trkpt lat="33.99729249287389" lon="-4.991681672756549"><ele>453.0</ele><time>2026-04-27T14:12:39.999Z</time></trkpt><trkpt lat="33.997423783896" lon="-4.991560450051581"><ele>453.0</ele><time>2026-04-27T14:12:40.999Z</time></trkpt><trkpt lat="33.997558116198576" lon="-4.991440894698203"><ele>451.33333333333337</ele><time>2026-04-27T14:12:41.999Z</time></trkpt><trkpt lat="33.997691901770736" lon="-4.9913194464165"><ele>449.6666666666667</ele><time>2026-04-27T14:12:42.999Z</time></trkpt><trkpt lat="33.9978269117202" lon="-4.991197216094083"><ele>448.0</ele><time>2026-04-27T14:12:43.999Z</time></trkpt><trkpt lat="33.99795993094122" lon="-4.991077935058984"><ele>448.0</ele><time>2026-04-27T14:12:44.999Z</time></trkpt><trkpt lat="33.99809314989619" lon="-4.990959149768213"><ele>448.0</ele><time>2026-04-27T14:12:45.999Z</time></trkpt><trkpt lat="33.99822626190106" lon="-4.990851012938958"><ele>448.0</ele><time>2026-04-27T14:12:46.999Z</time></trkpt><trkpt lat="33.998349342624614" lon="-4.990745801727145"><ele>447.75</ele><time>2026-04-27T14:12:47.999Z</time></trkpt><trkpt lat="33.99846670542809" lon="-4.990650407607058"><ele>447.5</ele><time>2026-04-27T14:12:48.999Z</time></trkpt><trkpt lat="33.998584900389865" lon="-4.990562210855336"><ele>447.25</ele><time>2026-04-27T14:12:49.999Z</time></trkpt><trkpt lat="33.998703295509586" lon="-4.990478121164708"><ele>447.0</ele><time>2026-04-27T14:12:50.999Z</time></trkpt><trkpt lat="33.99882729889986" lon="-4.99040202160432"><ele>447.0</ele><time>2026-04-27T14:12:51.999Z</time></trkpt><trkpt lat="33.99895801599734" lon="-4.990332212516581"><ele>447.0</ele><time>2026-04-27T14:12:52.999Z</time></trkpt><trkpt lat="33.99908976514766" lon="-4.990264507903093"><ele>447.0</ele><time>2026-04-27T14:12:53.999Z</time></trkpt><trkpt lat="33.99922437502161" lon="-4.990203874133926"><ele>447.0</ele><time>2026-04-27T14:12:54.999Z</time></trkpt><trkpt lat="33.99935889763646" lon="-4.990148420115626"><ele>447.0</ele><time>2026-04-27T14:12:55.999Z</time></trkpt><trkpt lat="33.99949636108049" lon="-4.990096876629133"><ele>447.0</ele><time>2026-04-27T14:12:56.999Z</time></trkpt><trkpt lat="33.99963874704962" lon="-4.99005071408265"><ele>447.0</ele><time>2026-04-27T14:12:57.999Z</time></trkpt><trkpt lat="33.99978597146337" lon="-4.990011980003432"><ele>447.0</ele><time>2026-04-27T14:12:58.999Z</time></trkpt><trkpt lat="33.99993328854128" lon="-4.9899797977186005"><ele>448.0</ele><time>2026-04-27T14:12:59.999Z</time></trkpt><trkpt lat="34.00008166814286" lon="-4.989951585719479"><ele>449.0</ele><time>2026-04-27T14:13:00.999Z</time></trkpt><trkpt lat="34.000232215241255" lon="-4.989931806784478"><ele>450.0</ele><time>2026-04-27T14:13:01.999Z</time></trkpt><trkpt lat="34.00038419043545" lon="-4.989917300280943"><ele>450.0</ele><time>2026-04-27T14:13:02.999Z</time></trkpt><trkpt lat="34.00053931609206" lon="-4.989912090174276"><ele>450.0</ele><time>2026-04-27T14:13:03.999Z</time></trkpt><trkpt lat="33.99615924488955" lon="-4.992690994486834"><ele>450.66666666666663</ele><time>2026-04-27T14:12:30.999Z</time></trkpt><trkpt lat="33.99628257102154" lon="-4.992583115146589"><ele>451.3333333333333</ele><time>2026-04-27T14:12:31.999Z</time></trkpt><trkpt lat="33.99640825729473" lon="-4.992471884777319"><ele>452.0</ele><time>2026-04-27T14:12:32.999Z</time></trkpt><trkpt lat="33.99653583189358" lon="-4.992359630149208"><ele>452.3333333333333</ele><time>2026-04-27T14:12:33.999Z</time></trkpt><trkpt lat="33.996662370071576" lon="-4.99225057301151"><ele>452.66666666666663</ele><time>2026-04-27T14:12:34.999Z</time></trkpt><trkpt lat="33.99678881011385" lon="-4.992139765403591"><ele>453.0</ele><time>2026-04-27T14:12:35.999Z</time></trkpt><trkpt lat="33.996913939139276" lon="-4.992027721635711"><ele>453.0</ele><time>2026-04-27T14:12:36.999Z</time></trkpt><trkpt lat="33.99703815235383" lon="-4.991914993026327"><ele>453.0</ele><time>2026-04-27T14:12:37.999Z</time></trkpt><trkpt lat="33.99716291528337" lon="-4.991799832152622"><ele>453.0</ele><time>2026-04-27T14:12:38.999Z</time></trkpt><trkpt lat="33.99729249287389" lon="-4.991681672756549"><ele>452.66666666666663</ele><time>2026-04-27T14:12:39.999Z</time></trkpt><trkpt lat="33.997423783896" lon="-4.991560450051581"><ele>452.3333333333333</ele><time>2026-04-27T14:12:40.999Z</time></trkpt><trkpt lat="33.997558116198576" lon="-4.991440894698203"><ele>452.0</ele><time>2026-04-27T14:12:41.999Z</time></trkpt><trkpt lat="33.997691901770736" lon="-4.9913194464165"><ele>450.66666666666663</ele><time>2026-04-27T14:12:42.999Z</time></trkpt><trkpt lat="33.9978269117202" lon="-4.991197216094083"><ele>449.33333333333337</ele><time>2026-04-27T14:12:43.999Z</time></trkpt><trkpt lat="33.99795993094122" lon="-4.991077935058984"><ele>448.0</ele><time>2026-04-27T14:12:44.999Z</time></trkpt><trkpt lat="33.99809314989619" lon="-4.990959149768213"><ele>448.0</ele><time>2026-04-27T14:12:45.999Z</time></trkpt><trkpt lat="33.99822626190106" lon="-4.990851012938958"><ele>448.0</ele><time>2026-04-27T14:12:46.999Z</time></trkpt><trkpt lat="33.998349342624614" lon="-4.990745801727145"><ele>448.0</ele><time>2026-04-27T14:12:47.999Z</time></trkpt><trkpt lat="33.99846670542809" lon="-4.990650407607058"><ele>447.75</ele><time>2026-04-27T14:12:48.999Z</time></trkpt><trkpt lat="33.998584900389865" lon="-4.990562210855336"><ele>447.5</ele><time>2026-04-27T14:12:49.999Z</time></trkpt><trkpt lat="33.998703295509586" lon="-4.990478121164708"><ele>447.25</ele><time>2026-04-27T14:12:50.999Z</time></trkpt><trkpt lat="33.99882729889986" lon="-4.99040202160432"><ele>447.0</ele><time>2026-04-27T14:12:51.999Z</time></trkpt><trkpt lat="33.99895801599734" lon="-4.990332212516581"><ele>447.0</ele><time>2026-04-27T14:12:52.999Z</time></trkpt><trkpt lat="33.99908976514766" lon="-4.990264507903093"><ele>447.0</ele><time>2026-04-27T14:12:53.999Z</time></trkpt><trkpt lat="33.99922437502161" lon="-4.990203874133926"><ele>447.0</ele><time>2026-04-27T14:12:54.999Z</time></trkpt><trkpt lat="33.99935889763646" lon="-4.990148420115626"><ele>447.0</ele><time>2026-04-27T14:12:55.999Z</time></trkpt><trkpt lat="33.99949636108049" lon="-4.990096876629133"><ele>447.0</ele><time>2026-04-27T14:12:56.999Z</time></trkpt><trkpt lat="33.99963874704962" lon="-4.99005071408265"><ele>447.0</ele><time>2026-04-27T14:12:57.999Z</time></trkpt><trkpt lat="33.99978597146337" lon="-4.990011980003432"><ele>447.0</ele><time>2026-04-27T14:12:58.999Z</time></trkpt><trkpt lat="33.99993328854128" lon="-4.9899797977186005"><ele>447.0</ele><time>2026-04-27T14:12:59.999Z</time></trkpt><trkpt lat="34.00008166814286" lon="-4.989951585719479"><ele>448.0</ele><time>2026-04-27T14:13:00.999Z</time></trkpt><trkpt lat="34.000232215241255" lon="-4.989931806784478"><ele>449.0</ele><time>2026-04-27T14:13:01.999Z</time></trkpt><trkpt lat="34.00038419043545" lon="-4.989917300280943"><ele>450.0</ele><time>2026-04-27T14:13:02.999Z</time></trkpt><trkpt lat="34.00053931609206" lon="-4.989912090174276"><ele>450.0</ele><time>2026-04-27T14:13:03.999Z</time></trkpt><trkpt lat="34.00069400563926" lon="-4.989916532036144"><ele>450.0</ele><time>2026-04-27T14:13:04.999Z</time></trkpt><trkpt lat="34.00084111839707" lon="-4.989926669138212"><ele>450.0</ele><time>2026-04-27T14:13:05.999Z</time></trkpt><trkpt lat="34.00098484773594" lon="-4.989944229366539"><ele>450.0</ele><time>2026-04-27T14:13:06.999Z</time></trkpt><trkpt lat="34.001122291185716" lon="-4.9899693806910665"><ele>449.5</ele><time>2026-04-27T14:13:07.999Z</time></trkpt><trkpt lat="34.001250649043044" lon="-4.989998861813154"><ele>449.0</ele><time>2026-04-27T14:13:08.999Z</time></trkpt><trkpt lat="34.00137082243326" lon="-4.990034077725422"><ele>448.5</ele><time>2026-04-27T14:13:09.999Z</time></trkpt><trkpt lat="34.00147996612" lon="-4.9900723878822015"><ele>448.0</ele><time>2026-04-27T14:13:10.999Z</time></trkpt><trkpt lat="34.00157980252405" lon="-4.99011241596098"><ele>447.1666666666667</ele><time>2026-04-27T14:13:11.999Z</time></trkpt><trkpt lat="34.00166715670774" lon="-4.990152423925138"><ele>446.33333333333337</ele><time>2026-04-27T14:13:12.999Z</time></trkpt><trkpt lat="34.001740649831575" lon="-4.990188161925878"><ele>445.5</ele><time>2026-04-27T14:13:13.999Z</time></trkpt><trkpt lat="34.001844721174784" lon="-4.990236687313256"><ele>444.66666666666663</ele><time>2026-04-27T14:13:15.999Z</time></trkpt><trkpt lat="34.001924652251475" lon="-4.990271163663625"><ele>443.8333333333333</ele><time>2026-04-27T14:13:17.999Z</time></trkpt><trkpt lat="34.00198500844915" lon="-4.990304594983999"><ele>443.0</ele><time>2026-04-27T14:13:19.999Z</time></trkpt><trkpt lat="34.002045149450005" lon="-4.990344837879337"><ele>442.99999999999994</ele><time>2026-04-27T14:13:30.999Z</time></trkpt><trkpt lat="34.00214790611196" lon="-4.990408440848137"><ele>443.0</ele><time>2026-04-27T14:13:32.999Z</time></trkpt><trkpt lat="34.00220968532952" lon="-4.990448527225677"><ele>443.0</ele><time>2026-04-27T14:13:33.999Z</time></trkpt><trkpt lat="34.00227840458576" lon="-4.990489517950358"><ele>443.0</ele><time>2026-04-27T14:13:34.999Z</time></trkpt><trkpt lat="34.00235306823218" lon="-4.990540587021905"><ele>442.99999999999994</ele><time>2026-04-27T14:13:35.999Z</time></trkpt><trkpt lat="34.00242881965437" lon="-4.990597612845563"><ele>443.0</ele><time>2026-04-27T14:13:36.999Z</time></trkpt><trkpt lat="34.00250740842802" lon="-4.990656900171772"><ele>443.0</ele><time>2026-04-27T14:13:37.999Z</time></trkpt><trkpt lat="34.002581158730344" lon="-4.990719588686106"><ele>442.99999999999994</ele><time>2026-04-27T14:13:38.999Z</time></trkpt><trkpt lat="34.00265910091272" lon="-4.990791253744437"><ele>442.99999999999994</ele><time>2026-04-27T14:13:39.999Z</time></trkpt><trkpt lat="34.00273910693614" lon="-4.990860116928384"><ele>443.0</ele><time>2026-04-27T14:13:40.999Z</time></trkpt><trkpt lat="34.00282200288252" lon="-4.990931534112175"><ele>443.0</ele><time>2026-04-27T14:13:41.999Z</time></trkpt><trkpt lat="34.00290431985344" lon="-4.991009308147852"><ele>443.0</ele><time>2026-04-27T14:13:42.999Z</time></trkpt><trkpt lat="34.0029902458391" lon="-4.991090575767059"><ele>443.0</ele><time>2026-04-27T14:13:43.999Z</time></trkpt><trkpt lat="34.003079256890786" lon="-4.991176049589559"><ele>443.0</ele><time>2026-04-27T14:13:44.999Z</time></trkpt><trkpt lat="34.00317470787421" lon="-4.9912656724868025"><ele>443.0</ele><time>2026-04-27T14:13:45.999Z</time></trkpt><trkpt lat="34.00327881534172" lon="-4.9913569137198985"><ele>443.5</ele><time>2026-04-27T14:13:46.999Z</time></trkpt><trkpt lat="34.003384088764015" lon="-4.9914494114261325"><ele>444.0</ele><time>2026-04-27T14:13:47.999Z</time></trkpt><trkpt lat="34.00348756935232" lon="-4.991544488354644"><ele>444.5</ele><time>2026-04-27T14:13:48.999Z</time></trkpt><trkpt lat="34.00359231299594" lon="-4.9916419368298035"><ele>445.0</ele><time>2026-04-27T14:13:49.999Z</time></trkpt><trkpt lat="34.00370113083592" lon="-4.991736040144142"><ele>445.0</ele><time>2026-04-27T14:13:50.999Z</time></trkpt><trkpt lat="34.003810969573536" lon="-4.991833462758613"><ele>445.0</ele><time>2026-04-27T14:13:51.999Z</time></trkpt><trkpt lat="34.00392092801334" lon="-4.991933638441306"><ele>445.0</ele><time>2026-04-27T14:13:52.999Z</time></trkpt><trkpt lat="34.00403422337565" lon="-4.992031219648478"><ele>445.0</ele><time>2026-04-27T14:13:53.999Z</time></trkpt><trkpt lat="34.00414902343746" lon="-4.992128178277631"><ele>444.5</ele><time>2026-04-27T14:13:54.999Z</time></trkpt><trkpt lat="34.0042621701511" lon="-4.992225362682511"><ele>444.0</ele><time>2026-04-27T14:13:55.999Z</time></trkpt><trkpt lat="34.00437477705634" lon="-4.992321288380805"><ele>443.5</ele><time>2026-04-27T14:13:56.999Z</time></trkpt><trkpt lat="34.004487524966194" lon="-4.992415583071233"><ele>443.0</ele><time>2026-04-27T14:13:57.999Z</time></trkpt><trkpt lat="34.00459538605056" lon="-4.992506120982155"><ele>442.79999999999995</ele><time>2026-04-27T14:13:58.999Z</time></trkpt><trkpt lat="34.004696242054294" lon="-4.992588945831762"><ele>442.59999999999997</ele><time>2026-04-27T14:13:59.999Z</time></trkpt><trkpt lat="34.00478988781303" lon="-4.992662876259245"><ele>442.40000000000003</ele><time>2026-04-27T14:14:00.999Z</time></trkpt><trkpt lat="34.0048786126471" lon="-4.992727784303476"><ele>442.20000000000005</ele><time>2026-04-27T14:14:01.999Z</time></trkpt><trkpt lat="34.00495838800546" lon="-4.992785929284141"><ele>442.0</ele><time>2026-04-27T14:14:02.999Z</time></trkpt><trkpt lat="34.005026614062686" lon="-4.992835007377745"><ele>442.0</ele><time>2026-04-27T14:14:03.999Z</time></trkpt><trkpt lat="34.005120283994785" lon="-4.992900969650423"><ele>442.00000000000006</ele><time>2026-04-27T14:14:05.999Z</time></trkpt><trkpt lat="34.005184484941246" lon="-4.9929415083623345"><ele>442.00000000000006</ele><time>2026-04-27T14:14:08.999Z</time></trkpt><trkpt lat="34.00527136165312" lon="-4.992986876121456"><ele>442.0</ele><time>2026-04-27T14:14:22.999Z</time></trkpt><trkpt lat="34.00538360441818" lon="-4.993056778745381"><ele>442.0</ele><time>2026-04-27T14:14:24.999Z</time></trkpt><trkpt lat="34.00544662635364" lon="-4.993097965415868"><ele>442.00000000000006</ele><time>2026-04-27T14:14:25.999Z</time></trkpt><trkpt lat="34.00551056246604" lon="-4.993142959915008"><ele>442.0</ele><time>2026-04-27T14:14:26.999Z</time></trkpt><trkpt lat="34.00557612511563" lon="-4.993191653864421"><ele>442.0</ele><time>2026-04-27T14:14:27.999Z</time></trkpt><trkpt lat="34.005653511118304" lon="-4.993243988468023"><ele>442.0</ele><time>2026-04-27T14:14:28.999Z</time></trkpt><trkpt lat="34.00573311640281" lon="-4.993296214486806"><ele>442.00000000000006</ele><time>2026-04-27T14:14:29.999Z</time></trkpt><trkpt lat="34.00581835379164" lon="-4.9933479165512455"><ele>442.0</ele><time>2026-04-27T14:14:30.999Z</time></trkpt><trkpt lat="34.00590848445679" lon="-4.993404272691581"><ele>441.0</ele><time>2026-04-27T14:14:31.999Z</time></trkpt><trkpt lat="34.00600340376848" lon="-4.993466114640357"><ele>440.0</ele><time>2026-04-27T14:14:32.999Z</time></trkpt><trkpt lat="34.006105107451646" lon="-4.993527929374317"><ele>439.0</ele><time>2026-04-27T14:14:33.999Z</time></trkpt><trkpt lat="34.00620950339385" lon="-4.993594151352553"><ele>438.0</ele><time>2026-04-27T14:14:34.999Z</time></trkpt><trkpt lat="34.0063161534131" lon="-4.993662374891609"><ele>438.0</ele><time>2026-04-27T14:14:35.999Z</time></trkpt><trkpt lat="34.00642208004404" lon="-4.993729472136546"><ele>438.0</ele><time>2026-04-27T14:14:36.999Z</time></trkpt><trkpt lat="34.00652799131686" lon="-4.993796940221222"><ele>438.0</ele><time>2026-04-27T14:14:37.999Z</time></trkpt><trkpt lat="34.00663399277948" lon="-4.993865399103575"><ele>438.0</ele><time>2026-04-27T14:14:38.999Z</time></trkpt><trkpt lat="34.00674235391313" lon="-4.993934838795303"><ele>438.25</ele><time>2026-04-27T14:14:39.999Z</time></trkpt><trkpt lat="34.00685443048877" lon="-4.994005015032559"><ele>438.5</ele><time>2026-04-27T14:14:40.999Z</time></trkpt><trkpt lat="34.00697066804473" lon="-4.9940769493287185"><ele>438.75</ele><time>2026-04-27T14:14:41.999Z</time></trkpt><trkpt lat="34.007087834050644" lon="-4.994149845621102"><ele>439.0</ele><time>2026-04-27T14:14:42.999Z</time></trkpt><trkpt lat="34.00720296986876" lon="-4.994226522773886"><ele>438.5</ele><time>2026-04-27T14:14:43.999Z</time></trkpt><trkpt lat="34.007322965266845" lon="-4.994302299270003"><ele>438.0</ele><time>2026-04-27T14:14:44.999Z</time></trkpt><trkpt lat="34.007444743496265" lon="-4.994378968230152"><ele>437.5</ele><time>2026-04-27T14:14:45.999Z</time></trkpt><trkpt lat="34.007567826789305" lon="-4.994457344601485"><ele>437.0</ele><time>2026-04-27T14:14:46.999Z</time></trkpt><trkpt lat="34.00768971600818" lon="-4.9945335805116065"><ele>437.0</ele><time>2026-04-27T14:14:47.999Z</time></trkpt><trkpt lat="34.00781013188996" lon="-4.99460777748075"><ele>437.0</ele><time>2026-04-27T14:14:48.999Z</time></trkpt><trkpt lat="34.00792903265804" lon="-4.994682395070647"><ele>437.0</ele><time>2026-04-27T14:14:49.999Z</time></trkpt><trkpt lat="34.00804831455076" lon="-4.994748891173705"><ele>437.0</ele><time>2026-04-27T14:14:50.999Z</time></trkpt><trkpt lat="34.008162346852366" lon="-4.994818828156577"><ele>437.0</ele><time>2026-04-27T14:14:51.999Z</time></trkpt><trkpt lat="34.00827440188562" lon="-4.994888330922749"><ele>437.0</ele><time>2026-04-27T14:14:52.999Z</time></trkpt><trkpt lat="34.00838525350814" lon="-4.994957315556731"><ele>437.0</ele><time>2026-04-27T14:14:53.999Z</time></trkpt><trkpt lat="34.0084987210853" lon="-4.995029679182262"><ele>437.0</ele><time>2026-04-27T14:14:54.999Z</time></trkpt><trkpt lat="34.00861618113009" lon="-4.99509931807115"><ele>436.75</ele><time>2026-04-27T14:14:55.999Z</time></trkpt><trkpt lat="34.008740139970534" lon="-4.99517205018522"><ele>436.5</ele><time>2026-04-27T14:14:56.999Z</time></trkpt><trkpt lat="34.00886843196113" lon="-4.995247688160959"><ele>436.25</ele><time>2026-04-27T14:14:57.999Z</time></trkpt><trkpt lat="34.009000073201825" lon="-4.995324720524713"><ele>436.0</ele><time>2026-04-27T14:14:58.999Z</time></trkpt><trkpt lat="34.009138171206295" lon="-4.995402334637641"><ele>436.0</ele><time>2026-04-27T14:14:59.999Z</time></trkpt><trkpt lat="34.0092814255617" lon="-4.9954838794542695"><ele>436.0</ele><time>2026-04-27T14:15:00.999Z</time></trkpt><trkpt lat="34.00941822235332" lon="-4.995567463382662"><ele>436.0</ele><time>2026-04-27T14:15:01.999Z</time></trkpt><trkpt lat="34.00954795374785" lon="-4.9956486396853945"><ele>436.0</ele><time>2026-04-27T14:15:02.999Z</time></trkpt><trkpt lat="34.00968002753224" lon="-4.9957317008090145"><ele>436.0</ele><time>2026-04-27T14:15:03.999Z</time></trkpt><trkpt lat="34.00980759246336" lon="-4.995813700705662"><ele>436.0</ele><time>2026-04-27T14:15:04.999Z</time></trkpt><trkpt lat="34.009939757992825" lon="-4.995894659707006"><ele>436.0</ele><time>2026-04-27T14:15:05.999Z</time></trkpt><trkpt lat="34.010073279336574" lon="-4.995974515881957"><ele>436.0</ele><time>2026-04-27T14:15:06.999Z</time></trkpt><trkpt lat="34.01020690816202" lon="-4.996051511894089"><ele>436.0</ele><time>2026-04-27T14:15:07.999Z</time></trkpt><trkpt lat="34.010344420065465" lon="-4.996129711108508"><ele>436.0</ele><time>2026-04-27T14:15:08.999Z</time></trkpt><trkpt lat="34.010479807826584" lon="-4.99620627046545"><ele>436.0</ele><time>2026-04-27T14:15:09.999Z</time></trkpt><trkpt lat="34.01061824642648" lon="-4.996283620477881"><ele>436.0</ele><time>2026-04-27T14:15:10.999Z</time></trkpt><trkpt lat="34.01075253988463" lon="-4.996353811546489"><ele>436.0</ele><time>2026-04-27T14:15:11.999Z</time></trkpt><trkpt lat="34.01088668095386" lon="-4.996416586874546"><ele>436.0</ele><time>2026-04-27T14:15:12.999Z</time></trkpt><trkpt lat="34.01101943865154" lon="-4.996472106140635"><ele>435.75</ele><time>2026-04-27T14:15:13.999Z</time></trkpt><trkpt lat="34.01115714806629" lon="-4.996522534156094"><ele>435.5</ele><time>2026-04-27T14:15:14.999Z</time></trkpt><trkpt lat="34.01129317142463" lon="-4.99656409949285"><ele>435.25</ele><time>2026-04-27T14:15:15.999Z</time></trkpt><trkpt lat="34.01143469393463" lon="-4.99659848950798"><ele>435.0</ele><time>2026-04-27T14:15:16.999Z</time></trkpt><trkpt lat="34.01157695003593" lon="-4.996622805891999"><ele>434.5</ele><time>2026-04-27T14:15:17.999Z</time></trkpt><trkpt lat="34.011718392414465" lon="-4.996641127944375"><ele>434.0</ele><time>2026-04-27T14:15:18.999Z</time></trkpt><trkpt lat="34.01185619264804" lon="-4.996654177259279"><ele>433.5</ele><time>2026-04-27T14:15:19.999Z</time></trkpt><trkpt lat="34.01198642561998" lon="-4.99666127249823"><ele>433.0</ele><time>2026-04-27T14:15:20.999Z</time></trkpt><trkpt lat="34.0121103021205" lon="-4.996662705781728"><ele>433.0</ele><time>2026-04-27T14:15:21.999Z</time></trkpt><trkpt lat="34.01223387869729" lon="-4.996661961823956"><ele>433.0</ele><time>2026-04-27T14:15:22.999Z</time></trkpt><trkpt lat="34.0123553568686" lon="-4.996657081076827"><ele>433.0</ele><time>2026-04-27T14:15:23.999Z</time></trkpt><trkpt lat="34.01246950338912" lon="-4.996651966336884"><ele>433.0</ele><time>2026-04-27T14:15:24.999Z</time></trkpt><trkpt lat="34.01257367145761" lon="-4.996648013074884"><ele>432.59999999999997</ele><time>2026-04-27T14:15:25.999Z</time></trkpt><trkpt lat="34.01266510168139" lon="-4.996646453875593"><ele>432.19999999999993</ele><time>2026-04-27T14:15:26.999Z</time></trkpt><trkpt lat="34.012746513695234" lon="-4.996646256842264"><ele>431.8</ele><time>2026-04-27T14:15:27.999Z</time></trkpt><trkpt lat="34.01281671077883" lon="-4.996643919810268"><ele>431.4</ele><time>2026-04-27T14:15:28.999Z</time></trkpt><trkpt lat="34.012933520358516" lon="-4.99664013047818"><ele>431.0</ele><time>2026-04-27T14:15:30.999Z</time></trkpt><trkpt lat="34.013028992689065" lon="-4.996642981898598"><ele>431.0</ele><time>2026-04-27T14:15:32.999Z</time></trkpt><trkpt lat="34.01310459469714" lon="-4.996647687532201"><ele>431.0</ele><time>2026-04-27T14:15:34.999Z</time></trkpt><trkpt lat="34.01318845603453" lon="-4.996647713687118"><ele>431.0</ele><time>2026-04-27T14:15:37.999Z</time></trkpt><trkpt lat="34.013266837197925" lon="-4.996658580113978"><ele>431.0</ele><time>2026-04-27T14:15:40.999Z</time></trkpt><trkpt lat="34.01335526043394" lon="-4.996650593388613"><ele>431.0</ele><time>2026-04-27T14:15:42.999Z</time></trkpt><trkpt lat="34.013486075488416" lon="-4.996621990020134"><ele>430.6</ele><time>2026-04-27T14:15:44.999Z</time></trkpt><trkpt lat="34.01356509411403" lon="-4.9966151065116575"><ele>430.20000000000005</ele><time>2026-04-27T14:15:45.999Z</time></trkpt><trkpt lat="34.01365096335729" lon="-4.996610065104302"><ele>429.79999999999995</ele><time>2026-04-27T14:15:46.999Z</time></trkpt><trkpt lat="34.01374056556744" lon="-4.996597573899863"><ele>429.4</ele><time>2026-04-27T14:15:47.999Z</time></trkpt><trkpt lat="34.0138354347905" lon="-4.996585297240238"><ele>429.0</ele><time>2026-04-27T14:15:48.999Z</time></trkpt><trkpt lat="34.01393462714915" lon="-4.996578172687989"><ele>429.0</ele><time>2026-04-27T14:15:49.999Z</time></trkpt><trkpt lat="34.01403364330098" lon="-4.996570366136994"><ele>429.0</ele><time>2026-04-27T14:15:50.999Z</time></trkpt><trkpt lat="34.01412981610938" lon="-4.996559779292916"><ele>429.0</ele><time>2026-04-27T14:15:51.999Z</time></trkpt><trkpt lat="34.01422137962544" lon="-4.996554146294823"><ele>429.0</ele><time>2026-04-27T14:15:52.999Z</time></trkpt><trkpt lat="34.01430707783229" lon="-4.996547699947115"><ele>429.0</ele><time>2026-04-27T14:15:53.999Z</time></trkpt><trkpt lat="34.0143849495063" lon="-4.996541849342354"><ele>428.5</ele><time>2026-04-27T14:15:54.999Z</time></trkpt><trkpt lat="34.014455707317886" lon="-4.996538488981928"><ele>428.0</ele><time>2026-04-27T14:15:55.999Z</time></trkpt><trkpt lat="34.01457523197554" lon="-4.996532845219352"><ele>427.5</ele><time>2026-04-27T14:15:57.999Z</time></trkpt><trkpt lat="34.014675674558205" lon="-4.99652662833235"><ele>427.0</ele><time>2026-04-27T14:15:59.999Z</time></trkpt><trkpt lat="34.014757889699986" lon="-4.996518664489369"><ele>426.5</ele><time>2026-04-27T14:16:01.999Z</time></trkpt><trkpt lat="34.014826142974194" lon="-4.996510141141157"><ele>426.0</ele><time>2026-04-27T14:16:04.999Z</time></trkpt><trkpt lat="34.01491841437324" lon="-4.996520520502327"><ele>426.0</ele><time>2026-04-27T14:16:45.999Z</time></trkpt><trkpt lat="34.01498753521593" lon="-4.996517064608445"><ele>426.0</ele><time>2026-04-27T14:16:47.999Z</time></trkpt><trkpt lat="34.01506324509939" lon="-4.99650948178344"><ele>426.0</ele><time>2026-04-27T14:16:49.999Z</time></trkpt><trkpt lat="34.01513417165812" lon="-4.996499951270568"><ele>426.0</ele><time>2026-04-27T14:16:51.999Z</time></trkpt><trkpt lat="34.015202594758996" lon="-4.996487729491732"><ele>426.0</ele><time>2026-04-27T14:16:53.999Z</time></trkpt><trkpt lat="34.015301540082504" lon="-4.996475798087634"><ele>426.0</ele><time>2026-04-27T14:16:55.999Z</time></trkpt><trkpt lat="34.0154251980525" lon="-4.996466595970397"><ele>426.5</ele><time>2026-04-27T14:16:57.999Z</time></trkpt><trkpt lat="34.01549235614704" lon="-4.996465605881724"><ele>427.0</ele><time>2026-04-27T14:16:58.999Z</time></trkpt><trkpt lat="34.01555966716824" lon="-4.9964607053110095"><ele>427.5</ele><time>2026-04-27T14:16:59.999Z</time></trkpt><trkpt lat="34.015632510699035" lon="-4.996457321381201"><ele>428.0</ele><time>2026-04-27T14:17:00.999Z</time></trkpt><trkpt lat="34.01570915488625" lon="-4.9964540466687035"><ele>428.5</ele><time>2026-04-27T14:17:01.999Z</time></trkpt><trkpt lat="34.01579097522312" lon="-4.99645085485121"><ele>429.0</ele><time>2026-04-27T14:17:02.999Z</time></trkpt><trkpt lat="34.01587686109797" lon="-4.996447875474917"><ele>429.0</ele><time>2026-04-27T14:17:03.999Z</time></trkpt><trkpt lat="34.01596672442757" lon="-4.996445371141339"><ele>429.0</ele><time>2026-04-27T14:17:04.999Z</time></trkpt><trkpt lat="34.01605948160559" lon="-4.99644182351588"><ele>429.0</ele><time>2026-04-27T14:17:05.999Z</time></trkpt><trkpt lat="34.016157015186735" lon="-4.9964372528892795"><ele>429.0</ele><time>2026-04-27T14:17:06.999Z</time></trkpt><trkpt lat="34.01625741312535" lon="-4.9964321537547365"><ele>429.0</ele><time>2026-04-27T14:17:07.999Z</time></trkpt><trkpt lat="34.016361299106705" lon="-4.996426967716082"><ele>429.0</ele><time>2026-04-27T14:17:08.999Z</time></trkpt><trkpt lat="34.016461502512676" lon="-4.996423591555083"><ele>429.0</ele><time>2026-04-27T14:17:09.999Z</time></trkpt><trkpt lat="34.016559707311586" lon="-4.996420831195287"><ele>429.0</ele><time>2026-04-27T14:17:10.999Z</time></trkpt><trkpt lat="34.01666001430177" lon="-4.996414000284356"><ele>429.0</ele><time>2026-04-27T14:17:11.999Z</time></trkpt><trkpt lat="34.01676033697512" lon="-4.996411080918801"><ele>429.0</ele><time>2026-04-27T14:17:12.999Z</time></trkpt><trkpt lat="34.01686073826009" lon="-4.996407887266555"><ele>428.4</ele><time>2026-04-27T14:17:13.999Z</time></trkpt><trkpt lat="34.01696111437999" lon="-4.996403887005375"><ele>427.79999999999995</ele><time>2026-04-27T14:17:14.999Z</time></trkpt><trkpt lat="34.017052460531325" lon="-4.996403569133402"><ele>427.20000000000005</ele><time>2026-04-27T14:17:15.999Z</time></trkpt><trkpt lat="34.01713108978849" lon="-4.996403937118509"><ele>426.6</ele><time>2026-04-27T14:17:16.999Z</time></trkpt><trkpt lat="34.01719871480371" lon="-4.996405045603035"><ele>426.0</ele><time>2026-04-27T14:17:17.999Z</time></trkpt><trkpt lat="34.01732433287008" lon="-4.996404364770567"><ele>425.99999999999994</ele><time>2026-04-27T14:17:19.999Z</time></trkpt><trkpt lat="34.01739443716604" lon="-4.996403680036424"><ele>426.0</ele><time>2026-04-27T14:17:20.999Z</time></trkpt><trkpt lat="34.01746327652685" lon="-4.996402965333933"><ele>426.0</ele><time>2026-04-27T14:17:21.999Z</time></trkpt><trkpt lat="34.017529575086314" lon="-4.9963985187431"><ele>426.0</ele><time>2026-04-27T14:17:22.999Z</time></trkpt><trkpt lat="34.017600956925364" lon="-4.99639244518457"><ele>426.0</ele><time>2026-04-27T14:17:23.999Z</time></trkpt><trkpt lat="34.017680292544746" lon="-4.996383795744854"><ele>425.99999999999994</ele><time>2026-04-27T14:17:24.999Z</time></trkpt><trkpt lat="34.017768398562744" lon="-4.996376692054351"><ele>426.0</ele><time>2026-04-27T14:17:25.999Z</time></trkpt><trkpt lat="34.01786448877028" lon="-4.996370944396668"><ele>425.6</ele><time>2026-04-27T14:17:26.999Z</time></trkpt><trkpt lat="34.0179704057344" lon="-4.996364546288311"><ele>425.20000000000005</ele><time>2026-04-27T14:17:27.999Z</time></trkpt><trkpt lat="34.01808140068441" lon="-4.996358479303843"><ele>424.79999999999995</ele><time>2026-04-27T14:17:28.999Z</time></trkpt><trkpt lat="34.01819185914114" lon="-4.996353023973487"><ele>424.4</ele><time>2026-04-27T14:17:29.999Z</time></trkpt><trkpt lat="34.01830536430359" lon="-4.9963487873686825"><ele>424.0</ele><time>2026-04-27T14:17:30.999Z</time></trkpt><trkpt lat="34.01842146539151" lon="-4.996346093509217"><ele>423.75</ele><time>2026-04-27T14:17:31.999Z</time></trkpt><trkpt lat="34.01853963979784" lon="-4.996345185218603"><ele>423.5</ele><time>2026-04-27T14:17:32.999Z</time></trkpt><trkpt lat="34.018659294695915" lon="-4.996345829325261"><ele>423.25</ele><time>2026-04-27T14:17:33.999Z</time></trkpt><trkpt lat="34.01878104573234" lon="-4.996347603541964"><ele>423.0</ele><time>2026-04-27T14:17:34.999Z</time></trkpt><trkpt lat="34.018903284625374" lon="-4.996350496784737"><ele>423.0</ele><time>2026-04-27T14:17:35.999Z</time></trkpt><trkpt lat="34.019025201337456" lon="-4.996355705861633"><ele>423.0</ele><time>2026-04-27T14:17:36.999Z</time></trkpt><trkpt lat="34.01914993690173" lon="-4.996361034130345"><ele>423.0</ele><time>2026-04-27T14:17:37.999Z</time></trkpt><trkpt lat="34.01927777311242" lon="-4.996366684560299"><ele>423.0</ele><time>2026-04-27T14:17:38.999Z</time></trkpt><trkpt lat="34.01940739729499" lon="-4.996373375043449"><ele>422.75</ele><time>2026-04-27T14:17:39.999Z</time></trkpt><trkpt lat="34.019537546505795" lon="-4.996379197194888"><ele>422.5</ele><time>2026-04-27T14:17:40.999Z</time></trkpt><trkpt lat="34.019667184155566" lon="-4.996385478102274"><ele>422.25</ele><time>2026-04-27T14:17:41.999Z</time></trkpt><trkpt lat="34.01979524456177" lon="-4.996393346979488"><ele>422.0</ele><time>2026-04-27T14:17:42.999Z</time></trkpt><trkpt lat="34.01992166344307" lon="-4.996401322687768"><ele>421.75</ele><time>2026-04-27T14:17:43.999Z</time></trkpt><trkpt lat="34.02004537893788" lon="-4.996404053621585"><ele>421.5</ele><time>2026-04-27T14:17:44.999Z</time></trkpt><trkpt lat="34.02016841630363" lon="-4.996408334259479"><ele>421.25</ele><time>2026-04-27T14:17:45.999Z</time></trkpt><trkpt lat="34.020294369508015" lon="-4.996411635280241"><ele>421.0</ele><time>2026-04-27T14:17:46.999Z</time></trkpt><trkpt lat="34.02042317112451" lon="-4.9964135305805435"><ele>421.0</ele><time>2026-04-27T14:17:47.999Z</time></trkpt><trkpt lat="34.020551545296534" lon="-4.9964164379360305"><ele>421.0</ele><time>2026-04-27T14:17:48.999Z</time></trkpt><trkpt lat="34.020677837422966" lon="-4.996422483375089"><ele>421.0</ele><time>2026-04-27T14:17:49.999Z</time></trkpt><trkpt lat="34.020800480125295" lon="-4.996428225101706"><ele>421.0</ele><time>2026-04-27T14:17:50.999Z</time></trkpt><trkpt lat="34.02091700756296" lon="-4.9964354217366544"><ele>421.20000000000005</ele><time>2026-04-27T14:17:51.999Z</time></trkpt><trkpt lat="34.021028690616916" lon="-4.996443788857312"><ele>421.40000000000003</ele><time>2026-04-27T14:17:52.999Z</time></trkpt><trkpt lat="34.021139748306545" lon="-4.996450677486558"><ele>421.6</ele><time>2026-04-27T14:17:53.999Z</time></trkpt><trkpt lat="34.02125159304829" lon="-4.99646321008991"><ele>421.8</ele><time>2026-04-27T14:17:54.999Z</time></trkpt><trkpt lat="34.02136198029318" lon="-4.996480436156367"><ele>422.0</ele><time>2026-04-27T14:17:55.999Z</time></trkpt><trkpt lat="34.0214722965494" lon="-4.99650168668339"><ele>422.0</ele><time>2026-04-27T14:17:56.999Z</time></trkpt><trkpt lat="34.02158128936705" lon="-4.996526586485404"><ele>422.0</ele><time>2026-04-27T14:17:57.999Z</time></trkpt><trkpt lat="34.02168938249926" lon="-4.996556840194732"><ele>422.0</ele><time>2026-04-27T14:17:58.999Z</time></trkpt><trkpt lat="34.02179321608904" lon="-4.996589332177773"><ele>422.0</ele><time>2026-04-27T14:17:59.999Z</time></trkpt><trkpt lat="34.021896354831064" lon="-4.996621860928053"><ele>422.0</ele><time>2026-04-27T14:18:00.999Z</time></trkpt><trkpt lat="34.02199777796364" lon="-4.996654835329137"><ele>422.0</ele><time>2026-04-27T14:18:01.999Z</time></trkpt><trkpt lat="34.02210311699442" lon="-4.996691346688865"><ele>422.0</ele><time>2026-04-27T14:18:02.999Z</time></trkpt><trkpt lat="34.02221022228157" lon="-4.996725291181515"><ele>422.0</ele><time>2026-04-27T14:18:03.999Z</time></trkpt><trkpt lat="34.022313505532985" lon="-4.996759766796742"><ele>422.0</ele><time>2026-04-27T14:18:04.999Z</time></trkpt><trkpt lat="34.02241455279219" lon="-4.996792510854845"><ele>422.0</ele><time>2026-04-27T14:18:05.999Z</time></trkpt><trkpt lat="34.02251197454345" lon="-4.99682538898959"><ele>421.66666666666663</ele><time>2026-04-27T14:18:06.999Z</time></trkpt><trkpt lat="34.022599170930604" lon="-4.99685471981712"><ele>421.3333333333333</ele><time>2026-04-27T14:18:07.999Z</time></trkpt><trkpt lat="34.02268069452459" lon="-4.996881201252503"><ele>421.0</ele><time>2026-04-27T14:18:08.999Z</time></trkpt><trkpt lat="34.02276243934067" lon="-4.996908366791925"><ele>420.66666666666663</ele><time>2026-04-27T14:18:09.999Z</time></trkpt><trkpt lat="34.02284746028634" lon="-4.996933833466149"><ele>420.3333333333333</ele><time>2026-04-27T14:18:10.999Z</time></trkpt><trkpt lat="34.02293408522323" lon="-4.996958447380524"><ele>420.0</ele><time>2026-04-27T14:18:11.999Z</time></trkpt><trkpt lat="34.023013960840494" lon="-4.99698401378529"><ele>420.0</ele><time>2026-04-27T14:18:12.999Z</time></trkpt><trkpt lat="34.02308899496439" lon="-4.997003076054017"><ele>420.0</ele><time>2026-04-27T14:18:13.999Z</time></trkpt><trkpt lat="34.02315355706126" lon="-4.997015695090962"><ele>420.0</ele><time>2026-04-27T14:18:14.999Z</time></trkpt><trkpt lat="34.0232504371423" lon="-4.997033531673443"><ele>420.0</ele><time>2026-04-27T14:18:16.999Z</time></trkpt><trkpt lat="34.02332142422464" lon="-4.997045495804709"><ele>420.0</ele><time>2026-04-27T14:18:25.999Z</time></trkpt><trkpt lat="34.02339669023756" lon="-4.997075846630183"><ele>420.0</ele><time>2026-04-27T14:18:28.999Z</time></trkpt><trkpt lat="34.023494894063816" lon="-4.997100135996822"><ele>420.0</ele><time>2026-04-27T14:18:30.999Z</time></trkpt><trkpt lat="34.02355512760778" lon="-4.997126334095195"><ele>420.0</ele><time>2026-04-27T14:18:31.999Z</time></trkpt><trkpt lat="34.02362934079971" lon="-4.997149224185399"><ele>420.0</ele><time>2026-04-27T14:18:32.999Z</time></trkpt><trkpt lat="34.02370933729975" lon="-4.99717784418051"><ele>420.0</ele><time>2026-04-27T14:18:33.999Z</time></trkpt><trkpt lat="34.023787179118" lon="-4.997205308564201"><ele>420.0</ele><time>2026-04-27T14:18:34.999Z</time></trkpt><trkpt lat="34.02386491549742" lon="-4.997231406823266"><ele>420.0</ele><time>2026-04-27T14:18:35.999Z</time></trkpt><trkpt lat="34.023946043588914" lon="-4.997258649077577"><ele>420.0</ele><time>2026-04-27T14:18:36.999Z</time></trkpt><trkpt lat="34.024035027251124" lon="-4.997285608051629"><ele>420.0</ele><time>2026-04-27T14:18:37.999Z</time></trkpt><trkpt lat="34.02412690132908" lon="-4.997313103964759"><ele>420.0</ele><time>2026-04-27T14:18:38.999Z</time></trkpt><trkpt lat="34.024218078817974" lon="-4.997342519244752"><ele>420.0</ele><time>2026-04-27T14:18:39.999Z</time></trkpt><trkpt lat="34.02431222095037" lon="-4.997366777105117"><ele>420.0</ele><time>2026-04-27T14:18:40.999Z</time></trkpt><trkpt lat="34.02440610211381" lon="-4.997398102526596"><ele>420.0</ele><time>2026-04-27T14:18:41.999Z</time></trkpt><trkpt lat="34.02450371198099" lon="-4.997426431917072"><ele>420.0</ele><time>2026-04-27T14:18:42.999Z</time></trkpt><trkpt lat="34.02460291935163" lon="-4.997454803785936"><ele>420.0</ele><time>2026-04-27T14:18:43.999Z</time></trkpt><trkpt lat="34.024704826268895" lon="-4.997481599437539"><ele>420.0</ele><time>2026-04-27T14:18:44.999Z</time></trkpt><trkpt lat="34.02480637518767" lon="-4.997511903313964"><ele>420.0</ele><time>2026-04-27T14:18:45.999Z</time></trkpt><trkpt lat="34.02490757776924" lon="-4.997539998657232"><ele>418.8</ele><time>2026-04-27T14:18:46.999Z</time></trkpt><trkpt lat="34.02500609589528" lon="-4.997568201292383"><ele>417.6</ele><time>2026-04-27T14:18:47.999Z</time></trkpt><trkpt lat="34.02510148264067" lon="-4.997597984533507"><ele>416.4</ele><time>2026-04-27T14:18:48.999Z</time></trkpt><trkpt lat="34.0251950857218" lon="-4.997627775290034"><ele>415.2</ele><time>2026-04-27T14:18:49.999Z</time></trkpt><trkpt lat="34.025287146100446" lon="-4.997658326599216"><ele>414.0</ele><time>2026-04-27T14:18:50.999Z</time></trkpt><trkpt lat="34.02538331902435" lon="-4.997684841817206"><ele>414.0</ele><time>2026-04-27T14:18:51.999Z</time></trkpt><trkpt lat="34.02547788616711" lon="-4.9977108806350445"><ele>414.0</ele><time>2026-04-27T14:18:52.999Z</time></trkpt><trkpt lat="34.02556979301975" lon="-4.997734965989806"><ele>414.0</ele><time>2026-04-27T14:18:53.999Z</time></trkpt><trkpt lat="34.02565156911762" lon="-4.9977564991487435"><ele>414.0</ele><time>2026-04-27T14:18:54.999Z</time></trkpt><trkpt lat="34.02572159744014" lon="-4.997775792844189"><ele>414.0</ele><time>2026-04-27T14:18:55.999Z</time></trkpt><trkpt lat="34.02582635312625" lon="-4.9978037212138675"><ele>413.5</ele><time>2026-04-27T14:18:57.999Z</time></trkpt><trkpt lat="34.025890290390684" lon="-4.997824428324434"><ele>413.0</ele><time>2026-04-27T14:19:00.999Z</time></trkpt><trkpt lat="34.02600362682749" lon="-4.997838598944626"><ele>412.5</ele><time>2026-04-27T14:19:49Z</time></trkpt><trkpt lat="34.026077073593406" lon="-4.997856345939754"><ele>412.0</ele><time>2026-04-27T14:19:50Z</time></trkpt><trkpt lat="34.02615938554759" lon="-4.9978781991658225"><ele>411.5</ele><time>2026-04-27T14:19:50.999Z</time></trkpt><trkpt lat="34.02625200874844" lon="-4.997863480866587"><ele>411.0</ele><time>2026-04-27T14:19:51.999Z</time></trkpt><trkpt lat="34.02634944616378" lon="-4.997912675329839"><ele>411.0</ele><time>2026-04-27T14:19:52.999Z</time></trkpt><trkpt lat="34.02643657461319" lon="-4.997969256724578"><ele>411.0</ele><time>2026-04-27T14:19:53.999Z</time></trkpt><trkpt lat="34.02654084715308" lon="-4.998000781978436"><ele>411.0</ele><time>2026-04-27T14:19:54.999Z</time></trkpt><trkpt lat="34.026656438760945" lon="-4.998030612539466"><ele>411.0</ele><time>2026-04-27T14:19:55.999Z</time></trkpt><trkpt lat="34.02678180607863" lon="-4.998066470584611"><ele>411.75</ele><time>2026-04-27T14:19:56.999Z</time></trkpt><trkpt lat="34.0269150272027" lon="-4.998104234507547"><ele>412.5</ele><time>2026-04-27T14:19:57.999Z</time></trkpt><trkpt lat="34.02704773378166" lon="-4.998138394360721"><ele>413.25</ele><time>2026-04-27T14:19:58.999Z</time></trkpt><trkpt lat="34.027188432736445" lon="-4.998175829926572"><ele>414.0</ele><time>2026-04-27T14:19:59.999Z</time></trkpt><trkpt lat="34.027334718487985" lon="-4.998216432104463"><ele>413.0</ele><time>2026-04-27T14:20:00.999Z</time></trkpt><trkpt lat="34.027484112296456" lon="-4.998254994865697"><ele>412.0</ele><time>2026-04-27T14:20:01.999Z</time></trkpt><trkpt lat="34.0276355058742" lon="-4.998291607126956"><ele>411.0</ele><time>2026-04-27T14:20:02.999Z</time></trkpt><trkpt lat="34.02778783723946" lon="-4.998330381478315"><ele>412.0</ele><time>2026-04-27T14:20:03.999Z</time></trkpt><trkpt lat="34.02794280040463" lon="-4.998369732917945"><ele>413.0</ele><time>2026-04-27T14:20:04.999Z</time></trkpt><trkpt lat="34.02809772144731" lon="-4.998405826730516"><ele>414.0</ele><time>2026-04-27T14:20:05.999Z</time></trkpt><trkpt lat="34.02825267319304" lon="-4.9984356923677575"><ele>414.66666666666663</ele><time>2026-04-27T14:20:06.999Z</time></trkpt><trkpt lat="34.028408406292435" lon="-4.998456411747409"><ele>415.3333333333333</ele><time>2026-04-27T14:20:07.999Z</time></trkpt><trkpt lat="34.02856120336207" lon="-4.998468406337042"><ele>416.0</ele><time>2026-04-27T14:20:08.999Z</time></trkpt><trkpt lat="34.02870993218186" lon="-4.998473071821425"><ele>416.0</ele><time>2026-04-27T14:20:09.999Z</time></trkpt><trkpt lat="34.02885243445193" lon="-4.998469892924823"><ele>416.0</ele><time>2026-04-27T14:20:10.999Z</time></trkpt><trkpt lat="34.0289937866739" lon="-4.998458713211226"><ele>416.0</ele><time>2026-04-27T14:20:11.999Z</time></trkpt><trkpt lat="34.029137508857616" lon="-4.9984455529868415"><ele>416.0</ele><time>2026-04-27T14:20:12.999Z</time></trkpt><trkpt lat="34.029287022466384" lon="-4.998427810203795"><ele>415.75</ele><time>2026-04-27T14:20:13.999Z</time></trkpt><trkpt lat="34.029438307676465" lon="-4.998404807355347"><ele>415.5</ele><time>2026-04-27T14:20:14.999Z</time></trkpt><trkpt lat="34.02958250223204" lon="-4.998374760854856"><ele>415.25</ele><time>2026-04-27T14:20:15.999Z</time></trkpt><trkpt lat="34.02971443633599" lon="-4.99834276454724"><ele>415.0</ele><time>2026-04-27T14:20:16.999Z</time></trkpt><trkpt lat="34.029840980740296" lon="-4.998311081545289"><ele>415.0</ele><time>2026-04-27T14:20:17.999Z</time></trkpt><trkpt lat="34.02996505528832" lon="-4.998270250717979"><ele>415.0</ele><time>2026-04-27T14:20:18.999Z</time></trkpt><trkpt lat="34.03008703426914" lon="-4.998225365426353"><ele>415.0</ele><time>2026-04-27T14:20:19.999Z</time></trkpt><trkpt lat="34.030208651251" lon="-4.998176334359465"><ele>415.0</ele><time>2026-04-27T14:20:20.999Z</time></trkpt><trkpt lat="34.03032985883503" lon="-4.998124478796494"><ele>415.2</ele><time>2026-04-27T14:20:21.999Z</time></trkpt><trkpt lat="34.03044270277757" lon="-4.998075146540828"><ele>415.4</ele><time>2026-04-27T14:20:22.999Z</time></trkpt><trkpt lat="34.03054858869607" lon="-4.998028295757642"><ele>415.6</ele><time>2026-04-27T14:20:23.999Z</time></trkpt><trkpt lat="34.03064872691266" lon="-4.9979851620565965"><ele>415.8</ele><time>2026-04-27T14:20:24.999Z</time></trkpt><trkpt lat="34.030743485559974" lon="-4.997943880100259"><ele>416.0</ele><time>2026-04-27T14:20:25.999Z</time></trkpt><trkpt lat="34.030826513868824" lon="-4.997909298990113"><ele>415.7142857142857</ele><time>2026-04-27T14:20:26.999Z</time></trkpt><trkpt lat="34.03089479293363" lon="-4.997881201443308"><ele>415.42857142857144</ele><time>2026-04-27T14:20:27.999Z</time></trkpt><trkpt lat="34.030953813111495" lon="-4.997854699187211"><ele>415.14285714285717</ele><time>2026-04-27T14:20:28.999Z</time></trkpt><trkpt lat="34.031035345757665" lon="-4.9978201655490695"><ele>414.8571428571429</ele><time>2026-04-27T14:20:30.999Z</time></trkpt><trkpt lat="34.03110268061094" lon="-4.997791453044875"><ele>414.57142857142856</ele><time>2026-04-27T14:20:33.999Z</time></trkpt><trkpt lat="34.031184803431124" lon="-4.997762061923132"><ele>414.28571428571433</ele><time>2026-04-27T14:21:00Z</time></trkpt><trkpt lat="34.03124502947825" lon="-4.99773440656689"><ele>414.0</ele><time>2026-04-27T14:21:01Z</time></trkpt><trkpt lat="34.03131244370259" lon="-4.997704093158429"><ele>414.0</ele><time>2026-04-27T14:21:02Z</time></trkpt><trkpt lat="34.03138891657099" lon="-4.997677124368139"><ele>414.0</ele><time>2026-04-27T14:21:03Z</time></trkpt><trkpt lat="34.03147289241899" lon="-4.997648031770637"><ele>414.0</ele><time>2026-04-27T14:21:04Z</time></trkpt><trkpt lat="34.031556417493675" lon="-4.997619465045783"><ele>414.0</ele><time>2026-04-27T14:21:05Z</time></trkpt><trkpt lat="34.0316428621037" lon="-4.9975872476319365"><ele>414.0</ele><time>2026-04-27T14:21:06Z</time></trkpt><trkpt lat="34.03173197907208" lon="-4.997554417478828"><ele>414.0</ele><time>2026-04-27T14:21:07Z</time></trkpt><trkpt lat="34.031824832683434" lon="-4.997518067296775"><ele>412.2</ele><time>2026-04-27T14:21:08Z</time></trkpt><trkpt lat="34.03192146372942" lon="-4.99748455422795"><ele>410.4</ele><time>2026-04-27T14:21:09Z</time></trkpt><trkpt lat="34.032018835428424" lon="-4.997451428199229"><ele>408.6</ele><time>2026-04-27T14:21:10Z</time></trkpt><trkpt lat="34.03211721856553" lon="-4.997413435894599"><ele>406.8</ele><time>2026-04-27T14:21:11Z</time></trkpt><trkpt lat="34.032208038252435" lon="-4.997378077717662"><ele>405.0</ele><time>2026-04-27T14:21:12Z</time></trkpt><trkpt lat="34.032284535046045" lon="-4.997350566064649"><ele>405.0</ele><time>2026-04-27T14:21:13Z</time></trkpt><trkpt lat="34.03235504931137" lon="-4.997326897635631"><ele>405.0</ele><time>2026-04-27T14:21:14Z</time></trkpt><trkpt lat="34.03242641267209" lon="-4.997304892588959"><ele>405.0</ele><time>2026-04-27T14:21:15Z</time></trkpt><trkpt lat="34.032501296423476" lon="-4.997282843440295"><ele>405.0</ele><time>2026-04-27T14:21:16Z</time></trkpt><trkpt lat="34.03257938418993" lon="-4.997264683606402"><ele>405.0</ele><time>2026-04-27T14:21:17Z</time></trkpt><trkpt lat="34.03265852759844" lon="-4.997245983694483"><ele>405.0</ele><time>2026-04-27T14:21:18Z</time></trkpt><trkpt lat="34.03274006734061" lon="-4.997232317173465"><ele>406.0</ele><time>2026-04-27T14:21:19Z</time></trkpt><trkpt lat="34.03282657117491" lon="-4.997232493852483"><ele>407.0</ele><time>2026-04-27T14:21:20Z</time></trkpt><trkpt lat="34.03291522324154" lon="-4.997244454891743"><ele>408.0</ele><time>2026-04-27T14:21:21Z</time></trkpt><trkpt lat="34.0330099361284" lon="-4.997256814469605"><ele>409.0</ele><time>2026-04-27T14:21:22Z</time></trkpt><trkpt lat="34.033105058134005" lon="-4.997268441764747"><ele>410.0</ele><time>2026-04-27T14:21:23Z</time></trkpt><trkpt lat="34.03319998071197" lon="-4.997279300182293"><ele>409.99999999999994</ele><time>2026-04-27T14:21:24Z</time></trkpt><trkpt lat="34.03329145354" lon="-4.997289398278565"><ele>410.0</ele><time>2026-04-27T14:21:25Z</time></trkpt><trkpt lat="34.03336941828876" lon="-4.997299954823633"><ele>410.0</ele><time>2026-04-27T14:21:26Z</time></trkpt><trkpt lat="34.03348628436321" lon="-4.997309560881752"><ele>410.0</ele><time>2026-04-27T14:21:28Z</time></trkpt><trkpt lat="34.03355128134515" lon="-4.997313652296021"><ele>409.99999999999994</ele><time>2026-04-27T14:21:30Z</time></trkpt><trkpt lat="34.03359940062338" lon="-4.997363426759586"><ele>410.0</ele><time>2026-04-27T14:23:02Z</time></trkpt><trkpt lat="34.03368114230367" lon="-4.997391538431661"><ele>409.66666666666663</ele><time>2026-04-27T14:23:04Z</time></trkpt><trkpt lat="34.03376429111298" lon="-4.997374474137129"><ele>409.3333333333333</ele><time>2026-04-27T14:23:06Z</time></trkpt><trkpt lat="34.03386678641016" lon="-4.997354655959927"><ele>409.0</ele><time>2026-04-27T14:23:08Z</time></trkpt><trkpt lat="34.03398679076631" lon="-4.99732455475777"><ele>408.66666666666663</ele><time>2026-04-27T14:23:10Z</time></trkpt><trkpt lat="34.034050581902264" lon="-4.997308257225742"><ele>408.3333333333333</ele><time>2026-04-27T14:23:11Z</time></trkpt><trkpt lat="34.034115584221446" lon="-4.997312801043294"><ele>408.0</ele><time>2026-04-27T14:23:12Z</time></trkpt><trkpt lat="34.03422363290384" lon="-4.997363277098705"><ele>407.79999999999995</ele><time>2026-04-27T14:23:14Z</time></trkpt><trkpt lat="34.03433008829464" lon="-4.997435272941892"><ele>407.6</ele><time>2026-04-27T14:23:16Z</time></trkpt><trkpt lat="34.034448880787046" lon="-4.997449644651058"><ele>407.4</ele><time>2026-04-27T14:23:18Z</time></trkpt><trkpt lat="34.03451981503139" lon="-4.997457879547366"><ele>407.20000000000005</ele><time>2026-04-27T14:23:19Z</time></trkpt><trkpt lat="34.034591447895934" lon="-4.9974662971425206"><ele>407.0</ele><time>2026-04-27T14:23:20Z</time></trkpt><trkpt lat="34.0346588587993" lon="-4.997474218622131"><ele>407.0</ele><time>2026-04-27T14:23:21Z</time></trkpt><trkpt lat="34.03477887538277" lon="-4.997488321803085"><ele>407.0</ele><time>2026-04-27T14:23:23Z</time></trkpt><trkpt lat="34.03489658878063" lon="-4.997502154332347"><ele>407.0</ele><time>2026-04-27T14:23:25Z</time></trkpt><trkpt lat="34.034969223794434" lon="-4.997518135147215"><ele>407.0</ele><time>2026-04-27T14:23:27Z</time></trkpt><trkpt lat="34.03503713713437" lon="-4.9975346044371065"><ele>407.0</ele><time>2026-04-27T14:23:30Z</time></trkpt><trkpt lat="34.03512052598661" lon="-4.997528563727018"><ele>406.6</ele><time>2026-04-27T14:23:32Z</time></trkpt><trkpt lat="34.03524983218741" lon="-4.997549857265755"><ele>406.20000000000005</ele><time>2026-04-27T14:23:34Z</time></trkpt><trkpt lat="34.035328919774855" lon="-4.997563647587823"><ele>405.8</ele><time>2026-04-27T14:23:35Z</time></trkpt><trkpt lat="34.035414115481046" lon="-4.997575818761134"><ele>405.4</ele><time>2026-04-27T14:23:36Z</time></trkpt><trkpt lat="34.03550681675985" lon="-4.997571170040191"><ele>405.0</ele><time>2026-04-27T14:23:37Z</time></trkpt><trkpt lat="34.03560304044757" lon="-4.997583152969903"><ele>405.0</ele><time>2026-04-27T14:23:38Z</time></trkpt><trkpt lat="34.03570285211639" lon="-4.997592559434241"><ele>405.0</ele><time>2026-04-27T14:23:39Z</time></trkpt><trkpt lat="34.03580900194233" lon="-4.9976057128862825"><ele>405.0</ele><time>2026-04-27T14:23:40Z</time></trkpt><trkpt lat="34.035918302338324" lon="-4.997618532399416"><ele>405.0</ele><time>2026-04-27T14:23:41Z</time></trkpt><trkpt lat="34.03603423706031" lon="-4.997630707282956"><ele>405.0</ele><time>2026-04-27T14:23:42Z</time></trkpt><trkpt lat="34.036156463776564" lon="-4.997640133899501"><ele>403.25</ele><time>2026-04-27T14:23:43Z</time></trkpt><trkpt lat="34.036275504495414" lon="-4.9976522673014045"><ele>401.5</ele><time>2026-04-27T14:23:44Z</time></trkpt><trkpt lat="34.03640009208687" lon="-4.997664438185401"><ele>399.75</ele><time>2026-04-27T14:23:45Z</time></trkpt><trkpt lat="34.03652216492946" lon="-4.997676845771873"><ele>398.0</ele><time>2026-04-27T14:23:46Z</time></trkpt><trkpt lat="34.036638304443244" lon="-4.997689622874008"><ele>398.0</ele><time>2026-04-27T14:23:47Z</time></trkpt><trkpt lat="34.036747435504644" lon="-4.997704365002861"><ele>398.0</ele><time>2026-04-27T14:23:48Z</time></trkpt><trkpt lat="34.03685349280529" lon="-4.997721040317541"><ele>398.0</ele><time>2026-04-27T14:23:49Z</time></trkpt><trkpt lat="34.03695921908311" lon="-4.997736905139518"><ele>398.0</ele><time>2026-04-27T14:23:50Z</time></trkpt><trkpt lat="34.03706621656404" lon="-4.997752524562649"><ele>398.0</ele><time>2026-04-27T14:23:51Z</time></trkpt><trkpt lat="34.037168962301614" lon="-4.997767609213653"><ele>397.99999999999994</ele><time>2026-04-27T14:23:52Z</time></trkpt><trkpt lat="34.037262282998576" lon="-4.9977754470434395"><ele>398.0</ele><time>2026-04-27T14:23:53Z</time></trkpt><trkpt lat="34.037345863552275" lon="-4.997788435776084"><ele>398.0</ele><time>2026-04-27T14:23:54Z</time></trkpt><trkpt lat="34.037413774039784" lon="-4.997797775277091"><ele>398.0</ele><time>2026-04-27T14:23:55Z</time></trkpt><trkpt lat="34.03747525560152" lon="-4.997831249682876"><ele>397.99999999999994</ele><time>2026-04-27T14:25:43Z</time></trkpt><trkpt lat="34.03759432113332" lon="-4.997831493490899"><ele>398.0</ele><time>2026-04-27T14:25:45Z</time></trkpt><trkpt lat="34.03767429842446" lon="-4.997831973885437"><ele>397.79999999999995</ele><time>2026-04-27T14:25:46Z</time></trkpt><trkpt lat="34.03776590309688" lon="-4.997831281385839"><ele>397.6</ele><time>2026-04-27T14:25:47Z</time></trkpt><trkpt lat="34.037862946085994" lon="-4.997819295648829"><ele>397.4</ele><time>2026-04-27T14:25:48Z</time></trkpt><trkpt lat="34.03795202019208" lon="-4.997798863376648"><ele>397.20000000000005</ele><time>2026-04-27T14:25:49Z</time></trkpt><trkpt lat="34.038042235301226" lon="-4.997769686878678"><ele>397.0</ele><time>2026-04-27T14:25:50Z</time></trkpt><trkpt lat="34.038137729580086" lon="-4.99773056105623"><ele>397.0</ele><time>2026-04-27T14:25:51Z</time></trkpt><trkpt lat="34.03823063561969" lon="-4.997684772635343"><ele>397.0</ele><time>2026-04-27T14:25:52Z</time></trkpt><trkpt lat="34.038325562117635" lon="-4.997639015715288"><ele>397.0</ele><time>2026-04-27T14:25:53Z</time></trkpt><trkpt lat="34.03842248053878" lon="-4.997590512593018"><ele>397.0</ele><time>2026-04-27T14:25:54Z</time></trkpt><trkpt lat="34.03851992654941" lon="-4.997539819500804"><ele>397.0</ele><time>2026-04-27T14:25:55Z</time></trkpt><trkpt lat="34.038617511411786" lon="-4.9974897055933"><ele>396.6</ele><time>2026-04-27T14:25:56Z</time></trkpt><trkpt lat="34.0387190420838" lon="-4.997438969669822"><ele>396.20000000000005</ele><time>2026-04-27T14:25:57Z</time></trkpt><trkpt lat="34.03881972001759" lon="-4.997381703810921"><ele>395.8</ele><time>2026-04-27T14:25:58Z</time></trkpt><trkpt lat="34.038918267657046" lon="-4.997327841226462"><ele>395.4</ele><time>2026-04-27T14:25:59Z</time></trkpt><trkpt lat="34.0390157525196" lon="-4.9972751576033145"><ele>395.0</ele><time>2026-04-27T14:26:00Z</time></trkpt><trkpt lat="34.03911251197741" lon="-4.997224009798804"><ele>394.0</ele><time>2026-04-27T14:26:01Z</time></trkpt><trkpt lat="34.039213854843965" lon="-4.997170131747534"><ele>393.0</ele><time>2026-04-27T14:26:02Z</time></trkpt><trkpt lat="34.03931801081993" lon="-4.997117619745043"><ele>392.0</ele><time>2026-04-27T14:26:03Z</time></trkpt><trkpt lat="34.03942310541854" lon="-4.997060570158612"><ele>391.0</ele><time>2026-04-27T14:26:04Z</time></trkpt><trkpt lat="34.03952922424781" lon="-4.997003199454585"><ele>391.0</ele><time>2026-04-27T14:26:05Z</time></trkpt><trkpt lat="34.039630694142886" lon="-4.9969481187713685"><ele>391.0</ele><time>2026-04-27T14:26:06Z</time></trkpt><trkpt lat="34.03972140547142" lon="-4.996896724817472"><ele>391.0</ele><time>2026-04-27T14:26:07Z</time></trkpt><trkpt lat="34.03979891282108" lon="-4.996841634250598"><ele>391.0</ele><time>2026-04-27T14:26:08Z</time></trkpt><trkpt lat="34.03986109248633" lon="-4.996781102768591"><ele>391.0</ele><time>2026-04-27T14:26:09Z</time></trkpt><trkpt lat="34.039913752612364" lon="-4.996718957890547"><ele>391.2857142857143</ele><time>2026-04-27T14:26:10Z</time></trkpt><trkpt lat="34.03997064627983" lon="-4.996662668436004"><ele>391.57142857142856</ele><time>2026-04-27T14:26:11Z</time></trkpt><trkpt lat="34.040033024859355" lon="-4.996616764872925"><ele>391.8571428571429</ele><time>2026-04-27T14:26:12Z</time></trkpt><trkpt lat="34.040102913291854" lon="-4.996586552919031"><ele>392.1428571428571</ele><time>2026-04-27T14:26:13Z</time></trkpt><trkpt lat="34.040172264389675" lon="-4.996573452104498"><ele>392.42857142857144</ele><time>2026-04-27T14:26:14Z</time></trkpt><trkpt lat="34.04024190562448" lon="-4.9965698459573495"><ele>392.7142857142857</ele><time>2026-04-27T14:26:15Z</time></trkpt><trkpt lat="34.04031441941108" lon="-4.99657396412381"><ele>393.0</ele><time>2026-04-27T14:26:16Z</time></trkpt><trkpt lat="34.04038024264519" lon="-4.9965780649091736"><ele>393.0</ele><time>2026-04-27T14:26:17Z</time></trkpt><trkpt lat="34.04048611156202" lon="-4.996581160939387"><ele>393.0</ele><time>2026-04-27T14:26:19Z</time></trkpt><trkpt lat="34.04056894027842" lon="-4.996586027463746"><ele>393.0</ele><time>2026-04-27T14:26:21Z</time></trkpt><trkpt lat="34.04065197214584" lon="-4.996590547640211"><ele>393.0</ele><time>2026-04-27T14:26:23Z</time></trkpt><trkpt lat="34.04074462936401" lon="-4.996596092562565"><ele>393.0</ele><time>2026-04-27T14:26:25Z</time></trkpt><trkpt lat="34.040844846710094" lon="-4.996605258211711"><ele>392.25</ele><time>2026-04-27T14:26:27Z</time></trkpt><trkpt lat="34.0409583107562" lon="-4.996610300462359"><ele>391.5</ele><time>2026-04-27T14:26:29Z</time></trkpt><trkpt lat="34.041074447184286" lon="-4.996621854784436"><ele>390.75</ele><time>2026-04-27T14:26:31Z</time></trkpt><trkpt lat="34.0411923277298" lon="-4.9966276527188125"><ele>390.0</ele><time>2026-04-27T14:26:33Z</time></trkpt><trkpt lat="34.041310904123876" lon="-4.996632753670734"><ele>390.0</ele><time>2026-04-27T14:26:35Z</time></trkpt><trkpt lat="34.04142187956583" lon="-4.996621760634656"><ele>390.0</ele><time>2026-04-27T14:26:37Z</time></trkpt><trkpt lat="34.04152057015723" lon="-4.996627372763136"><ele>390.0</ele><time>2026-04-27T14:26:39Z</time></trkpt><trkpt lat="34.04159484736882" lon="-4.99663422525441"><ele>390.0</ele><time>2026-04-27T14:26:42Z</time></trkpt><trkpt lat="34.04166816654233" lon="-4.996640469165259"><ele>390.0</ele><time>2026-04-27T14:26:50Z</time></trkpt><trkpt lat="34.041732647072216" lon="-4.996646008991658"><ele>390.0</ele><time>2026-04-27T14:26:52Z</time></trkpt><trkpt lat="34.041810660873175" lon="-4.9966524871345"><ele>390.0</ele><time>2026-04-27T14:26:56Z</time></trkpt><trkpt lat="34.04189073282124" lon="-4.996659030650918"><ele>390.0</ele><time>2026-04-27T14:26:58Z</time></trkpt><trkpt lat="34.04201956031348" lon="-4.99666955848579"><ele>390.0</ele><time>2026-04-27T14:27:00Z</time></trkpt><trkpt lat="34.042101795459885" lon="-4.996675579144762"><ele>390.0</ele><time>2026-04-27T14:27:01Z</time></trkpt><trkpt lat="34.042191613042945" lon="-4.99668196315502"><ele>390.0</ele><time>2026-04-27T14:27:02Z</time></trkpt><trkpt lat="34.0422781258692" lon="-4.9966881122727"><ele>390.0</ele><time>2026-04-27T14:27:03Z</time></trkpt><trkpt lat="34.04235709867068" lon="-4.996693725456877"><ele>390.0</ele><time>2026-04-27T14:27:04Z</time></trkpt><trkpt lat="34.04242700818174" lon="-4.99669869445616"><ele>390.0</ele><time>2026-04-27T14:27:05Z</time></trkpt><trkpt lat="34.04253755159837" lon="-4.996706551608202"><ele>390.0</ele><time>2026-04-27T14:27:07Z</time></trkpt><trkpt lat="34.04261411341367" lon="-4.9967119935692565"><ele>390.0</ele><time>2026-04-27T14:27:09Z</time></trkpt><trkpt lat="34.04268445022051" lon="-4.996718707040156"><ele>390.0</ele><time>2026-04-27T14:27:12Z</time></trkpt><trkpt lat="34.04276030983056" lon="-4.996744289876041"><ele>390.0</ele><time>2026-04-27T14:27:17Z</time></trkpt><trkpt lat="34.04283638776602" lon="-4.9967500968006675"><ele>390.0</ele><time>2026-04-27T14:27:20Z</time></trkpt><trkpt lat="34.042908018758" lon="-4.996737216636512"><ele>390.0</ele><time>2026-04-27T14:27:22Z</time></trkpt><trkpt lat="34.04296944792793" lon="-4.996756969900617"><ele>390.0</ele><time>2026-04-27T14:27:24Z</time></trkpt><trkpt lat="34.04307773995657" lon="-4.996769204361947"><ele>390.0</ele><time>2026-04-27T14:27:27Z</time></trkpt><trkpt lat="34.04314518287544" lon="-4.99677526652107"><ele>390.0</ele><time>2026-04-27T14:27:29Z</time></trkpt><trkpt lat="34.04321831227839" lon="-4.996777001744908"><ele>389.2</ele><time>2026-04-27T14:27:32Z</time></trkpt><trkpt lat="34.043305834502775" lon="-4.996773284841358"><ele>388.4</ele><time>2026-04-27T14:27:34Z</time></trkpt><trkpt lat="34.043414869774054" lon="-4.996778946944961"><ele>387.6</ele><time>2026-04-27T14:27:36Z</time></trkpt><trkpt lat="34.04351601089765" lon="-4.996782000542141"><ele>386.8</ele><time>2026-04-27T14:27:38Z</time></trkpt><trkpt lat="34.043623272602325" lon="-4.996783587158909"><ele>386.0</ele><time>2026-04-27T14:27:40Z</time></trkpt><trkpt lat="34.043735839765425" lon="-4.996781522380842"><ele>385.99999999999994</ele><time>2026-04-27T14:27:42Z</time></trkpt><trkpt lat="34.043829598829824" lon="-4.996777278344334"><ele>386.0</ele><time>2026-04-27T14:27:44Z</time></trkpt><trkpt lat="34.04391333140736" lon="-4.996771212006972"><ele>386.0</ele><time>2026-04-27T14:27:47Z</time></trkpt><trkpt lat="34.04399227761529" lon="-4.996781192669071"><ele>386.0</ele><time>2026-04-27T14:28:45Z</time></trkpt><trkpt lat="34.044091199046825" lon="-4.9967762681559424"><ele>385.99999999999994</ele><time>2026-04-27T14:28:48Z</time></trkpt><trkpt lat="34.04415895785893" lon="-4.9967755317202105"><ele>386.0</ele><time>2026-04-27T14:28:50Z</time></trkpt><trkpt lat="34.04422523219111" lon="-4.996767013184588"><ele>386.16666666666663</ele><time>2026-04-27T14:28:52Z</time></trkpt><trkpt lat="34.044302490011525" lon="-4.996745624370024"><ele>386.3333333333333</ele><time>2026-04-27T14:28:55Z</time></trkpt><trkpt lat="34.04437177532936" lon="-4.996731959459628"><ele>386.5</ele><time>2026-04-27T14:28:59Z</time></trkpt><trkpt lat="34.04444728571004" lon="-4.996716301020981"><ele>386.66666666666663</ele><time>2026-04-27T14:29:01Z</time></trkpt><trkpt lat="34.04455916290991" lon="-4.99673621174164"><ele>386.8333333333333</ele><time>2026-04-27T14:29:03Z</time></trkpt><trkpt lat="34.044628884455214" lon="-4.996660054597106"><ele>387.0</ele><time>2026-04-27T14:29:04Z</time></trkpt><trkpt lat="34.04469435228471" lon="-4.996624168918822"><ele>387.1666666666667</ele><time>2026-04-27T14:29:05Z</time></trkpt><trkpt lat="34.04475718399661" lon="-4.996574983194698"><ele>387.33333333333337</ele><time>2026-04-27T14:29:06Z</time></trkpt><trkpt lat="34.04481983256908" lon="-4.996521735826242"><ele>387.5</ele><time>2026-04-27T14:29:07Z</time></trkpt><trkpt lat="34.04488599792522" lon="-4.996475516076872"><ele>387.6666666666667</ele><time>2026-04-27T14:29:08Z</time></trkpt><trkpt lat="34.04495738731775" lon="-4.99642031433943"><ele>387.83333333333337</ele><time>2026-04-27T14:29:09Z</time></trkpt><trkpt lat="34.04503694368607" lon="-4.996350196044087"><ele>388.0</ele><time>2026-04-27T14:29:10Z</time></trkpt><trkpt lat="34.04512235027732" lon="-4.996276766057367"><ele>388.0</ele><time>2026-04-27T14:29:11Z</time></trkpt><trkpt lat="34.04521345743759" lon="-4.996201945309668"><ele>388.0</ele><time>2026-04-27T14:29:12Z</time></trkpt><trkpt lat="34.04530468567988" lon="-4.996130608673222"><ele>388.0</ele><time>2026-04-27T14:29:13Z</time></trkpt><trkpt lat="34.04539601912148" lon="-4.99605943489016"><ele>388.0</ele><time>2026-04-27T14:29:14Z</time></trkpt><trkpt lat="34.045489912034675" lon="-4.995987111964978"><ele>388.0</ele><time>2026-04-27T14:29:15Z</time></trkpt><trkpt lat="34.04558360247863" lon="-4.995913151206696"><ele>388.0</ele><time>2026-04-27T14:29:16Z</time></trkpt><trkpt lat="34.04567627179409" lon="-4.99583898751088"><ele>388.0</ele><time>2026-04-27T14:29:17Z</time></trkpt><trkpt lat="34.045765870322484" lon="-4.995766310056333"><ele>388.0</ele><time>2026-04-27T14:29:18Z</time></trkpt><trkpt lat="34.04585023111199" lon="-4.995698480669697"><ele>388.0</ele><time>2026-04-27T14:29:19Z</time></trkpt><trkpt lat="34.04593115879989" lon="-4.995631744294923"><ele>388.0</ele><time>2026-04-27T14:29:20Z</time></trkpt><trkpt lat="34.04601152673513" lon="-4.995570311366734"><ele>387.4</ele><time>2026-04-27T14:29:21Z</time></trkpt><trkpt lat="34.04608901029621" lon="-4.995507871295982"><ele>386.79999999999995</ele><time>2026-04-27T14:29:22Z</time></trkpt><trkpt lat="34.046170994389826" lon="-4.995444143813831"><ele>386.2</ele><time>2026-04-27T14:29:23Z</time></trkpt><trkpt lat="34.04625394933686" lon="-4.9953804731025135"><ele>385.6</ele><time>2026-04-27T14:29:24Z</time></trkpt><trkpt lat="34.04633926794985" lon="-4.995314443130682"><ele>385.0</ele><time>2026-04-27T14:29:25Z</time></trkpt><trkpt lat="34.046426695044026" lon="-4.995245417378052"><ele>385.0</ele><time>2026-04-27T14:29:26Z</time></trkpt><trkpt lat="34.0465158857558" lon="-4.9951754034641755"><ele>385.0</ele><time>2026-04-27T14:29:27Z</time></trkpt><trkpt lat="34.04660287696767" lon="-4.995101688326792"><ele>385.0</ele><time>2026-04-27T14:29:28Z</time></trkpt><trkpt lat="34.04668844985833" lon="-4.995030616914777"><ele>385.0</ele><time>2026-04-27T14:29:29Z</time></trkpt><trkpt lat="34.04677497707352" lon="-4.994959620952631"><ele>385.0</ele><time>2026-04-27T14:29:30Z</time></trkpt><trkpt lat="34.04686010451294" lon="-4.994890799294941"><ele>383.2</ele><time>2026-04-27T14:29:31Z</time></trkpt><trkpt lat="34.04694194314964" lon="-4.9948259993270385"><ele>381.4</ele><time>2026-04-27T14:29:32Z</time></trkpt><trkpt lat="34.04702423367726" lon="-4.994760207727842"><ele>379.6</ele><time>2026-04-27T14:29:33Z</time></trkpt><trkpt lat="34.04710837525615" lon="-4.994694400053878"><ele>377.8</ele><time>2026-04-27T14:29:34Z</time></trkpt><trkpt lat="34.04719396007356" lon="-4.994627725009578"><ele>376.0</ele><time>2026-04-27T14:29:35Z</time></trkpt><trkpt lat="34.04727013492931" lon="-4.994564607148051"><ele>376.0</ele><time>2026-04-27T14:29:36Z</time></trkpt><trkpt lat="34.047338928909326" lon="-4.994507828169212"><ele>376.0</ele><time>2026-04-27T14:29:37Z</time></trkpt><trkpt lat="34.047399853071404" lon="-4.994457651184038"><ele>376.0</ele><time>2026-04-27T14:29:38Z</time></trkpt><trkpt lat="34.04745222603566" lon="-4.994414856331368"><ele>376.0</ele><time>2026-04-27T14:29:39Z</time></trkpt><trkpt lat="34.04753248723572" lon="-4.994349301783338"><ele>376.0</ele><time>2026-04-27T14:29:41Z</time></trkpt><trkpt lat="34.047601954424024" lon="-4.994310071979613"><ele>376.0</ele><time>2026-04-27T14:29:43Z</time></trkpt><trkpt lat="34.04767267374826" lon="-4.994274748096465"><ele>376.3333333333333</ele><time>2026-04-27T14:29:46Z</time></trkpt><trkpt lat="34.04771888493534" lon="-4.994218264740053"><ele>376.66666666666663</ele><time>2026-04-27T14:29:54Z</time></trkpt><trkpt lat="34.04778177852788" lon="-4.99416854687216"><ele>377.0</ele><time>2026-04-27T14:30:03Z</time></trkpt><trkpt lat="34.047834592131565" lon="-4.994112194710338"><ele>377.3333333333333</ele><time>2026-04-27T14:30:05Z</time></trkpt><trkpt lat="34.04790696751582" lon="-4.994064938756662"><ele>377.6666666666667</ele><time>2026-04-27T14:30:06Z</time></trkpt><trkpt lat="34.04798865685441" lon="-4.994015649040185"><ele>378.0</ele><time>2026-04-27T14:30:07.001Z</time></trkpt><trkpt lat="34.04807739348625" lon="-4.993952823432266"><ele>375.5</ele><time>2026-04-27T14:30:08.001Z</time></trkpt><trkpt lat="34.04817695229412" lon="-4.993878249289346"><ele>373.0</ele><time>2026-04-27T14:30:09.001Z</time></trkpt><trkpt lat="34.04828745910783" lon="-4.993793154444777"><ele>370.5</ele><time>2026-04-27T14:30:10.001Z</time></trkpt><trkpt lat="34.048408171401746" lon="-4.993696820415474"><ele>368.0</ele><time>2026-04-27T14:30:11.001Z</time></trkpt><trkpt lat="34.048530485758526" lon="-4.993592505368376"><ele>368.0</ele><time>2026-04-27T14:30:12.001Z</time></trkpt><trkpt lat="34.04865604915027" lon="-4.993477144670793"><ele>368.0</ele><time>2026-04-27T14:30:13.001Z</time></trkpt><trkpt lat="34.04878235999643" lon="-4.993353145637665"><ele>368.0</ele><time>2026-04-27T14:30:14.001Z</time></trkpt><trkpt lat="34.04890177310154" lon="-4.9932285085383"><ele>364.75</ele><time>2026-04-27T14:30:15.001Z</time></trkpt><trkpt lat="34.049014073091314" lon="-4.993106370746162"><ele>361.5</ele><time>2026-04-27T14:30:16.001Z</time></trkpt><trkpt lat="34.049120901835224" lon="-4.9929875279405485"><ele>358.25</ele><time>2026-04-27T14:30:17.001Z</time></trkpt><trkpt lat="34.04922127374642" lon="-4.992870404781388"><ele>355.0</ele><time>2026-04-27T14:30:18.001Z</time></trkpt><trkpt lat="34.049324359456634" lon="-4.9927462671875915"><ele>355.0</ele><time>2026-04-27T14:30:19.001Z</time></trkpt><trkpt lat="34.04942751553614" lon="-4.992618689401483"><ele>355.0</ele><time>2026-04-27T14:30:20.001Z</time></trkpt><trkpt lat="34.04952965817601" lon="-4.9924853074882405"><ele>355.0</ele><time>2026-04-27T14:30:21Z</time></trkpt><trkpt lat="34.049627889105246" lon="-4.992346177661443"><ele>354.5</ele><time>2026-04-27T14:30:22Z</time></trkpt><trkpt lat="34.04972280083804" lon="-4.992206536951085"><ele>354.0</ele><time>2026-04-27T14:30:23Z</time></trkpt><trkpt lat="34.04981373353497" lon="-4.992066610488346"><ele>353.5</ele><time>2026-04-27T14:30:24Z</time></trkpt><trkpt lat="34.049902751883" lon="-4.99192567164877"><ele>353.0</ele><time>2026-04-27T14:30:25Z</time></trkpt><trkpt lat="34.04998947752477" lon="-4.991784602435198"><ele>351.75</ele><time>2026-04-27T14:30:26Z</time></trkpt><trkpt lat="34.05007366282705" lon="-4.9916456406616385"><ele>350.5</ele><time>2026-04-27T14:30:27Z</time></trkpt><trkpt lat="34.05015433606127" lon="-4.991511415534934"><ele>349.25</ele><time>2026-04-27T14:30:28Z</time></trkpt><trkpt lat="34.050228634982" lon="-4.991380742182905"><ele>348.0</ele><time>2026-04-27T14:30:29Z</time></trkpt><trkpt lat="34.0502968662719" lon="-4.991260079632171"><ele>348.0</ele><time>2026-04-27T14:30:30Z</time></trkpt><trkpt lat="34.050358293922656" lon="-4.99115035383416"><ele>348.0</ele><time>2026-04-27T14:30:31Z</time></trkpt><trkpt lat="34.05040957795645" lon="-4.9910549469575365"><ele>348.0</ele><time>2026-04-27T14:30:32Z</time></trkpt><trkpt lat="34.05045050867746" lon="-4.9909759418895385"><ele>348.0</ele><time>2026-04-27T14:30:33Z</time></trkpt><trkpt lat="34.05050836447084" lon="-4.990878847851321"><ele>348.0</ele><time>2026-04-27T14:30:35Z</time></trkpt><trkpt lat="34.05055137430199" lon="-4.990818075959317"><ele>348.0</ele><time>2026-04-27T14:30:37Z</time></trkpt><trkpt lat="34.050611447046606" lon="-4.990751677149166"><ele>347.3333333333333</ele><time>2026-04-27T14:30:50.001Z</time></trkpt><trkpt lat="34.05070221127468" lon="-4.990666769832676"><ele>346.6666666666667</ele><time>2026-04-27T14:30:52.001Z</time></trkpt><trkpt lat="34.05076545471214" lon="-4.99062531832861"><ele>346.0</ele><time>2026-04-27T14:30:53.001Z</time></trkpt><trkpt lat="34.050833138247455" lon="-4.990580375533744"><ele>345.33333333333337</ele><time>2026-04-27T14:30:54.001Z</time></trkpt><trkpt lat="34.05090185658792" lon="-4.990538437136996"><ele>344.6666666666667</ele><time>2026-04-27T14:30:55.001Z</time></trkpt><trkpt lat="34.05097214053363" lon="-4.990492947785791"><ele>344.0</ele><time>2026-04-27T14:30:56.001Z</time></trkpt><trkpt lat="34.05104417537118" lon="-4.99044088934089"><ele>344.5</ele><time>2026-04-27T14:30:57.001Z</time></trkpt><trkpt lat="34.051112186590984" lon="-4.99037912236495"><ele>345.0</ele><time>2026-04-27T14:30:58.001Z</time></trkpt><trkpt lat="34.05116765891917" lon="-4.990314793321683"><ele>345.5</ele><time>2026-04-27T14:30:59.001Z</time></trkpt><trkpt lat="34.05122761444642" lon="-4.9902390763686455"><ele>346.0</ele><time>2026-04-27T14:31:00.001Z</time></trkpt><trkpt lat="34.05129188886647" lon="-4.990155010916999"><ele>346.5</ele><time>2026-04-27T14:31:01.001Z</time></trkpt><trkpt lat="34.05136306208463" lon="-4.990069708649011"><ele>347.0</ele><time>2026-04-27T14:31:02.001Z</time></trkpt><trkpt lat="34.051441903189456" lon="-4.98998806704252"><ele>347.0</ele><time>2026-04-27T14:31:03.001Z</time></trkpt><trkpt lat="34.051523516039644" lon="-4.989898612751884"><ele>347.0</ele><time>2026-04-27T14:31:04.001Z</time></trkpt><trkpt lat="34.05160893080552" lon="-4.989804585402994"><ele>347.0</ele><time>2026-04-27T14:31:05.001Z</time></trkpt><trkpt lat="34.05169790024863" lon="-4.989703809837572"><ele>347.0</ele><time>2026-04-27T14:31:06.001Z</time></trkpt><trkpt lat="34.051790875933435" lon="-4.989600503316299"><ele>348.25</ele><time>2026-04-27T14:31:07.001Z</time></trkpt><trkpt lat="34.05188647596486" lon="-4.9894975714543195"><ele>349.5</ele><time>2026-04-27T14:31:08.001Z</time></trkpt><trkpt lat="34.051982552959196" lon="-4.989390892796929"><ele>350.75</ele><time>2026-04-27T14:31:09.001Z</time></trkpt><trkpt lat="34.05207510397767" lon="-4.989282431624253"><ele>352.0</ele><time>2026-04-27T14:31:10.001Z</time></trkpt><trkpt lat="34.052155823206036" lon="-4.9891637033312835"><ele>352.0</ele><time>2026-04-27T14:31:11.001Z</time></trkpt><trkpt lat="34.05222595632578" lon="-4.989027645485822"><ele>352.0</ele><time>2026-04-27T14:31:12.001Z</time></trkpt><trkpt lat="34.05228588604682" lon="-4.9888682217157685"><ele>352.0</ele><time>2026-04-27T14:31:13.001Z</time></trkpt><trkpt lat="34.05233985440522" lon="-4.988699383892247"><ele>352.0</ele><time>2026-04-27T14:31:14.001Z</time></trkpt><trkpt lat="34.05239405095146" lon="-4.9885257640521505"><ele>352.0</ele><time>2026-04-27T14:31:15.001Z</time></trkpt><trkpt lat="34.05244992655038" lon="-4.98834688830825"><ele>352.0</ele><time>2026-04-27T14:31:16.001Z</time></trkpt><trkpt lat="34.05250864100253" lon="-4.988162966393656"><ele>352.0</ele><time>2026-04-27T14:31:17.001Z</time></trkpt><trkpt lat="34.052567012710945" lon="-4.987976642034301"><ele>353.3333333333333</ele><time>2026-04-27T14:31:18.001Z</time></trkpt><trkpt lat="34.05262406248009" lon="-4.987790679746653"><ele>354.6666666666667</ele><time>2026-04-27T14:31:19.001Z</time></trkpt><trkpt lat="34.05268135041006" lon="-4.98760836079615"><ele>356.0</ele><time>2026-04-27T14:31:20.001Z</time></trkpt><trkpt lat="34.05274027771193" lon="-4.987435185693992"><ele>356.0</ele><time>2026-04-27T14:31:21.001Z</time></trkpt><trkpt lat="34.05279610899965" lon="-4.9872698850232595"><ele>356.0</ele><time>2026-04-27T14:31:22.001Z</time></trkpt><trkpt lat="34.05285715704391" lon="-4.98711303181361"><ele>356.0</ele><time>2026-04-27T14:31:23.001Z</time></trkpt><trkpt lat="34.05293646777849" lon="-4.986968560137347"><ele>356.0</ele><time>2026-04-27T14:31:24.001Z</time></trkpt><trkpt lat="34.05303656773631" lon="-4.986837015714173"><ele>356.0</ele><time>2026-04-27T14:31:25.001Z</time></trkpt><trkpt lat="34.053154858185486" lon="-4.9867209741153475"><ele>356.0</ele><time>2026-04-27T14:31:26.001Z</time></trkpt><trkpt lat="34.053284106105686" lon="-4.986623253732764"><ele>356.0</ele><time>2026-04-27T14:31:27.001Z</time></trkpt><trkpt lat="34.05341207826234" lon="-4.986539170891977"><ele>357.25</ele><time>2026-04-27T14:31:28.001Z</time></trkpt><trkpt lat="34.05353323457322" lon="-4.986454903813743"><ele>358.5</ele><time>2026-04-27T14:31:29.001Z</time></trkpt><trkpt lat="34.053644820628584" lon="-4.9863780616833555"><ele>359.75</ele><time>2026-04-27T14:31:30.001Z</time></trkpt><trkpt lat="34.053743205625466" lon="-4.986306108637905"><ele>361.0</ele><time>2026-04-27T14:31:31.001Z</time></trkpt><trkpt lat="34.05383617828376" lon="-4.9862387515370115"><ele>361.0</ele><time>2026-04-27T14:31:32.001Z</time></trkpt><trkpt lat="34.05391589666338" lon="-4.986183025630629"><ele>361.0</ele><time>2026-04-27T14:31:33.001Z</time></trkpt><trkpt lat="34.05397442541861" lon="-4.986151539267728"><ele>361.0</ele><time>2026-04-27T14:32:23.001Z</time></trkpt><trkpt lat="34.054042188787754" lon="-4.986114987543868"><ele>361.0</ele><time>2026-04-27T14:32:25.001Z</time></trkpt><trkpt lat="34.05410399665925" lon="-4.986077965654657"><ele>361.0</ele><time>2026-04-27T14:32:26.001Z</time></trkpt><trkpt lat="34.05417745676265" lon="-4.986037444431312"><ele>361.0</ele><time>2026-04-27T14:32:27Z</time></trkpt><trkpt lat="34.05425407133925" lon="-4.986004508521919"><ele>361.5</ele><time>2026-04-27T14:32:28Z</time></trkpt><trkpt lat="34.05433416139652" lon="-4.985972546382655"><ele>362.0</ele><time>2026-04-27T14:32:29Z</time></trkpt><trkpt lat="34.05441336619412" lon="-4.985938920225801"><ele>362.5</ele><time>2026-04-27T14:32:30Z</time></trkpt><trkpt lat="34.054490087165846" lon="-4.9859017381459445"><ele>363.0</ele><time>2026-04-27T14:32:31Z</time></trkpt><trkpt lat="34.05457350617335" lon="-4.985849214977986"><ele>363.5</ele><time>2026-04-27T14:32:32Z</time></trkpt><trkpt lat="34.054663829859045" lon="-4.985793526601479"><ele>364.0</ele><time>2026-04-27T14:32:33Z</time></trkpt><trkpt lat="34.05475909980985" lon="-4.9857356611809145"><ele>364.0</ele><time>2026-04-27T14:32:34Z</time></trkpt><trkpt lat="34.054854781239776" lon="-4.985677350805254"><ele>364.0</ele><time>2026-04-27T14:32:35Z</time></trkpt><trkpt lat="34.05495438383802" lon="-4.985618206695814"><ele>364.0</ele><time>2026-04-27T14:32:36Z</time></trkpt><trkpt lat="34.05506203117334" lon="-4.985548400103964"><ele>364.0</ele><time>2026-04-27T14:32:37Z</time></trkpt><trkpt lat="34.05517604459505" lon="-4.985473369368075"><ele>365.75</ele><time>2026-04-27T14:32:38Z</time></trkpt><trkpt lat="34.05529094866017" lon="-4.985394071243035"><ele>367.5</ele><time>2026-04-27T14:32:39Z</time></trkpt><trkpt lat="34.0554063552592" lon="-4.985310888896061"><ele>369.25</ele><time>2026-04-27T14:32:40Z</time></trkpt><trkpt lat="34.05552084166788" lon="-4.9852241983289485"><ele>371.0</ele><time>2026-04-27T14:32:41Z</time></trkpt><trkpt lat="34.05563198338996" lon="-4.9851253029151215"><ele>370.5</ele><time>2026-04-27T14:32:42Z</time></trkpt><trkpt lat="34.05573757054012" lon="-4.98500893551017"><ele>370.0</ele><time>2026-04-27T14:32:43Z</time></trkpt><trkpt lat="34.055831037282495" lon="-4.984877145357514"><ele>369.5</ele><time>2026-04-27T14:32:44Z</time></trkpt><trkpt lat="34.05591190353456" lon="-4.984754286340381"><ele>369.0</ele><time>2026-04-27T14:32:45Z</time></trkpt><trkpt lat="34.05599969741291" lon="-4.9846181722405785"><ele>369.0</ele><time>2026-04-27T14:32:46Z</time></trkpt><trkpt lat="34.056074679947216" lon="-4.984499424423586"><ele>369.0</ele><time>2026-04-27T14:32:47Z</time></trkpt><trkpt lat="34.0561373761536" lon="-4.984389893076947"><ele>369.0</ele><time>2026-04-27T14:32:48Z</time></trkpt><trkpt lat="34.05618967486206" lon="-4.984295763190547"><ele>369.0</ele><time>2026-04-27T14:32:49Z</time></trkpt><trkpt lat="34.0562312639156" lon="-4.9842190267830375"><ele>369.0</ele><time>2026-04-27T14:32:50Z</time></trkpt><trkpt lat="34.056292371697715" lon="-4.984103532120325"><ele>369.4</ele><time>2026-04-27T14:32:52Z</time></trkpt><trkpt lat="34.056351716091584" lon="-4.983998194508043"><ele>369.79999999999995</ele><time>2026-04-27T14:32:54Z</time></trkpt><trkpt lat="34.05638259022879" lon="-4.983878763524436"><ele>370.20000000000005</ele><time>2026-04-27T14:32:56Z</time></trkpt><trkpt lat="34.0563548422919" lon="-4.98372483814874"><ele>370.6</ele><time>2026-04-27T14:32:58Z</time></trkpt><trkpt lat="34.05631165146727" lon="-4.983646567062987"><ele>371.0</ele><time>2026-04-27T14:32:59Z</time></trkpt><trkpt lat="34.05625376684314" lon="-4.983569226937486"><ele>371.0</ele><time>2026-04-27T14:33:00Z</time></trkpt><trkpt lat="34.05619225665877" lon="-4.98348697910814"><ele>371.0</ele><time>2026-04-27T14:33:01Z</time></trkpt><trkpt lat="34.05613410843578" lon="-4.983395348575243"><ele>371.0</ele><time>2026-04-27T14:33:02Z</time></trkpt><trkpt lat="34.05607911598155" lon="-4.983297561128135"><ele>371.0</ele><time>2026-04-27T14:33:03Z</time></trkpt><trkpt lat="34.056027719242" lon="-4.983199757186443"><ele>371.0</ele><time>2026-04-27T14:33:04Z</time></trkpt><trkpt lat="34.0559745955315" lon="-4.983094098844365"><ele>370.20000000000005</ele><time>2026-04-27T14:33:05.001Z</time></trkpt><trkpt lat="34.05591854440392" lon="-4.98298240833947"><ele>369.40000000000003</ele><time>2026-04-27T14:33:06.001Z</time></trkpt><trkpt lat="34.05586274863038" lon="-4.982868911173959"><ele>368.6</ele><time>2026-04-27T14:33:07.001Z</time></trkpt><trkpt lat="34.055807045559234" lon="-4.982753265078627"><ele>367.8</ele><time>2026-04-27T14:33:08.001Z</time></trkpt><trkpt lat="34.05575180364172" lon="-4.982639281759"><ele>367.0</ele><time>2026-04-27T14:33:09.001Z</time></trkpt><trkpt lat="34.05569679887565" lon="-4.9825300645560935"><ele>365.6</ele><time>2026-04-27T14:33:10.001Z</time></trkpt><trkpt lat="34.055643822566076" lon="-4.982423721508831"><ele>364.20000000000005</ele><time>2026-04-27T14:33:11.001Z</time></trkpt><trkpt lat="34.05559500504824" lon="-4.982321559917479"><ele>362.8</ele><time>2026-04-27T14:33:12.001Z</time></trkpt><trkpt lat="34.05555028510325" lon="-4.982222994074437"><ele>361.4</ele><time>2026-04-27T14:33:13.001Z</time></trkpt><trkpt lat="34.05550995517506" lon="-4.9821351588275204"><ele>360.0</ele><time>2026-04-27T14:33:14.001Z</time></trkpt><trkpt lat="34.05546919777571" lon="-4.982061009967894"><ele>360.0</ele><time>2026-04-27T14:33:15.001Z</time></trkpt><trkpt lat="34.05542360902655" lon="-4.9820020721881395"><ele>360.0</ele><time>2026-04-27T14:33:16.001Z</time></trkpt><trkpt lat="34.05535798516798" lon="-4.981894651389558"><ele>360.0</ele><time>2026-04-27T14:33:18.001Z</time></trkpt><trkpt lat="34.055379583929074" lon="-4.981765443483516"><ele>360.0</ele><time>2026-04-27T14:33:20.001Z</time></trkpt><trkpt lat="34.05543800912393" lon="-4.981700630089616"><ele>360.0</ele><time>2026-04-27T14:33:21.001Z</time></trkpt><trkpt lat="34.05551075215865" lon="-4.981637881423507"><ele>359.8</ele><time>2026-04-27T14:33:22.001Z</time></trkpt><trkpt lat="34.05558599980207" lon="-4.981561727373708"><ele>359.6</ele><time>2026-04-27T14:33:23.001Z</time></trkpt><trkpt lat="34.055667488604584" lon="-4.98147872628739"><ele>359.4</ele><time>2026-04-27T14:33:24.001Z</time></trkpt><trkpt lat="34.05575555621229" lon="-4.981393733698222"><ele>359.2</ele><time>2026-04-27T14:33:25.001Z</time></trkpt><trkpt lat="34.05585221908161" lon="-4.9813098793489745"><ele>359.0</ele><time>2026-04-27T14:33:26.001Z</time></trkpt><trkpt lat="34.055958039109726" lon="-4.981232421913405"><ele>359.0</ele><time>2026-04-27T14:33:27.001Z</time></trkpt><trkpt lat="34.05607328479358" lon="-4.9811580352271205"><ele>359.0</ele><time>2026-04-27T14:33:28.001Z</time></trkpt><trkpt lat="34.0561910288784" lon="-4.981079880725237"><ele>359.0</ele><time>2026-04-27T14:33:29.001Z</time></trkpt><trkpt lat="34.05630950696761" lon="-4.981007671369024"><ele>359.0</ele><time>2026-04-27T14:33:30.001Z</time></trkpt><trkpt lat="34.056433071204516" lon="-4.980941204533301"><ele>359.0</ele><time>2026-04-27T14:33:31.001Z</time></trkpt><trkpt lat="34.056556939492204" lon="-4.980870088783841"><ele>359.0</ele><time>2026-04-27T14:33:32.001Z</time></trkpt><trkpt lat="34.05667410971027" lon="-4.980800166540656"><ele>359.0</ele><time>2026-04-27T14:33:33.001Z</time></trkpt><trkpt lat="34.056776983987916" lon="-4.980742058111501"><ele>359.0</ele><time>2026-04-27T14:33:34.001Z</time></trkpt><trkpt lat="34.056871121347505" lon="-4.980687782182395"><ele>358.83333333333337</ele><time>2026-04-27T14:33:35.001Z</time></trkpt><trkpt lat="34.05695444259142" lon="-4.980630992472333"><ele>358.6666666666667</ele><time>2026-04-27T14:33:36.001Z</time></trkpt><trkpt lat="34.0570269421682" lon="-4.980566807062625"><ele>358.5</ele><time>2026-04-27T14:33:37.001Z</time></trkpt><trkpt lat="34.05708737075354" lon="-4.98048653921509"><ele>358.3333333333333</ele><time>2026-04-27T14:33:38.001Z</time></trkpt><trkpt lat="34.057131122076775" lon="-4.980401241448687"><ele>358.16666666666663</ele><time>2026-04-27T14:33:39.001Z</time></trkpt><trkpt lat="34.057160298078124" lon="-4.980322815978672"><ele>358.0</ele><time>2026-04-27T14:33:40.001Z</time></trkpt><trkpt lat="34.057181052797915" lon="-4.980238600530188"><ele>358.0</ele><time>2026-04-27T14:33:41.001Z</time></trkpt><trkpt lat="34.05718725622652" lon="-4.980145409555875"><ele>358.0</ele><time>2026-04-27T14:33:42.001Z</time></trkpt><trkpt lat="34.05718023334748" lon="-4.980044347529224"><ele>358.0</ele><time>2026-04-27T14:33:43.001Z</time></trkpt><trkpt lat="34.05716447610062" lon="-4.979935418988264"><ele>358.0</ele><time>2026-04-27T14:33:44.001Z</time></trkpt><trkpt lat="34.057141728747794" lon="-4.979822678655536"><ele>358.0</ele><time>2026-04-27T14:33:45.001Z</time></trkpt><trkpt lat="34.05711720334032" lon="-4.979706211388505"><ele>358.0</ele><time>2026-04-27T14:33:46.001Z</time></trkpt><trkpt lat="34.05709690858598" lon="-4.979592948192667"><ele>357.2</ele><time>2026-04-27T14:33:47.001Z</time></trkpt><trkpt lat="34.05708259250458" lon="-4.979481208134164"><ele>356.4</ele><time>2026-04-27T14:33:48.001Z</time></trkpt><trkpt lat="34.0570777697913" lon="-4.9793676583275825"><ele>355.59999999999997</ele><time>2026-04-27T14:33:49.001Z</time></trkpt><trkpt lat="34.057079894495544" lon="-4.979249582187861"><ele>354.79999999999995</ele><time>2026-04-27T14:33:50.001Z</time></trkpt><trkpt lat="34.057086625444086" lon="-4.9791320934504535"><ele>354.0</ele><time>2026-04-27T14:33:51.001Z</time></trkpt><trkpt lat="34.057075933628354" lon="-4.9790131081248825"><ele>352.2</ele><time>2026-04-27T14:33:52.001Z</time></trkpt><trkpt lat="34.05708152391507" lon="-4.97889439215136"><ele>350.4</ele><time>2026-04-27T14:33:53.001Z</time></trkpt><trkpt lat="34.057102769798156" lon="-4.978778972890517"><ele>348.6</ele><time>2026-04-27T14:33:54.001Z</time></trkpt><trkpt lat="34.05710763322319" lon="-4.97866639478041"><ele>346.8</ele><time>2026-04-27T14:33:55.001Z</time></trkpt><trkpt lat="34.05709753752163" lon="-4.978557025613393"><ele>345.0</ele><time>2026-04-27T14:33:56.001Z</time></trkpt><trkpt lat="34.0571025166816" lon="-4.978453059465968"><ele>345.0</ele><time>2026-04-27T14:33:57.001Z</time></trkpt><trkpt lat="34.057123070519644" lon="-4.978360401661204"><ele>345.0</ele><time>2026-04-27T14:33:58.001Z</time></trkpt><trkpt lat="34.05710714257103" lon="-4.97827719137414"><ele>345.0</ele><time>2026-04-27T14:33:59.001Z</time></trkpt><trkpt lat="34.05710757970289" lon="-4.978200971495046"><ele>345.0</ele><time>2026-04-27T14:34:00.001Z</time></trkpt><trkpt lat="34.05710772273928" lon="-4.97807261585791"><ele>345.0</ele><time>2026-04-27T14:34:02.001Z</time></trkpt><trkpt lat="34.05710772273751" lon="-4.977952398404811"><ele>345.0</ele><time>2026-04-27T14:34:04.001Z</time></trkpt><trkpt lat="34.057107731505546" lon="-4.977814574740194"><ele>343.4</ele><time>2026-04-27T14:34:06.001Z</time></trkpt><trkpt lat="34.057108822734236" lon="-4.977664703484246"><ele>341.8</ele><time>2026-04-27T14:34:08.001Z</time></trkpt><trkpt lat="34.057110947354" lon="-4.977587836548264"><ele>340.20000000000005</ele><time>2026-04-27T14:34:09.001Z</time></trkpt><trkpt lat="34.057135469397146" lon="-4.977455817614492"><ele>338.6</ele><time>2026-04-27T14:34:11.001Z</time></trkpt><trkpt lat="34.05713358612677" lon="-4.977342346728349"><ele>337.0</ele><time>2026-04-27T14:34:13.001Z</time></trkpt><trkpt lat="34.05714357716901" lon="-4.977243756566492"><ele>336.0</ele><time>2026-04-27T14:34:15.001Z</time></trkpt><trkpt lat="34.05715316541038" lon="-4.977149717346424"><ele>335.0</ele><time>2026-04-27T14:34:17.001Z</time></trkpt><trkpt lat="34.057161918641704" lon="-4.977065843943994"><ele>334.0</ele><time>2026-04-27T14:34:20.001Z</time></trkpt><trkpt lat="34.057171191275785" lon="-4.9769769930401155"><ele>333.0</ele><time>2026-04-27T14:34:26.001Z</time></trkpt><trkpt lat="34.05752720839069" lon="-4.977041082279974"><ele>336.59999999999997</ele><time>2026-04-27T14:34:37Z</time></trkpt><trkpt lat="34.05760662160103" lon="-4.977073664698921"><ele>340.2</ele><time>2026-04-27T14:34:39Z</time></trkpt><trkpt lat="34.057670829005666" lon="-4.9770805696136575"><ele>343.8</ele><time>2026-04-27T14:34:44Z</time></trkpt><trkpt lat="34.057714078118984" lon="-4.976842743564909"><ele>347.4</ele><time>2026-04-27T14:35:07Z</time></trkpt><trkpt lat="34.05773162489156" lon="-4.976759145087192"><ele>351.0</ele><time>2026-04-27T14:35:09Z</time></trkpt><trkpt lat="34.057749453830496" lon="-4.976673856642445"><ele>351.0</ele><time>2026-04-27T14:35:12Z</time></trkpt><trkpt lat="34.05788418229503" lon="-4.976646537939373"><ele>351.0</ele><time>2026-04-27T14:35:20.001Z</time></trkpt><trkpt lat="34.057966201198184" lon="-4.976652597050048"><ele>351.0</ele><time>2026-04-27T14:35:23.001Z</time></trkpt><trkpt lat="34.058032140750655" lon="-4.976683187517738"><ele>351.0</ele><time>2026-04-27T14:35:29.001Z</time></trkpt><trkpt lat="34.05810020078014" lon="-4.976678170293347"><ele>351.0</ele><time>2026-04-27T14:35:33.001Z</time></trkpt><trkpt lat="34.05816388565423" lon="-4.9766903242824805"><ele>351.0</ele><time>2026-04-27T14:39:52Z</time></trkpt><trkpt lat="34.058150466662916" lon="-4.976954999265504"><ele>351.8</ele><time>2026-04-27T14:39:55Z</time></trkpt><trkpt lat="34.05813830774486" lon="-4.977065317119359"><ele>352.6</ele><time>2026-04-27T14:39:57Z</time></trkpt><trkpt lat="34.05812887567799" lon="-4.977150894190933"><ele>353.4</ele><time>2026-04-27T14:40:00Z</time></trkpt><trkpt lat="34.05799422365886" lon="-4.977163292623667"><ele>354.2</ele><time>2026-04-27T14:40:03Z</time></trkpt><trkpt lat="34.05788910110066" lon="-4.977160194850643"><ele>355.0</ele><time>2026-04-27T14:40:05Z</time></trkpt><trkpt lat="34.057797084773966" lon="-4.977143631042889"><ele>355.0</ele><time>2026-04-27T14:40:07Z</time></trkpt><trkpt lat="34.05772741496084" lon="-4.977131089846372"><ele>355.0</ele><time>2026-04-27T14:40:10Z</time></trkpt><trkpt lat="34.05765351378535" lon="-4.977117787034576"><ele>355.0</ele><time>2026-04-27T14:40:19Z</time></trkpt><trkpt lat="34.05768224654907" lon="-4.9769277072236475"><ele>355.0</ele><time>2026-04-27T14:40:22.001Z</time></trkpt><trkpt lat="34.05772192050938" lon="-4.976818581556324"><ele>355.0</ele><time>2026-04-27T14:40:24.001Z</time></trkpt><trkpt lat="34.0577418158231" lon="-4.976714933234282"><ele>355.0</ele><time>2026-04-27T14:40:27.001Z</time></trkpt><trkpt lat="34.05777020060601" lon="-4.976638993512904"><ele>355.0</ele><time>2026-04-27T14:40:30.001Z</time></trkpt><trkpt lat="34.05778630523343" lon="-4.976717510324867"><ele>355.0</ele><time>2026-04-27T14:45:41.001Z</time></trkpt><trkpt lat="34.05783948867092" lon="-4.976675071727114"><ele>355.0</ele><time>2026-04-27T14:46:46.001Z</time></trkpt><trkpt lat="34.05791501012169" lon="-4.97669878925095"><ele>355.0</ele><time>2026-04-27T14:46:50.001Z</time></trkpt><trkpt lat="34.0579777372005" lon="-4.976715212894605"><ele>355.0</ele><time>2026-04-27T14:46:52.001Z</time></trkpt><trkpt lat="34.05805890675156" lon="-4.976724025639282"><ele>355.0</ele><time>2026-04-27T14:46:55.001Z</time></trkpt><trkpt lat="34.05811214295115" lon="-4.976680449405023"><ele>354.3333333333333</ele><time>2026-04-27T14:47:00.001Z</time></trkpt><trkpt lat="34.05817605867114" lon="-4.976682272893759"><ele>353.66666666666663</ele><time>2026-04-27T14:47:07.001Z</time></trkpt><trkpt lat="34.058168994892064" lon="-4.9765387560218"><ele>353.0</ele><time>2026-04-27T14:47:10.001Z</time></trkpt><trkpt lat="34.0581867658839" lon="-4.976458411539205"><ele>352.3333333333333</ele><time>2026-04-27T14:47:12.001Z</time></trkpt><trkpt lat="34.05820771363474" lon="-4.976348275634503"><ele>351.6666666666667</ele><time>2026-04-27T14:47:15.001Z</time></trkpt><trkpt lat="34.058225693184276" lon="-4.976266746536366"><ele>351.0</ele><time>2026-04-27T14:47:19.001Z</time></trkpt><trkpt lat="34.05822327771294" lon="-4.976186094107666"><ele>351.0</ele><time>2026-04-27T14:49:03.001Z</time></trkpt><trkpt lat="34.05823368238307" lon="-4.9760984795546905"><ele>351.0</ele><time>2026-04-27T14:49:06.001Z</time></trkpt><trkpt lat="34.05824342888893" lon="-4.975993899307742"><ele>351.0</ele><time>2026-04-27T14:49:09.001Z</time></trkpt><trkpt lat="34.05825238909773" lon="-4.975888841668324"><ele>351.0</ele><time>2026-04-27T14:49:12.001Z</time></trkpt><trkpt lat="34.0581860402317" lon="-4.975807587012853"><ele>351.0</ele><time>2026-04-27T14:49:16.001Z</time></trkpt><trkpt lat="34.05810418913445" lon="-4.975755003098401"><ele>351.0</ele><time>2026-04-27T14:49:18.001Z</time></trkpt><trkpt lat="34.05803717602804" lon="-4.975721424136561"><ele>348.6666666666667</ele><time>2026-04-27T14:49:20.001Z</time></trkpt><trkpt lat="34.05797241524479" lon="-4.975693479453426"><ele>346.3333333333333</ele><time>2026-04-27T14:49:23.001Z</time></trkpt><trkpt lat="34.05791606159913" lon="-4.975650491606286"><ele>344.0</ele><time>2026-04-27T14:49:32.001Z</time></trkpt><trkpt lat="34.05794483503475" lon="-4.975479888000777"><ele>341.66666666666663</ele><time>2026-04-27T14:49:52.001Z</time></trkpt><trkpt lat="34.05792756882637" lon="-4.975397485420971"><ele>339.3333333333333</ele><time>2026-04-27T14:49:55.001Z</time></trkpt><trkpt lat="34.05786484679876" lon="-4.975427505087797"><ele>337.0</ele><time>2026-04-27T14:49:58.001Z</time></trkpt><trkpt lat="34.057929108859916" lon="-4.97541077773103"><ele>337.0</ele><time>2026-04-27T14:53:51Z</time></trkpt><trkpt lat="34.05788046980436" lon="-4.975460406318565"><ele>337.0</ele><time>2026-04-27T14:54:04Z</time></trkpt><trkpt lat="34.057911984356906" lon="-4.9756149909978395"><ele>337.0</ele><time>2026-04-27T14:54:07Z</time></trkpt><trkpt lat="34.05795753094277" lon="-4.975685239556147"><ele>337.0</ele><time>2026-04-27T14:54:16Z</time></trkpt><trkpt lat="34.05800700570446" lon="-4.975740332519563"><ele>337.0</ele><time>2026-04-27T14:54:21Z</time></trkpt><trkpt lat="34.05807450366662" lon="-4.9757679995657655"><ele>337.0</ele><time>2026-04-27T14:54:27Z</time></trkpt><trkpt lat="34.05813383104199" lon="-4.97582050116973"><ele>339.00000000000006</ele><time>2026-04-27T14:54:33Z</time></trkpt><trkpt lat="34.058188962066225" lon="-4.975860786947756"><ele>341.0</ele><time>2026-04-27T14:54:39Z</time></trkpt><trkpt lat="34.05825010836269" lon="-4.975901534991758"><ele>343.0</ele><time>2026-04-27T14:54:46Z</time></trkpt><trkpt lat="34.05827815598748" lon="-4.975972936800789"><ele>345.0</ele><time>2026-04-27T14:54:52Z</time></trkpt><trkpt lat="34.05828026972865" lon="-4.976050018283499"><ele>347.0</ele><time>2026-04-27T14:54:58Z</time></trkpt><trkpt lat="34.058292732715614" lon="-4.9761290097026345"><ele>349.00000000000006</ele><time>2026-04-27T14:55:04Z</time></trkpt><trkpt lat="34.05825715223023" lon="-4.976207897476487"><ele>351.0</ele><time>2026-04-27T14:55:09Z</time></trkpt><trkpt lat="34.058219010884656" lon="-4.976283398005566"><ele>351.00000000000006</ele><time>2026-04-27T14:55:14Z</time></trkpt><trkpt lat="34.05818976434312" lon="-4.976366273921598"><ele>351.0</ele><time>2026-04-27T14:55:20Z</time></trkpt><trkpt lat="34.05815725615558" lon="-4.976440579110319"><ele>351.0</ele><time>2026-04-27T14:55:26Z</time></trkpt><trkpt lat="34.05814396021416" lon="-4.976519775775359"><ele>351.0</ele><time>2026-04-27T14:55:33Z</time></trkpt><trkpt lat="34.05814188249942" lon="-4.976597727850623"><ele>351.0</ele><time>2026-04-27T14:55:40Z</time></trkpt><trkpt lat="34.05814943829753" lon="-4.976673698486872"><ele>351.00000000000006</ele><time>2026-04-27T14:55:47Z</time></trkpt><trkpt lat="34.05808945940054" lon="-4.976711558998679"><ele>351.0</ele><time>2026-04-27T14:56:00Z</time></trkpt><trkpt lat="34.05802806988042" lon="-4.976686738955514"><ele>355.0</ele><time>2026-04-27T14:56:08Z</time></trkpt><trkpt lat="34.05796981808347" lon="-4.976722597854611"><ele>355.0</ele><time>2026-04-27T14:56:12Z</time></trkpt><trkpt lat="34.057984962427135" lon="-4.976839627416779"><ele>355.0</ele><time>2026-04-27T14:57:46.444Z</time></trkpt><trkpt lat="34.057819103818645" lon="-4.976792064501219"><ele>355.0</ele><time>2026-04-27T15:18:18.165Z</time></trkpt></trkseg><trkseg><trkpt lat="34.05794488074469" lon="-4.976679855608007"><ele>351.6666666666667</ele><time>2026-04-28T08:37:08.001Z</time></trkpt><trkpt lat="34.058045763484934" lon="-4.976705751693146"><ele>352.3333333333333</ele><time>2026-04-28T08:37:16.001Z</time></trkpt><trkpt lat="34.058104022185056" lon="-4.976748857703253"><ele>353.0</ele><time>2026-04-28T08:37:20Z</time></trkpt><trkpt lat="34.058097060112" lon="-4.976861314400832"><ele>353.66666666666663</ele><time>2026-04-28T08:37:24Z</time></trkpt><trkpt lat="34.05807670274208" lon="-4.976969367314112"><ele>354.3333333333333</ele><time>2026-04-28T08:37:26Z</time></trkpt><trkpt lat="34.0580800971277" lon="-4.9770738254046005"><ele>355.0</ele><time>2026-04-28T08:37:28Z</time></trkpt><trkpt lat="34.058068624440885" lon="-4.977156006146965"><ele>355.0</ele><time>2026-04-28T08:37:31Z</time></trkpt><trkpt lat="34.0579667724008" lon="-4.977147254009604"><ele>355.0</ele><time>2026-04-28T08:37:34Z</time></trkpt><trkpt lat="34.05786831596998" lon="-4.977120467940177"><ele>355.0</ele><time>2026-04-28T08:37:36Z</time></trkpt><trkpt lat="34.05779460013823" lon="-4.977110811931827"><ele>355.0</ele><time>2026-04-28T08:37:38Z</time></trkpt><trkpt lat="34.057722071077784" lon="-4.977097583652458"><ele>355.0</ele><time>2026-04-28T08:37:41Z</time></trkpt><trkpt lat="34.057655444108605" lon="-4.97707956340737"><ele>355.0</ele><time>2026-04-28T08:37:44Z</time></trkpt><trkpt lat="34.05758879127232" lon="-4.977068357164413"><ele>355.0</ele><time>2026-04-28T08:37:46Z</time></trkpt><trkpt lat="34.05752345279488" lon="-4.9770517197282125"><ele>355.0</ele><time>2026-04-28T08:37:47Z</time></trkpt><trkpt lat="34.05740438265121" lon="-4.9770500111609035"><ele>355.0</ele><time>2026-04-28T08:37:49Z</time></trkpt><trkpt lat="34.05733603920586" lon="-4.977015321890933"><ele>355.0</ele><time>2026-04-28T08:37:50Z</time></trkpt><trkpt lat="34.05726314701566" lon="-4.977024641983037"><ele>355.0</ele><time>2026-04-28T08:37:53Z</time></trkpt><trkpt lat="34.05719059227763" lon="-4.977026782203386"><ele>355.0</ele><time>2026-04-28T08:37:58Z</time></trkpt><trkpt lat="34.05718986662448" lon="-4.977120152131364"><ele>352.0</ele><time>2026-04-28T08:38:00Z</time></trkpt><trkpt lat="34.057172800873985" lon="-4.977246998549384"><ele>349.0</ele><time>2026-04-28T08:38:02Z</time></trkpt><trkpt lat="34.05717093164789" lon="-4.977323719558141"><ele>346.0</ele><time>2026-04-28T08:40:20Z</time></trkpt><trkpt lat="34.057164866855345" lon="-4.977400383754284"><ele>343.0</ele><time>2026-04-28T08:40:22Z</time></trkpt><trkpt lat="34.0571488641618" lon="-4.9774829655910695"><ele>340.0</ele><time>2026-04-28T08:40:24Z</time></trkpt><trkpt lat="34.057143686105036" lon="-4.9776073975520125"><ele>337.0</ele><time>2026-04-28T08:40:26Z</time></trkpt><trkpt lat="34.05714217725086" lon="-4.9776857079030075"><ele>337.0</ele><time>2026-04-28T08:40:27Z</time></trkpt><trkpt lat="34.05712751588365" lon="-4.977773774769619"><ele>337.0</ele><time>2026-04-28T08:40:28Z</time></trkpt><trkpt lat="34.057139479089834" lon="-4.977867972854382"><ele>337.0</ele><time>2026-04-28T08:40:29Z</time></trkpt><trkpt lat="34.05713960688485" lon="-4.9779667797351825"><ele>337.0</ele><time>2026-04-28T08:40:30Z</time></trkpt><trkpt lat="34.057135280382845" lon="-4.978064662447739"><ele>337.0</ele><time>2026-04-28T08:40:31Z</time></trkpt><trkpt lat="34.05713555350429" lon="-4.978153115564624"><ele>337.0</ele><time>2026-04-28T08:40:32Z</time></trkpt><trkpt lat="34.0571363634449" lon="-4.978246904764438"><ele>337.0</ele><time>2026-04-28T08:40:33Z</time></trkpt><trkpt lat="34.05713473475323" lon="-4.978349128909016"><ele>337.0</ele><time>2026-04-28T08:40:34Z</time></trkpt><trkpt lat="34.05713078476685" lon="-4.978456117590427"><ele>337.0</ele><time>2026-04-28T08:40:35Z</time></trkpt><trkpt lat="34.05712575497959" lon="-4.978566101062853"><ele>337.0</ele><time>2026-04-28T08:40:36Z</time></trkpt><trkpt lat="34.05711959363932" lon="-4.978680559171326"><ele>337.0</ele><time>2026-04-28T08:40:37Z</time></trkpt><trkpt lat="34.05711313424103" lon="-4.9787978696960575"><ele>338.6</ele><time>2026-04-28T08:40:38Z</time></trkpt><trkpt lat="34.057107269482124" lon="-4.978916733928946"><ele>340.20000000000005</ele><time>2026-04-28T08:40:39Z</time></trkpt><trkpt lat="34.05710082872611" lon="-4.979037077726062"><ele>341.8</ele><time>2026-04-28T08:40:40Z</time></trkpt><trkpt lat="34.057094097048065" lon="-4.979155951597233"><ele>343.4</ele><time>2026-04-28T08:40:40.999Z</time></trkpt><trkpt lat="34.05708914922085" lon="-4.979274111882055"><ele>345.0</ele><time>2026-04-28T08:40:41.999Z</time></trkpt><trkpt lat="34.05708874474934" lon="-4.9793897154881135"><ele>346.8</ele><time>2026-04-28T08:40:42.999Z</time></trkpt><trkpt lat="34.057096688416614" lon="-4.97949986298755"><ele>348.6</ele><time>2026-04-28T08:40:43.999Z</time></trkpt><trkpt lat="34.057118096244075" lon="-4.979607426445069"><ele>350.4</ele><time>2026-04-28T08:40:44.999Z</time></trkpt><trkpt lat="34.05714570002228" lon="-4.979715291681368"><ele>352.2</ele><time>2026-04-28T08:40:45.999Z</time></trkpt><trkpt lat="34.057170332869184" lon="-4.979823866205524"><ele>354.0</ele><time>2026-04-28T08:40:46.999Z</time></trkpt><trkpt lat="34.05718877452886" lon="-4.979926012505523"><ele>354.0</ele><time>2026-04-28T08:40:47.999Z</time></trkpt><trkpt lat="34.05720415603292" lon="-4.98001514832423"><ele>354.0</ele><time>2026-04-28T08:40:48.999Z</time></trkpt><trkpt lat="34.05722261795022" lon="-4.9801488564040355"><ele>354.0</ele><time>2026-04-28T08:40:50.999Z</time></trkpt><trkpt lat="34.05720629711708" lon="-4.980278528395039"><ele>354.0</ele><time>2026-04-28T08:40:52.999Z</time></trkpt><trkpt lat="34.05718187934116" lon="-4.980360920760075"><ele>354.0</ele><time>2026-04-28T08:40:53.999Z</time></trkpt><trkpt lat="34.057145210926116" lon="-4.980448020993022"><ele>354.79999999999995</ele><time>2026-04-28T08:40:54.999Z</time></trkpt><trkpt lat="34.05709545594887" lon="-4.980534341504888"><ele>355.59999999999997</ele><time>2026-04-28T08:40:55.999Z</time></trkpt><trkpt lat="34.05703122935347" lon="-4.980610784461077"><ele>356.4</ele><time>2026-04-28T08:40:56.999Z</time></trkpt><trkpt lat="34.05695341339592" lon="-4.980679019890379"><ele>357.2</ele><time>2026-04-28T08:40:57.999Z</time></trkpt><trkpt lat="34.056863633838454" lon="-4.98074173117497"><ele>358.0</ele><time>2026-04-28T08:40:58.999Z</time></trkpt><trkpt lat="34.056764758032664" lon="-4.980800832960078"><ele>358.25</ele><time>2026-04-28T08:40:59.999Z</time></trkpt><trkpt lat="34.05666360453651" lon="-4.980860697858635"><ele>358.5</ele><time>2026-04-28T08:41:00.999Z</time></trkpt><trkpt lat="34.05655812930539" lon="-4.980920358376302"><ele>358.75</ele><time>2026-04-28T08:41:01.999Z</time></trkpt><trkpt lat="34.05645387244513" lon="-4.980982055581391"><ele>359.0</ele><time>2026-04-28T08:41:02.999Z</time></trkpt><trkpt lat="34.05634666464154" lon="-4.981046183259081"><ele>359.0</ele><time>2026-04-28T08:41:03.999Z</time></trkpt><trkpt lat="34.05623527527535" lon="-4.981109245284136"><ele>359.0</ele><time>2026-04-28T08:41:04.999Z</time></trkpt><trkpt lat="34.056124849319076" lon="-4.981173984340405"><ele>359.0</ele><time>2026-04-28T08:41:05.999Z</time></trkpt><trkpt lat="34.05601640693471" lon="-4.981239123171554"><ele>359.0</ele><time>2026-04-28T08:41:06.999Z</time></trkpt><trkpt lat="34.05591272589823" lon="-4.981307630976654"><ele>359.0</ele><time>2026-04-28T08:41:07.999Z</time></trkpt><trkpt lat="34.05581990130342" lon="-4.981385061684672"><ele>359.0</ele><time>2026-04-28T08:41:09Z</time></trkpt><trkpt lat="34.05573585578901" lon="-4.9814617415752505"><ele>359.0</ele><time>2026-04-28T08:41:10Z</time></trkpt><trkpt lat="34.05565751390167" lon="-4.981536122411949"><ele>359.0</ele><time>2026-04-28T08:41:11Z</time></trkpt><trkpt lat="34.055585898305345" lon="-4.981605012174548"><ele>359.0</ele><time>2026-04-28T08:41:12Z</time></trkpt><trkpt lat="34.05552362842078" lon="-4.9816688967736775"><ele>359.14285714285717</ele><time>2026-04-28T08:41:13Z</time></trkpt><trkpt lat="34.05547816080936" lon="-4.981741086222745"><ele>359.28571428571433</ele><time>2026-04-28T08:41:14Z</time></trkpt><trkpt lat="34.05545258035883" lon="-4.9818206171280774"><ele>359.42857142857144</ele><time>2026-04-28T08:41:15Z</time></trkpt><trkpt lat="34.055446691212765" lon="-4.98190070369514"><ele>359.57142857142856</ele><time>2026-04-28T08:41:16Z</time></trkpt><trkpt lat="34.05546853349191" lon="-4.981983809409526"><ele>359.7142857142857</ele><time>2026-04-28T08:41:17Z</time></trkpt><trkpt lat="34.05550410649107" lon="-4.982069583708297"><ele>359.85714285714283</ele><time>2026-04-28T08:41:18Z</time></trkpt><trkpt lat="34.055544424435816" lon="-4.982148584668159"><ele>360.0</ele><time>2026-04-28T08:41:19Z</time></trkpt><trkpt lat="34.05558321567458" lon="-4.982238561978277"><ele>360.0</ele><time>2026-04-28T08:41:20Z</time></trkpt><trkpt lat="34.05562300440117" lon="-4.982330856184786"><ele>360.0</ele><time>2026-04-28T08:41:21Z</time></trkpt><trkpt lat="34.05567011166857" lon="-4.982426604768469"><ele>360.0</ele><time>2026-04-28T08:41:22Z</time></trkpt><trkpt lat="34.05572112526235" lon="-4.982524198484587"><ele>360.0</ele><time>2026-04-28T08:41:23Z</time></trkpt><trkpt lat="34.055774218598586" lon="-4.982627559658373"><ele>360.0</ele><time>2026-04-28T08:41:24Z</time></trkpt><trkpt lat="34.05582886333169" lon="-4.982737191319226"><ele>361.4</ele><time>2026-04-28T08:41:25Z</time></trkpt><trkpt lat="34.055885347648434" lon="-4.982850322060964"><ele>362.8</ele><time>2026-04-28T08:41:26Z</time></trkpt><trkpt lat="34.05594200116791" lon="-4.982965660955235"><ele>364.20000000000005</ele><time>2026-04-28T08:41:27Z</time></trkpt><trkpt lat="34.05599972036314" lon="-4.983082393779058"><ele>365.6</ele><time>2026-04-28T08:41:28Z</time></trkpt><trkpt lat="34.05605839978339" lon="-4.983197965194923"><ele>367.0</ele><time>2026-04-28T08:41:29Z</time></trkpt><trkpt lat="34.056118816503506" lon="-4.983311542684486"><ele>367.66666666666663</ele><time>2026-04-28T08:41:30Z</time></trkpt><trkpt lat="34.0561799082926" lon="-4.98342028364547"><ele>368.3333333333333</ele><time>2026-04-28T08:41:31Z</time></trkpt><trkpt lat="34.05624112111782" lon="-4.983514581768027"><ele>369.0</ele><time>2026-04-28T08:41:32Z</time></trkpt><trkpt lat="34.05629512974675" lon="-4.983588366190134"><ele>369.6666666666667</ele><time>2026-04-28T08:41:33Z</time></trkpt><trkpt lat="34.056350722084446" lon="-4.9836669583567295"><ele>370.33333333333337</ele><time>2026-04-28T08:41:35Z</time></trkpt><trkpt lat="34.05640196131346" lon="-4.9837223435958125"><ele>371.0</ele><time>2026-04-28T08:42:09Z</time></trkpt><trkpt lat="34.05647054673069" lon="-4.983820768833242"><ele>371.0</ele><time>2026-04-28T08:42:12Z</time></trkpt><trkpt lat="34.056547111042285" lon="-4.983941595235408"><ele>371.0</ele><time>2026-04-28T08:42:14Z</time></trkpt><trkpt lat="34.0565841703479" lon="-4.984021720406662"><ele>371.0</ele><time>2026-04-28T08:42:15Z</time></trkpt><trkpt lat="34.056621397747065" lon="-4.984109432400894"><ele>371.0</ele><time>2026-04-28T08:42:16Z</time></trkpt><trkpt lat="34.05667031655979" lon="-4.984185592110195"><ele>371.0</ele><time>2026-04-28T08:42:17Z</time></trkpt><trkpt lat="34.0567309473992" lon="-4.984257431020192"><ele>371.0</ele><time>2026-04-28T08:42:18Z</time></trkpt><trkpt lat="34.05680055083282" lon="-4.984320850042579"><ele>371.4</ele><time>2026-04-28T08:42:19Z</time></trkpt><trkpt lat="34.05687625555094" lon="-4.984378011316094"><ele>371.8</ele><time>2026-04-28T08:42:20Z</time></trkpt><trkpt lat="34.05695799686366" lon="-4.984433558907844"><ele>372.2</ele><time>2026-04-28T08:42:21Z</time></trkpt><trkpt lat="34.05704425728197" lon="-4.984488103286521"><ele>372.59999999999997</ele><time>2026-04-28T08:42:22Z</time></trkpt><trkpt lat="34.057133268874935" lon="-4.984545569111833"><ele>373.0</ele><time>2026-04-28T08:42:23Z</time></trkpt><trkpt lat="34.057222887972095" lon="-4.984605419929521"><ele>373.0</ele><time>2026-04-28T08:42:24Z</time></trkpt><trkpt lat="34.05731479487486" lon="-4.984665676008001"><ele>373.0</ele><time>2026-04-28T08:42:25Z</time></trkpt><trkpt lat="34.05740673535975" lon="-4.984727393715472"><ele>373.0</ele><time>2026-04-28T08:42:26Z</time></trkpt><trkpt lat="34.0574993759506" lon="-4.984787433058052"><ele>373.0</ele><time>2026-04-28T08:42:27Z</time></trkpt><trkpt lat="34.057591052813066" lon="-4.984846684033059"><ele>373.0</ele><time>2026-04-28T08:42:28Z</time></trkpt><trkpt lat="34.05768109589692" lon="-4.984908216008516"><ele>373.2</ele><time>2026-04-28T08:42:29Z</time></trkpt><trkpt lat="34.057765503615876" lon="-4.984972286476221"><ele>373.4</ele><time>2026-04-28T08:42:30Z</time></trkpt><trkpt lat="34.05784510605446" lon="-4.985049361909044"><ele>373.59999999999997</ele><time>2026-04-28T08:42:31Z</time></trkpt><trkpt lat="34.05791641856315" lon="-4.985138897487661"><ele>373.79999999999995</ele><time>2026-04-28T08:42:32Z</time></trkpt><trkpt lat="34.05798784207713" lon="-4.98523912604155"><ele>374.0</ele><time>2026-04-28T08:42:33Z</time></trkpt><trkpt lat="34.05805793179655" lon="-4.985340800404214"><ele>374.4</ele><time>2026-04-28T08:42:34Z</time></trkpt><trkpt lat="34.05812979693618" lon="-4.985445258455496"><ele>374.79999999999995</ele><time>2026-04-28T08:42:35Z</time></trkpt><trkpt lat="34.05819865674776" lon="-4.985545044963007"><ele>375.20000000000005</ele><time>2026-04-28T08:42:36Z</time></trkpt><trkpt lat="34.05826253364249" lon="-4.9856409287640995"><ele>375.6</ele><time>2026-04-28T08:42:37Z</time></trkpt><trkpt lat="34.05832399031912" lon="-4.985731985716622"><ele>376.0</ele><time>2026-04-28T08:42:38Z</time></trkpt><trkpt lat="34.058384942388265" lon="-4.985819126516174"><ele>376.8</ele><time>2026-04-28T08:42:39Z</time></trkpt><trkpt lat="34.05844861693429" lon="-4.985900883723899"><ele>377.6</ele><time>2026-04-28T08:42:40Z</time></trkpt><trkpt lat="34.058524972171085" lon="-4.985969538955864"><ele>378.4</ele><time>2026-04-28T08:42:41Z</time></trkpt><trkpt lat="34.05860814626034" lon="-4.986033046557338"><ele>379.2</ele><time>2026-04-28T08:42:41.999Z</time></trkpt><trkpt lat="34.05869685630499" lon="-4.986095296149425"><ele>380.0</ele><time>2026-04-28T08:42:42.999Z</time></trkpt><trkpt lat="34.05878965086476" lon="-4.9861658018647725"><ele>380.0</ele><time>2026-04-28T08:42:43.999Z</time></trkpt><trkpt lat="34.05888274887098" lon="-4.986244218642595"><ele>380.0</ele><time>2026-04-28T08:42:44.999Z</time></trkpt><trkpt lat="34.05897755269905" lon="-4.986329335168367"><ele>380.0</ele><time>2026-04-28T08:42:45.999Z</time></trkpt><trkpt lat="34.059069090720946" lon="-4.986416177383143"><ele>380.0</ele><time>2026-04-28T08:42:46.999Z</time></trkpt><trkpt lat="34.059158779828834" lon="-4.986501593681473"><ele>380.2</ele><time>2026-04-28T08:42:47.999Z</time></trkpt><trkpt lat="34.05924517881128" lon="-4.986586511357856"><ele>380.4</ele><time>2026-04-28T08:42:48.999Z</time></trkpt><trkpt lat="34.059328032058275" lon="-4.986670105151836"><ele>380.6</ele><time>2026-04-28T08:42:49.999Z</time></trkpt><trkpt lat="34.05940731696584" lon="-4.986750844025372"><ele>380.8</ele><time>2026-04-28T08:42:50.999Z</time></trkpt><trkpt lat="34.05948188676257" lon="-4.9868286763918865"><ele>381.0</ele><time>2026-04-28T08:42:51.999Z</time></trkpt><trkpt lat="34.05955267320157" lon="-4.986903699174617"><ele>381.0</ele><time>2026-04-28T08:42:52.999Z</time></trkpt><trkpt lat="34.059614916137456" lon="-4.986971304464538"><ele>381.0</ele><time>2026-04-28T08:42:53.999Z</time></trkpt><trkpt lat="34.05967312772774" lon="-4.98703623824804"><ele>381.0</ele><time>2026-04-28T08:42:54.999Z</time></trkpt><trkpt lat="34.05972560918943" lon="-4.9871050514465765"><ele>381.0</ele><time>2026-04-28T08:42:55.999Z</time></trkpt><trkpt lat="34.05977154359804" lon="-4.987174618873632"><ele>381.0</ele><time>2026-04-28T08:42:56.999Z</time></trkpt><trkpt lat="34.059812409807975" lon="-4.9872413909305635"><ele>381.0</ele><time>2026-04-28T08:42:57.999Z</time></trkpt><trkpt lat="34.05987116484114" lon="-4.98734181428456"><ele>381.0</ele><time>2026-04-28T08:42:59.999Z</time></trkpt><trkpt lat="34.05991307125536" lon="-4.987405498356434"><ele>381.0</ele><time>2026-04-28T08:43:02.999Z</time></trkpt><trkpt lat="34.059966774785536" lon="-4.987465145642903"><ele>381.0</ele><time>2026-04-28T08:43:06.999Z</time></trkpt><trkpt lat="34.06002572050461" lon="-4.987501162160574"><ele>381.0</ele><time>2026-04-28T08:43:08.999Z</time></trkpt><trkpt lat="34.06011970660059" lon="-4.987535862152535"><ele>381.0</ele><time>2026-04-28T08:43:10.999Z</time></trkpt><trkpt lat="34.060216477930865" lon="-4.987608393946225"><ele>381.0</ele><time>2026-04-28T08:43:12.999Z</time></trkpt><trkpt lat="34.060318015963254" lon="-4.987682776099977"><ele>381.0</ele><time>2026-04-28T08:43:15Z</time></trkpt><trkpt lat="34.060427838607126" lon="-4.987697302961303"><ele>381.0</ele><time>2026-04-28T08:43:16Z</time></trkpt><trkpt lat="34.060496376135895" lon="-4.987677594650599"><ele>381.0</ele><time>2026-04-28T08:43:17Z</time></trkpt><trkpt lat="34.06054558051484" lon="-4.987536762550432"><ele>381.0</ele><time>2026-04-28T08:43:18Z</time></trkpt><trkpt lat="34.06061788692908" lon="-4.987477776389194"><ele>381.0</ele><time>2026-04-28T08:43:19Z</time></trkpt><trkpt lat="34.06069205363992" lon="-4.987415578922732"><ele>381.0</ele><time>2026-04-28T08:43:20Z</time></trkpt><trkpt lat="34.06076858571201" lon="-4.987353162727255"><ele>381.0</ele><time>2026-04-28T08:43:21Z</time></trkpt><trkpt lat="34.060843565005676" lon="-4.987294242278479"><ele>381.0</ele><time>2026-04-28T08:43:22Z</time></trkpt><trkpt lat="34.06091006212274" lon="-4.9872420371213835"><ele>381.0</ele><time>2026-04-28T08:43:23Z</time></trkpt><trkpt lat="34.06096665500371" lon="-4.987195406246565"><ele>381.0</ele><time>2026-04-28T08:43:24Z</time></trkpt><trkpt lat="34.06104917029073" lon="-4.987125634270623"><ele>381.0</ele><time>2026-04-28T08:43:26Z</time></trkpt><trkpt lat="34.061102124081934" lon="-4.987083880903928"><ele>381.4</ele><time>2026-04-28T08:43:28Z</time></trkpt><trkpt lat="34.061162616896176" lon="-4.98703892857953"><ele>381.8</ele><time>2026-04-28T08:43:32Z</time></trkpt><trkpt lat="34.06123951455381" lon="-4.986984681475091"><ele>382.2</ele><time>2026-04-28T08:43:39Z</time></trkpt><trkpt lat="34.06134979380958" lon="-4.986920227036996"><ele>382.59999999999997</ele><time>2026-04-28T08:43:41Z</time></trkpt><trkpt lat="34.06145287948483" lon="-4.9868686206848345"><ele>383.0</ele><time>2026-04-28T08:43:43Z</time></trkpt><trkpt lat="34.06152694215534" lon="-4.9868272972199055"><ele>383.0</ele><time>2026-04-28T08:43:45Z</time></trkpt><trkpt lat="34.061483788029605" lon="-4.986703988787027"><ele>383.0</ele><time>2026-04-28T08:43:46Z</time></trkpt><trkpt lat="34.06149491921351" lon="-4.986571625007159"><ele>383.0</ele><time>2026-04-28T08:43:48Z</time></trkpt><trkpt lat="34.06148596125059" lon="-4.986434481377322"><ele>383.0</ele><time>2026-04-28T08:43:50Z</time></trkpt><trkpt lat="34.061473118737695" lon="-4.986352816730775"><ele>383.0</ele><time>2026-04-28T08:43:51Z</time></trkpt><trkpt lat="34.061460872512406" lon="-4.986268558950896"><ele>382.1666666666667</ele><time>2026-04-28T08:43:52Z</time></trkpt><trkpt lat="34.06145477507437" lon="-4.98618731195505"><ele>381.33333333333337</ele><time>2026-04-28T08:43:53Z</time></trkpt><trkpt lat="34.06144491903405" lon="-4.98610259828738"><ele>380.5</ele><time>2026-04-28T08:43:54Z</time></trkpt><trkpt lat="34.061432401816404" lon="-4.9860165523761575"><ele>379.6666666666667</ele><time>2026-04-28T08:43:55Z</time></trkpt><trkpt lat="34.06141780975137" lon="-4.985937400385392"><ele>378.8333333333333</ele><time>2026-04-28T08:43:56Z</time></trkpt><trkpt lat="34.06140090816054" lon="-4.985859856732997"><ele>378.0</ele><time>2026-04-28T08:43:57Z</time></trkpt><trkpt lat="34.06135978638539" lon="-4.985726511456837"><ele>378.0</ele><time>2026-04-28T08:43:59Z</time></trkpt><trkpt lat="34.0613184597019" lon="-4.985613319153473"><ele>378.0</ele><time>2026-04-28T08:44:01Z</time></trkpt><trkpt lat="34.06129204887201" lon="-4.985485723797617"><ele>378.0</ele><time>2026-04-28T08:44:03Z</time></trkpt><trkpt lat="34.06127529782367" lon="-4.9854030366831745"><ele>378.0</ele><time>2026-04-28T08:44:04Z</time></trkpt><trkpt lat="34.06125042536878" lon="-4.985315756410901"><ele>378.0</ele><time>2026-04-28T08:44:05Z</time></trkpt><trkpt lat="34.061217829186624" lon="-4.985227257062413"><ele>378.0</ele><time>2026-04-28T08:44:06Z</time></trkpt><trkpt lat="34.06118250441344" lon="-4.985144083662847"><ele>378.0</ele><time>2026-04-28T08:44:07Z</time></trkpt><trkpt lat="34.06114916104987" lon="-4.98506751411039"><ele>378.0</ele><time>2026-04-28T08:44:08Z</time></trkpt><trkpt lat="34.06112333169482" lon="-4.984994071510434"><ele>378.0</ele><time>2026-04-28T08:44:09Z</time></trkpt><trkpt lat="34.061131752595905" lon="-4.9848435822993755"><ele>378.0</ele><time>2026-04-28T08:44:11Z</time></trkpt><trkpt lat="34.06116632031699" lon="-4.984771828796683"><ele>378.0</ele><time>2026-04-28T08:44:12Z</time></trkpt><trkpt lat="34.06121770397867" lon="-4.984709878984414"><ele>378.0</ele><time>2026-04-28T08:44:13Z</time></trkpt><trkpt lat="34.06126975433747" lon="-4.98464413554471"><ele>377.5</ele><time>2026-04-28T08:44:14Z</time></trkpt><trkpt lat="34.06131650387355" lon="-4.984576695819418"><ele>377.0</ele><time>2026-04-28T08:44:15Z</time></trkpt><trkpt lat="34.061353179140696" lon="-4.984514571183991"><ele>376.5</ele><time>2026-04-28T08:44:16Z</time></trkpt><trkpt lat="34.061418102935534" lon="-4.984422780172705"><ele>376.0</ele><time>2026-04-28T08:44:18Z</time></trkpt><trkpt lat="34.06147423747738" lon="-4.984342403850247"><ele>375.5</ele><time>2026-04-28T08:44:20Z</time></trkpt><trkpt lat="34.06151481394417" lon="-4.984284304374112"><ele>375.0</ele><time>2026-04-28T08:44:22Z</time></trkpt><trkpt lat="34.06155671505904" lon="-4.984224308210013"><ele>374.5</ele><time>2026-04-28T08:44:25Z</time></trkpt><trkpt lat="34.06173591324623" lon="-4.984304016802444"><ele>374.0</ele><time>2026-04-28T08:45:58Z</time></trkpt><trkpt lat="34.061768623665344" lon="-4.984406476878339"><ele>373.5</ele><time>2026-04-28T08:46:00Z</time></trkpt><trkpt lat="34.06178040604477" lon="-4.984525202645798"><ele>373.0</ele><time>2026-04-28T08:46:02Z</time></trkpt><trkpt lat="34.06176512704117" lon="-4.984629726978347"><ele>373.0</ele><time>2026-04-28T08:46:04Z</time></trkpt><trkpt lat="34.06173530242762" lon="-4.984757061593935"><ele>373.0</ele><time>2026-04-28T08:46:06Z</time></trkpt><trkpt lat="34.061713459885404" lon="-4.984862667719663"><ele>373.0</ele><time>2026-04-28T08:46:08Z</time></trkpt><trkpt lat="34.06168044449163" lon="-4.98493774046282"><ele>373.0</ele><time>2026-04-28T08:46:10Z</time></trkpt><trkpt lat="34.061641196284334" lon="-4.985042052476884"><ele>373.0</ele><time>2026-04-28T08:46:12Z</time></trkpt><trkpt lat="34.06160215858682" lon="-4.985169413393449"><ele>374.0</ele><time>2026-04-28T08:46:14Z</time></trkpt><trkpt lat="34.06155517953019" lon="-4.985306175175318"><ele>375.0</ele><time>2026-04-28T08:46:16Z</time></trkpt><trkpt lat="34.06150736682014" lon="-4.985436779966668"><ele>376.0</ele><time>2026-04-28T08:46:18Z</time></trkpt><trkpt lat="34.06148284048088" lon="-4.985514974784432"><ele>377.0</ele><time>2026-04-28T08:46:20Z</time></trkpt><trkpt lat="34.06145591641658" lon="-4.985591069202286"><ele>378.0</ele><time>2026-04-28T08:46:27Z</time></trkpt><trkpt lat="34.06142059839928" lon="-4.985680192046567"><ele>378.0</ele><time>2026-04-28T08:46:30Z</time></trkpt><trkpt lat="34.061445715711415" lon="-4.985808716622519"><ele>378.0</ele><time>2026-04-28T08:46:33Z</time></trkpt><trkpt lat="34.06146918584224" lon="-4.985908200149766"><ele>378.0</ele><time>2026-04-28T08:46:36Z</time></trkpt><trkpt lat="34.06148142754134" lon="-4.985989467014889"><ele>378.0</ele><time>2026-04-28T08:46:39Z</time></trkpt><trkpt lat="34.06149520853449" lon="-4.98607291859522"><ele>378.0</ele><time>2026-04-28T08:48:58.999Z</time></trkpt><trkpt lat="34.061589592727714" lon="-4.985989334448249"><ele>377.6666666666667</ele><time>2026-04-28T08:49:03.999Z</time></trkpt><trkpt lat="34.06153195003054" lon="-4.9859413059255475"><ele>377.3333333333333</ele><time>2026-04-28T08:49:06.999Z</time></trkpt><trkpt lat="34.06147559863018" lon="-4.986021050510421"><ele>377.0</ele><time>2026-04-28T08:52:31Z</time></trkpt><trkpt lat="34.061479478781344" lon="-4.986137508483787"><ele>376.66666666666663</ele><time>2026-04-28T08:52:33Z</time></trkpt><trkpt lat="34.06150867015582" lon="-4.986213302485131"><ele>376.3333333333333</ele><time>2026-04-28T08:52:34Z</time></trkpt><trkpt lat="34.061521111894585" lon="-4.986322650174718"><ele>376.0</ele><time>2026-04-28T08:52:36Z</time></trkpt><trkpt lat="34.061506226954116" lon="-4.986429473759157"><ele>376.0</ele><time>2026-04-28T08:53:09.999Z</time></trkpt><trkpt lat="34.06152338594726" lon="-4.986535966627785"><ele>376.0</ele><time>2026-04-28T08:53:11.999Z</time></trkpt><trkpt lat="34.06151156184199" lon="-4.986637309305696"><ele>376.0</ele><time>2026-04-28T08:53:13.999Z</time></trkpt><trkpt lat="34.061534083494315" lon="-4.986709477932005"><ele>376.0</ele><time>2026-04-28T08:53:15.999Z</time></trkpt><trkpt lat="34.06155808781033" lon="-4.986785456770657"><ele>376.0</ele><time>2026-04-28T08:53:18.999Z</time></trkpt><trkpt lat="34.06154680226376" lon="-4.986892503638443"><ele>376.0</ele><time>2026-04-28T08:53:20.999Z</time></trkpt><trkpt lat="34.0614848268249" lon="-4.986954706633301"><ele>377.4</ele><time>2026-04-28T08:53:21.999Z</time></trkpt><trkpt lat="34.06142342584814" lon="-4.987006333100014"><ele>378.8</ele><time>2026-04-28T08:53:22.999Z</time></trkpt><trkpt lat="34.061348190443624" lon="-4.987052993702475"><ele>380.2</ele><time>2026-04-28T08:53:23.999Z</time></trkpt><trkpt lat="34.061265415299346" lon="-4.987102245345296"><ele>381.59999999999997</ele><time>2026-04-28T08:53:24.999Z</time></trkpt><trkpt lat="34.06118077660847" lon="-4.987153516704359"><ele>383.0</ele><time>2026-04-28T08:53:25.999Z</time></trkpt><trkpt lat="34.06109071546489" lon="-4.98721915954524"><ele>383.0</ele><time>2026-04-28T08:53:26.999Z</time></trkpt><trkpt lat="34.06100149342637" lon="-4.987290841446458"><ele>383.0</ele><time>2026-04-28T08:53:27.999Z</time></trkpt><trkpt lat="34.06092198952822" lon="-4.987361529557674"><ele>383.0</ele><time>2026-04-28T08:53:28.999Z</time></trkpt><trkpt lat="34.060866067227124" lon="-4.987419276214961"><ele>383.0</ele><time>2026-04-28T08:53:29.999Z</time></trkpt><trkpt lat="34.06078210213585" lon="-4.9875151893824485"><ele>383.0</ele><time>2026-04-28T08:53:31.999Z</time></trkpt><trkpt lat="34.06071551922626" lon="-4.987579027975016"><ele>383.4</ele><time>2026-04-28T08:53:33.999Z</time></trkpt><trkpt lat="34.06063530229678" lon="-4.987666559035461"><ele>383.79999999999995</ele><time>2026-04-28T08:53:36.999Z</time></trkpt><trkpt lat="34.06058725970477" lon="-4.987741862133367"><ele>384.2</ele><time>2026-04-28T08:53:38.999Z</time></trkpt><trkpt lat="34.060539370730105" lon="-4.987828280112031"><ele>384.6</ele><time>2026-04-28T08:53:40.999Z</time></trkpt><trkpt lat="34.06048301742133" lon="-4.987931692481969"><ele>385.0</ele><time>2026-04-28T08:53:42.999Z</time></trkpt><trkpt lat="34.060416697445866" lon="-4.988071413595249"><ele>385.0</ele><time>2026-04-28T08:53:45Z</time></trkpt><trkpt lat="34.060384793570115" lon="-4.988171511326829"><ele>385.0</ele><time>2026-04-28T08:53:46Z</time></trkpt><trkpt lat="34.060358582821245" lon="-4.988284281982785"><ele>385.0</ele><time>2026-04-28T08:53:47Z</time></trkpt><trkpt lat="34.06033108170986" lon="-4.988410638850841"><ele>385.0</ele><time>2026-04-28T08:53:48Z</time></trkpt><trkpt lat="34.06030349171614" lon="-4.988550186013295"><ele>385.0</ele><time>2026-04-28T08:53:49Z</time></trkpt><trkpt lat="34.06028313076099" lon="-4.988692898675043"><ele>385.5</ele><time>2026-04-28T08:53:50Z</time></trkpt><trkpt lat="34.0602733515701" lon="-4.988835926276719"><ele>386.0</ele><time>2026-04-28T08:53:51Z</time></trkpt><trkpt lat="34.06027324800649" lon="-4.988979242055877"><ele>386.5</ele><time>2026-04-28T08:53:52Z</time></trkpt><trkpt lat="34.06027939152414" lon="-4.98912481322509"><ele>387.0</ele><time>2026-04-28T08:53:53Z</time></trkpt><trkpt lat="34.06028726984052" lon="-4.9892720218620825"><ele>387.0</ele><time>2026-04-28T08:53:54Z</time></trkpt><trkpt lat="34.06029738823815" lon="-4.98942236711636"><ele>387.0</ele><time>2026-04-28T08:53:55Z</time></trkpt><trkpt lat="34.060309070645026" lon="-4.9895771650529746"><ele>387.0</ele><time>2026-04-28T08:53:56Z</time></trkpt><trkpt lat="34.06031744037632" lon="-4.989737162821679"><ele>387.0</ele><time>2026-04-28T08:53:57Z</time></trkpt><trkpt lat="34.06032475855557" lon="-4.989902346450344"><ele>386.25</ele><time>2026-04-28T08:53:58Z</time></trkpt><trkpt lat="34.060335960685165" lon="-4.990063218695428"><ele>385.5</ele><time>2026-04-28T08:53:59Z</time></trkpt><trkpt lat="34.060350396655124" lon="-4.9902236605936965"><ele>384.75</ele><time>2026-04-28T08:54:00Z</time></trkpt><trkpt lat="34.06036499920847" lon="-4.990383095237496"><ele>384.0</ele><time>2026-04-28T08:54:01Z</time></trkpt><trkpt lat="34.06037784883729" lon="-4.990541670744539"><ele>384.0</ele><time>2026-04-28T08:54:02Z</time></trkpt><trkpt lat="34.060388469582755" lon="-4.9906970980615"><ele>384.0</ele><time>2026-04-28T08:54:03Z</time></trkpt><trkpt lat="34.06039919320535" lon="-4.990845800528727"><ele>384.0</ele><time>2026-04-28T08:54:04Z</time></trkpt><trkpt lat="34.06040943403528" lon="-4.99099224739262"><ele>384.0</ele><time>2026-04-28T08:54:05Z</time></trkpt><trkpt lat="34.06041568082431" lon="-4.991141013015949"><ele>383.5</ele><time>2026-04-28T08:54:06Z</time></trkpt><trkpt lat="34.06041082688869" lon="-4.99129046333216"><ele>383.0</ele><time>2026-04-28T08:54:07Z</time></trkpt><trkpt lat="34.06039707483564" lon="-4.991440284632936"><ele>382.5</ele><time>2026-04-28T08:54:08Z</time></trkpt><trkpt lat="34.06037664641106" lon="-4.991585435282237"><ele>382.0</ele><time>2026-04-28T08:54:09Z</time></trkpt><trkpt lat="34.06034735946521" lon="-4.991722314681554"><ele>382.0</ele><time>2026-04-28T08:54:10Z</time></trkpt><trkpt lat="34.06031203769984" lon="-4.9918532330942105"><ele>382.0</ele><time>2026-04-28T08:54:11Z</time></trkpt><trkpt lat="34.060270821337305" lon="-4.99198690708878"><ele>382.0</ele><time>2026-04-28T08:54:12Z</time></trkpt><trkpt lat="34.060225680343166" lon="-4.992118457546908"><ele>382.0</ele><time>2026-04-28T08:54:13Z</time></trkpt><trkpt lat="34.060179571737336" lon="-4.992247681037402"><ele>382.0</ele><time>2026-04-28T08:54:14Z</time></trkpt><trkpt lat="34.060138167407715" lon="-4.992365933344229"><ele>382.0</ele><time>2026-04-28T08:54:15Z</time></trkpt><trkpt lat="34.06010397369513" lon="-4.992476140307693"><ele>382.0</ele><time>2026-04-28T08:54:16Z</time></trkpt><trkpt lat="34.06007487225796" lon="-4.992577139543536"><ele>382.0</ele><time>2026-04-28T08:54:17Z</time></trkpt><trkpt lat="34.060053845556666" lon="-4.99267042910479"><ele>382.0</ele><time>2026-04-28T08:54:18Z</time></trkpt><trkpt lat="34.06004353736627" lon="-4.992745740398704"><ele>382.0</ele><time>2026-04-28T08:54:19Z</time></trkpt><trkpt lat="34.060032664892866" lon="-4.992859874309901"><ele>382.0</ele><time>2026-04-28T08:54:21Z</time></trkpt><trkpt lat="34.0600307197384" lon="-4.992985393229955"><ele>382.0</ele><time>2026-04-28T08:54:23Z</time></trkpt><trkpt lat="34.060028074237195" lon="-4.993065527893417"><ele>382.0</ele><time>2026-04-28T08:54:24Z</time></trkpt><trkpt lat="34.060012813295245" lon="-4.993163473371797"><ele>382.0</ele><time>2026-04-28T08:54:25Z</time></trkpt><trkpt lat="34.05999059582161" lon="-4.993273601694189"><ele>382.0</ele><time>2026-04-28T08:54:26Z</time></trkpt><trkpt lat="34.059969340277455" lon="-4.9933926002067786"><ele>382.0</ele><time>2026-04-28T08:54:27Z</time></trkpt><trkpt lat="34.05994971300197" lon="-4.993520286895258"><ele>381.75</ele><time>2026-04-28T08:54:28Z</time></trkpt><trkpt lat="34.059928049329365" lon="-4.99365389178666"><ele>381.5</ele><time>2026-04-28T08:54:29Z</time></trkpt><trkpt lat="34.059907300324596" lon="-4.993791583699007"><ele>381.25</ele><time>2026-04-28T08:54:30Z</time></trkpt><trkpt lat="34.059886433780214" lon="-4.99392842204191"><ele>381.0</ele><time>2026-04-28T08:54:31Z</time></trkpt><trkpt lat="34.05986815962454" lon="-4.994070762583561"><ele>381.25</ele><time>2026-04-28T08:54:32Z</time></trkpt><trkpt lat="34.059850534935045" lon="-4.994221769637167"><ele>381.5</ele><time>2026-04-28T08:54:33Z</time></trkpt><trkpt lat="34.05982947424366" lon="-4.994381658873265"><ele>381.75</ele><time>2026-04-28T08:54:34Z</time></trkpt><trkpt lat="34.059806801380226" lon="-4.994547760160765"><ele>382.0</ele><time>2026-04-28T08:54:35Z</time></trkpt><trkpt lat="34.05978327461493" lon="-4.994718991910074"><ele>382.0</ele><time>2026-04-28T08:54:36Z</time></trkpt><trkpt lat="34.05975945171828" lon="-4.994894189299668"><ele>382.0</ele><time>2026-04-28T08:54:37Z</time></trkpt><trkpt lat="34.05973360580182" lon="-4.995072670978316"><ele>382.0</ele><time>2026-04-28T08:54:38Z</time></trkpt><trkpt lat="34.05970821730278" lon="-4.9952557601248415"><ele>381.3333333333333</ele><time>2026-04-28T08:54:39Z</time></trkpt><trkpt lat="34.05968105192018" lon="-4.99543722897856"><ele>380.6666666666667</ele><time>2026-04-28T08:54:40Z</time></trkpt><trkpt lat="34.0596540712694" lon="-4.995617960785897"><ele>380.0</ele><time>2026-04-28T08:54:41Z</time></trkpt><trkpt lat="34.0596274602192" lon="-4.995798462846795"><ele>379.0</ele><time>2026-04-28T08:54:42Z</time></trkpt><trkpt lat="34.05960096227686" lon="-4.995979764289893"><ele>378.0</ele><time>2026-04-28T08:54:43Z</time></trkpt><trkpt lat="34.05957320580848" lon="-4.996166274114569"><ele>377.0</ele><time>2026-04-28T08:54:44Z</time></trkpt><trkpt lat="34.05954438614325" lon="-4.996355873945073"><ele>377.0</ele><time>2026-04-28T08:54:45Z</time></trkpt><trkpt lat="34.05951667829636" lon="-4.996548972201612"><ele>377.0</ele><time>2026-04-28T08:54:46Z</time></trkpt><trkpt lat="34.05948835577075" lon="-4.996746471082479"><ele>377.0</ele><time>2026-04-28T08:54:47Z</time></trkpt><trkpt lat="34.05945980574632" lon="-4.9969392908251065"><ele>377.0</ele><time>2026-04-28T08:54:48Z</time></trkpt><trkpt lat="34.059430455512214" lon="-4.997138640998187"><ele>377.0</ele><time>2026-04-28T08:54:49Z</time></trkpt><trkpt lat="34.05940175294328" lon="-4.99733994242123"><ele>377.0</ele><time>2026-04-28T08:54:50Z</time></trkpt><trkpt lat="34.05937583799165" lon="-4.997539106143151"><ele>377.6666666666667</ele><time>2026-04-28T08:54:51Z</time></trkpt><trkpt lat="34.05934922903923" lon="-4.997736635555612"><ele>378.3333333333333</ele><time>2026-04-28T08:54:52Z</time></trkpt><trkpt lat="34.05931861271874" lon="-4.997932839920691"><ele>379.0</ele><time>2026-04-28T08:54:53Z</time></trkpt><trkpt lat="34.059288713555894" lon="-4.998133162051249"><ele>379.0</ele><time>2026-04-28T08:54:54Z</time></trkpt><trkpt lat="34.05925843538109" lon="-4.998334513643229"><ele>379.0</ele><time>2026-04-28T08:54:55Z</time></trkpt><trkpt lat="34.05922833263448" lon="-4.998538383752443"><ele>379.0</ele><time>2026-04-28T08:54:56Z</time></trkpt><trkpt lat="34.059197100039825" lon="-4.998742435083546"><ele>379.0</ele><time>2026-04-28T08:54:57Z</time></trkpt><trkpt lat="34.059169324592325" lon="-4.998957482395174"><ele>379.0</ele><time>2026-04-28T08:54:58Z</time></trkpt><trkpt lat="34.05914057550497" lon="-4.999167142065905"><ele>379.0</ele><time>2026-04-28T08:54:59Z</time></trkpt><trkpt lat="34.05911078052133" lon="-4.999378979822556"><ele>379.0</ele><time>2026-04-28T08:55:00Z</time></trkpt><trkpt lat="34.05908159465181" lon="-4.999586855704143"><ele>379.0</ele><time>2026-04-28T08:55:01Z</time></trkpt><trkpt lat="34.05905277856723" lon="-4.99979263801837"><ele>379.0</ele><time>2026-04-28T08:55:02Z</time></trkpt><trkpt lat="34.05902479360924" lon="-4.999994669367919"><ele>379.0</ele><time>2026-04-28T08:55:03Z</time></trkpt><trkpt lat="34.058997404946226" lon="-5.000195673498419"><ele>379.0</ele><time>2026-04-28T08:55:04Z</time></trkpt><trkpt lat="34.05897376946666" lon="-5.000396852507639"><ele>379.0</ele><time>2026-04-28T08:55:05Z</time></trkpt><trkpt lat="34.05894840384186" lon="-5.000597027915119"><ele>379.0</ele><time>2026-04-28T08:55:06Z</time></trkpt><trkpt lat="34.05892080195573" lon="-5.000796887284518"><ele>379.0</ele><time>2026-04-28T08:55:07Z</time></trkpt><trkpt lat="34.05889210285594" lon="-5.001000516118305"><ele>379.0</ele><time>2026-04-28T08:55:08Z</time></trkpt><trkpt lat="34.05886096351864" lon="-5.0012005266959845"><ele>379.0</ele><time>2026-04-28T08:55:09Z</time></trkpt><trkpt lat="34.05883226387427" lon="-5.001403507281567"><ele>379.0</ele><time>2026-04-28T08:55:10Z</time></trkpt><trkpt lat="34.05880305058679" lon="-5.001607354765555"><ele>379.0</ele><time>2026-04-28T08:55:11Z</time></trkpt><trkpt lat="34.058772963042806" lon="-5.001809329560504"><ele>379.0</ele><time>2026-04-28T08:55:12Z</time></trkpt><trkpt lat="34.05874516384985" lon="-5.002005407709365"><ele>379.0</ele><time>2026-04-28T08:55:13Z</time></trkpt><trkpt lat="34.058721398930565" lon="-5.002193167304693"><ele>379.0</ele><time>2026-04-28T08:55:14Z</time></trkpt><trkpt lat="34.058695396955905" lon="-5.002374452004307"><ele>378.5</ele><time>2026-04-28T08:55:15Z</time></trkpt><trkpt lat="34.05866967689179" lon="-5.002547844983792"><ele>378.0</ele><time>2026-04-28T08:55:16Z</time></trkpt><trkpt lat="34.0586463572496" lon="-5.002725115713187"><ele>377.5</ele><time>2026-04-28T08:55:17Z</time></trkpt><trkpt lat="34.05862391349003" lon="-5.002899256248156"><ele>377.0</ele><time>2026-04-28T08:55:18Z</time></trkpt><trkpt lat="34.05859972611776" lon="-5.003065459779462"><ele>377.0</ele><time>2026-04-28T08:55:19Z</time></trkpt><trkpt lat="34.05857485838433" lon="-5.003216661013279"><ele>377.0</ele><time>2026-04-28T08:55:20Z</time></trkpt><trkpt lat="34.05855329020978" lon="-5.003359746360639"><ele>377.0</ele><time>2026-04-28T08:55:21Z</time></trkpt><trkpt lat="34.058533700474094" lon="-5.003490539110085"><ele>377.0</ele><time>2026-04-28T08:55:22Z</time></trkpt><trkpt lat="34.05851696420056" lon="-5.003608662297093"><ele>377.1666666666667</ele><time>2026-04-28T08:55:23Z</time></trkpt><trkpt lat="34.05850213857368" lon="-5.003712719556973"><ele>377.33333333333337</ele><time>2026-04-28T08:55:24Z</time></trkpt><trkpt lat="34.05848803198731" lon="-5.00380238002043"><ele>377.5</ele><time>2026-04-28T08:55:25Z</time></trkpt><trkpt lat="34.05846627482754" lon="-5.003934000365601"><ele>377.6666666666667</ele><time>2026-04-28T08:55:27Z</time></trkpt><trkpt lat="34.05846011459638" lon="-5.0040326917858104"><ele>377.8333333333333</ele><time>2026-04-28T08:55:29Z</time></trkpt><trkpt lat="34.0584422181358" lon="-5.0041068164823805"><ele>378.0</ele><time>2026-04-28T08:55:42.999Z</time></trkpt><trkpt lat="34.0584309822438" lon="-5.0041925220348835"><ele>378.0</ele><time>2026-04-28T08:55:44.999Z</time></trkpt><trkpt lat="34.058416239415074" lon="-5.004285490888442"><ele>378.0</ele><time>2026-04-28T08:55:46.999Z</time></trkpt><trkpt lat="34.058409302234736" lon="-5.004373801842241"><ele>378.0</ele><time>2026-04-28T08:55:48.999Z</time></trkpt><trkpt lat="34.05840471831541" lon="-5.004482704860457"><ele>378.0</ele><time>2026-04-28T08:55:51Z</time></trkpt><trkpt lat="34.05838010745057" lon="-5.004609595996208"><ele>378.0</ele><time>2026-04-28T08:55:53Z</time></trkpt><trkpt lat="34.05834799962142" lon="-5.004678439800597"><ele>378.0</ele><time>2026-04-28T08:55:54Z</time></trkpt><trkpt lat="34.058305634622016" lon="-5.004749117063863"><ele>378.2</ele><time>2026-04-28T08:55:55Z</time></trkpt><trkpt lat="34.05826758853357" lon="-5.004837879085806"><ele>378.4</ele><time>2026-04-28T08:55:56Z</time></trkpt><trkpt lat="34.058228422750524" lon="-5.004942679842279"><ele>378.59999999999997</ele><time>2026-04-28T08:55:57Z</time></trkpt><trkpt lat="34.05819329188058" lon="-5.005053854733211"><ele>378.79999999999995</ele><time>2026-04-28T08:55:58Z</time></trkpt><trkpt lat="34.05816045588123" lon="-5.005179717934866"><ele>379.0</ele><time>2026-04-28T08:55:59Z</time></trkpt><trkpt lat="34.05812983207814" lon="-5.005319383144338"><ele>379.0</ele><time>2026-04-28T08:56:00Z</time></trkpt><trkpt lat="34.058095649693456" lon="-5.005471041694647"><ele>379.0</ele><time>2026-04-28T08:56:01Z</time></trkpt><trkpt lat="34.05806282427146" lon="-5.005628757782772"><ele>379.0</ele><time>2026-04-28T08:56:02Z</time></trkpt><trkpt lat="34.058027589667006" lon="-5.005791871103666"><ele>379.0</ele><time>2026-04-28T08:56:03Z</time></trkpt><trkpt lat="34.05799248841134" lon="-5.005953143065844"><ele>379.75</ele><time>2026-04-28T08:56:04Z</time></trkpt><trkpt lat="34.05796002491951" lon="-5.0061216445717704"><ele>380.5</ele><time>2026-04-28T08:56:05Z</time></trkpt><trkpt lat="34.05792563222921" lon="-5.006297739429083"><ele>381.25</ele><time>2026-04-28T08:56:06Z</time></trkpt><trkpt lat="34.057888700675065" lon="-5.006480092042663"><ele>382.0</ele><time>2026-04-28T08:56:07Z</time></trkpt><trkpt lat="34.05785258584292" lon="-5.006668172175234"><ele>378.66666666666663</ele><time>2026-04-28T08:56:08Z</time></trkpt><trkpt lat="34.057816829409425" lon="-5.006858235271229"><ele>375.3333333333333</ele><time>2026-04-28T08:56:09Z</time></trkpt><trkpt lat="34.057779504830386" lon="-5.007046303315295"><ele>372.0</ele><time>2026-04-28T08:56:10Z</time></trkpt><trkpt lat="34.05773989933552" lon="-5.007229133687534"><ele>372.0</ele><time>2026-04-28T08:56:11Z</time></trkpt><trkpt lat="34.05770237941624" lon="-5.00740700261005"><ele>372.0</ele><time>2026-04-28T08:56:12Z</time></trkpt><trkpt lat="34.05766610871337" lon="-5.007578129493278"><ele>372.0</ele><time>2026-04-28T08:56:13Z</time></trkpt><trkpt lat="34.05763110924168" lon="-5.007743445473869"><ele>372.0</ele><time>2026-04-28T08:56:14Z</time></trkpt><trkpt lat="34.057598081964954" lon="-5.007903106577775"><ele>373.6</ele><time>2026-04-28T08:56:15Z</time></trkpt><trkpt lat="34.057567823795765" lon="-5.00805092143174"><ele>375.20000000000005</ele><time>2026-04-28T08:56:16Z</time></trkpt><trkpt lat="34.057542436731694" lon="-5.008183360480363"><ele>376.8</ele><time>2026-04-28T08:56:17Z</time></trkpt><trkpt lat="34.05751997764119" lon="-5.008305710480051"><ele>378.4</ele><time>2026-04-28T08:56:18Z</time></trkpt><trkpt lat="34.05749962324913" lon="-5.00841840542051"><ele>380.0</ele><time>2026-04-28T08:56:19Z</time></trkpt><trkpt lat="34.05747694540407" lon="-5.008530835382963"><ele>380.4</ele><time>2026-04-28T08:56:20Z</time></trkpt><trkpt lat="34.057453406536666" lon="-5.008648330527945"><ele>380.8</ele><time>2026-04-28T08:56:21Z</time></trkpt><trkpt lat="34.05742913277557" lon="-5.008771266126366"><ele>381.20000000000005</ele><time>2026-04-28T08:56:22Z</time></trkpt><trkpt lat="34.05740665171623" lon="-5.008899851518539"><ele>381.6</ele><time>2026-04-28T08:56:23Z</time></trkpt><trkpt lat="34.05738765164813" lon="-5.009032708631316"><ele>382.0</ele><time>2026-04-28T08:56:24Z</time></trkpt><trkpt lat="34.05736972911318" lon="-5.0091672735368995"><ele>382.0</ele><time>2026-04-28T08:56:25Z</time></trkpt><trkpt lat="34.057352901381165" lon="-5.0093054320193575"><ele>382.0</ele><time>2026-04-28T08:56:26Z</time></trkpt><trkpt lat="34.057327665454" lon="-5.009443211176675"><ele>382.0</ele><time>2026-04-28T08:56:27Z</time></trkpt><trkpt lat="34.05730270322324" lon="-5.009575015631627"><ele>382.0</ele><time>2026-04-28T08:56:28Z</time></trkpt><trkpt lat="34.05728362272878" lon="-5.009693934839912"><ele>382.0</ele><time>2026-04-28T08:56:29Z</time></trkpt><trkpt lat="34.05727092886566" lon="-5.009797395566385"><ele>382.0</ele><time>2026-04-28T08:56:30Z</time></trkpt><trkpt lat="34.05726269841207" lon="-5.009876409460174"><ele>382.0</ele><time>2026-04-28T08:56:31Z</time></trkpt><trkpt lat="34.05725868269251" lon="-5.010021454998862"><ele>382.0</ele><time>2026-04-28T08:56:33Z</time></trkpt><trkpt lat="34.057256236767905" lon="-5.010103837019812"><ele>382.0</ele><time>2026-04-28T08:56:34Z</time></trkpt><trkpt lat="34.05723873332504" lon="-5.010180667421996"><ele>382.0</ele><time>2026-04-28T08:56:35Z</time></trkpt><trkpt lat="34.057210285040796" lon="-5.010259865641702"><ele>382.0</ele><time>2026-04-28T08:56:36Z</time></trkpt><trkpt lat="34.05717286414304" lon="-5.010342368933054"><ele>382.0</ele><time>2026-04-28T08:56:37Z</time></trkpt><trkpt lat="34.057128126638936" lon="-5.01043609540273"><ele>382.0</ele><time>2026-04-28T08:56:38Z</time></trkpt><trkpt lat="34.057090441794614" lon="-5.010554210631489"><ele>382.0</ele><time>2026-04-28T08:56:39Z</time></trkpt><trkpt lat="34.057059083684905" lon="-5.010688125217066"><ele>382.0</ele><time>2026-04-28T08:56:40Z</time></trkpt><trkpt lat="34.05702007426344" lon="-5.010834649319651"><ele>382.0</ele><time>2026-04-28T08:56:41Z</time></trkpt><trkpt lat="34.05698027929068" lon="-5.010994910850283"><ele>383.3333333333333</ele><time>2026-04-28T08:56:42Z</time></trkpt><trkpt lat="34.056945756256965" lon="-5.011159866146112"><ele>384.66666666666663</ele><time>2026-04-28T08:56:43Z</time></trkpt><trkpt lat="34.05690952287278" lon="-5.011335410041395"><ele>386.0</ele><time>2026-04-28T08:56:44Z</time></trkpt><trkpt lat="34.056872670593805" lon="-5.011525739285403"><ele>386.66666666666663</ele><time>2026-04-28T08:56:45Z</time></trkpt><trkpt lat="34.056835386561296" lon="-5.011723126640453"><ele>387.33333333333337</ele><time>2026-04-28T08:56:46Z</time></trkpt><trkpt lat="34.05679663826334" lon="-5.011927489551206"><ele>388.0</ele><time>2026-04-28T08:56:47Z</time></trkpt><trkpt lat="34.05675799215863" lon="-5.012138640596138"><ele>388.0</ele><time>2026-04-28T08:56:48Z</time></trkpt><trkpt lat="34.05671758785794" lon="-5.012355557290799"><ele>388.0</ele><time>2026-04-28T08:56:49Z</time></trkpt><trkpt lat="34.05667566149239" lon="-5.012566566048599"><ele>388.0</ele><time>2026-04-28T08:56:50Z</time></trkpt><trkpt lat="34.056631503349294" lon="-5.012781792926882"><ele>386.33333333333337</ele><time>2026-04-28T08:56:51Z</time></trkpt><trkpt lat="34.05658776189187" lon="-5.012996574026715"><ele>384.6666666666667</ele><time>2026-04-28T08:56:52Z</time></trkpt><trkpt lat="34.056544251993046" lon="-5.013215516861217"><ele>383.0</ele><time>2026-04-28T08:56:53Z</time></trkpt><trkpt lat="34.056503571086814" lon="-5.013441051710271"><ele>383.0</ele><time>2026-04-28T08:56:54Z</time></trkpt><trkpt lat="34.05645821140731" lon="-5.0136675692930535"><ele>383.0</ele><time>2026-04-28T08:56:55Z</time></trkpt><trkpt lat="34.05641411635638" lon="-5.013896093590952"><ele>383.0</ele><time>2026-04-28T08:56:56Z</time></trkpt><trkpt lat="34.05636768081305" lon="-5.0141264093945646"><ele>385.0</ele><time>2026-04-28T08:56:57Z</time></trkpt><trkpt lat="34.056320591458295" lon="-5.014356263915911"><ele>387.0</ele><time>2026-04-28T08:56:58Z</time></trkpt><trkpt lat="34.056273432990636" lon="-5.01458341031506"><ele>389.0</ele><time>2026-04-28T08:56:59Z</time></trkpt><trkpt lat="34.05621969469995" lon="-5.014804745992177"><ele>390.0</ele><time>2026-04-28T08:57:00Z</time></trkpt><trkpt lat="34.056167044521374" lon="-5.015006664940805"><ele>391.0</ele><time>2026-04-28T08:57:01Z</time></trkpt><trkpt lat="34.056118110448374" lon="-5.015190937730327"><ele>392.0</ele><time>2026-04-28T08:57:02Z</time></trkpt><trkpt lat="34.05607388458873" lon="-5.015364671838506"><ele>392.0</ele><time>2026-04-28T08:57:03Z</time></trkpt><trkpt lat="34.05603016369569" lon="-5.015531465491661"><ele>392.0</ele><time>2026-04-28T08:57:04Z</time></trkpt><trkpt lat="34.055985207130675" lon="-5.015694914929868"><ele>392.0</ele><time>2026-04-28T08:57:05Z</time></trkpt><trkpt lat="34.05594139215929" lon="-5.015855208784176"><ele>392.0</ele><time>2026-04-28T08:57:06Z</time></trkpt><trkpt lat="34.05589718253292" lon="-5.016018232987084"><ele>391.75</ele><time>2026-04-28T08:57:07Z</time></trkpt><trkpt lat="34.05585227178145" lon="-5.0161817470043735"><ele>391.5</ele><time>2026-04-28T08:57:08Z</time></trkpt><trkpt lat="34.05580642216067" lon="-5.016346322764226"><ele>391.25</ele><time>2026-04-28T08:57:09Z</time></trkpt><trkpt lat="34.055759553228434" lon="-5.016513226231017"><ele>391.0</ele><time>2026-04-28T08:57:10Z</time></trkpt><trkpt lat="34.055715488726044" lon="-5.016680997714515"><ele>389.75</ele><time>2026-04-28T08:57:11Z</time></trkpt><trkpt lat="34.055671913255686" lon="-5.016850001947073"><ele>388.5</ele><time>2026-04-28T08:57:12Z</time></trkpt><trkpt lat="34.05562694044119" lon="-5.01701624834138"><ele>387.25</ele><time>2026-04-28T08:57:13Z</time></trkpt><trkpt lat="34.05558260704098" lon="-5.017183633046394"><ele>386.0</ele><time>2026-04-28T08:57:14Z</time></trkpt><trkpt lat="34.05553908628172" lon="-5.017347027939352"><ele>387.0</ele><time>2026-04-28T08:57:15Z</time></trkpt><trkpt lat="34.05549697331478" lon="-5.017512737746861"><ele>388.0</ele><time>2026-04-28T08:57:16Z</time></trkpt><trkpt lat="34.05545589866457" lon="-5.0176803689146885"><ele>389.0</ele><time>2026-04-28T08:57:17Z</time></trkpt><trkpt lat="34.05541650140313" lon="-5.0178487093589235"><ele>390.0</ele><time>2026-04-28T08:57:18Z</time></trkpt><trkpt lat="34.055377248665835" lon="-5.0180168033475905"><ele>390.0</ele><time>2026-04-28T08:57:19Z</time></trkpt><trkpt lat="34.05533698263314" lon="-5.018183931744142"><ele>390.0</ele><time>2026-04-28T08:57:20Z</time></trkpt><trkpt lat="34.05529637165065" lon="-5.018349243509344"><ele>390.0</ele><time>2026-04-28T08:57:21Z</time></trkpt><trkpt lat="34.05525560271281" lon="-5.018510926878979"><ele>390.0</ele><time>2026-04-28T08:57:22Z</time></trkpt><trkpt lat="34.05521743583896" lon="-5.01866597368735"><ele>390.25</ele><time>2026-04-28T08:57:23Z</time></trkpt><trkpt lat="34.055183484655" lon="-5.018809532939983"><ele>390.5</ele><time>2026-04-28T08:57:24Z</time></trkpt><trkpt lat="34.05515637871159" lon="-5.018945458007918"><ele>390.75</ele><time>2026-04-28T08:57:25Z</time></trkpt><trkpt lat="34.055137016622204" lon="-5.0190739999987155"><ele>391.0</ele><time>2026-04-28T08:57:26Z</time></trkpt><trkpt lat="34.05511731410655" lon="-5.01920393412515"><ele>391.25</ele><time>2026-04-28T08:57:27Z</time></trkpt><trkpt lat="34.05508671957396" lon="-5.019335377829373"><ele>391.5</ele><time>2026-04-28T08:57:28Z</time></trkpt><trkpt lat="34.055036223615225" lon="-5.019464866170762"><ele>391.75</ele><time>2026-04-28T08:57:29Z</time></trkpt><trkpt lat="34.05497357207595" lon="-5.019597320226886"><ele>392.0</ele><time>2026-04-28T08:57:30Z</time></trkpt><trkpt lat="34.0549237386752" lon="-5.019731702552139"><ele>389.75</ele><time>2026-04-28T08:57:31Z</time></trkpt><trkpt lat="34.054878880788294" lon="-5.019877515153451"><ele>387.5</ele><time>2026-04-28T08:57:32Z</time></trkpt><trkpt lat="34.05483861901686" lon="-5.020026222201572"><ele>385.25</ele><time>2026-04-28T08:57:33Z</time></trkpt><trkpt lat="34.05479738487456" lon="-5.020179685698196"><ele>383.0</ele><time>2026-04-28T08:57:34Z</time></trkpt><trkpt lat="34.05475389986785" lon="-5.020336561861449"><ele>383.0</ele><time>2026-04-28T08:57:35Z</time></trkpt><trkpt lat="34.05470924900106" lon="-5.020495858627254"><ele>383.0</ele><time>2026-04-28T08:57:36Z</time></trkpt><trkpt lat="34.05466569276979" lon="-5.020655293616475"><ele>383.0</ele><time>2026-04-28T08:57:37Z</time></trkpt><trkpt lat="34.05462061806227" lon="-5.020818208099435"><ele>383.0</ele><time>2026-04-28T08:57:38Z</time></trkpt><trkpt lat="34.05457788042991" lon="-5.020981143216549"><ele>383.25</ele><time>2026-04-28T08:57:39Z</time></trkpt><trkpt lat="34.05453600079368" lon="-5.021145094996157"><ele>383.5</ele><time>2026-04-28T08:57:40Z</time></trkpt><trkpt lat="34.05449369250596" lon="-5.0213101662047075"><ele>383.75</ele><time>2026-04-28T08:57:41Z</time></trkpt><trkpt lat="34.054450598047765" lon="-5.0214745372150675"><ele>384.0</ele><time>2026-04-28T08:57:42Z</time></trkpt><trkpt lat="34.05440753234667" lon="-5.02163890430725"><ele>384.75</ele><time>2026-04-28T08:57:43Z</time></trkpt><trkpt lat="34.054363902540025" lon="-5.021804753148158"><ele>385.5</ele><time>2026-04-28T08:57:44Z</time></trkpt><trkpt lat="34.054321462539576" lon="-5.021970539542034"><ele>386.25</ele><time>2026-04-28T08:57:45Z</time></trkpt><trkpt lat="34.0542798571722" lon="-5.022135705669707"><ele>387.0</ele><time>2026-04-28T08:57:46Z</time></trkpt><trkpt lat="34.05423824235019" lon="-5.022301128598984"><ele>387.0</ele><time>2026-04-28T08:57:47Z</time></trkpt><trkpt lat="34.054194517193146" lon="-5.022464709110396"><ele>387.0</ele><time>2026-04-28T08:57:48Z</time></trkpt><trkpt lat="34.054147736796395" lon="-5.022628009646935"><ele>387.0</ele><time>2026-04-28T08:57:49Z</time></trkpt><trkpt lat="34.05410210817459" lon="-5.022790958832419"><ele>387.0</ele><time>2026-04-28T08:57:50Z</time></trkpt><trkpt lat="34.054058183217236" lon="-5.022953917561647"><ele>386.5</ele><time>2026-04-28T08:57:51Z</time></trkpt><trkpt lat="34.054015224807806" lon="-5.023115665849962"><ele>386.0</ele><time>2026-04-28T08:57:52Z</time></trkpt><trkpt lat="34.05397230375841" lon="-5.0232752931820315"><ele>385.5</ele><time>2026-04-28T08:57:53Z</time></trkpt><trkpt lat="34.0539266144385" lon="-5.023439846933957"><ele>385.0</ele><time>2026-04-28T08:57:54Z</time></trkpt><trkpt lat="34.05388248136615" lon="-5.023603713365414"><ele>385.0</ele><time>2026-04-28T08:57:55Z</time></trkpt><trkpt lat="34.05383743287709" lon="-5.023769631183602"><ele>385.0</ele><time>2026-04-28T08:57:56Z</time></trkpt><trkpt lat="34.05379239287241" lon="-5.023936094409602"><ele>385.0</ele><time>2026-04-28T08:57:57Z</time></trkpt><trkpt lat="34.0537476057566" lon="-5.024103694570118"><ele>385.0</ele><time>2026-04-28T08:57:58Z</time></trkpt><trkpt lat="34.05370242887323" lon="-5.024273545575046"><ele>385.6666666666667</ele><time>2026-04-28T08:57:59Z</time></trkpt><trkpt lat="34.053658388507365" lon="-5.024444642496548"><ele>386.33333333333337</ele><time>2026-04-28T08:58:00Z</time></trkpt><trkpt lat="34.05361207594626" lon="-5.024616733999223"><ele>387.0</ele><time>2026-04-28T08:58:01Z</time></trkpt><trkpt lat="34.05356548427252" lon="-5.02479065352984"><ele>387.0</ele><time>2026-04-28T08:58:02Z</time></trkpt><trkpt lat="34.053520432876" lon="-5.0249656613330265"><ele>387.0</ele><time>2026-04-28T08:58:03Z</time></trkpt><trkpt lat="34.05347489028525" lon="-5.0251374267657605"><ele>387.0</ele><time>2026-04-28T08:58:04Z</time></trkpt><trkpt lat="34.05342961167956" lon="-5.025303712335063"><ele>387.0</ele><time>2026-04-28T08:58:05Z</time></trkpt><trkpt lat="34.05338945822397" lon="-5.025459410161944"><ele>386.5</ele><time>2026-04-28T08:58:06Z</time></trkpt><trkpt lat="34.053351573704326" lon="-5.02561052694804"><ele>386.0</ele><time>2026-04-28T08:58:07Z</time></trkpt><trkpt lat="34.05331371009825" lon="-5.02575597361985"><ele>385.5</ele><time>2026-04-28T08:58:08Z</time></trkpt><trkpt lat="34.05327703019757" lon="-5.025890785904663"><ele>385.0</ele><time>2026-04-28T08:58:09Z</time></trkpt><trkpt lat="34.05324455465714" lon="-5.026014071273505"><ele>384.00000000000006</ele><time>2026-04-28T08:58:10Z</time></trkpt><trkpt lat="34.053218353089406" lon="-5.026129825642262"><ele>383.0</ele><time>2026-04-28T08:58:11Z</time></trkpt><trkpt lat="34.05320132338863" lon="-5.026236468254009"><ele>382.0</ele><time>2026-04-28T08:58:12Z</time></trkpt><trkpt lat="34.05319199511839" lon="-5.026338884114255"><ele>381.0</ele><time>2026-04-28T08:58:13Z</time></trkpt><trkpt lat="34.05318653386743" lon="-5.026440960888576"><ele>380.0</ele><time>2026-04-28T08:58:14Z</time></trkpt><trkpt lat="34.05316799496021" lon="-5.026537465688539"><ele>379.0</ele><time>2026-04-28T08:58:15Z</time></trkpt><trkpt lat="34.05313341080007" lon="-5.026620125799536"><ele>379.5</ele><time>2026-04-28T08:58:16Z</time></trkpt><trkpt lat="34.05308631039243" lon="-5.02669665550286"><ele>380.0</ele><time>2026-04-28T08:58:17Z</time></trkpt><trkpt lat="34.053045299877326" lon="-5.026779033625829"><ele>380.5</ele><time>2026-04-28T08:58:18Z</time></trkpt><trkpt lat="34.05300658516156" lon="-5.026874708572155"><ele>381.0</ele><time>2026-04-28T08:58:19Z</time></trkpt><trkpt lat="34.05296467394192" lon="-5.026978965395278"><ele>381.5</ele><time>2026-04-28T08:58:20Z</time></trkpt><trkpt lat="34.05292422212421" lon="-5.027095945438081"><ele>382.0</ele><time>2026-04-28T08:58:21Z</time></trkpt><trkpt lat="34.05288735818661" lon="-5.027224261794969"><ele>382.0</ele><time>2026-04-28T08:58:22Z</time></trkpt><trkpt lat="34.052853750700955" lon="-5.027363833444675"><ele>382.0</ele><time>2026-04-28T08:58:23Z</time></trkpt><trkpt lat="34.05282263880772" lon="-5.027506891213989"><ele>382.0</ele><time>2026-04-28T08:58:24Z</time></trkpt><trkpt lat="34.05278874581109" lon="-5.0276559631091695"><ele>382.0</ele><time>2026-04-28T08:58:25Z</time></trkpt><trkpt lat="34.05275606847587" lon="-5.027810448030418"><ele>382.5</ele><time>2026-04-28T08:58:26Z</time></trkpt><trkpt lat="34.05272076072597" lon="-5.0279666664718405"><ele>383.0</ele><time>2026-04-28T08:58:27Z</time></trkpt><trkpt lat="34.05268688593124" lon="-5.028125332951555"><ele>383.5</ele><time>2026-04-28T08:58:28Z</time></trkpt><trkpt lat="34.0526506154381" lon="-5.028284364645807"><ele>384.0</ele><time>2026-04-28T08:58:29Z</time></trkpt><trkpt lat="34.052619485682364" lon="-5.028447027503565"><ele>384.5</ele><time>2026-04-28T08:58:30Z</time></trkpt><trkpt lat="34.05258517220832" lon="-5.02861130058031"><ele>385.0</ele><time>2026-04-28T08:58:31Z</time></trkpt><trkpt lat="34.0525522222145" lon="-5.028778981010844"><ele>385.5</ele><time>2026-04-28T08:58:32Z</time></trkpt><trkpt lat="34.0525192415974" lon="-5.0289495171541"><ele>386.0</ele><time>2026-04-28T08:58:33Z</time></trkpt><trkpt lat="34.0524844045401" lon="-5.0291205507503"><ele>385.5</ele><time>2026-04-28T08:58:34Z</time></trkpt><trkpt lat="34.05245092150026" lon="-5.029291271553777"><ele>385.0</ele><time>2026-04-28T08:58:35Z</time></trkpt><trkpt lat="34.052418264389125" lon="-5.029458686609579"><ele>384.5</ele><time>2026-04-28T08:58:36Z</time></trkpt><trkpt lat="34.052382682197845" lon="-5.029627274174966"><ele>384.0</ele><time>2026-04-28T08:58:37Z</time></trkpt><trkpt lat="34.0523451095831" lon="-5.029794101539942"><ele>384.0</ele><time>2026-04-28T08:58:38Z</time></trkpt><trkpt lat="34.05230835254624" lon="-5.029962650111621"><ele>384.0</ele><time>2026-04-28T08:58:39Z</time></trkpt><trkpt lat="34.05226978481555" lon="-5.030130899671469"><ele>384.0</ele><time>2026-04-28T08:58:40Z</time></trkpt><trkpt lat="34.052228376832936" lon="-5.030298607235597"><ele>384.0</ele><time>2026-04-28T08:58:41Z</time></trkpt><trkpt lat="34.05218619508782" lon="-5.0304651625432175"><ele>384.0</ele><time>2026-04-28T08:58:42Z</time></trkpt><trkpt lat="34.05214418223925" lon="-5.030634293815562"><ele>384.0</ele><time>2026-04-28T08:58:43Z</time></trkpt><trkpt lat="34.05210311159698" lon="-5.030800770378336"><ele>384.0</ele><time>2026-04-28T08:58:44Z</time></trkpt><trkpt lat="34.05205610842737" lon="-5.030964990958657"><ele>384.0</ele><time>2026-04-28T08:58:45Z</time></trkpt><trkpt lat="34.0520119298519" lon="-5.031131804121517"><ele>384.25</ele><time>2026-04-28T08:58:46Z</time></trkpt><trkpt lat="34.05196814747462" lon="-5.031300017944613"><ele>384.5</ele><time>2026-04-28T08:58:47Z</time></trkpt><trkpt lat="34.05192362922284" lon="-5.031467661636183"><ele>384.75</ele><time>2026-04-28T08:58:48Z</time></trkpt><trkpt lat="34.05187863029497" lon="-5.031635995097675"><ele>385.0</ele><time>2026-04-28T08:58:49Z</time></trkpt><trkpt lat="34.051833725902085" lon="-5.031801920077607"><ele>385.25</ele><time>2026-04-28T08:58:50Z</time></trkpt><trkpt lat="34.05178872691129" lon="-5.031967579268628"><ele>385.5</ele><time>2026-04-28T08:58:51Z</time></trkpt><trkpt lat="34.05174517769262" lon="-5.032132883929322"><ele>385.75</ele><time>2026-04-28T08:58:52Z</time></trkpt><trkpt lat="34.05170104625745" lon="-5.0322958315943245"><ele>386.0</ele><time>2026-04-28T08:58:53Z</time></trkpt><trkpt lat="34.05165851456785" lon="-5.03245770691314"><ele>385.75</ele><time>2026-04-28T08:58:54Z</time></trkpt><trkpt lat="34.051617422148716" lon="-5.032618640168802"><ele>385.5</ele><time>2026-04-28T08:58:55Z</time></trkpt><trkpt lat="34.05157531699499" lon="-5.032778974716982"><ele>385.25</ele><time>2026-04-28T08:58:56Z</time></trkpt><trkpt lat="34.05153292197049" lon="-5.032936800380333"><ele>385.0</ele><time>2026-04-28T08:58:57Z</time></trkpt><trkpt lat="34.05149085630628" lon="-5.03309268488552"><ele>385.0</ele><time>2026-04-28T08:58:58Z</time></trkpt><trkpt lat="34.051449389734174" lon="-5.033247121348678"><ele>385.0</ele><time>2026-04-28T08:58:59Z</time></trkpt><trkpt lat="34.05140840720888" lon="-5.033400597218158"><ele>385.0</ele><time>2026-04-28T08:59:00Z</time></trkpt><trkpt lat="34.05136873052843" lon="-5.033553972314045"><ele>385.0</ele><time>2026-04-28T08:59:01Z</time></trkpt><trkpt lat="34.05132983643859" lon="-5.033703164281573"><ele>386.5</ele><time>2026-04-28T08:59:02Z</time></trkpt><trkpt lat="34.05128879167989" lon="-5.033846616962795"><ele>388.0</ele><time>2026-04-28T08:59:03Z</time></trkpt><trkpt lat="34.051250059346174" lon="-5.033984329373897"><ele>389.5</ele><time>2026-04-28T08:59:04Z</time></trkpt><trkpt lat="34.05121310066679" lon="-5.034120120781607"><ele>391.0</ele><time>2026-04-28T08:59:05Z</time></trkpt><trkpt lat="34.05117800580253" lon="-5.034248316403049"><ele>391.20000000000005</ele><time>2026-04-28T08:59:06Z</time></trkpt><trkpt lat="34.05114641720786" lon="-5.034365521171838"><ele>391.40000000000003</ele><time>2026-04-28T08:59:07Z</time></trkpt><trkpt lat="34.051115710801696" lon="-5.034471428941716"><ele>391.6</ele><time>2026-04-28T08:59:08Z</time></trkpt><trkpt lat="34.051089331958096" lon="-5.03457285804585"><ele>391.8</ele><time>2026-04-28T08:59:09Z</time></trkpt><trkpt lat="34.051060946950905" lon="-5.034674482301928"><ele>392.0</ele><time>2026-04-28T08:59:10Z</time></trkpt><trkpt lat="34.051036379953985" lon="-5.034766094607843"><ele>391.99999999999994</ele><time>2026-04-28T08:59:11Z</time></trkpt><trkpt lat="34.05101718721627" lon="-5.034847900358"><ele>392.0</ele><time>2026-04-28T08:59:12Z</time></trkpt><trkpt lat="34.05100191724925" lon="-5.034922040969375"><ele>392.0</ele><time>2026-04-28T08:59:13Z</time></trkpt><trkpt lat="34.05098176718806" lon="-5.035052282816219"><ele>392.0</ele><time>2026-04-28T08:59:15Z</time></trkpt><trkpt lat="34.05097278138312" lon="-5.0351626807856364"><ele>391.99999999999994</ele><time>2026-04-28T08:59:17Z</time></trkpt><trkpt lat="34.05097102621607" lon="-5.03526035397194"><ele>392.0</ele><time>2026-04-28T08:59:19Z</time></trkpt><trkpt lat="34.050959600801015" lon="-5.035358361272148"><ele>391.8</ele><time>2026-04-28T08:59:21Z</time></trkpt><trkpt lat="34.05090058707205" lon="-5.035478049664343"><ele>391.6</ele><time>2026-04-28T08:59:23Z</time></trkpt><trkpt lat="34.050862450227235" lon="-5.035553122491968"><ele>391.40000000000003</ele><time>2026-04-28T08:59:24Z</time></trkpt><trkpt lat="34.050826053996445" lon="-5.0356407878525"><ele>391.20000000000005</ele><time>2026-04-28T08:59:25Z</time></trkpt><trkpt lat="34.050789043849036" lon="-5.035742987388585"><ele>391.0</ele><time>2026-04-28T08:59:26Z</time></trkpt><trkpt lat="34.05075393432521" lon="-5.035855335439398"><ele>390.75</ele><time>2026-04-28T08:59:27Z</time></trkpt><trkpt lat="34.05072234915963" lon="-5.035980098036737"><ele>390.5</ele><time>2026-04-28T08:59:28Z</time></trkpt><trkpt lat="34.05067817477878" lon="-5.036117380372404"><ele>390.25</ele><time>2026-04-28T08:59:29Z</time></trkpt><trkpt lat="34.05063227497418" lon="-5.0362564964660335"><ele>390.0</ele><time>2026-04-28T08:59:30Z</time></trkpt><trkpt lat="34.0505853264263" lon="-5.036400015042927"><ele>390.0</ele><time>2026-04-28T08:59:31Z</time></trkpt><trkpt lat="34.05053231122326" lon="-5.036547950587092"><ele>390.0</ele><time>2026-04-28T08:59:32Z</time></trkpt><trkpt lat="34.05047984781537" lon="-5.036699783236976"><ele>390.0</ele><time>2026-04-28T08:59:33Z</time></trkpt><trkpt lat="34.050418633984165" lon="-5.036853775458398"><ele>390.0</ele><time>2026-04-28T08:59:34Z</time></trkpt><trkpt lat="34.05035617870266" lon="-5.037013497994165"><ele>390.33333333333337</ele><time>2026-04-28T08:59:35Z</time></trkpt><trkpt lat="34.05029120560023" lon="-5.037173657523481"><ele>390.6666666666667</ele><time>2026-04-28T08:59:36Z</time></trkpt><trkpt lat="34.05022733786482" lon="-5.0373384503561285"><ele>391.0</ele><time>2026-04-28T08:59:37Z</time></trkpt><trkpt lat="34.050166346615285" lon="-5.037508706502582"><ele>391.6666666666667</ele><time>2026-04-28T08:59:38Z</time></trkpt><trkpt lat="34.050099830453924" lon="-5.037677704928673"><ele>392.33333333333337</ele><time>2026-04-28T08:59:39Z</time></trkpt><trkpt lat="34.05003376005154" lon="-5.037849601656191"><ele>393.0</ele><time>2026-04-28T08:59:40Z</time></trkpt><trkpt lat="34.04996956850311" lon="-5.038017137011401"><ele>391.66666666666663</ele><time>2026-04-28T08:59:41Z</time></trkpt><trkpt lat="34.04990814441986" lon="-5.038181187360125"><ele>390.3333333333333</ele><time>2026-04-28T08:59:42Z</time></trkpt><trkpt lat="34.04984686542375" lon="-5.038349624669291"><ele>389.0</ele><time>2026-04-28T08:59:43Z</time></trkpt><trkpt lat="34.04978492776877" lon="-5.038515750744695"><ele>389.0</ele><time>2026-04-28T08:59:44Z</time></trkpt><trkpt lat="34.04972050234528" lon="-5.038676644131138"><ele>389.0</ele><time>2026-04-28T08:59:45Z</time></trkpt><trkpt lat="34.04965735734104" lon="-5.038832151556681"><ele>389.0</ele><time>2026-04-28T08:59:46Z</time></trkpt><trkpt lat="34.04959751655426" lon="-5.0389876730497605"><ele>389.0</ele><time>2026-04-28T08:59:47Z</time></trkpt><trkpt lat="34.04954482896325" lon="-5.039129250902284"><ele>388.79999999999995</ele><time>2026-04-28T08:59:48Z</time></trkpt><trkpt lat="34.04949260601123" lon="-5.039261023773891"><ele>388.59999999999997</ele><time>2026-04-28T08:59:49Z</time></trkpt><trkpt lat="34.04944366570213" lon="-5.039387621348336"><ele>388.4</ele><time>2026-04-28T08:59:50Z</time></trkpt><trkpt lat="34.04939522690898" lon="-5.039507404188085"><ele>388.2</ele><time>2026-04-28T08:59:51Z</time></trkpt><trkpt lat="34.04935148711591" lon="-5.039617972832179"><ele>388.0</ele><time>2026-04-28T08:59:52Z</time></trkpt><trkpt lat="34.04931231655656" lon="-5.039718195510907"><ele>388.0</ele><time>2026-04-28T08:59:53Z</time></trkpt><trkpt lat="34.04927704445223" lon="-5.039800225003971"><ele>388.0</ele><time>2026-04-28T08:59:54Z</time></trkpt><trkpt lat="34.04922739852946" lon="-5.039920067649176"><ele>388.0</ele><time>2026-04-28T08:59:56Z</time></trkpt><trkpt lat="34.04917101816669" lon="-5.040032251897844"><ele>388.0</ele><time>2026-04-28T08:59:58Z</time></trkpt><trkpt lat="34.0491327603" lon="-5.040124603475863"><ele>388.0</ele><time>2026-04-28T09:00:00Z</time></trkpt><trkpt lat="34.04911901465737" lon="-5.040212022339496"><ele>388.1666666666667</ele><time>2026-04-28T09:00:04.001Z</time></trkpt><trkpt lat="34.04909598784783" lon="-5.040283588475224"><ele>388.33333333333337</ele><time>2026-04-28T09:00:08.001Z</time></trkpt><trkpt lat="34.049067852423086" lon="-5.040374074525726"><ele>388.5</ele><time>2026-04-28T09:00:12.001Z</time></trkpt><trkpt lat="34.049031076035604" lon="-5.040479321876417"><ele>388.66666666666663</ele><time>2026-04-28T09:00:15.001Z</time></trkpt><trkpt lat="34.04905770284486" lon="-5.040564092107893"><ele>388.8333333333333</ele><time>2026-04-28T09:00:17.001Z</time></trkpt><trkpt lat="34.04904732965906" lon="-5.040653560633464"><ele>389.0</ele><time>2026-04-28T09:00:19.001Z</time></trkpt><trkpt lat="34.04899438441741" lon="-5.04070427188237"><ele>389.0</ele><time>2026-04-28T09:00:20.001Z</time></trkpt><trkpt lat="34.048931661359354" lon="-5.040712820891466"><ele>389.0</ele><time>2026-04-28T09:00:21.001Z</time></trkpt><trkpt lat="34.048840244802044" lon="-5.040735416014733"><ele>389.0</ele><time>2026-04-28T09:00:23.001Z</time></trkpt><trkpt lat="34.048767059961115" lon="-5.040628907749685"><ele>389.0</ele><time>2026-04-28T09:00:24.001Z</time></trkpt><trkpt lat="34.04870132048584" lon="-5.0405639884933775"><ele>389.0</ele><time>2026-04-28T09:00:25.001Z</time></trkpt><trkpt lat="34.048637282583215" lon="-5.040479377119641"><ele>389.0</ele><time>2026-04-28T09:00:26.001Z</time></trkpt><trkpt lat="34.048598193453785" lon="-5.040371013759874"><ele>389.0</ele><time>2026-04-28T09:00:27.001Z</time></trkpt><trkpt lat="34.04854060443478" lon="-5.040264954595264"><ele>389.0</ele><time>2026-04-28T09:00:28Z</time></trkpt><trkpt lat="34.048486767513374" lon="-5.040151455618759"><ele>389.0</ele><time>2026-04-28T09:00:29Z</time></trkpt><trkpt lat="34.04843269325048" lon="-5.040031593056414"><ele>389.0</ele><time>2026-04-28T09:00:30Z</time></trkpt><trkpt lat="34.04836758541363" lon="-5.039915414172848"><ele>388.75</ele><time>2026-04-28T09:00:31Z</time></trkpt><trkpt lat="34.0483165865699" lon="-5.03978771812469"><ele>388.5</ele><time>2026-04-28T09:00:32Z</time></trkpt><trkpt lat="34.04826529643635" lon="-5.039657549282231"><ele>388.25</ele><time>2026-04-28T09:00:33Z</time></trkpt><trkpt lat="34.048219225978876" lon="-5.039529171879964"><ele>388.0</ele><time>2026-04-28T09:00:34Z</time></trkpt><trkpt lat="34.04817683805029" lon="-5.039404765693393"><ele>387.4</ele><time>2026-04-28T09:00:35Z</time></trkpt><trkpt lat="34.04813882365165" lon="-5.039284368812392"><ele>386.79999999999995</ele><time>2026-04-28T09:00:36Z</time></trkpt><trkpt lat="34.048102770406395" lon="-5.0391654176651635"><ele>386.2</ele><time>2026-04-28T09:00:37Z</time></trkpt><trkpt lat="34.048063120581205" lon="-5.039042467252921"><ele>385.6</ele><time>2026-04-28T09:00:38Z</time></trkpt><trkpt lat="34.048021025583274" lon="-5.038916765651792"><ele>385.0</ele><time>2026-04-28T09:00:39Z</time></trkpt><trkpt lat="34.047971377921684" lon="-5.038787156831558"><ele>384.25</ele><time>2026-04-28T09:00:40Z</time></trkpt><trkpt lat="34.04791659008552" lon="-5.038656624585264"><ele>383.5</ele><time>2026-04-28T09:00:41Z</time></trkpt><trkpt lat="34.04786056851687" lon="-5.0385314811641475"><ele>382.75</ele><time>2026-04-28T09:00:42Z</time></trkpt><trkpt lat="34.04780755206587" lon="-5.0384174117400695"><ele>382.0</ele><time>2026-04-28T09:00:43Z</time></trkpt><trkpt lat="34.04775406082639" lon="-5.038312050301883"><ele>381.40000000000003</ele><time>2026-04-28T09:00:44Z</time></trkpt><trkpt lat="34.04769866274253" lon="-5.0382128104727775"><ele>380.8</ele><time>2026-04-28T09:00:45Z</time></trkpt><trkpt lat="34.04764116122095" lon="-5.038118165888076"><ele>380.2</ele><time>2026-04-28T09:00:46Z</time></trkpt><trkpt lat="34.04758379468949" lon="-5.038029293225371"><ele>379.6</ele><time>2026-04-28T09:00:47Z</time></trkpt><trkpt lat="34.04752587820366" lon="-5.03794399278141"><ele>379.0</ele><time>2026-04-28T09:00:48Z</time></trkpt><trkpt lat="34.04746640481008" lon="-5.037860643287322"><ele>379.0</ele><time>2026-04-28T09:00:49Z</time></trkpt><trkpt lat="34.04740398908766" lon="-5.037780997791331"><ele>379.0</ele><time>2026-04-28T09:00:50Z</time></trkpt><trkpt lat="34.047339898335" lon="-5.037701451067427"><ele>379.0</ele><time>2026-04-28T09:00:51Z</time></trkpt><trkpt lat="34.04727460242316" lon="-5.0376211851434505"><ele>379.0</ele><time>2026-04-28T09:00:52Z</time></trkpt><trkpt lat="34.0472120813411" lon="-5.037548009292865"><ele>379.0</ele><time>2026-04-28T09:00:53Z</time></trkpt><trkpt lat="34.04714773370779" lon="-5.037484967266643"><ele>379.0</ele><time>2026-04-28T09:00:54Z</time></trkpt><trkpt lat="34.04707260221216" lon="-5.037441758688821"><ele>379.0</ele><time>2026-04-28T09:00:55Z</time></trkpt><trkpt lat="34.04699637408652" lon="-5.037410369223475"><ele>379.0</ele><time>2026-04-28T09:00:56Z</time></trkpt><trkpt lat="34.046913427099895" lon="-5.037403767951003"><ele>379.0</ele><time>2026-04-28T09:00:57Z</time></trkpt><trkpt lat="34.046830466173226" lon="-5.03741687602946"><ele>379.0</ele><time>2026-04-28T09:00:58Z</time></trkpt><trkpt lat="34.046745940358306" lon="-5.037438635781587"><ele>379.0</ele><time>2026-04-28T09:00:59Z</time></trkpt><trkpt lat="34.04665999033252" lon="-5.037453696614202"><ele>379.0</ele><time>2026-04-28T09:01:00Z</time></trkpt><trkpt lat="34.0465717154157" lon="-5.03745381890847"><ele>379.0</ele><time>2026-04-28T09:01:01Z</time></trkpt><trkpt lat="34.04648260956562" lon="-5.037434609527034"><ele>379.0</ele><time>2026-04-28T09:01:02Z</time></trkpt><trkpt lat="34.046395308689384" lon="-5.037401073011671"><ele>379.0</ele><time>2026-04-28T09:01:03Z</time></trkpt><trkpt lat="34.046309498375706" lon="-5.037345556645247"><ele>379.0</ele><time>2026-04-28T09:01:04Z</time></trkpt><trkpt lat="34.04623392149495" lon="-5.037269490420732"><ele>379.0</ele><time>2026-04-28T09:01:05Z</time></trkpt><trkpt lat="34.04616836850577" lon="-5.037187978050151"><ele>379.0</ele><time>2026-04-28T09:01:06Z</time></trkpt><trkpt lat="34.04611548560396" lon="-5.037097929494757"><ele>379.0</ele><time>2026-04-28T09:01:07Z</time></trkpt><trkpt lat="34.0460726572056" lon="-5.037002348664004"><ele>379.0</ele><time>2026-04-28T09:01:08Z</time></trkpt><trkpt lat="34.04603516926621" lon="-5.036909726021447"><ele>379.0</ele><time>2026-04-28T09:01:09Z</time></trkpt><trkpt lat="34.0459962740708" lon="-5.036817878960417"><ele>379.0</ele><time>2026-04-28T09:01:10Z</time></trkpt><trkpt lat="34.04594884452559" lon="-5.036726448997359"><ele>379.0</ele><time>2026-04-28T09:01:11Z</time></trkpt><trkpt lat="34.04588729267814" lon="-5.036649067393401"><ele>378.79999999999995</ele><time>2026-04-28T09:01:12Z</time></trkpt><trkpt lat="34.04581370803945" lon="-5.0365868192155885"><ele>378.59999999999997</ele><time>2026-04-28T09:01:13Z</time></trkpt><trkpt lat="34.045727741151175" lon="-5.0365415853078845"><ele>378.4</ele><time>2026-04-28T09:01:14Z</time></trkpt><trkpt lat="34.045635060643086" lon="-5.036507802530019"><ele>378.2</ele><time>2026-04-28T09:01:15Z</time></trkpt><trkpt lat="34.04554802062213" lon="-5.036482113920505"><ele>378.0</ele><time>2026-04-28T09:01:16Z</time></trkpt><trkpt lat="34.04546733199072" lon="-5.036463185257903"><ele>378.6666666666667</ele><time>2026-04-28T09:01:17Z</time></trkpt><trkpt lat="34.04538985879793" lon="-5.036447635920143"><ele>379.3333333333333</ele><time>2026-04-28T09:01:18Z</time></trkpt><trkpt lat="34.04530488063282" lon="-5.036429560866825"><ele>380.0</ele><time>2026-04-28T09:01:19Z</time></trkpt><trkpt lat="34.045213381197705" lon="-5.036408210927853"><ele>380.66666666666663</ele><time>2026-04-28T09:01:20Z</time></trkpt><trkpt lat="34.04512510532293" lon="-5.036385350441683"><ele>381.3333333333333</ele><time>2026-04-28T09:01:21Z</time></trkpt><trkpt lat="34.04504084015228" lon="-5.03636360665089"><ele>382.0</ele><time>2026-04-28T09:01:22Z</time></trkpt><trkpt lat="34.04496112662093" lon="-5.03634893511709"><ele>382.0</ele><time>2026-04-28T09:01:23Z</time></trkpt><trkpt lat="34.04489076439785" lon="-5.036336937102255"><ele>382.0</ele><time>2026-04-28T09:01:24Z</time></trkpt><trkpt lat="34.044826601657974" lon="-5.0363221319865135"><ele>382.0</ele><time>2026-04-28T09:01:25Z</time></trkpt><trkpt lat="34.044735705038626" lon="-5.036294568331885"><ele>382.0</ele><time>2026-04-28T09:01:27Z</time></trkpt><trkpt lat="34.044647797942375" lon="-5.036270246468664"><ele>382.0</ele><time>2026-04-28T09:02:40Z</time></trkpt><trkpt lat="34.044549544020455" lon="-5.036237937966733"><ele>382.0</ele><time>2026-04-28T09:02:42Z</time></trkpt><trkpt lat="34.04448031062245" lon="-5.036213210068234"><ele>382.0</ele><time>2026-04-28T09:02:43Z</time></trkpt><trkpt lat="34.04439858377236" lon="-5.036187672218533"><ele>382.0</ele><time>2026-04-28T09:02:44Z</time></trkpt><trkpt lat="34.044306829919876" lon="-5.0361624992032885"><ele>382.0</ele><time>2026-04-28T09:02:45Z</time></trkpt><trkpt lat="34.0442112075685" lon="-5.036134486864153"><ele>382.0</ele><time>2026-04-28T09:02:46Z</time></trkpt><trkpt lat="34.04411522978977" lon="-5.036105355811764"><ele>382.0</ele><time>2026-04-28T09:02:47Z</time></trkpt><trkpt lat="34.04401696453707" lon="-5.036078117170523"><ele>381.40000000000003</ele><time>2026-04-28T09:02:48Z</time></trkpt><trkpt lat="34.04391652623143" lon="-5.036050268484285"><ele>380.8</ele><time>2026-04-28T09:02:49Z</time></trkpt><trkpt lat="34.043811588814734" lon="-5.036021095314438"><ele>380.2</ele><time>2026-04-28T09:02:50Z</time></trkpt><trkpt lat="34.04370789064323" lon="-5.035990505585026"><ele>379.6</ele><time>2026-04-28T09:02:51Z</time></trkpt><trkpt lat="34.04360428342827" lon="-5.0359611047626265"><ele>379.0</ele><time>2026-04-28T09:02:52Z</time></trkpt><trkpt lat="34.04350013496294" lon="-5.035931316094073"><ele>379.0</ele><time>2026-04-28T09:02:53Z</time></trkpt><trkpt lat="34.04339657110912" lon="-5.035904462993135"><ele>379.0</ele><time>2026-04-28T09:02:54Z</time></trkpt><trkpt lat="34.04329491883963" lon="-5.035876820648923"><ele>379.0</ele><time>2026-04-28T09:02:55Z</time></trkpt><trkpt lat="34.04319322796015" lon="-5.0358433543364605"><ele>379.0</ele><time>2026-04-28T09:02:56Z</time></trkpt><trkpt lat="34.043092804822976" lon="-5.035810749669416"><ele>379.0</ele><time>2026-04-28T09:02:57Z</time></trkpt><trkpt lat="34.042990053197" lon="-5.035780574980171"><ele>380.25</ele><time>2026-04-28T09:02:58Z</time></trkpt><trkpt lat="34.04288580506418" lon="-5.035751732990784"><ele>381.5</ele><time>2026-04-28T09:02:59Z</time></trkpt><trkpt lat="34.04277506819027" lon="-5.035721356629531"><ele>382.75</ele><time>2026-04-28T09:03:00Z</time></trkpt><trkpt lat="34.042661976743794" lon="-5.035688855878405"><ele>384.0</ele><time>2026-04-28T09:03:01Z</time></trkpt><trkpt lat="34.042548644636916" lon="-5.035654391888028"><ele>383.5</ele><time>2026-04-28T09:03:02Z</time></trkpt><trkpt lat="34.042435304737744" lon="-5.0356182866287815"><ele>383.0</ele><time>2026-04-28T09:03:03Z</time></trkpt><trkpt lat="34.04232318674937" lon="-5.035583755527079"><ele>382.5</ele><time>2026-04-28T09:03:04Z</time></trkpt><trkpt lat="34.04221182825407" lon="-5.035550703979583"><ele>382.0</ele><time>2026-04-28T09:03:05Z</time></trkpt><trkpt lat="34.04209983110597" lon="-5.035518948197176"><ele>382.0</ele><time>2026-04-28T09:03:06Z</time></trkpt><trkpt lat="34.04198590286204" lon="-5.0354882875688265"><ele>382.0</ele><time>2026-04-28T09:03:07Z</time></trkpt><trkpt lat="34.04187010097847" lon="-5.03545723770323"><ele>382.0</ele><time>2026-04-28T09:03:08Z</time></trkpt><trkpt lat="34.041755736764955" lon="-5.035425086261807"><ele>382.0</ele><time>2026-04-28T09:03:09Z</time></trkpt><trkpt lat="34.04163953391829" lon="-5.03539306580804"><ele>382.5</ele><time>2026-04-28T09:03:10Z</time></trkpt><trkpt lat="34.04152274962669" lon="-5.035360169313579"><ele>383.0</ele><time>2026-04-28T09:03:11Z</time></trkpt><trkpt lat="34.041406205960726" lon="-5.035325455393495"><ele>383.5</ele><time>2026-04-28T09:03:12Z</time></trkpt><trkpt lat="34.04128881053533" lon="-5.035288794969518"><ele>384.0</ele><time>2026-04-28T09:03:13Z</time></trkpt><trkpt lat="34.04117478855415" lon="-5.035248381013469"><ele>384.0</ele><time>2026-04-28T09:03:14Z</time></trkpt><trkpt lat="34.04106146234499" lon="-5.035203444116166"><ele>384.0</ele><time>2026-04-28T09:03:15Z</time></trkpt><trkpt lat="34.04095360043981" lon="-5.035154683461605"><ele>384.0</ele><time>2026-04-28T09:03:16Z</time></trkpt><trkpt lat="34.04084953771617" lon="-5.035108606072079"><ele>384.0</ele><time>2026-04-28T09:03:17Z</time></trkpt><trkpt lat="34.040759083659864" lon="-5.035043054608508"><ele>384.0</ele><time>2026-04-28T09:03:18Z</time></trkpt><trkpt lat="34.04066619110264" lon="-5.034996731698561"><ele>384.0</ele><time>2026-04-28T09:03:19Z</time></trkpt><trkpt lat="34.04058038174991" lon="-5.034953953129971"><ele>384.0</ele><time>2026-04-28T09:03:20Z</time></trkpt><trkpt lat="34.04050029274457" lon="-5.034915733648302"><ele>384.0</ele><time>2026-04-28T09:03:21Z</time></trkpt><trkpt lat="34.04042759000684" lon="-5.034881038986078"><ele>384.0</ele><time>2026-04-28T09:03:22Z</time></trkpt><trkpt lat="34.04036662782075" lon="-5.034851947061004"><ele>384.0</ele><time>2026-04-28T09:03:23Z</time></trkpt><trkpt lat="34.04026791872386" lon="-5.034804841838312"><ele>384.0</ele><time>2026-04-28T09:03:25Z</time></trkpt><trkpt lat="34.040150653728446" lon="-5.034816196259035"><ele>384.0</ele><time>2026-04-28T09:03:27Z</time></trkpt><trkpt lat="34.040034269387014" lon="-5.034783412995831"><ele>384.0</ele><time>2026-04-28T09:03:29Z</time></trkpt><trkpt lat="34.039976238253495" lon="-5.034749740978589"><ele>384.0</ele><time>2026-04-28T09:03:30Z</time></trkpt><trkpt lat="34.03992093877599" lon="-5.0347016931468405"><ele>384.0</ele><time>2026-04-28T09:03:31Z</time></trkpt><trkpt lat="34.039851454237414" lon="-5.0345892272415815"><ele>384.0</ele><time>2026-04-28T09:03:33Z</time></trkpt><trkpt lat="34.039836858112615" lon="-5.034480856027114"><ele>384.0</ele><time>2026-04-28T09:03:35Z</time></trkpt><trkpt lat="34.03971675570467" lon="-5.034476281164021"><ele>384.0</ele><time>2026-04-28T09:03:36Z</time></trkpt><trkpt lat="34.0396477467365" lon="-5.034434044411118"><ele>384.0</ele><time>2026-04-28T09:03:37Z</time></trkpt><trkpt lat="34.03956812212802" lon="-5.034381794373954"><ele>384.0</ele><time>2026-04-28T09:03:38Z</time></trkpt><trkpt lat="34.0394978703399" lon="-5.03430327456066"><ele>384.0</ele><time>2026-04-28T09:03:39Z</time></trkpt><trkpt lat="34.03941598478283" lon="-5.034234344411165"><ele>384.0</ele><time>2026-04-28T09:03:40Z</time></trkpt><trkpt lat="34.03930616979451" lon="-5.03420684492716"><ele>384.0</ele><time>2026-04-28T09:03:41Z</time></trkpt><trkpt lat="34.03921257594086" lon="-5.034145462582804"><ele>384.0</ele><time>2026-04-28T09:03:42Z</time></trkpt><trkpt lat="34.03911885595308" lon="-5.034082440382441"><ele>384.0</ele><time>2026-04-28T09:03:43Z</time></trkpt><trkpt lat="34.03902354378988" lon="-5.034020517368828"><ele>383.75</ele><time>2026-04-28T09:03:44Z</time></trkpt><trkpt lat="34.03892560073722" lon="-5.033959628106202"><ele>383.5</ele><time>2026-04-28T09:03:45Z</time></trkpt><trkpt lat="34.0388224013391" lon="-5.033901669553593"><ele>383.25</ele><time>2026-04-28T09:03:46Z</time></trkpt><trkpt lat="34.03871569318377" lon="-5.033840900064512"><ele>383.0</ele><time>2026-04-28T09:03:47Z</time></trkpt><trkpt lat="34.03860570951097" lon="-5.033778202539364"><ele>383.0</ele><time>2026-04-28T09:03:48Z</time></trkpt><trkpt lat="34.03849478255662" lon="-5.033718650401347"><ele>383.0</ele><time>2026-04-28T09:03:49Z</time></trkpt><trkpt lat="34.03839577179842" lon="-5.033661523919794"><ele>383.0</ele><time>2026-04-28T09:03:50Z</time></trkpt><trkpt lat="34.03829960953659" lon="-5.033606646517974"><ele>383.0</ele><time>2026-04-28T09:03:51Z</time></trkpt><trkpt lat="34.03820212201117" lon="-5.033553371358072"><ele>383.0</ele><time>2026-04-28T09:03:52Z</time></trkpt><trkpt lat="34.03810282036002" lon="-5.033500919405738"><ele>383.25</ele><time>2026-04-28T09:03:53Z</time></trkpt><trkpt lat="34.038000675847634" lon="-5.03344872269014"><ele>383.5</ele><time>2026-04-28T09:03:54Z</time></trkpt><trkpt lat="34.03789710777878" lon="-5.033392754070352"><ele>383.75</ele><time>2026-04-28T09:03:55Z</time></trkpt><trkpt lat="34.03779053825881" lon="-5.033334955004726"><ele>384.0</ele><time>2026-04-28T09:03:56Z</time></trkpt><trkpt lat="34.037681112420955" lon="-5.033275508681277"><ele>384.5</ele><time>2026-04-28T09:03:57Z</time></trkpt><trkpt lat="34.03757026916609" lon="-5.033216715040922"><ele>385.0</ele><time>2026-04-28T09:03:58Z</time></trkpt><trkpt lat="34.03746220005706" lon="-5.033158072909738"><ele>385.5</ele><time>2026-04-28T09:03:59Z</time></trkpt><trkpt lat="34.03735848887642" lon="-5.033097619698047"><ele>386.0</ele><time>2026-04-28T09:04:00Z</time></trkpt><trkpt lat="34.03725840669736" lon="-5.033039221334568"><ele>386.0</ele><time>2026-04-28T09:04:01Z</time></trkpt><trkpt lat="34.03715798473786" lon="-5.032984574581597"><ele>386.0</ele><time>2026-04-28T09:04:02Z</time></trkpt><trkpt lat="34.03705780757527" lon="-5.032930680151333"><ele>386.0</ele><time>2026-04-28T09:04:02.999Z</time></trkpt><trkpt lat="34.0369551112236" lon="-5.032875240710458"><ele>386.0</ele><time>2026-04-28T09:04:03.999Z</time></trkpt><trkpt lat="34.03684771235324" lon="-5.032817869795487"><ele>386.0</ele><time>2026-04-28T09:04:04.999Z</time></trkpt><trkpt lat="34.03673875225468" lon="-5.032754512272705"><ele>386.0</ele><time>2026-04-28T09:04:05.999Z</time></trkpt><trkpt lat="34.03662873222365" lon="-5.0326924300789075"><ele>386.0</ele><time>2026-04-28T09:04:06.999Z</time></trkpt><trkpt lat="34.03651632665752" lon="-5.032633043839994"><ele>386.0</ele><time>2026-04-28T09:04:07.999Z</time></trkpt><trkpt lat="34.036392057025495" lon="-5.032560381989581"><ele>386.3333333333333</ele><time>2026-04-28T09:04:08.999Z</time></trkpt><trkpt lat="34.036247887394715" lon="-5.032481972044636"><ele>386.66666666666663</ele><time>2026-04-28T09:04:09.999Z</time></trkpt><trkpt lat="34.036092568106" lon="-5.032400017792287"><ele>387.0</ele><time>2026-04-28T09:04:10.999Z</time></trkpt><trkpt lat="34.035934671074706" lon="-5.03232455149183"><ele>386.33333333333337</ele><time>2026-04-28T09:04:11.999Z</time></trkpt><trkpt lat="34.03577688922325" lon="-5.032250305383562"><ele>385.6666666666667</ele><time>2026-04-28T09:04:13Z</time></trkpt><trkpt lat="34.035622422492956" lon="-5.032174931413341"><ele>385.0</ele><time>2026-04-28T09:04:14Z</time></trkpt><trkpt lat="34.035476021586405" lon="-5.032100836351554"><ele>385.0</ele><time>2026-04-28T09:04:15Z</time></trkpt><trkpt lat="34.035334621532144" lon="-5.032024116886711"><ele>385.0</ele><time>2026-04-28T09:04:16Z</time></trkpt><trkpt lat="34.03519397300989" lon="-5.031946018168412"><ele>385.0</ele><time>2026-04-28T09:04:17Z</time></trkpt><trkpt lat="34.03505509759733" lon="-5.031869201462958"><ele>386.6666666666667</ele><time>2026-04-28T09:04:18Z</time></trkpt><trkpt lat="34.03491671136939" lon="-5.031792692379085"><ele>388.33333333333337</ele><time>2026-04-28T09:04:19Z</time></trkpt><trkpt lat="34.03477963975931" lon="-5.031718038844327"><ele>390.0</ele><time>2026-04-28T09:04:20Z</time></trkpt><trkpt lat="34.034642902754705" lon="-5.03164633881428"><ele>389.66666666666663</ele><time>2026-04-28T09:04:21Z</time></trkpt><trkpt lat="34.034503008723384" lon="-5.031572767789918"><ele>389.3333333333333</ele><time>2026-04-28T09:04:22Z</time></trkpt><trkpt lat="34.03436372468182" lon="-5.031496299836403"><ele>389.0</ele><time>2026-04-28T09:04:23Z</time></trkpt><trkpt lat="34.034223380300766" lon="-5.031417862814773"><ele>389.5</ele><time>2026-04-28T09:04:24Z</time></trkpt><trkpt lat="34.03408272203031" lon="-5.031340254431042"><ele>390.0</ele><time>2026-04-28T09:04:25Z</time></trkpt><trkpt lat="34.033953208803055" lon="-5.031270280953963"><ele>390.5</ele><time>2026-04-28T09:04:26Z</time></trkpt><trkpt lat="34.033840520400055" lon="-5.031207757509638"><ele>391.0</ele><time>2026-04-28T09:04:27Z</time></trkpt><trkpt lat="34.03374800786744" lon="-5.0311555770186605"><ele>391.00000000000006</ele><time>2026-04-28T09:04:28Z</time></trkpt><trkpt lat="34.03366945263791" lon="-5.031114363955334"><ele>391.0</ele><time>2026-04-28T09:04:29Z</time></trkpt><trkpt lat="34.033605801876945" lon="-5.031083154773542"><ele>391.0</ele><time>2026-04-28T09:04:30Z</time></trkpt><trkpt lat="34.033526363628425" lon="-5.031037292766395"><ele>391.0</ele><time>2026-04-28T09:04:32Z</time></trkpt><trkpt lat="34.0334626820067" lon="-5.031006194206515"><ele>391.00000000000006</ele><time>2026-04-28T09:04:35Z</time></trkpt><trkpt lat="34.0334035504901" lon="-5.030976651320789"><ele>391.0</ele><time>2026-04-28T09:04:37Z</time></trkpt><trkpt lat="34.03333344914117" lon="-5.0309408957491835"><ele>391.00000000000006</ele><time>2026-04-28T09:04:39Z</time></trkpt><trkpt lat="34.03325333153858" lon="-5.030905701361277"><ele>391.0</ele><time>2026-04-28T09:04:41Z</time></trkpt><trkpt lat="34.03317251654106" lon="-5.03086437047855"><ele>391.0</ele><time>2026-04-28T09:04:43Z</time></trkpt><trkpt lat="34.033106031716585" lon="-5.030823923056982"><ele>391.0</ele><time>2026-04-28T09:04:45Z</time></trkpt><trkpt lat="34.033037373004994" lon="-5.030790692503095"><ele>391.00000000000006</ele><time>2026-04-28T09:04:46.999Z</time></trkpt><trkpt lat="34.032941386410116" lon="-5.030732804683567"><ele>391.0</ele><time>2026-04-28T09:04:48.999Z</time></trkpt><trkpt lat="34.032842702752575" lon="-5.030682255571505"><ele>391.0</ele><time>2026-04-28T09:04:50.999Z</time></trkpt><trkpt lat="34.0327605462279" lon="-5.03063662489476"><ele>391.0</ele><time>2026-04-28T09:04:52.999Z</time></trkpt><trkpt lat="34.032685617728546" lon="-5.030595139505371"><ele>391.0</ele><time>2026-04-28T09:04:54.999Z</time></trkpt><trkpt lat="34.03260280442242" lon="-5.030546503934657"><ele>391.0</ele><time>2026-04-28T09:04:56.999Z</time></trkpt><trkpt lat="34.032513206928385" lon="-5.03049970632862"><ele>391.0</ele><time>2026-04-28T09:04:58.999Z</time></trkpt><trkpt lat="34.032435193336056" lon="-5.030452641562749"><ele>391.6</ele><time>2026-04-28T09:05:00.999Z</time></trkpt><trkpt lat="34.03235319208302" lon="-5.030406642333912"><ele>392.20000000000005</ele><time>2026-04-28T09:05:02.999Z</time></trkpt><trkpt lat="34.03225706666356" lon="-5.030357172099023"><ele>392.79999999999995</ele><time>2026-04-28T09:05:04.999Z</time></trkpt><trkpt lat="34.03214074980427" lon="-5.030305541596344"><ele>393.4</ele><time>2026-04-28T09:05:06.999Z</time></trkpt><trkpt lat="34.03207794513509" lon="-5.0302763537342905"><ele>394.0</ele><time>2026-04-28T09:05:07.999Z</time></trkpt><trkpt lat="34.032010095288875" lon="-5.030232830498301"><ele>394.0</ele><time>2026-04-28T09:05:08.999Z</time></trkpt><trkpt lat="34.03193513556854" lon="-5.030194886882767"><ele>394.0</ele><time>2026-04-28T09:05:09.999Z</time></trkpt><trkpt lat="34.03185295215067" lon="-5.030151637663597"><ele>394.0</ele><time>2026-04-28T09:05:10.999Z</time></trkpt><trkpt lat="34.03176977586533" lon="-5.030106440660164"><ele>394.0</ele><time>2026-04-28T09:05:11.999Z</time></trkpt><trkpt lat="34.0316816276759" lon="-5.030062677971474"><ele>394.0</ele><time>2026-04-28T09:05:12.999Z</time></trkpt><trkpt lat="34.031591236639855" lon="-5.030012451779677"><ele>393.2</ele><time>2026-04-28T09:05:13.999Z</time></trkpt><trkpt lat="34.03149705812175" lon="-5.029959702130185"><ele>392.4</ele><time>2026-04-28T09:05:14.999Z</time></trkpt><trkpt lat="34.031398935227664" lon="-5.029907993977247"><ele>391.6</ele><time>2026-04-28T09:05:15.999Z</time></trkpt><trkpt lat="34.03129554654245" lon="-5.02985389504374"><ele>390.8</ele><time>2026-04-28T09:05:16.999Z</time></trkpt><trkpt lat="34.03119038895341" lon="-5.029797585296443"><ele>390.0</ele><time>2026-04-28T09:05:17.999Z</time></trkpt><trkpt lat="34.03108240350392" lon="-5.029740087952332"><ele>390.0</ele><time>2026-04-28T09:05:18.999Z</time></trkpt><trkpt lat="34.03097475777276" lon="-5.029679129069279"><ele>390.0</ele><time>2026-04-28T09:05:19.999Z</time></trkpt><trkpt lat="34.030872072908814" lon="-5.029623237187358"><ele>390.0</ele><time>2026-04-28T09:05:20.999Z</time></trkpt><trkpt lat="34.03078065226012" lon="-5.029573908132212"><ele>390.0</ele><time>2026-04-28T09:05:21.999Z</time></trkpt><trkpt lat="34.030698226624665" lon="-5.029530232282543"><ele>390.0</ele><time>2026-04-28T09:05:22.999Z</time></trkpt><trkpt lat="34.03062302341415" lon="-5.0294866181962785"><ele>390.5</ele><time>2026-04-28T09:05:23.999Z</time></trkpt><trkpt lat="34.03055160621647" lon="-5.029450037998172"><ele>391.0</ele><time>2026-04-28T09:05:24.999Z</time></trkpt><trkpt lat="34.03048270565659" lon="-5.0294155129282245"><ele>391.5</ele><time>2026-04-28T09:05:25.999Z</time></trkpt><trkpt lat="34.030415018973926" lon="-5.02938070657905"><ele>392.0</ele><time>2026-04-28T09:05:26.999Z</time></trkpt><trkpt lat="34.030346449381476" lon="-5.029347555003964"><ele>392.5</ele><time>2026-04-28T09:05:27.999Z</time></trkpt><trkpt lat="34.03027547723107" lon="-5.029313883232796"><ele>393.0</ele><time>2026-04-28T09:05:28.999Z</time></trkpt><trkpt lat="34.03020449385725" lon="-5.029269911780569"><ele>393.0</ele><time>2026-04-28T09:05:29.999Z</time></trkpt><trkpt lat="34.030131446838425" lon="-5.02922844096981"><ele>393.0</ele><time>2026-04-28T09:05:30.999Z</time></trkpt><trkpt lat="34.030055542864524" lon="-5.029188231794345"><ele>393.0</ele><time>2026-04-28T09:05:31.999Z</time></trkpt><trkpt lat="34.02997884997451" lon="-5.029145450599834"><ele>393.0</ele><time>2026-04-28T09:05:32.999Z</time></trkpt><trkpt lat="34.02990465309128" lon="-5.029105003318534"><ele>393.0</ele><time>2026-04-28T09:05:33.999Z</time></trkpt><trkpt lat="34.02983530707157" lon="-5.029068931232958"><ele>393.0</ele><time>2026-04-28T09:05:34.999Z</time></trkpt><trkpt lat="34.02977063857682" lon="-5.029035227743392"><ele>392.8571428571429</ele><time>2026-04-28T09:05:35.999Z</time></trkpt><trkpt lat="34.02970968855922" lon="-5.02899931438458"><ele>392.7142857142857</ele><time>2026-04-28T09:05:36.999Z</time></trkpt><trkpt lat="34.029646750556374" lon="-5.02896759314743"><ele>392.57142857142856</ele><time>2026-04-28T09:05:37.999Z</time></trkpt><trkpt lat="34.02958313218621" lon="-5.028931554083341"><ele>392.42857142857144</ele><time>2026-04-28T09:05:38.999Z</time></trkpt><trkpt lat="34.02951507965615" lon="-5.028897561527054"><ele>392.2857142857143</ele><time>2026-04-28T09:05:39.999Z</time></trkpt><trkpt lat="34.02944069978556" lon="-5.02885924526407"><ele>392.14285714285717</ele><time>2026-04-28T09:05:40.999Z</time></trkpt><trkpt lat="34.02936400999959" lon="-5.028814675705794"><ele>392.0</ele><time>2026-04-28T09:05:41.999Z</time></trkpt><trkpt lat="34.02928272907516" lon="-5.028769408742646"><ele>392.0</ele><time>2026-04-28T09:05:42.999Z</time></trkpt><trkpt lat="34.029197324887505" lon="-5.028723909974497"><ele>392.0</ele><time>2026-04-28T09:05:43.999Z</time></trkpt><trkpt lat="34.02910910383525" lon="-5.028678424786844"><ele>392.0</ele><time>2026-04-28T09:05:44.999Z</time></trkpt><trkpt lat="34.0290213134567" lon="-5.028631724859411"><ele>392.0</ele><time>2026-04-28T09:05:45.999Z</time></trkpt><trkpt lat="34.028932193623206" lon="-5.028583487637957"><ele>392.0</ele><time>2026-04-28T09:05:46.999Z</time></trkpt><trkpt lat="34.028841643747164" lon="-5.0285336357252195"><ele>391.8</ele><time>2026-04-28T09:05:47.999Z</time></trkpt><trkpt lat="34.02875033246254" lon="-5.0284858665753775"><ele>391.6</ele><time>2026-04-28T09:05:48.999Z</time></trkpt><trkpt lat="34.02865766909029" lon="-5.028435751873"><ele>391.40000000000003</ele><time>2026-04-28T09:05:49.999Z</time></trkpt><trkpt lat="34.02856603405141" lon="-5.028380947535708"><ele>391.20000000000005</ele><time>2026-04-28T09:05:50.999Z</time></trkpt><trkpt lat="34.02846992371103" lon="-5.028332280517615"><ele>391.0</ele><time>2026-04-28T09:05:51.999Z</time></trkpt><trkpt lat="34.02837264716668" lon="-5.0282811481564265"><ele>392.6</ele><time>2026-04-28T09:05:52.999Z</time></trkpt><trkpt lat="34.028271926774806" lon="-5.028231558652193"><ele>394.20000000000005</ele><time>2026-04-28T09:05:53.999Z</time></trkpt><trkpt lat="34.0281739257928" lon="-5.0281812622597375"><ele>395.79999999999995</ele><time>2026-04-28T09:05:54.999Z</time></trkpt><trkpt lat="34.0280803438687" lon="-5.028128826897134"><ele>397.4</ele><time>2026-04-28T09:05:55.999Z</time></trkpt><trkpt lat="34.02798980812713" lon="-5.028078623074222"><ele>399.0</ele><time>2026-04-28T09:05:56.999Z</time></trkpt><trkpt lat="34.02790957181388" lon="-5.0280382391293275"><ele>399.0</ele><time>2026-04-28T09:05:57.999Z</time></trkpt><trkpt lat="34.027834550748494" lon="-5.0280117861813585"><ele>399.0</ele><time>2026-04-28T09:05:58.999Z</time></trkpt><trkpt lat="34.02776099705483" lon="-5.0279744272544304"><ele>399.0</ele><time>2026-04-28T09:05:59.999Z</time></trkpt><trkpt lat="34.02769449870152" lon="-5.027983041759322"><ele>399.0</ele><time>2026-04-28T09:06:00.999Z</time></trkpt><trkpt lat="34.027630438865756" lon="-5.027973964449051"><ele>399.0</ele><time>2026-04-28T09:06:01.999Z</time></trkpt><trkpt lat="34.027513793348774" lon="-5.027974921624634"><ele>399.0</ele><time>2026-04-28T09:06:03.999Z</time></trkpt><trkpt lat="34.02741447396017" lon="-5.027980783947232"><ele>399.25</ele><time>2026-04-28T09:06:05.999Z</time></trkpt><trkpt lat="34.02730004401919" lon="-5.0280206552779125"><ele>399.5</ele><time>2026-04-28T09:06:07.999Z</time></trkpt><trkpt lat="34.027186264068916" lon="-5.028061295907338"><ele>399.75</ele><time>2026-04-28T09:06:09.999Z</time></trkpt><trkpt lat="34.02707393001813" lon="-5.028058178098985"><ele>400.0</ele><time>2026-04-28T09:06:11.999Z</time></trkpt><trkpt lat="34.02695939162254" lon="-5.0280132505261985"><ele>400.0</ele><time>2026-04-28T09:06:13.999Z</time></trkpt><trkpt lat="34.02688998493178" lon="-5.027996099180288"><ele>400.0</ele><time>2026-04-28T09:06:14.999Z</time></trkpt><trkpt lat="34.02680595499382" lon="-5.027980929078253"><ele>400.0</ele><time>2026-04-28T09:06:15.999Z</time></trkpt><trkpt lat="34.02671503929897" lon="-5.027970755866871"><ele>400.0</ele><time>2026-04-28T09:06:16.999Z</time></trkpt><trkpt lat="34.02661523729505" lon="-5.027962458937792"><ele>400.0</ele><time>2026-04-28T09:06:17.999Z</time></trkpt><trkpt lat="34.02650831826041" lon="-5.027953955867079"><ele>399.75</ele><time>2026-04-28T09:06:18.999Z</time></trkpt><trkpt lat="34.02639551355264" lon="-5.027937377327578"><ele>399.5</ele><time>2026-04-28T09:06:19.999Z</time></trkpt><trkpt lat="34.026278849814844" lon="-5.027921888908276"><ele>399.25</ele><time>2026-04-28T09:06:20.999Z</time></trkpt><trkpt lat="34.02616262716022" lon="-5.027907733505139"><ele>399.0</ele><time>2026-04-28T09:06:21.999Z</time></trkpt><trkpt lat="34.02603805331397" lon="-5.027889396168059"><ele>399.0</ele><time>2026-04-28T09:06:22.999Z</time></trkpt><trkpt lat="34.025910761248156" lon="-5.027870334641606"><ele>399.0</ele><time>2026-04-28T09:06:23.999Z</time></trkpt><trkpt lat="34.02578108688671" lon="-5.027845548396467"><ele>399.0</ele><time>2026-04-28T09:06:25Z</time></trkpt><trkpt lat="34.025653963259494" lon="-5.027820933417283"><ele>399.0</ele><time>2026-04-28T09:06:26Z</time></trkpt><trkpt lat="34.02552991253565" lon="-5.027792460390332"><ele>398.5</ele><time>2026-04-28T09:06:27Z</time></trkpt><trkpt lat="34.025409902098374" lon="-5.027766426066965"><ele>398.0</ele><time>2026-04-28T09:06:28Z</time></trkpt><trkpt lat="34.02529876865566" lon="-5.02773795289817"><ele>397.5</ele><time>2026-04-28T09:06:29Z</time></trkpt><trkpt lat="34.02519116139748" lon="-5.027708801793552"><ele>397.0</ele><time>2026-04-28T09:06:30Z</time></trkpt><trkpt lat="34.02508225601374" lon="-5.027680175295114"><ele>397.75</ele><time>2026-04-28T09:06:31Z</time></trkpt><trkpt lat="34.02497049055745" lon="-5.027648766145567"><ele>398.5</ele><time>2026-04-28T09:06:32Z</time></trkpt><trkpt lat="34.024856607671985" lon="-5.0276171894106225"><ele>399.25</ele><time>2026-04-28T09:06:33Z</time></trkpt><trkpt lat="34.02474758101328" lon="-5.027589296977736"><ele>400.0</ele><time>2026-04-28T09:06:34Z</time></trkpt><trkpt lat="34.02464177334403" lon="-5.0275601296892"><ele>400.0</ele><time>2026-04-28T09:06:35Z</time></trkpt><trkpt lat="34.024540036005625" lon="-5.0275298689127315"><ele>400.0</ele><time>2026-04-28T09:06:36Z</time></trkpt><trkpt lat="34.0244384992875" lon="-5.027498916920621"><ele>400.0</ele><time>2026-04-28T09:06:37Z</time></trkpt><trkpt lat="34.02433408677638" lon="-5.027465355592164"><ele>400.0</ele><time>2026-04-28T09:06:38Z</time></trkpt><trkpt lat="34.02422513819391" lon="-5.027436657714189"><ele>400.0</ele><time>2026-04-28T09:06:39Z</time></trkpt><trkpt lat="34.02411189109623" lon="-5.027408233223287"><ele>401.25</ele><time>2026-04-28T09:06:40Z</time></trkpt><trkpt lat="34.023995107436704" lon="-5.027380958246745"><ele>402.5</ele><time>2026-04-28T09:06:41Z</time></trkpt><trkpt lat="34.02387668374751" lon="-5.0273589359766655"><ele>403.75</ele><time>2026-04-28T09:06:42Z</time></trkpt><trkpt lat="34.02375747836931" lon="-5.027333662378841"><ele>405.0</ele><time>2026-04-28T09:06:43Z</time></trkpt><trkpt lat="34.02363580053627" lon="-5.027309106021849"><ele>405.0</ele><time>2026-04-28T09:06:44Z</time></trkpt><trkpt lat="34.023512920751706" lon="-5.0272883585366985"><ele>405.0</ele><time>2026-04-28T09:06:45Z</time></trkpt><trkpt lat="34.023385993597415" lon="-5.02726972153645"><ele>405.0</ele><time>2026-04-28T09:06:46Z</time></trkpt><trkpt lat="34.02325868003765" lon="-5.027247987784835"><ele>405.0</ele><time>2026-04-28T09:06:47Z</time></trkpt><trkpt lat="34.023131667517454" lon="-5.027221522304798"><ele>404.5</ele><time>2026-04-28T09:06:48Z</time></trkpt><trkpt lat="34.023009555305784" lon="-5.027190910023775"><ele>404.0</ele><time>2026-04-28T09:06:49Z</time></trkpt><trkpt lat="34.022891824098195" lon="-5.027152086500183"><ele>403.5</ele><time>2026-04-28T09:06:50Z</time></trkpt><trkpt lat="34.022781375789364" lon="-5.0270988566423895"><ele>403.0</ele><time>2026-04-28T09:06:51Z</time></trkpt><trkpt lat="34.02267281373539" lon="-5.027031288756273"><ele>403.0</ele><time>2026-04-28T09:06:52Z</time></trkpt><trkpt lat="34.02256872442929" lon="-5.026955452399575"><ele>403.0</ele><time>2026-04-28T09:06:53Z</time></trkpt><trkpt lat="34.022465653353144" lon="-5.026871993898266"><ele>403.0</ele><time>2026-04-28T09:06:54Z</time></trkpt><trkpt lat="34.02236493812547" lon="-5.026780922082488"><ele>403.0</ele><time>2026-04-28T09:06:55Z</time></trkpt><trkpt lat="34.0222663011762" lon="-5.0266844199358385"><ele>403.75</ele><time>2026-04-28T09:06:56Z</time></trkpt><trkpt lat="34.02216276148279" lon="-5.026588635182641"><ele>404.5</ele><time>2026-04-28T09:06:57Z</time></trkpt><trkpt lat="34.02206011648027" lon="-5.026491787943109"><ele>405.25</ele><time>2026-04-28T09:06:58Z</time></trkpt><trkpt lat="34.021957750634506" lon="-5.026392520169121"><ele>406.0</ele><time>2026-04-28T09:06:59Z</time></trkpt><trkpt lat="34.02186307593722" lon="-5.026288409264849"><ele>406.0</ele><time>2026-04-28T09:07:00Z</time></trkpt><trkpt lat="34.02177098067357" lon="-5.026185717658598"><ele>406.0</ele><time>2026-04-28T09:07:01Z</time></trkpt><trkpt lat="34.02168368946549" lon="-5.026079625331637"><ele>406.0</ele><time>2026-04-28T09:07:02Z</time></trkpt><trkpt lat="34.02159565661854" lon="-5.025968490331538"><ele>406.0</ele><time>2026-04-28T09:07:03Z</time></trkpt><trkpt lat="34.02151633539656" lon="-5.025858415536834"><ele>406.75</ele><time>2026-04-28T09:07:04Z</time></trkpt><trkpt lat="34.021433471635014" lon="-5.0257426243915475"><ele>407.5</ele><time>2026-04-28T09:07:05Z</time></trkpt><trkpt lat="34.02135114210906" lon="-5.025626783937674"><ele>408.25</ele><time>2026-04-28T09:07:06Z</time></trkpt><trkpt lat="34.02126440623348" lon="-5.025509877316492"><ele>409.0</ele><time>2026-04-28T09:07:07Z</time></trkpt><trkpt lat="34.02116911659195" lon="-5.025388554151527"><ele>409.0</ele><time>2026-04-28T09:07:08Z</time></trkpt><trkpt lat="34.021070474684535" lon="-5.0252685129826915"><ele>409.0</ele><time>2026-04-28T09:07:09Z</time></trkpt><trkpt lat="34.02097751823806" lon="-5.025144147998569"><ele>409.0</ele><time>2026-04-28T09:07:10Z</time></trkpt><trkpt lat="34.02088120331872" lon="-5.025032975468105"><ele>409.0</ele><time>2026-04-28T09:07:11Z</time></trkpt><trkpt lat="34.0207910874489" lon="-5.024930877477184"><ele>409.0</ele><time>2026-04-28T09:07:12Z</time></trkpt><trkpt lat="34.020711477702825" lon="-5.024832919675538"><ele>409.0</ele><time>2026-04-28T09:07:13Z</time></trkpt><trkpt lat="34.02063830931275" lon="-5.024745312421897"><ele>409.0</ele><time>2026-04-28T09:07:14Z</time></trkpt><trkpt lat="34.020572535041616" lon="-5.024667343027101"><ele>409.0</ele><time>2026-04-28T09:07:15Z</time></trkpt><trkpt lat="34.02050901769372" lon="-5.024597744343059"><ele>409.0</ele><time>2026-04-28T09:07:16Z</time></trkpt><trkpt lat="34.02044631014655" lon="-5.024533577102559"><ele>409.0</ele><time>2026-04-28T09:07:17Z</time></trkpt><trkpt lat="34.02039343268963" lon="-5.024475690617311"><ele>409.0</ele><time>2026-04-28T09:07:18Z</time></trkpt><trkpt lat="34.02031080526326" lon="-5.024395736028555"><ele>409.0</ele><time>2026-04-28T09:07:20Z</time></trkpt><trkpt lat="34.02022772309816" lon="-5.024314915808444"><ele>409.0</ele><time>2026-04-28T09:07:22Z</time></trkpt><trkpt lat="34.02013977936352" lon="-5.02423438866471"><ele>409.0</ele><time>2026-04-28T09:07:24Z</time></trkpt><trkpt lat="34.02009543072583" lon="-5.0241803964504745"><ele>409.1666666666667</ele><time>2026-04-28T09:07:25Z</time></trkpt><trkpt lat="34.02005686400404" lon="-5.0241117245888365"><ele>409.33333333333337</ele><time>2026-04-28T09:07:26Z</time></trkpt><trkpt lat="34.020019273432744" lon="-5.024035976943286"><ele>409.5</ele><time>2026-04-28T09:07:27Z</time></trkpt><trkpt lat="34.01998369477876" lon="-5.023957045727627"><ele>409.66666666666663</ele><time>2026-04-28T09:07:27.999Z</time></trkpt><trkpt lat="34.019940644785294" lon="-5.023870599059608"><ele>409.8333333333333</ele><time>2026-04-28T09:07:28.999Z</time></trkpt><trkpt lat="34.01987615189303" lon="-5.023786912969422"><ele>410.0</ele><time>2026-04-28T09:07:29.999Z</time></trkpt><trkpt lat="34.01981420647002" lon="-5.023699202442203"><ele>410.0</ele><time>2026-04-28T09:07:30.999Z</time></trkpt><trkpt lat="34.01975512070068" lon="-5.023607793207991"><ele>410.0</ele><time>2026-04-28T09:07:31.999Z</time></trkpt><trkpt lat="34.01969248858972" lon="-5.023515338231292"><ele>410.0</ele><time>2026-04-28T09:07:32.999Z</time></trkpt><trkpt lat="34.01963412376993" lon="-5.023424337082514"><ele>410.0</ele><time>2026-04-28T09:07:33.999Z</time></trkpt><trkpt lat="34.01957982361337" lon="-5.0233385185813875"><ele>410.0</ele><time>2026-04-28T09:07:34.999Z</time></trkpt><trkpt lat="34.01952792684927" lon="-5.023255716030326"><ele>410.8333333333333</ele><time>2026-04-28T09:07:35.999Z</time></trkpt><trkpt lat="34.01947964222694" lon="-5.0231721805316"><ele>411.66666666666663</ele><time>2026-04-28T09:07:36.999Z</time></trkpt><trkpt lat="34.019425766927945" lon="-5.0230895440450976"><ele>412.5</ele><time>2026-04-28T09:07:37.999Z</time></trkpt><trkpt lat="34.019374350734665" lon="-5.023007988481547"><ele>413.33333333333337</ele><time>2026-04-28T09:07:38.999Z</time></trkpt><trkpt lat="34.01932544251742" lon="-5.022924168476398"><ele>414.1666666666667</ele><time>2026-04-28T09:07:39.999Z</time></trkpt><trkpt lat="34.019272524967356" lon="-5.022844590991003"><ele>415.0</ele><time>2026-04-28T09:07:40.999Z</time></trkpt><trkpt lat="34.019215054426745" lon="-5.022754911975497"><ele>415.0</ele><time>2026-04-28T09:07:41.999Z</time></trkpt><trkpt lat="34.01915288635441" lon="-5.022661598866612"><ele>415.0</ele><time>2026-04-28T09:07:42.999Z</time></trkpt><trkpt lat="34.01908397558848" lon="-5.022559813685064"><ele>415.0</ele><time>2026-04-28T09:07:43.999Z</time></trkpt><trkpt lat="34.01900989010272" lon="-5.022458239599384"><ele>415.0</ele><time>2026-04-28T09:07:44.999Z</time></trkpt><trkpt lat="34.018935180684515" lon="-5.022347699144929"><ele>415.0</ele><time>2026-04-28T09:07:45.999Z</time></trkpt><trkpt lat="34.01887014192596" lon="-5.0222286014498065"><ele>415.75</ele><time>2026-04-28T09:07:46.999Z</time></trkpt><trkpt lat="34.01881049784902" lon="-5.022104626186975"><ele>416.5</ele><time>2026-04-28T09:07:47.999Z</time></trkpt><trkpt lat="34.01875681014732" lon="-5.021980130148545"><ele>417.25</ele><time>2026-04-28T09:07:48.999Z</time></trkpt><trkpt lat="34.01871028207066" lon="-5.021854347486467"><ele>418.0</ele><time>2026-04-28T09:07:49.999Z</time></trkpt><trkpt lat="34.018664069285975" lon="-5.021728165063277"><ele>420.0</ele><time>2026-04-28T09:07:50.999Z</time></trkpt><trkpt lat="34.0186180870047" lon="-5.021602300306199"><ele>422.0</ele><time>2026-04-28T09:07:51.999Z</time></trkpt><trkpt lat="34.018572758615015" lon="-5.021472751377079"><ele>424.0</ele><time>2026-04-28T09:07:52.999Z</time></trkpt><trkpt lat="34.01852538134681" lon="-5.021346467651738"><ele>426.0</ele><time>2026-04-28T09:07:53.999Z</time></trkpt><trkpt lat="34.01847940349919" lon="-5.0212277133395835"><ele>426.0</ele><time>2026-04-28T09:07:54.999Z</time></trkpt><trkpt lat="34.01843191731126" lon="-5.021116455005513"><ele>426.0</ele><time>2026-04-28T09:07:55.999Z</time></trkpt><trkpt lat="34.018383961595156" lon="-5.021010348339763"><ele>426.0</ele><time>2026-04-28T09:07:56.999Z</time></trkpt><trkpt lat="34.018337645102235" lon="-5.020904920002194"><ele>426.0</ele><time>2026-04-28T09:07:57.999Z</time></trkpt><trkpt lat="34.018290943982606" lon="-5.020796500137433"><ele>426.0</ele><time>2026-04-28T09:07:58.999Z</time></trkpt><trkpt lat="34.018241911956196" lon="-5.020689488075766"><ele>424.6</ele><time>2026-04-28T09:07:59.999Z</time></trkpt><trkpt lat="34.018191543993844" lon="-5.020587082647497"><ele>423.20000000000005</ele><time>2026-04-28T09:08:00.999Z</time></trkpt><trkpt lat="34.018142910760005" lon="-5.020488371492173"><ele>421.79999999999995</ele><time>2026-04-28T09:08:01.999Z</time></trkpt><trkpt lat="34.01809315413998" lon="-5.020391438765732"><ele>420.4</ele><time>2026-04-28T09:08:02.999Z</time></trkpt><trkpt lat="34.01804239057316" lon="-5.020299188344008"><ele>419.0</ele><time>2026-04-28T09:08:03.999Z</time></trkpt><trkpt lat="34.0179954590592" lon="-5.020214192006612"><ele>418.99999999999994</ele><time>2026-04-28T09:08:04.999Z</time></trkpt><trkpt lat="34.017953061618115" lon="-5.020135609339646"><ele>419.0</ele><time>2026-04-28T09:08:05.999Z</time></trkpt><trkpt lat="34.01791457966239" lon="-5.020064760862824"><ele>419.0</ele><time>2026-04-28T09:08:06.999Z</time></trkpt><trkpt lat="34.01787477459229" lon="-5.019995619193431"><ele>419.0</ele><time>2026-04-28T09:08:07.999Z</time></trkpt><trkpt lat="34.017832927709065" lon="-5.019931703627187"><ele>418.99999999999994</ele><time>2026-04-28T09:08:08.999Z</time></trkpt><trkpt lat="34.0177634907855" lon="-5.019829013815147"><ele>419.0</ele><time>2026-04-28T09:08:10.999Z</time></trkpt><trkpt lat="34.017720557329135" lon="-5.019763441446689"><ele>418.8333333333333</ele><time>2026-04-28T09:08:12.999Z</time></trkpt><trkpt lat="34.01768468927268" lon="-5.019668223812739"><ele>418.66666666666663</ele><time>2026-04-28T09:08:32Z</time></trkpt><trkpt lat="34.017641553842566" lon="-5.019590968913051"><ele>418.5</ele><time>2026-04-28T09:08:34Z</time></trkpt><trkpt lat="34.01758843384989" lon="-5.019495832642998"><ele>418.33333333333337</ele><time>2026-04-28T09:08:36Z</time></trkpt><trkpt lat="34.01754988352878" lon="-5.019434217872063"><ele>418.1666666666667</ele><time>2026-04-28T09:08:37Z</time></trkpt><trkpt lat="34.01747734247785" lon="-5.019315563172983"><ele>418.0</ele><time>2026-04-28T09:08:39Z</time></trkpt><trkpt lat="34.017418318615825" lon="-5.019202650409879"><ele>419.79999999999995</ele><time>2026-04-28T09:08:41Z</time></trkpt><trkpt lat="34.01725745029207" lon="-5.019111804512275"><ele>421.6</ele><time>2026-04-28T09:08:43Z</time></trkpt><trkpt lat="34.017183310524175" lon="-5.019121271466048"><ele>423.40000000000003</ele><time>2026-04-28T09:08:44Z</time></trkpt><trkpt lat="34.01709991257598" lon="-5.019089784646738"><ele>425.20000000000005</ele><time>2026-04-28T09:08:45Z</time></trkpt><trkpt lat="34.017012040745314" lon="-5.019058219761638"><ele>427.0</ele><time>2026-04-28T09:08:46Z</time></trkpt><trkpt lat="34.016931186471545" lon="-5.019000006521169"><ele>427.0</ele><time>2026-04-28T09:08:47Z</time></trkpt><trkpt lat="34.0168128125475" lon="-5.019001058367222"><ele>427.0</ele><time>2026-04-28T09:08:48Z</time></trkpt><trkpt lat="34.016698169244556" lon="-5.019002929161677"><ele>427.0</ele><time>2026-04-28T09:08:49Z</time></trkpt><trkpt lat="34.01657612466031" lon="-5.019029190320687"><ele>427.0</ele><time>2026-04-28T09:08:50Z</time></trkpt><trkpt lat="34.01644842138624" lon="-5.019067503554788"><ele>424.75</ele><time>2026-04-28T09:08:51Z</time></trkpt><trkpt lat="34.016309491801664" lon="-5.0191053374499095"><ele>422.5</ele><time>2026-04-28T09:08:52Z</time></trkpt><trkpt lat="34.016168546305835" lon="-5.019137587265441"><ele>420.25</ele><time>2026-04-28T09:08:53Z</time></trkpt><trkpt lat="34.0160239787698" lon="-5.019175647568495"><ele>418.0</ele><time>2026-04-28T09:08:54Z</time></trkpt><trkpt lat="34.01586855761154" lon="-5.019217773506522"><ele>416.6666666666667</ele><time>2026-04-28T09:08:55Z</time></trkpt><trkpt lat="34.015712439571246" lon="-5.019259210723714"><ele>415.33333333333337</ele><time>2026-04-28T09:08:56Z</time></trkpt><trkpt lat="34.015552203684095" lon="-5.019300232387844"><ele>414.0</ele><time>2026-04-28T09:08:57Z</time></trkpt><trkpt lat="34.015396619870884" lon="-5.0193407825655765"><ele>414.0</ele><time>2026-04-28T09:08:58Z</time></trkpt><trkpt lat="34.01524168627314" lon="-5.019381106401513"><ele>414.0</ele><time>2026-04-28T09:08:59Z</time></trkpt><trkpt lat="34.015081241377715" lon="-5.019421217137427"><ele>414.0</ele><time>2026-04-28T09:09:00Z</time></trkpt><trkpt lat="34.01492271131284" lon="-5.019470123048709"><ele>415.0</ele><time>2026-04-28T09:09:01Z</time></trkpt><trkpt lat="34.01475740354147" lon="-5.0195176334639795"><ele>416.0</ele><time>2026-04-28T09:09:02Z</time></trkpt><trkpt lat="34.01459149652537" lon="-5.019568565185207"><ele>417.0</ele><time>2026-04-28T09:09:03Z</time></trkpt><trkpt lat="34.0144286759744" lon="-5.019617545731042"><ele>417.0</ele><time>2026-04-28T09:09:04Z</time></trkpt><trkpt lat="34.014266078535876" lon="-5.019666983874592"><ele>417.0</ele><time>2026-04-28T09:09:05Z</time></trkpt><trkpt lat="34.014101818300645" lon="-5.019715297591001"><ele>417.0</ele><time>2026-04-28T09:09:06Z</time></trkpt><trkpt lat="34.01393861370004" lon="-5.019763598333121"><ele>417.66666666666663</ele><time>2026-04-28T09:09:07Z</time></trkpt><trkpt lat="34.013774920295134" lon="-5.0198078124603605"><ele>418.3333333333333</ele><time>2026-04-28T09:09:08Z</time></trkpt><trkpt lat="34.013610846184974" lon="-5.019853953750246"><ele>419.0</ele><time>2026-04-28T09:09:09Z</time></trkpt><trkpt lat="34.01344650062337" lon="-5.019904666103809"><ele>421.0</ele><time>2026-04-28T09:09:10Z</time></trkpt><trkpt lat="34.01328419277779" lon="-5.0199563706684085"><ele>423.0</ele><time>2026-04-28T09:09:11Z</time></trkpt><trkpt lat="34.013122674961046" lon="-5.020006509151281"><ele>425.0</ele><time>2026-04-28T09:09:12Z</time></trkpt><trkpt lat="34.01296633688587" lon="-5.02005202567746"><ele>425.0</ele><time>2026-04-28T09:09:13Z</time></trkpt><trkpt lat="34.012817118811476" lon="-5.020099816832343"><ele>425.0</ele><time>2026-04-28T09:09:14Z</time></trkpt><trkpt lat="34.01267066347397" lon="-5.020152065649377"><ele>425.0</ele><time>2026-04-28T09:09:15Z</time></trkpt><trkpt lat="34.01252350562874" lon="-5.020204154867688"><ele>425.0</ele><time>2026-04-28T09:09:16Z</time></trkpt><trkpt lat="34.0123788550917" lon="-5.02025260595386"><ele>425.0</ele><time>2026-04-28T09:09:17Z</time></trkpt><trkpt lat="34.01223782544056" lon="-5.020304292642719"><ele>425.0</ele><time>2026-04-28T09:09:18Z</time></trkpt><trkpt lat="34.01210399912855" lon="-5.020350923743749"><ele>425.0</ele><time>2026-04-28T09:09:19Z</time></trkpt><trkpt lat="34.01197778658193" lon="-5.020391300232005"><ele>425.0</ele><time>2026-04-28T09:09:20Z</time></trkpt><trkpt lat="34.01186244587305" lon="-5.020424422659875"><ele>425.0</ele><time>2026-04-28T09:09:21Z</time></trkpt><trkpt lat="34.01175773375667" lon="-5.0204580570870245"><ele>425.0</ele><time>2026-04-28T09:09:22Z</time></trkpt><trkpt lat="34.01166528169715" lon="-5.020490068315577"><ele>425.0</ele><time>2026-04-28T09:09:23Z</time></trkpt><trkpt lat="34.01158288524233" lon="-5.02051646930817"><ele>425.0</ele><time>2026-04-28T09:09:24Z</time></trkpt><trkpt lat="34.01151510001445" lon="-5.020539290340486"><ele>425.49999999999994</ele><time>2026-04-28T09:09:25Z</time></trkpt><trkpt lat="34.011411147581164" lon="-5.0205728069460624"><ele>426.0</ele><time>2026-04-28T09:09:27Z</time></trkpt><trkpt lat="34.011350117544" lon="-5.020591890891282"><ele>426.5</ele><time>2026-04-28T09:09:29Z</time></trkpt><trkpt lat="34.0112655081165" lon="-5.020631527647333"><ele>427.0</ele><time>2026-04-28T09:10:12.999Z</time></trkpt><trkpt lat="34.01119307378797" lon="-5.02065545122863"><ele>427.49999999999994</ele><time>2026-04-28T09:10:14.999Z</time></trkpt><trkpt lat="34.01111302873117" lon="-5.020727308153287"><ele>428.0</ele><time>2026-04-28T09:10:16.999Z</time></trkpt><trkpt lat="34.01100146750384" lon="-5.02079282419945"><ele>428.0</ele><time>2026-04-28T09:10:18.999Z</time></trkpt><trkpt lat="34.010880142461396" lon="-5.0208102247384"><ele>427.99999999999994</ele><time>2026-04-28T09:10:20.999Z</time></trkpt><trkpt lat="34.010807377751085" lon="-5.020802363798152"><ele>427.99999999999994</ele><time>2026-04-28T09:10:21.999Z</time></trkpt><trkpt lat="34.01072278326613" lon="-5.020799062653749"><ele>428.0</ele><time>2026-04-28T09:10:22.999Z</time></trkpt><trkpt lat="34.01063782009593" lon="-5.020806585324545"><ele>428.0</ele><time>2026-04-28T09:10:23.999Z</time></trkpt><trkpt lat="34.01055298241368" lon="-5.02082810868761"><ele>426.79999999999995</ele><time>2026-04-28T09:10:24.999Z</time></trkpt><trkpt lat="34.01045746262057" lon="-5.020857642696563"><ele>425.59999999999997</ele><time>2026-04-28T09:10:25.999Z</time></trkpt><trkpt lat="34.01035133005097" lon="-5.020886532012941"><ele>424.4</ele><time>2026-04-28T09:10:26.999Z</time></trkpt><trkpt lat="34.01023760959074" lon="-5.020919691475587"><ele>423.20000000000005</ele><time>2026-04-28T09:10:27.999Z</time></trkpt><trkpt lat="34.010120253172836" lon="-5.020956221357393"><ele>422.0</ele><time>2026-04-28T09:10:28.999Z</time></trkpt><trkpt lat="34.00999960554264" lon="-5.020994138381633"><ele>422.5</ele><time>2026-04-28T09:10:30Z</time></trkpt><trkpt lat="34.00988194814744" lon="-5.021034912552162"><ele>423.0</ele><time>2026-04-28T09:10:31Z</time></trkpt><trkpt lat="34.00976078845825" lon="-5.021076727024338"><ele>423.5</ele><time>2026-04-28T09:10:32Z</time></trkpt><trkpt lat="34.00963274084958" lon="-5.021113323482495"><ele>424.0</ele><time>2026-04-28T09:10:33Z</time></trkpt><trkpt lat="34.00950116213664" lon="-5.021153651899782"><ele>424.0</ele><time>2026-04-28T09:10:34Z</time></trkpt><trkpt lat="34.00936679180118" lon="-5.021199247207504"><ele>424.0</ele><time>2026-04-28T09:10:35Z</time></trkpt><trkpt lat="34.00922778705147" lon="-5.021241869182342"><ele>424.0</ele><time>2026-04-28T09:10:36Z</time></trkpt><trkpt lat="34.00908986118401" lon="-5.021282616689505"><ele>424.0</ele><time>2026-04-28T09:10:37Z</time></trkpt><trkpt lat="34.00895482075795" lon="-5.02132674937596"><ele>423.5</ele><time>2026-04-28T09:10:38Z</time></trkpt><trkpt lat="34.008819601896505" lon="-5.021371365512191"><ele>423.0</ele><time>2026-04-28T09:10:39Z</time></trkpt><trkpt lat="34.008682619422494" lon="-5.02141345565886"><ele>422.5</ele><time>2026-04-28T09:10:40Z</time></trkpt><trkpt lat="34.00854482728246" lon="-5.0214538261140556"><ele>422.0</ele><time>2026-04-28T09:10:41Z</time></trkpt><trkpt lat="34.008405841701176" lon="-5.021497474391369"><ele>423.25</ele><time>2026-04-28T09:10:42Z</time></trkpt><trkpt lat="34.008267251321215" lon="-5.021543479551557"><ele>424.5</ele><time>2026-04-28T09:10:43Z</time></trkpt><trkpt lat="34.0081278396203" lon="-5.021590150797686"><ele>425.75</ele><time>2026-04-28T09:10:44Z</time></trkpt><trkpt lat="34.00798740271514" lon="-5.021635186509675"><ele>427.0</ele><time>2026-04-28T09:10:45Z</time></trkpt><trkpt lat="34.00784465455359" lon="-5.021680325735744"><ele>427.75</ele><time>2026-04-28T09:10:46Z</time></trkpt><trkpt lat="34.00770215400238" lon="-5.021725063658583"><ele>428.5</ele><time>2026-04-28T09:10:47Z</time></trkpt><trkpt lat="34.00756016667856" lon="-5.021771252120873"><ele>429.25</ele><time>2026-04-28T09:10:48Z</time></trkpt><trkpt lat="34.00741904317895" lon="-5.021816191668458"><ele>430.0</ele><time>2026-04-28T09:10:49Z</time></trkpt><trkpt lat="34.00727990087429" lon="-5.021860150176455"><ele>430.0</ele><time>2026-04-28T09:10:50Z</time></trkpt><trkpt lat="34.00714101175185" lon="-5.021903754842713"><ele>430.0</ele><time>2026-04-28T09:10:51Z</time></trkpt><trkpt lat="34.00700066971019" lon="-5.0219455528261605"><ele>430.0</ele><time>2026-04-28T09:10:52Z</time></trkpt><trkpt lat="34.00685940755684" lon="-5.021987899678072"><ele>430.0</ele><time>2026-04-28T09:10:53Z</time></trkpt><trkpt lat="34.00672003486573" lon="-5.022032661346261"><ele>429.75</ele><time>2026-04-28T09:10:54Z</time></trkpt><trkpt lat="34.00658104781007" lon="-5.022079142315899"><ele>429.5</ele><time>2026-04-28T09:10:55Z</time></trkpt><trkpt lat="34.00644255497712" lon="-5.022124185214006"><ele>429.25</ele><time>2026-04-28T09:10:56Z</time></trkpt><trkpt lat="34.006307953174556" lon="-5.022168335944614"><ele>429.0</ele><time>2026-04-28T09:10:57Z</time></trkpt><trkpt lat="34.00617743303048" lon="-5.022212224800513"><ele>429.0</ele><time>2026-04-28T09:10:58Z</time></trkpt><trkpt lat="34.006049663129" lon="-5.022252213144003"><ele>429.0</ele><time>2026-04-28T09:10:59Z</time></trkpt><trkpt lat="34.005922957829775" lon="-5.02229113667973"><ele>429.0</ele><time>2026-04-28T09:11:00Z</time></trkpt><trkpt lat="34.00579423689892" lon="-5.022331138045111"><ele>429.0</ele><time>2026-04-28T09:11:01Z</time></trkpt><trkpt lat="34.00566521922404" lon="-5.0223704543905985"><ele>430.0</ele><time>2026-04-28T09:11:02Z</time></trkpt><trkpt lat="34.00553898800531" lon="-5.022408362080305"><ele>431.0</ele><time>2026-04-28T09:11:03Z</time></trkpt><trkpt lat="34.005413596570335" lon="-5.022444954541883"><ele>432.0</ele><time>2026-04-28T09:11:04Z</time></trkpt><trkpt lat="34.00529347574917" lon="-5.022480363670282"><ele>433.0</ele><time>2026-04-28T09:11:05Z</time></trkpt><trkpt lat="34.00519004028254" lon="-5.022514092976443"><ele>433.00000000000006</ele><time>2026-04-28T09:11:06Z</time></trkpt><trkpt lat="34.005097053315026" lon="-5.022545485073779"><ele>433.0</ele><time>2026-04-28T09:11:07Z</time></trkpt><trkpt lat="34.00501553809022" lon="-5.02257186354029"><ele>433.0</ele><time>2026-04-28T09:11:08Z</time></trkpt><trkpt lat="34.00494253333885" lon="-5.0226094267421715"><ele>433.0</ele><time>2026-04-28T09:11:09Z</time></trkpt><trkpt lat="34.00487391661796" lon="-5.022665226217332"><ele>433.00000000000006</ele><time>2026-04-28T09:11:10Z</time></trkpt><trkpt lat="34.004820124872666" lon="-5.022749911885176"><ele>433.0</ele><time>2026-04-28T09:11:11Z</time></trkpt><trkpt lat="34.00474174254919" lon="-5.022807008415104"><ele>432.79999999999995</ele><time>2026-04-28T09:11:12Z</time></trkpt><trkpt lat="34.004651363864184" lon="-5.022831096384649"><ele>432.59999999999997</ele><time>2026-04-28T09:11:13Z</time></trkpt><trkpt lat="34.00455035351449" lon="-5.0227884249065795"><ele>432.40000000000003</ele><time>2026-04-28T09:11:14Z</time></trkpt><trkpt lat="34.004444856522476" lon="-5.022780597820998"><ele>432.20000000000005</ele><time>2026-04-28T09:11:15Z</time></trkpt><trkpt lat="34.004343572920156" lon="-5.022790974579846"><ele>432.0</ele><time>2026-04-28T09:11:16Z</time></trkpt><trkpt lat="34.00422884175477" lon="-5.022822065142992"><ele>432.0</ele><time>2026-04-28T09:11:17Z</time></trkpt><trkpt lat="34.00410772280778" lon="-5.022865710067035"><ele>432.0</ele><time>2026-04-28T09:11:18Z</time></trkpt><trkpt lat="34.003977681145685" lon="-5.0229093038011845"><ele>432.0</ele><time>2026-04-28T09:11:19Z</time></trkpt><trkpt lat="34.00384694410947" lon="-5.022954490588111"><ele>432.0</ele><time>2026-04-28T09:11:20Z</time></trkpt><trkpt lat="34.003699744297904" lon="-5.023005192409111"><ele>432.0</ele><time>2026-04-28T09:11:21Z</time></trkpt><trkpt lat="34.00354486859956" lon="-5.023058147439109"><ele>432.0</ele><time>2026-04-28T09:11:22Z</time></trkpt><trkpt lat="34.00338209765378" lon="-5.023110129188883"><ele>432.0</ele><time>2026-04-28T09:11:23Z</time></trkpt><trkpt lat="34.00320979583004" lon="-5.023164364496294"><ele>431.33333333333337</ele><time>2026-04-28T09:11:24Z</time></trkpt><trkpt lat="34.00303072762551" lon="-5.023220647626432"><ele>430.6666666666667</ele><time>2026-04-28T09:11:25Z</time></trkpt><trkpt lat="34.002849473220266" lon="-5.023278061844632"><ele>430.0</ele><time>2026-04-28T09:11:26Z</time></trkpt><trkpt lat="34.002669283469416" lon="-5.023333373249164"><ele>430.33333333333337</ele><time>2026-04-28T09:11:26.999Z</time></trkpt><trkpt lat="34.00247752997985" lon="-5.023392376762371"><ele>430.66666666666663</ele><time>2026-04-28T09:11:27.999Z</time></trkpt><trkpt lat="34.00228220933764" lon="-5.0234537334986475"><ele>431.0</ele><time>2026-04-28T09:11:28.999Z</time></trkpt><trkpt lat="34.00208513515382" lon="-5.02351253436874"><ele>431.0</ele><time>2026-04-28T09:11:29.999Z</time></trkpt><trkpt lat="34.001886230429335" lon="-5.023563613880864"><ele>431.0</ele><time>2026-04-28T09:11:30.999Z</time></trkpt><trkpt lat="34.00168837523827" lon="-5.0236103797900045"><ele>431.0</ele><time>2026-04-28T09:11:31.999Z</time></trkpt><trkpt lat="34.00150544459326" lon="-5.02365764902123"><ele>431.66666666666663</ele><time>2026-04-28T09:11:32.999Z</time></trkpt><trkpt lat="34.001333159935925" lon="-5.023709290617189"><ele>432.33333333333337</ele><time>2026-04-28T09:11:33.999Z</time></trkpt><trkpt lat="34.001159776989944" lon="-5.023760647488986"><ele>433.0</ele><time>2026-04-28T09:11:34.999Z</time></trkpt><trkpt lat="34.000985943384364" lon="-5.023812604695345"><ele>433.33333333333337</ele><time>2026-04-28T09:11:35.999Z</time></trkpt><trkpt lat="34.00080529218718" lon="-5.02386637172345"><ele>433.66666666666663</ele><time>2026-04-28T09:11:36.999Z</time></trkpt><trkpt lat="34.000619306915084" lon="-5.023923727304558"><ele>434.0</ele><time>2026-04-28T09:11:37.999Z</time></trkpt><trkpt lat="34.000429252940876" lon="-5.023984678504243"><ele>434.0</ele><time>2026-04-28T09:11:38.999Z</time></trkpt><trkpt lat="34.00024071227814" lon="-5.0240449617832255"><ele>434.0</ele><time>2026-04-28T09:11:39.999Z</time></trkpt><trkpt lat="34.00005515939546" lon="-5.024103191960569"><ele>434.0</ele><time>2026-04-28T09:11:40.999Z</time></trkpt><trkpt lat="33.99986943522322" lon="-5.024162109967686"><ele>435.3333333333333</ele><time>2026-04-28T09:11:41.999Z</time></trkpt><trkpt lat="33.99968523158659" lon="-5.024221395625552"><ele>436.66666666666663</ele><time>2026-04-28T09:11:42.999Z</time></trkpt><trkpt lat="33.99950346828397" lon="-5.024280789513976"><ele>438.0</ele><time>2026-04-28T09:11:43.999Z</time></trkpt><trkpt lat="33.99932121104941" lon="-5.024340465527414"><ele>440.0</ele><time>2026-04-28T09:11:44.999Z</time></trkpt><trkpt lat="33.9991390250143" lon="-5.024400777415265"><ele>442.0</ele><time>2026-04-28T09:11:45.999Z</time></trkpt><trkpt lat="33.9989571341595" lon="-5.0244618693509775"><ele>444.0</ele><time>2026-04-28T09:11:46.999Z</time></trkpt><trkpt lat="33.99877492056734" lon="-5.024524266892778"><ele>444.0</ele><time>2026-04-28T09:11:47.999Z</time></trkpt><trkpt lat="33.99859170961691" lon="-5.024584532171638"><ele>444.0</ele><time>2026-04-28T09:11:48.999Z</time></trkpt><trkpt lat="33.9984071917012" lon="-5.024640359819744"><ele>444.0</ele><time>2026-04-28T09:11:49.999Z</time></trkpt><trkpt lat="33.998221813372325" lon="-5.024695297532758"><ele>444.33333333333337</ele><time>2026-04-28T09:11:50.999Z</time></trkpt><trkpt lat="33.99803451866284" lon="-5.024740301914648"><ele>444.6666666666667</ele><time>2026-04-28T09:11:51.999Z</time></trkpt><trkpt lat="33.99784630919496" lon="-5.024771996640873"><ele>445.0</ele><time>2026-04-28T09:11:52.999Z</time></trkpt><trkpt lat="33.99765718563397" lon="-5.024790874633256"><ele>443.6666666666667</ele><time>2026-04-28T09:11:53.999Z</time></trkpt><trkpt lat="33.99746616316829" lon="-5.024798692710438"><ele>442.33333333333337</ele><time>2026-04-28T09:11:54.999Z</time></trkpt><trkpt lat="33.99727553841301" lon="-5.024791412238605"><ele>441.0</ele><time>2026-04-28T09:11:55.999Z</time></trkpt><trkpt lat="33.997084065416914" lon="-5.024773057304556"><ele>441.0</ele><time>2026-04-28T09:11:56.999Z</time></trkpt><trkpt lat="33.9968919705777" lon="-5.024746911769154"><ele>441.0</ele><time>2026-04-28T09:11:57.999Z</time></trkpt><trkpt lat="33.996700243130825" lon="-5.024713278636931"><ele>441.0</ele><time>2026-04-28T09:11:58.999Z</time></trkpt><trkpt lat="33.99650863618491" lon="-5.024677671977829"><ele>441.33333333333337</ele><time>2026-04-28T09:11:59.999Z</time></trkpt><trkpt lat="33.99631631662147" lon="-5.024644870270199"><ele>441.6666666666667</ele><time>2026-04-28T09:12:00.999Z</time></trkpt><trkpt lat="33.996124175262835" lon="-5.024612956736213"><ele>442.0</ele><time>2026-04-28T09:12:01.999Z</time></trkpt><trkpt lat="33.99593262621456" lon="-5.02457666788015"><ele>442.6666666666667</ele><time>2026-04-28T09:12:02.999Z</time></trkpt><trkpt lat="33.995740342654564" lon="-5.024540578643745"><ele>443.33333333333337</ele><time>2026-04-28T09:12:03.999Z</time></trkpt><trkpt lat="33.99554928496284" lon="-5.024501155731818"><ele>444.0</ele><time>2026-04-28T09:12:04.999Z</time></trkpt><trkpt lat="33.9953575632405" lon="-5.024460390252783"><ele>444.0</ele><time>2026-04-28T09:12:05.999Z</time></trkpt><trkpt lat="33.99516540528696" lon="-5.024421416232455"><ele>444.0</ele><time>2026-04-28T09:12:06.999Z</time></trkpt><trkpt lat="33.99497235467231" lon="-5.024385306095263"><ele>444.0</ele><time>2026-04-28T09:12:07.999Z</time></trkpt><trkpt lat="33.99478051171015" lon="-5.024349629773642"><ele>444.33333333333337</ele><time>2026-04-28T09:12:08.999Z</time></trkpt><trkpt lat="33.9945876711752" lon="-5.024313073026921"><ele>444.6666666666667</ele><time>2026-04-28T09:12:09.999Z</time></trkpt><trkpt lat="33.994394713171616" lon="-5.024277870985879"><ele>445.0</ele><time>2026-04-28T09:12:10.999Z</time></trkpt><trkpt lat="33.9942017756758" lon="-5.024244124651792"><ele>445.0</ele><time>2026-04-28T09:12:11.999Z</time></trkpt><trkpt lat="33.99400937806013" lon="-5.024210091284121"><ele>445.0</ele><time>2026-04-28T09:12:12.999Z</time></trkpt><trkpt lat="33.99381738475608" lon="-5.024173961091053"><ele>445.0</ele><time>2026-04-28T09:12:13.999Z</time></trkpt><trkpt lat="33.99362523120137" lon="-5.024138773917594"><ele>445.0</ele><time>2026-04-28T09:12:14.999Z</time></trkpt><trkpt lat="33.99343285827856" lon="-5.024104198768476"><ele>445.0</ele><time>2026-04-28T09:12:15.999Z</time></trkpt><trkpt lat="33.993240042254854" lon="-5.024073601025954"><ele>445.0</ele><time>2026-04-28T09:12:16.999Z</time></trkpt><trkpt lat="33.99304721589066" lon="-5.02404330529957"><ele>445.0</ele><time>2026-04-28T09:12:17.999Z</time></trkpt><trkpt lat="33.992853764229395" lon="-5.024016877884637"><ele>445.0</ele><time>2026-04-28T09:12:18.999Z</time></trkpt><trkpt lat="33.9926604068398" lon="-5.0239927385985315"><ele>445.0</ele><time>2026-04-28T09:12:19.999Z</time></trkpt><trkpt lat="33.992467297738685" lon="-5.02397264091059"><ele>444.6666666666667</ele><time>2026-04-28T09:12:20.999Z</time></trkpt><trkpt lat="33.99227501010557" lon="-5.023960200120785"><ele>444.33333333333337</ele><time>2026-04-28T09:12:21.999Z</time></trkpt><trkpt lat="33.99208331493542" lon="-5.023957374738973"><ele>444.0</ele><time>2026-04-28T09:12:22.999Z</time></trkpt><trkpt lat="33.991893147846675" lon="-5.0239642027063764"><ele>444.0</ele><time>2026-04-28T09:12:23.999Z</time></trkpt><trkpt lat="33.991702850285456" lon="-5.023976600536659"><ele>444.0</ele><time>2026-04-28T09:12:24.999Z</time></trkpt><trkpt lat="33.99151351350062" lon="-5.023993819308005"><ele>444.0</ele><time>2026-04-28T09:12:25.999Z</time></trkpt><trkpt lat="33.991324365185854" lon="-5.024021835987138"><ele>444.66666666666663</ele><time>2026-04-28T09:12:26.999Z</time></trkpt><trkpt lat="33.991137225601946" lon="-5.024057545977844"><ele>445.3333333333333</ele><time>2026-04-28T09:12:27.999Z</time></trkpt><trkpt lat="33.99095011480457" lon="-5.0240980251975245"><ele>446.0</ele><time>2026-04-28T09:12:28.999Z</time></trkpt><trkpt lat="33.99076333251318" lon="-5.024147674934558"><ele>446.0</ele><time>2026-04-28T09:12:29.999Z</time></trkpt><trkpt lat="33.99057654436235" lon="-5.0242019607854385"><ele>446.0</ele><time>2026-04-28T09:12:30.999Z</time></trkpt><trkpt lat="33.99039165037818" lon="-5.024262265992524"><ele>446.0</ele><time>2026-04-28T09:12:31.999Z</time></trkpt><trkpt lat="33.99020823002892" lon="-5.024327559186243"><ele>446.0</ele><time>2026-04-28T09:12:32.999Z</time></trkpt><trkpt lat="33.99002539758729" lon="-5.024400318542515"><ele>446.0</ele><time>2026-04-28T09:12:33.999Z</time></trkpt><trkpt lat="33.98984477415789" lon="-5.024479506615142"><ele>446.0</ele><time>2026-04-28T09:12:34.999Z</time></trkpt><trkpt lat="33.98966587109356" lon="-5.024564492089328"><ele>446.0</ele><time>2026-04-28T09:12:36Z</time></trkpt><trkpt lat="33.98948685730549" lon="-5.024651261238194"><ele>446.0</ele><time>2026-04-28T09:12:37Z</time></trkpt><trkpt lat="33.989308441334444" lon="-5.0247386019809674"><ele>446.0</ele><time>2026-04-28T09:12:38Z</time></trkpt><trkpt lat="33.989129953837306" lon="-5.024827576101525"><ele>446.0</ele><time>2026-04-28T09:12:39Z</time></trkpt><trkpt lat="33.98895222321744" lon="-5.0249173065524"><ele>446.0</ele><time>2026-04-28T09:12:40Z</time></trkpt><trkpt lat="33.98877383424309" lon="-5.025004077889827"><ele>446.0</ele><time>2026-04-28T09:12:41Z</time></trkpt><trkpt lat="33.988596273739496" lon="-5.025087676944946"><ele>446.0</ele><time>2026-04-28T09:12:42Z</time></trkpt><trkpt lat="33.98842333541853" lon="-5.0251679040959205"><ele>446.0</ele><time>2026-04-28T09:12:43Z</time></trkpt><trkpt lat="33.98826601457448" lon="-5.025240865273468"><ele>446.0</ele><time>2026-04-28T09:12:44Z</time></trkpt><trkpt lat="33.98811106346909" lon="-5.025314847412658"><ele>446.5</ele><time>2026-04-28T09:12:45Z</time></trkpt><trkpt lat="33.987963355402" lon="-5.025382918316006"><ele>447.0</ele><time>2026-04-28T09:12:46Z</time></trkpt><trkpt lat="33.98782986884184" lon="-5.0254488874857115"><ele>447.5</ele><time>2026-04-28T09:12:47Z</time></trkpt><trkpt lat="33.98771408026798" lon="-5.025507942982298"><ele>448.0</ele><time>2026-04-28T09:12:48Z</time></trkpt><trkpt lat="33.987615720083674" lon="-5.025561001932653"><ele>448.0</ele><time>2026-04-28T09:12:49Z</time></trkpt><trkpt lat="33.987533433688576" lon="-5.025614399496209"><ele>448.0</ele><time>2026-04-28T09:12:50Z</time></trkpt><trkpt lat="33.987469153733905" lon="-5.025694317171423"><ele>448.0</ele><time>2026-04-28T09:12:51Z</time></trkpt><trkpt lat="33.98736084409004" lon="-5.025777167098869"><ele>448.0</ele><time>2026-04-28T09:12:52Z</time></trkpt><trkpt lat="33.98720087665881" lon="-5.02583271513242"><ele>448.5</ele><time>2026-04-28T09:12:54Z</time></trkpt><trkpt lat="33.98707955129632" lon="-5.0258626711434315"><ele>449.0</ele><time>2026-04-28T09:12:55Z</time></trkpt><trkpt lat="33.986945357935404" lon="-5.025903021457599"><ele>449.5</ele><time>2026-04-28T09:12:56Z</time></trkpt><trkpt lat="33.98681370378086" lon="-5.025963121889935"><ele>450.0</ele><time>2026-04-28T09:12:57Z</time></trkpt><trkpt lat="33.98666712433915" lon="-5.026037734466217"><ele>451.33333333333337</ele><time>2026-04-28T09:12:58Z</time></trkpt><trkpt lat="33.98650731135908" lon="-5.026113115794054"><ele>452.6666666666667</ele><time>2026-04-28T09:12:59Z</time></trkpt><trkpt lat="33.98634411099375" lon="-5.026185680387305"><ele>454.0</ele><time>2026-04-28T09:13:00Z</time></trkpt><trkpt lat="33.98618046203179" lon="-5.026267286133498"><ele>454.0</ele><time>2026-04-28T09:13:01Z</time></trkpt><trkpt lat="33.98600897090881" lon="-5.026349156435307"><ele>454.0</ele><time>2026-04-28T09:13:02Z</time></trkpt><trkpt lat="33.98584238025635" lon="-5.026429828362245"><ele>454.0</ele><time>2026-04-28T09:13:03Z</time></trkpt><trkpt lat="33.98567228519928" lon="-5.026511159925418"><ele>454.33333333333337</ele><time>2026-04-28T09:13:04Z</time></trkpt><trkpt lat="33.985487773573595" lon="-5.026595029040218"><ele>454.66666666666663</ele><time>2026-04-28T09:13:05Z</time></trkpt><trkpt lat="33.985309659327974" lon="-5.026676507902355"><ele>455.0</ele><time>2026-04-28T09:13:06Z</time></trkpt><trkpt lat="33.985130079822056" lon="-5.0267574702062445"><ele>457.3333333333333</ele><time>2026-04-28T09:13:07Z</time></trkpt><trkpt lat="33.98494738244983" lon="-5.026837657781748"><ele>459.66666666666663</ele><time>2026-04-28T09:13:08Z</time></trkpt><trkpt lat="33.98476453558116" lon="-5.026928182918432"><ele>462.0</ele><time>2026-04-28T09:13:09Z</time></trkpt><trkpt lat="33.9845843637311" lon="-5.027015466287075"><ele>462.0</ele><time>2026-04-28T09:13:10Z</time></trkpt><trkpt lat="33.9844033969053" lon="-5.027103828623562"><ele>462.0</ele><time>2026-04-28T09:13:11Z</time></trkpt><trkpt lat="33.98421950344061" lon="-5.027190067356432"><ele>462.0</ele><time>2026-04-28T09:13:12Z</time></trkpt><trkpt lat="33.98404563961575" lon="-5.0272769314472505"><ele>463.0</ele><time>2026-04-28T09:13:13Z</time></trkpt><trkpt lat="33.98386637150471" lon="-5.027364006811407"><ele>464.0</ele><time>2026-04-28T09:13:14Z</time></trkpt><trkpt lat="33.98368660909258" lon="-5.027447854051393"><ele>465.0</ele><time>2026-04-28T09:13:15Z</time></trkpt><trkpt lat="33.98350968947504" lon="-5.027538194168847"><ele>464.33333333333337</ele><time>2026-04-28T09:13:16Z</time></trkpt><trkpt lat="33.9833309133423" lon="-5.027628537203339"><ele>463.6666666666667</ele><time>2026-04-28T09:13:17Z</time></trkpt><trkpt lat="33.98315159754603" lon="-5.0277162446143855"><ele>463.0</ele><time>2026-04-28T09:13:18Z</time></trkpt><trkpt lat="33.982971083923864" lon="-5.027802179191689"><ele>463.0</ele><time>2026-04-28T09:13:19Z</time></trkpt><trkpt lat="33.98279112659033" lon="-5.027888037436683"><ele>463.0</ele><time>2026-04-28T09:13:20Z</time></trkpt><trkpt lat="33.98261101385989" lon="-5.027975478397581"><ele>463.0</ele><time>2026-04-28T09:13:21Z</time></trkpt><trkpt lat="33.98243051910576" lon="-5.028061404941972"><ele>464.6666666666667</ele><time>2026-04-28T09:13:22Z</time></trkpt><trkpt lat="33.98225017546317" lon="-5.028147268283302"><ele>466.33333333333337</ele><time>2026-04-28T09:13:23Z</time></trkpt><trkpt lat="33.982072544183374" lon="-5.028235147727874"><ele>468.0</ele><time>2026-04-28T09:13:24Z</time></trkpt><trkpt lat="33.98189506029711" lon="-5.0283233710722115"><ele>468.0</ele><time>2026-04-28T09:13:25Z</time></trkpt><trkpt lat="33.98171676859633" lon="-5.028410536778305"><ele>468.0</ele><time>2026-04-28T09:13:26Z</time></trkpt><trkpt lat="33.98153798771667" lon="-5.028496921500415"><ele>468.0</ele><time>2026-04-28T09:13:27Z</time></trkpt><trkpt lat="33.981360393194855" lon="-5.028583611881067"><ele>468.0</ele><time>2026-04-28T09:13:28Z</time></trkpt><trkpt lat="33.981180895493104" lon="-5.028671799890981"><ele>468.0</ele><time>2026-04-28T09:13:29Z</time></trkpt><trkpt lat="33.98100336961106" lon="-5.028757951884447"><ele>468.0</ele><time>2026-04-28T09:13:30Z</time></trkpt><trkpt lat="33.98082366248197" lon="-5.02884583303844"><ele>468.0</ele><time>2026-04-28T09:13:31Z</time></trkpt><trkpt lat="33.98064319533265" lon="-5.028933365155913"><ele>468.0</ele><time>2026-04-28T09:13:32Z</time></trkpt><trkpt lat="33.980465479062936" lon="-5.02901941647476"><ele>468.0</ele><time>2026-04-28T09:13:33Z</time></trkpt><trkpt lat="33.98028626607404" lon="-5.0291097797894775"><ele>468.33333333333337</ele><time>2026-04-28T09:13:34Z</time></trkpt><trkpt lat="33.98010804668656" lon="-5.029199088970991"><ele>468.6666666666667</ele><time>2026-04-28T09:13:35Z</time></trkpt><trkpt lat="33.979928509278345" lon="-5.02929133496348"><ele>469.0</ele><time>2026-04-28T09:13:36Z</time></trkpt><trkpt lat="33.979750046346346" lon="-5.029382519736252"><ele>470.33333333333337</ele><time>2026-04-28T09:13:37Z</time></trkpt><trkpt lat="33.979574008046654" lon="-5.0294714434044465"><ele>471.66666666666663</ele><time>2026-04-28T09:13:38Z</time></trkpt><trkpt lat="33.97939460366125" lon="-5.029562783813782"><ele>473.0</ele><time>2026-04-28T09:13:39Z</time></trkpt><trkpt lat="33.97921668719187" lon="-5.029651586227377"><ele>472.66666666666663</ele><time>2026-04-28T09:13:40Z</time></trkpt><trkpt lat="33.97903838154379" lon="-5.029736505815278"><ele>472.33333333333337</ele><time>2026-04-28T09:13:41Z</time></trkpt><trkpt lat="33.97885765901212" lon="-5.029817914931155"><ele>472.0</ele><time>2026-04-28T09:13:42Z</time></trkpt><trkpt lat="33.97867719513148" lon="-5.029894584089741"><ele>472.0</ele><time>2026-04-28T09:13:43Z</time></trkpt><trkpt lat="33.978495187650054" lon="-5.0299698925177205"><ele>472.0</ele><time>2026-04-28T09:13:44Z</time></trkpt><trkpt lat="33.97831431114058" lon="-5.030042792383288"><ele>472.0</ele><time>2026-04-28T09:13:45Z</time></trkpt><trkpt lat="33.97813086255506" lon="-5.030112611443534"><ele>473.33333333333337</ele><time>2026-04-28T09:13:45.999Z</time></trkpt><trkpt lat="33.977947845676816" lon="-5.030180677706847"><ele>474.66666666666663</ele><time>2026-04-28T09:13:46.999Z</time></trkpt><trkpt lat="33.97776385905625" lon="-5.0302504263278305"><ele>476.0</ele><time>2026-04-28T09:13:47.999Z</time></trkpt><trkpt lat="33.97757962307254" lon="-5.030317769585485"><ele>475.66666666666663</ele><time>2026-04-28T09:13:48.999Z</time></trkpt><trkpt lat="33.97739383528221" lon="-5.030381015971952"><ele>475.33333333333337</ele><time>2026-04-28T09:13:49.999Z</time></trkpt><trkpt lat="33.97720789172241" lon="-5.030441353742321"><ele>475.0</ele><time>2026-04-28T09:13:50.999Z</time></trkpt><trkpt lat="33.97701919689224" lon="-5.03049856009557"><ele>475.0</ele><time>2026-04-28T09:13:51.999Z</time></trkpt><trkpt lat="33.976833084435995" lon="-5.030553397516171"><ele>475.0</ele><time>2026-04-28T09:13:52.999Z</time></trkpt><trkpt lat="33.97664436292961" lon="-5.030605392835612"><ele>475.0</ele><time>2026-04-28T09:13:53.999Z</time></trkpt><trkpt lat="33.976455393210415" lon="-5.030654713281656"><ele>475.6666666666667</ele><time>2026-04-28T09:13:54.999Z</time></trkpt><trkpt lat="33.97626535217997" lon="-5.03070061738681"><ele>476.33333333333337</ele><time>2026-04-28T09:13:55.999Z</time></trkpt><trkpt lat="33.976075113419384" lon="-5.030745571316507"><ele>477.0</ele><time>2026-04-28T09:13:56.999Z</time></trkpt><trkpt lat="33.97589790496726" lon="-5.030787182512009"><ele>478.0</ele><time>2026-04-28T09:13:57.999Z</time></trkpt><trkpt lat="33.975734312425935" lon="-5.030824876831922"><ele>479.0</ele><time>2026-04-28T09:13:58.999Z</time></trkpt><trkpt lat="33.9755783039127" lon="-5.030858633822671"><ele>480.0</ele><time>2026-04-28T09:13:59.999Z</time></trkpt><trkpt lat="33.97543523243173" lon="-5.030896640916546"><ele>480.0</ele><time>2026-04-28T09:14:00.999Z</time></trkpt><trkpt lat="33.97530537067489" lon="-5.030941270450884"><ele>480.0</ele><time>2026-04-28T09:14:01.999Z</time></trkpt><trkpt lat="33.97520341706062" lon="-5.030998654056187"><ele>480.0</ele><time>2026-04-28T09:14:02.999Z</time></trkpt><trkpt lat="33.975109689578744" lon="-5.031044895624961"><ele>480.0</ele><time>2026-04-28T09:14:03.999Z</time></trkpt><trkpt lat="33.975005446641525" lon="-5.031054662931025"><ele>480.25</ele><time>2026-04-28T09:14:04.999Z</time></trkpt><trkpt lat="33.974888919340145" lon="-5.0310298139484715"><ele>480.5</ele><time>2026-04-28T09:14:05.999Z</time></trkpt><trkpt lat="33.97476258505631" lon="-5.031002050061219"><ele>480.75</ele><time>2026-04-28T09:14:06.999Z</time></trkpt><trkpt lat="33.97462404591211" lon="-5.031001211670182"><ele>481.0</ele><time>2026-04-28T09:14:07.999Z</time></trkpt><trkpt lat="33.9744739948542" lon="-5.0310194172103255"><ele>481.0</ele><time>2026-04-28T09:14:08.999Z</time></trkpt><trkpt lat="33.97431256963647" lon="-5.031039306538775"><ele>481.0</ele><time>2026-04-28T09:14:09.999Z</time></trkpt><trkpt lat="33.97414049235241" lon="-5.031054589423078"><ele>481.0</ele><time>2026-04-28T09:14:10.999Z</time></trkpt><trkpt lat="33.973964176839466" lon="-5.0310696980743455"><ele>481.6666666666667</ele><time>2026-04-28T09:14:11.999Z</time></trkpt><trkpt lat="33.97377795326182" lon="-5.031086189060955"><ele>482.33333333333337</ele><time>2026-04-28T09:14:12.999Z</time></trkpt><trkpt lat="33.973584680618465" lon="-5.03110025910032"><ele>483.0</ele><time>2026-04-28T09:14:13.999Z</time></trkpt><trkpt lat="33.9733907018522" lon="-5.031113557645505"><ele>483.0</ele><time>2026-04-28T09:14:14.999Z</time></trkpt><trkpt lat="33.973196898832825" lon="-5.031126467001546"><ele>483.0</ele><time>2026-04-28T09:14:15.999Z</time></trkpt><trkpt lat="33.973000258669686" lon="-5.031138132715161"><ele>483.0</ele><time>2026-04-28T09:14:16.999Z</time></trkpt><trkpt lat="33.972802678043294" lon="-5.031145735789348"><ele>483.0</ele><time>2026-04-28T09:14:17.999Z</time></trkpt><trkpt lat="33.97260644595226" lon="-5.031152116190897"><ele>483.0</ele><time>2026-04-28T09:14:18.999Z</time></trkpt><trkpt lat="33.97240888806639" lon="-5.031164649622236"><ele>483.0</ele><time>2026-04-28T09:14:19.999Z</time></trkpt><trkpt lat="33.97221388323515" lon="-5.031178581604065"><ele>482.66666666666663</ele><time>2026-04-28T09:14:20.999Z</time></trkpt><trkpt lat="33.97201671032785" lon="-5.031190079740119"><ele>482.3333333333333</ele><time>2026-04-28T09:14:21.999Z</time></trkpt><trkpt lat="33.971822828645024" lon="-5.031201398654483"><ele>482.0</ele><time>2026-04-28T09:14:22.999Z</time></trkpt><trkpt lat="33.97162824371372" lon="-5.031211828267066"><ele>482.0</ele><time>2026-04-28T09:14:23.999Z</time></trkpt><trkpt lat="33.97143402592974" lon="-5.031221655792777"><ele>482.0</ele><time>2026-04-28T09:14:24.999Z</time></trkpt><trkpt lat="33.97124136471971" lon="-5.031230698029384"><ele>482.0</ele><time>2026-04-28T09:14:25.999Z</time></trkpt><trkpt lat="33.97104865636791" lon="-5.031239019248094"><ele>483.0</ele><time>2026-04-28T09:14:26.999Z</time></trkpt><trkpt lat="33.970856301411594" lon="-5.031248622966669"><ele>484.0</ele><time>2026-04-28T09:14:27.999Z</time></trkpt><trkpt lat="33.97066537138984" lon="-5.031260221893936"><ele>485.0</ele><time>2026-04-28T09:14:28.999Z</time></trkpt><trkpt lat="33.9704721645242" lon="-5.031270954768853"><ele>485.0</ele><time>2026-04-28T09:14:29.999Z</time></trkpt><trkpt lat="33.97028045479588" lon="-5.031282621514696"><ele>485.0</ele><time>2026-04-28T09:14:30.999Z</time></trkpt><trkpt lat="33.9700872945622" lon="-5.0312937865191545"><ele>485.0</ele><time>2026-04-28T09:14:31.999Z</time></trkpt><trkpt lat="33.969896111557055" lon="-5.031304447893737"><ele>485.66666666666663</ele><time>2026-04-28T09:14:32.999Z</time></trkpt><trkpt lat="33.96970539231522" lon="-5.031315579929979"><ele>486.33333333333337</ele><time>2026-04-28T09:14:33.999Z</time></trkpt><trkpt lat="33.96951248623611" lon="-5.031328405733042"><ele>487.0</ele><time>2026-04-28T09:14:34.999Z</time></trkpt><trkpt lat="33.96931982532907" lon="-5.031338824512257"><ele>487.0</ele><time>2026-04-28T09:14:35.999Z</time></trkpt><trkpt lat="33.96912842677016" lon="-5.031348943911695"><ele>487.0</ele><time>2026-04-28T09:14:36.999Z</time></trkpt><trkpt lat="33.96893360840687" lon="-5.031359265004714"><ele>487.0</ele><time>2026-04-28T09:14:37.999Z</time></trkpt><trkpt lat="33.96874135485908" lon="-5.031370882490532"><ele>487.0</ele><time>2026-04-28T09:14:38.999Z</time></trkpt><trkpt lat="33.968549141493014" lon="-5.031382174046885"><ele>487.0</ele><time>2026-04-28T09:14:39.999Z</time></trkpt><trkpt lat="33.96835641464786" lon="-5.031394056395407"><ele>487.0</ele><time>2026-04-28T09:14:40.999Z</time></trkpt><trkpt lat="33.968161921959215" lon="-5.031407744590973"><ele>486.6666666666667</ele><time>2026-04-28T09:14:42Z</time></trkpt><trkpt lat="33.96797077615715" lon="-5.031420530691685"><ele>486.33333333333337</ele><time>2026-04-28T09:14:43Z</time></trkpt><trkpt lat="33.967777340363746" lon="-5.031434312268179"><ele>486.0</ele><time>2026-04-28T09:14:44Z</time></trkpt><trkpt lat="33.96758397590596" lon="-5.031446468641914"><ele>486.33333333333337</ele><time>2026-04-28T09:14:45Z</time></trkpt><trkpt lat="33.96739469045068" lon="-5.031454763863521"><ele>486.6666666666667</ele><time>2026-04-28T09:14:46Z</time></trkpt><trkpt lat="33.96720130158857" lon="-5.031462866829817"><ele>487.0</ele><time>2026-04-28T09:14:47Z</time></trkpt><trkpt lat="33.96701138376111" lon="-5.031473656223223"><ele>487.0</ele><time>2026-04-28T09:14:48Z</time></trkpt><trkpt lat="33.96681844074534" lon="-5.031485931542777"><ele>487.0</ele><time>2026-04-28T09:14:49Z</time></trkpt><trkpt lat="33.96662625747792" lon="-5.031500076549366"><ele>487.0</ele><time>2026-04-28T09:14:50Z</time></trkpt><trkpt lat="33.96643459415702" lon="-5.03151562005089"><ele>487.6666666666667</ele><time>2026-04-28T09:14:51Z</time></trkpt><trkpt lat="33.966242860824295" lon="-5.031532552552977"><ele>488.33333333333337</ele><time>2026-04-28T09:14:52Z</time></trkpt><trkpt lat="33.966054052381764" lon="-5.031552754139106"><ele>489.0</ele><time>2026-04-28T09:14:53Z</time></trkpt><trkpt lat="33.96586737707742" lon="-5.031569411806968"><ele>489.33333333333337</ele><time>2026-04-28T09:14:54Z</time></trkpt><trkpt lat="33.96568294335962" lon="-5.031582950213921"><ele>489.6666666666667</ele><time>2026-04-28T09:14:55Z</time></trkpt><trkpt lat="33.96549705186149" lon="-5.031599243356835"><ele>490.0</ele><time>2026-04-28T09:14:56Z</time></trkpt><trkpt lat="33.965312995977726" lon="-5.031616366859281"><ele>490.0</ele><time>2026-04-28T09:14:57Z</time></trkpt><trkpt lat="33.965132251815476" lon="-5.031637827822647"><ele>490.0</ele><time>2026-04-28T09:14:58Z</time></trkpt><trkpt lat="33.9649467002695" lon="-5.031661801267417"><ele>490.0</ele><time>2026-04-28T09:14:59Z</time></trkpt><trkpt lat="33.964756308333115" lon="-5.031688748823672"><ele>490.33333333333337</ele><time>2026-04-28T09:15:00Z</time></trkpt><trkpt lat="33.96456747069081" lon="-5.031715243690725"><ele>490.66666666666663</ele><time>2026-04-28T09:15:01Z</time></trkpt><trkpt lat="33.96437369675536" lon="-5.031744924787475"><ele>491.0</ele><time>2026-04-28T09:15:02Z</time></trkpt><trkpt lat="33.964175779388164" lon="-5.031775454617579"><ele>492.0</ele><time>2026-04-28T09:15:03Z</time></trkpt><trkpt lat="33.96397512342133" lon="-5.031806716697148"><ele>493.0</ele><time>2026-04-28T09:15:04Z</time></trkpt><trkpt lat="33.963774656453495" lon="-5.031837339820298"><ele>494.0</ele><time>2026-04-28T09:15:05Z</time></trkpt><trkpt lat="33.96357036722416" lon="-5.0318692936816936"><ele>494.0</ele><time>2026-04-28T09:15:06Z</time></trkpt><trkpt lat="33.96336528356094" lon="-5.031901980134919"><ele>494.0</ele><time>2026-04-28T09:15:07Z</time></trkpt><trkpt lat="33.963163080113304" lon="-5.031934107055262"><ele>494.0</ele><time>2026-04-28T09:15:08Z</time></trkpt><trkpt lat="33.962966235826904" lon="-5.031966628339643"><ele>494.66666666666663</ele><time>2026-04-28T09:15:09Z</time></trkpt><trkpt lat="33.9627666561872" lon="-5.032002001426429"><ele>495.33333333333337</ele><time>2026-04-28T09:15:10Z</time></trkpt><trkpt lat="33.962571445118414" lon="-5.032036866439121"><ele>496.0</ele><time>2026-04-28T09:15:11Z</time></trkpt><trkpt lat="33.96237906223904" lon="-5.032075493123046"><ele>496.0</ele><time>2026-04-28T09:15:12Z</time></trkpt><trkpt lat="33.96219209334455" lon="-5.0321135173070335"><ele>496.0</ele><time>2026-04-28T09:15:13Z</time></trkpt><trkpt lat="33.962011628729954" lon="-5.032150251473076"><ele>496.0</ele><time>2026-04-28T09:15:14Z</time></trkpt><trkpt lat="33.96183977385291" lon="-5.032182766327731"><ele>496.33333333333337</ele><time>2026-04-28T09:15:15Z</time></trkpt><trkpt lat="33.96167965420346" lon="-5.032209184361759"><ele>496.66666666666663</ele><time>2026-04-28T09:15:16Z</time></trkpt><trkpt lat="33.9615222897884" lon="-5.032236803582643"><ele>497.0</ele><time>2026-04-28T09:15:17Z</time></trkpt><trkpt lat="33.96138049972167" lon="-5.032263885274553"><ele>497.0</ele><time>2026-04-28T09:15:18Z</time></trkpt><trkpt lat="33.96126025416079" lon="-5.0322910567661205"><ele>497.00000000000006</ele><time>2026-04-28T09:15:19Z</time></trkpt><trkpt lat="33.96115881269391" lon="-5.0323278096253015"><ele>497.00000000000006</ele><time>2026-04-28T09:15:20Z</time></trkpt><trkpt lat="33.96106700714411" lon="-5.0323738536767175"><ele>497.0</ele><time>2026-04-28T09:15:21Z</time></trkpt><trkpt lat="33.96097915749888" lon="-5.032419507257705"><ele>497.0</ele><time>2026-04-28T09:15:22Z</time></trkpt><trkpt lat="33.96088555636115" lon="-5.032457626199124"><ele>497.40000000000003</ele><time>2026-04-28T09:15:23Z</time></trkpt><trkpt lat="33.960780492197536" lon="-5.032469354227255"><ele>497.80000000000007</ele><time>2026-04-28T09:15:24Z</time></trkpt><trkpt lat="33.96066909986892" lon="-5.032429259014672"><ele>498.2</ele><time>2026-04-28T09:15:25Z</time></trkpt><trkpt lat="33.960571031024784" lon="-5.032413306687868"><ele>498.6</ele><time>2026-04-28T09:15:26Z</time></trkpt><trkpt lat="33.960478764102426" lon="-5.032406012634031"><ele>499.0</ele><time>2026-04-28T09:15:27Z</time></trkpt><trkpt lat="33.96037510842426" lon="-5.032421300804712"><ele>499.0</ele><time>2026-04-28T09:15:28Z</time></trkpt><trkpt lat="33.96025551011758" lon="-5.032439131249297"><ele>499.0</ele><time>2026-04-28T09:15:29Z</time></trkpt><trkpt lat="33.96012436226459" lon="-5.032454956865565"><ele>499.0</ele><time>2026-04-28T09:15:30Z</time></trkpt><trkpt lat="33.95998641666772" lon="-5.0324778191720005"><ele>499.0</ele><time>2026-04-28T09:15:31Z</time></trkpt><trkpt lat="33.959851285305945" lon="-5.032504577055498"><ele>499.33333333333337</ele><time>2026-04-28T09:15:32Z</time></trkpt><trkpt lat="33.95970467687447" lon="-5.032533607849481"><ele>499.66666666666663</ele><time>2026-04-28T09:15:33Z</time></trkpt><trkpt lat="33.95954284062031" lon="-5.032567989322407"><ele>500.0</ele><time>2026-04-28T09:15:34Z</time></trkpt><trkpt lat="33.95937309453955" lon="-5.0326073549066495"><ele>500.66666666666663</ele><time>2026-04-28T09:15:35Z</time></trkpt><trkpt lat="33.959200664541534" lon="-5.0326507136648475"><ele>501.33333333333337</ele><time>2026-04-28T09:15:36Z</time></trkpt><trkpt lat="33.959029158225555" lon="-5.032702109148485"><ele>502.0</ele><time>2026-04-28T09:15:37Z</time></trkpt><trkpt lat="33.95886090552999" lon="-5.032763571158492"><ele>502.0</ele><time>2026-04-28T09:15:38Z</time></trkpt><trkpt lat="33.9586899998094" lon="-5.032834182928659"><ele>502.0</ele><time>2026-04-28T09:15:39Z</time></trkpt><trkpt lat="33.95852035178081" lon="-5.03291074188632"><ele>502.0</ele><time>2026-04-28T09:15:40Z</time></trkpt><trkpt lat="33.95835120908795" lon="-5.032995202497994"><ele>503.0</ele><time>2026-04-28T09:15:41Z</time></trkpt><trkpt lat="33.95818383347535" lon="-5.033085965153887"><ele>504.0</ele><time>2026-04-28T09:15:42Z</time></trkpt><trkpt lat="33.958018025256266" lon="-5.033181364099002"><ele>505.0</ele><time>2026-04-28T09:15:43Z</time></trkpt><trkpt lat="33.95785521420184" lon="-5.033278349581213"><ele>505.33333333333337</ele><time>2026-04-28T09:15:44Z</time></trkpt><trkpt lat="33.9576951104084" lon="-5.033379488783358"><ele>505.66666666666663</ele><time>2026-04-28T09:15:45Z</time></trkpt><trkpt lat="33.95753849508832" lon="-5.033484299484624"><ele>506.0</ele><time>2026-04-28T09:15:46Z</time></trkpt><trkpt lat="33.95738633215397" lon="-5.033590841205531"><ele>506.0</ele><time>2026-04-28T09:15:47Z</time></trkpt><trkpt lat="33.957238187411185" lon="-5.033699679071556"><ele>506.0</ele><time>2026-04-28T09:15:48Z</time></trkpt><trkpt lat="33.95709538410708" lon="-5.033809805326538"><ele>506.0</ele><time>2026-04-28T09:15:49Z</time></trkpt><trkpt lat="33.956955970147874" lon="-5.033923254811919"><ele>506.0</ele><time>2026-04-28T09:15:50Z</time></trkpt><trkpt lat="33.95681811020161" lon="-5.034037333952567"><ele>506.0</ele><time>2026-04-28T09:15:51Z</time></trkpt><trkpt lat="33.956683234011585" lon="-5.0341522682229884"><ele>506.0</ele><time>2026-04-28T09:15:52Z</time></trkpt><trkpt lat="33.95655080861055" lon="-5.034272789704745"><ele>507.66666666666663</ele><time>2026-04-28T09:15:53Z</time></trkpt><trkpt lat="33.95641491220046" lon="-5.0344015121700005"><ele>509.33333333333337</ele><time>2026-04-28T09:15:54Z</time></trkpt><trkpt lat="33.956282685961604" lon="-5.0345313222039785"><ele>511.0</ele><time>2026-04-28T09:15:55Z</time></trkpt><trkpt lat="33.95615818288204" lon="-5.034661419712999"><ele>511.0</ele><time>2026-04-28T09:15:56Z</time></trkpt><trkpt lat="33.95604707871242" lon="-5.034788826395339"><ele>511.0</ele><time>2026-04-28T09:15:57Z</time></trkpt><trkpt lat="33.955945528816486" lon="-5.034908828641391"><ele>511.0</ele><time>2026-04-28T09:15:58Z</time></trkpt><trkpt lat="33.95585291877662" lon="-5.035021970040095"><ele>511.0</ele><time>2026-04-28T09:15:59Z</time></trkpt><trkpt lat="33.9557696343952" lon="-5.035127685187383"><ele>512.0</ele><time>2026-04-28T09:16:00Z</time></trkpt><trkpt lat="33.95569517620112" lon="-5.0352259473378"><ele>513.0</ele><time>2026-04-28T09:16:01Z</time></trkpt><trkpt lat="33.95563970821437" lon="-5.035332611388297"><ele>514.0</ele><time>2026-04-28T09:16:02Z</time></trkpt><trkpt lat="33.95557696702618" lon="-5.035419411637704"><ele>515.0</ele><time>2026-04-28T09:16:02.999Z</time></trkpt><trkpt lat="33.9555212910079" lon="-5.035496594512592"><ele>516.0</ele><time>2026-04-28T09:16:03.999Z</time></trkpt><trkpt lat="33.955460573990685" lon="-5.035552465477298"><ele>516.0</ele><time>2026-04-28T09:16:04.999Z</time></trkpt><trkpt lat="33.95542090240773" lon="-5.035619554503204"><ele>516.0</ele><time>2026-04-28T09:16:05.999Z</time></trkpt><trkpt lat="33.95536917530731" lon="-5.035743132359462"><ele>516.0</ele><time>2026-04-28T09:16:07.999Z</time></trkpt><trkpt lat="33.955339842099285" lon="-5.035871728872173"><ele>516.0</ele><time>2026-04-28T09:16:09.999Z</time></trkpt><trkpt lat="33.95534539350397" lon="-5.03596934817366"><ele>516.0</ele><time>2026-04-28T09:16:10.999Z</time></trkpt><trkpt lat="33.955319426041406" lon="-5.036046921419106"><ele>516.0</ele><time>2026-04-28T09:16:11.999Z</time></trkpt><trkpt lat="33.95527666920595" lon="-5.036114914116346"><ele>515.6666666666666</ele><time>2026-04-28T09:16:12.999Z</time></trkpt><trkpt lat="33.955223291348084" lon="-5.0361681444578545"><ele>515.3333333333334</ele><time>2026-04-28T09:16:13.999Z</time></trkpt><trkpt lat="33.95516281547899" lon="-5.036195854916489"><ele>515.0</ele><time>2026-04-28T09:16:14.999Z</time></trkpt><trkpt lat="33.955095951550184" lon="-5.036202142431265"><ele>514.6666666666667</ele><time>2026-04-28T09:16:15.999Z</time></trkpt><trkpt lat="33.955021318855906" lon="-5.036196037578992"><ele>514.3333333333334</ele><time>2026-04-28T09:16:16.999Z</time></trkpt><trkpt lat="33.95493992082109" lon="-5.036202651899986"><ele>514.0</ele><time>2026-04-28T09:16:17.999Z</time></trkpt><trkpt lat="33.954850700546544" lon="-5.036234761612151"><ele>515.0</ele><time>2026-04-28T09:16:18.999Z</time></trkpt><trkpt lat="33.95477355014814" lon="-5.0362825379540075"><ele>516.0</ele><time>2026-04-28T09:16:19.999Z</time></trkpt><trkpt lat="33.95471535181079" lon="-5.036324846663554"><ele>517.0</ele><time>2026-04-28T09:16:20.999Z</time></trkpt><trkpt lat="33.954617228992795" lon="-5.036397672070482"><ele>518.0</ele><time>2026-04-28T09:16:22.999Z</time></trkpt><trkpt lat="33.95452087265723" lon="-5.0364695201966345"><ele>519.0</ele><time>2026-04-28T09:16:24.999Z</time></trkpt><trkpt lat="33.95442398644973" lon="-5.036549784577666"><ele>519.0</ele><time>2026-04-28T09:16:26.999Z</time></trkpt><trkpt lat="33.95433455819373" lon="-5.0366288315833465"><ele>519.0</ele><time>2026-04-28T09:16:28.999Z</time></trkpt><trkpt lat="33.95425194060914" lon="-5.036705825086733"><ele>519.0</ele><time>2026-04-28T09:16:30.999Z</time></trkpt><trkpt lat="33.95414911846968" lon="-5.036791759387638"><ele>519.0</ele><time>2026-04-28T09:16:32.999Z</time></trkpt><trkpt lat="33.954091052368696" lon="-5.036836702578458"><ele>519.0</ele><time>2026-04-28T09:16:33.999Z</time></trkpt><trkpt lat="33.95402964031855" lon="-5.036883785167217"><ele>519.0</ele><time>2026-04-28T09:16:34.999Z</time></trkpt><trkpt lat="33.95396730352863" lon="-5.036930490421692"><ele>519.0</ele><time>2026-04-28T09:16:35.999Z</time></trkpt><trkpt lat="33.9539055166946" lon="-5.036976783828566"><ele>519.0</ele><time>2026-04-28T09:16:36.999Z</time></trkpt><trkpt lat="33.95384560677907" lon="-5.037024508177174"><ele>519.0</ele><time>2026-04-28T09:16:37.999Z</time></trkpt><trkpt lat="33.953788036575276" lon="-5.0370708158218"><ele>519.0</ele><time>2026-04-28T09:16:38.999Z</time></trkpt><trkpt lat="33.95369033742152" lon="-5.037148416298587"><ele>519.0</ele><time>2026-04-28T09:16:40.999Z</time></trkpt><trkpt lat="33.95361391033677" lon="-5.037211708860606"><ele>519.0</ele><time>2026-04-28T09:16:42.999Z</time></trkpt><trkpt lat="33.953553620402616" lon="-5.037258242216863"><ele>519.0</ele><time>2026-04-28T09:16:44.999Z</time></trkpt><trkpt lat="33.95348884668834" lon="-5.0373098666544385"><ele>519.0</ele><time>2026-04-28T09:16:48Z</time></trkpt><trkpt lat="33.95342181470563" lon="-5.037359166626495"><ele>519.0</ele><time>2026-04-28T09:16:52Z</time></trkpt><trkpt lat="33.95335692778707" lon="-5.037410717794831"><ele>519.0</ele><time>2026-04-28T09:17:15Z</time></trkpt><trkpt lat="33.95329492583339" lon="-5.037464912517816"><ele>519.0</ele><time>2026-04-28T09:17:17Z</time></trkpt><trkpt lat="33.95319963006458" lon="-5.037578884161189"><ele>519.0</ele><time>2026-04-28T09:17:19Z</time></trkpt><trkpt lat="33.95314530045894" lon="-5.03765462659288"><ele>519.0</ele><time>2026-04-28T09:17:20Z</time></trkpt><trkpt lat="33.953088786015954" lon="-5.037731286722661"><ele>519.0</ele><time>2026-04-28T09:17:21Z</time></trkpt><trkpt lat="33.95303093307871" lon="-5.03780271915179"><ele>519.0</ele><time>2026-04-28T09:17:22Z</time></trkpt><trkpt lat="33.952971226275174" lon="-5.037867500102737"><ele>519.0</ele><time>2026-04-28T09:17:23Z</time></trkpt><trkpt lat="33.952913627174745" lon="-5.03791914166829"><ele>519.0</ele><time>2026-04-28T09:17:24Z</time></trkpt><trkpt lat="33.95285618298055" lon="-5.03795976587654"><ele>519.0</ele><time>2026-04-28T09:17:25Z</time></trkpt><trkpt lat="33.95278454761432" lon="-5.037950588731848"><ele>519.0</ele><time>2026-04-28T09:17:26Z</time></trkpt><trkpt lat="33.95271838076836" lon="-5.037988235320226"><ele>519.0</ele><time>2026-04-28T09:25:08.999Z</time></trkpt><trkpt lat="33.95262110308699" lon="-5.038021072088441"><ele>519.0</ele><time>2026-04-28T09:25:10.999Z</time></trkpt><trkpt lat="33.952555781426284" lon="-5.038074688140131"><ele>519.0</ele><time>2026-04-28T09:25:11.999Z</time></trkpt><trkpt lat="33.952486877090635" lon="-5.038141614360939"><ele>519.0</ele><time>2026-04-28T09:25:12.999Z</time></trkpt><trkpt lat="33.95241744293679" lon="-5.038219968146424"><ele>518.0</ele><time>2026-04-28T09:25:13.999Z</time></trkpt><trkpt lat="33.952350692751814" lon="-5.038310710606868"><ele>517.0</ele><time>2026-04-28T09:25:14.999Z</time></trkpt><trkpt lat="33.95227813261071" lon="-5.0384242420550365"><ele>516.0</ele><time>2026-04-28T09:25:15.999Z</time></trkpt><trkpt lat="33.952203466713925" lon="-5.038558442925513"><ele>515.0</ele><time>2026-04-28T09:25:16.999Z</time></trkpt><trkpt lat="33.95212987074268" lon="-5.038709495065901"><ele>515.0</ele><time>2026-04-28T09:25:17.999Z</time></trkpt><trkpt lat="33.952063482542144" lon="-5.038870510805494"><ele>515.0</ele><time>2026-04-28T09:25:18.999Z</time></trkpt><trkpt lat="33.95200643399873" lon="-5.039037267771108"><ele>515.0</ele><time>2026-04-28T09:25:19.999Z</time></trkpt><trkpt lat="33.95195517465626" lon="-5.039222039921425"><ele>514.0</ele><time>2026-04-28T09:25:20.999Z</time></trkpt><trkpt lat="33.951907771418284" lon="-5.039418569695414"><ele>513.0</ele><time>2026-04-28T09:25:21.999Z</time></trkpt><trkpt lat="33.9518595846322" lon="-5.039622042217163"><ele>512.0</ele><time>2026-04-28T09:25:22.999Z</time></trkpt><trkpt lat="33.95180637562579" lon="-5.039833451481023"><ele>511.66666666666663</ele><time>2026-04-28T09:25:23.999Z</time></trkpt><trkpt lat="33.95175050150975" lon="-5.0400518142561594"><ele>511.33333333333337</ele><time>2026-04-28T09:25:24.999Z</time></trkpt><trkpt lat="33.95169438381499" lon="-5.040272969043003"><ele>511.0</ele><time>2026-04-28T09:25:25.999Z</time></trkpt><trkpt lat="33.95163981372948" lon="-5.040500882050184"><ele>511.0</ele><time>2026-04-28T09:25:26.999Z</time></trkpt><trkpt lat="33.951583168027106" lon="-5.040741595472543"><ele>511.0</ele><time>2026-04-28T09:25:27.999Z</time></trkpt><trkpt lat="33.951519411446384" lon="-5.040993361676782"><ele>511.0</ele><time>2026-04-28T09:25:28.999Z</time></trkpt><trkpt lat="33.95145016538621" lon="-5.041253641377684"><ele>511.0</ele><time>2026-04-28T09:25:29.999Z</time></trkpt><trkpt lat="33.95137749714648" lon="-5.04152230328586"><ele>511.0</ele><time>2026-04-28T09:25:30.999Z</time></trkpt><trkpt lat="33.95130528258345" lon="-5.041799588121252"><ele>511.0</ele><time>2026-04-28T09:25:31.999Z</time></trkpt><trkpt lat="33.951233996971844" lon="-5.042083575507559"><ele>511.0</ele><time>2026-04-28T09:25:32.999Z</time></trkpt><trkpt lat="33.95116322873541" lon="-5.042371887071666"><ele>509.5</ele><time>2026-04-28T09:25:33.999Z</time></trkpt><trkpt lat="33.95109584401973" lon="-5.042656632888205"><ele>508.0</ele><time>2026-04-28T09:25:34.999Z</time></trkpt><trkpt lat="33.95102614504154" lon="-5.042952710452137"><ele>508.0</ele><time>2026-04-28T09:25:35.999Z</time></trkpt><trkpt lat="33.95095367977106" lon="-5.04325592631926"><ele>508.0</ele><time>2026-04-28T09:25:36.999Z</time></trkpt><trkpt lat="33.95087694828459" lon="-5.043563746680684"><ele>508.5</ele><time>2026-04-28T09:25:37.999Z</time></trkpt><trkpt lat="33.950798977845245" lon="-5.0438776294098595"><ele>509.0</ele><time>2026-04-28T09:25:38.999Z</time></trkpt><trkpt lat="33.95072083529357" lon="-5.044195098537304"><ele>509.0</ele><time>2026-04-28T09:25:39.999Z</time></trkpt><trkpt lat="33.95064572103708" lon="-5.04450555172883"><ele>509.0</ele><time>2026-04-28T09:25:40.999Z</time></trkpt><trkpt lat="33.950570698723375" lon="-5.04482276094147"><ele>508.5</ele><time>2026-04-28T09:25:41.999Z</time></trkpt><trkpt lat="33.950494422328795" lon="-5.045144821421733"><ele>508.0</ele><time>2026-04-28T09:25:42.999Z</time></trkpt><trkpt lat="33.95041848756008" lon="-5.045472640383029"><ele>506.5</ele><time>2026-04-28T09:25:43.999Z</time></trkpt><trkpt lat="33.95033931415351" lon="-5.045803074585051"><ele>505.0</ele><time>2026-04-28T09:25:44.999Z</time></trkpt><trkpt lat="33.95026032324566" lon="-5.04613879534604"><ele>505.0</ele><time>2026-04-28T09:25:45.999Z</time></trkpt><trkpt lat="33.950180431971674" lon="-5.046472018770384"><ele>505.0</ele><time>2026-04-28T09:25:46.999Z</time></trkpt><trkpt lat="33.950100291790285" lon="-5.046798041099343"><ele>505.0</ele><time>2026-04-28T09:25:47.999Z</time></trkpt><trkpt lat="33.95002216682735" lon="-5.047123757610232"><ele>505.0</ele><time>2026-04-28T09:25:48.999Z</time></trkpt><trkpt lat="33.94994518515958" lon="-5.047451241236216"><ele>504.5</ele><time>2026-04-28T09:25:49.999Z</time></trkpt><trkpt lat="33.949869078949554" lon="-5.047783782496994"><ele>504.0</ele><time>2026-04-28T09:25:50.999Z</time></trkpt><trkpt lat="33.94979876738583" lon="-5.048120233761068"><ele>503.0</ele><time>2026-04-28T09:25:51.999Z</time></trkpt><trkpt lat="33.949731533850986" lon="-5.048460560092414"><ele>502.0</ele><time>2026-04-28T09:25:52.999Z</time></trkpt><trkpt lat="33.94966879718539" lon="-5.048802867277458"><ele>501.0</ele><time>2026-04-28T09:25:53.999Z</time></trkpt><trkpt lat="33.94960899490545" lon="-5.049147092025153"><ele>500.0</ele><time>2026-04-28T09:25:54.999Z</time></trkpt><trkpt lat="33.949555811448064" lon="-5.049494160840076"><ele>500.0</ele><time>2026-04-28T09:25:55.999Z</time></trkpt><trkpt lat="33.9495108618582" lon="-5.049842308042488"><ele>500.0</ele><time>2026-04-28T09:25:56.999Z</time></trkpt><trkpt lat="33.94947201741093" lon="-5.050190917224243"><ele>499.5</ele><time>2026-04-28T09:25:57.999Z</time></trkpt><trkpt lat="33.94944133277751" lon="-5.05054223169658"><ele>499.0</ele><time>2026-04-28T09:25:58.999Z</time></trkpt><trkpt lat="33.94941574328497" lon="-5.050893458068298"><ele>499.0</ele><time>2026-04-28T09:25:59.999Z</time></trkpt><trkpt lat="33.94939714413132" lon="-5.051246721359476"><ele>499.0</ele><time>2026-04-28T09:26:00.999Z</time></trkpt><trkpt lat="33.94938420499802" lon="-5.0515997518495315"><ele>499.0</ele><time>2026-04-28T09:26:01.999Z</time></trkpt><trkpt lat="33.949375876614965" lon="-5.051952252017585"><ele>499.0</ele><time>2026-04-28T09:26:02.999Z</time></trkpt><trkpt lat="33.9493787078079" lon="-5.052304776334892"><ele>499.5</ele><time>2026-04-28T09:26:03.999Z</time></trkpt><trkpt lat="33.94938808026369" lon="-5.052655536476068"><ele>500.0</ele><time>2026-04-28T09:26:04.999Z</time></trkpt><trkpt lat="33.949401625868894" lon="-5.053006911456965"><ele>501.5</ele><time>2026-04-28T09:26:05.999Z</time></trkpt><trkpt lat="33.949420178640366" lon="-5.05335887857157"><ele>503.0</ele><time>2026-04-28T09:26:06.999Z</time></trkpt><trkpt lat="33.949442864950925" lon="-5.053710992847494"><ele>503.0</ele><time>2026-04-28T09:26:07.999Z</time></trkpt><trkpt lat="33.94947271207267" lon="-5.054061412780765"><ele>503.0</ele><time>2026-04-28T09:26:08.999Z</time></trkpt><trkpt lat="33.94950967707963" lon="-5.054412334207045"><ele>502.5</ele><time>2026-04-28T09:26:09.999Z</time></trkpt><trkpt lat="33.949551408422025" lon="-5.054762527356592"><ele>502.0</ele><time>2026-04-28T09:26:10.999Z</time></trkpt><trkpt lat="33.94959479589425" lon="-5.05511227346042"><ele>502.0</ele><time>2026-04-28T09:26:11.999Z</time></trkpt><trkpt lat="33.94963834681461" lon="-5.05546078903604"><ele>502.0</ele><time>2026-04-28T09:26:12.999Z</time></trkpt><trkpt lat="33.949680935523425" lon="-5.055810855107655"><ele>502.0</ele><time>2026-04-28T09:26:13.999Z</time></trkpt><trkpt lat="33.94972444635895" lon="-5.056160930003319"><ele>502.0</ele><time>2026-04-28T09:26:14.999Z</time></trkpt><trkpt lat="33.949767032448634" lon="-5.056511270338165"><ele>503.0</ele><time>2026-04-28T09:26:15.999Z</time></trkpt><trkpt lat="33.949802486744865" lon="-5.0568632897884065"><ele>504.0</ele><time>2026-04-28T09:26:16.999Z</time></trkpt><trkpt lat="33.94983462451793" lon="-5.05721458406165"><ele>503.5</ele><time>2026-04-28T09:26:17.999Z</time></trkpt><trkpt lat="33.94986173959198" lon="-5.057567849202328"><ele>503.0</ele><time>2026-04-28T09:26:18.999Z</time></trkpt><trkpt lat="33.949883999199635" lon="-5.0579216807242355"><ele>503.0</ele><time>2026-04-28T09:26:19.999Z</time></trkpt><trkpt lat="33.949901257533455" lon="-5.058275082912438"><ele>503.0</ele><time>2026-04-28T09:26:20.999Z</time></trkpt><trkpt lat="33.949912974447976" lon="-5.058629804160755"><ele>503.5</ele><time>2026-04-28T09:26:21.999Z</time></trkpt><trkpt lat="33.94992089477778" lon="-5.05898289812619"><ele>504.0</ele><time>2026-04-28T09:26:22.999Z</time></trkpt><trkpt lat="33.949921214429224" lon="-5.059337038389896"><ele>505.5</ele><time>2026-04-28T09:26:23.999Z</time></trkpt><trkpt lat="33.94991408150404" lon="-5.0596928081204195"><ele>507.0</ele><time>2026-04-28T09:26:24.999Z</time></trkpt><trkpt lat="33.94990462859133" lon="-5.060047441837094"><ele>507.0</ele><time>2026-04-28T09:26:25.999Z</time></trkpt><trkpt lat="33.94989009263797" lon="-5.060399230273388"><ele>507.0</ele><time>2026-04-28T09:26:26.999Z</time></trkpt><trkpt lat="33.94987054719406" lon="-5.060751185486619"><ele>506.5</ele><time>2026-04-28T09:26:27.999Z</time></trkpt><trkpt lat="33.949846792262804" lon="-5.061104544022129"><ele>506.0</ele><time>2026-04-28T09:26:28.999Z</time></trkpt><trkpt lat="33.94981989221579" lon="-5.0614567003785025"><ele>507.0</ele><time>2026-04-28T09:26:29.999Z</time></trkpt><trkpt lat="33.94978753137848" lon="-5.061807652790334"><ele>508.0</ele><time>2026-04-28T09:26:30.999Z</time></trkpt><trkpt lat="33.9497460789811" lon="-5.062156335037546"><ele>508.5</ele><time>2026-04-28T09:26:31.999Z</time></trkpt><trkpt lat="33.949701798624915" lon="-5.062504863053571"><ele>509.0</ele><time>2026-04-28T09:26:32.999Z</time></trkpt><trkpt lat="33.94965127274237" lon="-5.062852856734753"><ele>509.0</ele><time>2026-04-28T09:26:33.999Z</time></trkpt><trkpt lat="33.94959788233742" lon="-5.063198319173078"><ele>509.0</ele><time>2026-04-28T09:26:34.999Z</time></trkpt><trkpt lat="33.94953713322641" lon="-5.063543096143423"><ele>508.5</ele><time>2026-04-28T09:26:35.999Z</time></trkpt><trkpt lat="33.94947583003294" lon="-5.063887989597509"><ele>508.0</ele><time>2026-04-28T09:26:36.999Z</time></trkpt><trkpt lat="33.94940266524396" lon="-5.064229757613098"><ele>508.0</ele><time>2026-04-28T09:26:37.999Z</time></trkpt><trkpt lat="33.94932433636775" lon="-5.064568669537665"><ele>508.0</ele><time>2026-04-28T09:26:38.999Z</time></trkpt><trkpt lat="33.94924172602848" lon="-5.0649070210728855"><ele>509.0</ele><time>2026-04-28T09:26:39.999Z</time></trkpt><trkpt lat="33.949153971589304" lon="-5.06524420465862"><ele>510.0</ele><time>2026-04-28T09:26:40.999Z</time></trkpt><trkpt lat="33.949062387774404" lon="-5.065581259542448"><ele>509.5</ele><time>2026-04-28T09:26:41.999Z</time></trkpt><trkpt lat="33.94896957843009" lon="-5.065918159494497"><ele>509.0</ele><time>2026-04-28T09:26:42.999Z</time></trkpt><trkpt lat="33.948866050323765" lon="-5.066250585791292"><ele>509.0</ele><time>2026-04-28T09:26:43.999Z</time></trkpt><trkpt lat="33.94875487836774" lon="-5.066580800639372"><ele>509.0</ele><time>2026-04-28T09:26:44.999Z</time></trkpt><trkpt lat="33.94863868304045" lon="-5.06690629720827"><ele>508.5</ele><time>2026-04-28T09:26:45.999Z</time></trkpt><trkpt lat="33.94851904628605" lon="-5.067230333838056"><ele>508.0</ele><time>2026-04-28T09:26:46.999Z</time></trkpt><trkpt lat="33.94839625973034" lon="-5.067553897928729"><ele>508.5</ele><time>2026-04-28T09:26:47.999Z</time></trkpt><trkpt lat="33.948268427150225" lon="-5.0678761187943175"><ele>509.0</ele><time>2026-04-28T09:26:48.999Z</time></trkpt><trkpt lat="33.94813506652726" lon="-5.068192275897743"><ele>508.0</ele><time>2026-04-28T09:26:49.999Z</time></trkpt><trkpt lat="33.947996695072476" lon="-5.068501987931265"><ele>507.0</ele><time>2026-04-28T09:26:50.999Z</time></trkpt><trkpt lat="33.94785605203296" lon="-5.068811705239739"><ele>507.0</ele><time>2026-04-28T09:26:51.999Z</time></trkpt><trkpt lat="33.94771086071517" lon="-5.069117875945694"><ele>507.0</ele><time>2026-04-28T09:26:52.999Z</time></trkpt><trkpt lat="33.94756187212474" lon="-5.0694211098681015"><ele>507.0</ele><time>2026-04-28T09:26:53.999Z</time></trkpt><trkpt lat="33.94740919490558" lon="-5.069722730113153"><ele>507.0</ele><time>2026-04-28T09:26:54.999Z</time></trkpt><trkpt lat="33.94725301212712" lon="-5.0700215000601245"><ele>507.0</ele><time>2026-04-28T09:26:55.999Z</time></trkpt><trkpt lat="33.947096523564866" lon="-5.070320498813084"><ele>507.0</ele><time>2026-04-28T09:26:56.999Z</time></trkpt><trkpt lat="33.94694128056031" lon="-5.070622435397602"><ele>507.0</ele><time>2026-04-28T09:26:57.999Z</time></trkpt><trkpt lat="33.94678622677613" lon="-5.07092457537139"><ele>507.0</ele><time>2026-04-28T09:26:58.999Z</time></trkpt><trkpt lat="33.94662914040944" lon="-5.071226345215436"><ele>507.0</ele><time>2026-04-28T09:26:59.999Z</time></trkpt><trkpt lat="33.94647476878747" lon="-5.071530352564693"><ele>507.0</ele><time>2026-04-28T09:27:00.999Z</time></trkpt><trkpt lat="33.94632666580423" lon="-5.071837448720957"><ele>507.0</ele><time>2026-04-28T09:27:01.999Z</time></trkpt><trkpt lat="33.94618131509718" lon="-5.072145464277199"><ele>507.0</ele><time>2026-04-28T09:27:02.999Z</time></trkpt><trkpt lat="33.946037718658914" lon="-5.072453893209142"><ele>507.0</ele><time>2026-04-28T09:27:03.999Z</time></trkpt><trkpt lat="33.94589787162852" lon="-5.072764801970985"><ele>507.0</ele><time>2026-04-28T09:27:04.999Z</time></trkpt><trkpt lat="33.94576031680554" lon="-5.0730715314525385"><ele>506.0</ele><time>2026-04-28T09:27:05.999Z</time></trkpt><trkpt lat="33.945627100030336" lon="-5.073386766685987"><ele>505.0</ele><time>2026-04-28T09:27:06.999Z</time></trkpt><trkpt lat="33.94549172734748" lon="-5.073699308214644"><ele>505.0</ele><time>2026-04-28T09:27:07.999Z</time></trkpt><trkpt lat="33.94536893943409" lon="-5.074019704201606"><ele>505.0</ele><time>2026-04-28T09:27:08.999Z</time></trkpt><trkpt lat="33.94525317162659" lon="-5.074343266970206"><ele>506.0</ele><time>2026-04-28T09:27:09.999Z</time></trkpt><trkpt lat="33.945143838936374" lon="-5.074671034760835"><ele>507.0</ele><time>2026-04-28T09:27:10.999Z</time></trkpt><trkpt lat="33.94503930305641" lon="-5.075002264434119"><ele>509.0</ele><time>2026-04-28T09:27:11.999Z</time></trkpt><trkpt lat="33.944939086710946" lon="-5.075335462917526"><ele>511.0</ele><time>2026-04-28T09:27:12.999Z</time></trkpt><trkpt lat="33.944842274033505" lon="-5.075671581703708"><ele>511.0</ele><time>2026-04-28T09:27:13.999Z</time></trkpt><trkpt lat="33.94475054708451" lon="-5.076007762870665"><ele>511.0</ele><time>2026-04-28T09:27:14.999Z</time></trkpt><trkpt lat="33.94466428771858" lon="-5.07634649045037"><ele>510.5</ele><time>2026-04-28T09:27:15.999Z</time></trkpt><trkpt lat="33.94458520738369" lon="-5.076688892754783"><ele>510.0</ele><time>2026-04-28T09:27:16.999Z</time></trkpt><trkpt lat="33.94451118196106" lon="-5.077033633044404"><ele>510.0</ele><time>2026-04-28T09:27:17.999Z</time></trkpt><trkpt lat="33.944443868778414" lon="-5.077380699242771"><ele>510.0</ele><time>2026-04-28T09:27:18.999Z</time></trkpt><trkpt lat="33.944379929869235" lon="-5.077724245531666"><ele>511.0</ele><time>2026-04-28T09:27:19.999Z</time></trkpt><trkpt lat="33.944320831038745" lon="-5.078070388233834"><ele>512.0</ele><time>2026-04-28T09:27:20.999Z</time></trkpt><trkpt lat="33.944268326814814" lon="-5.0784177508611945"><ele>512.0</ele><time>2026-04-28T09:27:21.999Z</time></trkpt><trkpt lat="33.944222985865494" lon="-5.078766558053988"><ele>512.0</ele><time>2026-04-28T09:27:22.999Z</time></trkpt><trkpt lat="33.94418380611187" lon="-5.0791174591587716"><ele>513.5</ele><time>2026-04-28T09:27:23.999Z</time></trkpt><trkpt lat="33.94414768101347" lon="-5.079467382192615"><ele>515.0</ele><time>2026-04-28T09:27:24.999Z</time></trkpt><trkpt lat="33.94411411616832" lon="-5.079817622619873"><ele>515.0</ele><time>2026-04-28T09:27:25.999Z</time></trkpt><trkpt lat="33.944084839021116" lon="-5.080170414259534"><ele>515.0</ele><time>2026-04-28T09:27:26.999Z</time></trkpt><trkpt lat="33.94406142932398" lon="-5.080523690648582"><ele>515.5</ele><time>2026-04-28T09:27:27.999Z</time></trkpt><trkpt lat="33.944042944093766" lon="-5.080876322750833"><ele>516.0</ele><time>2026-04-28T09:27:28.999Z</time></trkpt><trkpt lat="33.94402995941339" lon="-5.081230596047424"><ele>516.0</ele><time>2026-04-28T09:27:29.999Z</time></trkpt><trkpt lat="33.94402306968033" lon="-5.081585473321632"><ele>516.0</ele><time>2026-04-28T09:27:30.999Z</time></trkpt><trkpt lat="33.944022725121094" lon="-5.081940942443475"><ele>516.0</ele><time>2026-04-28T09:27:31.999Z</time></trkpt><trkpt lat="33.94402899657811" lon="-5.082296244273623"><ele>516.0</ele><time>2026-04-28T09:27:32.999Z</time></trkpt><trkpt lat="33.94404071746974" lon="-5.082651388010871"><ele>516.5</ele><time>2026-04-28T09:27:33.999Z</time></trkpt><trkpt lat="33.944056218352394" lon="-5.083007974722275"><ele>517.0</ele><time>2026-04-28T09:27:34.999Z</time></trkpt><trkpt lat="33.944076020987744" lon="-5.083364836989711"><ele>517.0</ele><time>2026-04-28T09:27:35.999Z</time></trkpt><trkpt lat="33.94409896683022" lon="-5.083719149047859"><ele>517.0</ele><time>2026-04-28T09:27:36.999Z</time></trkpt><trkpt lat="33.944125951453074" lon="-5.084071916492503"><ele>516.5</ele><time>2026-04-28T09:27:37.999Z</time></trkpt><trkpt lat="33.94415404526646" lon="-5.084423930203833"><ele>516.0</ele><time>2026-04-28T09:27:38.999Z</time></trkpt><trkpt lat="33.94418459695376" lon="-5.084774586175534"><ele>516.0</ele><time>2026-04-28T09:27:39.999Z</time></trkpt><trkpt lat="33.944216052016884" lon="-5.085127743128716"><ele>516.0</ele><time>2026-04-28T09:27:40.999Z</time></trkpt><trkpt lat="33.94425022488577" lon="-5.085480728901421"><ele>515.0</ele><time>2026-04-28T09:27:41.999Z</time></trkpt><trkpt lat="33.94427934958285" lon="-5.08583543739682"><ele>514.0</ele><time>2026-04-28T09:27:42.999Z</time></trkpt><trkpt lat="33.944301683257144" lon="-5.086190215467584"><ele>514.0</ele><time>2026-04-28T09:27:43.999Z</time></trkpt><trkpt lat="33.94431823850123" lon="-5.086544908881677"><ele>514.0</ele><time>2026-04-28T09:27:44.999Z</time></trkpt><trkpt lat="33.94432626024491" lon="-5.086898533825074"><ele>514.5</ele><time>2026-04-28T09:27:45.999Z</time></trkpt><trkpt lat="33.94433152666183" lon="-5.087253789886231"><ele>515.0</ele><time>2026-04-28T09:27:46.999Z</time></trkpt><trkpt lat="33.94433560419943" lon="-5.087610316901266"><ele>515.0</ele><time>2026-04-28T09:27:47.999Z</time></trkpt><trkpt lat="33.94433860867437" lon="-5.0879650481143255"><ele>515.0</ele><time>2026-04-28T09:27:48.999Z</time></trkpt><trkpt lat="33.94432761608008" lon="-5.0883199425164785"><ele>514.0</ele><time>2026-04-28T09:27:49.999Z</time></trkpt><trkpt lat="33.94431392904699" lon="-5.088671957765273"><ele>513.0</ele><time>2026-04-28T09:27:50.999Z</time></trkpt><trkpt lat="33.94429524681556" lon="-5.089024495107802"><ele>514.0</ele><time>2026-04-28T09:27:51.999Z</time></trkpt><trkpt lat="33.94426830877403" lon="-5.089375594175968"><ele>515.0</ele><time>2026-04-28T09:27:52.999Z</time></trkpt><trkpt lat="33.94423826106837" lon="-5.08972846601935"><ele>515.5</ele><time>2026-04-28T09:27:53.999Z</time></trkpt><trkpt lat="33.94420054868928" lon="-5.090080511507353"><ele>516.0</ele><time>2026-04-28T09:27:54.999Z</time></trkpt><trkpt lat="33.944164972133606" lon="-5.09043285241334"><ele>516.0</ele><time>2026-04-28T09:27:55.999Z</time></trkpt><trkpt lat="33.94412202626983" lon="-5.090784555244817"><ele>516.0</ele><time>2026-04-28T09:27:56.999Z</time></trkpt><trkpt lat="33.944072959436205" lon="-5.091133523411525"><ele>516.0</ele><time>2026-04-28T09:27:57.999Z</time></trkpt><trkpt lat="33.94401409116948" lon="-5.091481403513175"><ele>516.0</ele><time>2026-04-28T09:27:58.999Z</time></trkpt><trkpt lat="33.94395035217399" lon="-5.091825459260735"><ele>517.0</ele><time>2026-04-28T09:27:59.999Z</time></trkpt><trkpt lat="33.94388549056007" lon="-5.092171965697727"><ele>518.0</ele><time>2026-04-28T09:28:00.999Z</time></trkpt><trkpt lat="33.94381891185103" lon="-5.092516644248644"><ele>519.5</ele><time>2026-04-28T09:28:01.999Z</time></trkpt><trkpt lat="33.94374258253696" lon="-5.092860024414804"><ele>521.0</ele><time>2026-04-28T09:28:02.999Z</time></trkpt><trkpt lat="33.94365998400616" lon="-5.0932013337028454"><ele>522.0</ele><time>2026-04-28T09:28:03.999Z</time></trkpt><trkpt lat="33.943572914415284" lon="-5.093538154937153"><ele>523.0</ele><time>2026-04-28T09:28:04.999Z</time></trkpt><trkpt lat="33.94348201190724" lon="-5.093877187213184"><ele>523.0</ele><time>2026-04-28T09:28:05.999Z</time></trkpt><trkpt lat="33.94338616333369" lon="-5.094210170201768"><ele>523.0</ele><time>2026-04-28T09:28:06.999Z</time></trkpt><trkpt lat="33.943282395363376" lon="-5.094541457219954"><ele>523.0</ele><time>2026-04-28T09:28:07.999Z</time></trkpt><trkpt lat="33.94317146404572" lon="-5.094868435805156"><ele>523.0</ele><time>2026-04-28T09:28:08.999Z</time></trkpt><trkpt lat="33.94305808949099" lon="-5.095194582195308"><ele>523.0</ele><time>2026-04-28T09:28:09.999Z</time></trkpt><trkpt lat="33.94294807283456" lon="-5.095517835210971"><ele>523.0</ele><time>2026-04-28T09:28:10.999Z</time></trkpt><trkpt lat="33.942826399062405" lon="-5.095834837307104"><ele>519.5</ele><time>2026-04-28T09:28:11.999Z</time></trkpt><trkpt lat="33.942703628871826" lon="-5.096148647367614"><ele>516.0</ele><time>2026-04-28T09:28:12.999Z</time></trkpt><trkpt lat="33.94257455157093" lon="-5.096452939809847"><ele>517.0</ele><time>2026-04-28T09:28:13.999Z</time></trkpt><trkpt lat="33.94244904257348" lon="-5.096753301201633"><ele>518.0</ele><time>2026-04-28T09:28:14.999Z</time></trkpt><trkpt lat="33.942317579553745" lon="-5.097044513746785"><ele>518.0</ele><time>2026-04-28T09:28:15.999Z</time></trkpt><trkpt lat="33.94218319707922" lon="-5.097327441982371"><ele>518.0</ele><time>2026-04-28T09:28:16.999Z</time></trkpt><trkpt lat="33.94204830035749" lon="-5.09760381124105"><ele>517.5</ele><time>2026-04-28T09:28:17.999Z</time></trkpt><trkpt lat="33.941911820849775" lon="-5.097875562055686"><ele>517.0</ele><time>2026-04-28T09:28:18.999Z</time></trkpt><trkpt lat="33.94177445066253" lon="-5.09814234008968"><ele>518.5</ele><time>2026-04-28T09:28:19.999Z</time></trkpt><trkpt lat="33.94163513811434" lon="-5.098400455042381"><ele>520.0</ele><time>2026-04-28T09:28:20.999Z</time></trkpt><trkpt lat="33.94149150382895" lon="-5.0986567638388935"><ele>520.0</ele><time>2026-04-28T09:28:21.999Z</time></trkpt><trkpt lat="33.941345296931246" lon="-5.098907057165353"><ele>520.0</ele><time>2026-04-28T09:28:22.999Z</time></trkpt><trkpt lat="33.94119602850841" lon="-5.099155034979694"><ele>521.0</ele><time>2026-04-28T09:28:23.999Z</time></trkpt><trkpt lat="33.94104513757158" lon="-5.0994017285908075"><ele>522.0</ele><time>2026-04-28T09:28:24.999Z</time></trkpt><trkpt lat="33.940891826880204" lon="-5.099642482099318"><ele>523.0</ele><time>2026-04-28T09:28:25.999Z</time></trkpt><trkpt lat="33.94073855861255" lon="-5.09988166491595"><ele>524.0</ele><time>2026-04-28T09:28:26.999Z</time></trkpt><trkpt lat="33.94058084213416" lon="-5.100112423531189"><ele>525.0</ele><time>2026-04-28T09:28:27.999Z</time></trkpt><trkpt lat="33.940419574937685" lon="-5.100334856549508"><ele>526.0</ele><time>2026-04-28T09:28:28.999Z</time></trkpt><trkpt lat="33.94026072040833" lon="-5.1005531563179725"><ele>526.5</ele><time>2026-04-28T09:28:29.999Z</time></trkpt><trkpt lat="33.94010099052108" lon="-5.100769253345575"><ele>527.0</ele><time>2026-04-28T09:28:30.999Z</time></trkpt><trkpt lat="33.93994352566751" lon="-5.1009775726570314"><ele>525.5</ele><time>2026-04-28T09:28:31.999Z</time></trkpt><trkpt lat="33.939787337385816" lon="-5.1011827032276145"><ele>524.0</ele><time>2026-04-28T09:28:32.999Z</time></trkpt><trkpt lat="33.93963089067205" lon="-5.101387946607192"><ele>523.5</ele><time>2026-04-28T09:28:33.999Z</time></trkpt><trkpt lat="33.93947601971305" lon="-5.101594842060961"><ele>523.0</ele><time>2026-04-28T09:28:34.999Z</time></trkpt><trkpt lat="33.939320063961766" lon="-5.101799573705402"><ele>523.0</ele><time>2026-04-28T09:28:35.999Z</time></trkpt><trkpt lat="33.93916353005057" lon="-5.101999566372781"><ele>523.0</ele><time>2026-04-28T09:28:36.999Z</time></trkpt><trkpt lat="33.93900801700966" lon="-5.102203500244689"><ele>523.0</ele><time>2026-04-28T09:28:37.999Z</time></trkpt><trkpt lat="33.938852047748796" lon="-5.102409295274939"><ele>523.0</ele><time>2026-04-28T09:28:38.999Z</time></trkpt><trkpt lat="33.93869435064031" lon="-5.102618453023954"><ele>522.0</ele><time>2026-04-28T09:28:39.999Z</time></trkpt><trkpt lat="33.93853827115618" lon="-5.1028341736098835"><ele>521.0</ele><time>2026-04-28T09:28:40.999Z</time></trkpt><trkpt lat="33.93838053101443" lon="-5.103054978122064"><ele>520.0</ele><time>2026-04-28T09:28:41.999Z</time></trkpt><trkpt lat="33.93822015939872" lon="-5.103282466324476"><ele>519.0</ele><time>2026-04-28T09:28:42.999Z</time></trkpt><trkpt lat="33.938060524334986" lon="-5.10351824337735"><ele>519.0</ele><time>2026-04-28T09:28:43.999Z</time></trkpt><trkpt lat="33.93790247904143" lon="-5.103759158064171"><ele>519.0</ele><time>2026-04-28T09:28:44.999Z</time></trkpt><trkpt lat="33.93774730392771" lon="-5.104007417454041"><ele>519.5</ele><time>2026-04-28T09:28:45.999Z</time></trkpt><trkpt lat="33.93759054831262" lon="-5.104258027482578"><ele>520.0</ele><time>2026-04-28T09:28:46.999Z</time></trkpt><trkpt lat="33.937433031896276" lon="-5.104513248056385"><ele>516.0</ele><time>2026-04-28T09:28:47.999Z</time></trkpt><trkpt lat="33.93728035322242" lon="-5.104772220662438"><ele>512.0</ele><time>2026-04-28T09:28:48.999Z</time></trkpt><trkpt lat="33.93713011235456" lon="-5.105041604663655"><ele>510.5</ele><time>2026-04-28T09:28:49.999Z</time></trkpt><trkpt lat="33.936984207647136" lon="-5.105321867228452"><ele>509.0</ele><time>2026-04-28T09:28:50.999Z</time></trkpt><trkpt lat="33.93683913541885" lon="-5.105611940969511"><ele>512.5</ele><time>2026-04-28T09:28:51.999Z</time></trkpt><trkpt lat="33.93669576246173" lon="-5.10590235402962"><ele>516.0</ele><time>2026-04-28T09:28:52.999Z</time></trkpt><trkpt lat="33.93655696589552" lon="-5.1061967771689645"><ele>516.0</ele><time>2026-04-28T09:28:53.999Z</time></trkpt><trkpt lat="33.93642254443769" lon="-5.1064936412693624"><ele>516.0</ele><time>2026-04-28T09:28:54.999Z</time></trkpt><trkpt lat="33.936294297607134" lon="-5.106791639096234"><ele>517.5</ele><time>2026-04-28T09:28:55.999Z</time></trkpt><trkpt lat="33.936174267100924" lon="-5.107091206800262"><ele>519.0</ele><time>2026-04-28T09:28:56.999Z</time></trkpt><trkpt lat="33.93605654077275" lon="-5.107393961862673"><ele>520.5</ele><time>2026-04-28T09:28:57.999Z</time></trkpt><trkpt lat="33.93594150369917" lon="-5.107698205910541"><ele>522.0</ele><time>2026-04-28T09:28:58.999Z</time></trkpt><trkpt lat="33.93583040799217" lon="-5.1080047776195725"><ele>522.0</ele><time>2026-04-28T09:28:59.999Z</time></trkpt><trkpt lat="33.93572113495612" lon="-5.108315592030293"><ele>522.0</ele><time>2026-04-28T09:29:00.999Z</time></trkpt><trkpt lat="33.93561609469748" lon="-5.108628432917674"><ele>522.0</ele><time>2026-04-28T09:29:01.999Z</time></trkpt><trkpt lat="33.93551646858774" lon="-5.108946012183756"><ele>522.0</ele><time>2026-04-28T09:29:02.999Z</time></trkpt><trkpt lat="33.93541943898678" lon="-5.109266972550687"><ele>522.5</ele><time>2026-04-28T09:29:03.999Z</time></trkpt><trkpt lat="33.93532836251522" lon="-5.109591045184938"><ele>523.0</ele><time>2026-04-28T09:29:04.999Z</time></trkpt><trkpt lat="33.9352342886262" lon="-5.109917894441396"><ele>523.0</ele><time>2026-04-28T09:29:05.999Z</time></trkpt><trkpt lat="33.935147729629506" lon="-5.110247529570555"><ele>523.0</ele><time>2026-04-28T09:29:06.999Z</time></trkpt><trkpt lat="33.93506589245924" lon="-5.110583695530958"><ele>521.0</ele><time>2026-04-28T09:29:07.999Z</time></trkpt><trkpt lat="33.93499285095547" lon="-5.110923717806527"><ele>519.0</ele><time>2026-04-28T09:29:08.999Z</time></trkpt><trkpt lat="33.934928134104496" lon="-5.111267249271358"><ele>519.0</ele><time>2026-04-28T09:29:09.999Z</time></trkpt><trkpt lat="33.93486580064198" lon="-5.111611466451449"><ele>519.0</ele><time>2026-04-28T09:29:10.999Z</time></trkpt><trkpt lat="33.934808813498506" lon="-5.111956223044422"><ele>519.0</ele><time>2026-04-28T09:29:11.999Z</time></trkpt><trkpt lat="33.93475713142722" lon="-5.112297104302174"><ele>519.0</ele><time>2026-04-28T09:29:12.999Z</time></trkpt><trkpt lat="33.93471240946583" lon="-5.112635594703851"><ele>518.0</ele><time>2026-04-28T09:29:13.999Z</time></trkpt><trkpt lat="33.934667739454525" lon="-5.112971007543637"><ele>517.0</ele><time>2026-04-28T09:29:14.999Z</time></trkpt><trkpt lat="33.934631856394816" lon="-5.113306483545114"><ele>516.0</ele><time>2026-04-28T09:29:15.999Z</time></trkpt><trkpt lat="33.9346028699712" lon="-5.113640524432396"><ele>515.0</ele><time>2026-04-28T09:29:16.999Z</time></trkpt><trkpt lat="33.934578043819705" lon="-5.113974719104268"><ele>514.5</ele><time>2026-04-28T09:29:17.999Z</time></trkpt><trkpt lat="33.934553947850624" lon="-5.114307413084338"><ele>514.0</ele><time>2026-04-28T09:29:18.999Z</time></trkpt><trkpt lat="33.9345363825477" lon="-5.114640457116005"><ele>513.5</ele><time>2026-04-28T09:29:19.999Z</time></trkpt><trkpt lat="33.93452502984797" lon="-5.114973624352797"><ele>513.0</ele><time>2026-04-28T09:29:20.999Z</time></trkpt><trkpt lat="33.93452043158591" lon="-5.115308526646767"><ele>513.0</ele><time>2026-04-28T09:29:21.999Z</time></trkpt><trkpt lat="33.93451975337443" lon="-5.115645993000548"><ele>513.0</ele><time>2026-04-28T09:29:22.999Z</time></trkpt><trkpt lat="33.93452463479836" lon="-5.11598488066655"><ele>511.5</ele><time>2026-04-28T09:29:23.999Z</time></trkpt><trkpt lat="33.93453042797301" lon="-5.1163244357990765"><ele>510.0</ele><time>2026-04-28T09:29:24.999Z</time></trkpt><trkpt lat="33.93454303490949" lon="-5.116663443168681"><ele>509.5</ele><time>2026-04-28T09:29:25.999Z</time></trkpt><trkpt lat="33.934557821704274" lon="-5.117004924399027"><ele>509.0</ele><time>2026-04-28T09:29:27Z</time></trkpt><trkpt lat="33.93457959893866" lon="-5.117344027904254"><ele>507.0</ele><time>2026-04-28T09:29:27.999Z</time></trkpt><trkpt lat="33.934607269138965" lon="-5.117681274048325"><ele>505.0</ele><time>2026-04-28T09:29:29Z</time></trkpt><trkpt lat="33.93463899387229" lon="-5.118015673638048"><ele>503.5</ele><time>2026-04-28T09:29:30Z</time></trkpt><trkpt lat="33.93467650204799" lon="-5.118347986841182"><ele>502.0</ele><time>2026-04-28T09:29:31Z</time></trkpt><trkpt lat="33.93471915615946" lon="-5.118678169288069"><ele>502.0</ele><time>2026-04-28T09:29:32Z</time></trkpt><trkpt lat="33.934764556937985" lon="-5.119005866828152"><ele>502.0</ele><time>2026-04-28T09:29:33Z</time></trkpt><trkpt lat="33.93481403014056" lon="-5.11933278815777"><ele>500.5</ele><time>2026-04-28T09:29:34Z</time></trkpt><trkpt lat="33.934868858388334" lon="-5.11965800761708"><ele>499.0</ele><time>2026-04-28T09:29:35Z</time></trkpt><trkpt lat="33.93492735389341" lon="-5.11998171249125"><ele>497.0</ele><time>2026-04-28T09:29:36Z</time></trkpt><trkpt lat="33.9349921644738" lon="-5.120301273287212"><ele>495.0</ele><time>2026-04-28T09:29:37Z</time></trkpt><trkpt lat="33.93505961337707" lon="-5.120617486836081"><ele>493.5</ele><time>2026-04-28T09:29:38Z</time></trkpt><trkpt lat="33.935133114427884" lon="-5.120933136001746"><ele>492.0</ele><time>2026-04-28T09:29:39Z</time></trkpt><trkpt lat="33.93521188191104" lon="-5.1212451478720284"><ele>489.0</ele><time>2026-04-28T09:29:40Z</time></trkpt><trkpt lat="33.935296868862004" lon="-5.121567565164163"><ele>486.0</ele><time>2026-04-28T09:29:41Z</time></trkpt><trkpt lat="33.935386415716735" lon="-5.121907183932469"><ele>486.0</ele><time>2026-04-28T09:29:42Z</time></trkpt><trkpt lat="33.935480532307515" lon="-5.122256779925681"><ele>486.0</ele><time>2026-04-28T09:29:43Z</time></trkpt><trkpt lat="33.935578293471835" lon="-5.122614243791589"><ele>485.0</ele><time>2026-04-28T09:29:44Z</time></trkpt><trkpt lat="33.93568171085383" lon="-5.122970305866621"><ele>484.0</ele><time>2026-04-28T09:29:45Z</time></trkpt><trkpt lat="33.93578509095552" lon="-5.123321198477754"><ele>483.0</ele><time>2026-04-28T09:29:46Z</time></trkpt><trkpt lat="33.9358848371296" lon="-5.123669799304625"><ele>482.0</ele><time>2026-04-28T09:29:47Z</time></trkpt><trkpt lat="33.935983368348836" lon="-5.12401491409242"><ele>480.0</ele><time>2026-04-28T09:29:48Z</time></trkpt><trkpt lat="33.9360785667826" lon="-5.124359678869137"><ele>478.0</ele><time>2026-04-28T09:29:48.999Z</time></trkpt><trkpt lat="33.93617285704969" lon="-5.124705932684028"><ele>477.0</ele><time>2026-04-28T09:29:49.999Z</time></trkpt><trkpt lat="33.93626450455081" lon="-5.125050739323091"><ele>476.0</ele><time>2026-04-28T09:29:50.999Z</time></trkpt><trkpt lat="33.936354036831375" lon="-5.125395242913204"><ele>475.5</ele><time>2026-04-28T09:29:51.999Z</time></trkpt><trkpt lat="33.93644329444901" lon="-5.125738019720284"><ele>475.0</ele><time>2026-04-28T09:29:52.999Z</time></trkpt><trkpt lat="33.93652612285264" lon="-5.126084262967334"><ele>475.0</ele><time>2026-04-28T09:29:53.999Z</time></trkpt><trkpt lat="33.936604718624785" lon="-5.1264303643417914"><ele>475.0</ele><time>2026-04-28T09:29:54.999Z</time></trkpt><trkpt lat="33.936684400905655" lon="-5.1267781432994175"><ele>475.0</ele><time>2026-04-28T09:29:55.999Z</time></trkpt><trkpt lat="33.93675287456262" lon="-5.127124894326906"><ele>475.0</ele><time>2026-04-28T09:29:56.999Z</time></trkpt><trkpt lat="33.93681674254574" lon="-5.127461276869618"><ele>475.0</ele><time>2026-04-28T09:29:57.999Z</time></trkpt><trkpt lat="33.93688037515925" lon="-5.1277924113643305"><ele>475.0</ele><time>2026-04-28T09:29:58.999Z</time></trkpt><trkpt lat="33.93693758729429" lon="-5.128124689853902"><ele>479.0</ele><time>2026-04-28T09:29:59.999Z</time></trkpt><trkpt lat="33.93698961661479" lon="-5.128463175004262"><ele>483.0</ele><time>2026-04-28T09:30:00.999Z</time></trkpt><trkpt lat="33.937037269385165" lon="-5.1288029607914485"><ele>484.0</ele><time>2026-04-28T09:30:01.999Z</time></trkpt><trkpt lat="33.93709042308331" lon="-5.129146222033235"><ele>485.0</ele><time>2026-04-28T09:30:02.999Z</time></trkpt><trkpt lat="33.93713634464933" lon="-5.12949106641813"><ele>485.0</ele><time>2026-04-28T09:30:03.999Z</time></trkpt><trkpt lat="33.93717840292158" lon="-5.129838104565686"><ele>485.0</ele><time>2026-04-28T09:30:04.999Z</time></trkpt><trkpt lat="33.937216448545065" lon="-5.130187424030057"><ele>485.0</ele><time>2026-04-28T09:30:05.999Z</time></trkpt><trkpt lat="33.937248969787156" lon="-5.130537328918081"><ele>485.0</ele><time>2026-04-28T09:30:06.999Z</time></trkpt><trkpt lat="33.93727846670047" lon="-5.130888831207049"><ele>485.0</ele><time>2026-04-28T09:30:07.999Z</time></trkpt><trkpt lat="33.93730229086843" lon="-5.131240173854813"><ele>485.0</ele><time>2026-04-28T09:30:08.999Z</time></trkpt><trkpt lat="33.93732230092057" lon="-5.131593226225805"><ele>485.0</ele><time>2026-04-28T09:30:09.999Z</time></trkpt><trkpt lat="33.937337559755605" lon="-5.131945294532437"><ele>485.0</ele><time>2026-04-28T09:30:10.999Z</time></trkpt><trkpt lat="33.93734892447197" lon="-5.132297670755728"><ele>484.0</ele><time>2026-04-28T09:30:11.999Z</time></trkpt><trkpt lat="33.93735949767497" lon="-5.132652099720078"><ele>483.0</ele><time>2026-04-28T09:30:12.999Z</time></trkpt><trkpt lat="33.93736760843722" lon="-5.13300131706749"><ele>483.5</ele><time>2026-04-28T09:30:13.999Z</time></trkpt><trkpt lat="33.937372046930044" lon="-5.133348583343611"><ele>484.0</ele><time>2026-04-28T09:30:14.999Z</time></trkpt><trkpt lat="33.93737342724959" lon="-5.133697305695886"><ele>484.0</ele><time>2026-04-28T09:30:15.999Z</time></trkpt><trkpt lat="33.93736654128311" lon="-5.1340473060896725"><ele>484.0</ele><time>2026-04-28T09:30:16.999Z</time></trkpt><trkpt lat="33.93735510838723" lon="-5.134398141617843"><ele>484.5</ele><time>2026-04-28T09:30:17.999Z</time></trkpt><trkpt lat="33.937337972533385" lon="-5.134748915472583"><ele>485.0</ele><time>2026-04-28T09:30:18.999Z</time></trkpt><trkpt lat="33.93732277302432" lon="-5.135098224813303"><ele>485.0</ele><time>2026-04-28T09:30:19.999Z</time></trkpt><trkpt lat="33.93730040011061" lon="-5.13545072562148"><ele>485.0</ele><time>2026-04-28T09:30:20.999Z</time></trkpt><trkpt lat="33.937277475776305" lon="-5.135801987035231"><ele>484.0</ele><time>2026-04-28T09:30:21.999Z</time></trkpt><trkpt lat="33.937248225164765" lon="-5.136152556239436"><ele>483.0</ele><time>2026-04-28T09:30:22.999Z</time></trkpt><trkpt lat="33.93721253234617" lon="-5.136504199535869"><ele>483.5</ele><time>2026-04-28T09:30:23.999Z</time></trkpt><trkpt lat="33.93717556117156" lon="-5.136854875011623"><ele>484.0</ele><time>2026-04-28T09:30:24.999Z</time></trkpt><trkpt lat="33.937135436439966" lon="-5.137203983049264"><ele>484.0</ele><time>2026-04-28T09:30:25.999Z</time></trkpt><trkpt lat="33.937091040331815" lon="-5.1375543203739396"><ele>484.0</ele><time>2026-04-28T09:30:26.999Z</time></trkpt><trkpt lat="33.93704210920527" lon="-5.137902984844074"><ele>483.0</ele><time>2026-04-28T09:30:27.999Z</time></trkpt><trkpt lat="33.93698942781642" lon="-5.138250002755362"><ele>482.0</ele><time>2026-04-28T09:30:28.999Z</time></trkpt><trkpt lat="33.93693506962973" lon="-5.1385974495143225"><ele>482.0</ele><time>2026-04-28T09:30:29.999Z</time></trkpt><trkpt lat="33.936876712436444" lon="-5.1389466946292535"><ele>482.0</ele><time>2026-04-28T09:30:30.999Z</time></trkpt><trkpt lat="33.936814270919015" lon="-5.139292767492176"><ele>481.0</ele><time>2026-04-28T09:30:31.999Z</time></trkpt><trkpt lat="33.93674707895004" lon="-5.139637749159521"><ele>480.0</ele><time>2026-04-28T09:30:32.999Z</time></trkpt><trkpt lat="33.93667416785072" lon="-5.139983541360106"><ele>480.0</ele><time>2026-04-28T09:30:33.999Z</time></trkpt><trkpt lat="33.93659957564506" lon="-5.140327032487466"><ele>480.0</ele><time>2026-04-28T09:30:34.999Z</time></trkpt><trkpt lat="33.936522543513874" lon="-5.1406672135088565"><ele>481.0</ele><time>2026-04-28T09:30:35.999Z</time></trkpt><trkpt lat="33.93644221970141" lon="-5.141009340983565"><ele>482.0</ele><time>2026-04-28T09:30:36.999Z</time></trkpt><trkpt lat="33.93636046617538" lon="-5.141351309168545"><ele>483.5</ele><time>2026-04-28T09:30:37.999Z</time></trkpt><trkpt lat="33.9362694356683" lon="-5.14169058569116"><ele>485.0</ele><time>2026-04-28T09:30:38.999Z</time></trkpt><trkpt lat="33.93617669668601" lon="-5.142028219089744"><ele>485.0</ele><time>2026-04-28T09:30:39.999Z</time></trkpt><trkpt lat="33.93608169013228" lon="-5.142364575907432"><ele>485.0</ele><time>2026-04-28T09:30:40.999Z</time></trkpt><trkpt lat="33.93598143364378" lon="-5.142701355005712"><ele>484.5</ele><time>2026-04-28T09:30:41.999Z</time></trkpt><trkpt lat="33.93588032075184" lon="-5.143036386882758"><ele>484.0</ele><time>2026-04-28T09:30:42.999Z</time></trkpt><trkpt lat="33.935769994696194" lon="-5.143365482138182"><ele>483.5</ele><time>2026-04-28T09:30:43.999Z</time></trkpt><trkpt lat="33.93565645289398" lon="-5.14369174158688"><ele>483.0</ele><time>2026-04-28T09:30:44.999Z</time></trkpt><trkpt lat="33.935539930729504" lon="-5.144018265293952"><ele>482.5</ele><time>2026-04-28T09:30:45.999Z</time></trkpt><trkpt lat="33.93542128621826" lon="-5.144343765491587"><ele>482.0</ele><time>2026-04-28T09:30:46.999Z</time></trkpt><trkpt lat="33.93530162554158" lon="-5.144668581843567"><ele>483.0</ele><time>2026-04-28T09:30:47.999Z</time></trkpt><trkpt lat="33.93517742946356" lon="-5.144990873153339"><ele>484.0</ele><time>2026-04-28T09:30:48.999Z</time></trkpt><trkpt lat="33.93504869560213" lon="-5.145311124659435"><ele>484.0</ele><time>2026-04-28T09:30:49.999Z</time></trkpt><trkpt lat="33.93491714967486" lon="-5.145627751369434"><ele>484.0</ele><time>2026-04-28T09:30:50.999Z</time></trkpt><trkpt lat="33.934780641057735" lon="-5.145943786683162"><ele>483.5</ele><time>2026-04-28T09:30:51.999Z</time></trkpt><trkpt lat="33.93463913703266" lon="-5.146254973546678"><ele>483.0</ele><time>2026-04-28T09:30:52.999Z</time></trkpt><trkpt lat="33.9344961274773" lon="-5.146567134754297"><ele>482.5</ele><time>2026-04-28T09:30:53.999Z</time></trkpt><trkpt lat="33.93435197807167" lon="-5.146877247262738"><ele>482.0</ele><time>2026-04-28T09:30:54.999Z</time></trkpt><trkpt lat="33.9342067816392" lon="-5.147189065407941"><ele>481.5</ele><time>2026-04-28T09:30:55.999Z</time></trkpt><trkpt lat="33.934059179982654" lon="-5.147499449011096"><ele>481.0</ele><time>2026-04-28T09:30:56.999Z</time></trkpt><trkpt lat="33.93391360933604" lon="-5.147810490077329"><ele>481.0</ele><time>2026-04-28T09:30:57.999Z</time></trkpt><trkpt lat="33.93376433504843" lon="-5.148117955416047"><ele>481.0</ele><time>2026-04-28T09:30:58.999Z</time></trkpt><trkpt lat="33.93361500335952" lon="-5.148426956671623"><ele>482.0</ele><time>2026-04-28T09:30:59.999Z</time></trkpt><trkpt lat="33.93346660023651" lon="-5.148735804976468"><ele>483.0</ele><time>2026-04-28T09:31:00.999Z</time></trkpt><trkpt lat="33.93332041499916" lon="-5.149045424892758"><ele>479.5</ele><time>2026-04-28T09:31:01.999Z</time></trkpt><trkpt lat="33.93317179110633" lon="-5.149354644900899"><ele>476.0</ele><time>2026-04-28T09:31:02.999Z</time></trkpt><trkpt lat="33.9330264334768" lon="-5.149662338668256"><ele>471.5</ele><time>2026-04-28T09:31:03.999Z</time></trkpt><trkpt lat="33.93288320293449" lon="-5.149974183536262"><ele>467.0</ele><time>2026-04-28T09:31:04.999Z</time></trkpt><trkpt lat="33.932742151427945" lon="-5.15028410182491"><ele>467.0</ele><time>2026-04-28T09:31:05.999Z</time></trkpt><trkpt lat="33.932602489849515" lon="-5.1505950306391215"><ele>467.0</ele><time>2026-04-28T09:31:06.999Z</time></trkpt><trkpt lat="33.932465348846755" lon="-5.150907002106535"><ele>467.0</ele><time>2026-04-28T09:31:07.999Z</time></trkpt><trkpt lat="33.93233032036257" lon="-5.151217755713918"><ele>467.0</ele><time>2026-04-28T09:31:08.999Z</time></trkpt><trkpt lat="33.93219697859829" lon="-5.151531643890358"><ele>468.5</ele><time>2026-04-28T09:31:09.999Z</time></trkpt><trkpt lat="33.93206853673169" lon="-5.151847551007358"><ele>470.0</ele><time>2026-04-28T09:31:10.999Z</time></trkpt><trkpt lat="33.931940753166664" lon="-5.1521646328557065"><ele>471.0</ele><time>2026-04-28T09:31:11.999Z</time></trkpt><trkpt lat="33.931815357770894" lon="-5.1524817999406824"><ele>472.0</ele><time>2026-04-28T09:31:12.999Z</time></trkpt><trkpt lat="33.93169103185728" lon="-5.152800170593914"><ele>473.0</ele><time>2026-04-28T09:31:13.999Z</time></trkpt><trkpt lat="33.931570795136864" lon="-5.153119011550154"><ele>474.0</ele><time>2026-04-28T09:31:14.999Z</time></trkpt><trkpt lat="33.93145245711845" lon="-5.153436423731551"><ele>474.0</ele><time>2026-04-28T09:31:15.999Z</time></trkpt><trkpt lat="33.93133683251595" lon="-5.1537581504398"><ele>474.0</ele><time>2026-04-28T09:31:16.999Z</time></trkpt><trkpt lat="33.93122289184743" lon="-5.154077864347014"><ele>473.5</ele><time>2026-04-28T09:31:17.999Z</time></trkpt><trkpt lat="33.931111997772526" lon="-5.154399768293532"><ele>473.0</ele><time>2026-04-28T09:31:18.999Z</time></trkpt><trkpt lat="33.9310055806275" lon="-5.154723174802554"><ele>473.0</ele><time>2026-04-28T09:31:19.999Z</time></trkpt><trkpt lat="33.9308993092784" lon="-5.155045330034845"><ele>473.0</ele><time>2026-04-28T09:31:20.999Z</time></trkpt><trkpt lat="33.930788802273746" lon="-5.155366423108983"><ele>474.5</ele><time>2026-04-28T09:31:21.999Z</time></trkpt><trkpt lat="33.9306810381235" lon="-5.155686601889506"><ele>476.0</ele><time>2026-04-28T09:31:22.999Z</time></trkpt><trkpt lat="33.93058193106897" lon="-5.1560106594438295"><ele>476.0</ele><time>2026-04-28T09:31:23.999Z</time></trkpt><trkpt lat="33.93047766327245" lon="-5.15633301001899"><ele>476.0</ele><time>2026-04-28T09:31:24.999Z</time></trkpt><trkpt lat="33.93037892628068" lon="-5.156657561990826"><ele>475.5</ele><time>2026-04-28T09:31:25.999Z</time></trkpt><trkpt lat="33.930279224002696" lon="-5.156982364809301"><ele>475.0</ele><time>2026-04-28T09:31:26.999Z</time></trkpt><trkpt lat="33.93018721356274" lon="-5.1573107151315565"><ele>475.5</ele><time>2026-04-28T09:31:27.999Z</time></trkpt><trkpt lat="33.93009964333293" lon="-5.157641779931655"><ele>476.0</ele><time>2026-04-28T09:31:29Z</time></trkpt><trkpt lat="33.93001276141556" lon="-5.1579734256480085"><ele>477.5</ele><time>2026-04-28T09:31:30Z</time></trkpt><trkpt lat="33.929926835205436" lon="-5.158304237066218"><ele>479.0</ele><time>2026-04-28T09:31:31Z</time></trkpt><trkpt lat="33.929839664495375" lon="-5.158633217292133"><ele>479.0</ele><time>2026-04-28T09:31:32Z</time></trkpt><trkpt lat="33.92975490364628" lon="-5.158959588466763"><ele>479.0</ele><time>2026-04-28T09:31:33Z</time></trkpt><trkpt lat="33.92967748431568" lon="-5.159294126271223"><ele>478.0</ele><time>2026-04-28T09:31:34Z</time></trkpt><trkpt lat="33.92960165629093" lon="-5.159627152959556"><ele>477.0</ele><time>2026-04-28T09:31:35Z</time></trkpt><trkpt lat="33.92953027757911" lon="-5.159964517076108"><ele>476.5</ele><time>2026-04-28T09:31:36Z</time></trkpt><trkpt lat="33.929457826434394" lon="-5.160300502674698"><ele>476.0</ele><time>2026-04-28T09:31:37Z</time></trkpt><trkpt lat="33.929387507526094" lon="-5.1606374021572785"><ele>475.5</ele><time>2026-04-28T09:31:38Z</time></trkpt><trkpt lat="33.92932070293127" lon="-5.160973365957554"><ele>475.0</ele><time>2026-04-28T09:31:39Z</time></trkpt><trkpt lat="33.92925363565576" lon="-5.1613106582809705"><ele>477.0</ele><time>2026-04-28T09:31:40Z</time></trkpt><trkpt lat="33.929188364299456" lon="-5.1616503838077135"><ele>479.0</ele><time>2026-04-28T09:31:41Z</time></trkpt><trkpt lat="33.92912247467062" lon="-5.161991197625421"><ele>479.0</ele><time>2026-04-28T09:31:42Z</time></trkpt><trkpt lat="33.92906170019216" lon="-5.162335507859861"><ele>479.0</ele><time>2026-04-28T09:31:43Z</time></trkpt><trkpt lat="33.92900352471182" lon="-5.162681717382922"><ele>479.0</ele><time>2026-04-28T09:31:44Z</time></trkpt><trkpt lat="33.928945897036435" lon="-5.16302452415735"><ele>479.0</ele><time>2026-04-28T09:31:45Z</time></trkpt><trkpt lat="33.9288880507935" lon="-5.163366539149691"><ele>479.5</ele><time>2026-04-28T09:31:46Z</time></trkpt><trkpt lat="33.928829676417976" lon="-5.163704025146318"><ele>480.0</ele><time>2026-04-28T09:31:47Z</time></trkpt><trkpt lat="33.928769781505785" lon="-5.164040616168329"><ele>480.5</ele><time>2026-04-28T09:31:48Z</time></trkpt><trkpt lat="33.92871417808318" lon="-5.164378399013972"><ele>481.0</ele><time>2026-04-28T09:31:49Z</time></trkpt><trkpt lat="33.928658248875635" lon="-5.164715471046042"><ele>482.5</ele><time>2026-04-28T09:31:50Z</time></trkpt><trkpt lat="33.928589650798735" lon="-5.165050044183304"><ele>484.0</ele><time>2026-04-28T09:31:51Z</time></trkpt><trkpt lat="33.92851487814354" lon="-5.165385752396025"><ele>485.0</ele><time>2026-04-28T09:31:52Z</time></trkpt><trkpt lat="33.92843211401688" lon="-5.165716630169376"><ele>486.0</ele><time>2026-04-28T09:31:53Z</time></trkpt><trkpt lat="33.92834529892708" lon="-5.166040637634495"><ele>486.5</ele><time>2026-04-28T09:31:54Z</time></trkpt><trkpt lat="33.928251389276106" lon="-5.16636133694973"><ele>487.0</ele><time>2026-04-28T09:31:55Z</time></trkpt><trkpt lat="33.9281547702552" lon="-5.166681688761875"><ele>487.5</ele><time>2026-04-28T09:31:56Z</time></trkpt><trkpt lat="33.92805941181287" lon="-5.167004112561688"><ele>488.0</ele><time>2026-04-28T09:31:57Z</time></trkpt><trkpt lat="33.9279578174282" lon="-5.1673267938172875"><ele>488.0</ele><time>2026-04-28T09:31:58Z</time></trkpt><trkpt lat="33.92784822535342" lon="-5.167644142920738"><ele>488.0</ele><time>2026-04-28T09:31:59Z</time></trkpt><trkpt lat="33.927742217529705" lon="-5.16796188074702"><ele>488.5</ele><time>2026-04-28T09:32:00Z</time></trkpt><trkpt lat="33.927634447660054" lon="-5.168283225853812"><ele>489.0</ele><time>2026-04-28T09:32:01Z</time></trkpt><trkpt lat="33.92751854523819" lon="-5.168597108394394"><ele>489.0</ele><time>2026-04-28T09:32:02Z</time></trkpt><trkpt lat="33.92739584408161" lon="-5.168907923679602"><ele>489.0</ele><time>2026-04-28T09:32:03Z</time></trkpt><trkpt lat="33.92726792884356" lon="-5.1692137698813925"><ele>489.0</ele><time>2026-04-28T09:32:04Z</time></trkpt><trkpt lat="33.927143256577565" lon="-5.169522704247522"><ele>489.0</ele><time>2026-04-28T09:32:05Z</time></trkpt><trkpt lat="33.92701170638133" lon="-5.169828987481532"><ele>489.5</ele><time>2026-04-28T09:32:06Z</time></trkpt><trkpt lat="33.92687476879211" lon="-5.17013165451271"><ele>490.0</ele><time>2026-04-28T09:32:07Z</time></trkpt><trkpt lat="33.926725425613085" lon="-5.170427177529097"><ele>489.0</ele><time>2026-04-28T09:32:08Z</time></trkpt><trkpt lat="33.92658092090245" lon="-5.17072717052138"><ele>488.0</ele><time>2026-04-28T09:32:09Z</time></trkpt><trkpt lat="33.926431675454005" lon="-5.171027199990545"><ele>488.0</ele><time>2026-04-28T09:32:10Z</time></trkpt><trkpt lat="33.926276765079606" lon="-5.171319475663034"><ele>488.0</ele><time>2026-04-28T09:32:11Z</time></trkpt><trkpt lat="33.92611860757441" lon="-5.1716049520876615"><ele>489.5</ele><time>2026-04-28T09:32:12Z</time></trkpt><trkpt lat="33.925951709734136" lon="-5.171885536388146"><ele>491.0</ele><time>2026-04-28T09:32:13Z</time></trkpt><trkpt lat="33.925785178649924" lon="-5.172163968782478"><ele>491.5</ele><time>2026-04-28T09:32:14Z</time></trkpt><trkpt lat="33.925615320631955" lon="-5.172441670796558"><ele>492.0</ele><time>2026-04-28T09:32:15Z</time></trkpt><trkpt lat="33.92544886497223" lon="-5.1727182641237155"><ele>492.0</ele><time>2026-04-28T09:32:16Z</time></trkpt><trkpt lat="33.92527441054012" lon="-5.1729940533753975"><ele>492.0</ele><time>2026-04-28T09:32:17Z</time></trkpt><trkpt lat="33.92509675857288" lon="-5.173258791304539"><ele>493.0</ele><time>2026-04-28T09:32:18Z</time></trkpt><trkpt lat="33.9249253289528" lon="-5.173501155385175"><ele>494.0</ele><time>2026-04-28T09:32:19Z</time></trkpt><trkpt lat="33.9247437981512" lon="-5.173751043951724"><ele>494.0</ele><time>2026-04-28T09:32:20Z</time></trkpt><trkpt lat="33.92455452707217" lon="-5.174005926742427"><ele>494.0</ele><time>2026-04-28T09:32:20.999Z</time></trkpt><trkpt lat="33.92435958755188" lon="-5.174261257771465"><ele>495.5</ele><time>2026-04-28T09:32:21.999Z</time></trkpt><trkpt lat="33.92416020173865" lon="-5.174515947404138"><ele>497.0</ele><time>2026-04-28T09:32:22.999Z</time></trkpt><trkpt lat="33.923957200421334" lon="-5.174769630063729"><ele>497.0</ele><time>2026-04-28T09:32:23.999Z</time></trkpt><trkpt lat="33.92374902250721" lon="-5.175021298977759"><ele>497.0</ele><time>2026-04-28T09:32:24.999Z</time></trkpt><trkpt lat="33.92353687627359" lon="-5.175268276839442"><ele>497.5</ele><time>2026-04-28T09:32:25.999Z</time></trkpt><trkpt lat="33.9233212121109" lon="-5.175510443613556"><ele>498.0</ele><time>2026-04-28T09:32:26.999Z</time></trkpt><trkpt lat="33.92310166298635" lon="-5.175747691370186"><ele>497.0</ele><time>2026-04-28T09:32:27.999Z</time></trkpt><trkpt lat="33.922879120699086" lon="-5.175981027120321"><ele>496.0</ele><time>2026-04-28T09:32:28.999Z</time></trkpt><trkpt lat="33.92265245406731" lon="-5.176208637999665"><ele>496.5</ele><time>2026-04-28T09:32:29.999Z</time></trkpt><trkpt lat="33.92242359323004" lon="-5.176431926525021"><ele>497.0</ele><time>2026-04-28T09:32:30.999Z</time></trkpt><trkpt lat="33.9221923007228" lon="-5.17665205992318"><ele>497.0</ele><time>2026-04-28T09:32:31.999Z</time></trkpt><trkpt lat="33.92195803758628" lon="-5.176870985290555"><ele>497.0</ele><time>2026-04-28T09:32:32.999Z</time></trkpt><trkpt lat="33.92171947364391" lon="-5.17708536681128"><ele>497.0</ele><time>2026-04-28T09:32:33.999Z</time></trkpt><trkpt lat="33.92147798039898" lon="-5.177294333127672"><ele>497.0</ele><time>2026-04-28T09:32:34.999Z</time></trkpt><trkpt lat="33.921235073438254" lon="-5.177498041945475"><ele>497.0</ele><time>2026-04-28T09:32:35.999Z</time></trkpt><trkpt lat="33.92098868390068" lon="-5.1776985102850706"><ele>497.0</ele><time>2026-04-28T09:32:36.999Z</time></trkpt><trkpt lat="33.920739741610504" lon="-5.177892054124842"><ele>498.0</ele><time>2026-04-28T09:32:37.999Z</time></trkpt><trkpt lat="33.92048741741075" lon="-5.178077679240219"><ele>499.0</ele><time>2026-04-28T09:32:38.999Z</time></trkpt><trkpt lat="33.92023361110662" lon="-5.178260307674184"><ele>500.5</ele><time>2026-04-28T09:32:39.999Z</time></trkpt><trkpt lat="33.91997834975431" lon="-5.1784378052339"><ele>502.0</ele><time>2026-04-28T09:32:40.999Z</time></trkpt><trkpt lat="33.91972167711868" lon="-5.178613207382161"><ele>502.0</ele><time>2026-04-28T09:32:41.999Z</time></trkpt><trkpt lat="33.91946706665108" lon="-5.178789456093356"><ele>502.0</ele><time>2026-04-28T09:32:42.999Z</time></trkpt><trkpt lat="33.919216536218975" lon="-5.178970953991744"><ele>502.0</ele><time>2026-04-28T09:32:43.999Z</time></trkpt><trkpt lat="33.91896751359639" lon="-5.179150975190557"><ele>502.0</ele><time>2026-04-28T09:32:44.999Z</time></trkpt><trkpt lat="33.91871733919631" lon="-5.179326238591142"><ele>502.0</ele><time>2026-04-28T09:32:45.999Z</time></trkpt><trkpt lat="33.91846642861392" lon="-5.179497466813236"><ele>502.0</ele><time>2026-04-28T09:32:46.999Z</time></trkpt><trkpt lat="33.91821875200913" lon="-5.179669512243227"><ele>503.5</ele><time>2026-04-28T09:32:47.999Z</time></trkpt><trkpt lat="33.91796937313658" lon="-5.17983612734956"><ele>505.0</ele><time>2026-04-28T09:32:48.999Z</time></trkpt><trkpt lat="33.917724395031726" lon="-5.180006655641418"><ele>506.0</ele><time>2026-04-28T09:32:49.999Z</time></trkpt><trkpt lat="33.91748022007001" lon="-5.180175708436772"><ele>507.0</ele><time>2026-04-28T09:32:50.999Z</time></trkpt><trkpt lat="33.91723712136207" lon="-5.180341797038025"><ele>507.0</ele><time>2026-04-28T09:32:51.999Z</time></trkpt><trkpt lat="33.916995642218176" lon="-5.1805066746783215"><ele>507.0</ele><time>2026-04-28T09:32:52.999Z</time></trkpt><trkpt lat="33.91675660425726" lon="-5.180673729396083"><ele>507.0</ele><time>2026-04-28T09:32:53.999Z</time></trkpt><trkpt lat="33.91652058770264" lon="-5.18084287948036"><ele>507.0</ele><time>2026-04-28T09:32:54.999Z</time></trkpt><trkpt lat="33.916286078005086" lon="-5.181011700432853"><ele>507.0</ele><time>2026-04-28T09:32:55.999Z</time></trkpt><trkpt lat="33.91605152635369" lon="-5.181176973916526"><ele>507.0</ele><time>2026-04-28T09:32:56.999Z</time></trkpt><trkpt lat="33.915817059005356" lon="-5.181342617938857"><ele>507.5</ele><time>2026-04-28T09:32:57.999Z</time></trkpt><trkpt lat="33.91558281394822" lon="-5.181506394060504"><ele>508.0</ele><time>2026-04-28T09:32:58.999Z</time></trkpt><trkpt lat="33.91534826250638" lon="-5.181668197481936"><ele>508.0</ele><time>2026-04-28T09:32:59.999Z</time></trkpt><trkpt lat="33.91511319821672" lon="-5.181826127303607"><ele>508.0</ele><time>2026-04-28T09:33:00.999Z</time></trkpt><trkpt lat="33.914867779871415" lon="-5.181993558080049"><ele>509.5</ele><time>2026-04-28T09:33:01.999Z</time></trkpt><trkpt lat="33.9146178881179" lon="-5.182180116091945"><ele>511.0</ele><time>2026-04-28T09:33:02.999Z</time></trkpt><trkpt lat="33.914359393352775" lon="-5.182361897890461"><ele>512.5</ele><time>2026-04-28T09:33:03.999Z</time></trkpt><trkpt lat="33.9140972479517" lon="-5.182540596765488"><ele>514.0</ele><time>2026-04-28T09:33:04.999Z</time></trkpt><trkpt lat="33.913835182677225" lon="-5.182721373788106"><ele>514.0</ele><time>2026-04-28T09:33:05.999Z</time></trkpt><trkpt lat="33.91357207353593" lon="-5.1828997558158605"><ele>514.0</ele><time>2026-04-28T09:33:06.999Z</time></trkpt><trkpt lat="33.91330820084419" lon="-5.183075558983585"><ele>515.5</ele><time>2026-04-28T09:33:07.999Z</time></trkpt><trkpt lat="33.913054516184474" lon="-5.1832499196576975"><ele>517.0</ele><time>2026-04-28T09:33:08.999Z</time></trkpt><trkpt lat="33.912787793343625" lon="-5.183429255179039"><ele>518.0</ele><time>2026-04-28T09:33:09.999Z</time></trkpt><trkpt lat="33.91253333164251" lon="-5.183614762575049"><ele>519.0</ele><time>2026-04-28T09:33:10.999Z</time></trkpt><trkpt lat="33.91227294604624" lon="-5.183800451704318"><ele>519.0</ele><time>2026-04-28T09:33:11.999Z</time></trkpt><trkpt lat="33.91200818818547" lon="-5.1839812548663655"><ele>519.0</ele><time>2026-04-28T09:33:12.999Z</time></trkpt><trkpt lat="33.911741509338945" lon="-5.184160577312245"><ele>520.5</ele><time>2026-04-28T09:33:13.999Z</time></trkpt><trkpt lat="33.9114751542474" lon="-5.1843426303851645"><ele>522.0</ele><time>2026-04-28T09:33:14.999Z</time></trkpt><trkpt lat="33.9112095351725" lon="-5.184526144959696"><ele>522.0</ele><time>2026-04-28T09:33:15.999Z</time></trkpt><trkpt lat="33.91094373214961" lon="-5.184709220270465"><ele>522.0</ele><time>2026-04-28T09:33:16.999Z</time></trkpt><trkpt lat="33.910677734375355" lon="-5.1848922780606514"><ele>523.0</ele><time>2026-04-28T09:33:17.999Z</time></trkpt><trkpt lat="33.910412438302465" lon="-5.185073241520577"><ele>524.0</ele><time>2026-04-28T09:33:18.999Z</time></trkpt><trkpt lat="33.910146846047525" lon="-5.18525443493898"><ele>526.0</ele><time>2026-04-28T09:33:19.999Z</time></trkpt><trkpt lat="33.90988283619175" lon="-5.185435703224829"><ele>528.0</ele><time>2026-04-28T09:33:20.999Z</time></trkpt><trkpt lat="33.909622823982865" lon="-5.185622140748864"><ele>527.5</ele><time>2026-04-28T09:33:21.999Z</time></trkpt><trkpt lat="33.90936691150943" lon="-5.185813261551491"><ele>527.0</ele><time>2026-04-28T09:33:22.999Z</time></trkpt><trkpt lat="33.90911571651875" lon="-5.186007964143374"><ele>528.5</ele><time>2026-04-28T09:33:23.999Z</time></trkpt><trkpt lat="33.90886868781365" lon="-5.186205455637477"><ele>530.0</ele><time>2026-04-28T09:33:24.999Z</time></trkpt><trkpt lat="33.90862348819226" lon="-5.186402974982483"><ele>530.5</ele><time>2026-04-28T09:33:25.999Z</time></trkpt><trkpt lat="33.90837974462314" lon="-5.1866055389350105"><ele>531.0</ele><time>2026-04-28T09:33:26.999Z</time></trkpt><trkpt lat="33.90813860559506" lon="-5.186814404118802"><ele>531.0</ele><time>2026-04-28T09:33:27.999Z</time></trkpt><trkpt lat="33.907899168234025" lon="-5.187030829027841"><ele>531.0</ele><time>2026-04-28T09:33:28.999Z</time></trkpt><trkpt lat="33.90766236894438" lon="-5.187250682458616"><ele>532.5</ele><time>2026-04-28T09:33:29.999Z</time></trkpt><trkpt lat="33.907427824732274" lon="-5.18747732400522"><ele>534.0</ele><time>2026-04-28T09:33:30.999Z</time></trkpt><trkpt lat="33.90719755784985" lon="-5.187709984879671"><ele>534.0</ele><time>2026-04-28T09:33:31.999Z</time></trkpt><trkpt lat="33.90696976894723" lon="-5.187945076352644"><ele>534.0</ele><time>2026-04-28T09:33:32.999Z</time></trkpt><trkpt lat="33.906742364139845" lon="-5.1881823277026164"><ele>535.5</ele><time>2026-04-28T09:33:33.999Z</time></trkpt><trkpt lat="33.906515745336954" lon="-5.188420703353253"><ele>537.0</ele><time>2026-04-28T09:33:35Z</time></trkpt><trkpt lat="33.90629121314385" lon="-5.188663643853205"><ele>537.0</ele><time>2026-04-28T09:33:36Z</time></trkpt><trkpt lat="33.90606909008303" lon="-5.1889093868726635"><ele>537.0</ele><time>2026-04-28T09:33:37Z</time></trkpt><trkpt lat="33.90585005041791" lon="-5.189157284704383"><ele>536.0</ele><time>2026-04-28T09:33:38Z</time></trkpt><trkpt lat="33.90563558297636" lon="-5.1894128313543035"><ele>535.0</ele><time>2026-04-28T09:33:39Z</time></trkpt><trkpt lat="33.90542350040818" lon="-5.189672430259188"><ele>535.0</ele><time>2026-04-28T09:33:40Z</time></trkpt><trkpt lat="33.90521022431831" lon="-5.189931355316357"><ele>535.0</ele><time>2026-04-28T09:33:41Z</time></trkpt><trkpt lat="33.90500000918134" lon="-5.190192157984242"><ele>536.0</ele><time>2026-04-28T09:33:42Z</time></trkpt><trkpt lat="33.904793130601796" lon="-5.190457143527177"><ele>537.0</ele><time>2026-04-28T09:33:43Z</time></trkpt><trkpt lat="33.904591035289656" lon="-5.190726575578297"><ele>539.0</ele><time>2026-04-28T09:33:44Z</time></trkpt><trkpt lat="33.90439275125728" lon="-5.191000195484834"><ele>541.0</ele><time>2026-04-28T09:33:45Z</time></trkpt><trkpt lat="33.9041981189558" lon="-5.191275471085654"><ele>544.5</ele><time>2026-04-28T09:33:46Z</time></trkpt><trkpt lat="33.9040049423862" lon="-5.191552167440465"><ele>548.0</ele><time>2026-04-28T09:33:47Z</time></trkpt><trkpt lat="33.903812970473645" lon="-5.191829873146873"><ele>548.0</ele><time>2026-04-28T09:33:48Z</time></trkpt><trkpt lat="33.90362499709444" lon="-5.192111487242724"><ele>548.0</ele><time>2026-04-28T09:33:49Z</time></trkpt><trkpt lat="33.9034400631434" lon="-5.192397265136992"><ele>548.5</ele><time>2026-04-28T09:33:50Z</time></trkpt><trkpt lat="33.903258265241924" lon="-5.192685944382801"><ele>549.0</ele><time>2026-04-28T09:33:51Z</time></trkpt><trkpt lat="33.90308095143619" lon="-5.192978411773779"><ele>549.0</ele><time>2026-04-28T09:33:52Z</time></trkpt><trkpt lat="33.902909010994144" lon="-5.19327583391709"><ele>549.0</ele><time>2026-04-28T09:33:53Z</time></trkpt><trkpt lat="33.902739768951825" lon="-5.193575759562335"><ele>550.0</ele><time>2026-04-28T09:33:54Z</time></trkpt><trkpt lat="33.90257191347186" lon="-5.193878476160199"><ele>551.0</ele><time>2026-04-28T09:33:55Z</time></trkpt><trkpt lat="33.90240793915574" lon="-5.1941840695503325"><ele>552.0</ele><time>2026-04-28T09:33:56Z</time></trkpt><trkpt lat="33.902247264127794" lon="-5.1944917842176785"><ele>553.0</ele><time>2026-04-28T09:33:57Z</time></trkpt><trkpt lat="33.90208951531076" lon="-5.194803092811886"><ele>552.5</ele><time>2026-04-28T09:33:58Z</time></trkpt><trkpt lat="33.901935031508124" lon="-5.195115903678138"><ele>552.0</ele><time>2026-04-28T09:33:59Z</time></trkpt><trkpt lat="33.90178258331408" lon="-5.195431488889236"><ele>554.0</ele><time>2026-04-28T09:34:00Z</time></trkpt><trkpt lat="33.901634521445224" lon="-5.195745529104918"><ele>556.0</ele><time>2026-04-28T09:34:01Z</time></trkpt><trkpt lat="33.90149312397411" lon="-5.196053000377285"><ele>556.0</ele><time>2026-04-28T09:34:02Z</time></trkpt><trkpt lat="33.90135891094754" lon="-5.196357928692022"><ele>556.0</ele><time>2026-04-28T09:34:03Z</time></trkpt><trkpt lat="33.90122979006047" lon="-5.196662623067243"><ele>555.0</ele><time>2026-04-28T09:34:04Z</time></trkpt><trkpt lat="33.901104477571046" lon="-5.196968277347216"><ele>554.0</ele><time>2026-04-28T09:34:05Z</time></trkpt><trkpt lat="33.90098307296668" lon="-5.197272431548281"><ele>554.5</ele><time>2026-04-28T09:34:06Z</time></trkpt><trkpt lat="33.90086606995482" lon="-5.197575240908325"><ele>555.0</ele><time>2026-04-28T09:34:07Z</time></trkpt><trkpt lat="33.900753401365066" lon="-5.197878151104387"><ele>555.0</ele><time>2026-04-28T09:34:08Z</time></trkpt><trkpt lat="33.9006444251552" lon="-5.1981811515650165"><ele>555.0</ele><time>2026-04-28T09:34:09Z</time></trkpt><trkpt lat="33.90054060117114" lon="-5.198484221813337"><ele>555.0</ele><time>2026-04-28T09:34:10Z</time></trkpt><trkpt lat="33.900437078859" lon="-5.198785550957033"><ele>555.0</ele><time>2026-04-28T09:34:11Z</time></trkpt><trkpt lat="33.9003416614204" lon="-5.199086176042286"><ele>554.0</ele><time>2026-04-28T09:34:12Z</time></trkpt><trkpt lat="33.9002555480406" lon="-5.199386139459026"><ele>553.0</ele><time>2026-04-28T09:34:13Z</time></trkpt><trkpt lat="33.90016924694227" lon="-5.1996826593002305"><ele>555.0</ele><time>2026-04-28T09:34:14Z</time></trkpt><trkpt lat="33.90007791896248" lon="-5.19998415458466"><ele>557.0</ele><time>2026-04-28T09:34:15Z</time></trkpt><trkpt lat="33.8999815059096" lon="-5.200297466573821"><ele>557.0</ele><time>2026-04-28T09:34:16Z</time></trkpt><trkpt lat="33.89988430171226" lon="-5.200621212060918"><ele>557.0</ele><time>2026-04-28T09:34:17Z</time></trkpt><trkpt lat="33.89978958769393" lon="-5.200951774714456"><ele>556.0</ele><time>2026-04-28T09:34:18Z</time></trkpt><trkpt lat="33.89969615241242" lon="-5.201287349171662"><ele>555.0</ele><time>2026-04-28T09:34:19Z</time></trkpt><trkpt lat="33.899604044314216" lon="-5.201625252195737"><ele>555.0</ele><time>2026-04-28T09:34:20Z</time></trkpt><trkpt lat="33.899509705463686" lon="-5.201964543642869"><ele>555.0</ele><time>2026-04-28T09:34:21Z</time></trkpt><trkpt lat="33.899413144451444" lon="-5.202304444264419"><ele>554.5</ele><time>2026-04-28T09:34:22Z</time></trkpt><trkpt lat="33.8993204288872" lon="-5.20264537758536"><ele>554.0</ele><time>2026-04-28T09:34:23Z</time></trkpt><trkpt lat="33.899227062617314" lon="-5.202988521202981"><ele>555.0</ele><time>2026-04-28T09:34:23.999Z</time></trkpt><trkpt lat="33.89913239016962" lon="-5.203334240550708"><ele>556.0</ele><time>2026-04-28T09:34:24.999Z</time></trkpt><trkpt lat="33.89903740452445" lon="-5.203678931594312"><ele>554.5</ele><time>2026-04-28T09:34:25.999Z</time></trkpt><trkpt lat="33.8989441112956" lon="-5.204025599966724"><ele>553.0</ele><time>2026-04-28T09:34:26.999Z</time></trkpt><trkpt lat="33.89885036568053" lon="-5.204372695435311"><ele>553.0</ele><time>2026-04-28T09:34:27.999Z</time></trkpt><trkpt lat="33.8987562243012" lon="-5.204719535600053"><ele>553.0</ele><time>2026-04-28T09:34:28.999Z</time></trkpt><trkpt lat="33.89866067264769" lon="-5.205067840814255"><ele>553.5</ele><time>2026-04-28T09:34:29.999Z</time></trkpt><trkpt lat="33.89856444675512" lon="-5.205413483473177"><ele>554.0</ele><time>2026-04-28T09:34:30.999Z</time></trkpt><trkpt lat="33.89846941510609" lon="-5.205758090962048"><ele>555.5</ele><time>2026-04-28T09:34:31.999Z</time></trkpt><trkpt lat="33.8983748606431" lon="-5.206105064349213"><ele>557.0</ele><time>2026-04-28T09:34:32.999Z</time></trkpt><trkpt lat="33.89828150736623" lon="-5.206451254321615"><ele>556.5</ele><time>2026-04-28T09:34:33.999Z</time></trkpt><trkpt lat="33.89818717534724" lon="-5.206796494759463"><ele>556.0</ele><time>2026-04-28T09:34:34.999Z</time></trkpt><trkpt lat="33.89809141265863" lon="-5.207139667503415"><ele>556.5</ele><time>2026-04-28T09:34:35.999Z</time></trkpt><trkpt lat="33.89799440299982" lon="-5.207482533830426"><ele>557.0</ele><time>2026-04-28T09:34:36.999Z</time></trkpt><trkpt lat="33.897896003098644" lon="-5.207826486094296"><ele>557.0</ele><time>2026-04-28T09:34:37.999Z</time></trkpt><trkpt lat="33.89779345442993" lon="-5.208167296739748"><ele>557.0</ele><time>2026-04-28T09:34:38.999Z</time></trkpt><trkpt lat="33.897695535929074" lon="-5.208509987963277"><ele>557.0</ele><time>2026-04-28T09:34:39.999Z</time></trkpt><trkpt lat="33.89759946848866" lon="-5.208852160493656"><ele>557.0</ele><time>2026-04-28T09:34:40.999Z</time></trkpt><trkpt lat="33.897506429898904" lon="-5.209194839020611"><ele>559.0</ele><time>2026-04-28T09:34:41.999Z</time></trkpt><trkpt lat="33.8974135364101" lon="-5.209537781055572"><ele>561.0</ele><time>2026-04-28T09:34:42.999Z</time></trkpt><trkpt lat="33.89731700079866" lon="-5.209879058407676"><ele>561.0</ele><time>2026-04-28T09:34:43.999Z</time></trkpt><trkpt lat="33.89721774052603" lon="-5.210219335731552"><ele>561.0</ele><time>2026-04-28T09:34:44.999Z</time></trkpt><trkpt lat="33.89711883776453" lon="-5.210558542664841"><ele>562.0</ele><time>2026-04-28T09:34:45.999Z</time></trkpt><trkpt lat="33.897020624770605" lon="-5.2108993649874185"><ele>563.0</ele><time>2026-04-28T09:34:46.999Z</time></trkpt><trkpt lat="33.89692221679316" lon="-5.211240714916379"><ele>564.5</ele><time>2026-04-28T09:34:47.999Z</time></trkpt><trkpt lat="33.89682509555066" lon="-5.211581983749891"><ele>566.0</ele><time>2026-04-28T09:34:48.999Z</time></trkpt><trkpt lat="33.89673034431566" lon="-5.211924921835005"><ele>566.0</ele><time>2026-04-28T09:34:49.999Z</time></trkpt><trkpt lat="33.896633421103026" lon="-5.212268367074353"><ele>566.0</ele><time>2026-04-28T09:34:50.999Z</time></trkpt><trkpt lat="33.89653616277589" lon="-5.212610573832907"><ele>567.0</ele><time>2026-04-28T09:34:51.999Z</time></trkpt><trkpt lat="33.896438171868816" lon="-5.212955442451929"><ele>568.0</ele><time>2026-04-28T09:34:52.999Z</time></trkpt><trkpt lat="33.89634309560288" lon="-5.2132967273335655"><ele>569.0</ele><time>2026-04-28T09:34:53.999Z</time></trkpt><trkpt lat="33.896243487677694" lon="-5.213640119151287"><ele>570.0</ele><time>2026-04-28T09:34:54.999Z</time></trkpt><trkpt lat="33.89614184066947" lon="-5.213981167524187"><ele>573.0</ele><time>2026-04-28T09:34:55.999Z</time></trkpt><trkpt lat="33.89603879952406" lon="-5.21432139172202"><ele>576.0</ele><time>2026-04-28T09:34:56.999Z</time></trkpt><trkpt lat="33.895928123637326" lon="-5.214659276699745"><ele>577.5</ele><time>2026-04-28T09:34:57.999Z</time></trkpt><trkpt lat="33.895810246896886" lon="-5.214988836278315"><ele>579.0</ele><time>2026-04-28T09:34:58.999Z</time></trkpt><trkpt lat="33.89570240673549" lon="-5.215325419258022"><ele>581.5</ele><time>2026-04-28T09:34:59.999Z</time></trkpt><trkpt lat="33.8955833793758" lon="-5.215654585114307"><ele>584.0</ele><time>2026-04-28T09:35:00.999Z</time></trkpt><trkpt lat="33.89545830001447" lon="-5.215979834680205"><ele>584.0</ele><time>2026-04-28T09:35:01.999Z</time></trkpt><trkpt lat="33.895326500115694" lon="-5.216300411011691"><ele>584.0</ele><time>2026-04-28T09:35:02.999Z</time></trkpt><trkpt lat="33.89518790177237" lon="-5.216617867519695"><ele>585.0</ele><time>2026-04-28T09:35:03.999Z</time></trkpt><trkpt lat="33.89504441507393" lon="-5.216932391512587"><ele>586.0</ele><time>2026-04-28T09:35:04.999Z</time></trkpt><trkpt lat="33.89489813285799" lon="-5.217244842060535"><ele>588.5</ele><time>2026-04-28T09:35:05.999Z</time></trkpt><trkpt lat="33.8947472408444" lon="-5.217555654933256"><ele>591.0</ele><time>2026-04-28T09:35:06.999Z</time></trkpt><trkpt lat="33.89459234991107" lon="-5.2178644356824755"><ele>593.0</ele><time>2026-04-28T09:35:07.999Z</time></trkpt><trkpt lat="33.89443229452563" lon="-5.218170057048187"><ele>595.0</ele><time>2026-04-28T09:35:08.999Z</time></trkpt><trkpt lat="33.89426531408417" lon="-5.218472375771321"><ele>595.5</ele><time>2026-04-28T09:35:09.999Z</time></trkpt><trkpt lat="33.89409355145704" lon="-5.218770679140206"><ele>596.0</ele><time>2026-04-28T09:35:10.999Z</time></trkpt><trkpt lat="33.89391674176495" lon="-5.219064489215531"><ele>596.0</ele><time>2026-04-28T09:35:11.999Z</time></trkpt><trkpt lat="33.89373329958746" lon="-5.219352683053522"><ele>596.0</ele><time>2026-04-28T09:35:12.999Z</time></trkpt><trkpt lat="33.89354467774677" lon="-5.219636122558686"><ele>596.5</ele><time>2026-04-28T09:35:13.999Z</time></trkpt><trkpt lat="33.8933527703854" lon="-5.219913812957434"><ele>597.0</ele><time>2026-04-28T09:35:14.999Z</time></trkpt><trkpt lat="33.89316229757007" lon="-5.2201768782612"><ele>597.0</ele><time>2026-04-28T09:35:15.999Z</time></trkpt><trkpt lat="33.89297636625282" lon="-5.220424265814725"><ele>597.0</ele><time>2026-04-28T09:35:16.999Z</time></trkpt><trkpt lat="33.8927921795854" lon="-5.220664643531513"><ele>599.0</ele><time>2026-04-28T09:35:17.999Z</time></trkpt><trkpt lat="33.89260019645931" lon="-5.220911481018184"><ele>601.0</ele><time>2026-04-28T09:35:18.999Z</time></trkpt><trkpt lat="33.89239928803076" lon="-5.221163405114251"><ele>602.0</ele><time>2026-04-28T09:35:19.999Z</time></trkpt><trkpt lat="33.8921918966984" lon="-5.2214133886846"><ele>603.0</ele><time>2026-04-28T09:35:20.999Z</time></trkpt><trkpt lat="33.89198031978247" lon="-5.221663080380108"><ele>605.0</ele><time>2026-04-28T09:35:21.999Z</time></trkpt><trkpt lat="33.891766154451226" lon="-5.221909926247395"><ele>607.0</ele><time>2026-04-28T09:35:22.999Z</time></trkpt><trkpt lat="33.89154961860168" lon="-5.2221546431344334"><ele>614.5</ele><time>2026-04-28T09:35:23.999Z</time></trkpt><trkpt lat="33.89132942313129" lon="-5.222395217297627"><ele>622.0</ele><time>2026-04-28T09:35:24.999Z</time></trkpt><trkpt lat="33.891108041682294" lon="-5.222632707709462"><ele>620.0</ele><time>2026-04-28T09:35:25.999Z</time></trkpt><trkpt lat="33.89088512124068" lon="-5.222872890873397"><ele>618.0</ele><time>2026-04-28T09:35:26.999Z</time></trkpt><trkpt lat="33.8906631549443" lon="-5.2231165856066335"><ele>621.0</ele><time>2026-04-28T09:35:27.999Z</time></trkpt><trkpt lat="33.890442455939215" lon="-5.223362959079019"><ele>624.0</ele><time>2026-04-28T09:35:28.999Z</time></trkpt><trkpt lat="33.89022355856087" lon="-5.223613189728745"><ele>624.0</ele><time>2026-04-28T09:35:29.999Z</time></trkpt><trkpt lat="33.890006650063164" lon="-5.223864361363748"><ele>624.0</ele><time>2026-04-28T09:35:30.999Z</time></trkpt><trkpt lat="33.889790580471576" lon="-5.224119479726838"><ele>624.0</ele><time>2026-04-28T09:35:31.999Z</time></trkpt><trkpt lat="33.88957888347839" lon="-5.224378140640904"><ele>624.0</ele><time>2026-04-28T09:35:32.999Z</time></trkpt><trkpt lat="33.88937331688599" lon="-5.2246425182120175"><ele>627.0</ele><time>2026-04-28T09:35:33.999Z</time></trkpt><trkpt lat="33.889170575045185" lon="-5.224909925524341"><ele>630.0</ele><time>2026-04-28T09:35:34.999Z</time></trkpt><trkpt lat="33.888974040845845" lon="-5.225184773788897"><ele>630.0</ele><time>2026-04-28T09:35:35.999Z</time></trkpt><trkpt lat="33.88878355089531" lon="-5.225466340969937"><ele>630.0</ele><time>2026-04-28T09:35:36.999Z</time></trkpt><trkpt lat="33.888596791780884" lon="-5.225752024281266"><ele>635.0</ele><time>2026-04-28T09:35:37.999Z</time></trkpt><trkpt lat="33.888414438707514" lon="-5.22604275440412"><ele>640.0</ele><time>2026-04-28T09:35:38.999Z</time></trkpt><trkpt lat="33.88823499305235" lon="-5.226335485376721"><ele>643.5</ele><time>2026-04-28T09:35:39.999Z</time></trkpt><trkpt lat="33.888056105211895" lon="-5.226630114622229"><ele>647.0</ele><time>2026-04-28T09:35:41Z</time></trkpt><trkpt lat="33.887880529768694" lon="-5.226925957402945"><ele>647.0</ele><time>2026-04-28T09:35:42Z</time></trkpt><trkpt lat="33.8877125490611" lon="-5.227228414644109"><ele>647.0</ele><time>2026-04-28T09:35:43Z</time></trkpt><trkpt lat="33.887548659195645" lon="-5.2275332766266915"><ele>648.5</ele><time>2026-04-28T09:35:44Z</time></trkpt><trkpt lat="33.887387206867935" lon="-5.227840480189776"><ele>650.0</ele><time>2026-04-28T09:35:45Z</time></trkpt><trkpt lat="33.887233304341535" lon="-5.228152136398104"><ele>653.0</ele><time>2026-04-28T09:35:46Z</time></trkpt><trkpt lat="33.88708305980028" lon="-5.228466634990394"><ele>656.0</ele><time>2026-04-28T09:35:47Z</time></trkpt><trkpt lat="33.886935148010025" lon="-5.228784528617823"><ele>657.0</ele><time>2026-04-28T09:35:48Z</time></trkpt><trkpt lat="33.88678811537087" lon="-5.229103567047017"><ele>658.0</ele><time>2026-04-28T09:35:49Z</time></trkpt><trkpt lat="33.88664773115951" lon="-5.229425283755237"><ele>658.0</ele><time>2026-04-28T09:35:50Z</time></trkpt><trkpt lat="33.88651380579283" lon="-5.229751687519703"><ele>658.0</ele><time>2026-04-28T09:35:51Z</time></trkpt><trkpt lat="33.886383402022645" lon="-5.230080533025438"><ele>660.0</ele><time>2026-04-28T09:35:52Z</time></trkpt><trkpt lat="33.88625901969942" lon="-5.230413440745412"><ele>662.0</ele><time>2026-04-28T09:35:53Z</time></trkpt><trkpt lat="33.88614142883821" lon="-5.230748987038574"><ele>662.5</ele><time>2026-04-28T09:35:54Z</time></trkpt><trkpt lat="33.88602941505752" lon="-5.231087489800516"><ele>663.0</ele><time>2026-04-28T09:35:55Z</time></trkpt><trkpt lat="33.88592509074542" lon="-5.231428525688786"><ele>664.0</ele><time>2026-04-28T09:35:56Z</time></trkpt><trkpt lat="33.88583107564413" lon="-5.231774312693912"><ele>665.0</ele><time>2026-04-28T09:35:57Z</time></trkpt><trkpt lat="33.88574253290383" lon="-5.2321215475176786"><ele>664.5</ele><time>2026-04-28T09:35:58Z</time></trkpt><trkpt lat="33.88565695581208" lon="-5.232470573781896"><ele>664.0</ele><time>2026-04-28T09:35:59Z</time></trkpt><trkpt lat="33.885577219004304" lon="-5.2328235929006"><ele>664.5</ele><time>2026-04-28T09:36:00Z</time></trkpt><trkpt lat="33.88549855367734" lon="-5.233174917166269"><ele>665.0</ele><time>2026-04-28T09:36:01Z</time></trkpt><trkpt lat="33.88542978874705" lon="-5.233529676571573"><ele>665.0</ele><time>2026-04-28T09:36:02Z</time></trkpt><trkpt lat="33.88536573330464" lon="-5.233885319559544"><ele>665.0</ele><time>2026-04-28T09:36:03Z</time></trkpt><trkpt lat="33.885304891838764" lon="-5.234241264756284"><ele>663.5</ele><time>2026-04-28T09:36:04Z</time></trkpt><trkpt lat="33.885257916650986" lon="-5.234599604097852"><ele>662.0</ele><time>2026-04-28T09:36:05Z</time></trkpt><trkpt lat="33.88521508963711" lon="-5.234958898974929"><ele>659.0</ele><time>2026-04-28T09:36:06Z</time></trkpt><trkpt lat="33.885179211975135" lon="-5.23532087801042"><ele>656.0</ele><time>2026-04-28T09:36:07Z</time></trkpt><trkpt lat="33.88514339218748" lon="-5.235682206618573"><ele>655.5</ele><time>2026-04-28T09:36:08Z</time></trkpt><trkpt lat="33.88511248606491" lon="-5.236044854692183"><ele>655.0</ele><time>2026-04-28T09:36:09Z</time></trkpt><trkpt lat="33.885085321513" lon="-5.236409095063016"><ele>659.0</ele><time>2026-04-28T09:36:10Z</time></trkpt><trkpt lat="33.8850646215508" lon="-5.236775004857611"><ele>663.0</ele><time>2026-04-28T09:36:11Z</time></trkpt><trkpt lat="33.88505037014341" lon="-5.237139483130454"><ele>664.0</ele><time>2026-04-28T09:36:12Z</time></trkpt><trkpt lat="33.88504220103373" lon="-5.237502051087914"><ele>665.0</ele><time>2026-04-28T09:36:13Z</time></trkpt><trkpt lat="33.885033269820376" lon="-5.2378653775174575"><ele>667.0</ele><time>2026-04-28T09:36:14Z</time></trkpt><trkpt lat="33.88502774906957" lon="-5.238228693010192"><ele>669.0</ele><time>2026-04-28T09:36:15Z</time></trkpt><trkpt lat="33.88502164310877" lon="-5.238590670057013"><ele>669.0</ele><time>2026-04-28T09:36:16Z</time></trkpt><trkpt lat="33.885013582978125" lon="-5.238952954292414"><ele>669.0</ele><time>2026-04-28T09:36:17Z</time></trkpt><trkpt lat="33.8850065687452" lon="-5.239316782463708"><ele>669.5</ele><time>2026-04-28T09:36:18Z</time></trkpt><trkpt lat="33.88499666675921" lon="-5.2396795756882275"><ele>670.0</ele><time>2026-04-28T09:36:19Z</time></trkpt><trkpt lat="33.88498555133263" lon="-5.240041986577491"><ele>670.0</ele><time>2026-04-28T09:36:20Z</time></trkpt><trkpt lat="33.884977212573446" lon="-5.240405602824556"><ele>670.0</ele><time>2026-04-28T09:36:21Z</time></trkpt><trkpt lat="33.88497004340357" lon="-5.24077102866542"><ele>670.0</ele><time>2026-04-28T09:36:22Z</time></trkpt><trkpt lat="33.88496399483369" lon="-5.241136209695731"><ele>670.0</ele><time>2026-04-28T09:36:23Z</time></trkpt><trkpt lat="33.88495893616493" lon="-5.241501616502545"><ele>669.5</ele><time>2026-04-28T09:36:24Z</time></trkpt><trkpt lat="33.884953438437826" lon="-5.241865706922818"><ele>669.0</ele><time>2026-04-28T09:36:25Z</time></trkpt><trkpt lat="33.88494477178637" lon="-5.242230914910512"><ele>669.5</ele><time>2026-04-28T09:36:26Z</time></trkpt><trkpt lat="33.88493503980316" lon="-5.242595655053156"><ele>670.0</ele><time>2026-04-28T09:36:27Z</time></trkpt><trkpt lat="33.88491964531477" lon="-5.24295899678344"><ele>669.0</ele><time>2026-04-28T09:36:28Z</time></trkpt><trkpt lat="33.884901790882" lon="-5.243322498724737"><ele>668.0</ele><time>2026-04-28T09:36:29Z</time></trkpt><trkpt lat="33.884880467931055" lon="-5.243687342380488"><ele>668.5</ele><time>2026-04-28T09:36:30Z</time></trkpt><trkpt lat="33.88485917796268" lon="-5.244049135024024"><ele>669.0</ele><time>2026-04-28T09:36:31Z</time></trkpt><trkpt lat="33.88483222046632" lon="-5.244412614534812"><ele>669.0</ele><time>2026-04-28T09:36:32Z</time></trkpt><trkpt lat="33.88480020109415" lon="-5.244774530272334"><ele>669.0</ele><time>2026-04-28T09:36:33Z</time></trkpt><trkpt lat="33.88476206825206" lon="-5.2451336724187065"><ele>668.0</ele><time>2026-04-28T09:36:34Z</time></trkpt><trkpt lat="33.884720912163914" lon="-5.245493845286684"><ele>667.0</ele><time>2026-04-28T09:36:35Z</time></trkpt><trkpt lat="33.88467501745659" lon="-5.245851957522415"><ele>667.0</ele><time>2026-04-28T09:36:36Z</time></trkpt><trkpt lat="33.884624745340865" lon="-5.246212753788403"><ele>667.0</ele><time>2026-04-28T09:36:37Z</time></trkpt><trkpt lat="33.88457585852844" lon="-5.246573670316144"><ele>667.0</ele><time>2026-04-28T09:36:38Z</time></trkpt><trkpt lat="33.88452085276419" lon="-5.246933579506511"><ele>667.0</ele><time>2026-04-28T09:36:39Z</time></trkpt><trkpt lat="33.884463747976525" lon="-5.247294358390872"><ele>667.0</ele><time>2026-04-28T09:36:40Z</time></trkpt><trkpt lat="33.884405323462104" lon="-5.247653067545385"><ele>667.0</ele><time>2026-04-28T09:36:41Z</time></trkpt><trkpt lat="33.8843422613049" lon="-5.248011788185492"><ele>667.0</ele><time>2026-04-28T09:36:42Z</time></trkpt><trkpt lat="33.884277165586774" lon="-5.248368039729581"><ele>667.0</ele><time>2026-04-28T09:36:42.999Z</time></trkpt><trkpt lat="33.88420675102085" lon="-5.248722180664202"><ele>666.0</ele><time>2026-04-28T09:36:43.999Z</time></trkpt><trkpt lat="33.884134176453706" lon="-5.249073958162041"><ele>665.0</ele><time>2026-04-28T09:36:44.999Z</time></trkpt><trkpt lat="33.88405968869696" lon="-5.249424854728777"><ele>665.0</ele><time>2026-04-28T09:36:45.999Z</time></trkpt><trkpt lat="33.88398284589919" lon="-5.249773313993328"><ele>665.0</ele><time>2026-04-28T09:36:46.999Z</time></trkpt><trkpt lat="33.88390552005947" lon="-5.250121931986338"><ele>664.0</ele><time>2026-04-28T09:36:47.999Z</time></trkpt><trkpt lat="33.88382717420318" lon="-5.250473020776146"><ele>663.0</ele><time>2026-04-28T09:36:48.999Z</time></trkpt><trkpt lat="33.883747501118044" lon="-5.25082336103859"><ele>660.5</ele><time>2026-04-28T09:36:49.999Z</time></trkpt><trkpt lat="33.88366346981982" lon="-5.25117188324525"><ele>658.0</ele><time>2026-04-28T09:36:50.999Z</time></trkpt><trkpt lat="33.88357543092156" lon="-5.251518211616176"><ele>657.5</ele><time>2026-04-28T09:36:51.999Z</time></trkpt><trkpt lat="33.88348260078311" lon="-5.251863058807819"><ele>657.0</ele><time>2026-04-28T09:36:52.999Z</time></trkpt><trkpt lat="33.88338424236287" lon="-5.252205546607193"><ele>661.5</ele><time>2026-04-28T09:36:53.999Z</time></trkpt><trkpt lat="33.883281829225915" lon="-5.252546839902779"><ele>666.0</ele><time>2026-04-28T09:36:54.999Z</time></trkpt><trkpt lat="33.8831768346346" lon="-5.252886469627296"><ele>666.0</ele><time>2026-04-28T09:36:55.999Z</time></trkpt><trkpt lat="33.88306976495594" lon="-5.253224633376883"><ele>666.0</ele><time>2026-04-28T09:36:56.999Z</time></trkpt><trkpt lat="33.88295620262352" lon="-5.253561365842872"><ele>666.0</ele><time>2026-04-28T09:36:57.999Z</time></trkpt><trkpt lat="33.8828412146931" lon="-5.253895846868383"><ele>666.0</ele><time>2026-04-28T09:36:58.999Z</time></trkpt><trkpt lat="33.88271746959457" lon="-5.254224372523664"><ele>666.5</ele><time>2026-04-28T09:36:59.999Z</time></trkpt><trkpt lat="33.88259671650744" lon="-5.2545580963487"><ele>667.0</ele><time>2026-04-28T09:37:00.999Z</time></trkpt><trkpt lat="33.88247252217506" lon="-5.254889699245957"><ele>667.0</ele><time>2026-04-28T09:37:01.999Z</time></trkpt><trkpt lat="33.88234435954397" lon="-5.255218696814647"><ele>667.0</ele><time>2026-04-28T09:37:02.999Z</time></trkpt><trkpt lat="33.88221324640959" lon="-5.255545511925267"><ele>667.0</ele><time>2026-04-28T09:37:03.999Z</time></trkpt><trkpt lat="33.88207881009556" lon="-5.255868698782549"><ele>667.0</ele><time>2026-04-28T09:37:04.999Z</time></trkpt><trkpt lat="33.881940253740105" lon="-5.256189314116509"><ele>667.0</ele><time>2026-04-28T09:37:05.999Z</time></trkpt><trkpt lat="33.881798703881046" lon="-5.256509378616838"><ele>667.0</ele><time>2026-04-28T09:37:06.999Z</time></trkpt><trkpt lat="33.881654685285675" lon="-5.2568281455183055"><ele>667.0</ele><time>2026-04-28T09:37:07.999Z</time></trkpt><trkpt lat="33.88150737439941" lon="-5.257145378453346"><ele>667.0</ele><time>2026-04-28T09:37:08.999Z</time></trkpt><trkpt lat="33.88135683039867" lon="-5.2574600858974065"><ele>667.5</ele><time>2026-04-28T09:37:09.999Z</time></trkpt><trkpt lat="33.88120362429619" lon="-5.2577737862207155"><ele>668.0</ele><time>2026-04-28T09:37:10.999Z</time></trkpt><trkpt lat="33.88104839889406" lon="-5.258086720607102"><ele>669.0</ele><time>2026-04-28T09:37:11.999Z</time></trkpt><trkpt lat="33.88089159104627" lon="-5.258398621626875"><ele>670.0</ele><time>2026-04-28T09:37:12.999Z</time></trkpt><trkpt lat="33.8807319801458" lon="-5.258709747086231"><ele>671.0</ele><time>2026-04-28T09:37:13.999Z</time></trkpt><trkpt lat="33.880568418036894" lon="-5.259017209855661"><ele>672.0</ele><time>2026-04-28T09:37:14.999Z</time></trkpt><trkpt lat="33.88040181127667" lon="-5.259321495453657"><ele>672.0</ele><time>2026-04-28T09:37:15.999Z</time></trkpt><trkpt lat="33.88023184640486" lon="-5.259622039556652"><ele>672.0</ele><time>2026-04-28T09:37:16.999Z</time></trkpt><trkpt lat="33.88005923783509" lon="-5.25992036311427"><ele>671.5</ele><time>2026-04-28T09:37:17.999Z</time></trkpt><trkpt lat="33.87988522873593" lon="-5.260218591876939"><ele>671.0</ele><time>2026-04-28T09:37:18.999Z</time></trkpt><trkpt lat="33.87971046258378" lon="-5.260516843504488"><ele>671.0</ele><time>2026-04-28T09:37:19.999Z</time></trkpt><trkpt lat="33.87953557657012" lon="-5.260814531982376"><ele>671.0</ele><time>2026-04-28T09:37:20.999Z</time></trkpt><trkpt lat="33.879359685827005" lon="-5.261112819675705"><ele>671.0</ele><time>2026-04-28T09:37:21.999Z</time></trkpt><trkpt lat="33.87918314163382" lon="-5.261409233386855"><ele>671.0</ele><time>2026-04-28T09:37:22.999Z</time></trkpt><trkpt lat="33.879006830904615" lon="-5.2617058362623705"><ele>669.5</ele><time>2026-04-28T09:37:23.999Z</time></trkpt><trkpt lat="33.87883385917902" lon="-5.262004767412757"><ele>668.0</ele><time>2026-04-28T09:37:24.999Z</time></trkpt><trkpt lat="33.87866380945531" lon="-5.262305042745559"><ele>666.5</ele><time>2026-04-28T09:37:25.999Z</time></trkpt><trkpt lat="33.87849376447686" lon="-5.262605765169884"><ele>665.0</ele><time>2026-04-28T09:37:26.999Z</time></trkpt><trkpt lat="33.87832341279705" lon="-5.262907206739724"><ele>666.0</ele><time>2026-04-28T09:37:27.999Z</time></trkpt><trkpt lat="33.8781543827943" lon="-5.263209683997688"><ele>667.0</ele><time>2026-04-28T09:37:28.999Z</time></trkpt><trkpt lat="33.87798899011608" lon="-5.263515238141932"><ele>667.0</ele><time>2026-04-28T09:37:29.999Z</time></trkpt><trkpt lat="33.877823999690605" lon="-5.263820901099538"><ele>667.0</ele><time>2026-04-28T09:37:30.999Z</time></trkpt><trkpt lat="33.87766307280774" lon="-5.264128160078728"><ele>667.5</ele><time>2026-04-28T09:37:31.999Z</time></trkpt><trkpt lat="33.877503870721085" lon="-5.264436616082061"><ele>668.0</ele><time>2026-04-28T09:37:32.999Z</time></trkpt><trkpt lat="33.87734640582319" lon="-5.264746976722518"><ele>668.5</ele><time>2026-04-28T09:37:33.999Z</time></trkpt><trkpt lat="33.87719081103173" lon="-5.265058894082138"><ele>669.0</ele><time>2026-04-28T09:37:34.999Z</time></trkpt><trkpt lat="33.877038297134845" lon="-5.2653724475940065"><ele>669.5</ele><time>2026-04-28T09:37:35.999Z</time></trkpt><trkpt lat="33.87688427327596" lon="-5.265684886784021"><ele>670.0</ele><time>2026-04-28T09:37:36.999Z</time></trkpt><trkpt lat="33.87672953492124" lon="-5.265997703701579"><ele>670.5</ele><time>2026-04-28T09:37:37.999Z</time></trkpt><trkpt lat="33.87657607346148" lon="-5.2663116865835775"><ele>671.0</ele><time>2026-04-28T09:37:38.999Z</time></trkpt><trkpt lat="33.876426235582855" lon="-5.266626963165622"><ele>671.0</ele><time>2026-04-28T09:37:39.999Z</time></trkpt><trkpt lat="33.87627769596715" lon="-5.26694253409525"><ele>671.0</ele><time>2026-04-28T09:37:40.999Z</time></trkpt><trkpt lat="33.8761316725662" lon="-5.267260190273521"><ele>671.0</ele><time>2026-04-28T09:37:41.999Z</time></trkpt><trkpt lat="33.87598857525786" lon="-5.267580623469314"><ele>671.0</ele><time>2026-04-28T09:37:42.999Z</time></trkpt><trkpt lat="33.87584889406564" lon="-5.267902965318924"><ele>672.0</ele><time>2026-04-28T09:37:43.999Z</time></trkpt><trkpt lat="33.87571113000204" lon="-5.268228016345698"><ele>673.0</ele><time>2026-04-28T09:37:44.999Z</time></trkpt><trkpt lat="33.87557604914599" lon="-5.268555070039018"><ele>673.0</ele><time>2026-04-28T09:37:45.999Z</time></trkpt><trkpt lat="33.87543755166294" lon="-5.268881556622047"><ele>673.0</ele><time>2026-04-28T09:37:47Z</time></trkpt><trkpt lat="33.875302851065854" lon="-5.269209834891758"><ele>673.0</ele><time>2026-04-28T09:37:48Z</time></trkpt><trkpt lat="33.875168306686675" lon="-5.269538213736414"><ele>673.0</ele><time>2026-04-28T09:37:49Z</time></trkpt><trkpt lat="33.87503745032285" lon="-5.26986885998577"><ele>672.5</ele><time>2026-04-28T09:37:50Z</time></trkpt><trkpt lat="33.87491009328407" lon="-5.270199831470781"><ele>672.0</ele><time>2026-04-28T09:37:51Z</time></trkpt><trkpt lat="33.874782110868715" lon="-5.270530788281446"><ele>672.0</ele><time>2026-04-28T09:37:52Z</time></trkpt><trkpt lat="33.874655622049765" lon="-5.270862146589947"><ele>672.0</ele><time>2026-04-28T09:37:53Z</time></trkpt><trkpt lat="33.874534310323966" lon="-5.27119516679619"><ele>670.5</ele><time>2026-04-28T09:37:54Z</time></trkpt><trkpt lat="33.87441408707327" lon="-5.271529727483569"><ele>669.0</ele><time>2026-04-28T09:37:55Z</time></trkpt><trkpt lat="33.87429959365587" lon="-5.2718651792999935"><ele>669.0</ele><time>2026-04-28T09:37:56Z</time></trkpt><trkpt lat="33.87418495273046" lon="-5.272201694314795"><ele>669.0</ele><time>2026-04-28T09:37:57Z</time></trkpt><trkpt lat="33.874070484889955" lon="-5.272536520968161"><ele>668.5</ele><time>2026-04-28T09:37:58Z</time></trkpt><trkpt lat="33.87395658128912" lon="-5.272871496918885"><ele>668.0</ele><time>2026-04-28T09:37:59Z</time></trkpt><trkpt lat="33.873841434735354" lon="-5.273206275458267"><ele>667.5</ele><time>2026-04-28T09:38:00Z</time></trkpt><trkpt lat="33.87372561112718" lon="-5.273539984233811"><ele>667.0</ele><time>2026-04-28T09:38:01Z</time></trkpt><trkpt lat="33.87361490732653" lon="-5.27387881232491"><ele>667.0</ele><time>2026-04-28T09:38:02Z</time></trkpt><trkpt lat="33.87350802043093" lon="-5.274217994794922"><ele>667.0</ele><time>2026-04-28T09:38:03Z</time></trkpt><trkpt lat="33.87340676812129" lon="-5.274559253322771"><ele>667.0</ele><time>2026-04-28T09:38:04Z</time></trkpt><trkpt lat="33.87330559295314" lon="-5.2748992348431"><ele>667.0</ele><time>2026-04-28T09:38:05Z</time></trkpt><trkpt lat="33.873204689201344" lon="-5.275240615067816"><ele>667.0</ele><time>2026-04-28T09:38:06Z</time></trkpt><trkpt lat="33.873105568164526" lon="-5.275581629772676"><ele>667.0</ele><time>2026-04-28T09:38:07Z</time></trkpt><trkpt lat="33.87300760865883" lon="-5.275921543066682"><ele>666.5</ele><time>2026-04-28T09:38:08Z</time></trkpt><trkpt lat="33.872908505042695" lon="-5.276264371456988"><ele>666.0</ele><time>2026-04-28T09:38:09Z</time></trkpt><trkpt lat="33.87281344371106" lon="-5.276609539030119"><ele>666.0</ele><time>2026-04-28T09:38:10Z</time></trkpt><trkpt lat="33.87272256750005" lon="-5.2769561881392235"><ele>666.0</ele><time>2026-04-28T09:38:11Z</time></trkpt><trkpt lat="33.872629776699185" lon="-5.27730431212482"><ele>667.5</ele><time>2026-04-28T09:38:12Z</time></trkpt><trkpt lat="33.87253697112398" lon="-5.277654020664154"><ele>669.0</ele><time>2026-04-28T09:38:13Z</time></trkpt><trkpt lat="33.87244811659257" lon="-5.2780056029978475"><ele>668.5</ele><time>2026-04-28T09:38:14Z</time></trkpt><trkpt lat="33.87236141868404" lon="-5.278360227905186"><ele>668.0</ele><time>2026-04-28T09:38:15Z</time></trkpt><trkpt lat="33.87227913407163" lon="-5.2787163671356065"><ele>668.5</ele><time>2026-04-28T09:38:16Z</time></trkpt><trkpt lat="33.87219824698965" lon="-5.27907198774443"><ele>669.0</ele><time>2026-04-28T09:38:17Z</time></trkpt><trkpt lat="33.8721191267167" lon="-5.279426156787123"><ele>669.5</ele><time>2026-04-28T09:38:18Z</time></trkpt><trkpt lat="33.8720450277239" lon="-5.279784486038461"><ele>670.0</ele><time>2026-04-28T09:38:19Z</time></trkpt><trkpt lat="33.871971363912806" lon="-5.280141980562071"><ele>670.0</ele><time>2026-04-28T09:38:20Z</time></trkpt><trkpt lat="33.87189984614281" lon="-5.280498409101037"><ele>670.0</ele><time>2026-04-28T09:38:21Z</time></trkpt><trkpt lat="33.871830142889344" lon="-5.280856589163063"><ele>670.5</ele><time>2026-04-28T09:38:22Z</time></trkpt><trkpt lat="33.871768798800424" lon="-5.281214320283119"><ele>671.0</ele><time>2026-04-28T09:38:23Z</time></trkpt><trkpt lat="33.871708435495485" lon="-5.28157217665447"><ele>671.0</ele><time>2026-04-28T09:38:24Z</time></trkpt><trkpt lat="33.87165029485846" lon="-5.281933147791671"><ele>671.0</ele><time>2026-04-28T09:38:25Z</time></trkpt><trkpt lat="33.87159214286949" lon="-5.282293393174205"><ele>671.5</ele><time>2026-04-28T09:38:26Z</time></trkpt><trkpt lat="33.87153515481925" lon="-5.282653627600494"><ele>672.0</ele><time>2026-04-28T09:38:27Z</time></trkpt><trkpt lat="33.871478657316715" lon="-5.283013348401573"><ele>672.5</ele><time>2026-04-28T09:38:28Z</time></trkpt><trkpt lat="33.87142622151656" lon="-5.283371749030739"><ele>673.0</ele><time>2026-04-28T09:38:29Z</time></trkpt><trkpt lat="33.871376195711704" lon="-5.283729957703052"><ele>673.5</ele><time>2026-04-28T09:38:30Z</time></trkpt><trkpt lat="33.8713262119777" lon="-5.284085933850162"><ele>674.0</ele><time>2026-04-28T09:38:31Z</time></trkpt><trkpt lat="33.87127923368289" lon="-5.284441758904194"><ele>673.5</ele><time>2026-04-28T09:38:32Z</time></trkpt><trkpt lat="33.8712310874946" lon="-5.284795999932236"><ele>673.0</ele><time>2026-04-28T09:38:33Z</time></trkpt><trkpt lat="33.87118593767137" lon="-5.2851515750879505"><ele>673.0</ele><time>2026-04-28T09:38:34Z</time></trkpt><trkpt lat="33.87114116919821" lon="-5.285506484246676"><ele>673.0</ele><time>2026-04-28T09:38:35Z</time></trkpt><trkpt lat="33.871098303820894" lon="-5.285860449392329"><ele>672.5</ele><time>2026-04-28T09:38:36Z</time></trkpt><trkpt lat="33.87105915122697" lon="-5.286216825419078"><ele>672.0</ele><time>2026-04-28T09:38:37Z</time></trkpt><trkpt lat="33.87102857668246" lon="-5.286570222602795"><ele>672.0</ele><time>2026-04-28T09:38:38Z</time></trkpt><trkpt lat="33.870995638262904" lon="-5.286924995484277"><ele>672.0</ele><time>2026-04-28T09:38:39Z</time></trkpt><trkpt lat="33.87096560474525" lon="-5.287280191282915"><ele>669.5</ele><time>2026-04-28T09:38:40Z</time></trkpt><trkpt lat="33.87093558775405" lon="-5.28763364422875"><ele>667.0</ele><time>2026-04-28T09:38:41Z</time></trkpt><trkpt lat="33.87090828714403" lon="-5.28798796000594"><ele>665.5</ele><time>2026-04-28T09:38:42Z</time></trkpt><trkpt lat="33.870881018386115" lon="-5.288343329923699"><ele>664.0</ele><time>2026-04-28T09:38:43Z</time></trkpt><trkpt lat="33.87085964949674" lon="-5.288697916133604"><ele>663.0</ele><time>2026-04-28T09:38:44Z</time></trkpt><trkpt lat="33.87084119752313" lon="-5.289055460825918"><ele>662.0</ele><time>2026-04-28T09:38:45Z</time></trkpt><trkpt lat="33.87082136501826" lon="-5.289412602954043"><ele>662.0</ele><time>2026-04-28T09:38:46Z</time></trkpt><trkpt lat="33.87080176349493" lon="-5.289768821873985"><ele>662.0</ele><time>2026-04-28T09:38:47Z</time></trkpt><trkpt lat="33.870785075914974" lon="-5.290122577474425"><ele>662.0</ele><time>2026-04-28T09:38:48Z</time></trkpt><trkpt lat="33.87077265735121" lon="-5.2904797663973175"><ele>662.0</ele><time>2026-04-28T09:38:48.999Z</time></trkpt><trkpt lat="33.87076120915469" lon="-5.2908342326214175"><ele>661.5</ele><time>2026-04-28T09:38:49.999Z</time></trkpt><trkpt lat="33.870750048147976" lon="-5.291188600251791"><ele>661.0</ele><time>2026-04-28T09:38:50.999Z</time></trkpt><trkpt lat="33.87073707511224" lon="-5.291542477753473"><ele>660.0</ele><time>2026-04-28T09:38:51.999Z</time></trkpt><trkpt lat="33.870730583846324" lon="-5.291895748117064"><ele>659.0</ele><time>2026-04-28T09:38:52.999Z</time></trkpt><trkpt lat="33.870725023387344" lon="-5.29224838771803"><ele>660.5</ele><time>2026-04-28T09:38:53.999Z</time></trkpt><trkpt lat="33.870720261786545" lon="-5.292605846923486"><ele>662.0</ele><time>2026-04-28T09:38:54.999Z</time></trkpt><trkpt lat="33.87072298588253" lon="-5.292967496684543"><ele>661.0</ele><time>2026-04-28T09:38:55.999Z</time></trkpt><trkpt lat="33.87072143119539" lon="-5.293329845299941"><ele>660.0</ele><time>2026-04-28T09:38:56.999Z</time></trkpt><trkpt lat="33.870722191566784" lon="-5.293692785920698"><ele>658.5</ele><time>2026-04-28T09:38:57.999Z</time></trkpt><trkpt lat="33.87072655359405" lon="-5.294058118213322"><ele>657.0</ele><time>2026-04-28T09:38:58.999Z</time></trkpt><trkpt lat="33.870731378060846" lon="-5.294424203138099"><ele>658.0</ele><time>2026-04-28T09:38:59.999Z</time></trkpt><trkpt lat="33.8707398467867" lon="-5.294789611840673"><ele>659.0</ele><time>2026-04-28T09:39:00.999Z</time></trkpt><trkpt lat="33.87075022854428" lon="-5.295158185789503"><ele>659.0</ele><time>2026-04-28T09:39:01.999Z</time></trkpt><trkpt lat="33.87076569304749" lon="-5.295522460045811"><ele>659.0</ele><time>2026-04-28T09:39:02.999Z</time></trkpt><trkpt lat="33.87077415394825" lon="-5.2958898615547465"><ele>658.0</ele><time>2026-04-28T09:39:03.999Z</time></trkpt><trkpt lat="33.87079268537564" lon="-5.296253357298464"><ele>657.0</ele><time>2026-04-28T09:39:04.999Z</time></trkpt><trkpt lat="33.87081074848081" lon="-5.29661075216469"><ele>656.0</ele><time>2026-04-28T09:39:05.999Z</time></trkpt><trkpt lat="33.870840941141196" lon="-5.296959761638613"><ele>655.0</ele><time>2026-04-28T09:39:06.999Z</time></trkpt><trkpt lat="33.87086745681582" lon="-5.297304979563147"><ele>654.5</ele><time>2026-04-28T09:39:07.999Z</time></trkpt><trkpt lat="33.87089883455972" lon="-5.297649904517823"><ele>654.0</ele><time>2026-04-28T09:39:08.999Z</time></trkpt><trkpt lat="33.87092316411956" lon="-5.2979981703510575"><ele>654.0</ele><time>2026-04-28T09:39:09.999Z</time></trkpt><trkpt lat="33.870954632712326" lon="-5.298352966223006"><ele>654.0</ele><time>2026-04-28T09:39:10.999Z</time></trkpt><trkpt lat="33.87098412522585" lon="-5.298712144433355"><ele>654.0</ele><time>2026-04-28T09:39:11.999Z</time></trkpt><trkpt lat="33.871013429614955" lon="-5.2990730776532455"><ele>654.0</ele><time>2026-04-28T09:39:12.999Z</time></trkpt><trkpt lat="33.87104638275594" lon="-5.299434125735746"><ele>653.0</ele><time>2026-04-28T09:39:13.999Z</time></trkpt><trkpt lat="33.87108384582824" lon="-5.299793629459959"><ele>652.0</ele><time>2026-04-28T09:39:14.999Z</time></trkpt><trkpt lat="33.87112222886621" lon="-5.300155080690756"><ele>652.0</ele><time>2026-04-28T09:39:15.999Z</time></trkpt><trkpt lat="33.871165017421596" lon="-5.300514378322841"><ele>652.0</ele><time>2026-04-28T09:39:16.999Z</time></trkpt><trkpt lat="33.87120810431318" lon="-5.300875846544705"><ele>652.0</ele><time>2026-04-28T09:39:17.999Z</time></trkpt><trkpt lat="33.871253745242804" lon="-5.301236121336432"><ele>652.0</ele><time>2026-04-28T09:39:18.999Z</time></trkpt><trkpt lat="33.871298697643624" lon="-5.301598530009974"><ele>652.0</ele><time>2026-04-28T09:39:19.999Z</time></trkpt><trkpt lat="33.8713493132462" lon="-5.301960229917759"><ele>652.0</ele><time>2026-04-28T09:39:20.999Z</time></trkpt><trkpt lat="33.8714021495268" lon="-5.302320345451129"><ele>652.0</ele><time>2026-04-28T09:39:21.999Z</time></trkpt><trkpt lat="33.87145463840596" lon="-5.30268219913395"><ele>652.0</ele><time>2026-04-28T09:39:22.999Z</time></trkpt><trkpt lat="33.87151164899923" lon="-5.303042509195245"><ele>651.5</ele><time>2026-04-28T09:39:23.999Z</time></trkpt><trkpt lat="33.87156696149389" lon="-5.30340326030682"><ele>651.0</ele><time>2026-04-28T09:39:24.999Z</time></trkpt><trkpt lat="33.8716268645621" lon="-5.303764842843791"><ele>650.0</ele><time>2026-04-28T09:39:25.999Z</time></trkpt><trkpt lat="33.87168877558344" lon="-5.304123864363092"><ele>649.0</ele><time>2026-04-28T09:39:26.999Z</time></trkpt><trkpt lat="33.871748536968326" lon="-5.304482343356302"><ele>648.5</ele><time>2026-04-28T09:39:27.999Z</time></trkpt><trkpt lat="33.87181388489808" lon="-5.304841448133663"><ele>648.0</ele><time>2026-04-28T09:39:28.999Z</time></trkpt><trkpt lat="33.87187820928308" lon="-5.305198419897237"><ele>648.0</ele><time>2026-04-28T09:39:29.999Z</time></trkpt><trkpt lat="33.87194392136617" lon="-5.30555647175952"><ele>648.0</ele><time>2026-04-28T09:39:30.999Z</time></trkpt><trkpt lat="33.872009535647635" lon="-5.305914372875473"><ele>647.5</ele><time>2026-04-28T09:39:31.999Z</time></trkpt><trkpt lat="33.87207551430036" lon="-5.306272341874404"><ele>647.0</ele><time>2026-04-28T09:39:32.999Z</time></trkpt><trkpt lat="33.872140730049544" lon="-5.306630236570239"><ele>647.0</ele><time>2026-04-28T09:39:33.999Z</time></trkpt><trkpt lat="33.87220354780163" lon="-5.306980779342699"><ele>647.0</ele><time>2026-04-28T09:39:34.999Z</time></trkpt><trkpt lat="33.872251241181786" lon="-5.307310562260482"><ele>647.5</ele><time>2026-04-28T09:39:35.999Z</time></trkpt><trkpt lat="33.87230277817722" lon="-5.307637857989465"><ele>648.0</ele><time>2026-04-28T09:39:36.999Z</time></trkpt><trkpt lat="33.87234815395165" lon="-5.307970164196618"><ele>646.5</ele><time>2026-04-28T09:39:37.999Z</time></trkpt><trkpt lat="33.8723872101359" lon="-5.308299428423992"><ele>645.0</ele><time>2026-04-28T09:39:38.999Z</time></trkpt><trkpt lat="33.872424749908156" lon="-5.308630262321141"><ele>645.5</ele><time>2026-04-28T09:39:39.999Z</time></trkpt><trkpt lat="33.872458937620365" lon="-5.308961795769846"><ele>646.0</ele><time>2026-04-28T09:39:40.999Z</time></trkpt><trkpt lat="33.87248983879568" lon="-5.309291991035625"><ele>646.0</ele><time>2026-04-28T09:39:41.999Z</time></trkpt><trkpt lat="33.87251584336663" lon="-5.309622869597122"><ele>646.0</ele><time>2026-04-28T09:39:42.999Z</time></trkpt><trkpt lat="33.872537276465565" lon="-5.309955720901365"><ele>645.5</ele><time>2026-04-28T09:39:43.999Z</time></trkpt><trkpt lat="33.872555242781054" lon="-5.310288623283566"><ele>645.0</ele><time>2026-04-28T09:39:44.999Z</time></trkpt><trkpt lat="33.87257288763142" lon="-5.310626238979513"><ele>645.0</ele><time>2026-04-28T09:39:45.999Z</time></trkpt><trkpt lat="33.87258199611322" lon="-5.31096486038271"><ele>645.0</ele><time>2026-04-28T09:39:46.999Z</time></trkpt><trkpt lat="33.87258641600065" lon="-5.311304797776652"><ele>645.5</ele><time>2026-04-28T09:39:47.999Z</time></trkpt><trkpt lat="33.87258495761103" lon="-5.31164888504457"><ele>646.0</ele><time>2026-04-28T09:39:48.999Z</time></trkpt><trkpt lat="33.87257785181047" lon="-5.311992738643555"><ele>645.0</ele><time>2026-04-28T09:39:49.999Z</time></trkpt><trkpt lat="33.872572855873415" lon="-5.312339399867344"><ele>644.0</ele><time>2026-04-28T09:39:50.999Z</time></trkpt><trkpt lat="33.87256059055265" lon="-5.312692063345703"><ele>644.0</ele><time>2026-04-28T09:39:52Z</time></trkpt><trkpt lat="33.87254176436867" lon="-5.313043170972468"><ele>644.0</ele><time>2026-04-28T09:39:53Z</time></trkpt><trkpt lat="33.87251885105797" lon="-5.313396817641203"><ele>644.5</ele><time>2026-04-28T09:39:54Z</time></trkpt><trkpt lat="33.872487314358814" lon="-5.313749986530082"><ele>645.0</ele><time>2026-04-28T09:39:55Z</time></trkpt><trkpt lat="33.87245192317095" lon="-5.314102859764313"><ele>644.0</ele><time>2026-04-28T09:39:56Z</time></trkpt><trkpt lat="33.87241314362299" lon="-5.314454874094686"><ele>643.0</ele><time>2026-04-28T09:39:57Z</time></trkpt><trkpt lat="33.87237083805704" lon="-5.314809645390595"><ele>643.0</ele><time>2026-04-28T09:39:58Z</time></trkpt><trkpt lat="33.87232763460918" lon="-5.315162520202152"><ele>643.0</ele><time>2026-04-28T09:39:59Z</time></trkpt><trkpt lat="33.872283856076294" lon="-5.315519115023316"><ele>643.0</ele><time>2026-04-28T09:40:00Z</time></trkpt><trkpt lat="33.872233030477695" lon="-5.3158737407549035"><ele>643.0</ele><time>2026-04-28T09:40:01Z</time></trkpt><trkpt lat="33.87217248792293" lon="-5.31622314449239"><ele>642.0</ele><time>2026-04-28T09:40:02Z</time></trkpt><trkpt lat="33.87211442155162" lon="-5.316556319958452"><ele>641.0</ele><time>2026-04-28T09:40:03Z</time></trkpt><trkpt lat="33.872053629653216" lon="-5.316861219848898"><ele>641.0</ele><time>2026-04-28T09:40:04Z</time></trkpt><trkpt lat="33.87198713347107" lon="-5.3171718419167595"><ele>641.0</ele><time>2026-04-28T09:40:05Z</time></trkpt><trkpt lat="33.87191170641973" lon="-5.317493958712377"><ele>641.0</ele><time>2026-04-28T09:40:06Z</time></trkpt><trkpt lat="33.87182925224412" lon="-5.317820264290647"><ele>641.0</ele><time>2026-04-28T09:40:07Z</time></trkpt><trkpt lat="33.8717405512073" lon="-5.3181511260477325"><ele>641.0</ele><time>2026-04-28T09:40:08Z</time></trkpt><trkpt lat="33.871647348015955" lon="-5.318486256296824"><ele>641.0</ele><time>2026-04-28T09:40:09Z</time></trkpt><trkpt lat="33.87154982263399" lon="-5.318826713401181"><ele>641.0</ele><time>2026-04-28T09:40:10Z</time></trkpt><trkpt lat="33.871445661479534" lon="-5.319166246008126"><ele>641.0</ele><time>2026-04-28T09:40:11Z</time></trkpt><trkpt lat="33.87133674582847" lon="-5.319505389352459"><ele>643.0</ele><time>2026-04-28T09:40:12Z</time></trkpt><trkpt lat="33.87122323398861" lon="-5.319844037387047"><ele>645.0</ele><time>2026-04-28T09:40:13Z</time></trkpt><trkpt lat="33.871103930099245" lon="-5.320179522309459"><ele>645.0</ele><time>2026-04-28T09:40:14Z</time></trkpt><trkpt lat="33.87097864788657" lon="-5.320511572110042"><ele>645.0</ele><time>2026-04-28T09:40:15Z</time></trkpt><trkpt lat="33.87084851021003" lon="-5.320840122118822"><ele>645.0</ele><time>2026-04-28T09:40:16Z</time></trkpt><trkpt lat="33.87071423035199" lon="-5.321166354140809"><ele>645.0</ele><time>2026-04-28T09:40:17Z</time></trkpt><trkpt lat="33.870576865300144" lon="-5.321490559252658"><ele>645.0</ele><time>2026-04-28T09:40:18Z</time></trkpt><trkpt lat="33.87043464139844" lon="-5.321811295642623"><ele>645.0</ele><time>2026-04-28T09:40:19Z</time></trkpt><trkpt lat="33.870288781036166" lon="-5.3221297688521965"><ele>645.0</ele><time>2026-04-28T09:40:20Z</time></trkpt><trkpt lat="33.87013878642135" lon="-5.3224460121479655"><ele>645.0</ele><time>2026-04-28T09:40:21Z</time></trkpt><trkpt lat="33.8699841133769" lon="-5.322760112954623"><ele>644.5</ele><time>2026-04-28T09:40:22Z</time></trkpt><trkpt lat="33.869823903555805" lon="-5.323069606089799"><ele>644.0</ele><time>2026-04-28T09:40:23Z</time></trkpt><trkpt lat="33.86965901053113" lon="-5.323376018579707"><ele>644.0</ele><time>2026-04-28T09:40:24Z</time></trkpt><trkpt lat="33.86949076028645" lon="-5.32367893321376"><ele>644.0</ele><time>2026-04-28T09:40:25Z</time></trkpt><trkpt lat="33.86931997461168" lon="-5.323980188041055"><ele>643.0</ele><time>2026-04-28T09:40:26Z</time></trkpt><trkpt lat="33.869147295339694" lon="-5.324279917322882"><ele>642.0</ele><time>2026-04-28T09:40:27Z</time></trkpt><trkpt lat="33.868973153540296" lon="-5.3245795697097265"><ele>640.5</ele><time>2026-04-28T09:40:28Z</time></trkpt><trkpt lat="33.86879920224974" lon="-5.324878789324151"><ele>639.0</ele><time>2026-04-28T09:40:29Z</time></trkpt><trkpt lat="33.86862492355819" lon="-5.3251783054114314"><ele>639.0</ele><time>2026-04-28T09:40:30Z</time></trkpt><trkpt lat="33.868452512612144" lon="-5.32547738678533"><ele>639.0</ele><time>2026-04-28T09:40:31Z</time></trkpt><trkpt lat="33.868280098828265" lon="-5.325774879763699"><ele>636.5</ele><time>2026-04-28T09:40:32Z</time></trkpt><trkpt lat="33.86810636999297" lon="-5.326069927385951"><ele>634.0</ele><time>2026-04-28T09:40:33Z</time></trkpt><trkpt lat="33.86793475264943" lon="-5.326365255596883"><ele>635.5</ele><time>2026-04-28T09:40:34Z</time></trkpt><trkpt lat="33.86776426111014" lon="-5.326661002140334"><ele>637.0</ele><time>2026-04-28T09:40:35Z</time></trkpt><trkpt lat="33.8675913413875" lon="-5.32695742054839"><ele>639.5</ele><time>2026-04-28T09:40:36Z</time></trkpt><trkpt lat="33.86741677117053" lon="-5.327251998908506"><ele>642.0</ele><time>2026-04-28T09:40:37Z</time></trkpt><trkpt lat="33.86724468472146" lon="-5.327548346741649"><ele>642.0</ele><time>2026-04-28T09:40:38Z</time></trkpt><trkpt lat="33.86707034751526" lon="-5.327843673571591"><ele>642.0</ele><time>2026-04-28T09:40:39Z</time></trkpt><trkpt lat="33.86689575496201" lon="-5.328140402032384"><ele>643.0</ele><time>2026-04-28T09:40:40Z</time></trkpt><trkpt lat="33.8667225722664" lon="-5.328437087157614"><ele>644.0</ele><time>2026-04-28T09:40:41Z</time></trkpt><trkpt lat="33.866548548718576" lon="-5.328732906750302"><ele>644.5</ele><time>2026-04-28T09:40:42Z</time></trkpt><trkpt lat="33.86638014822238" lon="-5.329028385839701"><ele>645.0</ele><time>2026-04-28T09:40:43Z</time></trkpt><trkpt lat="33.86621142314181" lon="-5.32932196732816"><ele>645.0</ele><time>2026-04-28T09:40:44Z</time></trkpt><trkpt lat="33.8660409088691" lon="-5.3296139185292235"><ele>645.0</ele><time>2026-04-28T09:40:45Z</time></trkpt><trkpt lat="33.865870265289765" lon="-5.329910356958241"><ele>646.5</ele><time>2026-04-28T09:40:46Z</time></trkpt><trkpt lat="33.86569591819088" lon="-5.330204533624967"><ele>648.0</ele><time>2026-04-28T09:40:47Z</time></trkpt><trkpt lat="33.8655217598502" lon="-5.330498270979565"><ele>647.5</ele><time>2026-04-28T09:40:48Z</time></trkpt><trkpt lat="33.865349055895706" lon="-5.330795303281621"><ele>647.0</ele><time>2026-04-28T09:40:49Z</time></trkpt><trkpt lat="33.865175209221924" lon="-5.331092730046924"><ele>645.0</ele><time>2026-04-28T09:40:49.999Z</time></trkpt><trkpt lat="33.86500218824621" lon="-5.331390631846426"><ele>643.0</ele><time>2026-04-28T09:40:50.999Z</time></trkpt><trkpt lat="33.86482896230489" lon="-5.331688567052389"><ele>643.0</ele><time>2026-04-28T09:40:51.999Z</time></trkpt><trkpt lat="33.864654853543556" lon="-5.331987184302427"><ele>643.0</ele><time>2026-04-28T09:40:52.999Z</time></trkpt><trkpt lat="33.86448082670078" lon="-5.332286359530834"><ele>643.0</ele><time>2026-04-28T09:40:53.999Z</time></trkpt><trkpt lat="33.86430826109863" lon="-5.332585508347746"><ele>643.0</ele><time>2026-04-28T09:40:54.999Z</time></trkpt><trkpt lat="33.86413605868561" lon="-5.332886609425196"><ele>643.5</ele><time>2026-04-28T09:40:55.999Z</time></trkpt><trkpt lat="33.86396267888422" lon="-5.333186043138938"><ele>644.0</ele><time>2026-04-28T09:40:56.999Z</time></trkpt><trkpt lat="33.86378913105109" lon="-5.333484418153801"><ele>644.0</ele><time>2026-04-28T09:40:57.999Z</time></trkpt><trkpt lat="33.86361585732358" lon="-5.3337795691999785"><ele>644.0</ele><time>2026-04-28T09:40:58.999Z</time></trkpt><trkpt lat="33.863443687153946" lon="-5.334075028558339"><ele>645.5</ele><time>2026-04-28T09:40:59.999Z</time></trkpt><trkpt lat="33.86326892459776" lon="-5.334367100646922"><ele>647.0</ele><time>2026-04-28T09:41:00.999Z</time></trkpt><trkpt lat="33.863095432152846" lon="-5.334658279851438"><ele>646.5</ele><time>2026-04-28T09:41:01.999Z</time></trkpt><trkpt lat="33.86292352250985" lon="-5.3349501334878076"><ele>646.0</ele><time>2026-04-28T09:41:02.999Z</time></trkpt><trkpt lat="33.862753224834556" lon="-5.335240094745025"><ele>647.5</ele><time>2026-04-28T09:41:03.999Z</time></trkpt><trkpt lat="33.862581607410704" lon="-5.335529264706573"><ele>649.0</ele><time>2026-04-28T09:41:04.999Z</time></trkpt><trkpt lat="33.862410681534634" lon="-5.335817912770718"><ele>650.0</ele><time>2026-04-28T09:41:05.999Z</time></trkpt><trkpt lat="33.86224143850793" lon="-5.336108428095105"><ele>651.0</ele><time>2026-04-28T09:41:06.999Z</time></trkpt><trkpt lat="33.86207109965185" lon="-5.336395929501245"><ele>651.0</ele><time>2026-04-28T09:41:07.999Z</time></trkpt><trkpt lat="33.86190186333818" lon="-5.336684058685021"><ele>651.0</ele><time>2026-04-28T09:41:08.999Z</time></trkpt><trkpt lat="33.86173422928087" lon="-5.336970906757017"><ele>651.0</ele><time>2026-04-28T09:41:09.999Z</time></trkpt><trkpt lat="33.86156797188449" lon="-5.337259569295248"><ele>651.0</ele><time>2026-04-28T09:41:10.999Z</time></trkpt><trkpt lat="33.861401199985316" lon="-5.337548723855418"><ele>651.0</ele><time>2026-04-28T09:41:11.999Z</time></trkpt><trkpt lat="33.861234690802334" lon="-5.337836508729142"><ele>651.0</ele><time>2026-04-28T09:41:12.999Z</time></trkpt><trkpt lat="33.861067606101706" lon="-5.338124047711864"><ele>650.5</ele><time>2026-04-28T09:41:13.999Z</time></trkpt><trkpt lat="33.8608976317168" lon="-5.33841176999865"><ele>650.0</ele><time>2026-04-28T09:41:14.999Z</time></trkpt><trkpt lat="33.860727800717136" lon="-5.338705273629378"><ele>651.0</ele><time>2026-04-28T09:41:15.999Z</time></trkpt><trkpt lat="33.86055664607987" lon="-5.33900191284835"><ele>652.0</ele><time>2026-04-28T09:41:16.999Z</time></trkpt><trkpt lat="33.86038408511792" lon="-5.339297629989587"><ele>652.0</ele><time>2026-04-28T09:41:17.999Z</time></trkpt><trkpt lat="33.86021407762326" lon="-5.3395955952032965"><ele>652.0</ele><time>2026-04-28T09:41:18.999Z</time></trkpt><trkpt lat="33.860042829216255" lon="-5.339893601298626"><ele>651.5</ele><time>2026-04-28T09:41:19.999Z</time></trkpt><trkpt lat="33.859869250208014" lon="-5.340190728614488"><ele>651.0</ele><time>2026-04-28T09:41:20.999Z</time></trkpt><trkpt lat="33.859695814855115" lon="-5.340487487364929"><ele>650.5</ele><time>2026-04-28T09:41:21.999Z</time></trkpt><trkpt lat="33.85952089620294" lon="-5.340780971912594"><ele>650.0</ele><time>2026-04-28T09:41:22.999Z</time></trkpt><trkpt lat="33.85934673539991" lon="-5.341076514356964"><ele>650.0</ele><time>2026-04-28T09:41:23.999Z</time></trkpt><trkpt lat="33.85917398203335" lon="-5.341373098128618"><ele>650.0</ele><time>2026-04-28T09:41:24.999Z</time></trkpt><trkpt lat="33.85899893811276" lon="-5.341668903152948"><ele>650.0</ele><time>2026-04-28T09:41:25.999Z</time></trkpt><trkpt lat="33.85882552417225" lon="-5.341966255072857"><ele>650.0</ele><time>2026-04-28T09:41:26.999Z</time></trkpt><trkpt lat="33.858651454860166" lon="-5.342264670598354"><ele>649.5</ele><time>2026-04-28T09:41:27.999Z</time></trkpt><trkpt lat="33.85847178966175" lon="-5.342557549080953"><ele>649.0</ele><time>2026-04-28T09:41:28.999Z</time></trkpt><trkpt lat="33.85829239733684" lon="-5.342850553291978"><ele>649.0</ele><time>2026-04-28T09:41:29.999Z</time></trkpt><trkpt lat="33.858114068050604" lon="-5.343147560008713"><ele>649.0</ele><time>2026-04-28T09:41:30.999Z</time></trkpt><trkpt lat="33.85793859338332" lon="-5.343441620438227"><ele>649.0</ele><time>2026-04-28T09:41:31.999Z</time></trkpt><trkpt lat="33.857765679398604" lon="-5.343730376807587"><ele>649.0</ele><time>2026-04-28T09:41:32.999Z</time></trkpt><trkpt lat="33.85760084182314" lon="-5.344020588831138"><ele>648.5</ele><time>2026-04-28T09:41:33.999Z</time></trkpt><trkpt lat="33.857433310238115" lon="-5.344307738196354"><ele>648.0</ele><time>2026-04-28T09:41:34.999Z</time></trkpt><trkpt lat="33.8572657501737" lon="-5.3445911669592165"><ele>647.5</ele><time>2026-04-28T09:41:35.999Z</time></trkpt><trkpt lat="33.85709944962934" lon="-5.344873909981433"><ele>647.0</ele><time>2026-04-28T09:41:36.999Z</time></trkpt><trkpt lat="33.85693058708736" lon="-5.345158383435461"><ele>646.5</ele><time>2026-04-28T09:41:37.999Z</time></trkpt><trkpt lat="33.85676549772143" lon="-5.345441863552967"><ele>646.0</ele><time>2026-04-28T09:41:38.999Z</time></trkpt><trkpt lat="33.856599247019126" lon="-5.345726331399822"><ele>647.0</ele><time>2026-04-28T09:41:39.999Z</time></trkpt><trkpt lat="33.856435325253564" lon="-5.3460108779196"><ele>648.0</ele><time>2026-04-28T09:41:40.999Z</time></trkpt><trkpt lat="33.856266687855964" lon="-5.346290021727436"><ele>647.0</ele><time>2026-04-28T09:41:41.999Z</time></trkpt><trkpt lat="33.85609771842982" lon="-5.346565366051589"><ele>646.0</ele><time>2026-04-28T09:41:42.999Z</time></trkpt><trkpt lat="33.85593587200061" lon="-5.346845313013536"><ele>646.0</ele><time>2026-04-28T09:41:43.999Z</time></trkpt><trkpt lat="33.855775980721695" lon="-5.347120340630277"><ele>646.0</ele><time>2026-04-28T09:41:44.999Z</time></trkpt><trkpt lat="33.855619536451556" lon="-5.3473941344154134"><ele>644.5</ele><time>2026-04-28T09:41:45.999Z</time></trkpt><trkpt lat="33.85546031847362" lon="-5.3476672158534235"><ele>643.0</ele><time>2026-04-28T09:41:46.999Z</time></trkpt><trkpt lat="33.855304555624535" lon="-5.347943577051474"><ele>643.0</ele><time>2026-04-28T09:41:47.999Z</time></trkpt><trkpt lat="33.855149202121005" lon="-5.34822006519818"><ele>643.0</ele><time>2026-04-28T09:41:48.999Z</time></trkpt><trkpt lat="33.85499349666376" lon="-5.348500813239543"><ele>643.5</ele><time>2026-04-28T09:41:49.999Z</time></trkpt><trkpt lat="33.854837834247796" lon="-5.348781891732177"><ele>644.0</ele><time>2026-04-28T09:41:50.999Z</time></trkpt><trkpt lat="33.85468333491838" lon="-5.3490668250452345"><ele>644.0</ele><time>2026-04-28T09:41:51.999Z</time></trkpt><trkpt lat="33.85452824045223" lon="-5.349351716588813"><ele>644.0</ele><time>2026-04-28T09:41:52.999Z</time></trkpt><trkpt lat="33.85437343011874" lon="-5.349643296192132"><ele>644.5</ele><time>2026-04-28T09:41:53.999Z</time></trkpt><trkpt lat="33.85421827951794" lon="-5.349937186501437"><ele>645.0</ele><time>2026-04-28T09:41:54.999Z</time></trkpt><trkpt lat="33.854063841853346" lon="-5.350236291860214"><ele>645.0</ele><time>2026-04-28T09:41:55.999Z</time></trkpt><trkpt lat="33.85391303314462" lon="-5.35054042421231"><ele>645.0</ele><time>2026-04-28T09:41:56.999Z</time></trkpt><trkpt lat="33.85376534593249" lon="-5.35084930226336"><ele>645.0</ele><time>2026-04-28T09:41:58Z</time></trkpt><trkpt lat="33.85362625646577" lon="-5.351162869790813"><ele>645.0</ele><time>2026-04-28T09:41:59Z</time></trkpt><trkpt lat="33.853489058522875" lon="-5.3514786891988795"><ele>646.0</ele><time>2026-04-28T09:42:00Z</time></trkpt><trkpt lat="33.85335120865189" lon="-5.351795135352399"><ele>647.0</ele><time>2026-04-28T09:42:01Z</time></trkpt><trkpt lat="33.853218663791075" lon="-5.352113934870346"><ele>648.5</ele><time>2026-04-28T09:42:02Z</time></trkpt><trkpt lat="33.853085108758606" lon="-5.3524355351021145"><ele>650.0</ele><time>2026-04-28T09:42:03Z</time></trkpt><trkpt lat="33.85295757138728" lon="-5.352758833571454"><ele>651.0</ele><time>2026-04-28T09:42:04Z</time></trkpt><trkpt lat="33.85283419140197" lon="-5.353086004617516"><ele>652.0</ele><time>2026-04-28T09:42:05Z</time></trkpt><trkpt lat="33.8527138233904" lon="-5.35341401959924"><ele>652.5</ele><time>2026-04-28T09:42:06Z</time></trkpt><trkpt lat="33.85259948558874" lon="-5.353744824442615"><ele>653.0</ele><time>2026-04-28T09:42:07Z</time></trkpt><trkpt lat="33.85248881583679" lon="-5.354079018525458"><ele>653.5</ele><time>2026-04-28T09:42:08Z</time></trkpt><trkpt lat="33.85238286882531" lon="-5.354416039849881"><ele>654.0</ele><time>2026-04-28T09:42:09Z</time></trkpt><trkpt lat="33.8522805715923" lon="-5.354752033449541"><ele>655.0</ele><time>2026-04-28T09:42:10Z</time></trkpt><trkpt lat="33.852177962382385" lon="-5.355088324094205"><ele>656.0</ele><time>2026-04-28T09:42:11Z</time></trkpt><trkpt lat="33.85207893620703" lon="-5.355423949589881"><ele>656.0</ele><time>2026-04-28T09:42:12Z</time></trkpt><trkpt lat="33.85198727330369" lon="-5.355761652803515"><ele>656.0</ele><time>2026-04-28T09:42:13Z</time></trkpt><trkpt lat="33.85190140755189" lon="-5.3561010658509325"><ele>656.5</ele><time>2026-04-28T09:42:14Z</time></trkpt><trkpt lat="33.85182052413958" lon="-5.356441752446631"><ele>657.0</ele><time>2026-04-28T09:42:15Z</time></trkpt><trkpt lat="33.85173998186445" lon="-5.356782379860429"><ele>656.5</ele><time>2026-04-28T09:42:16Z</time></trkpt><trkpt lat="33.85166547362041" lon="-5.3571256608169"><ele>656.0</ele><time>2026-04-28T09:42:17Z</time></trkpt><trkpt lat="33.85159470730948" lon="-5.357471527695073"><ele>656.0</ele><time>2026-04-28T09:42:18Z</time></trkpt><trkpt lat="33.85152655180312" lon="-5.357818633387253"><ele>656.0</ele><time>2026-04-28T09:42:19Z</time></trkpt><trkpt lat="33.851464545316354" lon="-5.358167801642584"><ele>656.5</ele><time>2026-04-28T09:42:20Z</time></trkpt><trkpt lat="33.85140884395465" lon="-5.358515830297704"><ele>657.0</ele><time>2026-04-28T09:42:21Z</time></trkpt><trkpt lat="33.851355143113075" lon="-5.358864227441996"><ele>656.5</ele><time>2026-04-28T09:42:22Z</time></trkpt><trkpt lat="33.8513045374362" lon="-5.35921504574513"><ele>656.0</ele><time>2026-04-28T09:42:23Z</time></trkpt><trkpt lat="33.851258692118996" lon="-5.359567602468824"><ele>656.5</ele><time>2026-04-28T09:42:24Z</time></trkpt><trkpt lat="33.851212665450376" lon="-5.3599216242715935"><ele>657.0</ele><time>2026-04-28T09:42:25Z</time></trkpt><trkpt lat="33.851173580090375" lon="-5.360274842463966"><ele>657.5</ele><time>2026-04-28T09:42:26Z</time></trkpt><trkpt lat="33.85113789669318" lon="-5.36063099445539"><ele>658.0</ele><time>2026-04-28T09:42:27Z</time></trkpt><trkpt lat="33.851102808206164" lon="-5.3609878434680445"><ele>658.0</ele><time>2026-04-28T09:42:28Z</time></trkpt><trkpt lat="33.851067424813465" lon="-5.361345379469104"><ele>658.0</ele><time>2026-04-28T09:42:29Z</time></trkpt><trkpt lat="33.85103056716151" lon="-5.361704515459649"><ele>656.5</ele><time>2026-04-28T09:42:30Z</time></trkpt><trkpt lat="33.850997349053245" lon="-5.362064138613263"><ele>655.0</ele><time>2026-04-28T09:42:31Z</time></trkpt><trkpt lat="33.85096224352176" lon="-5.362424477332835"><ele>656.0</ele><time>2026-04-28T09:42:32Z</time></trkpt><trkpt lat="33.850929183722535" lon="-5.362784092818507"><ele>657.0</ele><time>2026-04-28T09:42:33Z</time></trkpt><trkpt lat="33.85089921663129" lon="-5.363144740837325"><ele>657.5</ele><time>2026-04-28T09:42:34Z</time></trkpt><trkpt lat="33.85086302441398" lon="-5.363505470336121"><ele>658.0</ele><time>2026-04-28T09:42:35Z</time></trkpt><trkpt lat="33.850829714135074" lon="-5.363866174286738"><ele>658.0</ele><time>2026-04-28T09:42:36Z</time></trkpt><trkpt lat="33.85079511694936" lon="-5.364225316171102"><ele>658.0</ele><time>2026-04-28T09:42:37Z</time></trkpt><trkpt lat="33.85075812609985" lon="-5.364582409041563"><ele>657.5</ele><time>2026-04-28T09:42:38Z</time></trkpt><trkpt lat="33.850719642911706" lon="-5.364941115805657"><ele>657.0</ele><time>2026-04-28T09:42:39Z</time></trkpt><trkpt lat="33.850680910841255" lon="-5.365299245511025"><ele>658.0</ele><time>2026-04-28T09:42:40Z</time></trkpt><trkpt lat="33.85064002888304" lon="-5.36565755040252"><ele>659.0</ele><time>2026-04-28T09:42:41Z</time></trkpt><trkpt lat="33.85059759005953" lon="-5.366015460547765"><ele>658.5</ele><time>2026-04-28T09:42:42Z</time></trkpt><trkpt lat="33.85055063225886" lon="-5.366372437445334"><ele>658.0</ele><time>2026-04-28T09:42:43Z</time></trkpt><trkpt lat="33.850501124936855" lon="-5.366726258009172"><ele>658.0</ele><time>2026-04-28T09:42:44Z</time></trkpt><trkpt lat="33.85044962751032" lon="-5.367083009142917"><ele>658.0</ele><time>2026-04-28T09:42:45Z</time></trkpt><trkpt lat="33.850394342782565" lon="-5.367438268022457"><ele>658.5</ele><time>2026-04-28T09:42:46Z</time></trkpt><trkpt lat="33.850335942185026" lon="-5.367792765437452"><ele>659.0</ele><time>2026-04-28T09:42:46.999Z</time></trkpt><trkpt lat="33.85027427495162" lon="-5.36814524166941"><ele>659.0</ele><time>2026-04-28T09:42:47.999Z</time></trkpt><trkpt lat="33.85021396190886" lon="-5.368498601895242"><ele>659.0</ele><time>2026-04-28T09:42:48.999Z</time></trkpt><trkpt lat="33.850152401391796" lon="-5.368854686459086"><ele>659.5</ele><time>2026-04-28T09:42:49.999Z</time></trkpt><trkpt lat="33.85008584566601" lon="-5.369206967946715"><ele>660.0</ele><time>2026-04-28T09:42:50.999Z</time></trkpt><trkpt lat="33.85001916417146" lon="-5.369556995080537"><ele>660.0</ele><time>2026-04-28T09:42:51.999Z</time></trkpt><trkpt lat="33.84995309916631" lon="-5.369902821341232"><ele>660.0</ele><time>2026-04-28T09:42:52.999Z</time></trkpt><trkpt lat="33.84988635142907" lon="-5.370247083703786"><ele>660.0</ele><time>2026-04-28T09:42:53.999Z</time></trkpt><trkpt lat="33.84981839190028" lon="-5.3705899697326815"><ele>660.0</ele><time>2026-04-28T09:42:54.999Z</time></trkpt><trkpt lat="33.849752888717944" lon="-5.370931524921117"><ele>660.0</ele><time>2026-04-28T09:42:55.999Z</time></trkpt><trkpt lat="33.849680120153785" lon="-5.371265856934341"><ele>660.0</ele><time>2026-04-28T09:42:56.999Z</time></trkpt><trkpt lat="33.84961096107413" lon="-5.37159951224449"><ele>660.5</ele><time>2026-04-28T09:42:57.999Z</time></trkpt><trkpt lat="33.84953471343816" lon="-5.371931890973688"><ele>661.0</ele><time>2026-04-28T09:42:58.999Z</time></trkpt><trkpt lat="33.849456965717685" lon="-5.372264443441245"><ele>661.0</ele><time>2026-04-28T09:42:59.999Z</time></trkpt><trkpt lat="33.849378712198785" lon="-5.372595572837733"><ele>661.0</ele><time>2026-04-28T09:43:00.999Z</time></trkpt><trkpt lat="33.849301684242505" lon="-5.372928002436317"><ele>661.5</ele><time>2026-04-28T09:43:01.999Z</time></trkpt><trkpt lat="33.84923277027985" lon="-5.3732614994748324"><ele>662.0</ele><time>2026-04-28T09:43:02.999Z</time></trkpt><trkpt lat="33.84916088189722" lon="-5.373597522159352"><ele>661.5</ele><time>2026-04-28T09:43:03.999Z</time></trkpt><trkpt lat="33.84908995781881" lon="-5.373937287983106"><ele>661.0</ele><time>2026-04-28T09:43:04.999Z</time></trkpt><trkpt lat="33.849017458657784" lon="-5.374278542659993"><ele>661.0</ele><time>2026-04-28T09:43:05.999Z</time></trkpt><trkpt lat="33.848944612918174" lon="-5.374617457261577"><ele>661.0</ele><time>2026-04-28T09:43:06.999Z</time></trkpt><trkpt lat="33.848868610245546" lon="-5.374958600188725"><ele>660.5</ele><time>2026-04-28T09:43:07.999Z</time></trkpt><trkpt lat="33.84880428931854" lon="-5.375306917870701"><ele>660.0</ele><time>2026-04-28T09:43:08.999Z</time></trkpt><trkpt lat="33.84874052162382" lon="-5.375652145454072"><ele>659.5</ele><time>2026-04-28T09:43:09.999Z</time></trkpt><trkpt lat="33.84868122796849" lon="-5.376000342631924"><ele>659.0</ele><time>2026-04-28T09:43:10.999Z</time></trkpt><trkpt lat="33.84862710038187" lon="-5.376349290713308"><ele>659.5</ele><time>2026-04-28T09:43:11.999Z</time></trkpt><trkpt lat="33.848574103062504" lon="-5.376700018926465"><ele>660.0</ele><time>2026-04-28T09:43:12.999Z</time></trkpt><trkpt lat="33.84852424822008" lon="-5.377051304792767"><ele>660.5</ele><time>2026-04-28T09:43:13.999Z</time></trkpt><trkpt lat="33.84847992725405" lon="-5.377403680874383"><ele>661.0</ele><time>2026-04-28T09:43:14.999Z</time></trkpt><trkpt lat="33.848442265290764" lon="-5.377757595184033"><ele>661.0</ele><time>2026-04-28T09:43:15.999Z</time></trkpt><trkpt lat="33.84840910302898" lon="-5.378111945348393"><ele>661.0</ele><time>2026-04-28T09:43:16.999Z</time></trkpt><trkpt lat="33.84838092702144" lon="-5.378466573895048"><ele>661.0</ele><time>2026-04-28T09:43:17.999Z</time></trkpt><trkpt lat="33.848354915911905" lon="-5.378822988147559"><ele>661.0</ele><time>2026-04-28T09:43:18.999Z</time></trkpt><trkpt lat="33.84833109528575" lon="-5.379178865035262"><ele>660.5</ele><time>2026-04-28T09:43:19.999Z</time></trkpt><trkpt lat="33.84830915115107" lon="-5.3795346219144"><ele>660.0</ele><time>2026-04-28T09:43:20.999Z</time></trkpt><trkpt lat="33.84829005531603" lon="-5.3798896416232465"><ele>659.5</ele><time>2026-04-28T09:43:21.999Z</time></trkpt><trkpt lat="33.84827457637719" lon="-5.3802451860646485"><ele>659.0</ele><time>2026-04-28T09:43:22.999Z</time></trkpt><trkpt lat="33.848264119147586" lon="-5.380601316051592"><ele>659.0</ele><time>2026-04-28T09:43:23.999Z</time></trkpt><trkpt lat="33.84825918979508" lon="-5.380958929694206"><ele>659.0</ele><time>2026-04-28T09:43:24.999Z</time></trkpt><trkpt lat="33.848258160256925" lon="-5.381316064188083"><ele>660.5</ele><time>2026-04-28T09:43:25.999Z</time></trkpt><trkpt lat="33.84826066951043" lon="-5.3816729681457876"><ele>662.0</ele><time>2026-04-28T09:43:26.999Z</time></trkpt><trkpt lat="33.848266068541285" lon="-5.382031180620853"><ele>661.5</ele><time>2026-04-28T09:43:27.999Z</time></trkpt><trkpt lat="33.84827326462013" lon="-5.382388365258921"><ele>661.0</ele><time>2026-04-28T09:43:28.999Z</time></trkpt><trkpt lat="33.848283958524945" lon="-5.382745703697017"><ele>660.0</ele><time>2026-04-28T09:43:29.999Z</time></trkpt><trkpt lat="33.84829929965918" lon="-5.383102240458266"><ele>659.0</ele><time>2026-04-28T09:43:30.999Z</time></trkpt><trkpt lat="33.848322065220394" lon="-5.383458676463289"><ele>659.0</ele><time>2026-04-28T09:43:31.999Z</time></trkpt><trkpt lat="33.84834936227843" lon="-5.383813331547966"><ele>659.0</ele><time>2026-04-28T09:43:32.999Z</time></trkpt><trkpt lat="33.848379002905105" lon="-5.38416666097458"><ele>659.0</ele><time>2026-04-28T09:43:33.999Z</time></trkpt><trkpt lat="33.84841148758901" lon="-5.384521134337099"><ele>659.0</ele><time>2026-04-28T09:43:34.999Z</time></trkpt><trkpt lat="33.84844661328531" lon="-5.384874571565997"><ele>659.0</ele><time>2026-04-28T09:43:35.999Z</time></trkpt><trkpt lat="33.848486051687914" lon="-5.385227416660818"><ele>659.0</ele><time>2026-04-28T09:43:36.999Z</time></trkpt><trkpt lat="33.8485314318231" lon="-5.3855788214922375"><ele>658.0</ele><time>2026-04-28T09:43:37.999Z</time></trkpt><trkpt lat="33.84858221906348" lon="-5.385927023401041"><ele>657.0</ele><time>2026-04-28T09:43:38.999Z</time></trkpt><trkpt lat="33.84863331308531" lon="-5.386277234759232"><ele>656.5</ele><time>2026-04-28T09:43:39.999Z</time></trkpt><trkpt lat="33.84869380345034" lon="-5.386625659505472"><ele>656.0</ele><time>2026-04-28T09:43:40.999Z</time></trkpt><trkpt lat="33.84875669082622" lon="-5.386975018075067"><ele>655.0</ele><time>2026-04-28T09:43:41.999Z</time></trkpt><trkpt lat="33.848822600930276" lon="-5.38732316241944"><ele>654.0</ele><time>2026-04-28T09:43:42.999Z</time></trkpt><trkpt lat="33.84888972423078" lon="-5.387671640817306"><ele>655.5</ele><time>2026-04-28T09:43:43.999Z</time></trkpt><trkpt lat="33.848960513360325" lon="-5.388019949747661"><ele>657.0</ele><time>2026-04-28T09:43:44.999Z</time></trkpt><trkpt lat="33.84903665714754" lon="-5.388367447457057"><ele>657.0</ele><time>2026-04-28T09:43:45.999Z</time></trkpt><trkpt lat="33.8491183999242" lon="-5.388714679814378"><ele>657.0</ele><time>2026-04-28T09:43:46.999Z</time></trkpt><trkpt lat="33.849209685101876" lon="-5.389061006055525"><ele>655.5</ele><time>2026-04-28T09:43:47.999Z</time></trkpt><trkpt lat="33.849309974633925" lon="-5.389402259271125"><ele>654.0</ele><time>2026-04-28T09:43:48.999Z</time></trkpt><trkpt lat="33.84940332925234" lon="-5.389745205541773"><ele>654.0</ele><time>2026-04-28T09:43:49.999Z</time></trkpt><trkpt lat="33.849500399857156" lon="-5.39008954766758"><ele>654.0</ele><time>2026-04-28T09:43:50.999Z</time></trkpt><trkpt lat="33.849595991287096" lon="-5.390435116597794"><ele>653.0</ele><time>2026-04-28T09:43:51.999Z</time></trkpt><trkpt lat="33.84969260517672" lon="-5.390780116792408"><ele>652.0</ele><time>2026-04-28T09:43:52.999Z</time></trkpt><trkpt lat="33.84979873461328" lon="-5.391120910151603"><ele>651.5</ele><time>2026-04-28T09:43:53.999Z</time></trkpt><trkpt lat="33.84990671980978" lon="-5.391461319069983"><ele>651.0</ele><time>2026-04-28T09:43:54.999Z</time></trkpt><trkpt lat="33.85001856930621" lon="-5.391799195549943"><ele>652.0</ele><time>2026-04-28T09:43:55.999Z</time></trkpt><trkpt lat="33.85013146382477" lon="-5.392134210930797"><ele>653.0</ele><time>2026-04-28T09:43:56.999Z</time></trkpt><trkpt lat="33.85024519024306" lon="-5.3924741603433475"><ele>653.0</ele><time>2026-04-28T09:43:57.999Z</time></trkpt><trkpt lat="33.85035928636539" lon="-5.392811672372714"><ele>653.0</ele><time>2026-04-28T09:43:58.999Z</time></trkpt><trkpt lat="33.850473455671846" lon="-5.393145684088834"><ele>652.0</ele><time>2026-04-28T09:43:59.999Z</time></trkpt><trkpt lat="33.85059192778233" lon="-5.393479190542065"><ele>651.0</ele><time>2026-04-28T09:44:00.999Z</time></trkpt><trkpt lat="33.85070689554873" lon="-5.3938139703522054"><ele>650.0</ele><time>2026-04-28T09:44:01.999Z</time></trkpt><trkpt lat="33.850822548476245" lon="-5.394148528182164"><ele>649.0</ele><time>2026-04-28T09:44:03Z</time></trkpt><trkpt lat="33.85093329731014" lon="-5.394484423475715"><ele>649.0</ele><time>2026-04-28T09:44:04Z</time></trkpt><trkpt lat="33.8510386419282" lon="-5.394822117180593"><ele>649.0</ele><time>2026-04-28T09:44:05Z</time></trkpt><trkpt lat="33.851134947659986" lon="-5.395160656932763"><ele>649.0</ele><time>2026-04-28T09:44:06Z</time></trkpt><trkpt lat="33.85123070725438" lon="-5.39549866357117"><ele>649.0</ele><time>2026-04-28T09:44:07Z</time></trkpt><trkpt lat="33.851319029185035" lon="-5.395838287717677"><ele>647.5</ele><time>2026-04-28T09:44:08Z</time></trkpt><trkpt lat="33.85140160361957" lon="-5.396178513257537"><ele>646.0</ele><time>2026-04-28T09:44:09Z</time></trkpt><trkpt lat="33.85147781824148" lon="-5.39652225795955"><ele>644.0</ele><time>2026-04-28T09:44:10Z</time></trkpt><trkpt lat="33.85155188497915" lon="-5.396866022028079"><ele>642.0</ele><time>2026-04-28T09:44:11Z</time></trkpt><trkpt lat="33.85161829890406" lon="-5.397212910390728"><ele>640.0</ele><time>2026-04-28T09:44:12Z</time></trkpt><trkpt lat="33.85168003592779" lon="-5.397559568916972"><ele>638.0</ele><time>2026-04-28T09:44:13Z</time></trkpt><trkpt lat="33.851740573177246" lon="-5.397906668343213"><ele>637.5</ele><time>2026-04-28T09:44:14Z</time></trkpt><trkpt lat="33.85179387370064" lon="-5.398259339008283"><ele>637.0</ele><time>2026-04-28T09:44:15Z</time></trkpt><trkpt lat="33.85184284968749" lon="-5.398608989751332"><ele>636.0</ele><time>2026-04-28T09:44:16Z</time></trkpt><trkpt lat="33.85188370884883" lon="-5.398962645168166"><ele>635.0</ele><time>2026-04-28T09:44:17Z</time></trkpt><trkpt lat="33.8519161622637" lon="-5.399315211493778"><ele>634.5</ele><time>2026-04-28T09:44:18Z</time></trkpt><trkpt lat="33.851944289090106" lon="-5.399669408904537"><ele>634.0</ele><time>2026-04-28T09:44:19Z</time></trkpt><trkpt lat="33.8519686353473" lon="-5.400023358643682"><ele>634.0</ele><time>2026-04-28T09:44:20Z</time></trkpt><trkpt lat="33.851989648917716" lon="-5.400376587010893"><ele>634.0</ele><time>2026-04-28T09:44:21Z</time></trkpt><trkpt lat="33.8520070978261" lon="-5.400731053624034"><ele>634.5</ele><time>2026-04-28T09:44:22Z</time></trkpt><trkpt lat="33.85201913980818" lon="-5.401082358254634"><ele>635.0</ele><time>2026-04-28T09:44:23Z</time></trkpt><trkpt lat="33.852022012274574" lon="-5.401430421953005"><ele>635.0</ele><time>2026-04-28T09:44:24Z</time></trkpt><trkpt lat="33.85201883218096" lon="-5.401776500489775"><ele>635.0</ele><time>2026-04-28T09:44:25Z</time></trkpt><trkpt lat="33.852016053896634" lon="-5.402121295187676"><ele>636.0</ele><time>2026-04-28T09:44:26Z</time></trkpt><trkpt lat="33.85201040529245" lon="-5.402464733033152"><ele>637.0</ele><time>2026-04-28T09:44:27Z</time></trkpt><trkpt lat="33.85199637620621" lon="-5.402807586528894"><ele>637.5</ele><time>2026-04-28T09:44:28Z</time></trkpt><trkpt lat="33.85197376710961" lon="-5.403152522860141"><ele>638.0</ele><time>2026-04-28T09:44:29Z</time></trkpt><trkpt lat="33.851952293593506" lon="-5.403496582330403"><ele>639.0</ele><time>2026-04-28T09:44:30Z</time></trkpt><trkpt lat="33.851921892593026" lon="-5.403841422338993"><ele>640.0</ele><time>2026-04-28T09:44:31Z</time></trkpt><trkpt lat="33.8518841576034" lon="-5.4041900341059765"><ele>640.0</ele><time>2026-04-28T09:44:32Z</time></trkpt><trkpt lat="33.851837864499096" lon="-5.404539277340572"><ele>640.0</ele><time>2026-04-28T09:44:33Z</time></trkpt><trkpt lat="33.8517872208049" lon="-5.404889121524564"><ele>640.0</ele><time>2026-04-28T09:44:34Z</time></trkpt><trkpt lat="33.85173180593712" lon="-5.405239979032165"><ele>640.0</ele><time>2026-04-28T09:44:35Z</time></trkpt><trkpt lat="33.85167139764843" lon="-5.405594123444575"><ele>640.5</ele><time>2026-04-28T09:44:36Z</time></trkpt><trkpt lat="33.85160437062897" lon="-5.405946049813959"><ele>641.0</ele><time>2026-04-28T09:44:37Z</time></trkpt><trkpt lat="33.851534157733404" lon="-5.406298373745114"><ele>641.0</ele><time>2026-04-28T09:44:38Z</time></trkpt><trkpt lat="33.851458934037595" lon="-5.406651983506765"><ele>641.0</ele><time>2026-04-28T09:44:39Z</time></trkpt><trkpt lat="33.85138478642329" lon="-5.407006593542901"><ele>640.5</ele><time>2026-04-28T09:44:39.999Z</time></trkpt><trkpt lat="33.85130529544274" lon="-5.407359407907143"><ele>640.0</ele><time>2026-04-28T09:44:40.999Z</time></trkpt><trkpt lat="33.85123538775767" lon="-5.407714061644107"><ele>638.5</ele><time>2026-04-28T09:44:41.999Z</time></trkpt><trkpt lat="33.851158953342626" lon="-5.408066089705973"><ele>637.0</ele><time>2026-04-28T09:44:42.999Z</time></trkpt><trkpt lat="33.851084355450666" lon="-5.408422253850009"><ele>637.0</ele><time>2026-04-28T09:44:43.999Z</time></trkpt><trkpt lat="33.8510093743247" lon="-5.408776167363279"><ele>637.0</ele><time>2026-04-28T09:44:44.999Z</time></trkpt><trkpt lat="33.85093829038608" lon="-5.409131588125641"><ele>636.5</ele><time>2026-04-28T09:44:45.999Z</time></trkpt><trkpt lat="33.850869087534996" lon="-5.409488734275488"><ele>636.0</ele><time>2026-04-28T09:44:46.999Z</time></trkpt><trkpt lat="33.850802697414586" lon="-5.409845606746128"><ele>635.0</ele><time>2026-04-28T09:44:47.999Z</time></trkpt><trkpt lat="33.85073983238416" lon="-5.410204329359607"><ele>634.0</ele><time>2026-04-28T09:44:48.999Z</time></trkpt><trkpt lat="33.850680099776234" lon="-5.410562205932032"><ele>632.5</ele><time>2026-04-28T09:44:49.999Z</time></trkpt><trkpt lat="33.85062337844406" lon="-5.4109200629940295"><ele>631.0</ele><time>2026-04-28T09:44:50.999Z</time></trkpt><trkpt lat="33.850568394008434" lon="-5.411277976393434"><ele>630.0</ele><time>2026-04-28T09:44:51.999Z</time></trkpt><trkpt lat="33.850516227824095" lon="-5.411634363155145"><ele>629.0</ele><time>2026-04-28T09:44:52.999Z</time></trkpt><trkpt lat="33.850466944110266" lon="-5.411993699641646"><ele>627.5</ele><time>2026-04-28T09:44:53.999Z</time></trkpt><trkpt lat="33.85041943682325" lon="-5.412351758679949"><ele>626.0</ele><time>2026-04-28T09:44:54.999Z</time></trkpt><trkpt lat="33.850373011121775" lon="-5.412710733982411"><ele>626.0</ele><time>2026-04-28T09:44:55.999Z</time></trkpt><trkpt lat="33.85032866331867" lon="-5.413070133160937"><ele>626.0</ele><time>2026-04-28T09:44:56.999Z</time></trkpt><trkpt lat="33.85028682862311" lon="-5.413429075877401"><ele>626.0</ele><time>2026-04-28T09:44:57.999Z</time></trkpt><trkpt lat="33.85024862591662" lon="-5.413789105983269"><ele>626.0</ele><time>2026-04-28T09:44:58.999Z</time></trkpt><trkpt lat="33.85021425842304" lon="-5.414149090148268"><ele>624.5</ele><time>2026-04-28T09:44:59.999Z</time></trkpt><trkpt lat="33.850183052373865" lon="-5.414510767491992"><ele>623.0</ele><time>2026-04-28T09:45:00.999Z</time></trkpt><trkpt lat="33.85015413515919" lon="-5.414871557451914"><ele>622.5</ele><time>2026-04-28T09:45:01.999Z</time></trkpt><trkpt lat="33.85012762215695" lon="-5.41523307288701"><ele>622.0</ele><time>2026-04-28T09:45:02.999Z</time></trkpt><trkpt lat="33.850103433927856" lon="-5.4155946370117105"><ele>622.0</ele><time>2026-04-28T09:45:03.999Z</time></trkpt><trkpt lat="33.85008129805991" lon="-5.415957085772266"><ele>622.0</ele><time>2026-04-28T09:45:04.999Z</time></trkpt><trkpt lat="33.850061833373886" lon="-5.416319062129297"><ele>622.0</ele><time>2026-04-28T09:45:05.999Z</time></trkpt><trkpt lat="33.85004461567826" lon="-5.416681862037004"><ele>622.0</ele><time>2026-04-28T09:45:06.999Z</time></trkpt><trkpt lat="33.85002979300812" lon="-5.4170445591073815"><ele>621.0</ele><time>2026-04-28T09:45:07.999Z</time></trkpt><trkpt lat="33.85001843112511" lon="-5.4174067672137"><ele>620.0</ele><time>2026-04-28T09:45:08.999Z</time></trkpt><trkpt lat="33.85001007580295" lon="-5.417769629310606"><ele>620.5</ele><time>2026-04-28T09:45:09.999Z</time></trkpt><trkpt lat="33.85000388646841" lon="-5.4181318406915695"><ele>621.0</ele><time>2026-04-28T09:45:10.999Z</time></trkpt><trkpt lat="33.850000146638365" lon="-5.418493935438552"><ele>621.0</ele><time>2026-04-28T09:45:11.999Z</time></trkpt><trkpt lat="33.84999948733974" lon="-5.418855847872156"><ele>621.0</ele><time>2026-04-28T09:45:12.999Z</time></trkpt><trkpt lat="33.85000078579788" lon="-5.4192171265091265"><ele>621.0</ele><time>2026-04-28T09:45:13.999Z</time></trkpt><trkpt lat="33.85000514264292" lon="-5.4195792779781105"><ele>621.0</ele><time>2026-04-28T09:45:14.999Z</time></trkpt><trkpt lat="33.850011795463935" lon="-5.4199407153716015"><ele>619.5</ele><time>2026-04-28T09:45:15.999Z</time></trkpt><trkpt lat="33.85002101447535" lon="-5.4203022234371385"><ele>618.0</ele><time>2026-04-28T09:45:16.999Z</time></trkpt><trkpt lat="33.8500325613365" lon="-5.420665225971334"><ele>618.0</ele><time>2026-04-28T09:45:17.999Z</time></trkpt><trkpt lat="33.85004555735183" lon="-5.421027649123361"><ele>618.0</ele><time>2026-04-28T09:45:18.999Z</time></trkpt><trkpt lat="33.850059735361924" lon="-5.421390385200201"><ele>618.5</ele><time>2026-04-28T09:45:19.999Z</time></trkpt><trkpt lat="33.85007529794946" lon="-5.421753041641182"><ele>619.0</ele><time>2026-04-28T09:45:20.999Z</time></trkpt><trkpt lat="33.8500939819122" lon="-5.422112154130566"><ele>618.5</ele><time>2026-04-28T09:45:21.999Z</time></trkpt><trkpt lat="33.850115921278686" lon="-5.4224733881453115"><ele>618.0</ele><time>2026-04-28T09:45:22.999Z</time></trkpt><trkpt lat="33.85014039776419" lon="-5.422834262369926"><ele>618.0</ele><time>2026-04-28T09:45:23.999Z</time></trkpt><trkpt lat="33.85016826614976" lon="-5.423195275530773"><ele>618.0</ele><time>2026-04-28T09:45:24.999Z</time></trkpt><trkpt lat="33.85019922446816" lon="-5.423555508712662"><ele>618.0</ele><time>2026-04-28T09:45:25.999Z</time></trkpt><trkpt lat="33.85023558696018" lon="-5.423916039940291"><ele>618.0</ele><time>2026-04-28T09:45:26.999Z</time></trkpt><trkpt lat="33.850273894775526" lon="-5.424276229392305"><ele>618.0</ele><time>2026-04-28T09:45:27.999Z</time></trkpt><trkpt lat="33.850309650153285" lon="-5.424635566166949"><ele>618.0</ele><time>2026-04-28T09:45:28.999Z</time></trkpt><trkpt lat="33.85034991867861" lon="-5.4249928417007"><ele>618.0</ele><time>2026-04-28T09:45:29.999Z</time></trkpt><trkpt lat="33.85039192984286" lon="-5.425350120050412"><ele>618.0</ele><time>2026-04-28T09:45:30.999Z</time></trkpt><trkpt lat="33.85043572579359" lon="-5.425706464910397"><ele>618.0</ele><time>2026-04-28T09:45:31.999Z</time></trkpt><trkpt lat="33.850480120301484" lon="-5.426061953395864"><ele>618.0</ele><time>2026-04-28T09:45:32.999Z</time></trkpt><trkpt lat="33.85052801404924" lon="-5.426417998330839"><ele>619.0</ele><time>2026-04-28T09:45:33.999Z</time></trkpt><trkpt lat="33.85056773454127" lon="-5.426771660439569"><ele>620.0</ele><time>2026-04-28T09:45:34.999Z</time></trkpt><trkpt lat="33.85060395000248" lon="-5.427125803608622"><ele>620.0</ele><time>2026-04-28T09:45:35.999Z</time></trkpt><trkpt lat="33.850647244324854" lon="-5.427478211453134"><ele>620.0</ele><time>2026-04-28T09:45:36.999Z</time></trkpt><trkpt lat="33.85068878416582" lon="-5.427830606316618"><ele>619.5</ele><time>2026-04-28T09:45:37.999Z</time></trkpt><trkpt lat="33.85073022053138" lon="-5.428181832211493"><ele>619.0</ele><time>2026-04-28T09:45:38.999Z</time></trkpt><trkpt lat="33.85076920132806" lon="-5.428533587178541"><ele>620.0</ele><time>2026-04-28T09:45:39.999Z</time></trkpt><trkpt lat="33.85080466015819" lon="-5.428888196519887"><ele>621.0</ele><time>2026-04-28T09:45:40.999Z</time></trkpt><trkpt lat="33.850836898310696" lon="-5.429242862586436"><ele>621.0</ele><time>2026-04-28T09:45:41.999Z</time></trkpt><trkpt lat="33.85085441661246" lon="-5.429596225330713"><ele>621.0</ele><time>2026-04-28T09:45:42.999Z</time></trkpt><trkpt lat="33.850875078247405" lon="-5.429952256475418"><ele>621.0</ele><time>2026-04-28T09:45:43.999Z</time></trkpt><trkpt lat="33.85089500530959" lon="-5.430306242660427"><ele>621.0</ele><time>2026-04-28T09:45:44.999Z</time></trkpt><trkpt lat="33.8509107004604" lon="-5.430660025414207"><ele>621.0</ele><time>2026-04-28T09:45:45.999Z</time></trkpt><trkpt lat="33.85092486188668" lon="-5.431013650124796"><ele>621.0</ele><time>2026-04-28T09:45:46.999Z</time></trkpt><trkpt lat="33.850931949244746" lon="-5.431366126637564"><ele>621.0</ele><time>2026-04-28T09:45:47.999Z</time></trkpt><trkpt lat="33.85093842524764" lon="-5.4317200029783"><ele>621.0</ele><time>2026-04-28T09:45:48.999Z</time></trkpt><trkpt lat="33.85094539691477" lon="-5.432077466480389"><ele>621.5</ele><time>2026-04-28T09:45:49.999Z</time></trkpt><trkpt lat="33.85095020246483" lon="-5.432431682927995"><ele>622.0</ele><time>2026-04-28T09:45:50.999Z</time></trkpt><trkpt lat="33.85096569275131" lon="-5.43278983698552"><ele>622.0</ele><time>2026-04-28T09:45:51.999Z</time></trkpt><trkpt lat="33.85095862267308" lon="-5.433143116917897"><ele>622.0</ele><time>2026-04-28T09:45:52.999Z</time></trkpt><trkpt lat="33.85094905632532" lon="-5.4334985730823915"><ele>621.5</ele><time>2026-04-28T09:45:53.999Z</time></trkpt><trkpt lat="33.8509370194219" lon="-5.4338555413303675"><ele>621.0</ele><time>2026-04-28T09:45:54.999Z</time></trkpt><trkpt lat="33.85091972615755" lon="-5.4342118525541"><ele>621.0</ele><time>2026-04-28T09:45:55.999Z</time></trkpt><trkpt lat="33.8508996082685" lon="-5.434567369630628"><ele>621.0</ele><time>2026-04-28T09:45:56.999Z</time></trkpt><trkpt lat="33.85087749765764" lon="-5.434923376508519"><ele>621.5</ele><time>2026-04-28T09:45:57.999Z</time></trkpt><trkpt lat="33.850853848564014" lon="-5.435278743058953"><ele>622.0</ele><time>2026-04-28T09:45:58.998Z</time></trkpt><trkpt lat="33.850827110679084" lon="-5.435631933888958"><ele>622.0</ele><time>2026-04-28T09:45:59.998Z</time></trkpt><trkpt lat="33.85079514097608" lon="-5.435984512726762"><ele>622.0</ele><time>2026-04-28T09:46:00.998Z</time></trkpt><trkpt lat="33.85075884932425" lon="-5.436338268639727"><ele>621.0</ele><time>2026-04-28T09:46:01.998Z</time></trkpt><trkpt lat="33.850720443655426" lon="-5.436691181247634"><ele>620.0</ele><time>2026-04-28T09:46:02.998Z</time></trkpt><trkpt lat="33.8506793752396" lon="-5.437043546295966"><ele>621.0</ele><time>2026-04-28T09:46:03.998Z</time></trkpt><trkpt lat="33.850636018240394" lon="-5.437396088961767"><ele>622.0</ele><time>2026-04-28T09:46:04.998Z</time></trkpt><trkpt lat="33.85058862208102" lon="-5.437747649198281"><ele>622.0</ele><time>2026-04-28T09:46:05.998Z</time></trkpt><trkpt lat="33.850536960663824" lon="-5.438099095526294"><ele>622.0</ele><time>2026-04-28T09:46:06.998Z</time></trkpt><trkpt lat="33.85048093085936" lon="-5.438450162138139"><ele>622.5</ele><time>2026-04-28T09:46:08Z</time></trkpt><trkpt lat="33.85042251108137" lon="-5.438801664262325"><ele>623.0</ele><time>2026-04-28T09:46:09Z</time></trkpt><trkpt lat="33.85036232351611" lon="-5.4391522731465844"><ele>623.0</ele><time>2026-04-28T09:46:10Z</time></trkpt><trkpt lat="33.850300413595235" lon="-5.43950296995863"><ele>623.0</ele><time>2026-04-28T09:46:11Z</time></trkpt><trkpt lat="33.85023847741905" lon="-5.439852834760575"><ele>621.5</ele><time>2026-04-28T09:46:12Z</time></trkpt><trkpt lat="33.85017343400554" lon="-5.440202253327459"><ele>620.0</ele><time>2026-04-28T09:46:13Z</time></trkpt><trkpt lat="33.850102280089" lon="-5.440549939194874"><ele>619.5</ele><time>2026-04-28T09:46:14Z</time></trkpt><trkpt lat="33.850025467736806" lon="-5.440895977517544"><ele>619.0</ele><time>2026-04-28T09:46:15Z</time></trkpt><trkpt lat="33.84994398561394" lon="-5.441240263209757"><ele>619.5</ele><time>2026-04-28T09:46:16Z</time></trkpt><trkpt lat="33.84985936522641" lon="-5.4415829559795155"><ele>620.0</ele><time>2026-04-28T09:46:17Z</time></trkpt><trkpt lat="33.849771944084644" lon="-5.44192364753713"><ele>620.0</ele><time>2026-04-28T09:46:18Z</time></trkpt><trkpt lat="33.84967957275926" lon="-5.442262387120466"><ele>620.0</ele><time>2026-04-28T09:46:19Z</time></trkpt><trkpt lat="33.84958322852772" lon="-5.442603722764223"><ele>620.0</ele><time>2026-04-28T09:46:20Z</time></trkpt><trkpt lat="33.84948255993071" lon="-5.44294460304765"><ele>620.0</ele><time>2026-04-28T09:46:21Z</time></trkpt><trkpt lat="33.849379467470456" lon="-5.443285548993929"><ele>620.0</ele><time>2026-04-28T09:46:22Z</time></trkpt><trkpt lat="33.84927387865279" lon="-5.443626189939021"><ele>620.0</ele><time>2026-04-28T09:46:23Z</time></trkpt><trkpt lat="33.84916606949852" lon="-5.443964614665933"><ele>620.0</ele><time>2026-04-28T09:46:24Z</time></trkpt><trkpt lat="33.84905474848668" lon="-5.444302186223151"><ele>620.0</ele><time>2026-04-28T09:46:25Z</time></trkpt><trkpt lat="33.848940830192355" lon="-5.444638787197283"><ele>620.0</ele><time>2026-04-28T09:46:26Z</time></trkpt><trkpt lat="33.848824381701306" lon="-5.444974306882688"><ele>620.0</ele><time>2026-04-28T09:46:27Z</time></trkpt><trkpt lat="33.84870350724569" lon="-5.445307346282118"><ele>620.0</ele><time>2026-04-28T09:46:27.999Z</time></trkpt><trkpt lat="33.848576563668125" lon="-5.445633975303083"><ele>620.0</ele><time>2026-04-28T09:46:28.999Z</time></trkpt><trkpt lat="33.8484529312669" lon="-5.445960169302993"><ele>620.0</ele><time>2026-04-28T09:46:29.999Z</time></trkpt><trkpt lat="33.84832820979863" lon="-5.4462872546372"><ele>620.0</ele><time>2026-04-28T09:46:30.999Z</time></trkpt><trkpt lat="33.84820191150205" lon="-5.446614755087282"><ele>620.0</ele><time>2026-04-28T09:46:31.999Z</time></trkpt><trkpt lat="33.84807360469409" lon="-5.4469437489958334"><ele>620.0</ele><time>2026-04-28T09:46:32.999Z</time></trkpt><trkpt lat="33.847943142762084" lon="-5.447269294421727"><ele>617.5</ele><time>2026-04-28T09:46:33.999Z</time></trkpt><trkpt lat="33.84780958790305" lon="-5.447593280449556"><ele>615.0</ele><time>2026-04-28T09:46:34.999Z</time></trkpt><trkpt lat="33.84767216823285" lon="-5.447914989185927"><ele>612.0</ele><time>2026-04-28T09:46:35.999Z</time></trkpt><trkpt lat="33.847530899587184" lon="-5.448229569850333"><ele>609.0</ele><time>2026-04-28T09:46:36.999Z</time></trkpt><trkpt lat="33.84738568321479" lon="-5.4485345535672"><ele>607.5</ele><time>2026-04-28T09:46:37.999Z</time></trkpt><trkpt lat="33.84723873540172" lon="-5.4488369272598"><ele>606.0</ele><time>2026-04-28T09:46:38.999Z</time></trkpt><trkpt lat="33.84708966543488" lon="-5.449135815695723"><ele>606.0</ele><time>2026-04-28T09:46:39.999Z</time></trkpt><trkpt lat="33.846939295522" lon="-5.449430713416117"><ele>606.0</ele><time>2026-04-28T09:46:40.999Z</time></trkpt><trkpt lat="33.84678776225454" lon="-5.449722798610552"><ele>611.5</ele><time>2026-04-28T09:46:41.999Z</time></trkpt><trkpt lat="33.84663283885784" lon="-5.4500114228097765"><ele>617.0</ele><time>2026-04-28T09:46:42.999Z</time></trkpt><trkpt lat="33.84647511140027" lon="-5.450296753062628"><ele>619.5</ele><time>2026-04-28T09:46:43.999Z</time></trkpt><trkpt lat="33.84631570706806" lon="-5.45057982347347"><ele>622.0</ele><time>2026-04-28T09:46:44.999Z</time></trkpt><trkpt lat="33.84615342221714" lon="-5.45086001027997"><ele>622.0</ele><time>2026-04-28T09:46:45.999Z</time></trkpt><trkpt lat="33.845985838958455" lon="-5.4511372239936335"><ele>622.0</ele><time>2026-04-28T09:46:46.999Z</time></trkpt><trkpt lat="33.84581544035281" lon="-5.451419734541695"><ele>623.5</ele><time>2026-04-28T09:46:47.999Z</time></trkpt><trkpt lat="33.84564179788289" lon="-5.451708548787248"><ele>625.0</ele><time>2026-04-28T09:46:48.999Z</time></trkpt><trkpt lat="33.845461216477375" lon="-5.4519938915183985"><ele>625.5</ele><time>2026-04-28T09:46:49.999Z</time></trkpt><trkpt lat="33.845277139225885" lon="-5.452277955016216"><ele>626.0</ele><time>2026-04-28T09:46:50.999Z</time></trkpt><trkpt lat="33.84508956996244" lon="-5.452559787168454"><ele>626.0</ele><time>2026-04-28T09:46:51.999Z</time></trkpt><trkpt lat="33.844899075426916" lon="-5.452840075645672"><ele>626.0</ele><time>2026-04-28T09:46:52.999Z</time></trkpt><trkpt lat="33.84470692602444" lon="-5.453119725084631"><ele>626.5</ele><time>2026-04-28T09:46:53.999Z</time></trkpt><trkpt lat="33.84451302376242" lon="-5.453398401250058"><ele>627.0</ele><time>2026-04-28T09:46:54.999Z</time></trkpt><trkpt lat="33.84431629429552" lon="-5.453674204080421"><ele>626.0</ele><time>2026-04-28T09:46:55.999Z</time></trkpt><trkpt lat="33.84411680468563" lon="-5.453947989676709"><ele>625.0</ele><time>2026-04-28T09:46:56.999Z</time></trkpt><trkpt lat="33.84391440201124" lon="-5.454218995338969"><ele>625.0</ele><time>2026-04-28T09:46:57.999Z</time></trkpt><trkpt lat="33.84370877649071" lon="-5.454486165165112"><ele>625.0</ele><time>2026-04-28T09:46:58.999Z</time></trkpt><trkpt lat="33.843501008821114" lon="-5.454750998984341"><ele>625.5</ele><time>2026-04-28T09:46:59.999Z</time></trkpt><trkpt lat="33.84329136380176" lon="-5.455011751086941"><ele>626.0</ele><time>2026-04-28T09:47:00.999Z</time></trkpt><trkpt lat="33.843079520751076" lon="-5.455268226400135"><ele>626.0</ele><time>2026-04-28T09:47:01.999Z</time></trkpt><trkpt lat="33.8428660808489" lon="-5.455519993420306"><ele>626.0</ele><time>2026-04-28T09:47:02.999Z</time></trkpt><trkpt lat="33.84265148552786" lon="-5.455768672399369"><ele>627.0</ele><time>2026-04-28T09:47:03.999Z</time></trkpt><trkpt lat="33.842435498990135" lon="-5.45601506377128"><ele>628.0</ele><time>2026-04-28T09:47:04.999Z</time></trkpt><trkpt lat="33.84221767019259" lon="-5.456257884662931"><ele>629.0</ele><time>2026-04-28T09:47:05.999Z</time></trkpt><trkpt lat="33.841999113941576" lon="-5.456498205971932"><ele>630.0</ele><time>2026-04-28T09:47:06.999Z</time></trkpt><trkpt lat="33.84177921643578" lon="-5.456733367850372"><ele>630.0</ele><time>2026-04-28T09:47:07.999Z</time></trkpt><trkpt lat="33.84155531909867" lon="-5.456964985288654"><ele>630.0</ele><time>2026-04-28T09:47:08.999Z</time></trkpt><trkpt lat="33.8413296748594" lon="-5.457193442852829"><ele>630.0</ele><time>2026-04-28T09:47:09.999Z</time></trkpt><trkpt lat="33.841105928111155" lon="-5.457417583242535"><ele>630.0</ele><time>2026-04-28T09:47:10.999Z</time></trkpt><trkpt lat="33.840887312912976" lon="-5.4576378049204886"><ele>631.0</ele><time>2026-04-28T09:47:11.999Z</time></trkpt><trkpt lat="33.84067248887041" lon="-5.45785219731858"><ele>632.0</ele><time>2026-04-28T09:47:12.999Z</time></trkpt><trkpt lat="33.840457786887775" lon="-5.458066556668279"><ele>632.0</ele><time>2026-04-28T09:47:13.999Z</time></trkpt><trkpt lat="33.840248325754715" lon="-5.458277613406892"><ele>632.0</ele><time>2026-04-28T09:47:14.999Z</time></trkpt><trkpt lat="33.84004176114453" lon="-5.458485347197224"><ele>632.5</ele><time>2026-04-28T09:47:15.999Z</time></trkpt><trkpt lat="33.839835716923375" lon="-5.458694025643579"><ele>633.0</ele><time>2026-04-28T09:47:16.999Z</time></trkpt><trkpt lat="33.83963116263883" lon="-5.458904256084968"><ele>633.0</ele><time>2026-04-28T09:47:17.999Z</time></trkpt><trkpt lat="33.839429536805945" lon="-5.45911384767837"><ele>633.0</ele><time>2026-04-28T09:47:18.999Z</time></trkpt><trkpt lat="33.83923116097991" lon="-5.459326225857827"><ele>633.0</ele><time>2026-04-28T09:47:19.999Z</time></trkpt><trkpt lat="33.83903633729024" lon="-5.459539780486853"><ele>633.0</ele><time>2026-04-28T09:47:20.999Z</time></trkpt><trkpt lat="33.83884456294378" lon="-5.459756581768114"><ele>633.0</ele><time>2026-04-28T09:47:21.999Z</time></trkpt><trkpt lat="33.83865406320825" lon="-5.45997526922223"><ele>633.0</ele><time>2026-04-28T09:47:22.999Z</time></trkpt><trkpt lat="33.83846561309537" lon="-5.4601958177070475"><ele>633.0</ele><time>2026-04-28T09:47:23.999Z</time></trkpt><trkpt lat="33.838278584194086" lon="-5.460418791911295"><ele>633.0</ele><time>2026-04-28T09:47:24.999Z</time></trkpt><trkpt lat="33.83809465563891" lon="-5.460646719043151"><ele>633.0</ele><time>2026-04-28T09:47:25.999Z</time></trkpt><trkpt lat="33.83791405938957" lon="-5.460881966756793"><ele>633.0</ele><time>2026-04-28T09:47:26.999Z</time></trkpt><trkpt lat="33.83773888627261" lon="-5.461120498717329"><ele>632.5</ele><time>2026-04-28T09:47:27.999Z</time></trkpt><trkpt lat="33.83756550351456" lon="-5.46135958104518"><ele>632.0</ele><time>2026-04-28T09:47:28.999Z</time></trkpt><trkpt lat="33.837394067769445" lon="-5.46160079527677"><ele>632.0</ele><time>2026-04-28T09:47:29.999Z</time></trkpt><trkpt lat="33.837221941076045" lon="-5.461848926972213"><ele>632.0</ele><time>2026-04-28T09:47:30.999Z</time></trkpt><trkpt lat="33.83704967119303" lon="-5.462106563722711"><ele>630.5</ele><time>2026-04-28T09:47:31.999Z</time></trkpt><trkpt lat="33.83687801194587" lon="-5.462375694718168"><ele>629.0</ele><time>2026-04-28T09:47:32.999Z</time></trkpt><trkpt lat="33.83670892255467" lon="-5.4626534105047355"><ele>629.0</ele><time>2026-04-28T09:47:33.999Z</time></trkpt><trkpt lat="33.83653911115277" lon="-5.462937137949816"><ele>629.0</ele><time>2026-04-28T09:47:34.999Z</time></trkpt><trkpt lat="33.836371259433356" lon="-5.463224827034653"><ele>629.0</ele><time>2026-04-28T09:47:35.999Z</time></trkpt><trkpt lat="33.83620713818896" lon="-5.463515990375044"><ele>629.0</ele><time>2026-04-28T09:47:36.999Z</time></trkpt><trkpt lat="33.83604680436266" lon="-5.463813663351335"><ele>628.0</ele><time>2026-04-28T09:47:37.999Z</time></trkpt><trkpt lat="33.83588917297449" lon="-5.464114552907698"><ele>627.0</ele><time>2026-04-28T09:47:38.999Z</time></trkpt><trkpt lat="33.83573939910775" lon="-5.4644228034318"><ele>625.5</ele><time>2026-04-28T09:47:39.999Z</time></trkpt><trkpt lat="33.83559105480601" lon="-5.464730921681901"><ele>624.0</ele><time>2026-04-28T09:47:40.999Z</time></trkpt><trkpt lat="33.83544503537339" lon="-5.465040021416743"><ele>624.0</ele><time>2026-04-28T09:47:41.999Z</time></trkpt><trkpt lat="33.835303281096834" lon="-5.465354135528806"><ele>624.0</ele><time>2026-04-28T09:47:42.999Z</time></trkpt><trkpt lat="33.83516645541113" lon="-5.465667429631434"><ele>625.0</ele><time>2026-04-28T09:47:43.999Z</time></trkpt><trkpt lat="33.83503689560701" lon="-5.465986046605899"><ele>626.0</ele><time>2026-04-28T09:47:44.999Z</time></trkpt><trkpt lat="33.83491696405964" lon="-5.4663089340843865"><ele>626.0</ele><time>2026-04-28T09:47:45.999Z</time></trkpt><trkpt lat="33.83479950457452" lon="-5.466634723626726"><ele>626.0</ele><time>2026-04-28T09:47:46.999Z</time></trkpt><trkpt lat="33.83468944695112" lon="-5.466964582491522"><ele>627.5</ele><time>2026-04-28T09:47:47.998Z</time></trkpt><trkpt lat="33.83458167411373" lon="-5.467297376110009"><ele>629.0</ele><time>2026-04-28T09:47:48.998Z</time></trkpt><trkpt lat="33.834473746102866" lon="-5.467632255331629"><ele>630.5</ele><time>2026-04-28T09:47:49.998Z</time></trkpt><trkpt lat="33.83436694986772" lon="-5.467966602774679"><ele>632.0</ele><time>2026-04-28T09:47:50.998Z</time></trkpt><trkpt lat="33.834265257674325" lon="-5.468302498733516"><ele>632.0</ele><time>2026-04-28T09:47:51.998Z</time></trkpt><trkpt lat="33.8341690054007" lon="-5.468641294197685"><ele>632.0</ele><time>2026-04-28T09:47:52.998Z</time></trkpt><trkpt lat="33.83407572072506" lon="-5.46898104679162"><ele>633.0</ele><time>2026-04-28T09:47:53.998Z</time></trkpt><trkpt lat="33.83398887088536" lon="-5.46932240035621"><ele>634.0</ele><time>2026-04-28T09:47:54.998Z</time></trkpt><trkpt lat="33.83390711550512" lon="-5.469665515512157"><ele>634.5</ele><time>2026-04-28T09:47:55.998Z</time></trkpt><trkpt lat="33.83382887999675" lon="-5.470011603901369"><ele>635.0</ele><time>2026-04-28T09:47:56.998Z</time></trkpt><trkpt lat="33.833756607743844" lon="-5.470360362881744"><ele>636.0</ele><time>2026-04-28T09:47:57.998Z</time></trkpt><trkpt lat="33.83369246876887" lon="-5.470712257177317"><ele>637.0</ele><time>2026-04-28T09:47:58.998Z</time></trkpt><trkpt lat="33.8336309756203" lon="-5.471066283279447"><ele>637.0</ele><time>2026-04-28T09:47:59.998Z</time></trkpt><trkpt lat="33.83357168879839" lon="-5.471422142380859"><ele>637.0</ele><time>2026-04-28T09:48:00.998Z</time></trkpt><trkpt lat="33.83351647580925" lon="-5.471777674387546"><ele>635.0</ele><time>2026-04-28T09:48:01.998Z</time></trkpt><trkpt lat="33.83346371131333" lon="-5.472135618182626"><ele>633.0</ele><time>2026-04-28T09:48:02.998Z</time></trkpt><trkpt lat="33.833418634147826" lon="-5.47249343658003"><ele>633.0</ele><time>2026-04-28T09:48:03.998Z</time></trkpt><trkpt lat="33.833381443203955" lon="-5.472852579812533"><ele>633.0</ele><time>2026-04-28T09:48:04.998Z</time></trkpt><trkpt lat="33.833347119030144" lon="-5.473212095350286"><ele>632.5</ele><time>2026-04-28T09:48:05.998Z</time></trkpt><trkpt lat="33.83331694348031" lon="-5.473572117302654"><ele>632.0</ele><time>2026-04-28T09:48:06.998Z</time></trkpt><trkpt lat="33.833294863522134" lon="-5.473933088627279"><ele>630.5</ele><time>2026-04-28T09:48:07.998Z</time></trkpt><trkpt lat="33.8332762115125" lon="-5.474293639616026"><ele>629.0</ele><time>2026-04-28T09:48:08.998Z</time></trkpt><trkpt lat="33.83325970605667" lon="-5.474655682072836"><ele>628.5</ele><time>2026-04-28T09:48:09.998Z</time></trkpt><trkpt lat="33.833245769568116" lon="-5.475016835763482"><ele>628.0</ele><time>2026-04-28T09:48:10.998Z</time></trkpt><trkpt lat="33.8332345024508" lon="-5.4753784647838994"><ele>627.5</ele><time>2026-04-28T09:48:11.998Z</time></trkpt><trkpt lat="33.83322295842348" lon="-5.4757408676734824"><ele>627.0</ele><time>2026-04-28T09:48:12.998Z</time></trkpt><trkpt lat="33.833211942128244" lon="-5.476102994318988"><ele>627.5</ele><time>2026-04-28T09:48:14Z</time></trkpt><trkpt lat="33.833199888249034" lon="-5.476462680615321"><ele>628.0</ele><time>2026-04-28T09:48:15Z</time></trkpt><trkpt lat="33.83318866629907" lon="-5.476824150805991"><ele>628.5</ele><time>2026-04-28T09:48:16Z</time></trkpt><trkpt lat="33.83317288489496" lon="-5.477183270709492"><ele>629.0</ele><time>2026-04-28T09:48:17Z</time></trkpt><trkpt lat="33.83315329559766" lon="-5.477543815023303"><ele>629.0</ele><time>2026-04-28T09:48:18Z</time></trkpt><trkpt lat="33.83313278083109" lon="-5.477901826457026"><ele>629.0</ele><time>2026-04-28T09:48:19Z</time></trkpt><trkpt lat="33.833115603444725" lon="-5.47826126006912"><ele>630.0</ele><time>2026-04-28T09:48:20Z</time></trkpt><trkpt lat="33.8330940784268" lon="-5.478606388746277"><ele>631.0</ele><time>2026-04-28T09:48:21Z</time></trkpt><trkpt lat="33.83306891756008" lon="-5.4789448444896065"><ele>632.0</ele><time>2026-04-28T09:48:22Z</time></trkpt><trkpt lat="33.833031020484384" lon="-5.479290110097272"><ele>633.0</ele><time>2026-04-28T09:48:23Z</time></trkpt><trkpt lat="33.83300028969336" lon="-5.479640109752965"><ele>634.5</ele><time>2026-04-28T09:48:24Z</time></trkpt><trkpt lat="33.83295871617824" lon="-5.479997077400444"><ele>636.0</ele><time>2026-04-28T09:48:25Z</time></trkpt><trkpt lat="33.83291385001141" lon="-5.480355903122693"><ele>637.0</ele><time>2026-04-28T09:48:26Z</time></trkpt><trkpt lat="33.83286653257856" lon="-5.480713140187843"><ele>638.0</ele><time>2026-04-28T09:48:27Z</time></trkpt><trkpt lat="33.83281797159306" lon="-5.481068153341644"><ele>638.0</ele><time>2026-04-28T09:48:28Z</time></trkpt><trkpt lat="33.83276763450462" lon="-5.4814234364564385"><ele>638.0</ele><time>2026-04-28T09:48:28.999Z</time></trkpt><trkpt lat="33.832707827168086" lon="-5.481775534852628"><ele>638.5</ele><time>2026-04-28T09:48:29.999Z</time></trkpt><trkpt lat="33.8326459442612" lon="-5.482125798407014"><ele>639.0</ele><time>2026-04-28T09:48:30.999Z</time></trkpt><trkpt lat="33.83257683504274" lon="-5.482472786817853"><ele>639.0</ele><time>2026-04-28T09:48:31.999Z</time></trkpt><trkpt lat="33.83250390555207" lon="-5.482818505542993"><ele>639.0</ele><time>2026-04-28T09:48:32.999Z</time></trkpt><trkpt lat="33.832430368935505" lon="-5.483163061594274"><ele>639.0</ele><time>2026-04-28T09:48:33.999Z</time></trkpt><trkpt lat="33.832353762551605" lon="-5.483506221182671"><ele>639.0</ele><time>2026-04-28T09:48:34.999Z</time></trkpt><trkpt lat="33.83227445052556" lon="-5.483847198427329"><ele>639.0</ele><time>2026-04-28T09:48:35.999Z</time></trkpt><trkpt lat="33.83219078886576" lon="-5.4841881612436945"><ele>639.0</ele><time>2026-04-28T09:48:36.999Z</time></trkpt><trkpt lat="33.832098668235716" lon="-5.4845258812590645"><ele>638.0</ele><time>2026-04-28T09:48:37.999Z</time></trkpt><trkpt lat="33.83200435600801" lon="-5.484863069830677"><ele>637.0</ele><time>2026-04-28T09:48:38.999Z</time></trkpt><trkpt lat="33.831905763175854" lon="-5.485197729126442"><ele>637.5</ele><time>2026-04-28T09:48:39.999Z</time></trkpt><trkpt lat="33.83180798915648" lon="-5.485532447222688"><ele>638.0</ele><time>2026-04-28T09:48:40.999Z</time></trkpt><trkpt lat="33.83170829724438" lon="-5.485866770944711"><ele>638.5</ele><time>2026-04-28T09:48:41.999Z</time></trkpt><trkpt lat="33.83160256505512" lon="-5.486198299610806"><ele>639.0</ele><time>2026-04-28T09:48:42.999Z</time></trkpt><trkpt lat="33.831492837674254" lon="-5.486529273445375"><ele>639.0</ele><time>2026-04-28T09:48:43.999Z</time></trkpt><trkpt lat="33.83138019683301" lon="-5.486856949826265"><ele>639.0</ele><time>2026-04-28T09:48:44.999Z</time></trkpt><trkpt lat="33.83126402619088" lon="-5.487184002231273"><ele>639.0</ele><time>2026-04-28T09:48:45.999Z</time></trkpt><trkpt lat="33.831143181762776" lon="-5.487507534832351"><ele>639.0</ele><time>2026-04-28T09:48:46.999Z</time></trkpt><trkpt lat="33.83101767920979" lon="-5.487828926864176"><ele>640.5</ele><time>2026-04-28T09:48:47.999Z</time></trkpt><trkpt lat="33.83089050242521" lon="-5.48814836226627"><ele>642.0</ele><time>2026-04-28T09:48:48.999Z</time></trkpt><trkpt lat="33.83076363794137" lon="-5.488470049866985"><ele>642.0</ele><time>2026-04-28T09:48:49.999Z</time></trkpt><trkpt lat="33.830638180250766" lon="-5.488792628105974"><ele>642.0</ele><time>2026-04-28T09:48:50.999Z</time></trkpt><trkpt lat="33.83051005488696" lon="-5.4891143767988675"><ele>642.0</ele><time>2026-04-28T09:48:51.999Z</time></trkpt><trkpt lat="33.8303819480289" lon="-5.489433257121265"><ele>642.0</ele><time>2026-04-28T09:48:52.999Z</time></trkpt><trkpt lat="33.83025332626872" lon="-5.489753943529491"><ele>642.5</ele><time>2026-04-28T09:48:53.999Z</time></trkpt><trkpt lat="33.830124809576496" lon="-5.490072934996969"><ele>643.0</ele><time>2026-04-28T09:48:54.999Z</time></trkpt><trkpt lat="33.82999680839528" lon="-5.490392127053344"><ele>642.5</ele><time>2026-04-28T09:48:55.999Z</time></trkpt><trkpt lat="33.82986824823363" lon="-5.490713221282176"><ele>642.0</ele><time>2026-04-28T09:48:56.999Z</time></trkpt><trkpt lat="33.82974182023586" lon="-5.49103586835598"><ele>641.5</ele><time>2026-04-28T09:48:57.999Z</time></trkpt><trkpt lat="33.829625617228935" lon="-5.491359481820208"><ele>641.0</ele><time>2026-04-28T09:48:58.999Z</time></trkpt><trkpt lat="33.82951026522366" lon="-5.491685878485401"><ele>641.0</ele><time>2026-04-28T09:48:59.999Z</time></trkpt><trkpt lat="33.82940036095851" lon="-5.492016894632746"><ele>641.0</ele><time>2026-04-28T09:49:00.999Z</time></trkpt><trkpt lat="33.82930006483659" lon="-5.492351940976749"><ele>640.0</ele><time>2026-04-28T09:49:01.999Z</time></trkpt><trkpt lat="33.82919867438193" lon="-5.492687060243196"><ele>639.0</ele><time>2026-04-28T09:49:02.999Z</time></trkpt><trkpt lat="33.82910281428969" lon="-5.493023058273537"><ele>638.5</ele><time>2026-04-28T09:49:03.999Z</time></trkpt><trkpt lat="33.82900918101059" lon="-5.49336061196851"><ele>638.0</ele><time>2026-04-28T09:49:04.999Z</time></trkpt><trkpt lat="33.82892352917514" lon="-5.493699266937193"><ele>638.0</ele><time>2026-04-28T09:49:05.999Z</time></trkpt><trkpt lat="33.828839418437276" lon="-5.494041158495644"><ele>638.0</ele><time>2026-04-28T09:49:06.999Z</time></trkpt><trkpt lat="33.82875826989692" lon="-5.494387295057307"><ele>639.5</ele><time>2026-04-28T09:49:07.999Z</time></trkpt><trkpt lat="33.828683090577144" lon="-5.494735351045414"><ele>641.0</ele><time>2026-04-28T09:49:08.999Z</time></trkpt><trkpt lat="33.82861037331167" lon="-5.49508850500849"><ele>642.0</ele><time>2026-04-28T09:49:09.999Z</time></trkpt><trkpt lat="33.82854274581094" lon="-5.495440458927963"><ele>643.0</ele><time>2026-04-28T09:49:10.999Z</time></trkpt><trkpt lat="33.82848143455496" lon="-5.495795332371062"><ele>642.5</ele><time>2026-04-28T09:49:11.999Z</time></trkpt><trkpt lat="33.828427395647104" lon="-5.4961544099192405"><ele>642.0</ele><time>2026-04-28T09:49:12.999Z</time></trkpt><trkpt lat="33.82837712355154" lon="-5.4965141412704455"><ele>644.0</ele><time>2026-04-28T09:49:13.999Z</time></trkpt><trkpt lat="33.82833197765796" lon="-5.49687538276382"><ele>646.0</ele><time>2026-04-28T09:49:14.999Z</time></trkpt><trkpt lat="33.82829354275643" lon="-5.497236336177532"><ele>646.5</ele><time>2026-04-28T09:49:15.999Z</time></trkpt><trkpt lat="33.828258881151434" lon="-5.497597152143158"><ele>647.0</ele><time>2026-04-28T09:49:16.999Z</time></trkpt><trkpt lat="33.82823618345884" lon="-5.497945453657757"><ele>647.5</ele><time>2026-04-28T09:49:17.999Z</time></trkpt><trkpt lat="33.82822178792237" lon="-5.498288527992597"><ele>648.0</ele><time>2026-04-28T09:49:18.999Z</time></trkpt><trkpt lat="33.828200702714625" lon="-5.498624301179533"><ele>647.5</ele><time>2026-04-28T09:49:19.999Z</time></trkpt><trkpt lat="33.8281886160569" lon="-5.498962844136373"><ele>647.0</ele><time>2026-04-28T09:49:20.999Z</time></trkpt><trkpt lat="33.828180737981285" lon="-5.499300381846927"><ele>646.5</ele><time>2026-04-28T09:49:21.999Z</time></trkpt><trkpt lat="33.8281794626211" lon="-5.499638223746891"><ele>646.0</ele><time>2026-04-28T09:49:22.999Z</time></trkpt><trkpt lat="33.82818599454374" lon="-5.499976534413824"><ele>646.0</ele><time>2026-04-28T09:49:23.999Z</time></trkpt><trkpt lat="33.828198715391714" lon="-5.500317224017525"><ele>646.0</ele><time>2026-04-28T09:49:24.999Z</time></trkpt><trkpt lat="33.82821758199732" lon="-5.500659718606714"><ele>644.5</ele><time>2026-04-28T09:49:25.999Z</time></trkpt><trkpt lat="33.82823283941024" lon="-5.5010029377749685"><ele>643.0</ele><time>2026-04-28T09:49:26.999Z</time></trkpt><trkpt lat="33.828250466854584" lon="-5.501348749825015"><ele>642.5</ele><time>2026-04-28T09:49:27.999Z</time></trkpt><trkpt lat="33.82827423888884" lon="-5.501693210647921"><ele>642.0</ele><time>2026-04-28T09:49:28.999Z</time></trkpt><trkpt lat="33.82830108017157" lon="-5.50204270002678"><ele>641.0</ele><time>2026-04-28T09:49:29.999Z</time></trkpt><trkpt lat="33.828333456241104" lon="-5.502389450816643"><ele>640.0</ele><time>2026-04-28T09:49:30.999Z</time></trkpt><trkpt lat="33.82837495453232" lon="-5.502738781856074"><ele>638.0</ele><time>2026-04-28T09:49:31.999Z</time></trkpt><trkpt lat="33.828418273334385" lon="-5.50308800310269"><ele>636.0</ele><time>2026-04-28T09:49:32.999Z</time></trkpt><trkpt lat="33.828465288698915" lon="-5.503439314742111"><ele>634.5</ele><time>2026-04-28T09:49:34Z</time></trkpt><trkpt lat="33.82851555345963" lon="-5.503789751248732"><ele>633.0</ele><time>2026-04-28T09:49:35Z</time></trkpt><trkpt lat="33.82857803897143" lon="-5.504138531593689"><ele>633.0</ele><time>2026-04-28T09:49:36Z</time></trkpt><trkpt lat="33.82864008482114" lon="-5.504487605092211"><ele>633.0</ele><time>2026-04-28T09:49:37Z</time></trkpt><trkpt lat="33.82870653229733" lon="-5.504835045757131"><ele>631.5</ele><time>2026-04-28T09:49:38Z</time></trkpt><trkpt lat="33.82877340383246" lon="-5.5051809412836255"><ele>630.0</ele><time>2026-04-28T09:49:39Z</time></trkpt><trkpt lat="33.82884396838082" lon="-5.505524982011199"><ele>628.5</ele><time>2026-04-28T09:49:40Z</time></trkpt><trkpt lat="33.82892364681673" lon="-5.505868466762703"><ele>627.0</ele><time>2026-04-28T09:49:41Z</time></trkpt><trkpt lat="33.8290104732911" lon="-5.506206397582048"><ele>626.0</ele><time>2026-04-28T09:49:42Z</time></trkpt><trkpt lat="33.82910253061857" lon="-5.506544205584879"><ele>625.0</ele><time>2026-04-28T09:49:43Z</time></trkpt><trkpt lat="33.8291970281127" lon="-5.506880240537622"><ele>624.5</ele><time>2026-04-28T09:49:44Z</time></trkpt><trkpt lat="33.829294942855725" lon="-5.507216793596962"><ele>624.0</ele><time>2026-04-28T09:49:45Z</time></trkpt><trkpt lat="33.82939372477137" lon="-5.5075534231889245"><ele>625.0</ele><time>2026-04-28T09:49:46Z</time></trkpt><trkpt lat="33.829490346455394" lon="-5.507891165499602"><ele>626.0</ele><time>2026-04-28T09:49:47Z</time></trkpt><trkpt lat="33.829584383092985" lon="-5.508229314693681"><ele>626.0</ele><time>2026-04-28T09:49:48Z</time></trkpt><trkpt lat="33.82967671559261" lon="-5.508566171234386"><ele>626.0</ele><time>2026-04-28T09:49:49Z</time></trkpt><trkpt lat="33.82976733867869" lon="-5.508904508068041"><ele>628.5</ele><time>2026-04-28T09:49:49.999Z</time></trkpt><trkpt lat="33.829858157124505" lon="-5.509240916535721"><ele>631.0</ele><time>2026-04-28T09:49:50.999Z</time></trkpt><trkpt lat="33.829948556782" lon="-5.5095778205185315"><ele>633.0</ele><time>2026-04-28T09:49:51.999Z</time></trkpt><trkpt lat="33.83003569771945" lon="-5.509913907790363"><ele>635.0</ele><time>2026-04-28T09:49:52.999Z</time></trkpt><trkpt lat="33.830118385238926" lon="-5.5102536101376565"><ele>636.5</ele><time>2026-04-28T09:49:53.999Z</time></trkpt><trkpt lat="33.83019658030548" lon="-5.5105946334667975"><ele>638.0</ele><time>2026-04-28T09:49:54.999Z</time></trkpt><trkpt lat="33.83026638337752" lon="-5.5109405546386165"><ele>639.5</ele><time>2026-04-28T09:49:55.999Z</time></trkpt><trkpt lat="33.83033814388364" lon="-5.511285207359039"><ele>641.0</ele><time>2026-04-28T09:49:56.999Z</time></trkpt><trkpt lat="33.830406009181544" lon="-5.511632848401332"><ele>641.0</ele><time>2026-04-28T09:49:57.999Z</time></trkpt><trkpt lat="33.83046888994968" lon="-5.511982167944347"><ele>641.0</ele><time>2026-04-28T09:49:58.999Z</time></trkpt><trkpt lat="33.83051163498388" lon="-5.51233429563778"><ele>641.0</ele><time>2026-04-28T09:49:59.999Z</time></trkpt><trkpt lat="33.83055623998088" lon="-5.512685502065655"><ele>641.0</ele><time>2026-04-28T09:50:00.999Z</time></trkpt><trkpt lat="33.830595420534" lon="-5.513036332208181"><ele>641.0</ele><time>2026-04-28T09:50:01.999Z</time></trkpt><trkpt lat="33.83063234436954" lon="-5.513388871895786"><ele>641.0</ele><time>2026-04-28T09:50:02.999Z</time></trkpt><trkpt lat="33.830665948854154" lon="-5.513743001513771"><ele>642.0</ele><time>2026-04-28T09:50:03.999Z</time></trkpt><trkpt lat="33.83069561277123" lon="-5.514097431225351"><ele>643.0</ele><time>2026-04-28T09:50:04.999Z</time></trkpt><trkpt lat="33.83072151909804" lon="-5.514453444450218"><ele>643.5</ele><time>2026-04-28T09:50:05.999Z</time></trkpt><trkpt lat="33.83074104369898" lon="-5.514811067616426"><ele>644.0</ele><time>2026-04-28T09:50:06.999Z</time></trkpt><trkpt lat="33.830756670669636" lon="-5.515169436147694"><ele>644.0</ele><time>2026-04-28T09:50:07.999Z</time></trkpt><trkpt lat="33.83076810728908" lon="-5.515528087436971"><ele>644.0</ele><time>2026-04-28T09:50:08.999Z</time></trkpt><trkpt lat="33.8307728698866" lon="-5.515885734448437"><ele>644.0</ele><time>2026-04-28T09:50:09.999Z</time></trkpt><trkpt lat="33.8307688916906" lon="-5.516246132638494"><ele>644.0</ele><time>2026-04-28T09:50:10.999Z</time></trkpt><trkpt lat="33.83075877313833" lon="-5.51660378650202"><ele>644.0</ele><time>2026-04-28T09:50:11.999Z</time></trkpt><trkpt lat="33.83074310913547" lon="-5.516964350312888"><ele>644.0</ele><time>2026-04-28T09:50:12.999Z</time></trkpt><trkpt lat="33.83072387706022" lon="-5.5173273346090985"><ele>643.0</ele><time>2026-04-28T09:50:13.999Z</time></trkpt><trkpt lat="33.83070132278092" lon="-5.517688742349989"><ele>642.0</ele><time>2026-04-28T09:50:14.999Z</time></trkpt><trkpt lat="33.83067610439296" lon="-5.518052144137895"><ele>641.0</ele><time>2026-04-28T09:50:15.999Z</time></trkpt><trkpt lat="33.83064756974115" lon="-5.518414631692338"><ele>640.0</ele><time>2026-04-28T09:50:16.999Z</time></trkpt><trkpt lat="33.83061388768371" lon="-5.518766912917454"><ele>640.0</ele><time>2026-04-28T09:50:17.999Z</time></trkpt><trkpt lat="33.830573656427234" lon="-5.51910677161042"><ele>640.0</ele><time>2026-04-28T09:50:18.999Z</time></trkpt><trkpt lat="33.83052690798324" lon="-5.519431492241469"><ele>640.5</ele><time>2026-04-28T09:50:20Z</time></trkpt><trkpt lat="33.8304858780505" lon="-5.519726102796745"><ele>641.0</ele><time>2026-04-28T09:50:21Z</time></trkpt><trkpt lat="33.83044685953636" lon="-5.519992523448072"><ele>641.0</ele><time>2026-04-28T09:50:22Z</time></trkpt><trkpt lat="33.83040667116231" lon="-5.520250043000736"><ele>641.0</ele><time>2026-04-28T09:50:23Z</time></trkpt><trkpt lat="33.8303650500102" lon="-5.5204992869365475"><ele>641.0</ele><time>2026-04-28T09:50:24Z</time></trkpt><trkpt lat="33.83032153547061" lon="-5.520745656823261"><ele>641.3333333333333</ele><time>2026-04-28T09:50:25Z</time></trkpt><trkpt lat="33.830275803344286" lon="-5.520991714780782"><ele>641.6666666666666</ele><time>2026-04-28T09:50:26Z</time></trkpt><trkpt lat="33.83022695323088" lon="-5.521239428732744"><ele>642.0</ele><time>2026-04-28T09:50:27Z</time></trkpt><trkpt lat="33.83017566906528" lon="-5.52148704391446"><ele>642.6666666666666</ele><time>2026-04-28T09:50:28Z</time></trkpt><trkpt lat="33.83012072269172" lon="-5.521734754123423"><ele>643.3333333333333</ele><time>2026-04-28T09:50:29Z</time></trkpt><trkpt lat="33.830063455445924" lon="-5.521986582018101"><ele>644.0</ele><time>2026-04-28T09:50:30Z</time></trkpt><trkpt lat="33.83000496096134" lon="-5.52224314493924"><ele>644.0</ele><time>2026-04-28T09:50:31Z</time></trkpt><trkpt lat="33.82994272213774" lon="-5.52250629112389"><ele>644.0</ele><time>2026-04-28T09:50:32Z</time></trkpt><trkpt lat="33.8298779859374" lon="-5.522771889038689"><ele>644.0</ele><time>2026-04-28T09:50:33Z</time></trkpt><trkpt lat="33.82981193401422" lon="-5.523040550787417"><ele>644.0</ele><time>2026-04-28T09:50:34Z</time></trkpt><trkpt lat="33.82974451771506" lon="-5.523312261976858"><ele>644.0</ele><time>2026-04-28T09:50:35Z</time></trkpt><trkpt lat="33.82967798078476" lon="-5.523584585425626"><ele>644.0</ele><time>2026-04-28T09:50:36Z</time></trkpt><trkpt lat="33.82961105834107" lon="-5.523859652437116"><ele>644.5</ele><time>2026-04-28T09:50:37Z</time></trkpt><trkpt lat="33.82954495594258" lon="-5.524137640482531"><ele>645.0</ele><time>2026-04-28T09:50:38Z</time></trkpt><trkpt lat="33.82947913525534" lon="-5.524416305986189"><ele>645.0</ele><time>2026-04-28T09:50:39Z</time></trkpt><trkpt lat="33.82941477447564" lon="-5.52469596076028"><ele>645.0</ele><time>2026-04-28T09:50:40Z</time></trkpt><trkpt lat="33.82935060167703" lon="-5.524977615114549"><ele>645.0</ele><time>2026-04-28T09:50:41Z</time></trkpt><trkpt lat="33.82928881395269" lon="-5.525262588076006"><ele>645.0</ele><time>2026-04-28T09:50:42Z</time></trkpt><trkpt lat="33.829228417151796" lon="-5.525555703884349"><ele>645.0</ele><time>2026-04-28T09:50:43Z</time></trkpt><trkpt lat="33.82916885522982" lon="-5.525865475485735"><ele>645.0</ele><time>2026-04-28T09:50:44Z</time></trkpt><trkpt lat="33.829111034259824" lon="-5.526189893575499"><ele>645.5</ele><time>2026-04-28T09:50:45Z</time></trkpt><trkpt lat="33.82905660956261" lon="-5.526526635009549"><ele>646.0</ele><time>2026-04-28T09:50:46Z</time></trkpt><trkpt lat="33.82900575950293" lon="-5.526874572748617"><ele>646.0</ele><time>2026-04-28T09:50:47Z</time></trkpt><trkpt lat="33.828958381731475" lon="-5.527229823924285"><ele>646.0</ele><time>2026-04-28T09:50:48Z</time></trkpt><trkpt lat="33.82891539657467" lon="-5.5275876771586905"><ele>645.0</ele><time>2026-04-28T09:50:49Z</time></trkpt><trkpt lat="33.82887672895086" lon="-5.527946592874553"><ele>644.0</ele><time>2026-04-28T09:50:50Z</time></trkpt><trkpt lat="33.82884136367356" lon="-5.52830683297985"><ele>644.0</ele><time>2026-04-28T09:50:51Z</time></trkpt><trkpt lat="33.82881464719054" lon="-5.528667573943979"><ele>644.0</ele><time>2026-04-28T09:50:52Z</time></trkpt><trkpt lat="33.828794066974304" lon="-5.529029168313083"><ele>643.0</ele><time>2026-04-28T09:50:53Z</time></trkpt><trkpt lat="33.82877992755169" lon="-5.529389906193643"><ele>642.0</ele><time>2026-04-28T09:50:54Z</time></trkpt><trkpt lat="33.82877147168026" lon="-5.529753181415762"><ele>641.5</ele><time>2026-04-28T09:50:55Z</time></trkpt><trkpt lat="33.82877017694653" lon="-5.530116846953928"><ele>641.0</ele><time>2026-04-28T09:50:56Z</time></trkpt><trkpt lat="33.82877122638189" lon="-5.530482369752267"><ele>640.5</ele><time>2026-04-28T09:50:57Z</time></trkpt><trkpt lat="33.82877547440739" lon="-5.530847682090046"><ele>640.0</ele><time>2026-04-28T09:50:58Z</time></trkpt><trkpt lat="33.828780147062986" lon="-5.531212605740182"><ele>639.5</ele><time>2026-04-28T09:50:59Z</time></trkpt><trkpt lat="33.82879213088035" lon="-5.531576340888109"><ele>639.0</ele><time>2026-04-28T09:51:00Z</time></trkpt><trkpt lat="33.828807130307766" lon="-5.531939086161995"><ele>639.0</ele><time>2026-04-28T09:51:01Z</time></trkpt><trkpt lat="33.828829325630004" lon="-5.532304021411356"><ele>639.0</ele><time>2026-04-28T09:51:02Z</time></trkpt><trkpt lat="33.82885764580878" lon="-5.532666617580509"><ele>639.5</ele><time>2026-04-28T09:51:03Z</time></trkpt><trkpt lat="33.82889373053068" lon="-5.533029122626807"><ele>640.0</ele><time>2026-04-28T09:51:04Z</time></trkpt><trkpt lat="33.82893518728965" lon="-5.533390796695126"><ele>639.5</ele><time>2026-04-28T09:51:05Z</time></trkpt><trkpt lat="33.82897733394634" lon="-5.533751441366626"><ele>639.0</ele><time>2026-04-28T09:51:06Z</time></trkpt><trkpt lat="33.82902272253816" lon="-5.534113973781713"><ele>639.0</ele><time>2026-04-28T09:51:07Z</time></trkpt><trkpt lat="33.829067794652225" lon="-5.534471900085596"><ele>639.0</ele><time>2026-04-28T09:51:08Z</time></trkpt><trkpt lat="33.82911391052011" lon="-5.5348252692309385"><ele>638.0</ele><time>2026-04-28T09:51:09Z</time></trkpt><trkpt lat="33.829166282492054" lon="-5.535181571968628"><ele>637.0</ele><time>2026-04-28T09:51:10Z</time></trkpt><trkpt lat="33.82922120515421" lon="-5.535537649435721"><ele>635.5</ele><time>2026-04-28T09:51:11Z</time></trkpt><trkpt lat="33.82928369932419" lon="-5.53589036333779"><ele>634.0</ele><time>2026-04-28T09:51:12Z</time></trkpt><trkpt lat="33.82934846957517" lon="-5.536242802753844"><ele>632.5</ele><time>2026-04-28T09:51:13Z</time></trkpt><trkpt lat="33.8294125358076" lon="-5.536596332500778"><ele>631.0</ele><time>2026-04-28T09:51:14Z</time></trkpt><trkpt lat="33.82947840742109" lon="-5.536949848913216"><ele>629.5</ele><time>2026-04-28T09:51:15Z</time></trkpt><trkpt lat="33.82954469286588" lon="-5.5373024151097265"><ele>628.0</ele><time>2026-04-28T09:51:16Z</time></trkpt><trkpt lat="33.82961084254744" lon="-5.537654973585814"><ele>628.0</ele><time>2026-04-28T09:51:17Z</time></trkpt><trkpt lat="33.82967615583707" lon="-5.538009489717785"><ele>628.0</ele><time>2026-04-28T09:51:18Z</time></trkpt><trkpt lat="33.82974186967595" lon="-5.538365088084883"><ele>627.5</ele><time>2026-04-28T09:51:19Z</time></trkpt><trkpt lat="33.82980504303929" lon="-5.538719984497988"><ele>627.0</ele><time>2026-04-28T09:51:20Z</time></trkpt><trkpt lat="33.829871427528296" lon="-5.539074949007584"><ele>627.0</ele><time>2026-04-28T09:51:21Z</time></trkpt><trkpt lat="33.8299359203256" lon="-5.5394302080247595"><ele>627.0</ele><time>2026-04-28T09:51:22Z</time></trkpt><trkpt lat="33.83000126903325" lon="-5.539784298159601"><ele>627.0</ele><time>2026-04-28T09:51:23Z</time></trkpt><trkpt lat="33.830066788914785" lon="-5.540139793429921"><ele>627.0</ele><time>2026-04-28T09:51:24Z</time></trkpt><trkpt lat="33.83013155693197" lon="-5.540495584335452"><ele>625.0</ele><time>2026-04-28T09:51:25Z</time></trkpt><trkpt lat="33.830196339604676" lon="-5.540850699732984"><ele>623.0</ele><time>2026-04-28T09:51:26Z</time></trkpt><trkpt lat="33.83026023200592" lon="-5.541205422028399"><ele>622.5</ele><time>2026-04-28T09:51:27Z</time></trkpt><trkpt lat="33.830322408925866" lon="-5.541561625890047"><ele>622.0</ele><time>2026-04-28T09:51:28Z</time></trkpt><trkpt lat="33.830379832112186" lon="-5.5419194790093735"><ele>621.0</ele><time>2026-04-28T09:51:29Z</time></trkpt><trkpt lat="33.830432151180894" lon="-5.542275542093341"><ele>620.0</ele><time>2026-04-28T09:51:30Z</time></trkpt><trkpt lat="33.83048227571356" lon="-5.542633112749615"><ele>618.5</ele><time>2026-04-28T09:51:31Z</time></trkpt><trkpt lat="33.83052461120195" lon="-5.54299493614025"><ele>617.0</ele><time>2026-04-28T09:51:32Z</time></trkpt><trkpt lat="33.830565539129886" lon="-5.543356571808524"><ele>616.0</ele><time>2026-04-28T09:51:33Z</time></trkpt><trkpt lat="33.83060253502995" lon="-5.5437178702019185"><ele>615.0</ele><time>2026-04-28T09:51:34Z</time></trkpt><trkpt lat="33.83063633826357" lon="-5.544079998845037"><ele>615.0</ele><time>2026-04-28T09:51:35Z</time></trkpt><trkpt lat="33.83066600276338" lon="-5.544443122509899"><ele>615.0</ele><time>2026-04-28T09:51:36Z</time></trkpt><trkpt lat="33.830694924052835" lon="-5.544807848868248"><ele>615.0</ele><time>2026-04-28T09:51:37Z</time></trkpt><trkpt lat="33.830722740888575" lon="-5.545172445838051"><ele>615.0</ele><time>2026-04-28T09:51:38Z</time></trkpt><trkpt lat="33.83074488168449" lon="-5.545533231416537"><ele>613.5</ele><time>2026-04-28T09:51:39Z</time></trkpt><trkpt lat="33.83076487147342" lon="-5.545896925030041"><ele>612.0</ele><time>2026-04-28T09:51:40Z</time></trkpt><trkpt lat="33.830780638652534" lon="-5.54626035841905"><ele>612.0</ele><time>2026-04-28T09:51:41Z</time></trkpt><trkpt lat="33.83079186332807" lon="-5.546622905525776"><ele>612.0</ele><time>2026-04-28T09:51:42Z</time></trkpt><trkpt lat="33.830801488624815" lon="-5.546987895827256"><ele>611.0</ele><time>2026-04-28T09:51:43Z</time></trkpt><trkpt lat="33.83080738980816" lon="-5.547352164994573"><ele>610.0</ele><time>2026-04-28T09:51:44Z</time></trkpt><trkpt lat="33.83080795692977" lon="-5.547714546655348"><ele>610.0</ele><time>2026-04-28T09:51:45Z</time></trkpt><trkpt lat="33.83080374999054" lon="-5.5480790246359035"><ele>610.0</ele><time>2026-04-28T09:51:46Z</time></trkpt><trkpt lat="33.83079982939588" lon="-5.548437933781003"><ele>610.0</ele><time>2026-04-28T09:51:47Z</time></trkpt><trkpt lat="33.8307962803751" lon="-5.548799813561718"><ele>610.0</ele><time>2026-04-28T09:51:48Z</time></trkpt><trkpt lat="33.83079903977073" lon="-5.549159502072843"><ele>610.0</ele><time>2026-04-28T09:51:49Z</time></trkpt><trkpt lat="33.83080424108906" lon="-5.549520588199399"><ele>610.0</ele><time>2026-04-28T09:51:50Z</time></trkpt><trkpt lat="33.83080447911065" lon="-5.54988179064609"><ele>611.0</ele><time>2026-04-28T09:51:51Z</time></trkpt><trkpt lat="33.830807266334126" lon="-5.550243262955563"><ele>612.0</ele><time>2026-04-28T09:51:52Z</time></trkpt><trkpt lat="33.83080661706275" lon="-5.550605681269047"><ele>612.0</ele><time>2026-04-28T09:51:53Z</time></trkpt><trkpt lat="33.83080781696669" lon="-5.550968297014768"><ele>612.0</ele><time>2026-04-28T09:51:53.999Z</time></trkpt><trkpt lat="33.83080595089562" lon="-5.551331078891541"><ele>611.5</ele><time>2026-04-28T09:51:54.999Z</time></trkpt><trkpt lat="33.830803019072626" lon="-5.5516930441653765"><ele>611.0</ele><time>2026-04-28T09:51:55.999Z</time></trkpt><trkpt lat="33.83080163227915" lon="-5.552056492600036"><ele>612.0</ele><time>2026-04-28T09:51:56.999Z</time></trkpt><trkpt lat="33.830803336971854" lon="-5.552421075065186"><ele>613.0</ele><time>2026-04-28T09:51:57.999Z</time></trkpt><trkpt lat="33.830803670635376" lon="-5.552785281713145"><ele>613.0</ele><time>2026-04-28T09:51:58.999Z</time></trkpt><trkpt lat="33.83080393765097" lon="-5.553149106294625"><ele>613.0</ele><time>2026-04-28T09:51:59.999Z</time></trkpt><trkpt lat="33.830806012775795" lon="-5.553511510370953"><ele>612.0</ele><time>2026-04-28T09:52:00.999Z</time></trkpt><trkpt lat="33.83081128768761" lon="-5.553874448262265"><ele>611.0</ele><time>2026-04-28T09:52:01.999Z</time></trkpt><trkpt lat="33.8308198366434" lon="-5.554236626373042"><ele>610.0</ele><time>2026-04-28T09:52:02.999Z</time></trkpt><trkpt lat="33.83083470361445" lon="-5.554599898502416"><ele>609.0</ele><time>2026-04-28T09:52:03.999Z</time></trkpt><trkpt lat="33.83085324287822" lon="-5.554961360367948"><ele>609.0</ele><time>2026-04-28T09:52:04.999Z</time></trkpt><trkpt lat="33.83087206856864" lon="-5.555323676034423"><ele>609.0</ele><time>2026-04-28T09:52:05.999Z</time></trkpt><trkpt lat="33.83089211186599" lon="-5.5556845820529555"><ele>607.0</ele><time>2026-04-28T09:52:06.999Z</time></trkpt><trkpt lat="33.830910817747196" lon="-5.55604466365445"><ele>605.0</ele><time>2026-04-28T09:52:07.999Z</time></trkpt><trkpt lat="33.8309285735706" lon="-5.556404410625466"><ele>605.0</ele><time>2026-04-28T09:52:08.999Z</time></trkpt><trkpt lat="33.83094677522574" lon="-5.556760308227724"><ele>605.0</ele><time>2026-04-28T09:52:09.999Z</time></trkpt><trkpt lat="33.83096974421359" lon="-5.557109113952195"><ele>601.5</ele><time>2026-04-28T09:52:10.999Z</time></trkpt><trkpt lat="33.83099244149147" lon="-5.557459745044344"><ele>598.0</ele><time>2026-04-28T09:52:11.999Z</time></trkpt><trkpt lat="33.83101936826276" lon="-5.557807886108656"><ele>598.0</ele><time>2026-04-28T09:52:12.999Z</time></trkpt><trkpt lat="33.83104802821626" lon="-5.558153162715323"><ele>598.0</ele><time>2026-04-28T09:52:13.999Z</time></trkpt><trkpt lat="33.83107866903032" lon="-5.55849752252916"><ele>599.5</ele><time>2026-04-28T09:52:14.999Z</time></trkpt><trkpt lat="33.8311090713764" lon="-5.55884110268767"><ele>601.0</ele><time>2026-04-28T09:52:15.999Z</time></trkpt><trkpt lat="33.83114177236077" lon="-5.559178172066359"><ele>601.0</ele><time>2026-04-28T09:52:16.999Z</time></trkpt><trkpt lat="33.83117735228127" lon="-5.559510271875496"><ele>601.0</ele><time>2026-04-28T09:52:17.999Z</time></trkpt><trkpt lat="33.83121443966811" lon="-5.55984477569387"><ele>601.0</ele><time>2026-04-28T09:52:18.999Z</time></trkpt><trkpt lat="33.83125718982844" lon="-5.560180319973393"><ele>601.0</ele><time>2026-04-28T09:52:19.999Z</time></trkpt><trkpt lat="33.83129729993077" lon="-5.560514101706274"><ele>601.0</ele><time>2026-04-28T09:52:20.999Z</time></trkpt><trkpt lat="33.83133771266339" lon="-5.560841491670244"><ele>601.0</ele><time>2026-04-28T09:52:21.999Z</time></trkpt><trkpt lat="33.831377442125174" lon="-5.56116210136913"><ele>601.5</ele><time>2026-04-28T09:52:22.999Z</time></trkpt><trkpt lat="33.83142362956099" lon="-5.561483792785776"><ele>602.0</ele><time>2026-04-28T09:52:23.999Z</time></trkpt><trkpt lat="33.831466047168796" lon="-5.561806581914081"><ele>602.0</ele><time>2026-04-28T09:52:24.999Z</time></trkpt><trkpt lat="33.83151117039698" lon="-5.562126013526549"><ele>602.0</ele><time>2026-04-28T09:52:26Z</time></trkpt><trkpt lat="33.831556390960884" lon="-5.56244192014951"><ele>602.0</ele><time>2026-04-28T09:52:27Z</time></trkpt><trkpt lat="33.83159641119957" lon="-5.562735592779461"><ele>602.0</ele><time>2026-04-28T09:52:28Z</time></trkpt><trkpt lat="33.83163306878992" lon="-5.563010380144071"><ele>601.0</ele><time>2026-04-28T09:52:29Z</time></trkpt><trkpt lat="33.83166903563035" lon="-5.563270417379587"><ele>600.0</ele><time>2026-04-28T09:52:30Z</time></trkpt><trkpt lat="33.831704697053766" lon="-5.563508811836517"><ele>599.0</ele><time>2026-04-28T09:52:31Z</time></trkpt><trkpt lat="33.831737339409216" lon="-5.563733040006803"><ele>598.0</ele><time>2026-04-28T09:52:32Z</time></trkpt><trkpt lat="33.83176941530806" lon="-5.5639431814051985"><ele>597.0</ele><time>2026-04-28T09:52:33Z</time></trkpt><trkpt lat="33.831800957789305" lon="-5.564140672105754"><ele>596.0</ele><time>2026-04-28T09:52:34Z</time></trkpt><trkpt lat="33.83183221433461" lon="-5.564326407012806"><ele>596.0</ele><time>2026-04-28T09:52:35Z</time></trkpt><trkpt lat="33.83186194933641" lon="-5.564508855767647"><ele>596.0</ele><time>2026-04-28T09:52:36Z</time></trkpt><trkpt lat="33.83189566735415" lon="-5.564695637110937"><ele>596.0</ele><time>2026-04-28T09:52:37Z</time></trkpt><trkpt lat="33.8319240501263" lon="-5.564884860449806"><ele>596.0</ele><time>2026-04-28T09:52:38Z</time></trkpt><trkpt lat="33.83196472007671" lon="-5.565081396505549"><ele>596.0</ele><time>2026-04-28T09:52:39Z</time></trkpt><trkpt lat="33.83201069535795" lon="-5.565273028402575"><ele>596.0</ele><time>2026-04-28T09:52:40Z</time></trkpt><trkpt lat="33.832063627488154" lon="-5.565467068266908"><ele>598.3333333333333</ele><time>2026-04-28T09:52:41Z</time></trkpt><trkpt lat="33.832120798614085" lon="-5.565664793541027"><ele>600.6666666666666</ele><time>2026-04-28T09:52:42Z</time></trkpt><trkpt lat="33.832181309514354" lon="-5.565860707296148"><ele>603.0</ele><time>2026-04-28T09:52:43Z</time></trkpt><trkpt lat="33.83224200599734" lon="-5.566046926844997"><ele>604.3333333333334</ele><time>2026-04-28T09:52:44Z</time></trkpt><trkpt lat="33.83230668282348" lon="-5.566234667842536"><ele>605.6666666666667</ele><time>2026-04-28T09:52:45Z</time></trkpt><trkpt lat="33.83237172104503" lon="-5.566418323257674"><ele>607.0</ele><time>2026-04-28T09:52:46Z</time></trkpt><trkpt lat="33.83243112731774" lon="-5.566592242201884"><ele>607.0</ele><time>2026-04-28T09:52:47Z</time></trkpt><trkpt lat="33.83248228991256" lon="-5.566744796071653"><ele>607.0</ele><time>2026-04-28T09:52:48Z</time></trkpt><trkpt lat="33.8325249531022" lon="-5.56687816830788"><ele>607.0</ele><time>2026-04-28T09:52:49Z</time></trkpt><trkpt lat="33.832557477363785" lon="-5.566995362823602"><ele>607.0</ele><time>2026-04-28T09:52:50Z</time></trkpt><trkpt lat="33.83258042584249" lon="-5.567100726442394"><ele>607.0</ele><time>2026-04-28T09:52:51Z</time></trkpt><trkpt lat="33.83259731336351" lon="-5.567194937170398"><ele>607.0</ele><time>2026-04-28T09:52:52Z</time></trkpt><trkpt lat="33.83260942467342" lon="-5.5672766575515595"><ele>607.0</ele><time>2026-04-28T09:52:53Z</time></trkpt><trkpt lat="33.83262948426343" lon="-5.56740789799391"><ele>607.0</ele><time>2026-04-28T09:52:55Z</time></trkpt><trkpt lat="33.83264694440019" lon="-5.5675008388765965"><ele>607.0</ele><time>2026-04-28T09:52:57Z</time></trkpt><trkpt lat="33.83270916093575" lon="-5.567589621916134"><ele>607.0</ele><time>2026-04-28T09:53:00Z</time></trkpt><trkpt lat="33.83273876639136" lon="-5.56768014926117"><ele>607.0</ele><time>2026-04-28T09:53:02Z</time></trkpt><trkpt lat="33.832792042932006" lon="-5.567743820797898"><ele>606.75</ele><time>2026-04-28T09:53:04Z</time></trkpt><trkpt lat="33.83284096289807" lon="-5.567834833982711"><ele>606.5</ele><time>2026-04-28T09:53:07Z</time></trkpt><trkpt lat="33.83287959159552" lon="-5.567906700765963"><ele>606.25</ele><time>2026-04-28T09:55:08Z</time></trkpt><trkpt lat="33.832668692709504" lon="-5.567957469247087"><ele>606.0</ele><time>2026-04-28T09:55:11Z</time></trkpt><trkpt lat="33.83287805355513" lon="-5.568013822942958"><ele>606.0</ele><time>2026-04-28T09:55:18Z</time></trkpt><trkpt lat="33.83293864659748" lon="-5.568047374796897"><ele>606.0</ele><time>2026-04-28T09:55:20Z</time></trkpt><trkpt lat="33.83303628534558" lon="-5.56812843218604"><ele>606.0</ele><time>2026-04-28T09:55:22Z</time></trkpt><trkpt lat="33.83293005118035" lon="-5.568106131984865"><ele>606.0</ele><time>2026-04-28T09:55:27Z</time></trkpt><trkpt lat="33.832876071934194" lon="-5.568064399934672"><ele>606.0</ele><time>2026-04-28T09:55:29Z</time></trkpt><trkpt lat="33.83282114667634" lon="-5.567978430143211"><ele>606.0</ele><time>2026-04-28T09:55:42Z</time></trkpt><trkpt lat="33.83274035627313" lon="-5.567780531022765"><ele>606.0</ele><time>2026-04-28T09:55:44Z</time></trkpt><trkpt lat="33.832749602257465" lon="-5.567861351753895"><ele>606.0</ele><time>2026-04-28T09:56:40Z</time></trkpt><trkpt lat="33.83277184410594" lon="-5.568000841696966"><ele>606.0</ele><time>2026-04-28T09:56:50Z</time></trkpt><trkpt lat="33.8328082999927" lon="-5.568064148713218"><ele>606.0</ele><time>2026-04-28T09:56:51Z</time></trkpt><trkpt lat="33.83286971268688" lon="-5.568142393857662"><ele>606.0</ele><time>2026-04-28T09:58:28.999Z</time></trkpt><trkpt lat="33.832895603249995" lon="-5.568211700866037"><ele>606.0</ele><time>2026-04-28T09:58:29.999Z</time></trkpt><trkpt lat="33.83292419384656" lon="-5.568306062181678"><ele>606.0</ele><time>2026-04-28T09:58:30.999Z</time></trkpt><trkpt lat="33.83296650332431" lon="-5.568389099222838"><ele>606.0</ele><time>2026-04-28T09:58:32.999Z</time></trkpt><trkpt lat="33.83303430217231" lon="-5.568490121138442"><ele>606.0</ele><time>2026-04-28T09:58:34.999Z</time></trkpt><trkpt lat="33.83302526369014" lon="-5.568590449317834"><ele>606.0</ele><time>2026-04-28T09:58:35.999Z</time></trkpt><trkpt lat="33.83311327889465" lon="-5.568728246996618"><ele>606.0</ele><time>2026-04-28T09:58:36.999Z</time></trkpt><trkpt lat="33.833239838503935" lon="-5.568776502352553"><ele>606.2</ele><time>2026-04-28T09:58:37.999Z</time></trkpt><trkpt lat="33.83328248189271" lon="-5.568934701599822"><ele>606.4000000000001</ele><time>2026-04-28T09:58:39.999Z</time></trkpt><trkpt lat="33.833300153422755" lon="-5.569043005084137"><ele>606.6</ele><time>2026-04-28T09:58:40.999Z</time></trkpt><trkpt lat="33.833303957126816" lon="-5.569123741574299"><ele>606.8000000000001</ele><time>2026-04-28T09:58:41.999Z</time></trkpt><trkpt lat="33.833275329851084" lon="-5.5689506673729"><ele>607.0</ele><time>2026-04-28T09:58:44Z</time></trkpt><trkpt lat="33.8332703351394" lon="-5.569041523393068"><ele>607.0</ele><time>2026-04-28T09:59:01.034Z</time></trkpt><trkpt lat="33.83325383205007" lon="-5.568887887026988"><ele>607.0</ele><time>2026-04-28T09:59:02.03Z</time></trkpt><trkpt lat="33.83326526819253" lon="-5.568978913584234"><ele>607.0</ele><time>2026-04-28T09:59:03.03Z</time></trkpt><trkpt lat="33.833257605843905" lon="-5.569134170423354"><ele>607.0</ele><time>2026-04-28T09:59:13.024Z</time></trkpt><trkpt lat="33.832813302864615" lon="-5.568030256548802"><ele>606.5</ele><time>2026-04-28T09:59:27.441Z</time></trkpt><trkpt lat="33.83275457908293" lon="-5.567878054299065"><ele>606.0</ele><time>2026-04-28T09:59:33.433Z</time></trkpt><trkpt lat="33.832908306371415" lon="-5.568270430838318"><ele>607.0</ele><time>2026-04-28T09:59:35.396Z</time></trkpt><trkpt lat="33.833162792578705" lon="-5.569105389304198"><ele>607.0</ele><time>2026-04-28T09:59:39.009Z</time></trkpt><trkpt lat="33.833076708848694" lon="-5.56888492448306"><ele>607.0</ele><time>2026-04-28T09:59:48.009Z</time></trkpt><trkpt lat="33.832931255644645" lon="-5.568429647208511"><ele>606.75</ele><time>2026-04-28T09:59:59.011Z</time></trkpt><trkpt lat="33.83301061016977" lon="-5.568684058779818"><ele>606.5</ele><time>2026-04-28T10:00:00.011Z</time></trkpt><trkpt lat="33.832977641748165" lon="-5.568555612069035"><ele>606.25</ele><time>2026-04-28T10:00:08.014Z</time></trkpt><trkpt lat="33.83293664178384" lon="-5.568440699247672"><ele>606.0</ele><time>2026-04-28T10:00:10.014Z</time></trkpt><trkpt lat="33.83274515054618" lon="-5.5678433971209635"><ele>606.0</ele><time>2026-04-28T10:00:21.439Z</time></trkpt><trkpt lat="33.83287521857275" lon="-5.568030970585723"><ele>606.0</ele><time>2026-04-28T10:00:29.013Z</time></trkpt><trkpt lat="33.83285318385235" lon="-5.56795941188037"><ele>606.0</ele><time>2026-04-28T10:00:33.999Z</time></trkpt><trkpt lat="33.83279045399223" lon="-5.567945283510324"><ele>606.0</ele><time>2026-04-28T10:04:21.999Z</time></trkpt><trkpt lat="33.83276098611292" lon="-5.568021627429286"><ele>606.0</ele><time>2026-04-28T10:04:28.999Z</time></trkpt><trkpt lat="33.832708170993996" lon="-5.568071734465793"><ele>606.0</ele><time>2026-04-28T10:04:34.999Z</time></trkpt><trkpt lat="33.83269117511167" lon="-5.568144818738956"><ele>606.0</ele><time>2026-04-28T10:04:41.999Z</time></trkpt><trkpt lat="33.83274403198123" lon="-5.568186915243814"><ele>606.0</ele><time>2026-04-28T10:04:49.999Z</time></trkpt><trkpt lat="33.8328061970064" lon="-5.568203335509249"><ele>606.0</ele><time>2026-04-28T10:04:56.999Z</time></trkpt><trkpt lat="33.8328737798068" lon="-5.568182009264107"><ele>606.0</ele><time>2026-04-28T10:05:05Z</time></trkpt><trkpt lat="33.83294068180756" lon="-5.568221193033159"><ele>606.0</ele><time>2026-04-28T10:05:11Z</time></trkpt><trkpt lat="33.83286053601202" lon="-5.568237493034691"><ele>606.0</ele><time>2026-04-28T10:11:48Z</time></trkpt><trkpt lat="33.832816537639125" lon="-5.568295981112942"><ele>606.0</ele><time>2026-04-28T10:11:55Z</time></trkpt><trkpt lat="33.832758688896675" lon="-5.568261217243916"><ele>606.0</ele><time>2026-04-28T10:12:06Z</time></trkpt><trkpt lat="33.83271130248628" lon="-5.568177428716505"><ele>606.0</ele><time>2026-04-28T10:12:14Z</time></trkpt><trkpt lat="33.832735725830695" lon="-5.568093796360408"><ele>606.0</ele><time>2026-04-28T10:12:19Z</time></trkpt><trkpt lat="33.83278904893247" lon="-5.568031544760629"><ele>606.0</ele><time>2026-04-28T10:12:23.999Z</time></trkpt><trkpt lat="33.832758445767645" lon="-5.567954887645092"><ele>606.0</ele><time>2026-04-28T10:12:29.999Z</time></trkpt><trkpt lat="33.832819831376746" lon="-5.567936403124503"><ele>606.0</ele><time>2026-04-28T10:12:33.999Z</time></trkpt><trkpt lat="33.83276433976995" lon="-5.567890498816756"><ele>606.0</ele><time>2026-04-28T10:20:57.999Z</time></trkpt><trkpt lat="33.83270285035672" lon="-5.567907849930413"><ele>606.0</ele><time>2026-04-28T10:20:59.999Z</time></trkpt><trkpt lat="33.83264653675676" lon="-5.567942804785122"><ele>606.0</ele><time>2026-04-28T10:21:01.999Z</time></trkpt><trkpt lat="33.832606389362574" lon="-5.568006070893577"><ele>606.0</ele><time>2026-04-28T10:21:03.999Z</time></trkpt><trkpt lat="33.832585606779794" lon="-5.568085158196867"><ele>606.0</ele><time>2026-04-28T10:21:05.999Z</time></trkpt><trkpt lat="33.832584314802006" lon="-5.568180109562642"><ele>606.0</ele><time>2026-04-28T10:21:07.999Z</time></trkpt><trkpt lat="33.83259729735768" lon="-5.568290385731956"><ele>606.0</ele><time>2026-04-28T10:21:09.999Z</time></trkpt><trkpt lat="33.832608183236076" lon="-5.56839110893783"><ele>606.2</ele><time>2026-04-28T10:21:11.999Z</time></trkpt><trkpt lat="33.83261865896342" lon="-5.568479997523655"><ele>606.4000000000001</ele><time>2026-04-28T10:21:13.999Z</time></trkpt><trkpt lat="33.83263048609983" lon="-5.568587283357464"><ele>606.6</ele><time>2026-04-28T10:21:15.999Z</time></trkpt><trkpt lat="33.83264668584366" lon="-5.568715304517725"><ele>606.8000000000001</ele><time>2026-04-28T10:21:17.999Z</time></trkpt><trkpt lat="33.83266359167756" lon="-5.568866047621927"><ele>607.0</ele><time>2026-04-28T10:21:19.999Z</time></trkpt><trkpt lat="33.83267636049827" lon="-5.568947065689025"><ele>607.0</ele><time>2026-04-28T10:21:20.999Z</time></trkpt><trkpt lat="33.8326901857029" lon="-5.569026722802508"><ele>607.0</ele><time>2026-04-28T10:21:21.999Z</time></trkpt><trkpt lat="33.83270404151077" lon="-5.56910401034785"><ele>607.0</ele><time>2026-04-28T10:21:22.999Z</time></trkpt><trkpt lat="33.8327279816516" lon="-5.569242853332697"><ele>607.0</ele><time>2026-04-28T10:21:24.999Z</time></trkpt><trkpt lat="33.832746316331495" lon="-5.569380867332886"><ele>607.0</ele><time>2026-04-28T10:21:26.999Z</time></trkpt><trkpt lat="33.83276320108125" lon="-5.5695375590407075"><ele>607.0</ele><time>2026-04-28T10:21:28.999Z</time></trkpt><trkpt lat="33.83276938294348" lon="-5.56962582936196"><ele>607.0</ele><time>2026-04-28T10:21:29.999Z</time></trkpt><trkpt lat="33.83277850756594" lon="-5.5697202736036555"><ele>607.0</ele><time>2026-04-28T10:21:30.999Z</time></trkpt><trkpt lat="33.83279112149888" lon="-5.5698231203299295"><ele>607.0</ele><time>2026-04-28T10:21:31.999Z</time></trkpt><trkpt lat="33.832805103760506" lon="-5.569930739785482"><ele>607.0</ele><time>2026-04-28T10:21:32.999Z</time></trkpt><trkpt lat="33.832818918479155" lon="-5.57004350133035"><ele>607.0</ele><time>2026-04-28T10:21:33.999Z</time></trkpt><trkpt lat="33.83283446736485" lon="-5.570163794835783"><ele>607.0</ele><time>2026-04-28T10:21:34.999Z</time></trkpt><trkpt lat="33.83285396882998" lon="-5.570292297522081"><ele>607.0</ele><time>2026-04-28T10:21:35.999Z</time></trkpt><trkpt lat="33.832873841110064" lon="-5.570427553115999"><ele>607.0</ele><time>2026-04-28T10:21:36.999Z</time></trkpt><trkpt lat="33.832896361265" lon="-5.57056485914705"><ele>607.0</ele><time>2026-04-28T10:21:37.999Z</time></trkpt><trkpt lat="33.83291830506675" lon="-5.570704920963594"><ele>606.5</ele><time>2026-04-28T10:21:38.999Z</time></trkpt><trkpt lat="33.83293731050219" lon="-5.57084552812515"><ele>606.0</ele><time>2026-04-28T10:21:39.999Z</time></trkpt><trkpt lat="33.83295034953037" lon="-5.570980422459347"><ele>605.5</ele><time>2026-04-28T10:21:40.999Z</time></trkpt><trkpt lat="33.832962748444984" lon="-5.571111658550396"><ele>605.0</ele><time>2026-04-28T10:21:41.999Z</time></trkpt><trkpt lat="33.832974312533764" lon="-5.57124180074827"><ele>604.8</ele><time>2026-04-28T10:21:42.999Z</time></trkpt><trkpt lat="33.832983726953714" lon="-5.5713687502025016"><ele>604.6</ele><time>2026-04-28T10:21:43.999Z</time></trkpt><trkpt lat="33.83299329194303" lon="-5.571496248386513"><ele>604.4</ele><time>2026-04-28T10:21:44.999Z</time></trkpt><trkpt lat="33.83300129861" lon="-5.57162122449897"><ele>604.2</ele><time>2026-04-28T10:21:45.999Z</time></trkpt><trkpt lat="33.8330061146027" lon="-5.571734535858232"><ele>604.0</ele><time>2026-04-28T10:21:46.999Z</time></trkpt><trkpt lat="33.83300927841618" lon="-5.571838913184517"><ele>604.0</ele><time>2026-04-28T10:21:47.999Z</time></trkpt><trkpt lat="33.833012064089175" lon="-5.571939845225726"><ele>604.0</ele><time>2026-04-28T10:21:48.999Z</time></trkpt><trkpt lat="33.83301198369796" lon="-5.572044666084946"><ele>604.0</ele><time>2026-04-28T10:21:49.999Z</time></trkpt><trkpt lat="33.833012518092424" lon="-5.572155093639496"><ele>604.0</ele><time>2026-04-28T10:21:50.999Z</time></trkpt><trkpt lat="33.83301034810004" lon="-5.572268429161345"><ele>604.0</ele><time>2026-04-28T10:21:51.999Z</time></trkpt><trkpt lat="33.83300426871564" lon="-5.572384579786153"><ele>603.6</ele><time>2026-04-28T10:21:52.999Z</time></trkpt><trkpt lat="33.83299710251374" lon="-5.5725043043967"><ele>603.2</ele><time>2026-04-28T10:21:53.999Z</time></trkpt><trkpt lat="33.83299218740297" lon="-5.57262627553943"><ele>602.8000000000001</ele><time>2026-04-28T10:21:54.999Z</time></trkpt><trkpt lat="33.832989278786464" lon="-5.572749436496822"><ele>602.4</ele><time>2026-04-28T10:21:55.999Z</time></trkpt><trkpt lat="33.832987927342025" lon="-5.572873639864462"><ele>602.0</ele><time>2026-04-28T10:21:56.999Z</time></trkpt><trkpt lat="33.832987698120164" lon="-5.572999397097164"><ele>601.25</ele><time>2026-04-28T10:21:57.999Z</time></trkpt><trkpt lat="33.83298828767581" lon="-5.573129558484664"><ele>600.5</ele><time>2026-04-28T10:21:58.999Z</time></trkpt><trkpt lat="33.8329914981454" lon="-5.5732676485607655"><ele>599.75</ele><time>2026-04-28T10:21:59.999Z</time></trkpt><trkpt lat="33.83300076371414" lon="-5.573411659692715"><ele>599.0</ele><time>2026-04-28T10:22:00.999Z</time></trkpt><trkpt lat="33.833013914639956" lon="-5.573562308242141"><ele>598.5</ele><time>2026-04-28T10:22:01.999Z</time></trkpt><trkpt lat="33.83302570873721" lon="-5.573718952571167"><ele>598.0</ele><time>2026-04-28T10:22:02.999Z</time></trkpt><trkpt lat="33.83303759846591" lon="-5.573890645572171"><ele>597.5</ele><time>2026-04-28T10:22:03.999Z</time></trkpt><trkpt lat="33.833051810118995" lon="-5.57408083786046"><ele>597.0</ele><time>2026-04-28T10:22:04.999Z</time></trkpt><trkpt lat="33.833071731148934" lon="-5.574285578148506"><ele>597.0</ele><time>2026-04-28T10:22:05.999Z</time></trkpt><trkpt lat="33.8330954549279" lon="-5.574505660448652"><ele>597.0</ele><time>2026-04-28T10:22:06.999Z</time></trkpt><trkpt lat="33.83312230245577" lon="-5.574736966888166"><ele>597.0</ele><time>2026-04-28T10:22:07.999Z</time></trkpt><trkpt lat="33.83315335629961" lon="-5.574982010392863"><ele>597.0</ele><time>2026-04-28T10:22:08.999Z</time></trkpt><trkpt lat="33.833186067577586" lon="-5.575239513195603"><ele>597.0</ele><time>2026-04-28T10:22:09.999Z</time></trkpt><trkpt lat="33.833220346840776" lon="-5.575505579381196"><ele>597.0</ele><time>2026-04-28T10:22:10.999Z</time></trkpt><trkpt lat="33.833254565553034" lon="-5.575783895611517"><ele>597.0</ele><time>2026-04-28T10:22:11.999Z</time></trkpt><trkpt lat="33.8332912182628" lon="-5.576073394195375"><ele>597.0</ele><time>2026-04-28T10:22:12.999Z</time></trkpt><trkpt lat="33.833331252206385" lon="-5.57637435353299"><ele>597.0</ele><time>2026-04-28T10:22:13.999Z</time></trkpt><trkpt lat="33.83337304468768" lon="-5.576682348782743"><ele>597.0</ele><time>2026-04-28T10:22:14.999Z</time></trkpt><trkpt lat="33.83341436422477" lon="-5.576995580808406"><ele>596.0</ele><time>2026-04-28T10:22:15.999Z</time></trkpt><trkpt lat="33.833454367858785" lon="-5.577316147358693"><ele>595.0</ele><time>2026-04-28T10:22:16.999Z</time></trkpt><trkpt lat="33.833495446061995" lon="-5.577644862969809"><ele>593.0</ele><time>2026-04-28T10:22:17.999Z</time></trkpt><trkpt lat="33.83353798644815" lon="-5.577983037537388"><ele>591.0</ele><time>2026-04-28T10:22:18.999Z</time></trkpt><trkpt lat="33.83358317871702" lon="-5.578330134976746"><ele>591.0</ele><time>2026-04-28T10:22:19.999Z</time></trkpt><trkpt lat="33.83362875986144" lon="-5.57867879634298"><ele>591.0</ele><time>2026-04-28T10:22:20.999Z</time></trkpt><trkpt lat="33.833674561797814" lon="-5.579023543506759"><ele>591.0</ele><time>2026-04-28T10:22:21.999Z</time></trkpt><trkpt lat="33.833720610334645" lon="-5.579363388088573"><ele>591.0</ele><time>2026-04-28T10:22:22.999Z</time></trkpt><trkpt lat="33.8337695607528" lon="-5.5797056101347025"><ele>591.5</ele><time>2026-04-28T10:22:23.999Z</time></trkpt><trkpt lat="33.833820709390494" lon="-5.580047458636388"><ele>592.0</ele><time>2026-04-28T10:22:24.999Z</time></trkpt><trkpt lat="33.83387671155152" lon="-5.580393668891383"><ele>591.0</ele><time>2026-04-28T10:22:25.999Z</time></trkpt><trkpt lat="33.83393846124918" lon="-5.580738524557935"><ele>590.0</ele><time>2026-04-28T10:22:26.999Z</time></trkpt><trkpt lat="33.8340052701474" lon="-5.581083520603713"><ele>589.0</ele><time>2026-04-28T10:22:27.999Z</time></trkpt><trkpt lat="33.834073345297675" lon="-5.5814285824694245"><ele>588.0</ele><time>2026-04-28T10:22:28.999Z</time></trkpt><trkpt lat="33.83414253228768" lon="-5.58177208840202"><ele>588.0</ele><time>2026-04-28T10:22:29.999Z</time></trkpt><trkpt lat="33.834214633267095" lon="-5.5821163416319415"><ele>588.0</ele><time>2026-04-28T10:22:30.999Z</time></trkpt><trkpt lat="33.83428834693918" lon="-5.582457576521654"><ele>587.0</ele><time>2026-04-28T10:22:31.999Z</time></trkpt><trkpt lat="33.83436773542335" lon="-5.582801049118515"><ele>586.0</ele><time>2026-04-28T10:22:32.999Z</time></trkpt><trkpt lat="33.83444996661325" lon="-5.5831434860792015"><ele>586.0</ele><time>2026-04-28T10:22:33.999Z</time></trkpt><trkpt lat="33.834533255901384" lon="-5.5834857126993365"><ele>586.0</ele><time>2026-04-28T10:22:34.999Z</time></trkpt><trkpt lat="33.834618299055684" lon="-5.5838283985684845"><ele>586.0</ele><time>2026-04-28T10:22:35.999Z</time></trkpt><trkpt lat="33.83470803230081" lon="-5.5841690122027225"><ele>586.0</ele><time>2026-04-28T10:22:36.999Z</time></trkpt><trkpt lat="33.834802062324" lon="-5.584508350078605"><ele>586.0</ele><time>2026-04-28T10:22:37.999Z</time></trkpt><trkpt lat="33.83489885762215" lon="-5.5848476328497325"><ele>586.0</ele><time>2026-04-28T10:22:38.999Z</time></trkpt><trkpt lat="33.83499713372" lon="-5.585185426660235"><ele>586.0</ele><time>2026-04-28T10:22:39.999Z</time></trkpt><trkpt lat="33.83509814438218" lon="-5.5855245768929045"><ele>586.0</ele><time>2026-04-28T10:22:40.999Z</time></trkpt><trkpt lat="33.8352023302447" lon="-5.585862555499711"><ele>584.5</ele><time>2026-04-28T10:22:41.999Z</time></trkpt><trkpt lat="33.83530783337001" lon="-5.5861983234233765"><ele>583.0</ele><time>2026-04-28T10:22:42.999Z</time></trkpt><trkpt lat="33.83541553041756" lon="-5.586533863547105"><ele>583.0</ele><time>2026-04-28T10:22:43.999Z</time></trkpt><trkpt lat="33.83552620129504" lon="-5.586865215408397"><ele>583.0</ele><time>2026-04-28T10:22:44.999Z</time></trkpt><trkpt lat="33.83564320938612" lon="-5.587197081400788"><ele>582.5</ele><time>2026-04-28T10:22:45.999Z</time></trkpt><trkpt lat="33.835759777021686" lon="-5.587523648728102"><ele>582.0</ele><time>2026-04-28T10:22:46.999Z</time></trkpt><trkpt lat="33.83587753769412" lon="-5.587846061278757"><ele>580.5</ele><time>2026-04-28T10:22:47.999Z</time></trkpt><trkpt lat="33.83599531840816" lon="-5.588163898256458"><ele>579.0</ele><time>2026-04-28T10:22:48.999Z</time></trkpt><trkpt lat="33.836114263826666" lon="-5.588478030207767"><ele>578.5</ele><time>2026-04-28T10:22:49.999Z</time></trkpt><trkpt lat="33.83623049854447" lon="-5.58878422305612"><ele>578.0</ele><time>2026-04-28T10:22:50.999Z</time></trkpt><trkpt lat="33.836352481486315" lon="-5.589087083584244"><ele>578.0</ele><time>2026-04-28T10:22:51.999Z</time></trkpt><trkpt lat="33.836478368673276" lon="-5.589387562434966"><ele>578.0</ele><time>2026-04-28T10:22:52.999Z</time></trkpt><trkpt lat="33.83660513654347" lon="-5.58968706873224"><ele>576.5</ele><time>2026-04-28T10:22:53.999Z</time></trkpt><trkpt lat="33.83673431598815" lon="-5.589986930276855"><ele>575.0</ele><time>2026-04-28T10:22:54.999Z</time></trkpt><trkpt lat="33.836867310890646" lon="-5.5902860601570055"><ele>575.0</ele><time>2026-04-28T10:22:55.999Z</time></trkpt><trkpt lat="33.837002230003854" lon="-5.590584284125912"><ele>575.0</ele><time>2026-04-28T10:22:56.999Z</time></trkpt><trkpt lat="33.83714002852982" lon="-5.590881554244387"><ele>575.0</ele><time>2026-04-28T10:22:57.999Z</time></trkpt><trkpt lat="33.837279879350625" lon="-5.591176704098721"><ele>575.0</ele><time>2026-04-28T10:22:58.999Z</time></trkpt><trkpt lat="33.83742354955934" lon="-5.5914713035758234"><ele>575.0</ele><time>2026-04-28T10:22:59.999Z</time></trkpt><trkpt lat="33.83756959889618" lon="-5.591766740081198"><ele>575.0</ele><time>2026-04-28T10:23:00.999Z</time></trkpt><trkpt lat="33.83771622651235" lon="-5.592063774518316"><ele>574.5</ele><time>2026-04-28T10:23:01.999Z</time></trkpt><trkpt lat="33.83786351014857" lon="-5.592358149355496"><ele>574.0</ele><time>2026-04-28T10:23:02.999Z</time></trkpt><trkpt lat="33.838012520236965" lon="-5.592650555267053"><ele>573.5</ele><time>2026-04-28T10:23:03.999Z</time></trkpt><trkpt lat="33.83816397862073" lon="-5.592940429710986"><ele>573.0</ele><time>2026-04-28T10:23:04.999Z</time></trkpt><trkpt lat="33.838317682779675" lon="-5.593227934052421"><ele>573.0</ele><time>2026-04-28T10:23:05.999Z</time></trkpt><trkpt lat="33.83847487916411" lon="-5.593512809319125"><ele>573.0</ele><time>2026-04-28T10:23:06.999Z</time></trkpt><trkpt lat="33.83863411577302" lon="-5.593796974289902"><ele>572.5</ele><time>2026-04-28T10:23:07.999Z</time></trkpt><trkpt lat="33.83879404322639" lon="-5.594079763192221"><ele>572.0</ele><time>2026-04-28T10:23:08.999Z</time></trkpt><trkpt lat="33.83895657969506" lon="-5.594362047502724"><ele>571.5</ele><time>2026-04-28T10:23:09.999Z</time></trkpt><trkpt lat="33.839124248403735" lon="-5.594641009766351"><ele>571.0</ele><time>2026-04-28T10:23:10.999Z</time></trkpt><trkpt lat="33.83929807346416" lon="-5.594920594587103"><ele>571.0</ele><time>2026-04-28T10:23:11.999Z</time></trkpt><trkpt lat="33.83947375335655" lon="-5.595200147944462"><ele>571.0</ele><time>2026-04-28T10:23:12.999Z</time></trkpt><trkpt lat="33.83965200544312" lon="-5.5954829351006055"><ele>570.5</ele><time>2026-04-28T10:23:13.999Z</time></trkpt><trkpt lat="33.8398305487871" lon="-5.595766592861851"><ele>570.0</ele><time>2026-04-28T10:23:14.999Z</time></trkpt><trkpt lat="33.840010808032126" lon="-5.596051994582539"><ele>569.5</ele><time>2026-04-28T10:23:15.999Z</time></trkpt><trkpt lat="33.840189755238434" lon="-5.59633720146249"><ele>569.0</ele><time>2026-04-28T10:23:16.999Z</time></trkpt><trkpt lat="33.84036604078003" lon="-5.596621814883029"><ele>569.0</ele><time>2026-04-28T10:23:17.999Z</time></trkpt><trkpt lat="33.84054337742875" lon="-5.596908552497496"><ele>569.0</ele><time>2026-04-28T10:23:18.999Z</time></trkpt><trkpt lat="33.84072267225507" lon="-5.597194416981267"><ele>569.0</ele><time>2026-04-28T10:23:19.999Z</time></trkpt><trkpt lat="33.840902416495304" lon="-5.597478571237177"><ele>569.0</ele><time>2026-04-28T10:23:20.999Z</time></trkpt><trkpt lat="33.84108136365749" lon="-5.5977634759317665"><ele>568.0</ele><time>2026-04-28T10:23:21.999Z</time></trkpt><trkpt lat="33.84125788034728" lon="-5.598049139347914"><ele>567.0</ele><time>2026-04-28T10:23:22.999Z</time></trkpt><trkpt lat="33.841434406608904" lon="-5.598335845304524"><ele>567.0</ele><time>2026-04-28T10:23:23.999Z</time></trkpt><trkpt lat="33.84161205851001" lon="-5.598623010631159"><ele>567.0</ele><time>2026-04-28T10:23:24.999Z</time></trkpt><trkpt lat="33.84179059192861" lon="-5.5989080468887575"><ele>566.0</ele><time>2026-04-28T10:23:25.999Z</time></trkpt><trkpt lat="33.84196851933077" lon="-5.599192337571643"><ele>565.0</ele><time>2026-04-28T10:23:26.999Z</time></trkpt><trkpt lat="33.84214413739492" lon="-5.599479365164382"><ele>566.5</ele><time>2026-04-28T10:23:27.999Z</time></trkpt><trkpt lat="33.8423156134516" lon="-5.599768468797517"><ele>568.0</ele><time>2026-04-28T10:23:28.999Z</time></trkpt><trkpt lat="33.84248508896343" lon="-5.600062192496344"><ele>566.5</ele><time>2026-04-28T10:23:29.999Z</time></trkpt><trkpt lat="33.84265158478717" lon="-5.600356947724858"><ele>565.0</ele><time>2026-04-28T10:23:30.999Z</time></trkpt><trkpt lat="33.842814225766986" lon="-5.6006552460019545"><ele>565.0</ele><time>2026-04-28T10:23:31.999Z</time></trkpt><trkpt lat="33.84297259168554" lon="-5.600955935275805"><ele>565.0</ele><time>2026-04-28T10:23:32.999Z</time></trkpt><trkpt lat="33.84312406452017" lon="-5.601260821610474"><ele>565.5</ele><time>2026-04-28T10:23:33.999Z</time></trkpt><trkpt lat="33.84326921009087" lon="-5.601569953222275"><ele>566.0</ele><time>2026-04-28T10:23:34.999Z</time></trkpt><trkpt lat="33.843412957898884" lon="-5.601880173645993"><ele>566.0</ele><time>2026-04-28T10:23:35.999Z</time></trkpt><trkpt lat="33.84355604830163" lon="-5.602193986700762"><ele>566.0</ele><time>2026-04-28T10:23:36.999Z</time></trkpt><trkpt lat="33.84369509656602" lon="-5.602510741578077"><ele>566.0</ele><time>2026-04-28T10:23:37.999Z</time></trkpt><trkpt lat="33.84382881578599" lon="-5.60282935035182"><ele>566.0</ele><time>2026-04-28T10:23:38.999Z</time></trkpt><trkpt lat="33.84395748958466" lon="-5.60315042161501"><ele>565.0</ele><time>2026-04-28T10:23:39.999Z</time></trkpt><trkpt lat="33.84408096765633" lon="-5.603474060517438"><ele>564.0</ele><time>2026-04-28T10:23:40.999Z</time></trkpt><trkpt lat="33.844199370342835" lon="-5.60380062523153"><ele>563.0</ele><time>2026-04-28T10:23:41.999Z</time></trkpt><trkpt lat="33.84431337205773" lon="-5.604130287875636"><ele>562.0</ele><time>2026-04-28T10:23:42.999Z</time></trkpt><trkpt lat="33.844425858547496" lon="-5.6044629011140445"><ele>562.0</ele><time>2026-04-28T10:23:43.999Z</time></trkpt><trkpt lat="33.84453359297959" lon="-5.6047989346870715"><ele>562.0</ele><time>2026-04-28T10:23:44.999Z</time></trkpt><trkpt lat="33.84463666708317" lon="-5.60513555867475"><ele>562.0</ele><time>2026-04-28T10:23:45.999Z</time></trkpt><trkpt lat="33.844736134908494" lon="-5.60547416663501"><ele>562.0</ele><time>2026-04-28T10:23:46.999Z</time></trkpt><trkpt lat="33.84483117231215" lon="-5.6058125269954235"><ele>562.0</ele><time>2026-04-28T10:23:47.999Z</time></trkpt><trkpt lat="33.84492161149444" lon="-5.606154608329454"><ele>562.0</ele><time>2026-04-28T10:23:48.999Z</time></trkpt><trkpt lat="33.84500707773711" lon="-5.606497721829878"><ele>562.0</ele><time>2026-04-28T10:23:49.999Z</time></trkpt><trkpt lat="33.84508942205527" lon="-5.606842086221377"><ele>562.0</ele><time>2026-04-28T10:23:50.999Z</time></trkpt><trkpt lat="33.84516898772144" lon="-5.607187759003873"><ele>562.0</ele><time>2026-04-28T10:23:51.999Z</time></trkpt><trkpt lat="33.84524700231936" lon="-5.607535295566984"><ele>562.0</ele><time>2026-04-28T10:23:52.999Z</time></trkpt><trkpt lat="33.84532184170853" lon="-5.607882855804826"><ele>561.5</ele><time>2026-04-28T10:23:53.999Z</time></trkpt><trkpt lat="33.84539396729124" lon="-5.608230850526002"><ele>561.0</ele><time>2026-04-28T10:23:54.999Z</time></trkpt><trkpt lat="33.84546548020329" lon="-5.608578960578102"><ele>560.0</ele><time>2026-04-28T10:23:55.999Z</time></trkpt><trkpt lat="33.84553580491718" lon="-5.60892774654113"><ele>559.0</ele><time>2026-04-28T10:23:56.999Z</time></trkpt><trkpt lat="33.84560582439854" lon="-5.609276633597099"><ele>557.5</ele><time>2026-04-28T10:23:57.999Z</time></trkpt><trkpt lat="33.84567459181195" lon="-5.6096235351789705"><ele>556.0</ele><time>2026-04-28T10:23:58.999Z</time></trkpt><trkpt lat="33.845743225319666" lon="-5.609972637998903"><ele>556.0</ele><time>2026-04-28T10:23:59.999Z</time></trkpt><trkpt lat="33.84581177953185" lon="-5.610320571966671"><ele>556.0</ele><time>2026-04-28T10:24:00.999Z</time></trkpt><trkpt lat="33.845880168600644" lon="-5.610667283601466"><ele>554.5</ele><time>2026-04-28T10:24:01.999Z</time></trkpt><trkpt lat="33.84594683224635" lon="-5.611015271626395"><ele>553.0</ele><time>2026-04-28T10:24:02.999Z</time></trkpt><trkpt lat="33.846013681089026" lon="-5.6113624110759295"><ele>552.5</ele><time>2026-04-28T10:24:03.999Z</time></trkpt><trkpt lat="33.84608135179785" lon="-5.6117103006337326"><ele>552.0</ele><time>2026-04-28T10:24:04.999Z</time></trkpt><trkpt lat="33.846149039607575" lon="-5.61205848204238"><ele>550.0</ele><time>2026-04-28T10:24:05.999Z</time></trkpt><trkpt lat="33.846217994836785" lon="-5.612406685797902"><ele>548.0</ele><time>2026-04-28T10:24:06.999Z</time></trkpt><trkpt lat="33.846288656836066" lon="-5.612755419009776"><ele>546.0</ele><time>2026-04-28T10:24:07.999Z</time></trkpt><trkpt lat="33.8463600516266" lon="-5.6131029262580014"><ele>544.0</ele><time>2026-04-28T10:24:08.999Z</time></trkpt><trkpt lat="33.84643533377203" lon="-5.613449889562355"><ele>543.0</ele><time>2026-04-28T10:24:09.999Z</time></trkpt><trkpt lat="33.84651408718555" lon="-5.613795385439046"><ele>542.0</ele><time>2026-04-28T10:24:10.999Z</time></trkpt><trkpt lat="33.84659854218114" lon="-5.614139197135037"><ele>542.0</ele><time>2026-04-28T10:24:11.999Z</time></trkpt><trkpt lat="33.84668683325957" lon="-5.614481005408608"><ele>542.0</ele><time>2026-04-28T10:24:12.999Z</time></trkpt><trkpt lat="33.846778039572854" lon="-5.614821984092987"><ele>542.0</ele><time>2026-04-28T10:24:13.999Z</time></trkpt><trkpt lat="33.84687304494193" lon="-5.615161815314528"><ele>542.0</ele><time>2026-04-28T10:24:14.999Z</time></trkpt><trkpt lat="33.84697177858987" lon="-5.615498939201687"><ele>541.0</ele><time>2026-04-28T10:24:15.999Z</time></trkpt><trkpt lat="33.847076111224716" lon="-5.615834123835404"><ele>540.0</ele><time>2026-04-28T10:24:16.999Z</time></trkpt><trkpt lat="33.84718733563486" lon="-5.616165585138761"><ele>540.0</ele><time>2026-04-28T10:24:17.999Z</time></trkpt><trkpt lat="33.84730210815751" lon="-5.616496561596528"><ele>540.0</ele><time>2026-04-28T10:24:18.999Z</time></trkpt><trkpt lat="33.84741688682178" lon="-5.616824869909154"><ele>540.5</ele><time>2026-04-28T10:24:19.999Z</time></trkpt><trkpt lat="33.84753355395536" lon="-5.617151299645932"><ele>541.0</ele><time>2026-04-28T10:24:20.999Z</time></trkpt><trkpt lat="33.84765646033725" lon="-5.617475982698252"><ele>540.5</ele><time>2026-04-28T10:24:21.999Z</time></trkpt><trkpt lat="33.847784217987375" lon="-5.617797778173267"><ele>540.0</ele><time>2026-04-28T10:24:22.999Z</time></trkpt><trkpt lat="33.84791821875281" lon="-5.618116877422698"><ele>540.0</ele><time>2026-04-28T10:24:23.999Z</time></trkpt><trkpt lat="33.84805817020446" lon="-5.618433291798447"><ele>540.0</ele><time>2026-04-28T10:24:24.999Z</time></trkpt><trkpt lat="33.84820310478895" lon="-5.618741488392742"><ele>539.0</ele><time>2026-04-28T10:24:25.999Z</time></trkpt><trkpt lat="33.848354178350895" lon="-5.6190441412573735"><ele>538.0</ele><time>2026-04-28T10:24:26.999Z</time></trkpt><trkpt lat="33.84851041138098" lon="-5.619343156606963"><ele>540.5</ele><time>2026-04-28T10:24:27.999Z</time></trkpt><trkpt lat="33.84867080556267" lon="-5.619639849948626"><ele>543.0</ele><time>2026-04-28T10:24:28.999Z</time></trkpt><trkpt lat="33.84883688527864" lon="-5.619934524856069"><ele>543.0</ele><time>2026-04-28T10:24:29.999Z</time></trkpt><trkpt lat="33.84900587222839" lon="-5.6202263892355635"><ele>543.0</ele><time>2026-04-28T10:24:30.999Z</time></trkpt><trkpt lat="33.84917754758943" lon="-5.620514918199838"><ele>541.0</ele><time>2026-04-28T10:24:31.999Z</time></trkpt><trkpt lat="33.849353607665336" lon="-5.620802353754746"><ele>539.0</ele><time>2026-04-28T10:24:32.999Z</time></trkpt><trkpt lat="33.849533078319965" lon="-5.621085396696964"><ele>541.5</ele><time>2026-04-28T10:24:33.999Z</time></trkpt><trkpt lat="33.84971774427451" lon="-5.6213646282669005"><ele>544.0</ele><time>2026-04-28T10:24:34.999Z</time></trkpt><trkpt lat="33.84990643136109" lon="-5.62164008205091"><ele>544.0</ele><time>2026-04-28T10:24:35.999Z</time></trkpt><trkpt lat="33.850098260380626" lon="-5.621912906722764"><ele>544.0</ele><time>2026-04-28T10:24:36.999Z</time></trkpt><trkpt lat="33.85029316117196" lon="-5.622181960223756"><ele>546.5</ele><time>2026-04-28T10:24:37.999Z</time></trkpt><trkpt lat="33.85049244826509" lon="-5.62244599330488"><ele>549.0</ele><time>2026-04-28T10:24:38.999Z</time></trkpt><trkpt lat="33.85069641401658" lon="-5.6227073639030385"><ele>550.0</ele><time>2026-04-28T10:24:39.999Z</time></trkpt><trkpt lat="33.85090264470237" lon="-5.622967114202186"><ele>551.0</ele><time>2026-04-28T10:24:40.999Z</time></trkpt><trkpt lat="33.85111219212516" lon="-5.623223749514951"><ele>551.5</ele><time>2026-04-28T10:24:41.999Z</time></trkpt><trkpt lat="33.85132442584507" lon="-5.623476704475086"><ele>552.0</ele><time>2026-04-28T10:24:42.999Z</time></trkpt><trkpt lat="33.85153882441707" lon="-5.623726534770329"><ele>552.0</ele><time>2026-04-28T10:24:43.999Z</time></trkpt><trkpt lat="33.8517559960555" lon="-5.6239704109538335"><ele>552.0</ele><time>2026-04-28T10:24:44.999Z</time></trkpt><trkpt lat="33.85197684770073" lon="-5.624206940882639"><ele>551.5</ele><time>2026-04-28T10:24:45.999Z</time></trkpt><trkpt lat="33.85220008618516" lon="-5.624439608187742"><ele>551.0</ele><time>2026-04-28T10:24:46.999Z</time></trkpt><trkpt lat="33.852427626903264" lon="-5.624667120149475"><ele>550.0</ele><time>2026-04-28T10:24:47.999Z</time></trkpt><trkpt lat="33.8526592160686" lon="-5.624890335295152"><ele>549.0</ele><time>2026-04-28T10:24:48.999Z</time></trkpt><trkpt lat="33.85289526135509" lon="-5.625108067606021"><ele>548.5</ele><time>2026-04-28T10:24:49.999Z</time></trkpt><trkpt lat="33.853135619848054" lon="-5.62532500051911"><ele>548.0</ele><time>2026-04-28T10:24:50.999Z</time></trkpt><trkpt lat="33.85337823030754" lon="-5.625538332233576"><ele>547.5</ele><time>2026-04-28T10:24:51.999Z</time></trkpt><trkpt lat="33.85362209089075" lon="-5.6257458361073365"><ele>547.0</ele><time>2026-04-28T10:24:52.999Z</time></trkpt><trkpt lat="33.85386902344379" lon="-5.625949510248706"><ele>547.0</ele><time>2026-04-28T10:24:53.999Z</time></trkpt><trkpt lat="33.85411918307103" lon="-5.626150205086246"><ele>547.0</ele><time>2026-04-28T10:24:54.999Z</time></trkpt><trkpt lat="33.854370708147954" lon="-5.626345984915184"><ele>546.5</ele><time>2026-04-28T10:24:55.999Z</time></trkpt><trkpt lat="33.85462489080051" lon="-5.626539359281671"><ele>546.0</ele><time>2026-04-28T10:24:56.999Z</time></trkpt><trkpt lat="33.85488045055708" lon="-5.626729570975168"><ele>545.5</ele><time>2026-04-28T10:24:57.999Z</time></trkpt><trkpt lat="33.85513582459811" lon="-5.626917490574719"><ele>545.0</ele><time>2026-04-28T10:24:58.999Z</time></trkpt><trkpt lat="33.85538982938015" lon="-5.627106474020573"><ele>544.0</ele><time>2026-04-28T10:24:59.999Z</time></trkpt><trkpt lat="33.85564280958595" lon="-5.627295172635785"><ele>543.0</ele><time>2026-04-28T10:25:00.999Z</time></trkpt><trkpt lat="33.85589689987238" lon="-5.627483469632968"><ele>542.0</ele><time>2026-04-28T10:25:01.999Z</time></trkpt><trkpt lat="33.85615122151975" lon="-5.627672605107997"><ele>541.0</ele><time>2026-04-28T10:25:02.999Z</time></trkpt><trkpt lat="33.85640485736889" lon="-5.627862358729569"><ele>541.0</ele><time>2026-04-28T10:25:03.999Z</time></trkpt><trkpt lat="33.856657331147" lon="-5.62805212315288"><ele>541.0</ele><time>2026-04-28T10:25:04.999Z</time></trkpt><trkpt lat="33.85691002490141" lon="-5.62824353097283"><ele>538.5</ele><time>2026-04-28T10:25:05.999Z</time></trkpt><trkpt lat="33.85716337198228" lon="-5.628436825441031"><ele>536.0</ele><time>2026-04-28T10:25:06.999Z</time></trkpt><trkpt lat="33.857417034834036" lon="-5.628630204951432"><ele>535.0</ele><time>2026-04-28T10:25:07.999Z</time></trkpt><trkpt lat="33.857669752634436" lon="-5.628822708972604"><ele>534.0</ele><time>2026-04-28T10:25:08.999Z</time></trkpt><trkpt lat="33.85792250612596" lon="-5.629012060482746"><ele>534.0</ele><time>2026-04-28T10:25:09.999Z</time></trkpt><trkpt lat="33.85817658551211" lon="-5.62919809124164"><ele>534.0</ele><time>2026-04-28T10:25:10.999Z</time></trkpt><trkpt lat="33.85843201693242" lon="-5.629382531890639"><ele>534.0</ele><time>2026-04-28T10:25:11.999Z</time></trkpt><trkpt lat="33.858687464925445" lon="-5.629569689473579"><ele>534.0</ele><time>2026-04-28T10:25:12.999Z</time></trkpt><trkpt lat="33.858942175621216" lon="-5.629760411928761"><ele>534.0</ele><time>2026-04-28T10:25:13.999Z</time></trkpt><trkpt lat="33.85919260431507" lon="-5.629951823348977"><ele>534.0</ele><time>2026-04-28T10:25:14.999Z</time></trkpt><trkpt lat="33.85944459255719" lon="-5.630143041925335"><ele>534.0</ele><time>2026-04-28T10:25:15.999Z</time></trkpt><trkpt lat="33.85969513206769" lon="-5.630336675469668"><ele>534.0</ele><time>2026-04-28T10:25:16.999Z</time></trkpt><trkpt lat="33.85994406682572" lon="-5.630531056554994"><ele>532.5</ele><time>2026-04-28T10:25:17.999Z</time></trkpt><trkpt lat="33.86019257287184" lon="-5.6307313680965425"><ele>531.0</ele><time>2026-04-28T10:25:18.999Z</time></trkpt><trkpt lat="33.860436337546766" lon="-5.63093435387998"><ele>531.0</ele><time>2026-04-28T10:25:19.999Z</time></trkpt><trkpt lat="33.86067840466716" lon="-5.63114170387515"><ele>531.0</ele><time>2026-04-28T10:25:20.999Z</time></trkpt><trkpt lat="33.860916977293776" lon="-5.631353152937034"><ele>530.0</ele><time>2026-04-28T10:25:21.999Z</time></trkpt><trkpt lat="33.86115144689322" lon="-5.6315724504349"><ele>529.0</ele><time>2026-04-28T10:25:22.999Z</time></trkpt><trkpt lat="33.86138154898697" lon="-5.631796193181856"><ele>529.0</ele><time>2026-04-28T10:25:23.999Z</time></trkpt><trkpt lat="33.86160737340214" lon="-5.632026613655393"><ele>529.0</ele><time>2026-04-28T10:25:24.999Z</time></trkpt><trkpt lat="33.861829346238196" lon="-5.632261703918706"><ele>528.0</ele><time>2026-04-28T10:25:25.999Z</time></trkpt><trkpt lat="33.86205030095349" lon="-5.632498727656504"><ele>527.0</ele><time>2026-04-28T10:25:26.999Z</time></trkpt><trkpt lat="33.86227035175249" lon="-5.632737972974399"><ele>526.5</ele><time>2026-04-28T10:25:27.999Z</time></trkpt><trkpt lat="33.86248800445017" lon="-5.6329808512348185"><ele>526.0</ele><time>2026-04-28T10:25:28.999Z</time></trkpt><trkpt lat="33.86270185109679" lon="-5.633226255661262"><ele>524.5</ele><time>2026-04-28T10:25:29.999Z</time></trkpt><trkpt lat="33.8629125964233" lon="-5.633476727348094"><ele>523.0</ele><time>2026-04-28T10:25:30.999Z</time></trkpt><trkpt lat="33.863116406308436" lon="-5.633734109763322"><ele>522.0</ele><time>2026-04-28T10:25:31.999Z</time></trkpt><trkpt lat="33.86330907418266" lon="-5.633994812716688"><ele>521.0</ele><time>2026-04-28T10:25:32.999Z</time></trkpt><trkpt lat="33.86349804681018" lon="-5.63425949403459"><ele>519.5</ele><time>2026-04-28T10:25:33.999Z</time></trkpt><trkpt lat="33.8636913657434" lon="-5.6345301045011285"><ele>518.0</ele><time>2026-04-28T10:25:34.999Z</time></trkpt><trkpt lat="33.863884314321496" lon="-5.634802960594049"><ele>518.0</ele><time>2026-04-28T10:25:35.999Z</time></trkpt><trkpt lat="33.864070882189914" lon="-5.635079277475735"><ele>518.0</ele><time>2026-04-28T10:25:36.999Z</time></trkpt><trkpt lat="33.864253438522596" lon="-5.635359818159392"><ele>516.5</ele><time>2026-04-28T10:25:37.999Z</time></trkpt><trkpt lat="33.864432736846595" lon="-5.635641839260974"><ele>515.0</ele><time>2026-04-28T10:25:38.999Z</time></trkpt><trkpt lat="33.86460950043967" lon="-5.635928408801311"><ele>517.0</ele><time>2026-04-28T10:25:39.999Z</time></trkpt><trkpt lat="33.864780473472514" lon="-5.636219810928085"><ele>519.0</ele><time>2026-04-28T10:25:40.999Z</time></trkpt><trkpt lat="33.86494760915383" lon="-5.636514167321944"><ele>519.0</ele><time>2026-04-28T10:25:41.999Z</time></trkpt><trkpt lat="33.86511188351817" lon="-5.636811246154208"><ele>519.0</ele><time>2026-04-28T10:25:42.999Z</time></trkpt><trkpt lat="33.86527296040136" lon="-5.637110448574729"><ele>518.0</ele><time>2026-04-28T10:25:43.999Z</time></trkpt><trkpt lat="33.86542986438796" lon="-5.637410969967815"><ele>517.0</ele><time>2026-04-28T10:25:44.999Z</time></trkpt><trkpt lat="33.86558836958843" lon="-5.63771071810746"><ele>517.5</ele><time>2026-04-28T10:25:45.999Z</time></trkpt><trkpt lat="33.865750088869326" lon="-5.638008957180543"><ele>518.0</ele><time>2026-04-28T10:25:46.999Z</time></trkpt><trkpt lat="33.86591097755936" lon="-5.63830848668053"><ele>518.0</ele><time>2026-04-28T10:25:47.999Z</time></trkpt><trkpt lat="33.866067444152414" lon="-5.638610729412499"><ele>518.0</ele><time>2026-04-28T10:25:48.999Z</time></trkpt><trkpt lat="33.86622107397736" lon="-5.638915553328128"><ele>518.0</ele><time>2026-04-28T10:25:49.999Z</time></trkpt><trkpt lat="33.866374562573036" lon="-5.639220371843566"><ele>518.0</ele><time>2026-04-28T10:25:50.999Z</time></trkpt><trkpt lat="33.86652931643833" lon="-5.63952479713194"><ele>518.5</ele><time>2026-04-28T10:25:51.999Z</time></trkpt><trkpt lat="33.86668732430833" lon="-5.639829472586192"><ele>519.0</ele><time>2026-04-28T10:25:52.999Z</time></trkpt><trkpt lat="33.866848703856874" lon="-5.640131376855146"><ele>519.5</ele><time>2026-04-28T10:25:53.999Z</time></trkpt><trkpt lat="33.86701426542817" lon="-5.64042845876586"><ele>520.0</ele><time>2026-04-28T10:25:54.999Z</time></trkpt><trkpt lat="33.86718409267679" lon="-5.6407225150430875"><ele>520.0</ele><time>2026-04-28T10:25:56Z</time></trkpt><trkpt lat="33.86735697404965" lon="-5.641014269915167"><ele>520.0</ele><time>2026-04-28T10:25:57Z</time></trkpt><trkpt lat="33.86753290450076" lon="-5.641304974385363"><ele>520.0</ele><time>2026-04-28T10:25:58Z</time></trkpt><trkpt lat="33.867711192909475" lon="-5.641594488609727"><ele>520.0</ele><time>2026-04-28T10:25:59Z</time></trkpt><trkpt lat="33.86789094730141" lon="-5.641880246371519"><ele>520.0</ele><time>2026-04-28T10:26:00Z</time></trkpt><trkpt lat="33.86807261400805" lon="-5.64216366840738"><ele>520.0</ele><time>2026-04-28T10:26:01Z</time></trkpt><trkpt lat="33.8682571803729" lon="-5.642444738839819"><ele>519.5</ele><time>2026-04-28T10:26:02Z</time></trkpt><trkpt lat="33.86844437840949" lon="-5.642722140818199"><ele>519.0</ele><time>2026-04-28T10:26:03Z</time></trkpt><trkpt lat="33.86863504843123" lon="-5.642996048060455"><ele>518.5</ele><time>2026-04-28T10:26:04Z</time></trkpt><trkpt lat="33.868827097101466" lon="-5.64326869535668"><ele>518.0</ele><time>2026-04-28T10:26:05Z</time></trkpt><trkpt lat="33.86902290339169" lon="-5.643537341294935"><ele>517.5</ele><time>2026-04-28T10:26:06Z</time></trkpt><trkpt lat="33.86922430624516" lon="-5.643800590643708"><ele>517.0</ele><time>2026-04-28T10:26:07Z</time></trkpt><trkpt lat="33.8694286288966" lon="-5.644062771275249"><ele>516.5</ele><time>2026-04-28T10:26:08Z</time></trkpt><trkpt lat="33.86963174352001" lon="-5.644323765584126"><ele>516.0</ele><time>2026-04-28T10:26:09Z</time></trkpt><trkpt lat="33.86983872257807" lon="-5.644583237628732"><ele>516.0</ele><time>2026-04-28T10:26:10Z</time></trkpt><trkpt lat="33.87004711760274" lon="-5.644836679461606"><ele>516.0</ele><time>2026-04-28T10:26:11Z</time></trkpt><trkpt lat="33.870260761986145" lon="-5.645086046522404"><ele>515.0</ele><time>2026-04-28T10:26:12Z</time></trkpt><trkpt lat="33.87047663348656" lon="-5.645332233234905"><ele>514.0</ele><time>2026-04-28T10:26:13Z</time></trkpt><trkpt lat="33.87069486904946" lon="-5.645574526548469"><ele>514.0</ele><time>2026-04-28T10:26:14Z</time></trkpt><trkpt lat="33.870916805428706" lon="-5.6458141175145435"><ele>514.0</ele><time>2026-04-28T10:26:15Z</time></trkpt><trkpt lat="33.87113984761643" lon="-5.64605135977986"><ele>514.0</ele><time>2026-04-28T10:26:16Z</time></trkpt><trkpt lat="33.871363931779314" lon="-5.64628622976383"><ele>514.0</ele><time>2026-04-28T10:26:17Z</time></trkpt><trkpt lat="33.87159050535202" lon="-5.646516161856771"><ele>513.5</ele><time>2026-04-28T10:26:18Z</time></trkpt><trkpt lat="33.87182147832682" lon="-5.646745636591818"><ele>513.0</ele><time>2026-04-28T10:26:19Z</time></trkpt><trkpt lat="33.872054243274356" lon="-5.646970932052918"><ele>513.0</ele><time>2026-04-28T10:26:20Z</time></trkpt><trkpt lat="33.87228698696817" lon="-5.6471906113752866"><ele>513.0</ele><time>2026-04-28T10:26:21Z</time></trkpt><trkpt lat="33.8725237214481" lon="-5.647409671923393"><ele>512.0</ele><time>2026-04-28T10:26:22Z</time></trkpt><trkpt lat="33.872761164999545" lon="-5.647624374099402"><ele>511.0</ele><time>2026-04-28T10:26:23Z</time></trkpt><trkpt lat="33.87300209436909" lon="-5.647836548221897"><ele>511.0</ele><time>2026-04-28T10:26:24Z</time></trkpt><trkpt lat="33.87324478233159" lon="-5.648042501518539"><ele>511.0</ele><time>2026-04-28T10:26:25Z</time></trkpt><trkpt lat="33.87349089939163" lon="-5.64824489946125"><ele>511.0</ele><time>2026-04-28T10:26:26Z</time></trkpt><trkpt lat="33.87373787303582" lon="-5.648442203377935"><ele>511.0</ele><time>2026-04-28T10:26:27Z</time></trkpt><trkpt lat="33.87398766017885" lon="-5.648636083992362"><ele>511.0</ele><time>2026-04-28T10:26:28Z</time></trkpt><trkpt lat="33.87424028523662" lon="-5.648827873303723"><ele>511.0</ele><time>2026-04-28T10:26:29Z</time></trkpt><trkpt lat="33.87449454108792" lon="-5.649017027225511"><ele>511.5</ele><time>2026-04-28T10:26:30Z</time></trkpt><trkpt lat="33.87474969782586" lon="-5.649202100789584"><ele>512.0</ele><time>2026-04-28T10:26:31Z</time></trkpt><trkpt lat="33.87500665250459" lon="-5.649386357772649"><ele>512.0</ele><time>2026-04-28T10:26:32Z</time></trkpt><trkpt lat="33.87526588129276" lon="-5.6495681596706975"><ele>512.0</ele><time>2026-04-28T10:26:33Z</time></trkpt><trkpt lat="33.87552685341011" lon="-5.649746882849341"><ele>512.0</ele><time>2026-04-28T10:26:34Z</time></trkpt><trkpt lat="33.875787082316016" lon="-5.649924747491283"><ele>512.0</ele><time>2026-04-28T10:26:35Z</time></trkpt><trkpt lat="33.8760462835971" lon="-5.650101949406116"><ele>512.0</ele><time>2026-04-28T10:26:36Z</time></trkpt><trkpt lat="33.876305367192465" lon="-5.650278224302907"><ele>512.0</ele><time>2026-04-28T10:26:37Z</time></trkpt><trkpt lat="33.87656407256965" lon="-5.650452994596999"><ele>512.0</ele><time>2026-04-28T10:26:38Z</time></trkpt><trkpt lat="33.87682356439123" lon="-5.6506284997118"><ele>512.0</ele><time>2026-04-28T10:26:39Z</time></trkpt><trkpt lat="33.877083214529286" lon="-5.650804024284463"><ele>512.0</ele><time>2026-04-28T10:26:40Z</time></trkpt><trkpt lat="33.87734228350748" lon="-5.650979060890246"><ele>512.0</ele><time>2026-04-28T10:26:41Z</time></trkpt><trkpt lat="33.87760303595583" lon="-5.651153622355402"><ele>511.0</ele><time>2026-04-28T10:26:42Z</time></trkpt><trkpt lat="33.87786395685343" lon="-5.651327254978863"><ele>510.0</ele><time>2026-04-28T10:26:43Z</time></trkpt><trkpt lat="33.87812354824624" lon="-5.651501829657434"><ele>510.0</ele><time>2026-04-28T10:26:44Z</time></trkpt><trkpt lat="33.878382847088254" lon="-5.65167700154352"><ele>510.0</ele><time>2026-04-28T10:26:45Z</time></trkpt><trkpt lat="33.87864114324919" lon="-5.651854177451291"><ele>510.5</ele><time>2026-04-28T10:26:46Z</time></trkpt><trkpt lat="33.878898496065915" lon="-5.65203113412314"><ele>511.0</ele><time>2026-04-28T10:26:46.999Z</time></trkpt><trkpt lat="33.87915699970269" lon="-5.652208308551948"><ele>510.5</ele><time>2026-04-28T10:26:47.999Z</time></trkpt><trkpt lat="33.8794141530887" lon="-5.652387087090232"><ele>510.0</ele><time>2026-04-28T10:26:48.999Z</time></trkpt><trkpt lat="33.879670442398" lon="-5.652570546999965"><ele>510.0</ele><time>2026-04-28T10:26:49.999Z</time></trkpt><trkpt lat="33.879923874748904" lon="-5.65275870649541"><ele>510.0</ele><time>2026-04-28T10:26:50.999Z</time></trkpt><trkpt lat="33.880175800836774" lon="-5.652948803239335"><ele>509.5</ele><time>2026-04-28T10:26:51.999Z</time></trkpt><trkpt lat="33.88042710610194" lon="-5.653142309648266"><ele>509.0</ele><time>2026-04-28T10:26:52.999Z</time></trkpt><trkpt lat="33.880676683755674" lon="-5.653336068626745"><ele>509.0</ele><time>2026-04-28T10:26:53.999Z</time></trkpt><trkpt lat="33.880926603597494" lon="-5.6535337784012185"><ele>509.0</ele><time>2026-04-28T10:26:54.999Z</time></trkpt><trkpt lat="33.88117553141879" lon="-5.653732912102821"><ele>509.0</ele><time>2026-04-28T10:26:55.999Z</time></trkpt><trkpt lat="33.881422613142355" lon="-5.6539342687449885"><ele>509.0</ele><time>2026-04-28T10:26:56.999Z</time></trkpt><trkpt lat="33.8816695173017" lon="-5.65413988090514"><ele>508.5</ele><time>2026-04-28T10:26:57.999Z</time></trkpt><trkpt lat="33.88191397606225" lon="-5.654347373978252"><ele>508.0</ele><time>2026-04-28T10:26:58.999Z</time></trkpt><trkpt lat="33.882157618929114" lon="-5.6545574408158945"><ele>507.0</ele><time>2026-04-28T10:26:59.999Z</time></trkpt><trkpt lat="33.882400227293786" lon="-5.654770240325726"><ele>506.0</ele><time>2026-04-28T10:27:00.999Z</time></trkpt><trkpt lat="33.88264026181231" lon="-5.6549868218462205"><ele>505.0</ele><time>2026-04-28T10:27:01.999Z</time></trkpt><trkpt lat="33.88287659776389" lon="-5.655206976095594"><ele>504.0</ele><time>2026-04-28T10:27:02.999Z</time></trkpt><trkpt lat="33.883111438958245" lon="-5.6554299253773905"><ele>504.0</ele><time>2026-04-28T10:27:03.999Z</time></trkpt><trkpt lat="33.88334415452843" lon="-5.6556552724852525"><ele>504.0</ele><time>2026-04-28T10:27:04.999Z</time></trkpt><trkpt lat="33.883575046778724" lon="-5.655883755657388"><ele>502.5</ele><time>2026-04-28T10:27:05.999Z</time></trkpt><trkpt lat="33.88380368019102" lon="-5.656114850816348"><ele>501.0</ele><time>2026-04-28T10:27:06.999Z</time></trkpt><trkpt lat="33.88402932801378" lon="-5.6563492360142895"><ele>501.0</ele><time>2026-04-28T10:27:07.999Z</time></trkpt><trkpt lat="33.88425422870889" lon="-5.656585393209235"><ele>501.0</ele><time>2026-04-28T10:27:08.999Z</time></trkpt><trkpt lat="33.88447808253447" lon="-5.656822704635694"><ele>498.0</ele><time>2026-04-28T10:27:09.999Z</time></trkpt><trkpt lat="33.88470092235574" lon="-5.65706198643454"><ele>495.0</ele><time>2026-04-28T10:27:10.999Z</time></trkpt><trkpt lat="33.884920791566664" lon="-5.657304013119519"><ele>493.0</ele><time>2026-04-28T10:27:11.999Z</time></trkpt><trkpt lat="33.885138358979475" lon="-5.657549621134866"><ele>491.0</ele><time>2026-04-28T10:27:12.999Z</time></trkpt><trkpt lat="33.885351906960935" lon="-5.657796206063623"><ele>491.0</ele><time>2026-04-28T10:27:13.999Z</time></trkpt><trkpt lat="33.88556354412604" lon="-5.658045993919015"><ele>491.0</ele><time>2026-04-28T10:27:14.999Z</time></trkpt><trkpt lat="33.88577412417361" lon="-5.658297813222904"><ele>490.5</ele><time>2026-04-28T10:27:15.999Z</time></trkpt><trkpt lat="33.885982481612785" lon="-5.658554120398174"><ele>490.0</ele><time>2026-04-28T10:27:16.999Z</time></trkpt><trkpt lat="33.886170331315654" lon="-5.658839902953409"><ele>489.5</ele><time>2026-04-28T10:27:17.999Z</time></trkpt><trkpt lat="33.88639186472741" lon="-5.659072445822222"><ele>489.0</ele><time>2026-04-28T10:27:18.999Z</time></trkpt><trkpt lat="33.886590171559824" lon="-5.659334022007914"><ele>487.5</ele><time>2026-04-28T10:27:19.999Z</time></trkpt><trkpt lat="33.886787155949065" lon="-5.659601152636246"><ele>486.0</ele><time>2026-04-28T10:27:20.999Z</time></trkpt><trkpt lat="33.88697740637401" lon="-5.659869683446116"><ele>486.0</ele><time>2026-04-28T10:27:21.999Z</time></trkpt><trkpt lat="33.88716474977028" lon="-5.66014142539132"><ele>486.0</ele><time>2026-04-28T10:27:22.999Z</time></trkpt><trkpt lat="33.8873520704827" lon="-5.660415481310876"><ele>485.5</ele><time>2026-04-28T10:27:23.999Z</time></trkpt><trkpt lat="33.88754047054695" lon="-5.660688565751016"><ele>485.0</ele><time>2026-04-28T10:27:24.999Z</time></trkpt><trkpt lat="33.88772908729992" lon="-5.66096283692779"><ele>488.5</ele><time>2026-04-28T10:27:25.999Z</time></trkpt><trkpt lat="33.88791697062397" lon="-5.661237115398347"><ele>492.0</ele><time>2026-04-28T10:27:26.999Z</time></trkpt><trkpt lat="33.88810182010171" lon="-5.661512597101261"><ele>492.0</ele><time>2026-04-28T10:27:27.999Z</time></trkpt><trkpt lat="33.88828300578189" lon="-5.661791939431914"><ele>492.0</ele><time>2026-04-28T10:27:28.999Z</time></trkpt><trkpt lat="33.88846060865921" lon="-5.662075378912636"><ele>493.5</ele><time>2026-04-28T10:27:29.999Z</time></trkpt><trkpt lat="33.88863694006933" lon="-5.662360090993956"><ele>495.0</ele><time>2026-04-28T10:27:30.999Z</time></trkpt><trkpt lat="33.888812732818536" lon="-5.662646855480845"><ele>496.5</ele><time>2026-04-28T10:27:31.999Z</time></trkpt><trkpt lat="33.88898541627422" lon="-5.662935586017651"><ele>498.0</ele><time>2026-04-28T10:27:32.999Z</time></trkpt><trkpt lat="33.88915686526964" lon="-5.663225893056501"><ele>499.0</ele><time>2026-04-28T10:27:33.999Z</time></trkpt><trkpt lat="33.88932574321345" lon="-5.663518790071979"><ele>500.0</ele><time>2026-04-28T10:27:34.999Z</time></trkpt><trkpt lat="33.88949401651243" lon="-5.663813372180477"><ele>501.0</ele><time>2026-04-28T10:27:35.999Z</time></trkpt><trkpt lat="33.88966045235187" lon="-5.664109819255293"><ele>502.0</ele><time>2026-04-28T10:27:36.999Z</time></trkpt><trkpt lat="33.88982503635844" lon="-5.664408016403"><ele>502.0</ele><time>2026-04-28T10:27:37.999Z</time></trkpt><trkpt lat="33.889986996291526" lon="-5.664709347105437"><ele>502.0</ele><time>2026-04-28T10:27:38.999Z</time></trkpt><trkpt lat="33.89014616984139" lon="-5.665012028444969"><ele>502.0</ele><time>2026-04-28T10:27:39.999Z</time></trkpt><trkpt lat="33.89030342681122" lon="-5.6653167532286135"><ele>502.0</ele><time>2026-04-28T10:27:40.999Z</time></trkpt><trkpt lat="33.89045902228229" lon="-5.66562200287194"><ele>502.0</ele><time>2026-04-28T10:27:41.999Z</time></trkpt><trkpt lat="33.89061223624993" lon="-5.665931365798184"><ele>502.0</ele><time>2026-04-28T10:27:42.999Z</time></trkpt><trkpt lat="33.890762044745024" lon="-5.666241264326547"><ele>502.5</ele><time>2026-04-28T10:27:43.999Z</time></trkpt><trkpt lat="33.89090870636594" lon="-5.666552799553972"><ele>503.0</ele><time>2026-04-28T10:27:44.999Z</time></trkpt><trkpt lat="33.89105205896374" lon="-5.666863579923542"><ele>504.0</ele><time>2026-04-28T10:27:45.999Z</time></trkpt><trkpt lat="33.8911923152522" lon="-5.667175889093786"><ele>505.0</ele><time>2026-04-28T10:27:46.999Z</time></trkpt><trkpt lat="33.891328561623055" lon="-5.6674891665061295"><ele>505.5</ele><time>2026-04-28T10:27:47.999Z</time></trkpt><trkpt lat="33.89146300414154" lon="-5.667802930314174"><ele>506.0</ele><time>2026-04-28T10:27:48.999Z</time></trkpt><trkpt lat="33.891593740364016" lon="-5.668119343227511"><ele>506.0</ele><time>2026-04-28T10:27:49.999Z</time></trkpt><trkpt lat="33.891721994383325" lon="-5.668435827737924"><ele>506.0</ele><time>2026-04-28T10:27:50.999Z</time></trkpt><trkpt lat="33.89184858523806" lon="-5.668749515901134"><ele>506.0</ele><time>2026-04-28T10:27:51.999Z</time></trkpt><trkpt lat="33.89197110510729" lon="-5.669060072421491"><ele>506.0</ele><time>2026-04-28T10:27:52.999Z</time></trkpt><trkpt lat="33.892087686666315" lon="-5.6693637608208025"><ele>505.0</ele><time>2026-04-28T10:27:53.999Z</time></trkpt><trkpt lat="33.8922008017889" lon="-5.669663127792931"><ele>504.0</ele><time>2026-04-28T10:27:54.999Z</time></trkpt><trkpt lat="33.89230776763815" lon="-5.669959198438651"><ele>504.0</ele><time>2026-04-28T10:27:55.999Z</time></trkpt><trkpt lat="33.89241079025609" lon="-5.67025296128326"><ele>504.0</ele><time>2026-04-28T10:27:56.999Z</time></trkpt><trkpt lat="33.89250984499898" lon="-5.670542641592915"><ele>504.0</ele><time>2026-04-28T10:27:57.999Z</time></trkpt><trkpt lat="33.89260518999848" lon="-5.670827908478996"><ele>504.0</ele><time>2026-04-28T10:27:58.999Z</time></trkpt><trkpt lat="33.89269865745295" lon="-5.6711094597294744"><ele>504.0</ele><time>2026-04-28T10:27:59.999Z</time></trkpt><trkpt lat="33.8927890429036" lon="-5.671386786018195"><ele>504.0</ele><time>2026-04-28T10:28:00.999Z</time></trkpt><trkpt lat="33.89287591043483" lon="-5.671658462347074"><ele>504.0</ele><time>2026-04-28T10:28:02Z</time></trkpt><trkpt lat="33.89295834110365" lon="-5.6719198481299955"><ele>504.0</ele><time>2026-04-28T10:28:03Z</time></trkpt><trkpt lat="33.89303596948618" lon="-5.672173534146191"><ele>504.0</ele><time>2026-04-28T10:28:04Z</time></trkpt><trkpt lat="33.89310852803913" lon="-5.672423772658195"><ele>504.0</ele><time>2026-04-28T10:28:05Z</time></trkpt><trkpt lat="33.893177039494" lon="-5.672671943182263"><ele>504.0</ele><time>2026-04-28T10:28:06Z</time></trkpt><trkpt lat="33.89324466917171" lon="-5.672919130397282"><ele>504.0</ele><time>2026-04-28T10:28:07Z</time></trkpt><trkpt lat="33.893312150880405" lon="-5.673164740399138"><ele>504.0</ele><time>2026-04-28T10:28:08Z</time></trkpt><trkpt lat="33.893380709938704" lon="-5.673410319629377"><ele>504.0</ele><time>2026-04-28T10:28:09Z</time></trkpt><trkpt lat="33.89344860523104" lon="-5.673658157476982"><ele>504.33333333333337</ele><time>2026-04-28T10:28:10Z</time></trkpt><trkpt lat="33.893514261635595" lon="-5.673908641877713"><ele>504.6666666666667</ele><time>2026-04-28T10:28:11Z</time></trkpt><trkpt lat="33.893577944857824" lon="-5.674158620738889"><ele>505.0</ele><time>2026-04-28T10:28:12Z</time></trkpt><trkpt lat="33.89364100536532" lon="-5.674409475270645"><ele>505.33333333333337</ele><time>2026-04-28T10:28:13Z</time></trkpt><trkpt lat="33.8937019776808" lon="-5.674658322660795"><ele>505.66666666666663</ele><time>2026-04-28T10:28:14Z</time></trkpt><trkpt lat="33.89376005409277" lon="-5.67490661088847"><ele>506.0</ele><time>2026-04-28T10:28:15Z</time></trkpt><trkpt lat="33.893816357782654" lon="-5.675156731674276"><ele>506.66666666666663</ele><time>2026-04-28T10:28:16Z</time></trkpt><trkpt lat="33.893869779056914" lon="-5.675406231878963"><ele>507.33333333333337</ele><time>2026-04-28T10:28:17Z</time></trkpt><trkpt lat="33.893923537551586" lon="-5.6756607881259935"><ele>508.0</ele><time>2026-04-28T10:28:18Z</time></trkpt><trkpt lat="33.8939758226577" lon="-5.675917261169558"><ele>507.6666666666667</ele><time>2026-04-28T10:28:19Z</time></trkpt><trkpt lat="33.89402772984604" lon="-5.67617537552978"><ele>507.33333333333337</ele><time>2026-04-28T10:28:20Z</time></trkpt><trkpt lat="33.894079873291446" lon="-5.676435364066586"><ele>507.0</ele><time>2026-04-28T10:28:21Z</time></trkpt><trkpt lat="33.89412965447901" lon="-5.676698733306361"><ele>506.66666666666663</ele><time>2026-04-28T10:28:22Z</time></trkpt><trkpt lat="33.89417533848992" lon="-5.67696017670976"><ele>506.3333333333333</ele><time>2026-04-28T10:28:23Z</time></trkpt><trkpt lat="33.894221292299584" lon="-5.677223712820646"><ele>506.0</ele><time>2026-04-28T10:28:24Z</time></trkpt><trkpt lat="33.89426645018432" lon="-5.6774853127776845"><ele>506.0</ele><time>2026-04-28T10:28:25Z</time></trkpt><trkpt lat="33.89431024257598" lon="-5.677747918903598"><ele>506.0</ele><time>2026-04-28T10:28:26Z</time></trkpt><trkpt lat="33.89435154959511" lon="-5.6780115663419455"><ele>506.0</ele><time>2026-04-28T10:28:27Z</time></trkpt><trkpt lat="33.8943914059257" lon="-5.678274796843659"><ele>506.3333333333333</ele><time>2026-04-28T10:28:28Z</time></trkpt><trkpt lat="33.894431094331686" lon="-5.678539573210131"><ele>506.66666666666663</ele><time>2026-04-28T10:28:29Z</time></trkpt><trkpt lat="33.89447014581181" lon="-5.6788077949461675"><ele>507.0</ele><time>2026-04-28T10:28:30Z</time></trkpt><trkpt lat="33.89454294443949" lon="-5.67934718627978"><ele>507.0</ele><time>2026-04-28T10:28:32Z</time></trkpt><trkpt lat="33.89457432959425" lon="-5.679616067392471"><ele>507.0</ele><time>2026-04-28T10:28:33Z</time></trkpt><trkpt lat="33.89460485791577" lon="-5.679886104334162"><ele>507.0</ele><time>2026-04-28T10:28:34Z</time></trkpt><trkpt lat="33.894635913248294" lon="-5.680156202525365"><ele>507.0</ele><time>2026-04-28T10:28:35Z</time></trkpt><trkpt lat="33.894666186694636" lon="-5.68042558840417"><ele>506.5</ele><time>2026-04-28T10:28:36Z</time></trkpt><trkpt lat="33.89469433129333" lon="-5.6806975643153965"><ele>506.0</ele><time>2026-04-28T10:28:37Z</time></trkpt><trkpt lat="33.89471745239298" lon="-5.680969309533793"><ele>506.0</ele><time>2026-04-28T10:28:38Z</time></trkpt><trkpt lat="33.8947415513633" lon="-5.681243311161451"><ele>506.0</ele><time>2026-04-28T10:28:39Z</time></trkpt><trkpt lat="33.89476397539571" lon="-5.681521306579635"><ele>506.0</ele><time>2026-04-28T10:28:40Z</time></trkpt><trkpt lat="33.894785609793324" lon="-5.681805100414769"><ele>506.0</ele><time>2026-04-28T10:28:41Z</time></trkpt><trkpt lat="33.89480601671452" lon="-5.682093915347382"><ele>506.5</ele><time>2026-04-28T10:28:42Z</time></trkpt><trkpt lat="33.89482527154314" lon="-5.682391008931144"><ele>507.0</ele><time>2026-04-28T10:28:43Z</time></trkpt><trkpt lat="33.89484421813893" lon="-5.682701883212793"><ele>506.5</ele><time>2026-04-28T10:28:44Z</time></trkpt><trkpt lat="33.894859668622644" lon="-5.6830237764151255"><ele>506.0</ele><time>2026-04-28T10:28:45Z</time></trkpt><trkpt lat="33.894870804370576" lon="-5.683353304382723"><ele>507.0</ele><time>2026-04-28T10:28:46Z</time></trkpt><trkpt lat="33.89488005084765" lon="-5.683689928277684"><ele>508.0</ele><time>2026-04-28T10:28:47Z</time></trkpt><trkpt lat="33.894888063691845" lon="-5.684031871085534"><ele>508.0</ele><time>2026-04-28T10:28:48Z</time></trkpt><trkpt lat="33.89489551251257" lon="-5.684380674366629"><ele>508.0</ele><time>2026-04-28T10:28:49Z</time></trkpt><trkpt lat="33.89490058985666" lon="-5.684734449886358"><ele>507.5</ele><time>2026-04-28T10:28:50Z</time></trkpt><trkpt lat="33.89490420275907" lon="-5.685088971269493"><ele>507.0</ele><time>2026-04-28T10:28:51Z</time></trkpt><trkpt lat="33.89490531207049" lon="-5.685444572137522"><ele>507.0</ele><time>2026-04-28T10:28:52Z</time></trkpt><trkpt lat="33.89490128485402" lon="-5.685800607406781"><ele>507.0</ele><time>2026-04-28T10:28:53Z</time></trkpt><trkpt lat="33.89489418345192" lon="-5.686156012537607"><ele>507.5</ele><time>2026-04-28T10:28:54Z</time></trkpt><trkpt lat="33.894882484839115" lon="-5.686512065108513"><ele>508.0</ele><time>2026-04-28T10:28:55Z</time></trkpt><trkpt lat="33.894865866178634" lon="-5.68686810410464"><ele>507.5</ele><time>2026-04-28T10:28:56Z</time></trkpt><trkpt lat="33.89484779324138" lon="-5.687222353723827"><ele>507.0</ele><time>2026-04-28T10:28:57Z</time></trkpt><trkpt lat="33.894830701474554" lon="-5.6875792370778715"><ele>507.0</ele><time>2026-04-28T10:28:58Z</time></trkpt><trkpt lat="33.89481182872034" lon="-5.687935383191031"><ele>507.0</ele><time>2026-04-28T10:28:59Z</time></trkpt><trkpt lat="33.89478805674035" lon="-5.688290715610936"><ele>507.0</ele><time>2026-04-28T10:29:00Z</time></trkpt><trkpt lat="33.894759142343574" lon="-5.688645743129348"><ele>507.0</ele><time>2026-04-28T10:29:01Z</time></trkpt><trkpt lat="33.89472822551108" lon="-5.689000868883672"><ele>507.0</ele><time>2026-04-28T10:29:02Z</time></trkpt><trkpt lat="33.89469251084529" lon="-5.689355671651034"><ele>507.0</ele><time>2026-04-28T10:29:03Z</time></trkpt><trkpt lat="33.89465322950462" lon="-5.6897100106758245"><ele>507.0</ele><time>2026-04-28T10:29:03.999Z</time></trkpt><trkpt lat="33.894611562861975" lon="-5.690063511375022"><ele>507.0</ele><time>2026-04-28T10:29:04.999Z</time></trkpt><trkpt lat="33.89457186306841" lon="-5.690417226247476"><ele>506.5</ele><time>2026-04-28T10:29:05.999Z</time></trkpt><trkpt lat="33.89453002446828" lon="-5.690770977292566"><ele>506.0</ele><time>2026-04-28T10:29:06.999Z</time></trkpt><trkpt lat="33.89448364789278" lon="-5.691124797104418"><ele>505.5</ele><time>2026-04-28T10:29:07.999Z</time></trkpt><trkpt lat="33.894432237427765" lon="-5.691475926133548"><ele>505.0</ele><time>2026-04-28T10:29:08.999Z</time></trkpt><trkpt lat="33.89437883913478" lon="-5.6918273765267555"><ele>504.5</ele><time>2026-04-28T10:29:09.999Z</time></trkpt><trkpt lat="33.89432283762365" lon="-5.6921772842912395"><ele>504.0</ele><time>2026-04-28T10:29:10.999Z</time></trkpt><trkpt lat="33.89426460986776" lon="-5.692527035677501"><ele>503.5</ele><time>2026-04-28T10:29:11.999Z</time></trkpt><trkpt lat="33.89420463405044" lon="-5.692876022285036"><ele>503.0</ele><time>2026-04-28T10:29:12.999Z</time></trkpt><trkpt lat="33.89414318516245" lon="-5.6932238791251475"><ele>503.0</ele><time>2026-04-28T10:29:13.999Z</time></trkpt><trkpt lat="33.89407775449389" lon="-5.693572631726801"><ele>503.0</ele><time>2026-04-28T10:29:14.999Z</time></trkpt><trkpt lat="33.8940094248764" lon="-5.69391781422796"><ele>503.5</ele><time>2026-04-28T10:29:15.999Z</time></trkpt><trkpt lat="33.89393822081368" lon="-5.694261451187982"><ele>504.0</ele><time>2026-04-28T10:29:16.999Z</time></trkpt><trkpt lat="33.893865511544796" lon="-5.6946043414456655"><ele>504.0</ele><time>2026-04-28T10:29:17.999Z</time></trkpt><trkpt lat="33.893790785483006" lon="-5.694948987237307"><ele>504.0</ele><time>2026-04-28T10:29:18.999Z</time></trkpt><trkpt lat="33.89371423778022" lon="-5.695293826438714"><ele>503.5</ele><time>2026-04-28T10:29:19.999Z</time></trkpt><trkpt lat="33.89363529347081" lon="-5.695639717795265"><ele>503.0</ele><time>2026-04-28T10:29:20.999Z</time></trkpt><trkpt lat="33.893555593165104" lon="-5.6959864555300666"><ele>503.0</ele><time>2026-04-28T10:29:21.999Z</time></trkpt><trkpt lat="33.89347725232367" lon="-5.696332784217902"><ele>503.0</ele><time>2026-04-28T10:29:22.999Z</time></trkpt><trkpt lat="33.89340247351726" lon="-5.696679045079082"><ele>504.5</ele><time>2026-04-28T10:29:23.999Z</time></trkpt><trkpt lat="33.89332792188114" lon="-5.697026169276553"><ele>506.0</ele><time>2026-04-28T10:29:24.999Z</time></trkpt><trkpt lat="33.89325266850856" lon="-5.697372656197854"><ele>506.0</ele><time>2026-04-28T10:29:25.999Z</time></trkpt><trkpt lat="33.893177482346175" lon="-5.697719480635478"><ele>506.0</ele><time>2026-04-28T10:29:26.999Z</time></trkpt><trkpt lat="33.89310152285859" lon="-5.698066671907946"><ele>506.0</ele><time>2026-04-28T10:29:27.999Z</time></trkpt><trkpt lat="33.89302699432218" lon="-5.698413693018548"><ele>506.0</ele><time>2026-04-28T10:29:28.999Z</time></trkpt><trkpt lat="33.89295275659351" lon="-5.69876021136351"><ele>506.0</ele><time>2026-04-28T10:29:29.999Z</time></trkpt><trkpt lat="33.892879201435136" lon="-5.699104840337888"><ele>506.0</ele><time>2026-04-28T10:29:30.999Z</time></trkpt><trkpt lat="33.89280385160673" lon="-5.699450721296565"><ele>505.5</ele><time>2026-04-28T10:29:31.999Z</time></trkpt><trkpt lat="33.8927245415733" lon="-5.699796774556932"><ele>505.0</ele><time>2026-04-28T10:29:32.999Z</time></trkpt><trkpt lat="33.892643026318524" lon="-5.700140786863793"><ele>506.0</ele><time>2026-04-28T10:29:33.999Z</time></trkpt><trkpt lat="33.89256517640982" lon="-5.700487009892723"><ele>507.0</ele><time>2026-04-28T10:29:34.999Z</time></trkpt><trkpt lat="33.892489285223505" lon="-5.700831904376728"><ele>507.0</ele><time>2026-04-28T10:29:35.999Z</time></trkpt><trkpt lat="33.89240990799699" lon="-5.70117731690086"><ele>507.0</ele><time>2026-04-28T10:29:36.999Z</time></trkpt><trkpt lat="33.89233081527064" lon="-5.70152244389023"><ele>507.0</ele><time>2026-04-28T10:29:37.999Z</time></trkpt><trkpt lat="33.89225226062868" lon="-5.701869906870144"><ele>507.0</ele><time>2026-04-28T10:29:38.999Z</time></trkpt><trkpt lat="33.89217314429109" lon="-5.702216382100883"><ele>507.5</ele><time>2026-04-28T10:29:39.999Z</time></trkpt><trkpt lat="33.89209462849416" lon="-5.702560408355972"><ele>508.0</ele><time>2026-04-28T10:29:40.999Z</time></trkpt><trkpt lat="33.89201667727181" lon="-5.702901232447609"><ele>507.0</ele><time>2026-04-28T10:29:41.999Z</time></trkpt><trkpt lat="33.89194112188549" lon="-5.703231321436862"><ele>506.0</ele><time>2026-04-28T10:29:42.999Z</time></trkpt><trkpt lat="33.89186541924095" lon="-5.703552360053748"><ele>506.0</ele><time>2026-04-28T10:29:43.999Z</time></trkpt><trkpt lat="33.891786976240766" lon="-5.703871224016911"><ele>506.0</ele><time>2026-04-28T10:29:44.999Z</time></trkpt><trkpt lat="33.89170705183443" lon="-5.7041947425564175"><ele>506.5</ele><time>2026-04-28T10:29:45.999Z</time></trkpt><trkpt lat="33.89162886011631" lon="-5.704520744181162"><ele>507.0</ele><time>2026-04-28T10:29:46.999Z</time></trkpt><trkpt lat="33.89155365476496" lon="-5.7048525952840405"><ele>507.0</ele><time>2026-04-28T10:29:47.999Z</time></trkpt><trkpt lat="33.89147849273891" lon="-5.705186894950411"><ele>507.0</ele><time>2026-04-28T10:29:48.999Z</time></trkpt><trkpt lat="33.89140317828117" lon="-5.70552376334688"><ele>507.0</ele><time>2026-04-28T10:29:49.999Z</time></trkpt><trkpt lat="33.891326873905975" lon="-5.705863311986252"><ele>507.0</ele><time>2026-04-28T10:29:50.999Z</time></trkpt><trkpt lat="33.891249295531026" lon="-5.706204467822205"><ele>507.0</ele><time>2026-04-28T10:29:51.999Z</time></trkpt><trkpt lat="33.891172314920155" lon="-5.706548800157713"><ele>507.0</ele><time>2026-04-28T10:29:52.999Z</time></trkpt><trkpt lat="33.891096651114474" lon="-5.706895216773124"><ele>507.0</ele><time>2026-04-28T10:29:53.999Z</time></trkpt><trkpt lat="33.89102096359657" lon="-5.707242772171061"><ele>507.0</ele><time>2026-04-28T10:29:54.999Z</time></trkpt><trkpt lat="33.8909451194067" lon="-5.707588907120414"><ele>507.5</ele><time>2026-04-28T10:29:55.999Z</time></trkpt><trkpt lat="33.89086688003963" lon="-5.70793490549399"><ele>508.0</ele><time>2026-04-28T10:29:56.999Z</time></trkpt><trkpt lat="33.89078900955002" lon="-5.708281908789804"><ele>507.0</ele><time>2026-04-28T10:29:57.999Z</time></trkpt><trkpt lat="33.890711383558894" lon="-5.70862750139263"><ele>506.0</ele><time>2026-04-28T10:29:58.999Z</time></trkpt><trkpt lat="33.89063432619318" lon="-5.708974111697138"><ele>506.0</ele><time>2026-04-28T10:29:59.999Z</time></trkpt><trkpt lat="33.890560594290804" lon="-5.7093225704933666"><ele>506.0</ele><time>2026-04-28T10:30:00.999Z</time></trkpt><trkpt lat="33.89048948471987" lon="-5.709671215852863"><ele>506.0</ele><time>2026-04-28T10:30:01.999Z</time></trkpt><trkpt lat="33.89042239021659" lon="-5.710020008046317"><ele>506.0</ele><time>2026-04-28T10:30:02.999Z</time></trkpt><trkpt lat="33.89035900407912" lon="-5.710368405580438"><ele>506.0</ele><time>2026-04-28T10:30:03.999Z</time></trkpt><trkpt lat="33.890296928736824" lon="-5.710716938980018"><ele>506.0</ele><time>2026-04-28T10:30:04.999Z</time></trkpt><trkpt lat="33.89023673312187" lon="-5.71106573004715"><ele>506.0</ele><time>2026-04-28T10:30:05.999Z</time></trkpt><trkpt lat="33.890181945383176" lon="-5.711416667673979"><ele>506.0</ele><time>2026-04-28T10:30:06.999Z</time></trkpt><trkpt lat="33.89012998596588" lon="-5.711767616281592"><ele>506.5</ele><time>2026-04-28T10:30:07.999Z</time></trkpt><trkpt lat="33.89008080363981" lon="-5.7121184348902565"><ele>507.0</ele><time>2026-04-28T10:30:08.999Z</time></trkpt><trkpt lat="33.890034145240826" lon="-5.712471531254668"><ele>506.5</ele><time>2026-04-28T10:30:09.999Z</time></trkpt><trkpt lat="33.88999132763695" lon="-5.712823567517241"><ele>506.0</ele><time>2026-04-28T10:30:10.999Z</time></trkpt><trkpt lat="33.88995247849754" lon="-5.713173851732442"><ele>506.0</ele><time>2026-04-28T10:30:11.999Z</time></trkpt><trkpt lat="33.889918330791616" lon="-5.713527555983181"><ele>506.0</ele><time>2026-04-28T10:30:12.999Z</time></trkpt><trkpt lat="33.88988723193829" lon="-5.71388001325246"><ele>505.5</ele><time>2026-04-28T10:30:13.999Z</time></trkpt><trkpt lat="33.889858863765454" lon="-5.714234877170798"><ele>505.0</ele><time>2026-04-28T10:30:14.999Z</time></trkpt><trkpt lat="33.88983292554371" lon="-5.714591034053888"><ele>504.5</ele><time>2026-04-28T10:30:15.999Z</time></trkpt><trkpt lat="33.88980994003371" lon="-5.714948187539504"><ele>504.0</ele><time>2026-04-28T10:30:16.999Z</time></trkpt><trkpt lat="33.88978886820926" lon="-5.715305282536872"><ele>505.0</ele><time>2026-04-28T10:30:17.999Z</time></trkpt><trkpt lat="33.88977102526191" lon="-5.715661083399497"><ele>506.0</ele><time>2026-04-28T10:30:18.999Z</time></trkpt><trkpt lat="33.889755982520285" lon="-5.716016808388215"><ele>506.0</ele><time>2026-04-28T10:30:19.999Z</time></trkpt><trkpt lat="33.889741456501895" lon="-5.716373127593188"><ele>506.0</ele><time>2026-04-28T10:30:20.999Z</time></trkpt><trkpt lat="33.88972843516099" lon="-5.716730364248335"><ele>505.5</ele><time>2026-04-28T10:30:21.999Z</time></trkpt><trkpt lat="33.88971549214449" lon="-5.71708765646313"><ele>505.0</ele><time>2026-04-28T10:30:22.999Z</time></trkpt><trkpt lat="33.889705026050486" lon="-5.71744564789926"><ele>504.5</ele><time>2026-04-28T10:30:23.999Z</time></trkpt><trkpt lat="33.889695126201374" lon="-5.717804827868555"><ele>504.0</ele><time>2026-04-28T10:30:24.999Z</time></trkpt><trkpt lat="33.88968497333494" lon="-5.718163425157484"><ele>504.0</ele><time>2026-04-28T10:30:25.999Z</time></trkpt><trkpt lat="33.88967270246801" lon="-5.71852271200004"><ele>504.0</ele><time>2026-04-28T10:30:26.999Z</time></trkpt><trkpt lat="33.8896611906078" lon="-5.718881180838524"><ele>504.0</ele><time>2026-04-28T10:30:27.999Z</time></trkpt><trkpt lat="33.88965316225279" lon="-5.719239283530466"><ele>504.0</ele><time>2026-04-28T10:30:28.999Z</time></trkpt><trkpt lat="33.88964382535888" lon="-5.719597405587984"><ele>503.5</ele><time>2026-04-28T10:30:29.999Z</time></trkpt><trkpt lat="33.8896326232751" lon="-5.719956999015178"><ele>503.0</ele><time>2026-04-28T10:30:30.999Z</time></trkpt><trkpt lat="33.889621632655896" lon="-5.720315948059483"><ele>503.0</ele><time>2026-04-28T10:30:31.999Z</time></trkpt><trkpt lat="33.88961117778845" lon="-5.720674600705246"><ele>503.0</ele><time>2026-04-28T10:30:32.999Z</time></trkpt><trkpt lat="33.88959910081589" lon="-5.721032675086515"><ele>502.5</ele><time>2026-04-28T10:30:33.999Z</time></trkpt><trkpt lat="33.88958741634965" lon="-5.721390590239208"><ele>502.0</ele><time>2026-04-28T10:30:34.999Z</time></trkpt><trkpt lat="33.88957672141495" lon="-5.721747794884391"><ele>502.5</ele><time>2026-04-28T10:30:35.999Z</time></trkpt><trkpt lat="33.88956627217815" lon="-5.72210550218742"><ele>503.0</ele><time>2026-04-28T10:30:36.999Z</time></trkpt><trkpt lat="33.88955655330663" lon="-5.722463921720235"><ele>502.0</ele><time>2026-04-28T10:30:37.999Z</time></trkpt><trkpt lat="33.88954772484396" lon="-5.722821987729325"><ele>501.0</ele><time>2026-04-28T10:30:38.999Z</time></trkpt><trkpt lat="33.889537129857686" lon="-5.72318122084454"><ele>501.0</ele><time>2026-04-28T10:30:39.999Z</time></trkpt><trkpt lat="33.88952220810568" lon="-5.723539189145547"><ele>501.0</ele><time>2026-04-28T10:30:40.999Z</time></trkpt><trkpt lat="33.88950553242311" lon="-5.723897377802005"><ele>501.0</ele><time>2026-04-28T10:30:41.999Z</time></trkpt><trkpt lat="33.88948795243406" lon="-5.72425638049481"><ele>501.0</ele><time>2026-04-28T10:30:42.999Z</time></trkpt><trkpt lat="33.889470127876585" lon="-5.724615817121585"><ele>501.0</ele><time>2026-04-28T10:30:43.999Z</time></trkpt><trkpt lat="33.889454261767106" lon="-5.724974398369191"><ele>501.0</ele><time>2026-04-28T10:30:44.999Z</time></trkpt><trkpt lat="33.88943886540129" lon="-5.725332901001862"><ele>501.5</ele><time>2026-04-28T10:30:45.999Z</time></trkpt><trkpt lat="33.88942111754074" lon="-5.725691318974075"><ele>502.0</ele><time>2026-04-28T10:30:46.999Z</time></trkpt><trkpt lat="33.889396804916196" lon="-5.726048732088971"><ele>501.5</ele><time>2026-04-28T10:30:47.999Z</time></trkpt><trkpt lat="33.88936581138351" lon="-5.726404500520902"><ele>501.0</ele><time>2026-04-28T10:30:48.999Z</time></trkpt><trkpt lat="33.88933429268046" lon="-5.7267584193569006"><ele>500.5</ele><time>2026-04-28T10:30:49.999Z</time></trkpt><trkpt lat="33.8892991056151" lon="-5.727115619572209"><ele>500.0</ele><time>2026-04-28T10:30:50.999Z</time></trkpt><trkpt lat="33.8892583395828" lon="-5.727467365767525"><ele>500.5</ele><time>2026-04-28T10:30:51.999Z</time></trkpt><trkpt lat="33.88921821716411" lon="-5.727818782914268"><ele>501.0</ele><time>2026-04-28T10:30:52.999Z</time></trkpt><trkpt lat="33.88917541370315" lon="-5.728169566785828"><ele>501.0</ele><time>2026-04-28T10:30:53.999Z</time></trkpt><trkpt lat="33.88912892806085" lon="-5.728521086292485"><ele>501.0</ele><time>2026-04-28T10:30:54.999Z</time></trkpt><trkpt lat="33.889078664804" lon="-5.728870361674406"><ele>501.5</ele><time>2026-04-28T10:30:55.999Z</time></trkpt><trkpt lat="33.88902770755257" lon="-5.729220756732972"><ele>502.0</ele><time>2026-04-28T10:30:56.999Z</time></trkpt><trkpt lat="33.88897594167288" lon="-5.729573546858261"><ele>502.0</ele><time>2026-04-28T10:30:57.999Z</time></trkpt><trkpt lat="33.88891993268588" lon="-5.729925912300376"><ele>502.0</ele><time>2026-04-28T10:30:58.999Z</time></trkpt><trkpt lat="33.88885881934321" lon="-5.730277392373551"><ele>502.0</ele><time>2026-04-28T10:30:59.999Z</time></trkpt><trkpt lat="33.88879365003652" lon="-5.73062797348241"><ele>502.0</ele><time>2026-04-28T10:31:00.999Z</time></trkpt><trkpt lat="33.888720816854445" lon="-5.730976566079015"><ele>502.0</ele><time>2026-04-28T10:31:01.999Z</time></trkpt><trkpt lat="33.88864488707494" lon="-5.731323215392255"><ele>502.0</ele><time>2026-04-28T10:31:02.999Z</time></trkpt><trkpt lat="33.88856825174198" lon="-5.731671066080418"><ele>501.0</ele><time>2026-04-28T10:31:03.999Z</time></trkpt><trkpt lat="33.888486494757" lon="-5.732016677621799"><ele>500.0</ele><time>2026-04-28T10:31:04.999Z</time></trkpt><trkpt lat="33.888400525559064" lon="-5.732359618167113"><ele>498.5</ele><time>2026-04-28T10:31:05.999Z</time></trkpt><trkpt lat="33.888311215881004" lon="-5.732701574618501"><ele>497.0</ele><time>2026-04-28T10:31:06.999Z</time></trkpt><trkpt lat="33.88821853071785" lon="-5.73304172896915"><ele>497.0</ele><time>2026-04-28T10:31:07.999Z</time></trkpt><trkpt lat="33.88812216515942" lon="-5.7333804442464515"><ele>497.0</ele><time>2026-04-28T10:31:08.999Z</time></trkpt><trkpt lat="33.88802296604589" lon="-5.7337179286500675"><ele>497.5</ele><time>2026-04-28T10:31:09.999Z</time></trkpt><trkpt lat="33.887918985714954" lon="-5.7340527453124"><ele>498.0</ele><time>2026-04-28T10:31:10.999Z</time></trkpt><trkpt lat="33.887809220706664" lon="-5.73438493135272"><ele>498.5</ele><time>2026-04-28T10:31:11.999Z</time></trkpt><trkpt lat="33.88769673045873" lon="-5.734716549227991"><ele>499.0</ele><time>2026-04-28T10:31:12.999Z</time></trkpt><trkpt lat="33.887582507365615" lon="-5.735048860439696"><ele>496.0</ele><time>2026-04-28T10:31:13.999Z</time></trkpt><trkpt lat="33.88747093972079" lon="-5.735379265437295"><ele>493.0</ele><time>2026-04-28T10:31:14.999Z</time></trkpt><trkpt lat="33.887361544678534" lon="-5.735709405157979"><ele>493.0</ele><time>2026-04-28T10:31:15.999Z</time></trkpt><trkpt lat="33.88725433212688" lon="-5.7360197257606"><ele>493.0</ele><time>2026-04-28T10:31:16.999Z</time></trkpt><trkpt lat="33.887149484928685" lon="-5.7363248513952145"><ele>494.5</ele><time>2026-04-28T10:31:17.999Z</time></trkpt><trkpt lat="33.88704529964214" lon="-5.736638719486261"><ele>496.0</ele><time>2026-04-28T10:31:18.999Z</time></trkpt><trkpt lat="33.88693947267753" lon="-5.736961639226874"><ele>497.0</ele><time>2026-04-28T10:31:19.999Z</time></trkpt><trkpt lat="33.88683399234106" lon="-5.7372904711501675"><ele>498.0</ele><time>2026-04-28T10:31:20.999Z</time></trkpt><trkpt lat="33.88672857295304" lon="-5.737619758856272"><ele>493.0</ele><time>2026-04-28T10:31:21.999Z</time></trkpt><trkpt lat="33.88662404004865" lon="-5.737951426196699"><ele>488.0</ele><time>2026-04-28T10:31:22.999Z</time></trkpt><trkpt lat="33.88652041767003" lon="-5.73828211436484"><ele>489.0</ele><time>2026-04-28T10:31:23.999Z</time></trkpt><trkpt lat="33.88641715313959" lon="-5.738612002926821"><ele>490.0</ele><time>2026-04-28T10:31:24.999Z</time></trkpt><trkpt lat="33.88631216510709" lon="-5.738944226065931"><ele>490.0</ele><time>2026-04-28T10:31:25.999Z</time></trkpt><trkpt lat="33.886203792768654" lon="-5.739275818787396"><ele>490.0</ele><time>2026-04-28T10:31:26.999Z</time></trkpt><trkpt lat="33.886091081445805" lon="-5.739606673715929"><ele>491.0</ele><time>2026-04-28T10:31:27.999Z</time></trkpt><trkpt lat="33.88598053892452" lon="-5.7399381264191005"><ele>492.0</ele><time>2026-04-28T10:31:28.999Z</time></trkpt><trkpt lat="33.885875306122294" lon="-5.740270638755972"><ele>488.5</ele><time>2026-04-28T10:31:29.999Z</time></trkpt><trkpt lat="33.88577563646903" lon="-5.740607292809458"><ele>485.0</ele><time>2026-04-28T10:31:30.999Z</time></trkpt><trkpt lat="33.885681367878774" lon="-5.740946270245775"><ele>486.5</ele><time>2026-04-28T10:31:31.999Z</time></trkpt><trkpt lat="33.885587891760416" lon="-5.741286588234345"><ele>488.0</ele><time>2026-04-28T10:31:32.999Z</time></trkpt><trkpt lat="33.885496983949075" lon="-5.741625937104722"><ele>490.0</ele><time>2026-04-28T10:31:33.999Z</time></trkpt><trkpt lat="33.885407405842926" lon="-5.741968824267626"><ele>492.0</ele><time>2026-04-28T10:31:34.999Z</time></trkpt><trkpt lat="33.88531973860028" lon="-5.742313967392315"><ele>492.0</ele><time>2026-04-28T10:31:35.999Z</time></trkpt><trkpt lat="33.88523942934148" lon="-5.74265887600628"><ele>492.0</ele><time>2026-04-28T10:31:36.999Z</time></trkpt><trkpt lat="33.88516320805225" lon="-5.743003447979104"><ele>490.5</ele><time>2026-04-28T10:31:37.999Z</time></trkpt><trkpt lat="33.885086585464606" lon="-5.743350429544714"><ele>489.0</ele><time>2026-04-28T10:31:38.999Z</time></trkpt><trkpt lat="33.885011638392704" lon="-5.743697239103924"><ele>489.0</ele><time>2026-04-28T10:31:39.999Z</time></trkpt><trkpt lat="33.884937771862774" lon="-5.744043304660089"><ele>489.0</ele><time>2026-04-28T10:31:40.999Z</time></trkpt><trkpt lat="33.88486058719052" lon="-5.744393843001226"><ele>489.0</ele><time>2026-04-28T10:31:41.999Z</time></trkpt><trkpt lat="33.88478203593046" lon="-5.744739781862698"><ele>489.0</ele><time>2026-04-28T10:31:42.999Z</time></trkpt><trkpt lat="33.88470394220359" lon="-5.745087774849326"><ele>490.0</ele><time>2026-04-28T10:31:43.999Z</time></trkpt><trkpt lat="33.884629178514245" lon="-5.745435188897995"><ele>491.0</ele><time>2026-04-28T10:31:44.999Z</time></trkpt><trkpt lat="33.88455528230097" lon="-5.745781922576224"><ele>490.0</ele><time>2026-04-28T10:31:45.999Z</time></trkpt><trkpt lat="33.88448426257699" lon="-5.746130080114241"><ele>489.0</ele><time>2026-04-28T10:31:46.999Z</time></trkpt><trkpt lat="33.88441489378274" lon="-5.746478683002786"><ele>489.0</ele><time>2026-04-28T10:31:47.999Z</time></trkpt><trkpt lat="33.88434640972846" lon="-5.746826171494178"><ele>489.0</ele><time>2026-04-28T10:31:48.999Z</time></trkpt><trkpt lat="33.884274507284054" lon="-5.747173737844822"><ele>486.5</ele><time>2026-04-28T10:31:49.999Z</time></trkpt><trkpt lat="33.8842027010495" lon="-5.747519575104227"><ele>484.0</ele><time>2026-04-28T10:31:50.999Z</time></trkpt><trkpt lat="33.884130716817225" lon="-5.747865110744266"><ele>482.5</ele><time>2026-04-28T10:31:51.999Z</time></trkpt><trkpt lat="33.88405730465912" lon="-5.748212971127244"><ele>481.0</ele><time>2026-04-28T10:31:52.999Z</time></trkpt><trkpt lat="33.88398318852505" lon="-5.748559423408287"><ele>481.0</ele><time>2026-04-28T10:31:53.999Z</time></trkpt><trkpt lat="33.88391056699323" lon="-5.748907242819177"><ele>481.0</ele><time>2026-04-28T10:31:54.999Z</time></trkpt><trkpt lat="33.88383961576603" lon="-5.74925632066567"><ele>479.0</ele><time>2026-04-28T10:31:55.999Z</time></trkpt><trkpt lat="33.88376750245917" lon="-5.749605848527782"><ele>477.0</ele><time>2026-04-28T10:31:56.999Z</time></trkpt><trkpt lat="33.88369525093313" lon="-5.749955768426867"><ele>473.5</ele><time>2026-04-28T10:31:57.999Z</time></trkpt><trkpt lat="33.883621750321645" lon="-5.75030461088969"><ele>470.0</ele><time>2026-04-28T10:31:58.999Z</time></trkpt><trkpt lat="33.883547305346404" lon="-5.750653708296978"><ele>470.0</ele><time>2026-04-28T10:31:59.999Z</time></trkpt><trkpt lat="33.883470775952794" lon="-5.750999737935367"><ele>470.0</ele><time>2026-04-28T10:32:00.999Z</time></trkpt><trkpt lat="33.88339372675252" lon="-5.7513473641779145"><ele>467.5</ele><time>2026-04-28T10:32:01.999Z</time></trkpt><trkpt lat="33.8833197463491" lon="-5.7516945565445035"><ele>465.0</ele><time>2026-04-28T10:32:02.999Z</time></trkpt><trkpt lat="33.88324608339898" lon="-5.752042525720983"><ele>462.5</ele><time>2026-04-28T10:32:03.999Z</time></trkpt><trkpt lat="33.883171513205546" lon="-5.75239049138025"><ele>460.0</ele><time>2026-04-28T10:32:04.999Z</time></trkpt><trkpt lat="33.88309695258199" lon="-5.7527368899575"><ele>456.0</ele><time>2026-04-28T10:32:05.999Z</time></trkpt><trkpt lat="33.88302302805043" lon="-5.753083763279999"><ele>452.0</ele><time>2026-04-28T10:32:06.999Z</time></trkpt><trkpt lat="33.88295165272954" lon="-5.753429730321291"><ele>446.5</ele><time>2026-04-28T10:32:07.999Z</time></trkpt><trkpt lat="33.88287833693885" lon="-5.753777832609101"><ele>441.0</ele><time>2026-04-28T10:32:08.999Z</time></trkpt><trkpt lat="33.882802991719515" lon="-5.754125621406318"><ele>435.0</ele><time>2026-04-28T10:32:09.999Z</time></trkpt><trkpt lat="33.88272644282054" lon="-5.754473396180483"><ele>429.0</ele><time>2026-04-28T10:32:10.999Z</time></trkpt><trkpt lat="33.8826476362697" lon="-5.754822161299997"><ele>434.5</ele><time>2026-04-28T10:32:11.999Z</time></trkpt><trkpt lat="33.88256631757003" lon="-5.755168312688941"><ele>440.0</ele><time>2026-04-28T10:32:12.999Z</time></trkpt><trkpt lat="33.88248645186215" lon="-5.755514064562712"><ele>440.0</ele><time>2026-04-28T10:32:14Z</time></trkpt><trkpt lat="33.88240975902666" lon="-5.755862734395901"><ele>440.0</ele><time>2026-04-28T10:32:15Z</time></trkpt><trkpt lat="33.88233624460088" lon="-5.7562090091068665"><ele>437.0</ele><time>2026-04-28T10:32:16Z</time></trkpt><trkpt lat="33.88226598623321" lon="-5.756556775261345"><ele>434.0</ele><time>2026-04-28T10:32:17Z</time></trkpt><trkpt lat="33.882197488999516" lon="-5.7569052631231035"><ele>432.5</ele><time>2026-04-28T10:32:18Z</time></trkpt><trkpt lat="33.8821302085211" lon="-5.757254015963128"><ele>431.0</ele><time>2026-04-28T10:32:19Z</time></trkpt><trkpt lat="33.88206175745905" lon="-5.757600817193605"><ele>427.5</ele><time>2026-04-28T10:32:20Z</time></trkpt><trkpt lat="33.881990800523766" lon="-5.75794670754844"><ele>424.0</ele><time>2026-04-28T10:32:21Z</time></trkpt><trkpt lat="33.881917846485706" lon="-5.758291233187645"><ele>421.5</ele><time>2026-04-28T10:32:22Z</time></trkpt><trkpt lat="33.88184468990891" lon="-5.758637592559716"><ele>419.0</ele><time>2026-04-28T10:32:23Z</time></trkpt><trkpt lat="33.88177259705393" lon="-5.758983895206103"><ele>425.5</ele><time>2026-04-28T10:32:24Z</time></trkpt><trkpt lat="33.88170324152867" lon="-5.759330476306386"><ele>432.0</ele><time>2026-04-28T10:32:25Z</time></trkpt><trkpt lat="33.881634127424626" lon="-5.759677112914512"><ele>432.0</ele><time>2026-04-28T10:32:26Z</time></trkpt><trkpt lat="33.88156067553849" lon="-5.760022365220967"><ele>432.0</ele><time>2026-04-28T10:32:27Z</time></trkpt><trkpt lat="33.88148301528815" lon="-5.760366348331791"><ele>431.5</ele><time>2026-04-28T10:32:28Z</time></trkpt><trkpt lat="33.88140208072946" lon="-5.760710041449336"><ele>431.0</ele><time>2026-04-28T10:32:29Z</time></trkpt><trkpt lat="33.88131634444324" lon="-5.761052274392289"><ele>430.5</ele><time>2026-04-28T10:32:30Z</time></trkpt><trkpt lat="33.88122703369373" lon="-5.761393433034941"><ele>430.0</ele><time>2026-04-28T10:32:31Z</time></trkpt><trkpt lat="33.88113465485442" lon="-5.761732018628496"><ele>428.0</ele><time>2026-04-28T10:32:32Z</time></trkpt><trkpt lat="33.88103713396319" lon="-5.7620701729278485"><ele>426.0</ele><time>2026-04-28T10:32:33Z</time></trkpt><trkpt lat="33.88093640332013" lon="-5.762406077405918"><ele>425.0</ele><time>2026-04-28T10:32:34Z</time></trkpt><trkpt lat="33.88083170048378" lon="-5.762741043622752"><ele>424.0</ele><time>2026-04-28T10:32:35Z</time></trkpt><trkpt lat="33.88072472104224" lon="-5.763074757099029"><ele>424.0</ele><time>2026-04-28T10:32:36Z</time></trkpt><trkpt lat="33.8806153127266" lon="-5.763406398855532"><ele>424.0</ele><time>2026-04-28T10:32:37Z</time></trkpt><trkpt lat="33.88050239911271" lon="-5.763736239380038"><ele>422.0</ele><time>2026-04-28T10:32:38Z</time></trkpt><trkpt lat="33.880385526444186" lon="-5.764065036017093"><ele>420.0</ele><time>2026-04-28T10:32:39Z</time></trkpt><trkpt lat="33.8802645031431" lon="-5.764390749152623"><ele>418.0</ele><time>2026-04-28T10:32:40Z</time></trkpt><trkpt lat="33.880140044575164" lon="-5.7647150048234135"><ele>416.0</ele><time>2026-04-28T10:32:41Z</time></trkpt><trkpt lat="33.88001398686348" lon="-5.7650387013504965"><ele>414.0</ele><time>2026-04-28T10:32:42Z</time></trkpt><trkpt lat="33.87988521936828" lon="-5.7653608327623616"><ele>412.0</ele><time>2026-04-28T10:32:43Z</time></trkpt><trkpt lat="33.87975655001651" lon="-5.765682479910651"><ele>412.0</ele><time>2026-04-28T10:32:44Z</time></trkpt><trkpt lat="33.8796292218048" lon="-5.766007152189016"><ele>412.0</ele><time>2026-04-28T10:32:45Z</time></trkpt><trkpt lat="33.87950578325607" lon="-5.766330058446966"><ele>409.0</ele><time>2026-04-28T10:32:46Z</time></trkpt><trkpt lat="33.87938324910496" lon="-5.766653484066613"><ele>406.0</ele><time>2026-04-28T10:32:47Z</time></trkpt><trkpt lat="33.879260481108346" lon="-5.766977492417182"><ele>405.0</ele><time>2026-04-28T10:32:48Z</time></trkpt><trkpt lat="33.87913713540963" lon="-5.767302160108917"><ele>404.0</ele><time>2026-04-28T10:32:49Z</time></trkpt><trkpt lat="33.87901258737055" lon="-5.767624659113754"><ele>401.0</ele><time>2026-04-28T10:32:50Z</time></trkpt><trkpt lat="33.8788862501521" lon="-5.767946369860005"><ele>398.0</ele><time>2026-04-28T10:32:51Z</time></trkpt><trkpt lat="33.87876109385764" lon="-5.768268628477633"><ele>394.0</ele><time>2026-04-28T10:32:52Z</time></trkpt><trkpt lat="33.87863614741567" lon="-5.768593650908786"><ele>390.0</ele><time>2026-04-28T10:32:53Z</time></trkpt><trkpt lat="33.87851010930594" lon="-5.768918003913355"><ele>390.5</ele><time>2026-04-28T10:32:54Z</time></trkpt><trkpt lat="33.878383735127294" lon="-5.769239407247451"><ele>391.0</ele><time>2026-04-28T10:32:55Z</time></trkpt><trkpt lat="33.87825798157718" lon="-5.769563390054848"><ele>391.0</ele><time>2026-04-28T10:32:56Z</time></trkpt><trkpt lat="33.87813334302534" lon="-5.7698861863486295"><ele>391.0</ele><time>2026-04-28T10:32:57Z</time></trkpt><trkpt lat="33.87800737552687" lon="-5.770211814946853"><ele>387.0</ele><time>2026-04-28T10:32:58Z</time></trkpt><trkpt lat="33.877880554584024" lon="-5.770538135734595"><ele>383.0</ele><time>2026-04-28T10:32:59Z</time></trkpt><trkpt lat="33.877753896853285" lon="-5.770865636918478"><ele>383.5</ele><time>2026-04-28T10:33:00Z</time></trkpt><trkpt lat="33.87762935590166" lon="-5.771190742764773"><ele>384.0</ele><time>2026-04-28T10:33:01Z</time></trkpt><trkpt lat="33.87750366205848" lon="-5.771516366007958"><ele>384.0</ele><time>2026-04-28T10:33:02Z</time></trkpt><trkpt lat="33.87737571965656" lon="-5.77184107824849"><ele>384.0</ele><time>2026-04-28T10:33:03Z</time></trkpt><trkpt lat="33.87724532104391" lon="-5.772164712888131"><ele>379.5</ele><time>2026-04-28T10:33:04Z</time></trkpt><trkpt lat="33.877114143894126" lon="-5.77248507013858"><ele>375.0</ele><time>2026-04-28T10:33:05Z</time></trkpt><trkpt lat="33.87698174671997" lon="-5.772804841985229"><ele>372.5</ele><time>2026-04-28T10:33:06Z</time></trkpt><trkpt lat="33.87685031047827" lon="-5.773125780052307"><ele>370.0</ele><time>2026-04-28T10:33:07Z</time></trkpt><trkpt lat="33.87672081670975" lon="-5.773449144322527"><ele>371.5</ele><time>2026-04-28T10:33:08Z</time></trkpt><trkpt lat="33.87659339916218" lon="-5.7737724306374565"><ele>373.0</ele><time>2026-04-28T10:33:09Z</time></trkpt><trkpt lat="33.876465989978996" lon="-5.774096021425723"><ele>368.5</ele><time>2026-04-28T10:33:10Z</time></trkpt><trkpt lat="33.87633880246668" lon="-5.774419341955153"><ele>364.0</ele><time>2026-04-28T10:33:11Z</time></trkpt><trkpt lat="33.87621572019995" lon="-5.774743967894693"><ele>364.0</ele><time>2026-04-28T10:33:12Z</time></trkpt><trkpt lat="33.87609587743186" lon="-5.775068724823573"><ele>364.0</ele><time>2026-04-28T10:33:13Z</time></trkpt><trkpt lat="33.87597774062213" lon="-5.775395940582174"><ele>362.5</ele><time>2026-04-28T10:33:14Z</time></trkpt><trkpt lat="33.875858952326986" lon="-5.775725529005584"><ele>361.0</ele><time>2026-04-28T10:33:15Z</time></trkpt><trkpt lat="33.87573842628306" lon="-5.776052185462372"><ele>361.0</ele><time>2026-04-28T10:33:16Z</time></trkpt><trkpt lat="33.87561335391084" lon="-5.776376625642663"><ele>361.0</ele><time>2026-04-28T10:33:17Z</time></trkpt><trkpt lat="33.875486577867335" lon="-5.776697962856873"><ele>358.5</ele><time>2026-04-28T10:33:18Z</time></trkpt><trkpt lat="33.87536073124134" lon="-5.777024170717623"><ele>356.0</ele><time>2026-04-28T10:33:19Z</time></trkpt><trkpt lat="33.87523589335366" lon="-5.777349482771378"><ele>356.0</ele><time>2026-04-28T10:33:20Z</time></trkpt><trkpt lat="33.87510974786765" lon="-5.7776745515274"><ele>356.0</ele><time>2026-04-28T10:33:21Z</time></trkpt><trkpt lat="33.87498203103949" lon="-5.777999782058672"><ele>355.5</ele><time>2026-04-28T10:33:22Z</time></trkpt><trkpt lat="33.87484968179326" lon="-5.778319503796313"><ele>355.0</ele><time>2026-04-28T10:33:23Z</time></trkpt><trkpt lat="33.87472031289423" lon="-5.7786129093764"><ele>355.0</ele><time>2026-04-28T10:33:24Z</time></trkpt><trkpt lat="33.874588160990264" lon="-5.778891739454832"><ele>355.0</ele><time>2026-04-28T10:33:25Z</time></trkpt><trkpt lat="33.874445421215356" lon="-5.779171521310813"><ele>355.0</ele><time>2026-04-28T10:33:26Z</time></trkpt><trkpt lat="33.87429219990372" lon="-5.779457466079115"><ele>355.0</ele><time>2026-04-28T10:33:27Z</time></trkpt><trkpt lat="33.87413430182898" lon="-5.779746686200685"><ele>355.0</ele><time>2026-04-28T10:33:28Z</time></trkpt><trkpt lat="33.873971339767806" lon="-5.780037182308409"><ele>355.0</ele><time>2026-04-28T10:33:29Z</time></trkpt><trkpt lat="33.87380200791444" lon="-5.780325345036386"><ele>353.0</ele><time>2026-04-28T10:33:30Z</time></trkpt><trkpt lat="33.87362566294283" lon="-5.780607122867654"><ele>351.0</ele><time>2026-04-28T10:33:31Z</time></trkpt><trkpt lat="33.873441244432044" lon="-5.780884095754877"><ele>350.0</ele><time>2026-04-28T10:33:32Z</time></trkpt><trkpt lat="33.8732496094017" lon="-5.781153687433414"><ele>349.0</ele><time>2026-04-28T10:33:33Z</time></trkpt><trkpt lat="33.873051073798855" lon="-5.781414753359588"><ele>349.0</ele><time>2026-04-28T10:33:34Z</time></trkpt><trkpt lat="33.87284438306865" lon="-5.781670822602866"><ele>349.0</ele><time>2026-04-28T10:33:35Z</time></trkpt><trkpt lat="33.87263097436042" lon="-5.781920599199691"><ele>342.5</ele><time>2026-04-28T10:33:36Z</time></trkpt><trkpt lat="33.872413769184604" lon="-5.782163555743064"><ele>336.0</ele><time>2026-04-28T10:33:37Z</time></trkpt><trkpt lat="33.872193086981774" lon="-5.782397732021796"><ele>336.0</ele><time>2026-04-28T10:33:38Z</time></trkpt><trkpt lat="33.87196876091777" lon="-5.78262479215661"><ele>336.0</ele><time>2026-04-28T10:33:39Z</time></trkpt><trkpt lat="33.87174103015428" lon="-5.782842803414871"><ele>331.0</ele><time>2026-04-28T10:33:40Z</time></trkpt><trkpt lat="33.87151093185025" lon="-5.783052841917694"><ele>326.0</ele><time>2026-04-28T10:33:41Z</time></trkpt><trkpt lat="33.87127768490985" lon="-5.783252869607607"><ele>326.0</ele><time>2026-04-28T10:33:42Z</time></trkpt><trkpt lat="33.87104085318496" lon="-5.783439751709247"><ele>326.0</ele><time>2026-04-28T10:33:43Z</time></trkpt><trkpt lat="33.87080414221059" lon="-5.7836161051600365"><ele>324.5</ele><time>2026-04-28T10:33:44Z</time></trkpt><trkpt lat="33.87056684009287" lon="-5.783785164071168"><ele>323.0</ele><time>2026-04-28T10:33:45Z</time></trkpt><trkpt lat="33.870329213551315" lon="-5.78394765371938"><ele>322.5</ele><time>2026-04-28T10:33:46Z</time></trkpt><trkpt lat="33.87009172411543" lon="-5.784100661030835"><ele>322.0</ele><time>2026-04-28T10:33:47Z</time></trkpt><trkpt lat="33.86985757179537" lon="-5.784246408937117"><ele>322.0</ele><time>2026-04-28T10:33:48Z</time></trkpt><trkpt lat="33.86962456034453" lon="-5.7843849020010625"><ele>322.0</ele><time>2026-04-28T10:33:49Z</time></trkpt><trkpt lat="33.86938981706191" lon="-5.784514700091548"><ele>320.0</ele><time>2026-04-28T10:33:50Z</time></trkpt><trkpt lat="33.869153942235144" lon="-5.784637177179132"><ele>318.0</ele><time>2026-04-28T10:33:51Z</time></trkpt><trkpt lat="33.868913798943474" lon="-5.784751010147529"><ele>318.0</ele><time>2026-04-28T10:33:52Z</time></trkpt><trkpt lat="33.86867027531723" lon="-5.784854661678692"><ele>318.0</ele><time>2026-04-28T10:33:53Z</time></trkpt><trkpt lat="33.868424654881146" lon="-5.7849515705159495"><ele>317.5</ele><time>2026-04-28T10:33:54Z</time></trkpt><trkpt lat="33.86817336181602" lon="-5.785044956717931"><ele>317.0</ele><time>2026-04-28T10:33:55Z</time></trkpt><trkpt lat="33.86790929379087" lon="-5.785136308661612"><ele>319.5</ele><time>2026-04-28T10:33:56Z</time></trkpt><trkpt lat="33.86763482726914" lon="-5.785223926183299"><ele>322.0</ele><time>2026-04-28T10:33:57Z</time></trkpt><trkpt lat="33.867353803663136" lon="-5.785302923496757"><ele>322.5</ele><time>2026-04-28T10:33:58Z</time></trkpt><trkpt lat="33.86706998643661" lon="-5.785369101677389"><ele>323.0</ele><time>2026-04-28T10:33:59Z</time></trkpt><trkpt lat="33.86678254945311" lon="-5.785428913893422"><ele>322.5</ele><time>2026-04-28T10:34:00Z</time></trkpt><trkpt lat="33.86649217888707" lon="-5.785487537456536"><ele>322.0</ele><time>2026-04-28T10:34:01Z</time></trkpt><trkpt lat="33.86620024161831" lon="-5.785546013636249"><ele>320.0</ele><time>2026-04-28T10:34:02Z</time></trkpt><trkpt lat="33.8659077308283" lon="-5.78560286139071"><ele>318.0</ele><time>2026-04-28T10:34:03Z</time></trkpt><trkpt lat="33.86561453797121" lon="-5.785659359499668"><ele>318.0</ele><time>2026-04-28T10:34:04Z</time></trkpt><trkpt lat="33.865321427249924" lon="-5.785718249297243"><ele>318.0</ele><time>2026-04-28T10:34:05Z</time></trkpt><trkpt lat="33.86502785545571" lon="-5.785785227058273"><ele>315.5</ele><time>2026-04-28T10:34:05.999Z</time></trkpt><trkpt lat="33.864737845227125" lon="-5.7858645022269934"><ele>313.0</ele><time>2026-04-28T10:34:06.999Z</time></trkpt><trkpt lat="33.8644508375331" lon="-5.785954758610966"><ele>319.5</ele><time>2026-04-28T10:34:07.999Z</time></trkpt><trkpt lat="33.86416490937798" lon="-5.78605380671616"><ele>326.0</ele><time>2026-04-28T10:34:08.999Z</time></trkpt><trkpt lat="33.86388034134428" lon="-5.786161449030179"><ele>326.0</ele><time>2026-04-28T10:34:09.999Z</time></trkpt><trkpt lat="33.86359823278064" lon="-5.786279612860171"><ele>326.0</ele><time>2026-04-28T10:34:10.999Z</time></trkpt><trkpt lat="33.86331895372612" lon="-5.7864077227957855"><ele>320.5</ele><time>2026-04-28T10:34:11.999Z</time></trkpt><trkpt lat="33.863043189074695" lon="-5.786547033281775"><ele>315.0</ele><time>2026-04-28T10:34:12.999Z</time></trkpt><trkpt lat="33.86277281796409" lon="-5.786698468142384"><ele>314.5</ele><time>2026-04-28T10:34:13.999Z</time></trkpt><trkpt lat="33.86250907140924" lon="-5.786862892276692"><ele>314.0</ele><time>2026-04-28T10:34:14.999Z</time></trkpt><trkpt lat="33.862244523137555" lon="-5.78703323739862"><ele>314.0</ele><time>2026-04-28T10:34:15.999Z</time></trkpt><trkpt lat="33.861980985252714" lon="-5.787206755048765"><ele>314.0</ele><time>2026-04-28T10:34:16.999Z</time></trkpt><trkpt lat="33.8617211038621" lon="-5.78738553617638"><ele>308.5</ele><time>2026-04-28T10:34:17.999Z</time></trkpt><trkpt lat="33.861467596518" lon="-5.787570254437211"><ele>303.0</ele><time>2026-04-28T10:34:18.999Z</time></trkpt><trkpt lat="33.86122681120643" lon="-5.787760398531339"><ele>302.0</ele><time>2026-04-28T10:34:20Z</time></trkpt><trkpt lat="33.86099999957631" lon="-5.7879522459804615"><ele>301.0</ele><time>2026-04-28T10:34:21Z</time></trkpt><trkpt lat="33.86078637346533" lon="-5.78814049627726"><ele>301.0</ele><time>2026-04-28T10:34:22Z</time></trkpt><trkpt lat="33.86059100829195" lon="-5.788320702133343"><ele>301.0</ele><time>2026-04-28T10:34:23Z</time></trkpt><trkpt lat="33.860413503933" lon="-5.788491275693903"><ele>300.66666666666663</ele><time>2026-04-28T10:34:24Z</time></trkpt><trkpt lat="33.86025168046465" lon="-5.788653403708812"><ele>300.3333333333333</ele><time>2026-04-28T10:34:25Z</time></trkpt><trkpt lat="33.86010110015543" lon="-5.788813431424231"><ele>300.0</ele><time>2026-04-28T10:34:26Z</time></trkpt><trkpt lat="33.85995919395784" lon="-5.78897737312572"><ele>300.0</ele><time>2026-04-28T10:34:27Z</time></trkpt><trkpt lat="33.85982469973539" lon="-5.789138259034185"><ele>300.0</ele><time>2026-04-28T10:34:28Z</time></trkpt><trkpt lat="33.85970169818233" lon="-5.7892853020907244"><ele>300.0</ele><time>2026-04-28T10:34:29Z</time></trkpt><trkpt lat="33.85958455723545" lon="-5.7894217884707135"><ele>301.0</ele><time>2026-04-28T10:34:30Z</time></trkpt><trkpt lat="33.85946078423744" lon="-5.789565355428449"><ele>302.0</ele><time>2026-04-28T10:34:31Z</time></trkpt><trkpt lat="33.859312134876404" lon="-5.78973724529139"><ele>303.0</ele><time>2026-04-28T10:34:32Z</time></trkpt><trkpt lat="33.859136022031024" lon="-5.789938965753983"><ele>301.0</ele><time>2026-04-28T10:34:33Z</time></trkpt><trkpt lat="33.85893802205764" lon="-5.790171638570138"><ele>299.0</ele><time>2026-04-28T10:34:34Z</time></trkpt><trkpt lat="33.85872387998192" lon="-5.790437147638855"><ele>299.0</ele><time>2026-04-28T10:34:35Z</time></trkpt><trkpt lat="33.85848963322826" lon="-5.790734973375992"><ele>299.0</ele><time>2026-04-28T10:34:36Z</time></trkpt><trkpt lat="33.85823618539145" lon="-5.791063499500518"><ele>301.0</ele><time>2026-04-28T10:34:37Z</time></trkpt><trkpt lat="33.85796765374692" lon="-5.791405086401026"><ele>303.0</ele><time>2026-04-28T10:34:38Z</time></trkpt><trkpt lat="33.85768410491024" lon="-5.7917610489930516"><ele>302.0</ele><time>2026-04-28T10:34:39Z</time></trkpt><trkpt lat="33.85739204369948" lon="-5.792124618654283"><ele>301.0</ele><time>2026-04-28T10:34:40Z</time></trkpt><trkpt lat="33.857094900189026" lon="-5.792497431333452"><ele>301.5</ele><time>2026-04-28T10:34:41Z</time></trkpt><trkpt lat="33.85681275178712" lon="-5.792865777357309"><ele>302.0</ele><time>2026-04-28T10:34:42Z</time></trkpt><trkpt lat="33.85655191728905" lon="-5.793233909708288"><ele>309.5</ele><time>2026-04-28T10:34:43Z</time></trkpt><trkpt lat="33.85630264679707" lon="-5.793610874929177"><ele>317.0</ele><time>2026-04-28T10:34:44Z</time></trkpt><trkpt lat="33.85606575935722" lon="-5.793992178972582"><ele>311.5</ele><time>2026-04-28T10:34:45Z</time></trkpt><trkpt lat="33.8558443238013" lon="-5.794379472310188"><ele>306.0</ele><time>2026-04-28T10:34:46Z</time></trkpt><trkpt lat="33.855637335298766" lon="-5.794767512855045"><ele>306.0</ele><time>2026-04-28T10:34:47Z</time></trkpt><trkpt lat="33.855443117011134" lon="-5.795156624469581"><ele>306.0</ele><time>2026-04-28T10:34:48Z</time></trkpt><trkpt lat="33.85526658505559" lon="-5.795532914073512"><ele>299.5</ele><time>2026-04-28T10:34:49Z</time></trkpt><trkpt lat="33.85510665893263" lon="-5.795898486919989"><ele>293.0</ele><time>2026-04-28T10:34:50Z</time></trkpt><trkpt lat="33.85496679675743" lon="-5.7962420576503355"><ele>293.0</ele><time>2026-04-28T10:34:51Z</time></trkpt><trkpt lat="33.85484569905403" lon="-5.796560071559119"><ele>293.0</ele><time>2026-04-28T10:34:52Z</time></trkpt><trkpt lat="33.85473182061827" lon="-5.796869700540195"><ele>293.0</ele><time>2026-04-28T10:34:53Z</time></trkpt><trkpt lat="33.85462553730738" lon="-5.797176057264008"><ele>293.0</ele><time>2026-04-28T10:34:54Z</time></trkpt><trkpt lat="33.85452009606272" lon="-5.797489931433903"><ele>293.5</ele><time>2026-04-28T10:34:55Z</time></trkpt><trkpt lat="33.85440976959572" lon="-5.797807484794368"><ele>294.0</ele><time>2026-04-28T10:34:56Z</time></trkpt><trkpt lat="33.85429904289713" lon="-5.7981244690546125"><ele>291.5</ele><time>2026-04-28T10:34:57Z</time></trkpt><trkpt lat="33.854184637574186" lon="-5.798442555561251"><ele>289.0</ele><time>2026-04-28T10:34:58Z</time></trkpt><trkpt lat="33.85406323015809" lon="-5.798760086910331"><ele>289.0</ele><time>2026-04-28T10:34:59Z</time></trkpt><trkpt lat="33.853931594044376" lon="-5.79907384972204"><ele>289.0</ele><time>2026-04-28T10:35:00Z</time></trkpt><trkpt lat="33.8537922699928" lon="-5.7993859079283565"><ele>291.0</ele><time>2026-04-28T10:35:01Z</time></trkpt><trkpt lat="33.85364813001806" lon="-5.799694336912015"><ele>293.0</ele><time>2026-04-28T10:35:02Z</time></trkpt><trkpt lat="33.85350051082896" lon="-5.800003057987256"><ele>291.0</ele><time>2026-04-28T10:35:03Z</time></trkpt><trkpt lat="33.85334807520568" lon="-5.8003085157246215"><ele>289.0</ele><time>2026-04-28T10:35:04Z</time></trkpt><trkpt lat="33.85318906693001" lon="-5.800609881953528"><ele>289.0</ele><time>2026-04-28T10:35:05Z</time></trkpt><trkpt lat="33.85302376739653" lon="-5.80090605642695"><ele>289.0</ele><time>2026-04-28T10:35:06Z</time></trkpt><trkpt lat="33.85285361397205" lon="-5.8011998718761255"><ele>289.0</ele><time>2026-04-28T10:35:07Z</time></trkpt><trkpt lat="33.85267883475789" lon="-5.8014885854055525"><ele>289.0</ele><time>2026-04-28T10:35:08Z</time></trkpt><trkpt lat="33.852502058597345" lon="-5.801775843646243"><ele>288.0</ele><time>2026-04-28T10:35:09Z</time></trkpt><trkpt lat="33.85231850184404" lon="-5.8020587156424765"><ele>287.0</ele><time>2026-04-28T10:35:10Z</time></trkpt><trkpt lat="33.852128045685724" lon="-5.802333067917672"><ele>287.0</ele><time>2026-04-28T10:35:11Z</time></trkpt><trkpt lat="33.85193316178084" lon="-5.802602280385253"><ele>287.0</ele><time>2026-04-28T10:35:12Z</time></trkpt><trkpt lat="33.851736616942404" lon="-5.802871276510114"><ele>284.5</ele><time>2026-04-28T10:35:13Z</time></trkpt><trkpt lat="33.8515371537348" lon="-5.803137894520439"><ele>282.0</ele><time>2026-04-28T10:35:14Z</time></trkpt><trkpt lat="33.85133436258266" lon="-5.8033989531949715"><ele>281.0</ele><time>2026-04-28T10:35:15Z</time></trkpt><trkpt lat="33.85112794982383" lon="-5.803658556967845"><ele>280.0</ele><time>2026-04-28T10:35:16Z</time></trkpt><trkpt lat="33.85092398523948" lon="-5.803919661057221"><ele>280.0</ele><time>2026-04-28T10:35:17Z</time></trkpt><trkpt lat="33.850719589710614" lon="-5.804182942076264"><ele>280.0</ele><time>2026-04-28T10:35:18Z</time></trkpt><trkpt lat="33.85051666532379" lon="-5.804442040565457"><ele>279.5</ele><time>2026-04-28T10:35:19Z</time></trkpt><trkpt lat="33.85031289711273" lon="-5.804702301887851"><ele>279.0</ele><time>2026-04-28T10:35:20Z</time></trkpt><trkpt lat="33.85011056568301" lon="-5.80496265514642"><ele>280.0</ele><time>2026-04-28T10:35:21Z</time></trkpt><trkpt lat="33.84990777429982" lon="-5.80521765270511"><ele>281.0</ele><time>2026-04-28T10:35:22Z</time></trkpt><trkpt lat="33.8497066890561" lon="-5.805463204280826"><ele>281.0</ele><time>2026-04-28T10:35:23Z</time></trkpt><trkpt lat="33.849511675984196" lon="-5.80570342751052"><ele>281.0</ele><time>2026-04-28T10:35:24Z</time></trkpt><trkpt lat="33.84931443943213" lon="-5.805950836916404"><ele>280.0</ele><time>2026-04-28T10:35:25Z</time></trkpt><trkpt lat="33.84911547652174" lon="-5.806203865743804"><ele>279.0</ele><time>2026-04-28T10:35:26Z</time></trkpt><trkpt lat="33.848914856718885" lon="-5.806458715413044"><ele>279.0</ele><time>2026-04-28T10:35:27Z</time></trkpt><trkpt lat="33.84871296363723" lon="-5.806714035335482"><ele>279.0</ele><time>2026-04-28T10:35:28Z</time></trkpt><trkpt lat="33.8485126415345" lon="-5.806972175066634"><ele>280.0</ele><time>2026-04-28T10:35:29Z</time></trkpt><trkpt lat="33.84831338033364" lon="-5.807234699949653"><ele>281.0</ele><time>2026-04-28T10:35:30Z</time></trkpt><trkpt lat="33.848117883507044" lon="-5.807500805127589"><ele>285.0</ele><time>2026-04-28T10:35:31Z</time></trkpt><trkpt lat="33.847926779346686" lon="-5.807770042988527"><ele>289.0</ele><time>2026-04-28T10:35:32Z</time></trkpt><trkpt lat="33.84773741333048" lon="-5.808041781512192"><ele>291.0</ele><time>2026-04-28T10:35:33Z</time></trkpt><trkpt lat="33.84755015119725" lon="-5.808319709066763"><ele>293.0</ele><time>2026-04-28T10:35:34Z</time></trkpt><trkpt lat="33.847367013158156" lon="-5.808603373989292"><ele>293.0</ele><time>2026-04-28T10:35:35Z</time></trkpt><trkpt lat="33.84718829698638" lon="-5.808889490688394"><ele>293.0</ele><time>2026-04-28T10:35:36Z</time></trkpt><trkpt lat="33.847012431118216" lon="-5.809179815068391"><ele>291.0</ele><time>2026-04-28T10:35:37Z</time></trkpt><trkpt lat="33.84684222418279" lon="-5.809473447001677"><ele>289.0</ele><time>2026-04-28T10:35:38Z</time></trkpt><trkpt lat="33.84667675540813" lon="-5.8097730724035825"><ele>288.5</ele><time>2026-04-28T10:35:39Z</time></trkpt><trkpt lat="33.84651725626007" lon="-5.8100757720458756"><ele>288.0</ele><time>2026-04-28T10:35:40Z</time></trkpt><trkpt lat="33.84636327370106" lon="-5.810379456889951"><ele>287.0</ele><time>2026-04-28T10:35:41Z</time></trkpt><trkpt lat="33.84621658236786" lon="-5.810689473337069"><ele>286.0</ele><time>2026-04-28T10:35:42Z</time></trkpt><trkpt lat="33.846077193803076" lon="-5.811005844956366"><ele>284.5</ele><time>2026-04-28T10:35:42.999Z</time></trkpt><trkpt lat="33.84594274563548" lon="-5.811325227541262"><ele>283.0</ele><time>2026-04-28T10:35:43.999Z</time></trkpt><trkpt lat="33.845812551491214" lon="-5.811649829032477"><ele>284.5</ele><time>2026-04-28T10:35:44.999Z</time></trkpt><trkpt lat="33.845686819122236" lon="-5.811977405390917"><ele>286.0</ele><time>2026-04-28T10:35:45.999Z</time></trkpt><trkpt lat="33.84556454936516" lon="-5.812305577732333"><ele>286.0</ele><time>2026-04-28T10:35:46.999Z</time></trkpt><trkpt lat="33.845449329382184" lon="-5.812637334033864"><ele>286.0</ele><time>2026-04-28T10:35:47.999Z</time></trkpt><trkpt lat="33.8453407534583" lon="-5.812972710758507"><ele>285.0</ele><time>2026-04-28T10:35:48.999Z</time></trkpt><trkpt lat="33.84524011681581" lon="-5.813311944710798"><ele>284.0</ele><time>2026-04-28T10:35:49.999Z</time></trkpt><trkpt lat="33.845139200933026" lon="-5.813651362060267"><ele>283.5</ele><time>2026-04-28T10:35:50.999Z</time></trkpt><trkpt lat="33.8450426811831" lon="-5.813990766287517"><ele>283.0</ele><time>2026-04-28T10:35:51.999Z</time></trkpt><trkpt lat="33.84494787156196" lon="-5.814332635167774"><ele>282.5</ele><time>2026-04-28T10:35:52.999Z</time></trkpt><trkpt lat="33.84485557786675" lon="-5.814677384539031"><ele>282.0</ele><time>2026-04-28T10:35:53.999Z</time></trkpt><trkpt lat="33.84476301394772" lon="-5.8150188708458455"><ele>283.5</ele><time>2026-04-28T10:35:54.999Z</time></trkpt><trkpt lat="33.84466887039944" lon="-5.815359128112901"><ele>285.0</ele><time>2026-04-28T10:35:55.999Z</time></trkpt><trkpt lat="33.844575576159556" lon="-5.815700029692211"><ele>284.5</ele><time>2026-04-28T10:35:56.999Z</time></trkpt><trkpt lat="33.84448441408174" lon="-5.816041704258631"><ele>284.0</ele><time>2026-04-28T10:35:57.999Z</time></trkpt><trkpt lat="33.84439449912947" lon="-5.816384387484371"><ele>284.0</ele><time>2026-04-28T10:35:58.999Z</time></trkpt><trkpt lat="33.844305028888094" lon="-5.8167256463877015"><ele>284.0</ele><time>2026-04-28T10:35:59.999Z</time></trkpt><trkpt lat="33.84421729931486" lon="-5.817066603237908"><ele>282.5</ele><time>2026-04-28T10:36:00.999Z</time></trkpt><trkpt lat="33.84413203531487" lon="-5.817409092645762"><ele>281.0</ele><time>2026-04-28T10:36:01.999Z</time></trkpt><trkpt lat="33.844047461365406" lon="-5.817751890818458"><ele>281.0</ele><time>2026-04-28T10:36:02.999Z</time></trkpt><trkpt lat="33.843962629761066" lon="-5.818095214585536"><ele>281.0</ele><time>2026-04-28T10:36:03.999Z</time></trkpt><trkpt lat="33.84387610552052" lon="-5.8184358456330445"><ele>279.5</ele><time>2026-04-28T10:36:04.999Z</time></trkpt><trkpt lat="33.84378883069809" lon="-5.818776699977612"><ele>278.0</ele><time>2026-04-28T10:36:05.999Z</time></trkpt><trkpt lat="33.84370312843715" lon="-5.819118213555176"><ele>279.0</ele><time>2026-04-28T10:36:06.999Z</time></trkpt><trkpt lat="33.84361689354674" lon="-5.819460405733531"><ele>280.0</ele><time>2026-04-28T10:36:07.999Z</time></trkpt><trkpt lat="33.84352839151976" lon="-5.8198028754585005"><ele>279.0</ele><time>2026-04-28T10:36:08.999Z</time></trkpt><trkpt lat="33.84343957854492" lon="-5.820143305703677"><ele>278.0</ele><time>2026-04-28T10:36:09.999Z</time></trkpt><trkpt lat="33.843351635325725" lon="-5.820484690006856"><ele>278.0</ele><time>2026-04-28T10:36:10.999Z</time></trkpt><trkpt lat="33.843262954697515" lon="-5.820825994598664"><ele>278.0</ele><time>2026-04-28T10:36:11.999Z</time></trkpt><trkpt lat="33.84317326008469" lon="-5.821167636786549"><ele>278.5</ele><time>2026-04-28T10:36:12.999Z</time></trkpt><trkpt lat="33.843082565068705" lon="-5.821510256323115"><ele>279.0</ele><time>2026-04-28T10:36:13.999Z</time></trkpt><trkpt lat="33.84298969760047" lon="-5.821852679380421"><ele>278.0</ele><time>2026-04-28T10:36:14.999Z</time></trkpt><trkpt lat="33.84289304370515" lon="-5.822191703968902"><ele>277.0</ele><time>2026-04-28T10:36:15.999Z</time></trkpt><trkpt lat="33.84279109595205" lon="-5.822527183219301"><ele>278.5</ele><time>2026-04-28T10:36:16.999Z</time></trkpt><trkpt lat="33.84268195479149" lon="-5.822858084087569"><ele>280.0</ele><time>2026-04-28T10:36:17.999Z</time></trkpt><trkpt lat="33.84256446332818" lon="-5.82318470049515"><ele>278.5</ele><time>2026-04-28T10:36:18.999Z</time></trkpt><trkpt lat="33.84243881031762" lon="-5.823507442561292"><ele>277.0</ele><time>2026-04-28T10:36:19.999Z</time></trkpt><trkpt lat="33.84230992780164" lon="-5.8238294427696955"><ele>277.0</ele><time>2026-04-28T10:36:20.999Z</time></trkpt><trkpt lat="33.84217647455484" lon="-5.824147626196794"><ele>277.0</ele><time>2026-04-28T10:36:21.999Z</time></trkpt><trkpt lat="33.84203746719517" lon="-5.8244612448341275"><ele>276.0</ele><time>2026-04-28T10:36:22.999Z</time></trkpt><trkpt lat="33.84189364115786" lon="-5.824770996747221"><ele>275.0</ele><time>2026-04-28T10:36:23.999Z</time></trkpt><trkpt lat="33.84174597103637" lon="-5.82507859373427"><ele>279.5</ele><time>2026-04-28T10:36:24.999Z</time></trkpt><trkpt lat="33.84159133254279" lon="-5.825382186245807"><ele>284.0</ele><time>2026-04-28T10:36:26Z</time></trkpt><trkpt lat="33.84142987132732" lon="-5.825679515265441"><ele>284.0</ele><time>2026-04-28T10:36:27Z</time></trkpt><trkpt lat="33.84126168186087" lon="-5.825974337227476"><ele>284.0</ele><time>2026-04-28T10:36:28Z</time></trkpt><trkpt lat="33.841090951322414" lon="-5.82626574072739"><ele>284.5</ele><time>2026-04-28T10:36:29Z</time></trkpt><trkpt lat="33.840919010316476" lon="-5.8265551401773115"><ele>285.0</ele><time>2026-04-28T10:36:30Z</time></trkpt><trkpt lat="33.84074329696215" lon="-5.826847300608568"><ele>285.0</ele><time>2026-04-28T10:36:31Z</time></trkpt><trkpt lat="33.84056923329681" lon="-5.827138653404858"><ele>285.0</ele><time>2026-04-28T10:36:32Z</time></trkpt><trkpt lat="33.840397909065864" lon="-5.827431687926153"><ele>288.5</ele><time>2026-04-28T10:36:33Z</time></trkpt><trkpt lat="33.84022647314324" lon="-5.8277269768530156"><ele>292.0</ele><time>2026-04-28T10:36:34Z</time></trkpt><trkpt lat="33.840057695104974" lon="-5.828024777491497"><ele>286.0</ele><time>2026-04-28T10:36:35Z</time></trkpt><trkpt lat="33.83989066983993" lon="-5.828325903167163"><ele>280.0</ele><time>2026-04-28T10:36:36Z</time></trkpt><trkpt lat="33.83973213963529" lon="-5.828629608611999"><ele>280.0</ele><time>2026-04-28T10:36:37Z</time></trkpt><trkpt lat="33.839582697535704" lon="-5.828938334859695"><ele>280.0</ele><time>2026-04-28T10:36:38Z</time></trkpt><trkpt lat="33.8394405241006" lon="-5.82925040882341"><ele>276.0</ele><time>2026-04-28T10:36:39Z</time></trkpt><trkpt lat="33.83930782966402" lon="-5.829569726799025"><ele>272.0</ele><time>2026-04-28T10:36:40Z</time></trkpt><trkpt lat="33.83918257695441" lon="-5.82989242432033"><ele>270.0</ele><time>2026-04-28T10:36:41Z</time></trkpt><trkpt lat="33.8390636378575" lon="-5.830218955157748"><ele>268.0</ele><time>2026-04-28T10:36:42Z</time></trkpt><trkpt lat="33.83895110807626" lon="-5.830549690970354"><ele>268.0</ele><time>2026-04-28T10:36:43Z</time></trkpt><trkpt lat="33.83884344433173" lon="-5.830882658999723"><ele>268.0</ele><time>2026-04-28T10:36:44Z</time></trkpt><trkpt lat="33.83873937182558" lon="-5.831217799481327"><ele>269.5</ele><time>2026-04-28T10:36:45Z</time></trkpt><trkpt lat="33.83863912475527" lon="-5.8315563495346945"><ele>271.0</ele><time>2026-04-28T10:36:46Z</time></trkpt><trkpt lat="33.83854362225584" lon="-5.831897193269989"><ele>267.5</ele><time>2026-04-28T10:36:47Z</time></trkpt><trkpt lat="33.83844921506489" lon="-5.832238832924011"><ele>264.0</ele><time>2026-04-28T10:36:48Z</time></trkpt><trkpt lat="33.838356014936366" lon="-5.832577998664874"><ele>265.0</ele><time>2026-04-28T10:36:49Z</time></trkpt><trkpt lat="33.83826267665734" lon="-5.832918361057733"><ele>266.0</ele><time>2026-04-28T10:36:50Z</time></trkpt><trkpt lat="33.83816826571728" lon="-5.833258637026365"><ele>267.5</ele><time>2026-04-28T10:36:51Z</time></trkpt><trkpt lat="33.838069822182526" lon="-5.833595186981066"><ele>269.0</ele><time>2026-04-28T10:36:52Z</time></trkpt><trkpt lat="33.83796422947875" lon="-5.83393027483773"><ele>269.0</ele><time>2026-04-28T10:36:53Z</time></trkpt><trkpt lat="33.83785306311306" lon="-5.834259679693447"><ele>269.0</ele><time>2026-04-28T10:36:54Z</time></trkpt><trkpt lat="33.83773456480232" lon="-5.834588664707028"><ele>268.0</ele><time>2026-04-28T10:36:55Z</time></trkpt><trkpt lat="33.83761079477323" lon="-5.834913840855278"><ele>267.0</ele><time>2026-04-28T10:36:56Z</time></trkpt><trkpt lat="33.8374777185352" lon="-5.835234227110365"><ele>269.5</ele><time>2026-04-28T10:36:57Z</time></trkpt><trkpt lat="33.837337832567215" lon="-5.8355480991928985"><ele>272.0</ele><time>2026-04-28T10:36:58Z</time></trkpt><trkpt lat="33.83719062261385" lon="-5.835857271216777"><ele>275.0</ele><time>2026-04-28T10:36:59Z</time></trkpt><trkpt lat="33.837035453332604" lon="-5.836160556234963"><ele>278.0</ele><time>2026-04-28T10:37:00Z</time></trkpt><trkpt lat="33.83687405241933" lon="-5.8364581379149"><ele>275.5</ele><time>2026-04-28T10:37:01Z</time></trkpt><trkpt lat="33.83670656698713" lon="-5.836752579981792"><ele>273.0</ele><time>2026-04-28T10:37:02Z</time></trkpt><trkpt lat="33.83653402600485" lon="-5.837040448798681"><ele>273.0</ele><time>2026-04-28T10:37:03Z</time></trkpt><trkpt lat="33.836353454122545" lon="-5.837324197232928"><ele>273.0</ele><time>2026-04-28T10:37:04Z</time></trkpt><trkpt lat="33.83616656486962" lon="-5.837600167481268"><ele>273.5</ele><time>2026-04-28T10:37:05Z</time></trkpt><trkpt lat="33.83597247666041" lon="-5.837871229657962"><ele>274.0</ele><time>2026-04-28T10:37:06Z</time></trkpt><trkpt lat="33.835770493910985" lon="-5.838133453226458"><ele>273.0</ele><time>2026-04-28T10:37:07Z</time></trkpt><trkpt lat="33.83556540548975" lon="-5.838393147244625"><ele>272.0</ele><time>2026-04-28T10:37:08Z</time></trkpt><trkpt lat="33.835360070951225" lon="-5.838646856657384"><ele>272.0</ele><time>2026-04-28T10:37:09Z</time></trkpt><trkpt lat="33.835156678330925" lon="-5.83889369344635"><ele>272.0</ele><time>2026-04-28T10:37:10Z</time></trkpt><trkpt lat="33.83495581714281" lon="-5.839138351035491"><ele>271.5</ele><time>2026-04-28T10:37:11Z</time></trkpt><trkpt lat="33.83475811748895" lon="-5.839380440330351"><ele>271.0</ele><time>2026-04-28T10:37:12Z</time></trkpt><trkpt lat="33.834561737874864" lon="-5.839617672878802"><ele>271.0</ele><time>2026-04-28T10:37:13Z</time></trkpt><trkpt lat="33.834373135005436" lon="-5.839850719077586"><ele>271.0</ele><time>2026-04-28T10:37:14Z</time></trkpt><trkpt lat="33.83419677131264" lon="-5.840084457634492"><ele>269.5</ele><time>2026-04-28T10:37:15Z</time></trkpt><trkpt lat="33.8340256166637" lon="-5.840339246710398"><ele>268.0</ele><time>2026-04-28T10:37:16Z</time></trkpt><trkpt lat="33.83385873720097" lon="-5.840610072850202"><ele>268.0</ele><time>2026-04-28T10:37:17Z</time></trkpt><trkpt lat="33.83369694907255" lon="-5.840891885818759"><ele>268.0</ele><time>2026-04-28T10:37:18Z</time></trkpt><trkpt lat="33.833541636719225" lon="-5.841184141322481"><ele>268.5</ele><time>2026-04-28T10:37:19Z</time></trkpt><trkpt lat="33.833393823001174" lon="-5.841485352240286"><ele>269.0</ele><time>2026-04-28T10:37:20Z</time></trkpt><trkpt lat="33.83325364154639" lon="-5.841794921145285"><ele>271.0</ele><time>2026-04-28T10:37:21Z</time></trkpt><trkpt lat="33.83312283103414" lon="-5.842110832816041"><ele>273.0</ele><time>2026-04-28T10:37:22Z</time></trkpt><trkpt lat="33.83300259952075" lon="-5.84243542265312"><ele>277.0</ele><time>2026-04-28T10:37:23Z</time></trkpt><trkpt lat="33.832893150763994" lon="-5.8427669345574715"><ele>281.0</ele><time>2026-04-28T10:37:24Z</time></trkpt><trkpt lat="33.83279124126445" lon="-5.843104664024751"><ele>281.0</ele><time>2026-04-28T10:37:25Z</time></trkpt><trkpt lat="33.832697149069524" lon="-5.843446819131692"><ele>281.0</ele><time>2026-04-28T10:37:26Z</time></trkpt><trkpt lat="33.83261419661709" lon="-5.843791990276787"><ele>274.0</ele><time>2026-04-28T10:37:27Z</time></trkpt><trkpt lat="33.83254629457366" lon="-5.844141186130888"><ele>267.0</ele><time>2026-04-28T10:37:28Z</time></trkpt><trkpt lat="33.83249238705801" lon="-5.844492384517431"><ele>266.5</ele><time>2026-04-28T10:37:29Z</time></trkpt><trkpt lat="33.832450582288466" lon="-5.844848359889274"><ele>266.0</ele><time>2026-04-28T10:37:30Z</time></trkpt><trkpt lat="33.83241966409648" lon="-5.8452063897347095"><ele>264.5</ele><time>2026-04-28T10:37:31Z</time></trkpt><trkpt lat="33.83239513248845" lon="-5.845566405815333"><ele>263.0</ele><time>2026-04-28T10:37:32Z</time></trkpt><trkpt lat="33.83237710235704" lon="-5.845926975779437"><ele>258.5</ele><time>2026-04-28T10:37:33Z</time></trkpt><trkpt lat="33.832363392125266" lon="-5.846289031519571"><ele>254.0</ele><time>2026-04-28T10:37:34Z</time></trkpt><trkpt lat="33.83234874792636" lon="-5.84664927547915"><ele>250.5</ele><time>2026-04-28T10:37:35Z</time></trkpt><trkpt lat="33.832324896338655" lon="-5.847008719880378"><ele>247.0</ele><time>2026-04-28T10:37:36Z</time></trkpt><trkpt lat="33.83228920954127" lon="-5.847363377989803"><ele>246.0</ele><time>2026-04-28T10:37:37Z</time></trkpt><trkpt lat="33.832242372958305" lon="-5.847716571322423"><ele>245.0</ele><time>2026-04-28T10:37:38Z</time></trkpt><trkpt lat="33.832185119077465" lon="-5.848067094887774"><ele>245.0</ele><time>2026-04-28T10:37:39Z</time></trkpt><trkpt lat="33.83211806522976" lon="-5.848414842468683"><ele>245.0</ele><time>2026-04-28T10:37:40Z</time></trkpt><trkpt lat="33.83204002789953" lon="-5.848759056097832"><ele>248.5</ele><time>2026-04-28T10:37:41Z</time></trkpt><trkpt lat="33.83195342934781" lon="-5.849099996025742"><ele>252.0</ele><time>2026-04-28T10:37:42Z</time></trkpt><trkpt lat="33.831856752940034" lon="-5.849436962819447"><ele>246.5</ele><time>2026-04-28T10:37:42.999Z</time></trkpt><trkpt lat="33.83175202193747" lon="-5.849771970786906"><ele>241.0</ele><time>2026-04-28T10:37:43.999Z</time></trkpt><trkpt lat="33.83163907772785" lon="-5.850099716042907"><ele>243.5</ele><time>2026-04-28T10:37:44.999Z</time></trkpt><trkpt lat="33.83151828419258" lon="-5.850421098961474"><ele>246.0</ele><time>2026-04-28T10:37:45.999Z</time></trkpt><trkpt lat="33.83138849788195" lon="-5.850736724401391"><ele>245.0</ele><time>2026-04-28T10:37:46.999Z</time></trkpt><trkpt lat="33.831251624775646" lon="-5.851046579100997"><ele>244.0</ele><time>2026-04-28T10:37:47.999Z</time></trkpt><trkpt lat="33.83110662378668" lon="-5.851349667058636"><ele>243.5</ele><time>2026-04-28T10:37:48.999Z</time></trkpt><trkpt lat="33.83095037029563" lon="-5.851645787267766"><ele>243.0</ele><time>2026-04-28T10:37:49.999Z</time></trkpt><trkpt lat="33.83078398047738" lon="-5.851934638205444"><ele>245.5</ele><time>2026-04-28T10:37:50.999Z</time></trkpt><trkpt lat="33.83060815473973" lon="-5.852217804979157"><ele>248.0</ele><time>2026-04-28T10:37:51.999Z</time></trkpt><trkpt lat="33.830423106934894" lon="-5.8524956411207585"><ele>249.5</ele><time>2026-04-28T10:37:52.999Z</time></trkpt><trkpt lat="33.830232277261345" lon="-5.852770975918562"><ele>251.0</ele><time>2026-04-28T10:37:53.999Z</time></trkpt><trkpt lat="33.83003397754856" lon="-5.853039631719225"><ele>251.0</ele><time>2026-04-28T10:37:54.999Z</time></trkpt><trkpt lat="33.82982824168602" lon="-5.853300559757081"><ele>251.0</ele><time>2026-04-28T10:37:55.999Z</time></trkpt><trkpt lat="33.82961388369779" lon="-5.853550465708278"><ele>253.5</ele><time>2026-04-28T10:37:56.999Z</time></trkpt><trkpt lat="33.829391135846286" lon="-5.853789109088738"><ele>256.0</ele><time>2026-04-28T10:37:57.999Z</time></trkpt><trkpt lat="33.829160361835406" lon="-5.85401541177764"><ele>256.0</ele><time>2026-04-28T10:37:58.999Z</time></trkpt><trkpt lat="33.828922246795265" lon="-5.854234114742163"><ele>256.0</ele><time>2026-04-28T10:37:59.999Z</time></trkpt><trkpt lat="33.82867814098764" lon="-5.854445486460061"><ele>258.0</ele><time>2026-04-28T10:38:00.999Z</time></trkpt><trkpt lat="33.82842975973686" lon="-5.854647426682978"><ele>260.0</ele><time>2026-04-28T10:38:01.999Z</time></trkpt><trkpt lat="33.82817729867303" lon="-5.85484105138536"><ele>260.0</ele><time>2026-04-28T10:38:02.999Z</time></trkpt><trkpt lat="33.82791841655156" lon="-5.855024914144933"><ele>260.0</ele><time>2026-04-28T10:38:03.999Z</time></trkpt><trkpt lat="33.82765550403559" lon="-5.855196158879662"><ele>259.0</ele><time>2026-04-28T10:38:04.999Z</time></trkpt><trkpt lat="33.8273885515356" lon="-5.855355680932556"><ele>258.0</ele><time>2026-04-28T10:38:05.999Z</time></trkpt><trkpt lat="33.8271166722717" lon="-5.8554992915306014"><ele>258.0</ele><time>2026-04-28T10:38:06.999Z</time></trkpt><trkpt lat="33.82684151813358" lon="-5.855633454020645"><ele>258.0</ele><time>2026-04-28T10:38:07.999Z</time></trkpt><trkpt lat="33.82656277073684" lon="-5.855756957294569"><ele>254.5</ele><time>2026-04-28T10:38:08.999Z</time></trkpt><trkpt lat="33.826280534322" lon="-5.855868896594797"><ele>251.0</ele><time>2026-04-28T10:38:09.999Z</time></trkpt><trkpt lat="33.82599583655631" lon="-5.855968251316168"><ele>250.0</ele><time>2026-04-28T10:38:10.999Z</time></trkpt><trkpt lat="33.82570786316998" lon="-5.856054544662968"><ele>249.0</ele><time>2026-04-28T10:38:11.999Z</time></trkpt><trkpt lat="33.82541757379655" lon="-5.856128714932654"><ele>237.0</ele><time>2026-04-28T10:38:12.999Z</time></trkpt><trkpt lat="33.825125215278895" lon="-5.856192165887493"><ele>225.0</ele><time>2026-04-28T10:38:13.999Z</time></trkpt><trkpt lat="33.82483106483858" lon="-5.856246639535348"><ele>225.0</ele><time>2026-04-28T10:38:14.999Z</time></trkpt><trkpt lat="33.82453640224577" lon="-5.856297690681823"><ele>225.0</ele><time>2026-04-28T10:38:15.999Z</time></trkpt><trkpt lat="33.824240846141905" lon="-5.856349282075318"><ele>226.0</ele><time>2026-04-28T10:38:16.999Z</time></trkpt><trkpt lat="33.82394421107328" lon="-5.856400032922005"><ele>227.0</ele><time>2026-04-28T10:38:17.999Z</time></trkpt><trkpt lat="33.82364695534419" lon="-5.856451796760756"><ele>230.0</ele><time>2026-04-28T10:38:18.999Z</time></trkpt><trkpt lat="33.823351970155436" lon="-5.856499051769494"><ele>233.0</ele><time>2026-04-28T10:38:19.999Z</time></trkpt><trkpt lat="33.82305763453805" lon="-5.856544234211083"><ele>233.0</ele><time>2026-04-28T10:38:20.999Z</time></trkpt><trkpt lat="33.82276246032737" lon="-5.856589783815941"><ele>233.0</ele><time>2026-04-28T10:38:21.999Z</time></trkpt><trkpt lat="33.82246924694452" lon="-5.85663563117034"><ele>237.0</ele><time>2026-04-28T10:38:22.999Z</time></trkpt><trkpt lat="33.82217669958679" lon="-5.856682965298498"><ele>241.0</ele><time>2026-04-28T10:38:23.999Z</time></trkpt><trkpt lat="33.821886010294705" lon="-5.856729693035134"><ele>246.0</ele><time>2026-04-28T10:38:24.999Z</time></trkpt><trkpt lat="33.821598132117145" lon="-5.856776148191986"><ele>251.0</ele><time>2026-04-28T10:38:25.999Z</time></trkpt><trkpt lat="33.82131517340883" lon="-5.856820298788425"><ele>257.5</ele><time>2026-04-28T10:38:26.999Z</time></trkpt><trkpt lat="33.82103621438857" lon="-5.85686456578284"><ele>264.0</ele><time>2026-04-28T10:38:27.999Z</time></trkpt><trkpt lat="33.82075959132558" lon="-5.856907910006037"><ele>264.0</ele><time>2026-04-28T10:38:28.999Z</time></trkpt><trkpt lat="33.820486869152745" lon="-5.856950294946096"><ele>264.0</ele><time>2026-04-28T10:38:29.999Z</time></trkpt><trkpt lat="33.82021701367104" lon="-5.856992959628322"><ele>264.0</ele><time>2026-04-28T10:38:31Z</time></trkpt><trkpt lat="33.81994877867226" lon="-5.857033741156993"><ele>264.0</ele><time>2026-04-28T10:38:32Z</time></trkpt><trkpt lat="33.8196722547013" lon="-5.857074816761684"><ele>264.0</ele><time>2026-04-28T10:38:33Z</time></trkpt><trkpt lat="33.819388326628776" lon="-5.857117173491985"><ele>264.0</ele><time>2026-04-28T10:38:34Z</time></trkpt><trkpt lat="33.81910071745811" lon="-5.857160022607689"><ele>265.0</ele><time>2026-04-28T10:38:35Z</time></trkpt><trkpt lat="33.81881119997809" lon="-5.857206499213145"><ele>266.0</ele><time>2026-04-28T10:38:36Z</time></trkpt><trkpt lat="33.81852305701542" lon="-5.857259370688894"><ele>266.0</ele><time>2026-04-28T10:38:37Z</time></trkpt><trkpt lat="33.81823535910212" lon="-5.857320290560509"><ele>266.0</ele><time>2026-04-28T10:38:38Z</time></trkpt><trkpt lat="33.817949759193304" lon="-5.857393911864828"><ele>266.0</ele><time>2026-04-28T10:38:39Z</time></trkpt><trkpt lat="33.817666813459674" lon="-5.857481265196098"><ele>266.0</ele><time>2026-04-28T10:38:40Z</time></trkpt><trkpt lat="33.81738580769034" lon="-5.857582791627565"><ele>271.0</ele><time>2026-04-28T10:38:41Z</time></trkpt><trkpt lat="33.81710670884178" lon="-5.8576921404489495"><ele>276.0</ele><time>2026-04-28T10:38:42Z</time></trkpt><trkpt lat="33.816828636302226" lon="-5.8578161073319155"><ele>273.5</ele><time>2026-04-28T10:38:43Z</time></trkpt><trkpt lat="33.81655258180453" lon="-5.857950144663914"><ele>271.0</ele><time>2026-04-28T10:38:44Z</time></trkpt><trkpt lat="33.816282369977415" lon="-5.8580975870972685"><ele>271.0</ele><time>2026-04-28T10:38:45Z</time></trkpt><trkpt lat="33.81601579727715" lon="-5.858259138731655"><ele>271.0</ele><time>2026-04-28T10:38:46Z</time></trkpt><trkpt lat="33.81575380446913" lon="-5.8584343451577094"><ele>273.5</ele><time>2026-04-28T10:38:47Z</time></trkpt><trkpt lat="33.81549737099242" lon="-5.858619667373763"><ele>276.0</ele><time>2026-04-28T10:38:48Z</time></trkpt><trkpt lat="33.81524438443322" lon="-5.858813059056995"><ele>276.5</ele><time>2026-04-28T10:38:49Z</time></trkpt><trkpt lat="33.81499410344533" lon="-5.859014293849912"><ele>277.0</ele><time>2026-04-28T10:38:50Z</time></trkpt><trkpt lat="33.81474579868859" lon="-5.8592210789986545"><ele>277.5</ele><time>2026-04-28T10:38:51Z</time></trkpt><trkpt lat="33.81449732768274" lon="-5.85943054753391"><ele>278.0</ele><time>2026-04-28T10:38:52Z</time></trkpt><trkpt lat="33.8142480134106" lon="-5.859638733694489"><ele>278.0</ele><time>2026-04-28T10:38:53Z</time></trkpt><trkpt lat="33.81399913556165" lon="-5.859847598650759"><ele>278.0</ele><time>2026-04-28T10:38:54Z</time></trkpt><trkpt lat="33.8137509824524" lon="-5.860057467526941"><ele>280.0</ele><time>2026-04-28T10:38:55Z</time></trkpt><trkpt lat="33.81350286828759" lon="-5.860267295545369"><ele>282.0</ele><time>2026-04-28T10:38:56Z</time></trkpt><trkpt lat="33.81325453467813" lon="-5.860477190855091"><ele>282.0</ele><time>2026-04-28T10:38:57Z</time></trkpt><trkpt lat="33.8130069531918" lon="-5.860683385636233"><ele>282.0</ele><time>2026-04-28T10:38:58Z</time></trkpt><trkpt lat="33.81275973482241" lon="-5.86089083769451"><ele>280.0</ele><time>2026-04-28T10:38:59Z</time></trkpt><trkpt lat="33.812510291420864" lon="-5.8611007458929105"><ele>278.0</ele><time>2026-04-28T10:39:00Z</time></trkpt><trkpt lat="33.8122629372745" lon="-5.861308072481052"><ele>278.0</ele><time>2026-04-28T10:39:01Z</time></trkpt><trkpt lat="33.812016127358326" lon="-5.86151637762442"><ele>278.0</ele><time>2026-04-28T10:39:02Z</time></trkpt><trkpt lat="33.811768221730915" lon="-5.86172625472378"><ele>276.5</ele><time>2026-04-28T10:39:03Z</time></trkpt><trkpt lat="33.81152011624283" lon="-5.861934344637842"><ele>275.0</ele><time>2026-04-28T10:39:04Z</time></trkpt><trkpt lat="33.81127067127697" lon="-5.862139306445731"><ele>275.0</ele><time>2026-04-28T10:39:05Z</time></trkpt><trkpt lat="33.81102120269696" lon="-5.8623442956439025"><ele>275.0</ele><time>2026-04-28T10:39:06Z</time></trkpt><trkpt lat="33.810772196309294" lon="-5.8625506259695195"><ele>273.5</ele><time>2026-04-28T10:39:07Z</time></trkpt><trkpt lat="33.81052338865073" lon="-5.862755041017967"><ele>272.0</ele><time>2026-04-28T10:39:08Z</time></trkpt><trkpt lat="33.81027619287271" lon="-5.862960034769694"><ele>272.5</ele><time>2026-04-28T10:39:09Z</time></trkpt><trkpt lat="33.810029499742704" lon="-5.863168200983416"><ele>273.0</ele><time>2026-04-28T10:39:10Z</time></trkpt><trkpt lat="33.80978772295475" lon="-5.863373947862227"><ele>271.5</ele><time>2026-04-28T10:39:11Z</time></trkpt><trkpt lat="33.809546889525016" lon="-5.863579495666138"><ele>270.0</ele><time>2026-04-28T10:39:12Z</time></trkpt><trkpt lat="33.80930760119325" lon="-5.863792811486492"><ele>270.0</ele><time>2026-04-28T10:39:13Z</time></trkpt><trkpt lat="33.80907275461321" lon="-5.864013306933965"><ele>270.0</ele><time>2026-04-28T10:39:14Z</time></trkpt><trkpt lat="33.80884100023017" lon="-5.864239844652167"><ele>268.5</ele><time>2026-04-28T10:39:15Z</time></trkpt><trkpt lat="33.808614149709996" lon="-5.86447341170141"><ele>267.0</ele><time>2026-04-28T10:39:16Z</time></trkpt><trkpt lat="33.80839271264638" lon="-5.864714331138378"><ele>267.0</ele><time>2026-04-28T10:39:17Z</time></trkpt><trkpt lat="33.80817310684593" lon="-5.864961321559753"><ele>267.0</ele><time>2026-04-28T10:39:18Z</time></trkpt><trkpt lat="33.807956908212354" lon="-5.865210514588087"><ele>266.0</ele><time>2026-04-28T10:39:19Z</time></trkpt><trkpt lat="33.807742235729755" lon="-5.865461983798611"><ele>265.0</ele><time>2026-04-28T10:39:20Z</time></trkpt><trkpt lat="33.807528216061115" lon="-5.865719860487766"><ele>262.5</ele><time>2026-04-28T10:39:21Z</time></trkpt><trkpt lat="33.80732267709967" lon="-5.865983722264251"><ele>260.0</ele><time>2026-04-28T10:39:22Z</time></trkpt><trkpt lat="33.80712088144178" lon="-5.866252463709639"><ele>260.0</ele><time>2026-04-28T10:39:23Z</time></trkpt><trkpt lat="33.80692134282911" lon="-5.866524743849417"><ele>260.0</ele><time>2026-04-28T10:39:24Z</time></trkpt><trkpt lat="33.8067250615336" lon="-5.866799613389443"><ele>257.0</ele><time>2026-04-28T10:39:25Z</time></trkpt><trkpt lat="33.806531608094964" lon="-5.867078463776815"><ele>254.0</ele><time>2026-04-28T10:39:26Z</time></trkpt><trkpt lat="33.8063411759676" lon="-5.867359658374448"><ele>254.0</ele><time>2026-04-28T10:39:27Z</time></trkpt><trkpt lat="33.806155086616" lon="-5.867643902789932"><ele>254.0</ele><time>2026-04-28T10:39:28Z</time></trkpt><trkpt lat="33.80597361823299" lon="-5.867930838355297"><ele>253.5</ele><time>2026-04-28T10:39:29Z</time></trkpt><trkpt lat="33.80579725039976" lon="-5.868220748703815"><ele>253.0</ele><time>2026-04-28T10:39:30Z</time></trkpt><trkpt lat="33.80562521470323" lon="-5.8685156745084575"><ele>251.0</ele><time>2026-04-28T10:39:31Z</time></trkpt><trkpt lat="33.80545723764311" lon="-5.868814786417721"><ele>249.0</ele><time>2026-04-28T10:39:32Z</time></trkpt><trkpt lat="33.80529290716372" lon="-5.86911641756085"><ele>248.0</ele><time>2026-04-28T10:39:33Z</time></trkpt><trkpt lat="33.80513391414777" lon="-5.869420137292712"><ele>247.0</ele><time>2026-04-28T10:39:34Z</time></trkpt><trkpt lat="33.80497778484195" lon="-5.869726382901533"><ele>247.0</ele><time>2026-04-28T10:39:35Z</time></trkpt><trkpt lat="33.80482621667685" lon="-5.87003792210044"><ele>247.0</ele><time>2026-04-28T10:39:36Z</time></trkpt><trkpt lat="33.804680843758064" lon="-5.8703530177026915"><ele>246.5</ele><time>2026-04-28T10:39:37Z</time></trkpt><trkpt lat="33.804538109357715" lon="-5.870670858552349"><ele>246.0</ele><time>2026-04-28T10:39:38Z</time></trkpt><trkpt lat="33.80439949671318" lon="-5.870990041777615"><ele>244.5</ele><time>2026-04-28T10:39:39Z</time></trkpt><trkpt lat="33.80426469431408" lon="-5.871313080773124"><ele>243.0</ele><time>2026-04-28T10:39:40Z</time></trkpt><trkpt lat="33.80413309580207" lon="-5.871637728757216"><ele>243.0</ele><time>2026-04-28T10:39:41Z</time></trkpt><trkpt lat="33.804005787181836" lon="-5.871964990580287"><ele>243.0</ele><time>2026-04-28T10:39:42Z</time></trkpt><trkpt lat="33.803884160633665" lon="-5.87229374766101"><ele>240.5</ele><time>2026-04-28T10:39:43Z</time></trkpt><trkpt lat="33.80376334891483" lon="-5.872620322996861"><ele>238.0</ele><time>2026-04-28T10:39:44Z</time></trkpt><trkpt lat="33.803640936795205" lon="-5.872948041410588"><ele>238.0</ele><time>2026-04-28T10:39:45Z</time></trkpt><trkpt lat="33.80351801529906" lon="-5.873276838444688"><ele>238.0</ele><time>2026-04-28T10:39:46Z</time></trkpt><trkpt lat="33.80339359847709" lon="-5.8736046726631885"><ele>236.5</ele><time>2026-04-28T10:39:47Z</time></trkpt><trkpt lat="33.80326783417467" lon="-5.873931250040145"><ele>235.0</ele><time>2026-04-28T10:39:48Z</time></trkpt><trkpt lat="33.80314210323573" lon="-5.874257142552328"><ele>235.0</ele><time>2026-04-28T10:39:49Z</time></trkpt><trkpt lat="33.803017188916705" lon="-5.874584785594873"><ele>235.0</ele><time>2026-04-28T10:39:50Z</time></trkpt><trkpt lat="33.802890548321834" lon="-5.874909854130655"><ele>234.5</ele><time>2026-04-28T10:39:51Z</time></trkpt><trkpt lat="33.80276229753783" lon="-5.875233653911845"><ele>234.0</ele><time>2026-04-28T10:39:52Z</time></trkpt><trkpt lat="33.802630819673524" lon="-5.875553779052939"><ele>233.5</ele><time>2026-04-28T10:39:53Z</time></trkpt><trkpt lat="33.802493041422" lon="-5.875872057636726"><ele>233.0</ele><time>2026-04-28T10:39:54Z</time></trkpt><trkpt lat="33.80235168019566" lon="-5.876185553928584"><ele>231.0</ele><time>2026-04-28T10:39:55Z</time></trkpt><trkpt lat="33.80220175910721" lon="-5.876498151569958"><ele>229.0</ele><time>2026-04-28T10:39:56Z</time></trkpt><trkpt lat="33.802046221185435" lon="-5.876805538039426"><ele>228.0</ele><time>2026-04-28T10:39:57Z</time></trkpt><trkpt lat="33.80188633258519" lon="-5.877106337517731"><ele>227.0</ele><time>2026-04-28T10:39:58Z</time></trkpt><trkpt lat="33.801721203880504" lon="-5.877404253410156"><ele>226.5</ele><time>2026-04-28T10:39:59Z</time></trkpt><trkpt lat="33.80155335987864" lon="-5.877700906402405"><ele>226.0</ele><time>2026-04-28T10:40:00Z</time></trkpt><trkpt lat="33.801380544103125" lon="-5.877993638812662"><ele>226.0</ele><time>2026-04-28T10:40:01Z</time></trkpt><trkpt lat="33.801203477992985" lon="-5.878283089063324"><ele>226.0</ele><time>2026-04-28T10:40:02Z</time></trkpt><trkpt lat="33.80102319895637" lon="-5.878569957487851"><ele>225.5</ele><time>2026-04-28T10:40:03Z</time></trkpt><trkpt lat="33.80083869677065" lon="-5.8788502998357925"><ele>225.0</ele><time>2026-04-28T10:40:04Z</time></trkpt><trkpt lat="33.80065085935853" lon="-5.879129565535657"><ele>223.5</ele><time>2026-04-28T10:40:05Z</time></trkpt><trkpt lat="33.800458441156415" lon="-5.879406799526847"><ele>222.0</ele><time>2026-04-28T10:40:06Z</time></trkpt><trkpt lat="33.80026157511228" lon="-5.879681057843108"><ele>222.0</ele><time>2026-04-28T10:40:07Z</time></trkpt><trkpt lat="33.80006115997993" lon="-5.879950363647606"><ele>222.0</ele><time>2026-04-28T10:40:08Z</time></trkpt><trkpt lat="33.799856623085745" lon="-5.880212924558306"><ele>221.0</ele><time>2026-04-28T10:40:09Z</time></trkpt><trkpt lat="33.79964963828366" lon="-5.880472354087057"><ele>220.0</ele><time>2026-04-28T10:40:10Z</time></trkpt><trkpt lat="33.79944009846673" lon="-5.880731873254119"><ele>219.0</ele><time>2026-04-28T10:40:11Z</time></trkpt><trkpt lat="33.7992261657281" lon="-5.880985509079391"><ele>218.0</ele><time>2026-04-28T10:40:12Z</time></trkpt><trkpt lat="33.79900893995287" lon="-5.881234364819051"><ele>218.0</ele><time>2026-04-28T10:40:13Z</time></trkpt><trkpt lat="33.798788670460205" lon="-5.881479624254601"><ele>218.0</ele><time>2026-04-28T10:40:14Z</time></trkpt><trkpt lat="33.798564939754186" lon="-5.881718192100335"><ele>217.0</ele><time>2026-04-28T10:40:15Z</time></trkpt><trkpt lat="33.79833606948072" lon="-5.881952226534847"><ele>216.0</ele><time>2026-04-28T10:40:16Z</time></trkpt><trkpt lat="33.798105146436654" lon="-5.8821847598117225"><ele>216.0</ele><time>2026-04-28T10:40:17Z</time></trkpt><trkpt lat="33.797872992786594" lon="-5.88241171744971"><ele>216.0</ele><time>2026-04-28T10:40:18Z</time></trkpt><trkpt lat="33.7976387824632" lon="-5.882636644917481"><ele>215.0</ele><time>2026-04-28T10:40:19Z</time></trkpt><trkpt lat="33.79740359828852" lon="-5.882860358379543"><ele>214.0</ele><time>2026-04-28T10:40:20Z</time></trkpt><trkpt lat="33.7971690719271" lon="-5.883083978845955"><ele>214.0</ele><time>2026-04-28T10:40:20.999Z</time></trkpt><trkpt lat="33.79693382362031" lon="-5.883309651039644"><ele>214.0</ele><time>2026-04-28T10:40:21.999Z</time></trkpt><trkpt lat="33.79669898438967" lon="-5.883535466191468"><ele>213.0</ele><time>2026-04-28T10:40:22.999Z</time></trkpt><trkpt lat="33.796464504267725" lon="-5.8837647604623715"><ele>212.0</ele><time>2026-04-28T10:40:23.999Z</time></trkpt><trkpt lat="33.796231587612944" lon="-5.883995351863105"><ele>211.5</ele><time>2026-04-28T10:40:24.999Z</time></trkpt><trkpt lat="33.79600000757049" lon="-5.884230065435126"><ele>211.0</ele><time>2026-04-28T10:40:25.999Z</time></trkpt><trkpt lat="33.795770444357096" lon="-5.8844667347005295"><ele>212.5</ele><time>2026-04-28T10:40:26.999Z</time></trkpt><trkpt lat="33.79554540579411" lon="-5.884706222665787"><ele>214.0</ele><time>2026-04-28T10:40:27.999Z</time></trkpt><trkpt lat="33.795327036132946" lon="-5.884954691620334"><ele>213.5</ele><time>2026-04-28T10:40:28.999Z</time></trkpt><trkpt lat="33.79511059440227" lon="-5.885204564792044"><ele>213.0</ele><time>2026-04-28T10:40:29.999Z</time></trkpt><trkpt lat="33.79489560422746" lon="-5.885455704009656"><ele>213.0</ele><time>2026-04-28T10:40:30.999Z</time></trkpt><trkpt lat="33.794681857652996" lon="-5.885710858212957"><ele>213.0</ele><time>2026-04-28T10:40:31.999Z</time></trkpt><trkpt lat="33.79447040284879" lon="-5.885969639746485"><ele>209.5</ele><time>2026-04-28T10:40:32.999Z</time></trkpt><trkpt lat="33.79426591982563" lon="-5.886234468720667"><ele>206.0</ele><time>2026-04-28T10:40:33.999Z</time></trkpt><trkpt lat="33.794067334230434" lon="-5.886506873289765"><ele>204.5</ele><time>2026-04-28T10:40:34.999Z</time></trkpt><trkpt lat="33.79387287700782" lon="-5.8867831804768525"><ele>203.0</ele><time>2026-04-28T10:40:35.999Z</time></trkpt><trkpt lat="33.7936813661322" lon="-5.887062667897345"><ele>200.5</ele><time>2026-04-28T10:40:37.001Z</time></trkpt><trkpt lat="33.79349132890006" lon="-5.8873440166968605"><ele>198.0</ele><time>2026-04-28T10:40:38.001Z</time></trkpt><trkpt lat="33.79330423197389" lon="-5.887630462171903"><ele>197.0</ele><time>2026-04-28T10:40:39.001Z</time></trkpt><trkpt lat="33.79312041234903" lon="-5.8879165115269725"><ele>196.0</ele><time>2026-04-28T10:40:40.001Z</time></trkpt><trkpt lat="33.79293984188869" lon="-5.888206366169743"><ele>195.0</ele><time>2026-04-28T10:40:41.001Z</time></trkpt><trkpt lat="33.79276119217511" lon="-5.888497831717168"><ele>194.0</ele><time>2026-04-28T10:40:42.001Z</time></trkpt><trkpt lat="33.79258392570164" lon="-5.888790969910415"><ele>194.0</ele><time>2026-04-28T10:40:43.001Z</time></trkpt><trkpt lat="33.79240837291917" lon="-5.8890825395074025"><ele>194.0</ele><time>2026-04-28T10:40:44.001Z</time></trkpt><trkpt lat="33.792233486143594" lon="-5.889375902530467"><ele>193.0</ele><time>2026-04-28T10:40:45.001Z</time></trkpt><trkpt lat="33.79205997223441" lon="-5.889669291754539"><ele>192.0</ele><time>2026-04-28T10:40:46.001Z</time></trkpt><trkpt lat="33.79188701970731" lon="-5.889962318601235"><ele>190.0</ele><time>2026-04-28T10:40:47.001Z</time></trkpt><trkpt lat="33.79171379694999" lon="-5.890256253409965"><ele>188.0</ele><time>2026-04-28T10:40:48.001Z</time></trkpt><trkpt lat="33.79153961879515" lon="-5.89055133075894"><ele>188.0</ele><time>2026-04-28T10:40:49.001Z</time></trkpt><trkpt lat="33.7913651528384" lon="-5.890843138993446"><ele>188.0</ele><time>2026-04-28T10:40:50.001Z</time></trkpt><trkpt lat="33.791190856921176" lon="-5.891134103292754"><ele>187.0</ele><time>2026-04-28T10:40:51.001Z</time></trkpt><trkpt lat="33.791018545252655" lon="-5.891425794509183"><ele>186.0</ele><time>2026-04-28T10:40:52.001Z</time></trkpt><trkpt lat="33.79084807772051" lon="-5.8917180299431715"><ele>186.5</ele><time>2026-04-28T10:40:53.001Z</time></trkpt><trkpt lat="33.790675878238" lon="-5.892010647674665"><ele>187.0</ele><time>2026-04-28T10:40:54Z</time></trkpt><trkpt lat="33.79050336661913" lon="-5.892300895476354"><ele>186.0</ele><time>2026-04-28T10:40:55Z</time></trkpt><trkpt lat="33.790330246566185" lon="-5.8925913226137165"><ele>185.0</ele><time>2026-04-28T10:40:56Z</time></trkpt><trkpt lat="33.79015682488979" lon="-5.892881499950096"><ele>186.5</ele><time>2026-04-28T10:40:57Z</time></trkpt><trkpt lat="33.78998217244069" lon="-5.893171562739093"><ele>188.0</ele><time>2026-04-28T10:40:58Z</time></trkpt><trkpt lat="33.78980770561379" lon="-5.8934626285968905"><ele>188.0</ele><time>2026-04-28T10:40:59Z</time></trkpt><trkpt lat="33.78963679977127" lon="-5.893757006386832"><ele>188.0</ele><time>2026-04-28T10:41:00Z</time></trkpt><trkpt lat="33.78946786756357" lon="-5.894051205596898"><ele>187.5</ele><time>2026-04-28T10:41:01Z</time></trkpt><trkpt lat="33.789296704443366" lon="-5.894346006791501"><ele>187.0</ele><time>2026-04-28T10:41:02Z</time></trkpt><trkpt lat="33.78912373349842" lon="-5.894641878152068"><ele>187.0</ele><time>2026-04-28T10:41:03Z</time></trkpt><trkpt lat="33.78895078972947" lon="-5.894935750261882"><ele>187.0</ele><time>2026-04-28T10:41:04Z</time></trkpt><trkpt lat="33.78878006246032" lon="-5.895232364992395"><ele>187.0</ele><time>2026-04-28T10:41:05Z</time></trkpt><trkpt lat="33.78861148751647" lon="-5.895528868959311"><ele>187.0</ele><time>2026-04-28T10:41:06Z</time></trkpt><trkpt lat="33.788442131120796" lon="-5.895825553648636"><ele>187.0</ele><time>2026-04-28T10:41:07Z</time></trkpt><trkpt lat="33.78827314059836" lon="-5.896125208899397"><ele>187.0</ele><time>2026-04-28T10:41:08Z</time></trkpt><trkpt lat="33.78810623441269" lon="-5.896425354750015"><ele>187.0</ele><time>2026-04-28T10:41:09Z</time></trkpt><trkpt lat="33.78794222937297" lon="-5.896727535459237"><ele>187.0</ele><time>2026-04-28T10:41:10Z</time></trkpt><trkpt lat="33.78778172786454" lon="-5.897031937871148"><ele>187.0</ele><time>2026-04-28T10:41:11Z</time></trkpt><trkpt lat="33.78762405188929" lon="-5.897339789272893"><ele>187.0</ele><time>2026-04-28T10:41:12Z</time></trkpt><trkpt lat="33.78746845123857" lon="-5.89764770474128"><ele>185.5</ele><time>2026-04-28T10:41:13Z</time></trkpt><trkpt lat="33.787313198940915" lon="-5.897955831028502"><ele>184.0</ele><time>2026-04-28T10:41:14Z</time></trkpt><trkpt lat="33.78716011654149" lon="-5.898263789261163"><ele>184.0</ele><time>2026-04-28T10:41:15Z</time></trkpt><trkpt lat="33.787010894455484" lon="-5.89857371525671"><ele>184.0</ele><time>2026-04-28T10:41:16Z</time></trkpt><trkpt lat="33.786864516520495" lon="-5.8988888377313184"><ele>184.0</ele><time>2026-04-28T10:41:17Z</time></trkpt><trkpt lat="33.786722041254166" lon="-5.899206800307071"><ele>184.0</ele><time>2026-04-28T10:41:18Z</time></trkpt><trkpt lat="33.78658420173444" lon="-5.899527283340033"><ele>184.0</ele><time>2026-04-28T10:41:19Z</time></trkpt><trkpt lat="33.78645135022285" lon="-5.899850170589075"><ele>184.0</ele><time>2026-04-28T10:41:20Z</time></trkpt><trkpt lat="33.78632210943753" lon="-5.900176210225442"><ele>182.5</ele><time>2026-04-28T10:41:21Z</time></trkpt><trkpt lat="33.78619614404455" lon="-5.900505428177095"><ele>181.0</ele><time>2026-04-28T10:41:22Z</time></trkpt><trkpt lat="33.78607051622007" lon="-5.900833361920119"><ele>181.0</ele><time>2026-04-28T10:41:23Z</time></trkpt><trkpt lat="33.78594679094766" lon="-5.901161115060693"><ele>181.0</ele><time>2026-04-28T10:41:24Z</time></trkpt><trkpt lat="33.78582642889344" lon="-5.901490557658299"><ele>180.0</ele><time>2026-04-28T10:41:25Z</time></trkpt><trkpt lat="33.785708024078275" lon="-5.901820365622228"><ele>179.0</ele><time>2026-04-28T10:41:26Z</time></trkpt><trkpt lat="33.78559477974327" lon="-5.902153127617048"><ele>179.0</ele><time>2026-04-28T10:41:27Z</time></trkpt><trkpt lat="33.7854876270098" lon="-5.902488841081158"><ele>179.0</ele><time>2026-04-28T10:41:28Z</time></trkpt><trkpt lat="33.785385382773214" lon="-5.90282750154109"><ele>179.0</ele><time>2026-04-28T10:41:29Z</time></trkpt><trkpt lat="33.78528584542128" lon="-5.903166133571061"><ele>179.0</ele><time>2026-04-28T10:41:30Z</time></trkpt><trkpt lat="33.78518782570631" lon="-5.903503869894372"><ele>180.5</ele><time>2026-04-28T10:41:31Z</time></trkpt><trkpt lat="33.78508982554826" lon="-5.903843268463341"><ele>182.0</ele><time>2026-04-28T10:41:32Z</time></trkpt><trkpt lat="33.78499514934803" lon="-5.9041847445772575"><ele>181.5</ele><time>2026-04-28T10:41:33Z</time></trkpt><trkpt lat="33.78490586737184" lon="-5.904527400055714"><ele>181.0</ele><time>2026-04-28T10:41:34Z</time></trkpt><trkpt lat="33.78482080166369" lon="-5.904872343024703"><ele>180.5</ele><time>2026-04-28T10:41:35Z</time></trkpt><trkpt lat="33.78473880266364" lon="-5.905218564071285"><ele>180.0</ele><time>2026-04-28T10:41:36Z</time></trkpt><trkpt lat="33.784660172878986" lon="-5.90556473851097"><ele>180.0</ele><time>2026-04-28T10:41:37Z</time></trkpt><trkpt lat="33.7845856721604" lon="-5.9059129964245445"><ele>180.0</ele><time>2026-04-28T10:41:38Z</time></trkpt><trkpt lat="33.784515292742675" lon="-5.906263159583608"><ele>180.0</ele><time>2026-04-28T10:41:39Z</time></trkpt><trkpt lat="33.78444910430184" lon="-5.906612718074152"><ele>180.0</ele><time>2026-04-28T10:41:40Z</time></trkpt><trkpt lat="33.78438611525201" lon="-5.906964967039859"><ele>180.0</ele><time>2026-04-28T10:41:41Z</time></trkpt><trkpt lat="33.78432570326529" lon="-5.907318806939638"><ele>180.0</ele><time>2026-04-28T10:41:42Z</time></trkpt><trkpt lat="33.784266977804165" lon="-5.907672624321257"><ele>179.5</ele><time>2026-04-28T10:41:43Z</time></trkpt><trkpt lat="33.78421137944954" lon="-5.908025512637524"><ele>179.0</ele><time>2026-04-28T10:41:44Z</time></trkpt><trkpt lat="33.78415979315467" lon="-5.908380140830832"><ele>178.0</ele><time>2026-04-28T10:41:45Z</time></trkpt><trkpt lat="33.784113523343365" lon="-5.908736121112416"><ele>177.0</ele><time>2026-04-28T10:41:46Z</time></trkpt><trkpt lat="33.78407152608798" lon="-5.909093703573941"><ele>177.0</ele><time>2026-04-28T10:41:47Z</time></trkpt><trkpt lat="33.78403303904669" lon="-5.909449893925125"><ele>177.0</ele><time>2026-04-28T10:41:48Z</time></trkpt><trkpt lat="33.783996760909424" lon="-5.909808151218651"><ele>177.5</ele><time>2026-04-28T10:41:49Z</time></trkpt><trkpt lat="33.78396303565472" lon="-5.910165949916727"><ele>178.0</ele><time>2026-04-28T10:41:50Z</time></trkpt><trkpt lat="33.78393232870813" lon="-5.9105236779237"><ele>178.0</ele><time>2026-04-28T10:41:51Z</time></trkpt><trkpt lat="33.78390721721999" lon="-5.9108843490640695"><ele>178.0</ele><time>2026-04-28T10:41:52Z</time></trkpt><trkpt lat="33.78388481775753" lon="-5.911244732226145"><ele>177.5</ele><time>2026-04-28T10:41:53Z</time></trkpt><trkpt lat="33.78386719479918" lon="-5.911604183135044"><ele>177.0</ele><time>2026-04-28T10:41:54Z</time></trkpt><trkpt lat="33.78385320679357" lon="-5.911965553690854"><ele>177.0</ele><time>2026-04-28T10:41:55Z</time></trkpt><trkpt lat="33.78384354961919" lon="-5.912328105161046"><ele>177.0</ele><time>2026-04-28T10:41:56Z</time></trkpt><trkpt lat="33.78383710118589" lon="-5.912689198695321"><ele>177.5</ele><time>2026-04-28T10:41:57Z</time></trkpt><trkpt lat="33.78383182645033" lon="-5.913050401154086"><ele>178.0</ele><time>2026-04-28T10:41:58Z</time></trkpt><trkpt lat="33.783827491483144" lon="-5.913412266998935"><ele>178.0</ele><time>2026-04-28T10:41:59Z</time></trkpt><trkpt lat="33.783822268075824" lon="-5.913775207299093"><ele>178.0</ele><time>2026-04-28T10:42:00Z</time></trkpt><trkpt lat="33.78381603389434" lon="-5.914135180538294"><ele>178.5</ele><time>2026-04-28T10:42:01Z</time></trkpt><trkpt lat="33.783809021974726" lon="-5.914496424658125"><ele>179.0</ele><time>2026-04-28T10:42:02Z</time></trkpt><trkpt lat="33.78380239324404" lon="-5.914853365939185"><ele>178.5</ele><time>2026-04-28T10:42:03Z</time></trkpt><trkpt lat="33.783795138159775" lon="-5.91521244550533"><ele>178.0</ele><time>2026-04-28T10:42:04Z</time></trkpt><trkpt lat="33.783789351750706" lon="-5.915571139807444"><ele>176.5</ele><time>2026-04-28T10:42:05Z</time></trkpt><trkpt lat="33.78378327069602" lon="-5.915931854281443"><ele>175.0</ele><time>2026-04-28T10:42:06Z</time></trkpt><trkpt lat="33.78377587537926" lon="-5.916290767463869"><ele>175.0</ele><time>2026-04-28T10:42:07Z</time></trkpt><trkpt lat="33.78376943474198" lon="-5.9166499586394385"><ele>175.0</ele><time>2026-04-28T10:42:08Z</time></trkpt><trkpt lat="33.783764851999855" lon="-5.9170112011619835"><ele>174.5</ele><time>2026-04-28T10:42:09Z</time></trkpt><trkpt lat="33.78375908672032" lon="-5.917370434333894"><ele>174.0</ele><time>2026-04-28T10:42:10Z</time></trkpt><trkpt lat="33.78375006059621" lon="-5.917729651309676"><ele>174.0</ele><time>2026-04-28T10:42:11Z</time></trkpt><trkpt lat="33.78373581993826" lon="-5.918087247501367"><ele>174.0</ele><time>2026-04-28T10:42:12Z</time></trkpt><trkpt lat="33.78371745264785" lon="-5.91844529298313"><ele>174.0</ele><time>2026-04-28T10:42:13Z</time></trkpt><trkpt lat="33.78369412522279" lon="-5.918804429126852"><ele>174.0</ele><time>2026-04-28T10:42:14Z</time></trkpt><trkpt lat="33.78366595113517" lon="-5.9191607435096145"><ele>175.0</ele><time>2026-04-28T10:42:15Z</time></trkpt><trkpt lat="33.78363333310259" lon="-5.919517074166789"><ele>176.0</ele><time>2026-04-28T10:42:16Z</time></trkpt><trkpt lat="33.7836005451216" lon="-5.9198744981342575"><ele>177.0</ele><time>2026-04-28T10:42:17Z</time></trkpt><trkpt lat="33.783561585881294" lon="-5.920232653689954"><ele>178.0</ele><time>2026-04-28T10:42:18Z</time></trkpt><trkpt lat="33.78351920580582" lon="-5.92058999651077"><ele>178.5</ele><time>2026-04-28T10:42:19Z</time></trkpt><trkpt lat="33.783473433957425" lon="-5.920946225977945"><ele>179.0</ele><time>2026-04-28T10:42:20Z</time></trkpt><trkpt lat="33.78342437801369" lon="-5.921302054823618"><ele>179.0</ele><time>2026-04-28T10:42:21Z</time></trkpt><trkpt lat="33.78337392296517" lon="-5.9216579506604745"><ele>179.0</ele><time>2026-04-28T10:42:22Z</time></trkpt><trkpt lat="33.78332047182995" lon="-5.922012976476829"><ele>179.0</ele><time>2026-04-28T10:42:23Z</time></trkpt><trkpt lat="33.78326309191305" lon="-5.922368577101201"><ele>179.0</ele><time>2026-04-28T10:42:24Z</time></trkpt><trkpt lat="33.78319881306646" lon="-5.922720771014149"><ele>179.0</ele><time>2026-04-28T10:42:25Z</time></trkpt><trkpt lat="33.78313397498199" lon="-5.923073781165115"><ele>179.0</ele><time>2026-04-28T10:42:25.999Z</time></trkpt><trkpt lat="33.783065013287825" lon="-5.923424238529039"><ele>178.5</ele><time>2026-04-28T10:42:26.999Z</time></trkpt><trkpt lat="33.78299254845455" lon="-5.9237761181832385"><ele>178.0</ele><time>2026-04-28T10:42:27.999Z</time></trkpt><trkpt lat="33.78291737783081" lon="-5.92412427206877"><ele>178.5</ele><time>2026-04-28T10:42:28.999Z</time></trkpt><trkpt lat="33.78284015376231" lon="-5.924472301928"><ele>179.0</ele><time>2026-04-28T10:42:29.999Z</time></trkpt><trkpt lat="33.7827592464897" lon="-5.924820505562033"><ele>179.5</ele><time>2026-04-28T10:42:30.999Z</time></trkpt><trkpt lat="33.782675116990085" lon="-5.925166830997928"><ele>180.0</ele><time>2026-04-28T10:42:31.999Z</time></trkpt><trkpt lat="33.78258898903418" lon="-5.925511371919006"><ele>180.0</ele><time>2026-04-28T10:42:32.999Z</time></trkpt><trkpt lat="33.7824982140343" lon="-5.925853759677492"><ele>180.0</ele><time>2026-04-28T10:42:33.999Z</time></trkpt><trkpt lat="33.78240405948456" lon="-5.926194007623815"><ele>178.5</ele><time>2026-04-28T10:42:34.999Z</time></trkpt><trkpt lat="33.78230653284608" lon="-5.926533807695041"><ele>177.0</ele><time>2026-04-28T10:42:35.999Z</time></trkpt><trkpt lat="33.78220633954528" lon="-5.926872229842091"><ele>176.5</ele><time>2026-04-28T10:42:36.999Z</time></trkpt><trkpt lat="33.78210404003519" lon="-5.9272092585207545"><ele>176.0</ele><time>2026-04-28T10:42:37.999Z</time></trkpt><trkpt lat="33.78200033718206" lon="-5.927548008873696"><ele>176.0</ele><time>2026-04-28T10:42:38.999Z</time></trkpt><trkpt lat="33.7818959555395" lon="-5.92788610912072"><ele>176.0</ele><time>2026-04-28T10:42:39.999Z</time></trkpt><trkpt lat="33.78178948589465" lon="-5.928225242886597"><ele>177.0</ele><time>2026-04-28T10:42:40.999Z</time></trkpt><trkpt lat="33.781682980911384" lon="-5.928562520914321"><ele>178.0</ele><time>2026-04-28T10:42:41.999Z</time></trkpt><trkpt lat="33.78157811725017" lon="-5.92889933449657"><ele>177.5</ele><time>2026-04-28T10:42:43.001Z</time></trkpt><trkpt lat="33.7814729307039" lon="-5.929238315105604"><ele>177.0</ele><time>2026-04-28T10:42:44.001Z</time></trkpt><trkpt lat="33.78136766729433" lon="-5.929575640223917"><ele>177.0</ele><time>2026-04-28T10:42:45.001Z</time></trkpt><trkpt lat="33.781262673820514" lon="-5.929912785632124"><ele>177.0</ele><time>2026-04-28T10:42:46.001Z</time></trkpt><trkpt lat="33.78115997037906" lon="-5.93025111772504"><ele>177.0</ele><time>2026-04-28T10:42:47.001Z</time></trkpt><trkpt lat="33.7810593219109" lon="-5.930590611481454"><ele>177.0</ele><time>2026-04-28T10:42:48.001Z</time></trkpt><trkpt lat="33.78096068495506" lon="-5.930929683579782"><ele>175.5</ele><time>2026-04-28T10:42:49.001Z</time></trkpt><trkpt lat="33.78086514098263" lon="-5.931269714895426"><ele>174.0</ele><time>2026-04-28T10:42:50.001Z</time></trkpt><trkpt lat="33.7807742666013" lon="-5.931612142771894"><ele>172.5</ele><time>2026-04-28T10:42:51.001Z</time></trkpt><trkpt lat="33.78068662773724" lon="-5.93195626322556"><ele>171.0</ele><time>2026-04-28T10:42:52Z</time></trkpt><trkpt lat="33.78060129588628" lon="-5.932299635928014"><ele>170.0</ele><time>2026-04-28T10:42:53Z</time></trkpt><trkpt lat="33.78051965992469" lon="-5.93264421309854"><ele>169.0</ele><time>2026-04-28T10:42:54Z</time></trkpt><trkpt lat="33.78044229160837" lon="-5.932991030357573"><ele>169.0</ele><time>2026-04-28T10:42:55Z</time></trkpt><trkpt lat="33.78037086129566" lon="-5.933338940513057"><ele>169.0</ele><time>2026-04-28T10:42:56Z</time></trkpt><trkpt lat="33.78030539271146" lon="-5.933688040931117"><ele>169.5</ele><time>2026-04-28T10:42:57Z</time></trkpt><trkpt lat="33.78024404982067" lon="-5.934039464940448"><ele>170.0</ele><time>2026-04-28T10:42:58Z</time></trkpt><trkpt lat="33.780184380114505" lon="-5.934391096577652"><ele>171.0</ele><time>2026-04-28T10:42:59Z</time></trkpt><trkpt lat="33.78012750879344" lon="-5.934743940961045"><ele>172.0</ele><time>2026-04-28T10:43:00Z</time></trkpt><trkpt lat="33.78007448535322" lon="-5.935099194842315"><ele>173.0</ele><time>2026-04-28T10:43:01Z</time></trkpt><trkpt lat="33.78002531201782" lon="-5.935454088811299"><ele>174.0</ele><time>2026-04-28T10:43:02Z</time></trkpt><trkpt lat="33.77998033438547" lon="-5.935810114975123"><ele>173.5</ele><time>2026-04-28T10:43:03Z</time></trkpt><trkpt lat="33.779939615333525" lon="-5.936166672664658"><ele>173.0</ele><time>2026-04-28T10:43:04Z</time></trkpt><trkpt lat="33.779903905998886" lon="-5.936525869963249"><ele>171.5</ele><time>2026-04-28T10:43:05Z</time></trkpt><trkpt lat="33.77987172254352" lon="-5.93688375533263"><ele>170.0</ele><time>2026-04-28T10:43:06Z</time></trkpt><trkpt lat="33.779840791350125" lon="-5.9372375832194635"><ele>169.0</ele><time>2026-04-28T10:43:07Z</time></trkpt><trkpt lat="33.77981161537663" lon="-5.937592661944559"><ele>168.0</ele><time>2026-04-28T10:43:08Z</time></trkpt><trkpt lat="33.77978315951" lon="-5.937950709140702"><ele>168.0</ele><time>2026-04-28T10:43:09Z</time></trkpt><trkpt lat="33.7797611716861" lon="-5.938310438412711"><ele>168.0</ele><time>2026-04-28T10:43:10Z</time></trkpt><trkpt lat="33.779744099594424" lon="-5.938668215599961"><ele>167.5</ele><time>2026-04-28T10:43:11Z</time></trkpt><trkpt lat="33.77973023414075" lon="-5.939027114624108"><ele>167.0</ele><time>2026-04-28T10:43:12Z</time></trkpt><trkpt lat="33.779719403243554" lon="-5.9393864085859525"><ele>166.5</ele><time>2026-04-28T10:43:13Z</time></trkpt><trkpt lat="33.77971059050231" lon="-5.939744698584533"><ele>166.0</ele><time>2026-04-28T10:43:14Z</time></trkpt><trkpt lat="33.77970367661831" lon="-5.940104074285538"><ele>166.0</ele><time>2026-04-28T10:43:15Z</time></trkpt><trkpt lat="33.77969773976397" lon="-5.940462259581248"><ele>166.0</ele><time>2026-04-28T10:43:16Z</time></trkpt><trkpt lat="33.77969112105975" lon="-5.9408207943229865"><ele>166.0</ele><time>2026-04-28T10:43:17Z</time></trkpt><trkpt lat="33.77968304941904" lon="-5.941180103770974"><ele>166.0</ele><time>2026-04-28T10:43:18Z</time></trkpt><trkpt lat="33.779674593225366" lon="-5.941539479500447"><ele>165.5</ele><time>2026-04-28T10:43:19Z</time></trkpt><trkpt lat="33.779665731227766" lon="-5.941899153926417"><ele>165.0</ele><time>2026-04-28T10:43:20Z</time></trkpt><trkpt lat="33.779657726248075" lon="-5.942257094892765"><ele>165.0</ele><time>2026-04-28T10:43:21Z</time></trkpt><trkpt lat="33.77965047738477" lon="-5.942615312987531"><ele>165.0</ele><time>2026-04-28T10:43:22Z</time></trkpt><trkpt lat="33.779644195264794" lon="-5.942973771036624"><ele>165.0</ele><time>2026-04-28T10:43:23Z</time></trkpt><trkpt lat="33.77963989291138" lon="-5.943332744840079"><ele>165.0</ele><time>2026-04-28T10:43:24Z</time></trkpt><trkpt lat="33.77963644264134" lon="-5.94369162327832"><ele>165.0</ele><time>2026-04-28T10:43:25Z</time></trkpt><trkpt lat="33.779631120614155" lon="-5.944048463954079"><ele>165.0</ele><time>2026-04-28T10:43:26Z</time></trkpt><trkpt lat="33.77962611391547" lon="-5.944407570979174"><ele>165.0</ele><time>2026-04-28T10:43:27Z</time></trkpt><trkpt lat="33.77962166930707" lon="-5.9447662441796"><ele>165.0</ele><time>2026-04-28T10:43:28Z</time></trkpt><trkpt lat="33.779616216013764" lon="-5.945123884382918"><ele>165.5</ele><time>2026-04-28T10:43:29Z</time></trkpt><trkpt lat="33.77960910437439" lon="-5.945482865210696"><ele>166.0</ele><time>2026-04-28T10:43:30Z</time></trkpt><trkpt lat="33.779602295297856" lon="-5.945842521342804"><ele>165.5</ele><time>2026-04-28T10:43:31Z</time></trkpt><trkpt lat="33.77959638498187" lon="-5.946202664382157"><ele>165.0</ele><time>2026-04-28T10:43:32Z</time></trkpt><trkpt lat="33.77959208147639" lon="-5.946563967249399"><ele>164.5</ele><time>2026-04-28T10:43:33Z</time></trkpt><trkpt lat="33.7795879332809" lon="-5.94692435230776"><ele>164.0</ele><time>2026-04-28T10:43:34Z</time></trkpt><trkpt lat="33.77958272373256" lon="-5.94728705812185"><ele>164.5</ele><time>2026-04-28T10:43:35Z</time></trkpt><trkpt lat="33.779575918096825" lon="-5.9476464904530495"><ele>165.0</ele><time>2026-04-28T10:43:36Z</time></trkpt><trkpt lat="33.7795683578977" lon="-5.948004581729134"><ele>165.0</ele><time>2026-04-28T10:43:37Z</time></trkpt><trkpt lat="33.77956077209233" lon="-5.948362403336551"><ele>165.0</ele><time>2026-04-28T10:43:38Z</time></trkpt><trkpt lat="33.77955381091825" lon="-5.948720079518463"><ele>165.0</ele><time>2026-04-28T10:43:39Z</time></trkpt><trkpt lat="33.779546039808096" lon="-5.949077524061509"><ele>165.0</ele><time>2026-04-28T10:43:40Z</time></trkpt><trkpt lat="33.77953708035342" lon="-5.949435011760127"><ele>165.5</ele><time>2026-04-28T10:43:41Z</time></trkpt><trkpt lat="33.77952848360424" lon="-5.949792083685944"><ele>166.0</ele><time>2026-04-28T10:43:42Z</time></trkpt><trkpt lat="33.77951998184274" lon="-5.950149556384503"><ele>166.5</ele><time>2026-04-28T10:43:43Z</time></trkpt><trkpt lat="33.77951233655153" lon="-5.950506887014196"><ele>167.0</ele><time>2026-04-28T10:43:44Z</time></trkpt><trkpt lat="33.77950447782136" lon="-5.950863410143342"><ele>167.5</ele><time>2026-04-28T10:43:45Z</time></trkpt><trkpt lat="33.77949545412832" lon="-5.951222697635829"><ele>168.0</ele><time>2026-04-28T10:43:46Z</time></trkpt><trkpt lat="33.779485012399505" lon="-5.95157924951452"><ele>168.0</ele><time>2026-04-28T10:43:47Z</time></trkpt><trkpt lat="33.779475443003385" lon="-5.951937495766231"><ele>168.0</ele><time>2026-04-28T10:43:48Z</time></trkpt><trkpt lat="33.779468008563455" lon="-5.952295616413313"><ele>170.0</ele><time>2026-04-28T10:43:49Z</time></trkpt><trkpt lat="33.779459692267274" lon="-5.952653680743379"><ele>172.0</ele><time>2026-04-28T10:43:50Z</time></trkpt><trkpt lat="33.77945061338341" lon="-5.953010972304811"><ele>172.0</ele><time>2026-04-28T10:43:51Z</time></trkpt><trkpt lat="33.77944121750424" lon="-5.953369312426287"><ele>172.0</ele><time>2026-04-28T10:43:52Z</time></trkpt><trkpt lat="33.77943395522749" lon="-5.953726999309669"><ele>177.0</ele><time>2026-04-28T10:43:53Z</time></trkpt><trkpt lat="33.779426779521025" lon="-5.954084833070576"><ele>182.0</ele><time>2026-04-28T10:43:54Z</time></trkpt><trkpt lat="33.77941905624381" lon="-5.954444020300993"><ele>186.0</ele><time>2026-04-28T10:43:55Z</time></trkpt><trkpt lat="33.77941125495465" lon="-5.954802142408388"><ele>190.0</ele><time>2026-04-28T10:43:56Z</time></trkpt><trkpt lat="33.779402863344934" lon="-5.955161091584817"><ele>191.5</ele><time>2026-04-28T10:43:57Z</time></trkpt><trkpt lat="33.77939469095359" lon="-5.95551932930536"><ele>193.0</ele><time>2026-04-28T10:43:58Z</time></trkpt><trkpt lat="33.77938703316623" lon="-5.95587634753182"><ele>194.0</ele><time>2026-04-28T10:43:59Z</time></trkpt><trkpt lat="33.77938016436548" lon="-5.956233352815661"><ele>195.0</ele><time>2026-04-28T10:44:00Z</time></trkpt><trkpt lat="33.77937532067355" lon="-5.9565907994307485"><ele>196.5</ele><time>2026-04-28T10:44:01Z</time></trkpt><trkpt lat="33.77937660310236" lon="-5.956947574457906"><ele>198.0</ele><time>2026-04-28T10:44:02Z</time></trkpt><trkpt lat="33.77938214693624" lon="-5.957302281221129"><ele>200.0</ele><time>2026-04-28T10:44:03Z</time></trkpt><trkpt lat="33.779395332778364" lon="-5.957657790944404"><ele>202.0</ele><time>2026-04-28T10:44:04Z</time></trkpt><trkpt lat="33.77941606458015" lon="-5.958011625284945"><ele>202.0</ele><time>2026-04-28T10:44:05Z</time></trkpt><trkpt lat="33.77944517767224" lon="-5.958365174691733"><ele>202.0</ele><time>2026-04-28T10:44:06Z</time></trkpt><trkpt lat="33.779480868123265" lon="-5.958719990355416"><ele>205.0</ele><time>2026-04-28T10:44:07Z</time></trkpt><trkpt lat="33.77952298870771" lon="-5.959070831938897"><ele>208.0</ele><time>2026-04-28T10:44:08Z</time></trkpt><trkpt lat="33.77957135897981" lon="-5.959413289478042"><ele>209.5</ele><time>2026-04-28T10:44:09Z</time></trkpt><trkpt lat="33.779624204672025" lon="-5.9597494458749996"><ele>211.0</ele><time>2026-04-28T10:44:10Z</time></trkpt><trkpt lat="33.77968253876709" lon="-5.960075299352223"><ele>212.5</ele><time>2026-04-28T10:44:11Z</time></trkpt><trkpt lat="33.779747640495195" lon="-5.9603952540943785"><ele>214.0</ele><time>2026-04-28T10:44:11.999Z</time></trkpt><trkpt lat="33.77981773322663" lon="-5.960708812283479"><ele>214.5</ele><time>2026-04-28T10:44:12.999Z</time></trkpt><trkpt lat="33.77989271825617" lon="-5.961016870185897"><ele>215.0</ele><time>2026-04-28T10:44:13.999Z</time></trkpt><trkpt lat="33.77997520261968" lon="-5.961321757124311"><ele>215.0</ele><time>2026-04-28T10:44:14.999Z</time></trkpt><trkpt lat="33.78006413667911" lon="-5.961623304611609"><ele>215.0</ele><time>2026-04-28T10:44:15.999Z</time></trkpt><trkpt lat="33.78015936195006" lon="-5.961924725845465"><ele>217.5</ele><time>2026-04-28T10:44:16.999Z</time></trkpt><trkpt lat="33.780260007053954" lon="-5.962222942390321"><ele>220.0</ele><time>2026-04-28T10:44:17.999Z</time></trkpt><trkpt lat="33.78036643612913" lon="-5.962516774448987"><ele>220.5</ele><time>2026-04-28T10:44:18.999Z</time></trkpt><trkpt lat="33.780477602835674" lon="-5.962809252183272"><ele>221.0</ele><time>2026-04-28T10:44:19.999Z</time></trkpt><trkpt lat="33.78059282555937" lon="-5.96310007480666"><ele>223.5</ele><time>2026-04-28T10:44:20.999Z</time></trkpt><trkpt lat="33.78071171264565" lon="-5.963389811685569"><ele>226.0</ele><time>2026-04-28T10:44:21.999Z</time></trkpt><trkpt lat="33.78083341563378" lon="-5.963677698750947"><ele>226.0</ele><time>2026-04-28T10:44:22.999Z</time></trkpt><trkpt lat="33.780956426643954" lon="-5.9639638597343225"><ele>226.0</ele><time>2026-04-28T10:44:23.999Z</time></trkpt><trkpt lat="33.781078407269106" lon="-5.964247570984479"><ele>228.5</ele><time>2026-04-28T10:44:24.999Z</time></trkpt><trkpt lat="33.7812014540803" lon="-5.964531694286374"><ele>231.0</ele><time>2026-04-28T10:44:25.999Z</time></trkpt><trkpt lat="33.78132320578807" lon="-5.964812222853043"><ele>230.0</ele><time>2026-04-28T10:44:26.999Z</time></trkpt><trkpt lat="33.7814450656633" lon="-5.965091933052531"><ele>229.0</ele><time>2026-04-28T10:44:27.999Z</time></trkpt><trkpt lat="33.78156988593311" lon="-5.965375556034702"><ele>229.0</ele><time>2026-04-28T10:44:28.999Z</time></trkpt><trkpt lat="33.78169863862015" lon="-5.96567112813281"><ele>229.0</ele><time>2026-04-28T10:44:29.999Z</time></trkpt><trkpt lat="33.781828320667515" lon="-5.965971578454417"><ele>226.5</ele><time>2026-04-28T10:44:30.999Z</time></trkpt><trkpt lat="33.78195877912146" lon="-5.966275778924238"><ele>224.0</ele><time>2026-04-28T10:44:31.999Z</time></trkpt><trkpt lat="33.7820909866693" lon="-5.96658275499307"><ele>224.0</ele><time>2026-04-28T10:44:32.999Z</time></trkpt><trkpt lat="33.78221831701838" lon="-5.966879258740159"><ele>224.0</ele><time>2026-04-28T10:44:33.999Z</time></trkpt><trkpt lat="33.7823413571783" lon="-5.967169191719083"><ele>224.0</ele><time>2026-04-28T10:44:34.999Z</time></trkpt><trkpt lat="33.782466525879165" lon="-5.9674573423337165"><ele>224.0</ele><time>2026-04-28T10:44:35.999Z</time></trkpt><trkpt lat="33.782589911289946" lon="-5.967741474330924"><ele>226.5</ele><time>2026-04-28T10:44:36.999Z</time></trkpt><trkpt lat="33.782712562365276" lon="-5.968022518643636"><ele>229.0</ele><time>2026-04-28T10:44:37.999Z</time></trkpt><trkpt lat="33.78283262815922" lon="-5.968300887867311"><ele>231.0</ele><time>2026-04-28T10:44:38.999Z</time></trkpt><trkpt lat="33.78295059742279" lon="-5.9685791606476695"><ele>233.0</ele><time>2026-04-28T10:44:39.999Z</time></trkpt><trkpt lat="33.78306919176304" lon="-5.968856409554463"><ele>233.0</ele><time>2026-04-28T10:44:40.999Z</time></trkpt><trkpt lat="33.78318810755604" lon="-5.969134405407614"><ele>233.0</ele><time>2026-04-28T10:44:41.999Z</time></trkpt><trkpt lat="33.78330735630025" lon="-5.969412614264044"><ele>232.5</ele><time>2026-04-28T10:44:42.999Z</time></trkpt><trkpt lat="33.783428510297945" lon="-5.969692926153576"><ele>232.0</ele><time>2026-04-28T10:44:43.999Z</time></trkpt><trkpt lat="33.78355026498095" lon="-5.969974414123659"><ele>238.0</ele><time>2026-04-28T10:44:44.999Z</time></trkpt><trkpt lat="33.78367192250757" lon="-5.9702567029969416"><ele>244.0</ele><time>2026-04-28T10:44:45.999Z</time></trkpt><trkpt lat="33.78379384655206" lon="-5.970540635466436"><ele>244.0</ele><time>2026-04-28T10:44:46.999Z</time></trkpt><trkpt lat="33.78391706232527" lon="-5.970825409127251"><ele>244.0</ele><time>2026-04-28T10:44:48Z</time></trkpt><trkpt lat="33.78404306694721" lon="-5.971109857482697"><ele>243.0</ele><time>2026-04-28T10:44:49Z</time></trkpt><trkpt lat="33.784168942329835" lon="-5.971395196880322"><ele>242.0</ele><time>2026-04-28T10:44:50Z</time></trkpt><trkpt lat="33.78429970933742" lon="-5.971686131607575"><ele>247.0</ele><time>2026-04-28T10:44:51Z</time></trkpt><trkpt lat="33.78443658991802" lon="-5.971985212035583"><ele>252.0</ele><time>2026-04-28T10:44:52Z</time></trkpt><trkpt lat="33.784578435154685" lon="-5.972286285651187"><ele>253.0</ele><time>2026-04-28T10:44:53Z</time></trkpt><trkpt lat="33.78472625295078" lon="-5.972587767413665"><ele>254.0</ele><time>2026-04-28T10:44:54Z</time></trkpt><trkpt lat="33.78487910017716" lon="-5.972887783647817"><ele>254.0</ele><time>2026-04-28T10:44:55Z</time></trkpt><trkpt lat="33.7850372249949" lon="-5.973186694594405"><ele>254.0</ele><time>2026-04-28T10:44:56Z</time></trkpt><trkpt lat="33.785200651548955" lon="-5.973483294185712"><ele>253.0</ele><time>2026-04-28T10:44:57Z</time></trkpt><trkpt lat="33.78537062094583" lon="-5.973777000889704"><ele>252.0</ele><time>2026-04-28T10:44:58Z</time></trkpt><trkpt lat="33.78554558276665" lon="-5.974066997198591"><ele>257.0</ele><time>2026-04-28T10:44:59Z</time></trkpt><trkpt lat="33.785726430625125" lon="-5.974352427279405"><ele>262.0</ele><time>2026-04-28T10:45:00Z</time></trkpt><trkpt lat="33.7859105585121" lon="-5.974636111648688"><ele>259.0</ele><time>2026-04-28T10:45:01Z</time></trkpt><trkpt lat="33.78609743496931" lon="-5.974917790022817"><ele>256.0</ele><time>2026-04-28T10:45:02Z</time></trkpt><trkpt lat="33.78628726889715" lon="-5.975196445882014"><ele>263.0</ele><time>2026-04-28T10:45:03Z</time></trkpt><trkpt lat="33.7864836029848" lon="-5.97546922948653"><ele>270.0</ele><time>2026-04-28T10:45:04Z</time></trkpt><trkpt lat="33.786684495890846" lon="-5.975733466070609"><ele>276.0</ele><time>2026-04-28T10:45:05Z</time></trkpt><trkpt lat="33.78688863745025" lon="-5.975992808276266"><ele>282.0</ele><time>2026-04-28T10:45:06Z</time></trkpt><trkpt lat="33.78709650721975" lon="-5.976249080711066"><ele>282.0</ele><time>2026-04-28T10:45:07Z</time></trkpt><trkpt lat="33.78730765576991" lon="-5.976502059214258"><ele>282.0</ele><time>2026-04-28T10:45:08Z</time></trkpt><trkpt lat="33.78752219090772" lon="-5.976751650517412"><ele>282.5</ele><time>2026-04-28T10:45:09Z</time></trkpt><trkpt lat="33.787740978896835" lon="-5.976994528366636"><ele>283.0</ele><time>2026-04-28T10:45:10Z</time></trkpt><trkpt lat="33.787962205942016" lon="-5.977228886272802"><ele>283.0</ele><time>2026-04-28T10:45:11Z</time></trkpt><trkpt lat="33.788188425282684" lon="-5.977460325262313"><ele>283.0</ele><time>2026-04-28T10:45:12Z</time></trkpt><trkpt lat="33.788417212997444" lon="-5.977688586959395"><ele>283.5</ele><time>2026-04-28T10:45:13Z</time></trkpt><trkpt lat="33.78864802493186" lon="-5.97791703913312"><ele>284.0</ele><time>2026-04-28T10:45:14Z</time></trkpt><trkpt lat="33.788878934127354" lon="-5.97814476309668"><ele>287.5</ele><time>2026-04-28T10:45:15Z</time></trkpt><trkpt lat="33.78910919964566" lon="-5.978373313294737"><ele>291.0</ele><time>2026-04-28T10:45:16Z</time></trkpt><trkpt lat="33.78933671440163" lon="-5.978604731426256"><ele>291.0</ele><time>2026-04-28T10:45:17Z</time></trkpt><trkpt lat="33.78955818271756" lon="-5.97884243159634"><ele>291.0</ele><time>2026-04-28T10:45:18Z</time></trkpt><trkpt lat="33.78977208810922" lon="-5.979090803404931"><ele>298.5</ele><time>2026-04-28T10:45:19Z</time></trkpt><trkpt lat="33.78997459400489" lon="-5.979347399260553"><ele>306.0</ele><time>2026-04-28T10:45:20Z</time></trkpt><trkpt lat="33.790166894719235" lon="-5.97961610187515"><ele>305.0</ele><time>2026-04-28T10:45:21Z</time></trkpt><trkpt lat="33.79035103627974" lon="-5.979891475552607"><ele>304.0</ele><time>2026-04-28T10:45:22Z</time></trkpt><trkpt lat="33.790525723830086" lon="-5.98017613170094"><ele>306.5</ele><time>2026-04-28T10:45:23Z</time></trkpt><trkpt lat="33.79068816412135" lon="-5.980473340808859"><ele>309.0</ele><time>2026-04-28T10:45:24Z</time></trkpt><trkpt lat="33.790840012844555" lon="-5.98077837474768"><ele>308.5</ele><time>2026-04-28T10:45:25Z</time></trkpt><trkpt lat="33.79098198991033" lon="-5.98109217100402"><ele>308.0</ele><time>2026-04-28T10:45:26Z</time></trkpt><trkpt lat="33.79111132411044" lon="-5.981414358691156"><ele>311.5</ele><time>2026-04-28T10:45:27Z</time></trkpt><trkpt lat="33.791227914130125" lon="-5.981744003424212"><ele>315.0</ele><time>2026-04-28T10:45:28Z</time></trkpt><trkpt lat="33.79133097829878" lon="-5.982082029007695"><ele>315.0</ele><time>2026-04-28T10:45:29Z</time></trkpt><trkpt lat="33.79142150516661" lon="-5.98242281170837"><ele>315.0</ele><time>2026-04-28T10:45:30Z</time></trkpt><trkpt lat="33.79149954315851" lon="-5.9827689899257965"><ele>318.0</ele><time>2026-04-28T10:45:31Z</time></trkpt><trkpt lat="33.7915637773307" lon="-5.983116249631241"><ele>321.0</ele><time>2026-04-28T10:45:32Z</time></trkpt><trkpt lat="33.79161324130194" lon="-5.98346798777057"><ele>322.0</ele><time>2026-04-28T10:45:33Z</time></trkpt><trkpt lat="33.791644066340574" lon="-5.98382232369939"><ele>323.0</ele><time>2026-04-28T10:45:34Z</time></trkpt><trkpt lat="33.7916591157471" lon="-5.984178438296581"><ele>325.0</ele><time>2026-04-28T10:45:35Z</time></trkpt><trkpt lat="33.79166220587884" lon="-5.984535318946465"><ele>327.0</ele><time>2026-04-28T10:45:36Z</time></trkpt><trkpt lat="33.79165238454054" lon="-5.984893713315341"><ele>327.5</ele><time>2026-04-28T10:45:37Z</time></trkpt><trkpt lat="33.79162977264998" lon="-5.985251080626314"><ele>328.0</ele><time>2026-04-28T10:45:38Z</time></trkpt><trkpt lat="33.79159375625214" lon="-5.985607727583477"><ele>326.5</ele><time>2026-04-28T10:45:39Z</time></trkpt><trkpt lat="33.79154179154201" lon="-5.985959058842221"><ele>325.0</ele><time>2026-04-28T10:45:40Z</time></trkpt><trkpt lat="33.79147305858897" lon="-5.986304782889304"><ele>325.0</ele><time>2026-04-28T10:45:41Z</time></trkpt><trkpt lat="33.791396354720035" lon="-5.9866493138697"><ele>325.0</ele><time>2026-04-28T10:45:42Z</time></trkpt><trkpt lat="33.79131694740744" lon="-5.9869965643369225"><ele>324.0</ele><time>2026-04-28T10:45:43Z</time></trkpt><trkpt lat="33.79123575929787" lon="-5.987345101807432"><ele>323.0</ele><time>2026-04-28T10:45:44Z</time></trkpt><trkpt lat="33.79115606522191" lon="-5.987695117915282"><ele>328.0</ele><time>2026-04-28T10:45:45Z</time></trkpt><trkpt lat="33.79107889874833" lon="-5.988046007577654"><ele>333.0</ele><time>2026-04-28T10:45:46Z</time></trkpt><trkpt lat="33.79100184096558" lon="-5.98839528847569"><ele>342.5</ele><time>2026-04-28T10:45:47Z</time></trkpt><trkpt lat="33.79092432283073" lon="-5.988746133920322"><ele>352.0</ele><time>2026-04-28T10:45:48Z</time></trkpt><trkpt lat="33.79084604752213" lon="-5.989095699133281"><ele>350.0</ele><time>2026-04-28T10:45:49Z</time></trkpt><trkpt lat="33.79076492233664" lon="-5.989443462917822"><ele>348.0</ele><time>2026-04-28T10:45:50Z</time></trkpt><trkpt lat="33.790690394042024" lon="-5.989794452773986"><ele>346.0</ele><time>2026-04-28T10:45:51Z</time></trkpt><trkpt lat="33.79062713818315" lon="-5.990145427748538"><ele>344.0</ele><time>2026-04-28T10:45:52Z</time></trkpt><trkpt lat="33.79057379616245" lon="-5.9904985508940145"><ele>344.0</ele><time>2026-04-28T10:45:53Z</time></trkpt><trkpt lat="33.790531857463726" lon="-5.990853465929818"><ele>344.0</ele><time>2026-04-28T10:45:54Z</time></trkpt><trkpt lat="33.79050556986267" lon="-5.991209779538905"><ele>344.0</ele><time>2026-04-28T10:45:55Z</time></trkpt><trkpt lat="33.79049572643792" lon="-5.9915663074750665"><ele>344.0</ele><time>2026-04-28T10:45:55.999Z</time></trkpt><trkpt lat="33.7905046886192" lon="-5.9919223199645915"><ele>348.0</ele><time>2026-04-28T10:45:56.999Z</time></trkpt><trkpt lat="33.79053013743963" lon="-5.9922763319109675"><ele>352.0</ele><time>2026-04-28T10:45:57.999Z</time></trkpt><trkpt lat="33.79057075268607" lon="-5.992628096082178"><ele>355.0</ele><time>2026-04-28T10:45:58.999Z</time></trkpt><trkpt lat="33.79062625644654" lon="-5.99297766204106"><ele>358.0</ele><time>2026-04-28T10:45:59.999Z</time></trkpt><trkpt lat="33.79069799363124" lon="-5.993324716712022"><ele>364.0</ele><time>2026-04-28T10:46:00.999Z</time></trkpt><trkpt lat="33.7907851483285" lon="-5.9936673247192065"><ele>370.0</ele><time>2026-04-28T10:46:01.999Z</time></trkpt><trkpt lat="33.79088652165862" lon="-5.994004804478007"><ele>374.5</ele><time>2026-04-28T10:46:02.999Z</time></trkpt><trkpt lat="33.79100271362234" lon="-5.994335395822054"><ele>379.0</ele><time>2026-04-28T10:46:03.999Z</time></trkpt><trkpt lat="33.79113342648165" lon="-5.994658007589583"><ele>375.0</ele><time>2026-04-28T10:46:04.999Z</time></trkpt><trkpt lat="33.79127792156136" lon="-5.994970611780183"><ele>371.0</ele><time>2026-04-28T10:46:05.999Z</time></trkpt><trkpt lat="33.79143569805874" lon="-5.995273100267047"><ele>371.0</ele><time>2026-04-28T10:46:06.999Z</time></trkpt><trkpt lat="33.791609041771835" lon="-5.995564466290253"><ele>371.0</ele><time>2026-04-28T10:46:07.999Z</time></trkpt><trkpt lat="33.79179428238175" lon="-5.995840855533645"><ele>375.5</ele><time>2026-04-28T10:46:08.999Z</time></trkpt><trkpt lat="33.79199473283339" lon="-5.9961049997695515"><ele>380.0</ele><time>2026-04-28T10:46:09.999Z</time></trkpt><trkpt lat="33.7922092220094" lon="-5.996353542625219"><ele>380.0</ele><time>2026-04-28T10:46:10.999Z</time></trkpt><trkpt lat="33.792435070204505" lon="-5.996589390102266"><ele>380.0</ele><time>2026-04-28T10:46:11.999Z</time></trkpt><trkpt lat="33.792670996741215" lon="-5.996812061826331"><ele>384.5</ele><time>2026-04-28T10:46:12.999Z</time></trkpt><trkpt lat="33.792916029297" lon="-5.997016666092568"><ele>389.0</ele><time>2026-04-28T10:46:13.999Z</time></trkpt><trkpt lat="33.7931552649134" lon="-5.997193508773938"><ele>389.0</ele><time>2026-04-28T10:46:14.999Z</time></trkpt><trkpt lat="33.79339060910765" lon="-5.997355558639895"><ele>389.0</ele><time>2026-04-28T10:46:15.999Z</time></trkpt><trkpt lat="33.79362580854364" lon="-5.9975045884215925"><ele>395.0</ele><time>2026-04-28T10:46:16.999Z</time></trkpt><trkpt lat="33.7938627475859" lon="-5.997639100896214"><ele>401.0</ele><time>2026-04-28T10:46:17.999Z</time></trkpt><trkpt lat="33.79409806485833" lon="-5.99776148586859"><ele>401.0</ele><time>2026-04-28T10:46:18.999Z</time></trkpt><trkpt lat="33.7943344441084" lon="-5.997877893277678"><ele>401.0</ele><time>2026-04-28T10:46:19.999Z</time></trkpt><trkpt lat="33.79456665046444" lon="-5.997997234026613"><ele>400.5</ele><time>2026-04-28T10:46:20.999Z</time></trkpt><trkpt lat="33.79479373969193" lon="-5.998123017580379"><ele>400.0</ele><time>2026-04-28T10:46:21.999Z</time></trkpt><trkpt lat="33.795017780804415" lon="-5.9982568659275595"><ele>403.0</ele><time>2026-04-28T10:46:22.999Z</time></trkpt><trkpt lat="33.79523662743726" lon="-5.998402569773215"><ele>406.0</ele><time>2026-04-28T10:46:23.999Z</time></trkpt><trkpt lat="33.79544971234389" lon="-5.998562732969933"><ele>406.0</ele><time>2026-04-28T10:46:24.999Z</time></trkpt><trkpt lat="33.79565634495241" lon="-5.998734027971048"><ele>406.0</ele><time>2026-04-28T10:46:25.999Z</time></trkpt><trkpt lat="33.795857929331646" lon="-5.998916132609453"><ele>407.5</ele><time>2026-04-28T10:46:26.999Z</time></trkpt><trkpt lat="33.79604976644734" lon="-5.9991120575082855"><ele>409.0</ele><time>2026-04-28T10:46:27.999Z</time></trkpt><trkpt lat="33.79623292710192" lon="-5.999320480152918"><ele>409.0</ele><time>2026-04-28T10:46:28.999Z</time></trkpt><trkpt lat="33.7964106159877" lon="-5.999539515211527"><ele>409.0</ele><time>2026-04-28T10:46:29.999Z</time></trkpt><trkpt lat="33.796580260055876" lon="-5.999770914730476"><ele>409.0</ele><time>2026-04-28T10:46:30.999Z</time></trkpt><trkpt lat="33.79674324019982" lon="-6.000012716891589"><ele>409.0</ele><time>2026-04-28T10:46:31.999Z</time></trkpt><trkpt lat="33.796896512246754" lon="-6.000263899130277"><ele>408.5</ele><time>2026-04-28T10:46:32.999Z</time></trkpt><trkpt lat="33.79704186675535" lon="-6.000525521437751"><ele>408.0</ele><time>2026-04-28T10:46:33.999Z</time></trkpt><trkpt lat="33.797176832541105" lon="-6.000796393658973"><ele>406.5</ele><time>2026-04-28T10:46:34.999Z</time></trkpt><trkpt lat="33.79730366246512" lon="-6.0010755857341245"><ele>405.0</ele><time>2026-04-28T10:46:35.999Z</time></trkpt><trkpt lat="33.797421846429955" lon="-6.001362690815293"><ele>405.0</ele><time>2026-04-28T10:46:36.999Z</time></trkpt><trkpt lat="33.79752764738093" lon="-6.001657933271436"><ele>405.0</ele><time>2026-04-28T10:46:37.999Z</time></trkpt><trkpt lat="33.79762076547117" lon="-6.001964162881401"><ele>403.5</ele><time>2026-04-28T10:46:38.999Z</time></trkpt><trkpt lat="33.79770524380937" lon="-6.002292434937368"><ele>402.0</ele><time>2026-04-28T10:46:39.999Z</time></trkpt><trkpt lat="33.79777455633274" lon="-6.002633945971177"><ele>402.0</ele><time>2026-04-28T10:46:40.999Z</time></trkpt><trkpt lat="33.79782894197815" lon="-6.002986079793825"><ele>402.0</ele><time>2026-04-28T10:46:41.999Z</time></trkpt><trkpt lat="33.79786461101153" lon="-6.00334256362548"><ele>402.5</ele><time>2026-04-28T10:46:42.999Z</time></trkpt><trkpt lat="33.79788378676462" lon="-6.003702274598625"><ele>403.0</ele><time>2026-04-28T10:46:43.999Z</time></trkpt><trkpt lat="33.797884554380126" lon="-6.004055396691513"><ele>402.5</ele><time>2026-04-28T10:46:44.999Z</time></trkpt><trkpt lat="33.797869520869" lon="-6.004404710836474"><ele>402.0</ele><time>2026-04-28T10:46:45.999Z</time></trkpt><trkpt lat="33.79783847582084" lon="-6.004745435859793"><ele>404.0</ele><time>2026-04-28T10:46:46.999Z</time></trkpt><trkpt lat="33.797794808487275" lon="-6.005078347904853"><ele>406.0</ele><time>2026-04-28T10:46:47.999Z</time></trkpt><trkpt lat="33.79774613179963" lon="-6.005403529770909"><ele>406.0</ele><time>2026-04-28T10:46:48.999Z</time></trkpt><trkpt lat="33.797696928278654" lon="-6.005721334283695"><ele>406.0</ele><time>2026-04-28T10:46:49.999Z</time></trkpt><trkpt lat="33.797651992805854" lon="-6.00604127119981"><ele>415.0</ele><time>2026-04-28T10:46:50.999Z</time></trkpt><trkpt lat="33.79761143515708" lon="-6.006374337061348"><ele>424.0</ele><time>2026-04-28T10:46:51.999Z</time></trkpt><trkpt lat="33.79757379414009" lon="-6.006719985831877"><ele>424.5</ele><time>2026-04-28T10:46:52.999Z</time></trkpt><trkpt lat="33.79753225163013" lon="-6.007075409110656"><ele>425.0</ele><time>2026-04-28T10:46:54Z</time></trkpt><trkpt lat="33.79749180408479" lon="-6.0074340635048395"><ele>427.0</ele><time>2026-04-28T10:46:55Z</time></trkpt><trkpt lat="33.79745989599288" lon="-6.007790771297804"><ele>429.0</ele><time>2026-04-28T10:46:56Z</time></trkpt><trkpt lat="33.79744055811804" lon="-6.008147079663499"><ele>432.0</ele><time>2026-04-28T10:46:57Z</time></trkpt><trkpt lat="33.79744105290412" lon="-6.008504068757888"><ele>435.0</ele><time>2026-04-28T10:46:58Z</time></trkpt><trkpt lat="33.797464914336835" lon="-6.0088590830999085"><ele>437.5</ele><time>2026-04-28T10:46:59Z</time></trkpt><trkpt lat="33.79749651497211" lon="-6.0092158155964555"><ele>440.0</ele><time>2026-04-28T10:47:00Z</time></trkpt><trkpt lat="33.79753650948823" lon="-6.00957317670753"><ele>440.0</ele><time>2026-04-28T10:47:01Z</time></trkpt><trkpt lat="33.797588045906636" lon="-6.009928378409578"><ele>440.0</ele><time>2026-04-28T10:47:02Z</time></trkpt><trkpt lat="33.79765295146638" lon="-6.01028102828639"><ele>443.5</ele><time>2026-04-28T10:47:03Z</time></trkpt><trkpt lat="33.79772942518306" lon="-6.010628311581566"><ele>447.0</ele><time>2026-04-28T10:47:04Z</time></trkpt><trkpt lat="33.7978168521815" lon="-6.010970690441339"><ele>447.0</ele><time>2026-04-28T10:47:05Z</time></trkpt><trkpt lat="33.79791420173097" lon="-6.011308706739162"><ele>447.0</ele><time>2026-04-28T10:47:06Z</time></trkpt><trkpt lat="33.798020173326854" lon="-6.011642280002189"><ele>448.0</ele><time>2026-04-28T10:47:07Z</time></trkpt><trkpt lat="33.79813127857754" lon="-6.011973191711205"><ele>449.0</ele><time>2026-04-28T10:47:08Z</time></trkpt><trkpt lat="33.7982440399836" lon="-6.012305678672215"><ele>451.0</ele><time>2026-04-28T10:47:09Z</time></trkpt><trkpt lat="33.79835755005182" lon="-6.012639099607392"><ele>453.0</ele><time>2026-04-28T10:47:10Z</time></trkpt><trkpt lat="33.79847141316639" lon="-6.012974010215724"><ele>458.0</ele><time>2026-04-28T10:47:11Z</time></trkpt><trkpt lat="33.798585447872014" lon="-6.013309443159014"><ele>463.0</ele><time>2026-04-28T10:47:12Z</time></trkpt><trkpt lat="33.798699455105485" lon="-6.013644574657646"><ele>463.5</ele><time>2026-04-28T10:47:13Z</time></trkpt><trkpt lat="33.79881458195635" lon="-6.013979671403002"><ele>464.0</ele><time>2026-04-28T10:47:14Z</time></trkpt><trkpt lat="33.798928880535094" lon="-6.014312742307579"><ele>464.0</ele><time>2026-04-28T10:47:15Z</time></trkpt><trkpt lat="33.799041367260386" lon="-6.014645692312556"><ele>464.0</ele><time>2026-04-28T10:47:16Z</time></trkpt><trkpt lat="33.799152080635956" lon="-6.014978967998578"><ele>465.0</ele><time>2026-04-28T10:47:17Z</time></trkpt><trkpt lat="33.79926247659095" lon="-6.015313043436716"><ele>466.0</ele><time>2026-04-28T10:47:18Z</time></trkpt><trkpt lat="33.79937364746158" lon="-6.015647025536554"><ele>468.5</ele><time>2026-04-28T10:47:19Z</time></trkpt><trkpt lat="33.79948543029356" lon="-6.015982032538965"><ele>471.0</ele><time>2026-04-28T10:47:20Z</time></trkpt><trkpt lat="33.799597448947125" lon="-6.016315440862662"><ele>471.0</ele><time>2026-04-28T10:47:21Z</time></trkpt><trkpt lat="33.79970972254573" lon="-6.016649092779404"><ele>471.0</ele><time>2026-04-28T10:47:22Z</time></trkpt><trkpt lat="33.79982218265739" lon="-6.016982272105884"><ele>471.0</ele><time>2026-04-28T10:47:23Z</time></trkpt><trkpt lat="33.79993437414072" lon="-6.0173170185874465"><ele>471.0</ele><time>2026-04-28T10:47:24Z</time></trkpt><trkpt lat="33.800045493593245" lon="-6.017651962100671"><ele>471.5</ele><time>2026-04-28T10:47:25Z</time></trkpt><trkpt lat="33.80015726166288" lon="-6.017986412474007"><ele>472.0</ele><time>2026-04-28T10:47:26Z</time></trkpt><trkpt lat="33.80026803611731" lon="-6.018320819097147"><ele>474.0</ele><time>2026-04-28T10:47:27Z</time></trkpt><trkpt lat="33.80037903633311" lon="-6.018654988600671"><ele>476.0</ele><time>2026-04-28T10:47:28Z</time></trkpt><trkpt lat="33.80048901116835" lon="-6.018985448418513"><ele>474.0</ele><time>2026-04-28T10:47:29Z</time></trkpt><trkpt lat="33.80059524815586" lon="-6.019306981060586"><ele>472.0</ele><time>2026-04-28T10:47:30Z</time></trkpt><trkpt lat="33.800698647623754" lon="-6.019619030999007"><ele>472.0</ele><time>2026-04-28T10:47:31Z</time></trkpt><trkpt lat="33.80080071130879" lon="-6.019924669813284"><ele>472.0</ele><time>2026-04-28T10:47:32Z</time></trkpt><trkpt lat="33.80090280288807" lon="-6.0202241262456"><ele>472.0</ele><time>2026-04-28T10:47:33Z</time></trkpt><trkpt lat="33.8010029117227" lon="-6.020517514440103"><ele>472.0</ele><time>2026-04-28T10:47:34Z</time></trkpt><trkpt lat="33.80110268701869" lon="-6.0208059895538835"><ele>472.0</ele><time>2026-04-28T10:47:35Z</time></trkpt><trkpt lat="33.80119826525553" lon="-6.021089632178063"><ele>472.0</ele><time>2026-04-28T10:47:36Z</time></trkpt><trkpt lat="33.80129251328383" lon="-6.021367192804683"><ele>472.0</ele><time>2026-04-28T10:47:37Z</time></trkpt><trkpt lat="33.801385493930674" lon="-6.021640198009567"><ele>472.0</ele><time>2026-04-28T10:47:38Z</time></trkpt><trkpt lat="33.8014746437368" lon="-6.021908426666286"><ele>473.0</ele><time>2026-04-28T10:47:39Z</time></trkpt><trkpt lat="33.80156112544818" lon="-6.022170750063558"><ele>474.0</ele><time>2026-04-28T10:47:40Z</time></trkpt><trkpt lat="33.80164697377003" lon="-6.022428493365627"><ele>476.0</ele><time>2026-04-28T10:47:41Z</time></trkpt><trkpt lat="33.80173072136097" lon="-6.022682034443544"><ele>478.0</ele><time>2026-04-28T10:47:42Z</time></trkpt><trkpt lat="33.801813216421934" lon="-6.022935078337658"><ele>477.0</ele><time>2026-04-28T10:47:43Z</time></trkpt><trkpt lat="33.801892756862294" lon="-6.023188917605304"><ele>476.0</ele><time>2026-04-28T10:47:44Z</time></trkpt><trkpt lat="33.80197236101068" lon="-6.023443814650598"><ele>476.0</ele><time>2026-04-28T10:47:45Z</time></trkpt><trkpt lat="33.80205321238802" lon="-6.02370981702359"><ele>476.0</ele><time>2026-04-28T10:47:46Z</time></trkpt><trkpt lat="33.80213475839947" lon="-6.023990436261781"><ele>475.5</ele><time>2026-04-28T10:47:47Z</time></trkpt><trkpt lat="33.80221788396014" lon="-6.0242812793175196"><ele>475.0</ele><time>2026-04-28T10:47:48Z</time></trkpt><trkpt lat="33.80230461975694" lon="-6.02458365330387"><ele>475.0</ele><time>2026-04-28T10:47:48.999Z</time></trkpt><trkpt lat="33.802392592530495" lon="-6.024898568324953"><ele>475.0</ele><time>2026-04-28T10:47:49.999Z</time></trkpt><trkpt lat="33.802481844762006" lon="-6.0252247418799945"><ele>475.5</ele><time>2026-04-28T10:47:50.999Z</time></trkpt><trkpt lat="33.80256942893714" lon="-6.0255594415169265"><ele>476.0</ele><time>2026-04-28T10:47:51.999Z</time></trkpt><trkpt lat="33.80265246600975" lon="-6.025899232688358"><ele>475.0</ele><time>2026-04-28T10:47:52.999Z</time></trkpt><trkpt lat="33.802730170758494" lon="-6.026243169706558"><ele>474.0</ele><time>2026-04-28T10:47:53.999Z</time></trkpt><trkpt lat="33.802806386635" lon="-6.026589045873012"><ele>474.5</ele><time>2026-04-28T10:47:54.999Z</time></trkpt><trkpt lat="33.802878952028344" lon="-6.0269391753731325"><ele>475.0</ele><time>2026-04-28T10:47:55.999Z</time></trkpt><trkpt lat="33.802948290355886" lon="-6.0272896421933995"><ele>475.0</ele><time>2026-04-28T10:47:56.999Z</time></trkpt><trkpt lat="33.803013166610704" lon="-6.027642515025779"><ele>475.0</ele><time>2026-04-28T10:47:57.999Z</time></trkpt><trkpt lat="33.803073546431854" lon="-6.027996793920394"><ele>474.5</ele><time>2026-04-28T10:47:58.999Z</time></trkpt><trkpt lat="33.80312998900872" lon="-6.028350315781584"><ele>474.0</ele><time>2026-04-28T10:47:59.999Z</time></trkpt><trkpt lat="33.80318259251996" lon="-6.028707023503428"><ele>474.0</ele><time>2026-04-28T10:48:00.999Z</time></trkpt><trkpt lat="33.80322750204747" lon="-6.0290648542156315"><ele>474.0</ele><time>2026-04-28T10:48:01.999Z</time></trkpt><trkpt lat="33.803269792330724" lon="-6.029423244843716"><ele>474.5</ele><time>2026-04-28T10:48:02.999Z</time></trkpt><trkpt lat="33.80330761770301" lon="-6.029780623177798"><ele>475.0</ele><time>2026-04-28T10:48:03.999Z</time></trkpt><trkpt lat="33.80333910756809" lon="-6.030140139632215"><ele>475.0</ele><time>2026-04-28T10:48:04.999Z</time></trkpt><trkpt lat="33.80336843402664" lon="-6.0305002550599704"><ele>475.0</ele><time>2026-04-28T10:48:05.999Z</time></trkpt><trkpt lat="33.803394669189586" lon="-6.030860655043303"><ele>475.5</ele><time>2026-04-28T10:48:06.999Z</time></trkpt><trkpt lat="33.803416439204305" lon="-6.0312205345754855"><ele>476.0</ele><time>2026-04-28T10:48:07.999Z</time></trkpt><trkpt lat="33.80343606979891" lon="-6.031581626183268"><ele>476.0</ele><time>2026-04-28T10:48:08.999Z</time></trkpt><trkpt lat="33.80345265808563" lon="-6.031939993341149"><ele>476.0</ele><time>2026-04-28T10:48:09.999Z</time></trkpt><trkpt lat="33.80346259420062" lon="-6.03229783112688"><ele>476.0</ele><time>2026-04-28T10:48:10.999Z</time></trkpt><trkpt lat="33.80347238659439" lon="-6.032653032817414"><ele>476.0</ele><time>2026-04-28T10:48:11.999Z</time></trkpt><trkpt lat="33.80347539651795" lon="-6.033005709000119"><ele>476.0</ele><time>2026-04-28T10:48:12.999Z</time></trkpt><trkpt lat="33.803472682151984" lon="-6.033355610927977"><ele>476.0</ele><time>2026-04-28T10:48:13.999Z</time></trkpt><trkpt lat="33.80346762476526" lon="-6.03370417993782"><ele>476.0</ele><time>2026-04-28T10:48:14.999Z</time></trkpt><trkpt lat="33.803456594588155" lon="-6.0340494424836475"><ele>476.0</ele><time>2026-04-28T10:48:15.999Z</time></trkpt><trkpt lat="33.803437839499864" lon="-6.034391662393558"><ele>475.5</ele><time>2026-04-28T10:48:16.999Z</time></trkpt><trkpt lat="33.803415823136646" lon="-6.034731259921065"><ele>475.0</ele><time>2026-04-28T10:48:17.999Z</time></trkpt><trkpt lat="33.803395388231216" lon="-6.035069301173102"><ele>474.0</ele><time>2026-04-28T10:48:18.999Z</time></trkpt><trkpt lat="33.803369275134834" lon="-6.03540714203157"><ele>473.0</ele><time>2026-04-28T10:48:19.999Z</time></trkpt><trkpt lat="33.80333917042823" lon="-6.035743945607147"><ele>474.0</ele><time>2026-04-28T10:48:20.999Z</time></trkpt><trkpt lat="33.803308727251974" lon="-6.036081275399337"><ele>475.0</ele><time>2026-04-28T10:48:21.999Z</time></trkpt><trkpt lat="33.803275249744516" lon="-6.03641816498568"><ele>473.0</ele><time>2026-04-28T10:48:22.999Z</time></trkpt><trkpt lat="33.80323811858526" lon="-6.036754968778943"><ele>471.0</ele><time>2026-04-28T10:48:23.999Z</time></trkpt><trkpt lat="33.80320050087395" lon="-6.0370923941959855"><ele>471.0</ele><time>2026-04-28T10:48:24.999Z</time></trkpt><trkpt lat="33.803158228907044" lon="-6.037428448064381"><ele>471.0</ele><time>2026-04-28T10:48:25.999Z</time></trkpt><trkpt lat="33.80310885372729" lon="-6.037764652351087"><ele>470.5</ele><time>2026-04-28T10:48:26.999Z</time></trkpt><trkpt lat="33.803054068779616" lon="-6.038098147678557"><ele>470.0</ele><time>2026-04-28T10:48:27.999Z</time></trkpt><trkpt lat="33.80300047046009" lon="-6.038432108865316"><ele>470.0</ele><time>2026-04-28T10:48:28.999Z</time></trkpt><trkpt lat="33.802943034074474" lon="-6.0387653196643996"><ele>470.0</ele><time>2026-04-28T10:48:29.999Z</time></trkpt><trkpt lat="33.8028815937574" lon="-6.039095397445943"><ele>471.5</ele><time>2026-04-28T10:48:30.999Z</time></trkpt><trkpt lat="33.802815407846076" lon="-6.039423011279749"><ele>473.0</ele><time>2026-04-28T10:48:31.999Z</time></trkpt><trkpt lat="33.802747357201035" lon="-6.0397510576030555"><ele>473.5</ele><time>2026-04-28T10:48:32.999Z</time></trkpt><trkpt lat="33.802676380220156" lon="-6.040080524008238"><ele>474.0</ele><time>2026-04-28T10:48:33.999Z</time></trkpt><trkpt lat="33.80260453738721" lon="-6.040409653788514"><ele>472.5</ele><time>2026-04-28T10:48:34.999Z</time></trkpt><trkpt lat="33.802521561260654" lon="-6.0407349679270075"><ele>471.0</ele><time>2026-04-28T10:48:35.999Z</time></trkpt><trkpt lat="33.80243940984628" lon="-6.041067199684833"><ele>470.0</ele><time>2026-04-28T10:48:36.999Z</time></trkpt><trkpt lat="33.80234915496833" lon="-6.041401447079045"><ele>469.0</ele><time>2026-04-28T10:48:37.999Z</time></trkpt><trkpt lat="33.80225573200678" lon="-6.0417384901755815"><ele>468.5</ele><time>2026-04-28T10:48:38.999Z</time></trkpt><trkpt lat="33.80216318612662" lon="-6.042077474764647"><ele>468.0</ele><time>2026-04-28T10:48:39.999Z</time></trkpt><trkpt lat="33.8020665275298" lon="-6.0424162776198465"><ele>467.0</ele><time>2026-04-28T10:48:40.999Z</time></trkpt><trkpt lat="33.80196873870686" lon="-6.042756858209628"><ele>466.0</ele><time>2026-04-28T10:48:41.999Z</time></trkpt><trkpt lat="33.80187429350832" lon="-6.043098726869621"><ele>466.5</ele><time>2026-04-28T10:48:42.999Z</time></trkpt><trkpt lat="33.801778209755" lon="-6.043439558844965"><ele>467.0</ele><time>2026-04-28T10:48:43.999Z</time></trkpt><trkpt lat="33.80168542717656" lon="-6.043781332328515"><ele>467.0</ele><time>2026-04-28T10:48:44.999Z</time></trkpt><trkpt lat="33.80158940392143" lon="-6.044122122224936"><ele>467.0</ele><time>2026-04-28T10:48:45.999Z</time></trkpt><trkpt lat="33.80149641062449" lon="-6.044464679584845"><ele>465.5</ele><time>2026-04-28T10:48:46.999Z</time></trkpt><trkpt lat="33.80139991389351" lon="-6.044805045647284"><ele>464.0</ele><time>2026-04-28T10:48:47.999Z</time></trkpt><trkpt lat="33.80130938684815" lon="-6.045147106652629"><ele>463.0</ele><time>2026-04-28T10:48:48.999Z</time></trkpt><trkpt lat="33.80122173596582" lon="-6.045490090779036"><ele>462.0</ele><time>2026-04-28T10:48:49.999Z</time></trkpt><trkpt lat="33.80113580791121" lon="-6.045835463449396"><ele>462.0</ele><time>2026-04-28T10:48:50.999Z</time></trkpt><trkpt lat="33.80105442498233" lon="-6.046184136956077"><ele>462.0</ele><time>2026-04-28T10:48:51.999Z</time></trkpt><trkpt lat="33.80098189976926" lon="-6.046534043331641"><ele>464.0</ele><time>2026-04-28T10:48:52.999Z</time></trkpt><trkpt lat="33.800909480545926" lon="-6.046884876852917"><ele>466.0</ele><time>2026-04-28T10:48:53.999Z</time></trkpt><trkpt lat="33.80084023817675" lon="-6.047238310628977"><ele>466.0</ele><time>2026-04-28T10:48:54.999Z</time></trkpt><trkpt lat="33.80077509616809" lon="-6.047589028743084"><ele>466.0</ele><time>2026-04-28T10:48:55.999Z</time></trkpt><trkpt lat="33.8007145114757" lon="-6.047940902883069"><ele>464.5</ele><time>2026-04-28T10:48:56.999Z</time></trkpt><trkpt lat="33.800660665300406" lon="-6.048298130865594"><ele>463.0</ele><time>2026-04-28T10:48:57.999Z</time></trkpt><trkpt lat="33.80060945178649" lon="-6.0486567530013176"><ele>463.0</ele><time>2026-04-28T10:48:58.999Z</time></trkpt><trkpt lat="33.80056205874189" lon="-6.049015023690655"><ele>463.0</ele><time>2026-04-28T10:49:00Z</time></trkpt><trkpt lat="33.800518877541265" lon="-6.04937210027007"><ele>463.0</ele><time>2026-04-28T10:49:01Z</time></trkpt><trkpt lat="33.80047974889628" lon="-6.049729381104049"><ele>463.0</ele><time>2026-04-28T10:49:02Z</time></trkpt><trkpt lat="33.80044071024237" lon="-6.050084241263847"><ele>462.0</ele><time>2026-04-28T10:49:03Z</time></trkpt><trkpt lat="33.80040737635823" lon="-6.050439960803671"><ele>461.0</ele><time>2026-04-28T10:49:04Z</time></trkpt><trkpt lat="33.80037904881677" lon="-6.050796411665456"><ele>460.5</ele><time>2026-04-28T10:49:05Z</time></trkpt><trkpt lat="33.80035783474726" lon="-6.051152236633213"><ele>460.0</ele><time>2026-04-28T10:49:06Z</time></trkpt><trkpt lat="33.80033718476158" lon="-6.051507892553251"><ele>461.0</ele><time>2026-04-28T10:49:07Z</time></trkpt><trkpt lat="33.800317475802096" lon="-6.05186371133348"><ele>462.0</ele><time>2026-04-28T10:49:08Z</time></trkpt><trkpt lat="33.800304829725675" lon="-6.052218113147783"><ele>461.5</ele><time>2026-04-28T10:49:09Z</time></trkpt><trkpt lat="33.800296705842186" lon="-6.052573722155323"><ele>461.0</ele><time>2026-04-28T10:49:10Z</time></trkpt><trkpt lat="33.80028893893504" lon="-6.05292927483393"><ele>461.0</ele><time>2026-04-28T10:49:11Z</time></trkpt><trkpt lat="33.80028728549453" lon="-6.053285513917362"><ele>461.0</ele><time>2026-04-28T10:49:12Z</time></trkpt><trkpt lat="33.800285366239855" lon="-6.053641575730019"><ele>461.0</ele><time>2026-04-28T10:49:13Z</time></trkpt><trkpt lat="33.800290205292335" lon="-6.0539984174809955"><ele>461.0</ele><time>2026-04-28T10:49:14Z</time></trkpt><trkpt lat="33.80029419223198" lon="-6.054357930253154"><ele>461.5</ele><time>2026-04-28T10:49:15Z</time></trkpt><trkpt lat="33.800293457177006" lon="-6.054718076075139"><ele>462.0</ele><time>2026-04-28T10:49:16Z</time></trkpt><trkpt lat="33.80029827703939" lon="-6.055078684695898"><ele>462.0</ele><time>2026-04-28T10:49:17Z</time></trkpt><trkpt lat="33.80030697376577" lon="-6.0554391686056634"><ele>462.0</ele><time>2026-04-28T10:49:18Z</time></trkpt><trkpt lat="33.8003171521684" lon="-6.055799937481491"><ele>461.5</ele><time>2026-04-28T10:49:19Z</time></trkpt><trkpt lat="33.800324023655335" lon="-6.056162129401206"><ele>461.0</ele><time>2026-04-28T10:49:20Z</time></trkpt><trkpt lat="33.80033208148042" lon="-6.0565261756439055"><ele>460.0</ele><time>2026-04-28T10:49:21Z</time></trkpt><trkpt lat="33.800334387266986" lon="-6.0568892279554225"><ele>459.0</ele><time>2026-04-28T10:49:22Z</time></trkpt><trkpt lat="33.8003355914636" lon="-6.057252156332805"><ele>459.5</ele><time>2026-04-28T10:49:23Z</time></trkpt><trkpt lat="33.800336251190004" lon="-6.057615281984216"><ele>460.0</ele><time>2026-04-28T10:49:24Z</time></trkpt><trkpt lat="33.80033273764221" lon="-6.0579770235791015"><ele>461.0</ele><time>2026-04-28T10:49:25Z</time></trkpt><trkpt lat="33.800325278358976" lon="-6.058338361675893"><ele>462.0</ele><time>2026-04-28T10:49:26Z</time></trkpt><trkpt lat="33.800312059149064" lon="-6.058697855254581"><ele>462.0</ele><time>2026-04-28T10:49:27Z</time></trkpt><trkpt lat="33.80029292347254" lon="-6.059057538165419"><ele>462.0</ele><time>2026-04-28T10:49:28Z</time></trkpt><trkpt lat="33.800268393105625" lon="-6.059414635939289"><ele>461.5</ele><time>2026-04-28T10:49:29Z</time></trkpt><trkpt lat="33.80023749722621" lon="-6.059770242275463"><ele>461.0</ele><time>2026-04-28T10:49:30Z</time></trkpt><trkpt lat="33.800204170808115" lon="-6.060125554960233"><ele>457.0</ele><time>2026-04-28T10:49:31Z</time></trkpt><trkpt lat="33.80016624658867" lon="-6.060483066482346"><ele>453.0</ele><time>2026-04-28T10:49:32Z</time></trkpt><trkpt lat="33.800128386373025" lon="-6.060840198618522"><ele>451.5</ele><time>2026-04-28T10:49:33Z</time></trkpt><trkpt lat="33.80008313936373" lon="-6.0611956034131715"><ele>450.0</ele><time>2026-04-28T10:49:34Z</time></trkpt><trkpt lat="33.800034870077944" lon="-6.061549709658856"><ele>450.5</ele><time>2026-04-28T10:49:35Z</time></trkpt><trkpt lat="33.799986593865775" lon="-6.061904690170885"><ele>451.0</ele><time>2026-04-28T10:49:36Z</time></trkpt><trkpt lat="33.799932512830615" lon="-6.0622564096860305"><ele>453.0</ele><time>2026-04-28T10:49:37Z</time></trkpt><trkpt lat="33.7998723890199" lon="-6.062607006721157"><ele>455.0</ele><time>2026-04-28T10:49:38Z</time></trkpt><trkpt lat="33.79981211305163" lon="-6.062955848222345"><ele>455.5</ele><time>2026-04-28T10:49:39Z</time></trkpt><trkpt lat="33.79974952665299" lon="-6.06330570004843"><ele>456.0</ele><time>2026-04-28T10:49:40Z</time></trkpt><trkpt lat="33.799685482039926" lon="-6.0636570680614605"><ele>456.0</ele><time>2026-04-28T10:49:41Z</time></trkpt><trkpt lat="33.79961948392243" lon="-6.064010326476191"><ele>456.0</ele><time>2026-04-28T10:49:42Z</time></trkpt><trkpt lat="33.799552246328346" lon="-6.064362440749307"><ele>457.0</ele><time>2026-04-28T10:49:43Z</time></trkpt><trkpt lat="33.799482951654376" lon="-6.064710518005373"><ele>458.0</ele><time>2026-04-28T10:49:44Z</time></trkpt><trkpt lat="33.79941303530005" lon="-6.065059159422375"><ele>458.0</ele><time>2026-04-28T10:49:44.999Z</time></trkpt><trkpt lat="33.79934089373581" lon="-6.0654068021278595"><ele>458.0</ele><time>2026-04-28T10:49:45.999Z</time></trkpt><trkpt lat="33.79927055761" lon="-6.065749329610249"><ele>457.0</ele><time>2026-04-28T10:49:46.999Z</time></trkpt><trkpt lat="33.79919931917053" lon="-6.066104454717946"><ele>456.0</ele><time>2026-04-28T10:49:47.999Z</time></trkpt><trkpt lat="33.799126024217344" lon="-6.06645497066653"><ele>456.5</ele><time>2026-04-28T10:49:48.999Z</time></trkpt><trkpt lat="33.799053777519745" lon="-6.066805241380147"><ele>457.0</ele><time>2026-04-28T10:49:49.999Z</time></trkpt><trkpt lat="33.79898378210141" lon="-6.067154641508199"><ele>457.5</ele><time>2026-04-28T10:49:50.999Z</time></trkpt><trkpt lat="33.798913712219516" lon="-6.067504383709839"><ele>458.0</ele><time>2026-04-28T10:49:51.999Z</time></trkpt><trkpt lat="33.79884114563873" lon="-6.067857746118794"><ele>458.0</ele><time>2026-04-28T10:49:52.999Z</time></trkpt><trkpt lat="33.79876839662541" lon="-6.068206350989511"><ele>458.0</ele><time>2026-04-28T10:49:53.999Z</time></trkpt><trkpt lat="33.79869246058774" lon="-6.068556772772113"><ele>459.0</ele><time>2026-04-28T10:49:54.999Z</time></trkpt><trkpt lat="33.79861975682283" lon="-6.068906698952313"><ele>460.0</ele><time>2026-04-28T10:49:55.999Z</time></trkpt><trkpt lat="33.79854855577451" lon="-6.069257450350422"><ele>460.0</ele><time>2026-04-28T10:49:56.999Z</time></trkpt><trkpt lat="33.79847631181786" lon="-6.069607917561322"><ele>460.0</ele><time>2026-04-28T10:49:57.999Z</time></trkpt><trkpt lat="33.7984054517688" lon="-6.069958040770019"><ele>460.0</ele><time>2026-04-28T10:49:58.999Z</time></trkpt><trkpt lat="33.79833387738194" lon="-6.0703069100205544"><ele>460.0</ele><time>2026-04-28T10:49:59.999Z</time></trkpt><trkpt lat="33.798262774737864" lon="-6.07065491776618"><ele>459.5</ele><time>2026-04-28T10:50:00.999Z</time></trkpt><trkpt lat="33.798195154366205" lon="-6.071003202882226"><ele>459.0</ele><time>2026-04-28T10:50:01.999Z</time></trkpt><trkpt lat="33.79813376647995" lon="-6.071351815163665"><ele>459.0</ele><time>2026-04-28T10:50:02.999Z</time></trkpt><trkpt lat="33.79807827635499" lon="-6.071701147580571"><ele>459.0</ele><time>2026-04-28T10:50:03.999Z</time></trkpt><trkpt lat="33.79802980359297" lon="-6.072051535799287"><ele>459.0</ele><time>2026-04-28T10:50:04.999Z</time></trkpt><trkpt lat="33.79799122622407" lon="-6.072404499723413"><ele>459.0</ele><time>2026-04-28T10:50:05.999Z</time></trkpt><trkpt lat="33.79796163628361" lon="-6.072758865281086"><ele>457.5</ele><time>2026-04-28T10:50:06.999Z</time></trkpt><trkpt lat="33.79793857873634" lon="-6.073115154862457"><ele>456.0</ele><time>2026-04-28T10:50:07.999Z</time></trkpt><trkpt lat="33.79792446454924" lon="-6.073473536851221"><ele>455.0</ele><time>2026-04-28T10:50:08.999Z</time></trkpt><trkpt lat="33.79791867115855" lon="-6.073833463268852"><ele>454.0</ele><time>2026-04-28T10:50:09.999Z</time></trkpt><trkpt lat="33.79792013667151" lon="-6.074194614714632"><ele>453.5</ele><time>2026-04-28T10:50:10.999Z</time></trkpt><trkpt lat="33.797929007988486" lon="-6.074554564576001"><ele>453.0</ele><time>2026-04-28T10:50:11.999Z</time></trkpt><trkpt lat="33.79794623121904" lon="-6.074914305394158"><ele>453.5</ele><time>2026-04-28T10:50:12.999Z</time></trkpt><trkpt lat="33.79797437889422" lon="-6.07527143360894"><ele>454.0</ele><time>2026-04-28T10:50:13.999Z</time></trkpt><trkpt lat="33.79801108501193" lon="-6.0756270137030555"><ele>454.5</ele><time>2026-04-28T10:50:14.999Z</time></trkpt><trkpt lat="33.79805817337246" lon="-6.075982168136889"><ele>455.0</ele><time>2026-04-28T10:50:15.999Z</time></trkpt><trkpt lat="33.79811269695426" lon="-6.076334675879356"><ele>455.5</ele><time>2026-04-28T10:50:16.999Z</time></trkpt><trkpt lat="33.79817500301545" lon="-6.07668456452813"><ele>456.0</ele><time>2026-04-28T10:50:17.999Z</time></trkpt><trkpt lat="33.79824206357162" lon="-6.077032671383192"><ele>456.0</ele><time>2026-04-28T10:50:18.999Z</time></trkpt><trkpt lat="33.79831851683408" lon="-6.077380001572437"><ele>456.0</ele><time>2026-04-28T10:50:19.999Z</time></trkpt><trkpt lat="33.79840189167635" lon="-6.077727094824793"><ele>457.5</ele><time>2026-04-28T10:50:20.999Z</time></trkpt><trkpt lat="33.79848841495824" lon="-6.0780699826214235"><ele>459.0</ele><time>2026-04-28T10:50:21.999Z</time></trkpt><trkpt lat="33.79857727845941" lon="-6.0784145087868575"><ele>459.0</ele><time>2026-04-28T10:50:22.999Z</time></trkpt><trkpt lat="33.79866704786446" lon="-6.078758015454475"><ele>459.0</ele><time>2026-04-28T10:50:23.999Z</time></trkpt><trkpt lat="33.798756848181036" lon="-6.079102899208128"><ele>460.0</ele><time>2026-04-28T10:50:24.999Z</time></trkpt><trkpt lat="33.79884633790657" lon="-6.079451705975514"><ele>461.0</ele><time>2026-04-28T10:50:25.999Z</time></trkpt><trkpt lat="33.798932494069675" lon="-6.079796966794308"><ele>462.5</ele><time>2026-04-28T10:50:26.999Z</time></trkpt><trkpt lat="33.79901907775345" lon="-6.080142290956269"><ele>464.0</ele><time>2026-04-28T10:50:27.999Z</time></trkpt><trkpt lat="33.79910687860457" lon="-6.080488763389392"><ele>463.5</ele><time>2026-04-28T10:50:28.999Z</time></trkpt><trkpt lat="33.79919523275259" lon="-6.080833356963472"><ele>463.0</ele><time>2026-04-28T10:50:29.999Z</time></trkpt><trkpt lat="33.79928090756795" lon="-6.081178432438823"><ele>462.5</ele><time>2026-04-28T10:50:30.999Z</time></trkpt><trkpt lat="33.7993677962731" lon="-6.081524721036223"><ele>462.0</ele><time>2026-04-28T10:50:31.999Z</time></trkpt><trkpt lat="33.79945326637836" lon="-6.081865855695678"><ele>462.0</ele><time>2026-04-28T10:50:32.999Z</time></trkpt><trkpt lat="33.79953847905406" lon="-6.082209830528437"><ele>462.0</ele><time>2026-04-28T10:50:33.999Z</time></trkpt><trkpt lat="33.799622451614184" lon="-6.082553917586289"><ele>461.0</ele><time>2026-04-28T10:50:34.999Z</time></trkpt><trkpt lat="33.799707230051936" lon="-6.082898231688971"><ele>460.0</ele><time>2026-04-28T10:50:35.999Z</time></trkpt><trkpt lat="33.799793183718414" lon="-6.083242366725061"><ele>459.5</ele><time>2026-04-28T10:50:36.999Z</time></trkpt><trkpt lat="33.799879765008825" lon="-6.083585611684599"><ele>459.0</ele><time>2026-04-28T10:50:37.999Z</time></trkpt><trkpt lat="33.799967551565274" lon="-6.083930752264417"><ele>458.5</ele><time>2026-04-28T10:50:38.999Z</time></trkpt><trkpt lat="33.80005614458711" lon="-6.084276439194509"><ele>458.0</ele><time>2026-04-28T10:50:39.999Z</time></trkpt><trkpt lat="33.80014790445324" lon="-6.0846177262657895"><ele>456.5</ele><time>2026-04-28T10:50:40.999Z</time></trkpt><trkpt lat="33.80024532687003" lon="-6.084957057124695"><ele>455.0</ele><time>2026-04-28T10:50:41.999Z</time></trkpt><trkpt lat="33.800348314497896" lon="-6.085293474766977"><ele>455.0</ele><time>2026-04-28T10:50:42.999Z</time></trkpt><trkpt lat="33.80046006536999" lon="-6.085624435082971"><ele>455.0</ele><time>2026-04-28T10:50:43.999Z</time></trkpt><trkpt lat="33.800578288461274" lon="-6.085952549084504"><ele>456.5</ele><time>2026-04-28T10:50:44.999Z</time></trkpt><trkpt lat="33.80070289411713" lon="-6.086277603309512"><ele>458.0</ele><time>2026-04-28T10:50:45.999Z</time></trkpt><trkpt lat="33.80083626994349" lon="-6.086600521063035"><ele>458.0</ele><time>2026-04-28T10:50:46.999Z</time></trkpt><trkpt lat="33.800976915048864" lon="-6.086917634273446"><ele>458.0</ele><time>2026-04-28T10:50:47.999Z</time></trkpt><trkpt lat="33.80112657255084" lon="-6.087232066821323"><ele>458.0</ele><time>2026-04-28T10:50:48.999Z</time></trkpt><trkpt lat="33.80128258021428" lon="-6.087539363475329"><ele>458.0</ele><time>2026-04-28T10:50:49.999Z</time></trkpt><trkpt lat="33.8014468137576" lon="-6.087842483818744"><ele>458.0</ele><time>2026-04-28T10:50:50.999Z</time></trkpt><trkpt lat="33.80161776720521" lon="-6.088138418818986"><ele>458.0</ele><time>2026-04-28T10:50:51.999Z</time></trkpt><trkpt lat="33.80179852519986" lon="-6.088428131792984"><ele>459.0</ele><time>2026-04-28T10:50:52.999Z</time></trkpt><trkpt lat="33.80198537484199" lon="-6.088711953536688"><ele>460.0</ele><time>2026-04-28T10:50:53.999Z</time></trkpt><trkpt lat="33.80217645136734" lon="-6.088991016552406"><ele>461.0</ele><time>2026-04-28T10:50:54.999Z</time></trkpt><trkpt lat="33.80237329627828" lon="-6.089265077581611"><ele>462.0</ele><time>2026-04-28T10:50:55.999Z</time></trkpt><trkpt lat="33.802575342436135" lon="-6.089530523649276"><ele>462.0</ele><time>2026-04-28T10:50:56.999Z</time></trkpt><trkpt lat="33.802785235091505" lon="-6.08978623792543"><ele>462.0</ele><time>2026-04-28T10:50:57.999Z</time></trkpt><trkpt lat="33.80299991510515" lon="-6.090037645363408"><ele>462.0</ele><time>2026-04-28T10:50:58.999Z</time></trkpt><trkpt lat="33.803222158294766" lon="-6.090278627150367"><ele>462.0</ele><time>2026-04-28T10:50:59.999Z</time></trkpt><trkpt lat="33.803447339284816" lon="-6.09051316759858"><ele>462.5</ele><time>2026-04-28T10:51:00.999Z</time></trkpt><trkpt lat="33.803676825768136" lon="-6.09073737442994"><ele>463.0</ele><time>2026-04-28T10:51:01.999Z</time></trkpt><trkpt lat="33.80390813816019" lon="-6.090950154976992"><ele>463.0</ele><time>2026-04-28T10:51:02.999Z</time></trkpt><trkpt lat="33.804144125240825" lon="-6.091156559235253"><ele>463.0</ele><time>2026-04-28T10:51:03.999Z</time></trkpt><trkpt lat="33.80438210585295" lon="-6.091357621402797"><ele>463.5</ele><time>2026-04-28T10:51:04.999Z</time></trkpt><trkpt lat="33.804621264758154" lon="-6.091554215150351"><ele>464.0</ele><time>2026-04-28T10:51:06Z</time></trkpt><trkpt lat="33.804863655397206" lon="-6.091739570655546"><ele>464.0</ele><time>2026-04-28T10:51:07Z</time></trkpt><trkpt lat="33.8051116785507" lon="-6.091910674725198"><ele>464.0</ele><time>2026-04-28T10:51:08Z</time></trkpt><trkpt lat="33.80536829832029" lon="-6.092074580101544"><ele>464.5</ele><time>2026-04-28T10:51:09Z</time></trkpt><trkpt lat="33.80563135563729" lon="-6.092238128334724"><ele>465.0</ele><time>2026-04-28T10:51:10Z</time></trkpt><trkpt lat="33.80589144870418" lon="-6.092394740799801"><ele>464.0</ele><time>2026-04-28T10:51:11Z</time></trkpt><trkpt lat="33.806156456296385" lon="-6.092542103880498"><ele>463.0</ele><time>2026-04-28T10:51:12Z</time></trkpt><trkpt lat="33.80642453820122" lon="-6.0926813676987255"><ele>463.0</ele><time>2026-04-28T10:51:13Z</time></trkpt><trkpt lat="33.80669103599301" lon="-6.092820159933108"><ele>463.0</ele><time>2026-04-28T10:51:14Z</time></trkpt><trkpt lat="33.806956334222996" lon="-6.0929620497927095"><ele>462.5</ele><time>2026-04-28T10:51:15Z</time></trkpt><trkpt lat="33.80721958791159" lon="-6.093103735506692"><ele>462.0</ele><time>2026-04-28T10:51:16Z</time></trkpt><trkpt lat="33.80748220487207" lon="-6.0932446745125635"><ele>461.0</ele><time>2026-04-28T10:51:17Z</time></trkpt><trkpt lat="33.80774757127477" lon="-6.093384641473121"><ele>460.0</ele><time>2026-04-28T10:51:18Z</time></trkpt><trkpt lat="33.808019267959075" lon="-6.093526780245842"><ele>460.0</ele><time>2026-04-28T10:51:19Z</time></trkpt><trkpt lat="33.80829021009508" lon="-6.093672485943983"><ele>460.0</ele><time>2026-04-28T10:51:20Z</time></trkpt><trkpt lat="33.80856221077739" lon="-6.093822533377397"><ele>460.5</ele><time>2026-04-28T10:51:21Z</time></trkpt><trkpt lat="33.80883299242381" lon="-6.093974419378803"><ele>461.0</ele><time>2026-04-28T10:51:22Z</time></trkpt><trkpt lat="33.80910528053887" lon="-6.094128722600882"><ele>461.5</ele><time>2026-04-28T10:51:23Z</time></trkpt><trkpt lat="33.80937451415131" lon="-6.094286836440711"><ele>462.0</ele><time>2026-04-28T10:51:24Z</time></trkpt><trkpt lat="33.809640165293544" lon="-6.094451824028499"><ele>462.0</ele><time>2026-04-28T10:51:25Z</time></trkpt><trkpt lat="33.80990371729911" lon="-6.094621982349434"><ele>462.0</ele><time>2026-04-28T10:51:26Z</time></trkpt><trkpt lat="33.81016525217788" lon="-6.09479714862535"><ele>461.0</ele><time>2026-04-28T10:51:27Z</time></trkpt><trkpt lat="33.81042469339531" lon="-6.094977587235668"><ele>460.0</ele><time>2026-04-28T10:51:28Z</time></trkpt><trkpt lat="33.81068043065203" lon="-6.095164525910414"><ele>460.0</ele><time>2026-04-28T10:51:29Z</time></trkpt><trkpt lat="33.81093362712303" lon="-6.095355137100681"><ele>460.0</ele><time>2026-04-28T10:51:30Z</time></trkpt><trkpt lat="33.811185627935146" lon="-6.095548941063807"><ele>460.0</ele><time>2026-04-28T10:51:31Z</time></trkpt><trkpt lat="33.811435462357835" lon="-6.095747146373335"><ele>460.0</ele><time>2026-04-28T10:51:32Z</time></trkpt><trkpt lat="33.8116809379333" lon="-6.095949651084415"><ele>457.5</ele><time>2026-04-28T10:51:33Z</time></trkpt><trkpt lat="33.81192219891315" lon="-6.0961588148994705"><ele>455.0</ele><time>2026-04-28T10:51:34Z</time></trkpt><trkpt lat="33.812159581466986" lon="-6.096372841282437"><ele>455.5</ele><time>2026-04-28T10:51:35Z</time></trkpt><trkpt lat="33.81239766453946" lon="-6.096594206303502"><ele>456.0</ele><time>2026-04-28T10:51:36Z</time></trkpt><trkpt lat="33.81263329561996" lon="-6.09682110878169"><ele>453.5</ele><time>2026-04-28T10:51:37Z</time></trkpt><trkpt lat="33.81286523817582" lon="-6.097052506082879"><ele>451.0</ele><time>2026-04-28T10:51:38Z</time></trkpt><trkpt lat="33.81309388291476" lon="-6.097287067020503"><ele>451.0</ele><time>2026-04-28T10:51:39Z</time></trkpt><trkpt lat="33.8133205520594" lon="-6.097526162464245"><ele>451.0</ele><time>2026-04-28T10:51:39.999Z</time></trkpt><trkpt lat="33.81354274300772" lon="-6.0977699662000715"><ele>451.0</ele><time>2026-04-28T10:51:40.999Z</time></trkpt><trkpt lat="33.81376075906446" lon="-6.098017887375568"><ele>451.0</ele><time>2026-04-28T10:51:41.999Z</time></trkpt><trkpt lat="33.813974052813826" lon="-6.098269345588254"><ele>451.0</ele><time>2026-04-28T10:51:42.999Z</time></trkpt><trkpt lat="33.814186252950336" lon="-6.098525170401958"><ele>451.0</ele><time>2026-04-28T10:51:43.999Z</time></trkpt><trkpt lat="33.81439771522055" lon="-6.09878452748515"><ele>451.5</ele><time>2026-04-28T10:51:44.999Z</time></trkpt><trkpt lat="33.81460354908997" lon="-6.099047663595524"><ele>452.0</ele><time>2026-04-28T10:51:45.999Z</time></trkpt><trkpt lat="33.814805607194266" lon="-6.099314943775916"><ele>451.0</ele><time>2026-04-28T10:51:46.999Z</time></trkpt><trkpt lat="33.815003624767876" lon="-6.099586409418403"><ele>450.0</ele><time>2026-04-28T10:51:47.999Z</time></trkpt><trkpt lat="33.815198528522245" lon="-6.099862228394608"><ele>447.0</ele><time>2026-04-28T10:51:48.999Z</time></trkpt><trkpt lat="33.81538991051954" lon="-6.100141070436441"><ele>444.0</ele><time>2026-04-28T10:51:49.999Z</time></trkpt><trkpt lat="33.815577903078996" lon="-6.10042521726334"><ele>444.0</ele><time>2026-04-28T10:51:50.999Z</time></trkpt><trkpt lat="33.81576069373487" lon="-6.100711405949838"><ele>444.0</ele><time>2026-04-28T10:51:51.999Z</time></trkpt><trkpt lat="33.8159397453467" lon="-6.101001081964495"><ele>444.0</ele><time>2026-04-28T10:51:52.999Z</time></trkpt><trkpt lat="33.816114752531014" lon="-6.101293452568259"><ele>444.0</ele><time>2026-04-28T10:51:53.999Z</time></trkpt><trkpt lat="33.8162848004519" lon="-6.101590833997058"><ele>445.0</ele><time>2026-04-28T10:51:54.999Z</time></trkpt><trkpt lat="33.81645062307188" lon="-6.10189235557505"><ele>446.0</ele><time>2026-04-28T10:51:55.999Z</time></trkpt><trkpt lat="33.81661027046612" lon="-6.102197151574341"><ele>446.5</ele><time>2026-04-28T10:51:56.999Z</time></trkpt><trkpt lat="33.81676529452901" lon="-6.102505163461879"><ele>447.0</ele><time>2026-04-28T10:51:57.999Z</time></trkpt><trkpt lat="33.81691656387992" lon="-6.1028167620065075"><ele>447.0</ele><time>2026-04-28T10:51:58.999Z</time></trkpt><trkpt lat="33.81706579892639" lon="-6.103130161393804"><ele>447.0</ele><time>2026-04-28T10:51:59.999Z</time></trkpt><trkpt lat="33.817209902508054" lon="-6.103446009025205"><ele>447.0</ele><time>2026-04-28T10:52:00.999Z</time></trkpt><trkpt lat="33.817348282257065" lon="-6.103766827926835"><ele>447.0</ele><time>2026-04-28T10:52:01.999Z</time></trkpt><trkpt lat="33.81748113958146" lon="-6.1040899050215"><ele>447.0</ele><time>2026-04-28T10:52:02.999Z</time></trkpt><trkpt lat="33.817610942662554" lon="-6.104416287566345"><ele>447.0</ele><time>2026-04-28T10:52:03.999Z</time></trkpt><trkpt lat="33.81773602047298" lon="-6.1047431988677126"><ele>447.0</ele><time>2026-04-28T10:52:04.999Z</time></trkpt><trkpt lat="33.81785492518494" lon="-6.105071907230578"><ele>447.0</ele><time>2026-04-28T10:52:05.999Z</time></trkpt><trkpt lat="33.817970217479406" lon="-6.105403761603915"><ele>447.0</ele><time>2026-04-28T10:52:06.999Z</time></trkpt><trkpt lat="33.818080990848856" lon="-6.105739135677945"><ele>447.0</ele><time>2026-04-28T10:52:07.999Z</time></trkpt><trkpt lat="33.8181870497965" lon="-6.106072560644833"><ele>446.0</ele><time>2026-04-28T10:52:08.999Z</time></trkpt><trkpt lat="33.81828505740297" lon="-6.106400426651886"><ele>445.0</ele><time>2026-04-28T10:52:09.999Z</time></trkpt><trkpt lat="33.81838072852493" lon="-6.106725334744132"><ele>445.0</ele><time>2026-04-28T10:52:10.999Z</time></trkpt><trkpt lat="33.81847097575103" lon="-6.107047280016696"><ele>445.0</ele><time>2026-04-28T10:52:11.999Z</time></trkpt><trkpt lat="33.81855432975796" lon="-6.10735789344496"><ele>443.0</ele><time>2026-04-28T10:52:12.999Z</time></trkpt><trkpt lat="33.81862860136529" lon="-6.107654575059069"><ele>441.0</ele><time>2026-04-28T10:52:13.999Z</time></trkpt><trkpt lat="33.81869577191823" lon="-6.107938640381056"><ele>441.0</ele><time>2026-04-28T10:52:14.999Z</time></trkpt><trkpt lat="33.81875689339005" lon="-6.108213379486261"><ele>441.0</ele><time>2026-04-28T10:52:15.999Z</time></trkpt><trkpt lat="33.81881368947726" lon="-6.1084797222366305"><ele>440.66666666666663</ele><time>2026-04-28T10:52:16.999Z</time></trkpt><trkpt lat="33.8188661136129" lon="-6.108738663658223"><ele>440.3333333333333</ele><time>2026-04-28T10:52:17.999Z</time></trkpt><trkpt lat="33.81891392489361" lon="-6.108991197719991"><ele>440.0</ele><time>2026-04-28T10:52:18.999Z</time></trkpt><trkpt lat="33.81895895576169" lon="-6.109241396787133"><ele>440.0</ele><time>2026-04-28T10:52:19.999Z</time></trkpt><trkpt lat="33.81900063229816" lon="-6.109490928485881"><ele>440.0</ele><time>2026-04-28T10:52:20.999Z</time></trkpt><trkpt lat="33.819040094899485" lon="-6.109743303719486"><ele>440.0</ele><time>2026-04-28T10:52:21.999Z</time></trkpt><trkpt lat="33.81907757580037" lon="-6.110001793111504"><ele>439.66666666666663</ele><time>2026-04-28T10:52:22.999Z</time></trkpt><trkpt lat="33.8191124543561" lon="-6.110266694315796"><ele>439.33333333333337</ele><time>2026-04-28T10:52:23.999Z</time></trkpt><trkpt lat="33.81914594120472" lon="-6.110535027848126"><ele>439.0</ele><time>2026-04-28T10:52:24.999Z</time></trkpt><trkpt lat="33.819176198431215" lon="-6.110807135146088"><ele>438.5</ele><time>2026-04-28T10:52:25.999Z</time></trkpt><trkpt lat="33.81920581886958" lon="-6.111084548561724"><ele>438.0</ele><time>2026-04-28T10:52:26.999Z</time></trkpt><trkpt lat="33.81923316853261" lon="-6.111357990990248"><ele>438.5</ele><time>2026-04-28T10:52:27.999Z</time></trkpt><trkpt lat="33.819258033670536" lon="-6.111633321583491"><ele>439.0</ele><time>2026-04-28T10:52:28.999Z</time></trkpt><trkpt lat="33.81927675853396" lon="-6.111904818770523"><ele>439.0</ele><time>2026-04-28T10:52:29.999Z</time></trkpt><trkpt lat="33.81929296226593" lon="-6.112170783142389"><ele>439.0</ele><time>2026-04-28T10:52:30.999Z</time></trkpt><trkpt lat="33.81930592003444" lon="-6.112429244734568"><ele>439.0</ele><time>2026-04-28T10:52:31.999Z</time></trkpt><trkpt lat="33.819316861497406" lon="-6.112681509980655"><ele>438.0</ele><time>2026-04-28T10:52:32.999Z</time></trkpt><trkpt lat="33.819327038579296" lon="-6.1129305403519"><ele>437.0</ele><time>2026-04-28T10:52:33.999Z</time></trkpt><trkpt lat="33.81933440545752" lon="-6.1131792861249465"><ele>436.0</ele><time>2026-04-28T10:52:34.999Z</time></trkpt><trkpt lat="33.819338272506485" lon="-6.113431521945871"><ele>436.0</ele><time>2026-04-28T10:52:35.999Z</time></trkpt><trkpt lat="33.819339491362385" lon="-6.1136890680467095"><ele>436.0</ele><time>2026-04-28T10:52:36.999Z</time></trkpt><trkpt lat="33.81933823584235" lon="-6.113948762473854"><ele>436.0</ele><time>2026-04-28T10:52:37.999Z</time></trkpt><trkpt lat="33.81933343640797" lon="-6.114207950052346"><ele>435.6666666666667</ele><time>2026-04-28T10:52:38.999Z</time></trkpt><trkpt lat="33.81932624717493" lon="-6.114470473679041"><ele>435.33333333333337</ele><time>2026-04-28T10:52:39.999Z</time></trkpt><trkpt lat="33.81931601123372" lon="-6.114734612838998"><ele>435.0</ele><time>2026-04-28T10:52:40.999Z</time></trkpt><trkpt lat="33.81930192279604" lon="-6.114998268019522"><ele>434.66666666666663</ele><time>2026-04-28T10:52:41.999Z</time></trkpt><trkpt lat="33.819286210069784" lon="-6.115263107713755"><ele>434.3333333333333</ele><time>2026-04-28T10:52:42.999Z</time></trkpt><trkpt lat="33.81926727022234" lon="-6.115526686121244"><ele>434.0</ele><time>2026-04-28T10:52:43.999Z</time></trkpt><trkpt lat="33.81924639731516" lon="-6.11578657170279"><ele>433.3333333333333</ele><time>2026-04-28T10:52:44.999Z</time></trkpt><trkpt lat="33.81922579446217" lon="-6.116042819376055"><ele>432.66666666666663</ele><time>2026-04-28T10:52:45.999Z</time></trkpt><trkpt lat="33.81920445415777" lon="-6.116298421872734"><ele>432.0</ele><time>2026-04-28T10:52:46.999Z</time></trkpt><trkpt lat="33.81918179427825" lon="-6.116551722079691"><ele>432.33333333333337</ele><time>2026-04-28T10:52:47.999Z</time></trkpt><trkpt lat="33.81915771641473" lon="-6.116808301864881"><ele>432.6666666666667</ele><time>2026-04-28T10:52:48.999Z</time></trkpt><trkpt lat="33.81913158670872" lon="-6.117063756286733"><ele>433.0</ele><time>2026-04-28T10:52:49.999Z</time></trkpt><trkpt lat="33.81910455889445" lon="-6.117321753211136"><ele>432.6666666666667</ele><time>2026-04-28T10:52:50.999Z</time></trkpt><trkpt lat="33.81907554905887" lon="-6.1175820507661856"><ele>432.33333333333337</ele><time>2026-04-28T10:52:51.999Z</time></trkpt><trkpt lat="33.8190463037893" lon="-6.117842347523769"><ele>432.0</ele><time>2026-04-28T10:52:52.999Z</time></trkpt><trkpt lat="33.819017845280364" lon="-6.11810349600276"><ele>431.66666666666663</ele><time>2026-04-28T10:52:53.999Z</time></trkpt><trkpt lat="33.81898979863592" lon="-6.118364698618601"><ele>431.3333333333333</ele><time>2026-04-28T10:52:54.999Z</time></trkpt><trkpt lat="33.8189618057008" lon="-6.11862719308487"><ele>431.0</ele><time>2026-04-28T10:52:55.999Z</time></trkpt><trkpt lat="33.81893454688121" lon="-6.118889975913302"><ele>430.3333333333333</ele><time>2026-04-28T10:52:56.999Z</time></trkpt><trkpt lat="33.81890685985695" lon="-6.119149826930062"><ele>429.66666666666663</ele><time>2026-04-28T10:52:57.999Z</time></trkpt><trkpt lat="33.81887964858358" lon="-6.119410016815998"><ele>429.0</ele><time>2026-04-28T10:52:58.999Z</time></trkpt><trkpt lat="33.81885162011754" lon="-6.119669834443201"><ele>428.33333333333337</ele><time>2026-04-28T10:52:59.999Z</time></trkpt><trkpt lat="33.81882349185552" lon="-6.1199320347112485"><ele>427.6666666666667</ele><time>2026-04-28T10:53:00.999Z</time></trkpt><trkpt lat="33.8187938077372" lon="-6.120195161485384"><ele>427.0</ele><time>2026-04-28T10:53:01.999Z</time></trkpt><trkpt lat="33.81876362552817" lon="-6.120458740224891"><ele>427.0</ele><time>2026-04-28T10:53:02.999Z</time></trkpt><trkpt lat="33.81873481495154" lon="-6.1207236515150685"><ele>427.0</ele><time>2026-04-28T10:53:03.999Z</time></trkpt><trkpt lat="33.81870707626094" lon="-6.120989201893037"><ele>427.0</ele><time>2026-04-28T10:53:04.999Z</time></trkpt><trkpt lat="33.81867913075836" lon="-6.121257703463291"><ele>427.0</ele><time>2026-04-28T10:53:05.999Z</time></trkpt><trkpt lat="33.81865224395588" lon="-6.121535678346902"><ele>427.0</ele><time>2026-04-28T10:53:06.999Z</time></trkpt><trkpt lat="33.818623030973775" lon="-6.121820973096559"><ele>427.0</ele><time>2026-04-28T10:53:07.999Z</time></trkpt><trkpt lat="33.818590898822" lon="-6.122112438421854"><ele>427.0</ele><time>2026-04-28T10:53:08.999Z</time></trkpt><trkpt lat="33.81855698096445" lon="-6.122410303405784"><ele>426.0</ele><time>2026-04-28T10:53:09.999Z</time></trkpt><trkpt lat="33.81852396590727" lon="-6.122712232650531"><ele>425.0</ele><time>2026-04-28T10:53:10.998Z</time></trkpt><trkpt lat="33.818491592450194" lon="-6.123020224845857"><ele>424.0</ele><time>2026-04-28T10:53:12Z</time></trkpt><trkpt lat="33.81845937508405" lon="-6.123331669524824"><ele>423.0</ele><time>2026-04-28T10:53:13Z</time></trkpt><trkpt lat="33.818426476660335" lon="-6.123649105439157"><ele>423.0</ele><time>2026-04-28T10:53:14Z</time></trkpt><trkpt lat="33.81839167429085" lon="-6.123973193472035"><ele>423.0</ele><time>2026-04-28T10:53:15Z</time></trkpt><trkpt lat="33.8183545145812" lon="-6.124307248682382"><ele>422.5</ele><time>2026-04-28T10:53:16Z</time></trkpt><trkpt lat="33.818316207932476" lon="-6.12464861248811"><ele>422.0</ele><time>2026-04-28T10:53:17Z</time></trkpt><trkpt lat="33.81827774166122" lon="-6.1249948275430794"><ele>421.0</ele><time>2026-04-28T10:53:18Z</time></trkpt><trkpt lat="33.81824022578688" lon="-6.125346306268923"><ele>420.0</ele><time>2026-04-28T10:53:19Z</time></trkpt><trkpt lat="33.81820363643603" lon="-6.125700161822358"><ele>419.5</ele><time>2026-04-28T10:53:20Z</time></trkpt><trkpt lat="33.81816628692819" lon="-6.126055389125775"><ele>419.0</ele><time>2026-04-28T10:53:21Z</time></trkpt><trkpt lat="33.81812975603364" lon="-6.126410099432013"><ele>419.5</ele><time>2026-04-28T10:53:22Z</time></trkpt><trkpt lat="33.81809690760527" lon="-6.126766275708944"><ele>420.0</ele><time>2026-04-28T10:53:23Z</time></trkpt><trkpt lat="33.818067960092996" lon="-6.127123045355071"><ele>421.0</ele><time>2026-04-28T10:53:24Z</time></trkpt><trkpt lat="33.81804308503637" lon="-6.127479715909313"><ele>422.0</ele><time>2026-04-28T10:53:25Z</time></trkpt><trkpt lat="33.81802189781631" lon="-6.1278358778352535"><ele>422.0</ele><time>2026-04-28T10:53:26Z</time></trkpt><trkpt lat="33.81800404067346" lon="-6.128193665341715"><ele>422.0</ele><time>2026-04-28T10:53:27Z</time></trkpt><trkpt lat="33.81798802760334" lon="-6.128549432007168"><ele>423.0</ele><time>2026-04-28T10:53:28Z</time></trkpt><trkpt lat="33.81797412596905" lon="-6.128906414856754"><ele>424.0</ele><time>2026-04-28T10:53:29Z</time></trkpt><trkpt lat="33.81796255736947" lon="-6.129264567094448"><ele>424.0</ele><time>2026-04-28T10:53:30Z</time></trkpt><trkpt lat="33.817953275389144" lon="-6.129624495542348"><ele>424.0</ele><time>2026-04-28T10:53:31Z</time></trkpt><trkpt lat="33.81794487338228" lon="-6.129984858756263"><ele>424.0</ele><time>2026-04-28T10:53:32Z</time></trkpt><trkpt lat="33.817939686378956" lon="-6.130342440716217"><ele>424.0</ele><time>2026-04-28T10:53:33Z</time></trkpt><trkpt lat="33.8179402681731" lon="-6.130700759773989"><ele>425.0</ele><time>2026-04-28T10:53:34Z</time></trkpt><trkpt lat="33.817944394705194" lon="-6.131059024934404"><ele>426.0</ele><time>2026-04-28T10:53:35Z</time></trkpt><trkpt lat="33.817952539452065" lon="-6.131418631926241"><ele>425.5</ele><time>2026-04-28T10:53:36Z</time></trkpt><trkpt lat="33.81795596636424" lon="-6.131778057103549"><ele>425.0</ele><time>2026-04-28T10:53:37Z</time></trkpt><trkpt lat="33.817965845260254" lon="-6.1321376274537265"><ele>424.5</ele><time>2026-04-28T10:53:38Z</time></trkpt><trkpt lat="33.81797825934791" lon="-6.132497255010969"><ele>424.0</ele><time>2026-04-28T10:53:39Z</time></trkpt><trkpt lat="33.81799606761584" lon="-6.132856832106436"><ele>424.0</ele><time>2026-04-28T10:53:39.999Z</time></trkpt><trkpt lat="33.818013021788964" lon="-6.133214370051662"><ele>424.0</ele><time>2026-04-28T10:53:40.999Z</time></trkpt><trkpt lat="33.81803409674312" lon="-6.133572200634594"><ele>423.0</ele><time>2026-04-28T10:53:41.999Z</time></trkpt><trkpt lat="33.81806395239" lon="-6.13392797367827"><ele>422.0</ele><time>2026-04-28T10:53:42.999Z</time></trkpt><trkpt lat="33.81809376795117" lon="-6.134284751617296"><ele>421.5</ele><time>2026-04-28T10:53:43.999Z</time></trkpt><trkpt lat="33.81812653950657" lon="-6.134639623050911"><ele>421.0</ele><time>2026-04-28T10:53:44.999Z</time></trkpt><trkpt lat="33.81816275208519" lon="-6.134994003730964"><ele>421.0</ele><time>2026-04-28T10:53:45.999Z</time></trkpt><trkpt lat="33.818204377736585" lon="-6.135347899037676"><ele>421.0</ele><time>2026-04-28T10:53:46.999Z</time></trkpt><trkpt lat="33.81824767648144" lon="-6.135704247635922"><ele>420.5</ele><time>2026-04-28T10:53:47.999Z</time></trkpt><trkpt lat="33.81829402223784" lon="-6.136060447670144"><ele>420.0</ele><time>2026-04-28T10:53:48.999Z</time></trkpt><trkpt lat="33.81833652398731" lon="-6.136416562612864"><ele>421.0</ele><time>2026-04-28T10:53:49.999Z</time></trkpt><trkpt lat="33.818380801388535" lon="-6.136771443162546"><ele>422.0</ele><time>2026-04-28T10:53:50.999Z</time></trkpt><trkpt lat="33.81842903086392" lon="-6.137127365975406"><ele>423.0</ele><time>2026-04-28T10:53:51.999Z</time></trkpt><trkpt lat="33.818474846694286" lon="-6.137484625582878"><ele>424.0</ele><time>2026-04-28T10:53:52.999Z</time></trkpt><trkpt lat="33.81851735812257" lon="-6.1378422268511725"><ele>424.0</ele><time>2026-04-28T10:53:53.999Z</time></trkpt><trkpt lat="33.818558352046054" lon="-6.1382004434951085"><ele>424.0</ele><time>2026-04-28T10:53:54.999Z</time></trkpt><trkpt lat="33.818595899721856" lon="-6.138558148841757"><ele>424.0</ele><time>2026-04-28T10:53:55.999Z</time></trkpt><trkpt lat="33.81863404039359" lon="-6.138916348042442"><ele>424.0</ele><time>2026-04-28T10:53:56.999Z</time></trkpt><trkpt lat="33.818670808533966" lon="-6.139275975978966"><ele>424.0</ele><time>2026-04-28T10:53:57.999Z</time></trkpt><trkpt lat="33.818708940537356" lon="-6.139634430123432"><ele>424.0</ele><time>2026-04-28T10:53:58.999Z</time></trkpt><trkpt lat="33.81874362916301" lon="-6.139993486466429"><ele>424.0</ele><time>2026-04-28T10:53:59.999Z</time></trkpt><trkpt lat="33.81877789842468" lon="-6.140353113283179"><ele>424.0</ele><time>2026-04-28T10:54:00.999Z</time></trkpt><trkpt lat="33.81880852135648" lon="-6.140712574773519"><ele>423.0</ele><time>2026-04-28T10:54:01.999Z</time></trkpt><trkpt lat="33.81883333203294" lon="-6.141071055364847"><ele>422.0</ele><time>2026-04-28T10:54:02.999Z</time></trkpt><trkpt lat="33.81885324127507" lon="-6.141430326124937"><ele>421.0</ele><time>2026-04-28T10:54:03.999Z</time></trkpt><trkpt lat="33.818870585719964" lon="-6.141788940469785"><ele>420.0</ele><time>2026-04-28T10:54:04.999Z</time></trkpt><trkpt lat="33.818883762995526" lon="-6.142146431845119"><ele>418.0</ele><time>2026-04-28T10:54:05.999Z</time></trkpt><trkpt lat="33.81890042646225" lon="-6.142504824734752"><ele>416.0</ele><time>2026-04-28T10:54:06.999Z</time></trkpt><trkpt lat="33.818915485779605" lon="-6.142861884245697"><ele>416.0</ele><time>2026-04-28T10:54:07.999Z</time></trkpt><trkpt lat="33.818929522969896" lon="-6.143218436778973"><ele>416.0</ele><time>2026-04-28T10:54:08.999Z</time></trkpt><trkpt lat="33.8189437881393" lon="-6.1435749801133746"><ele>416.0</ele><time>2026-04-28T10:54:09.999Z</time></trkpt><trkpt lat="33.81895797687028" lon="-6.143932369279116"><ele>416.0</ele><time>2026-04-28T10:54:10.999Z</time></trkpt><trkpt lat="33.81897137449377" lon="-6.144291914790127"><ele>415.5</ele><time>2026-04-28T10:54:11.999Z</time></trkpt><trkpt lat="33.818983321932855" lon="-6.14465291570296"><ele>415.0</ele><time>2026-04-28T10:54:12.999Z</time></trkpt><trkpt lat="33.81898907343955" lon="-6.1450201483369415"><ele>413.5</ele><time>2026-04-28T10:54:13.999Z</time></trkpt><trkpt lat="33.818990111975076" lon="-6.145392487431938"><ele>412.0</ele><time>2026-04-28T10:54:14.999Z</time></trkpt><trkpt lat="33.818985970999414" lon="-6.1457673203757635"><ele>411.0</ele><time>2026-04-28T10:54:15.999Z</time></trkpt><trkpt lat="33.81898428116193" lon="-6.14614773573231"><ele>410.0</ele><time>2026-04-28T10:54:16.999Z</time></trkpt><trkpt lat="33.81898384702648" lon="-6.146531624996494"><ele>410.5</ele><time>2026-04-28T10:54:17.999Z</time></trkpt><trkpt lat="33.81898087100908" lon="-6.146916297970836"><ele>411.0</ele><time>2026-04-28T10:54:18.999Z</time></trkpt><trkpt lat="33.81897248963959" lon="-6.147301688508198"><ele>410.0</ele><time>2026-04-28T10:54:19.999Z</time></trkpt><trkpt lat="33.81896253915473" lon="-6.147687481016367"><ele>409.0</ele><time>2026-04-28T10:54:20.999Z</time></trkpt><trkpt lat="33.81895085072409" lon="-6.14807527127758"><ele>409.0</ele><time>2026-04-28T10:54:21.999Z</time></trkpt><trkpt lat="33.81893998188646" lon="-6.14846489603878"><ele>409.0</ele><time>2026-04-28T10:54:22.999Z</time></trkpt><trkpt lat="33.81892903046355" lon="-6.1488558179180295"><ele>409.5</ele><time>2026-04-28T10:54:23.999Z</time></trkpt><trkpt lat="33.81891876721898" lon="-6.1492488922805615"><ele>410.0</ele><time>2026-04-28T10:54:24.999Z</time></trkpt><trkpt lat="33.81890885995071" lon="-6.149643217496133"><ele>410.0</ele><time>2026-04-28T10:54:25.999Z</time></trkpt><trkpt lat="33.818900104939225" lon="-6.150036010086513"><ele>410.0</ele><time>2026-04-28T10:54:26.999Z</time></trkpt><trkpt lat="33.81889455896751" lon="-6.1504316662603085"><ele>410.0</ele><time>2026-04-28T10:54:27.999Z</time></trkpt><trkpt lat="33.81888443833469" lon="-6.150822033189151"><ele>410.0</ele><time>2026-04-28T10:54:28.999Z</time></trkpt><trkpt lat="33.8188807900837" lon="-6.15121131496569"><ele>409.0</ele><time>2026-04-28T10:54:29.999Z</time></trkpt><trkpt lat="33.81887935689107" lon="-6.151600989600593"><ele>408.0</ele><time>2026-04-28T10:54:30.999Z</time></trkpt><trkpt lat="33.8188831764193" lon="-6.151989768988838"><ele>409.0</ele><time>2026-04-28T10:54:31.999Z</time></trkpt><trkpt lat="33.81889404318925" lon="-6.152379190744596"><ele>410.0</ele><time>2026-04-28T10:54:32.999Z</time></trkpt><trkpt lat="33.81890985251673" lon="-6.152766753766303"><ele>410.0</ele><time>2026-04-28T10:54:33.999Z</time></trkpt><trkpt lat="33.81893145420955" lon="-6.153153657239683"><ele>410.0</ele><time>2026-04-28T10:54:34.999Z</time></trkpt><trkpt lat="33.81895592305163" lon="-6.153538842878468"><ele>411.0</ele><time>2026-04-28T10:54:35.999Z</time></trkpt><trkpt lat="33.81897894158667" lon="-6.153926808161572"><ele>412.0</ele><time>2026-04-28T10:54:36.999Z</time></trkpt><trkpt lat="33.81900338758563" lon="-6.154317088533118"><ele>412.0</ele><time>2026-04-28T10:54:37.999Z</time></trkpt><trkpt lat="33.8190292055669" lon="-6.154707794792665"><ele>412.0</ele><time>2026-04-28T10:54:38.999Z</time></trkpt><trkpt lat="33.81905921693311" lon="-6.155097444152627"><ele>412.0</ele><time>2026-04-28T10:54:39.999Z</time></trkpt><trkpt lat="33.819093618539426" lon="-6.1554846726528725"><ele>412.0</ele><time>2026-04-28T10:54:40.999Z</time></trkpt><trkpt lat="33.8191304804603" lon="-6.155869839744256"><ele>412.5</ele><time>2026-04-28T10:54:41.999Z</time></trkpt><trkpt lat="33.819172784302715" lon="-6.156252153217045"><ele>413.0</ele><time>2026-04-28T10:54:42.999Z</time></trkpt><trkpt lat="33.81921887073933" lon="-6.156631357155995"><ele>414.0</ele><time>2026-04-28T10:54:43.999Z</time></trkpt><trkpt lat="33.81926929476879" lon="-6.157008304377965"><ele>415.0</ele><time>2026-04-28T10:54:44.999Z</time></trkpt><trkpt lat="33.819318797572635" lon="-6.157388683001639"><ele>416.5</ele><time>2026-04-28T10:54:45.999Z</time></trkpt><trkpt lat="33.81936911454664" lon="-6.157772895115568"><ele>418.0</ele><time>2026-04-28T10:54:46.999Z</time></trkpt><trkpt lat="33.819423474076004" lon="-6.158159344362393"><ele>418.0</ele><time>2026-04-28T10:54:47.999Z</time></trkpt><trkpt lat="33.819484034351234" lon="-6.158550566307685"><ele>418.0</ele><time>2026-04-28T10:54:48.999Z</time></trkpt><trkpt lat="33.8195482389" lon="-6.158939431104886"><ele>419.5</ele><time>2026-04-28T10:54:49.999Z</time></trkpt><trkpt lat="33.819612536490915" lon="-6.159329178847755"><ele>421.0</ele><time>2026-04-28T10:54:50.999Z</time></trkpt><trkpt lat="33.819681056330076" lon="-6.1597166795395975"><ele>422.0</ele><time>2026-04-28T10:54:51.999Z</time></trkpt><trkpt lat="33.819752834657464" lon="-6.16010368633179"><ele>423.0</ele><time>2026-04-28T10:54:52.999Z</time></trkpt><trkpt lat="33.819826247465166" lon="-6.160489175778233"><ele>424.0</ele><time>2026-04-28T10:54:53.999Z</time></trkpt><trkpt lat="33.81989782604793" lon="-6.160874449085472"><ele>425.0</ele><time>2026-04-28T10:54:54.999Z</time></trkpt><trkpt lat="33.81997169715328" lon="-6.161262884233464"><ele>425.5</ele><time>2026-04-28T10:54:55.999Z</time></trkpt><trkpt lat="33.82004257055528" lon="-6.161654521456455"><ele>426.0</ele><time>2026-04-28T10:54:56.999Z</time></trkpt><trkpt lat="33.82011241758378" lon="-6.16204849040428"><ele>427.5</ele><time>2026-04-28T10:54:57.999Z</time></trkpt><trkpt lat="33.82018104389778" lon="-6.162442988845249"><ele>429.0</ele><time>2026-04-28T10:54:58.999Z</time></trkpt><trkpt lat="33.82024894188418" lon="-6.162839130947996"><ele>430.5</ele><time>2026-04-28T10:54:59.999Z</time></trkpt><trkpt lat="33.82031138424949" lon="-6.163236290256986"><ele>432.0</ele><time>2026-04-28T10:55:00.999Z</time></trkpt><trkpt lat="33.820371775946995" lon="-6.163633709600988"><ele>432.0</ele><time>2026-04-28T10:55:01.999Z</time></trkpt><trkpt lat="33.82042654557036" lon="-6.16403368520224"><ele>432.0</ele><time>2026-04-28T10:55:02.999Z</time></trkpt><trkpt lat="33.82047519178397" lon="-6.164434557799763"><ele>432.0</ele><time>2026-04-28T10:55:03.999Z</time></trkpt><trkpt lat="33.82051374961148" lon="-6.16483613214356"><ele>432.0</ele><time>2026-04-28T10:55:04.999Z</time></trkpt><trkpt lat="33.82054625408027" lon="-6.165235047896787"><ele>432.0</ele><time>2026-04-28T10:55:05.999Z</time></trkpt><trkpt lat="33.82058706554685" lon="-6.165624519255977"><ele>432.0</ele><time>2026-04-28T10:55:06.999Z</time></trkpt><trkpt lat="33.82061304652325" lon="-6.166003551136351"><ele>432.0</ele><time>2026-04-28T10:55:07.999Z</time></trkpt><trkpt lat="33.82063568466718" lon="-6.166373476034232"><ele>432.0</ele><time>2026-04-28T10:55:08.999Z</time></trkpt><trkpt lat="33.82065701211595" lon="-6.166736061921381"><ele>432.0</ele><time>2026-04-28T10:55:09.999Z</time></trkpt><trkpt lat="33.82067611280238" lon="-6.167094237069855"><ele>432.0</ele><time>2026-04-28T10:55:10.999Z</time></trkpt><trkpt lat="33.820693042163626" lon="-6.167450793296028"><ele>433.0</ele><time>2026-04-28T10:55:11.999Z</time></trkpt><trkpt lat="33.820705054390736" lon="-6.167806433455482"><ele>434.0</ele><time>2026-04-28T10:55:12.998Z</time></trkpt><trkpt lat="33.820714620099324" lon="-6.168161630493534"><ele>435.0</ele><time>2026-04-28T10:55:13.998Z</time></trkpt><trkpt lat="33.8207217556166" lon="-6.168513567851198"><ele>436.0</ele><time>2026-04-28T10:55:14.998Z</time></trkpt><trkpt lat="33.820724388131175" lon="-6.168857891980285"><ele>436.5</ele><time>2026-04-28T10:55:15.998Z</time></trkpt><trkpt lat="33.8207225052378" lon="-6.169194071361879"><ele>437.0</ele><time>2026-04-28T10:55:16.998Z</time></trkpt><trkpt lat="33.820718342917104" lon="-6.169520941472003"><ele>437.0</ele><time>2026-04-28T10:55:18Z</time></trkpt><trkpt lat="33.82071308901012" lon="-6.169837556112341"><ele>437.0</ele><time>2026-04-28T10:55:19Z</time></trkpt><trkpt lat="33.820706406408256" lon="-6.170142958344528"><ele>437.0</ele><time>2026-04-28T10:55:20Z</time></trkpt><trkpt lat="33.82069732909985" lon="-6.170431929234242"><ele>437.0</ele><time>2026-04-28T10:55:21Z</time></trkpt><trkpt lat="33.820687308916014" lon="-6.1707071864197465"><ele>437.0</ele><time>2026-04-28T10:55:22Z</time></trkpt><trkpt lat="33.82067603009174" lon="-6.170972870129275"><ele>437.0</ele><time>2026-04-28T10:55:23Z</time></trkpt><trkpt lat="33.820663916050464" lon="-6.171233236125043"><ele>437.0</ele><time>2026-04-28T10:55:24Z</time></trkpt><trkpt lat="33.8206487923137" lon="-6.171490036154761"><ele>437.3333333333333</ele><time>2026-04-28T10:55:25Z</time></trkpt><trkpt lat="33.82062947442889" lon="-6.171743928008341"><ele>437.66666666666663</ele><time>2026-04-28T10:55:26Z</time></trkpt><trkpt lat="33.82060918717257" lon="-6.171995392699456"><ele>438.0</ele><time>2026-04-28T10:55:27Z</time></trkpt><trkpt lat="33.82058843622789" lon="-6.1722478668667735"><ele>438.66666666666663</ele><time>2026-04-28T10:55:28Z</time></trkpt><trkpt lat="33.820566216668105" lon="-6.172502380967874"><ele>439.3333333333333</ele><time>2026-04-28T10:55:29Z</time></trkpt><trkpt lat="33.82054486373395" lon="-6.1727580348497595"><ele>440.0</ele><time>2026-04-28T10:55:30Z</time></trkpt><trkpt lat="33.82052606706205" lon="-6.1730145990773115"><ele>440.0</ele><time>2026-04-28T10:55:31Z</time></trkpt><trkpt lat="33.820507977462675" lon="-6.173272272225089"><ele>440.0</ele><time>2026-04-28T10:55:32Z</time></trkpt><trkpt lat="33.820488469666124" lon="-6.173532389422405"><ele>440.0</ele><time>2026-04-28T10:55:33Z</time></trkpt><trkpt lat="33.82046870786769" lon="-6.17379511241917"><ele>439.5</ele><time>2026-04-28T10:55:34Z</time></trkpt><trkpt lat="33.82044742594203" lon="-6.174058777329132"><ele>439.0</ele><time>2026-04-28T10:55:35Z</time></trkpt><trkpt lat="33.820426364713285" lon="-6.174333806991145"><ele>439.0</ele><time>2026-04-28T10:55:36Z</time></trkpt><trkpt lat="33.820406979492724" lon="-6.174627714488739"><ele>439.0</ele><time>2026-04-28T10:55:37Z</time></trkpt><trkpt lat="33.820387445994626" lon="-6.174930447585357"><ele>440.0</ele><time>2026-04-28T10:55:38Z</time></trkpt><trkpt lat="33.8203699220295" lon="-6.175246549432614"><ele>441.0</ele><time>2026-04-28T10:55:39Z</time></trkpt><trkpt lat="33.82035601215769" lon="-6.175574004232178"><ele>440.5</ele><time>2026-04-28T10:55:40Z</time></trkpt><trkpt lat="33.82034309933999" lon="-6.175892264703461"><ele>440.0</ele><time>2026-04-28T10:55:40.999Z</time></trkpt><trkpt lat="33.82033059237607" lon="-6.176212963323998"><ele>440.5</ele><time>2026-04-28T10:55:41.999Z</time></trkpt><trkpt lat="33.82032063485831" lon="-6.176541025281638"><ele>441.0</ele><time>2026-04-28T10:55:42.999Z</time></trkpt><trkpt lat="33.8203138719113" lon="-6.176874160742913"><ele>441.0</ele><time>2026-04-28T10:55:43.999Z</time></trkpt><trkpt lat="33.82030918825872" lon="-6.177213838410903"><ele>441.0</ele><time>2026-04-28T10:55:44.999Z</time></trkpt><trkpt lat="33.82030828254625" lon="-6.1775608281378975"><ele>440.5</ele><time>2026-04-28T10:55:45.999Z</time></trkpt><trkpt lat="33.82031302043319" lon="-6.17790749671702"><ele>440.0</ele><time>2026-04-28T10:55:46.999Z</time></trkpt><trkpt lat="33.82032058140187" lon="-6.178250028157304"><ele>438.5</ele><time>2026-04-28T10:55:47.999Z</time></trkpt><trkpt lat="33.82033121524674" lon="-6.178594804531067"><ele>437.0</ele><time>2026-04-28T10:55:48.999Z</time></trkpt><trkpt lat="33.82034331888638" lon="-6.1789348505354855"><ele>436.5</ele><time>2026-04-28T10:55:49.999Z</time></trkpt><trkpt lat="33.82036057427706" lon="-6.179275051293723"><ele>436.0</ele><time>2026-04-28T10:55:50.999Z</time></trkpt><trkpt lat="33.82038248641797" lon="-6.179612443521668"><ele>436.5</ele><time>2026-04-28T10:55:51.999Z</time></trkpt><trkpt lat="33.8204100545201" lon="-6.1799520094652864"><ele>437.0</ele><time>2026-04-28T10:55:52.999Z</time></trkpt><trkpt lat="33.82044092541473" lon="-6.180299339786656"><ele>437.0</ele><time>2026-04-28T10:55:53.999Z</time></trkpt><trkpt lat="33.82047309915213" lon="-6.180649498706127"><ele>437.0</ele><time>2026-04-28T10:55:54.999Z</time></trkpt><trkpt lat="33.82050532125692" lon="-6.181000796629512"><ele>437.0</ele><time>2026-04-28T10:55:55.999Z</time></trkpt><trkpt lat="33.820538751165515" lon="-6.181348235831675"><ele>437.0</ele><time>2026-04-28T10:55:56.999Z</time></trkpt><trkpt lat="33.820572214718574" lon="-6.181694952814095"><ele>437.5</ele><time>2026-04-28T10:55:57.999Z</time></trkpt><trkpt lat="33.8206038853216" lon="-6.182043238092366"><ele>438.0</ele><time>2026-04-28T10:55:58.999Z</time></trkpt><trkpt lat="33.8206380256041" lon="-6.182391842646025"><ele>436.5</ele><time>2026-04-28T10:55:59.999Z</time></trkpt><trkpt lat="33.82067156291855" lon="-6.182742313127619"><ele>435.0</ele><time>2026-04-28T10:56:00.999Z</time></trkpt><trkpt lat="33.82070297970396" lon="-6.1830893294152975"><ele>434.5</ele><time>2026-04-28T10:56:01.999Z</time></trkpt><trkpt lat="33.82073505589429" lon="-6.183435510698528"><ele>434.0</ele><time>2026-04-28T10:56:02.999Z</time></trkpt><trkpt lat="33.82076751659906" lon="-6.183783891171112"><ele>435.5</ele><time>2026-04-28T10:56:03.999Z</time></trkpt><trkpt lat="33.82079984481003" lon="-6.184131988604125"><ele>437.0</ele><time>2026-04-28T10:56:04.999Z</time></trkpt><trkpt lat="33.82083119055357" lon="-6.184481033875089"><ele>437.0</ele><time>2026-04-28T10:56:05.999Z</time></trkpt><trkpt lat="33.82086253422682" lon="-6.184830791836913"><ele>437.0</ele><time>2026-04-28T10:56:06.999Z</time></trkpt><trkpt lat="33.820893077036246" lon="-6.185180895702149"><ele>437.0</ele><time>2026-04-28T10:56:07.999Z</time></trkpt><trkpt lat="33.82092512306302" lon="-6.185531718455537"><ele>437.0</ele><time>2026-04-28T10:56:08.999Z</time></trkpt><trkpt lat="33.82095751651689" lon="-6.185882004141048"><ele>437.0</ele><time>2026-04-28T10:56:09.999Z</time></trkpt><trkpt lat="33.82099099001796" lon="-6.18623390389165"><ele>437.0</ele><time>2026-04-28T10:56:10.999Z</time></trkpt><trkpt lat="33.821024259635436" lon="-6.186586995858182"><ele>436.5</ele><time>2026-04-28T10:56:11.999Z</time></trkpt><trkpt lat="33.82105551498707" lon="-6.186940394211926"><ele>436.0</ele><time>2026-04-28T10:56:12.999Z</time></trkpt><trkpt lat="33.821084476181106" lon="-6.187293636152181"><ele>436.0</ele><time>2026-04-28T10:56:13.999Z</time></trkpt><trkpt lat="33.82111487515861" lon="-6.187647828712915"><ele>436.0</ele><time>2026-04-28T10:56:14.999Z</time></trkpt><trkpt lat="33.821147985837676" lon="-6.188001465190914"><ele>436.0</ele><time>2026-04-28T10:56:15.999Z</time></trkpt><trkpt lat="33.821181769647026" lon="-6.1883544681407745"><ele>436.0</ele><time>2026-04-28T10:56:16.999Z</time></trkpt><trkpt lat="33.82121256344019" lon="-6.188708061863762"><ele>435.5</ele><time>2026-04-28T10:56:17.999Z</time></trkpt><trkpt lat="33.82124905252836" lon="-6.1890607612986335"><ele>435.0</ele><time>2026-04-28T10:56:18.999Z</time></trkpt><trkpt lat="33.82128447857501" lon="-6.189413331079982"><ele>435.0</ele><time>2026-04-28T10:56:19.999Z</time></trkpt><trkpt lat="33.82131770044688" lon="-6.189767673138001"><ele>435.0</ele><time>2026-04-28T10:56:20.999Z</time></trkpt><trkpt lat="33.82134874906121" lon="-6.190123628961913"><ele>435.5</ele><time>2026-04-28T10:56:21.999Z</time></trkpt><trkpt lat="33.821377072352405" lon="-6.190478348742466"><ele>436.0</ele><time>2026-04-28T10:56:22.999Z</time></trkpt><trkpt lat="33.82140859578038" lon="-6.190833272506678"><ele>436.0</ele><time>2026-04-28T10:56:23.999Z</time></trkpt><trkpt lat="33.82143873176505" lon="-6.19119071293776"><ele>436.0</ele><time>2026-04-28T10:56:24.999Z</time></trkpt><trkpt lat="33.821469897411355" lon="-6.191548942105532"><ele>436.5</ele><time>2026-04-28T10:56:25.999Z</time></trkpt><trkpt lat="33.82149576632834" lon="-6.191906354532443"><ele>437.0</ele><time>2026-04-28T10:56:26.999Z</time></trkpt><trkpt lat="33.821524728800824" lon="-6.1922632167214555"><ele>435.5</ele><time>2026-04-28T10:56:27.999Z</time></trkpt><trkpt lat="33.82155592423973" lon="-6.192618520215884"><ele>434.0</ele><time>2026-04-28T10:56:28.999Z</time></trkpt><trkpt lat="33.821588719212585" lon="-6.192974523980992"><ele>433.5</ele><time>2026-04-28T10:56:29.999Z</time></trkpt><trkpt lat="33.82162445260941" lon="-6.193329174196509"><ele>433.0</ele><time>2026-04-28T10:56:30.999Z</time></trkpt><trkpt lat="33.821659242201235" lon="-6.193683705657731"><ele>433.0</ele><time>2026-04-28T10:56:31.999Z</time></trkpt><trkpt lat="33.82168868819272" lon="-6.194037551725305"><ele>433.0</ele><time>2026-04-28T10:56:32.999Z</time></trkpt><trkpt lat="33.82172105444315" lon="-6.194393095697392"><ele>433.0</ele><time>2026-04-28T10:56:33.999Z</time></trkpt><trkpt lat="33.82175329622963" lon="-6.194749681754664"><ele>433.0</ele><time>2026-04-28T10:56:34.999Z</time></trkpt><trkpt lat="33.821781680324904" lon="-6.195106827135639"><ele>433.0</ele><time>2026-04-28T10:56:35.999Z</time></trkpt><trkpt lat="33.82181415037311" lon="-6.195464609838446"><ele>433.0</ele><time>2026-04-28T10:56:36.999Z</time></trkpt><trkpt lat="33.82185297175893" lon="-6.195821242865094"><ele>433.5</ele><time>2026-04-28T10:56:37.999Z</time></trkpt><trkpt lat="33.82188712133332" lon="-6.196176491443151"><ele>434.0</ele><time>2026-04-28T10:56:38.999Z</time></trkpt><trkpt lat="33.82192011149962" lon="-6.196535092848023"><ele>432.0</ele><time>2026-04-28T10:56:39.999Z</time></trkpt><trkpt lat="33.82195242032741" lon="-6.19689156032899"><ele>430.0</ele><time>2026-04-28T10:56:40.999Z</time></trkpt><trkpt lat="33.8219853568847" lon="-6.197247686779647"><ele>430.5</ele><time>2026-04-28T10:56:41.999Z</time></trkpt><trkpt lat="33.82201628362465" lon="-6.1976042811713326"><ele>431.0</ele><time>2026-04-28T10:56:42.999Z</time></trkpt><trkpt lat="33.822048753962086" lon="-6.197960934794783"><ele>430.5</ele><time>2026-04-28T10:56:43.999Z</time></trkpt><trkpt lat="33.82207851439575" lon="-6.198320605711857"><ele>430.0</ele><time>2026-04-28T10:56:44.999Z</time></trkpt><trkpt lat="33.8221096583907" lon="-6.1986784130275225"><ele>428.0</ele><time>2026-04-28T10:56:45.999Z</time></trkpt><trkpt lat="33.822136404817314" lon="-6.199037416152607"><ele>426.0</ele><time>2026-04-28T10:56:46.999Z</time></trkpt><trkpt lat="33.82216517431634" lon="-6.199396626769964"><ele>426.0</ele><time>2026-04-28T10:56:47.999Z</time></trkpt><trkpt lat="33.82219392377284" lon="-6.19975440888581"><ele>426.0</ele><time>2026-04-28T10:56:48.999Z</time></trkpt><trkpt lat="33.82222757142357" lon="-6.200112265645227"><ele>426.5</ele><time>2026-04-28T10:56:49.999Z</time></trkpt><trkpt lat="33.82225586645" lon="-6.200472007352362"><ele>427.0</ele><time>2026-04-28T10:56:50.999Z</time></trkpt><trkpt lat="33.82228623338091" lon="-6.200831767783416"><ele>427.5</ele><time>2026-04-28T10:56:51.999Z</time></trkpt><trkpt lat="33.82231737337145" lon="-6.201189240408098"><ele>428.0</ele><time>2026-04-28T10:56:52.999Z</time></trkpt><trkpt lat="33.82235167842794" lon="-6.201547279746983"><ele>429.0</ele><time>2026-04-28T10:56:53.999Z</time></trkpt><trkpt lat="33.822381774451635" lon="-6.201904843943832"><ele>430.0</ele><time>2026-04-28T10:56:54.999Z</time></trkpt><trkpt lat="33.822414339614255" lon="-6.202261909916526"><ele>428.5</ele><time>2026-04-28T10:56:55.999Z</time></trkpt><trkpt lat="33.82244588821784" lon="-6.202618973401608"><ele>427.0</ele><time>2026-04-28T10:56:56.999Z</time></trkpt><trkpt lat="33.82247571690215" lon="-6.202974885129572"><ele>427.0</ele><time>2026-04-28T10:56:57.999Z</time></trkpt><trkpt lat="33.82250821298141" lon="-6.203329872046686"><ele>427.0</ele><time>2026-04-28T10:56:58.999Z</time></trkpt><trkpt lat="33.82253926873658" lon="-6.203684278655901"><ele>427.5</ele><time>2026-04-28T10:56:59.999Z</time></trkpt><trkpt lat="33.82257097337477" lon="-6.204037655496833"><ele>428.0</ele><time>2026-04-28T10:57:00.999Z</time></trkpt><trkpt lat="33.82260531052274" lon="-6.204391231472054"><ele>428.0</ele><time>2026-04-28T10:57:01.999Z</time></trkpt><trkpt lat="33.82263957230387" lon="-6.2047427010775795"><ele>428.0</ele><time>2026-04-28T10:57:02.999Z</time></trkpt><trkpt lat="33.82267571325731" lon="-6.20509653079299"><ele>427.5</ele><time>2026-04-28T10:57:03.999Z</time></trkpt><trkpt lat="33.82271290882881" lon="-6.2054510922795645"><ele>427.0</ele><time>2026-04-28T10:57:04.999Z</time></trkpt><trkpt lat="33.822748767884015" lon="-6.205806673474272"><ele>427.0</ele><time>2026-04-28T10:57:05.999Z</time></trkpt><trkpt lat="33.82278763623756" lon="-6.206162759250347"><ele>427.0</ele><time>2026-04-28T10:57:06.999Z</time></trkpt><trkpt lat="33.82282405420431" lon="-6.206519650262841"><ele>427.0</ele><time>2026-04-28T10:57:07.999Z</time></trkpt><trkpt lat="33.82286436888581" lon="-6.206877592340894"><ele>427.0</ele><time>2026-04-28T10:57:08.999Z</time></trkpt><trkpt lat="33.8228967314001" lon="-6.207233297238492"><ele>427.5</ele><time>2026-04-28T10:57:09.999Z</time></trkpt><trkpt lat="33.822933177077125" lon="-6.207588405733301"><ele>428.0</ele><time>2026-04-28T10:57:10.999Z</time></trkpt><trkpt lat="33.82296962562058" lon="-6.207944047200777"><ele>427.5</ele><time>2026-04-28T10:57:11.999Z</time></trkpt><trkpt lat="33.82300276466931" lon="-6.208298756500117"><ele>427.0</ele><time>2026-04-28T10:57:12.999Z</time></trkpt><trkpt lat="33.82303263714616" lon="-6.20865383563816"><ele>426.5</ele><time>2026-04-28T10:57:13.999Z</time></trkpt><trkpt lat="33.823064697081314" lon="-6.209006395708168"><ele>426.0</ele><time>2026-04-28T10:57:14.999Z</time></trkpt><trkpt lat="33.82309904248696" lon="-6.2093589268553275"><ele>426.0</ele><time>2026-04-28T10:57:15.998Z</time></trkpt><trkpt lat="33.823131477782056" lon="-6.2097107411138905"><ele>426.0</ele><time>2026-04-28T10:57:16.998Z</time></trkpt><trkpt lat="33.823160879485364" lon="-6.210063038801748"><ele>425.5</ele><time>2026-04-28T10:57:17.998Z</time></trkpt><trkpt lat="33.82319253922805" lon="-6.210415019878399"><ele>425.0</ele><time>2026-04-28T10:57:18.998Z</time></trkpt><trkpt lat="33.82322632174581" lon="-6.210770302998586"><ele>424.0</ele><time>2026-04-28T10:57:19.998Z</time></trkpt><trkpt lat="33.82326178310483" lon="-6.211125186629976"><ele>423.0</ele><time>2026-04-28T10:57:20.998Z</time></trkpt><trkpt lat="33.82329701473266" lon="-6.211479871511669"><ele>423.0</ele><time>2026-04-28T10:57:21.998Z</time></trkpt><trkpt lat="33.82333152087392" lon="-6.2118363201225435"><ele>423.0</ele><time>2026-04-28T10:57:22.998Z</time></trkpt><trkpt lat="33.823364178479274" lon="-6.212193259878632"><ele>423.0</ele><time>2026-04-28T10:57:24Z</time></trkpt><trkpt lat="33.823398130310544" lon="-6.212550173808738"><ele>423.0</ele><time>2026-04-28T10:57:25Z</time></trkpt><trkpt lat="33.82343241960579" lon="-6.212909082347208"><ele>422.5</ele><time>2026-04-28T10:57:26Z</time></trkpt><trkpt lat="33.82346519426064" lon="-6.213268974203149"><ele>422.0</ele><time>2026-04-28T10:57:27Z</time></trkpt><trkpt lat="33.823500785627395" lon="-6.213626218699466"><ele>422.0</ele><time>2026-04-28T10:57:28Z</time></trkpt><trkpt lat="33.82353744744006" lon="-6.213983912819708"><ele>422.0</ele><time>2026-04-28T10:57:29Z</time></trkpt><trkpt lat="33.82357627648398" lon="-6.214340534719411"><ele>422.0</ele><time>2026-04-28T10:57:30Z</time></trkpt><trkpt lat="33.823618900183604" lon="-6.214696099398022"><ele>422.0</ele><time>2026-04-28T10:57:31Z</time></trkpt><trkpt lat="33.823665375730535" lon="-6.215050902025303"><ele>421.5</ele><time>2026-04-28T10:57:32Z</time></trkpt><trkpt lat="33.82371508862656" lon="-6.215403879706998"><ele>421.0</ele><time>2026-04-28T10:57:33Z</time></trkpt><trkpt lat="33.82376936902055" lon="-6.2157578203069805"><ele>421.0</ele><time>2026-04-28T10:57:34Z</time></trkpt><trkpt lat="33.82382797821779" lon="-6.21610950387412"><ele>421.0</ele><time>2026-04-28T10:57:35Z</time></trkpt><trkpt lat="33.82388876239338" lon="-6.216460146618052"><ele>420.5</ele><time>2026-04-28T10:57:36Z</time></trkpt><trkpt lat="33.82395308698879" lon="-6.2168115625539855"><ele>420.0</ele><time>2026-04-28T10:57:37Z</time></trkpt><trkpt lat="33.82402571022718" lon="-6.217160859043944"><ele>420.5</ele><time>2026-04-28T10:57:38Z</time></trkpt><trkpt lat="33.824098142728005" lon="-6.217508579056275"><ele>421.0</ele><time>2026-04-28T10:57:39Z</time></trkpt><trkpt lat="33.82417273881388" lon="-6.217855760874171"><ele>421.0</ele><time>2026-04-28T10:57:40Z</time></trkpt><trkpt lat="33.82425158556417" lon="-6.218200050631738"><ele>421.0</ele><time>2026-04-28T10:57:41Z</time></trkpt><trkpt lat="33.824333047480906" lon="-6.21854358512781"><ele>421.0</ele><time>2026-04-28T10:57:42Z</time></trkpt><trkpt lat="33.824425497730026" lon="-6.218884601693577"><ele>421.0</ele><time>2026-04-28T10:57:43Z</time></trkpt><trkpt lat="33.82451910207139" lon="-6.219223195888852"><ele>420.0</ele><time>2026-04-28T10:57:44Z</time></trkpt><trkpt lat="33.82461382759216" lon="-6.219560378804217"><ele>419.0</ele><time>2026-04-28T10:57:45Z</time></trkpt><trkpt lat="33.82471518594722" lon="-6.219894213177028"><ele>419.0</ele><time>2026-04-28T10:57:46Z</time></trkpt><trkpt lat="33.82482117873226" lon="-6.220226288758876"><ele>419.0</ele><time>2026-04-28T10:57:47Z</time></trkpt><trkpt lat="33.82492760511432" lon="-6.220556430041106"><ele>419.0</ele><time>2026-04-28T10:57:48Z</time></trkpt><trkpt lat="33.82503731316621" lon="-6.22088734268446"><ele>419.0</ele><time>2026-04-28T10:57:49Z</time></trkpt><trkpt lat="33.825148740964366" lon="-6.2212170383827345"><ele>418.5</ele><time>2026-04-28T10:57:49.999Z</time></trkpt><trkpt lat="33.82526771886245" lon="-6.221543008806212"><ele>418.0</ele><time>2026-04-28T10:57:50.999Z</time></trkpt><trkpt lat="33.825389200972126" lon="-6.221867263736295"><ele>418.0</ele><time>2026-04-28T10:57:51.999Z</time></trkpt><trkpt lat="33.82551581175528" lon="-6.222190617006773"><ele>418.0</ele><time>2026-04-28T10:57:52.999Z</time></trkpt><trkpt lat="33.82564363065615" lon="-6.2225142200546095"><ele>418.0</ele><time>2026-04-28T10:57:53.999Z</time></trkpt><trkpt lat="33.82577367955257" lon="-6.2228371740661075"><ele>418.0</ele><time>2026-04-28T10:57:54.999Z</time></trkpt><trkpt lat="33.82591236728787" lon="-6.223157111456697"><ele>418.0</ele><time>2026-04-28T10:57:55.999Z</time></trkpt><trkpt lat="33.82605156358189" lon="-6.223477951428273"><ele>418.0</ele><time>2026-04-28T10:57:56.999Z</time></trkpt><trkpt lat="33.82619506913044" lon="-6.223793981844309"><ele>417.5</ele><time>2026-04-28T10:57:57.999Z</time></trkpt><trkpt lat="33.826340737646994" lon="-6.224109287469472"><ele>417.0</ele><time>2026-04-28T10:57:58.999Z</time></trkpt><trkpt lat="33.82649014315524" lon="-6.2244207514637875"><ele>417.0</ele><time>2026-04-28T10:57:59.999Z</time></trkpt><trkpt lat="33.826640576389494" lon="-6.224731284371503"><ele>417.0</ele><time>2026-04-28T10:58:00.999Z</time></trkpt><trkpt lat="33.826796000631916" lon="-6.2250377130627665"><ele>414.0</ele><time>2026-04-28T10:58:01.999Z</time></trkpt><trkpt lat="33.826955488468016" lon="-6.225339936161575"><ele>411.0</ele><time>2026-04-28T10:58:02.999Z</time></trkpt><trkpt lat="33.827118055606014" lon="-6.225640361007012"><ele>412.5</ele><time>2026-04-28T10:58:03.999Z</time></trkpt><trkpt lat="33.827281334550904" lon="-6.225940046391717"><ele>414.0</ele><time>2026-04-28T10:58:04.999Z</time></trkpt><trkpt lat="33.82744769565522" lon="-6.226236070919846"><ele>413.5</ele><time>2026-04-28T10:58:05.999Z</time></trkpt><trkpt lat="33.82762038218148" lon="-6.226529914982845"><ele>413.0</ele><time>2026-04-28T10:58:06.999Z</time></trkpt><trkpt lat="33.82780342513483" lon="-6.226817075198774"><ele>413.0</ele><time>2026-04-28T10:58:07.999Z</time></trkpt><trkpt lat="33.82798719503009" lon="-6.227103514756028"><ele>413.0</ele><time>2026-04-28T10:58:08.999Z</time></trkpt><trkpt lat="33.82817469591003" lon="-6.2273867767007225"><ele>413.0</ele><time>2026-04-28T10:58:09.999Z</time></trkpt><trkpt lat="33.828365835128004" lon="-6.227666269718735"><ele>413.0</ele><time>2026-04-28T10:58:10.999Z</time></trkpt><trkpt lat="33.828560957754625" lon="-6.2279429654480545"><ele>414.5</ele><time>2026-04-28T10:58:11.999Z</time></trkpt><trkpt lat="33.82875601558304" lon="-6.228216926414502"><ele>416.0</ele><time>2026-04-28T10:58:12.999Z</time></trkpt><trkpt lat="33.82895344459031" lon="-6.228488982673369"><ele>416.0</ele><time>2026-04-28T10:58:13.999Z</time></trkpt><trkpt lat="33.82915498235152" lon="-6.228751958413651"><ele>416.0</ele><time>2026-04-28T10:58:14.999Z</time></trkpt><trkpt lat="33.82935679830565" lon="-6.229014515544704"><ele>417.0</ele><time>2026-04-28T10:58:15.999Z</time></trkpt><trkpt lat="33.829565453768154" lon="-6.229271890063134"><ele>418.0</ele><time>2026-04-28T10:58:16.999Z</time></trkpt><trkpt lat="33.829773353549896" lon="-6.229529555853271"><ele>418.0</ele><time>2026-04-28T10:58:17.999Z</time></trkpt><trkpt lat="33.82998270063509" lon="-6.229786124784758"><ele>418.0</ele><time>2026-04-28T10:58:18.999Z</time></trkpt><trkpt lat="33.83019277722514" lon="-6.230043555880908"><ele>419.0</ele><time>2026-04-28T10:58:19.999Z</time></trkpt><trkpt lat="33.8304065950781" lon="-6.230296789817297"><ele>420.0</ele><time>2026-04-28T10:58:20.999Z</time></trkpt><trkpt lat="33.830628695188956" lon="-6.230539173213873"><ele>420.0</ele><time>2026-04-28T10:58:21.999Z</time></trkpt><trkpt lat="33.83085284893977" lon="-6.230778493222097"><ele>420.0</ele><time>2026-04-28T10:58:22.999Z</time></trkpt><trkpt lat="33.83107316278158" lon="-6.231018385657391"><ele>420.0</ele><time>2026-04-28T10:58:23.999Z</time></trkpt><trkpt lat="33.83129498757642" lon="-6.231260185129634"><ele>420.0</ele><time>2026-04-28T10:58:24.999Z</time></trkpt><trkpt lat="33.831519706707645" lon="-6.231500123637948"><ele>420.0</ele><time>2026-04-28T10:58:25.999Z</time></trkpt><trkpt lat="33.831744347987396" lon="-6.231739734314293"><ele>420.0</ele><time>2026-04-28T10:58:26.999Z</time></trkpt><trkpt lat="33.831970575451116" lon="-6.231979176586628"><ele>420.0</ele><time>2026-04-28T10:58:27.999Z</time></trkpt><trkpt lat="33.83219583965041" lon="-6.232217604651102"><ele>420.0</ele><time>2026-04-28T10:58:28.999Z</time></trkpt><trkpt lat="33.832421025527665" lon="-6.232456402501226"><ele>419.0</ele><time>2026-04-28T10:58:29.999Z</time></trkpt><trkpt lat="33.832646977563336" lon="-6.232694342461302"><ele>418.0</ele><time>2026-04-28T10:58:30.999Z</time></trkpt><trkpt lat="33.832873386153004" lon="-6.2329330708528685"><ele>417.0</ele><time>2026-04-28T10:58:31.999Z</time></trkpt><trkpt lat="33.833100040017946" lon="-6.233169612259464"><ele>416.0</ele><time>2026-04-28T10:58:32.999Z</time></trkpt><trkpt lat="33.83332485269407" lon="-6.233404235529135"><ele>416.0</ele><time>2026-04-28T10:58:33.999Z</time></trkpt><trkpt lat="33.83355072753458" lon="-6.233636236750646"><ele>416.0</ele><time>2026-04-28T10:58:34.999Z</time></trkpt><trkpt lat="33.833773584101166" lon="-6.233869618834359"><ele>415.5</ele><time>2026-04-28T10:58:35.999Z</time></trkpt><trkpt lat="33.83399705675144" lon="-6.234103497513219"><ele>415.0</ele><time>2026-04-28T10:58:36.999Z</time></trkpt><trkpt lat="33.834223752916664" lon="-6.234335715266081"><ele>415.5</ele><time>2026-04-28T10:58:37.999Z</time></trkpt><trkpt lat="33.83444882820409" lon="-6.234570679501758"><ele>416.0</ele><time>2026-04-28T10:58:38.999Z</time></trkpt><trkpt lat="33.83467478352311" lon="-6.234806270618842"><ele>416.0</ele><time>2026-04-28T10:58:39.999Z</time></trkpt><trkpt lat="33.83490120619827" lon="-6.23504055003626"><ele>416.0</ele><time>2026-04-28T10:58:40.999Z</time></trkpt><trkpt lat="33.83512729184211" lon="-6.235274479423802"><ele>416.0</ele><time>2026-04-28T10:58:41.999Z</time></trkpt><trkpt lat="33.83535648140972" lon="-6.2355084092744315"><ele>416.0</ele><time>2026-04-28T10:58:42.999Z</time></trkpt><trkpt lat="33.835584199233864" lon="-6.23574435154861"><ele>416.0</ele><time>2026-04-28T10:58:43.999Z</time></trkpt><trkpt lat="33.835813327196576" lon="-6.2359781162815695"><ele>416.0</ele><time>2026-04-28T10:58:44.999Z</time></trkpt><trkpt lat="33.836041579690644" lon="-6.236213309332466"><ele>416.5</ele><time>2026-04-28T10:58:45.999Z</time></trkpt><trkpt lat="33.83627248635708" lon="-6.236446230585563"><ele>417.0</ele><time>2026-04-28T10:58:46.999Z</time></trkpt><trkpt lat="33.83650185662394" lon="-6.236680798283524"><ele>415.5</ele><time>2026-04-28T10:58:47.999Z</time></trkpt><trkpt lat="33.836732506952266" lon="-6.236915217118966"><ele>414.0</ele><time>2026-04-28T10:58:48.999Z</time></trkpt><trkpt lat="33.83696140441587" lon="-6.237151238540156"><ele>413.0</ele><time>2026-04-28T10:58:49.999Z</time></trkpt><trkpt lat="33.837190878114505" lon="-6.2373853955061"><ele>412.0</ele><time>2026-04-28T10:58:50.999Z</time></trkpt><trkpt lat="33.83741864300267" lon="-6.237622834733776"><ele>412.0</ele><time>2026-04-28T10:58:51.999Z</time></trkpt><trkpt lat="33.837644679054605" lon="-6.237859413275253"><ele>412.0</ele><time>2026-04-28T10:58:52.999Z</time></trkpt><trkpt lat="33.83786747384406" lon="-6.238099667942158"><ele>411.5</ele><time>2026-04-28T10:58:53.999Z</time></trkpt><trkpt lat="33.83808886251145" lon="-6.238337400823238"><ele>411.0</ele><time>2026-04-28T10:58:54.999Z</time></trkpt><trkpt lat="33.83830849554347" lon="-6.238578189261147"><ele>409.5</ele><time>2026-04-28T10:58:55.999Z</time></trkpt><trkpt lat="33.83853208342172" lon="-6.238814541683362"><ele>408.0</ele><time>2026-04-28T10:58:56.999Z</time></trkpt><trkpt lat="33.83875633945096" lon="-6.239050856673387"><ele>407.5</ele><time>2026-04-28T10:58:57.999Z</time></trkpt><trkpt lat="33.838979731776206" lon="-6.239290123701983"><ele>407.0</ele><time>2026-04-28T10:58:58.999Z</time></trkpt><trkpt lat="33.8392042826162" lon="-6.239524989404995"><ele>407.0</ele><time>2026-04-28T10:58:59.999Z</time></trkpt><trkpt lat="33.83943091047014" lon="-6.239758675839851"><ele>407.0</ele><time>2026-04-28T10:59:00.999Z</time></trkpt><trkpt lat="33.83965915066324" lon="-6.2399962601242684"><ele>407.0</ele><time>2026-04-28T10:59:01.999Z</time></trkpt><trkpt lat="33.83988403463711" lon="-6.2402336877333475"><ele>407.0</ele><time>2026-04-28T10:59:02.999Z</time></trkpt><trkpt lat="33.840107730959225" lon="-6.240473806213399"><ele>405.5</ele><time>2026-04-28T10:59:03.999Z</time></trkpt><trkpt lat="33.84033596568025" lon="-6.240710040769935"><ele>404.0</ele><time>2026-04-28T10:59:04.999Z</time></trkpt><trkpt lat="33.840559696359755" lon="-6.24094936057205"><ele>404.0</ele><time>2026-04-28T10:59:05.999Z</time></trkpt><trkpt lat="33.840785343419284" lon="-6.241183013166126"><ele>404.0</ele><time>2026-04-28T10:59:06.999Z</time></trkpt><trkpt lat="33.84100908640288" lon="-6.241418407429631"><ele>405.0</ele><time>2026-04-28T10:59:07.999Z</time></trkpt><trkpt lat="33.84123252341223" lon="-6.241650216054848"><ele>406.0</ele><time>2026-04-28T10:59:08.999Z</time></trkpt><trkpt lat="33.84145160579233" lon="-6.241887223599405"><ele>406.0</ele><time>2026-04-28T10:59:09.999Z</time></trkpt><trkpt lat="33.841666200800255" lon="-6.242125515517829"><ele>406.0</ele><time>2026-04-28T10:59:10.999Z</time></trkpt><trkpt lat="33.84188436223244" lon="-6.242361233455451"><ele>405.5</ele><time>2026-04-28T10:59:11.999Z</time></trkpt><trkpt lat="33.842092022240315" lon="-6.242610086518352"><ele>405.0</ele><time>2026-04-28T10:59:12.999Z</time></trkpt><trkpt lat="33.842296499730715" lon="-6.24286157471357"><ele>405.0</ele><time>2026-04-28T10:59:13.999Z</time></trkpt><trkpt lat="33.84249805577362" lon="-6.243115604649984"><ele>405.0</ele><time>2026-04-28T10:59:14.999Z</time></trkpt><trkpt lat="33.842694732698206" lon="-6.243376110344669"><ele>404.0</ele><time>2026-04-28T10:59:15.999Z</time></trkpt><trkpt lat="33.842886776515954" lon="-6.243640543163551"><ele>403.0</ele><time>2026-04-28T10:59:16.999Z</time></trkpt><trkpt lat="33.843078310904836" lon="-6.24391137209935"><ele>403.0</ele><time>2026-04-28T10:59:17.999Z</time></trkpt><trkpt lat="33.843267353816955" lon="-6.244186922348254"><ele>403.0</ele><time>2026-04-28T10:59:18.999Z</time></trkpt><trkpt lat="33.84344987209407" lon="-6.244469412574585"><ele>403.5</ele><time>2026-04-28T10:59:19.999Z</time></trkpt><trkpt lat="33.84362818807365" lon="-6.244752281872802"><ele>404.0</ele><time>2026-04-28T10:59:20.999Z</time></trkpt><trkpt lat="33.84380240796341" lon="-6.245041955059166"><ele>404.0</ele><time>2026-04-28T10:59:21.998Z</time></trkpt><trkpt lat="33.843968559511076" lon="-6.2453332552618575"><ele>404.0</ele><time>2026-04-28T10:59:22.998Z</time></trkpt><trkpt lat="33.84412822328519" lon="-6.24562049605833"><ele>404.5</ele><time>2026-04-28T10:59:23.998Z</time></trkpt><trkpt lat="33.84428008387771" lon="-6.245900386511237"><ele>405.0</ele><time>2026-04-28T10:59:24.998Z</time></trkpt><trkpt lat="33.844425006795454" lon="-6.246168879789953"><ele>403.5</ele><time>2026-04-28T10:59:25.998Z</time></trkpt><trkpt lat="33.84456145015342" lon="-6.246441349964229"><ele>402.0</ele><time>2026-04-28T10:59:26.998Z</time></trkpt><trkpt lat="33.84469401440521" lon="-6.246729033270244"><ele>402.0</ele><time>2026-04-28T10:59:27.998Z</time></trkpt><trkpt lat="33.84482796709863" lon="-6.247028009852792"><ele>402.0</ele><time>2026-04-28T10:59:28.998Z</time></trkpt><trkpt lat="33.844967698496546" lon="-6.247332124900858"><ele>401.5</ele><time>2026-04-28T10:59:29.999Z</time></trkpt><trkpt lat="33.84509777727677" lon="-6.247644977451528"><ele>401.0</ele><time>2026-04-28T10:59:30.999Z</time></trkpt><trkpt lat="33.84522443551117" lon="-6.247951772550146"><ele>400.5</ele><time>2026-04-28T10:59:31.999Z</time></trkpt><trkpt lat="33.8453448533654" lon="-6.248259477620399"><ele>400.0</ele><time>2026-04-28T10:59:32.999Z</time></trkpt><trkpt lat="33.84546276656447" lon="-6.248574247776145"><ele>400.0</ele><time>2026-04-28T10:59:33.999Z</time></trkpt><trkpt lat="33.84557204106254" lon="-6.2488930009036805"><ele>400.0</ele><time>2026-04-28T10:59:34.999Z</time></trkpt><trkpt lat="33.84567005385017" lon="-6.249210706126374"><ele>399.5</ele><time>2026-04-28T10:59:35.999Z</time></trkpt><trkpt lat="33.8457611367041" lon="-6.249518331601645"><ele>399.0</ele><time>2026-04-28T10:59:36.999Z</time></trkpt><trkpt lat="33.845849298560736" lon="-6.24982277792161"><ele>399.0</ele><time>2026-04-28T10:59:38Z</time></trkpt><trkpt lat="33.84593670901716" lon="-6.250138987724012"><ele>399.0</ele><time>2026-04-28T10:59:38.999Z</time></trkpt><trkpt lat="33.84601766814326" lon="-6.250460565224398"><ele>397.0</ele><time>2026-04-28T10:59:39.999Z</time></trkpt><trkpt lat="33.84609509384543" lon="-6.250781907137741"><ele>395.0</ele><time>2026-04-28T10:59:40.999Z</time></trkpt><trkpt lat="33.84617041698923" lon="-6.251106579449362"><ele>395.0</ele><time>2026-04-28T10:59:41.999Z</time></trkpt><trkpt lat="33.84624390195837" lon="-6.25143498286275"><ele>395.0</ele><time>2026-04-28T10:59:42.999Z</time></trkpt><trkpt lat="33.84631033553266" lon="-6.251769333094235"><ele>395.0</ele><time>2026-04-28T10:59:43.999Z</time></trkpt><trkpt lat="33.84637428825855" lon="-6.2521059403495185"><ele>395.0</ele><time>2026-04-28T10:59:44.999Z</time></trkpt><trkpt lat="33.84643339670323" lon="-6.252446183890633"><ele>395.0</ele><time>2026-04-28T10:59:45.999Z</time></trkpt><trkpt lat="33.84649103287285" lon="-6.252790974275318"><ele>395.0</ele><time>2026-04-28T10:59:46.999Z</time></trkpt><trkpt lat="33.84654595019904" lon="-6.253141286291032"><ele>395.5</ele><time>2026-04-28T10:59:47.999Z</time></trkpt><trkpt lat="33.84659881475553" lon="-6.2534927523293256"><ele>396.0</ele><time>2026-04-28T10:59:48.999Z</time></trkpt><trkpt lat="33.84664463703344" lon="-6.253846110309907"><ele>396.0</ele><time>2026-04-28T10:59:49.999Z</time></trkpt><trkpt lat="33.84668747272669" lon="-6.254198292706204"><ele>396.0</ele><time>2026-04-28T10:59:50.999Z</time></trkpt><trkpt lat="33.84672218081141" lon="-6.254552976649971"><ele>396.5</ele><time>2026-04-28T10:59:51.999Z</time></trkpt><trkpt lat="33.846748828299795" lon="-6.254908822398169"><ele>397.0</ele><time>2026-04-28T10:59:52.999Z</time></trkpt><trkpt lat="33.84677024919146" lon="-6.255265050006397"><ele>397.5</ele><time>2026-04-28T10:59:53.999Z</time></trkpt><trkpt lat="33.846784862850825" lon="-6.255624441753141"><ele>398.0</ele><time>2026-04-28T10:59:54.999Z</time></trkpt><trkpt lat="33.846789355664924" lon="-6.255982211213451"><ele>398.0</ele><time>2026-04-28T10:59:55.999Z</time></trkpt><trkpt lat="33.846786376614226" lon="-6.2563380738950265"><ele>398.0</ele><time>2026-04-28T10:59:56.999Z</time></trkpt><trkpt lat="33.84678012634213" lon="-6.256694432126054"><ele>397.5</ele><time>2026-04-28T10:59:57.999Z</time></trkpt><trkpt lat="33.8467702735726" lon="-6.25705277416726"><ele>397.0</ele><time>2026-04-28T10:59:58.999Z</time></trkpt><trkpt lat="33.846759752329895" lon="-6.257412567956367"><ele>396.5</ele><time>2026-04-28T10:59:59.999Z</time></trkpt><trkpt lat="33.84674555453039" lon="-6.2577711904883335"><ele>396.0</ele><time>2026-04-28T11:00:00.999Z</time></trkpt><trkpt lat="33.846734297060394" lon="-6.258129070496642"><ele>397.5</ele><time>2026-04-28T11:00:01.999Z</time></trkpt><trkpt lat="33.846722791252766" lon="-6.258487158475757"><ele>399.0</ele><time>2026-04-28T11:00:02.999Z</time></trkpt><trkpt lat="33.846708556447105" lon="-6.258847778877408"><ele>398.5</ele><time>2026-04-28T11:00:03.999Z</time></trkpt><trkpt lat="33.84669388612046" lon="-6.259205651750314"><ele>398.0</ele><time>2026-04-28T11:00:04.999Z</time></trkpt><trkpt lat="33.846677018270995" lon="-6.259563601179979"><ele>398.0</ele><time>2026-04-28T11:00:05.999Z</time></trkpt><trkpt lat="33.84666018602769" lon="-6.259922811789164"><ele>398.0</ele><time>2026-04-28T11:00:06.999Z</time></trkpt><trkpt lat="33.84664845424003" lon="-6.260279275097683"><ele>397.5</ele><time>2026-04-28T11:00:07.999Z</time></trkpt><trkpt lat="33.84664349522161" lon="-6.260636031458568"><ele>397.0</ele><time>2026-04-28T11:00:08.999Z</time></trkpt><trkpt lat="33.846645254035835" lon="-6.260993707448911"><ele>397.0</ele><time>2026-04-28T11:00:09.999Z</time></trkpt><trkpt lat="33.84665269881025" lon="-6.26135109515735"><ele>397.0</ele><time>2026-04-28T11:00:10.999Z</time></trkpt><trkpt lat="33.84666490653481" lon="-6.2617091551219435"><ele>396.5</ele><time>2026-04-28T11:00:11.999Z</time></trkpt><trkpt lat="33.846680778638856" lon="-6.2620675087711355"><ele>396.0</ele><time>2026-04-28T11:00:12.999Z</time></trkpt><trkpt lat="33.84670277486431" lon="-6.26242449269367"><ele>396.0</ele><time>2026-04-28T11:00:13.999Z</time></trkpt><trkpt lat="33.84672996828246" lon="-6.26278234851548"><ele>396.0</ele><time>2026-04-28T11:00:14.999Z</time></trkpt><trkpt lat="33.84675861070015" lon="-6.263139280745108"><ele>396.0</ele><time>2026-04-28T11:00:15.999Z</time></trkpt><trkpt lat="33.84679231928198" lon="-6.263496228775948"><ele>396.0</ele><time>2026-04-28T11:00:16.999Z</time></trkpt><trkpt lat="33.8468313219501" lon="-6.263854100629391"><ele>394.5</ele><time>2026-04-28T11:00:17.999Z</time></trkpt><trkpt lat="33.84687522570975" lon="-6.264212070123908"><ele>393.0</ele><time>2026-04-28T11:00:18.999Z</time></trkpt><trkpt lat="33.84692244172075" lon="-6.264569456206039"><ele>394.0</ele><time>2026-04-28T11:00:19.999Z</time></trkpt><trkpt lat="33.84697406482981" lon="-6.264925375450218"><ele>395.0</ele><time>2026-04-28T11:00:20.999Z</time></trkpt><trkpt lat="33.84703111468611" lon="-6.26528208551323"><ele>395.0</ele><time>2026-04-28T11:00:21.999Z</time></trkpt><trkpt lat="33.84709154835953" lon="-6.265635059530903"><ele>395.0</ele><time>2026-04-28T11:00:22.999Z</time></trkpt><trkpt lat="33.847158434714466" lon="-6.26598661890263"><ele>395.0</ele><time>2026-04-28T11:00:23.999Z</time></trkpt><trkpt lat="33.84722766403835" lon="-6.266336037966114"><ele>395.0</ele><time>2026-04-28T11:00:24.999Z</time></trkpt><trkpt lat="33.84730171673151" lon="-6.266685625882589"><ele>395.5</ele><time>2026-04-28T11:00:25.999Z</time></trkpt><trkpt lat="33.84738627771585" lon="-6.267030776407368"><ele>396.0</ele><time>2026-04-28T11:00:26.999Z</time></trkpt><trkpt lat="33.84747677329197" lon="-6.267372291902027"><ele>395.0</ele><time>2026-04-28T11:00:27.999Z</time></trkpt><trkpt lat="33.84757220949519" lon="-6.267712458626927"><ele>394.0</ele><time>2026-04-28T11:00:28.999Z</time></trkpt><trkpt lat="33.8476721725561" lon="-6.2680514986751446"><ele>393.0</ele><time>2026-04-28T11:00:29.999Z</time></trkpt><trkpt lat="33.84777714417029" lon="-6.268390248108767"><ele>392.0</ele><time>2026-04-28T11:00:30.999Z</time></trkpt><trkpt lat="33.84788579247685" lon="-6.268724750582283"><ele>393.0</ele><time>2026-04-28T11:00:31.999Z</time></trkpt><trkpt lat="33.847997313205944" lon="-6.269058164963653"><ele>394.0</ele><time>2026-04-28T11:00:32.999Z</time></trkpt><trkpt lat="33.8481123742753" lon="-6.2693915154206845"><ele>394.0</ele><time>2026-04-28T11:00:33.999Z</time></trkpt><trkpt lat="33.84823013739625" lon="-6.269721634326066"><ele>394.0</ele><time>2026-04-28T11:00:34.999Z</time></trkpt><trkpt lat="33.84834954401263" lon="-6.2700517024006786"><ele>394.0</ele><time>2026-04-28T11:00:35.999Z</time></trkpt><trkpt lat="33.84847197609583" lon="-6.270380855017491"><ele>394.0</ele><time>2026-04-28T11:00:36.999Z</time></trkpt><trkpt lat="33.84859580445499" lon="-6.270708603171793"><ele>393.0</ele><time>2026-04-28T11:00:37.999Z</time></trkpt><trkpt lat="33.848719551192204" lon="-6.271036956987507"><ele>392.0</ele><time>2026-04-28T11:00:38.999Z</time></trkpt><trkpt lat="33.84884308283149" lon="-6.271366587704359"><ele>392.5</ele><time>2026-04-28T11:00:39.999Z</time></trkpt><trkpt lat="33.84896598324672" lon="-6.27169605988466"><ele>393.0</ele><time>2026-04-28T11:00:40.999Z</time></trkpt><trkpt lat="33.84908931394659" lon="-6.272026547838331"><ele>392.5</ele><time>2026-04-28T11:00:41.999Z</time></trkpt><trkpt lat="33.849211601311076" lon="-6.272357978564228"><ele>392.0</ele><time>2026-04-28T11:00:42.999Z</time></trkpt><trkpt lat="33.84932949613865" lon="-6.272690807058133"><ele>392.0</ele><time>2026-04-28T11:00:43.999Z</time></trkpt><trkpt lat="33.84944465192968" lon="-6.273024535656495"><ele>392.0</ele><time>2026-04-28T11:00:44.999Z</time></trkpt><trkpt lat="33.849557806956106" lon="-6.273357730030049"><ele>392.0</ele><time>2026-04-28T11:00:45.999Z</time></trkpt><trkpt lat="33.849669222812196" lon="-6.273689732637456"><ele>392.0</ele><time>2026-04-28T11:00:46.999Z</time></trkpt><trkpt lat="33.84977983753311" lon="-6.274022417594551"><ele>392.5</ele><time>2026-04-28T11:00:47.999Z</time></trkpt><trkpt lat="33.8498884508708" lon="-6.274355955517733"><ele>393.0</ele><time>2026-04-28T11:00:48.999Z</time></trkpt><trkpt lat="33.8499923726515" lon="-6.274690653210177"><ele>393.0</ele><time>2026-04-28T11:00:49.999Z</time></trkpt><trkpt lat="33.85009360158378" lon="-6.275027370794143"><ele>393.0</ele><time>2026-04-28T11:00:50.999Z</time></trkpt><trkpt lat="33.85019301028093" lon="-6.275364046385266"><ele>393.0</ele><time>2026-04-28T11:00:51.999Z</time></trkpt><trkpt lat="33.85029066535999" lon="-6.275701457515273"><ele>393.0</ele><time>2026-04-28T11:00:52.999Z</time></trkpt><trkpt lat="33.85038587731221" lon="-6.2760396793779964"><ele>393.0</ele><time>2026-04-28T11:00:53.999Z</time></trkpt><trkpt lat="33.850480173015555" lon="-6.2763777147960065"><ele>393.0</ele><time>2026-04-28T11:00:54.999Z</time></trkpt><trkpt lat="33.85057369286793" lon="-6.276716875025344"><ele>393.0</ele><time>2026-04-28T11:00:55.999Z</time></trkpt><trkpt lat="33.85066545848589" lon="-6.277057766676024"><ele>393.0</ele><time>2026-04-28T11:00:56.999Z</time></trkpt><trkpt lat="33.85075646642025" lon="-6.277398803003838"><ele>393.0</ele><time>2026-04-28T11:00:57.999Z</time></trkpt><trkpt lat="33.85084560563962" lon="-6.277739782041937"><ele>393.0</ele><time>2026-04-28T11:00:58.999Z</time></trkpt><trkpt lat="33.85093462606103" lon="-6.278082546859471"><ele>392.5</ele><time>2026-04-28T11:00:59.999Z</time></trkpt><trkpt lat="33.851019068839946" lon="-6.278424851935896"><ele>392.0</ele><time>2026-04-28T11:01:00.999Z</time></trkpt><trkpt lat="33.85109705366168" lon="-6.2787685626484855"><ele>392.5</ele><time>2026-04-28T11:01:01.999Z</time></trkpt><trkpt lat="33.851176389350776" lon="-6.279111466662606"><ele>393.0</ele><time>2026-04-28T11:01:02.999Z</time></trkpt><trkpt lat="33.85125056566901" lon="-6.279457391459558"><ele>392.0</ele><time>2026-04-28T11:01:03.999Z</time></trkpt><trkpt lat="33.8513311324594" lon="-6.279800067545158"><ele>391.0</ele><time>2026-04-28T11:01:04.999Z</time></trkpt><trkpt lat="33.85140346237326" lon="-6.280145716317224"><ele>391.0</ele><time>2026-04-28T11:01:05.999Z</time></trkpt><trkpt lat="33.851474494653246" lon="-6.280492879063648"><ele>391.0</ele><time>2026-04-28T11:01:06.999Z</time></trkpt><trkpt lat="33.851542211540036" lon="-6.280841910828291"><ele>390.5</ele><time>2026-04-28T11:01:07.999Z</time></trkpt><trkpt lat="33.85160703151535" lon="-6.281192539973712"><ele>390.0</ele><time>2026-04-28T11:01:08.999Z</time></trkpt><trkpt lat="33.85167029626744" lon="-6.281546802475114"><ele>390.0</ele><time>2026-04-28T11:01:09.999Z</time></trkpt><trkpt lat="33.851733745376976" lon="-6.2818983505128365"><ele>390.0</ele><time>2026-04-28T11:01:10.999Z</time></trkpt><trkpt lat="33.8517894918259" lon="-6.282253504543344"><ele>388.5</ele><time>2026-04-28T11:01:11.999Z</time></trkpt><trkpt lat="33.851849010830215" lon="-6.282607134016635"><ele>387.0</ele><time>2026-04-28T11:01:12.999Z</time></trkpt><trkpt lat="33.851908922462165" lon="-6.282958620592025"><ele>387.0</ele><time>2026-04-28T11:01:13.999Z</time></trkpt><trkpt lat="33.85197033321054" lon="-6.283309339836028"><ele>387.0</ele><time>2026-04-28T11:01:14.999Z</time></trkpt><trkpt lat="33.852028349032324" lon="-6.2836617581857865"><ele>387.5</ele><time>2026-04-28T11:01:15.999Z</time></trkpt><trkpt lat="33.85208395194056" lon="-6.2840158599556455"><ele>388.0</ele><time>2026-04-28T11:01:16.999Z</time></trkpt><trkpt lat="33.85213780838274" lon="-6.284369665348401"><ele>388.0</ele><time>2026-04-28T11:01:17.999Z</time></trkpt><trkpt lat="33.85218507987698" lon="-6.284723681154061"><ele>388.0</ele><time>2026-04-28T11:01:18.999Z</time></trkpt><trkpt lat="33.85223325313296" lon="-6.285077448633943"><ele>389.0</ele><time>2026-04-28T11:01:19.999Z</time></trkpt><trkpt lat="33.85228220662229" lon="-6.285432354536639"><ele>390.0</ele><time>2026-04-28T11:01:20.998Z</time></trkpt><trkpt lat="33.85232530794723" lon="-6.2857869807361935"><ele>390.0</ele><time>2026-04-28T11:01:21.998Z</time></trkpt><trkpt lat="33.8523659907175" lon="-6.286142171127738"><ele>390.0</ele><time>2026-04-28T11:01:22.998Z</time></trkpt><trkpt lat="33.85240768261074" lon="-6.286497643983562"><ele>390.5</ele><time>2026-04-28T11:01:23.998Z</time></trkpt><trkpt lat="33.85244476113639" lon="-6.286854584094833"><ele>391.0</ele><time>2026-04-28T11:01:24.998Z</time></trkpt><trkpt lat="33.85247732946836" lon="-6.287212463428568"><ele>390.0</ele><time>2026-04-28T11:01:25.998Z</time></trkpt><trkpt lat="33.85251138214389" lon="-6.287568265261268"><ele>389.0</ele><time>2026-04-28T11:01:26.998Z</time></trkpt><trkpt lat="33.852540101921846" lon="-6.287922455194976"><ele>388.5</ele><time>2026-04-28T11:01:27.998Z</time></trkpt><trkpt lat="33.85257037807654" lon="-6.288277026508311"><ele>388.0</ele><time>2026-04-28T11:01:28.998Z</time></trkpt><trkpt lat="33.852596861587536" lon="-6.288629917924907"><ele>388.0</ele><time>2026-04-28T11:01:29.998Z</time></trkpt><trkpt lat="33.852622078114855" lon="-6.288983423060579"><ele>388.0</ele><time>2026-04-28T11:01:30.998Z</time></trkpt><trkpt lat="33.85264619095306" lon="-6.289336574972801"><ele>388.0</ele><time>2026-04-28T11:01:31.998Z</time></trkpt><trkpt lat="33.85267352769063" lon="-6.289690590877531"><ele>388.0</ele><time>2026-04-28T11:01:32.998Z</time></trkpt><trkpt lat="33.85270027559113" lon="-6.290046784146373"><ele>388.0</ele><time>2026-04-28T11:01:33.998Z</time></trkpt><trkpt lat="33.85272859608592" lon="-6.290403849801146"><ele>388.0</ele><time>2026-04-28T11:01:34.998Z</time></trkpt><trkpt lat="33.852751077744784" lon="-6.290763809795093"><ele>387.0</ele><time>2026-04-28T11:01:35.999Z</time></trkpt><trkpt lat="33.85277203443512" lon="-6.291123774419372"><ele>386.0</ele><time>2026-04-28T11:01:36.999Z</time></trkpt><trkpt lat="33.85278559149613" lon="-6.291483115569138"><ele>386.0</ele><time>2026-04-28T11:01:37.999Z</time></trkpt><trkpt lat="33.852800964024055" lon="-6.291844089998838"><ele>386.0</ele><time>2026-04-28T11:01:38.999Z</time></trkpt><trkpt lat="33.85281416379777" lon="-6.292206127541467"><ele>387.5</ele><time>2026-04-28T11:01:39.999Z</time></trkpt><trkpt lat="33.85282812103391" lon="-6.292566840118674"><ele>389.0</ele><time>2026-04-28T11:01:40.999Z</time></trkpt><trkpt lat="33.85284204597651" lon="-6.292926759537453"><ele>389.0</ele><time>2026-04-28T11:01:41.999Z</time></trkpt><trkpt lat="33.8528528327564" lon="-6.2932856737943075"><ele>389.0</ele><time>2026-04-28T11:01:43Z</time></trkpt><trkpt lat="33.85286412614507" lon="-6.293645678532572"><ele>388.0</ele><time>2026-04-28T11:01:43.999Z</time></trkpt><trkpt lat="33.8528771047028" lon="-6.294005249144731"><ele>387.0</ele><time>2026-04-28T11:01:45Z</time></trkpt><trkpt lat="33.85289686997207" lon="-6.294364379255712"><ele>387.0</ele><time>2026-04-28T11:01:46Z</time></trkpt><trkpt lat="33.8529190102513" lon="-6.294721889433907"><ele>387.0</ele><time>2026-04-28T11:01:47Z</time></trkpt><trkpt lat="33.85294649404788" lon="-6.2950781855772915"><ele>385.5</ele><time>2026-04-28T11:01:48Z</time></trkpt><trkpt lat="33.852980644440166" lon="-6.2954303290249225"><ele>384.0</ele><time>2026-04-28T11:01:49Z</time></trkpt><trkpt lat="33.85301866764443" lon="-6.295780271896464"><ele>384.0</ele><time>2026-04-28T11:01:50Z</time></trkpt><trkpt lat="33.85306147904483" lon="-6.296129040661122"><ele>384.0</ele><time>2026-04-28T11:01:51Z</time></trkpt><trkpt lat="33.85310865928068" lon="-6.296479191455473"><ele>383.5</ele><time>2026-04-28T11:01:51.999Z</time></trkpt><trkpt lat="33.85316156560754" lon="-6.296830114033095"><ele>383.0</ele><time>2026-04-28T11:01:52.999Z</time></trkpt><trkpt lat="33.8532200032022" lon="-6.297181141541895"><ele>381.5</ele><time>2026-04-28T11:01:53.999Z</time></trkpt><trkpt lat="33.853284241876736" lon="-6.297534037582851"><ele>380.0</ele><time>2026-04-28T11:01:54.999Z</time></trkpt><trkpt lat="33.85335356540508" lon="-6.297886291628441"><ele>380.0</ele><time>2026-04-28T11:01:55.999Z</time></trkpt><trkpt lat="33.85342542095333" lon="-6.298239922161579"><ele>380.0</ele><time>2026-04-28T11:01:56.999Z</time></trkpt><trkpt lat="33.853496861379305" lon="-6.298591099248676"><ele>375.5</ele><time>2026-04-28T11:01:57.999Z</time></trkpt><trkpt lat="33.85357445842025" lon="-6.298940173524672"><ele>371.0</ele><time>2026-04-28T11:01:58.999Z</time></trkpt><trkpt lat="33.85365669630834" lon="-6.299282615548728"><ele>371.0</ele><time>2026-04-28T11:01:59.999Z</time></trkpt><trkpt lat="33.85374116900544" lon="-6.299626733323765"><ele>371.0</ele><time>2026-04-28T11:02:00.999Z</time></trkpt><trkpt lat="33.853830065057664" lon="-6.2999691412843095"><ele>369.5</ele><time>2026-04-28T11:02:01.999Z</time></trkpt><trkpt lat="33.85392358240549" lon="-6.300309887788252"><ele>368.0</ele><time>2026-04-28T11:02:02.999Z</time></trkpt><trkpt lat="33.85402335779705" lon="-6.300648163833031"><ele>366.5</ele><time>2026-04-28T11:02:03.999Z</time></trkpt><trkpt lat="33.85412966117455" lon="-6.300983865083855"><ele>365.0</ele><time>2026-04-28T11:02:04.999Z</time></trkpt><trkpt lat="33.854244456672475" lon="-6.301313871826216"><ele>363.0</ele><time>2026-04-28T11:02:05.999Z</time></trkpt><trkpt lat="33.85436518301172" lon="-6.301640157610958"><ele>361.0</ele><time>2026-04-28T11:02:06.999Z</time></trkpt><trkpt lat="33.85448680912834" lon="-6.3019661841455585"><ele>362.5</ele><time>2026-04-28T11:02:07.999Z</time></trkpt><trkpt lat="33.85461277104505" lon="-6.302289256448301"><ele>364.0</ele><time>2026-04-28T11:02:08.999Z</time></trkpt><trkpt lat="33.85474422606878" lon="-6.30260807067658"><ele>364.0</ele><time>2026-04-28T11:02:09.999Z</time></trkpt><trkpt lat="33.85487981974105" lon="-6.302926220207467"><ele>364.0</ele><time>2026-04-28T11:02:10.999Z</time></trkpt><trkpt lat="33.855016213641726" lon="-6.303242217557275"><ele>363.0</ele><time>2026-04-28T11:02:11.999Z</time></trkpt><trkpt lat="33.85515912440997" lon="-6.303553715949555"><ele>362.0</ele><time>2026-04-28T11:02:12.999Z</time></trkpt><trkpt lat="33.85530811567402" lon="-6.3038602317145385"><ele>363.5</ele><time>2026-04-28T11:02:13.999Z</time></trkpt><trkpt lat="33.85545935049937" lon="-6.304165007139801"><ele>365.0</ele><time>2026-04-28T11:02:14.999Z</time></trkpt><trkpt lat="33.85561626797659" lon="-6.3044660446137915"><ele>365.5</ele><time>2026-04-28T11:02:15.999Z</time></trkpt><trkpt lat="33.855777071619016" lon="-6.304766289671978"><ele>366.0</ele><time>2026-04-28T11:02:16.999Z</time></trkpt><trkpt lat="33.85594040521864" lon="-6.305065603732964"><ele>364.5</ele><time>2026-04-28T11:02:17.999Z</time></trkpt><trkpt lat="33.85611025875227" lon="-6.305357230733795"><ele>363.0</ele><time>2026-04-28T11:02:18.999Z</time></trkpt><trkpt lat="33.85628408798657" lon="-6.305646217202331"><ele>363.0</ele><time>2026-04-28T11:02:19.999Z</time></trkpt><trkpt lat="33.856460890124296" lon="-6.305933840793859"><ele>363.0</ele><time>2026-04-28T11:02:20.999Z</time></trkpt><trkpt lat="33.85664089980332" lon="-6.306219627038524"><ele>368.0</ele><time>2026-04-28T11:02:21.999Z</time></trkpt><trkpt lat="33.856821553644465" lon="-6.306504683071727"><ele>373.0</ele><time>2026-04-28T11:02:22.999Z</time></trkpt><trkpt lat="33.85701292958882" lon="-6.30678477827195"><ele>373.0</ele><time>2026-04-28T11:02:23.999Z</time></trkpt><trkpt lat="33.85720725302484" lon="-6.307061033716747"><ele>373.0</ele><time>2026-04-28T11:02:24.999Z</time></trkpt><trkpt lat="33.857405960376894" lon="-6.307331967970877"><ele>374.0</ele><time>2026-04-28T11:02:25.999Z</time></trkpt><trkpt lat="33.85760923108557" lon="-6.307597526174963"><ele>375.0</ele><time>2026-04-28T11:02:26.999Z</time></trkpt><trkpt lat="33.85781557126284" lon="-6.307859407792018"><ele>377.5</ele><time>2026-04-28T11:02:27.999Z</time></trkpt><trkpt lat="33.85802624510398" lon="-6.308120347599881"><ele>380.0</ele><time>2026-04-28T11:02:28.999Z</time></trkpt><trkpt lat="33.858242729360654" lon="-6.3083758503443255"><ele>379.0</ele><time>2026-04-28T11:02:29.999Z</time></trkpt><trkpt lat="33.85846365918354" lon="-6.308624587965262"><ele>378.0</ele><time>2026-04-28T11:02:30.999Z</time></trkpt><trkpt lat="33.85868511244654" lon="-6.308867546866795"><ele>379.0</ele><time>2026-04-28T11:02:31.999Z</time></trkpt><trkpt lat="33.85890697891037" lon="-6.309104592649521"><ele>380.0</ele><time>2026-04-28T11:02:32.999Z</time></trkpt><trkpt lat="33.85913332781089" lon="-6.309339158182858"><ele>383.0</ele><time>2026-04-28T11:02:33.999Z</time></trkpt><trkpt lat="33.85936042229112" lon="-6.309572089573827"><ele>386.0</ele><time>2026-04-28T11:02:34.999Z</time></trkpt><trkpt lat="33.85959127525913" lon="-6.3098009727109226"><ele>386.0</ele><time>2026-04-28T11:02:35.999Z</time></trkpt><trkpt lat="33.859827337803004" lon="-6.310022994581617"><ele>386.0</ele><time>2026-04-28T11:02:36.999Z</time></trkpt><trkpt lat="33.860066477221544" lon="-6.310243384187141"><ele>385.5</ele><time>2026-04-28T11:02:37.999Z</time></trkpt><trkpt lat="33.86030992794694" lon="-6.310454663981719"><ele>385.0</ele><time>2026-04-28T11:02:38.999Z</time></trkpt><trkpt lat="33.86055651986732" lon="-6.3106617137697185"><ele>382.5</ele><time>2026-04-28T11:02:39.999Z</time></trkpt><trkpt lat="33.86080215512747" lon="-6.3108663261185765"><ele>380.0</ele><time>2026-04-28T11:02:40.999Z</time></trkpt><trkpt lat="33.86105059808102" lon="-6.311063834957088"><ele>377.5</ele><time>2026-04-28T11:02:41.999Z</time></trkpt><trkpt lat="33.86130318090848" lon="-6.31125388043411"><ele>375.0</ele><time>2026-04-28T11:02:42.999Z</time></trkpt><trkpt lat="33.861558871408484" lon="-6.311432097766624"><ele>376.5</ele><time>2026-04-28T11:02:43.999Z</time></trkpt><trkpt lat="33.86181580358467" lon="-6.311605377243979"><ele>378.0</ele><time>2026-04-28T11:02:44.999Z</time></trkpt><trkpt lat="33.86207412593029" lon="-6.31177664501883"><ele>378.0</ele><time>2026-04-28T11:02:45.999Z</time></trkpt><trkpt lat="33.862333009246136" lon="-6.311945188231298"><ele>378.0</ele><time>2026-04-28T11:02:46.999Z</time></trkpt><trkpt lat="33.86259116411093" lon="-6.312117188680786"><ele>382.5</ele><time>2026-04-28T11:02:47.999Z</time></trkpt><trkpt lat="33.862849950173384" lon="-6.312287669025254"><ele>387.0</ele><time>2026-04-28T11:02:48.999Z</time></trkpt><trkpt lat="33.863109078682406" lon="-6.312460064652569"><ele>387.0</ele><time>2026-04-28T11:02:49.999Z</time></trkpt><trkpt lat="33.8633694134079" lon="-6.312630187708273"><ele>387.0</ele><time>2026-04-28T11:02:50.999Z</time></trkpt><trkpt lat="33.863630264041035" lon="-6.312805591404861"><ele>388.0</ele><time>2026-04-28T11:02:51.999Z</time></trkpt><trkpt lat="33.86389177716933" lon="-6.3129814609028525"><ele>389.0</ele><time>2026-04-28T11:02:52.999Z</time></trkpt><trkpt lat="33.864153672049504" lon="-6.313155934415204"><ele>390.0</ele><time>2026-04-28T11:02:53.999Z</time></trkpt><trkpt lat="33.864418288502236" lon="-6.313327137227266"><ele>391.0</ele><time>2026-04-28T11:02:54.999Z</time></trkpt><trkpt lat="33.864677064558165" lon="-6.313509268675818"><ele>391.0</ele><time>2026-04-28T11:02:55.999Z</time></trkpt><trkpt lat="33.864935822711544" lon="-6.313692345751383"><ele>391.0</ele><time>2026-04-28T11:02:56.999Z</time></trkpt><trkpt lat="33.86519493741846" lon="-6.313875538199504"><ele>390.0</ele><time>2026-04-28T11:02:57.999Z</time></trkpt><trkpt lat="33.865452117759574" lon="-6.314062865660209"><ele>389.0</ele><time>2026-04-28T11:02:58.999Z</time></trkpt><trkpt lat="33.86570564274343" lon="-6.314256451323479"><ele>386.5</ele><time>2026-04-28T11:02:59.999Z</time></trkpt><trkpt lat="33.865959339976094" lon="-6.314450896684867"><ele>384.0</ele><time>2026-04-28T11:03:00.999Z</time></trkpt><trkpt lat="33.866212124684445" lon="-6.314646437182687"><ele>385.0</ele><time>2026-04-28T11:03:01.999Z</time></trkpt><trkpt lat="33.86646423583122" lon="-6.314844515040715"><ele>386.0</ele><time>2026-04-28T11:03:02.999Z</time></trkpt><trkpt lat="33.86671490064702" lon="-6.315043511152824"><ele>385.0</ele><time>2026-04-28T11:03:03.999Z</time></trkpt><trkpt lat="33.86696575299874" lon="-6.3152384408828635"><ele>384.0</ele><time>2026-04-28T11:03:04.999Z</time></trkpt><trkpt lat="33.86721466121601" lon="-6.315437196551001"><ele>384.5</ele><time>2026-04-28T11:03:05.999Z</time></trkpt><trkpt lat="33.86745962108102" lon="-6.315640460631192"><ele>385.0</ele><time>2026-04-28T11:03:06.999Z</time></trkpt><trkpt lat="33.867703238839866" lon="-6.315845659308614"><ele>385.5</ele><time>2026-04-28T11:03:07.999Z</time></trkpt><trkpt lat="33.86794303490301" lon="-6.316059308417844"><ele>386.0</ele><time>2026-04-28T11:03:08.999Z</time></trkpt><trkpt lat="33.86818519027261" lon="-6.316268653621633"><ele>385.0</ele><time>2026-04-28T11:03:09.999Z</time></trkpt><trkpt lat="33.86842364758697" lon="-6.316486484313182"><ele>384.0</ele><time>2026-04-28T11:03:10.999Z</time></trkpt><trkpt lat="33.86866314963055" lon="-6.316703358643383"><ele>383.5</ele><time>2026-04-28T11:03:11.999Z</time></trkpt><trkpt lat="33.868900128306" lon="-6.316926906340881"><ele>383.0</ele><time>2026-04-28T11:03:12.999Z</time></trkpt><trkpt lat="33.86913622195647" lon="-6.3171542278162605"><ele>380.5</ele><time>2026-04-28T11:03:13.999Z</time></trkpt><trkpt lat="33.86936947678753" lon="-6.317381747155396"><ele>378.0</ele><time>2026-04-28T11:03:14.999Z</time></trkpt><trkpt lat="33.869600407302975" lon="-6.3176115320414175"><ele>378.0</ele><time>2026-04-28T11:03:15.999Z</time></trkpt><trkpt lat="33.8698289461491" lon="-6.317845858247849"><ele>378.0</ele><time>2026-04-28T11:03:16.999Z</time></trkpt><trkpt lat="33.87005360462323" lon="-6.318083050416541"><ele>376.5</ele><time>2026-04-28T11:03:17.999Z</time></trkpt><trkpt lat="33.87027758653331" lon="-6.31831837436732"><ele>375.0</ele><time>2026-04-28T11:03:18.999Z</time></trkpt><trkpt lat="33.87050274431805" lon="-6.318549517180147"><ele>375.0</ele><time>2026-04-28T11:03:19.999Z</time></trkpt><trkpt lat="33.87072770521958" lon="-6.318780724475444"><ele>375.0</ele><time>2026-04-28T11:03:20.999Z</time></trkpt><trkpt lat="33.87095224741549" lon="-6.319014436918359"><ele>373.5</ele><time>2026-04-28T11:03:21.999Z</time></trkpt><trkpt lat="33.87117812632789" lon="-6.319246628368531"><ele>372.0</ele><time>2026-04-28T11:03:22.999Z</time></trkpt><trkpt lat="33.87140441433085" lon="-6.31948070177379"><ele>372.0</ele><time>2026-04-28T11:03:23.999Z</time></trkpt><trkpt lat="33.87163140103552" lon="-6.319713129952004"><ele>372.0</ele><time>2026-04-28T11:03:24.999Z</time></trkpt><trkpt lat="33.87185850528286" lon="-6.319942182845803"><ele>372.0</ele><time>2026-04-28T11:03:25.999Z</time></trkpt><trkpt lat="33.87208223355993" lon="-6.3201774096449075"><ele>372.0</ele><time>2026-04-28T11:03:26.999Z</time></trkpt><trkpt lat="33.87230607901974" lon="-6.320412566937826"><ele>371.5</ele><time>2026-04-28T11:03:27.999Z</time></trkpt><trkpt lat="33.872529286143084" lon="-6.320651546955319"><ele>371.0</ele><time>2026-04-28T11:03:28.999Z</time></trkpt><trkpt lat="33.87275551062799" lon="-6.320888569356429"><ele>370.5</ele><time>2026-04-28T11:03:29.999Z</time></trkpt><trkpt lat="33.87298062581475" lon="-6.321127585014981"><ele>370.0</ele><time>2026-04-28T11:03:30.999Z</time></trkpt><trkpt lat="33.87320626692192" lon="-6.321366312003763"><ele>369.5</ele><time>2026-04-28T11:03:31.998Z</time></trkpt><trkpt lat="33.87343126647266" lon="-6.3216057443508396"><ele>369.0</ele><time>2026-04-28T11:03:32.998Z</time></trkpt><trkpt lat="33.873657420830675" lon="-6.32184272326571"><ele>369.0</ele><time>2026-04-28T11:03:33.998Z</time></trkpt><trkpt lat="33.87388048451704" lon="-6.322083348740614"><ele>369.0</ele><time>2026-04-28T11:03:34.998Z</time></trkpt><trkpt lat="33.874108526171405" lon="-6.322318569867331"><ele>367.0</ele><time>2026-04-28T11:03:35.998Z</time></trkpt><trkpt lat="33.874339955092324" lon="-6.322546397570749"><ele>365.0</ele><time>2026-04-28T11:03:36.998Z</time></trkpt><trkpt lat="33.87457120918716" lon="-6.32277579999689"><ele>365.0</ele><time>2026-04-28T11:03:37.998Z</time></trkpt><trkpt lat="33.87479957823042" lon="-6.3230053576060135"><ele>365.0</ele><time>2026-04-28T11:03:38.998Z</time></trkpt><trkpt lat="33.87502541274968" lon="-6.323238658040996"><ele>364.5</ele><time>2026-04-28T11:03:39.998Z</time></trkpt><trkpt lat="33.87525276000098" lon="-6.323469274132244"><ele>364.0</ele><time>2026-04-28T11:03:41Z</time></trkpt><trkpt lat="33.87547648340582" lon="-6.323701875229405"><ele>362.0</ele><time>2026-04-28T11:03:42Z</time></trkpt><trkpt lat="33.87570122981554" lon="-6.3239327728973525"><ele>360.0</ele><time>2026-04-28T11:03:43Z</time></trkpt><trkpt lat="33.8759266027272" lon="-6.32416551664248"><ele>359.5</ele><time>2026-04-28T11:03:44Z</time></trkpt><trkpt lat="33.8761525446078" lon="-6.324398704869869"><ele>359.0</ele><time>2026-04-28T11:03:45Z</time></trkpt><trkpt lat="33.8763791308219" lon="-6.324632414470042"><ele>357.0</ele><time>2026-04-28T11:03:45.999Z</time></trkpt><trkpt lat="33.87660331527009" lon="-6.324866593772367"><ele>355.0</ele><time>2026-04-28T11:03:46.999Z</time></trkpt><trkpt lat="33.876828272638654" lon="-6.325099027752869"><ele>354.0</ele><time>2026-04-28T11:03:47.999Z</time></trkpt><trkpt lat="33.87705179976893" lon="-6.325333320669311"><ele>353.0</ele><time>2026-04-28T11:03:48.999Z</time></trkpt><trkpt lat="33.877275866384714" lon="-6.325568581444049"><ele>353.0</ele><time>2026-04-28T11:03:49.999Z</time></trkpt><trkpt lat="33.877499174947936" lon="-6.32580526553456"><ele>353.0</ele><time>2026-04-28T11:03:50.999Z</time></trkpt><trkpt lat="33.87772243971828" lon="-6.326041877138678"><ele>350.5</ele><time>2026-04-28T11:03:51.999Z</time></trkpt><trkpt lat="33.87794853615174" lon="-6.326275317374305"><ele>348.0</ele><time>2026-04-28T11:03:52.999Z</time></trkpt><trkpt lat="33.878178217063294" lon="-6.326504322760515"><ele>347.5</ele><time>2026-04-28T11:03:53.999Z</time></trkpt><trkpt lat="33.87840490640941" lon="-6.326739103536744"><ele>347.0</ele><time>2026-04-28T11:03:54.999Z</time></trkpt><trkpt lat="33.87863486691255" lon="-6.326972634654906"><ele>346.0</ele><time>2026-04-28T11:03:55.999Z</time></trkpt><trkpt lat="33.87885696866297" lon="-6.327211191562643"><ele>345.0</ele><time>2026-04-28T11:03:56.999Z</time></trkpt><trkpt lat="33.879080537236376" lon="-6.327448790254123"><ele>347.0</ele><time>2026-04-28T11:03:57.999Z</time></trkpt><trkpt lat="33.879303650530346" lon="-6.327687412448724"><ele>349.0</ele><time>2026-04-28T11:03:58.999Z</time></trkpt><trkpt lat="33.87952965027731" lon="-6.327923908928396"><ele>348.5</ele><time>2026-04-28T11:03:59.999Z</time></trkpt><trkpt lat="33.87975400483201" lon="-6.328162800427168"><ele>348.0</ele><time>2026-04-28T11:04:00.999Z</time></trkpt><trkpt lat="33.87998094956254" lon="-6.328399136799077"><ele>350.0</ele><time>2026-04-28T11:04:01.999Z</time></trkpt><trkpt lat="33.8802026812922" lon="-6.328642172523613"><ele>352.0</ele><time>2026-04-28T11:04:02.999Z</time></trkpt><trkpt lat="33.880424857367395" lon="-6.328888339353663"><ele>348.5</ele><time>2026-04-28T11:04:03.999Z</time></trkpt><trkpt lat="33.88063896328781" lon="-6.329140037499491"><ele>345.0</ele><time>2026-04-28T11:04:04.999Z</time></trkpt><trkpt lat="33.88084829721336" lon="-6.329397051569373"><ele>345.0</ele><time>2026-04-28T11:04:05.999Z</time></trkpt><trkpt lat="33.881058547440276" lon="-6.329653941824358"><ele>345.0</ele><time>2026-04-28T11:04:06.999Z</time></trkpt><trkpt lat="33.88126201012939" lon="-6.3299132477315005"><ele>343.0</ele><time>2026-04-28T11:04:07.999Z</time></trkpt><trkpt lat="33.88146395021058" lon="-6.330175714507616"><ele>341.0</ele><time>2026-04-28T11:04:08.999Z</time></trkpt><trkpt lat="33.88166551496951" lon="-6.330437710114389"><ele>338.0</ele><time>2026-04-28T11:04:09.999Z</time></trkpt><trkpt lat="33.881863258592446" lon="-6.33070105388939"><ele>335.0</ele><time>2026-04-28T11:04:10.999Z</time></trkpt><trkpt lat="33.88205914210368" lon="-6.330967477671453"><ele>335.0</ele><time>2026-04-28T11:04:11.999Z</time></trkpt><trkpt lat="33.88225090077985" lon="-6.331236826485861"><ele>335.0</ele><time>2026-04-28T11:04:12.999Z</time></trkpt><trkpt lat="33.88244266372094" lon="-6.331507561484129"><ele>335.5</ele><time>2026-04-28T11:04:13.999Z</time></trkpt><trkpt lat="33.882629377018596" lon="-6.331784312501137"><ele>336.0</ele><time>2026-04-28T11:04:14.999Z</time></trkpt><trkpt lat="33.882813504777936" lon="-6.3320634871046"><ele>337.5</ele><time>2026-04-28T11:04:15.999Z</time></trkpt><trkpt lat="33.882999482060804" lon="-6.332342123226599"><ele>339.0</ele><time>2026-04-28T11:04:16.999Z</time></trkpt><trkpt lat="33.88319029155726" lon="-6.332612152966729"><ele>339.0</ele><time>2026-04-28T11:04:17.999Z</time></trkpt><trkpt lat="33.88337386608148" lon="-6.332893465868472"><ele>339.0</ele><time>2026-04-28T11:04:18.999Z</time></trkpt><trkpt lat="33.88355366120035" lon="-6.333179329359702"><ele>342.5</ele><time>2026-04-28T11:04:19.999Z</time></trkpt><trkpt lat="33.88373177709262" lon="-6.333469475741642"><ele>346.0</ele><time>2026-04-28T11:04:20.999Z</time></trkpt><trkpt lat="33.88390396065756" lon="-6.333766026166798"><ele>345.0</ele><time>2026-04-28T11:04:21.999Z</time></trkpt><trkpt lat="33.88407014365286" lon="-6.334065284532686"><ele>344.0</ele><time>2026-04-28T11:04:22.999Z</time></trkpt><trkpt lat="33.88423242449831" lon="-6.334367081976263"><ele>343.5</ele><time>2026-04-28T11:04:23.999Z</time></trkpt><trkpt lat="33.88438930039793" lon="-6.334671970467162"><ele>343.0</ele><time>2026-04-28T11:04:24.999Z</time></trkpt><trkpt lat="33.88454336881282" lon="-6.334979516274356"><ele>343.0</ele><time>2026-04-28T11:04:25.999Z</time></trkpt><trkpt lat="33.88470011525812" lon="-6.3352864690913115"><ele>343.0</ele><time>2026-04-28T11:04:26.999Z</time></trkpt><trkpt lat="33.88485705568066" lon="-6.3355949304008305"><ele>341.5</ele><time>2026-04-28T11:04:27.999Z</time></trkpt><trkpt lat="33.88501525010903" lon="-6.335903754843489"><ele>340.0</ele><time>2026-04-28T11:04:28.999Z</time></trkpt><trkpt lat="33.88517322581853" lon="-6.336209084841695"><ele>341.5</ele><time>2026-04-28T11:04:29.999Z</time></trkpt><trkpt lat="33.88533220937293" lon="-6.336512835904959"><ele>343.0</ele><time>2026-04-28T11:04:30.999Z</time></trkpt><trkpt lat="33.885491815194" lon="-6.336815608505805"><ele>343.0</ele><time>2026-04-28T11:04:31.999Z</time></trkpt><trkpt lat="33.88565276026639" lon="-6.337117337665505"><ele>343.0</ele><time>2026-04-28T11:04:32.999Z</time></trkpt><trkpt lat="33.88581488995306" lon="-6.337419989219221"><ele>345.0</ele><time>2026-04-28T11:04:33.999Z</time></trkpt><trkpt lat="33.88597765005919" lon="-6.337722681937013"><ele>347.0</ele><time>2026-04-28T11:04:34.999Z</time></trkpt><trkpt lat="33.88614109011574" lon="-6.338027117307155"><ele>347.0</ele><time>2026-04-28T11:04:35.999Z</time></trkpt><trkpt lat="33.886304019034775" lon="-6.338328021140511"><ele>347.0</ele><time>2026-04-28T11:04:36.999Z</time></trkpt><trkpt lat="33.88646580680315" lon="-6.338629780257293"><ele>346.5</ele><time>2026-04-28T11:04:37.999Z</time></trkpt><trkpt lat="33.886627548509765" lon="-6.338930615981953"><ele>346.0</ele><time>2026-04-28T11:04:38.999Z</time></trkpt><trkpt lat="33.88678783991372" lon="-6.339230697735556"><ele>346.0</ele><time>2026-04-28T11:04:39.999Z</time></trkpt><trkpt lat="33.88694758407061" lon="-6.3395304366601914"><ele>346.0</ele><time>2026-04-28T11:04:40.999Z</time></trkpt><trkpt lat="33.88710866493631" lon="-6.3398310312284565"><ele>344.5</ele><time>2026-04-28T11:04:41.999Z</time></trkpt><trkpt lat="33.88726931096105" lon="-6.3401309765997516"><ele>343.0</ele><time>2026-04-28T11:04:42.999Z</time></trkpt><trkpt lat="33.887430495276426" lon="-6.340432330291162"><ele>343.0</ele><time>2026-04-28T11:04:43.999Z</time></trkpt><trkpt lat="33.88759449842237" lon="-6.3407357557391775"><ele>343.0</ele><time>2026-04-28T11:04:44.999Z</time></trkpt><trkpt lat="33.88775753010133" lon="-6.341039820940115"><ele>343.0</ele><time>2026-04-28T11:04:45.999Z</time></trkpt><trkpt lat="33.88792019383567" lon="-6.341344024412922"><ele>343.0</ele><time>2026-04-28T11:04:46.999Z</time></trkpt><trkpt lat="33.88808171064452" lon="-6.3416476650203055"><ele>342.0</ele><time>2026-04-28T11:04:47.999Z</time></trkpt><trkpt lat="33.888243541879916" lon="-6.341953197671862"><ele>341.0</ele><time>2026-04-28T11:04:48.999Z</time></trkpt><trkpt lat="33.88840351578038" lon="-6.3422595623479605"><ele>342.5</ele><time>2026-04-28T11:04:49.999Z</time></trkpt><trkpt lat="33.88856388047718" lon="-6.342566745017749"><ele>344.0</ele><time>2026-04-28T11:04:50.999Z</time></trkpt><trkpt lat="33.8887214293944" lon="-6.342877461134129"><ele>343.5</ele><time>2026-04-28T11:04:51.999Z</time></trkpt><trkpt lat="33.8888732706534" lon="-6.343191102155616"><ele>343.0</ele><time>2026-04-28T11:04:52.999Z</time></trkpt><trkpt lat="33.88902062724742" lon="-6.343505197178367"><ele>343.0</ele><time>2026-04-28T11:04:53.999Z</time></trkpt><trkpt lat="33.889164506706" lon="-6.343821666655194"><ele>343.0</ele><time>2026-04-28T11:04:54.999Z</time></trkpt><trkpt lat="33.889304186345676" lon="-6.344139560414314"><ele>342.0</ele><time>2026-04-28T11:04:55.999Z</time></trkpt><trkpt lat="33.8894390507343" lon="-6.344459562918539"><ele>341.0</ele><time>2026-04-28T11:04:56.999Z</time></trkpt><trkpt lat="33.88957316858233" lon="-6.34477943435213"><ele>340.0</ele><time>2026-04-28T11:04:57.999Z</time></trkpt><trkpt lat="33.88970179459755" lon="-6.345099836890888"><ele>339.0</ele><time>2026-04-28T11:04:58.999Z</time></trkpt><trkpt lat="33.88982648441423" lon="-6.34542510484366"><ele>337.0</ele><time>2026-04-28T11:04:59.999Z</time></trkpt><trkpt lat="33.88994975399371" lon="-6.3457523063365855"><ele>335.0</ele><time>2026-04-28T11:05:00.999Z</time></trkpt><trkpt lat="33.890072268850645" lon="-6.346080010766431"><ele>335.5</ele><time>2026-04-28T11:05:01.999Z</time></trkpt><trkpt lat="33.89018989991206" lon="-6.3464097680352305"><ele>336.0</ele><time>2026-04-28T11:05:02.999Z</time></trkpt><trkpt lat="33.89030304862684" lon="-6.346741057222267"><ele>336.0</ele><time>2026-04-28T11:05:03.999Z</time></trkpt><trkpt lat="33.89041818653956" lon="-6.347071852220234"><ele>336.0</ele><time>2026-04-28T11:05:04.999Z</time></trkpt><trkpt lat="33.89053195295408" lon="-6.347405249445315"><ele>334.0</ele><time>2026-04-28T11:05:05.999Z</time></trkpt><trkpt lat="33.890637866843456" lon="-6.34774209786629"><ele>332.0</ele><time>2026-04-28T11:05:06.999Z</time></trkpt><trkpt lat="33.8907393221313" lon="-6.348078392163249"><ele>331.5</ele><time>2026-04-28T11:05:07.999Z</time></trkpt><trkpt lat="33.89083846196928" lon="-6.348416186604189"><ele>331.0</ele><time>2026-04-28T11:05:08.999Z</time></trkpt><trkpt lat="33.89093336121995" lon="-6.348753377390429"><ele>333.0</ele><time>2026-04-28T11:05:09.999Z</time></trkpt><trkpt lat="33.891027051728265" lon="-6.349088549772082"><ele>335.0</ele><time>2026-04-28T11:05:10.999Z</time></trkpt><trkpt lat="33.89111429239905" lon="-6.34942430645795"><ele>336.5</ele><time>2026-04-28T11:05:11.999Z</time></trkpt><trkpt lat="33.89120044637933" lon="-6.349758181601383"><ele>338.0</ele><time>2026-04-28T11:05:12.999Z</time></trkpt><trkpt lat="33.891285472950635" lon="-6.350095840811045"><ele>338.0</ele><time>2026-04-28T11:05:13.999Z</time></trkpt><trkpt lat="33.8913737674728" lon="-6.350435235298306"><ele>338.0</ele><time>2026-04-28T11:05:14.999Z</time></trkpt><trkpt lat="33.89145859158022" lon="-6.3507765139842824"><ele>338.0</ele><time>2026-04-28T11:05:15.999Z</time></trkpt><trkpt lat="33.891535717022116" lon="-6.351120098647135"><ele>338.0</ele><time>2026-04-28T11:05:16.999Z</time></trkpt><trkpt lat="33.89161063891714" lon="-6.351464827848183"><ele>339.0</ele><time>2026-04-28T11:05:17.999Z</time></trkpt><trkpt lat="33.891681151916" lon="-6.351811810663891"><ele>340.0</ele><time>2026-04-28T11:05:18.999Z</time></trkpt><trkpt lat="33.891754716815775" lon="-6.352160292096877"><ele>340.5</ele><time>2026-04-28T11:05:19.999Z</time></trkpt><trkpt lat="33.891821236462334" lon="-6.3525111110169545"><ele>341.0</ele><time>2026-04-28T11:05:20.999Z</time></trkpt><trkpt lat="33.89188319023404" lon="-6.352862086033896"><ele>342.0</ele><time>2026-04-28T11:05:21.999Z</time></trkpt><trkpt lat="33.89193882272206" lon="-6.353214012675248"><ele>343.0</ele><time>2026-04-28T11:05:22.999Z</time></trkpt><trkpt lat="33.89199425317907" lon="-6.353569218199016"><ele>342.5</ele><time>2026-04-28T11:05:23.999Z</time></trkpt><trkpt lat="33.892043311439416" lon="-6.353927324635563"><ele>342.0</ele><time>2026-04-28T11:05:24.999Z</time></trkpt><trkpt lat="33.89208824496581" lon="-6.3542847747119495"><ele>342.0</ele><time>2026-04-28T11:05:25.999Z</time></trkpt><trkpt lat="33.89212923712608" lon="-6.354643565263284"><ele>342.0</ele><time>2026-04-28T11:05:26.999Z</time></trkpt><trkpt lat="33.892164281856004" lon="-6.355003853124094"><ele>341.5</ele><time>2026-04-28T11:05:27.999Z</time></trkpt><trkpt lat="33.89220010424387" lon="-6.355363142334204"><ele>341.0</ele><time>2026-04-28T11:05:28.999Z</time></trkpt><trkpt lat="33.89223446710813" lon="-6.355722299500342"><ele>341.0</ele><time>2026-04-28T11:05:29.999Z</time></trkpt><trkpt lat="33.89226712767172" lon="-6.356080046139402"><ele>341.0</ele><time>2026-04-28T11:05:30.999Z</time></trkpt><trkpt lat="33.89229707061014" lon="-6.356440636794297"><ele>341.5</ele><time>2026-04-28T11:05:31.999Z</time></trkpt><trkpt lat="33.89232775902903" lon="-6.3567995899715894"><ele>342.0</ele><time>2026-04-28T11:05:32.999Z</time></trkpt><trkpt lat="33.89234573146796" lon="-6.3571579863291605"><ele>341.5</ele><time>2026-04-28T11:05:33.999Z</time></trkpt><trkpt lat="33.89236533487234" lon="-6.357518265459087"><ele>341.0</ele><time>2026-04-28T11:05:34.998Z</time></trkpt><trkpt lat="33.892382948312694" lon="-6.357876460107899"><ele>340.5</ele><time>2026-04-28T11:05:35.998Z</time></trkpt><trkpt lat="33.89239690737329" lon="-6.358236208682691"><ele>340.0</ele><time>2026-04-28T11:05:36.998Z</time></trkpt><trkpt lat="33.892406225076655" lon="-6.3585944271845"><ele>339.5</ele><time>2026-04-28T11:05:37.998Z</time></trkpt><trkpt lat="33.89241252846528" lon="-6.358949169991728"><ele>339.0</ele><time>2026-04-28T11:05:38.998Z</time></trkpt><trkpt lat="33.89241303785916" lon="-6.359305790877922"><ele>339.0</ele><time>2026-04-28T11:05:39.998Z</time></trkpt><trkpt lat="33.89240951301577" lon="-6.359661768410011"><ele>339.0</ele><time>2026-04-28T11:05:40.998Z</time></trkpt><trkpt lat="33.8924040651716" lon="-6.360017312140789"><ele>339.0</ele><time>2026-04-28T11:05:41.998Z</time></trkpt><trkpt lat="33.89239450650798" lon="-6.360373459462514"><ele>339.0</ele><time>2026-04-28T11:05:42.998Z</time></trkpt><trkpt lat="33.89238181444848" lon="-6.360727252167458"><ele>338.0</ele><time>2026-04-28T11:05:43.998Z</time></trkpt><trkpt lat="33.89236817259104" lon="-6.361079080551433"><ele>337.0</ele><time>2026-04-28T11:05:44.998Z</time></trkpt><trkpt lat="33.892350970972615" lon="-6.361432989541317"><ele>336.5</ele><time>2026-04-28T11:05:45.998Z</time></trkpt><trkpt lat="33.89233250122316" lon="-6.3617857512938984"><ele>336.0</ele><time>2026-04-28T11:05:46.999Z</time></trkpt><trkpt lat="33.89231565589739" lon="-6.3621396552366365"><ele>335.5</ele><time>2026-04-28T11:05:47.999Z</time></trkpt><trkpt lat="33.89230143625694" lon="-6.362493948443623"><ele>335.0</ele><time>2026-04-28T11:05:48.999Z</time></trkpt><trkpt lat="33.89228963855604" lon="-6.362849794912011"><ele>333.5</ele><time>2026-04-28T11:05:49.999Z</time></trkpt><trkpt lat="33.89227740843056" lon="-6.363205734605293"><ele>332.0</ele><time>2026-04-28T11:05:50.999Z</time></trkpt><trkpt lat="33.89226885143095" lon="-6.363562416581599"><ele>332.5</ele><time>2026-04-28T11:05:51.999Z</time></trkpt><trkpt lat="33.89226302056192" lon="-6.36391680064923"><ele>333.0</ele><time>2026-04-28T11:05:52.999Z</time></trkpt><trkpt lat="33.89225982863812" lon="-6.364271300081859"><ele>333.0</ele><time>2026-04-28T11:05:53.999Z</time></trkpt><trkpt lat="33.892260471435726" lon="-6.364626379248667"><ele>333.0</ele><time>2026-04-28T11:05:54.999Z</time></trkpt><trkpt lat="33.892265853946" lon="-6.3649809883713555"><ele>333.0</ele><time>2026-04-28T11:05:55.999Z</time></trkpt><trkpt lat="33.892274083655614" lon="-6.36533550988895"><ele>333.0</ele><time>2026-04-28T11:05:56.999Z</time></trkpt><trkpt lat="33.89228680639242" lon="-6.365691371240359"><ele>333.0</ele><time>2026-04-28T11:05:57.999Z</time></trkpt><trkpt lat="33.89230689183139" lon="-6.366048363077848"><ele>333.0</ele><time>2026-04-28T11:05:58.999Z</time></trkpt><trkpt lat="33.892334044315646" lon="-6.366405035462594"><ele>333.5</ele><time>2026-04-28T11:05:59.999Z</time></trkpt><trkpt lat="33.892362182684735" lon="-6.36676346767952"><ele>334.0</ele><time>2026-04-28T11:06:00.999Z</time></trkpt><trkpt lat="33.892391674020345" lon="-6.367121655049164"><ele>334.5</ele><time>2026-04-28T11:06:01.999Z</time></trkpt><trkpt lat="33.89243025666713" lon="-6.367479223363757"><ele>335.0</ele><time>2026-04-28T11:06:02.999Z</time></trkpt><trkpt lat="33.892478471936215" lon="-6.367835023518948"><ele>336.0</ele><time>2026-04-28T11:06:03.999Z</time></trkpt><trkpt lat="33.892532522123254" lon="-6.368186696633497"><ele>337.0</ele><time>2026-04-28T11:06:04.999Z</time></trkpt><trkpt lat="33.89259263091204" lon="-6.368537704081115"><ele>337.0</ele><time>2026-04-28T11:06:05.999Z</time></trkpt><trkpt lat="33.89265826407509" lon="-6.368889272838442"><ele>337.0</ele><time>2026-04-28T11:06:06.999Z</time></trkpt><trkpt lat="33.8927287194132" lon="-6.369239845252157"><ele>337.0</ele><time>2026-04-28T11:06:07.999Z</time></trkpt><trkpt lat="33.892803387216134" lon="-6.369591799952662"><ele>337.0</ele><time>2026-04-28T11:06:08.999Z</time></trkpt><trkpt lat="33.89288052518219" lon="-6.3699426361350415"><ele>337.0</ele><time>2026-04-28T11:06:09.999Z</time></trkpt><trkpt lat="33.89296080407939" lon="-6.3702918317767665"><ele>337.0</ele><time>2026-04-28T11:06:10.999Z</time></trkpt><trkpt lat="33.89304490502934" lon="-6.3706397028801245"><ele>336.0</ele><time>2026-04-28T11:06:11.999Z</time></trkpt><trkpt lat="33.89313308533136" lon="-6.37098520757724"><ele>335.0</ele><time>2026-04-28T11:06:12.999Z</time></trkpt><trkpt lat="33.89322806610382" lon="-6.371327907583915"><ele>334.5</ele><time>2026-04-28T11:06:13.999Z</time></trkpt><trkpt lat="33.893328034022105" lon="-6.371668890532375"><ele>334.0</ele><time>2026-04-28T11:06:14.999Z</time></trkpt><trkpt lat="33.89343234511025" lon="-6.372007062812633"><ele>331.5</ele><time>2026-04-28T11:06:15.999Z</time></trkpt><trkpt lat="33.89354144830652" lon="-6.372341413478541"><ele>329.0</ele><time>2026-04-28T11:06:16.999Z</time></trkpt><trkpt lat="33.893656125319886" lon="-6.372674701764147"><ele>329.0</ele><time>2026-04-28T11:06:17.999Z</time></trkpt><trkpt lat="33.893773483552465" lon="-6.3730076608639905"><ele>329.0</ele><time>2026-04-28T11:06:18.999Z</time></trkpt><trkpt lat="33.893893892649004" lon="-6.3733387581868275"><ele>329.0</ele><time>2026-04-28T11:06:19.999Z</time></trkpt><trkpt lat="33.89401924546009" lon="-6.373669586029592"><ele>329.0</ele><time>2026-04-28T11:06:20.999Z</time></trkpt><trkpt lat="33.89414702705434" lon="-6.3739984473795115"><ele>327.0</ele><time>2026-04-28T11:06:21.999Z</time></trkpt><trkpt lat="33.8942829077084" lon="-6.374320853389903"><ele>325.0</ele><time>2026-04-28T11:06:22.999Z</time></trkpt><trkpt lat="33.894425327425736" lon="-6.374637128736405"><ele>326.0</ele><time>2026-04-28T11:06:23.999Z</time></trkpt><trkpt lat="33.89456999395806" lon="-6.3749516888943445"><ele>327.0</ele><time>2026-04-28T11:06:24.999Z</time></trkpt><trkpt lat="33.89471587190062" lon="-6.375263844970411"><ele>326.5</ele><time>2026-04-28T11:06:25.999Z</time></trkpt><trkpt lat="33.894865556229234" lon="-6.375572926411719"><ele>326.0</ele><time>2026-04-28T11:06:26.999Z</time></trkpt><trkpt lat="33.895018117422794" lon="-6.3758782754842125"><ele>326.5</ele><time>2026-04-28T11:06:27.999Z</time></trkpt><trkpt lat="33.895172658974246" lon="-6.376184844866155"><ele>327.0</ele><time>2026-04-28T11:06:28.999Z</time></trkpt><trkpt lat="33.89532799678974" lon="-6.376491240446883"><ele>325.5</ele><time>2026-04-28T11:06:29.999Z</time></trkpt><trkpt lat="33.8954850543293" lon="-6.376800165142973"><ele>324.0</ele><time>2026-04-28T11:06:30.999Z</time></trkpt><trkpt lat="33.89564450235444" lon="-6.3771111365635935"><ele>323.5</ele><time>2026-04-28T11:06:31.999Z</time></trkpt><trkpt lat="33.89580306616223" lon="-6.377420932796084"><ele>323.0</ele><time>2026-04-28T11:06:32.999Z</time></trkpt><trkpt lat="33.89596046853446" lon="-6.377729763944716"><ele>320.0</ele><time>2026-04-28T11:06:33.999Z</time></trkpt><trkpt lat="33.89611775321668" lon="-6.3780372563861665"><ele>317.0</ele><time>2026-04-28T11:06:34.999Z</time></trkpt><trkpt lat="33.8962754352937" lon="-6.378344631995238"><ele>317.0</ele><time>2026-04-28T11:06:35.999Z</time></trkpt><trkpt lat="33.896431780167255" lon="-6.378651566657701"><ele>317.0</ele><time>2026-04-28T11:06:36.999Z</time></trkpt><trkpt lat="33.896584613244805" lon="-6.37895945796087"><ele>317.5</ele><time>2026-04-28T11:06:37.999Z</time></trkpt><trkpt lat="33.89673323037615" lon="-6.3792677500377195"><ele>318.0</ele><time>2026-04-28T11:06:38.999Z</time></trkpt><trkpt lat="33.89688014114683" lon="-6.37957633662583"><ele>321.0</ele><time>2026-04-28T11:06:39.999Z</time></trkpt><trkpt lat="33.89702639817528" lon="-6.37988620692167"><ele>324.0</ele><time>2026-04-28T11:06:40.999Z</time></trkpt><trkpt lat="33.897168101341414" lon="-6.380197331851066"><ele>324.0</ele><time>2026-04-28T11:06:41.999Z</time></trkpt><trkpt lat="33.89730697913969" lon="-6.380509702245444"><ele>324.0</ele><time>2026-04-28T11:06:42.999Z</time></trkpt><trkpt lat="33.89744326992558" lon="-6.380823648192201"><ele>324.0</ele><time>2026-04-28T11:06:43.999Z</time></trkpt><trkpt lat="33.89757629485794" lon="-6.3811410918575096"><ele>324.0</ele><time>2026-04-28T11:06:44.999Z</time></trkpt><trkpt lat="33.897708113125006" lon="-6.381461138520142"><ele>325.0</ele><time>2026-04-28T11:06:46Z</time></trkpt><trkpt lat="33.89783784796805" lon="-6.381781768114923"><ele>326.0</ele><time>2026-04-28T11:06:47Z</time></trkpt><trkpt lat="33.897965940764095" lon="-6.382102247735383"><ele>324.0</ele><time>2026-04-28T11:06:48Z</time></trkpt><trkpt lat="33.898090571817804" lon="-6.382421912827655"><ele>322.0</ele><time>2026-04-28T11:06:49Z</time></trkpt><trkpt lat="33.89821313721398" lon="-6.382742535011701"><ele>322.0</ele><time>2026-04-28T11:06:50Z</time></trkpt><trkpt lat="33.89833467801873" lon="-6.3830645619767035"><ele>322.0</ele><time>2026-04-28T11:06:51Z</time></trkpt><trkpt lat="33.89845234081939" lon="-6.383388385629904"><ele>322.0</ele><time>2026-04-28T11:06:52Z</time></trkpt><trkpt lat="33.89856773317281" lon="-6.383713541892692"><ele>322.0</ele><time>2026-04-28T11:06:53Z</time></trkpt><trkpt lat="33.89868002965092" lon="-6.384042394943505"><ele>321.0</ele><time>2026-04-28T11:06:54Z</time></trkpt><trkpt lat="33.8987940512781" lon="-6.384372456576853"><ele>320.0</ele><time>2026-04-28T11:06:55Z</time></trkpt><trkpt lat="33.898902576378376" lon="-6.384706572266783"><ele>319.5</ele><time>2026-04-28T11:06:56Z</time></trkpt><trkpt lat="33.8990040862413" lon="-6.385044871472087"><ele>319.0</ele><time>2026-04-28T11:06:57Z</time></trkpt><trkpt lat="33.89910203355266" lon="-6.385385518516322"><ele>318.5</ele><time>2026-04-28T11:06:58Z</time></trkpt><trkpt lat="33.89920218754069" lon="-6.385727550601577"><ele>318.0</ele><time>2026-04-28T11:06:59Z</time></trkpt><trkpt lat="33.89930214100217" lon="-6.3860673457514565"><ele>316.5</ele><time>2026-04-28T11:07:00Z</time></trkpt><trkpt lat="33.899402499218574" lon="-6.386409036036056"><ele>315.0</ele><time>2026-04-28T11:07:01Z</time></trkpt><trkpt lat="33.89949950914689" lon="-6.386750215293409"><ele>315.0</ele><time>2026-04-28T11:07:02Z</time></trkpt><trkpt lat="33.89959025300953" lon="-6.387093063690743"><ele>315.0</ele><time>2026-04-28T11:07:03Z</time></trkpt><trkpt lat="33.89968120312945" lon="-6.387435264207458"><ele>315.0</ele><time>2026-04-28T11:07:04Z</time></trkpt><trkpt lat="33.89976768843664" lon="-6.387780164029296"><ele>315.0</ele><time>2026-04-28T11:07:05Z</time></trkpt><trkpt lat="33.89985583478421" lon="-6.388124841318429"><ele>314.5</ele><time>2026-04-28T11:07:06Z</time></trkpt><trkpt lat="33.89993699785707" lon="-6.388471129492445"><ele>314.0</ele><time>2026-04-28T11:07:07Z</time></trkpt><trkpt lat="33.90001683638009" lon="-6.388818616802812"><ele>313.0</ele><time>2026-04-28T11:07:08Z</time></trkpt><trkpt lat="33.900092397642524" lon="-6.389168232791913"><ele>312.0</ele><time>2026-04-28T11:07:09Z</time></trkpt><trkpt lat="33.90016283198822" lon="-6.389520009373627"><ele>311.0</ele><time>2026-04-28T11:07:10Z</time></trkpt><trkpt lat="33.9002255088605" lon="-6.389874259882077"><ele>310.0</ele><time>2026-04-28T11:07:11Z</time></trkpt><trkpt lat="33.90028836016405" lon="-6.390226976980518"><ele>308.5</ele><time>2026-04-28T11:07:12Z</time></trkpt><trkpt lat="33.9003530359109" lon="-6.390578554578063"><ele>307.0</ele><time>2026-04-28T11:07:13Z</time></trkpt><trkpt lat="33.90041128969733" lon="-6.390931415694551"><ele>307.0</ele><time>2026-04-28T11:07:14Z</time></trkpt><trkpt lat="33.900468628498935" lon="-6.391283164546236"><ele>307.0</ele><time>2026-04-28T11:07:15Z</time></trkpt><trkpt lat="33.900522883166516" lon="-6.391636324333849"><ele>304.0</ele><time>2026-04-28T11:07:16Z</time></trkpt><trkpt lat="33.90057489769938" lon="-6.39198985535097"><ele>301.0</ele><time>2026-04-28T11:07:17Z</time></trkpt><trkpt lat="33.900624521590714" lon="-6.392342075718502"><ele>301.0</ele><time>2026-04-28T11:07:18Z</time></trkpt><trkpt lat="33.90066930375557" lon="-6.392693628310451"><ele>301.0</ele><time>2026-04-28T11:07:19Z</time></trkpt><trkpt lat="33.90071732334731" lon="-6.393041306348394"><ele>302.0</ele><time>2026-04-28T11:07:20Z</time></trkpt><trkpt lat="33.900763586112355" lon="-6.393390026747597"><ele>303.0</ele><time>2026-04-28T11:07:21Z</time></trkpt><trkpt lat="33.90080642253307" lon="-6.393739636158169"><ele>305.5</ele><time>2026-04-28T11:07:22Z</time></trkpt><trkpt lat="33.90085199550708" lon="-6.394088563838214"><ele>308.0</ele><time>2026-04-28T11:07:23Z</time></trkpt><trkpt lat="33.9008989612015" lon="-6.394435086126447"><ele>310.0</ele><time>2026-04-28T11:07:24Z</time></trkpt><trkpt lat="33.90094613947316" lon="-6.394783435625769"><ele>312.0</ele><time>2026-04-28T11:07:25Z</time></trkpt><trkpt lat="33.90099527687501" lon="-6.395134595691712"><ele>312.0</ele><time>2026-04-28T11:07:26Z</time></trkpt><trkpt lat="33.90105477935601" lon="-6.395485190442718"><ele>312.0</ele><time>2026-04-28T11:07:27Z</time></trkpt><trkpt lat="33.90111823548747" lon="-6.395834974375118"><ele>310.5</ele><time>2026-04-28T11:07:28Z</time></trkpt><trkpt lat="33.90118477133574" lon="-6.396183243720919"><ele>309.0</ele><time>2026-04-28T11:07:29Z</time></trkpt><trkpt lat="33.901259908802444" lon="-6.3965295761917496"><ele>309.0</ele><time>2026-04-28T11:07:30Z</time></trkpt><trkpt lat="33.901338848384576" lon="-6.396875557237607"><ele>309.0</ele><time>2026-04-28T11:07:30.999Z</time></trkpt><trkpt lat="33.90142402062678" lon="-6.39721915647061"><ele>309.0</ele><time>2026-04-28T11:07:31.999Z</time></trkpt><trkpt lat="33.90151314963401" lon="-6.39756228261673"><ele>309.0</ele><time>2026-04-28T11:07:32.999Z</time></trkpt><trkpt lat="33.901611457356125" lon="-6.397903876702782"><ele>309.0</ele><time>2026-04-28T11:07:33.999Z</time></trkpt><trkpt lat="33.90170762172093" lon="-6.398243799014893"><ele>309.0</ele><time>2026-04-28T11:07:34.999Z</time></trkpt><trkpt lat="33.90181387562642" lon="-6.398580020049937"><ele>309.5</ele><time>2026-04-28T11:07:35.999Z</time></trkpt><trkpt lat="33.901925300656416" lon="-6.3989136696740525"><ele>310.0</ele><time>2026-04-28T11:07:36.999Z</time></trkpt><trkpt lat="33.90204348207615" lon="-6.399244201538134"><ele>310.0</ele><time>2026-04-28T11:07:37.999Z</time></trkpt><trkpt lat="33.90216729896853" lon="-6.3995730338488555"><ele>310.0</ele><time>2026-04-28T11:07:38.999Z</time></trkpt><trkpt lat="33.90229432114802" lon="-6.399900159802727"><ele>309.0</ele><time>2026-04-28T11:07:39.999Z</time></trkpt><trkpt lat="33.90242702296605" lon="-6.40022345141039"><ele>308.0</ele><time>2026-04-28T11:07:40.999Z</time></trkpt><trkpt lat="33.90257729966305" lon="-6.4005402277244405"><ele>309.5</ele><time>2026-04-28T11:07:41.999Z</time></trkpt><trkpt lat="33.90272151696796" lon="-6.400856219230096"><ele>311.0</ele><time>2026-04-28T11:07:42.999Z</time></trkpt><trkpt lat="33.90287140976489" lon="-6.401169493835299"><ele>310.5</ele><time>2026-04-28T11:07:43.999Z</time></trkpt><trkpt lat="33.90302087799463" lon="-6.401477429205801"><ele>310.0</ele><time>2026-04-28T11:07:44.999Z</time></trkpt><trkpt lat="33.90317204376678" lon="-6.401779543369899"><ele>310.0</ele><time>2026-04-28T11:07:45.999Z</time></trkpt><trkpt lat="33.90332447069302" lon="-6.402075875814987"><ele>310.0</ele><time>2026-04-28T11:07:46.999Z</time></trkpt><trkpt lat="33.90348095781558" lon="-6.402364761356483"><ele>309.0</ele><time>2026-04-28T11:07:47.999Z</time></trkpt><trkpt lat="33.903640798517735" lon="-6.4026446861715955"><ele>308.0</ele><time>2026-04-28T11:07:48.999Z</time></trkpt><trkpt lat="33.90380457191588" lon="-6.402917877191554"><ele>307.0</ele><time>2026-04-28T11:07:49.999Z</time></trkpt><trkpt lat="33.90396880039214" lon="-6.403181386542237"><ele>306.0</ele><time>2026-04-28T11:07:50.999Z</time></trkpt><trkpt lat="33.904132497609815" lon="-6.403438291492155"><ele>305.0</ele><time>2026-04-28T11:07:52Z</time></trkpt><trkpt lat="33.90429334706281" lon="-6.40368772368612"><ele>304.0</ele><time>2026-04-28T11:07:53Z</time></trkpt><trkpt lat="33.90445260248081" lon="-6.403926111082649"><ele>303.5</ele><time>2026-04-28T11:07:54Z</time></trkpt><trkpt lat="33.90460860448178" lon="-6.404154540026485"><ele>303.0</ele><time>2026-04-28T11:07:55Z</time></trkpt><trkpt lat="33.904761969977386" lon="-6.404378320103581"><ele>303.0</ele><time>2026-04-28T11:07:56Z</time></trkpt><trkpt lat="33.90491519823711" lon="-6.404600732588673"><ele>303.0</ele><time>2026-04-28T11:07:57Z</time></trkpt><trkpt lat="33.905062007281856" lon="-6.404811429585937"><ele>302.0</ele><time>2026-04-28T11:07:58Z</time></trkpt><trkpt lat="33.90520401540208" lon="-6.405016986685368"><ele>301.0</ele><time>2026-04-28T11:07:59Z</time></trkpt><trkpt lat="33.90534438178102" lon="-6.405216172756212"><ele>300.0</ele><time>2026-04-28T11:08:00Z</time></trkpt><trkpt lat="33.90548394743106" lon="-6.405410792856094"><ele>299.0</ele><time>2026-04-28T11:08:01Z</time></trkpt><trkpt lat="33.905618283451645" lon="-6.405603986798377"><ele>298.0</ele><time>2026-04-28T11:08:02Z</time></trkpt><trkpt lat="33.905748369804805" lon="-6.405794582416034"><ele>297.0</ele><time>2026-04-28T11:08:03Z</time></trkpt><trkpt lat="33.90587764168496" lon="-6.4059805442545175"><ele>296.3333333333333</ele><time>2026-04-28T11:08:04Z</time></trkpt><trkpt lat="33.90600440879186" lon="-6.406165101015209"><ele>295.66666666666663</ele><time>2026-04-28T11:08:05Z</time></trkpt><trkpt lat="33.90612919413233" lon="-6.4063504011286785"><ele>295.0</ele><time>2026-04-28T11:08:06Z</time></trkpt><trkpt lat="33.90625150088539" lon="-6.406534691042367"><ele>295.0</ele><time>2026-04-28T11:08:07Z</time></trkpt><trkpt lat="33.9063732813809" lon="-6.406717907011693"><ele>295.0</ele><time>2026-04-28T11:08:08Z</time></trkpt><trkpt lat="33.90649873636338" lon="-6.406909372903962"><ele>295.0</ele><time>2026-04-28T11:08:09Z</time></trkpt><trkpt lat="33.906630660400204" lon="-6.40710984261459"><ele>294.66666666666663</ele><time>2026-04-28T11:08:10Z</time></trkpt><trkpt lat="33.90676488401104" lon="-6.407320041473972"><ele>294.3333333333333</ele><time>2026-04-28T11:08:11Z</time></trkpt><trkpt lat="33.90690030102688" lon="-6.407535768774146"><ele>294.0</ele><time>2026-04-28T11:08:12Z</time></trkpt><trkpt lat="33.90703562361949" lon="-6.407757699764235"><ele>294.0</ele><time>2026-04-28T11:08:13Z</time></trkpt><trkpt lat="33.90717038651389" lon="-6.407983453853568"><ele>294.0</ele><time>2026-04-28T11:08:14Z</time></trkpt><trkpt lat="33.90730318344945" lon="-6.408214434584023"><ele>293.5</ele><time>2026-04-28T11:08:15Z</time></trkpt><trkpt lat="33.90743535584128" lon="-6.408450167260087"><ele>293.0</ele><time>2026-04-28T11:08:16Z</time></trkpt><trkpt lat="33.907566022674935" lon="-6.408691060201372"><ele>295.0</ele><time>2026-04-28T11:08:17Z</time></trkpt><trkpt lat="33.90769915179154" lon="-6.408935278734974"><ele>297.0</ele><time>2026-04-28T11:08:18Z</time></trkpt><trkpt lat="33.90783183104283" lon="-6.409184433273468"><ele>297.0</ele><time>2026-04-28T11:08:19Z</time></trkpt><trkpt lat="33.90796456283194" lon="-6.409440410371516"><ele>297.0</ele><time>2026-04-28T11:08:20Z</time></trkpt><trkpt lat="33.90810031898862" lon="-6.409703915170895"><ele>296.0</ele><time>2026-04-28T11:08:21Z</time></trkpt><trkpt lat="33.90823717147323" lon="-6.409976509139848"><ele>295.0</ele><time>2026-04-28T11:08:22Z</time></trkpt><trkpt lat="33.9083766273367" lon="-6.410256087516298"><ele>293.5</ele><time>2026-04-28T11:08:23Z</time></trkpt><trkpt lat="33.908516777193576" lon="-6.41054357535414"><ele>292.0</ele><time>2026-04-28T11:08:24Z</time></trkpt><trkpt lat="33.90865275398857" lon="-6.410839497729003"><ele>292.0</ele><time>2026-04-28T11:08:25Z</time></trkpt><trkpt lat="33.908786766558855" lon="-6.4111429526628205"><ele>292.0</ele><time>2026-04-28T11:08:26Z</time></trkpt><trkpt lat="33.90892162796556" lon="-6.411449704883982"><ele>291.0</ele><time>2026-04-28T11:08:27Z</time></trkpt><trkpt lat="33.909054739650884" lon="-6.411761908566661"><ele>290.0</ele><time>2026-04-28T11:08:28Z</time></trkpt><trkpt lat="33.909185537275654" lon="-6.412076056583756"><ele>292.5</ele><time>2026-04-28T11:08:29Z</time></trkpt><trkpt lat="33.909312119304786" lon="-6.412393468181941"><ele>295.0</ele><time>2026-04-28T11:08:30Z</time></trkpt><trkpt lat="33.90943144716666" lon="-6.412712578457568"><ele>294.0</ele><time>2026-04-28T11:08:31Z</time></trkpt><trkpt lat="33.90954603626489" lon="-6.413027907767978"><ele>293.0</ele><time>2026-04-28T11:08:32Z</time></trkpt><trkpt lat="33.90965793180051" lon="-6.413341309445025"><ele>293.0</ele><time>2026-04-28T11:08:33Z</time></trkpt><trkpt lat="33.90976256592832" lon="-6.4136534172823865"><ele>293.0</ele><time>2026-04-28T11:08:34Z</time></trkpt><trkpt lat="33.90986323207708" lon="-6.413967676061843"><ele>292.0</ele><time>2026-04-28T11:08:35Z</time></trkpt><trkpt lat="33.9099590993433" lon="-6.414283422586012"><ele>291.0</ele><time>2026-04-28T11:08:36Z</time></trkpt><trkpt lat="33.91004989492794" lon="-6.414602476759246"><ele>287.0</ele><time>2026-04-28T11:08:37Z</time></trkpt><trkpt lat="33.910135053487224" lon="-6.4149232632869575"><ele>283.0</ele><time>2026-04-28T11:08:38Z</time></trkpt><trkpt lat="33.910220362411266" lon="-6.415245777990232"><ele>282.5</ele><time>2026-04-28T11:08:39Z</time></trkpt><trkpt lat="33.910308321808145" lon="-6.415566496668227"><ele>282.0</ele><time>2026-04-28T11:08:40Z</time></trkpt><trkpt lat="33.91039671022576" lon="-6.415894881337555"><ele>282.0</ele><time>2026-04-28T11:08:41Z</time></trkpt><trkpt lat="33.91047973931651" lon="-6.416222998426397"><ele>282.0</ele><time>2026-04-28T11:08:42Z</time></trkpt><trkpt lat="33.9105560836525" lon="-6.41655150583341"><ele>281.0</ele><time>2026-04-28T11:08:43Z</time></trkpt><trkpt lat="33.910628697941654" lon="-6.416883056577161"><ele>280.0</ele><time>2026-04-28T11:08:44Z</time></trkpt><trkpt lat="33.91070106897245" lon="-6.417215395246565"><ele>279.5</ele><time>2026-04-28T11:08:45Z</time></trkpt><trkpt lat="33.91077544329071" lon="-6.417552397970277"><ele>279.0</ele><time>2026-04-28T11:08:46Z</time></trkpt><trkpt lat="33.91084859394304" lon="-6.417896210015834"><ele>279.0</ele><time>2026-04-28T11:08:47Z</time></trkpt><trkpt lat="33.91091987110804" lon="-6.418243529389529"><ele>279.0</ele><time>2026-04-28T11:08:48Z</time></trkpt><trkpt lat="33.910991312506866" lon="-6.418588636272843"><ele>278.5</ele><time>2026-04-28T11:08:49Z</time></trkpt><trkpt lat="33.91106459536828" lon="-6.418933046742334"><ele>278.0</ele><time>2026-04-28T11:08:50Z</time></trkpt><trkpt lat="33.911140657579175" lon="-6.419278440620004"><ele>278.0</ele><time>2026-04-28T11:08:51Z</time></trkpt><trkpt lat="33.911215711637425" lon="-6.419625039315119"><ele>278.0</ele><time>2026-04-28T11:08:52Z</time></trkpt><trkpt lat="33.91128792055809" lon="-6.4199715843884775"><ele>279.5</ele><time>2026-04-28T11:08:53Z</time></trkpt><trkpt lat="33.911357368156395" lon="-6.42031921969396"><ele>281.0</ele><time>2026-04-28T11:08:54Z</time></trkpt><trkpt lat="33.91142630986497" lon="-6.420665202265633"><ele>282.0</ele><time>2026-04-28T11:08:55Z</time></trkpt><trkpt lat="33.9114969169795" lon="-6.421012521628825"><ele>283.0</ele><time>2026-04-28T11:08:56Z</time></trkpt><trkpt lat="33.91156855014031" lon="-6.421359987142814"><ele>285.0</ele><time>2026-04-28T11:08:57Z</time></trkpt><trkpt lat="33.91164164012096" lon="-6.421708545208473"><ele>287.0</ele><time>2026-04-28T11:08:58Z</time></trkpt><trkpt lat="33.911715079059775" lon="-6.4220568922441545"><ele>287.5</ele><time>2026-04-28T11:08:59Z</time></trkpt><trkpt lat="33.91178856475611" lon="-6.422403982998723"><ele>288.0</ele><time>2026-04-28T11:09:00Z</time></trkpt><trkpt lat="33.911861981853335" lon="-6.422750559058386"><ele>288.5</ele><time>2026-04-28T11:09:01Z</time></trkpt><trkpt lat="33.911933865861194" lon="-6.423099894038934"><ele>289.0</ele><time>2026-04-28T11:09:02Z</time></trkpt><trkpt lat="33.91200346189019" lon="-6.423449166933222"><ele>289.0</ele><time>2026-04-28T11:09:03Z</time></trkpt><trkpt lat="33.91207469766609" lon="-6.423798634361151"><ele>289.0</ele><time>2026-04-28T11:09:04Z</time></trkpt><trkpt lat="33.91214772573511" lon="-6.424146410880219"><ele>288.5</ele><time>2026-04-28T11:09:05Z</time></trkpt><trkpt lat="33.912219581045626" lon="-6.42449367629106"><ele>288.0</ele><time>2026-04-28T11:09:06Z</time></trkpt><trkpt lat="33.912293097437534" lon="-6.424841973293392"><ele>288.0</ele><time>2026-04-28T11:09:07Z</time></trkpt><trkpt lat="33.91237008757123" lon="-6.425189695158895"><ele>288.0</ele><time>2026-04-28T11:09:08Z</time></trkpt><trkpt lat="33.91244667018146" lon="-6.425537446650798"><ele>289.0</ele><time>2026-04-28T11:09:09Z</time></trkpt><trkpt lat="33.912517907677575" lon="-6.425887115751145"><ele>290.0</ele><time>2026-04-28T11:09:10Z</time></trkpt><trkpt lat="33.91258912698123" lon="-6.426237883984093"><ele>290.5</ele><time>2026-04-28T11:09:11Z</time></trkpt><trkpt lat="33.91266066112834" lon="-6.426588194179287"><ele>291.0</ele><time>2026-04-28T11:09:12Z</time></trkpt><trkpt lat="33.91273222348372" lon="-6.426936867952655"><ele>292.0</ele><time>2026-04-28T11:09:13Z</time></trkpt><trkpt lat="33.91280478167394" lon="-6.427286075566243"><ele>293.0</ele><time>2026-04-28T11:09:14Z</time></trkpt><trkpt lat="33.912878108110476" lon="-6.427634902866002"><ele>292.0</ele><time>2026-04-28T11:09:15Z</time></trkpt><trkpt lat="33.9129506427366" lon="-6.427985231546727"><ele>291.0</ele><time>2026-04-28T11:09:16Z</time></trkpt><trkpt lat="33.91302067606705" lon="-6.428337874227046"><ele>291.0</ele><time>2026-04-28T11:09:17Z</time></trkpt><trkpt lat="33.913090097137506" lon="-6.42868834343906"><ele>291.0</ele><time>2026-04-28T11:09:18Z</time></trkpt><trkpt lat="33.91316346458565" lon="-6.4290397967601125"><ele>291.5</ele><time>2026-04-28T11:09:19Z</time></trkpt><trkpt lat="33.91323784002484" lon="-6.4293909583696305"><ele>292.0</ele><time>2026-04-28T11:09:20Z</time></trkpt><trkpt lat="33.91330931469071" lon="-6.429742349709513"><ele>292.0</ele><time>2026-04-28T11:09:21Z</time></trkpt><trkpt lat="33.91338027530455" lon="-6.430093676936025"><ele>292.0</ele><time>2026-04-28T11:09:22Z</time></trkpt><trkpt lat="33.91345309407355" lon="-6.430444305253207"><ele>291.0</ele><time>2026-04-28T11:09:23Z</time></trkpt><trkpt lat="33.91352742271566" lon="-6.430792037711711"><ele>290.0</ele><time>2026-04-28T11:09:24Z</time></trkpt><trkpt lat="33.913602863941605" lon="-6.431139760334474"><ele>290.0</ele><time>2026-04-28T11:09:25Z</time></trkpt><trkpt lat="33.913677761460626" lon="-6.431491103354519"><ele>290.0</ele><time>2026-04-28T11:09:26Z</time></trkpt><trkpt lat="33.91375036336527" lon="-6.431843157408511"><ele>290.5</ele><time>2026-04-28T11:09:27Z</time></trkpt><trkpt lat="33.91382133066916" lon="-6.432193801681363"><ele>291.0</ele><time>2026-04-28T11:09:28Z</time></trkpt><trkpt lat="33.91389516041668" lon="-6.432543528525904"><ele>291.0</ele><time>2026-04-28T11:09:29Z</time></trkpt><trkpt lat="33.91397114917412" lon="-6.432893783088511"><ele>291.0</ele><time>2026-04-28T11:09:30Z</time></trkpt><trkpt lat="33.914047335697994" lon="-6.433244114741316"><ele>291.0</ele><time>2026-04-28T11:09:31Z</time></trkpt><trkpt lat="33.914124111750695" lon="-6.433594201995059"><ele>291.0</ele><time>2026-04-28T11:09:32Z</time></trkpt><trkpt lat="33.914196700352704" lon="-6.433944383984673"><ele>289.5</ele><time>2026-04-28T11:09:33Z</time></trkpt><trkpt lat="33.914266508651174" lon="-6.434295885720064"><ele>288.0</ele><time>2026-04-28T11:09:34Z</time></trkpt><trkpt lat="33.914337562730935" lon="-6.434646737454067"><ele>287.5</ele><time>2026-04-28T11:09:35Z</time></trkpt><trkpt lat="33.914410008692556" lon="-6.434998569110997"><ele>287.0</ele><time>2026-04-28T11:09:36Z</time></trkpt><trkpt lat="33.91448384849828" lon="-6.435349240693973"><ele>285.5</ele><time>2026-04-28T11:09:37Z</time></trkpt><trkpt lat="33.914557698066105" lon="-6.4356979562621515"><ele>284.0</ele><time>2026-04-28T11:09:38Z</time></trkpt><trkpt lat="33.91462989513019" lon="-6.436047373757111"><ele>284.5</ele><time>2026-04-28T11:09:39Z</time></trkpt><trkpt lat="33.91470320799978" lon="-6.4363965096817335"><ele>285.0</ele><time>2026-04-28T11:09:40Z</time></trkpt><trkpt lat="33.91477556929798" lon="-6.436744560752888"><ele>285.0</ele><time>2026-04-28T11:09:41Z</time></trkpt><trkpt lat="33.91484525364243" lon="-6.437093693091287"><ele>285.0</ele><time>2026-04-28T11:09:41.999Z</time></trkpt><trkpt lat="33.91491627309296" lon="-6.437443179607067"><ele>284.0</ele><time>2026-04-28T11:09:42.999Z</time></trkpt><trkpt lat="33.91498963660186" lon="-6.437792741852234"><ele>283.0</ele><time>2026-04-28T11:09:43.999Z</time></trkpt><trkpt lat="33.915064407711924" lon="-6.438142866923098"><ele>282.5</ele><time>2026-04-28T11:09:44.999Z</time></trkpt><trkpt lat="33.91513826448297" lon="-6.438492952120514"><ele>282.0</ele><time>2026-04-28T11:09:45.999Z</time></trkpt><trkpt lat="33.915212477269314" lon="-6.438842270018299"><ele>280.5</ele><time>2026-04-28T11:09:46.999Z</time></trkpt><trkpt lat="33.91528617441629" lon="-6.439191202739296"><ele>279.0</ele><time>2026-04-28T11:09:47.999Z</time></trkpt><trkpt lat="33.91536056102101" lon="-6.439540448023016"><ele>279.0</ele><time>2026-04-28T11:09:48.999Z</time></trkpt><trkpt lat="33.91544018556655" lon="-6.4398892730703485"><ele>279.0</ele><time>2026-04-28T11:09:49.999Z</time></trkpt><trkpt lat="33.91552699573479" lon="-6.440234563707145"><ele>278.5</ele><time>2026-04-28T11:09:50.999Z</time></trkpt><trkpt lat="33.91562056251603" lon="-6.440578126172813"><ele>278.0</ele><time>2026-04-28T11:09:51.999Z</time></trkpt><trkpt lat="33.91571736436616" lon="-6.440922811298142"><ele>278.0</ele><time>2026-04-28T11:09:52.999Z</time></trkpt><trkpt lat="33.91581532225334" lon="-6.441268511551595"><ele>278.0</ele><time>2026-04-28T11:09:53.999Z</time></trkpt><trkpt lat="33.91591678718221" lon="-6.441610615425197"><ele>278.0</ele><time>2026-04-28T11:09:54.999Z</time></trkpt><trkpt lat="33.9160238190293" lon="-6.441947920611074"><ele>278.0</ele><time>2026-04-28T11:09:55.999Z</time></trkpt><trkpt lat="33.91613714094911" lon="-6.442281708508067"><ele>276.5</ele><time>2026-04-28T11:09:56.999Z</time></trkpt><trkpt lat="33.916256518229225" lon="-6.44261194332357"><ele>275.0</ele><time>2026-04-28T11:09:58Z</time></trkpt><trkpt lat="33.91637929201545" lon="-6.442939897216397"><ele>276.0</ele><time>2026-04-28T11:09:59Z</time></trkpt><trkpt lat="33.91650637057999" lon="-6.443265357602183"><ele>277.0</ele><time>2026-04-28T11:10:00Z</time></trkpt><trkpt lat="33.916635987084376" lon="-6.443588519618743"><ele>274.5</ele><time>2026-04-28T11:10:01Z</time></trkpt><trkpt lat="33.91677006420083" lon="-6.443910503047801"><ele>272.0</ele><time>2026-04-28T11:10:02Z</time></trkpt><trkpt lat="33.916907733181375" lon="-6.444229896214841"><ele>272.0</ele><time>2026-04-28T11:10:03Z</time></trkpt><trkpt lat="33.91705423162532" lon="-6.4445459571819335"><ele>272.0</ele><time>2026-04-28T11:10:04Z</time></trkpt><trkpt lat="33.9172067286158" lon="-6.444855528508017"><ele>271.5</ele><time>2026-04-28T11:10:05Z</time></trkpt><trkpt lat="33.91736213267118" lon="-6.445164563474369"><ele>271.0</ele><time>2026-04-28T11:10:06Z</time></trkpt><trkpt lat="33.917517419434105" lon="-6.445472810614725"><ele>270.0</ele><time>2026-04-28T11:10:07Z</time></trkpt><trkpt lat="33.91767490332614" lon="-6.4457799581584"><ele>269.0</ele><time>2026-04-28T11:10:08Z</time></trkpt><trkpt lat="33.917836526707" lon="-6.4460789992064305"><ele>269.0</ele><time>2026-04-28T11:10:09Z</time></trkpt><trkpt lat="33.9180068016421" lon="-6.446372795307109"><ele>269.0</ele><time>2026-04-28T11:10:10Z</time></trkpt><trkpt lat="33.91818293362437" lon="-6.446662075169686"><ele>269.0</ele><time>2026-04-28T11:10:11Z</time></trkpt><trkpt lat="33.91836288520492" lon="-6.446949084934358"><ele>269.0</ele><time>2026-04-28T11:10:12Z</time></trkpt><trkpt lat="33.91854382630966" lon="-6.447233412777461"><ele>268.5</ele><time>2026-04-28T11:10:13Z</time></trkpt><trkpt lat="33.91873020608319" lon="-6.447514230996015"><ele>268.0</ele><time>2026-04-28T11:10:14Z</time></trkpt><trkpt lat="33.91892052313091" lon="-6.44779066365401"><ele>267.0</ele><time>2026-04-28T11:10:15Z</time></trkpt><trkpt lat="33.91911581292934" lon="-6.4480641750341015"><ele>266.0</ele><time>2026-04-28T11:10:16Z</time></trkpt><trkpt lat="33.91931429121445" lon="-6.448335362711208"><ele>265.0</ele><time>2026-04-28T11:10:17Z</time></trkpt><trkpt lat="33.91951799168047" lon="-6.44860052169386"><ele>264.0</ele><time>2026-04-28T11:10:18Z</time></trkpt><trkpt lat="33.919725956930705" lon="-6.448863087857596"><ele>265.0</ele><time>2026-04-28T11:10:19Z</time></trkpt><trkpt lat="33.91993416366997" lon="-6.449124311952115"><ele>266.0</ele><time>2026-04-28T11:10:20Z</time></trkpt><trkpt lat="33.92014594998103" lon="-6.4493825910576295"><ele>265.5</ele><time>2026-04-28T11:10:21Z</time></trkpt><trkpt lat="33.92036276314212" lon="-6.449635057761482"><ele>265.0</ele><time>2026-04-28T11:10:22Z</time></trkpt><trkpt lat="33.9205837073549" lon="-6.449881374721176"><ele>265.0</ele><time>2026-04-28T11:10:23Z</time></trkpt><trkpt lat="33.92080569544865" lon="-6.450125282408771"><ele>265.0</ele><time>2026-04-28T11:10:24Z</time></trkpt><trkpt lat="33.92103046827707" lon="-6.450363570621616"><ele>264.5</ele><time>2026-04-28T11:10:25Z</time></trkpt><trkpt lat="33.9212597492947" lon="-6.450594453375886"><ele>264.0</ele><time>2026-04-28T11:10:26Z</time></trkpt><trkpt lat="33.921490157884925" lon="-6.450823675534768"><ele>264.0</ele><time>2026-04-28T11:10:27Z</time></trkpt><trkpt lat="33.92172349846794" lon="-6.4510482464009495"><ele>264.0</ele><time>2026-04-28T11:10:28Z</time></trkpt><trkpt lat="33.921961252125605" lon="-6.451268635030111"><ele>265.5</ele><time>2026-04-28T11:10:29Z</time></trkpt><trkpt lat="33.92219982931443" lon="-6.451491069125213"><ele>267.0</ele><time>2026-04-28T11:10:30Z</time></trkpt><trkpt lat="33.92243812784999" lon="-6.451713593661789"><ele>267.0</ele><time>2026-04-28T11:10:31Z</time></trkpt><trkpt lat="33.922676213145465" lon="-6.4519356031980495"><ele>267.0</ele><time>2026-04-28T11:10:32Z</time></trkpt><trkpt lat="33.92291459042211" lon="-6.452155657810636"><ele>267.0</ele><time>2026-04-28T11:10:33Z</time></trkpt><trkpt lat="33.92315391788836" lon="-6.452372376109408"><ele>267.0</ele><time>2026-04-28T11:10:34Z</time></trkpt><trkpt lat="33.92339061356165" lon="-6.452592018425509"><ele>267.0</ele><time>2026-04-28T11:10:35Z</time></trkpt><trkpt lat="33.92362365228884" lon="-6.452816970311569"><ele>267.0</ele><time>2026-04-28T11:10:36Z</time></trkpt><trkpt lat="33.923853889521375" lon="-6.453043574550103"><ele>267.5</ele><time>2026-04-28T11:10:37Z</time></trkpt><trkpt lat="33.92408241416845" lon="-6.453275397054453"><ele>268.0</ele><time>2026-04-28T11:10:38Z</time></trkpt><trkpt lat="33.924309399327214" lon="-6.453510286383846"><ele>268.0</ele><time>2026-04-28T11:10:39Z</time></trkpt><trkpt lat="33.924537423800196" lon="-6.453743807152592"><ele>268.0</ele><time>2026-04-28T11:10:40Z</time></trkpt><trkpt lat="33.92476272691715" lon="-6.453982888665485"><ele>268.0</ele><time>2026-04-28T11:10:41Z</time></trkpt><trkpt lat="33.92498680075158" lon="-6.454224591805236"><ele>268.0</ele><time>2026-04-28T11:10:42Z</time></trkpt><trkpt lat="33.92520913863803" lon="-6.454468297316642"><ele>267.5</ele><time>2026-04-28T11:10:43Z</time></trkpt><trkpt lat="33.9254285564919" lon="-6.454716639327689"><ele>267.0</ele><time>2026-04-28T11:10:44Z</time></trkpt><trkpt lat="33.92564348352163" lon="-6.454968481728413"><ele>267.0</ele><time>2026-04-28T11:10:45Z</time></trkpt><trkpt lat="33.925854577216015" lon="-6.455226062451241"><ele>267.0</ele><time>2026-04-28T11:10:46Z</time></trkpt><trkpt lat="33.926063656208704" lon="-6.455485745025011"><ele>264.5</ele><time>2026-04-28T11:10:47Z</time></trkpt><trkpt lat="33.92626876653432" lon="-6.455751006104125"><ele>262.0</ele><time>2026-04-28T11:10:48Z</time></trkpt><trkpt lat="33.92647205291792" lon="-6.456019652770882"><ele>264.0</ele><time>2026-04-28T11:10:49Z</time></trkpt><trkpt lat="33.926675067043924" lon="-6.456289794181347"><ele>266.0</ele><time>2026-04-28T11:10:50Z</time></trkpt><trkpt lat="33.92687333009064" lon="-6.456563783776511"><ele>266.0</ele><time>2026-04-28T11:10:51Z</time></trkpt><trkpt lat="33.92706941045641" lon="-6.456840840820526"><ele>266.0</ele><time>2026-04-28T11:10:52Z</time></trkpt><trkpt lat="33.92726431469841" lon="-6.45712193905266"><ele>265.5</ele><time>2026-04-28T11:10:53Z</time></trkpt><trkpt lat="33.92745170665594" lon="-6.457406154672359"><ele>265.0</ele><time>2026-04-28T11:10:54Z</time></trkpt><trkpt lat="33.927636874572734" lon="-6.457692885024891"><ele>264.0</ele><time>2026-04-28T11:10:55Z</time></trkpt><trkpt lat="33.92781789504394" lon="-6.457983871231147"><ele>263.0</ele><time>2026-04-28T11:10:56Z</time></trkpt><trkpt lat="33.92799608210079" lon="-6.458276429830368"><ele>263.0</ele><time>2026-04-28T11:10:57Z</time></trkpt><trkpt lat="33.92817061863833" lon="-6.4585708170916485"><ele>263.0</ele><time>2026-04-28T11:10:58Z</time></trkpt><trkpt lat="33.928343724674654" lon="-6.4588670345540455"><ele>261.0</ele><time>2026-04-28T11:10:59Z</time></trkpt><trkpt lat="33.928513318068944" lon="-6.459164728855256"><ele>259.0</ele><time>2026-04-28T11:11:00Z</time></trkpt><trkpt lat="33.9286812510694" lon="-6.459463047540677"><ele>258.0</ele><time>2026-04-28T11:11:01Z</time></trkpt><trkpt lat="33.92884886011304" lon="-6.459762705880389"><ele>257.0</ele><time>2026-04-28T11:11:02Z</time></trkpt><trkpt lat="33.9290168281735" lon="-6.460059982160457"><ele>257.0</ele><time>2026-04-28T11:11:03Z</time></trkpt><trkpt lat="33.9291829171618" lon="-6.460359144124044"><ele>257.0</ele><time>2026-04-28T11:11:04Z</time></trkpt><trkpt lat="33.92934744182531" lon="-6.460660494059508"><ele>255.5</ele><time>2026-04-28T11:11:05Z</time></trkpt><trkpt lat="33.92951620135299" lon="-6.4609609597961395"><ele>254.0</ele><time>2026-04-28T11:11:06Z</time></trkpt><trkpt lat="33.929684421392935" lon="-6.461260625845995"><ele>254.5</ele><time>2026-04-28T11:11:07Z</time></trkpt><trkpt lat="33.92985383323598" lon="-6.461560553348378"><ele>255.0</ele><time>2026-04-28T11:11:08Z</time></trkpt><trkpt lat="33.93002731943584" lon="-6.461855308632217"><ele>252.5</ele><time>2026-04-28T11:11:09Z</time></trkpt><trkpt lat="33.93020647662569" lon="-6.462145404808505"><ele>250.0</ele><time>2026-04-28T11:11:10Z</time></trkpt><trkpt lat="33.93038795569594" lon="-6.462429870774046"><ele>250.0</ele><time>2026-04-28T11:11:11Z</time></trkpt><trkpt lat="33.9305711184113" lon="-6.462713114715091"><ele>250.0</ele><time>2026-04-28T11:11:12Z</time></trkpt><trkpt lat="33.93075746511067" lon="-6.462993842166189"><ele>252.0</ele><time>2026-04-28T11:11:13Z</time></trkpt><trkpt lat="33.93094583793664" lon="-6.4632740253553616"><ele>254.0</ele><time>2026-04-28T11:11:14Z</time></trkpt><trkpt lat="33.93113280940502" lon="-6.463553196069215"><ele>254.0</ele><time>2026-04-28T11:11:15Z</time></trkpt><trkpt lat="33.93132925703995" lon="-6.463821775541493"><ele>254.0</ele><time>2026-04-28T11:11:16Z</time></trkpt><trkpt lat="33.93152952727544" lon="-6.464088613369719"><ele>254.5</ele><time>2026-04-28T11:11:17Z</time></trkpt><trkpt lat="33.93173418508093" lon="-6.464351105901256"><ele>255.0</ele><time>2026-04-28T11:11:18Z</time></trkpt><trkpt lat="33.93194233699918" lon="-6.464610037780435"><ele>254.5</ele><time>2026-04-28T11:11:19Z</time></trkpt><trkpt lat="33.932153593804095" lon="-6.4648667676412375"><ele>254.0</ele><time>2026-04-28T11:11:20Z</time></trkpt><trkpt lat="33.93236876770414" lon="-6.465119876133361"><ele>253.5</ele><time>2026-04-28T11:11:20.999Z</time></trkpt><trkpt lat="33.93258745724847" lon="-6.4653669571084516"><ele>253.0</ele><time>2026-04-28T11:11:21.999Z</time></trkpt><trkpt lat="33.932810699070345" lon="-6.465608367117251"><ele>252.5</ele><time>2026-04-28T11:11:22.999Z</time></trkpt><trkpt lat="33.933038118535066" lon="-6.465843489242346"><ele>252.0</ele><time>2026-04-28T11:11:23.999Z</time></trkpt><trkpt lat="33.93326832004239" lon="-6.4660755838279815"><ele>251.5</ele><time>2026-04-28T11:11:24.999Z</time></trkpt><trkpt lat="33.93350137052406" lon="-6.466303763171442"><ele>251.0</ele><time>2026-04-28T11:11:25.999Z</time></trkpt><trkpt lat="33.93373713555733" lon="-6.466526995095252"><ele>251.0</ele><time>2026-04-28T11:11:26.999Z</time></trkpt><trkpt lat="33.93397708326175" lon="-6.46674583170613"><ele>251.0</ele><time>2026-04-28T11:11:27.999Z</time></trkpt><trkpt lat="33.93421834925536" lon="-6.466958896917395"><ele>250.5</ele><time>2026-04-28T11:11:28.999Z</time></trkpt><trkpt lat="33.93446356279904" lon="-6.46716737095648"><ele>250.0</ele><time>2026-04-28T11:11:29.999Z</time></trkpt><trkpt lat="33.934712427166744" lon="-6.467367597594303"><ele>250.0</ele><time>2026-04-28T11:11:30.999Z</time></trkpt><trkpt lat="33.934963760784534" lon="-6.467563124804474"><ele>250.0</ele><time>2026-04-28T11:11:31.999Z</time></trkpt><trkpt lat="33.935214319398966" lon="-6.467759438244627"><ele>247.5</ele><time>2026-04-28T11:11:32.999Z</time></trkpt><trkpt lat="33.935467229689074" lon="-6.467956547528667"><ele>245.0</ele><time>2026-04-28T11:11:33.999Z</time></trkpt><trkpt lat="33.93572159265589" lon="-6.468150003755241"><ele>245.5</ele><time>2026-04-28T11:11:34.999Z</time></trkpt><trkpt lat="33.93597560778827" lon="-6.468340273501273"><ele>246.0</ele><time>2026-04-28T11:11:35.999Z</time></trkpt><trkpt lat="33.93622871184098" lon="-6.4685279774684945"><ele>246.0</ele><time>2026-04-28T11:11:36.999Z</time></trkpt><trkpt lat="33.93648231408931" lon="-6.468713946145508"><ele>246.0</ele><time>2026-04-28T11:11:37.999Z</time></trkpt><trkpt lat="33.93673843070801" lon="-6.4689022716511815"><ele>248.0</ele><time>2026-04-28T11:11:38.999Z</time></trkpt><trkpt lat="33.93699362648844" lon="-6.469094576044004"><ele>250.0</ele><time>2026-04-28T11:11:39.999Z</time></trkpt><trkpt lat="33.937246526851865" lon="-6.469287989448391"><ele>250.0</ele><time>2026-04-28T11:11:40.999Z</time></trkpt><trkpt lat="33.937499074224" lon="-6.469483209336568"><ele>250.0</ele><time>2026-04-28T11:11:41.999Z</time></trkpt><trkpt lat="33.93775184500806" lon="-6.469680208931491"><ele>248.5</ele><time>2026-04-28T11:11:42.999Z</time></trkpt><trkpt lat="33.93800291702571" lon="-6.469881566226827"><ele>247.0</ele><time>2026-04-28T11:11:43.999Z</time></trkpt><trkpt lat="33.93825070279532" lon="-6.470088565355982"><ele>247.0</ele><time>2026-04-28T11:11:44.999Z</time></trkpt><trkpt lat="33.93849443964136" lon="-6.470298845656139"><ele>247.0</ele><time>2026-04-28T11:11:45.999Z</time></trkpt><trkpt lat="33.9387385150249" lon="-6.470511674892496"><ele>247.0</ele><time>2026-04-28T11:11:46.999Z</time></trkpt><trkpt lat="33.93898136921022" lon="-6.470728732599359"><ele>247.0</ele><time>2026-04-28T11:11:47.999Z</time></trkpt><trkpt lat="33.939218400021765" lon="-6.470949620522586"><ele>247.0</ele><time>2026-04-28T11:11:48.999Z</time></trkpt><trkpt lat="33.93945315390707" lon="-6.471173811388041"><ele>247.0</ele><time>2026-04-28T11:11:49.999Z</time></trkpt><trkpt lat="33.939688085951545" lon="-6.471398584354591"><ele>246.0</ele><time>2026-04-28T11:11:50.999Z</time></trkpt><trkpt lat="33.93992150121432" lon="-6.471624959018378"><ele>245.0</ele><time>2026-04-28T11:11:51.999Z</time></trkpt><trkpt lat="33.94015388431754" lon="-6.471852988823333"><ele>244.5</ele><time>2026-04-28T11:11:52.999Z</time></trkpt><trkpt lat="33.940383743362375" lon="-6.472084653691888"><ele>244.0</ele><time>2026-04-28T11:11:53.999Z</time></trkpt><trkpt lat="33.940610721368635" lon="-6.472321289907042"><ele>243.5</ele><time>2026-04-28T11:11:54.999Z</time></trkpt><trkpt lat="33.94083629682217" lon="-6.472561355945752"><ele>243.0</ele><time>2026-04-28T11:11:55.999Z</time></trkpt><trkpt lat="33.941060456924404" lon="-6.472803396270107"><ele>241.0</ele><time>2026-04-28T11:11:56.999Z</time></trkpt><trkpt lat="33.941283084543656" lon="-6.473047667794526"><ele>239.0</ele><time>2026-04-28T11:11:57.999Z</time></trkpt><trkpt lat="33.9415033906894" lon="-6.473296227822888"><ele>238.5</ele><time>2026-04-28T11:11:58.999Z</time></trkpt><trkpt lat="33.9417182625112" lon="-6.473547581457071"><ele>238.0</ele><time>2026-04-28T11:11:59.999Z</time></trkpt><trkpt lat="33.94192988691424" lon="-6.473801823218383"><ele>238.0</ele><time>2026-04-28T11:12:00.999Z</time></trkpt><trkpt lat="33.94213942875076" lon="-6.474059519039711"><ele>238.0</ele><time>2026-04-28T11:12:01.999Z</time></trkpt><trkpt lat="33.94234563722023" lon="-6.474319282538076"><ele>238.5</ele><time>2026-04-28T11:12:02.999Z</time></trkpt><trkpt lat="33.94255145982234" lon="-6.474579710172841"><ele>239.0</ele><time>2026-04-28T11:12:04Z</time></trkpt><trkpt lat="33.94275555092611" lon="-6.474842016126106"><ele>239.0</ele><time>2026-04-28T11:12:05Z</time></trkpt><trkpt lat="33.94295932694589" lon="-6.475104000891966"><ele>239.0</ele><time>2026-04-28T11:12:06Z</time></trkpt><trkpt lat="33.943164269778876" lon="-6.475367858418611"><ele>239.0</ele><time>2026-04-28T11:12:07Z</time></trkpt><trkpt lat="33.9433667427787" lon="-6.475631432556497"><ele>239.0</ele><time>2026-04-28T11:12:08Z</time></trkpt><trkpt lat="33.94356993701688" lon="-6.475894517811054"><ele>239.0</ele><time>2026-04-28T11:12:09Z</time></trkpt><trkpt lat="33.943773111928834" lon="-6.476154847845121"><ele>239.0</ele><time>2026-04-28T11:12:10Z</time></trkpt><trkpt lat="33.9439786163765" lon="-6.476413172435578"><ele>238.0</ele><time>2026-04-28T11:12:11Z</time></trkpt><trkpt lat="33.944186999794695" lon="-6.476669481683738"><ele>237.0</ele><time>2026-04-28T11:12:12Z</time></trkpt><trkpt lat="33.94439868758893" lon="-6.476923255191183"><ele>234.0</ele><time>2026-04-28T11:12:13Z</time></trkpt><trkpt lat="33.94461274997015" lon="-6.47717291504279"><ele>231.0</ele><time>2026-04-28T11:12:14Z</time></trkpt><trkpt lat="33.94482807295372" lon="-6.477416900937884"><ele>232.0</ele><time>2026-04-28T11:12:15Z</time></trkpt><trkpt lat="33.94504846267555" lon="-6.4776555700006515"><ele>233.0</ele><time>2026-04-28T11:12:16Z</time></trkpt><trkpt lat="33.94527139941919" lon="-6.477890741044465"><ele>234.0</ele><time>2026-04-28T11:12:17Z</time></trkpt><trkpt lat="33.945498164581245" lon="-6.4781234981914"><ele>235.0</ele><time>2026-04-28T11:12:18Z</time></trkpt><trkpt lat="33.945727882235865" lon="-6.478350636533841"><ele>235.5</ele><time>2026-04-28T11:12:19Z</time></trkpt><trkpt lat="33.945959691370575" lon="-6.478574053890408"><ele>236.0</ele><time>2026-04-28T11:12:20Z</time></trkpt><trkpt lat="33.94619435759381" lon="-6.4787918725436615"><ele>236.5</ele><time>2026-04-28T11:12:21Z</time></trkpt><trkpt lat="33.946432897599344" lon="-6.4790037935054885"><ele>237.0</ele><time>2026-04-28T11:12:22Z</time></trkpt><trkpt lat="33.94667317612208" lon="-6.479210333910951"><ele>238.0</ele><time>2026-04-28T11:12:23Z</time></trkpt><trkpt lat="33.9469155076818" lon="-6.479413127521564"><ele>239.0</ele><time>2026-04-28T11:12:24Z</time></trkpt><trkpt lat="33.947160865336386" lon="-6.479610533869031"><ele>239.0</ele><time>2026-04-28T11:12:25Z</time></trkpt><trkpt lat="33.94741196962288" lon="-6.479803117776049"><ele>239.0</ele><time>2026-04-28T11:12:26Z</time></trkpt><trkpt lat="33.94766534519438" lon="-6.479991757086452"><ele>241.0</ele><time>2026-04-28T11:12:27Z</time></trkpt><trkpt lat="33.94792122919805" lon="-6.480176585151337"><ele>243.0</ele><time>2026-04-28T11:12:28Z</time></trkpt><trkpt lat="33.948178740130466" lon="-6.480358277554153"><ele>242.5</ele><time>2026-04-28T11:12:29Z</time></trkpt><trkpt lat="33.948441188337725" lon="-6.480533805337831"><ele>242.0</ele><time>2026-04-28T11:12:30Z</time></trkpt><trkpt lat="33.94870695671987" lon="-6.480702242223716"><ele>242.0</ele><time>2026-04-28T11:12:31Z</time></trkpt><trkpt lat="33.94897539537374" lon="-6.480865911936408"><ele>242.0</ele><time>2026-04-28T11:12:32Z</time></trkpt><trkpt lat="33.94924570787286" lon="-6.481023928526262"><ele>243.0</ele><time>2026-04-28T11:12:33Z</time></trkpt><trkpt lat="33.94951859716379" lon="-6.481176503147179"><ele>244.0</ele><time>2026-04-28T11:12:34Z</time></trkpt><trkpt lat="33.9497948247081" lon="-6.481323213209082"><ele>246.0</ele><time>2026-04-28T11:12:35Z</time></trkpt><trkpt lat="33.95007082925351" lon="-6.481464726902202"><ele>248.0</ele><time>2026-04-28T11:12:36Z</time></trkpt><trkpt lat="33.950350058302696" lon="-6.481600442693439"><ele>248.0</ele><time>2026-04-28T11:12:37Z</time></trkpt><trkpt lat="33.95063133826708" lon="-6.481730282352428"><ele>248.0</ele><time>2026-04-28T11:12:38Z</time></trkpt><trkpt lat="33.95091535156625" lon="-6.481854219407196"><ele>248.5</ele><time>2026-04-28T11:12:39Z</time></trkpt><trkpt lat="33.95120035991668" lon="-6.481972006875955"><ele>249.0</ele><time>2026-04-28T11:12:40Z</time></trkpt><trkpt lat="33.95148500365703" lon="-6.4820860821465685"><ele>250.5</ele><time>2026-04-28T11:12:41Z</time></trkpt><trkpt lat="33.95177319291139" lon="-6.482197406062323"><ele>252.0</ele><time>2026-04-28T11:12:42Z</time></trkpt><trkpt lat="33.952059821421955" lon="-6.4823075236397125"><ele>252.0</ele><time>2026-04-28T11:12:43Z</time></trkpt><trkpt lat="33.952348385332996" lon="-6.48241516535882"><ele>252.0</ele><time>2026-04-28T11:12:44Z</time></trkpt><trkpt lat="33.9526376052554" lon="-6.4825203481339795"><ele>253.0</ele><time>2026-04-28T11:12:45Z</time></trkpt><trkpt lat="33.952927017059956" lon="-6.482621887662052"><ele>254.0</ele><time>2026-04-28T11:12:46Z</time></trkpt><trkpt lat="33.953216897024845" lon="-6.482725422953134"><ele>254.0</ele><time>2026-04-28T11:12:47Z</time></trkpt><trkpt lat="33.953505787309616" lon="-6.482834795460658"><ele>254.0</ele><time>2026-04-28T11:12:48Z</time></trkpt><trkpt lat="33.95379231206094" lon="-6.482947405075429"><ele>251.5</ele><time>2026-04-28T11:12:49Z</time></trkpt><trkpt lat="33.95408103450585" lon="-6.483062715191054"><ele>249.0</ele><time>2026-04-28T11:12:50Z</time></trkpt><trkpt lat="33.95436592028593" lon="-6.483178825223052"><ele>248.5</ele><time>2026-04-28T11:12:51Z</time></trkpt><trkpt lat="33.9546490384288" lon="-6.483301006800141"><ele>248.0</ele><time>2026-04-28T11:12:52Z</time></trkpt><trkpt lat="33.954928573809" lon="-6.483429000209696"><ele>249.0</ele><time>2026-04-28T11:12:53Z</time></trkpt><trkpt lat="33.95520755826537" lon="-6.4835599422341845"><ele>250.0</ele><time>2026-04-28T11:12:54Z</time></trkpt><trkpt lat="33.95548702257241" lon="-6.4836950590885385"><ele>248.5</ele><time>2026-04-28T11:12:55Z</time></trkpt><trkpt lat="33.95576405993938" lon="-6.483836981585149"><ele>247.0</ele><time>2026-04-28T11:12:56Z</time></trkpt><trkpt lat="33.95603723670338" lon="-6.483984308508351"><ele>246.0</ele><time>2026-04-28T11:12:57Z</time></trkpt><trkpt lat="33.95630588730674" lon="-6.484137805673786"><ele>245.0</ele><time>2026-04-28T11:12:58Z</time></trkpt><trkpt lat="33.95657462666841" lon="-6.484294662370375"><ele>244.5</ele><time>2026-04-28T11:12:59Z</time></trkpt><trkpt lat="33.95683959565824" lon="-6.48445675210125"><ele>244.0</ele><time>2026-04-28T11:13:00Z</time></trkpt><trkpt lat="33.95710145975789" lon="-6.484624136643669"><ele>244.0</ele><time>2026-04-28T11:13:01Z</time></trkpt><trkpt lat="33.957360968139305" lon="-6.484796903379863"><ele>244.0</ele><time>2026-04-28T11:13:02Z</time></trkpt><trkpt lat="33.95761816866729" lon="-6.484973809442406"><ele>243.0</ele><time>2026-04-28T11:13:03Z</time></trkpt><trkpt lat="33.9578774829249" lon="-6.485152312357439"><ele>242.0</ele><time>2026-04-28T11:13:04Z</time></trkpt><trkpt lat="33.958134385547126" lon="-6.485336083209128"><ele>241.5</ele><time>2026-04-28T11:13:05Z</time></trkpt><trkpt lat="33.95838450908819" lon="-6.485524493264325"><ele>241.0</ele><time>2026-04-28T11:13:06Z</time></trkpt><trkpt lat="33.958633575876654" lon="-6.485716254201985"><ele>241.0</ele><time>2026-04-28T11:13:07Z</time></trkpt><trkpt lat="33.95888354913768" lon="-6.485907371815545"><ele>241.0</ele><time>2026-04-28T11:13:08Z</time></trkpt><trkpt lat="33.95913163064924" lon="-6.486104286581927"><ele>238.5</ele><time>2026-04-28T11:13:09Z</time></trkpt><trkpt lat="33.959375769003785" lon="-6.486308149530485"><ele>236.0</ele><time>2026-04-28T11:13:10Z</time></trkpt><trkpt lat="33.95961564611582" lon="-6.486519529897624"><ele>236.0</ele><time>2026-04-28T11:13:11Z</time></trkpt><trkpt lat="33.95985028860878" lon="-6.48673777847951"><ele>236.0</ele><time>2026-04-28T11:13:12Z</time></trkpt><trkpt lat="33.9600805070573" lon="-6.486963471079091"><ele>235.0</ele><time>2026-04-28T11:13:13Z</time></trkpt><trkpt lat="33.960308994223226" lon="-6.4871921874102805"><ele>234.0</ele><time>2026-04-28T11:13:14Z</time></trkpt><trkpt lat="33.96053498272149" lon="-6.487425188052721"><ele>234.0</ele><time>2026-04-28T11:13:15Z</time></trkpt><trkpt lat="33.96075739779026" lon="-6.487664097213928"><ele>234.0</ele><time>2026-04-28T11:13:16Z</time></trkpt><trkpt lat="33.96097544381711" lon="-6.487908404682992"><ele>231.5</ele><time>2026-04-28T11:13:17Z</time></trkpt><trkpt lat="33.961190787443414" lon="-6.488156423995727"><ele>229.0</ele><time>2026-04-28T11:13:18Z</time></trkpt><trkpt lat="33.96140294818134" lon="-6.488405831434772"><ele>229.0</ele><time>2026-04-28T11:13:19Z</time></trkpt><trkpt lat="33.96161245401901" lon="-6.488656472431087"><ele>229.0</ele><time>2026-04-28T11:13:20Z</time></trkpt><trkpt lat="33.96182011250904" lon="-6.4889123620466584"><ele>227.5</ele><time>2026-04-28T11:13:21Z</time></trkpt><trkpt lat="33.96202470322558" lon="-6.489169766941785"><ele>226.0</ele><time>2026-04-28T11:13:22Z</time></trkpt><trkpt lat="33.96222947286652" lon="-6.4894292448890205"><ele>226.5</ele><time>2026-04-28T11:13:23Z</time></trkpt><trkpt lat="33.96243167559228" lon="-6.489687987056211"><ele>227.0</ele><time>2026-04-28T11:13:24Z</time></trkpt><trkpt lat="33.96263514845657" lon="-6.489950018460913"><ele>227.5</ele><time>2026-04-28T11:13:25Z</time></trkpt><trkpt lat="33.96283766741809" lon="-6.490213517465377"><ele>228.0</ele><time>2026-04-28T11:13:26Z</time></trkpt><trkpt lat="33.96304135919303" lon="-6.490479278462109"><ele>228.0</ele><time>2026-04-28T11:13:27Z</time></trkpt><trkpt lat="33.96324699097723" lon="-6.490742188487861"><ele>228.0</ele><time>2026-04-28T11:13:28Z</time></trkpt><trkpt lat="33.96345149068135" lon="-6.491002986660271"><ele>225.5</ele><time>2026-04-28T11:13:29Z</time></trkpt><trkpt lat="33.96365730665893" lon="-6.491263057037192"><ele>223.0</ele><time>2026-04-28T11:13:30Z</time></trkpt><trkpt lat="33.963864583364995" lon="-6.491525292048153"><ele>223.0</ele><time>2026-04-28T11:13:31Z</time></trkpt><trkpt lat="33.96407059215011" lon="-6.491788404912534"><ele>223.0</ele><time>2026-04-28T11:13:32Z</time></trkpt><trkpt lat="33.964273885309915" lon="-6.492051610867187"><ele>222.0</ele><time>2026-04-28T11:13:33Z</time></trkpt><trkpt lat="33.964475738088716" lon="-6.492315007448392"><ele>221.0</ele><time>2026-04-28T11:13:34Z</time></trkpt><trkpt lat="33.96467854033195" lon="-6.492582851242167"><ele>221.0</ele><time>2026-04-28T11:13:35Z</time></trkpt><trkpt lat="33.96488049495144" lon="-6.492850987026141"><ele>221.0</ele><time>2026-04-28T11:13:36Z</time></trkpt><trkpt lat="33.96508377749389" lon="-6.493119530096681"><ele>220.0</ele><time>2026-04-28T11:13:37Z</time></trkpt><trkpt lat="33.96528750085753" lon="-6.493385596110479"><ele>219.0</ele><time>2026-04-28T11:13:38Z</time></trkpt><trkpt lat="33.965493167918105" lon="-6.493650519167578"><ele>218.5</ele><time>2026-04-28T11:13:39Z</time></trkpt><trkpt lat="33.96570023993806" lon="-6.4939159905625266"><ele>218.0</ele><time>2026-04-28T11:13:40Z</time></trkpt><trkpt lat="33.965906931072425" lon="-6.494181839390501"><ele>218.0</ele><time>2026-04-28T11:13:41Z</time></trkpt><trkpt lat="33.96611283117271" lon="-6.49444700189313"><ele>218.0</ele><time>2026-04-28T11:13:42Z</time></trkpt><trkpt lat="33.96631908164201" lon="-6.49470959859175"><ele>217.5</ele><time>2026-04-28T11:13:43Z</time></trkpt><trkpt lat="33.96652614614562" lon="-6.494972894704002"><ele>217.0</ele><time>2026-04-28T11:13:44Z</time></trkpt><trkpt lat="33.9667324756313" lon="-6.495237357698325"><ele>218.5</ele><time>2026-04-28T11:13:45Z</time></trkpt><trkpt lat="33.96693671448922" lon="-6.495499975123987"><ele>220.0</ele><time>2026-04-28T11:13:46Z</time></trkpt><trkpt lat="33.96714028556186" lon="-6.4957598408322035"><ele>220.0</ele><time>2026-04-28T11:13:47Z</time></trkpt><trkpt lat="33.96734184473868" lon="-6.496016355478715"><ele>220.0</ele><time>2026-04-28T11:13:48Z</time></trkpt><trkpt lat="33.96754288773392" lon="-6.496270554268309"><ele>219.5</ele><time>2026-04-28T11:13:48.999Z</time></trkpt><trkpt lat="33.96774219813165" lon="-6.496524820609041"><ele>219.0</ele><time>2026-04-28T11:13:49.999Z</time></trkpt><trkpt lat="33.96794081844718" lon="-6.496777894454618"><ele>219.0</ele><time>2026-04-28T11:13:50.999Z</time></trkpt><trkpt lat="33.96813889085091" lon="-6.497031534015341"><ele>219.0</ele><time>2026-04-28T11:13:51.999Z</time></trkpt><trkpt lat="33.968337434238" lon="-6.497288071092302"><ele>217.0</ele><time>2026-04-28T11:13:52.999Z</time></trkpt><trkpt lat="33.968538466726166" lon="-6.4975469966186274"><ele>215.0</ele><time>2026-04-28T11:13:53.999Z</time></trkpt><trkpt lat="33.968741503651835" lon="-6.497806388290623"><ele>213.5</ele><time>2026-04-28T11:13:54.999Z</time></trkpt><trkpt lat="33.96894554513626" lon="-6.498066131870711"><ele>212.0</ele><time>2026-04-28T11:13:55.999Z</time></trkpt><trkpt lat="33.969150280387176" lon="-6.498326524833647"><ele>212.5</ele><time>2026-04-28T11:13:56.999Z</time></trkpt><trkpt lat="33.96935563122035" lon="-6.498587572860872"><ele>213.0</ele><time>2026-04-28T11:13:57.999Z</time></trkpt><trkpt lat="33.969559475894656" lon="-6.498848471773966"><ele>211.0</ele><time>2026-04-28T11:13:58.999Z</time></trkpt><trkpt lat="33.96976327023233" lon="-6.49911071495341"><ele>209.0</ele><time>2026-04-28T11:13:59.999Z</time></trkpt><trkpt lat="33.969966166180726" lon="-6.499376362731625"><ele>206.0</ele><time>2026-04-28T11:14:00.999Z</time></trkpt><trkpt lat="33.97016625680783" lon="-6.4996435198342715"><ele>203.0</ele><time>2026-04-28T11:14:01.999Z</time></trkpt><trkpt lat="33.97036419208124" lon="-6.499913684160063"><ele>203.0</ele><time>2026-04-28T11:14:02.999Z</time></trkpt><trkpt lat="33.970557960819164" lon="-6.500185772716063"><ele>203.0</ele><time>2026-04-28T11:14:03.999Z</time></trkpt><trkpt lat="33.97074868435635" lon="-6.500458263288644"><ele>201.5</ele><time>2026-04-28T11:14:04.999Z</time></trkpt><trkpt lat="33.97093802922763" lon="-6.500734277669575"><ele>200.0</ele><time>2026-04-28T11:14:05.999Z</time></trkpt><trkpt lat="33.97112643322938" lon="-6.50101201189676"><ele>202.0</ele><time>2026-04-28T11:14:06.999Z</time></trkpt><trkpt lat="33.97131238732227" lon="-6.501292372953782"><ele>204.0</ele><time>2026-04-28T11:14:07.999Z</time></trkpt><trkpt lat="33.97149670872706" lon="-6.501573709089778"><ele>204.0</ele><time>2026-04-28T11:14:08.999Z</time></trkpt><trkpt lat="33.97167998027823" lon="-6.501858749963587"><ele>204.0</ele><time>2026-04-28T11:14:10Z</time></trkpt><trkpt lat="33.97186036141361" lon="-6.502145585979852"><ele>204.5</ele><time>2026-04-28T11:14:11Z</time></trkpt><trkpt lat="33.97203967325714" lon="-6.50243338419455"><ele>205.0</ele><time>2026-04-28T11:14:12Z</time></trkpt><trkpt lat="33.9722170304367" lon="-6.502722849285833"><ele>205.0</ele><time>2026-04-28T11:14:13Z</time></trkpt><trkpt lat="33.972391172894646" lon="-6.503014799620676"><ele>205.0</ele><time>2026-04-28T11:14:14Z</time></trkpt><trkpt lat="33.97256147443376" lon="-6.5033091768989415"><ele>204.5</ele><time>2026-04-28T11:14:15Z</time></trkpt><trkpt lat="33.972727693854885" lon="-6.5036059634417445"><ele>204.0</ele><time>2026-04-28T11:14:16Z</time></trkpt><trkpt lat="33.97289270512031" lon="-6.503905858974597"><ele>204.0</ele><time>2026-04-28T11:14:17Z</time></trkpt><trkpt lat="33.97305573713942" lon="-6.50420679138234"><ele>204.0</ele><time>2026-04-28T11:14:18Z</time></trkpt><trkpt lat="33.97321659993603" lon="-6.5045100373594655"><ele>206.0</ele><time>2026-04-28T11:14:19Z</time></trkpt><trkpt lat="33.97337517717831" lon="-6.504816236458299"><ele>208.0</ele><time>2026-04-28T11:14:20Z</time></trkpt><trkpt lat="33.97353453706916" lon="-6.505123904795124"><ele>207.5</ele><time>2026-04-28T11:14:21Z</time></trkpt><trkpt lat="33.973692411703375" lon="-6.505430848478299"><ele>207.0</ele><time>2026-04-28T11:14:22Z</time></trkpt><trkpt lat="33.97384867441444" lon="-6.5057391234519"><ele>207.0</ele><time>2026-04-28T11:14:23Z</time></trkpt><trkpt lat="33.97400356860703" lon="-6.506047907374194"><ele>207.0</ele><time>2026-04-28T11:14:24Z</time></trkpt><trkpt lat="33.9741571635934" lon="-6.506359306903465"><ele>208.5</ele><time>2026-04-28T11:14:25Z</time></trkpt><trkpt lat="33.97430632343985" lon="-6.506672232117831"><ele>210.0</ele><time>2026-04-28T11:14:26Z</time></trkpt><trkpt lat="33.97445010357854" lon="-6.5069864043225065"><ele>209.5</ele><time>2026-04-28T11:14:27Z</time></trkpt><trkpt lat="33.974590867981846" lon="-6.50730486822098"><ele>209.0</ele><time>2026-04-28T11:14:28Z</time></trkpt><trkpt lat="33.97472728994315" lon="-6.507625705147473"><ele>210.0</ele><time>2026-04-28T11:14:29Z</time></trkpt><trkpt lat="33.974861361383674" lon="-6.507948434400278"><ele>211.0</ele><time>2026-04-28T11:14:30Z</time></trkpt><trkpt lat="33.97499373197733" lon="-6.508273153286809"><ele>212.0</ele><time>2026-04-28T11:14:31Z</time></trkpt><trkpt lat="33.97512540089394" lon="-6.508598165475694"><ele>213.0</ele><time>2026-04-28T11:14:32Z</time></trkpt><trkpt lat="33.97525479836642" lon="-6.508923734808858"><ele>213.0</ele><time>2026-04-28T11:14:33Z</time></trkpt><trkpt lat="33.97538026904077" lon="-6.509250606612398"><ele>213.0</ele><time>2026-04-28T11:14:34Z</time></trkpt><trkpt lat="33.97550231891638" lon="-6.509580183460188"><ele>213.5</ele><time>2026-04-28T11:14:35Z</time></trkpt><trkpt lat="33.975621368360656" lon="-6.509910524198594"><ele>214.0</ele><time>2026-04-28T11:14:36Z</time></trkpt><trkpt lat="33.97573825424333" lon="-6.51024324711369"><ele>213.0</ele><time>2026-04-28T11:14:37Z</time></trkpt><trkpt lat="33.97585401830669" lon="-6.51057719380898"><ele>212.0</ele><time>2026-04-28T11:14:38Z</time></trkpt><trkpt lat="33.97596675083644" lon="-6.510913244294133"><ele>212.5</ele><time>2026-04-28T11:14:39Z</time></trkpt><trkpt lat="33.976078380660816" lon="-6.5112500302582355"><ele>213.0</ele><time>2026-04-28T11:14:40Z</time></trkpt><trkpt lat="33.97618777131872" lon="-6.51158690951778"><ele>213.0</ele><time>2026-04-28T11:14:41Z</time></trkpt><trkpt lat="33.97629576439133" lon="-6.511924057245762"><ele>213.0</ele><time>2026-04-28T11:14:42Z</time></trkpt><trkpt lat="33.9764055474811" lon="-6.512262410374766"><ele>213.5</ele><time>2026-04-28T11:14:43Z</time></trkpt><trkpt lat="33.976516278315366" lon="-6.51259825217248"><ele>214.0</ele><time>2026-04-28T11:14:44Z</time></trkpt><trkpt lat="33.976625585802" lon="-6.51293341115806"><ele>212.5</ele><time>2026-04-28T11:14:45Z</time></trkpt><trkpt lat="33.97673549572983" lon="-6.513268356734942"><ele>211.0</ele><time>2026-04-28T11:14:46Z</time></trkpt><trkpt lat="33.97684558124569" lon="-6.513604313520837"><ele>212.0</ele><time>2026-04-28T11:14:47Z</time></trkpt><trkpt lat="33.976953277798096" lon="-6.5139402665935195"><ele>213.0</ele><time>2026-04-28T11:14:48Z</time></trkpt><trkpt lat="33.97706154121846" lon="-6.514277431591136"><ele>214.0</ele><time>2026-04-28T11:14:49Z</time></trkpt><trkpt lat="33.977171971045344" lon="-6.514613613780483"><ele>215.0</ele><time>2026-04-28T11:14:50Z</time></trkpt><trkpt lat="33.977282437076795" lon="-6.514948073143066"><ele>215.0</ele><time>2026-04-28T11:14:51Z</time></trkpt><trkpt lat="33.977394250642405" lon="-6.515284565789464"><ele>215.0</ele><time>2026-04-28T11:14:52Z</time></trkpt><trkpt lat="33.977506361637204" lon="-6.515622038559739"><ele>214.0</ele><time>2026-04-28T11:14:53Z</time></trkpt><trkpt lat="33.977617204409434" lon="-6.515957242837745"><ele>213.0</ele><time>2026-04-28T11:14:54Z</time></trkpt><trkpt lat="33.97772722906559" lon="-6.516291056133526"><ele>212.5</ele><time>2026-04-28T11:14:55Z</time></trkpt><trkpt lat="33.977837119581196" lon="-6.516626765720187"><ele>212.0</ele><time>2026-04-28T11:14:56Z</time></trkpt><trkpt lat="33.977948736601476" lon="-6.516963702946394"><ele>212.5</ele><time>2026-04-28T11:14:57Z</time></trkpt><trkpt lat="33.978059621369354" lon="-6.517297943914947"><ele>213.0</ele><time>2026-04-28T11:14:58Z</time></trkpt><trkpt lat="33.97817222032531" lon="-6.517633959915791"><ele>213.0</ele><time>2026-04-28T11:14:59Z</time></trkpt><trkpt lat="33.978279982135994" lon="-6.517968184970816"><ele>213.0</ele><time>2026-04-28T11:15:00Z</time></trkpt><trkpt lat="33.97838768315609" lon="-6.518304212961158"><ele>211.5</ele><time>2026-04-28T11:15:01Z</time></trkpt><trkpt lat="33.97849376923192" lon="-6.518638446022886"><ele>210.0</ele><time>2026-04-28T11:15:02Z</time></trkpt><trkpt lat="33.97860087102216" lon="-6.518973546511745"><ele>210.0</ele><time>2026-04-28T11:15:03Z</time></trkpt><trkpt lat="33.97871002009905" lon="-6.5193072117266375"><ele>210.0</ele><time>2026-04-28T11:15:04Z</time></trkpt><trkpt lat="33.978820966802445" lon="-6.519639052672273"><ele>209.5</ele><time>2026-04-28T11:15:05Z</time></trkpt><trkpt lat="33.97893089379664" lon="-6.519969559384948"><ele>209.0</ele><time>2026-04-28T11:15:06Z</time></trkpt><trkpt lat="33.97903722619057" lon="-6.520298556922334"><ele>209.0</ele><time>2026-04-28T11:15:07Z</time></trkpt><trkpt lat="33.979143493362905" lon="-6.520628757476532"><ele>209.0</ele><time>2026-04-28T11:15:08Z</time></trkpt><trkpt lat="33.97925210684102" lon="-6.520964014377022"><ele>208.5</ele><time>2026-04-28T11:15:09Z</time></trkpt><trkpt lat="33.979359025363486" lon="-6.521297585140562"><ele>208.0</ele><time>2026-04-28T11:15:10Z</time></trkpt><trkpt lat="33.97946827571852" lon="-6.521630609812723"><ele>208.0</ele><time>2026-04-28T11:15:11Z</time></trkpt><trkpt lat="33.97958040944238" lon="-6.521965587636224"><ele>208.0</ele><time>2026-04-28T11:15:12Z</time></trkpt><trkpt lat="33.97969006255354" lon="-6.522298154940895"><ele>207.5</ele><time>2026-04-28T11:15:13Z</time></trkpt><trkpt lat="33.97979389500018" lon="-6.522621990152889"><ele>207.0</ele><time>2026-04-28T11:15:14Z</time></trkpt><trkpt lat="33.97989252594958" lon="-6.522937465003884"><ele>207.0</ele><time>2026-04-28T11:15:15Z</time></trkpt><trkpt lat="33.97999008441984" lon="-6.523250867883459"><ele>207.0</ele><time>2026-04-28T11:15:16Z</time></trkpt><trkpt lat="33.980092851398524" lon="-6.523574522814697"><ele>205.0</ele><time>2026-04-28T11:15:17Z</time></trkpt><trkpt lat="33.9802005782316" lon="-6.523898846937498"><ele>203.0</ele><time>2026-04-28T11:15:18Z</time></trkpt><trkpt lat="33.98031537563629" lon="-6.524221162356788"><ele>203.0</ele><time>2026-04-28T11:15:19Z</time></trkpt><trkpt lat="33.9804361456509" lon="-6.524544048014513"><ele>203.0</ele><time>2026-04-28T11:15:20Z</time></trkpt><trkpt lat="33.98056024229912" lon="-6.524866489804382"><ele>203.5</ele><time>2026-04-28T11:15:21Z</time></trkpt><trkpt lat="33.980689567365225" lon="-6.52518991515438"><ele>204.0</ele><time>2026-04-28T11:15:22Z</time></trkpt><trkpt lat="33.98082302621143" lon="-6.525510751979292"><ele>203.5</ele><time>2026-04-28T11:15:23Z</time></trkpt><trkpt lat="33.98096254930508" lon="-6.525828099435113"><ele>203.0</ele><time>2026-04-28T11:15:24Z</time></trkpt><trkpt lat="33.98110564705089" lon="-6.526143509096767"><ele>203.0</ele><time>2026-04-28T11:15:25Z</time></trkpt><trkpt lat="33.981251784640214" lon="-6.526459319970118"><ele>203.0</ele><time>2026-04-28T11:15:26Z</time></trkpt><trkpt lat="33.98139895182835" lon="-6.52677478101436"><ele>202.0</ele><time>2026-04-28T11:15:27Z</time></trkpt><trkpt lat="33.98154828413926" lon="-6.527089941619014"><ele>201.0</ele><time>2026-04-28T11:15:28Z</time></trkpt><trkpt lat="33.98169925757452" lon="-6.527402428372079"><ele>200.5</ele><time>2026-04-28T11:15:29Z</time></trkpt><trkpt lat="33.98185150501592" lon="-6.527708944878524"><ele>200.0</ele><time>2026-04-28T11:15:30Z</time></trkpt><trkpt lat="33.982008089996995" lon="-6.528009229149302"><ele>199.5</ele><time>2026-04-28T11:15:31Z</time></trkpt><trkpt lat="33.982166288434954" lon="-6.528304892202237"><ele>199.0</ele><time>2026-04-28T11:15:32Z</time></trkpt><trkpt lat="33.9823232895954" lon="-6.528596303714489"><ele>199.0</ele><time>2026-04-28T11:15:33Z</time></trkpt><trkpt lat="33.98247897041161" lon="-6.528884724801494"><ele>199.0</ele><time>2026-04-28T11:15:34Z</time></trkpt><trkpt lat="33.98263167886067" lon="-6.529171620105841"><ele>198.0</ele><time>2026-04-28T11:15:35Z</time></trkpt><trkpt lat="33.98278940033733" lon="-6.5294521170509405"><ele>197.0</ele><time>2026-04-28T11:15:36Z</time></trkpt><trkpt lat="33.98295139146721" lon="-6.529726995841073"><ele>196.5</ele><time>2026-04-28T11:15:37Z</time></trkpt><trkpt lat="33.983113665593145" lon="-6.530005293039136"><ele>196.0</ele><time>2026-04-28T11:15:38Z</time></trkpt><trkpt lat="33.98328849589013" lon="-6.5302813633942325"><ele>193.5</ele><time>2026-04-28T11:15:39Z</time></trkpt><trkpt lat="33.98345883651458" lon="-6.530566956939833"><ele>191.0</ele><time>2026-04-28T11:15:40Z</time></trkpt><trkpt lat="33.98364511113931" lon="-6.530840709899711"><ele>191.0</ele><time>2026-04-28T11:15:41Z</time></trkpt><trkpt lat="33.983834822221446" lon="-6.5311142173492085"><ele>191.0</ele><time>2026-04-28T11:15:42Z</time></trkpt><trkpt lat="33.98402554750557" lon="-6.531387046296489"><ele>191.5</ele><time>2026-04-28T11:15:43Z</time></trkpt><trkpt lat="33.984221871891016" lon="-6.531657462245741"><ele>192.0</ele><time>2026-04-28T11:15:44Z</time></trkpt><trkpt lat="33.9844207705556" lon="-6.531921508987373"><ele>191.5</ele><time>2026-04-28T11:15:45Z</time></trkpt><trkpt lat="33.98461995685616" lon="-6.532184366745941"><ele>191.0</ele><time>2026-04-28T11:15:46Z</time></trkpt><trkpt lat="33.984820043315516" lon="-6.532447639765657"><ele>192.0</ele><time>2026-04-28T11:15:47Z</time></trkpt><trkpt lat="33.98502365430836" lon="-6.532710209459296"><ele>193.0</ele><time>2026-04-28T11:15:48Z</time></trkpt><trkpt lat="33.98523174537807" lon="-6.532969616495653"><ele>190.5</ele><time>2026-04-28T11:15:49Z</time></trkpt><trkpt lat="33.98544222911388" lon="-6.5332282204234025"><ele>188.0</ele><time>2026-04-28T11:15:50Z</time></trkpt><trkpt lat="33.98565524621388" lon="-6.533484117720148"><ele>187.0</ele><time>2026-04-28T11:15:50.999Z</time></trkpt><trkpt lat="33.985870377246414" lon="-6.53373635995821"><ele>186.0</ele><time>2026-04-28T11:15:51.999Z</time></trkpt><trkpt lat="33.986088022444015" lon="-6.53398739560187"><ele>186.0</ele><time>2026-04-28T11:15:52.999Z</time></trkpt><trkpt lat="33.98630890882061" lon="-6.534235150960004"><ele>186.0</ele><time>2026-04-28T11:15:53.999Z</time></trkpt><trkpt lat="33.986532701112495" lon="-6.534477304965353"><ele>183.5</ele><time>2026-04-28T11:15:54.999Z</time></trkpt><trkpt lat="33.986759390806604" lon="-6.534714757944516"><ele>181.0</ele><time>2026-04-28T11:15:55.999Z</time></trkpt><trkpt lat="33.986987293051904" lon="-6.534951175016858"><ele>181.0</ele><time>2026-04-28T11:15:56.999Z</time></trkpt><trkpt lat="33.98721575455109" lon="-6.535183316564371"><ele>181.0</ele><time>2026-04-28T11:15:57.999Z</time></trkpt><trkpt lat="33.98744520507376" lon="-6.535411478586016"><ele>182.0</ele><time>2026-04-28T11:15:58.999Z</time></trkpt><trkpt lat="33.98767620025726" lon="-6.535636841233156"><ele>183.0</ele><time>2026-04-28T11:15:59.999Z</time></trkpt><trkpt lat="33.987908598263324" lon="-6.535857510019002"><ele>183.0</ele><time>2026-04-28T11:16:00.999Z</time></trkpt><trkpt lat="33.98814236679388" lon="-6.536074754909757"><ele>183.0</ele><time>2026-04-28T11:16:01.999Z</time></trkpt><trkpt lat="33.98837864110579" lon="-6.536285802980819"><ele>185.0</ele><time>2026-04-28T11:16:02.999Z</time></trkpt><trkpt lat="33.988617210983975" lon="-6.536490952113454"><ele>187.0</ele><time>2026-04-28T11:16:03.999Z</time></trkpt><trkpt lat="33.988856530836145" lon="-6.536696636449087"><ele>187.0</ele><time>2026-04-28T11:16:04.999Z</time></trkpt><trkpt lat="33.989095295039554" lon="-6.536899289345579"><ele>187.0</ele><time>2026-04-28T11:16:05.999Z</time></trkpt><trkpt lat="33.989334860315964" lon="-6.537098299132501"><ele>188.0</ele><time>2026-04-28T11:16:06.999Z</time></trkpt><trkpt lat="33.989577555708564" lon="-6.537292642725147"><ele>189.0</ele><time>2026-04-28T11:16:07.999Z</time></trkpt><trkpt lat="33.989823162569245" lon="-6.537481193115114"><ele>190.5</ele><time>2026-04-28T11:16:08.999Z</time></trkpt><trkpt lat="33.9900695678744" lon="-6.537663421485342"><ele>192.0</ele><time>2026-04-28T11:16:09.999Z</time></trkpt><trkpt lat="33.99031680374277" lon="-6.537845017273305"><ele>191.5</ele><time>2026-04-28T11:16:10.999Z</time></trkpt><trkpt lat="33.99056413660159" lon="-6.538026432351787"><ele>191.0</ele><time>2026-04-28T11:16:11.999Z</time></trkpt><trkpt lat="33.99081328458188" lon="-6.538204728917812"><ele>191.5</ele><time>2026-04-28T11:16:12.999Z</time></trkpt><trkpt lat="33.99106371911552" lon="-6.538378471763688"><ele>192.0</ele><time>2026-04-28T11:16:13.999Z</time></trkpt><trkpt lat="33.99131538784956" lon="-6.53854685554604"><ele>192.0</ele><time>2026-04-28T11:16:14.999Z</time></trkpt><trkpt lat="33.99156672738917" lon="-6.5387106651917275"><ele>192.0</ele><time>2026-04-28T11:16:16Z</time></trkpt><trkpt lat="33.991818113255555" lon="-6.538870307916544"><ele>191.5</ele><time>2026-04-28T11:16:17Z</time></trkpt><trkpt lat="33.9920684505681" lon="-6.539023729512392"><ele>191.0</ele><time>2026-04-28T11:16:18Z</time></trkpt><trkpt lat="33.99231754676632" lon="-6.539170735606054"><ele>191.0</ele><time>2026-04-28T11:16:19Z</time></trkpt><trkpt lat="33.99256346524709" lon="-6.539311626063932"><ele>191.0</ele><time>2026-04-28T11:16:20Z</time></trkpt><trkpt lat="33.99280622139436" lon="-6.539448888328797"><ele>190.0</ele><time>2026-04-28T11:16:21Z</time></trkpt><trkpt lat="33.99304402164354" lon="-6.5395844478820795"><ele>189.0</ele><time>2026-04-28T11:16:22Z</time></trkpt><trkpt lat="33.99327882093182" lon="-6.5397178045792845"><ele>188.5</ele><time>2026-04-28T11:16:23Z</time></trkpt><trkpt lat="33.993511651900654" lon="-6.539842129756644"><ele>188.0</ele><time>2026-04-28T11:16:24Z</time></trkpt><trkpt lat="33.993744778084604" lon="-6.539958201040232"><ele>188.0</ele><time>2026-04-28T11:16:25Z</time></trkpt><trkpt lat="33.99397289044248" lon="-6.5400690138025075"><ele>188.0</ele><time>2026-04-28T11:16:26Z</time></trkpt><trkpt lat="33.99419567833403" lon="-6.540174338854104"><ele>187.5</ele><time>2026-04-28T11:16:27Z</time></trkpt><trkpt lat="33.994414654826215" lon="-6.540274218049515"><ele>187.0</ele><time>2026-04-28T11:16:28Z</time></trkpt><trkpt lat="33.99462715040989" lon="-6.54036984239296"><ele>186.33333333333334</ele><time>2026-04-28T11:16:29Z</time></trkpt><trkpt lat="33.99483078238515" lon="-6.5404593476991835"><ele>185.66666666666666</ele><time>2026-04-28T11:16:30Z</time></trkpt><trkpt lat="33.995028121579935" lon="-6.540542038692484"><ele>185.0</ele><time>2026-04-28T11:16:31Z</time></trkpt><trkpt lat="33.995219078105976" lon="-6.540619266617559"><ele>184.33333333333331</ele><time>2026-04-28T11:16:32Z</time></trkpt><trkpt lat="33.99539956337121" lon="-6.540692220219662"><ele>183.66666666666666</ele><time>2026-04-28T11:16:33Z</time></trkpt><trkpt lat="33.9955741942743" lon="-6.5407620070684205"><ele>183.0</ele><time>2026-04-28T11:16:34Z</time></trkpt><trkpt lat="33.9957432842502" lon="-6.540828655859477"><ele>183.0</ele><time>2026-04-28T11:16:35Z</time></trkpt><trkpt lat="33.995907548323636" lon="-6.540890919858853"><ele>183.0</ele><time>2026-04-28T11:16:36Z</time></trkpt><trkpt lat="33.996069883306546" lon="-6.540951375905051"><ele>183.0</ele><time>2026-04-28T11:16:37Z</time></trkpt><trkpt lat="33.99623129748902" lon="-6.541009839025269"><ele>183.0</ele><time>2026-04-28T11:16:38Z</time></trkpt><trkpt lat="33.99639219963171" lon="-6.541065928430617"><ele>183.0</ele><time>2026-04-28T11:16:39Z</time></trkpt><trkpt lat="33.9965536384849" lon="-6.541120520909328"><ele>183.0</ele><time>2026-04-28T11:16:40Z</time></trkpt><trkpt lat="33.996716207913245" lon="-6.541172780749178"><ele>182.0</ele><time>2026-04-28T11:16:41Z</time></trkpt><trkpt lat="33.996879320340845" lon="-6.541222150278102"><ele>181.0</ele><time>2026-04-28T11:16:42Z</time></trkpt><trkpt lat="33.99703950302318" lon="-6.541270106394006"><ele>180.0</ele><time>2026-04-28T11:16:43Z</time></trkpt><trkpt lat="33.997191380830486" lon="-6.541316204294281"><ele>180.0</ele><time>2026-04-28T11:16:44Z</time></trkpt><trkpt lat="33.997336268000275" lon="-6.541358716386465"><ele>180.0</ele><time>2026-04-28T11:16:45Z</time></trkpt><trkpt lat="33.997464155688355" lon="-6.54139714196718"><ele>180.0</ele><time>2026-04-28T11:16:46Z</time></trkpt><trkpt lat="33.9975757326074" lon="-6.541430526337495"><ele>180.0</ele><time>2026-04-28T11:16:47Z</time></trkpt><trkpt lat="33.99768082011719" lon="-6.541462397783072"><ele>179.6</ele><time>2026-04-28T11:16:48Z</time></trkpt><trkpt lat="33.99777984489078" lon="-6.541492076833502"><ele>179.2</ele><time>2026-04-28T11:16:49Z</time></trkpt><trkpt lat="33.99787444477288" lon="-6.541521252972224"><ele>178.8</ele><time>2026-04-28T11:16:50Z</time></trkpt><trkpt lat="33.99797192927416" lon="-6.541548237474038"><ele>178.4</ele><time>2026-04-28T11:16:51Z</time></trkpt><trkpt lat="33.998071506793195" lon="-6.541572584333949"><ele>178.0</ele><time>2026-04-28T11:16:52Z</time></trkpt><trkpt lat="33.99817463866801" lon="-6.541597505805704"><ele>178.0</ele><time>2026-04-28T11:16:53Z</time></trkpt><trkpt lat="33.998279081529446" lon="-6.541624103711939"><ele>178.0</ele><time>2026-04-28T11:16:54Z</time></trkpt><trkpt lat="33.99838385397065" lon="-6.541649719017498"><ele>178.0</ele><time>2026-04-28T11:16:55Z</time></trkpt><trkpt lat="33.9984868084777" lon="-6.541672974461713"><ele>178.0</ele><time>2026-04-28T11:16:56Z</time></trkpt><trkpt lat="33.99858493230537" lon="-6.541696901664115"><ele>178.0</ele><time>2026-04-28T11:16:57Z</time></trkpt><trkpt lat="33.99867918785187" lon="-6.541720412784902"><ele>178.0</ele><time>2026-04-28T11:16:58Z</time></trkpt><trkpt lat="33.998772744017614" lon="-6.541743098187867"><ele>178.0</ele><time>2026-04-28T11:16:59Z</time></trkpt><trkpt lat="33.998867349495356" lon="-6.541765731310986"><ele>178.0</ele><time>2026-04-28T11:17:00Z</time></trkpt><trkpt lat="33.99896464120175" lon="-6.541789273115227"><ele>178.0</ele><time>2026-04-28T11:17:01Z</time></trkpt><trkpt lat="33.999064687224596" lon="-6.541812913431334"><ele>178.0</ele><time>2026-04-28T11:17:02Z</time></trkpt><trkpt lat="33.99916479835754" lon="-6.541838049701345"><ele>177.60000000000002</ele><time>2026-04-28T11:17:03Z</time></trkpt><trkpt lat="33.99926726774115" lon="-6.541861586207184"><ele>177.20000000000002</ele><time>2026-04-28T11:17:04Z</time></trkpt><trkpt lat="33.99936765552147" lon="-6.541881787991212"><ele>176.8</ele><time>2026-04-28T11:17:05Z</time></trkpt><trkpt lat="33.99946742253204" lon="-6.541900795717083"><ele>176.4</ele><time>2026-04-28T11:17:06Z</time></trkpt><trkpt lat="33.9995595535616" lon="-6.541918680661221"><ele>176.0</ele><time>2026-04-28T11:17:07Z</time></trkpt><trkpt lat="33.999648162855294" lon="-6.541938449941937"><ele>176.0</ele><time>2026-04-28T11:17:08Z</time></trkpt><trkpt lat="33.9997326040892" lon="-6.541956385513629"><ele>176.0</ele><time>2026-04-28T11:17:09Z</time></trkpt><trkpt lat="33.99980928734508" lon="-6.541972612219765"><ele>176.0</ele><time>2026-04-28T11:17:10Z</time></trkpt><trkpt lat="33.999875251257386" lon="-6.5419886245601075"><ele>176.0</ele><time>2026-04-28T11:17:11Z</time></trkpt><trkpt lat="33.99996504277791" lon="-6.54200912882966"><ele>176.0</ele><time>2026-04-28T11:17:13Z</time></trkpt><trkpt lat="34.00003854573864" lon="-6.542021312756692"><ele>176.0</ele><time>2026-04-28T11:17:17Z</time></trkpt><trkpt lat="34.000115827621244" lon="-6.542050206629798"><ele>176.14285714285714</ele><time>2026-04-28T11:17:23Z</time></trkpt><trkpt lat="34.00017423073797" lon="-6.542089094972182"><ele>176.28571428571428</ele><time>2026-04-28T11:17:27Z</time></trkpt><trkpt lat="34.00024101807873" lon="-6.54211499010862"><ele>176.42857142857144</ele><time>2026-04-28T11:17:43Z</time></trkpt><trkpt lat="34.00031298307331" lon="-6.542137734057599"><ele>176.57142857142856</ele><time>2026-04-28T11:18:53Z</time></trkpt><trkpt lat="34.000385105813606" lon="-6.542135224967423"><ele>176.7142857142857</ele><time>2026-04-28T11:19:37Z</time></trkpt><trkpt lat="34.00046520877833" lon="-6.542161944424671"><ele>176.85714285714286</ele><time>2026-04-28T11:19:54Z</time></trkpt><trkpt lat="34.000537093480695" lon="-6.542145511977191"><ele>177.0</ele><time>2026-04-28T11:21:15Z</time></trkpt><trkpt lat="34.000617260129864" lon="-6.5421567635979985"><ele>177.0</ele><time>2026-04-28T11:21:17Z</time></trkpt><trkpt lat="34.00072702346792" lon="-6.542198466862205"><ele>177.0</ele><time>2026-04-28T11:21:19Z</time></trkpt><trkpt lat="34.000786917286305" lon="-6.542222596360771"><ele>177.0</ele><time>2026-04-28T11:21:20Z</time></trkpt><trkpt lat="34.00084921804539" lon="-6.542245276006461"><ele>177.0</ele><time>2026-04-28T11:21:21Z</time></trkpt><trkpt lat="34.00091393649376" lon="-6.542264293835316"><ele>177.0</ele><time>2026-04-28T11:21:22Z</time></trkpt><trkpt lat="34.000983057516365" lon="-6.542282786742348"><ele>177.0</ele><time>2026-04-28T11:21:23Z</time></trkpt><trkpt lat="34.001050796913866" lon="-6.542304037590919"><ele>176.71428571428572</ele><time>2026-04-28T11:21:24Z</time></trkpt><trkpt lat="34.00111873184347" lon="-6.542327194114688"><ele>176.42857142857142</ele><time>2026-04-28T11:21:25Z</time></trkpt><trkpt lat="34.00118711480699" lon="-6.542349649336641"><ele>176.14285714285714</ele><time>2026-04-28T11:21:26Z</time></trkpt><trkpt lat="34.001257985343514" lon="-6.542371870430873"><ele>175.85714285714286</ele><time>2026-04-28T11:21:27Z</time></trkpt><trkpt lat="34.00133052584598" lon="-6.542394236730594"><ele>175.57142857142856</ele><time>2026-04-28T11:21:28Z</time></trkpt><trkpt lat="34.001405521007335" lon="-6.542418020896497"><ele>175.28571428571428</ele><time>2026-04-28T11:21:29Z</time></trkpt><trkpt lat="34.00147973952478" lon="-6.542438207383465"><ele>175.0</ele><time>2026-04-28T11:21:30Z</time></trkpt><trkpt lat="34.00155337061896" lon="-6.542456107984713"><ele>175.0</ele><time>2026-04-28T11:21:31Z</time></trkpt><trkpt lat="34.001619053639565" lon="-6.542469096494125"><ele>175.0</ele><time>2026-04-28T11:21:32Z</time></trkpt><trkpt lat="34.00173510446746" lon="-6.542497326442857"><ele>175.0</ele><time>2026-04-28T11:21:34Z</time></trkpt><trkpt lat="34.00182991833803" lon="-6.542516400299404"><ele>175.0</ele><time>2026-04-28T11:21:36Z</time></trkpt><trkpt lat="34.00193160000355" lon="-6.542537451304417"><ele>175.0</ele><time>2026-04-28T11:21:38Z</time></trkpt><trkpt lat="34.00206208176207" lon="-6.542562389565751"><ele>174.5</ele><time>2026-04-28T11:21:40Z</time></trkpt><trkpt lat="34.00213673969004" lon="-6.542570512266711"><ele>174.0</ele><time>2026-04-28T11:21:41Z</time></trkpt><trkpt lat="34.00221531373619" lon="-6.54257664976033"><ele>173.5</ele><time>2026-04-28T11:21:42Z</time></trkpt><trkpt lat="34.00229532303732" lon="-6.542580328982022"><ele>173.0</ele><time>2026-04-28T11:21:43Z</time></trkpt><trkpt lat="34.0023748865154" lon="-6.542582303363915"><ele>172.5</ele><time>2026-04-28T11:21:44Z</time></trkpt><trkpt lat="34.00244505619762" lon="-6.542582102633471"><ele>172.0</ele><time>2026-04-28T11:21:45Z</time></trkpt><trkpt lat="34.00254559905988" lon="-6.542572340730913"><ele>171.39999999999998</ele><time>2026-04-28T11:21:47Z</time></trkpt><trkpt lat="34.00260800544167" lon="-6.542588096289819"><ele>170.79999999999998</ele><time>2026-04-28T11:28:44.999Z</time></trkpt><trkpt lat="34.00270526112396" lon="-6.542617702855309"><ele>170.2</ele><time>2026-04-28T11:28:47.999Z</time></trkpt><trkpt lat="34.0028051788943" lon="-6.542652105379427"><ele>169.6</ele><time>2026-04-28T11:28:49.999Z</time></trkpt><trkpt lat="34.00292296829288" lon="-6.54268902559917"><ele>169.0</ele><time>2026-04-28T11:28:52Z</time></trkpt><trkpt lat="34.0029883638851" lon="-6.542710016903192"><ele>169.0</ele><time>2026-04-28T11:28:53Z</time></trkpt><trkpt lat="34.00305932918825" lon="-6.542731789282317"><ele>169.0</ele><time>2026-04-28T11:28:54Z</time></trkpt><trkpt lat="34.00314201016202" lon="-6.542754840171843"><ele>169.0</ele><time>2026-04-28T11:28:55Z</time></trkpt><trkpt lat="34.003233485899884" lon="-6.542778099508798"><ele>169.0</ele><time>2026-04-28T11:28:56Z</time></trkpt><trkpt lat="34.003327926614304" lon="-6.542800507188983"><ele>169.0</ele><time>2026-04-28T11:28:57Z</time></trkpt><trkpt lat="34.0034326584986" lon="-6.542823522199473"><ele>168.25</ele><time>2026-04-28T11:28:58Z</time></trkpt><trkpt lat="34.003545521637825" lon="-6.542850512073034"><ele>167.5</ele><time>2026-04-28T11:28:59Z</time></trkpt><trkpt lat="34.003665463082875" lon="-6.542880476668171"><ele>166.75</ele><time>2026-04-28T11:29:00Z</time></trkpt><trkpt lat="34.00379320209662" lon="-6.542912484427543"><ele>166.0</ele><time>2026-04-28T11:29:01Z</time></trkpt><trkpt lat="34.00392640434565" lon="-6.5429440322785934"><ele>166.0</ele><time>2026-04-28T11:29:02Z</time></trkpt><trkpt lat="34.00406371528864" lon="-6.542977260696038"><ele>166.0</ele><time>2026-04-28T11:29:03Z</time></trkpt><trkpt lat="34.00420155453868" lon="-6.543009983918394"><ele>166.0</ele><time>2026-04-28T11:29:04Z</time></trkpt><trkpt lat="34.00434272586033" lon="-6.5430403985392935"><ele>166.0</ele><time>2026-04-28T11:29:05Z</time></trkpt><trkpt lat="34.00448442761175" lon="-6.5430708231464925"><ele>166.5</ele><time>2026-04-28T11:29:06Z</time></trkpt><trkpt lat="34.00462498650003" lon="-6.543102206217377"><ele>167.0</ele><time>2026-04-28T11:29:07Z</time></trkpt><trkpt lat="34.00476649458324" lon="-6.543135165623616"><ele>167.5</ele><time>2026-04-28T11:29:08Z</time></trkpt><trkpt lat="34.00490621794178" lon="-6.543168880258662"><ele>168.0</ele><time>2026-04-28T11:29:09Z</time></trkpt><trkpt lat="34.00504590953735" lon="-6.543202033542359"><ele>168.33333333333334</ele><time>2026-04-28T11:29:10Z</time></trkpt><trkpt lat="34.00518866646518" lon="-6.54323678901957"><ele>168.66666666666669</ele><time>2026-04-28T11:29:11Z</time></trkpt><trkpt lat="34.0053412290286" lon="-6.543270812929629"><ele>169.0</ele><time>2026-04-28T11:29:12Z</time></trkpt><trkpt lat="34.00550331718014" lon="-6.543307446284893"><ele>169.0</ele><time>2026-04-28T11:29:13Z</time></trkpt><trkpt lat="34.005674440048466" lon="-6.543346109013874"><ele>169.0</ele><time>2026-04-28T11:29:14Z</time></trkpt><trkpt lat="34.005855181713365" lon="-6.5433870075646245"><ele>169.0</ele><time>2026-04-28T11:29:15Z</time></trkpt><trkpt lat="34.006039644224124" lon="-6.543427718063147"><ele>169.33333333333334</ele><time>2026-04-28T11:29:16Z</time></trkpt><trkpt lat="34.00622475215102" lon="-6.543469869657092"><ele>169.66666666666666</ele><time>2026-04-28T11:29:17Z</time></trkpt><trkpt lat="34.006410764610564" lon="-6.543511944691599"><ele>170.0</ele><time>2026-04-28T11:29:18Z</time></trkpt><trkpt lat="34.00659909575578" lon="-6.543553654568087"><ele>169.33333333333331</ele><time>2026-04-28T11:29:19Z</time></trkpt><trkpt lat="34.006787324617896" lon="-6.543596585117667"><ele>168.66666666666666</ele><time>2026-04-28T11:29:20Z</time></trkpt><trkpt lat="34.006976175677785" lon="-6.543640953767413"><ele>168.0</ele><time>2026-04-28T11:29:21Z</time></trkpt><trkpt lat="34.00716688575553" lon="-6.543688152529186"><ele>168.0</ele><time>2026-04-28T11:29:22Z</time></trkpt><trkpt lat="34.007361313393574" lon="-6.543737879796621"><ele>168.0</ele><time>2026-04-28T11:29:23Z</time></trkpt><trkpt lat="34.00755659586026" lon="-6.543789152342051"><ele>168.0</ele><time>2026-04-28T11:29:24Z</time></trkpt><trkpt lat="34.00775130402269" lon="-6.54384098060247"><ele>168.0</ele><time>2026-04-28T11:29:25Z</time></trkpt><trkpt lat="34.007945267072856" lon="-6.543897081551814"><ele>168.0</ele><time>2026-04-28T11:29:26Z</time></trkpt><trkpt lat="34.00814030215573" lon="-6.543960748862511"><ele>168.0</ele><time>2026-04-28T11:29:27Z</time></trkpt><trkpt lat="34.00833398802801" lon="-6.544030116719352"><ele>168.0</ele><time>2026-04-28T11:29:28Z</time></trkpt><trkpt lat="34.00852885450364" lon="-6.544103528401209"><ele>168.0</ele><time>2026-04-28T11:29:29Z</time></trkpt><trkpt lat="34.00872915443724" lon="-6.544182746692067"><ele>168.0</ele><time>2026-04-28T11:29:30Z</time></trkpt><trkpt lat="34.00893629082917" lon="-6.544270107739307"><ele>168.0</ele><time>2026-04-28T11:29:31Z</time></trkpt><trkpt lat="34.009151161662764" lon="-6.544364578288945"><ele>168.0</ele><time>2026-04-28T11:29:32Z</time></trkpt><trkpt lat="34.009371834967034" lon="-6.544464723844888"><ele>166.5</ele><time>2026-04-28T11:29:33Z</time></trkpt><trkpt lat="34.00959325394268" lon="-6.54457060835855"><ele>165.0</ele><time>2026-04-28T11:29:34Z</time></trkpt><trkpt lat="34.009812838257616" lon="-6.544678977486555"><ele>163.5</ele><time>2026-04-28T11:29:35Z</time></trkpt><trkpt lat="34.010035281280175" lon="-6.544792220986367"><ele>162.0</ele><time>2026-04-28T11:29:36Z</time></trkpt><trkpt lat="34.010261867849955" lon="-6.5449129396936465"><ele>162.0</ele><time>2026-04-28T11:29:37Z</time></trkpt><trkpt lat="34.01049066513932" lon="-6.54504079332609"><ele>162.0</ele><time>2026-04-28T11:29:38Z</time></trkpt><trkpt lat="34.010719097191846" lon="-6.5451762012594354"><ele>162.0</ele><time>2026-04-28T11:29:39Z</time></trkpt><trkpt lat="34.01094683948168" lon="-6.545312032630113"><ele>162.0</ele><time>2026-04-28T11:29:40Z</time></trkpt><trkpt lat="34.0111718844403" lon="-6.545454169501707"><ele>161.0</ele><time>2026-04-28T11:29:41Z</time></trkpt><trkpt lat="34.011393005050714" lon="-6.545601869738134"><ele>160.0</ele><time>2026-04-28T11:29:42Z</time></trkpt><trkpt lat="34.01160993831045" lon="-6.545758720064074"><ele>163.0</ele><time>2026-04-28T11:29:43Z</time></trkpt><trkpt lat="34.01182585148935" lon="-6.545917532147391"><ele>166.0</ele><time>2026-04-28T11:29:44Z</time></trkpt><trkpt lat="34.01203933414693" lon="-6.546080416092192"><ele>166.0</ele><time>2026-04-28T11:29:45Z</time></trkpt><trkpt lat="34.01224702490434" lon="-6.546250855732329"><ele>166.0</ele><time>2026-04-28T11:29:46Z</time></trkpt><trkpt lat="34.012449158000784" lon="-6.5464266948350405"><ele>166.5</ele><time>2026-04-28T11:29:47Z</time></trkpt><trkpt lat="34.01265383840262" lon="-6.546605238509732"><ele>167.0</ele><time>2026-04-28T11:29:48Z</time></trkpt><trkpt lat="34.012856462841235" lon="-6.546791441746586"><ele>167.0</ele><time>2026-04-28T11:29:49Z</time></trkpt><trkpt lat="34.013056640467546" lon="-6.546975750186676"><ele>167.0</ele><time>2026-04-28T11:29:50Z</time></trkpt><trkpt lat="34.01325202641211" lon="-6.547168276242698"><ele>167.0</ele><time>2026-04-28T11:29:51Z</time></trkpt><trkpt lat="34.01344368113745" lon="-6.547366898682091"><ele>167.0</ele><time>2026-04-28T11:29:52Z</time></trkpt><trkpt lat="34.0136366513694" lon="-6.547571672989392"><ele>167.0</ele><time>2026-04-28T11:29:53Z</time></trkpt><trkpt lat="34.01382744906904" lon="-6.54778650914584"><ele>167.0</ele><time>2026-04-28T11:29:54Z</time></trkpt><trkpt lat="34.01401651208584" lon="-6.548009664839163"><ele>168.5</ele><time>2026-04-28T11:29:55Z</time></trkpt><trkpt lat="34.01420808899112" lon="-6.548238445601329"><ele>170.0</ele><time>2026-04-28T11:29:56Z</time></trkpt><trkpt lat="34.01439338278297" lon="-6.548463820124761"><ele>170.0</ele><time>2026-04-28T11:29:57Z</time></trkpt><trkpt lat="34.01457394616936" lon="-6.548690850982078"><ele>170.0</ele><time>2026-04-28T11:29:58Z</time></trkpt><trkpt lat="34.01474739451406" lon="-6.548921720024974"><ele>170.0</ele><time>2026-04-28T11:29:59Z</time></trkpt><trkpt lat="34.01491910514895" lon="-6.5491633664967175"><ele>170.0</ele><time>2026-04-28T11:30:00Z</time></trkpt><trkpt lat="34.015080177765405" lon="-6.549380683092766"><ele>171.5</ele><time>2026-04-28T11:30:01Z</time></trkpt><trkpt lat="34.015257449612534" lon="-6.549662147467718"><ele>173.0</ele><time>2026-04-28T11:30:02Z</time></trkpt><trkpt lat="34.01542464887453" lon="-6.549922081171012"><ele>173.0</ele><time>2026-04-28T11:30:03Z</time></trkpt><trkpt lat="34.01559019892376" lon="-6.550183898633684"><ele>173.0</ele><time>2026-04-28T11:30:04Z</time></trkpt><trkpt lat="34.01574323819187" lon="-6.550441014369853"><ele>173.5</ele><time>2026-04-28T11:30:05Z</time></trkpt><trkpt lat="34.01588480667742" lon="-6.550689035045952"><ele>174.0</ele><time>2026-04-28T11:30:06Z</time></trkpt><trkpt lat="34.016022233692766" lon="-6.55093986370631"><ele>174.0</ele><time>2026-04-28T11:30:07Z</time></trkpt><trkpt lat="34.016155495281964" lon="-6.551195637602242"><ele>174.0</ele><time>2026-04-28T11:30:08Z</time></trkpt><trkpt lat="34.01628324470314" lon="-6.551455223804872"><ele>174.5</ele><time>2026-04-28T11:30:09Z</time></trkpt><trkpt lat="34.016407014645516" lon="-6.5517156677406305"><ele>175.0</ele><time>2026-04-28T11:30:10Z</time></trkpt><trkpt lat="34.01652601051355" lon="-6.551978865575947"><ele>174.5</ele><time>2026-04-28T11:30:11Z</time></trkpt><trkpt lat="34.01663899308392" lon="-6.5522432578406455"><ele>174.0</ele><time>2026-04-28T11:30:12Z</time></trkpt><trkpt lat="34.01674811655504" lon="-6.552508160614859"><ele>174.0</ele><time>2026-04-28T11:30:13Z</time></trkpt><trkpt lat="34.016856050423506" lon="-6.552774495034356"><ele>174.0</ele><time>2026-04-28T11:30:14Z</time></trkpt><trkpt lat="34.01695929399869" lon="-6.553039882472374"><ele>172.0</ele><time>2026-04-28T11:30:15Z</time></trkpt><trkpt lat="34.01705955375566" lon="-6.5533046282059715"><ele>170.0</ele><time>2026-04-28T11:30:16Z</time></trkpt><trkpt lat="34.01715402013503" lon="-6.5535676378320025"><ele>170.0</ele><time>2026-04-28T11:30:17Z</time></trkpt><trkpt lat="34.017241366641514" lon="-6.553830896075724"><ele>170.0</ele><time>2026-04-28T11:30:18Z</time></trkpt><trkpt lat="34.01732270241252" lon="-6.554092627388847"><ele>170.0</ele><time>2026-04-28T11:30:19Z</time></trkpt><trkpt lat="34.017400481649965" lon="-6.554352777110086"><ele>170.0</ele><time>2026-04-28T11:30:20Z</time></trkpt><trkpt lat="34.01747208980937" lon="-6.554611522524984"><ele>169.0</ele><time>2026-04-28T11:30:21Z</time></trkpt><trkpt lat="34.017537962477974" lon="-6.554874671471751"><ele>168.0</ele><time>2026-04-28T11:30:22Z</time></trkpt><trkpt lat="34.01760220364962" lon="-6.555144987852774"><ele>166.0</ele><time>2026-04-28T11:30:23Z</time></trkpt><trkpt lat="34.01766336616332" lon="-6.555417245651387"><ele>164.0</ele><time>2026-04-28T11:30:24Z</time></trkpt><trkpt lat="34.0177263306176" lon="-6.555696751778454"><ele>164.0</ele><time>2026-04-28T11:30:25Z</time></trkpt><trkpt lat="34.01778497752982" lon="-6.555982062127455"><ele>164.0</ele><time>2026-04-28T11:30:26Z</time></trkpt><trkpt lat="34.0178392389733" lon="-6.556272486727676"><ele>163.0</ele><time>2026-04-28T11:30:27Z</time></trkpt><trkpt lat="34.0178891279523" lon="-6.556568103136249"><ele>162.0</ele><time>2026-04-28T11:30:28Z</time></trkpt><trkpt lat="34.017933727955885" lon="-6.5568662206216235"><ele>162.0</ele><time>2026-04-28T11:30:29Z</time></trkpt><trkpt lat="34.017973794896555" lon="-6.557166809534884"><ele>162.0</ele><time>2026-04-28T11:30:30Z</time></trkpt><trkpt lat="34.0180096894378" lon="-6.557469227798177"><ele>162.0</ele><time>2026-04-28T11:30:31Z</time></trkpt><trkpt lat="34.018042591316394" lon="-6.5577772575564435"><ele>162.0</ele><time>2026-04-28T11:30:32Z</time></trkpt><trkpt lat="34.01807770447562" lon="-6.558084428647126"><ele>163.5</ele><time>2026-04-28T11:30:33Z</time></trkpt><trkpt lat="34.01811014176963" lon="-6.5583947389508745"><ele>165.0</ele><time>2026-04-28T11:30:34Z</time></trkpt><trkpt lat="34.01814410081242" lon="-6.558706505242844"><ele>166.0</ele><time>2026-04-28T11:30:35Z</time></trkpt><trkpt lat="34.01818157004675" lon="-6.559019460939648"><ele>167.0</ele><time>2026-04-28T11:30:36Z</time></trkpt><trkpt lat="34.01821525965608" lon="-6.559330086826899"><ele>167.5</ele><time>2026-04-28T11:30:37Z</time></trkpt><trkpt lat="34.018254323426106" lon="-6.559640484222464"><ele>168.0</ele><time>2026-04-28T11:30:38Z</time></trkpt><trkpt lat="34.01828813678596" lon="-6.5599479061910495"><ele>168.5</ele><time>2026-04-28T11:30:39Z</time></trkpt><trkpt lat="34.01831828372926" lon="-6.560248844469651"><ele>169.0</ele><time>2026-04-28T11:30:40Z</time></trkpt><trkpt lat="34.01834618354093" lon="-6.560545515943905"><ele>170.5</ele><time>2026-04-28T11:30:41Z</time></trkpt><trkpt lat="34.018375797694745" lon="-6.560844309957237"><ele>172.0</ele><time>2026-04-28T11:30:42Z</time></trkpt><trkpt lat="34.018405910020356" lon="-6.561142608998853"><ele>173.0</ele><time>2026-04-28T11:30:43Z</time></trkpt><trkpt lat="34.018436567769015" lon="-6.561438500252018"><ele>174.0</ele><time>2026-04-28T11:30:44Z</time></trkpt><trkpt lat="34.01846699847598" lon="-6.561715699784813"><ele>174.0</ele><time>2026-04-28T11:30:45Z</time></trkpt><trkpt lat="34.01849398053251" lon="-6.561953578550086"><ele>174.0</ele><time>2026-04-28T11:30:45.999Z</time></trkpt><trkpt lat="34.01851666312808" lon="-6.562174134852256"><ele>174.0</ele><time>2026-04-28T11:30:46.999Z</time></trkpt><trkpt lat="34.01853842997245" lon="-6.562386339161742"><ele>174.0</ele><time>2026-04-28T11:30:47.999Z</time></trkpt><trkpt lat="34.0185605814612" lon="-6.562602980366064"><ele>174.0</ele><time>2026-04-28T11:30:48.999Z</time></trkpt><trkpt lat="34.01858299481236" lon="-6.562831114217262"><ele>174.0</ele><time>2026-04-28T11:30:49.999Z</time></trkpt><trkpt lat="34.018607603875864" lon="-6.563069643854664"><ele>175.0</ele><time>2026-04-28T11:30:50.999Z</time></trkpt><trkpt lat="34.01863518041198" lon="-6.563318571035542"><ele>176.0</ele><time>2026-04-28T11:30:51.999Z</time></trkpt><trkpt lat="34.01866526435896" lon="-6.563576438178128"><ele>177.0</ele><time>2026-04-28T11:30:52.999Z</time></trkpt><trkpt lat="34.01869351264257" lon="-6.563846488547424"><ele>177.0</ele><time>2026-04-28T11:30:53.999Z</time></trkpt><trkpt lat="34.01872164692521" lon="-6.564123150541223"><ele>177.0</ele><time>2026-04-28T11:30:54.999Z</time></trkpt><trkpt lat="34.01875046168071" lon="-6.564403331017315"><ele>175.0</ele><time>2026-04-28T11:30:55.999Z</time></trkpt><trkpt lat="34.01878201420591" lon="-6.564683108915083"><ele>173.0</ele><time>2026-04-28T11:30:56.999Z</time></trkpt><trkpt lat="34.018812138296305" lon="-6.56496837732538"><ele>173.0</ele><time>2026-04-28T11:30:58Z</time></trkpt><trkpt lat="34.01884159706351" lon="-6.565254736816107"><ele>173.0</ele><time>2026-04-28T11:30:59Z</time></trkpt><trkpt lat="34.018872340091185" lon="-6.565541160542226"><ele>172.5</ele><time>2026-04-28T11:31:00Z</time></trkpt><trkpt lat="34.018900142881556" lon="-6.5658231950566215"><ele>172.0</ele><time>2026-04-28T11:31:01Z</time></trkpt><trkpt lat="34.01893016705377" lon="-6.566107644063867"><ele>172.5</ele><time>2026-04-28T11:31:02Z</time></trkpt><trkpt lat="34.01896227272983" lon="-6.566396235113483"><ele>173.0</ele><time>2026-04-28T11:31:03Z</time></trkpt><trkpt lat="34.01899547491015" lon="-6.566689844937067"><ele>173.0</ele><time>2026-04-28T11:31:04Z</time></trkpt><trkpt lat="34.019023495784495" lon="-6.566988089926699"><ele>173.0</ele><time>2026-04-28T11:31:05Z</time></trkpt><trkpt lat="34.019054277143226" lon="-6.567292437587883"><ele>173.5</ele><time>2026-04-28T11:31:06Z</time></trkpt><trkpt lat="34.019088264481205" lon="-6.567607579750885"><ele>174.0</ele><time>2026-04-28T11:31:07Z</time></trkpt><trkpt lat="34.01912259352097" lon="-6.567934484924217"><ele>175.5</ele><time>2026-04-28T11:31:08Z</time></trkpt><trkpt lat="34.01915852048647" lon="-6.568269441253624"><ele>177.0</ele><time>2026-04-28T11:31:09Z</time></trkpt><trkpt lat="34.01919455229836" lon="-6.56861133892566"><ele>178.5</ele><time>2026-04-28T11:31:10Z</time></trkpt><trkpt lat="34.0192349793315" lon="-6.568956556679468"><ele>180.0</ele><time>2026-04-28T11:31:11Z</time></trkpt><trkpt lat="34.01927431678422" lon="-6.569308089869404"><ele>178.5</ele><time>2026-04-28T11:31:12Z</time></trkpt><trkpt lat="34.019310212782635" lon="-6.569661617864757"><ele>177.0</ele><time>2026-04-28T11:31:13Z</time></trkpt><trkpt lat="34.019350235023296" lon="-6.570011824201884"><ele>177.0</ele><time>2026-04-28T11:31:14Z</time></trkpt><trkpt lat="34.019389862612144" lon="-6.570341288688507"><ele>177.0</ele><time>2026-04-28T11:31:15Z</time></trkpt><trkpt lat="34.01942678899554" lon="-6.570671504044971"><ele>178.0</ele><time>2026-04-28T11:31:16Z</time></trkpt><trkpt lat="34.019463398097244" lon="-6.571004322014581"><ele>179.0</ele><time>2026-04-28T11:31:17Z</time></trkpt><trkpt lat="34.0195031426609" lon="-6.571339079641826"><ele>179.5</ele><time>2026-04-28T11:31:18Z</time></trkpt><trkpt lat="34.01954130556635" lon="-6.571669094857273"><ele>180.0</ele><time>2026-04-28T11:31:19Z</time></trkpt><trkpt lat="34.01957882075409" lon="-6.571996929997954"><ele>181.0</ele><time>2026-04-28T11:31:20Z</time></trkpt><trkpt lat="34.01961282817334" lon="-6.572324726947394"><ele>182.0</ele><time>2026-04-28T11:31:21Z</time></trkpt><trkpt lat="34.01964846765453" lon="-6.572652186517902"><ele>182.0</ele><time>2026-04-28T11:31:22Z</time></trkpt><trkpt lat="34.019683011695804" lon="-6.572979653013951"><ele>182.0</ele><time>2026-04-28T11:31:23Z</time></trkpt><trkpt lat="34.01971693999969" lon="-6.573307377738313"><ele>182.0</ele><time>2026-04-28T11:31:24Z</time></trkpt><trkpt lat="34.01975075178093" lon="-6.57363623546327"><ele>182.0</ele><time>2026-04-28T11:31:25Z</time></trkpt><trkpt lat="34.01978338372115" lon="-6.573966160252512"><ele>182.0</ele><time>2026-04-28T11:31:26Z</time></trkpt><trkpt lat="34.01981498564169" lon="-6.574292912706373"><ele>182.0</ele><time>2026-04-28T11:31:27Z</time></trkpt><trkpt lat="34.01984835785159" lon="-6.574618428624958"><ele>183.0</ele><time>2026-04-28T11:31:28Z</time></trkpt><trkpt lat="34.019883232753934" lon="-6.574943958738542"><ele>184.0</ele><time>2026-04-28T11:31:29Z</time></trkpt><trkpt lat="34.01992037968943" lon="-6.575269114509253"><ele>184.0</ele><time>2026-04-28T11:31:30Z</time></trkpt><trkpt lat="34.01996219102091" lon="-6.57559275579622"><ele>184.0</ele><time>2026-04-28T11:31:31Z</time></trkpt><trkpt lat="34.020002750240664" lon="-6.575918615544137"><ele>182.5</ele><time>2026-04-28T11:31:32Z</time></trkpt><trkpt lat="34.02004228235367" lon="-6.576244834138041"><ele>181.0</ele><time>2026-04-28T11:31:33Z</time></trkpt><trkpt lat="34.020082383814966" lon="-6.576574461965176"><ele>181.0</ele><time>2026-04-28T11:31:34Z</time></trkpt><trkpt lat="34.020120155461214" lon="-6.576909923845619"><ele>181.0</ele><time>2026-04-28T11:31:35Z</time></trkpt><trkpt lat="34.02015868539687" lon="-6.577247284812861"><ele>181.0</ele><time>2026-04-28T11:31:36Z</time></trkpt><trkpt lat="34.02019388683374" lon="-6.577586325629839"><ele>181.0</ele><time>2026-04-28T11:31:37Z</time></trkpt><trkpt lat="34.02023540073021" lon="-6.5779262375721945"><ele>181.0</ele><time>2026-04-28T11:31:38Z</time></trkpt><trkpt lat="34.020278740521555" lon="-6.5782658509658996"><ele>181.0</ele><time>2026-04-28T11:31:39Z</time></trkpt><trkpt lat="34.0203193903067" lon="-6.578608121516795"><ele>180.0</ele><time>2026-04-28T11:31:40Z</time></trkpt><trkpt lat="34.02035379213997" lon="-6.578952151615953"><ele>179.0</ele><time>2026-04-28T11:31:41Z</time></trkpt><trkpt lat="34.02039026413648" lon="-6.579295476093844"><ele>179.5</ele><time>2026-04-28T11:31:42Z</time></trkpt><trkpt lat="34.02043075910898" lon="-6.5796370035036675"><ele>180.0</ele><time>2026-04-28T11:31:43Z</time></trkpt><trkpt lat="34.02046940770092" lon="-6.579982508021773"><ele>180.0</ele><time>2026-04-28T11:31:44Z</time></trkpt><trkpt lat="34.0205042549902" lon="-6.580328972072406"><ele>180.0</ele><time>2026-04-28T11:31:45Z</time></trkpt><trkpt lat="34.020540105830925" lon="-6.580676849676156"><ele>179.0</ele><time>2026-04-28T11:31:46Z</time></trkpt><trkpt lat="34.020576568663465" lon="-6.5810225613058595"><ele>178.0</ele><time>2026-04-28T11:31:47Z</time></trkpt><trkpt lat="34.0206129692638" lon="-6.581366139423162"><ele>176.5</ele><time>2026-04-28T11:31:48Z</time></trkpt><trkpt lat="34.0206512495599" lon="-6.58170933843542"><ele>175.0</ele><time>2026-04-28T11:31:49Z</time></trkpt><trkpt lat="34.02068610336859" lon="-6.582049741687835"><ele>175.0</ele><time>2026-04-28T11:31:50Z</time></trkpt><trkpt lat="34.02072169837664" lon="-6.58239025539085"><ele>175.0</ele><time>2026-04-28T11:31:51Z</time></trkpt><trkpt lat="34.020754472021416" lon="-6.582732545994075"><ele>175.5</ele><time>2026-04-28T11:31:52Z</time></trkpt><trkpt lat="34.020791395915644" lon="-6.583074985128123"><ele>176.0</ele><time>2026-04-28T11:31:53Z</time></trkpt><trkpt lat="34.020828032735004" lon="-6.583418276444405"><ele>175.0</ele><time>2026-04-28T11:31:54Z</time></trkpt><trkpt lat="34.02086635546998" lon="-6.583761048761858"><ele>174.0</ele><time>2026-04-28T11:31:55Z</time></trkpt><trkpt lat="34.020906375330185" lon="-6.584102173248328"><ele>174.0</ele><time>2026-04-28T11:31:56Z</time></trkpt><trkpt lat="34.02094295254051" lon="-6.584444475214397"><ele>174.0</ele><time>2026-04-28T11:31:57Z</time></trkpt><trkpt lat="34.020978246353465" lon="-6.58478697003557"><ele>174.0</ele><time>2026-04-28T11:31:58Z</time></trkpt><trkpt lat="34.02101587667286" lon="-6.5851302171667285"><ele>174.0</ele><time>2026-04-28T11:31:59Z</time></trkpt><trkpt lat="34.02105291720415" lon="-6.585475483712818"><ele>174.0</ele><time>2026-04-28T11:32:00Z</time></trkpt><trkpt lat="34.02108898840294" lon="-6.585820036206447"><ele>174.0</ele><time>2026-04-28T11:32:01Z</time></trkpt><trkpt lat="34.021128186499084" lon="-6.586164335182788"><ele>174.5</ele><time>2026-04-28T11:32:02Z</time></trkpt><trkpt lat="34.021165780954846" lon="-6.586508798406894"><ele>175.0</ele><time>2026-04-28T11:32:03Z</time></trkpt><trkpt lat="34.02120311990158" lon="-6.586849576257211"><ele>174.5</ele><time>2026-04-28T11:32:04Z</time></trkpt><trkpt lat="34.02124311464296" lon="-6.5871900773459355"><ele>174.0</ele><time>2026-04-28T11:32:05Z</time></trkpt><trkpt lat="34.02128149616535" lon="-6.587531763403102"><ele>176.0</ele><time>2026-04-28T11:32:06Z</time></trkpt><trkpt lat="34.02132153738267" lon="-6.587872096398461"><ele>178.0</ele><time>2026-04-28T11:32:07Z</time></trkpt><trkpt lat="34.02136236685218" lon="-6.588210843360123"><ele>178.0</ele><time>2026-04-28T11:32:08Z</time></trkpt><trkpt lat="34.0214036801907" lon="-6.588550381287217"><ele>178.0</ele><time>2026-04-28T11:32:09Z</time></trkpt><trkpt lat="34.02144467973041" lon="-6.588890641024319"><ele>178.0</ele><time>2026-04-28T11:32:10Z</time></trkpt><trkpt lat="34.021487804406966" lon="-6.589231021727213"><ele>178.0</ele><time>2026-04-28T11:32:11Z</time></trkpt><trkpt lat="34.02151321741593" lon="-6.589574498109625"><ele>179.0</ele><time>2026-04-28T11:32:12Z</time></trkpt><trkpt lat="34.02156813777345" lon="-6.589914184441373"><ele>180.0</ele><time>2026-04-28T11:32:13Z</time></trkpt><trkpt lat="34.021587932355" lon="-6.590258130523491"><ele>180.0</ele><time>2026-04-28T11:32:14Z</time></trkpt><trkpt lat="34.021624749673755" lon="-6.590601861352395"><ele>180.0</ele><time>2026-04-28T11:32:15Z</time></trkpt><trkpt lat="34.021660154825966" lon="-6.590942880731538"><ele>180.0</ele><time>2026-04-28T11:32:16Z</time></trkpt><trkpt lat="34.021710756712395" lon="-6.591283832658979"><ele>180.0</ele><time>2026-04-28T11:32:17Z</time></trkpt><trkpt lat="34.02174901570419" lon="-6.591627601910903"><ele>180.0</ele><time>2026-04-28T11:32:18Z</time></trkpt><trkpt lat="34.02178355860427" lon="-6.591973383837592"><ele>180.0</ele><time>2026-04-28T11:32:19Z</time></trkpt><trkpt lat="34.02180569800041" lon="-6.592321492666723"><ele>180.0</ele><time>2026-04-28T11:32:20Z</time></trkpt><trkpt lat="34.02184036087015" lon="-6.592668374363581"><ele>180.0</ele><time>2026-04-28T11:32:21Z</time></trkpt><trkpt lat="34.021901808390204" lon="-6.593008092009434"><ele>180.0</ele><time>2026-04-28T11:32:22Z</time></trkpt><trkpt lat="34.021935709069" lon="-6.593350265434261"><ele>180.0</ele><time>2026-04-28T11:32:23Z</time></trkpt><trkpt lat="34.02197349344574" lon="-6.5936947654709686"><ele>180.0</ele><time>2026-04-28T11:32:24Z</time></trkpt><trkpt lat="34.022010350022086" lon="-6.594040601885422"><ele>180.0</ele><time>2026-04-28T11:32:24.999Z</time></trkpt><trkpt lat="34.022047852374776" lon="-6.5943885837339105"><ele>178.0</ele><time>2026-04-28T11:32:25.999Z</time></trkpt><trkpt lat="34.02208622885971" lon="-6.594735443562867"><ele>176.0</ele><time>2026-04-28T11:32:26.999Z</time></trkpt><trkpt lat="34.02212198740042" lon="-6.59508325903592"><ele>176.0</ele><time>2026-04-28T11:32:27.999Z</time></trkpt><trkpt lat="34.022159301623034" lon="-6.595431563255535"><ele>176.0</ele><time>2026-04-28T11:32:28.999Z</time></trkpt><trkpt lat="34.02219228832674" lon="-6.595777612404253"><ele>176.0</ele><time>2026-04-28T11:32:29.999Z</time></trkpt><trkpt lat="34.02223034046121" lon="-6.5961245573619935"><ele>176.0</ele><time>2026-04-28T11:32:30.999Z</time></trkpt><trkpt lat="34.022265496490036" lon="-6.596472864804754"><ele>176.0</ele><time>2026-04-28T11:32:31.999Z</time></trkpt><trkpt lat="34.02230541863256" lon="-6.59682200937696"><ele>176.0</ele><time>2026-04-28T11:32:32.999Z</time></trkpt><trkpt lat="34.02234303356436" lon="-6.597171495288622"><ele>176.0</ele><time>2026-04-28T11:32:33.999Z</time></trkpt><trkpt lat="34.0223826085867" lon="-6.597519740835804"><ele>176.0</ele><time>2026-04-28T11:32:34.999Z</time></trkpt><trkpt lat="34.022421753492864" lon="-6.597866455640603"><ele>176.0</ele><time>2026-04-28T11:32:35.999Z</time></trkpt><trkpt lat="34.02246259506407" lon="-6.5982132025774245"><ele>176.0</ele><time>2026-04-28T11:32:36.999Z</time></trkpt><trkpt lat="34.02249936097083" lon="-6.598562989770063"><ele>175.0</ele><time>2026-04-28T11:32:37.999Z</time></trkpt><trkpt lat="34.02253992593757" lon="-6.598912694535786"><ele>174.0</ele><time>2026-04-28T11:32:38.999Z</time></trkpt><trkpt lat="34.02257813040863" lon="-6.5992626291341585"><ele>174.5</ele><time>2026-04-28T11:32:39.999Z</time></trkpt><trkpt lat="34.02261965133094" lon="-6.599614228991892"><ele>175.0</ele><time>2026-04-28T11:32:40.999Z</time></trkpt><trkpt lat="34.022662217748206" lon="-6.599964660889216"><ele>175.0</ele><time>2026-04-28T11:32:41.999Z</time></trkpt><trkpt lat="34.02270652917034" lon="-6.600313236229032"><ele>175.0</ele><time>2026-04-28T11:32:42.999Z</time></trkpt><trkpt lat="34.02274893965603" lon="-6.600662673105819"><ele>174.0</ele><time>2026-04-28T11:32:43.999Z</time></trkpt><trkpt lat="34.02279132275551" lon="-6.6010123295962515"><ele>173.0</ele><time>2026-04-28T11:32:44.999Z</time></trkpt><trkpt lat="34.022840420938614" lon="-6.601363545885219"><ele>173.0</ele><time>2026-04-28T11:32:45.999Z</time></trkpt><trkpt lat="34.022879266485326" lon="-6.6017128742134625"><ele>173.0</ele><time>2026-04-28T11:32:46.999Z</time></trkpt><trkpt lat="34.02291931618113" lon="-6.602065008573476"><ele>171.0</ele><time>2026-04-28T11:32:47.999Z</time></trkpt><trkpt lat="34.02295801279796" lon="-6.602419299729057"><ele>169.0</ele><time>2026-04-28T11:32:48.999Z</time></trkpt><trkpt lat="34.02299599149238" lon="-6.602772575088657"><ele>169.5</ele><time>2026-04-28T11:32:49.999Z</time></trkpt><trkpt lat="34.023041034039885" lon="-6.603120831766624"><ele>170.0</ele><time>2026-04-28T11:32:50.999Z</time></trkpt><trkpt lat="34.02308585232756" lon="-6.603470840027874"><ele>169.0</ele><time>2026-04-28T11:32:51.999Z</time></trkpt><trkpt lat="34.02312818796045" lon="-6.6038224018292055"><ele>168.0</ele><time>2026-04-28T11:32:52.999Z</time></trkpt><trkpt lat="34.02317211281036" lon="-6.60417408571128"><ele>166.5</ele><time>2026-04-28T11:32:53.999Z</time></trkpt><trkpt lat="34.02321706451495" lon="-6.604523967673433"><ele>165.0</ele><time>2026-04-28T11:32:54.999Z</time></trkpt><trkpt lat="34.02326125809879" lon="-6.604871794236085"><ele>165.0</ele><time>2026-04-28T11:32:55.999Z</time></trkpt><trkpt lat="34.02330591485272" lon="-6.6052210637268605"><ele>165.0</ele><time>2026-04-28T11:32:56.999Z</time></trkpt><trkpt lat="34.02335468152065" lon="-6.60557053828483"><ele>164.5</ele><time>2026-04-28T11:32:57.999Z</time></trkpt><trkpt lat="34.02339848493762" lon="-6.60592033097694"><ele>164.0</ele><time>2026-04-28T11:32:58.999Z</time></trkpt><trkpt lat="34.02344066185625" lon="-6.606269011868839"><ele>163.5</ele><time>2026-04-28T11:32:59.999Z</time></trkpt><trkpt lat="34.023481398865684" lon="-6.60661878169991"><ele>163.0</ele><time>2026-04-28T11:33:00.999Z</time></trkpt><trkpt lat="34.02352773367514" lon="-6.606968252066007"><ele>163.5</ele><time>2026-04-28T11:33:01.999Z</time></trkpt><trkpt lat="34.02356839582364" lon="-6.607318294836581"><ele>164.0</ele><time>2026-04-28T11:33:02.999Z</time></trkpt><trkpt lat="34.02361041729427" lon="-6.60766722725533"><ele>163.5</ele><time>2026-04-28T11:33:04Z</time></trkpt><trkpt lat="34.02365548092418" lon="-6.608013182751757"><ele>163.0</ele><time>2026-04-28T11:33:05Z</time></trkpt><trkpt lat="34.023699081562036" lon="-6.608361769100774"><ele>161.5</ele><time>2026-04-28T11:33:06Z</time></trkpt><trkpt lat="34.02374213410199" lon="-6.608711142189859"><ele>160.0</ele><time>2026-04-28T11:33:07Z</time></trkpt><trkpt lat="34.02378319377759" lon="-6.609061201377554"><ele>160.0</ele><time>2026-04-28T11:33:08Z</time></trkpt><trkpt lat="34.02382800799749" lon="-6.609412089370786"><ele>160.0</ele><time>2026-04-28T11:33:09Z</time></trkpt><trkpt lat="34.023875160022556" lon="-6.609761159049169"><ele>160.5</ele><time>2026-04-28T11:33:10Z</time></trkpt><trkpt lat="34.02392452908972" lon="-6.610108163063464"><ele>161.0</ele><time>2026-04-28T11:33:11Z</time></trkpt><trkpt lat="34.02396871472948" lon="-6.610459217356277"><ele>161.0</ele><time>2026-04-28T11:33:12Z</time></trkpt><trkpt lat="34.02401317858935" lon="-6.610810623713165"><ele>161.0</ele><time>2026-04-28T11:33:13Z</time></trkpt><trkpt lat="34.02405677304495" lon="-6.611162441231932"><ele>162.0</ele><time>2026-04-28T11:33:14Z</time></trkpt><trkpt lat="34.024100433899875" lon="-6.61151514454651"><ele>163.0</ele><time>2026-04-28T11:33:15Z</time></trkpt><trkpt lat="34.02414111097402" lon="-6.611867082551412"><ele>162.0</ele><time>2026-04-28T11:33:16Z</time></trkpt><trkpt lat="34.02418845971348" lon="-6.612219126908143"><ele>161.0</ele><time>2026-04-28T11:33:17Z</time></trkpt><trkpt lat="34.0242397228929" lon="-6.612570639058832"><ele>160.0</ele><time>2026-04-28T11:33:18Z</time></trkpt><trkpt lat="34.02428901494885" lon="-6.612925454295009"><ele>159.0</ele><time>2026-04-28T11:33:19Z</time></trkpt><trkpt lat="34.02433760824903" lon="-6.613280124618197"><ele>159.0</ele><time>2026-04-28T11:33:20Z</time></trkpt><trkpt lat="34.024383835334405" lon="-6.613636920332851"><ele>159.0</ele><time>2026-04-28T11:33:21Z</time></trkpt><trkpt lat="34.02443182327798" lon="-6.613994711488984"><ele>158.5</ele><time>2026-04-28T11:33:22Z</time></trkpt><trkpt lat="34.02447739434939" lon="-6.614353733460963"><ele>158.0</ele><time>2026-04-28T11:33:23Z</time></trkpt><trkpt lat="34.02452234538113" lon="-6.614713675566081"><ele>158.0</ele><time>2026-04-28T11:33:24Z</time></trkpt><trkpt lat="34.02456975191201" lon="-6.615074169233494"><ele>158.0</ele><time>2026-04-28T11:33:25Z</time></trkpt><trkpt lat="34.02461258145723" lon="-6.615434906643084"><ele>159.0</ele><time>2026-04-28T11:33:26Z</time></trkpt><trkpt lat="34.02465407843632" lon="-6.615794551079652"><ele>160.0</ele><time>2026-04-28T11:33:27Z</time></trkpt><trkpt lat="34.02470213198586" lon="-6.616149376704272"><ele>159.0</ele><time>2026-04-28T11:33:28Z</time></trkpt><trkpt lat="34.02474689424158" lon="-6.616505525522351"><ele>158.0</ele><time>2026-04-28T11:33:29Z</time></trkpt><trkpt lat="34.02479194747881" lon="-6.616859981474361"><ele>157.0</ele><time>2026-04-28T11:33:30Z</time></trkpt><trkpt lat="34.02483590137276" lon="-6.617216274469469"><ele>156.0</ele><time>2026-04-28T11:33:31Z</time></trkpt><trkpt lat="34.02488184272918" lon="-6.617572734418631"><ele>156.5</ele><time>2026-04-28T11:33:32Z</time></trkpt><trkpt lat="34.02492556416767" lon="-6.617929422959324"><ele>157.0</ele><time>2026-04-28T11:33:33Z</time></trkpt><trkpt lat="34.02497135826161" lon="-6.618283321887633"><ele>156.5</ele><time>2026-04-28T11:33:34Z</time></trkpt><trkpt lat="34.02501367447328" lon="-6.61863664249749"><ele>156.0</ele><time>2026-04-28T11:33:35Z</time></trkpt><trkpt lat="34.02505822935323" lon="-6.618989750625001"><ele>155.5</ele><time>2026-04-28T11:33:36Z</time></trkpt><trkpt lat="34.025101088694775" lon="-6.619342772470247"><ele>155.0</ele><time>2026-04-28T11:33:37Z</time></trkpt><trkpt lat="34.025141479042865" lon="-6.6196956078301215"><ele>154.0</ele><time>2026-04-28T11:33:38Z</time></trkpt><trkpt lat="34.025183263269525" lon="-6.620045614324963"><ele>153.0</ele><time>2026-04-28T11:33:39Z</time></trkpt><trkpt lat="34.02522392424297" lon="-6.62039690055219"><ele>152.0</ele><time>2026-04-28T11:33:40Z</time></trkpt><trkpt lat="34.02526822920879" lon="-6.620747964430673"><ele>151.0</ele><time>2026-04-28T11:33:41Z</time></trkpt><trkpt lat="34.02530715968969" lon="-6.621090751973083"><ele>148.5</ele><time>2026-04-28T11:33:42Z</time></trkpt><trkpt lat="34.02534872947931" lon="-6.621426415794694"><ele>146.0</ele><time>2026-04-28T11:33:43Z</time></trkpt><trkpt lat="34.0253894150028" lon="-6.621752948919773"><ele>146.0</ele><time>2026-04-28T11:33:44Z</time></trkpt><trkpt lat="34.025428808668686" lon="-6.622071792954616"><ele>146.0</ele><time>2026-04-28T11:33:45Z</time></trkpt><trkpt lat="34.025470065473115" lon="-6.622386814218584"><ele>146.0</ele><time>2026-04-28T11:33:46Z</time></trkpt><trkpt lat="34.02551331351053" lon="-6.622702569790763"><ele>146.0</ele><time>2026-04-28T11:33:47Z</time></trkpt><trkpt lat="34.02556186003221" lon="-6.623015849034677"><ele>146.5</ele><time>2026-04-28T11:33:48Z</time></trkpt><trkpt lat="34.02561186398768" lon="-6.623332133482584"><ele>147.0</ele><time>2026-04-28T11:33:49Z</time></trkpt><trkpt lat="34.02566345239488" lon="-6.623655869134133"><ele>149.0</ele><time>2026-04-28T11:33:50Z</time></trkpt><trkpt lat="34.02570029180747" lon="-6.6239884959468425"><ele>151.0</ele><time>2026-04-28T11:33:51Z</time></trkpt><trkpt lat="34.025731691161376" lon="-6.624329797185278"><ele>151.5</ele><time>2026-04-28T11:33:52Z</time></trkpt><trkpt lat="34.02576593585032" lon="-6.624670025620145"><ele>152.0</ele><time>2026-04-28T11:33:53Z</time></trkpt><trkpt lat="34.02580549901047" lon="-6.625010814345462"><ele>149.0</ele><time>2026-04-28T11:33:54Z</time></trkpt><trkpt lat="34.02584903587828" lon="-6.625353237258285"><ele>146.0</ele><time>2026-04-28T11:33:55Z</time></trkpt><trkpt lat="34.025892734733056" lon="-6.625698745658615"><ele>146.0</ele><time>2026-04-28T11:33:56Z</time></trkpt><trkpt lat="34.025933944843814" lon="-6.62604198416769"><ele>146.0</ele><time>2026-04-28T11:33:57Z</time></trkpt><trkpt lat="34.025977472545705" lon="-6.626383869584716"><ele>146.5</ele><time>2026-04-28T11:33:58Z</time></trkpt><trkpt lat="34.02602014878153" lon="-6.626727880734503"><ele>147.0</ele><time>2026-04-28T11:33:59Z</time></trkpt><trkpt lat="34.02606265192444" lon="-6.6270737567161415"><ele>148.0</ele><time>2026-04-28T11:34:00Z</time></trkpt><trkpt lat="34.02610586645482" lon="-6.627421783999428"><ele>149.0</ele><time>2026-04-28T11:34:01Z</time></trkpt><trkpt lat="34.026149791756666" lon="-6.627772194811664"><ele>148.5</ele><time>2026-04-28T11:34:02Z</time></trkpt><trkpt lat="34.02619345215285" lon="-6.628122092827711"><ele>148.0</ele><time>2026-04-28T11:34:03Z</time></trkpt><trkpt lat="34.02623892428292" lon="-6.6284708648113595"><ele>147.0</ele><time>2026-04-28T11:34:04Z</time></trkpt><trkpt lat="34.02628470033958" lon="-6.628815909880219"><ele>146.0</ele><time>2026-04-28T11:34:05Z</time></trkpt><trkpt lat="34.02632872001871" lon="-6.629156926579864"><ele>145.0</ele><time>2026-04-28T11:34:06Z</time></trkpt><trkpt lat="34.026369569072905" lon="-6.629493488016352"><ele>144.0</ele><time>2026-04-28T11:34:07Z</time></trkpt><trkpt lat="34.026413005382636" lon="-6.629830597511135"><ele>144.0</ele><time>2026-04-28T11:34:08Z</time></trkpt><trkpt lat="34.02645782698143" lon="-6.6301687924111885"><ele>144.0</ele><time>2026-04-28T11:34:09Z</time></trkpt><trkpt lat="34.026505193481874" lon="-6.63050561156449"><ele>144.0</ele><time>2026-04-28T11:34:10Z</time></trkpt><trkpt lat="34.026553785663666" lon="-6.630846592589228"><ele>144.0</ele><time>2026-04-28T11:34:11Z</time></trkpt><trkpt lat="34.02660195187467" lon="-6.631193444961211"><ele>143.5</ele><time>2026-04-28T11:34:12Z</time></trkpt><trkpt lat="34.026648880006945" lon="-6.631542473649154"><ele>143.0</ele><time>2026-04-28T11:34:13Z</time></trkpt><trkpt lat="34.02669559692291" lon="-6.631891509839422"><ele>144.0</ele><time>2026-04-28T11:34:14Z</time></trkpt><trkpt lat="34.02674102026044" lon="-6.632238883395162"><ele>145.0</ele><time>2026-04-28T11:34:15Z</time></trkpt><trkpt lat="34.02678528732539" lon="-6.632588916760611"><ele>145.0</ele><time>2026-04-28T11:34:16Z</time></trkpt><trkpt lat="34.02682988082657" lon="-6.632937848709327"><ele>145.0</ele><time>2026-04-28T11:34:17Z</time></trkpt><trkpt lat="34.026875898480355" lon="-6.633284549810517"><ele>145.0</ele><time>2026-04-28T11:34:18Z</time></trkpt><trkpt lat="34.02692158758957" lon="-6.633632220257444"><ele>145.0</ele><time>2026-04-28T11:34:19Z</time></trkpt><trkpt lat="34.02696493930825" lon="-6.6339778006012855"><ele>145.5</ele><time>2026-04-28T11:34:20Z</time></trkpt><trkpt lat="34.02700903045942" lon="-6.634324906514348"><ele>146.0</ele><time>2026-04-28T11:34:21Z</time></trkpt><trkpt lat="34.027053784262534" lon="-6.6346742071722025"><ele>146.0</ele><time>2026-04-28T11:34:22Z</time></trkpt><trkpt lat="34.0271000320675" lon="-6.635024873707838"><ele>146.0</ele><time>2026-04-28T11:34:23Z</time></trkpt><trkpt lat="34.0271451452151" lon="-6.635374193613488"><ele>146.0</ele><time>2026-04-28T11:34:24Z</time></trkpt><trkpt lat="34.0271893662425" lon="-6.635723142657435"><ele>146.0</ele><time>2026-04-28T11:34:25Z</time></trkpt><trkpt lat="34.02723239713028" lon="-6.636071896280109"><ele>145.5</ele><time>2026-04-28T11:34:26Z</time></trkpt><trkpt lat="34.02727446067245" lon="-6.636421788281106"><ele>145.0</ele><time>2026-04-28T11:34:27Z</time></trkpt><trkpt lat="34.027314690659125" lon="-6.636771889680318"><ele>145.0</ele><time>2026-04-28T11:34:28Z</time></trkpt><trkpt lat="34.027353734392634" lon="-6.637121276713055"><ele>145.0</ele><time>2026-04-28T11:34:29Z</time></trkpt><trkpt lat="34.02739465228092" lon="-6.637469172029875"><ele>144.5</ele><time>2026-04-28T11:34:30Z</time></trkpt><trkpt lat="34.02743467403404" lon="-6.63781608514619"><ele>144.0</ele><time>2026-04-28T11:34:31Z</time></trkpt><trkpt lat="34.0274761867009" lon="-6.638160180919999"><ele>144.0</ele><time>2026-04-28T11:34:32Z</time></trkpt><trkpt lat="34.02752278717436" lon="-6.638496358076626"><ele>144.0</ele><time>2026-04-28T11:34:33Z</time></trkpt><trkpt lat="34.027563898346806" lon="-6.638827706393856"><ele>144.0</ele><time>2026-04-28T11:34:34Z</time></trkpt><trkpt lat="34.02760451704236" lon="-6.639153358713819"><ele>144.0</ele><time>2026-04-28T11:34:35Z</time></trkpt><trkpt lat="34.02764580014344" lon="-6.639477300095126"><ele>143.0</ele><time>2026-04-28T11:34:36Z</time></trkpt><trkpt lat="34.02768457825937" lon="-6.639792239638822"><ele>142.0</ele><time>2026-04-28T11:34:37Z</time></trkpt><trkpt lat="34.02772394833006" lon="-6.640103691860184"><ele>140.0</ele><time>2026-04-28T11:34:38Z</time></trkpt><trkpt lat="34.02776269761363" lon="-6.6404093281200325"><ele>138.0</ele><time>2026-04-28T11:34:39Z</time></trkpt><trkpt lat="34.02780298585161" lon="-6.640707780738649"><ele>138.0</ele><time>2026-04-28T11:34:40Z</time></trkpt><trkpt lat="34.027840047868324" lon="-6.640989460177827"><ele>138.0</ele><time>2026-04-28T11:34:41Z</time></trkpt><trkpt lat="34.027874726312774" lon="-6.64125203114001"><ele>138.33333333333334</ele><time>2026-04-28T11:34:42Z</time></trkpt><trkpt lat="34.02790984891672" lon="-6.641500833954139"><ele>138.66666666666669</ele><time>2026-04-28T11:34:43Z</time></trkpt><trkpt lat="34.02794068530475" lon="-6.641745617805955"><ele>139.0</ele><time>2026-04-28T11:34:44Z</time></trkpt><trkpt lat="34.02797225045557" lon="-6.641990970890356"><ele>139.33333333333334</ele><time>2026-04-28T11:34:45Z</time></trkpt><trkpt lat="34.028002348224945" lon="-6.642229492859485"><ele>139.66666666666666</ele><time>2026-04-28T11:34:46Z</time></trkpt><trkpt lat="34.0280307019132" lon="-6.642455024082958"><ele>140.0</ele><time>2026-04-28T11:34:47Z</time></trkpt><trkpt lat="34.028057349401585" lon="-6.642669069461878"><ele>139.0</ele><time>2026-04-28T11:34:48Z</time></trkpt><trkpt lat="34.02808248827666" lon="-6.642874349992456"><ele>138.0</ele><time>2026-04-28T11:34:49Z</time></trkpt><trkpt lat="34.02810651288864" lon="-6.6430737473784705"><ele>137.0</ele><time>2026-04-28T11:34:50Z</time></trkpt><trkpt lat="34.0281310592188" lon="-6.643264341721903"><ele>137.0</ele><time>2026-04-28T11:34:51Z</time></trkpt><trkpt lat="34.02815372335316" lon="-6.643444475321471"><ele>137.0</ele><time>2026-04-28T11:34:52Z</time></trkpt><trkpt lat="34.0281756450058" lon="-6.643615999538476"><ele>137.0</ele><time>2026-04-28T11:34:53Z</time></trkpt><trkpt lat="34.02819665498442" lon="-6.643784890271951"><ele>137.0</ele><time>2026-04-28T11:34:54Z</time></trkpt><trkpt lat="34.028219057431244" lon="-6.6439555683907185"><ele>135.75</ele><time>2026-04-28T11:34:55Z</time></trkpt><trkpt lat="34.02823974745832" lon="-6.644130277504372"><ele>134.5</ele><time>2026-04-28T11:34:56Z</time></trkpt><trkpt lat="34.028261805060254" lon="-6.644302390773147"><ele>133.25</ele><time>2026-04-28T11:34:57Z</time></trkpt><trkpt lat="34.02828313131362" lon="-6.644471871942765"><ele>132.0</ele><time>2026-04-28T11:34:58Z</time></trkpt><trkpt lat="34.028303696362975" lon="-6.644641889397244"><ele>132.25</ele><time>2026-04-28T11:34:59Z</time></trkpt><trkpt lat="34.02832451501167" lon="-6.6448102712015995"><ele>132.5</ele><time>2026-04-28T11:35:00Z</time></trkpt><trkpt lat="34.028346160191845" lon="-6.644976187382086"><ele>132.75</ele><time>2026-04-28T11:35:01Z</time></trkpt><trkpt lat="34.02836305593032" lon="-6.645131420107066"><ele>133.0</ele><time>2026-04-28T11:35:02Z</time></trkpt><trkpt lat="34.02838257723508" lon="-6.6452799238748135"><ele>133.25</ele><time>2026-04-28T11:35:02.999Z</time></trkpt><trkpt lat="34.028401846327604" lon="-6.645422281583628"><ele>133.5</ele><time>2026-04-28T11:35:03.999Z</time></trkpt><trkpt lat="34.0284191090747" lon="-6.645561430302494"><ele>133.75</ele><time>2026-04-28T11:35:04.999Z</time></trkpt><trkpt lat="34.02843836017967" lon="-6.645705637363528"><ele>134.0</ele><time>2026-04-28T11:35:05.999Z</time></trkpt><trkpt lat="34.02845808711462" lon="-6.6458553069186745"><ele>134.0</ele><time>2026-04-28T11:35:06.999Z</time></trkpt><trkpt lat="34.02847578506696" lon="-6.646009192149631"><ele>134.0</ele><time>2026-04-28T11:35:07.999Z</time></trkpt><trkpt lat="34.02849530714248" lon="-6.646160810507617"><ele>134.0</ele><time>2026-04-28T11:35:09Z</time></trkpt><trkpt lat="34.02851469775383" lon="-6.646309290253601"><ele>134.0</ele><time>2026-04-28T11:35:10Z</time></trkpt><trkpt lat="34.028534306049075" lon="-6.64645343792669"><ele>134.0</ele><time>2026-04-28T11:35:11Z</time></trkpt><trkpt lat="34.028554321498845" lon="-6.6465916563877"><ele>134.0</ele><time>2026-04-28T11:35:12Z</time></trkpt><trkpt lat="34.02857511617907" lon="-6.646722888766893"><ele>134.0</ele><time>2026-04-28T11:35:13Z</time></trkpt><trkpt lat="34.02859358577602" lon="-6.646846717581955"><ele>134.0</ele><time>2026-04-28T11:35:14Z</time></trkpt><trkpt lat="34.02861020391403" lon="-6.646969148199259"><ele>134.0</ele><time>2026-04-28T11:35:15Z</time></trkpt><trkpt lat="34.028626313144535" lon="-6.647088912538663"><ele>134.0</ele><time>2026-04-28T11:35:16Z</time></trkpt><trkpt lat="34.02864361626443" lon="-6.64720631328944"><ele>134.0</ele><time>2026-04-28T11:35:17Z</time></trkpt><trkpt lat="34.02866154293688" lon="-6.647322130543607"><ele>134.0</ele><time>2026-04-28T11:35:18Z</time></trkpt><trkpt lat="34.02867659546027" lon="-6.647438254928295"><ele>134.0</ele><time>2026-04-28T11:35:19Z</time></trkpt><trkpt lat="34.028691301920446" lon="-6.6475540798246096"><ele>134.0</ele><time>2026-04-28T11:35:20Z</time></trkpt><trkpt lat="34.02870660091955" lon="-6.647664908232081"><ele>134.0</ele><time>2026-04-28T11:35:21Z</time></trkpt><trkpt lat="34.0287223605903" lon="-6.647772602041657"><ele>134.0</ele><time>2026-04-28T11:35:22Z</time></trkpt><trkpt lat="34.02873591313602" lon="-6.647877954011584"><ele>134.0</ele><time>2026-04-28T11:35:23Z</time></trkpt><trkpt lat="34.02874614259936" lon="-6.647980713043838"><ele>134.0</ele><time>2026-04-28T11:35:24Z</time></trkpt><trkpt lat="34.028756365944545" lon="-6.648074827914193"><ele>134.0</ele><time>2026-04-28T11:35:25Z</time></trkpt><trkpt lat="34.02876818515791" lon="-6.648167059266619"><ele>134.0</ele><time>2026-04-28T11:35:26Z</time></trkpt><trkpt lat="34.02878079427072" lon="-6.648260557569395"><ele>133.33333333333331</ele><time>2026-04-28T11:35:27Z</time></trkpt><trkpt lat="34.02879242457529" lon="-6.648351289970435"><ele>132.66666666666666</ele><time>2026-04-28T11:35:28Z</time></trkpt><trkpt lat="34.028802357120455" lon="-6.648437922391769"><ele>132.0</ele><time>2026-04-28T11:35:29Z</time></trkpt><trkpt lat="34.028811935984265" lon="-6.648518609525837"><ele>131.33333333333334</ele><time>2026-04-28T11:35:30Z</time></trkpt><trkpt lat="34.02882886110837" lon="-6.648642604755438"><ele>130.66666666666669</ele><time>2026-04-28T11:35:32Z</time></trkpt><trkpt lat="34.028841366979165" lon="-6.648763251203744"><ele>130.0</ele><time>2026-04-28T11:35:34Z</time></trkpt><trkpt lat="34.02885597725511" lon="-6.6488850342860415"><ele>130.16666666666669</ele><time>2026-04-28T11:35:36Z</time></trkpt><trkpt lat="34.028869910030586" lon="-6.648996140435769"><ele>130.33333333333334</ele><time>2026-04-28T11:35:38Z</time></trkpt><trkpt lat="34.02887989806871" lon="-6.649112563334549"><ele>130.5</ele><time>2026-04-28T11:35:40Z</time></trkpt><trkpt lat="34.02888567308521" lon="-6.649188754446648"><ele>130.66666666666666</ele><time>2026-04-28T11:35:41Z</time></trkpt><trkpt lat="34.02889905159103" lon="-6.649283146603843"><ele>130.83333333333331</ele><time>2026-04-28T11:35:42Z</time></trkpt><trkpt lat="34.02891113880311" lon="-6.649391553716634"><ele>131.0</ele><time>2026-04-28T11:35:43Z</time></trkpt><trkpt lat="34.028925430189815" lon="-6.6495131147094115"><ele>131.0</ele><time>2026-04-28T11:35:44Z</time></trkpt><trkpt lat="34.028942398388" lon="-6.649645655768247"><ele>131.0</ele><time>2026-04-28T11:35:45Z</time></trkpt><trkpt lat="34.028960774364364" lon="-6.649785768622053"><ele>131.0</ele><time>2026-04-28T11:35:46Z</time></trkpt><trkpt lat="34.02898358078292" lon="-6.649932808068673"><ele>131.0</ele><time>2026-04-28T11:35:47Z</time></trkpt><trkpt lat="34.02900693518954" lon="-6.650084918065038"><ele>131.0</ele><time>2026-04-28T11:35:48Z</time></trkpt><trkpt lat="34.02902262994415" lon="-6.650233876463033"><ele>131.0</ele><time>2026-04-28T11:35:49Z</time></trkpt><trkpt lat="34.02903857096346" lon="-6.650385516494498"><ele>131.0</ele><time>2026-04-28T11:35:50Z</time></trkpt><trkpt lat="34.02905891954501" lon="-6.650543281178869"><ele>131.0</ele><time>2026-04-28T11:35:51Z</time></trkpt><trkpt lat="34.02908430876206" lon="-6.650707277981685"><ele>130.66666666666666</ele><time>2026-04-28T11:35:52Z</time></trkpt><trkpt lat="34.02910638159566" lon="-6.650880263954282"><ele>130.33333333333334</ele><time>2026-04-28T11:35:53Z</time></trkpt><trkpt lat="34.029127593393206" lon="-6.651061099238461"><ele>130.0</ele><time>2026-04-28T11:35:54Z</time></trkpt><trkpt lat="34.02915247104428" lon="-6.651247558194028"><ele>131.0</ele><time>2026-04-28T11:35:55Z</time></trkpt><trkpt lat="34.02917814896851" lon="-6.651439559735842"><ele>132.0</ele><time>2026-04-28T11:35:56Z</time></trkpt><trkpt lat="34.029203849636026" lon="-6.65163780987508"><ele>133.0</ele><time>2026-04-28T11:35:57Z</time></trkpt><trkpt lat="34.02923230976273" lon="-6.65184487266987"><ele>131.66666666666669</ele><time>2026-04-28T11:35:58Z</time></trkpt><trkpt lat="34.02926391710151" lon="-6.652057868654338"><ele>130.33333333333334</ele><time>2026-04-28T11:35:59Z</time></trkpt><trkpt lat="34.029295134346356" lon="-6.652272671712329"><ele>129.0</ele><time>2026-04-28T11:36:00Z</time></trkpt><trkpt lat="34.029323853187236" lon="-6.652490330348341"><ele>129.0</ele><time>2026-04-28T11:36:01Z</time></trkpt><trkpt lat="34.02934993494294" lon="-6.65271794973931"><ele>129.0</ele><time>2026-04-28T11:36:02Z</time></trkpt><trkpt lat="34.02937703370729" lon="-6.65295158615687"><ele>129.0</ele><time>2026-04-28T11:36:03Z</time></trkpt><trkpt lat="34.029407967890315" lon="-6.653190173265502"><ele>129.33333333333334</ele><time>2026-04-28T11:36:04Z</time></trkpt><trkpt lat="34.02943955400559" lon="-6.653433274538609"><ele>129.66666666666669</ele><time>2026-04-28T11:36:05Z</time></trkpt><trkpt lat="34.029474135950906" lon="-6.6536822915423715"><ele>130.0</ele><time>2026-04-28T11:36:06Z</time></trkpt><trkpt lat="34.029508818701416" lon="-6.653936099607361"><ele>130.66666666666669</ele><time>2026-04-28T11:36:07Z</time></trkpt><trkpt lat="34.02954175309352" lon="-6.65419324079438"><ele>131.33333333333334</ele><time>2026-04-28T11:36:08Z</time></trkpt><trkpt lat="34.02957460662756" lon="-6.654448514510148"><ele>132.0</ele><time>2026-04-28T11:36:09Z</time></trkpt><trkpt lat="34.029605882841736" lon="-6.6547033040924335"><ele>132.0</ele><time>2026-04-28T11:36:10Z</time></trkpt><trkpt lat="34.029638498037166" lon="-6.65496249579362"><ele>132.0</ele><time>2026-04-28T11:36:11Z</time></trkpt><trkpt lat="34.02967043676905" lon="-6.6552242766355825"><ele>132.0</ele><time>2026-04-28T11:36:12Z</time></trkpt><trkpt lat="34.029710598870814" lon="-6.655489477093306"><ele>131.5</ele><time>2026-04-28T11:36:13Z</time></trkpt><trkpt lat="34.029749809307525" lon="-6.655759600048589"><ele>131.0</ele><time>2026-04-28T11:36:14Z</time></trkpt><trkpt lat="34.02978826026189" lon="-6.656031884425185"><ele>131.0</ele><time>2026-04-28T11:36:15Z</time></trkpt><trkpt lat="34.02982413828492" lon="-6.656306917035388"><ele>131.0</ele><time>2026-04-28T11:36:16Z</time></trkpt><trkpt lat="34.02985814157732" lon="-6.656586538012067"><ele>131.0</ele><time>2026-04-28T11:36:17Z</time></trkpt><trkpt lat="34.02989657179443" lon="-6.656868811704579"><ele>131.0</ele><time>2026-04-28T11:36:18Z</time></trkpt><trkpt lat="34.02993579803362" lon="-6.657146027252998"><ele>136.5</ele><time>2026-04-28T11:36:19Z</time></trkpt><trkpt lat="34.029975523706554" lon="-6.657417698909236"><ele>142.0</ele><time>2026-04-28T11:36:20Z</time></trkpt><trkpt lat="34.03001233774608" lon="-6.6576863816040115"><ele>142.33333333333334</ele><time>2026-04-28T11:36:21Z</time></trkpt><trkpt lat="34.03004724144626" lon="-6.657953850967139"><ele>142.66666666666666</ele><time>2026-04-28T11:36:22Z</time></trkpt><trkpt lat="34.03008502148556" lon="-6.658215137019663"><ele>143.0</ele><time>2026-04-28T11:36:23Z</time></trkpt><trkpt lat="34.03012093012335" lon="-6.65846944972291"><ele>142.66666666666666</ele><time>2026-04-28T11:36:24Z</time></trkpt><trkpt lat="34.03015388853036" lon="-6.658723042233249"><ele>142.33333333333334</ele><time>2026-04-28T11:36:25Z</time></trkpt><trkpt lat="34.03018621344749" lon="-6.658971121943888"><ele>142.0</ele><time>2026-04-28T11:36:26Z</time></trkpt><trkpt lat="34.03021915740955" lon="-6.659213018813574"><ele>142.0</ele><time>2026-04-28T11:36:27Z</time></trkpt><trkpt lat="34.03025313675192" lon="-6.659449075840734"><ele>142.0</ele><time>2026-04-28T11:36:28Z</time></trkpt><trkpt lat="34.030287619737734" lon="-6.6596808346165695"><ele>142.0</ele><time>2026-04-28T11:36:29Z</time></trkpt><trkpt lat="34.03032404047334" lon="-6.65990570056321"><ele>142.0</ele><time>2026-04-28T11:36:30Z</time></trkpt><trkpt lat="34.03036414702218" lon="-6.660123834498996"><ele>142.0</ele><time>2026-04-28T11:36:31Z</time></trkpt><trkpt lat="34.03037867944735" lon="-6.660335115224668"><ele>142.0</ele><time>2026-04-28T11:36:32Z</time></trkpt><trkpt lat="34.03040441170127" lon="-6.660530738095808"><ele>142.75</ele><time>2026-04-28T11:36:33Z</time></trkpt><trkpt lat="34.03042840434752" lon="-6.660712354357144"><ele>143.5</ele><time>2026-04-28T11:36:34Z</time></trkpt><trkpt lat="34.030449545937344" lon="-6.66087600284398"><ele>144.25</ele><time>2026-04-28T11:36:35Z</time></trkpt><trkpt lat="34.03046695281211" lon="-6.661012928454252"><ele>145.0</ele><time>2026-04-28T11:36:36Z</time></trkpt><trkpt lat="34.03048195131565" lon="-6.66113033859241"><ele>145.0</ele><time>2026-04-28T11:36:37Z</time></trkpt><trkpt lat="34.03050379883892" lon="-6.661298617513609"><ele>145.0</ele><time>2026-04-28T11:36:38Z</time></trkpt><trkpt lat="34.03051757960014" lon="-6.661403065431778"><ele>145.0</ele><time>2026-04-28T11:36:40Z</time></trkpt><trkpt lat="34.03053198479047" lon="-6.661511630219322"><ele>145.0</ele><time>2026-04-28T11:36:42Z</time></trkpt><trkpt lat="34.03059730546837" lon="-6.6615468776620155"><ele>145.0</ele><time>2026-04-28T11:36:47Z</time></trkpt><trkpt lat="34.030613898533616" lon="-6.661641735028053"><ele>145.0</ele><time>2026-04-28T11:36:55Z</time></trkpt><trkpt lat="34.030628566723195" lon="-6.66174295566263"><ele>145.0</ele><time>2026-04-28T11:36:57Z</time></trkpt><trkpt lat="34.030640519203004" lon="-6.661822315258577"><ele>145.0</ele><time>2026-04-28T11:36:59Z</time></trkpt><trkpt lat="34.030661309072606" lon="-6.661897303502894"><ele>145.0</ele><time>2026-04-28T11:37:02Z</time></trkpt><trkpt lat="34.03066489893063" lon="-6.662020589803087"><ele>145.0</ele><time>2026-04-28T11:38:33Z</time></trkpt><trkpt lat="34.03067419829001" lon="-6.662129654244982"><ele>145.0</ele><time>2026-04-28T11:38:35Z</time></trkpt><trkpt lat="34.03067821010259" lon="-6.662247093818747"><ele>145.0</ele><time>2026-04-28T11:38:37Z</time></trkpt><trkpt lat="34.03068865870558" lon="-6.66233646911214"><ele>145.0</ele><time>2026-04-28T11:38:38Z</time></trkpt><trkpt lat="34.03070540272797" lon="-6.662444456367617"><ele>145.0</ele><time>2026-04-28T11:38:39Z</time></trkpt><trkpt lat="34.030723403440746" lon="-6.6625616709298505"><ele>145.0</ele><time>2026-04-28T11:38:40Z</time></trkpt><trkpt lat="34.03074857152362" lon="-6.662687891682448"><ele>145.0</ele><time>2026-04-28T11:38:41Z</time></trkpt><trkpt lat="34.03078160025551" lon="-6.662830760354107"><ele>147.25</ele><time>2026-04-28T11:38:42Z</time></trkpt><trkpt lat="34.030825122047126" lon="-6.662985986342701"><ele>149.5</ele><time>2026-04-28T11:38:43Z</time></trkpt><trkpt lat="34.03088185440745" lon="-6.663140959062435"><ele>151.75</ele><time>2026-04-28T11:38:44Z</time></trkpt><trkpt lat="34.030959639313835" lon="-6.663297637417467"><ele>154.0</ele><time>2026-04-28T11:38:45Z</time></trkpt><trkpt lat="34.03106659473937" lon="-6.663421714159949"><ele>154.0</ele><time>2026-04-28T11:38:46Z</time></trkpt><trkpt lat="34.03118140323225" lon="-6.663546176758011"><ele>154.0</ele><time>2026-04-28T11:38:47Z</time></trkpt><trkpt lat="34.03132131987451" lon="-6.66365939835413"><ele>154.0</ele><time>2026-04-28T11:38:48Z</time></trkpt><trkpt lat="34.031468298581" lon="-6.663768292145126"><ele>153.33333333333334</ele><time>2026-04-28T11:38:49Z</time></trkpt><trkpt lat="34.03162411818924" lon="-6.663879808601483"><ele>152.66666666666666</ele><time>2026-04-28T11:38:50Z</time></trkpt><trkpt lat="34.03178243965478" lon="-6.663997244893834"><ele>152.0</ele><time>2026-04-28T11:38:51Z</time></trkpt><trkpt lat="34.031915959253155" lon="-6.664161092471436"><ele>154.0</ele><time>2026-04-28T11:38:52Z</time></trkpt><trkpt lat="34.03203004960279" lon="-6.664316883990293"><ele>156.0</ele><time>2026-04-28T11:38:53Z</time></trkpt><trkpt lat="34.03210000938598" lon="-6.6644931332234725"><ele>158.0</ele><time>2026-04-28T11:38:54Z</time></trkpt><trkpt lat="34.03213127375453" lon="-6.664676547621632"><ele>158.25</ele><time>2026-04-28T11:38:55Z</time></trkpt><trkpt lat="34.03210333902517" lon="-6.664852074947613"><ele>158.5</ele><time>2026-04-28T11:38:56Z</time></trkpt><trkpt lat="34.03204250790967" lon="-6.665017351603163"><ele>158.75</ele><time>2026-04-28T11:38:57Z</time></trkpt><trkpt lat="34.031953030426344" lon="-6.665155427430128"><ele>159.0</ele><time>2026-04-28T11:38:58Z</time></trkpt><trkpt lat="34.03183192877924" lon="-6.665278586339524"><ele>158.0</ele><time>2026-04-28T11:38:59Z</time></trkpt><trkpt lat="34.03168101071437" lon="-6.6653939084862985"><ele>157.0</ele><time>2026-04-28T11:39:00Z</time></trkpt><trkpt lat="34.03151399712531" lon="-6.66551439311113"><ele>156.0</ele><time>2026-04-28T11:39:01Z</time></trkpt><trkpt lat="34.03134121316124" lon="-6.665639023062839"><ele>154.66666666666666</ele><time>2026-04-28T11:39:02Z</time></trkpt><trkpt lat="34.03116799011918" lon="-6.665762574307313"><ele>153.33333333333331</ele><time>2026-04-28T11:39:03Z</time></trkpt><trkpt lat="34.030989519797274" lon="-6.665889163423479"><ele>152.0</ele><time>2026-04-28T11:39:04Z</time></trkpt><trkpt lat="34.03081149574275" lon="-6.666015297168591"><ele>151.0</ele><time>2026-04-28T11:39:05Z</time></trkpt><trkpt lat="34.030635959534536" lon="-6.666143740516501"><ele>150.0</ele><time>2026-04-28T11:39:06Z</time></trkpt><trkpt lat="34.03046465043821" lon="-6.666271436527923"><ele>149.0</ele><time>2026-04-28T11:39:07Z</time></trkpt><trkpt lat="34.03030251495444" lon="-6.666392159859257"><ele>149.0</ele><time>2026-04-28T11:39:08Z</time></trkpt><trkpt lat="34.03015163599371" lon="-6.666504687178314"><ele>149.0</ele><time>2026-04-28T11:39:09Z</time></trkpt><trkpt lat="34.03001463570857" lon="-6.666606568868897"><ele>149.0</ele><time>2026-04-28T11:39:10Z</time></trkpt><trkpt lat="34.02988781622715" lon="-6.66670115805257"><ele>149.4</ele><time>2026-04-28T11:39:11Z</time></trkpt><trkpt lat="34.02978635321618" lon="-6.66678045688768"><ele>149.8</ele><time>2026-04-28T11:39:12Z</time></trkpt><trkpt lat="34.0297149464691" lon="-6.666837283131175"><ele>150.2</ele><time>2026-04-28T11:39:13Z</time></trkpt><trkpt lat="34.029653914893764" lon="-6.666885905259647"><ele>150.6</ele><time>2026-04-28T11:39:14Z</time></trkpt><trkpt lat="34.02958596171455" lon="-6.66692273950166"><ele>151.0</ele><time>2026-04-28T11:39:17Z</time></trkpt><trkpt lat="34.02961510085379" lon="-6.666784519590342"><ele>151.0</ele><time>2026-04-28T11:39:20Z</time></trkpt><trkpt lat="34.02968554359645" lon="-6.6667175306506286"><ele>151.0</ele><time>2026-04-28T11:39:21Z</time></trkpt><trkpt lat="34.02976392432452" lon="-6.666652752065228"><ele>151.0</ele><time>2026-04-28T11:39:22Z</time></trkpt><trkpt lat="34.02985748869504" lon="-6.666575424905255"><ele>151.0</ele><time>2026-04-28T11:39:23Z</time></trkpt><trkpt lat="34.029955635925184" lon="-6.666493057209572"><ele>151.0</ele><time>2026-04-28T11:39:24Z</time></trkpt><trkpt lat="34.03005828116921" lon="-6.666384175873857"><ele>150.33333333333334</ele><time>2026-04-28T11:39:25Z</time></trkpt><trkpt lat="34.03017059062573" lon="-6.6662660861726435"><ele>149.66666666666666</ele><time>2026-04-28T11:39:26Z</time></trkpt><trkpt lat="34.03028454245238" lon="-6.666138279771314"><ele>149.0</ele><time>2026-04-28T11:39:27Z</time></trkpt><trkpt lat="34.030394659786545" lon="-6.665996926753703"><ele>150.33333333333331</ele><time>2026-04-28T11:39:28Z</time></trkpt><trkpt lat="34.03051410532723" lon="-6.665841454952127"><ele>151.66666666666666</ele><time>2026-04-28T11:39:29Z</time></trkpt><trkpt lat="34.030601994993276" lon="-6.665657687696293"><ele>153.0</ele><time>2026-04-28T11:39:30Z</time></trkpt><trkpt lat="34.03067599973685" lon="-6.665461633148498"><ele>153.0</ele><time>2026-04-28T11:39:31Z</time></trkpt><trkpt lat="34.03070322546003" lon="-6.665234950427527"><ele>153.0</ele><time>2026-04-28T11:39:32Z</time></trkpt><trkpt lat="34.03070841240095" lon="-6.665001281589135"><ele>153.0</ele><time>2026-04-28T11:39:33Z</time></trkpt><trkpt lat="34.03069537493079" lon="-6.664775560550863"><ele>153.0</ele><time>2026-04-28T11:39:34Z</time></trkpt><trkpt lat="34.03067555783352" lon="-6.6645604865317765"><ele>153.0</ele><time>2026-04-28T11:39:35Z</time></trkpt><trkpt lat="34.03065781149229" lon="-6.664350235906978"><ele>153.0</ele><time>2026-04-28T11:39:36Z</time></trkpt><trkpt lat="34.03064056242876" lon="-6.664135258044092"><ele>152.33333333333334</ele><time>2026-04-28T11:39:37Z</time></trkpt><trkpt lat="34.030623762966265" lon="-6.663923091430371"><ele>151.66666666666669</ele><time>2026-04-28T11:39:38Z</time></trkpt><trkpt lat="34.030604559462375" lon="-6.663718355760503"><ele>151.0</ele><time>2026-04-28T11:39:39Z</time></trkpt><trkpt lat="34.030582990855514" lon="-6.663509165073543"><ele>149.66666666666669</ele><time>2026-04-28T11:39:40Z</time></trkpt><trkpt lat="34.03055975708956" lon="-6.663288940662591"><ele>148.33333333333334</ele><time>2026-04-28T11:39:41Z</time></trkpt><trkpt lat="34.030535444794104" lon="-6.663061851605013"><ele>147.0</ele><time>2026-04-28T11:39:42Z</time></trkpt><trkpt lat="34.0305068708589" lon="-6.662829809935426"><ele>146.33333333333334</ele><time>2026-04-28T11:39:43Z</time></trkpt><trkpt lat="34.030475345960525" lon="-6.662592947152742"><ele>145.66666666666669</ele><time>2026-04-28T11:39:44Z</time></trkpt><trkpt lat="34.03046151149008" lon="-6.662344826554886"><ele>145.0</ele><time>2026-04-28T11:39:45Z</time></trkpt><trkpt lat="34.030414264218464" lon="-6.662096030646101"><ele>145.0</ele><time>2026-04-28T11:39:46Z</time></trkpt><trkpt lat="34.030382201133214" lon="-6.66184213775714"><ele>145.0</ele><time>2026-04-28T11:39:47Z</time></trkpt><trkpt lat="34.03034939178583" lon="-6.661590320671554"><ele>145.0</ele><time>2026-04-28T11:39:48Z</time></trkpt><trkpt lat="34.03031794639819" lon="-6.661339021885596"><ele>145.33333333333334</ele><time>2026-04-28T11:39:49Z</time></trkpt><trkpt lat="34.030287505865466" lon="-6.661086111040051"><ele>145.66666666666666</ele><time>2026-04-28T11:39:50Z</time></trkpt><trkpt lat="34.030256957951856" lon="-6.660832639264218"><ele>146.0</ele><time>2026-04-28T11:39:51Z</time></trkpt><trkpt lat="34.030223700785044" lon="-6.660576945937858"><ele>146.0</ele><time>2026-04-28T11:39:52Z</time></trkpt><trkpt lat="34.03018657497165" lon="-6.660316851714556"><ele>146.0</ele><time>2026-04-28T11:39:53Z</time></trkpt><trkpt lat="34.030164918804296" lon="-6.66004960492037"><ele>146.0</ele><time>2026-04-28T11:39:54Z</time></trkpt><trkpt lat="34.03013005112464" lon="-6.65978031534189"><ele>144.0</ele><time>2026-04-28T11:39:55Z</time></trkpt><trkpt lat="34.030094232951804" lon="-6.659502592375824"><ele>142.0</ele><time>2026-04-28T11:39:56Z</time></trkpt><trkpt lat="34.03005825948098" lon="-6.659220919405245"><ele>142.0</ele><time>2026-04-28T11:39:57Z</time></trkpt><trkpt lat="34.0300213186937" lon="-6.658936309407502"><ele>142.0</ele><time>2026-04-28T11:39:58Z</time></trkpt><trkpt lat="34.02998492980668" lon="-6.658649291183527"><ele>139.0</ele><time>2026-04-28T11:39:59Z</time></trkpt><trkpt lat="34.029948845814054" lon="-6.65836632341642"><ele>136.0</ele><time>2026-04-28T11:40:00Z</time></trkpt><trkpt lat="34.029913082701555" lon="-6.6580873115640005"><ele>136.0</ele><time>2026-04-28T11:40:01Z</time></trkpt><trkpt lat="34.029879786443075" lon="-6.657814470543377"><ele>136.0</ele><time>2026-04-28T11:40:02Z</time></trkpt><trkpt lat="34.029849024516984" lon="-6.657550653178292"><ele>136.0</ele><time>2026-04-28T11:40:03Z</time></trkpt><trkpt lat="34.02981883774879" lon="-6.6572954115195495"><ele>135.0</ele><time>2026-04-28T11:40:04Z</time></trkpt><trkpt lat="34.029791564195484" lon="-6.657064556779938"><ele>134.0</ele><time>2026-04-28T11:40:05Z</time></trkpt><trkpt lat="34.02976516572795" lon="-6.656835942268586"><ele>133.0</ele><time>2026-04-28T11:40:06Z</time></trkpt><trkpt lat="34.029737095841725" lon="-6.6566000000232055"><ele>132.33333333333334</ele><time>2026-04-28T11:40:07Z</time></trkpt><trkpt lat="34.02970428620354" lon="-6.656349918112835"><ele>131.66666666666666</ele><time>2026-04-28T11:40:08Z</time></trkpt><trkpt lat="34.02967089640558" lon="-6.656109723022208"><ele>131.0</ele><time>2026-04-28T11:40:09Z</time></trkpt><trkpt lat="34.02964082371614" lon="-6.655890126609154"><ele>131.0</ele><time>2026-04-28T11:40:10Z</time></trkpt><trkpt lat="34.02959665022846" lon="-6.655679182888269"><ele>131.0</ele><time>2026-04-28T11:40:11Z</time></trkpt><trkpt lat="34.02957413195931" lon="-6.655469952234497"><ele>131.0</ele><time>2026-04-28T11:40:12Z</time></trkpt><trkpt lat="34.029550110420104" lon="-6.655262914210837"><ele>131.33333333333331</ele><time>2026-04-28T11:40:13Z</time></trkpt><trkpt lat="34.02952557979872" lon="-6.655056932560837"><ele>131.66666666666666</ele><time>2026-04-28T11:40:14Z</time></trkpt><trkpt lat="34.02950149740283" lon="-6.654854601011637"><ele>132.0</ele><time>2026-04-28T11:40:15Z</time></trkpt><trkpt lat="34.02947848384037" lon="-6.65465956424014"><ele>132.0</ele><time>2026-04-28T11:40:16Z</time></trkpt><trkpt lat="34.029455394774615" lon="-6.654475368014708"><ele>132.0</ele><time>2026-04-28T11:40:17Z</time></trkpt><trkpt lat="34.02943269149347" lon="-6.654293289835262"><ele>132.0</ele><time>2026-04-28T11:40:18Z</time></trkpt><trkpt lat="34.029410750833094" lon="-6.654114238923578"><ele>132.0</ele><time>2026-04-28T11:40:19Z</time></trkpt><trkpt lat="34.0293881957481" lon="-6.65393779846613"><ele>132.0</ele><time>2026-04-28T11:40:20Z</time></trkpt><trkpt lat="34.029366547726795" lon="-6.653764381544914"><ele>132.0</ele><time>2026-04-28T11:40:21Z</time></trkpt><trkpt lat="34.02934509739513" lon="-6.653591585720812"><ele>132.0</ele><time>2026-04-28T11:40:22Z</time></trkpt><trkpt lat="34.02932459487294" lon="-6.653418862013097"><ele>131.5</ele><time>2026-04-28T11:40:23Z</time></trkpt><trkpt lat="34.029304490887434" lon="-6.653244908475578"><ele>131.0</ele><time>2026-04-28T11:40:24Z</time></trkpt><trkpt lat="34.02928163102207" lon="-6.653070596676519"><ele>130.5</ele><time>2026-04-28T11:40:25Z</time></trkpt><trkpt lat="34.02925911875105" lon="-6.652897866289681"><ele>130.0</ele><time>2026-04-28T11:40:26Z</time></trkpt><trkpt lat="34.029236765042086" lon="-6.652725955738604"><ele>129.75</ele><time>2026-04-28T11:40:27Z</time></trkpt><trkpt lat="34.02921438923909" lon="-6.652554490385347"><ele>129.5</ele><time>2026-04-28T11:40:28Z</time></trkpt><trkpt lat="34.02919235127228" lon="-6.652384218586574"><ele>129.25</ele><time>2026-04-28T11:40:29Z</time></trkpt><trkpt lat="34.02917157317342" lon="-6.652216321774444"><ele>129.0</ele><time>2026-04-28T11:40:30Z</time></trkpt><trkpt lat="34.02915082415702" lon="-6.652056003976684"><ele>129.0</ele><time>2026-04-28T11:40:31Z</time></trkpt><trkpt lat="34.02913055685227" lon="-6.651903153329836"><ele>129.0</ele><time>2026-04-28T11:40:32Z</time></trkpt><trkpt lat="34.02911121798867" lon="-6.651753206730281"><ele>129.0</ele><time>2026-04-28T11:40:33Z</time></trkpt><trkpt lat="34.029090593338424" lon="-6.6516038107249384"><ele>129.0</ele><time>2026-04-28T11:40:34Z</time></trkpt><trkpt lat="34.029069243299475" lon="-6.651453671600225"><ele>129.0</ele><time>2026-04-28T11:40:35Z</time></trkpt><trkpt lat="34.029050321008675" lon="-6.651308664300015"><ele>129.0</ele><time>2026-04-28T11:40:36Z</time></trkpt><trkpt lat="34.02903287960203" lon="-6.651168265178665"><ele>129.0</ele><time>2026-04-28T11:40:37Z</time></trkpt><trkpt lat="34.02901685880579" lon="-6.651034449052152"><ele>129.0</ele><time>2026-04-28T11:40:38Z</time></trkpt><trkpt lat="34.02900143689746" lon="-6.650904986062835"><ele>129.2</ele><time>2026-04-28T11:40:39Z</time></trkpt><trkpt lat="34.02898677031904" lon="-6.65077969074343"><ele>129.4</ele><time>2026-04-28T11:40:40Z</time></trkpt><trkpt lat="34.02897082690551" lon="-6.65065897764874"><ele>129.6</ele><time>2026-04-28T11:40:41Z</time></trkpt><trkpt lat="34.02895331555787" lon="-6.650542049902786"><ele>129.8</ele><time>2026-04-28T11:40:42Z</time></trkpt><trkpt lat="34.028936889714615" lon="-6.650427829941518"><ele>130.0</ele><time>2026-04-28T11:40:43Z</time></trkpt><trkpt lat="34.028922296396416" lon="-6.650322813176912"><ele>130.16666666666669</ele><time>2026-04-28T11:40:44Z</time></trkpt><trkpt lat="34.0289083834293" lon="-6.650221956973709"><ele>130.33333333333334</ele><time>2026-04-28T11:40:45Z</time></trkpt><trkpt lat="34.02889705175751" lon="-6.650122132083558"><ele>130.5</ele><time>2026-04-28T11:40:46Z</time></trkpt><trkpt lat="34.02888665438596" lon="-6.650022649062418"><ele>130.66666666666666</ele><time>2026-04-28T11:40:47Z</time></trkpt><trkpt lat="34.028875962944205" lon="-6.64992462571895"><ele>130.83333333333331</ele><time>2026-04-28T11:40:48Z</time></trkpt><trkpt lat="34.02886484649862" lon="-6.649825754304001"><ele>131.0</ele><time>2026-04-28T11:40:49Z</time></trkpt><trkpt lat="34.028854581467705" lon="-6.6497273720048256"><ele>131.0</ele><time>2026-04-28T11:40:50Z</time></trkpt><trkpt lat="34.028844369221666" lon="-6.64962975904816"><ele>131.0</ele><time>2026-04-28T11:40:51Z</time></trkpt><trkpt lat="34.02883354446042" lon="-6.649533191395038"><ele>131.0</ele><time>2026-04-28T11:40:52Z</time></trkpt><trkpt lat="34.028822861146544" lon="-6.649437593156431"><ele>131.0</ele><time>2026-04-28T11:40:53Z</time></trkpt><trkpt lat="34.02881350785666" lon="-6.6493439136172166"><ele>131.0</ele><time>2026-04-28T11:40:54Z</time></trkpt><trkpt lat="34.0288049261931" lon="-6.649251723869494"><ele>131.0</ele><time>2026-04-28T11:40:55Z</time></trkpt><trkpt lat="34.02879549483798" lon="-6.649161105835206"><ele>130.5</ele><time>2026-04-28T11:40:56Z</time></trkpt><trkpt lat="34.028786894756784" lon="-6.6490755442624"><ele>130.0</ele><time>2026-04-28T11:40:57Z</time></trkpt><trkpt lat="34.028779470821725" lon="-6.648994121116227"><ele>129.5</ele><time>2026-04-28T11:40:58Z</time></trkpt><trkpt lat="34.02876322888288" lon="-6.648852014993966"><ele>129.0</ele><time>2026-04-28T11:41:00Z</time></trkpt><trkpt lat="34.028767168507535" lon="-6.648766543039161"><ele>128.5</ele><time>2026-04-28T11:41:02Z</time></trkpt><trkpt lat="34.028837753013" lon="-6.64871378907733"><ele>128.0</ele><time>2026-04-28T11:41:11Z</time></trkpt><trkpt lat="34.028910678484856" lon="-6.648671506536496"><ele>128.0</ele><time>2026-04-28T11:41:13Z</time></trkpt><trkpt lat="34.02899197237988" lon="-6.648644012247995"><ele>128.0</ele><time>2026-04-28T11:41:16Z</time></trkpt><trkpt lat="34.02900526513459" lon="-6.6484587243399345"><ele>128.0</ele><time>2026-04-28T11:41:17.999Z</time></trkpt><trkpt lat="34.02899569591854" lon="-6.648374576287066"><ele>128.0</ele><time>2026-04-28T11:41:18.999Z</time></trkpt><trkpt lat="34.0289811927773" lon="-6.6482818710255716"><ele>128.0</ele><time>2026-04-28T11:41:19.999Z</time></trkpt><trkpt lat="34.02896573022084" lon="-6.648188350251221"><ele>128.4</ele><time>2026-04-28T11:41:20.999Z</time></trkpt><trkpt lat="34.028951443849785" lon="-6.648071384306467"><ele>128.8</ele><time>2026-04-28T11:41:22.999Z</time></trkpt><trkpt lat="34.028935944750536" lon="-6.647936886821666"><ele>129.2</ele><time>2026-04-28T11:41:24.999Z</time></trkpt><trkpt lat="34.02890860520492" lon="-6.647856100934148"><ele>129.6</ele><time>2026-04-28T11:41:26.001Z</time></trkpt><trkpt lat="34.02889330150412" lon="-6.647763350219625"><ele>130.0</ele><time>2026-04-28T11:41:27.001Z</time></trkpt><trkpt lat="34.028913023595905" lon="-6.647635987817275"><ele>130.8</ele><time>2026-04-28T11:41:28.001Z</time></trkpt><trkpt lat="34.02895623588319" lon="-6.647536023509748"><ele>131.6</ele><time>2026-04-28T11:41:29.001Z</time></trkpt><trkpt lat="34.02895779416254" lon="-6.647422334029788"><ele>132.4</ele><time>2026-04-28T11:41:30.001Z</time></trkpt><trkpt lat="34.0289491402731" lon="-6.647309080700799"><ele>133.2</ele><time>2026-04-28T11:41:31.001Z</time></trkpt><trkpt lat="34.02893849017029" lon="-6.647196533687229"><ele>134.0</ele><time>2026-04-28T11:41:32.001Z</time></trkpt><trkpt lat="34.02892910708418" lon="-6.647094959491042"><ele>134.0</ele><time>2026-04-28T11:41:33.001Z</time></trkpt><trkpt lat="34.02891860789101" lon="-6.647005683699168"><ele>134.0</ele><time>2026-04-28T11:41:34.001Z</time></trkpt><trkpt lat="34.02892102449687" lon="-6.646927546437418"><ele>134.0</ele><time>2026-04-28T11:41:35.001Z</time></trkpt><trkpt lat="34.02894731996957" lon="-6.646802829521249"><ele>134.0</ele><time>2026-04-28T11:41:37.001Z</time></trkpt><trkpt lat="34.02896301661589" lon="-6.646684962512052"><ele>134.0</ele><time>2026-04-28T11:41:39.001Z</time></trkpt><trkpt lat="34.02897237340123" lon="-6.646588666303836"><ele>134.0</ele><time>2026-04-28T11:41:42Z</time></trkpt><trkpt lat="34.029022615369826" lon="-6.646652307324844"><ele>134.33333333333331</ele><time>2026-04-28T11:44:48Z</time></trkpt><trkpt lat="34.0290351161555" lon="-6.6465147601340755"><ele>134.66666666666666</ele><time>2026-04-28T11:44:52Z</time></trkpt><trkpt lat="34.02896005828423" lon="-6.646822285971619"><ele>135.0</ele><time>2026-04-28T11:44:53Z</time></trkpt><trkpt lat="34.028972210271185" lon="-6.6469129792315975"><ele>134.83333333333334</ele><time>2026-04-28T11:44:55Z</time></trkpt><trkpt lat="34.02898788074506" lon="-6.6470387693770965"><ele>134.66666666666666</ele><time>2026-04-28T11:44:57Z</time></trkpt><trkpt lat="34.02899748288265" lon="-6.647114639043846"><ele>134.5</ele><time>2026-04-28T11:44:58Z</time></trkpt><trkpt lat="34.02900700316627" lon="-6.647189861858866"><ele>134.33333333333331</ele><time>2026-04-28T11:44:59Z</time></trkpt><trkpt lat="34.02901722087649" lon="-6.647270595291766"><ele>134.16666666666666</ele><time>2026-04-28T11:45:00Z</time></trkpt><trkpt lat="34.02903581513179" lon="-6.647417513389948"><ele>134.0</ele><time>2026-04-28T11:45:02Z</time></trkpt><trkpt lat="34.02904542143776" lon="-6.647493414873961"><ele>134.0</ele><time>2026-04-28T11:45:03Z</time></trkpt><trkpt lat="34.02895860097827" lon="-6.6475766792867965"><ele>134.0</ele><time>2026-04-28T11:45:04Z</time></trkpt><trkpt lat="34.02895835794126" lon="-6.647665582811023"><ele>134.0</ele><time>2026-04-28T11:45:05Z</time></trkpt><trkpt lat="34.02892781184945" lon="-6.647737543835729"><ele>134.0</ele><time>2026-04-28T11:45:06Z</time></trkpt><trkpt lat="34.02895479913628" lon="-6.647891081908003"><ele>134.0</ele><time>2026-04-28T11:45:08Z</time></trkpt><trkpt lat="34.02896590427291" lon="-6.64797168429678"><ele>134.0</ele><time>2026-04-28T11:45:09Z</time></trkpt><trkpt lat="34.02899766813157" lon="-6.648085585917915"><ele>133.2</ele><time>2026-04-28T11:45:11Z</time></trkpt><trkpt lat="34.029012655485666" lon="-6.648166342560832"><ele>132.4</ele><time>2026-04-28T11:45:14Z</time></trkpt><trkpt lat="34.02902304641695" lon="-6.648286560182415"><ele>131.6</ele><time>2026-04-28T11:45:16Z</time></trkpt><trkpt lat="34.02903066938582" lon="-6.648429691264867"><ele>130.8</ele><time>2026-04-28T11:45:18Z</time></trkpt><trkpt lat="34.02904476214212" lon="-6.648562684797168"><ele>130.0</ele><time>2026-04-28T11:45:20Z</time></trkpt><trkpt lat="34.02907739103336" lon="-6.648651693856991"><ele>130.6</ele><time>2026-04-28T11:45:21.999Z</time></trkpt><trkpt lat="34.02921234787498" lon="-6.648568037575695"><ele>131.2</ele><time>2026-04-28T11:45:22.999Z</time></trkpt><trkpt lat="34.029300105361756" lon="-6.648556093765395"><ele>131.8</ele><time>2026-04-28T11:45:25.999Z</time></trkpt><trkpt lat="34.0293715214346" lon="-6.648543636693053"><ele>132.4</ele><time>2026-04-28T11:45:26.999Z</time></trkpt><trkpt lat="34.0294417010614" lon="-6.648624380301536"><ele>133.0</ele><time>2026-04-28T11:45:27.999Z</time></trkpt><trkpt lat="34.02949646399912" lon="-6.648544413959578"><ele>133.0</ele><time>2026-04-28T11:45:29.999Z</time></trkpt><trkpt lat="34.02949483937902" lon="-6.648439533544382"><ele>133.0</ele><time>2026-04-28T11:45:31.999Z</time></trkpt><trkpt lat="34.029474801213034" lon="-6.648333477416248"><ele>133.0</ele><time>2026-04-28T11:45:33.999Z</time></trkpt><trkpt lat="34.02946365368584" lon="-6.648245433838664"><ele>133.0</ele><time>2026-04-28T11:45:36Z</time></trkpt><trkpt lat="34.02946037882592" lon="-6.648160898431853"><ele>133.0</ele><time>2026-04-28T11:45:41Z</time></trkpt><trkpt lat="34.02944693685718" lon="-6.648063775086084"><ele>133.0</ele><time>2026-04-28T11:45:50Z</time></trkpt><trkpt lat="34.02942214145783" lon="-6.648149245646746"><ele>133.0</ele><time>2026-04-28T11:46:35Z</time></trkpt><trkpt lat="34.02933365313387" lon="-6.648208684000754"><ele>133.0</ele><time>2026-04-28T11:48:26Z</time></trkpt><trkpt lat="34.02927652858086" lon="-6.648156696356918"><ele>133.0</ele><time>2026-04-28T11:49:49Z</time></trkpt><trkpt lat="34.029222072507146" lon="-6.648213349088179"><ele>133.0</ele><time>2026-04-28T11:51:22.999Z</time></trkpt><trkpt lat="34.02925759103608" lon="-6.648114068399575"><ele>133.0</ele><time>2026-04-28T11:52:12Z</time></trkpt><trkpt lat="34.02928975454835" lon="-6.647982634350903"><ele>133.0</ele><time>2026-04-28T11:52:16Z</time></trkpt><trkpt lat="34.02930888354759" lon="-6.648204654165115"><ele>133.0</ele><time>2026-04-28T11:53:26.999Z</time></trkpt><trkpt lat="34.029173403823144" lon="-6.648243804779853"><ele>133.0</ele><time>2026-04-28T11:54:01Z</time></trkpt><trkpt lat="34.02925676111051" lon="-6.648226161813595"><ele>133.0</ele><time>2026-04-28T11:56:15.999Z</time></trkpt><trkpt lat="34.02928365540382" lon="-6.648152912604695"><ele>133.0</ele><time>2026-04-28T11:56:20Z</time></trkpt><trkpt lat="34.02933894054692" lon="-6.648203263500626"><ele>133.0</ele><time>2026-04-28T12:32:44Z</time></trkpt><trkpt lat="34.029409936039144" lon="-6.648192647695231"><ele>133.0</ele><time>2026-04-28T12:32:51Z</time></trkpt><trkpt lat="34.029469947996986" lon="-6.648165751043521"><ele>133.0</ele><time>2026-04-28T12:32:56Z</time></trkpt><trkpt lat="34.02945437529252" lon="-6.648266985364446"><ele>133.0</ele><time>2026-04-28T12:39:15Z</time></trkpt><trkpt lat="34.029462505157646" lon="-6.648375157789863"><ele>133.0</ele><time>2026-04-28T12:39:17Z</time></trkpt><trkpt lat="34.029488668421145" lon="-6.648477241650905"><ele>133.0</ele><time>2026-04-28T12:39:19Z</time></trkpt><trkpt lat="34.029503335742476" lon="-6.648567344567909"><ele>133.0</ele><time>2026-04-28T12:39:21Z</time></trkpt><trkpt lat="34.029455117831404" lon="-6.648641273821164"><ele>133.0</ele><time>2026-04-28T12:39:23Z</time></trkpt><trkpt lat="34.029337120608965" lon="-6.648682699036295"><ele>133.16666666666669</ele><time>2026-04-28T12:39:25Z</time></trkpt><trkpt lat="34.02927189710193" lon="-6.64869954777137"><ele>133.33333333333334</ele><time>2026-04-28T12:39:26Z</time></trkpt><trkpt lat="34.029205483434524" lon="-6.648713013743845"><ele>133.5</ele><time>2026-04-28T12:39:27Z</time></trkpt><trkpt lat="34.0291426299346" lon="-6.648727056499972"><ele>133.66666666666666</ele><time>2026-04-28T12:39:28Z</time></trkpt><trkpt lat="34.02904347830664" lon="-6.648784364507305"><ele>133.83333333333331</ele><time>2026-04-28T12:39:30Z</time></trkpt><trkpt lat="34.02898456903878" lon="-6.648858374841013"><ele>134.0</ele><time>2026-04-28T12:39:32Z</time></trkpt><trkpt lat="34.0289550082582" lon="-6.648964937171194"><ele>133.5</ele><time>2026-04-28T12:39:35Z</time></trkpt><trkpt lat="34.028960895518985" lon="-6.649093947749059"><ele>133.0</ele><time>2026-04-28T12:39:37Z</time></trkpt><trkpt lat="34.0289638258995" lon="-6.649178204403097"><ele>132.5</ele><time>2026-04-28T12:39:38Z</time></trkpt><trkpt lat="34.028966841622776" lon="-6.649274942467"><ele>132.0</ele><time>2026-04-28T12:39:39Z</time></trkpt><trkpt lat="34.0289722644983" lon="-6.649384098361468"><ele>131.5</ele><time>2026-04-28T12:39:40Z</time></trkpt><trkpt lat="34.028980903204" lon="-6.649494754765182"><ele>131.0</ele><time>2026-04-28T12:39:41Z</time></trkpt><trkpt lat="34.02899412275378" lon="-6.649616841492973"><ele>131.0</ele><time>2026-04-28T12:39:42Z</time></trkpt><trkpt lat="34.02900965845964" lon="-6.649748888064486"><ele>131.0</ele><time>2026-04-28T12:39:43Z</time></trkpt><trkpt lat="34.02902553600717" lon="-6.649889261950553"><ele>131.0</ele><time>2026-04-28T12:39:44Z</time></trkpt><trkpt lat="34.02904152575757" lon="-6.650037330073787"><ele>131.0</ele><time>2026-04-28T12:39:45Z</time></trkpt><trkpt lat="34.02905980682117" lon="-6.650184603366617"><ele>130.75</ele><time>2026-04-28T12:39:46Z</time></trkpt><trkpt lat="34.0290788307678" lon="-6.65032421308226"><ele>130.5</ele><time>2026-04-28T12:39:47Z</time></trkpt><trkpt lat="34.029097811017984" lon="-6.650463368684591"><ele>130.25</ele><time>2026-04-28T12:39:48Z</time></trkpt><trkpt lat="34.02911667931754" lon="-6.650602911359809"><ele>130.0</ele><time>2026-04-28T12:39:49Z</time></trkpt><trkpt lat="34.02913681564485" lon="-6.650746094680605"><ele>130.75</ele><time>2026-04-28T12:39:50Z</time></trkpt><trkpt lat="34.02915681468576" lon="-6.650892680064643"><ele>131.5</ele><time>2026-04-28T12:39:51Z</time></trkpt><trkpt lat="34.029176160153945" lon="-6.651039521042328"><ele>132.25</ele><time>2026-04-28T12:39:52Z</time></trkpt><trkpt lat="34.02919539061896" lon="-6.651185140424134"><ele>133.0</ele><time>2026-04-28T12:39:53Z</time></trkpt><trkpt lat="34.029215922219194" lon="-6.651330252755114"><ele>133.0</ele><time>2026-04-28T12:39:54Z</time></trkpt><trkpt lat="34.02923729212673" lon="-6.651474466850105"><ele>133.0</ele><time>2026-04-28T12:39:55Z</time></trkpt><trkpt lat="34.029259457555526" lon="-6.651618216640562"><ele>133.0</ele><time>2026-04-28T12:39:56Z</time></trkpt><trkpt lat="34.02927949948686" lon="-6.651762579292956"><ele>133.0</ele><time>2026-04-28T12:39:57Z</time></trkpt><trkpt lat="34.0292986755494" lon="-6.651907547983502"><ele>132.0</ele><time>2026-04-28T12:39:58Z</time></trkpt><trkpt lat="34.02931718288855" lon="-6.65205289890106"><ele>131.0</ele><time>2026-04-28T12:39:59Z</time></trkpt><trkpt lat="34.029336059565075" lon="-6.652199329932589"><ele>130.0</ele><time>2026-04-28T12:40:00Z</time></trkpt><trkpt lat="34.029354438754446" lon="-6.652346848247193"><ele>129.0</ele><time>2026-04-28T12:40:01Z</time></trkpt><trkpt lat="34.02937319325597" lon="-6.652494369036261"><ele>129.0</ele><time>2026-04-28T12:40:02Z</time></trkpt><trkpt lat="34.0293917882278" lon="-6.652638874211981"><ele>129.0</ele><time>2026-04-28T12:40:03Z</time></trkpt><trkpt lat="34.02941004570782" lon="-6.652778856469918"><ele>129.0</ele><time>2026-04-28T12:40:04Z</time></trkpt><trkpt lat="34.02942681331748" lon="-6.6529167419904045"><ele>129.0</ele><time>2026-04-28T12:40:05Z</time></trkpt><trkpt lat="34.02944369312031" lon="-6.653056810958826"><ele>129.25</ele><time>2026-04-28T12:40:06Z</time></trkpt><trkpt lat="34.02945989949538" lon="-6.65319945586222"><ele>129.5</ele><time>2026-04-28T12:40:07Z</time></trkpt><trkpt lat="34.02947630974145" lon="-6.65334662162017"><ele>129.75</ele><time>2026-04-28T12:40:08Z</time></trkpt><trkpt lat="34.029496774224796" lon="-6.653495966486689"><ele>130.0</ele><time>2026-04-28T12:40:09Z</time></trkpt><trkpt lat="34.029518724023845" lon="-6.653645825047732"><ele>130.5</ele><time>2026-04-28T12:40:10Z</time></trkpt><trkpt lat="34.02953966894381" lon="-6.653791413516915"><ele>131.0</ele><time>2026-04-28T12:40:11Z</time></trkpt><trkpt lat="34.029559195261825" lon="-6.653935932192221"><ele>131.5</ele><time>2026-04-28T12:40:12Z</time></trkpt><trkpt lat="34.02957860348851" lon="-6.6540820024217195"><ele>132.0</ele><time>2026-04-28T12:40:13Z</time></trkpt><trkpt lat="34.02959670294076" lon="-6.654228796928365"><ele>132.0</ele><time>2026-04-28T12:40:14Z</time></trkpt><trkpt lat="34.02961531544648" lon="-6.654376556688859"><ele>132.0</ele><time>2026-04-28T12:40:15Z</time></trkpt><trkpt lat="34.02963445875182" lon="-6.654524780386724"><ele>132.0</ele><time>2026-04-28T12:40:16Z</time></trkpt><trkpt lat="34.029654307005" lon="-6.6546734806764425"><ele>132.0</ele><time>2026-04-28T12:40:17Z</time></trkpt><trkpt lat="34.02967406694071" lon="-6.654825387706478"><ele>132.0</ele><time>2026-04-28T12:40:18Z</time></trkpt><trkpt lat="34.029695681805634" lon="-6.654979178529399"><ele>132.0</ele><time>2026-04-28T12:40:19Z</time></trkpt><trkpt lat="34.02971634478174" lon="-6.655132852719487"><ele>132.0</ele><time>2026-04-28T12:40:20Z</time></trkpt><trkpt lat="34.02973813790386" lon="-6.655286936824531"><ele>132.0</ele><time>2026-04-28T12:40:21Z</time></trkpt><trkpt lat="34.02975839287454" lon="-6.655441430498283"><ele>131.75</ele><time>2026-04-28T12:40:22Z</time></trkpt><trkpt lat="34.02977772185269" lon="-6.655595749551573"><ele>131.5</ele><time>2026-04-28T12:40:23Z</time></trkpt><trkpt lat="34.029795845118784" lon="-6.65574928849109"><ele>131.25</ele><time>2026-04-28T12:40:24Z</time></trkpt><trkpt lat="34.02981337618711" lon="-6.655902560481474"><ele>131.0</ele><time>2026-04-28T12:40:25Z</time></trkpt><trkpt lat="34.02983312989048" lon="-6.65605673521432"><ele>131.0</ele><time>2026-04-28T12:40:26Z</time></trkpt><trkpt lat="34.02985266287868" lon="-6.656209686471217"><ele>131.0</ele><time>2026-04-28T12:40:27Z</time></trkpt><trkpt lat="34.02987163181071" lon="-6.6563654909377"><ele>131.0</ele><time>2026-04-28T12:40:28Z</time></trkpt><trkpt lat="34.02989111939363" lon="-6.656518860505621"><ele>131.0</ele><time>2026-04-28T12:40:29Z</time></trkpt><trkpt lat="34.02990962660053" lon="-6.656670710098774"><ele>131.0</ele><time>2026-04-28T12:40:30Z</time></trkpt><trkpt lat="34.02992888766775" lon="-6.656824742165249"><ele>131.0</ele><time>2026-04-28T12:40:31Z</time></trkpt><trkpt lat="34.02994924243898" lon="-6.656987493480638"><ele>131.0</ele><time>2026-04-28T12:40:32Z</time></trkpt><trkpt lat="34.02997014565959" lon="-6.65715932688461"><ele>131.0</ele><time>2026-04-28T12:40:33Z</time></trkpt><trkpt lat="34.029991900497556" lon="-6.65734018105445"><ele>134.66666666666666</ele><time>2026-04-28T12:40:34Z</time></trkpt><trkpt lat="34.03001218227347" lon="-6.657534653665343"><ele>138.33333333333334</ele><time>2026-04-28T12:40:35Z</time></trkpt><trkpt lat="34.03003126372498" lon="-6.657740816511325"><ele>142.0</ele><time>2026-04-28T12:40:36Z</time></trkpt><trkpt lat="34.03005166404909" lon="-6.657953650712369"><ele>142.0</ele><time>2026-04-28T12:40:37Z</time></trkpt><trkpt lat="34.030077127908264" lon="-6.6581724393184105"><ele>142.0</ele><time>2026-04-28T12:40:38Z</time></trkpt><trkpt lat="34.03010802584432" lon="-6.6584003735691635"><ele>142.0</ele><time>2026-04-28T12:40:39Z</time></trkpt><trkpt lat="34.03014108983561" lon="-6.6586344008378155"><ele>142.0</ele><time>2026-04-28T12:40:40Z</time></trkpt><trkpt lat="34.030172921333126" lon="-6.658874304828257"><ele>142.0</ele><time>2026-04-28T12:40:41Z</time></trkpt><trkpt lat="34.03020449807877" lon="-6.659125478995919"><ele>142.0</ele><time>2026-04-28T12:40:42Z</time></trkpt><trkpt lat="34.030233908422844" lon="-6.659384881577099"><ele>142.0</ele><time>2026-04-28T12:40:43Z</time></trkpt><trkpt lat="34.03026614220405" lon="-6.659648098979579"><ele>142.0</ele><time>2026-04-28T12:40:44Z</time></trkpt><trkpt lat="34.030301420965515" lon="-6.659920359286349"><ele>142.0</ele><time>2026-04-28T12:40:45Z</time></trkpt><trkpt lat="34.030338055516076" lon="-6.660201094966659"><ele>144.0</ele><time>2026-04-28T12:40:46Z</time></trkpt><trkpt lat="34.030376139533914" lon="-6.660485811862952"><ele>146.0</ele><time>2026-04-28T12:40:47Z</time></trkpt><trkpt lat="34.03041363915681" lon="-6.660772575581167"><ele>146.0</ele><time>2026-04-28T12:40:48Z</time></trkpt><trkpt lat="34.03045068399019" lon="-6.661060878578956"><ele>146.0</ele><time>2026-04-28T12:40:49Z</time></trkpt><trkpt lat="34.03048868242301" lon="-6.661349925786876"><ele>145.5</ele><time>2026-04-28T12:40:50Z</time></trkpt><trkpt lat="34.03052527125471" lon="-6.661641761506258"><ele>145.0</ele><time>2026-04-28T12:40:51Z</time></trkpt><trkpt lat="34.03056383541948" lon="-6.661935574281352"><ele>145.0</ele><time>2026-04-28T12:40:52Z</time></trkpt><trkpt lat="34.030600317954516" lon="-6.662232401983987"><ele>145.0</ele><time>2026-04-28T12:40:53Z</time></trkpt><trkpt lat="34.030638627164734" lon="-6.662529165859162"><ele>146.0</ele><time>2026-04-28T12:40:54Z</time></trkpt><trkpt lat="34.03067713088446" lon="-6.662827654569467"><ele>147.0</ele><time>2026-04-28T12:40:55Z</time></trkpt><trkpt lat="34.030715213379445" lon="-6.663127183172374"><ele>147.0</ele><time>2026-04-28T12:40:56Z</time></trkpt><trkpt lat="34.03075126607123" lon="-6.663424207184062"><ele>147.0</ele><time>2026-04-28T12:40:57Z</time></trkpt><trkpt lat="34.03078888462226" lon="-6.663721477210766"><ele>149.5</ele><time>2026-04-28T12:40:58Z</time></trkpt><trkpt lat="34.030828010247085" lon="-6.664016060720111"><ele>152.0</ele><time>2026-04-28T12:40:59Z</time></trkpt><trkpt lat="34.03086464791976" lon="-6.664310201708769"><ele>152.5</ele><time>2026-04-28T12:41:00Z</time></trkpt><trkpt lat="34.03090414658706" lon="-6.664605240683032"><ele>153.0</ele><time>2026-04-28T12:41:01Z</time></trkpt><trkpt lat="34.030940496650075" lon="-6.664900558655952"><ele>153.0</ele><time>2026-04-28T12:41:02Z</time></trkpt><trkpt lat="34.030978321899916" lon="-6.66519534981678"><ele>153.0</ele><time>2026-04-28T12:41:03Z</time></trkpt><trkpt lat="34.03101708896582" lon="-6.665493202858256"><ele>152.5</ele><time>2026-04-28T12:41:04Z</time></trkpt><trkpt lat="34.03105489064429" lon="-6.665792448063584"><ele>152.0</ele><time>2026-04-28T12:41:05Z</time></trkpt><trkpt lat="34.03109107235598" lon="-6.666093506819157"><ele>151.0</ele><time>2026-04-28T12:41:06Z</time></trkpt><trkpt lat="34.03112600678568" lon="-6.666395980659402"><ele>150.0</ele><time>2026-04-28T12:41:07Z</time></trkpt><trkpt lat="34.031159580111684" lon="-6.666698078722911"><ele>151.0</ele><time>2026-04-28T12:41:08Z</time></trkpt><trkpt lat="34.03119114351893" lon="-6.667001042054934"><ele>152.0</ele><time>2026-04-28T12:41:09Z</time></trkpt><trkpt lat="34.03122590515714" lon="-6.667302637365176"><ele>152.0</ele><time>2026-04-28T12:41:10Z</time></trkpt><trkpt lat="34.03125907451223" lon="-6.667603874962781"><ele>152.0</ele><time>2026-04-28T12:41:11Z</time></trkpt><trkpt lat="34.0312960784508" lon="-6.667905371940667"><ele>151.0</ele><time>2026-04-28T12:41:12Z</time></trkpt><trkpt lat="34.031334806589804" lon="-6.6682026442072955"><ele>150.0</ele><time>2026-04-28T12:41:13Z</time></trkpt><trkpt lat="34.031373086276794" lon="-6.668498811353627"><ele>151.5</ele><time>2026-04-28T12:41:14Z</time></trkpt><trkpt lat="34.03141038867186" lon="-6.668794415477362"><ele>153.0</ele><time>2026-04-28T12:41:15Z</time></trkpt><trkpt lat="34.03144484636931" lon="-6.669083555986175"><ele>153.0</ele><time>2026-04-28T12:41:16Z</time></trkpt><trkpt lat="34.031463701411" lon="-6.669387560993253"><ele>153.0</ele><time>2026-04-28T12:41:17Z</time></trkpt><trkpt lat="34.03147529397013" lon="-6.669687860917644"><ele>152.5</ele><time>2026-04-28T12:41:18Z</time></trkpt><trkpt lat="34.031487335020415" lon="-6.669981152283844"><ele>152.0</ele><time>2026-04-28T12:41:19Z</time></trkpt><trkpt lat="34.031499238161295" lon="-6.6702822674141835"><ele>152.0</ele><time>2026-04-28T12:41:20Z</time></trkpt><trkpt lat="34.03151111799336" lon="-6.670584760399342"><ele>152.0</ele><time>2026-04-28T12:41:21Z</time></trkpt><trkpt lat="34.03152543518884" lon="-6.670889605488127"><ele>152.0</ele><time>2026-04-28T12:41:22Z</time></trkpt><trkpt lat="34.03154186932341" lon="-6.671194992773163"><ele>152.0</ele><time>2026-04-28T12:41:23Z</time></trkpt><trkpt lat="34.03155991078179" lon="-6.671493795171334"><ele>152.0</ele><time>2026-04-28T12:41:24Z</time></trkpt><trkpt lat="34.03157780745208" lon="-6.671792860585054"><ele>152.0</ele><time>2026-04-28T12:41:25Z</time></trkpt><trkpt lat="34.031593363880056" lon="-6.6720936745362085"><ele>149.0</ele><time>2026-04-28T12:41:26Z</time></trkpt><trkpt lat="34.03160574325871" lon="-6.6723934581874955"><ele>146.0</ele><time>2026-04-28T12:41:27Z</time></trkpt><trkpt lat="34.03161726424368" lon="-6.6726927870298685"><ele>145.0</ele><time>2026-04-28T12:41:28Z</time></trkpt><trkpt lat="34.03162776122099" lon="-6.672992783953318"><ele>144.0</ele><time>2026-04-28T12:41:29Z</time></trkpt><trkpt lat="34.031636532701846" lon="-6.673291960999242"><ele>142.5</ele><time>2026-04-28T12:41:30Z</time></trkpt><trkpt lat="34.031646636822636" lon="-6.673591348522743"><ele>141.0</ele><time>2026-04-28T12:41:31Z</time></trkpt><trkpt lat="34.031660260611226" lon="-6.673889470696948"><ele>139.5</ele><time>2026-04-28T12:41:32Z</time></trkpt><trkpt lat="34.03167656954756" lon="-6.6741890902096275"><ele>138.0</ele><time>2026-04-28T12:41:33Z</time></trkpt><trkpt lat="34.03169183736688" lon="-6.674489355199526"><ele>136.0</ele><time>2026-04-28T12:41:34Z</time></trkpt><trkpt lat="34.03170480236336" lon="-6.674789882978255"><ele>134.0</ele><time>2026-04-28T12:41:35Z</time></trkpt><trkpt lat="34.03171550549309" lon="-6.675090920604807"><ele>133.0</ele><time>2026-04-28T12:41:36Z</time></trkpt><trkpt lat="34.031724900504734" lon="-6.675390837557522"><ele>132.0</ele><time>2026-04-28T12:41:37Z</time></trkpt><trkpt lat="34.031734145695836" lon="-6.67569145194573"><ele>132.0</ele><time>2026-04-28T12:41:38Z</time></trkpt><trkpt lat="34.03174477526736" lon="-6.675991256374654"><ele>132.0</ele><time>2026-04-28T12:41:39Z</time></trkpt><trkpt lat="34.031756318302385" lon="-6.6762913211864126"><ele>131.5</ele><time>2026-04-28T12:41:40Z</time></trkpt><trkpt lat="34.031768527335515" lon="-6.676590147913191"><ele>131.0</ele><time>2026-04-28T12:41:41Z</time></trkpt><trkpt lat="34.03178170581494" lon="-6.676889571955406"><ele>130.0</ele><time>2026-04-28T12:41:42Z</time></trkpt><trkpt lat="34.03179378114706" lon="-6.67718909876842"><ele>129.0</ele><time>2026-04-28T12:41:43Z</time></trkpt><trkpt lat="34.031804829778366" lon="-6.677488426265312"><ele>129.5</ele><time>2026-04-28T12:41:44Z</time></trkpt><trkpt lat="34.0318164605623" lon="-6.677789195484807"><ele>130.0</ele><time>2026-04-28T12:41:45Z</time></trkpt><trkpt lat="34.03182716695776" lon="-6.678089832710254"><ele>130.0</ele><time>2026-04-28T12:41:46Z</time></trkpt><trkpt lat="34.03183743547322" lon="-6.678389981113808"><ele>130.0</ele><time>2026-04-28T12:41:47Z</time></trkpt><trkpt lat="34.03184708332764" lon="-6.678691289142868"><ele>129.5</ele><time>2026-04-28T12:41:48Z</time></trkpt><trkpt lat="34.031857404027626" lon="-6.6789924529389735"><ele>129.0</ele><time>2026-04-28T12:41:49Z</time></trkpt><trkpt lat="34.03186846827723" lon="-6.6792921402395775"><ele>129.0</ele><time>2026-04-28T12:41:50Z</time></trkpt><trkpt lat="34.03187971909268" lon="-6.67959284174101"><ele>129.0</ele><time>2026-04-28T12:41:51Z</time></trkpt><trkpt lat="34.03188959335263" lon="-6.67989394637171"><ele>129.0</ele><time>2026-04-28T12:41:52Z</time></trkpt><trkpt lat="34.03190114755257" lon="-6.680194376231757"><ele>129.0</ele><time>2026-04-28T12:41:53Z</time></trkpt><trkpt lat="34.03191610190486" lon="-6.680494227485881"><ele>129.0</ele><time>2026-04-28T12:41:54Z</time></trkpt><trkpt lat="34.03193000296215" lon="-6.680796015607354"><ele>129.0</ele><time>2026-04-28T12:41:55Z</time></trkpt><trkpt lat="34.031940112969444" lon="-6.68109579713709"><ele>128.0</ele><time>2026-04-28T12:41:56Z</time></trkpt><trkpt lat="34.03195084973008" lon="-6.681393655975665"><ele>127.0</ele><time>2026-04-28T12:41:57Z</time></trkpt><trkpt lat="34.031964922700745" lon="-6.681686131616626"><ele>126.0</ele><time>2026-04-28T12:41:58Z</time></trkpt><trkpt lat="34.03198034893092" lon="-6.681975416424316"><ele>125.0</ele><time>2026-04-28T12:41:59Z</time></trkpt><trkpt lat="34.03199296559185" lon="-6.682261553125939"><ele>125.0</ele><time>2026-04-28T12:42:00Z</time></trkpt><trkpt lat="34.03200007377746" lon="-6.682543665910572"><ele>125.0</ele><time>2026-04-28T12:42:01Z</time></trkpt><trkpt lat="34.03200314006164" lon="-6.6828210031352215"><ele>126.0</ele><time>2026-04-28T12:42:01.999Z</time></trkpt><trkpt lat="34.03200904883249" lon="-6.683094565785136"><ele>127.0</ele><time>2026-04-28T12:42:02.999Z</time></trkpt><trkpt lat="34.03201919060299" lon="-6.683372628221427"><ele>127.5</ele><time>2026-04-28T12:42:03.999Z</time></trkpt><trkpt lat="34.03203032910374" lon="-6.6836598591933924"><ele>128.0</ele><time>2026-04-28T12:42:04.999Z</time></trkpt><trkpt lat="34.0320409469385" lon="-6.683950088264249"><ele>128.0</ele><time>2026-04-28T12:42:05.999Z</time></trkpt><trkpt lat="34.03205120966771" lon="-6.684240009627463"><ele>128.0</ele><time>2026-04-28T12:42:06.999Z</time></trkpt><trkpt lat="34.03206155567242" lon="-6.6845321715518695"><ele>130.0</ele><time>2026-04-28T12:42:07.999Z</time></trkpt><trkpt lat="34.03207219226193" lon="-6.6848259703609125"><ele>132.0</ele><time>2026-04-28T12:42:08.999Z</time></trkpt><trkpt lat="34.03208426569821" lon="-6.685119784258508"><ele>132.5</ele><time>2026-04-28T12:42:09.999Z</time></trkpt><trkpt lat="34.032095171042705" lon="-6.685413623156245"><ele>133.0</ele><time>2026-04-28T12:42:10.999Z</time></trkpt><trkpt lat="34.0321057661526" lon="-6.685709771630852"><ele>133.0</ele><time>2026-04-28T12:42:11.999Z</time></trkpt><trkpt lat="34.03211708803129" lon="-6.686009043024103"><ele>133.0</ele><time>2026-04-28T12:42:12.999Z</time></trkpt><trkpt lat="34.032130932631325" lon="-6.68630943100053"><ele>133.0</ele><time>2026-04-28T12:42:13.999Z</time></trkpt><trkpt lat="34.03214696455877" lon="-6.686610236745324"><ele>133.0</ele><time>2026-04-28T12:42:14.999Z</time></trkpt><trkpt lat="34.03216246343927" lon="-6.686910682796879"><ele>133.0</ele><time>2026-04-28T12:42:15.999Z</time></trkpt><trkpt lat="34.03217656475019" lon="-6.687212626696684"><ele>133.0</ele><time>2026-04-28T12:42:16.999Z</time></trkpt><trkpt lat="34.03219204863797" lon="-6.687515796578086"><ele>133.0</ele><time>2026-04-28T12:42:17.999Z</time></trkpt><trkpt lat="34.032206876086285" lon="-6.687817712617477"><ele>133.0</ele><time>2026-04-28T12:42:18.999Z</time></trkpt><trkpt lat="34.03222038977248" lon="-6.68811810711762"><ele>133.0</ele><time>2026-04-28T12:42:19.999Z</time></trkpt><trkpt lat="34.03223653636546" lon="-6.688418063046515"><ele>133.0</ele><time>2026-04-28T12:42:20.999Z</time></trkpt><trkpt lat="34.03225383889305" lon="-6.688716032674319"><ele>132.5</ele><time>2026-04-28T12:42:21.999Z</time></trkpt><trkpt lat="34.03226902151387" lon="-6.6890127193676125"><ele>132.0</ele><time>2026-04-28T12:42:22.999Z</time></trkpt><trkpt lat="34.03228222127975" lon="-6.689308378046708"><ele>132.0</ele><time>2026-04-28T12:42:23.999Z</time></trkpt><trkpt lat="34.03229517895201" lon="-6.68960439452379"><ele>132.0</ele><time>2026-04-28T12:42:24.999Z</time></trkpt><trkpt lat="34.0323085051848" lon="-6.689903003412291"><ele>132.0</ele><time>2026-04-28T12:42:26Z</time></trkpt><trkpt lat="34.03231660230887" lon="-6.690199484525341"><ele>132.0</ele><time>2026-04-28T12:42:27Z</time></trkpt><trkpt lat="34.032312133322264" lon="-6.690493453595362"><ele>133.5</ele><time>2026-04-28T12:42:28Z</time></trkpt><trkpt lat="34.03229344075257" lon="-6.6907873488057295"><ele>135.0</ele><time>2026-04-28T12:42:29Z</time></trkpt><trkpt lat="34.03226215872841" lon="-6.69107810506713"><ele>136.0</ele><time>2026-04-28T12:42:30Z</time></trkpt><trkpt lat="34.032222251286115" lon="-6.691370325353717"><ele>137.0</ele><time>2026-04-28T12:42:31Z</time></trkpt><trkpt lat="34.03217284051833" lon="-6.691662382328682"><ele>139.0</ele><time>2026-04-28T12:42:32Z</time></trkpt><trkpt lat="34.0321133163926" lon="-6.691952789734808"><ele>141.0</ele><time>2026-04-28T12:42:33Z</time></trkpt><trkpt lat="34.03204464719456" lon="-6.692241535898619"><ele>141.0</ele><time>2026-04-28T12:42:34Z</time></trkpt><trkpt lat="34.031970340400015" lon="-6.692528071181327"><ele>141.0</ele><time>2026-04-28T12:42:35Z</time></trkpt><trkpt lat="34.0318916602129" lon="-6.692813709229147"><ele>141.0</ele><time>2026-04-28T12:42:36Z</time></trkpt><trkpt lat="34.03181336549551" lon="-6.693101376580783"><ele>141.0</ele><time>2026-04-28T12:42:37Z</time></trkpt><trkpt lat="34.031736567896544" lon="-6.693391053694246"><ele>140.5</ele><time>2026-04-28T12:42:38Z</time></trkpt><trkpt lat="34.03166130407956" lon="-6.6936806383421645"><ele>140.0</ele><time>2026-04-28T12:42:39Z</time></trkpt><trkpt lat="34.031585625395024" lon="-6.69397054240265"><ele>140.5</ele><time>2026-04-28T12:42:40Z</time></trkpt><trkpt lat="34.03151006078403" lon="-6.694261092230266"><ele>141.0</ele><time>2026-04-28T12:42:41Z</time></trkpt><trkpt lat="34.03143450466969" lon="-6.694548871513407"><ele>141.0</ele><time>2026-04-28T12:42:42Z</time></trkpt><trkpt lat="34.031358690965" lon="-6.694836847920174"><ele>141.0</ele><time>2026-04-28T12:42:43Z</time></trkpt><trkpt lat="34.03128202849168" lon="-6.695124586995832"><ele>140.5</ele><time>2026-04-28T12:42:44Z</time></trkpt><trkpt lat="34.031204467652984" lon="-6.6954108199829365"><ele>140.0</ele><time>2026-04-28T12:42:45Z</time></trkpt><trkpt lat="34.0311286490046" lon="-6.6956945373709775"><ele>140.0</ele><time>2026-04-28T12:42:46Z</time></trkpt><trkpt lat="34.031054046489025" lon="-6.6959784880472535"><ele>140.0</ele><time>2026-04-28T12:42:47Z</time></trkpt><trkpt lat="34.0309807634851" lon="-6.696262599021308"><ele>140.0</ele><time>2026-04-28T12:42:48Z</time></trkpt><trkpt lat="34.03090705372029" lon="-6.696546879115634"><ele>140.0</ele><time>2026-04-28T12:42:49Z</time></trkpt><trkpt lat="34.03083211225517" lon="-6.696831566235033"><ele>140.0</ele><time>2026-04-28T12:42:50Z</time></trkpt><trkpt lat="34.03075580972817" lon="-6.697116696197308"><ele>140.0</ele><time>2026-04-28T12:42:51Z</time></trkpt><trkpt lat="34.030680645697686" lon="-6.697401705597424"><ele>140.0</ele><time>2026-04-28T12:42:52Z</time></trkpt><trkpt lat="34.03060561168265" lon="-6.697685215578048"><ele>140.0</ele><time>2026-04-28T12:42:53Z</time></trkpt><trkpt lat="34.03053026926306" lon="-6.69796852934409"><ele>139.5</ele><time>2026-04-28T12:42:54Z</time></trkpt><trkpt lat="34.03045622478539" lon="-6.698252491593389"><ele>139.0</ele><time>2026-04-28T12:42:55Z</time></trkpt><trkpt lat="34.030381005074" lon="-6.698535070264064"><ele>138.5</ele><time>2026-04-28T12:42:56Z</time></trkpt><trkpt lat="34.03030429064727" lon="-6.6988158957509105"><ele>138.0</ele><time>2026-04-28T12:42:57Z</time></trkpt><trkpt lat="34.030226210170774" lon="-6.699097751487213"><ele>138.0</ele><time>2026-04-28T12:42:58Z</time></trkpt><trkpt lat="34.0301480406233" lon="-6.699380593817118"><ele>138.0</ele><time>2026-04-28T12:42:59Z</time></trkpt><trkpt lat="34.03006765207963" lon="-6.699663979551668"><ele>139.0</ele><time>2026-04-28T12:43:00Z</time></trkpt><trkpt lat="34.02998524517023" lon="-6.699946625969858"><ele>140.0</ele><time>2026-04-28T12:43:01Z</time></trkpt><trkpt lat="34.02990056669363" lon="-6.700229180978425"><ele>139.0</ele><time>2026-04-28T12:43:02Z</time></trkpt><trkpt lat="34.02981682272392" lon="-6.700511958487706"><ele>138.0</ele><time>2026-04-28T12:43:03Z</time></trkpt><trkpt lat="34.02973485715189" lon="-6.700793996440855"><ele>138.0</ele><time>2026-04-28T12:43:04Z</time></trkpt><trkpt lat="34.02965210109068" lon="-6.701076657216494"><ele>138.0</ele><time>2026-04-28T12:43:05Z</time></trkpt><trkpt lat="34.02957043055802" lon="-6.701359555193325"><ele>137.5</ele><time>2026-04-28T12:43:06Z</time></trkpt><trkpt lat="34.02948910808641" lon="-6.70164295943494"><ele>137.0</ele><time>2026-04-28T12:43:07Z</time></trkpt><trkpt lat="34.0294067823263" lon="-6.701925778896655"><ele>138.0</ele><time>2026-04-28T12:43:08Z</time></trkpt><trkpt lat="34.02932362201774" lon="-6.702209159167099"><ele>139.0</ele><time>2026-04-28T12:43:09Z</time></trkpt><trkpt lat="34.02924042640746" lon="-6.702492871690676"><ele>139.0</ele><time>2026-04-28T12:43:10Z</time></trkpt><trkpt lat="34.029156160401726" lon="-6.702776511454937"><ele>139.0</ele><time>2026-04-28T12:43:11Z</time></trkpt><trkpt lat="34.029071393648344" lon="-6.7030609045922835"><ele>138.0</ele><time>2026-04-28T12:43:12Z</time></trkpt><trkpt lat="34.02898828288814" lon="-6.703343866084769"><ele>137.0</ele><time>2026-04-28T12:43:13Z</time></trkpt><trkpt lat="34.028906685283935" lon="-6.703626255884375"><ele>136.0</ele><time>2026-04-28T12:43:14Z</time></trkpt><trkpt lat="34.02882828828515" lon="-6.703910303808952"><ele>135.0</ele><time>2026-04-28T12:43:15Z</time></trkpt><trkpt lat="34.0287490075988" lon="-6.704194652506962"><ele>134.5</ele><time>2026-04-28T12:43:16Z</time></trkpt><trkpt lat="34.02867027695536" lon="-6.70447338545315"><ele>134.0</ele><time>2026-04-28T12:43:17Z</time></trkpt><trkpt lat="34.02859339084918" lon="-6.704740916961849"><ele>134.0</ele><time>2026-04-28T12:43:18Z</time></trkpt><trkpt lat="34.02851670783444" lon="-6.705006951121695"><ele>134.0</ele><time>2026-04-28T12:43:19Z</time></trkpt><trkpt lat="34.0284413945643" lon="-6.705268614929597"><ele>134.0</ele><time>2026-04-28T12:43:20Z</time></trkpt><trkpt lat="34.02836656333476" lon="-6.705525287809424"><ele>134.0</ele><time>2026-04-28T12:43:21Z</time></trkpt><trkpt lat="34.028293264211285" lon="-6.705778967552343"><ele>134.0</ele><time>2026-04-28T12:43:22Z</time></trkpt><trkpt lat="34.028226711363416" lon="-6.706023687844243"><ele>133.66666666666666</ele><time>2026-04-28T12:43:23Z</time></trkpt><trkpt lat="34.028167625477714" lon="-6.706250252622613"><ele>133.33333333333334</ele><time>2026-04-28T12:43:24Z</time></trkpt><trkpt lat="34.02811288503212" lon="-6.706469606264156"><ele>133.0</ele><time>2026-04-28T12:43:25Z</time></trkpt><trkpt lat="34.02806313077773" lon="-6.706678014718224"><ele>133.0</ele><time>2026-04-28T12:43:26Z</time></trkpt><trkpt lat="34.02801721106484" lon="-6.706876607615899"><ele>133.0</ele><time>2026-04-28T12:43:27Z</time></trkpt><trkpt lat="34.027975169132695" lon="-6.707068464100673"><ele>133.0</ele><time>2026-04-28T12:43:28Z</time></trkpt><trkpt lat="34.02794579616456" lon="-6.707265154360386"><ele>131.66666666666669</ele><time>2026-04-28T12:43:29Z</time></trkpt><trkpt lat="34.027929946681574" lon="-6.707470926990177"><ele>130.33333333333334</ele><time>2026-04-28T12:43:30Z</time></trkpt><trkpt lat="34.027931578071176" lon="-6.707682632568403"><ele>129.0</ele><time>2026-04-28T12:43:31Z</time></trkpt><trkpt lat="34.027952544398474" lon="-6.707898284142261"><ele>128.33333333333334</ele><time>2026-04-28T12:43:32Z</time></trkpt><trkpt lat="34.02799167303442" lon="-6.708114289687903"><ele>127.66666666666667</ele><time>2026-04-28T12:43:33Z</time></trkpt><trkpt lat="34.028047328611386" lon="-6.708330353678989"><ele>127.0</ele><time>2026-04-28T12:43:34Z</time></trkpt><trkpt lat="34.02812208243363" lon="-6.708543936457659"><ele>126.66666666666667</ele><time>2026-04-28T12:43:35Z</time></trkpt><trkpt lat="34.028213416624965" lon="-6.708753408239452"><ele>126.33333333333334</ele><time>2026-04-28T12:43:36Z</time></trkpt><trkpt lat="34.02831415707643" lon="-6.708963309566442"><ele>126.0</ele><time>2026-04-28T12:43:37Z</time></trkpt><trkpt lat="34.02842212495842" lon="-6.709175386881203"><ele>125.66666666666666</ele><time>2026-04-28T12:43:38Z</time></trkpt><trkpt lat="34.02853269639327" lon="-6.709389917828996"><ele>125.33333333333333</ele><time>2026-04-28T12:43:39Z</time></trkpt><trkpt lat="34.02864457973265" lon="-6.709608047907392"><ele>125.0</ele><time>2026-04-28T12:43:40Z</time></trkpt><trkpt lat="34.02875525272317" lon="-6.7098258324702424"><ele>124.0</ele><time>2026-04-28T12:43:41Z</time></trkpt><trkpt lat="34.028862879986065" lon="-6.710040352819602"><ele>123.0</ele><time>2026-04-28T12:43:42Z</time></trkpt><trkpt lat="34.0289703603514" lon="-6.710253452438638"><ele>122.0</ele><time>2026-04-28T12:43:43Z</time></trkpt><trkpt lat="34.029078651311295" lon="-6.710464523263598"><ele>121.66666666666666</ele><time>2026-04-28T12:43:44Z</time></trkpt><trkpt lat="34.02919158896217" lon="-6.710671121077581"><ele>121.33333333333334</ele><time>2026-04-28T12:43:45Z</time></trkpt><trkpt lat="34.029313464197166" lon="-6.710866936899219"><ele>121.0</ele><time>2026-04-28T12:43:46Z</time></trkpt><trkpt lat="34.029452880912544" lon="-6.711049598204515"><ele>121.0</ele><time>2026-04-28T12:43:47Z</time></trkpt><trkpt lat="34.02960918296814" lon="-6.711218241435821"><ele>121.0</ele><time>2026-04-28T12:43:48Z</time></trkpt><trkpt lat="34.02978201997852" lon="-6.711370306217291"><ele>121.0</ele><time>2026-04-28T12:43:49Z</time></trkpt><trkpt lat="34.02996769684216" lon="-6.711502421317521"><ele>121.66666666666667</ele><time>2026-04-28T12:43:49.999Z</time></trkpt><trkpt lat="34.0301618060762" lon="-6.711614563838916"><ele>122.33333333333334</ele><time>2026-04-28T12:43:50.999Z</time></trkpt><trkpt lat="34.03036369498055" lon="-6.711706738545864"><ele>123.0</ele><time>2026-04-28T12:43:51.999Z</time></trkpt><trkpt lat="34.03057568219095" lon="-6.711781151487191"><ele>123.0</ele><time>2026-04-28T12:43:52.999Z</time></trkpt><trkpt lat="34.03079661171263" lon="-6.71184146751077"><ele>123.0</ele><time>2026-04-28T12:43:53.999Z</time></trkpt><trkpt lat="34.03102606499278" lon="-6.711888542254422"><ele>122.0</ele><time>2026-04-28T12:43:54.999Z</time></trkpt><trkpt lat="34.031266057508624" lon="-6.711928423348735"><ele>121.0</ele><time>2026-04-28T12:43:55.999Z</time></trkpt><trkpt lat="34.031513941474884" lon="-6.711960683687512"><ele>122.0</ele><time>2026-04-28T12:43:56.999Z</time></trkpt><trkpt lat="34.03177314300367" lon="-6.711988751286874"><ele>123.0</ele><time>2026-04-28T12:43:57.999Z</time></trkpt><trkpt lat="34.03203597595666" lon="-6.712014891458826"><ele>123.0</ele><time>2026-04-28T12:43:58.999Z</time></trkpt><trkpt lat="34.03230189789128" lon="-6.712037101858705"><ele>123.0</ele><time>2026-04-28T12:43:59.999Z</time></trkpt><trkpt lat="34.03257053777954" lon="-6.71205380449198"><ele>124.0</ele><time>2026-04-28T12:44:00.999Z</time></trkpt><trkpt lat="34.032843577728976" lon="-6.712064998436194"><ele>125.0</ele><time>2026-04-28T12:44:01.999Z</time></trkpt><trkpt lat="34.033118701164355" lon="-6.712069558670292"><ele>126.5</ele><time>2026-04-28T12:44:02.999Z</time></trkpt><trkpt lat="34.033396022222824" lon="-6.712066805537352"><ele>128.0</ele><time>2026-04-28T12:44:03.999Z</time></trkpt><trkpt lat="34.0336768808317" lon="-6.71205793620898"><ele>128.0</ele><time>2026-04-28T12:44:04.999Z</time></trkpt><trkpt lat="34.03396415463335" lon="-6.712042931864521"><ele>128.0</ele><time>2026-04-28T12:44:05.999Z</time></trkpt><trkpt lat="34.03425722527349" lon="-6.712024559457557"><ele>128.5</ele><time>2026-04-28T12:44:06.999Z</time></trkpt><trkpt lat="34.0345544141632" lon="-6.712004846502709"><ele>129.0</ele><time>2026-04-28T12:44:07.999Z</time></trkpt><trkpt lat="34.03485463748021" lon="-6.7119838660944025"><ele>130.0</ele><time>2026-04-28T12:44:08.999Z</time></trkpt><trkpt lat="34.0351507466115" lon="-6.711962503125564"><ele>131.0</ele><time>2026-04-28T12:44:09.999Z</time></trkpt><trkpt lat="34.0354445379967" lon="-6.7119394182468834"><ele>131.0</ele><time>2026-04-28T12:44:10.999Z</time></trkpt><trkpt lat="34.035739797342664" lon="-6.711915154796885"><ele>131.0</ele><time>2026-04-28T12:44:11.999Z</time></trkpt><trkpt lat="34.036035659757246" lon="-6.711889790753091"><ele>131.0</ele><time>2026-04-28T12:44:12.999Z</time></trkpt><trkpt lat="34.03633225081132" lon="-6.71186441666797"><ele>131.0</ele><time>2026-04-28T12:44:13.999Z</time></trkpt><trkpt lat="34.03663042137327" lon="-6.711839970366889"><ele>131.0</ele><time>2026-04-28T12:44:14.999Z</time></trkpt><trkpt lat="34.03692711139285" lon="-6.711817277322833"><ele>131.0</ele><time>2026-04-28T12:44:15.999Z</time></trkpt><trkpt lat="34.03722516036859" lon="-6.711795694028941"><ele>130.0</ele><time>2026-04-28T12:44:16.999Z</time></trkpt><trkpt lat="34.03752424782119" lon="-6.711773092328535"><ele>129.0</ele><time>2026-04-28T12:44:17.999Z</time></trkpt><trkpt lat="34.03782487408941" lon="-6.711750098584253"><ele>129.0</ele><time>2026-04-28T12:44:18.999Z</time></trkpt><trkpt lat="34.03812316703703" lon="-6.711728531060488"><ele>129.0</ele><time>2026-04-28T12:44:19.999Z</time></trkpt><trkpt lat="34.03842280579169" lon="-6.711711207776681"><ele>129.0</ele><time>2026-04-28T12:44:20.999Z</time></trkpt><trkpt lat="34.03872113498261" lon="-6.711698151527306"><ele>129.0</ele><time>2026-04-28T12:44:21.999Z</time></trkpt><trkpt lat="34.03902004671787" lon="-6.711688303741005"><ele>127.5</ele><time>2026-04-28T12:44:22.999Z</time></trkpt><trkpt lat="34.039317994085394" lon="-6.711680239385501"><ele>126.0</ele><time>2026-04-28T12:44:23.999Z</time></trkpt><trkpt lat="34.03961771115035" lon="-6.71167496926372"><ele>126.0</ele><time>2026-04-28T12:44:24.999Z</time></trkpt><trkpt lat="34.0399169758303" lon="-6.711671373577732"><ele>126.0</ele><time>2026-04-28T12:44:25.999Z</time></trkpt><trkpt lat="34.040217137446106" lon="-6.711668499102198"><ele>125.0</ele><time>2026-04-28T12:44:26.999Z</time></trkpt><trkpt lat="34.04051596602101" lon="-6.711666365851941"><ele>124.0</ele><time>2026-04-28T12:44:27.999Z</time></trkpt><trkpt lat="34.040813667168486" lon="-6.711666279638842"><ele>124.0</ele><time>2026-04-28T12:44:28.999Z</time></trkpt><trkpt lat="34.041111102727605" lon="-6.711668079717204"><ele>124.0</ele><time>2026-04-28T12:44:29.999Z</time></trkpt><trkpt lat="34.04140887210681" lon="-6.711670132893022"><ele>123.0</ele><time>2026-04-28T12:44:30.999Z</time></trkpt><trkpt lat="34.04170793306435" lon="-6.711671282474666"><ele>122.0</ele><time>2026-04-28T12:44:32Z</time></trkpt><trkpt lat="34.0420068946492" lon="-6.711670126785159"><ele>122.0</ele><time>2026-04-28T12:44:33Z</time></trkpt><trkpt lat="34.04230495985283" lon="-6.7116676296112265"><ele>122.0</ele><time>2026-04-28T12:44:34Z</time></trkpt><trkpt lat="34.042602150610854" lon="-6.711668619862597"><ele>121.0</ele><time>2026-04-28T12:44:35Z</time></trkpt><trkpt lat="34.04289752635601" lon="-6.711672962034579"><ele>120.0</ele><time>2026-04-28T12:44:36Z</time></trkpt><trkpt lat="34.04318921855131" lon="-6.711679172110723"><ele>119.0</ele><time>2026-04-28T12:44:37Z</time></trkpt><trkpt lat="34.04348369249435" lon="-6.711687671928485"><ele>118.0</ele><time>2026-04-28T12:44:38Z</time></trkpt><trkpt lat="34.0437801130313" lon="-6.711693176199176"><ele>118.0</ele><time>2026-04-28T12:44:39Z</time></trkpt><trkpt lat="34.04407697588735" lon="-6.711695922575857"><ele>118.0</ele><time>2026-04-28T12:44:40Z</time></trkpt><trkpt lat="34.04437245707508" lon="-6.7116975753131225"><ele>116.5</ele><time>2026-04-28T12:44:41Z</time></trkpt><trkpt lat="34.044668532220506" lon="-6.711697756494427"><ele>115.0</ele><time>2026-04-28T12:44:42Z</time></trkpt><trkpt lat="34.04496361775533" lon="-6.711695697941159"><ele>115.0</ele><time>2026-04-28T12:44:43Z</time></trkpt><trkpt lat="34.0452593636336" lon="-6.711693293183183"><ele>115.0</ele><time>2026-04-28T12:44:44Z</time></trkpt><trkpt lat="34.045557325605515" lon="-6.711692812355958"><ele>112.5</ele><time>2026-04-28T12:44:45Z</time></trkpt><trkpt lat="34.04585518135704" lon="-6.711693019274039"><ele>110.0</ele><time>2026-04-28T12:44:46Z</time></trkpt><trkpt lat="34.0461505772819" lon="-6.711692164407545"><ele>110.0</ele><time>2026-04-28T12:44:47Z</time></trkpt><trkpt lat="34.04644634058871" lon="-6.711689558068539"><ele>110.0</ele><time>2026-04-28T12:44:48Z</time></trkpt><trkpt lat="34.046741935793875" lon="-6.711687765708025"><ele>109.0</ele><time>2026-04-28T12:44:49Z</time></trkpt><trkpt lat="34.04703916527221" lon="-6.711689003585299"><ele>108.0</ele><time>2026-04-28T12:44:50Z</time></trkpt><trkpt lat="34.04733554239832" lon="-6.7116889123240835"><ele>107.0</ele><time>2026-04-28T12:44:51Z</time></trkpt><trkpt lat="34.0476326448369" lon="-6.7116891606315"><ele>106.0</ele><time>2026-04-28T12:44:52Z</time></trkpt><trkpt lat="34.04793012294494" lon="-6.711689774836775"><ele>106.0</ele><time>2026-04-28T12:44:53Z</time></trkpt><trkpt lat="34.048227970594" lon="-6.711690720441741"><ele>106.0</ele><time>2026-04-28T12:44:54Z</time></trkpt><trkpt lat="34.04852491042226" lon="-6.711690199747278"><ele>107.5</ele><time>2026-04-28T12:44:55Z</time></trkpt><trkpt lat="34.048822767474206" lon="-6.711689919264704"><ele>109.0</ele><time>2026-04-28T12:44:56Z</time></trkpt><trkpt lat="34.04911928949153" lon="-6.7116896815055584"><ele>108.0</ele><time>2026-04-28T12:44:57Z</time></trkpt><trkpt lat="34.04941658152378" lon="-6.711689033659963"><ele>107.0</ele><time>2026-04-28T12:44:58Z</time></trkpt><trkpt lat="34.04971279748204" lon="-6.711689396602269"><ele>107.0</ele><time>2026-04-28T12:44:59Z</time></trkpt><trkpt lat="34.05000872169018" lon="-6.711688846770099"><ele>107.0</ele><time>2026-04-28T12:45:00Z</time></trkpt><trkpt lat="34.050303336438546" lon="-6.711687582092018"><ele>107.0</ele><time>2026-04-28T12:45:01Z</time></trkpt><trkpt lat="34.050598239979024" lon="-6.71168520249151"><ele>107.0</ele><time>2026-04-28T12:45:02Z</time></trkpt><trkpt lat="34.05089406005998" lon="-6.711681456735808"><ele>106.5</ele><time>2026-04-28T12:45:03Z</time></trkpt><trkpt lat="34.05119135536036" lon="-6.711676091141694"><ele>106.0</ele><time>2026-04-28T12:45:04Z</time></trkpt><trkpt lat="34.05148920454564" lon="-6.711670170077021"><ele>105.0</ele><time>2026-04-28T12:45:05Z</time></trkpt><trkpt lat="34.05178843963808" lon="-6.711665744911468"><ele>104.0</ele><time>2026-04-28T12:45:06Z</time></trkpt><trkpt lat="34.052087821395034" lon="-6.711663861834541"><ele>104.0</ele><time>2026-04-28T12:45:07Z</time></trkpt><trkpt lat="34.05238645007439" lon="-6.711665739253573"><ele>104.0</ele><time>2026-04-28T12:45:08Z</time></trkpt><trkpt lat="34.05268379068093" lon="-6.7116691462374005"><ele>104.0</ele><time>2026-04-28T12:45:09Z</time></trkpt><trkpt lat="34.05298197351525" lon="-6.711671444672851"><ele>104.0</ele><time>2026-04-28T12:45:10Z</time></trkpt><trkpt lat="34.053280414831676" lon="-6.711670879258547"><ele>103.0</ele><time>2026-04-28T12:45:11Z</time></trkpt><trkpt lat="34.05357887664018" lon="-6.71166945966974"><ele>102.0</ele><time>2026-04-28T12:45:12Z</time></trkpt><trkpt lat="34.05387682546365" lon="-6.711667905323861"><ele>101.5</ele><time>2026-04-28T12:45:13Z</time></trkpt><trkpt lat="34.05417426915794" lon="-6.711668759227815"><ele>101.0</ele><time>2026-04-28T12:45:14Z</time></trkpt><trkpt lat="34.05446225165578" lon="-6.711669145942999"><ele>101.0</ele><time>2026-04-28T12:45:15Z</time></trkpt><trkpt lat="34.05474661763341" lon="-6.711671196157812"><ele>101.0</ele><time>2026-04-28T12:45:16Z</time></trkpt><trkpt lat="34.05503943492847" lon="-6.711675454699605"><ele>101.5</ele><time>2026-04-28T12:45:17Z</time></trkpt><trkpt lat="34.05533382757335" lon="-6.71167945736634"><ele>102.0</ele><time>2026-04-28T12:45:18Z</time></trkpt><trkpt lat="34.05563100867458" lon="-6.711678032251701"><ele>101.0</ele><time>2026-04-28T12:45:19Z</time></trkpt><trkpt lat="34.055928781445445" lon="-6.7116748361276946"><ele>100.0</ele><time>2026-04-28T12:45:20Z</time></trkpt><trkpt lat="34.05622923452261" lon="-6.711671101182303"><ele>100.0</ele><time>2026-04-28T12:45:21Z</time></trkpt><trkpt lat="34.05653034033964" lon="-6.711669199668331"><ele>100.0</ele><time>2026-04-28T12:45:22Z</time></trkpt><trkpt lat="34.05683207231374" lon="-6.711668317341473"><ele>99.5</ele><time>2026-04-28T12:45:23Z</time></trkpt><trkpt lat="34.05713302536942" lon="-6.71166738409565"><ele>99.0</ele><time>2026-04-28T12:45:24Z</time></trkpt><trkpt lat="34.05743417703883" lon="-6.711666415871087"><ele>99.5</ele><time>2026-04-28T12:45:25Z</time></trkpt><trkpt lat="34.05773473765998" lon="-6.711665465356019"><ele>100.0</ele><time>2026-04-28T12:45:26Z</time></trkpt><trkpt lat="34.058034021630924" lon="-6.711661145657857"><ele>99.0</ele><time>2026-04-28T12:45:27Z</time></trkpt><trkpt lat="34.05833399545088" lon="-6.711652308931283"><ele>98.0</ele><time>2026-04-28T12:45:28Z</time></trkpt><trkpt lat="34.05863331362956" lon="-6.711640378336582"><ele>98.0</ele><time>2026-04-28T12:45:29Z</time></trkpt><trkpt lat="34.05893135787175" lon="-6.711633295137638"><ele>98.0</ele><time>2026-04-28T12:45:30Z</time></trkpt><trkpt lat="34.05921847923581" lon="-6.7116326284335805"><ele>98.0</ele><time>2026-04-28T12:45:31Z</time></trkpt><trkpt lat="34.05949322431432" lon="-6.7116350357321855"><ele>98.0</ele><time>2026-04-28T12:45:32Z</time></trkpt><trkpt lat="34.05975748195717" lon="-6.711635335865774"><ele>98.5</ele><time>2026-04-28T12:45:33Z</time></trkpt><trkpt lat="34.06002516344588" lon="-6.711629896612264"><ele>99.0</ele><time>2026-04-28T12:45:34Z</time></trkpt><trkpt lat="34.06029784134452" lon="-6.711615309377397"><ele>99.0</ele><time>2026-04-28T12:45:35Z</time></trkpt><trkpt lat="34.060570690174096" lon="-6.711593154259347"><ele>99.0</ele><time>2026-04-28T12:45:36Z</time></trkpt><trkpt lat="34.06084302683323" lon="-6.711566319612373"><ele>98.5</ele><time>2026-04-28T12:45:37Z</time></trkpt><trkpt lat="34.061114615927515" lon="-6.71153496508393"><ele>98.0</ele><time>2026-04-28T12:45:38Z</time></trkpt><trkpt lat="34.06139113841532" lon="-6.711496782901119"><ele>96.0</ele><time>2026-04-28T12:45:39Z</time></trkpt><trkpt lat="34.061668557043745" lon="-6.711452726668997"><ele>94.0</ele><time>2026-04-28T12:45:40Z</time></trkpt><trkpt lat="34.06194583329761" lon="-6.711402011747854"><ele>94.0</ele><time>2026-04-28T12:45:41Z</time></trkpt><trkpt lat="34.062226524914514" lon="-6.711345143252784"><ele>94.0</ele><time>2026-04-28T12:45:42Z</time></trkpt><trkpt lat="34.06250795197794" lon="-6.711285901087618"><ele>94.0</ele><time>2026-04-28T12:45:43Z</time></trkpt><trkpt lat="34.06279120028709" lon="-6.711222600846777"><ele>94.0</ele><time>2026-04-28T12:45:44Z</time></trkpt><trkpt lat="34.06307260996418" lon="-6.711153532147201"><ele>94.5</ele><time>2026-04-28T12:45:45Z</time></trkpt><trkpt lat="34.0633555840401" lon="-6.711075363422561"><ele>95.0</ele><time>2026-04-28T12:45:46Z</time></trkpt><trkpt lat="34.063634343544244" lon="-6.710994315499313"><ele>95.0</ele><time>2026-04-28T12:45:47Z</time></trkpt><trkpt lat="34.06387015434052" lon="-6.710920147250006"><ele>95.0</ele><time>2026-04-28T12:45:48Z</time></trkpt><trkpt lat="34.06409126084905" lon="-6.710844255821548"><ele>94.33333333333334</ele><time>2026-04-28T12:45:49Z</time></trkpt><trkpt lat="34.0642962992909" lon="-6.710770364992508"><ele>93.66666666666667</ele><time>2026-04-28T12:45:50Z</time></trkpt><trkpt lat="34.06449406951269" lon="-6.7106971836404385"><ele>93.0</ele><time>2026-04-28T12:45:51Z</time></trkpt><trkpt lat="34.064685656205754" lon="-6.710624092855093"><ele>93.0</ele><time>2026-04-28T12:45:52Z</time></trkpt><trkpt lat="34.06487173283261" lon="-6.710549891712012"><ele>93.0</ele><time>2026-04-28T12:45:53Z</time></trkpt><trkpt lat="34.06505571864713" lon="-6.710475038659038"><ele>93.0</ele><time>2026-04-28T12:45:54Z</time></trkpt><trkpt lat="34.06523683822797" lon="-6.710400150151098"><ele>92.66666666666667</ele><time>2026-04-28T12:45:55Z</time></trkpt><trkpt lat="34.065419182546904" lon="-6.7103213693136015"><ele>92.33333333333334</ele><time>2026-04-28T12:45:56Z</time></trkpt><trkpt lat="34.06560248411382" lon="-6.710240752652973"><ele>92.0</ele><time>2026-04-28T12:45:57Z</time></trkpt><trkpt lat="34.065787555807205" lon="-6.710154445891754"><ele>93.0</ele><time>2026-04-28T12:45:58Z</time></trkpt><trkpt lat="34.065971828048255" lon="-6.71006472414012"><ele>94.0</ele><time>2026-04-28T12:45:59Z</time></trkpt><trkpt lat="34.06615796182951" lon="-6.709973440211656"><ele>95.0</ele><time>2026-04-28T12:46:00Z</time></trkpt><trkpt lat="34.0663447439311" lon="-6.709877683019813"><ele>95.0</ele><time>2026-04-28T12:46:01Z</time></trkpt><trkpt lat="34.06652974678984" lon="-6.709778477181632"><ele>95.0</ele><time>2026-04-28T12:46:02Z</time></trkpt><trkpt lat="34.06671366547588" lon="-6.709676682753707"><ele>95.0</ele><time>2026-04-28T12:46:03Z</time></trkpt><trkpt lat="34.066895293919224" lon="-6.709573808576102"><ele>94.66666666666667</ele><time>2026-04-28T12:46:04Z</time></trkpt><trkpt lat="34.06707789681453" lon="-6.709470252119939"><ele>94.33333333333333</ele><time>2026-04-28T12:46:05Z</time></trkpt><trkpt lat="34.06726064826123" lon="-6.709363585290914"><ele>94.0</ele><time>2026-04-28T12:46:06Z</time></trkpt><trkpt lat="34.067442347751076" lon="-6.709255282369169"><ele>93.0</ele><time>2026-04-28T12:46:07Z</time></trkpt><trkpt lat="34.067624912530256" lon="-6.709142479402859"><ele>92.0</ele><time>2026-04-28T12:46:08Z</time></trkpt><trkpt lat="34.06780750562578" lon="-6.709026160499431"><ele>91.0</ele><time>2026-04-28T12:46:09Z</time></trkpt><trkpt lat="34.06798908805388" lon="-6.708907869845844"><ele>91.0</ele><time>2026-04-28T12:46:10Z</time></trkpt><trkpt lat="34.068170357609446" lon="-6.708786047262673"><ele>91.0</ele><time>2026-04-28T12:46:11Z</time></trkpt><trkpt lat="34.068351232223804" lon="-6.708660243587501"><ele>91.0</ele><time>2026-04-28T12:46:12Z</time></trkpt><trkpt lat="34.06852952888705" lon="-6.70853015080532"><ele>91.33333333333333</ele><time>2026-04-28T12:46:13Z</time></trkpt><trkpt lat="34.06870927123488" lon="-6.708394112153004"><ele>91.66666666666667</ele><time>2026-04-28T12:46:14Z</time></trkpt><trkpt lat="34.06889407942242" lon="-6.7082520660952385"><ele>92.0</ele><time>2026-04-28T12:46:15Z</time></trkpt><trkpt lat="34.06908584580892" lon="-6.708101070024598"><ele>92.5</ele><time>2026-04-28T12:46:16Z</time></trkpt><trkpt lat="34.06928593764716" lon="-6.707940983451356"><ele>93.0</ele><time>2026-04-28T12:46:17Z</time></trkpt><trkpt lat="34.069493397482134" lon="-6.7077732854262795"><ele>93.5</ele><time>2026-04-28T12:46:18Z</time></trkpt><trkpt lat="34.069708505207906" lon="-6.707595798940225"><ele>94.0</ele><time>2026-04-28T12:46:19Z</time></trkpt><trkpt lat="34.06992870323858" lon="-6.707405517480676"><ele>94.5</ele><time>2026-04-28T12:46:20Z</time></trkpt><trkpt lat="34.0701511283245" lon="-6.70720128077071"><ele>95.0</ele><time>2026-04-28T12:46:21Z</time></trkpt><trkpt lat="34.07037646106515" lon="-6.706985340153355"><ele>94.0</ele><time>2026-04-28T12:46:22Z</time></trkpt><trkpt lat="34.07060526490982" lon="-6.706759816356431"><ele>93.0</ele><time>2026-04-28T12:46:23Z</time></trkpt><trkpt lat="34.07083527956111" lon="-6.706532559028434"><ele>92.5</ele><time>2026-04-28T12:46:24Z</time></trkpt><trkpt lat="34.071068444474214" lon="-6.70630920037638"><ele>92.0</ele><time>2026-04-28T12:46:25Z</time></trkpt><trkpt lat="34.07130734062019" lon="-6.70608932882991"><ele>92.5</ele><time>2026-04-28T12:46:26Z</time></trkpt><trkpt lat="34.0715464039353" lon="-6.705875525943495"><ele>93.0</ele><time>2026-04-28T12:46:27Z</time></trkpt><trkpt lat="34.07178751456069" lon="-6.70566072039126"><ele>93.0</ele><time>2026-04-28T12:46:28Z</time></trkpt><trkpt lat="34.07202830008207" lon="-6.705442915603154"><ele>93.0</ele><time>2026-04-28T12:46:29Z</time></trkpt><trkpt lat="34.07226629209848" lon="-6.705223220821486"><ele>92.5</ele><time>2026-04-28T12:46:30Z</time></trkpt><trkpt lat="34.07250465630761" lon="-6.705004583796423"><ele>92.0</ele><time>2026-04-28T12:46:31Z</time></trkpt><trkpt lat="34.072742761296496" lon="-6.704785622874116"><ele>92.0</ele><time>2026-04-28T12:46:32Z</time></trkpt><trkpt lat="34.07298117048328" lon="-6.704565400831408"><ele>92.0</ele><time>2026-04-28T12:46:33Z</time></trkpt><trkpt lat="34.07321889613065" lon="-6.704346486234354"><ele>92.0</ele><time>2026-04-28T12:46:34Z</time></trkpt><trkpt lat="34.07345614255815" lon="-6.704127909603633"><ele>92.0</ele><time>2026-04-28T12:46:35Z</time></trkpt><trkpt lat="34.07369017612684" lon="-6.703908409207138"><ele>92.0</ele><time>2026-04-28T12:46:36Z</time></trkpt><trkpt lat="34.07392300532114" lon="-6.703686670779394"><ele>92.0</ele><time>2026-04-28T12:46:37Z</time></trkpt><trkpt lat="34.07415494735521" lon="-6.703464561916909"><ele>93.0</ele><time>2026-04-28T12:46:38Z</time></trkpt><trkpt lat="34.074386395202076" lon="-6.703241672374534"><ele>94.0</ele><time>2026-04-28T12:46:39Z</time></trkpt><trkpt lat="34.074620894979" lon="-6.703022556586169"><ele>94.0</ele><time>2026-04-28T12:46:40Z</time></trkpt><trkpt lat="34.07485794496544" lon="-6.702806749950094"><ele>94.0</ele><time>2026-04-28T12:46:41Z</time></trkpt><trkpt lat="34.075096505646755" lon="-6.702591791669361"><ele>93.0</ele><time>2026-04-28T12:46:42Z</time></trkpt><trkpt lat="34.07533396691815" lon="-6.702375413940867"><ele>92.0</ele><time>2026-04-28T12:46:43Z</time></trkpt><trkpt lat="34.07556886247572" lon="-6.7021590482110796"><ele>92.0</ele><time>2026-04-28T12:46:44Z</time></trkpt><trkpt lat="34.07580559135861" lon="-6.701941327535201"><ele>92.0</ele><time>2026-04-28T12:46:45Z</time></trkpt><trkpt lat="34.07604267749399" lon="-6.701724275935613"><ele>92.0</ele><time>2026-04-28T12:46:46Z</time></trkpt><trkpt lat="34.07627949862175" lon="-6.701506881217225"><ele>92.0</ele><time>2026-04-28T12:46:47Z</time></trkpt><trkpt lat="34.07651668080201" lon="-6.701287684855228"><ele>92.5</ele><time>2026-04-28T12:46:48Z</time></trkpt><trkpt lat="34.076752602431675" lon="-6.70106815679593"><ele>93.0</ele><time>2026-04-28T12:46:49Z</time></trkpt><trkpt lat="34.076988973603044" lon="-6.700849370278526"><ele>93.0</ele><time>2026-04-28T12:46:50Z</time></trkpt><trkpt lat="34.07722588169196" lon="-6.700630898357298"><ele>93.0</ele><time>2026-04-28T12:46:51Z</time></trkpt><trkpt lat="34.077462574182846" lon="-6.700411515206759"><ele>93.5</ele><time>2026-04-28T12:46:52Z</time></trkpt><trkpt lat="34.07769826783243" lon="-6.700194488509646"><ele>94.0</ele><time>2026-04-28T12:46:53Z</time></trkpt><trkpt lat="34.0779313203466" lon="-6.69998696534149"><ele>94.0</ele><time>2026-04-28T12:46:54Z</time></trkpt><trkpt lat="34.078162227921645" lon="-6.6997854454454675"><ele>94.0</ele><time>2026-04-28T12:46:55Z</time></trkpt><trkpt lat="34.078397716484176" lon="-6.6995806855742375"><ele>93.5</ele><time>2026-04-28T12:46:56Z</time></trkpt><trkpt lat="34.078636599430915" lon="-6.699370622031103"><ele>93.0</ele><time>2026-04-28T12:46:57Z</time></trkpt><trkpt lat="34.078872882573805" lon="-6.699155626252427"><ele>93.5</ele><time>2026-04-28T12:46:58Z</time></trkpt><trkpt lat="34.07910765037359" lon="-6.69893940972717"><ele>94.0</ele><time>2026-04-28T12:46:59Z</time></trkpt><trkpt lat="34.079342278644795" lon="-6.698719675273846"><ele>93.5</ele><time>2026-04-28T12:47:00Z</time></trkpt><trkpt lat="34.07957774702004" lon="-6.69849901878107"><ele>93.0</ele><time>2026-04-28T12:47:01Z</time></trkpt><trkpt lat="34.079816072056076" lon="-6.69827943320487"><ele>93.0</ele><time>2026-04-28T12:47:02Z</time></trkpt><trkpt lat="34.08005369388045" lon="-6.698061883128972"><ele>93.0</ele><time>2026-04-28T12:47:03Z</time></trkpt><trkpt lat="34.080290324133834" lon="-6.697844385433989"><ele>93.5</ele><time>2026-04-28T12:47:04Z</time></trkpt><trkpt lat="34.08052327040581" lon="-6.697627509730006"><ele>94.0</ele><time>2026-04-28T12:47:05Z</time></trkpt><trkpt lat="34.08075589288543" lon="-6.697410929374423"><ele>93.5</ele><time>2026-04-28T12:47:06Z</time></trkpt><trkpt lat="34.08098993677035" lon="-6.697192591344048"><ele>93.0</ele><time>2026-04-28T12:47:07Z</time></trkpt><trkpt lat="34.081226417404224" lon="-6.696975765738877"><ele>93.0</ele><time>2026-04-28T12:47:08Z</time></trkpt><trkpt lat="34.08146150569686" lon="-6.696758293094015"><ele>93.0</ele><time>2026-04-28T12:47:09Z</time></trkpt><trkpt lat="34.081696129186426" lon="-6.696540541158434"><ele>93.0</ele><time>2026-04-28T12:47:10Z</time></trkpt><trkpt lat="34.08193124611868" lon="-6.6963228981876926"><ele>93.0</ele><time>2026-04-28T12:47:11Z</time></trkpt><trkpt lat="34.082166808631364" lon="-6.6961054182194975"><ele>92.5</ele><time>2026-04-28T12:47:12Z</time></trkpt><trkpt lat="34.082402950127815" lon="-6.695887296111546"><ele>92.0</ele><time>2026-04-28T12:47:13Z</time></trkpt><trkpt lat="34.08263821318917" lon="-6.695669571128901"><ele>93.0</ele><time>2026-04-28T12:47:14Z</time></trkpt><trkpt lat="34.08287432515843" lon="-6.695449445063219"><ele>94.0</ele><time>2026-04-28T12:47:15Z</time></trkpt><trkpt lat="34.08311032188693" lon="-6.695230280956859"><ele>92.5</ele><time>2026-04-28T12:47:16Z</time></trkpt><trkpt lat="34.08334473148676" lon="-6.695012990203941"><ele>91.0</ele><time>2026-04-28T12:47:17Z</time></trkpt><trkpt lat="34.08357888710383" lon="-6.694791995435636"><ele>91.0</ele><time>2026-04-28T12:47:18Z</time></trkpt><trkpt lat="34.083812970002626" lon="-6.694573408563864"><ele>91.0</ele><time>2026-04-28T12:47:19Z</time></trkpt><trkpt lat="34.0840482765318" lon="-6.6943535841305195"><ele>91.0</ele><time>2026-04-28T12:47:20Z</time></trkpt><trkpt lat="34.0842845148423" lon="-6.6941324522804715"><ele>91.0</ele><time>2026-04-28T12:47:21Z</time></trkpt><trkpt lat="34.08475178416774" lon="-6.693689655028181"><ele>92.0</ele><time>2026-04-28T12:47:23Z</time></trkpt><trkpt lat="34.08498523225919" lon="-6.693467805882007"><ele>93.0</ele><time>2026-04-28T12:47:24Z</time></trkpt><trkpt lat="34.085218621448156" lon="-6.693246051265371"><ele>93.0</ele><time>2026-04-28T12:47:25Z</time></trkpt><trkpt lat="34.08545370272526" lon="-6.69302452631752"><ele>93.0</ele><time>2026-04-28T12:47:26Z</time></trkpt><trkpt lat="34.08568980494148" lon="-6.692804447685741"><ele>92.5</ele><time>2026-04-28T12:47:27Z</time></trkpt><trkpt lat="34.085926176385684" lon="-6.6925855910444945"><ele>92.0</ele><time>2026-04-28T12:47:28Z</time></trkpt><trkpt lat="34.08616346241604" lon="-6.692365749205047"><ele>92.0</ele><time>2026-04-28T12:47:29Z</time></trkpt><trkpt lat="34.086401440211745" lon="-6.692150318509987"><ele>92.0</ele><time>2026-04-28T12:47:30Z</time></trkpt><trkpt lat="34.0866397625124" lon="-6.691933923732425"><ele>91.5</ele><time>2026-04-28T12:47:31Z</time></trkpt><trkpt lat="34.08687909386076" lon="-6.691716539392325"><ele>91.0</ele><time>2026-04-28T12:47:32Z</time></trkpt><trkpt lat="34.087117564988574" lon="-6.691500119095383"><ele>91.0</ele><time>2026-04-28T12:47:33Z</time></trkpt><trkpt lat="34.08735700620174" lon="-6.691285324960546"><ele>91.0</ele><time>2026-04-28T12:47:34Z</time></trkpt><trkpt lat="34.08759735393129" lon="-6.691072422049775"><ele>91.5</ele><time>2026-04-28T12:47:35Z</time></trkpt><trkpt lat="34.08783776221881" lon="-6.690859750691489"><ele>92.0</ele><time>2026-04-28T12:47:36Z</time></trkpt><trkpt lat="34.08807751730655" lon="-6.690647019474094"><ele>92.0</ele><time>2026-04-28T12:47:37Z</time></trkpt><trkpt lat="34.088316035284905" lon="-6.690431336072315"><ele>92.0</ele><time>2026-04-28T12:47:38Z</time></trkpt><trkpt lat="34.088551642155686" lon="-6.690212967235119"><ele>92.0</ele><time>2026-04-28T12:47:39Z</time></trkpt><trkpt lat="34.08878647347185" lon="-6.689992127470009"><ele>92.0</ele><time>2026-04-28T12:47:40Z</time></trkpt><trkpt lat="34.08902110997333" lon="-6.689770399398007"><ele>92.0</ele><time>2026-04-28T12:47:41Z</time></trkpt><trkpt lat="34.08925424640778" lon="-6.689548334105501"><ele>92.0</ele><time>2026-04-28T12:47:42Z</time></trkpt><trkpt lat="34.08949091910193" lon="-6.689330659205153"><ele>92.5</ele><time>2026-04-28T12:47:43Z</time></trkpt><trkpt lat="34.089729899334515" lon="-6.689118624925155"><ele>93.0</ele><time>2026-04-28T12:47:44Z</time></trkpt><trkpt lat="34.08997182488417" lon="-6.6889139280629575"><ele>93.5</ele><time>2026-04-28T12:47:45Z</time></trkpt><trkpt lat="34.090217160260316" lon="-6.688716702945846"><ele>94.0</ele><time>2026-04-28T12:47:46Z</time></trkpt><trkpt lat="34.09046522570593" lon="-6.688518883989017"><ele>94.0</ele><time>2026-04-28T12:47:47Z</time></trkpt><trkpt lat="34.090713329429256" lon="-6.68831871524256"><ele>94.0</ele><time>2026-04-28T12:47:48Z</time></trkpt><trkpt lat="34.09096161495449" lon="-6.6881220397177845"><ele>94.0</ele><time>2026-04-28T12:47:49Z</time></trkpt><trkpt lat="34.09121149189291" lon="-6.687924865046006"><ele>94.0</ele><time>2026-04-28T12:47:50Z</time></trkpt><trkpt lat="34.09146248847029" lon="-6.687729939071643"><ele>92.5</ele><time>2026-04-28T12:47:51Z</time></trkpt><trkpt lat="34.0917148670276" lon="-6.687537615384916"><ele>91.0</ele><time>2026-04-28T12:47:52Z</time></trkpt><trkpt lat="34.0919692788634" lon="-6.687347315535296"><ele>91.0</ele><time>2026-04-28T12:47:53Z</time></trkpt><trkpt lat="34.09222490618442" lon="-6.687162617374547"><ele>91.0</ele><time>2026-04-28T12:47:54Z</time></trkpt><trkpt lat="34.09248407825446" lon="-6.686986906680564"><ele>92.0</ele><time>2026-04-28T12:47:55Z</time></trkpt><trkpt lat="34.09274668139629" lon="-6.686820882448101"><ele>93.0</ele><time>2026-04-28T12:47:56Z</time></trkpt><trkpt lat="34.09301340321899" lon="-6.686662060639717"><ele>91.5</ele><time>2026-04-28T12:47:57Z</time></trkpt><trkpt lat="34.093281592632984" lon="-6.6865070129538475"><ele>90.0</ele><time>2026-04-28T12:47:58Z</time></trkpt><trkpt lat="34.09355313877187" lon="-6.6863552226921925"><ele>90.0</ele><time>2026-04-28T12:47:59Z</time></trkpt><trkpt lat="34.09382575185045" lon="-6.686209461851387"><ele>90.0</ele><time>2026-04-28T12:48:00Z</time></trkpt><trkpt lat="34.09409950866925" lon="-6.686067259076681"><ele>89.5</ele><time>2026-04-28T12:48:01Z</time></trkpt><trkpt lat="34.094374182223845" lon="-6.685928926756534"><ele>89.0</ele><time>2026-04-28T12:48:02Z</time></trkpt><trkpt lat="34.094650095077014" lon="-6.685797324266055"><ele>89.0</ele><time>2026-04-28T12:48:03Z</time></trkpt><trkpt lat="34.094928563628784" lon="-6.685673752956135"><ele>89.0</ele><time>2026-04-28T12:48:04Z</time></trkpt><trkpt lat="34.09520967528863" lon="-6.68555739626036"><ele>89.0</ele><time>2026-04-28T12:48:05Z</time></trkpt><trkpt lat="34.09549312573563" lon="-6.685445503093722"><ele>89.0</ele><time>2026-04-28T12:48:05.999Z</time></trkpt><trkpt lat="34.0957779860958" lon="-6.685341535486938"><ele>89.5</ele><time>2026-04-28T12:48:06.999Z</time></trkpt><trkpt lat="34.09606521362849" lon="-6.68524152847908"><ele>90.0</ele><time>2026-04-28T12:48:07.999Z</time></trkpt><trkpt lat="34.096352062983506" lon="-6.685147375883512"><ele>89.0</ele><time>2026-04-28T12:48:08.999Z</time></trkpt><trkpt lat="34.09664092259101" lon="-6.685059546471595"><ele>88.0</ele><time>2026-04-28T12:48:09.999Z</time></trkpt><trkpt lat="34.09692879969244" lon="-6.684975940406739"><ele>88.0</ele><time>2026-04-28T12:48:10.999Z</time></trkpt><trkpt lat="34.09721848878531" lon="-6.684896571199938"><ele>88.0</ele><time>2026-04-28T12:48:11.999Z</time></trkpt><trkpt lat="34.097509178442195" lon="-6.684823817801072"><ele>88.0</ele><time>2026-04-28T12:48:12.999Z</time></trkpt><trkpt lat="34.09779923684559" lon="-6.684758710943881"><ele>88.0</ele><time>2026-04-28T12:48:13.999Z</time></trkpt><trkpt lat="34.09809265575135" lon="-6.684700799764199"><ele>87.5</ele><time>2026-04-28T12:48:14.999Z</time></trkpt><trkpt lat="34.09838462210042" lon="-6.68465034243139"><ele>87.0</ele><time>2026-04-28T12:48:15.999Z</time></trkpt><trkpt lat="34.098677093562166" lon="-6.6846034185767875"><ele>87.0</ele><time>2026-04-28T12:48:16.999Z</time></trkpt><trkpt lat="34.09897036470035" lon="-6.6845612840182556"><ele>87.0</ele><time>2026-04-28T12:48:17.999Z</time></trkpt><trkpt lat="34.099264686146576" lon="-6.684525361223388"><ele>87.0</ele><time>2026-04-28T12:48:18.999Z</time></trkpt><trkpt lat="34.099560094483905" lon="-6.684493061433771"><ele>87.0</ele><time>2026-04-28T12:48:19.999Z</time></trkpt><trkpt lat="34.09985869428621" lon="-6.6844652330704015"><ele>89.0</ele><time>2026-04-28T12:48:20.999Z</time></trkpt><trkpt lat="34.1001569930222" lon="-6.68444505883284"><ele>91.0</ele><time>2026-04-28T12:48:21.999Z</time></trkpt><trkpt lat="34.100455318035436" lon="-6.684431906842364"><ele>92.0</ele><time>2026-04-28T12:48:22.999Z</time></trkpt><trkpt lat="34.10075430449623" lon="-6.684426294740905"><ele>93.0</ele><time>2026-04-28T12:48:23.999Z</time></trkpt><trkpt lat="34.10105231228272" lon="-6.684429301085879"><ele>93.0</ele><time>2026-04-28T12:48:24.999Z</time></trkpt><trkpt lat="34.10134977021954" lon="-6.684438486691064"><ele>93.0</ele><time>2026-04-28T12:48:25.999Z</time></trkpt><trkpt lat="34.10164794307722" lon="-6.684452707719484"><ele>91.5</ele><time>2026-04-28T12:48:26.999Z</time></trkpt><trkpt lat="34.101945827224164" lon="-6.684472647456429"><ele>90.0</ele><time>2026-04-28T12:48:27.999Z</time></trkpt><trkpt lat="34.10224392251808" lon="-6.684500638953947"><ele>88.5</ele><time>2026-04-28T12:48:28.999Z</time></trkpt><trkpt lat="34.10254225177947" lon="-6.684536074475538"><ele>87.0</ele><time>2026-04-28T12:48:29.999Z</time></trkpt><trkpt lat="34.10283861965439" lon="-6.6845747663711625"><ele>87.0</ele><time>2026-04-28T12:48:30.999Z</time></trkpt><trkpt lat="34.10313549695302" lon="-6.684616215452713"><ele>87.0</ele><time>2026-04-28T12:48:31.999Z</time></trkpt><trkpt lat="34.10343230868351" lon="-6.684657464902412"><ele>86.5</ele><time>2026-04-28T12:48:32.999Z</time></trkpt><trkpt lat="34.103727607192496" lon="-6.684700546518646"><ele>86.0</ele><time>2026-04-28T12:48:33.999Z</time></trkpt><trkpt lat="34.104022694117106" lon="-6.684748020737675"><ele>86.5</ele><time>2026-04-28T12:48:34.999Z</time></trkpt><trkpt lat="34.104316229280656" lon="-6.684799038931749"><ele>87.0</ele><time>2026-04-28T12:48:35.999Z</time></trkpt><trkpt lat="34.10460879696471" lon="-6.684855547773405"><ele>87.0</ele><time>2026-04-28T12:48:36.999Z</time></trkpt><trkpt lat="34.10490077055749" lon="-6.6849158688447385"><ele>87.0</ele><time>2026-04-28T12:48:37.999Z</time></trkpt><trkpt lat="34.105192258691666" lon="-6.684981311189549"><ele>87.0</ele><time>2026-04-28T12:48:38.999Z</time></trkpt><trkpt lat="34.105483668671894" lon="-6.685051317310066"><ele>87.0</ele><time>2026-04-28T12:48:39.999Z</time></trkpt><trkpt lat="34.105773912591644" lon="-6.685122767185955"><ele>87.5</ele><time>2026-04-28T12:48:40.999Z</time></trkpt><trkpt lat="34.1060656959819" lon="-6.685196829801198"><ele>88.0</ele><time>2026-04-28T12:48:41.999Z</time></trkpt><trkpt lat="34.1063564625032" lon="-6.685275525734452"><ele>87.0</ele><time>2026-04-28T12:48:42.999Z</time></trkpt><trkpt lat="34.106647287035045" lon="-6.685360323161737"><ele>86.0</ele><time>2026-04-28T12:48:44Z</time></trkpt><trkpt lat="34.106937178866566" lon="-6.685446897145661"><ele>86.0</ele><time>2026-04-28T12:48:45Z</time></trkpt><trkpt lat="34.1072268001128" lon="-6.685531477639562"><ele>86.0</ele><time>2026-04-28T12:48:46Z</time></trkpt><trkpt lat="34.10751771661908" lon="-6.685611637834606"><ele>84.5</ele><time>2026-04-28T12:48:47Z</time></trkpt><trkpt lat="34.107807804765045" lon="-6.685691242061679"><ele>83.0</ele><time>2026-04-28T12:48:48Z</time></trkpt><trkpt lat="34.10809946810618" lon="-6.685774976029641"><ele>82.5</ele><time>2026-04-28T12:48:49Z</time></trkpt><trkpt lat="34.108390106478254" lon="-6.685859420922422"><ele>82.0</ele><time>2026-04-28T12:48:50Z</time></trkpt><trkpt lat="34.108680856009535" lon="-6.685942059700388"><ele>82.0</ele><time>2026-04-28T12:48:51Z</time></trkpt><trkpt lat="34.10897242289303" lon="-6.686025678225618"><ele>82.0</ele><time>2026-04-28T12:48:52Z</time></trkpt><trkpt lat="34.10926304902274" lon="-6.686109042972014"><ele>81.5</ele><time>2026-04-28T12:48:53Z</time></trkpt><trkpt lat="34.10955371470113" lon="-6.686192287926345"><ele>81.0</ele><time>2026-04-28T12:48:54Z</time></trkpt><trkpt lat="34.10984452000996" lon="-6.686275020393482"><ele>79.5</ele><time>2026-04-28T12:48:55Z</time></trkpt><trkpt lat="34.11013547300724" lon="-6.686357069511931"><ele>78.0</ele><time>2026-04-28T12:48:56Z</time></trkpt><trkpt lat="34.11042717851321" lon="-6.68643949515516"><ele>78.0</ele><time>2026-04-28T12:48:57Z</time></trkpt><trkpt lat="34.11071863304767" lon="-6.686522385189368"><ele>78.0</ele><time>2026-04-28T12:48:58Z</time></trkpt><trkpt lat="34.11100901180439" lon="-6.686605118825322"><ele>78.5</ele><time>2026-04-28T12:48:59Z</time></trkpt><trkpt lat="34.11129909532667" lon="-6.686688789118475"><ele>79.0</ele><time>2026-04-28T12:49:00Z</time></trkpt><trkpt lat="34.111589169658096" lon="-6.686772408845272"><ele>79.5</ele><time>2026-04-28T12:49:01Z</time></trkpt><trkpt lat="34.11187855864237" lon="-6.686855624840228"><ele>80.0</ele><time>2026-04-28T12:49:02Z</time></trkpt><trkpt lat="34.11216734524529" lon="-6.686939662812782"><ele>78.0</ele><time>2026-04-28T12:49:03Z</time></trkpt><trkpt lat="34.11245478486491" lon="-6.687024187033098"><ele>76.0</ele><time>2026-04-28T12:49:04Z</time></trkpt><trkpt lat="34.11274325066522" lon="-6.687108702529577"><ele>76.0</ele><time>2026-04-28T12:49:05Z</time></trkpt><trkpt lat="34.113031994978414" lon="-6.687192853575048"><ele>76.0</ele><time>2026-04-28T12:49:06Z</time></trkpt><trkpt lat="34.11332236140041" lon="-6.687273552557484"><ele>75.5</ele><time>2026-04-28T12:49:07Z</time></trkpt><trkpt lat="34.11361349245103" lon="-6.6873487928691535"><ele>75.0</ele><time>2026-04-28T12:49:08Z</time></trkpt><trkpt lat="34.11390444439226" lon="-6.6874191072004265"><ele>74.5</ele><time>2026-04-28T12:49:09Z</time></trkpt><trkpt lat="34.114196344702634" lon="-6.687486215709334"><ele>74.0</ele><time>2026-04-28T12:49:10Z</time></trkpt><trkpt lat="34.114488366752575" lon="-6.687549638786156"><ele>74.0</ele><time>2026-04-28T12:49:11Z</time></trkpt><trkpt lat="34.114781380162775" lon="-6.687606711447023"><ele>74.0</ele><time>2026-04-28T12:49:12Z</time></trkpt><trkpt lat="34.115073907273896" lon="-6.68765727002174"><ele>74.5</ele><time>2026-04-28T12:49:13Z</time></trkpt><trkpt lat="34.11536883025037" lon="-6.687701019727736"><ele>75.0</ele><time>2026-04-28T12:49:14Z</time></trkpt><trkpt lat="34.11566297328582" lon="-6.687741449772852"><ele>74.0</ele><time>2026-04-28T12:49:15Z</time></trkpt><trkpt lat="34.11595747910159" lon="-6.687777148851553"><ele>73.0</ele><time>2026-04-28T12:49:16Z</time></trkpt><trkpt lat="34.116252096258215" lon="-6.687807997450387"><ele>73.0</ele><time>2026-04-28T12:49:17Z</time></trkpt><trkpt lat="34.116547894257394" lon="-6.687832485222961"><ele>73.0</ele><time>2026-04-28T12:49:18Z</time></trkpt><trkpt lat="34.11684474927152" lon="-6.687850433007248"><ele>73.0</ele><time>2026-04-28T12:49:19Z</time></trkpt><trkpt lat="34.11714292047529" lon="-6.687862470135516"><ele>73.0</ele><time>2026-04-28T12:49:20Z</time></trkpt><trkpt lat="34.11744121656092" lon="-6.6878691848821274"><ele>72.5</ele><time>2026-04-28T12:49:21Z</time></trkpt><trkpt lat="34.117739515022805" lon="-6.687869958404586"><ele>72.0</ele><time>2026-04-28T12:49:22Z</time></trkpt><trkpt lat="34.118037648723366" lon="-6.687864810753184"><ele>72.0</ele><time>2026-04-28T12:49:23Z</time></trkpt><trkpt lat="34.118337471873275" lon="-6.687854167683168"><ele>72.0</ele><time>2026-04-28T12:49:24Z</time></trkpt><trkpt lat="34.11863833186091" lon="-6.687837393000089"><ele>72.0</ele><time>2026-04-28T12:49:25Z</time></trkpt><trkpt lat="34.11893738933552" lon="-6.687812067001234"><ele>72.0</ele><time>2026-04-28T12:49:26Z</time></trkpt><trkpt lat="34.11923623539921" lon="-6.687781044407173"><ele>72.0</ele><time>2026-04-28T12:49:27Z</time></trkpt><trkpt lat="34.11953481342054" lon="-6.687744542903047"><ele>72.0</ele><time>2026-04-28T12:49:28Z</time></trkpt><trkpt lat="34.119833560533344" lon="-6.687703722966014"><ele>70.5</ele><time>2026-04-28T12:49:29Z</time></trkpt><trkpt lat="34.120132193855554" lon="-6.687655680320016"><ele>69.0</ele><time>2026-04-28T12:49:30Z</time></trkpt><trkpt lat="34.12042862120124" lon="-6.687600271631106"><ele>69.0</ele><time>2026-04-28T12:49:31Z</time></trkpt><trkpt lat="34.12072443414298" lon="-6.687537715333217"><ele>69.0</ele><time>2026-04-28T12:49:32Z</time></trkpt><trkpt lat="34.121017621656144" lon="-6.687470797432901"><ele>69.0</ele><time>2026-04-28T12:49:33Z</time></trkpt><trkpt lat="34.12130908630488" lon="-6.6874014230068415"><ele>69.0</ele><time>2026-04-28T12:49:34Z</time></trkpt><trkpt lat="34.12160005851496" lon="-6.68732883161848"><ele>67.5</ele><time>2026-04-28T12:49:35Z</time></trkpt><trkpt lat="34.12189175627635" lon="-6.687253906382352"><ele>66.0</ele><time>2026-04-28T12:49:36Z</time></trkpt><trkpt lat="34.122182619397364" lon="-6.687175867019006"><ele>65.0</ele><time>2026-04-28T12:49:37Z</time></trkpt><trkpt lat="34.122473281996704" lon="-6.687094043069734"><ele>64.0</ele><time>2026-04-28T12:49:38Z</time></trkpt><trkpt lat="34.12276297871859" lon="-6.6870092083981465"><ele>65.0</ele><time>2026-04-28T12:49:39Z</time></trkpt><trkpt lat="34.12305307301808" lon="-6.686923672549331"><ele>66.0</ele><time>2026-04-28T12:49:40Z</time></trkpt><trkpt lat="34.12334567003095" lon="-6.686838677446962"><ele>66.5</ele><time>2026-04-28T12:49:41Z</time></trkpt><trkpt lat="34.12363706850437" lon="-6.686756997594612"><ele>67.0</ele><time>2026-04-28T12:49:42Z</time></trkpt><trkpt lat="34.12392381183699" lon="-6.686676714339167"><ele>66.0</ele><time>2026-04-28T12:49:43Z</time></trkpt><trkpt lat="34.1242125525741" lon="-6.686600951603339"><ele>65.0</ele><time>2026-04-28T12:49:44Z</time></trkpt><trkpt lat="34.12450306205249" lon="-6.686522577655486"><ele>65.0</ele><time>2026-04-28T12:49:45Z</time></trkpt><trkpt lat="34.124791116466845" lon="-6.686439310007674"><ele>65.0</ele><time>2026-04-28T12:49:46Z</time></trkpt><trkpt lat="34.125076373306285" lon="-6.686353623207382"><ele>63.0</ele><time>2026-04-28T12:49:47Z</time></trkpt><trkpt lat="34.12536253328354" lon="-6.686266345175961"><ele>61.0</ele><time>2026-04-28T12:49:48Z</time></trkpt><trkpt lat="34.12564931179739" lon="-6.686179196357003"><ele>63.0</ele><time>2026-04-28T12:49:49Z</time></trkpt><trkpt lat="34.125935623045166" lon="-6.68609377185167"><ele>65.0</ele><time>2026-04-28T12:49:50Z</time></trkpt><trkpt lat="34.12622407865164" lon="-6.686007497634188"><ele>65.0</ele><time>2026-04-28T12:49:51Z</time></trkpt><trkpt lat="34.12651231189997" lon="-6.685919345869886"><ele>65.0</ele><time>2026-04-28T12:49:52Z</time></trkpt><trkpt lat="34.12680000172767" lon="-6.685827496915781"><ele>63.0</ele><time>2026-04-28T12:49:53Z</time></trkpt><trkpt lat="34.12708656590703" lon="-6.6857334324637865"><ele>61.0</ele><time>2026-04-28T12:49:54Z</time></trkpt><trkpt lat="34.12737426000839" lon="-6.685637957154012"><ele>60.5</ele><time>2026-04-28T12:49:55Z</time></trkpt><trkpt lat="34.127661597542286" lon="-6.685544636031587"><ele>60.0</ele><time>2026-04-28T12:49:56Z</time></trkpt><trkpt lat="34.12794981385269" lon="-6.6854525658258055"><ele>59.0</ele><time>2026-04-28T12:49:57Z</time></trkpt><trkpt lat="34.12823927090159" lon="-6.68536407931467"><ele>58.0</ele><time>2026-04-28T12:49:58Z</time></trkpt><trkpt lat="34.12852996037774" lon="-6.685279594670959"><ele>59.0</ele><time>2026-04-28T12:49:59Z</time></trkpt><trkpt lat="34.12882063611328" lon="-6.6851967989336005"><ele>60.0</ele><time>2026-04-28T12:50:00Z</time></trkpt><trkpt lat="34.12911040541586" lon="-6.6851130407813075"><ele>60.0</ele><time>2026-04-28T12:50:01Z</time></trkpt><trkpt lat="34.129400623185525" lon="-6.685027049900687"><ele>60.0</ele><time>2026-04-28T12:50:02Z</time></trkpt><trkpt lat="34.12969082720674" lon="-6.684939257490201"><ele>57.5</ele><time>2026-04-28T12:50:03Z</time></trkpt><trkpt lat="34.129979792424976" lon="-6.684850562917705"><ele>55.0</ele><time>2026-04-28T12:50:04Z</time></trkpt><trkpt lat="34.130250987561595" lon="-6.684766412517328"><ele>55.0</ele><time>2026-04-28T12:50:05Z</time></trkpt><trkpt lat="34.13051193541009" lon="-6.684689216339909"><ele>55.0</ele><time>2026-04-28T12:50:06Z</time></trkpt><trkpt lat="34.130767741198426" lon="-6.684615892077488"><ele>54.5</ele><time>2026-04-28T12:50:07Z</time></trkpt><trkpt lat="34.13101467908549" lon="-6.684544382611251"><ele>54.0</ele><time>2026-04-28T12:50:08Z</time></trkpt><trkpt lat="34.1312567448807" lon="-6.684475821081087"><ele>55.0</ele><time>2026-04-28T12:50:09Z</time></trkpt><trkpt lat="34.13149342162278" lon="-6.684409522493111"><ele>56.0</ele><time>2026-04-28T12:50:10Z</time></trkpt><trkpt lat="34.13172774853677" lon="-6.6843460327657205"><ele>56.0</ele><time>2026-04-28T12:50:11Z</time></trkpt><trkpt lat="34.13196295175402" lon="-6.684283834991791"><ele>56.0</ele><time>2026-04-28T12:50:12Z</time></trkpt><trkpt lat="34.1321991130561" lon="-6.684221672652382"><ele>55.5</ele><time>2026-04-28T12:50:13Z</time></trkpt><trkpt lat="34.13243362442779" lon="-6.684154116895222"><ele>55.0</ele><time>2026-04-28T12:50:14Z</time></trkpt><trkpt lat="34.13266463751953" lon="-6.684082179850788"><ele>55.0</ele><time>2026-04-28T12:50:15Z</time></trkpt><trkpt lat="34.132893449473215" lon="-6.684006339399569"><ele>55.0</ele><time>2026-04-28T12:50:16Z</time></trkpt><trkpt lat="34.13311988171722" lon="-6.683927754612123"><ele>55.0</ele><time>2026-04-28T12:50:17Z</time></trkpt><trkpt lat="34.133343550115576" lon="-6.683849973970527"><ele>55.0</ele><time>2026-04-28T12:50:18Z</time></trkpt><trkpt lat="34.133566355394166" lon="-6.6837750603653"><ele>55.0</ele><time>2026-04-28T12:50:19Z</time></trkpt><trkpt lat="34.13378969021281" lon="-6.68370412784899"><ele>55.0</ele><time>2026-04-28T12:50:20Z</time></trkpt><trkpt lat="34.13401456286995" lon="-6.683637340183465"><ele>55.5</ele><time>2026-04-28T12:50:21Z</time></trkpt><trkpt lat="34.13423978383077" lon="-6.683573073979871"><ele>56.0</ele><time>2026-04-28T12:50:22Z</time></trkpt><trkpt lat="34.134464995624406" lon="-6.68350796031444"><ele>56.0</ele><time>2026-04-28T12:50:23Z</time></trkpt><trkpt lat="34.13468828308666" lon="-6.683440498136268"><ele>56.0</ele><time>2026-04-28T12:50:24Z</time></trkpt><trkpt lat="34.13491083494914" lon="-6.683372256844851"><ele>55.5</ele><time>2026-04-28T12:50:25Z</time></trkpt><trkpt lat="34.13513303509417" lon="-6.683304124977232"><ele>55.0</ele><time>2026-04-28T12:50:26Z</time></trkpt><trkpt lat="34.13535820370559" lon="-6.683236134539675"><ele>55.0</ele><time>2026-04-28T12:50:27Z</time></trkpt><trkpt lat="34.13558607775444" lon="-6.683169050344878"><ele>55.0</ele><time>2026-04-28T12:50:28Z</time></trkpt><trkpt lat="34.13581625097889" lon="-6.6831028536577675"><ele>55.5</ele><time>2026-04-28T12:50:29Z</time></trkpt><trkpt lat="34.13604928909596" lon="-6.683036078439782"><ele>56.0</ele><time>2026-04-28T12:50:30Z</time></trkpt><trkpt lat="34.13628232242174" lon="-6.682968610567087"><ele>56.0</ele><time>2026-04-28T12:50:31Z</time></trkpt><trkpt lat="34.136515996902965" lon="-6.682899599590511"><ele>56.0</ele><time>2026-04-28T12:50:32Z</time></trkpt><trkpt lat="34.13675412610869" lon="-6.682827580244317"><ele>56.5</ele><time>2026-04-28T12:50:33Z</time></trkpt><trkpt lat="34.13699434783923" lon="-6.68275631632479"><ele>57.0</ele><time>2026-04-28T12:50:34Z</time></trkpt><trkpt lat="34.137232298796235" lon="-6.682688543881253"><ele>57.5</ele><time>2026-04-28T12:50:35Z</time></trkpt><trkpt lat="34.13747645819832" lon="-6.6826211822132375"><ele>58.0</ele><time>2026-04-28T12:50:36Z</time></trkpt><trkpt lat="34.137726021252654" lon="-6.682556330949653"><ele>58.0</ele><time>2026-04-28T12:50:37Z</time></trkpt><trkpt lat="34.13797821218748" lon="-6.682490744749589"><ele>58.0</ele><time>2026-04-28T12:50:38Z</time></trkpt><trkpt lat="34.138233746936386" lon="-6.682421132217652"><ele>59.0</ele><time>2026-04-28T12:50:39Z</time></trkpt><trkpt lat="34.13849068185698" lon="-6.682348291964695"><ele>60.0</ele><time>2026-04-28T12:50:40Z</time></trkpt><trkpt lat="34.13874931285557" lon="-6.682270728455378"><ele>60.0</ele><time>2026-04-28T12:50:41Z</time></trkpt><trkpt lat="34.13900453975122" lon="-6.682191132750619"><ele>60.0</ele><time>2026-04-28T12:50:42Z</time></trkpt><trkpt lat="34.139259364103694" lon="-6.682108985488354"><ele>60.5</ele><time>2026-04-28T12:50:43Z</time></trkpt><trkpt lat="34.13951291443097" lon="-6.68202592624401"><ele>61.0</ele><time>2026-04-28T12:50:44Z</time></trkpt><trkpt lat="34.13976976800501" lon="-6.681941628814394"><ele>62.5</ele><time>2026-04-28T12:50:45Z</time></trkpt><trkpt lat="34.14002889569748" lon="-6.681855846396758"><ele>64.0</ele><time>2026-04-28T12:50:46Z</time></trkpt><trkpt lat="34.14028869453532" lon="-6.681770721788205"><ele>64.0</ele><time>2026-04-28T12:50:47Z</time></trkpt><trkpt lat="34.14054851143292" lon="-6.681689229717975"><ele>64.0</ele><time>2026-04-28T12:50:48Z</time></trkpt><trkpt lat="34.14080719193307" lon="-6.681611710373458"><ele>62.0</ele><time>2026-04-28T12:50:49Z</time></trkpt><trkpt lat="34.14106448537621" lon="-6.681535327409398"><ele>60.0</ele><time>2026-04-28T12:50:50Z</time></trkpt><trkpt lat="34.141327025186975" lon="-6.681457409907021"><ele>60.5</ele><time>2026-04-28T12:50:51Z</time></trkpt><trkpt lat="34.14159637427881" lon="-6.681378481192627"><ele>61.0</ele><time>2026-04-28T12:50:52Z</time></trkpt><trkpt lat="34.14186884255752" lon="-6.681299535127952"><ele>61.0</ele><time>2026-04-28T12:50:53Z</time></trkpt><trkpt lat="34.14212174088185" lon="-6.681225998113276"><ele>61.0</ele><time>2026-04-28T12:50:54Z</time></trkpt><trkpt lat="34.14235701400196" lon="-6.681152008864678"><ele>61.0</ele><time>2026-04-28T12:50:55Z</time></trkpt><trkpt lat="34.14257214002844" lon="-6.681083737845769"><ele>61.0</ele><time>2026-04-28T12:50:56Z</time></trkpt><trkpt lat="34.14280264051524" lon="-6.6810137937844525"><ele>61.0</ele><time>2026-04-28T12:50:57Z</time></trkpt><trkpt lat="34.14304158658755" lon="-6.680944123565407"><ele>61.0</ele><time>2026-04-28T12:50:58Z</time></trkpt><trkpt lat="34.14328493094534" lon="-6.680872921052543"><ele>60.0</ele><time>2026-04-28T12:50:59Z</time></trkpt><trkpt lat="34.143532630218864" lon="-6.680799143242227"><ele>59.0</ele><time>2026-04-28T12:51:00Z</time></trkpt><trkpt lat="34.1437828983272" lon="-6.680722327773892"><ele>59.0</ele><time>2026-04-28T12:51:01Z</time></trkpt><trkpt lat="34.14403509860159" lon="-6.680645087699506"><ele>59.0</ele><time>2026-04-28T12:51:02Z</time></trkpt><trkpt lat="34.14429027770861" lon="-6.680566289973911"><ele>58.5</ele><time>2026-04-28T12:51:03Z</time></trkpt><trkpt lat="34.14454536627965" lon="-6.680489060213248"><ele>58.0</ele><time>2026-04-28T12:51:04Z</time></trkpt><trkpt lat="34.14479933122076" lon="-6.680415767223214"><ele>57.5</ele><time>2026-04-28T12:51:05Z</time></trkpt><trkpt lat="34.14505564547193" lon="-6.680344844193699"><ele>57.0</ele><time>2026-04-28T12:51:06Z</time></trkpt><trkpt lat="34.14531671214431" lon="-6.680270752787914"><ele>57.0</ele><time>2026-04-28T12:51:07Z</time></trkpt><trkpt lat="34.1455793359473" lon="-6.680194516987897"><ele>57.0</ele><time>2026-04-28T12:51:08Z</time></trkpt><trkpt lat="34.14584534201193" lon="-6.680117259361754"><ele>57.0</ele><time>2026-04-28T12:51:09Z</time></trkpt><trkpt lat="34.146114783760616" lon="-6.68003863075774"><ele>57.0</ele><time>2026-04-28T12:51:10Z</time></trkpt><trkpt lat="34.14638594288042" lon="-6.6799607248900275"><ele>56.0</ele><time>2026-04-28T12:51:11Z</time></trkpt><trkpt lat="34.14665969523184" lon="-6.679882229210218"><ele>55.0</ele><time>2026-04-28T12:51:12Z</time></trkpt><trkpt lat="34.146938350238145" lon="-6.679804521750999"><ele>55.0</ele><time>2026-04-28T12:51:13Z</time></trkpt><trkpt lat="34.147221265804674" lon="-6.679725218782909"><ele>55.0</ele><time>2026-04-28T12:51:14Z</time></trkpt><trkpt lat="34.14750504082303" lon="-6.679643486425648"><ele>54.5</ele><time>2026-04-28T12:51:15Z</time></trkpt><trkpt lat="34.14778721757865" lon="-6.679559827663744"><ele>54.0</ele><time>2026-04-28T12:51:16Z</time></trkpt><trkpt lat="34.148066910333824" lon="-6.679473309367791"><ele>54.0</ele><time>2026-04-28T12:51:17Z</time></trkpt><trkpt lat="34.148345325422845" lon="-6.679381432120014"><ele>54.0</ele><time>2026-04-28T12:51:18Z</time></trkpt><trkpt lat="34.14862256100355" lon="-6.679287351813147"><ele>54.0</ele><time>2026-04-28T12:51:19Z</time></trkpt><trkpt lat="34.148897975763035" lon="-6.679193873177887"><ele>54.0</ele><time>2026-04-28T12:51:20Z</time></trkpt><trkpt lat="34.14917133120077" lon="-6.679104133694665"><ele>52.5</ele><time>2026-04-28T12:51:21Z</time></trkpt><trkpt lat="34.14944509862243" lon="-6.679017049662151"><ele>51.0</ele><time>2026-04-28T12:51:22Z</time></trkpt><trkpt lat="34.149718050140045" lon="-6.67893166206063"><ele>51.0</ele><time>2026-04-28T12:51:23Z</time></trkpt><trkpt lat="34.149991731232575" lon="-6.678849451764645"><ele>51.0</ele><time>2026-04-28T12:51:24Z</time></trkpt><trkpt lat="34.150265969405346" lon="-6.678768344263162"><ele>51.0</ele><time>2026-04-28T12:51:25Z</time></trkpt><trkpt lat="34.15054191669111" lon="-6.678686598455911"><ele>51.0</ele><time>2026-04-28T12:51:26Z</time></trkpt><trkpt lat="34.15082308775436" lon="-6.678602138500972"><ele>52.0</ele><time>2026-04-28T12:51:27Z</time></trkpt><trkpt lat="34.15110529868941" lon="-6.678518564064183"><ele>53.0</ele><time>2026-04-28T12:51:28Z</time></trkpt><trkpt lat="34.15139011816193" lon="-6.678434102153573"><ele>51.5</ele><time>2026-04-28T12:51:29Z</time></trkpt><trkpt lat="34.15167633837031" lon="-6.678350607458723"><ele>50.0</ele><time>2026-04-28T12:51:30Z</time></trkpt><trkpt lat="34.151962662903834" lon="-6.678268899990681"><ele>50.0</ele><time>2026-04-28T12:51:31Z</time></trkpt><trkpt lat="34.15224946236438" lon="-6.678188239894732"><ele>50.0</ele><time>2026-04-28T12:51:32Z</time></trkpt><trkpt lat="34.15253685296001" lon="-6.678108789452276"><ele>50.0</ele><time>2026-04-28T12:51:33Z</time></trkpt><trkpt lat="34.15282549920881" lon="-6.678030426367333"><ele>50.0</ele><time>2026-04-28T12:51:34Z</time></trkpt><trkpt lat="34.153114696150155" lon="-6.6779512387962985"><ele>49.5</ele><time>2026-04-28T12:51:35Z</time></trkpt><trkpt lat="34.15340133476137" lon="-6.677870118029611"><ele>49.0</ele><time>2026-04-28T12:51:36Z</time></trkpt><trkpt lat="34.153683806249944" lon="-6.677788865562666"><ele>49.0</ele><time>2026-04-28T12:51:37Z</time></trkpt><trkpt lat="34.153963296166275" lon="-6.677707036394069"><ele>49.0</ele><time>2026-04-28T12:51:38Z</time></trkpt><trkpt lat="34.15424048836335" lon="-6.677623289211102"><ele>49.0</ele><time>2026-04-28T12:51:39Z</time></trkpt><trkpt lat="34.15451591532022" lon="-6.67753453348092"><ele>49.0</ele><time>2026-04-28T12:51:40Z</time></trkpt><trkpt lat="34.15479123006059" lon="-6.677439308746476"><ele>47.5</ele><time>2026-04-28T12:51:41Z</time></trkpt><trkpt lat="34.15506982102414" lon="-6.677336912785714"><ele>46.0</ele><time>2026-04-28T12:51:42Z</time></trkpt><trkpt lat="34.15535199081612" lon="-6.677231299591152"><ele>46.0</ele><time>2026-04-28T12:51:43Z</time></trkpt><trkpt lat="34.155636908001625" lon="-6.677122560116113"><ele>46.0</ele><time>2026-04-28T12:51:44Z</time></trkpt><trkpt lat="34.15592038750836" lon="-6.677012061895953"><ele>44.0</ele><time>2026-04-28T12:51:45Z</time></trkpt><trkpt lat="34.15620440764059" lon="-6.676899580385706"><ele>42.0</ele><time>2026-04-28T12:51:46Z</time></trkpt><trkpt lat="34.1564907234702" lon="-6.676781319593347"><ele>43.0</ele><time>2026-04-28T12:51:47Z</time></trkpt><trkpt lat="34.15677749982342" lon="-6.676658230117007"><ele>44.0</ele><time>2026-04-28T12:51:48Z</time></trkpt><trkpt lat="34.15706246426745" lon="-6.676529586953852"><ele>44.0</ele><time>2026-04-28T12:51:49Z</time></trkpt><trkpt lat="34.15734271444576" lon="-6.676395299158944"><ele>44.0</ele><time>2026-04-28T12:51:50Z</time></trkpt><trkpt lat="34.15762183900359" lon="-6.676255029293994"><ele>44.0</ele><time>2026-04-28T12:51:51Z</time></trkpt><trkpt lat="34.15790004634843" lon="-6.676112935402926"><ele>44.0</ele><time>2026-04-28T12:51:52Z</time></trkpt><trkpt lat="34.15817348526175" lon="-6.6759705182522895"><ele>43.5</ele><time>2026-04-28T12:51:53Z</time></trkpt><trkpt lat="34.15844567060953" lon="-6.675825524846867"><ele>43.0</ele><time>2026-04-28T12:51:54Z</time></trkpt><trkpt lat="34.158718733883504" lon="-6.675678077600553"><ele>43.0</ele><time>2026-04-28T12:51:55Z</time></trkpt><trkpt lat="34.158993177093855" lon="-6.675525499850515"><ele>43.0</ele><time>2026-04-28T12:51:56Z</time></trkpt><trkpt lat="34.15926430872107" lon="-6.675368542701872"><ele>45.0</ele><time>2026-04-28T12:51:57Z</time></trkpt><trkpt lat="34.15953263637516" lon="-6.67520766727591"><ele>47.0</ele><time>2026-04-28T12:51:58Z</time></trkpt><trkpt lat="34.159795534790085" lon="-6.675045633725329"><ele>44.0</ele><time>2026-04-28T12:51:59Z</time></trkpt><trkpt lat="34.16005563382798" lon="-6.674881400879552"><ele>41.0</ele><time>2026-04-28T12:52:00Z</time></trkpt><trkpt lat="34.16031137244445" lon="-6.674716045775009"><ele>41.0</ele><time>2026-04-28T12:52:01Z</time></trkpt><trkpt lat="34.160564464482995" lon="-6.674547795964857"><ele>41.0</ele><time>2026-04-28T12:52:02Z</time></trkpt><trkpt lat="34.16080788945276" lon="-6.674381905212069"><ele>40.5</ele><time>2026-04-28T12:52:03Z</time></trkpt><trkpt lat="34.16104979703387" lon="-6.674225280549094"><ele>40.0</ele><time>2026-04-28T12:52:04Z</time></trkpt><trkpt lat="34.16129234351875" lon="-6.674065885858066"><ele>39.5</ele><time>2026-04-28T12:52:05Z</time></trkpt><trkpt lat="34.16153540320627" lon="-6.673896919535378"><ele>39.0</ele><time>2026-04-28T12:52:06Z</time></trkpt><trkpt lat="34.16177540608453" lon="-6.673716010208561"><ele>40.5</ele><time>2026-04-28T12:52:07Z</time></trkpt><trkpt lat="34.16201536597573" lon="-6.673525222494274"><ele>42.0</ele><time>2026-04-28T12:52:08Z</time></trkpt><trkpt lat="34.16225605618962" lon="-6.673325738554476"><ele>41.5</ele><time>2026-04-28T12:52:09Z</time></trkpt><trkpt lat="34.16249810413512" lon="-6.673121308229528"><ele>41.0</ele><time>2026-04-28T12:52:10Z</time></trkpt><trkpt lat="34.16273868204143" lon="-6.672916692038469"><ele>41.0</ele><time>2026-04-28T12:52:11Z</time></trkpt><trkpt lat="34.16297910661158" lon="-6.672712480880556"><ele>41.0</ele><time>2026-04-28T12:52:12Z</time></trkpt><trkpt lat="34.16322231420822" lon="-6.672504163316194"><ele>41.0</ele><time>2026-04-28T12:52:13Z</time></trkpt><trkpt lat="34.16346512763401" lon="-6.672292595227546"><ele>41.0</ele><time>2026-04-28T12:52:14Z</time></trkpt><trkpt lat="34.16370489875516" lon="-6.6720752466180775"><ele>40.0</ele><time>2026-04-28T12:52:15Z</time></trkpt><trkpt lat="34.163942381123356" lon="-6.671851323204308"><ele>39.0</ele><time>2026-04-28T12:52:16Z</time></trkpt><trkpt lat="34.16417763483856" lon="-6.671620938492642"><ele>39.0</ele><time>2026-04-28T12:52:17Z</time></trkpt><trkpt lat="34.16441112598165" lon="-6.671390614357561"><ele>39.0</ele><time>2026-04-28T12:52:18Z</time></trkpt><trkpt lat="34.164644787821906" lon="-6.671162826253836"><ele>39.5</ele><time>2026-04-28T12:52:19Z</time></trkpt><trkpt lat="34.16486522064079" lon="-6.670943886382988"><ele>40.0</ele><time>2026-04-28T12:52:20Z</time></trkpt><trkpt lat="34.16506886538267" lon="-6.670735114375743"><ele>40.0</ele><time>2026-04-28T12:52:21Z</time></trkpt><trkpt lat="34.1652562449975" lon="-6.670531473106351"><ele>40.0</ele><time>2026-04-28T12:52:22Z</time></trkpt><trkpt lat="34.16543052895031" lon="-6.670334116766875"><ele>40.333333333333336</ele><time>2026-04-28T12:52:23Z</time></trkpt><trkpt lat="34.165593807244406" lon="-6.670142883995451"><ele>40.666666666666664</ele><time>2026-04-28T12:52:24Z</time></trkpt><trkpt lat="34.165745039269204" lon="-6.669960027326293"><ele>41.0</ele><time>2026-04-28T12:52:25Z</time></trkpt><trkpt lat="34.165882509677715" lon="-6.669795067210943"><ele>41.0</ele><time>2026-04-28T12:52:26Z</time></trkpt><trkpt lat="34.16600441383256" lon="-6.6696525571055885"><ele>41.0</ele><time>2026-04-28T12:52:27Z</time></trkpt><trkpt lat="34.166109719981094" lon="-6.669529103029622"><ele>41.0</ele><time>2026-04-28T12:52:28Z</time></trkpt><trkpt lat="34.166187078857774" lon="-6.669436963002214"><ele>41.0</ele><time>2026-04-28T12:52:29Z</time></trkpt><trkpt lat="34.16623781633524" lon="-6.6693752299616404"><ele>40.8</ele><time>2026-04-28T12:52:30Z</time></trkpt><trkpt lat="34.166291055591536" lon="-6.669313877493806"><ele>40.599999999999994</ele><time>2026-04-28T12:52:32Z</time></trkpt><trkpt lat="34.16636692723219" lon="-6.66922384609635"><ele>40.4</ele><time>2026-04-28T12:52:57Z</time></trkpt><trkpt lat="34.16643004940666" lon="-6.669149679821762"><ele>40.2</ele><time>2026-04-28T12:52:58Z</time></trkpt><trkpt lat="34.16650702835029" lon="-6.669058710665125"><ele>40.0</ele><time>2026-04-28T12:52:59Z</time></trkpt><trkpt lat="34.1665977410898" lon="-6.668952575332721"><ele>40.0</ele><time>2026-04-28T12:53:00Z</time></trkpt><trkpt lat="34.166690336837355" lon="-6.668841544056512"><ele>40.0</ele><time>2026-04-28T12:53:01Z</time></trkpt><trkpt lat="34.166775993492095" lon="-6.6687312050501735"><ele>40.0</ele><time>2026-04-28T12:53:02Z</time></trkpt><trkpt lat="34.16686076220589" lon="-6.668619020311413"><ele>40.0</ele><time>2026-04-28T12:53:03Z</time></trkpt><trkpt lat="34.1669469957369" lon="-6.668508491610344"><ele>41.25</ele><time>2026-04-28T12:53:04Z</time></trkpt><trkpt lat="34.16704020588729" lon="-6.668392797979136"><ele>42.5</ele><time>2026-04-28T12:53:05Z</time></trkpt><trkpt lat="34.16714069737695" lon="-6.6682698539541825"><ele>43.75</ele><time>2026-04-28T12:53:06Z</time></trkpt><trkpt lat="34.16724538738492" lon="-6.668138435318658"><ele>45.0</ele><time>2026-04-28T12:53:07Z</time></trkpt><trkpt lat="34.167355543708354" lon="-6.667999902765217"><ele>45.333333333333336</ele><time>2026-04-28T12:53:08Z</time></trkpt><trkpt lat="34.167470963530015" lon="-6.667852421905902"><ele>45.66666666666667</ele><time>2026-04-28T12:53:09Z</time></trkpt><trkpt lat="34.16759132077468" lon="-6.66769707291377"><ele>46.0</ele><time>2026-04-28T12:53:10Z</time></trkpt><trkpt lat="34.16772279157826" lon="-6.667526799084576"><ele>46.0</ele><time>2026-04-28T12:53:11Z</time></trkpt><trkpt lat="34.16786654831545" lon="-6.667340643203971"><ele>46.0</ele><time>2026-04-28T12:53:12Z</time></trkpt><trkpt lat="34.168019730788714" lon="-6.667141961164172"><ele>46.0</ele><time>2026-04-28T12:53:13Z</time></trkpt><trkpt lat="34.168179927795414" lon="-6.666932879261879"><ele>45.0</ele><time>2026-04-28T12:53:14Z</time></trkpt><trkpt lat="34.16834979509387" lon="-6.666713926637993"><ele>44.0</ele><time>2026-04-28T12:53:15Z</time></trkpt><trkpt lat="34.16852456727439" lon="-6.666490486937634"><ele>44.0</ele><time>2026-04-28T12:53:16Z</time></trkpt><trkpt lat="34.16870343022662" lon="-6.666266925291188"><ele>44.0</ele><time>2026-04-28T12:53:17Z</time></trkpt><trkpt lat="34.168887067549136" lon="-6.66604214724928"><ele>43.5</ele><time>2026-04-28T12:53:18Z</time></trkpt><trkpt lat="34.16907491030967" lon="-6.665816348136716"><ele>43.0</ele><time>2026-04-28T12:53:19Z</time></trkpt><trkpt lat="34.169265461822576" lon="-6.665584099797018"><ele>43.0</ele><time>2026-04-28T12:53:20Z</time></trkpt><trkpt lat="34.16945592079682" lon="-6.665345194372048"><ele>43.0</ele><time>2026-04-28T12:53:21Z</time></trkpt><trkpt lat="34.16964083427828" lon="-6.665109400094139"><ele>43.5</ele><time>2026-04-28T12:53:22Z</time></trkpt><trkpt lat="34.16981853181999" lon="-6.664878135292724"><ele>44.0</ele><time>2026-04-28T12:53:23Z</time></trkpt><trkpt lat="34.169985840155036" lon="-6.664660234481564"><ele>44.0</ele><time>2026-04-28T12:53:24Z</time></trkpt><trkpt lat="34.170149954448256" lon="-6.6644508631708925"><ele>44.0</ele><time>2026-04-28T12:53:25Z</time></trkpt><trkpt lat="34.17031284213029" lon="-6.664243515221565"><ele>45.0</ele><time>2026-04-28T12:53:26Z</time></trkpt><trkpt lat="34.170474453691554" lon="-6.664036782493658"><ele>46.0</ele><time>2026-04-28T12:53:27Z</time></trkpt><trkpt lat="34.170637454795646" lon="-6.663829821279479"><ele>46.0</ele><time>2026-04-28T12:53:28Z</time></trkpt><trkpt lat="34.17080265531464" lon="-6.6636225477084405"><ele>46.0</ele><time>2026-04-28T12:53:29Z</time></trkpt><trkpt lat="34.170968394993444" lon="-6.663412249616827"><ele>46.0</ele><time>2026-04-28T12:53:30Z</time></trkpt><trkpt lat="34.17113191311956" lon="-6.66319353277554"><ele>46.0</ele><time>2026-04-28T12:53:31Z</time></trkpt><trkpt lat="34.17129579822792" lon="-6.662969652448141"><ele>47.0</ele><time>2026-04-28T12:53:32Z</time></trkpt><trkpt lat="34.171464046107566" lon="-6.662741794406042"><ele>48.0</ele><time>2026-04-28T12:53:33Z</time></trkpt><trkpt lat="34.17163887045096" lon="-6.662508950211448"><ele>48.0</ele><time>2026-04-28T12:53:34Z</time></trkpt><trkpt lat="34.171819990013944" lon="-6.66226935488564"><ele>48.0</ele><time>2026-04-28T12:53:35Z</time></trkpt><trkpt lat="34.17200735271608" lon="-6.662026680381209"><ele>47.0</ele><time>2026-04-28T12:53:36Z</time></trkpt><trkpt lat="34.172199414698824" lon="-6.661782163616205"><ele>46.0</ele><time>2026-04-28T12:53:37Z</time></trkpt><trkpt lat="34.17239640449232" lon="-6.661532183769233"><ele>46.0</ele><time>2026-04-28T12:53:38Z</time></trkpt><trkpt lat="34.172594968329534" lon="-6.661279350917348"><ele>46.0</ele><time>2026-04-28T12:53:39Z</time></trkpt><trkpt lat="34.172793552556044" lon="-6.6610220328631975"><ele>47.0</ele><time>2026-04-28T12:53:40Z</time></trkpt><trkpt lat="34.17299665584656" lon="-6.660760255663657"><ele>48.0</ele><time>2026-04-28T12:53:41Z</time></trkpt><trkpt lat="34.173203996785475" lon="-6.660496279373458"><ele>49.0</ele><time>2026-04-28T12:53:42Z</time></trkpt><trkpt lat="34.17341038359889" lon="-6.660234574730611"><ele>50.0</ele><time>2026-04-28T12:53:43Z</time></trkpt><trkpt lat="34.17361253854165" lon="-6.659978744781056"><ele>50.0</ele><time>2026-04-28T12:53:44Z</time></trkpt><trkpt lat="34.17380684079979" lon="-6.6597332437159436"><ele>50.0</ele><time>2026-04-28T12:53:45Z</time></trkpt><trkpt lat="34.17399869309179" lon="-6.659490759253792"><ele>49.5</ele><time>2026-04-28T12:53:46Z</time></trkpt><trkpt lat="34.174191038474525" lon="-6.659247543852317"><ele>49.0</ele><time>2026-04-28T12:53:47Z</time></trkpt><trkpt lat="34.1743823289858" lon="-6.659006596077312"><ele>49.0</ele><time>2026-04-28T12:53:48Z</time></trkpt><trkpt lat="34.17457125903192" lon="-6.658769038860809"><ele>49.0</ele><time>2026-04-28T12:53:49Z</time></trkpt><trkpt lat="34.17476048409391" lon="-6.658528735809918"><ele>49.5</ele><time>2026-04-28T12:53:50Z</time></trkpt><trkpt lat="34.1749494754475" lon="-6.658289572015025"><ele>50.0</ele><time>2026-04-28T12:53:51Z</time></trkpt><trkpt lat="34.17514098245137" lon="-6.658050751106141"><ele>50.0</ele><time>2026-04-28T12:53:52Z</time></trkpt><trkpt lat="34.17533254798397" lon="-6.657810353441904"><ele>50.0</ele><time>2026-04-28T12:53:53Z</time></trkpt><trkpt lat="34.17552340463248" lon="-6.657568730546988"><ele>48.5</ele><time>2026-04-28T12:53:54Z</time></trkpt><trkpt lat="34.17571395210557" lon="-6.657327769865889"><ele>47.0</ele><time>2026-04-28T12:53:55Z</time></trkpt><trkpt lat="34.17590600614068" lon="-6.657086151656949"><ele>47.0</ele><time>2026-04-28T12:53:56Z</time></trkpt><trkpt lat="34.17609916043993" lon="-6.656846937108033"><ele>47.0</ele><time>2026-04-28T12:53:57Z</time></trkpt><trkpt lat="34.176293674000576" lon="-6.656608327217978"><ele>47.0</ele><time>2026-04-28T12:53:58Z</time></trkpt><trkpt lat="34.1764893505585" lon="-6.656368216929858"><ele>47.0</ele><time>2026-04-28T12:53:59Z</time></trkpt><trkpt lat="34.176685977119675" lon="-6.656125545414432"><ele>46.5</ele><time>2026-04-28T12:54:00Z</time></trkpt><trkpt lat="34.17688144764791" lon="-6.655878290730421"><ele>46.0</ele><time>2026-04-28T12:54:01Z</time></trkpt><trkpt lat="34.17707727675696" lon="-6.655628758825606"><ele>46.0</ele><time>2026-04-28T12:54:02Z</time></trkpt><trkpt lat="34.17727309876639" lon="-6.6553760108629225"><ele>46.0</ele><time>2026-04-28T12:54:03Z</time></trkpt><trkpt lat="34.1774705520598" lon="-6.655120745489869"><ele>45.0</ele><time>2026-04-28T12:54:04Z</time></trkpt><trkpt lat="34.17766957801965" lon="-6.654863014839069"><ele>44.0</ele><time>2026-04-28T12:54:05Z</time></trkpt><trkpt lat="34.177870798928694" lon="-6.654603391929546"><ele>44.0</ele><time>2026-04-28T12:54:06Z</time></trkpt><trkpt lat="34.1780745596209" lon="-6.6543435095922785"><ele>44.0</ele><time>2026-04-28T12:54:07Z</time></trkpt><trkpt lat="34.17828051701962" lon="-6.654082628810681"><ele>44.0</ele><time>2026-04-28T12:54:08Z</time></trkpt><trkpt lat="34.17848535358346" lon="-6.653821555874786"><ele>44.0</ele><time>2026-04-28T12:54:09Z</time></trkpt><trkpt lat="34.17868931947241" lon="-6.6535591562489405"><ele>44.0</ele><time>2026-04-28T12:54:10Z</time></trkpt><trkpt lat="34.178892487707614" lon="-6.653295556942777"><ele>44.0</ele><time>2026-04-28T12:54:11Z</time></trkpt><trkpt lat="34.17909808925199" lon="-6.6530320016147195"><ele>43.0</ele><time>2026-04-28T12:54:12Z</time></trkpt><trkpt lat="34.17930763395154" lon="-6.652768790589957"><ele>42.0</ele><time>2026-04-28T12:54:13Z</time></trkpt><trkpt lat="34.17951967881512" lon="-6.652502833873294"><ele>42.0</ele><time>2026-04-28T12:54:14Z</time></trkpt><trkpt lat="34.179732136843896" lon="-6.652234719232381"><ele>42.0</ele><time>2026-04-28T12:54:15Z</time></trkpt><trkpt lat="34.17994339619172" lon="-6.651968155047819"><ele>42.5</ele><time>2026-04-28T12:54:16Z</time></trkpt><trkpt lat="34.18015367376696" lon="-6.651705424552347"><ele>43.0</ele><time>2026-04-28T12:54:17Z</time></trkpt><trkpt lat="34.180360124261746" lon="-6.651443845239832"><ele>43.0</ele><time>2026-04-28T12:54:18Z</time></trkpt><trkpt lat="34.18055989068189" lon="-6.651181839262394"><ele>43.0</ele><time>2026-04-28T12:54:19Z</time></trkpt><trkpt lat="34.180756691364685" lon="-6.65091878036954"><ele>44.5</ele><time>2026-04-28T12:54:20Z</time></trkpt><trkpt lat="34.18095139536528" lon="-6.650653696905596"><ele>46.0</ele><time>2026-04-28T12:54:21Z</time></trkpt><trkpt lat="34.18114536514196" lon="-6.650387133091558"><ele>45.0</ele><time>2026-04-28T12:54:22Z</time></trkpt><trkpt lat="34.181341552735596" lon="-6.6501208412197546"><ele>44.0</ele><time>2026-04-28T12:54:23Z</time></trkpt><trkpt lat="34.1815416347172" lon="-6.649858688003099"><ele>44.0</ele><time>2026-04-28T12:54:24Z</time></trkpt><trkpt lat="34.18174357562306" lon="-6.649598360963773"><ele>44.0</ele><time>2026-04-28T12:54:25Z</time></trkpt><trkpt lat="34.18194787354192" lon="-6.6493404140585035"><ele>43.5</ele><time>2026-04-28T12:54:26Z</time></trkpt><trkpt lat="34.18215238129187" lon="-6.649083245277557"><ele>43.0</ele><time>2026-04-28T12:54:27Z</time></trkpt><trkpt lat="34.1823566809202" lon="-6.648826198718132"><ele>44.0</ele><time>2026-04-28T12:54:28Z</time></trkpt><trkpt lat="34.18256189905985" lon="-6.648568612744248"><ele>45.0</ele><time>2026-04-28T12:54:29Z</time></trkpt><trkpt lat="34.182766856899654" lon="-6.6483087590840775"><ele>45.0</ele><time>2026-04-28T12:54:30Z</time></trkpt><trkpt lat="34.18297418263552" lon="-6.648051179082"><ele>45.0</ele><time>2026-04-28T12:54:31Z</time></trkpt><trkpt lat="34.183180875593635" lon="-6.647791169423424"><ele>44.5</ele><time>2026-04-28T12:54:32Z</time></trkpt><trkpt lat="34.183385767064706" lon="-6.6475302485197165"><ele>44.0</ele><time>2026-04-28T12:54:33Z</time></trkpt><trkpt lat="34.18358831948533" lon="-6.647265634410099"><ele>44.0</ele><time>2026-04-28T12:54:34Z</time></trkpt><trkpt lat="34.18379108689348" lon="-6.647000292212411"><ele>44.0</ele><time>2026-04-28T12:54:35Z</time></trkpt><trkpt lat="34.1839951089907" lon="-6.646736662639089"><ele>43.0</ele><time>2026-04-28T12:54:36Z</time></trkpt><trkpt lat="34.18420049752744" lon="-6.646475999909766"><ele>42.0</ele><time>2026-04-28T12:54:37Z</time></trkpt><trkpt lat="34.18440755493372" lon="-6.646215923500605"><ele>41.5</ele><time>2026-04-28T12:54:38Z</time></trkpt><trkpt lat="34.18461626475045" lon="-6.645956138766845"><ele>41.0</ele><time>2026-04-28T12:54:39Z</time></trkpt><trkpt lat="34.18482181952067" lon="-6.645691677763503"><ele>41.0</ele><time>2026-04-28T12:54:40Z</time></trkpt><trkpt lat="34.18502736081772" lon="-6.645428027898056"><ele>41.0</ele><time>2026-04-28T12:54:41Z</time></trkpt><trkpt lat="34.185230272370205" lon="-6.645160277154226"><ele>41.0</ele><time>2026-04-28T12:54:41.999Z</time></trkpt><trkpt lat="34.18543572610396" lon="-6.6448975788129445"><ele>41.0</ele><time>2026-04-28T12:54:42.999Z</time></trkpt><trkpt lat="34.18563961569186" lon="-6.64463271305111"><ele>40.5</ele><time>2026-04-28T12:54:43.999Z</time></trkpt><trkpt lat="34.185845056764876" lon="-6.64436903396223"><ele>40.0</ele><time>2026-04-28T12:54:44.999Z</time></trkpt><trkpt lat="34.186052664256174" lon="-6.644108506820135"><ele>40.0</ele><time>2026-04-28T12:54:45.999Z</time></trkpt><trkpt lat="34.186259022119565" lon="-6.643847221313717"><ele>40.0</ele><time>2026-04-28T12:54:46.999Z</time></trkpt><trkpt lat="34.18646480341349" lon="-6.643586656866107"><ele>39.5</ele><time>2026-04-28T12:54:47.999Z</time></trkpt><trkpt lat="34.18667255236805" lon="-6.643329381426048"><ele>39.0</ele><time>2026-04-28T12:54:48.999Z</time></trkpt><trkpt lat="34.18687525519778" lon="-6.64306794707946"><ele>39.0</ele><time>2026-04-28T12:54:49.999Z</time></trkpt><trkpt lat="34.187079743994275" lon="-6.6428084864476045"><ele>39.0</ele><time>2026-04-28T12:54:50.999Z</time></trkpt><trkpt lat="34.18728256515059" lon="-6.64254818593016"><ele>37.5</ele><time>2026-04-28T12:54:51.999Z</time></trkpt><trkpt lat="34.18748568374981" lon="-6.64228735919449"><ele>36.0</ele><time>2026-04-28T12:54:52.999Z</time></trkpt><trkpt lat="34.18768887391682" lon="-6.642030285093313"><ele>36.5</ele><time>2026-04-28T12:54:53.999Z</time></trkpt><trkpt lat="34.18789188413021" lon="-6.641776118033495"><ele>37.0</ele><time>2026-04-28T12:54:54.999Z</time></trkpt><trkpt lat="34.18809510057786" lon="-6.641520132517786"><ele>37.5</ele><time>2026-04-28T12:54:55.999Z</time></trkpt><trkpt lat="34.18829733954284" lon="-6.641262544448932"><ele>38.0</ele><time>2026-04-28T12:54:56.999Z</time></trkpt><trkpt lat="34.18850156368455" lon="-6.641003111507037"><ele>38.0</ele><time>2026-04-28T12:54:57.999Z</time></trkpt><trkpt lat="34.18870393234762" lon="-6.640742072791519"><ele>38.0</ele><time>2026-04-28T12:54:58.999Z</time></trkpt><trkpt lat="34.18890688731787" lon="-6.640482529636401"><ele>38.5</ele><time>2026-04-28T12:54:59.999Z</time></trkpt><trkpt lat="34.18911209765989" lon="-6.640221646313652"><ele>39.0</ele><time>2026-04-28T12:55:00.999Z</time></trkpt><trkpt lat="34.189316780898345" lon="-6.639960856274271"><ele>39.0</ele><time>2026-04-28T12:55:02Z</time></trkpt><trkpt lat="34.18952213821231" lon="-6.639698797661303"><ele>39.0</ele><time>2026-04-28T12:55:03Z</time></trkpt><trkpt lat="34.18972730140285" lon="-6.639438914803983"><ele>37.5</ele><time>2026-04-28T12:55:04Z</time></trkpt><trkpt lat="34.1899268895154" lon="-6.639179904232407"><ele>36.0</ele><time>2026-04-28T12:55:05Z</time></trkpt><trkpt lat="34.19012627610213" lon="-6.638928969207802"><ele>36.0</ele><time>2026-04-28T12:55:06Z</time></trkpt><trkpt lat="34.19032878426315" lon="-6.638678337625888"><ele>36.0</ele><time>2026-04-28T12:55:07Z</time></trkpt><trkpt lat="34.19053338179672" lon="-6.638423922890363"><ele>36.5</ele><time>2026-04-28T12:55:08Z</time></trkpt><trkpt lat="34.190738198264306" lon="-6.638166729153736"><ele>37.0</ele><time>2026-04-28T12:55:09Z</time></trkpt><trkpt lat="34.19094190128244" lon="-6.637907162375556"><ele>39.0</ele><time>2026-04-28T12:55:10Z</time></trkpt><trkpt lat="34.19114536949659" lon="-6.637649456552865"><ele>41.0</ele><time>2026-04-28T12:55:11Z</time></trkpt><trkpt lat="34.19134866224489" lon="-6.637392242944137"><ele>38.5</ele><time>2026-04-28T12:55:12Z</time></trkpt><trkpt lat="34.191553786086764" lon="-6.637134552338269"><ele>36.0</ele><time>2026-04-28T12:55:13Z</time></trkpt><trkpt lat="34.191759300544376" lon="-6.636877037083735"><ele>35.5</ele><time>2026-04-28T12:55:14Z</time></trkpt><trkpt lat="34.191962014919696" lon="-6.636615833231207"><ele>35.0</ele><time>2026-04-28T12:55:15Z</time></trkpt><trkpt lat="34.19216286099823" lon="-6.636354892257615"><ele>36.0</ele><time>2026-04-28T12:55:16Z</time></trkpt><trkpt lat="34.192363195323225" lon="-6.636092086175677"><ele>37.0</ele><time>2026-04-28T12:55:17Z</time></trkpt><trkpt lat="34.19256354852358" lon="-6.635829003407017"><ele>37.0</ele><time>2026-04-28T12:55:18Z</time></trkpt><trkpt lat="34.19276277141892" lon="-6.635562897455838"><ele>37.0</ele><time>2026-04-28T12:55:19Z</time></trkpt><trkpt lat="34.19296440053678" lon="-6.635299555153625"><ele>37.0</ele><time>2026-04-28T12:55:20Z</time></trkpt><trkpt lat="34.19316571779425" lon="-6.635036580044959"><ele>37.0</ele><time>2026-04-28T12:55:21Z</time></trkpt><trkpt lat="34.193371181296584" lon="-6.634776112054288"><ele>37.0</ele><time>2026-04-28T12:55:22Z</time></trkpt><trkpt lat="34.19357497214724" lon="-6.634513919155625"><ele>37.0</ele><time>2026-04-28T12:55:23Z</time></trkpt><trkpt lat="34.193779468955796" lon="-6.634250807837882"><ele>37.0</ele><time>2026-04-28T12:55:24Z</time></trkpt><trkpt lat="34.193983591038304" lon="-6.6339880589004165"><ele>37.0</ele><time>2026-04-28T12:55:25Z</time></trkpt><trkpt lat="34.19418733288087" lon="-6.633723538795424"><ele>38.0</ele><time>2026-04-28T12:55:26Z</time></trkpt><trkpt lat="34.19439325172139" lon="-6.633459583267886"><ele>39.0</ele><time>2026-04-28T12:55:27Z</time></trkpt><trkpt lat="34.19459964212653" lon="-6.633196363017879"><ele>39.0</ele><time>2026-04-28T12:55:28Z</time></trkpt><trkpt lat="34.1948054004119" lon="-6.632933821096228"><ele>39.0</ele><time>2026-04-28T12:55:29Z</time></trkpt><trkpt lat="34.19501105479261" lon="-6.632671882920773"><ele>40.0</ele><time>2026-04-28T12:55:30Z</time></trkpt><trkpt lat="34.195216801705534" lon="-6.632408715865607"><ele>41.0</ele><time>2026-04-28T12:55:31Z</time></trkpt><trkpt lat="34.19542386212381" lon="-6.6321475332828665"><ele>41.5</ele><time>2026-04-28T12:55:32Z</time></trkpt><trkpt lat="34.1956312617124" lon="-6.631888854042976"><ele>42.0</ele><time>2026-04-28T12:55:33Z</time></trkpt><trkpt lat="34.19583861234426" lon="-6.631629874768095"><ele>42.0</ele><time>2026-04-28T12:55:34Z</time></trkpt><trkpt lat="34.19604650683059" lon="-6.631371714196689"><ele>42.0</ele><time>2026-04-28T12:55:35Z</time></trkpt><trkpt lat="34.19624986832277" lon="-6.63111042442442"><ele>42.0</ele><time>2026-04-28T12:55:36Z</time></trkpt><trkpt lat="34.196453302667315" lon="-6.630847653321313"><ele>42.0</ele><time>2026-04-28T12:55:37Z</time></trkpt><trkpt lat="34.19666044795412" lon="-6.630590263370248"><ele>42.0</ele><time>2026-04-28T12:55:38Z</time></trkpt><trkpt lat="34.19686312949154" lon="-6.630329738070246"><ele>42.0</ele><time>2026-04-28T12:55:39Z</time></trkpt><trkpt lat="34.197066226026095" lon="-6.630068491368397"><ele>42.0</ele><time>2026-04-28T12:55:40Z</time></trkpt><trkpt lat="34.197269828583856" lon="-6.629809231929606"><ele>42.0</ele><time>2026-04-28T12:55:41Z</time></trkpt><trkpt lat="34.197473067633425" lon="-6.629549710882179"><ele>41.5</ele><time>2026-04-28T12:55:42Z</time></trkpt><trkpt lat="34.197679211310515" lon="-6.629292966387616"><ele>41.0</ele><time>2026-04-28T12:55:43Z</time></trkpt><trkpt lat="34.19788462386631" lon="-6.629035690857965"><ele>41.0</ele><time>2026-04-28T12:55:44Z</time></trkpt><trkpt lat="34.19808953447697" lon="-6.628775656573976"><ele>41.0</ele><time>2026-04-28T12:55:45Z</time></trkpt><trkpt lat="34.19829086440564" lon="-6.628515328775189"><ele>40.0</ele><time>2026-04-28T12:55:46Z</time></trkpt><trkpt lat="34.19849244155187" lon="-6.628254997377937"><ele>39.0</ele><time>2026-04-28T12:55:47Z</time></trkpt><trkpt lat="34.198695043512735" lon="-6.627995423767888"><ele>38.5</ele><time>2026-04-28T12:55:48Z</time></trkpt><trkpt lat="34.19889960631787" lon="-6.627736752655956"><ele>38.0</ele><time>2026-04-28T12:55:49Z</time></trkpt><trkpt lat="34.19910532599012" lon="-6.627478273277825"><ele>38.0</ele><time>2026-04-28T12:55:50Z</time></trkpt><trkpt lat="34.19931022745455" lon="-6.6272171770450585"><ele>38.0</ele><time>2026-04-28T12:55:51Z</time></trkpt><trkpt lat="34.19951741345856" lon="-6.6269581534094835"><ele>39.0</ele><time>2026-04-28T12:55:52Z</time></trkpt><trkpt lat="34.19972599008864" lon="-6.626700922568642"><ele>40.0</ele><time>2026-04-28T12:55:53Z</time></trkpt><trkpt lat="34.19993543798702" lon="-6.626443163715814"><ele>40.0</ele><time>2026-04-28T12:55:54Z</time></trkpt><trkpt lat="34.20014133870572" lon="-6.6261826681485525"><ele>40.0</ele><time>2026-04-28T12:55:55Z</time></trkpt><trkpt lat="34.20034551797144" lon="-6.62592007583895"><ele>40.0</ele><time>2026-04-28T12:55:56Z</time></trkpt><trkpt lat="34.200554276618455" lon="-6.625661786183095"><ele>40.0</ele><time>2026-04-28T12:55:57Z</time></trkpt><trkpt lat="34.20076174554933" lon="-6.625403713715954"><ele>40.0</ele><time>2026-04-28T12:55:58Z</time></trkpt><trkpt lat="34.20096871820174" lon="-6.625146157361962"><ele>40.0</ele><time>2026-04-28T12:55:59Z</time></trkpt><trkpt lat="34.20117141785223" lon="-6.624882630264472"><ele>40.0</ele><time>2026-04-28T12:56:00Z</time></trkpt><trkpt lat="34.201373572383304" lon="-6.624618569224331"><ele>40.0</ele><time>2026-04-28T12:56:01Z</time></trkpt><trkpt lat="34.20157496358777" lon="-6.624356955016389"><ele>38.5</ele><time>2026-04-28T12:56:02Z</time></trkpt><trkpt lat="34.20177610443137" lon="-6.624092856148178"><ele>37.0</ele><time>2026-04-28T12:56:03Z</time></trkpt><trkpt lat="34.20198328813248" lon="-6.6238355666151145"><ele>37.0</ele><time>2026-04-28T12:56:04Z</time></trkpt><trkpt lat="34.202188544027244" lon="-6.623578508967455"><ele>37.0</ele><time>2026-04-28T12:56:05Z</time></trkpt><trkpt lat="34.20239381524659" lon="-6.623319548837841"><ele>36.5</ele><time>2026-04-28T12:56:06Z</time></trkpt><trkpt lat="34.20260005124417" lon="-6.623060066627135"><ele>36.0</ele><time>2026-04-28T12:56:07Z</time></trkpt><trkpt lat="34.20280532958679" lon="-6.622797563900476"><ele>36.0</ele><time>2026-04-28T12:56:08Z</time></trkpt><trkpt lat="34.20301069073244" lon="-6.622534383096708"><ele>36.0</ele><time>2026-04-28T12:56:09Z</time></trkpt><trkpt lat="34.20321396441456" lon="-6.622269977736461"><ele>36.5</ele><time>2026-04-28T12:56:10Z</time></trkpt><trkpt lat="34.20341708713752" lon="-6.62200681889834"><ele>37.0</ele><time>2026-04-28T12:56:11Z</time></trkpt><trkpt lat="34.20361991643832" lon="-6.621743957244542"><ele>37.0</ele><time>2026-04-28T12:56:12Z</time></trkpt><trkpt lat="34.20382456361616" lon="-6.621483518807685"><ele>37.0</ele><time>2026-04-28T12:56:13Z</time></trkpt><trkpt lat="34.20402955278544" lon="-6.621222319158271"><ele>38.0</ele><time>2026-04-28T12:56:14Z</time></trkpt><trkpt lat="34.20423445104003" lon="-6.62096059306301"><ele>39.0</ele><time>2026-04-28T12:56:15Z</time></trkpt><trkpt lat="34.20443731935161" lon="-6.6206964314510515"><ele>39.0</ele><time>2026-04-28T12:56:16Z</time></trkpt><trkpt lat="34.204637768061914" lon="-6.620429655676501"><ele>39.0</ele><time>2026-04-28T12:56:17Z</time></trkpt><trkpt lat="34.20484079273678" lon="-6.620170039367234"><ele>40.5</ele><time>2026-04-28T12:56:18Z</time></trkpt><trkpt lat="34.20504344769526" lon="-6.6199158697695335"><ele>42.0</ele><time>2026-04-28T12:56:19Z</time></trkpt><trkpt lat="34.20524456242306" lon="-6.619666984633342"><ele>43.0</ele><time>2026-04-28T12:56:20Z</time></trkpt><trkpt lat="34.20544282302753" lon="-6.619414251048012"><ele>44.0</ele><time>2026-04-28T12:56:21Z</time></trkpt><trkpt lat="34.205645188667695" lon="-6.619161653138932"><ele>42.5</ele><time>2026-04-28T12:56:22Z</time></trkpt><trkpt lat="34.20584744904859" lon="-6.618908532620865"><ele>41.0</ele><time>2026-04-28T12:56:22.999Z</time></trkpt><trkpt lat="34.206047772314584" lon="-6.6186523723845685"><ele>42.0</ele><time>2026-04-28T12:56:23.999Z</time></trkpt><trkpt lat="34.20624734758246" lon="-6.618396210789169"><ele>43.0</ele><time>2026-04-28T12:56:24.999Z</time></trkpt><trkpt lat="34.2064490028709" lon="-6.618143010002234"><ele>43.0</ele><time>2026-04-28T12:56:25.999Z</time></trkpt><trkpt lat="34.20664996838558" lon="-6.617889543551316"><ele>43.0</ele><time>2026-04-28T12:56:26.999Z</time></trkpt><trkpt lat="34.20684447381431" lon="-6.617635622100692"><ele>43.0</ele><time>2026-04-28T12:56:27.999Z</time></trkpt><trkpt lat="34.207034455407126" lon="-6.6173842129421905"><ele>43.0</ele><time>2026-04-28T12:56:28.999Z</time></trkpt><trkpt lat="34.20723028539513" lon="-6.617139968443969"><ele>44.0</ele><time>2026-04-28T12:56:29.999Z</time></trkpt><trkpt lat="34.207425277747646" lon="-6.6168926826968795"><ele>45.0</ele><time>2026-04-28T12:56:30.999Z</time></trkpt><trkpt lat="34.20762764122217" lon="-6.616648019585686"><ele>45.0</ele><time>2026-04-28T12:56:31.999Z</time></trkpt><trkpt lat="34.207813140771435" lon="-6.616409329768574"><ele>45.0</ele><time>2026-04-28T12:56:32.999Z</time></trkpt><trkpt lat="34.208000490690054" lon="-6.616164724283667"><ele>45.0</ele><time>2026-04-28T12:56:33.999Z</time></trkpt><trkpt lat="34.20818928705845" lon="-6.615927861791842"><ele>45.0</ele><time>2026-04-28T12:56:34.999Z</time></trkpt><trkpt lat="34.20838227636857" lon="-6.615696553312294"><ele>45.0</ele><time>2026-04-28T12:56:35.999Z</time></trkpt><trkpt lat="34.20857887384242" lon="-6.615472868980027"><ele>45.0</ele><time>2026-04-28T12:56:36.999Z</time></trkpt><trkpt lat="34.20878059440038" lon="-6.615251459917309"><ele>44.0</ele><time>2026-04-28T12:56:37.999Z</time></trkpt><trkpt lat="34.20898757628815" lon="-6.615027006268414"><ele>43.0</ele><time>2026-04-28T12:56:38.999Z</time></trkpt><trkpt lat="34.209197211466794" lon="-6.614801340382591"><ele>43.0</ele><time>2026-04-28T12:56:39.999Z</time></trkpt><trkpt lat="34.20941086240073" lon="-6.614575637679459"><ele>43.0</ele><time>2026-04-28T12:56:40.999Z</time></trkpt><trkpt lat="34.20963341197718" lon="-6.614344464035568"><ele>43.0</ele><time>2026-04-28T12:56:41.999Z</time></trkpt><trkpt lat="34.2098614439609" lon="-6.614116004934792"><ele>43.0</ele><time>2026-04-28T12:56:42.999Z</time></trkpt><trkpt lat="34.21008752284905" lon="-6.613899251674444"><ele>43.0</ele><time>2026-04-28T12:56:43.999Z</time></trkpt><trkpt lat="34.21031416802083" lon="-6.613689245525621"><ele>43.0</ele><time>2026-04-28T12:56:44.999Z</time></trkpt><trkpt lat="34.21054099987119" lon="-6.613485076534253"><ele>43.5</ele><time>2026-04-28T12:56:45.999Z</time></trkpt><trkpt lat="34.21077064219935" lon="-6.613282391667044"><ele>44.0</ele><time>2026-04-28T12:56:46.999Z</time></trkpt><trkpt lat="34.21100223547968" lon="-6.61308538467402"><ele>44.0</ele><time>2026-04-28T12:56:47.999Z</time></trkpt><trkpt lat="34.21123466260479" lon="-6.6128897401454125"><ele>44.0</ele><time>2026-04-28T12:56:48.999Z</time></trkpt><trkpt lat="34.21146717060177" lon="-6.612697368531165"><ele>44.0</ele><time>2026-04-28T12:56:49.999Z</time></trkpt><trkpt lat="34.211700796772" lon="-6.612505160375807"><ele>44.0</ele><time>2026-04-28T12:56:50.999Z</time></trkpt><trkpt lat="34.211935215053096" lon="-6.6123123819429654"><ele>44.0</ele><time>2026-04-28T12:56:51.999Z</time></trkpt><trkpt lat="34.212166928639924" lon="-6.612116324773024"><ele>44.0</ele><time>2026-04-28T12:56:52.999Z</time></trkpt><trkpt lat="34.21239617158582" lon="-6.61192195798761"><ele>43.5</ele><time>2026-04-28T12:56:53.999Z</time></trkpt><trkpt lat="34.212625428510805" lon="-6.611729307397858"><ele>43.0</ele><time>2026-04-28T12:56:54.999Z</time></trkpt><trkpt lat="34.212855341834974" lon="-6.611537173918385"><ele>43.0</ele><time>2026-04-28T12:56:55.999Z</time></trkpt><trkpt lat="34.21308838330732" lon="-6.611338903929576"><ele>43.0</ele><time>2026-04-28T12:56:56.999Z</time></trkpt><trkpt lat="34.21332857407184" lon="-6.611137382199689"><ele>44.0</ele><time>2026-04-28T12:56:57.999Z</time></trkpt><trkpt lat="34.21357427365157" lon="-6.610932449478841"><ele>45.0</ele><time>2026-04-28T12:56:58.999Z</time></trkpt><trkpt lat="34.213823701395896" lon="-6.610724086294095"><ele>44.5</ele><time>2026-04-28T12:56:59.999Z</time></trkpt><trkpt lat="34.214075296085646" lon="-6.610514009636299"><ele>44.0</ele><time>2026-04-28T12:57:00.999Z</time></trkpt><trkpt lat="34.214325853101684" lon="-6.610302373959046"><ele>43.5</ele><time>2026-04-28T12:57:01.999Z</time></trkpt><trkpt lat="34.21457684860729" lon="-6.61008803644458"><ele>43.0</ele><time>2026-04-28T12:57:02.999Z</time></trkpt><trkpt lat="34.21482917442069" lon="-6.609875216145836"><ele>43.0</ele><time>2026-04-28T12:57:03.999Z</time></trkpt><trkpt lat="34.215082387344786" lon="-6.609660138671032"><ele>43.0</ele><time>2026-04-28T12:57:04.999Z</time></trkpt><trkpt lat="34.21533953425629" lon="-6.60943114995562"><ele>44.0</ele><time>2026-04-28T12:57:05.999Z</time></trkpt><trkpt lat="34.215608588197696" lon="-6.609188796179007"><ele>45.0</ele><time>2026-04-28T12:57:06.999Z</time></trkpt><trkpt lat="34.215886584479875" lon="-6.608942941046358"><ele>45.0</ele><time>2026-04-28T12:57:08Z</time></trkpt><trkpt lat="34.2161757874108" lon="-6.608701129145773"><ele>45.0</ele><time>2026-04-28T12:57:09Z</time></trkpt><trkpt lat="34.21646995926994" lon="-6.6084664129386885"><ele>44.5</ele><time>2026-04-28T12:57:10Z</time></trkpt><trkpt lat="34.216762116314314" lon="-6.608234837668457"><ele>44.0</ele><time>2026-04-28T12:57:11Z</time></trkpt><trkpt lat="34.21704661839963" lon="-6.608004755371694"><ele>44.5</ele><time>2026-04-28T12:57:12Z</time></trkpt><trkpt lat="34.21732480780216" lon="-6.607774749487968"><ele>45.0</ele><time>2026-04-28T12:57:13Z</time></trkpt><trkpt lat="34.217597086286155" lon="-6.6075454356457755"><ele>45.0</ele><time>2026-04-28T12:57:14Z</time></trkpt><trkpt lat="34.21786490241333" lon="-6.6073191700609115"><ele>45.0</ele><time>2026-04-28T12:57:15Z</time></trkpt><trkpt lat="34.21812922479722" lon="-6.607096933861119"><ele>45.0</ele><time>2026-04-28T12:57:16Z</time></trkpt><trkpt lat="34.21838891739315" lon="-6.606880228534583"><ele>45.0</ele><time>2026-04-28T12:57:17Z</time></trkpt><trkpt lat="34.21864382528182" lon="-6.606667009252587"><ele>45.0</ele><time>2026-04-28T12:57:18Z</time></trkpt><trkpt lat="34.21889461067635" lon="-6.606454986477303"><ele>45.0</ele><time>2026-04-28T12:57:19Z</time></trkpt><trkpt lat="34.219142414312834" lon="-6.606244628572942"><ele>45.0</ele><time>2026-04-28T12:57:20Z</time></trkpt><trkpt lat="34.219387309327594" lon="-6.606035767528934"><ele>45.0</ele><time>2026-04-28T12:57:21Z</time></trkpt><trkpt lat="34.21963045233991" lon="-6.605828227862411"><ele>44.5</ele><time>2026-04-28T12:57:22Z</time></trkpt><trkpt lat="34.21987371931004" lon="-6.605622900564901"><ele>44.0</ele><time>2026-04-28T12:57:23Z</time></trkpt><trkpt lat="34.220116680499665" lon="-6.605420928726275"><ele>45.0</ele><time>2026-04-28T12:57:24Z</time></trkpt><trkpt lat="34.220360160456764" lon="-6.605219820426984"><ele>46.0</ele><time>2026-04-28T12:57:25Z</time></trkpt><trkpt lat="34.220603322385216" lon="-6.605017719656352"><ele>43.5</ele><time>2026-04-28T12:57:26Z</time></trkpt><trkpt lat="34.22084796135773" lon="-6.6048141229593265"><ele>41.0</ele><time>2026-04-28T12:57:27Z</time></trkpt><trkpt lat="34.22109260608576" lon="-6.604610439261968"><ele>41.0</ele><time>2026-04-28T12:57:28Z</time></trkpt><trkpt lat="34.22133599916593" lon="-6.604406688929203"><ele>41.0</ele><time>2026-04-28T12:57:29Z</time></trkpt><trkpt lat="34.22157941187131" lon="-6.604202645885414"><ele>40.0</ele><time>2026-04-28T12:57:30Z</time></trkpt><trkpt lat="34.22182246611561" lon="-6.603997562820103"><ele>39.0</ele><time>2026-04-28T12:57:31Z</time></trkpt><trkpt lat="34.22206453148914" lon="-6.603791745437211"><ele>41.0</ele><time>2026-04-28T12:57:32Z</time></trkpt><trkpt lat="34.222306755224224" lon="-6.603584852896173"><ele>43.0</ele><time>2026-04-28T12:57:33Z</time></trkpt><trkpt lat="34.222548621837035" lon="-6.6033755711017585"><ele>43.0</ele><time>2026-04-28T12:57:34Z</time></trkpt><trkpt lat="34.22278907798035" lon="-6.603164955376514"><ele>43.0</ele><time>2026-04-28T12:57:35Z</time></trkpt><trkpt lat="34.2230284399846" lon="-6.602950648111871"><ele>42.5</ele><time>2026-04-28T12:57:36Z</time></trkpt><trkpt lat="34.22326752371023" lon="-6.602735319364816"><ele>42.0</ele><time>2026-04-28T12:57:37Z</time></trkpt><trkpt lat="34.22350501616066" lon="-6.602517598872881"><ele>42.0</ele><time>2026-04-28T12:57:38Z</time></trkpt><trkpt lat="34.223739196535455" lon="-6.6022943237452"><ele>42.0</ele><time>2026-04-28T12:57:39Z</time></trkpt><trkpt lat="34.22396923528435" lon="-6.602065900878315"><ele>40.5</ele><time>2026-04-28T12:57:40Z</time></trkpt><trkpt lat="34.22419517181236" lon="-6.601832293258551"><ele>39.0</ele><time>2026-04-28T12:57:41Z</time></trkpt><trkpt lat="34.224413008544516" lon="-6.601591055294059"><ele>39.0</ele><time>2026-04-28T12:57:42Z</time></trkpt><trkpt lat="34.22462851665182" lon="-6.601345453443603"><ele>39.0</ele><time>2026-04-28T12:57:43Z</time></trkpt><trkpt lat="34.22484160422184" lon="-6.601095063558751"><ele>39.0</ele><time>2026-04-28T12:57:44Z</time></trkpt><trkpt lat="34.225049832709" lon="-6.600839145667768"><ele>39.0</ele><time>2026-04-28T12:57:45Z</time></trkpt><trkpt lat="34.22525363701156" lon="-6.600577972777114"><ele>40.0</ele><time>2026-04-28T12:57:46Z</time></trkpt><trkpt lat="34.22545355979318" lon="-6.60031485861247"><ele>41.0</ele><time>2026-04-28T12:57:47Z</time></trkpt><trkpt lat="34.22565203880677" lon="-6.600048458637174"><ele>41.0</ele><time>2026-04-28T12:57:48Z</time></trkpt><trkpt lat="34.22584770919972" lon="-6.599777677218972"><ele>41.0</ele><time>2026-04-28T12:57:49Z</time></trkpt><trkpt lat="34.22603685754679" lon="-6.599503923807401"><ele>42.0</ele><time>2026-04-28T12:57:50Z</time></trkpt><trkpt lat="34.22622370474731" lon="-6.599224632936901"><ele>43.0</ele><time>2026-04-28T12:57:51Z</time></trkpt><trkpt lat="34.22640759755139" lon="-6.598941356537243"><ele>42.0</ele><time>2026-04-28T12:57:52Z</time></trkpt><trkpt lat="34.22658584756057" lon="-6.598652660866553"><ele>41.0</ele><time>2026-04-28T12:57:53Z</time></trkpt><trkpt lat="34.22675852706384" lon="-6.598360003728047"><ele>41.0</ele><time>2026-04-28T12:57:54Z</time></trkpt><trkpt lat="34.2269274573253" lon="-6.598064262377981"><ele>41.0</ele><time>2026-04-28T12:57:55Z</time></trkpt><trkpt lat="34.22708877979123" lon="-6.597763909386905"><ele>41.0</ele><time>2026-04-28T12:57:56Z</time></trkpt><trkpt lat="34.227242785343435" lon="-6.597458795479344"><ele>41.0</ele><time>2026-04-28T12:57:57Z</time></trkpt><trkpt lat="34.227391695177175" lon="-6.597148731588669"><ele>40.5</ele><time>2026-04-28T12:57:58Z</time></trkpt><trkpt lat="34.22753623925163" lon="-6.596833524437957"><ele>40.0</ele><time>2026-04-28T12:57:59Z</time></trkpt><trkpt lat="34.2276754929844" lon="-6.596516633313584"><ele>40.0</ele><time>2026-04-28T12:58:00Z</time></trkpt><trkpt lat="34.227810272822005" lon="-6.596195466015191"><ele>40.0</ele><time>2026-04-28T12:58:01Z</time></trkpt><trkpt lat="34.22794204096866" lon="-6.595872636209387"><ele>42.0</ele><time>2026-04-28T12:58:02Z</time></trkpt><trkpt lat="34.228070080729374" lon="-6.595548294680403"><ele>44.0</ele><time>2026-04-28T12:58:03Z</time></trkpt><trkpt lat="34.22819450284538" lon="-6.595222097765311"><ele>44.0</ele><time>2026-04-28T12:58:04Z</time></trkpt><trkpt lat="34.228315802905236" lon="-6.59489401329679"><ele>44.0</ele><time>2026-04-28T12:58:05Z</time></trkpt><trkpt lat="34.22843363675984" lon="-6.594563446928032"><ele>43.5</ele><time>2026-04-28T12:58:06Z</time></trkpt><trkpt lat="34.22854705586487" lon="-6.594230704381854"><ele>43.0</ele><time>2026-04-28T12:58:07Z</time></trkpt><trkpt lat="34.22865476639583" lon="-6.593894982403193"><ele>44.0</ele><time>2026-04-28T12:58:08Z</time></trkpt><trkpt lat="34.228756652939374" lon="-6.593555920481742"><ele>45.0</ele><time>2026-04-28T12:58:09Z</time></trkpt><trkpt lat="34.22885129765295" lon="-6.5932147538696695"><ele>45.0</ele><time>2026-04-28T12:58:10Z</time></trkpt><trkpt lat="34.22894007958255" lon="-6.592871562201529"><ele>45.0</ele><time>2026-04-28T12:58:11Z</time></trkpt><trkpt lat="34.22902451123851" lon="-6.592527400820443"><ele>44.0</ele><time>2026-04-28T12:58:12Z</time></trkpt><trkpt lat="34.22910501215215" lon="-6.592181825660953"><ele>43.0</ele><time>2026-04-28T12:58:13Z</time></trkpt><trkpt lat="34.229183324717766" lon="-6.591835763209989"><ele>42.5</ele><time>2026-04-28T12:58:14Z</time></trkpt><trkpt lat="34.22924944358907" lon="-6.591505067276252"><ele>42.0</ele><time>2026-04-28T12:58:15Z</time></trkpt><trkpt lat="34.22930952933694" lon="-6.591178236752351"><ele>44.0</ele><time>2026-04-28T12:58:16Z</time></trkpt><trkpt lat="34.22936055769303" lon="-6.590848527095855"><ele>46.0</ele><time>2026-04-28T12:58:17Z</time></trkpt><trkpt lat="34.2294044060438" lon="-6.590516992143279"><ele>49.5</ele><time>2026-04-28T12:58:18Z</time></trkpt><trkpt lat="34.22944376037559" lon="-6.590185003665945"><ele>53.0</ele><time>2026-04-28T12:58:19Z</time></trkpt><trkpt lat="34.229480795966964" lon="-6.589855221519691"><ele>53.0</ele><time>2026-04-28T12:58:19.999Z</time></trkpt><trkpt lat="34.229512275960026" lon="-6.589530048214124"><ele>53.0</ele><time>2026-04-28T12:58:20.999Z</time></trkpt><trkpt lat="34.229538441572146" lon="-6.589215100437575"><ele>53.5</ele><time>2026-04-28T12:58:21.999Z</time></trkpt><trkpt lat="34.22955835481543" lon="-6.588907678230539"><ele>54.0</ele><time>2026-04-28T12:58:22.999Z</time></trkpt><trkpt lat="34.229574473570665" lon="-6.58860666517773"><ele>53.0</ele><time>2026-04-28T12:58:23.999Z</time></trkpt><trkpt lat="34.22958500338113" lon="-6.588311399824545"><ele>52.0</ele><time>2026-04-28T12:58:24.999Z</time></trkpt><trkpt lat="34.229591630476996" lon="-6.588018543931916"><ele>53.5</ele><time>2026-04-28T12:58:25.999Z</time></trkpt><trkpt lat="34.22959623022102" lon="-6.587727920075405"><ele>55.0</ele><time>2026-04-28T12:58:26.999Z</time></trkpt><trkpt lat="34.22959870867627" lon="-6.587445355802016"><ele>55.0</ele><time>2026-04-28T12:58:27.999Z</time></trkpt><trkpt lat="34.22959820387997" lon="-6.587174372506227"><ele>55.0</ele><time>2026-04-28T12:58:28.999Z</time></trkpt><trkpt lat="34.22959619381596" lon="-6.5869152915550915"><ele>55.0</ele><time>2026-04-28T12:58:29.999Z</time></trkpt><trkpt lat="34.22959222449281" lon="-6.586660128218149"><ele>54.666666666666664</ele><time>2026-04-28T12:58:30.999Z</time></trkpt><trkpt lat="34.22958620888978" lon="-6.586417199050626"><ele>54.33333333333333</ele><time>2026-04-28T12:58:31.999Z</time></trkpt><trkpt lat="34.229581339776736" lon="-6.58618397183298"><ele>54.0</ele><time>2026-04-28T12:58:32.999Z</time></trkpt><trkpt lat="34.229578223833606" lon="-6.585963225914926"><ele>53.0</ele><time>2026-04-28T12:58:33.999Z</time></trkpt><trkpt lat="34.22957776961698" lon="-6.585763031051818"><ele>52.0</ele><time>2026-04-28T12:58:34.999Z</time></trkpt><trkpt lat="34.22957914297815" lon="-6.58558556239997"><ele>51.0</ele><time>2026-04-28T12:58:35.999Z</time></trkpt><trkpt lat="34.229581803448276" lon="-6.585422413734202"><ele>50.0</ele><time>2026-04-28T12:58:36.999Z</time></trkpt><trkpt lat="34.22958302164971" lon="-6.585272101613485"><ele>49.6</ele><time>2026-04-28T12:58:37.999Z</time></trkpt><trkpt lat="34.22958297098155" lon="-6.585132515093478"><ele>49.2</ele><time>2026-04-28T12:58:38.999Z</time></trkpt><trkpt lat="34.22958229490778" lon="-6.58500069961789"><ele>48.8</ele><time>2026-04-28T12:58:39.999Z</time></trkpt><trkpt lat="34.22958026984654" lon="-6.584873287447181"><ele>48.4</ele><time>2026-04-28T12:58:40.999Z</time></trkpt><trkpt lat="34.229578842156094" lon="-6.584749147339942"><ele>48.0</ele><time>2026-04-28T12:58:41.999Z</time></trkpt><trkpt lat="34.229576360376036" lon="-6.584628618288945"><ele>48.0</ele><time>2026-04-28T12:58:42.999Z</time></trkpt><trkpt lat="34.229574767271814" lon="-6.584509035064691"><ele>48.0</ele><time>2026-04-28T12:58:43.999Z</time></trkpt><trkpt lat="34.22957378470358" lon="-6.584391283713485"><ele>48.0</ele><time>2026-04-28T12:58:44.999Z</time></trkpt><trkpt lat="34.229572713169375" lon="-6.584276923933553"><ele>48.0</ele><time>2026-04-28T12:58:45.999Z</time></trkpt><trkpt lat="34.22957224138632" lon="-6.584167471391701"><ele>48.0</ele><time>2026-04-28T12:58:46.999Z</time></trkpt><trkpt lat="34.229571496141695" lon="-6.584068452383725"><ele>48.0</ele><time>2026-04-28T12:58:47.999Z</time></trkpt><trkpt lat="34.229569818344146" lon="-6.583976487266073"><ele>48.0</ele><time>2026-04-28T12:58:48.999Z</time></trkpt><trkpt lat="34.22956949301659" lon="-6.583891162138686"><ele>48.0</ele><time>2026-04-28T12:58:49.999Z</time></trkpt><trkpt lat="34.229571592881484" lon="-6.58380783917415"><ele>48.0</ele><time>2026-04-28T12:58:50.999Z</time></trkpt><trkpt lat="34.22957331019053" lon="-6.583726294993118"><ele>48.0</ele><time>2026-04-28T12:58:51.999Z</time></trkpt><trkpt lat="34.22957366028629" lon="-6.583644059299406"><ele>48.0</ele><time>2026-04-28T12:58:52.999Z</time></trkpt><trkpt lat="34.2295725370713" lon="-6.5835147540429935"><ele>47.166666666666664</ele><time>2026-04-28T12:58:54.999Z</time></trkpt><trkpt lat="34.22957226447019" lon="-6.583429225249345"><ele>46.333333333333336</ele><time>2026-04-28T12:58:56.999Z</time></trkpt><trkpt lat="34.22957209819163" lon="-6.583326253522296"><ele>45.5</ele><time>2026-04-28T12:59:00.999Z</time></trkpt><trkpt lat="34.22956168670012" lon="-6.58320065168997"><ele>44.66666666666667</ele><time>2026-04-28T12:59:02.999Z</time></trkpt><trkpt lat="34.22954905993761" lon="-6.583121456908743"><ele>43.833333333333336</ele><time>2026-04-28T12:59:03.999Z</time></trkpt><trkpt lat="34.22953293552349" lon="-6.583035550934246"><ele>43.0</ele><time>2026-04-28T12:59:04.999Z</time></trkpt><trkpt lat="34.229512333847296" lon="-6.58294381838662"><ele>43.0</ele><time>2026-04-28T12:59:05.999Z</time></trkpt><trkpt lat="34.22949028730397" lon="-6.582848340062893"><ele>43.0</ele><time>2026-04-28T12:59:06.999Z</time></trkpt><trkpt lat="34.22946963465673" lon="-6.58275224836332"><ele>43.0</ele><time>2026-04-28T12:59:07.999Z</time></trkpt><trkpt lat="34.229452189160284" lon="-6.582661805472941"><ele>43.0</ele><time>2026-04-28T12:59:08.999Z</time></trkpt><trkpt lat="34.229439388553565" lon="-6.582574344433017"><ele>43.0</ele><time>2026-04-28T12:59:09.999Z</time></trkpt><trkpt lat="34.22942860286222" lon="-6.582488845719805"><ele>43.0</ele><time>2026-04-28T12:59:10.999Z</time></trkpt><trkpt lat="34.22942235751502" lon="-6.582406855451761"><ele>42.66666666666667</ele><time>2026-04-28T12:59:11.999Z</time></trkpt><trkpt lat="34.22942059457792" lon="-6.582328029066686"><ele>42.333333333333336</ele><time>2026-04-28T12:59:12.999Z</time></trkpt><trkpt lat="34.22942058956937" lon="-6.582204111370129"><ele>42.0</ele><time>2026-04-28T12:59:15Z</time></trkpt><trkpt lat="34.22942396018327" lon="-6.582107713690565"><ele>41.666666666666664</ele><time>2026-04-28T12:59:18Z</time></trkpt><trkpt lat="34.229427172401515" lon="-6.582027813070044"><ele>41.33333333333333</ele><time>2026-04-28T12:59:59Z</time></trkpt><trkpt lat="34.22942407218106" lon="-6.581915257670506"><ele>41.0</ele><time>2026-04-28T13:00:27.999Z</time></trkpt><trkpt lat="34.22942393765252" lon="-6.581776863792912"><ele>41.0</ele><time>2026-04-28T13:00:29.999Z</time></trkpt><trkpt lat="34.22942862827295" lon="-6.581686788144764"><ele>41.0</ele><time>2026-04-28T13:00:30.999Z</time></trkpt><trkpt lat="34.2294425562811" lon="-6.581587670791088"><ele>41.0</ele><time>2026-04-28T13:00:31.999Z</time></trkpt><trkpt lat="34.22945961390421" lon="-6.581486749061412"><ele>41.0</ele><time>2026-04-28T13:00:32.999Z</time></trkpt><trkpt lat="34.229478097932194" lon="-6.581385892043125"><ele>41.0</ele><time>2026-04-28T13:00:33.999Z</time></trkpt><trkpt lat="34.229496339313215" lon="-6.5812848425879995"><ele>41.0</ele><time>2026-04-28T13:00:34.999Z</time></trkpt><trkpt lat="34.22950896302852" lon="-6.581192582612673"><ele>40.666666666666664</ele><time>2026-04-28T13:00:35.999Z</time></trkpt><trkpt lat="34.22952458106863" lon="-6.58105311977018"><ele>40.33333333333333</ele><time>2026-04-28T13:00:37.999Z</time></trkpt><trkpt lat="34.22959003066893" lon="-6.580992229666068"><ele>40.0</ele><time>2026-04-28T13:00:38.999Z</time></trkpt><trkpt lat="34.22959416280898" lon="-6.580890467171989"><ele>39.666666666666664</ele><time>2026-04-28T13:00:40.999Z</time></trkpt><trkpt lat="34.229597329006424" lon="-6.580812493042651"><ele>39.333333333333336</ele><time>2026-04-28T13:00:42.999Z</time></trkpt><trkpt lat="34.22960087004676" lon="-6.580700940790961"><ele>39.0</ele><time>2026-04-28T13:01:06.999Z</time></trkpt><trkpt lat="34.22960610991161" lon="-6.580533462010017"><ele>39.0</ele><time>2026-04-28T13:01:08.999Z</time></trkpt><trkpt lat="34.22959931501603" lon="-6.580429862414058"><ele>39.0</ele><time>2026-04-28T13:01:09.999Z</time></trkpt><trkpt lat="34.22961276086331" lon="-6.580323720040982"><ele>39.0</ele><time>2026-04-28T13:01:10.999Z</time></trkpt><trkpt lat="34.229625605616874" lon="-6.580204328303334"><ele>39.0</ele><time>2026-04-28T13:01:11.999Z</time></trkpt><trkpt lat="34.22963831735396" lon="-6.580077959838785"><ele>39.0</ele><time>2026-04-28T13:01:12.999Z</time></trkpt><trkpt lat="34.229650840774845" lon="-6.5799451189425655"><ele>38.5</ele><time>2026-04-28T13:01:13.999Z</time></trkpt><trkpt lat="34.22966179344845" lon="-6.579804585101782"><ele>38.0</ele><time>2026-04-28T13:01:14.999Z</time></trkpt><trkpt lat="34.22966963992536" lon="-6.579657900825639"><ele>37.5</ele><time>2026-04-28T13:01:15.999Z</time></trkpt><trkpt lat="34.22967712845547" lon="-6.579504912657075"><ele>37.0</ele><time>2026-04-28T13:01:16.999Z</time></trkpt><trkpt lat="34.229686522456944" lon="-6.579349282911281"><ele>37.0</ele><time>2026-04-28T13:01:17.999Z</time></trkpt><trkpt lat="34.22969519561178" lon="-6.579191601322993"><ele>37.0</ele><time>2026-04-28T13:01:18.999Z</time></trkpt><trkpt lat="34.229703973757104" lon="-6.579025004514158"><ele>37.0</ele><time>2026-04-28T13:01:20Z</time></trkpt><trkpt lat="34.229713787030754" lon="-6.578849572556098"><ele>37.0</ele><time>2026-04-28T13:01:21Z</time></trkpt><trkpt lat="34.229724801978854" lon="-6.578666496458223"><ele>37.333333333333336</ele><time>2026-04-28T13:01:22Z</time></trkpt><trkpt lat="34.22973802395902" lon="-6.578480829567546"><ele>37.666666666666664</ele><time>2026-04-28T13:01:23Z</time></trkpt><trkpt lat="34.229750991989256" lon="-6.57829167693464"><ele>38.0</ele><time>2026-04-28T13:01:24Z</time></trkpt><trkpt lat="34.22976355547459" lon="-6.578097307265642"><ele>38.0</ele><time>2026-04-28T13:01:25Z</time></trkpt><trkpt lat="34.22977689488019" lon="-6.577900327381028"><ele>38.0</ele><time>2026-04-28T13:01:26Z</time></trkpt><trkpt lat="34.22978892966164" lon="-6.577703963557797"><ele>38.0</ele><time>2026-04-28T13:01:27Z</time></trkpt><trkpt lat="34.2297992474333" lon="-6.577511723974609"><ele>38.33333333333333</ele><time>2026-04-28T13:01:28Z</time></trkpt><trkpt lat="34.2298079562401" lon="-6.577317977042021"><ele>38.666666666666664</ele><time>2026-04-28T13:01:29Z</time></trkpt><trkpt lat="34.22981339986491" lon="-6.57712163053201"><ele>39.0</ele><time>2026-04-28T13:01:30Z</time></trkpt><trkpt lat="34.22981646045849" lon="-6.576922478471843"><ele>37.0</ele><time>2026-04-28T13:01:31Z</time></trkpt><trkpt lat="34.22981969562256" lon="-6.576719144877327"><ele>35.0</ele><time>2026-04-28T13:01:32Z</time></trkpt><trkpt lat="34.22982268115127" lon="-6.576506376458023"><ele>33.0</ele><time>2026-04-28T13:01:33Z</time></trkpt><trkpt lat="34.2298257372324" lon="-6.5762845747908365"><ele>33.0</ele><time>2026-04-28T13:01:34Z</time></trkpt><trkpt lat="34.22982975079439" lon="-6.576054622099252"><ele>33.0</ele><time>2026-04-28T13:01:35Z</time></trkpt><trkpt lat="34.229835359695144" lon="-6.5758176234854115"><ele>33.0</ele><time>2026-04-28T13:01:36Z</time></trkpt><trkpt lat="34.22984251633489" lon="-6.575572512553562"><ele>33.0</ele><time>2026-04-28T13:01:37Z</time></trkpt><trkpt lat="34.22985039162852" lon="-6.575322215558898"><ele>33.0</ele><time>2026-04-28T13:01:38Z</time></trkpt><trkpt lat="34.229857603802024" lon="-6.57506428470864"><ele>33.0</ele><time>2026-04-28T13:01:39Z</time></trkpt><trkpt lat="34.22986555948963" lon="-6.574795761410268"><ele>33.0</ele><time>2026-04-28T13:01:40Z</time></trkpt><trkpt lat="34.22987462024994" lon="-6.574522888117968"><ele>33.0</ele><time>2026-04-28T13:01:41Z</time></trkpt><trkpt lat="34.22988440390105" lon="-6.574253557353531"><ele>33.0</ele><time>2026-04-28T13:01:42Z</time></trkpt><trkpt lat="34.229894937120655" lon="-6.573978288606125"><ele>34.0</ele><time>2026-04-28T13:01:43Z</time></trkpt><trkpt lat="34.22990601248688" lon="-6.573699136215005"><ele>35.0</ele><time>2026-04-28T13:01:44Z</time></trkpt><trkpt lat="34.22991664123609" lon="-6.573414075032038"><ele>37.0</ele><time>2026-04-28T13:01:45Z</time></trkpt><trkpt lat="34.22992525298371" lon="-6.573126143920419"><ele>39.0</ele><time>2026-04-28T13:01:46Z</time></trkpt><trkpt lat="34.22993303999857" lon="-6.57284299811146"><ele>39.5</ele><time>2026-04-28T13:01:47Z</time></trkpt><trkpt lat="34.2299412457662" lon="-6.572566362222836"><ele>40.0</ele><time>2026-04-28T13:01:48Z</time></trkpt><trkpt lat="34.22994862263751" lon="-6.572289782581307"><ele>37.0</ele><time>2026-04-28T13:01:49Z</time></trkpt><trkpt lat="34.229956097914055" lon="-6.572012688743362"><ele>34.0</ele><time>2026-04-28T13:01:50Z</time></trkpt><trkpt lat="34.22996312958055" lon="-6.571729675272998"><ele>34.0</ele><time>2026-04-28T13:01:51Z</time></trkpt><trkpt lat="34.22997168811966" lon="-6.571439088293444"><ele>34.0</ele><time>2026-04-28T13:01:52Z</time></trkpt><trkpt lat="34.229980896869776" lon="-6.571142218710233"><ele>36.5</ele><time>2026-04-28T13:01:53Z</time></trkpt><trkpt lat="34.22999045066129" lon="-6.570838332893431"><ele>39.0</ele><time>2026-04-28T13:01:54Z</time></trkpt><trkpt lat="34.22999755360924" lon="-6.570528074777805"><ele>38.0</ele><time>2026-04-28T13:01:55Z</time></trkpt><trkpt lat="34.230002804230516" lon="-6.570212770501359"><ele>37.0</ele><time>2026-04-28T13:01:56Z</time></trkpt><trkpt lat="34.230007231788086" lon="-6.569897642554572"><ele>37.0</ele><time>2026-04-28T13:01:57Z</time></trkpt><trkpt lat="34.23001276131355" lon="-6.569587908114832"><ele>37.0</ele><time>2026-04-28T13:01:58Z</time></trkpt><trkpt lat="34.23001985254655" lon="-6.5692735707329355"><ele>37.0</ele><time>2026-04-28T13:01:59Z</time></trkpt><trkpt lat="34.23002895740944" lon="-6.568950250708778"><ele>37.0</ele><time>2026-04-28T13:02:00Z</time></trkpt><trkpt lat="34.230037719622764" lon="-6.568620620041455"><ele>37.0</ele><time>2026-04-28T13:02:01Z</time></trkpt><trkpt lat="34.23004443312011" lon="-6.568288887286145"><ele>37.0</ele><time>2026-04-28T13:02:01.999Z</time></trkpt><trkpt lat="34.23004455791436" lon="-6.567953585934129"><ele>38.0</ele><time>2026-04-28T13:02:02.999Z</time></trkpt><trkpt lat="34.230038664217474" lon="-6.567615823922218"><ele>39.0</ele><time>2026-04-28T13:02:03.999Z</time></trkpt><trkpt lat="34.23003402330491" lon="-6.567277679919882"><ele>39.5</ele><time>2026-04-28T13:02:04.999Z</time></trkpt><trkpt lat="34.23002991469056" lon="-6.566939044964857"><ele>40.0</ele><time>2026-04-28T13:02:05.999Z</time></trkpt><trkpt lat="34.23002291039524" lon="-6.566603192845941"><ele>40.0</ele><time>2026-04-28T13:02:06.999Z</time></trkpt><trkpt lat="34.23001290562622" lon="-6.566268459969303"><ele>40.0</ele><time>2026-04-28T13:02:07.999Z</time></trkpt><trkpt lat="34.23000073311646" lon="-6.565932799776"><ele>40.5</ele><time>2026-04-28T13:02:08.999Z</time></trkpt><trkpt lat="34.22998756917421" lon="-6.565597577471882"><ele>41.0</ele><time>2026-04-28T13:02:09.999Z</time></trkpt><trkpt lat="34.22997316730183" lon="-6.565263301749749"><ele>40.0</ele><time>2026-04-28T13:02:10.999Z</time></trkpt><trkpt lat="34.229955907548614" lon="-6.564929009363214"><ele>39.0</ele><time>2026-04-28T13:02:11.999Z</time></trkpt><trkpt lat="34.22993556652959" lon="-6.564596145764339"><ele>39.0</ele><time>2026-04-28T13:02:12.999Z</time></trkpt><trkpt lat="34.229908261002194" lon="-6.564264655410167"><ele>39.0</ele><time>2026-04-28T13:02:13.999Z</time></trkpt><trkpt lat="34.22987324281588" lon="-6.563933342736167"><ele>39.5</ele><time>2026-04-28T13:02:14.999Z</time></trkpt><trkpt lat="34.22983248333202" lon="-6.5636051576238765"><ele>40.0</ele><time>2026-04-28T13:02:15.999Z</time></trkpt><trkpt lat="34.22978740810194" lon="-6.563275938620343"><ele>41.0</ele><time>2026-04-28T13:02:16.999Z</time></trkpt><trkpt lat="34.22973775683169" lon="-6.562948224033101"><ele>42.0</ele><time>2026-04-28T13:02:17.999Z</time></trkpt><trkpt lat="34.229682930451006" lon="-6.562619022204937"><ele>42.0</ele><time>2026-04-28T13:02:18.999Z</time></trkpt><trkpt lat="34.22962496907138" lon="-6.562287988053838"><ele>42.0</ele><time>2026-04-28T13:02:19.999Z</time></trkpt><trkpt lat="34.229563378542764" lon="-6.561955408655861"><ele>42.0</ele><time>2026-04-28T13:02:20.999Z</time></trkpt><trkpt lat="34.229495571666455" lon="-6.561621230674152"><ele>42.0</ele><time>2026-04-28T13:02:21.999Z</time></trkpt><trkpt lat="34.229418744131024" lon="-6.561280797105461"><ele>42.0</ele><time>2026-04-28T13:02:22.999Z</time></trkpt><trkpt lat="34.22933388933477" lon="-6.560938590871433"><ele>42.0</ele><time>2026-04-28T13:02:23.999Z</time></trkpt><trkpt lat="34.229244285721904" lon="-6.560592355685415"><ele>41.0</ele><time>2026-04-28T13:02:24.999Z</time></trkpt><trkpt lat="34.22914901859489" lon="-6.560243788308099"><ele>40.0</ele><time>2026-04-28T13:02:25.999Z</time></trkpt><trkpt lat="34.22904901708448" lon="-6.559898260291085"><ele>42.0</ele><time>2026-04-28T13:02:26.999Z</time></trkpt><trkpt lat="34.22894237747957" lon="-6.559558811651357"><ele>44.0</ele><time>2026-04-28T13:02:27.999Z</time></trkpt><trkpt lat="34.22883120872669" lon="-6.5592270802879975"><ele>44.5</ele><time>2026-04-28T13:02:28.999Z</time></trkpt><trkpt lat="34.228718691108824" lon="-6.558905467277746"><ele>45.0</ele><time>2026-04-28T13:02:29.999Z</time></trkpt><trkpt lat="34.22860572832717" lon="-6.558588754258588"><ele>43.5</ele><time>2026-04-28T13:02:30.999Z</time></trkpt><trkpt lat="34.22849197994486" lon="-6.558280294379701"><ele>42.0</ele><time>2026-04-28T13:02:31.999Z</time></trkpt><trkpt lat="34.228379129853074" lon="-6.557975564475856"><ele>43.0</ele><time>2026-04-28T13:02:32.999Z</time></trkpt><trkpt lat="34.22826731123616" lon="-6.557675741933163"><ele>44.0</ele><time>2026-04-28T13:02:33.999Z</time></trkpt><trkpt lat="34.22815535497443" lon="-6.557375714749321"><ele>45.5</ele><time>2026-04-28T13:02:34.999Z</time></trkpt><trkpt lat="34.22804213286016" lon="-6.557073993742148"><ele>47.0</ele><time>2026-04-28T13:02:35.999Z</time></trkpt><trkpt lat="34.22792751752853" lon="-6.556772638453852"><ele>47.0</ele><time>2026-04-28T13:02:36.999Z</time></trkpt><trkpt lat="34.2278109853744" lon="-6.556468711227439"><ele>47.0</ele><time>2026-04-28T13:02:37.999Z</time></trkpt><trkpt lat="34.227693344916986" lon="-6.55616484438709"><ele>46.0</ele><time>2026-04-28T13:02:38.999Z</time></trkpt><trkpt lat="34.22757576823674" lon="-6.555860752140277"><ele>45.0</ele><time>2026-04-28T13:02:39.999Z</time></trkpt><trkpt lat="34.22745984332322" lon="-6.555557648713102"><ele>44.5</ele><time>2026-04-28T13:02:40.999Z</time></trkpt><trkpt lat="34.2273465994083" lon="-6.555257757565118"><ele>44.0</ele><time>2026-04-28T13:02:41.999Z</time></trkpt><trkpt lat="34.22723505402789" lon="-6.554961767711829"><ele>45.5</ele><time>2026-04-28T13:02:42.999Z</time></trkpt><trkpt lat="34.22712507716046" lon="-6.554669415872192"><ele>47.0</ele><time>2026-04-28T13:02:43.999Z</time></trkpt><trkpt lat="34.22701400552738" lon="-6.554377505268859"><ele>47.5</ele><time>2026-04-28T13:02:44.999Z</time></trkpt><trkpt lat="34.22690091192" lon="-6.554083588121964"><ele>48.0</ele><time>2026-04-28T13:02:45.999Z</time></trkpt><trkpt lat="34.22678551994183" lon="-6.5537874950143316"><ele>47.5</ele><time>2026-04-28T13:02:46.999Z</time></trkpt><trkpt lat="34.226671765405996" lon="-6.553489600779256"><ele>47.0</ele><time>2026-04-28T13:02:47.999Z</time></trkpt><trkpt lat="34.226558646411085" lon="-6.553190460783381"><ele>48.0</ele><time>2026-04-28T13:02:48.999Z</time></trkpt><trkpt lat="34.226445425482225" lon="-6.552888179010327"><ele>49.0</ele><time>2026-04-28T13:02:49.999Z</time></trkpt><trkpt lat="34.2263301630316" lon="-6.552582127822356"><ele>49.0</ele><time>2026-04-28T13:02:50.999Z</time></trkpt><trkpt lat="34.22621419325363" lon="-6.552275461085766"><ele>49.0</ele><time>2026-04-28T13:02:51.999Z</time></trkpt><trkpt lat="34.22609597516617" lon="-6.5519681715001505"><ele>48.5</ele><time>2026-04-28T13:02:52.999Z</time></trkpt><trkpt lat="34.22597576410209" lon="-6.551659756799387"><ele>48.0</ele><time>2026-04-28T13:02:53.999Z</time></trkpt><trkpt lat="34.22585564325388" lon="-6.551349668286047"><ele>46.5</ele><time>2026-04-28T13:02:54.999Z</time></trkpt><trkpt lat="34.225735323416394" lon="-6.5510336404797975"><ele>45.0</ele><time>2026-04-28T13:02:55.999Z</time></trkpt><trkpt lat="34.225613303667856" lon="-6.550713241182485"><ele>48.5</ele><time>2026-04-28T13:02:56.999Z</time></trkpt><trkpt lat="34.22548985479857" lon="-6.550390202551699"><ele>52.0</ele><time>2026-04-28T13:02:57.999Z</time></trkpt><trkpt lat="34.225364464320805" lon="-6.550061622306091"><ele>52.0</ele><time>2026-04-28T13:02:58.999Z</time></trkpt><trkpt lat="34.22523802717901" lon="-6.549732557644073"><ele>52.0</ele><time>2026-04-28T13:02:59.999Z</time></trkpt><trkpt lat="34.22511423006469" lon="-6.549408322074519"><ele>50.0</ele><time>2026-04-28T13:03:00.999Z</time></trkpt><trkpt lat="34.224990832352155" lon="-6.5490892983962"><ele>48.0</ele><time>2026-04-28T13:03:01.999Z</time></trkpt><trkpt lat="34.22486681793611" lon="-6.5487655836969925"><ele>49.0</ele><time>2026-04-28T13:03:02.999Z</time></trkpt><trkpt lat="34.22474286345165" lon="-6.548442353398266"><ele>50.0</ele><time>2026-04-28T13:03:03.999Z</time></trkpt><trkpt lat="34.22461795081597" lon="-6.548118641153073"><ele>51.0</ele><time>2026-04-28T13:03:04.999Z</time></trkpt><trkpt lat="34.22449277687211" lon="-6.5477914066493295"><ele>52.0</ele><time>2026-04-28T13:03:05.999Z</time></trkpt><trkpt lat="34.22437038710976" lon="-6.547463409060963"><ele>52.0</ele><time>2026-04-28T13:03:06.999Z</time></trkpt><trkpt lat="34.22425004105865" lon="-6.547135134447934"><ele>52.0</ele><time>2026-04-28T13:03:07.999Z</time></trkpt><trkpt lat="34.224129828145905" lon="-6.546805102984267"><ele>51.5</ele><time>2026-04-28T13:03:08.999Z</time></trkpt><trkpt lat="34.22401081999099" lon="-6.546471895020577"><ele>51.0</ele><time>2026-04-28T13:03:09.999Z</time></trkpt><trkpt lat="34.223896155526226" lon="-6.54613826753399"><ele>52.5</ele><time>2026-04-28T13:03:10.999Z</time></trkpt><trkpt lat="34.223784921578655" lon="-6.545802274681011"><ele>54.0</ele><time>2026-04-28T13:03:11.999Z</time></trkpt><trkpt lat="34.22367883610203" lon="-6.545464230316252"><ele>52.5</ele><time>2026-04-28T13:03:12.999Z</time></trkpt><trkpt lat="34.22357455929652" lon="-6.545126446325216"><ele>51.0</ele><time>2026-04-28T13:03:13.999Z</time></trkpt><trkpt lat="34.223474860555214" lon="-6.544785796708071"><ele>50.0</ele><time>2026-04-28T13:03:14.999Z</time></trkpt><trkpt lat="34.22338151758496" lon="-6.5444432303251014"><ele>49.0</ele><time>2026-04-28T13:03:15.999Z</time></trkpt><trkpt lat="34.22329457587235" lon="-6.544097796232889"><ele>49.0</ele><time>2026-04-28T13:03:16.999Z</time></trkpt><trkpt lat="34.223216604275365" lon="-6.543750030888342"><ele>49.0</ele><time>2026-04-28T13:03:17.999Z</time></trkpt><trkpt lat="34.223144076532556" lon="-6.543399530462425"><ele>49.0</ele><time>2026-04-28T13:03:18.999Z</time></trkpt><trkpt lat="34.22307814841221" lon="-6.543047076844846"><ele>49.0</ele><time>2026-04-28T13:03:19.999Z</time></trkpt><trkpt lat="34.22301988041013" lon="-6.542693026466273"><ele>49.0</ele><time>2026-04-28T13:03:20.999Z</time></trkpt><trkpt lat="34.22296761921408" lon="-6.542336255718913"><ele>49.0</ele><time>2026-04-28T13:03:21.999Z</time></trkpt><trkpt lat="34.22292168751839" lon="-6.541977799045897"><ele>48.5</ele><time>2026-04-28T13:03:22.999Z</time></trkpt><trkpt lat="34.222881530582185" lon="-6.541618336154932"><ele>48.0</ele><time>2026-04-28T13:03:23.999Z</time></trkpt><trkpt lat="34.2228457032682" lon="-6.541259837518547"><ele>49.0</ele><time>2026-04-28T13:03:24.999Z</time></trkpt><trkpt lat="34.222816978699434" lon="-6.540905172031831"><ele>50.0</ele><time>2026-04-28T13:03:26Z</time></trkpt><trkpt lat="34.222797998937835" lon="-6.540551603266416"><ele>49.0</ele><time>2026-04-28T13:03:27Z</time></trkpt><trkpt lat="34.22278706656164" lon="-6.5401996972403476"><ele>48.0</ele><time>2026-04-28T13:03:28Z</time></trkpt><trkpt lat="34.22278060447099" lon="-6.53984851289973"><ele>47.0</ele><time>2026-04-28T13:03:29Z</time></trkpt><trkpt lat="34.222780134893824" lon="-6.539500395409058"><ele>46.0</ele><time>2026-04-28T13:03:30Z</time></trkpt><trkpt lat="34.22278509650069" lon="-6.539156583111642"><ele>46.0</ele><time>2026-04-28T13:03:31Z</time></trkpt><trkpt lat="34.22279639750514" lon="-6.538821467867523"><ele>46.0</ele><time>2026-04-28T13:03:32Z</time></trkpt><trkpt lat="34.222814065212816" lon="-6.53850202779554"><ele>47.0</ele><time>2026-04-28T13:03:33Z</time></trkpt><trkpt lat="34.22283429788348" lon="-6.538208829511032"><ele>48.0</ele><time>2026-04-28T13:03:34Z</time></trkpt><trkpt lat="34.222859646363865" lon="-6.537924863824126"><ele>46.5</ele><time>2026-04-28T13:03:35Z</time></trkpt><trkpt lat="34.22288924795755" lon="-6.5376454935900705"><ele>45.0</ele><time>2026-04-28T13:03:36Z</time></trkpt><trkpt lat="34.222923018068194" lon="-6.537356189430182"><ele>45.0</ele><time>2026-04-28T13:03:37Z</time></trkpt><trkpt lat="34.22296009965708" lon="-6.537062788156065"><ele>45.0</ele><time>2026-04-28T13:03:38Z</time></trkpt><trkpt lat="34.22299906121385" lon="-6.536769602831719"><ele>45.0</ele><time>2026-04-28T13:03:39Z</time></trkpt><trkpt lat="34.22304253309763" lon="-6.536472689698784"><ele>45.0</ele><time>2026-04-28T13:03:40Z</time></trkpt><trkpt lat="34.2230910330159" lon="-6.536170806766505"><ele>45.0</ele><time>2026-04-28T13:03:41Z</time></trkpt><trkpt lat="34.22314607677239" lon="-6.535866142079812"><ele>45.0</ele><time>2026-04-28T13:03:42Z</time></trkpt><trkpt lat="34.223208910124754" lon="-6.535561758481375"><ele>45.5</ele><time>2026-04-28T13:03:43Z</time></trkpt><trkpt lat="34.22328286297183" lon="-6.53525134265144"><ele>46.0</ele><time>2026-04-28T13:03:44Z</time></trkpt><trkpt lat="34.22335891681117" lon="-6.534944027843912"><ele>46.0</ele><time>2026-04-28T13:03:45Z</time></trkpt><trkpt lat="34.22343782021386" lon="-6.534633298925999"><ele>46.0</ele><time>2026-04-28T13:03:46Z</time></trkpt><trkpt lat="34.22352144797059" lon="-6.534319224297699"><ele>46.0</ele><time>2026-04-28T13:03:47Z</time></trkpt><trkpt lat="34.223613611953425" lon="-6.534004550793122"><ele>46.0</ele><time>2026-04-28T13:03:48Z</time></trkpt><trkpt lat="34.22371372638858" lon="-6.533685864192965"><ele>46.0</ele><time>2026-04-28T13:03:49Z</time></trkpt><trkpt lat="34.22382158503185" lon="-6.533363859422313"><ele>46.0</ele><time>2026-04-28T13:03:50Z</time></trkpt><trkpt lat="34.22393629465178" lon="-6.533042224770034"><ele>42.5</ele><time>2026-04-28T13:03:51Z</time></trkpt><trkpt lat="34.22405894299056" lon="-6.532721366671113"><ele>39.0</ele><time>2026-04-28T13:03:52Z</time></trkpt><trkpt lat="34.22418734439424" lon="-6.532403655068761"><ele>39.0</ele><time>2026-04-28T13:03:53Z</time></trkpt><trkpt lat="34.22432061479388" lon="-6.532085948927245"><ele>39.0</ele><time>2026-04-28T13:03:54Z</time></trkpt><trkpt lat="34.22445904076078" lon="-6.531771602460874"><ele>38.5</ele><time>2026-04-28T13:03:55Z</time></trkpt><trkpt lat="34.22460101502176" lon="-6.531463084847592"><ele>38.0</ele><time>2026-04-28T13:03:56Z</time></trkpt><trkpt lat="34.22474970465566" lon="-6.531158437167635"><ele>36.0</ele><time>2026-04-28T13:03:57Z</time></trkpt><trkpt lat="34.22490505586264" lon="-6.530857648487131"><ele>34.0</ele><time>2026-04-28T13:03:58Z</time></trkpt><trkpt lat="34.22506203985186" lon="-6.530564523640284"><ele>33.5</ele><time>2026-04-28T13:03:59Z</time></trkpt><trkpt lat="34.22521932874526" lon="-6.530285271830031"><ele>33.0</ele><time>2026-04-28T13:04:00Z</time></trkpt><trkpt lat="34.225380630538304" lon="-6.530017239494164"><ele>33.0</ele><time>2026-04-28T13:04:01Z</time></trkpt><trkpt lat="34.22554553041117" lon="-6.5297586093015365"><ele>33.0</ele><time>2026-04-28T13:04:02Z</time></trkpt><trkpt lat="34.22571366522347" lon="-6.529500766188618"><ele>31.5</ele><time>2026-04-28T13:04:03Z</time></trkpt><trkpt lat="34.22588344619035" lon="-6.529237907003905"><ele>30.0</ele><time>2026-04-28T13:04:04Z</time></trkpt><trkpt lat="34.22605470212541" lon="-6.528967211706104"><ele>31.0</ele><time>2026-04-28T13:04:05Z</time></trkpt><trkpt lat="34.22622634370888" lon="-6.528693062939437"><ele>32.0</ele><time>2026-04-28T13:04:06Z</time></trkpt><trkpt lat="34.226395798948914" lon="-6.528416858318074"><ele>31.0</ele><time>2026-04-28T13:04:07Z</time></trkpt><trkpt lat="34.22656579819013" lon="-6.5281376088156176"><ele>30.0</ele><time>2026-04-28T13:04:08Z</time></trkpt><trkpt lat="34.22673817839487" lon="-6.527859009497488"><ele>30.0</ele><time>2026-04-28T13:04:09Z</time></trkpt><trkpt lat="34.22691002902892" lon="-6.527579503128374"><ele>30.0</ele><time>2026-04-28T13:04:09.999Z</time></trkpt><trkpt lat="34.22707648690491" lon="-6.527291911641121"><ele>30.5</ele><time>2026-04-28T13:04:10.999Z</time></trkpt><trkpt lat="34.22724320934209" lon="-6.527007980625924"><ele>31.0</ele><time>2026-04-28T13:04:11.999Z</time></trkpt><trkpt lat="34.22741162069485" lon="-6.526732646059656"><ele>30.0</ele><time>2026-04-28T13:04:12.999Z</time></trkpt><trkpt lat="34.22758338346306" lon="-6.526458745574983"><ele>29.0</ele><time>2026-04-28T13:04:13.999Z</time></trkpt><trkpt lat="34.22775531934529" lon="-6.526189025977122"><ele>29.0</ele><time>2026-04-28T13:04:14.999Z</time></trkpt><trkpt lat="34.22792617423617" lon="-6.525926603721414"><ele>29.0</ele><time>2026-04-28T13:04:15.999Z</time></trkpt><trkpt lat="34.22809850720489" lon="-6.525664596447261"><ele>28.0</ele><time>2026-04-28T13:04:16.999Z</time></trkpt><trkpt lat="34.22827380999125" lon="-6.525402838214524"><ele>27.0</ele><time>2026-04-28T13:04:17.999Z</time></trkpt><trkpt lat="34.22844756589222" lon="-6.525140351545996"><ele>27.0</ele><time>2026-04-28T13:04:18.999Z</time></trkpt><trkpt lat="34.22861679293382" lon="-6.524884053568781"><ele>27.0</ele><time>2026-04-28T13:04:19.999Z</time></trkpt><trkpt lat="34.228784764230205" lon="-6.524634624089111"><ele>27.0</ele><time>2026-04-28T13:04:20.999Z</time></trkpt><trkpt lat="34.22895189141443" lon="-6.524391085021335"><ele>27.0</ele><time>2026-04-28T13:04:21.999Z</time></trkpt><trkpt lat="34.229123140816085" lon="-6.524147060604611"><ele>26.5</ele><time>2026-04-28T13:04:22.999Z</time></trkpt><trkpt lat="34.22929870447549" lon="-6.523901575031892"><ele>26.0</ele><time>2026-04-28T13:04:23.999Z</time></trkpt><trkpt lat="34.22947903204719" lon="-6.5236585927586646"><ele>26.0</ele><time>2026-04-28T13:04:24.999Z</time></trkpt><trkpt lat="34.229661375259205" lon="-6.523415296778787"><ele>26.0</ele><time>2026-04-28T13:04:25.999Z</time></trkpt><trkpt lat="34.229846942674385" lon="-6.523172336331155"><ele>26.5</ele><time>2026-04-28T13:04:26.999Z</time></trkpt><trkpt lat="34.23003671752438" lon="-6.522934128225378"><ele>27.0</ele><time>2026-04-28T13:04:27.999Z</time></trkpt><trkpt lat="34.23023141842625" lon="-6.522697613723783"><ele>27.0</ele><time>2026-04-28T13:04:28.999Z</time></trkpt><trkpt lat="34.23043372263064" lon="-6.522467057115148"><ele>27.0</ele><time>2026-04-28T13:04:29.999Z</time></trkpt><trkpt lat="34.2306395738164" lon="-6.522245656057028"><ele>26.0</ele><time>2026-04-28T13:04:30.999Z</time></trkpt><trkpt lat="34.23084562813657" lon="-6.52203421807305"><ele>25.0</ele><time>2026-04-28T13:04:31.999Z</time></trkpt><trkpt lat="34.231051815069236" lon="-6.521831097671887"><ele>25.0</ele><time>2026-04-28T13:04:32.999Z</time></trkpt><trkpt lat="34.231255780518964" lon="-6.52163690304809"><ele>25.0</ele><time>2026-04-28T13:04:33.999Z</time></trkpt><trkpt lat="34.231452558026724" lon="-6.5214589508060845"><ele>25.5</ele><time>2026-04-28T13:04:34.999Z</time></trkpt><trkpt lat="34.231650780384825" lon="-6.521293625682603"><ele>26.0</ele><time>2026-04-28T13:04:35.999Z</time></trkpt><trkpt lat="34.23186050313564" lon="-6.521128376455495"><ele>26.0</ele><time>2026-04-28T13:04:36.999Z</time></trkpt><trkpt lat="34.232076516091034" lon="-6.52096325611721"><ele>26.0</ele><time>2026-04-28T13:04:37.999Z</time></trkpt><trkpt lat="34.232300943586345" lon="-6.5207959249311305"><ele>24.5</ele><time>2026-04-28T13:04:38.999Z</time></trkpt><trkpt lat="34.232534788515764" lon="-6.520624184225081"><ele>23.0</ele><time>2026-04-28T13:04:39.999Z</time></trkpt><trkpt lat="34.23277733288657" lon="-6.520452756842419"><ele>23.0</ele><time>2026-04-28T13:04:40.999Z</time></trkpt><trkpt lat="34.23302947412498" lon="-6.520281393718875"><ele>23.0</ele><time>2026-04-28T13:04:41.999Z</time></trkpt><trkpt lat="34.233290264201294" lon="-6.520110946542239"><ele>23.0</ele><time>2026-04-28T13:04:42.999Z</time></trkpt><trkpt lat="34.23355839185039" lon="-6.519942891056751"><ele>23.0</ele><time>2026-04-28T13:04:43.999Z</time></trkpt><trkpt lat="34.2338313514464" lon="-6.519781469568714"><ele>23.0</ele><time>2026-04-28T13:04:44.999Z</time></trkpt><trkpt lat="34.23410475576604" lon="-6.519631668915062"><ele>23.0</ele><time>2026-04-28T13:04:45.999Z</time></trkpt><trkpt lat="34.23436792675568" lon="-6.519465982656995"><ele>23.0</ele><time>2026-04-28T13:04:46.999Z</time></trkpt><trkpt lat="34.23465526041238" lon="-6.519359079831855"><ele>23.0</ele><time>2026-04-28T13:04:47.999Z</time></trkpt><trkpt lat="34.23492868895945" lon="-6.519235172019082"><ele>22.0</ele><time>2026-04-28T13:04:48.999Z</time></trkpt><trkpt lat="34.2352044939246" lon="-6.519114089992372"><ele>21.0</ele><time>2026-04-28T13:04:49.999Z</time></trkpt><trkpt lat="34.23548284992279" lon="-6.51899660947683"><ele>21.0</ele><time>2026-04-28T13:04:50.999Z</time></trkpt><trkpt lat="34.23576488974519" lon="-6.518887575991868"><ele>21.0</ele><time>2026-04-28T13:04:51.999Z</time></trkpt><trkpt lat="34.236049539609525" lon="-6.518791107929164"><ele>20.5</ele><time>2026-04-28T13:04:52.999Z</time></trkpt><trkpt lat="34.236334523476216" lon="-6.5187055493235215"><ele>20.0</ele><time>2026-04-28T13:04:53.999Z</time></trkpt><trkpt lat="34.236620849857886" lon="-6.518627288577309"><ele>20.0</ele><time>2026-04-28T13:04:54.999Z</time></trkpt><trkpt lat="34.236909563385254" lon="-6.518552594268013"><ele>20.0</ele><time>2026-04-28T13:04:55.999Z</time></trkpt><trkpt lat="34.237200387670434" lon="-6.518484607513725"><ele>18.5</ele><time>2026-04-28T13:04:56.999Z</time></trkpt><trkpt lat="34.237492075247246" lon="-6.518422957257935"><ele>17.0</ele><time>2026-04-28T13:04:57.999Z</time></trkpt><trkpt lat="34.23778631478212" lon="-6.518367735521935"><ele>17.0</ele><time>2026-04-28T13:04:58.999Z</time></trkpt><trkpt lat="34.23808244575254" lon="-6.518316754898985"><ele>17.0</ele><time>2026-04-28T13:04:59.999Z</time></trkpt><trkpt lat="34.23837869323814" lon="-6.5182678348564655"><ele>15.5</ele><time>2026-04-28T13:05:00.999Z</time></trkpt><trkpt lat="34.23867508669194" lon="-6.518220041785377"><ele>14.0</ele><time>2026-04-28T13:05:01.999Z</time></trkpt><trkpt lat="34.23897144610032" lon="-6.518172793019167"><ele>13.5</ele><time>2026-04-28T13:05:02.999Z</time></trkpt><trkpt lat="34.239267703663316" lon="-6.518128329606208"><ele>13.0</ele><time>2026-04-28T13:05:03.999Z</time></trkpt><trkpt lat="34.23956508182056" lon="-6.518086622368412"><ele>11.5</ele><time>2026-04-28T13:05:04.999Z</time></trkpt><trkpt lat="34.23986232431059" lon="-6.518044170308433"><ele>10.0</ele><time>2026-04-28T13:05:05.999Z</time></trkpt><trkpt lat="34.2401580416649" lon="-6.517999327314608"><ele>10.0</ele><time>2026-04-28T13:05:06.999Z</time></trkpt><trkpt lat="34.240452287173284" lon="-6.517950347902891"><ele>10.0</ele><time>2026-04-28T13:05:07.999Z</time></trkpt><trkpt lat="34.24074726153136" lon="-6.517902554502834"><ele>9.0</ele><time>2026-04-28T13:05:08.999Z</time></trkpt><trkpt lat="34.241041844178916" lon="-6.51785492505614"><ele>8.0</ele><time>2026-04-28T13:05:09.999Z</time></trkpt><trkpt lat="34.24133638332086" lon="-6.517807961603646"><ele>8.0</ele><time>2026-04-28T13:05:10.999Z</time></trkpt><trkpt lat="34.24163147219154" lon="-6.517763409220739"><ele>8.0</ele><time>2026-04-28T13:05:11.999Z</time></trkpt><trkpt lat="34.241928487380186" lon="-6.517717392733654"><ele>8.0</ele><time>2026-04-28T13:05:12.999Z</time></trkpt><trkpt lat="34.24222367451242" lon="-6.517671720323966"><ele>8.0</ele><time>2026-04-28T13:05:13.999Z</time></trkpt><trkpt lat="34.242517825825246" lon="-6.517625377629695"><ele>7.5</ele><time>2026-04-28T13:05:14.999Z</time></trkpt><trkpt lat="34.242811982848146" lon="-6.5175783135911045"><ele>7.0</ele><time>2026-04-28T13:05:15.999Z</time></trkpt><trkpt lat="34.24310528945806" lon="-6.517530635571249"><ele>8.5</ele><time>2026-04-28T13:05:16.999Z</time></trkpt><trkpt lat="34.24339853508377" lon="-6.517483554850946"><ele>10.0</ele><time>2026-04-28T13:05:17.999Z</time></trkpt><trkpt lat="34.24369039510039" lon="-6.517437612601841"><ele>10.5</ele><time>2026-04-28T13:05:18.999Z</time></trkpt><trkpt lat="34.24398342247896" lon="-6.517390028800255"><ele>11.0</ele><time>2026-04-28T13:05:19.999Z</time></trkpt><trkpt lat="34.24427730359052" lon="-6.517343041022846"><ele>11.0</ele><time>2026-04-28T13:05:20.999Z</time></trkpt><trkpt lat="34.24456976815404" lon="-6.517296458592865"><ele>11.0</ele><time>2026-04-28T13:05:21.999Z</time></trkpt><trkpt lat="34.244861577387695" lon="-6.517251684018523"><ele>11.5</ele><time>2026-04-28T13:05:22.999Z</time></trkpt><trkpt lat="34.245152260308956" lon="-6.5172069842210805"><ele>12.0</ele><time>2026-04-28T13:05:23.999Z</time></trkpt><trkpt lat="34.24544196750599" lon="-6.517161729506819"><ele>13.0</ele><time>2026-04-28T13:05:24.999Z</time></trkpt><trkpt lat="34.24573094287659" lon="-6.517117676257516"><ele>14.0</ele><time>2026-04-28T13:05:25.999Z</time></trkpt><trkpt lat="34.24601725848774" lon="-6.517075275819551"><ele>13.5</ele><time>2026-04-28T13:05:26.999Z</time></trkpt><trkpt lat="34.24630173771819" lon="-6.517035726665028"><ele>13.0</ele><time>2026-04-28T13:05:27.999Z</time></trkpt><trkpt lat="34.24658743444197" lon="-6.516995766301715"><ele>13.0</ele><time>2026-04-28T13:05:28.999Z</time></trkpt><trkpt lat="34.246872408246205" lon="-6.516954982023247"><ele>13.0</ele><time>2026-04-28T13:05:29.999Z</time></trkpt><trkpt lat="34.24715266590763" lon="-6.516914283765235"><ele>13.5</ele><time>2026-04-28T13:05:30.999Z</time></trkpt><trkpt lat="34.247427338935886" lon="-6.516871983993355"><ele>14.0</ele><time>2026-04-28T13:05:32Z</time></trkpt><trkpt lat="34.247701221399254" lon="-6.516824542174368"><ele>14.0</ele><time>2026-04-28T13:05:33Z</time></trkpt><trkpt lat="34.24797369264213" lon="-6.516773774743483"><ele>14.0</ele><time>2026-04-28T13:05:34Z</time></trkpt><trkpt lat="34.24824768114929" lon="-6.516718820105254"><ele>15.5</ele><time>2026-04-28T13:05:35Z</time></trkpt><trkpt lat="34.24852019270356" lon="-6.516662839817289"><ele>17.0</ele><time>2026-04-28T13:05:36Z</time></trkpt><trkpt lat="34.24879161587018" lon="-6.516605712862518"><ele>16.5</ele><time>2026-04-28T13:05:37Z</time></trkpt><trkpt lat="34.24906106801369" lon="-6.516548442142754"><ele>16.0</ele><time>2026-04-28T13:05:38Z</time></trkpt><trkpt lat="34.249329441033126" lon="-6.516488222264372"><ele>16.0</ele><time>2026-04-28T13:05:39Z</time></trkpt><trkpt lat="34.24959525137134" lon="-6.516424361414514"><ele>16.0</ele><time>2026-04-28T13:05:40Z</time></trkpt><trkpt lat="34.24986035078438" lon="-6.51635744668823"><ele>15.5</ele><time>2026-04-28T13:05:41Z</time></trkpt><trkpt lat="34.25012431942701" lon="-6.516288711780737"><ele>15.0</ele><time>2026-04-28T13:05:42Z</time></trkpt><trkpt lat="34.25038647205954" lon="-6.516220205845881"><ele>16.0</ele><time>2026-04-28T13:05:43Z</time></trkpt><trkpt lat="34.250649199223446" lon="-6.516151541035309"><ele>17.0</ele><time>2026-04-28T13:05:44Z</time></trkpt><trkpt lat="34.25090961317512" lon="-6.51607997262755"><ele>17.0</ele><time>2026-04-28T13:05:45Z</time></trkpt><trkpt lat="34.25116529574297" lon="-6.516008562797076"><ele>17.0</ele><time>2026-04-28T13:05:46Z</time></trkpt><trkpt lat="34.251416033264505" lon="-6.515934831253256"><ele>16.5</ele><time>2026-04-28T13:05:47Z</time></trkpt><trkpt lat="34.251662278987176" lon="-6.5158612824876085"><ele>16.0</ele><time>2026-04-28T13:05:48Z</time></trkpt><trkpt lat="34.25190737309633" lon="-6.515786689559783"><ele>16.0</ele><time>2026-04-28T13:05:49Z</time></trkpt><trkpt lat="34.252151216704334" lon="-6.5157116182206325"><ele>16.0</ele><time>2026-04-28T13:05:50Z</time></trkpt><trkpt lat="34.252395955382205" lon="-6.515635225760243"><ele>15.5</ele><time>2026-04-28T13:05:51Z</time></trkpt><trkpt lat="34.25264642098381" lon="-6.5155554793793815"><ele>15.0</ele><time>2026-04-28T13:05:52Z</time></trkpt><trkpt lat="34.25290690563774" lon="-6.515470797730886"><ele>17.0</ele><time>2026-04-28T13:05:53Z</time></trkpt><trkpt lat="34.253174885103334" lon="-6.5153805738161"><ele>19.0</ele><time>2026-04-28T13:05:54Z</time></trkpt><trkpt lat="34.253448267260026" lon="-6.515285452416469"><ele>19.0</ele><time>2026-04-28T13:05:55Z</time></trkpt><trkpt lat="34.25372343967204" lon="-6.515186034303421"><ele>19.0</ele><time>2026-04-28T13:05:56Z</time></trkpt><trkpt lat="34.25400220426856" lon="-6.515083121999635"><ele>18.5</ele><time>2026-04-28T13:05:57Z</time></trkpt><trkpt lat="34.25428512248466" lon="-6.514978221163687"><ele>18.0</ele><time>2026-04-28T13:05:58Z</time></trkpt><trkpt lat="34.25456802966146" lon="-6.514870300785823"><ele>17.5</ele><time>2026-04-28T13:05:59Z</time></trkpt><trkpt lat="34.25485026378928" lon="-6.514757227004381"><ele>17.0</ele><time>2026-04-28T13:06:00Z</time></trkpt><trkpt lat="34.25513191844695" lon="-6.514642483419258"><ele>16.5</ele><time>2026-04-28T13:06:01Z</time></trkpt><trkpt lat="34.25541609158892" lon="-6.514525044297224"><ele>16.0</ele><time>2026-04-28T13:06:02Z</time></trkpt><trkpt lat="34.25569888368862" lon="-6.51440687431696"><ele>16.0</ele><time>2026-04-28T13:06:03Z</time></trkpt><trkpt lat="34.25598073480096" lon="-6.514287092174642"><ele>16.0</ele><time>2026-04-28T13:06:04Z</time></trkpt><trkpt lat="34.25626212611008" lon="-6.514165373667328"><ele>15.0</ele><time>2026-04-28T13:06:05Z</time></trkpt><trkpt lat="34.256544763838455" lon="-6.51404397729814"><ele>14.0</ele><time>2026-04-28T13:06:06Z</time></trkpt><trkpt lat="34.25682624306011" lon="-6.513924756842399"><ele>14.0</ele><time>2026-04-28T13:06:07Z</time></trkpt><trkpt lat="34.257106316671866" lon="-6.5138047891539355"><ele>14.0</ele><time>2026-04-28T13:06:08Z</time></trkpt><trkpt lat="34.25738659474743" lon="-6.513686927760218"><ele>13.0</ele><time>2026-04-28T13:06:09Z</time></trkpt><trkpt lat="34.25766885123565" lon="-6.51356769420606"><ele>12.0</ele><time>2026-04-28T13:06:10Z</time></trkpt><trkpt lat="34.257950857217836" lon="-6.513451092658664"><ele>12.0</ele><time>2026-04-28T13:06:11Z</time></trkpt><trkpt lat="34.25823214036124" lon="-6.5133349380705665"><ele>12.0</ele><time>2026-04-28T13:06:12Z</time></trkpt><trkpt lat="34.25851226113545" lon="-6.513216876087514"><ele>12.0</ele><time>2026-04-28T13:06:12.999Z</time></trkpt><trkpt lat="34.258792487210215" lon="-6.513096155555353"><ele>12.0</ele><time>2026-04-28T13:06:13.999Z</time></trkpt><trkpt lat="34.25907103530117" lon="-6.5129777580545545"><ele>14.0</ele><time>2026-04-28T13:06:14.999Z</time></trkpt><trkpt lat="34.25934914662474" lon="-6.512862284537504"><ele>16.0</ele><time>2026-04-28T13:06:15.999Z</time></trkpt><trkpt lat="34.25962728666766" lon="-6.5127484918166685"><ele>16.0</ele><time>2026-04-28T13:06:16.999Z</time></trkpt><trkpt lat="34.259905983178356" lon="-6.5126306348878105"><ele>16.0</ele><time>2026-04-28T13:06:17.999Z</time></trkpt><trkpt lat="34.260186313792836" lon="-6.5125127722864775"><ele>16.0</ele><time>2026-04-28T13:06:18.999Z</time></trkpt><trkpt lat="34.2604664441897" lon="-6.512395184462153"><ele>16.0</ele><time>2026-04-28T13:06:19.999Z</time></trkpt><trkpt lat="34.260747886153744" lon="-6.512278289186749"><ele>17.0</ele><time>2026-04-28T13:06:20.999Z</time></trkpt><trkpt lat="34.26102960169104" lon="-6.512159066450675"><ele>18.0</ele><time>2026-04-28T13:06:21.999Z</time></trkpt><trkpt lat="34.26131055951544" lon="-6.512036557005718"><ele>19.0</ele><time>2026-04-28T13:06:22.999Z</time></trkpt><trkpt lat="34.261591253313455" lon="-6.511914409275634"><ele>20.0</ele><time>2026-04-28T13:06:23.999Z</time></trkpt><trkpt lat="34.261872635331436" lon="-6.511792434020467"><ele>20.0</ele><time>2026-04-28T13:06:24.999Z</time></trkpt><trkpt lat="34.26215491267091" lon="-6.5116707434978265"><ele>20.0</ele><time>2026-04-28T13:06:25.999Z</time></trkpt><trkpt lat="34.26243585124598" lon="-6.511548849216309"><ele>20.0</ele><time>2026-04-28T13:06:26.999Z</time></trkpt><trkpt lat="34.26271599385461" lon="-6.511425377436146"><ele>20.0</ele><time>2026-04-28T13:06:27.999Z</time></trkpt><trkpt lat="34.26299471075618" lon="-6.511299409258691"><ele>19.0</ele><time>2026-04-28T13:06:28.999Z</time></trkpt><trkpt lat="34.26327321024404" lon="-6.5111723536723005"><ele>18.0</ele><time>2026-04-28T13:06:29.999Z</time></trkpt><trkpt lat="34.26355323065003" lon="-6.511049477901312"><ele>18.0</ele><time>2026-04-28T13:06:30.999Z</time></trkpt><trkpt lat="34.26383432716571" lon="-6.510930076069235"><ele>18.0</ele><time>2026-04-28T13:06:31.999Z</time></trkpt><trkpt lat="34.264116329245915" lon="-6.510813569098715"><ele>17.5</ele><time>2026-04-28T13:06:32.999Z</time></trkpt><trkpt lat="34.26439913822447" lon="-6.510695501591368"><ele>17.0</ele><time>2026-04-28T13:06:33.999Z</time></trkpt><trkpt lat="34.26468260941608" lon="-6.510579084152813"><ele>17.5</ele><time>2026-04-28T13:06:34.999Z</time></trkpt><trkpt lat="34.26496612804308" lon="-6.5104635500351815"><ele>18.0</ele><time>2026-04-28T13:06:35.999Z</time></trkpt><trkpt lat="34.26525037205183" lon="-6.510349244394147"><ele>19.0</ele><time>2026-04-28T13:06:36.999Z</time></trkpt><trkpt lat="34.265533829888426" lon="-6.510235083728239"><ele>20.0</ele><time>2026-04-28T13:06:37.999Z</time></trkpt><trkpt lat="34.265816042017896" lon="-6.510117186587371"><ele>20.0</ele><time>2026-04-28T13:06:38.999Z</time></trkpt><trkpt lat="34.26609701938602" lon="-6.5100004939451255"><ele>20.0</ele><time>2026-04-28T13:06:39.999Z</time></trkpt><trkpt lat="34.26637946758737" lon="-6.509884056566761"><ele>17.5</ele><time>2026-04-28T13:06:40.999Z</time></trkpt><trkpt lat="34.266661924907496" lon="-6.50976872106875"><ele>15.0</ele><time>2026-04-28T13:06:41.999Z</time></trkpt><trkpt lat="34.26694360602323" lon="-6.509651788473184"><ele>14.5</ele><time>2026-04-28T13:06:42.999Z</time></trkpt><trkpt lat="34.267224312675836" lon="-6.509531377100523"><ele>14.0</ele><time>2026-04-28T13:06:43.999Z</time></trkpt><trkpt lat="34.26750264232404" lon="-6.509409800266524"><ele>14.0</ele><time>2026-04-28T13:06:44.999Z</time></trkpt><trkpt lat="34.26778103615597" lon="-6.509287412057187"><ele>14.0</ele><time>2026-04-28T13:06:45.999Z</time></trkpt><trkpt lat="34.268060448590646" lon="-6.509163379720994"><ele>14.5</ele><time>2026-04-28T13:06:46.999Z</time></trkpt><trkpt lat="34.268339036216695" lon="-6.509036370837746"><ele>15.0</ele><time>2026-04-28T13:06:47.999Z</time></trkpt><trkpt lat="34.26861715015736" lon="-6.508909594240533"><ele>15.0</ele><time>2026-04-28T13:06:48.999Z</time></trkpt><trkpt lat="34.268896615551775" lon="-6.508784050066654"><ele>15.0</ele><time>2026-04-28T13:06:49.999Z</time></trkpt><trkpt lat="34.2691773686226" lon="-6.508663433089522"><ele>16.5</ele><time>2026-04-28T13:06:50.999Z</time></trkpt><trkpt lat="34.26945869970938" lon="-6.508545131011481"><ele>18.0</ele><time>2026-04-28T13:06:51.999Z</time></trkpt><trkpt lat="34.26973924417041" lon="-6.508427379932275"><ele>17.5</ele><time>2026-04-28T13:06:52.999Z</time></trkpt><trkpt lat="34.27002234846722" lon="-6.508309118139076"><ele>17.0</ele><time>2026-04-28T13:06:53.999Z</time></trkpt><trkpt lat="34.27030380269346" lon="-6.5081901077194555"><ele>17.0</ele><time>2026-04-28T13:06:54.999Z</time></trkpt><trkpt lat="34.27058024845529" lon="-6.508075591154902"><ele>17.0</ele><time>2026-04-28T13:06:55.999Z</time></trkpt><trkpt lat="34.27085837243152" lon="-6.507963882132212"><ele>17.5</ele><time>2026-04-28T13:06:56.999Z</time></trkpt><trkpt lat="34.27114039982117" lon="-6.507852001137234"><ele>18.0</ele><time>2026-04-28T13:06:57.999Z</time></trkpt><trkpt lat="34.27142274539808" lon="-6.5077380114172385"><ele>18.0</ele><time>2026-04-28T13:06:58.999Z</time></trkpt><trkpt lat="34.27170434772038" lon="-6.507622157769284"><ele>18.0</ele><time>2026-04-28T13:06:59.999Z</time></trkpt><trkpt lat="34.27198577946296" lon="-6.5075042637707785"><ele>18.0</ele><time>2026-04-28T13:07:00.999Z</time></trkpt><trkpt lat="34.27226675125401" lon="-6.507386122677421"><ele>18.0</ele><time>2026-04-28T13:07:01.999Z</time></trkpt><trkpt lat="34.272545424395496" lon="-6.50726901498674"><ele>18.0</ele><time>2026-04-28T13:07:02.999Z</time></trkpt><trkpt lat="34.272824350575384" lon="-6.507149753674071"><ele>18.0</ele><time>2026-04-28T13:07:03.999Z</time></trkpt><trkpt lat="34.27310444334279" lon="-6.507028824701876"><ele>18.5</ele><time>2026-04-28T13:07:04.999Z</time></trkpt><trkpt lat="34.273386040744256" lon="-6.506904606247067"><ele>19.0</ele><time>2026-04-28T13:07:05.999Z</time></trkpt><trkpt lat="34.273665346860646" lon="-6.506780908884546"><ele>17.0</ele><time>2026-04-28T13:07:06.999Z</time></trkpt><trkpt lat="34.27394537273218" lon="-6.50665786077446"><ele>15.0</ele><time>2026-04-28T13:07:07.999Z</time></trkpt><trkpt lat="34.27422593392639" lon="-6.5065372330400555"><ele>15.0</ele><time>2026-04-28T13:07:08.999Z</time></trkpt><trkpt lat="34.27450857842822" lon="-6.50641931500953"><ele>15.0</ele><time>2026-04-28T13:07:09.999Z</time></trkpt><trkpt lat="34.2747907038962" lon="-6.5063011728457845"><ele>18.0</ele><time>2026-04-28T13:07:10.999Z</time></trkpt><trkpt lat="34.27507170744176" lon="-6.506182762320538"><ele>21.0</ele><time>2026-04-28T13:07:11.999Z</time></trkpt><trkpt lat="34.2753515991868" lon="-6.506061302457765"><ele>19.0</ele><time>2026-04-28T13:07:12.999Z</time></trkpt><trkpt lat="34.27563034793629" lon="-6.505938405393985"><ele>17.0</ele><time>2026-04-28T13:07:13.999Z</time></trkpt><trkpt lat="34.27590907727773" lon="-6.505816328797201"><ele>17.0</ele><time>2026-04-28T13:07:14.999Z</time></trkpt><trkpt lat="34.27618840106813" lon="-6.505697608175482"><ele>17.0</ele><time>2026-04-28T13:07:15.999Z</time></trkpt><trkpt lat="34.276469163143936" lon="-6.505581800363531"><ele>17.5</ele><time>2026-04-28T13:07:16.999Z</time></trkpt><trkpt lat="34.2767503528627" lon="-6.5054694924719065"><ele>18.0</ele><time>2026-04-28T13:07:17.999Z</time></trkpt><trkpt lat="34.277033057481354" lon="-6.505360061820989"><ele>19.0</ele><time>2026-04-28T13:07:18.999Z</time></trkpt><trkpt lat="34.277316676122226" lon="-6.505253073602872"><ele>20.0</ele><time>2026-04-28T13:07:19.999Z</time></trkpt><trkpt lat="34.27760133898759" lon="-6.505149172208864"><ele>20.0</ele><time>2026-04-28T13:07:20.999Z</time></trkpt><trkpt lat="34.277887844735126" lon="-6.505045785141765"><ele>20.0</ele><time>2026-04-28T13:07:21.999Z</time></trkpt><trkpt lat="34.27817429402575" lon="-6.50494363961546"><ele>20.5</ele><time>2026-04-28T13:07:22.999Z</time></trkpt><trkpt lat="34.27846204551343" lon="-6.504841829038636"><ele>21.0</ele><time>2026-04-28T13:07:23.999Z</time></trkpt><trkpt lat="34.278749783386516" lon="-6.50474156405023"><ele>21.0</ele><time>2026-04-28T13:07:24.999Z</time></trkpt><trkpt lat="34.27903887794324" lon="-6.504643208483672"><ele>21.0</ele><time>2026-04-28T13:07:25.999Z</time></trkpt><trkpt lat="34.279329375874156" lon="-6.504548723857418"><ele>21.0</ele><time>2026-04-28T13:07:26.999Z</time></trkpt><trkpt lat="34.2796198786287" lon="-6.504459125572793"><ele>21.0</ele><time>2026-04-28T13:07:27.999Z</time></trkpt><trkpt lat="34.279910275103546" lon="-6.504373756264387"><ele>21.5</ele><time>2026-04-28T13:07:28.999Z</time></trkpt><trkpt lat="34.280200378655316" lon="-6.504289430263699"><ele>22.0</ele><time>2026-04-28T13:07:29.999Z</time></trkpt><trkpt lat="34.28048908114236" lon="-6.504205785551732"><ele>21.5</ele><time>2026-04-28T13:07:30.999Z</time></trkpt><trkpt lat="34.28077820906263" lon="-6.504123438465806"><ele>21.0</ele><time>2026-04-28T13:07:31.999Z</time></trkpt><trkpt lat="34.28106891128979" lon="-6.504043249719225"><ele>21.0</ele><time>2026-04-28T13:07:32.999Z</time></trkpt><trkpt lat="34.28136097212216" lon="-6.5039654567968475"><ele>21.0</ele><time>2026-04-28T13:07:33.999Z</time></trkpt><trkpt lat="34.281654746335946" lon="-6.503891602959202"><ele>20.0</ele><time>2026-04-28T13:07:34.999Z</time></trkpt><trkpt lat="34.281946026900556" lon="-6.503822354575195"><ele>19.0</ele><time>2026-04-28T13:07:35.999Z</time></trkpt><trkpt lat="34.2822333949918" lon="-6.503758914600095"><ele>20.5</ele><time>2026-04-28T13:07:36.999Z</time></trkpt><trkpt lat="34.28251972362209" lon="-6.503698342789257"><ele>22.0</ele><time>2026-04-28T13:07:38Z</time></trkpt><trkpt lat="34.28280842237721" lon="-6.503637317958252"><ele>22.0</ele><time>2026-04-28T13:07:39Z</time></trkpt><trkpt lat="34.283096269938625" lon="-6.503574880245356"><ele>22.0</ele><time>2026-04-28T13:07:40Z</time></trkpt><trkpt lat="34.28338518819453" lon="-6.503509257442848"><ele>18.5</ele><time>2026-04-28T13:07:41Z</time></trkpt><trkpt lat="34.28367606739559" lon="-6.503442974537066"><ele>15.0</ele><time>2026-04-28T13:07:42Z</time></trkpt><trkpt lat="34.28396850187746" lon="-6.503377005134601"><ele>14.5</ele><time>2026-04-28T13:07:43Z</time></trkpt><trkpt lat="34.28426279670438" lon="-6.503312250822341"><ele>14.0</ele><time>2026-04-28T13:07:44Z</time></trkpt><trkpt lat="34.284555828705756" lon="-6.5032469541976425"><ele>14.0</ele><time>2026-04-28T13:07:45Z</time></trkpt><trkpt lat="34.28484793543186" lon="-6.503180831082326"><ele>14.0</ele><time>2026-04-28T13:07:46Z</time></trkpt><trkpt lat="34.28514123544805" lon="-6.50311234675613"><ele>14.0</ele><time>2026-04-28T13:07:47Z</time></trkpt><trkpt lat="34.28543318711808" lon="-6.503043184670491"><ele>14.0</ele><time>2026-04-28T13:07:48Z</time></trkpt><trkpt lat="34.28572309606038" lon="-6.5029732825356215"><ele>15.5</ele><time>2026-04-28T13:07:49Z</time></trkpt><trkpt lat="34.286013462234024" lon="-6.50289999342245"><ele>17.0</ele><time>2026-04-28T13:07:50Z</time></trkpt><trkpt lat="34.28630553419563" lon="-6.502825897193516"><ele>16.0</ele><time>2026-04-28T13:07:51Z</time></trkpt><trkpt lat="34.28659722967599" lon="-6.502752472056582"><ele>15.0</ele><time>2026-04-28T13:07:52Z</time></trkpt><trkpt lat="34.286888715729525" lon="-6.502680076270041"><ele>15.0</ele><time>2026-04-28T13:07:53Z</time></trkpt><trkpt lat="34.28718036591312" lon="-6.5026103620753215"><ele>15.0</ele><time>2026-04-28T13:07:54Z</time></trkpt><trkpt lat="34.28747225034946" lon="-6.502545283753322"><ele>13.5</ele><time>2026-04-28T13:07:55Z</time></trkpt><trkpt lat="34.2877636827514" lon="-6.502484144682675"><ele>12.0</ele><time>2026-04-28T13:07:56Z</time></trkpt><trkpt lat="34.28805559033319" lon="-6.502425253871642"><ele>12.5</ele><time>2026-04-28T13:07:57Z</time></trkpt><trkpt lat="34.28835000362527" lon="-6.50236756595681"><ele>13.0</ele><time>2026-04-28T13:07:58Z</time></trkpt><trkpt lat="34.288643856006615" lon="-6.502312423433533"><ele>13.5</ele><time>2026-04-28T13:07:59Z</time></trkpt><trkpt lat="34.28893840219613" lon="-6.502258702891621"><ele>14.0</ele><time>2026-04-28T13:08:00Z</time></trkpt><trkpt lat="34.289233689501295" lon="-6.502206719094961"><ele>14.0</ele><time>2026-04-28T13:08:01Z</time></trkpt><trkpt lat="34.289528689833745" lon="-6.502158908389437"><ele>14.0</ele><time>2026-04-28T13:08:02Z</time></trkpt><trkpt lat="34.2898231691007" lon="-6.502114272223641"><ele>10.5</ele><time>2026-04-28T13:08:03Z</time></trkpt><trkpt lat="34.290118229748316" lon="-6.502074071475864"><ele>7.0</ele><time>2026-04-28T13:08:04Z</time></trkpt><trkpt lat="34.29041440762897" lon="-6.5020396048239215"><ele>7.5</ele><time>2026-04-28T13:08:05Z</time></trkpt><trkpt lat="34.29071157989054" lon="-6.502011960008976"><ele>8.0</ele><time>2026-04-28T13:08:06Z</time></trkpt><trkpt lat="34.291008007698856" lon="-6.501992166893732"><ele>8.0</ele><time>2026-04-28T13:08:07Z</time></trkpt><trkpt lat="34.291303837568016" lon="-6.50198032021128"><ele>8.0</ele><time>2026-04-28T13:08:08Z</time></trkpt><trkpt lat="34.29160182816058" lon="-6.501975057923341"><ele>9.5</ele><time>2026-04-28T13:08:09Z</time></trkpt><trkpt lat="34.29190032101599" lon="-6.501973987092557"><ele>11.0</ele><time>2026-04-28T13:08:10Z</time></trkpt><trkpt lat="34.29219846082803" lon="-6.501980094702777"><ele>10.5</ele><time>2026-04-28T13:08:11Z</time></trkpt><trkpt lat="34.29249701487891" lon="-6.501991038847308"><ele>10.0</ele><time>2026-04-28T13:08:12Z</time></trkpt><trkpt lat="34.292793731894655" lon="-6.502004514483968"><ele>7.5</ele><time>2026-04-28T13:08:13Z</time></trkpt><trkpt lat="34.29308970057352" lon="-6.502024984788544"><ele>5.0</ele><time>2026-04-28T13:08:14Z</time></trkpt><trkpt lat="34.29338163328556" lon="-6.502053110096017"><ele>6.0</ele><time>2026-04-28T13:08:15Z</time></trkpt><trkpt lat="34.29366619813975" lon="-6.502087894464643"><ele>7.0</ele><time>2026-04-28T13:08:16Z</time></trkpt><trkpt lat="34.29394902051032" lon="-6.502130214700767"><ele>7.5</ele><time>2026-04-28T13:08:17Z</time></trkpt><trkpt lat="34.29423781573384" lon="-6.502178004634954"><ele>8.0</ele><time>2026-04-28T13:08:17.999Z</time></trkpt><trkpt lat="34.29452653507255" lon="-6.502232963700532"><ele>8.0</ele><time>2026-04-28T13:08:18.999Z</time></trkpt><trkpt lat="34.29481474444967" lon="-6.50229098775039"><ele>8.0</ele><time>2026-04-28T13:08:19.999Z</time></trkpt><trkpt lat="34.29510566779829" lon="-6.502348991774852"><ele>8.0</ele><time>2026-04-28T13:08:20.999Z</time></trkpt><trkpt lat="34.29539649804426" lon="-6.502411547153589"><ele>8.0</ele><time>2026-04-28T13:08:21.999Z</time></trkpt><trkpt lat="34.29568594007748" lon="-6.502481156718117"><ele>9.5</ele><time>2026-04-28T13:08:22.999Z</time></trkpt><trkpt lat="34.295975845766044" lon="-6.502555630578226"><ele>11.0</ele><time>2026-04-28T13:08:23.999Z</time></trkpt><trkpt lat="34.296264709462285" lon="-6.502635973907495"><ele>12.5</ele><time>2026-04-28T13:08:24.999Z</time></trkpt><trkpt lat="34.296551634386816" lon="-6.502721655704858"><ele>14.0</ele><time>2026-04-28T13:08:25.999Z</time></trkpt><trkpt lat="34.29683687722901" lon="-6.502814106023866"><ele>14.0</ele><time>2026-04-28T13:08:26.999Z</time></trkpt><trkpt lat="34.297121627223014" lon="-6.502912562890982"><ele>14.0</ele><time>2026-04-28T13:08:27.999Z</time></trkpt><trkpt lat="34.29740297940892" lon="-6.503016768135022"><ele>14.0</ele><time>2026-04-28T13:08:28.999Z</time></trkpt><trkpt lat="34.29768383290094" lon="-6.503124174398213"><ele>14.0</ele><time>2026-04-28T13:08:29.999Z</time></trkpt><trkpt lat="34.29796501235171" lon="-6.503237241162593"><ele>14.5</ele><time>2026-04-28T13:08:30.999Z</time></trkpt><trkpt lat="34.29824516071651" lon="-6.5033563357037965"><ele>15.0</ele><time>2026-04-28T13:08:31.999Z</time></trkpt><trkpt lat="34.29852372450187" lon="-6.503489521914402"><ele>15.0</ele><time>2026-04-28T13:08:32.999Z</time></trkpt><trkpt lat="34.29880018748029" lon="-6.503625473647037"><ele>15.0</ele><time>2026-04-28T13:08:33.999Z</time></trkpt><trkpt lat="34.29907632069659" lon="-6.50376375030016"><ele>14.5</ele><time>2026-04-28T13:08:34.999Z</time></trkpt><trkpt lat="34.29935116608583" lon="-6.503907583242928"><ele>14.0</ele><time>2026-04-28T13:08:35.999Z</time></trkpt><trkpt lat="34.29962321941588" lon="-6.504053617154094"><ele>14.0</ele><time>2026-04-28T13:08:36.999Z</time></trkpt><trkpt lat="34.29989599298682" lon="-6.504199601775496"><ele>14.0</ele><time>2026-04-28T13:08:37.999Z</time></trkpt><trkpt lat="34.30016899684653" lon="-6.504348013050605"><ele>14.0</ele><time>2026-04-28T13:08:38.999Z</time></trkpt><trkpt lat="34.30044053737094" lon="-6.504500262333833"><ele>14.0</ele><time>2026-04-28T13:08:39.999Z</time></trkpt><trkpt lat="34.30071027596183" lon="-6.5046571742266694"><ele>15.5</ele><time>2026-04-28T13:08:40.999Z</time></trkpt><trkpt lat="34.30097854691963" lon="-6.504810671055536"><ele>17.0</ele><time>2026-04-28T13:08:41.999Z</time></trkpt><trkpt lat="34.30124813868745" lon="-6.504964439525239"><ele>17.5</ele><time>2026-04-28T13:08:42.999Z</time></trkpt><trkpt lat="34.30151936583602" lon="-6.5051200737457"><ele>18.0</ele><time>2026-04-28T13:08:43.999Z</time></trkpt><trkpt lat="34.30178835765829" lon="-6.505277971607615"><ele>18.5</ele><time>2026-04-28T13:08:44.999Z</time></trkpt><trkpt lat="34.30205759754122" lon="-6.505434293537835"><ele>19.0</ele><time>2026-04-28T13:08:45.999Z</time></trkpt><trkpt lat="34.30232665066008" lon="-6.505588586642691"><ele>17.5</ele><time>2026-04-28T13:08:46.999Z</time></trkpt><trkpt lat="34.302596286365194" lon="-6.505741425516363"><ele>16.0</ele><time>2026-04-28T13:08:47.999Z</time></trkpt><trkpt lat="34.3028674315259" lon="-6.505894341968843"><ele>17.0</ele><time>2026-04-28T13:08:48.999Z</time></trkpt><trkpt lat="34.303136895583044" lon="-6.5060472681876345"><ele>18.0</ele><time>2026-04-28T13:08:49.999Z</time></trkpt><trkpt lat="34.30340220584653" lon="-6.506201554442563"><ele>17.5</ele><time>2026-04-28T13:08:50.999Z</time></trkpt><trkpt lat="34.30366115191055" lon="-6.506353853772899"><ele>17.0</ele><time>2026-04-28T13:08:51.999Z</time></trkpt><trkpt lat="34.30391998932754" lon="-6.506505256606188"><ele>15.5</ele><time>2026-04-28T13:08:52.999Z</time></trkpt><trkpt lat="34.30417843346441" lon="-6.506653775843691"><ele>14.0</ele><time>2026-04-28T13:08:53.999Z</time></trkpt><trkpt lat="34.304433701165706" lon="-6.506793755032202"><ele>14.0</ele><time>2026-04-28T13:08:54.999Z</time></trkpt><trkpt lat="34.30468426017146" lon="-6.506923633193823"><ele>14.0</ele><time>2026-04-28T13:08:55.999Z</time></trkpt><trkpt lat="34.30492636151568" lon="-6.507042500230476"><ele>15.5</ele><time>2026-04-28T13:08:56.999Z</time></trkpt><trkpt lat="34.305148502823265" lon="-6.507147820683696"><ele>17.0</ele><time>2026-04-28T13:08:57.999Z</time></trkpt><trkpt lat="34.30534517628299" lon="-6.507241521782986"><ele>17.0</ele><time>2026-04-28T13:08:58.999Z</time></trkpt><trkpt lat="34.305519851154905" lon="-6.50732440563402"><ele>17.0</ele><time>2026-04-28T13:08:59.999Z</time></trkpt><trkpt lat="34.30568174338245" lon="-6.507399075299936"><ele>17.0</ele><time>2026-04-28T13:09:00.999Z</time></trkpt><trkpt lat="34.30582420757981" lon="-6.507464691991631"><ele>17.5</ele><time>2026-04-28T13:09:01.999Z</time></trkpt><trkpt lat="34.30595322000577" lon="-6.507546217841231"><ele>18.0</ele><time>2026-04-28T13:09:02.999Z</time></trkpt><trkpt lat="34.30608410085066" lon="-6.507584645653922"><ele>18.5</ele><time>2026-04-28T13:09:03.999Z</time></trkpt><trkpt lat="34.306201254474594" lon="-6.507640889520602"><ele>19.0</ele><time>2026-04-28T13:09:04.999Z</time></trkpt><trkpt lat="34.30631056977579" lon="-6.507695681316409"><ele>19.2</ele><time>2026-04-28T13:09:05.999Z</time></trkpt><trkpt lat="34.3064145820612" lon="-6.507747326415021"><ele>19.4</ele><time>2026-04-28T13:09:06.999Z</time></trkpt><trkpt lat="34.306517903202696" lon="-6.507797260587739"><ele>19.6</ele><time>2026-04-28T13:09:07.999Z</time></trkpt><trkpt lat="34.30661962322964" lon="-6.507845382011252"><ele>19.8</ele><time>2026-04-28T13:09:08.999Z</time></trkpt><trkpt lat="34.3067210009478" lon="-6.507893226297999"><ele>20.0</ele><time>2026-04-28T13:09:09.999Z</time></trkpt><trkpt lat="34.30682202813835" lon="-6.507941813205587"><ele>20.2</ele><time>2026-04-28T13:09:10.999Z</time></trkpt><trkpt lat="34.306924216358254" lon="-6.507990603021618"><ele>20.4</ele><time>2026-04-28T13:09:11.999Z</time></trkpt><trkpt lat="34.30702777597588" lon="-6.508037469796099"><ele>20.6</ele><time>2026-04-28T13:09:12.999Z</time></trkpt><trkpt lat="34.30713600587685" lon="-6.508074768710957"><ele>20.8</ele><time>2026-04-28T13:09:13.999Z</time></trkpt><trkpt lat="34.30724797980039" lon="-6.508106892486365"><ele>21.0</ele><time>2026-04-28T13:09:14.999Z</time></trkpt><trkpt lat="34.30736109976067" lon="-6.50814386605111"><ele>21.0</ele><time>2026-04-28T13:09:15.999Z</time></trkpt><trkpt lat="34.307466420532485" lon="-6.508184709669046"><ele>21.0</ele><time>2026-04-28T13:09:16.999Z</time></trkpt><trkpt lat="34.30755968902134" lon="-6.5082262291949595"><ele>21.0</ele><time>2026-04-28T13:09:17.999Z</time></trkpt><trkpt lat="34.307643828992845" lon="-6.508266422554272"><ele>21.0</ele><time>2026-04-28T13:09:18.999Z</time></trkpt><trkpt lat="34.30772114349908" lon="-6.5083069026212845"><ele>21.0</ele><time>2026-04-28T13:09:19.999Z</time></trkpt><trkpt lat="34.3077868525524" lon="-6.5083446793355915"><ele>21.0</ele><time>2026-04-28T13:09:20.999Z</time></trkpt><trkpt lat="34.30788758761147" lon="-6.508401885328075"><ele>21.0</ele><time>2026-04-28T13:09:22.999Z</time></trkpt><trkpt lat="34.30795510877033" lon="-6.508441962344152"><ele>21.0</ele><time>2026-04-28T13:09:24.999Z</time></trkpt><trkpt lat="34.3080205703476" lon="-6.5084751036918345"><ele>21.0</ele><time>2026-04-28T13:09:40.999Z</time></trkpt><trkpt lat="34.30812420478561" lon="-6.508527195225239"><ele>21.0</ele><time>2026-04-28T13:09:42.999Z</time></trkpt><trkpt lat="34.30819345675655" lon="-6.508571592866913"><ele>21.0</ele><time>2026-04-28T13:09:44Z</time></trkpt><trkpt lat="34.30826943870299" lon="-6.508629800119335"><ele>21.25</ele><time>2026-04-28T13:09:45Z</time></trkpt><trkpt lat="34.308352514592286" lon="-6.508696193538946"><ele>21.5</ele><time>2026-04-28T13:09:46Z</time></trkpt><trkpt lat="34.30844258611088" lon="-6.508766948792996"><ele>21.75</ele><time>2026-04-28T13:09:47Z</time></trkpt><trkpt lat="34.308548226800184" lon="-6.508845260055359"><ele>22.0</ele><time>2026-04-28T13:09:48Z</time></trkpt><trkpt lat="34.30866351288702" lon="-6.508929383840105"><ele>22.0</ele><time>2026-04-28T13:09:49Z</time></trkpt><trkpt lat="34.30878639711529" lon="-6.509018445367179"><ele>22.0</ele><time>2026-04-28T13:09:50Z</time></trkpt><trkpt lat="34.30890741126851" lon="-6.509106054326856"><ele>22.0</ele><time>2026-04-28T13:09:51Z</time></trkpt><trkpt lat="34.30903496482485" lon="-6.50919940980927"><ele>22.0</ele><time>2026-04-28T13:09:52Z</time></trkpt><trkpt lat="34.30916998735786" lon="-6.509297959258809"><ele>22.333333333333332</ele><time>2026-04-28T13:09:53Z</time></trkpt><trkpt lat="34.309311586124615" lon="-6.509399182275644"><ele>22.666666666666668</ele><time>2026-04-28T13:09:54Z</time></trkpt><trkpt lat="34.309456740622664" lon="-6.509501180159788"><ele>23.0</ele><time>2026-04-28T13:09:55Z</time></trkpt><trkpt lat="34.309607540313905" lon="-6.509605996727371"><ele>21.333333333333336</ele><time>2026-04-28T13:09:56Z</time></trkpt><trkpt lat="34.309762174834916" lon="-6.509713406125631"><ele>19.666666666666668</ele><time>2026-04-28T13:09:57Z</time></trkpt><trkpt lat="34.3099172307451" lon="-6.50982009424358"><ele>18.0</ele><time>2026-04-28T13:09:58Z</time></trkpt><trkpt lat="34.31007612504151" lon="-6.509926401360185"><ele>18.0</ele><time>2026-04-28T13:09:59Z</time></trkpt><trkpt lat="34.31024052738083" lon="-6.510033491482862"><ele>18.0</ele><time>2026-04-28T13:10:00Z</time></trkpt><trkpt lat="34.3104109880141" lon="-6.510144025926987"><ele>18.0</ele><time>2026-04-28T13:10:01Z</time></trkpt><trkpt lat="34.310584731108" lon="-6.510254432345356"><ele>17.666666666666668</ele><time>2026-04-28T13:10:02Z</time></trkpt><trkpt lat="34.310763115223644" lon="-6.510367781717196"><ele>17.333333333333336</ele><time>2026-04-28T13:10:03Z</time></trkpt><trkpt lat="34.310950009789664" lon="-6.510483035561494"><ele>17.0</ele><time>2026-04-28T13:10:04Z</time></trkpt><trkpt lat="34.311145888170245" lon="-6.510598625202349"><ele>16.5</ele><time>2026-04-28T13:10:05Z</time></trkpt><trkpt lat="34.31135057882019" lon="-6.510710795830953"><ele>16.0</ele><time>2026-04-28T13:10:06Z</time></trkpt><trkpt lat="34.31156448970852" lon="-6.510819697231362"><ele>16.0</ele><time>2026-04-28T13:10:07Z</time></trkpt><trkpt lat="34.31177839370593" lon="-6.510921984685081"><ele>16.0</ele><time>2026-04-28T13:10:08Z</time></trkpt><trkpt lat="34.31199792633637" lon="-6.511022291404835"><ele>16.0</ele><time>2026-04-28T13:10:09Z</time></trkpt><trkpt lat="34.312222238532776" lon="-6.511118686211368"><ele>16.0</ele><time>2026-04-28T13:10:10Z</time></trkpt><trkpt lat="34.312451854256395" lon="-6.5112141461432325"><ele>15.0</ele><time>2026-04-28T13:10:11Z</time></trkpt><trkpt lat="34.312683042670926" lon="-6.511310046753612"><ele>14.0</ele><time>2026-04-28T13:10:12Z</time></trkpt><trkpt lat="34.31291838458903" lon="-6.511403610108571"><ele>13.0</ele><time>2026-04-28T13:10:13Z</time></trkpt><trkpt lat="34.31315877136046" lon="-6.511490033447585"><ele>12.0</ele><time>2026-04-28T13:10:14Z</time></trkpt><trkpt lat="34.31340533829065" lon="-6.5115687055060745"><ele>12.0</ele><time>2026-04-28T13:10:15Z</time></trkpt><trkpt lat="34.31365770103983" lon="-6.511639979992749"><ele>12.0</ele><time>2026-04-28T13:10:16Z</time></trkpt><trkpt lat="34.31391480377324" lon="-6.511704253422561"><ele>13.0</ele><time>2026-04-28T13:10:17Z</time></trkpt><trkpt lat="34.31417957445073" lon="-6.511763026207584"><ele>14.0</ele><time>2026-04-28T13:10:18Z</time></trkpt><trkpt lat="34.3144515004044" lon="-6.511811191285002"><ele>14.0</ele><time>2026-04-28T13:10:19Z</time></trkpt><trkpt lat="34.31472683939025" lon="-6.511853230804351"><ele>14.0</ele><time>2026-04-28T13:10:20Z</time></trkpt><trkpt lat="34.3150097942293" lon="-6.511890492543814"><ele>12.5</ele><time>2026-04-28T13:10:20.999Z</time></trkpt><trkpt lat="34.315297380450204" lon="-6.511923730457298"><ele>11.0</ele><time>2026-04-28T13:10:21.999Z</time></trkpt><trkpt lat="34.31558918690325" lon="-6.511950368003589"><ele>9.5</ele><time>2026-04-28T13:10:22.999Z</time></trkpt><trkpt lat="34.315885229916475" lon="-6.51196866089399"><ele>8.0</ele><time>2026-04-28T13:10:23.999Z</time></trkpt><trkpt lat="34.31618050395873" lon="-6.511979861919081"><ele>8.0</ele><time>2026-04-28T13:10:24.999Z</time></trkpt><trkpt lat="34.316474499786395" lon="-6.511986172531321"><ele>8.0</ele><time>2026-04-28T13:10:25.999Z</time></trkpt><trkpt lat="34.31676552454796" lon="-6.511985896354568"><ele>8.0</ele><time>2026-04-28T13:10:26.999Z</time></trkpt><trkpt lat="34.31705740937753" lon="-6.5119744470730625"><ele>8.0</ele><time>2026-04-28T13:10:27.999Z</time></trkpt><trkpt lat="34.31734858639046" lon="-6.511955727484436"><ele>8.5</ele><time>2026-04-28T13:10:28.999Z</time></trkpt><trkpt lat="34.317639948341444" lon="-6.511929496617449"><ele>9.0</ele><time>2026-04-28T13:10:29.999Z</time></trkpt><trkpt lat="34.31793214733108" lon="-6.511897562029899"><ele>9.0</ele><time>2026-04-28T13:10:30.999Z</time></trkpt><trkpt lat="34.31822528287924" lon="-6.511860535224385"><ele>9.0</ele><time>2026-04-28T13:10:31.999Z</time></trkpt><trkpt lat="34.3185182142865" lon="-6.511822570761073"><ele>9.0</ele><time>2026-04-28T13:10:32.999Z</time></trkpt><trkpt lat="34.318810995629306" lon="-6.511780756161057"><ele>9.0</ele><time>2026-04-28T13:10:33.999Z</time></trkpt><trkpt lat="34.31910375753478" lon="-6.511736374375105"><ele>9.0</ele><time>2026-04-28T13:10:34.999Z</time></trkpt><trkpt lat="34.31939688228332" lon="-6.511686849504787"><ele>9.0</ele><time>2026-04-28T13:10:35.999Z</time></trkpt><trkpt lat="34.319691820107025" lon="-6.5116350663636355"><ele>8.5</ele><time>2026-04-28T13:10:36.999Z</time></trkpt><trkpt lat="34.31998693795691" lon="-6.51158771159966"><ele>8.0</ele><time>2026-04-28T13:10:37.999Z</time></trkpt><trkpt lat="34.320281837364156" lon="-6.511543330638618"><ele>8.0</ele><time>2026-04-28T13:10:38.999Z</time></trkpt><trkpt lat="34.3205763548828" lon="-6.511497488478719"><ele>8.0</ele><time>2026-04-28T13:10:39.999Z</time></trkpt><trkpt lat="34.32087163659195" lon="-6.511452114269577"><ele>8.0</ele><time>2026-04-28T13:10:40.999Z</time></trkpt><trkpt lat="34.32116726943287" lon="-6.511406965504641"><ele>8.0</ele><time>2026-04-28T13:10:41.999Z</time></trkpt><trkpt lat="34.32146229597932" lon="-6.5113590713365355"><ele>7.5</ele><time>2026-04-28T13:10:42.999Z</time></trkpt><trkpt lat="34.32175706386709" lon="-6.511309817560898"><ele>7.0</ele><time>2026-04-28T13:10:43.999Z</time></trkpt><trkpt lat="34.322052757909866" lon="-6.511260825354629"><ele>7.5</ele><time>2026-04-28T13:10:44.999Z</time></trkpt><trkpt lat="34.32234806352035" lon="-6.511212979477839"><ele>8.0</ele><time>2026-04-28T13:10:45.999Z</time></trkpt><trkpt lat="34.322642310385774" lon="-6.511165653462029"><ele>8.0</ele><time>2026-04-28T13:10:46.999Z</time></trkpt><trkpt lat="34.32293819040201" lon="-6.511122129286889"><ele>8.0</ele><time>2026-04-28T13:10:47.999Z</time></trkpt><trkpt lat="34.32323408769456" lon="-6.511079413699708"><ele>7.5</ele><time>2026-04-28T13:10:48.999Z</time></trkpt><trkpt lat="34.323527387079295" lon="-6.5110359393632375"><ele>7.0</ele><time>2026-04-28T13:10:49.999Z</time></trkpt><trkpt lat="34.32382144416183" lon="-6.510989640038155"><ele>8.0</ele><time>2026-04-28T13:10:50.999Z</time></trkpt><trkpt lat="34.324118057168526" lon="-6.510944004313056"><ele>9.0</ele><time>2026-04-28T13:10:51.999Z</time></trkpt><trkpt lat="34.32441383214796" lon="-6.510898017515904"><ele>9.0</ele><time>2026-04-28T13:10:52.999Z</time></trkpt><trkpt lat="34.32470882068705" lon="-6.51085137945443"><ele>9.0</ele><time>2026-04-28T13:10:53.999Z</time></trkpt><trkpt lat="34.32500453710073" lon="-6.51080379184543"><ele>8.5</ele><time>2026-04-28T13:10:54.999Z</time></trkpt><trkpt lat="34.32529978400969" lon="-6.5107559448108585"><ele>8.0</ele><time>2026-04-28T13:10:55.999Z</time></trkpt><trkpt lat="34.32559613609515" lon="-6.510707134049387"><ele>8.0</ele><time>2026-04-28T13:10:56.999Z</time></trkpt><trkpt lat="34.325893576901194" lon="-6.51065791255994"><ele>8.0</ele><time>2026-04-28T13:10:57.999Z</time></trkpt><trkpt lat="34.32618949875824" lon="-6.510610967633272"><ele>7.0</ele><time>2026-04-28T13:10:58.999Z</time></trkpt><trkpt lat="34.32648296111203" lon="-6.510565383726755"><ele>6.0</ele><time>2026-04-28T13:10:59.999Z</time></trkpt><trkpt lat="34.32677678105097" lon="-6.510518688178508"><ele>6.0</ele><time>2026-04-28T13:11:00.999Z</time></trkpt><trkpt lat="34.3270705596572" lon="-6.510475462011092"><ele>6.0</ele><time>2026-04-28T13:11:01.999Z</time></trkpt><trkpt lat="34.32736504279584" lon="-6.51043409753606"><ele>5.5</ele><time>2026-04-28T13:11:02.999Z</time></trkpt><trkpt lat="34.327659322887165" lon="-6.510390914215862"><ele>5.0</ele><time>2026-04-28T13:11:03.999Z</time></trkpt><trkpt lat="34.32795498756771" lon="-6.51034662757895"><ele>5.0</ele><time>2026-04-28T13:11:04.999Z</time></trkpt><trkpt lat="34.3282488197725" lon="-6.51030093881258"><ele>5.0</ele><time>2026-04-28T13:11:05.999Z</time></trkpt><trkpt lat="34.32854226083069" lon="-6.5102541575461785"><ele>5.0</ele><time>2026-04-28T13:11:06.999Z</time></trkpt><trkpt lat="34.328837050031524" lon="-6.510209148065929"><ele>5.0</ele><time>2026-04-28T13:11:07.999Z</time></trkpt><trkpt lat="34.329130507560926" lon="-6.510166567744543"><ele>5.5</ele><time>2026-04-28T13:11:08.999Z</time></trkpt><trkpt lat="34.329424700428504" lon="-6.51012059287492"><ele>6.0</ele><time>2026-04-28T13:11:09.999Z</time></trkpt><trkpt lat="34.32972013332445" lon="-6.510074651347348"><ele>5.5</ele><time>2026-04-28T13:11:10.999Z</time></trkpt><trkpt lat="34.330016355396374" lon="-6.510031967559722"><ele>5.0</ele><time>2026-04-28T13:11:11.999Z</time></trkpt><trkpt lat="34.330312534652194" lon="-6.5099905901349775"><ele>6.0</ele><time>2026-04-28T13:11:12.999Z</time></trkpt><trkpt lat="34.330609636478655" lon="-6.509947446669397"><ele>7.0</ele><time>2026-04-28T13:11:13.999Z</time></trkpt><trkpt lat="34.330906187233346" lon="-6.509902509908597"><ele>7.0</ele><time>2026-04-28T13:11:14.999Z</time></trkpt><trkpt lat="34.33120210231326" lon="-6.50985826484912"><ele>7.0</ele><time>2026-04-28T13:11:15.999Z</time></trkpt><trkpt lat="34.33149654822896" lon="-6.509813775704229"><ele>6.5</ele><time>2026-04-28T13:11:16.999Z</time></trkpt><trkpt lat="34.33179060512591" lon="-6.509768641297734"><ele>6.0</ele><time>2026-04-28T13:11:17.999Z</time></trkpt><trkpt lat="34.33208412385938" lon="-6.509721478243525"><ele>7.0</ele><time>2026-04-28T13:11:18.999Z</time></trkpt><trkpt lat="34.332376866694005" lon="-6.509671683851144"><ele>8.0</ele><time>2026-04-28T13:11:19.999Z</time></trkpt><trkpt lat="34.33267012056501" lon="-6.50962128612783"><ele>8.5</ele><time>2026-04-28T13:11:20.999Z</time></trkpt><trkpt lat="34.332963019441046" lon="-6.509573614848129"><ele>9.0</ele><time>2026-04-28T13:11:21.999Z</time></trkpt><trkpt lat="34.33325856675173" lon="-6.50952685617791"><ele>7.5</ele><time>2026-04-28T13:11:22.999Z</time></trkpt><trkpt lat="34.33355423061329" lon="-6.509479864619819"><ele>6.0</ele><time>2026-04-28T13:11:23.999Z</time></trkpt><trkpt lat="34.333849428238466" lon="-6.509433108410265"><ele>5.0</ele><time>2026-04-28T13:11:24.999Z</time></trkpt><trkpt lat="34.334143919158215" lon="-6.509386591098767"><ele>4.0</ele><time>2026-04-28T13:11:25.999Z</time></trkpt><trkpt lat="34.33443913423905" lon="-6.509338156451471"><ele>2.5</ele><time>2026-04-28T13:11:26.999Z</time></trkpt><trkpt lat="34.33473633735289" lon="-6.5092890371840735"><ele>1.0</ele><time>2026-04-28T13:11:27.999Z</time></trkpt><trkpt lat="34.335035026546834" lon="-6.509238163747149"><ele>1.0</ele><time>2026-04-28T13:11:28.999Z</time></trkpt><trkpt lat="34.335331258958334" lon="-6.509190234508743"><ele>1.0</ele><time>2026-04-28T13:11:29.999Z</time></trkpt><trkpt lat="34.33562907658683" lon="-6.509141258443017"><ele>2.0</ele><time>2026-04-28T13:11:30.999Z</time></trkpt><trkpt lat="34.33592537840631" lon="-6.509093486545504"><ele>3.0</ele><time>2026-04-28T13:11:31.999Z</time></trkpt><trkpt lat="34.33622257428565" lon="-6.509047444547378"><ele>5.5</ele><time>2026-04-28T13:11:32.999Z</time></trkpt><trkpt lat="34.33652286813639" lon="-6.509002041115804"><ele>8.0</ele><time>2026-04-28T13:11:33.999Z</time></trkpt><trkpt lat="34.33681953588315" lon="-6.50895717075569"><ele>8.0</ele><time>2026-04-28T13:11:34.999Z</time></trkpt><trkpt lat="34.33711428361102" lon="-6.508907906240165"><ele>8.0</ele><time>2026-04-28T13:11:35.999Z</time></trkpt><trkpt lat="34.33740664153307" lon="-6.508855435013262"><ele>7.5</ele><time>2026-04-28T13:11:36.999Z</time></trkpt><trkpt lat="34.337697742890775" lon="-6.508802439798715"><ele>7.0</ele><time>2026-04-28T13:11:37.999Z</time></trkpt><trkpt lat="34.33799001875227" lon="-6.508755836850625"><ele>7.0</ele><time>2026-04-28T13:11:38.999Z</time></trkpt><trkpt lat="34.338283305030714" lon="-6.5087115301852005"><ele>7.0</ele><time>2026-04-28T13:11:39.999Z</time></trkpt><trkpt lat="34.338577893960675" lon="-6.508667305042833"><ele>7.0</ele><time>2026-04-28T13:11:40.999Z</time></trkpt><trkpt lat="34.33887316194147" lon="-6.508620575613857"><ele>7.0</ele><time>2026-04-28T13:11:41.999Z</time></trkpt><trkpt lat="34.33916829179822" lon="-6.508574147211646"><ele>7.0</ele><time>2026-04-28T13:11:42.999Z</time></trkpt><trkpt lat="34.339464518348116" lon="-6.50853020057233"><ele>7.0</ele><time>2026-04-28T13:11:43.999Z</time></trkpt><trkpt lat="34.339759786589994" lon="-6.508487601683851"><ele>6.5</ele><time>2026-04-28T13:11:44.999Z</time></trkpt><trkpt lat="34.34005483820845" lon="-6.508447298169677"><ele>6.0</ele><time>2026-04-28T13:11:45.999Z</time></trkpt><trkpt lat="34.34035044014336" lon="-6.508414866379383"><ele>6.5</ele><time>2026-04-28T13:11:46.999Z</time></trkpt><trkpt lat="34.34064431780939" lon="-6.5083905201143635"><ele>7.0</ele><time>2026-04-28T13:11:47.999Z</time></trkpt><trkpt lat="34.340939369533494" lon="-6.508375013682973"><ele>7.0</ele><time>2026-04-28T13:11:48.999Z</time></trkpt><trkpt lat="34.34123603052678" lon="-6.508370010589953"><ele>7.0</ele><time>2026-04-28T13:11:50Z</time></trkpt><trkpt lat="34.341532206899274" lon="-6.50837391531146"><ele>8.0</ele><time>2026-04-28T13:11:51Z</time></trkpt><trkpt lat="34.341829014977485" lon="-6.508381613611818"><ele>9.0</ele><time>2026-04-28T13:11:52Z</time></trkpt><trkpt lat="34.34212631043301" lon="-6.508397110022679"><ele>8.5</ele><time>2026-04-28T13:11:53Z</time></trkpt><trkpt lat="34.34242377470716" lon="-6.508419986822289"><ele>8.0</ele><time>2026-04-28T13:11:54Z</time></trkpt><trkpt lat="34.34271912002939" lon="-6.508449468170801"><ele>8.0</ele><time>2026-04-28T13:11:55Z</time></trkpt><trkpt lat="34.34301575123808" lon="-6.508486355813513"><ele>8.0</ele><time>2026-04-28T13:11:56Z</time></trkpt><trkpt lat="34.34331203345081" lon="-6.508531536633805"><ele>7.0</ele><time>2026-04-28T13:11:57Z</time></trkpt><trkpt lat="34.343606749255784" lon="-6.508583741070404"><ele>6.0</ele><time>2026-04-28T13:11:58Z</time></trkpt><trkpt lat="34.34390151782086" lon="-6.508643003871177"><ele>6.0</ele><time>2026-04-28T13:11:59Z</time></trkpt><trkpt lat="34.34419568232668" lon="-6.508708981710992"><ele>6.0</ele><time>2026-04-28T13:12:00Z</time></trkpt><trkpt lat="34.34448617771916" lon="-6.508782976091678"><ele>6.0</ele><time>2026-04-28T13:12:01Z</time></trkpt><trkpt lat="34.34477516165036" lon="-6.50886283435099"><ele>6.0</ele><time>2026-04-28T13:12:02Z</time></trkpt><trkpt lat="34.345060612341484" lon="-6.508955884144419"><ele>6.0</ele><time>2026-04-28T13:12:03Z</time></trkpt><trkpt lat="34.34534439563305" lon="-6.509056079848472"><ele>6.0</ele><time>2026-04-28T13:12:04Z</time></trkpt><trkpt lat="34.345628315002386" lon="-6.509159159668403"><ele>6.0</ele><time>2026-04-28T13:12:05Z</time></trkpt><trkpt lat="34.34591092406431" lon="-6.5092676408875985"><ele>6.0</ele><time>2026-04-28T13:12:06Z</time></trkpt><trkpt lat="34.34619187096229" lon="-6.509385100782336"><ele>6.0</ele><time>2026-04-28T13:12:07Z</time></trkpt><trkpt lat="34.34646919822675" lon="-6.509512021438115"><ele>6.0</ele><time>2026-04-28T13:12:08Z</time></trkpt><trkpt lat="34.34674397820604" lon="-6.509645962093782"><ele>6.0</ele><time>2026-04-28T13:12:09Z</time></trkpt><trkpt lat="34.347019916382585" lon="-6.50978178136831"><ele>6.0</ele><time>2026-04-28T13:12:10Z</time></trkpt><trkpt lat="34.34729744126374" lon="-6.509919259814773"><ele>6.5</ele><time>2026-04-28T13:12:11Z</time></trkpt><trkpt lat="34.34757272458575" lon="-6.51005830792476"><ele>7.0</ele><time>2026-04-28T13:12:12Z</time></trkpt><trkpt lat="34.347847235578065" lon="-6.510198341015144"><ele>6.0</ele><time>2026-04-28T13:12:13Z</time></trkpt><trkpt lat="34.34812309197748" lon="-6.510337004976824"><ele>5.0</ele><time>2026-04-28T13:12:14Z</time></trkpt><trkpt lat="34.348400145253756" lon="-6.510476467045963"><ele>5.0</ele><time>2026-04-28T13:12:15Z</time></trkpt><trkpt lat="34.34867688860591" lon="-6.510614595189648"><ele>5.0</ele><time>2026-04-28T13:12:16Z</time></trkpt><trkpt lat="34.348953134706306" lon="-6.510749565856977"><ele>6.5</ele><time>2026-04-28T13:12:17Z</time></trkpt><trkpt lat="34.34922810851053" lon="-6.51088577317759"><ele>8.0</ele><time>2026-04-28T13:12:18Z</time></trkpt><trkpt lat="34.34950192171367" lon="-6.511024310130922"><ele>7.5</ele><time>2026-04-28T13:12:19Z</time></trkpt><trkpt lat="34.349775034457565" lon="-6.511164398953931"><ele>7.0</ele><time>2026-04-28T13:12:20Z</time></trkpt><trkpt lat="34.35005066738846" lon="-6.511303546758231"><ele>7.0</ele><time>2026-04-28T13:12:21Z</time></trkpt><trkpt lat="34.35032520885699" lon="-6.511442091633634"><ele>7.0</ele><time>2026-04-28T13:12:22Z</time></trkpt><trkpt lat="34.35060258041678" lon="-6.511579497656982"><ele>7.0</ele><time>2026-04-28T13:12:23Z</time></trkpt><trkpt lat="34.350879230269484" lon="-6.511718026786864"><ele>7.0</ele><time>2026-04-28T13:12:24Z</time></trkpt><trkpt lat="34.351155048479065" lon="-6.511855642398208"><ele>7.5</ele><time>2026-04-28T13:12:24.999Z</time></trkpt><trkpt lat="34.35143093867006" lon="-6.511992996195029"><ele>8.0</ele><time>2026-04-28T13:12:25.999Z</time></trkpt><trkpt lat="34.351704372572165" lon="-6.512132642630819"><ele>8.0</ele><time>2026-04-28T13:12:26.999Z</time></trkpt><trkpt lat="34.35197815753067" lon="-6.512274512342057"><ele>8.0</ele><time>2026-04-28T13:12:27.999Z</time></trkpt><trkpt lat="34.352252236673785" lon="-6.512416410644339"><ele>8.0</ele><time>2026-04-28T13:12:28.999Z</time></trkpt><trkpt lat="34.35252625168207" lon="-6.51255460142555"><ele>8.0</ele><time>2026-04-28T13:12:29.999Z</time></trkpt><trkpt lat="34.35280157628537" lon="-6.512691456917862"><ele>7.0</ele><time>2026-04-28T13:12:30.999Z</time></trkpt><trkpt lat="34.35307613668753" lon="-6.512827082744659"><ele>6.0</ele><time>2026-04-28T13:12:31.999Z</time></trkpt><trkpt lat="34.35335026181258" lon="-6.512963087012419"><ele>6.0</ele><time>2026-04-28T13:12:32.999Z</time></trkpt><trkpt lat="34.35362497721515" lon="-6.51310134888956"><ele>6.0</ele><time>2026-04-28T13:12:33.999Z</time></trkpt><trkpt lat="34.35389685420099" lon="-6.513239068144099"><ele>5.5</ele><time>2026-04-28T13:12:34.999Z</time></trkpt><trkpt lat="34.354130359200155" lon="-6.513354125076371"><ele>5.0</ele><time>2026-04-28T13:12:35.999Z</time></trkpt><trkpt lat="34.354341069432564" lon="-6.513452494525122"><ele>5.0</ele><time>2026-04-28T13:12:36.999Z</time></trkpt><trkpt lat="34.354567172620854" lon="-6.5135589799096305"><ele>5.0</ele><time>2026-04-28T13:12:37.999Z</time></trkpt><trkpt lat="34.3548046866903" lon="-6.513675428513772"><ele>5.0</ele><time>2026-04-28T13:12:38.999Z</time></trkpt><trkpt lat="34.35505367930162" lon="-6.513803486082635"><ele>5.0</ele><time>2026-04-28T13:12:39.999Z</time></trkpt><trkpt lat="34.35531175810738" lon="-6.513939085151318"><ele>5.0</ele><time>2026-04-28T13:12:40.999Z</time></trkpt><trkpt lat="34.35557263795745" lon="-6.514074500277702"><ele>5.0</ele><time>2026-04-28T13:12:41.999Z</time></trkpt><trkpt lat="34.35583640237892" lon="-6.514209189802697"><ele>5.0</ele><time>2026-04-28T13:12:42.999Z</time></trkpt><trkpt lat="34.356104669939015" lon="-6.514342893577543"><ele>5.0</ele><time>2026-04-28T13:12:43.999Z</time></trkpt><trkpt lat="34.356367834320686" lon="-6.514474174504198"><ele>6.0</ele><time>2026-04-28T13:12:44.999Z</time></trkpt><trkpt lat="34.35662013094925" lon="-6.514599593103814"><ele>7.0</ele><time>2026-04-28T13:12:45.999Z</time></trkpt><trkpt lat="34.35686086287861" lon="-6.514719974389013"><ele>7.0</ele><time>2026-04-28T13:12:46.999Z</time></trkpt><trkpt lat="34.357096341500466" lon="-6.514838829122092"><ele>7.0</ele><time>2026-04-28T13:12:47.999Z</time></trkpt><trkpt lat="34.357331684110726" lon="-6.514959639071401"><ele>6.5</ele><time>2026-04-28T13:12:48.999Z</time></trkpt><trkpt lat="34.357568408326344" lon="-6.515079896380223"><ele>6.0</ele><time>2026-04-28T13:12:49.999Z</time></trkpt><trkpt lat="34.357809149162115" lon="-6.515198191725093"><ele>6.0</ele><time>2026-04-28T13:12:50.999Z</time></trkpt><trkpt lat="34.35805401584143" lon="-6.515315837486921"><ele>6.0</ele><time>2026-04-28T13:12:51.999Z</time></trkpt><trkpt lat="34.35830200806275" lon="-6.515439549899516"><ele>6.0</ele><time>2026-04-28T13:12:52.999Z</time></trkpt><trkpt lat="34.35855282881638" lon="-6.51556655732286"><ele>6.0</ele><time>2026-04-28T13:12:53.999Z</time></trkpt><trkpt lat="34.35880689223206" lon="-6.51569876458802"><ele>7.5</ele><time>2026-04-28T13:12:54.999Z</time></trkpt><trkpt lat="34.35906594560044" lon="-6.515835928057114"><ele>9.0</ele><time>2026-04-28T13:12:55.999Z</time></trkpt><trkpt lat="34.35933171563333" lon="-6.515972699660984"><ele>9.0</ele><time>2026-04-28T13:12:56.999Z</time></trkpt><trkpt lat="34.35960189949475" lon="-6.516106012824254"><ele>9.0</ele><time>2026-04-28T13:12:57.999Z</time></trkpt><trkpt lat="34.35987449986662" lon="-6.516239884136537"><ele>8.0</ele><time>2026-04-28T13:12:58.999Z</time></trkpt><trkpt lat="34.360148065698226" lon="-6.516373840296726"><ele>7.0</ele><time>2026-04-28T13:12:59.999Z</time></trkpt><trkpt lat="34.360423200970246" lon="-6.516503510893721"><ele>7.5</ele><time>2026-04-28T13:13:00.999Z</time></trkpt><trkpt lat="34.360700317125726" lon="-6.516632562322029"><ele>8.0</ele><time>2026-04-28T13:13:01.999Z</time></trkpt><trkpt lat="34.360975787492166" lon="-6.516766169705302"><ele>8.0</ele><time>2026-04-28T13:13:02.999Z</time></trkpt><trkpt lat="34.36125037202638" lon="-6.516903577747112"><ele>8.0</ele><time>2026-04-28T13:13:03.999Z</time></trkpt><trkpt lat="34.361524613104834" lon="-6.517039806121993"><ele>9.0</ele><time>2026-04-28T13:13:04.999Z</time></trkpt><trkpt lat="34.361796965287034" lon="-6.517173462285229"><ele>10.0</ele><time>2026-04-28T13:13:05.999Z</time></trkpt><trkpt lat="34.362067653211234" lon="-6.517310183947547"><ele>9.5</ele><time>2026-04-28T13:13:06.999Z</time></trkpt><trkpt lat="34.362335984336774" lon="-6.517450653460212"><ele>9.0</ele><time>2026-04-28T13:13:07.999Z</time></trkpt><trkpt lat="34.3626030641793" lon="-6.517590104021224"><ele>9.0</ele><time>2026-04-28T13:13:08.999Z</time></trkpt><trkpt lat="34.36286867349432" lon="-6.517726460820512"><ele>9.0</ele><time>2026-04-28T13:13:09.999Z</time></trkpt><trkpt lat="34.363134707117005" lon="-6.517861097062945"><ele>9.0</ele><time>2026-04-28T13:13:10.999Z</time></trkpt><trkpt lat="34.36339811428591" lon="-6.517993648125788"><ele>9.0</ele><time>2026-04-28T13:13:11.999Z</time></trkpt><trkpt lat="34.36366131541441" lon="-6.518123438184309"><ele>9.0</ele><time>2026-04-28T13:13:12.999Z</time></trkpt><trkpt lat="34.36392307053875" lon="-6.51825322300715"><ele>9.0</ele><time>2026-04-28T13:13:13.999Z</time></trkpt><trkpt lat="34.364185275013384" lon="-6.518385542243228"><ele>9.0</ele><time>2026-04-28T13:13:14.999Z</time></trkpt><trkpt lat="34.36444733167543" lon="-6.518517321907921"><ele>9.0</ele><time>2026-04-28T13:13:15.999Z</time></trkpt><trkpt lat="34.36471156528191" lon="-6.518646711029117"><ele>8.5</ele><time>2026-04-28T13:13:16.999Z</time></trkpt><trkpt lat="34.364979488348524" lon="-6.518772239163154"><ele>8.0</ele><time>2026-04-28T13:13:17.999Z</time></trkpt><trkpt lat="34.36524961205498" lon="-6.518893112129783"><ele>8.0</ele><time>2026-04-28T13:13:18.999Z</time></trkpt><trkpt lat="34.36552190014158" lon="-6.519007872682883"><ele>8.0</ele><time>2026-04-28T13:13:19.999Z</time></trkpt><trkpt lat="34.365799309016914" lon="-6.519116435739049"><ele>8.0</ele><time>2026-04-28T13:13:20.999Z</time></trkpt><trkpt lat="34.36608059073265" lon="-6.51922174714971"><ele>8.0</ele><time>2026-04-28T13:13:21.999Z</time></trkpt><trkpt lat="34.366365345271866" lon="-6.5193185157426345"><ele>8.5</ele><time>2026-04-28T13:13:22.999Z</time></trkpt><trkpt lat="34.366653817906936" lon="-6.519406206413196"><ele>9.0</ele><time>2026-04-28T13:13:23.999Z</time></trkpt><trkpt lat="34.36694381762081" lon="-6.519481822376323"><ele>8.5</ele><time>2026-04-28T13:13:24.999Z</time></trkpt><trkpt lat="34.36723529397717" lon="-6.519551571532371"><ele>8.0</ele><time>2026-04-28T13:13:25.999Z</time></trkpt><trkpt lat="34.36752536368512" lon="-6.519615718168942"><ele>8.0</ele><time>2026-04-28T13:13:26.999Z</time></trkpt><trkpt lat="34.36781802734187" lon="-6.5196752055018825"><ele>8.0</ele><time>2026-04-28T13:13:27.999Z</time></trkpt><trkpt lat="34.36811143551506" lon="-6.519725597492207"><ele>7.5</ele><time>2026-04-28T13:13:28.999Z</time></trkpt><trkpt lat="34.368408072345275" lon="-6.519768794632655"><ele>7.0</ele><time>2026-04-28T13:13:29.999Z</time></trkpt><trkpt lat="34.36870417785411" lon="-6.519804413040438"><ele>6.5</ele><time>2026-04-28T13:13:30.999Z</time></trkpt><trkpt lat="34.36899841904057" lon="-6.5198277313379105"><ele>6.0</ele><time>2026-04-28T13:13:31.999Z</time></trkpt><trkpt lat="34.3692938042298" lon="-6.519845816927265"><ele>6.0</ele><time>2026-04-28T13:13:32.999Z</time></trkpt><trkpt lat="34.369590681454426" lon="-6.51985885165277"><ele>6.0</ele><time>2026-04-28T13:13:33.999Z</time></trkpt><trkpt lat="34.369891667694965" lon="-6.519860057938008"><ele>6.0</ele><time>2026-04-28T13:13:34.999Z</time></trkpt><trkpt lat="34.37018981796096" lon="-6.519851816597326"><ele>6.0</ele><time>2026-04-28T13:13:35.999Z</time></trkpt><trkpt lat="34.37048982705399" lon="-6.519839330121954"><ele>6.0</ele><time>2026-04-28T13:13:36.999Z</time></trkpt><trkpt lat="34.37079050513643" lon="-6.519819256538462"><ele>6.0</ele><time>2026-04-28T13:13:37.999Z</time></trkpt><trkpt lat="34.37108942706689" lon="-6.519792313486923"><ele>6.0</ele><time>2026-04-28T13:13:38.999Z</time></trkpt><trkpt lat="34.371385033649474" lon="-6.519754347243682"><ele>6.0</ele><time>2026-04-28T13:13:39.999Z</time></trkpt><trkpt lat="34.37168123060623" lon="-6.519710501554632"><ele>6.0</ele><time>2026-04-28T13:13:40.999Z</time></trkpt><trkpt lat="34.3719739417319" lon="-6.519658820585035"><ele>6.0</ele><time>2026-04-28T13:13:41.999Z</time></trkpt><trkpt lat="34.37226516539878" lon="-6.519598481928067"><ele>6.5</ele><time>2026-04-28T13:13:42.999Z</time></trkpt><trkpt lat="34.37255469146196" lon="-6.519527868254745"><ele>7.0</ele><time>2026-04-28T13:13:43.999Z</time></trkpt><trkpt lat="34.372844334151374" lon="-6.519453880506489"><ele>7.5</ele><time>2026-04-28T13:13:44.999Z</time></trkpt><trkpt lat="34.373132211599675" lon="-6.519364550763675"><ele>8.0</ele><time>2026-04-28T13:13:45.999Z</time></trkpt><trkpt lat="34.37342039663543" lon="-6.51927583852405"><ele>8.0</ele><time>2026-04-28T13:13:46.999Z</time></trkpt><trkpt lat="34.37370981521414" lon="-6.5191811491030975"><ele>8.0</ele><time>2026-04-28T13:13:47.999Z</time></trkpt><trkpt lat="34.373999900401" lon="-6.5190850079837945"><ele>7.5</ele><time>2026-04-28T13:13:48.999Z</time></trkpt><trkpt lat="34.37428958729318" lon="-6.51898362393628"><ele>7.0</ele><time>2026-04-28T13:13:49.999Z</time></trkpt><trkpt lat="34.374574056466365" lon="-6.518882449114099"><ele>7.0</ele><time>2026-04-28T13:13:50.999Z</time></trkpt><trkpt lat="34.37486302252379" lon="-6.518791997784577"><ele>7.0</ele><time>2026-04-28T13:13:51.999Z</time></trkpt><trkpt lat="34.37515269817881" lon="-6.518696771252785"><ele>7.0</ele><time>2026-04-28T13:13:52.999Z</time></trkpt><trkpt lat="34.37544014651502" lon="-6.518598796278815"><ele>7.0</ele><time>2026-04-28T13:13:53.999Z</time></trkpt><trkpt lat="34.37572814315224" lon="-6.51849844307199"><ele>6.5</ele><time>2026-04-28T13:13:54.999Z</time></trkpt><trkpt lat="34.3760147743087" lon="-6.518398211995167"><ele>6.0</ele><time>2026-04-28T13:13:56Z</time></trkpt><trkpt lat="34.376300301713904" lon="-6.518300574606075"><ele>6.0</ele><time>2026-04-28T13:13:57Z</time></trkpt><trkpt lat="34.37658760194439" lon="-6.5182054405530945"><ele>6.0</ele><time>2026-04-28T13:13:58Z</time></trkpt><trkpt lat="34.376876553834784" lon="-6.518112152988398"><ele>6.0</ele><time>2026-04-28T13:13:59Z</time></trkpt><trkpt lat="34.377164803404916" lon="-6.518018362262293"><ele>6.0</ele><time>2026-04-28T13:14:00Z</time></trkpt><trkpt lat="34.37745156464709" lon="-6.51792320828084"><ele>6.0</ele><time>2026-04-28T13:14:01Z</time></trkpt><trkpt lat="34.37773994908212" lon="-6.517826135261081"><ele>6.0</ele><time>2026-04-28T13:14:02Z</time></trkpt><trkpt lat="34.37802848675181" lon="-6.517729837363223"><ele>6.0</ele><time>2026-04-28T13:14:03Z</time></trkpt><trkpt lat="34.3783158429575" lon="-6.517634590168327"><ele>6.0</ele><time>2026-04-28T13:14:04Z</time></trkpt><trkpt lat="34.378603676196775" lon="-6.517539529435814"><ele>6.0</ele><time>2026-04-28T13:14:05Z</time></trkpt><trkpt lat="34.378892246535216" lon="-6.51744391623524"><ele>6.0</ele><time>2026-04-28T13:14:06Z</time></trkpt><trkpt lat="34.379180767016436" lon="-6.517347444600413"><ele>6.0</ele><time>2026-04-28T13:14:07Z</time></trkpt><trkpt lat="34.37946892018557" lon="-6.5172502228571645"><ele>6.0</ele><time>2026-04-28T13:14:08Z</time></trkpt><trkpt lat="34.3797565846729" lon="-6.517152324741458"><ele>6.5</ele><time>2026-04-28T13:14:09Z</time></trkpt><trkpt lat="34.38004490119581" lon="-6.517056584881408"><ele>7.0</ele><time>2026-04-28T13:14:10Z</time></trkpt><trkpt lat="34.380332306495326" lon="-6.5169623160480095"><ele>7.0</ele><time>2026-04-28T13:14:10.999Z</time></trkpt><trkpt lat="34.38061855991458" lon="-6.516869191130896"><ele>7.0</ele><time>2026-04-28T13:14:11.999Z</time></trkpt><trkpt lat="34.3809054686891" lon="-6.516775722731333"><ele>7.0</ele><time>2026-04-28T13:14:12.999Z</time></trkpt><trkpt lat="34.381191587850424" lon="-6.51668175748186"><ele>7.0</ele><time>2026-04-28T13:14:13.999Z</time></trkpt><trkpt lat="34.38147790260819" lon="-6.516587141786224"><ele>7.0</ele><time>2026-04-28T13:14:14.999Z</time></trkpt><trkpt lat="34.381764953851366" lon="-6.5164920343054895"><ele>7.0</ele><time>2026-04-28T13:14:15.999Z</time></trkpt><trkpt lat="34.382054348516604" lon="-6.516397300104275"><ele>7.0</ele><time>2026-04-28T13:14:16.999Z</time></trkpt><trkpt lat="34.382343744262485" lon="-6.516301220992344"><ele>7.0</ele><time>2026-04-28T13:14:17.999Z</time></trkpt><trkpt lat="34.382630806136746" lon="-6.516204887214547"><ele>7.0</ele><time>2026-04-28T13:14:18.999Z</time></trkpt><trkpt lat="34.382918849408725" lon="-6.516109616095855"><ele>7.0</ele><time>2026-04-28T13:14:19.999Z</time></trkpt><trkpt lat="34.383207382295524" lon="-6.516013078425801"><ele>7.5</ele><time>2026-04-28T13:14:20.999Z</time></trkpt><trkpt lat="34.383495768782026" lon="-6.515916679351436"><ele>8.0</ele><time>2026-04-28T13:14:21.999Z</time></trkpt><trkpt lat="34.383783617717924" lon="-6.515823121745633"><ele>7.5</ele><time>2026-04-28T13:14:22.999Z</time></trkpt><trkpt lat="34.38407083948603" lon="-6.515732035928609"><ele>7.0</ele><time>2026-04-28T13:14:23.999Z</time></trkpt><trkpt lat="34.38435881011883" lon="-6.515640843319187"><ele>7.0</ele><time>2026-04-28T13:14:24.999Z</time></trkpt><trkpt lat="34.38464748697833" lon="-6.51554956991542"><ele>7.0</ele><time>2026-04-28T13:14:25.999Z</time></trkpt><trkpt lat="34.38493564479335" lon="-6.515457533241914"><ele>5.5</ele><time>2026-04-28T13:14:26.999Z</time></trkpt><trkpt lat="34.385223584129335" lon="-6.515366226464462"><ele>4.0</ele><time>2026-04-28T13:14:27.999Z</time></trkpt><trkpt lat="34.385508993371865" lon="-6.51527508021021"><ele>5.5</ele><time>2026-04-28T13:14:28.999Z</time></trkpt><trkpt lat="34.38579483740645" lon="-6.515182417803414"><ele>7.0</ele><time>2026-04-28T13:14:29.999Z</time></trkpt><trkpt lat="34.38608191493028" lon="-6.5150901389397236"><ele>9.0</ele><time>2026-04-28T13:14:30.999Z</time></trkpt><trkpt lat="34.38637104679788" lon="-6.51500322186957"><ele>11.0</ele><time>2026-04-28T13:14:31.999Z</time></trkpt><trkpt lat="34.386659762303005" lon="-6.5149192299817065"><ele>11.0</ele><time>2026-04-28T13:14:32.999Z</time></trkpt><trkpt lat="34.38694860067291" lon="-6.514840143106272"><ele>11.0</ele><time>2026-04-28T13:14:33.999Z</time></trkpt><trkpt lat="34.38723946004894" lon="-6.514765952764748"><ele>9.0</ele><time>2026-04-28T13:14:34.999Z</time></trkpt><trkpt lat="34.387529712611105" lon="-6.5147005510935925"><ele>7.0</ele><time>2026-04-28T13:14:35.999Z</time></trkpt><trkpt lat="34.38782183785263" lon="-6.514641966709795"><ele>6.5</ele><time>2026-04-28T13:14:36.999Z</time></trkpt><trkpt lat="34.388114653411684" lon="-6.514590676485393"><ele>6.0</ele><time>2026-04-28T13:14:37.999Z</time></trkpt><trkpt lat="34.38840808391728" lon="-6.514547707819345"><ele>5.5</ele><time>2026-04-28T13:14:38.999Z</time></trkpt><trkpt lat="34.388702062116764" lon="-6.514511197264853"><ele>5.0</ele><time>2026-04-28T13:14:39.999Z</time></trkpt><trkpt lat="34.38899733310465" lon="-6.514481002798037"><ele>6.0</ele><time>2026-04-28T13:14:40.999Z</time></trkpt><trkpt lat="34.3892918604494" lon="-6.514456411652336"><ele>7.0</ele><time>2026-04-28T13:14:41.999Z</time></trkpt><trkpt lat="34.389587461420355" lon="-6.514437821535309"><ele>7.0</ele><time>2026-04-28T13:14:42.999Z</time></trkpt><trkpt lat="34.389883807480054" lon="-6.514427746942448"><ele>7.0</ele><time>2026-04-28T13:14:43.999Z</time></trkpt><trkpt lat="34.390180983643624" lon="-6.514428769052934"><ele>7.0</ele><time>2026-04-28T13:14:44.999Z</time></trkpt><trkpt lat="34.3904785858046" lon="-6.514439498307338"><ele>7.0</ele><time>2026-04-28T13:14:45.999Z</time></trkpt><trkpt lat="34.390776598056824" lon="-6.514458298483313"><ele>7.0</ele><time>2026-04-28T13:14:46.999Z</time></trkpt><trkpt lat="34.39107257383923" lon="-6.514481555278874"><ele>7.0</ele><time>2026-04-28T13:14:47.999Z</time></trkpt><trkpt lat="34.3913675372649" lon="-6.514512620149172"><ele>7.0</ele><time>2026-04-28T13:14:48.999Z</time></trkpt><trkpt lat="34.39166289073514" lon="-6.514550926773166"><ele>7.0</ele><time>2026-04-28T13:14:49.999Z</time></trkpt><trkpt lat="34.3919583881618" lon="-6.514598369227881"><ele>7.5</ele><time>2026-04-28T13:14:50.999Z</time></trkpt><trkpt lat="34.39225405334589" lon="-6.51465466668039"><ele>8.0</ele><time>2026-04-28T13:14:51.999Z</time></trkpt><trkpt lat="34.39254573417299" lon="-6.514719510863173"><ele>8.0</ele><time>2026-04-28T13:14:52.999Z</time></trkpt><trkpt lat="34.392836524400195" lon="-6.51479368636573"><ele>8.0</ele><time>2026-04-28T13:14:53.999Z</time></trkpt><trkpt lat="34.39312559646699" lon="-6.514876575810934"><ele>8.5</ele><time>2026-04-28T13:14:54.999Z</time></trkpt><trkpt lat="34.39341183502095" lon="-6.514967397981584"><ele>9.0</ele><time>2026-04-28T13:14:55.999Z</time></trkpt><trkpt lat="34.3936967816918" lon="-6.5150647447094245"><ele>9.5</ele><time>2026-04-28T13:14:56.999Z</time></trkpt><trkpt lat="34.39397902508112" lon="-6.515171644612043"><ele>10.0</ele><time>2026-04-28T13:14:57.999Z</time></trkpt><trkpt lat="34.39426193898947" lon="-6.515286103914459"><ele>10.0</ele><time>2026-04-28T13:14:58.999Z</time></trkpt><trkpt lat="34.39454257693029" lon="-6.515406235987183"><ele>10.0</ele><time>2026-04-28T13:14:59.999Z</time></trkpt><trkpt lat="34.39481945676073" lon="-6.515531859799276"><ele>10.0</ele><time>2026-04-28T13:15:00.999Z</time></trkpt><trkpt lat="34.39509505360769" lon="-6.515660554951581"><ele>10.0</ele><time>2026-04-28T13:15:01.999Z</time></trkpt><trkpt lat="34.39536961767839" lon="-6.51579308260013"><ele>10.0</ele><time>2026-04-28T13:15:02.999Z</time></trkpt><trkpt lat="34.39564068647183" lon="-6.515938005635981"><ele>10.0</ele><time>2026-04-28T13:15:03.999Z</time></trkpt><trkpt lat="34.3959088719627" lon="-6.516092610674309"><ele>10.0</ele><time>2026-04-28T13:15:04.999Z</time></trkpt><trkpt lat="34.39617533652844" lon="-6.516253197681024"><ele>10.0</ele><time>2026-04-28T13:15:05.999Z</time></trkpt><trkpt lat="34.39644065346947" lon="-6.516418779634783"><ele>9.0</ele><time>2026-04-28T13:15:06.999Z</time></trkpt><trkpt lat="34.39670372865316" lon="-6.516587816440477"><ele>8.0</ele><time>2026-04-28T13:15:07.999Z</time></trkpt><trkpt lat="34.396966154774255" lon="-6.516759690252249"><ele>9.0</ele><time>2026-04-28T13:15:08.999Z</time></trkpt><trkpt lat="34.39722541739021" lon="-6.516932893312111"><ele>10.0</ele><time>2026-04-28T13:15:09.999Z</time></trkpt><trkpt lat="34.39748701765255" lon="-6.517106305811611"><ele>10.0</ele><time>2026-04-28T13:15:10.999Z</time></trkpt><trkpt lat="34.397747962599695" lon="-6.517280622056216"><ele>10.0</ele><time>2026-04-28T13:15:11.999Z</time></trkpt><trkpt lat="34.39800682538384" lon="-6.517457405215856"><ele>9.5</ele><time>2026-04-28T13:15:12.999Z</time></trkpt><trkpt lat="34.39826750340491" lon="-6.517634290231937"><ele>9.0</ele><time>2026-04-28T13:15:13.999Z</time></trkpt><trkpt lat="34.398529606450715" lon="-6.5178088875735884"><ele>9.5</ele><time>2026-04-28T13:15:14.999Z</time></trkpt><trkpt lat="34.398791390399445" lon="-6.517984774705529"><ele>10.0</ele><time>2026-04-28T13:15:15.999Z</time></trkpt><trkpt lat="34.39905042838117" lon="-6.5181621124982785"><ele>10.0</ele><time>2026-04-28T13:15:16.999Z</time></trkpt><trkpt lat="34.39930895238271" lon="-6.518338926044104"><ele>10.0</ele><time>2026-04-28T13:15:17.999Z</time></trkpt><trkpt lat="34.399564894772695" lon="-6.518515393055631"><ele>10.0</ele><time>2026-04-28T13:15:18.999Z</time></trkpt><trkpt lat="34.39982269359485" lon="-6.518692697436977"><ele>10.0</ele><time>2026-04-28T13:15:19.999Z</time></trkpt><trkpt lat="34.40008029008491" lon="-6.518868293105096"><ele>10.0</ele><time>2026-04-28T13:15:20.999Z</time></trkpt><trkpt lat="34.400338144523474" lon="-6.5190400926180105"><ele>10.0</ele><time>2026-04-28T13:15:21.999Z</time></trkpt><trkpt lat="34.400591891906295" lon="-6.519209882170409"><ele>10.0</ele><time>2026-04-28T13:15:22.999Z</time></trkpt><trkpt lat="34.400845078081225" lon="-6.519379553521746"><ele>10.0</ele><time>2026-04-28T13:15:23.999Z</time></trkpt><trkpt lat="34.40109623091042" lon="-6.519549571537235"><ele>10.5</ele><time>2026-04-28T13:15:24.999Z</time></trkpt><trkpt lat="34.401347286143135" lon="-6.5197215607072065"><ele>11.0</ele><time>2026-04-28T13:15:25.999Z</time></trkpt><trkpt lat="34.40159680743302" lon="-6.519894314871002"><ele>11.0</ele><time>2026-04-28T13:15:26.999Z</time></trkpt><trkpt lat="34.40184490977192" lon="-6.520067288497022"><ele>11.0</ele><time>2026-04-28T13:15:27.999Z</time></trkpt><trkpt lat="34.402097136704676" lon="-6.520240591223968"><ele>10.5</ele><time>2026-04-28T13:15:28.999Z</time></trkpt><trkpt lat="34.4023506095334" lon="-6.5204160236738185"><ele>10.0</ele><time>2026-04-28T13:15:29.999Z</time></trkpt><trkpt lat="34.40260433464532" lon="-6.520592427595154"><ele>10.0</ele><time>2026-04-28T13:15:30.999Z</time></trkpt><trkpt lat="34.40286017817403" lon="-6.520771729275382"><ele>10.0</ele><time>2026-04-28T13:15:31.999Z</time></trkpt><trkpt lat="34.403117184888906" lon="-6.520952282640544"><ele>10.5</ele><time>2026-04-28T13:15:32.999Z</time></trkpt><trkpt lat="34.40337230183992" lon="-6.5211297267799155"><ele>11.0</ele><time>2026-04-28T13:15:33.999Z</time></trkpt><trkpt lat="34.40362981696714" lon="-6.521306279440851"><ele>10.5</ele><time>2026-04-28T13:15:34.999Z</time></trkpt><trkpt lat="34.40388865428491" lon="-6.521482140825738"><ele>10.0</ele><time>2026-04-28T13:15:35.999Z</time></trkpt><trkpt lat="34.404149407416746" lon="-6.521657720794965"><ele>10.0</ele><time>2026-04-28T13:15:36.999Z</time></trkpt><trkpt lat="34.404410638576245" lon="-6.5218329808061695"><ele>10.0</ele><time>2026-04-28T13:15:37.999Z</time></trkpt><trkpt lat="34.40467414793258" lon="-6.522005863539557"><ele>10.0</ele><time>2026-04-28T13:15:38.999Z</time></trkpt><trkpt lat="34.40493775920348" lon="-6.522173931478034"><ele>10.0</ele><time>2026-04-28T13:15:39.999Z</time></trkpt><trkpt lat="34.40520408792113" lon="-6.5223381337587965"><ele>10.0</ele><time>2026-04-28T13:15:40.999Z</time></trkpt><trkpt lat="34.405471564186854" lon="-6.522492407689197"><ele>10.0</ele><time>2026-04-28T13:15:41.999Z</time></trkpt><trkpt lat="34.40574257789433" lon="-6.522636729306029"><ele>10.5</ele><time>2026-04-28T13:15:42.999Z</time></trkpt><trkpt lat="34.40601516230409" lon="-6.522772829379846"><ele>11.0</ele><time>2026-04-28T13:15:43.999Z</time></trkpt><trkpt lat="34.40629254811114" lon="-6.522903293330977"><ele>9.0</ele><time>2026-04-28T13:15:44.999Z</time></trkpt><trkpt lat="34.40657113715225" lon="-6.523029158239183"><ele>7.0</ele><time>2026-04-28T13:15:45.999Z</time></trkpt><trkpt lat="34.40685148152498" lon="-6.523149404485577"><ele>7.0</ele><time>2026-04-28T13:15:46.999Z</time></trkpt><trkpt lat="34.407133107211465" lon="-6.523265411842917"><ele>7.0</ele><time>2026-04-28T13:15:47.999Z</time></trkpt><trkpt lat="34.407417653813404" lon="-6.523377126945197"><ele>8.0</ele><time>2026-04-28T13:15:48.999Z</time></trkpt><trkpt lat="34.40770465294451" lon="-6.523472136258094"><ele>9.0</ele><time>2026-04-28T13:15:49.999Z</time></trkpt><trkpt lat="34.4079921015401" lon="-6.523559049597407"><ele>9.0</ele><time>2026-04-28T13:15:50.999Z</time></trkpt><trkpt lat="34.40828035527907" lon="-6.523638255636187"><ele>9.0</ele><time>2026-04-28T13:15:51.999Z</time></trkpt><trkpt lat="34.40857139989682" lon="-6.5237143238798865"><ele>8.0</ele><time>2026-04-28T13:15:52.999Z</time></trkpt><trkpt lat="34.40886599226871" lon="-6.523782068209593"><ele>7.0</ele><time>2026-04-28T13:15:53.999Z</time></trkpt><trkpt lat="34.40916226084041" lon="-6.523836667825482"><ele>7.0</ele><time>2026-04-28T13:15:54.999Z</time></trkpt><trkpt lat="34.409457128284714" lon="-6.523882753946787"><ele>7.0</ele><time>2026-04-28T13:15:55.999Z</time></trkpt><trkpt lat="34.4097526858635" lon="-6.523924544045179"><ele>7.5</ele><time>2026-04-28T13:15:56.999Z</time></trkpt><trkpt lat="34.410048503417265" lon="-6.523958396886284"><ele>8.0</ele><time>2026-04-28T13:15:57.999Z</time></trkpt><trkpt lat="34.41034358894504" lon="-6.523985453862238"><ele>7.5</ele><time>2026-04-28T13:15:58.999Z</time></trkpt><trkpt lat="34.41064107595638" lon="-6.524007362963566"><ele>7.0</ele><time>2026-04-28T13:15:59.999Z</time></trkpt><trkpt lat="34.4109408496968" lon="-6.524021382818251"><ele>7.0</ele><time>2026-04-28T13:16:00.999Z</time></trkpt><trkpt lat="34.41123848331727" lon="-6.524023600625684"><ele>7.0</ele><time>2026-04-28T13:16:01.999Z</time></trkpt><trkpt lat="34.41153598540224" lon="-6.5240164238162395"><ele>8.0</ele><time>2026-04-28T13:16:02.999Z</time></trkpt><trkpt lat="34.411833167666586" lon="-6.524000516815692"><ele>9.0</ele><time>2026-04-28T13:16:03.999Z</time></trkpt><trkpt lat="34.41212914528814" lon="-6.523975871385447"><ele>9.5</ele><time>2026-04-28T13:16:04.999Z</time></trkpt><trkpt lat="34.41242568685848" lon="-6.523942338163608"><ele>10.0</ele><time>2026-04-28T13:16:05.999Z</time></trkpt><trkpt lat="34.41272229948137" lon="-6.523901268952493"><ele>11.0</ele><time>2026-04-28T13:16:06.999Z</time></trkpt><trkpt lat="34.41301837730758" lon="-6.523854435677562"><ele>12.0</ele><time>2026-04-28T13:16:07.999Z</time></trkpt><trkpt lat="34.413311832533246" lon="-6.523799895370237"><ele>12.0</ele><time>2026-04-28T13:16:08.999Z</time></trkpt><trkpt lat="34.413603268268936" lon="-6.523736405488725"><ele>12.0</ele><time>2026-04-28T13:16:09.999Z</time></trkpt><trkpt lat="34.41389174901179" lon="-6.5236635550890005"><ele>11.0</ele><time>2026-04-28T13:16:10.999Z</time></trkpt><trkpt lat="34.41417865834116" lon="-6.523581611660037"><ele>10.0</ele><time>2026-04-28T13:16:11.999Z</time></trkpt><trkpt lat="34.41446591901023" lon="-6.5234927926319495"><ele>10.0</ele><time>2026-04-28T13:16:12.999Z</time></trkpt><trkpt lat="34.41475531093637" lon="-6.523398781216653"><ele>10.0</ele><time>2026-04-28T13:16:13.999Z</time></trkpt><trkpt lat="34.41504397314076" lon="-6.523299464192375"><ele>10.0</ele><time>2026-04-28T13:16:14.999Z</time></trkpt><trkpt lat="34.415327108008455" lon="-6.523193594571457"><ele>10.0</ele><time>2026-04-28T13:16:15.999Z</time></trkpt><trkpt lat="34.41560940946979" lon="-6.523080664315228"><ele>11.5</ele><time>2026-04-28T13:16:16.999Z</time></trkpt><trkpt lat="34.41589104825853" lon="-6.522963293846575"><ele>13.0</ele><time>2026-04-28T13:16:17.999Z</time></trkpt><trkpt lat="34.41617329049757" lon="-6.522844902008338"><ele>14.0</ele><time>2026-04-28T13:16:18.999Z</time></trkpt><trkpt lat="34.41645564993563" lon="-6.522724368996189"><ele>15.0</ele><time>2026-04-28T13:16:19.999Z</time></trkpt><trkpt lat="34.41673634923929" lon="-6.522604034258032"><ele>15.0</ele><time>2026-04-28T13:16:20.999Z</time></trkpt><trkpt lat="34.41701815709356" lon="-6.522483649800355"><ele>15.0</ele><time>2026-04-28T13:16:21.999Z</time></trkpt><trkpt lat="34.41729998216026" lon="-6.522364796405918"><ele>15.5</ele><time>2026-04-28T13:16:22.999Z</time></trkpt><trkpt lat="34.417581180572185" lon="-6.522243413161"><ele>16.0</ele><time>2026-04-28T13:16:23.999Z</time></trkpt><trkpt lat="34.41785986119412" lon="-6.522121988813628"><ele>16.0</ele><time>2026-04-28T13:16:24.999Z</time></trkpt><trkpt lat="34.41814083757825" lon="-6.5220010086688704"><ele>16.0</ele><time>2026-04-28T13:16:25.999Z</time></trkpt><trkpt lat="34.418421967709435" lon="-6.521882161534737"><ele>16.0</ele><time>2026-04-28T13:16:26.999Z</time></trkpt><trkpt lat="34.41870087802777" lon="-6.521762762824772"><ele>16.0</ele><time>2026-04-28T13:16:27.999Z</time></trkpt><trkpt lat="34.41898151533543" lon="-6.5216394612808966"><ele>17.0</ele><time>2026-04-28T13:16:28.999Z</time></trkpt><trkpt lat="34.419261932844805" lon="-6.521517035252527"><ele>18.0</ele><time>2026-04-28T13:16:29.999Z</time></trkpt><trkpt lat="34.41954315106569" lon="-6.521394915358394"><ele>19.0</ele><time>2026-04-28T13:16:30.999Z</time></trkpt><trkpt lat="34.41982543895498" lon="-6.521274558694578"><ele>20.0</ele><time>2026-04-28T13:16:31.999Z</time></trkpt><trkpt lat="34.42010715879061" lon="-6.521154905522353"><ele>20.0</ele><time>2026-04-28T13:16:32.999Z</time></trkpt><trkpt lat="34.42038950979699" lon="-6.52103603924379"><ele>20.0</ele><time>2026-04-28T13:16:33.999Z</time></trkpt><trkpt lat="34.420673278359736" lon="-6.52091669908687"><ele>22.0</ele><time>2026-04-28T13:16:34.999Z</time></trkpt><trkpt lat="34.42095611235165" lon="-6.520798753115122"><ele>24.0</ele><time>2026-04-28T13:16:35.999Z</time></trkpt><trkpt lat="34.42123827201195" lon="-6.520679870345464"><ele>26.0</ele><time>2026-04-28T13:16:36.999Z</time></trkpt><trkpt lat="34.42151891700629" lon="-6.520559150249048"><ele>28.0</ele><time>2026-04-28T13:16:37.999Z</time></trkpt><trkpt lat="34.42179769956515" lon="-6.520437702968699"><ele>27.5</ele><time>2026-04-28T13:16:38.999Z</time></trkpt><trkpt lat="34.422077021849056" lon="-6.520315182156574"><ele>27.0</ele><time>2026-04-28T13:16:39.999Z</time></trkpt><trkpt lat="34.42235679299951" lon="-6.520194234311217"><ele>27.0</ele><time>2026-04-28T13:16:40.999Z</time></trkpt><trkpt lat="34.42263712896582" lon="-6.520074736479339"><ele>27.0</ele><time>2026-04-28T13:16:41.999Z</time></trkpt><trkpt lat="34.42291871677153" lon="-6.519956440453921"><ele>27.0</ele><time>2026-04-28T13:16:42.999Z</time></trkpt><trkpt lat="34.423200265557085" lon="-6.51983785285385"><ele>27.0</ele><time>2026-04-28T13:16:43.999Z</time></trkpt><trkpt lat="34.423482060034104" lon="-6.519718837440701"><ele>27.0</ele><time>2026-04-28T13:16:44.999Z</time></trkpt><trkpt lat="34.42376476519149" lon="-6.519599343872692"><ele>27.0</ele><time>2026-04-28T13:16:45.999Z</time></trkpt><trkpt lat="34.424047214277934" lon="-6.519479768381136"><ele>26.0</ele><time>2026-04-28T13:16:46.999Z</time></trkpt><trkpt lat="34.42432973331926" lon="-6.519358251565291"><ele>25.0</ele><time>2026-04-28T13:16:47.999Z</time></trkpt><trkpt lat="34.42460964792789" lon="-6.51923353112843"><ele>24.5</ele><time>2026-04-28T13:16:48.999Z</time></trkpt><trkpt lat="34.424888976441686" lon="-6.519107689678405"><ele>24.0</ele><time>2026-04-28T13:16:49.999Z</time></trkpt><trkpt lat="34.425169082496964" lon="-6.518981612224491"><ele>24.0</ele><time>2026-04-28T13:16:50.999Z</time></trkpt><trkpt lat="34.42545002366286" lon="-6.518856769187644"><ele>24.0</ele><time>2026-04-28T13:16:51.999Z</time></trkpt><trkpt lat="34.42573214414214" lon="-6.518732834388318"><ele>23.0</ele><time>2026-04-28T13:16:52.999Z</time></trkpt><trkpt lat="34.426014577785175" lon="-6.518609477071552"><ele>22.0</ele><time>2026-04-28T13:16:53.999Z</time></trkpt><trkpt lat="34.42629540540572" lon="-6.518485639737879"><ele>22.5</ele><time>2026-04-28T13:16:54.999Z</time></trkpt><trkpt lat="34.42657615052818" lon="-6.5183612845014824"><ele>23.0</ele><time>2026-04-28T13:16:55.999Z</time></trkpt><trkpt lat="34.4268552903842" lon="-6.518233901179736"><ele>23.0</ele><time>2026-04-28T13:16:56.999Z</time></trkpt><trkpt lat="34.427132496642514" lon="-6.518098418673478"><ele>23.0</ele><time>2026-04-28T13:16:57.999Z</time></trkpt><trkpt lat="34.42740328349423" lon="-6.517952433040705"><ele>21.5</ele><time>2026-04-28T13:16:58.999Z</time></trkpt><trkpt lat="34.42766841301381" lon="-6.517797239493424"><ele>20.0</ele><time>2026-04-28T13:16:59.999Z</time></trkpt><trkpt lat="34.42793255850284" lon="-6.517637124961496"><ele>19.0</ele><time>2026-04-28T13:17:00.999Z</time></trkpt><trkpt lat="34.428196705889995" lon="-6.517473818183023"><ele>18.0</ele><time>2026-04-28T13:17:01.999Z</time></trkpt><trkpt lat="34.428460065995516" lon="-6.5173056326219685"><ele>18.0</ele><time>2026-04-28T13:17:02.999Z</time></trkpt><trkpt lat="34.428721152143936" lon="-6.517131978905041"><ele>18.0</ele><time>2026-04-28T13:17:03.999Z</time></trkpt><trkpt lat="34.42897977381488" lon="-6.516949701995742"><ele>18.0</ele><time>2026-04-28T13:17:04.999Z</time></trkpt><trkpt lat="34.42923635925383" lon="-6.516764867139564"><ele>18.0</ele><time>2026-04-28T13:17:05.999Z</time></trkpt><trkpt lat="34.429490639988565" lon="-6.51657641272651"><ele>18.5</ele><time>2026-04-28T13:17:06.999Z</time></trkpt><trkpt lat="34.42974192682743" lon="-6.516384011422656"><ele>19.0</ele><time>2026-04-28T13:17:07.999Z</time></trkpt><trkpt lat="34.429990112530405" lon="-6.516188131344792"><ele>18.0</ele><time>2026-04-28T13:17:08.999Z</time></trkpt><trkpt lat="34.430236180709926" lon="-6.515987664250229"><ele>17.0</ele><time>2026-04-28T13:17:09.999Z</time></trkpt><trkpt lat="34.430479031540266" lon="-6.5157832042118615"><ele>17.0</ele><time>2026-04-28T13:17:10.999Z</time></trkpt><trkpt lat="34.43071783756097" lon="-6.515572591141012"><ele>17.0</ele><time>2026-04-28T13:17:11.999Z</time></trkpt><trkpt lat="34.43095420136647" lon="-6.515357447215492"><ele>17.0</ele><time>2026-04-28T13:17:12.999Z</time></trkpt><trkpt lat="34.431188455513265" lon="-6.515139894080997"><ele>17.0</ele><time>2026-04-28T13:17:13.999Z</time></trkpt><trkpt lat="34.431420474390784" lon="-6.514918603079345"><ele>16.5</ele><time>2026-04-28T13:17:14.999Z</time></trkpt><trkpt lat="34.43165205761917" lon="-6.514693154164755"><ele>16.0</ele><time>2026-04-28T13:17:15.999Z</time></trkpt><trkpt lat="34.43188305251674" lon="-6.514466414207762"><ele>16.0</ele><time>2026-04-28T13:17:16.999Z</time></trkpt><trkpt lat="34.43211404369687" lon="-6.514236328301436"><ele>16.0</ele><time>2026-04-28T13:17:17.999Z</time></trkpt><trkpt lat="34.43234355696026" lon="-6.514008209369986"><ele>17.5</ele><time>2026-04-28T13:17:18.999Z</time></trkpt><trkpt lat="34.432573528201004" lon="-6.5137820037734215"><ele>19.0</ele><time>2026-04-28T13:17:19.999Z</time></trkpt><trkpt lat="34.432803964205526" lon="-6.513554951639629"><ele>22.0</ele><time>2026-04-28T13:17:20.999Z</time></trkpt><trkpt lat="34.43303333595217" lon="-6.5133277351054195"><ele>25.0</ele><time>2026-04-28T13:17:21.999Z</time></trkpt><trkpt lat="34.43326137982842" lon="-6.513099425150092"><ele>24.0</ele><time>2026-04-28T13:17:22.999Z</time></trkpt><trkpt lat="34.43348878787706" lon="-6.512872292430104"><ele>23.0</ele><time>2026-04-28T13:17:23.999Z</time></trkpt><trkpt lat="34.43371782141695" lon="-6.51264408302326"><ele>24.5</ele><time>2026-04-28T13:17:24.999Z</time></trkpt><trkpt lat="34.43394755275439" lon="-6.512417881505406"><ele>26.0</ele><time>2026-04-28T13:17:25.999Z</time></trkpt><trkpt lat="34.43417855007018" lon="-6.512196105634864"><ele>25.0</ele><time>2026-04-28T13:17:26.999Z</time></trkpt><trkpt lat="34.43441309700135" lon="-6.511979964778937"><ele>24.0</ele><time>2026-04-28T13:17:27.999Z</time></trkpt><trkpt lat="34.43465214762646" lon="-6.511768994177696"><ele>24.0</ele><time>2026-04-28T13:17:28.999Z</time></trkpt><trkpt lat="34.43489462832563" lon="-6.511562472769222"><ele>24.0</ele><time>2026-04-28T13:17:29.999Z</time></trkpt><trkpt lat="34.435139370641956" lon="-6.511360223961422"><ele>23.5</ele><time>2026-04-28T13:17:30.999Z</time></trkpt><trkpt lat="34.435387399101" lon="-6.511160351398098"><ele>23.0</ele><time>2026-04-28T13:17:31.999Z</time></trkpt><trkpt lat="34.43563799122071" lon="-6.510964587445106"><ele>23.0</ele><time>2026-04-28T13:17:32.999Z</time></trkpt><trkpt lat="34.43589039297323" lon="-6.5107727187115785"><ele>23.0</ele><time>2026-04-28T13:17:33.999Z</time></trkpt><trkpt lat="34.436142737655025" lon="-6.510583014866959"><ele>23.0</ele><time>2026-04-28T13:17:34.999Z</time></trkpt><trkpt lat="34.43639933091456" lon="-6.510399000426994"><ele>23.0</ele><time>2026-04-28T13:17:35.999Z</time></trkpt><trkpt lat="34.43665892446351" lon="-6.510222158942267"><ele>23.0</ele><time>2026-04-28T13:17:36.999Z</time></trkpt><trkpt lat="34.43692189292566" lon="-6.510054005405488"><ele>23.0</ele><time>2026-04-28T13:17:37.999Z</time></trkpt><trkpt lat="34.437187959898424" lon="-6.509893764738699"><ele>22.5</ele><time>2026-04-28T13:17:38.999Z</time></trkpt><trkpt lat="34.43745716117591" lon="-6.509739950209289"><ele>22.0</ele><time>2026-04-28T13:17:39.999Z</time></trkpt><trkpt lat="34.43772934767465" lon="-6.509590885110228"><ele>21.0</ele><time>2026-04-28T13:17:40.999Z</time></trkpt><trkpt lat="34.43800257547149" lon="-6.509444234844809"><ele>20.0</ele><time>2026-04-28T13:17:41.999Z</time></trkpt><trkpt lat="34.4382748923884" lon="-6.509302130501831"><ele>20.0</ele><time>2026-04-28T13:17:42.999Z</time></trkpt><trkpt lat="34.43855079603263" lon="-6.509163744552555"><ele>20.0</ele><time>2026-04-28T13:17:43.999Z</time></trkpt><trkpt lat="34.43882929227214" lon="-6.509033874558414"><ele>21.5</ele><time>2026-04-28T13:17:44.999Z</time></trkpt><trkpt lat="34.439110973122276" lon="-6.508909975544457"><ele>23.0</ele><time>2026-04-28T13:17:45.999Z</time></trkpt><trkpt lat="34.43939461715741" lon="-6.508792089752843"><ele>21.5</ele><time>2026-04-28T13:17:46.999Z</time></trkpt><trkpt lat="34.43967895145108" lon="-6.5086786787950786"><ele>20.0</ele><time>2026-04-28T13:17:47.999Z</time></trkpt><trkpt lat="34.43996464244308" lon="-6.508570165281034"><ele>20.0</ele><time>2026-04-28T13:17:48.999Z</time></trkpt><trkpt lat="34.440250745141725" lon="-6.508467082285809"><ele>20.0</ele><time>2026-04-28T13:17:49.999Z</time></trkpt><trkpt lat="34.440537275898606" lon="-6.50836662474695"><ele>21.5</ele><time>2026-04-28T13:17:50.999Z</time></trkpt><trkpt lat="34.440824406218155" lon="-6.5082657890059386"><ele>23.0</ele><time>2026-04-28T13:17:51.999Z</time></trkpt><trkpt lat="34.441110214172404" lon="-6.508162882282211"><ele>23.0</ele><time>2026-04-28T13:17:52.999Z</time></trkpt><trkpt lat="34.441396334430834" lon="-6.508057372659595"><ele>23.0</ele><time>2026-04-28T13:17:53.999Z</time></trkpt><trkpt lat="34.44168175425868" lon="-6.5079530172057"><ele>21.5</ele><time>2026-04-28T13:17:54.999Z</time></trkpt><trkpt lat="34.44196891577583" lon="-6.507850137848642"><ele>20.0</ele><time>2026-04-28T13:17:55.999Z</time></trkpt><trkpt lat="34.44225526530125" lon="-6.507749945443073"><ele>19.0</ele><time>2026-04-28T13:17:56.999Z</time></trkpt><trkpt lat="34.44254163858956" lon="-6.507649817104119"><ele>18.0</ele><time>2026-04-28T13:17:57.999Z</time></trkpt><trkpt lat="34.44282803183513" lon="-6.507548536070963"><ele>18.5</ele><time>2026-04-28T13:17:58.999Z</time></trkpt><trkpt lat="34.44311421629674" lon="-6.5074429079074285"><ele>19.0</ele><time>2026-04-28T13:17:59.999Z</time></trkpt><trkpt lat="34.44339683968825" lon="-6.507332083453523"><ele>19.0</ele><time>2026-04-28T13:18:00.999Z</time></trkpt><trkpt lat="34.443676921883544" lon="-6.507211767553352"><ele>19.0</ele><time>2026-04-28T13:18:01.999Z</time></trkpt><trkpt lat="34.44395659283983" lon="-6.507086676645376"><ele>18.0</ele><time>2026-04-28T13:18:02.999Z</time></trkpt><trkpt lat="34.444233057040066" lon="-6.506957441562759"><ele>17.0</ele><time>2026-04-28T13:18:03.999Z</time></trkpt><trkpt lat="34.44450755904389" lon="-6.506823365219606"><ele>18.5</ele><time>2026-04-28T13:18:04.999Z</time></trkpt><trkpt lat="34.444780721205234" lon="-6.506684294989416"><ele>20.0</ele><time>2026-04-28T13:18:05.999Z</time></trkpt><trkpt lat="34.44505208185182" lon="-6.506539125491423"><ele>20.0</ele><time>2026-04-28T13:18:06.999Z</time></trkpt><trkpt lat="34.44532104728833" lon="-6.5063876709156805"><ele>20.0</ele><time>2026-04-28T13:18:08Z</time></trkpt><trkpt lat="34.445585766326154" lon="-6.5062308868923875"><ele>18.0</ele><time>2026-04-28T13:18:09Z</time></trkpt><trkpt lat="34.44584837796226" lon="-6.506067581864079"><ele>16.0</ele><time>2026-04-28T13:18:10Z</time></trkpt><trkpt lat="34.44610850260694" lon="-6.505899143181082"><ele>17.5</ele><time>2026-04-28T13:18:11Z</time></trkpt><trkpt lat="34.446368068360194" lon="-6.505725122320322"><ele>19.0</ele><time>2026-04-28T13:18:12Z</time></trkpt><trkpt lat="34.44662673290323" lon="-6.505548837786713"><ele>18.5</ele><time>2026-04-28T13:18:13Z</time></trkpt><trkpt lat="34.44688526451332" lon="-6.505367181492296"><ele>18.0</ele><time>2026-04-28T13:18:14Z</time></trkpt><trkpt lat="34.4471415701513" lon="-6.505183897116835"><ele>19.5</ele><time>2026-04-28T13:18:15Z</time></trkpt><trkpt lat="34.447398422825536" lon="-6.504998727806464"><ele>21.0</ele><time>2026-04-28T13:18:16Z</time></trkpt><trkpt lat="34.447655428618" lon="-6.50481300865484"><ele>21.0</ele><time>2026-04-28T13:18:17Z</time></trkpt><trkpt lat="34.447912485733234" lon="-6.504626234154681"><ele>21.0</ele><time>2026-04-28T13:18:18Z</time></trkpt><trkpt lat="34.44816882882493" lon="-6.504437242343592"><ele>22.0</ele><time>2026-04-28T13:18:19Z</time></trkpt><trkpt lat="34.44842337015215" lon="-6.504252816329869"><ele>23.0</ele><time>2026-04-28T13:18:20Z</time></trkpt><trkpt lat="34.44867731714997" lon="-6.504070888222995"><ele>24.5</ele><time>2026-04-28T13:18:21Z</time></trkpt><trkpt lat="34.44893028552134" lon="-6.503891095985817"><ele>26.0</ele><time>2026-04-28T13:18:22Z</time></trkpt><trkpt lat="34.44918516146904" lon="-6.503712571314227"><ele>24.5</ele><time>2026-04-28T13:18:23Z</time></trkpt><trkpt lat="34.449440250127125" lon="-6.503535846190625"><ele>23.0</ele><time>2026-04-28T13:18:24Z</time></trkpt><trkpt lat="34.44969278325146" lon="-6.503359275573375"><ele>23.0</ele><time>2026-04-28T13:18:25Z</time></trkpt><trkpt lat="34.44994416936201" lon="-6.503184073779809"><ele>23.0</ele><time>2026-04-28T13:18:26Z</time></trkpt><trkpt lat="34.450194800336405" lon="-6.503014269299081"><ele>23.0</ele><time>2026-04-28T13:18:27Z</time></trkpt><trkpt lat="34.45044795089166" lon="-6.502857577833777"><ele>23.0</ele><time>2026-04-28T13:18:28Z</time></trkpt><trkpt lat="34.45069661465701" lon="-6.502702527490335"><ele>23.0</ele><time>2026-04-28T13:18:29Z</time></trkpt><trkpt lat="34.45093933805842" lon="-6.502558955615057"><ele>23.0</ele><time>2026-04-28T13:18:30Z</time></trkpt><trkpt lat="34.45117159769388" lon="-6.502429161002601"><ele>24.5</ele><time>2026-04-28T13:18:31Z</time></trkpt><trkpt lat="34.451395039565206" lon="-6.502311648528257"><ele>26.0</ele><time>2026-04-28T13:18:32Z</time></trkpt><trkpt lat="34.45160409706385" lon="-6.502205312419975"><ele>26.0</ele><time>2026-04-28T13:18:33Z</time></trkpt><trkpt lat="34.45179445518067" lon="-6.502109837173251"><ele>26.0</ele><time>2026-04-28T13:18:34Z</time></trkpt><trkpt lat="34.45196948340166" lon="-6.502022289049417"><ele>26.0</ele><time>2026-04-28T13:18:35Z</time></trkpt><trkpt lat="34.452135972921695" lon="-6.501942978514765"><ele>24.666666666666664</ele><time>2026-04-28T13:18:35.999Z</time></trkpt><trkpt lat="34.45229539852726" lon="-6.501869527787029"><ele>23.333333333333332</ele><time>2026-04-28T13:18:36.999Z</time></trkpt><trkpt lat="34.45245278924305" lon="-6.501800246266309"><ele>22.0</ele><time>2026-04-28T13:18:37.999Z</time></trkpt><trkpt lat="34.45260568068641" lon="-6.501738065011764"><ele>22.0</ele><time>2026-04-28T13:18:38.999Z</time></trkpt><trkpt lat="34.45275114450036" lon="-6.501681722913204"><ele>22.0</ele><time>2026-04-28T13:18:39.999Z</time></trkpt><trkpt lat="34.45288964737453" lon="-6.501643624048779"><ele>22.0</ele><time>2026-04-28T13:18:40.999Z</time></trkpt><trkpt lat="34.453022649078456" lon="-6.501630737587878"><ele>22.0</ele><time>2026-04-28T13:18:41.999Z</time></trkpt><trkpt lat="34.453130914869206" lon="-6.501596470294005"><ele>22.25</ele><time>2026-04-28T13:18:42.999Z</time></trkpt><trkpt lat="34.453238336660725" lon="-6.501553603323412"><ele>22.5</ele><time>2026-04-28T13:18:43.999Z</time></trkpt><trkpt lat="34.453353894274265" lon="-6.501514574672326"><ele>22.75</ele><time>2026-04-28T13:18:44.999Z</time></trkpt><trkpt lat="34.45347621654567" lon="-6.501473260817086"><ele>23.0</ele><time>2026-04-28T13:18:45.999Z</time></trkpt><trkpt lat="34.453606106058245" lon="-6.501429486361118"><ele>23.0</ele><time>2026-04-28T13:18:46.999Z</time></trkpt><trkpt lat="34.45374061669207" lon="-6.501384436160154"><ele>23.0</ele><time>2026-04-28T13:18:47.999Z</time></trkpt><trkpt lat="34.45388405503769" lon="-6.501340635749965"><ele>23.0</ele><time>2026-04-28T13:18:48.999Z</time></trkpt><trkpt lat="34.45403210203818" lon="-6.501295625269766"><ele>23.0</ele><time>2026-04-28T13:18:49.999Z</time></trkpt><trkpt lat="34.454185961589125" lon="-6.501248883824224"><ele>23.0</ele><time>2026-04-28T13:18:50.999Z</time></trkpt><trkpt lat="34.454342297131504" lon="-6.501201390212384"><ele>23.0</ele><time>2026-04-28T13:18:51.999Z</time></trkpt><trkpt lat="34.454501723779735" lon="-6.501154015288398"><ele>23.0</ele><time>2026-04-28T13:18:52.999Z</time></trkpt><trkpt lat="34.45465581389168" lon="-6.501114027174533"><ele>23.0</ele><time>2026-04-28T13:18:53.999Z</time></trkpt><trkpt lat="34.45480771029455" lon="-6.501074450719942"><ele>23.0</ele><time>2026-04-28T13:18:54.999Z</time></trkpt><trkpt lat="34.45495736516424" lon="-6.501035458247649"><ele>23.0</ele><time>2026-04-28T13:18:55.999Z</time></trkpt><trkpt lat="34.45510298316396" lon="-6.500997517583989"><ele>23.0</ele><time>2026-04-28T13:18:56.999Z</time></trkpt><trkpt lat="34.45523742411982" lon="-6.500962165958421"><ele>23.0</ele><time>2026-04-28T13:18:57.999Z</time></trkpt><trkpt lat="34.4553622661594" lon="-6.500929321748672"><ele>23.0</ele><time>2026-04-28T13:18:58.999Z</time></trkpt><trkpt lat="34.45548420356959" lon="-6.500903049376596"><ele>23.0</ele><time>2026-04-28T13:18:59.999Z</time></trkpt><trkpt lat="34.45559820745795" lon="-6.500878872690528"><ele>22.75</ele><time>2026-04-28T13:19:00.999Z</time></trkpt><trkpt lat="34.4557134729476" lon="-6.500854428487294"><ele>22.5</ele><time>2026-04-28T13:19:01.999Z</time></trkpt><trkpt lat="34.45583121149668" lon="-6.500829459788665"><ele>22.25</ele><time>2026-04-28T13:19:02.999Z</time></trkpt><trkpt lat="34.45595130746584" lon="-6.500804019056171"><ele>22.0</ele><time>2026-04-28T13:19:03.999Z</time></trkpt><trkpt lat="34.45607211376283" lon="-6.5007784526101915"><ele>22.0</ele><time>2026-04-28T13:19:04.999Z</time></trkpt><trkpt lat="34.45619558943378" lon="-6.50075187968843"><ele>22.0</ele><time>2026-04-28T13:19:05.999Z</time></trkpt><trkpt lat="34.45632515691674" lon="-6.500723073655752"><ele>22.0</ele><time>2026-04-28T13:19:06.999Z</time></trkpt><trkpt lat="34.45645116956694" lon="-6.500694787318933"><ele>22.0</ele><time>2026-04-28T13:19:07.999Z</time></trkpt><trkpt lat="34.456577185754966" lon="-6.5006663357186145"><ele>21.75</ele><time>2026-04-28T13:19:08.999Z</time></trkpt><trkpt lat="34.456706671485236" lon="-6.500637100768362"><ele>21.5</ele><time>2026-04-28T13:19:09.999Z</time></trkpt><trkpt lat="34.456838862233454" lon="-6.500607255101783"><ele>21.25</ele><time>2026-04-28T13:19:10.999Z</time></trkpt><trkpt lat="34.4569735514114" lon="-6.50057684533088"><ele>21.0</ele><time>2026-04-28T13:19:11.999Z</time></trkpt><trkpt lat="34.4571115599255" lon="-6.500546932096139"><ele>21.0</ele><time>2026-04-28T13:19:12.999Z</time></trkpt><trkpt lat="34.457251631124144" lon="-6.500517642415138"><ele>21.0</ele><time>2026-04-28T13:19:13.999Z</time></trkpt><trkpt lat="34.45739306919622" lon="-6.500487607383444"><ele>21.0</ele><time>2026-04-28T13:19:14.999Z</time></trkpt><trkpt lat="34.457537378467954" lon="-6.500457083990448"><ele>21.0</ele><time>2026-04-28T13:19:15.999Z</time></trkpt><trkpt lat="34.457678252656116" lon="-6.5004280766488245"><ele>20.75</ele><time>2026-04-28T13:19:16.999Z</time></trkpt><trkpt lat="34.45781158696857" lon="-6.50039938517341"><ele>20.5</ele><time>2026-04-28T13:19:17.999Z</time></trkpt><trkpt lat="34.457941969018776" lon="-6.500371902342976"><ele>20.25</ele><time>2026-04-28T13:19:18.999Z</time></trkpt><trkpt lat="34.458070433875086" lon="-6.500344980870951"><ele>20.0</ele><time>2026-04-28T13:19:19.999Z</time></trkpt><trkpt lat="34.45819960314252" lon="-6.500317911787683"><ele>20.0</ele><time>2026-04-28T13:19:20.999Z</time></trkpt><trkpt lat="34.45833256191255" lon="-6.500290048560002"><ele>20.0</ele><time>2026-04-28T13:19:21.999Z</time></trkpt><trkpt lat="34.458468904403446" lon="-6.500261476240766"><ele>20.0</ele><time>2026-04-28T13:19:22.999Z</time></trkpt><trkpt lat="34.458609871750504" lon="-6.500231518153976"><ele>20.0</ele><time>2026-04-28T13:19:23.999Z</time></trkpt><trkpt lat="34.45875625117761" lon="-6.500200696714085"><ele>20.333333333333336</ele><time>2026-04-28T13:19:24.999Z</time></trkpt><trkpt lat="34.45890608036708" lon="-6.500168967277992"><ele>20.666666666666668</ele><time>2026-04-28T13:19:25.999Z</time></trkpt><trkpt lat="34.459059137592234" lon="-6.500135028502872"><ele>21.0</ele><time>2026-04-28T13:19:26.999Z</time></trkpt><trkpt lat="34.45921347395028" lon="-6.500100758600042"><ele>21.0</ele><time>2026-04-28T13:19:27.999Z</time></trkpt><trkpt lat="34.45936665778575" lon="-6.500066553959336"><ele>21.0</ele><time>2026-04-28T13:19:28.999Z</time></trkpt><trkpt lat="34.45952062616419" lon="-6.500031716095148"><ele>21.0</ele><time>2026-04-28T13:19:29.999Z</time></trkpt><trkpt lat="34.45967436047288" lon="-6.499997028167096"><ele>20.666666666666668</ele><time>2026-04-28T13:19:30.999Z</time></trkpt><trkpt lat="34.459830562309975" lon="-6.499963295856159"><ele>20.333333333333336</ele><time>2026-04-28T13:19:31.999Z</time></trkpt><trkpt lat="34.4599845274041" lon="-6.499931751437367"><ele>20.0</ele><time>2026-04-28T13:19:32.999Z</time></trkpt><trkpt lat="34.46014185703551" lon="-6.499898945909204"><ele>20.0</ele><time>2026-04-28T13:19:33.999Z</time></trkpt><trkpt lat="34.46029996638588" lon="-6.4998654813412795"><ele>20.0</ele><time>2026-04-28T13:19:34.999Z</time></trkpt><trkpt lat="34.46045917015786" lon="-6.499832848291953"><ele>20.0</ele><time>2026-04-28T13:19:35.999Z</time></trkpt><trkpt lat="34.46062070953356" lon="-6.499799736504317"><ele>20.333333333333336</ele><time>2026-04-28T13:19:36.999Z</time></trkpt><trkpt lat="34.46078301008944" lon="-6.499765145892323"><ele>20.666666666666668</ele><time>2026-04-28T13:19:37.999Z</time></trkpt><trkpt lat="34.460946376300676" lon="-6.499730056484352"><ele>21.0</ele><time>2026-04-28T13:19:38.999Z</time></trkpt><trkpt lat="34.46110592234981" lon="-6.499695285738734"><ele>21.0</ele><time>2026-04-28T13:19:39.999Z</time></trkpt><trkpt lat="34.4612612929599" lon="-6.499660868493863"><ele>21.0</ele><time>2026-04-28T13:19:40.999Z</time></trkpt><trkpt lat="34.4614145407735" lon="-6.499627179942039"><ele>21.0</ele><time>2026-04-28T13:19:41.999Z</time></trkpt><trkpt lat="34.46156851747671" lon="-6.499593653844474"><ele>20.666666666666668</ele><time>2026-04-28T13:19:42.999Z</time></trkpt><trkpt lat="34.46172771063217" lon="-6.499559571234709"><ele>20.333333333333336</ele><time>2026-04-28T13:19:43.999Z</time></trkpt><trkpt lat="34.46188998721131" lon="-6.4995258453220845"><ele>20.0</ele><time>2026-04-28T13:19:44.999Z</time></trkpt><trkpt lat="34.46205171794683" lon="-6.499492412720828"><ele>20.333333333333336</ele><time>2026-04-28T13:19:45.999Z</time></trkpt><trkpt lat="34.462214436376385" lon="-6.49945821319271"><ele>20.666666666666668</ele><time>2026-04-28T13:19:46.999Z</time></trkpt><trkpt lat="34.46238017463234" lon="-6.49942657099715"><ele>21.0</ele><time>2026-04-28T13:19:47.999Z</time></trkpt><trkpt lat="34.46254471089057" lon="-6.499395495481806"><ele>21.0</ele><time>2026-04-28T13:19:48.999Z</time></trkpt><trkpt lat="34.46271002665081" lon="-6.49936396877587"><ele>21.0</ele><time>2026-04-28T13:19:49.999Z</time></trkpt><trkpt lat="34.46287660216781" lon="-6.4993317710707625"><ele>21.0</ele><time>2026-04-28T13:19:50.999Z</time></trkpt><trkpt lat="34.46304108428059" lon="-6.499299978007039"><ele>21.666666666666668</ele><time>2026-04-28T13:19:51.999Z</time></trkpt><trkpt lat="34.463204017270854" lon="-6.49926888112206"><ele>22.333333333333336</ele><time>2026-04-28T13:19:52.999Z</time></trkpt><trkpt lat="34.46336586967287" lon="-6.49923849057195"><ele>23.0</ele><time>2026-04-28T13:19:53.999Z</time></trkpt><trkpt lat="34.46352571529531" lon="-6.499207818345096"><ele>23.0</ele><time>2026-04-28T13:19:54.999Z</time></trkpt><trkpt lat="34.463683581954626" lon="-6.499177300217615"><ele>23.0</ele><time>2026-04-28T13:19:55.999Z</time></trkpt><trkpt lat="34.46383769366761" lon="-6.499145508430607"><ele>23.0</ele><time>2026-04-28T13:19:56.999Z</time></trkpt><trkpt lat="34.46398988750925" lon="-6.49911477959473"><ele>22.666666666666668</ele><time>2026-04-28T13:19:57.999Z</time></trkpt><trkpt lat="34.46414008057462" lon="-6.4990839098737805"><ele>22.333333333333332</ele><time>2026-04-28T13:19:58.999Z</time></trkpt><trkpt lat="34.464291987172686" lon="-6.499051788235932"><ele>22.0</ele><time>2026-04-28T13:19:59.999Z</time></trkpt><trkpt lat="34.46444792731694" lon="-6.499018917569068"><ele>22.0</ele><time>2026-04-28T13:20:00.999Z</time></trkpt><trkpt lat="34.4646118056951" lon="-6.498984436733955"><ele>22.0</ele><time>2026-04-28T13:20:01.999Z</time></trkpt><trkpt lat="34.46477897136695" lon="-6.49894917538099"><ele>22.0</ele><time>2026-04-28T13:20:02.999Z</time></trkpt><trkpt lat="34.46494848564923" lon="-6.498913277800824"><ele>22.666666666666664</ele><time>2026-04-28T13:20:03.999Z</time></trkpt><trkpt lat="34.4651178127898" lon="-6.498877419864287"><ele>23.333333333333332</ele><time>2026-04-28T13:20:04.999Z</time></trkpt><trkpt lat="34.46529115604217" lon="-6.498840458475068"><ele>24.0</ele><time>2026-04-28T13:20:05.999Z</time></trkpt><trkpt lat="34.46546528570903" lon="-6.498803265203661"><ele>24.333333333333336</ele><time>2026-04-28T13:20:06.999Z</time></trkpt><trkpt lat="34.46564114445714" lon="-6.4987651470990375"><ele>24.666666666666668</ele><time>2026-04-28T13:20:07.999Z</time></trkpt><trkpt lat="34.46581913838219" lon="-6.498725381147843"><ele>25.0</ele><time>2026-04-28T13:20:08.999Z</time></trkpt><trkpt lat="34.46599827279118" lon="-6.498685360399578"><ele>23.666666666666668</ele><time>2026-04-28T13:20:09.999Z</time></trkpt><trkpt lat="34.46617555773328" lon="-6.498645664976435"><ele>22.333333333333336</ele><time>2026-04-28T13:20:10.999Z</time></trkpt><trkpt lat="34.46634252497189" lon="-6.498608227430051"><ele>21.0</ele><time>2026-04-28T13:20:11.999Z</time></trkpt><trkpt lat="34.466505779665646" lon="-6.49857232790002"><ele>20.666666666666668</ele><time>2026-04-28T13:20:12.999Z</time></trkpt><trkpt lat="34.466662126290295" lon="-6.498539470579691"><ele>20.333333333333336</ele><time>2026-04-28T13:20:14Z</time></trkpt><trkpt lat="34.46681550736655" lon="-6.498506725497426"><ele>20.0</ele><time>2026-04-28T13:20:15Z</time></trkpt><trkpt lat="34.46696616250307" lon="-6.498474856183333"><ele>20.666666666666668</ele><time>2026-04-28T13:20:16Z</time></trkpt><trkpt lat="34.46711566972951" lon="-6.498443344787947"><ele>21.333333333333332</ele><time>2026-04-28T13:20:17Z</time></trkpt><trkpt lat="34.467268263149" lon="-6.498411215601885"><ele>22.0</ele><time>2026-04-28T13:20:18Z</time></trkpt><trkpt lat="34.46742289397942" lon="-6.498378297626534"><ele>22.0</ele><time>2026-04-28T13:20:19Z</time></trkpt><trkpt lat="34.467582118360504" lon="-6.498340009773017"><ele>22.0</ele><time>2026-04-28T13:20:20Z</time></trkpt><trkpt lat="34.467741541862544" lon="-6.498301674038723"><ele>22.0</ele><time>2026-04-28T13:20:21Z</time></trkpt><trkpt lat="34.467903458344416" lon="-6.498262692143286"><ele>22.0</ele><time>2026-04-28T13:20:22Z</time></trkpt><trkpt lat="34.46807059515218" lon="-6.498222421604955"><ele>22.0</ele><time>2026-04-28T13:20:23Z</time></trkpt><trkpt lat="34.46823820487363" lon="-6.498182837075824"><ele>22.0</ele><time>2026-04-28T13:20:24Z</time></trkpt><trkpt lat="34.46839599770946" lon="-6.498136666146815"><ele>22.0</ele><time>2026-04-28T13:20:25Z</time></trkpt><trkpt lat="34.468554920215084" lon="-6.498088007083214"><ele>22.0</ele><time>2026-04-28T13:20:26Z</time></trkpt><trkpt lat="34.468708284265375" lon="-6.498041547590834"><ele>22.0</ele><time>2026-04-28T13:20:27Z</time></trkpt><trkpt lat="34.468859272023764" lon="-6.497996048655149"><ele>22.0</ele><time>2026-04-28T13:20:28Z</time></trkpt><trkpt lat="34.469008452679994" lon="-6.4979510942754395"><ele>22.0</ele><time>2026-04-28T13:20:29Z</time></trkpt><trkpt lat="34.46915557426756" lon="-6.497899895184677"><ele>22.0</ele><time>2026-04-28T13:20:30Z</time></trkpt><trkpt lat="34.46930696916128" lon="-6.497845914787041"><ele>22.0</ele><time>2026-04-28T13:20:31Z</time></trkpt><trkpt lat="34.46945922409148" lon="-6.4977923230984125"><ele>22.0</ele><time>2026-04-28T13:20:32Z</time></trkpt><trkpt lat="34.46961155669508" lon="-6.4977376387267975"><ele>22.0</ele><time>2026-04-28T13:20:33Z</time></trkpt><trkpt lat="34.46976357026004" lon="-6.497682905786267"><ele>21.333333333333332</ele><time>2026-04-28T13:20:34Z</time></trkpt><trkpt lat="34.46990713839953" lon="-6.497618067507205"><ele>20.666666666666668</ele><time>2026-04-28T13:20:35Z</time></trkpt><trkpt lat="34.4700563618351" lon="-6.497549308902524"><ele>20.0</ele><time>2026-04-28T13:20:36Z</time></trkpt><trkpt lat="34.47020092072077" lon="-6.497481573413975"><ele>20.0</ele><time>2026-04-28T13:20:37Z</time></trkpt><trkpt lat="34.47034617739207" lon="-6.497413872124873"><ele>20.0</ele><time>2026-04-28T13:20:38Z</time></trkpt><trkpt lat="34.47049458060792" lon="-6.49734499897135"><ele>20.0</ele><time>2026-04-28T13:20:39Z</time></trkpt><trkpt lat="34.47064190621661" lon="-6.497276469743405"><ele>20.333333333333336</ele><time>2026-04-28T13:20:40Z</time></trkpt><trkpt lat="34.47078708912874" lon="-6.4972077132444594"><ele>20.666666666666668</ele><time>2026-04-28T13:20:41Z</time></trkpt><trkpt lat="34.47093416719012" lon="-6.497136345217368"><ele>21.0</ele><time>2026-04-28T13:20:42Z</time></trkpt><trkpt lat="34.471080996972184" lon="-6.497065102124546"><ele>20.333333333333332</ele><time>2026-04-28T13:20:43Z</time></trkpt><trkpt lat="34.47122568133362" lon="-6.496994895605447"><ele>19.666666666666664</ele><time>2026-04-28T13:20:44Z</time></trkpt><trkpt lat="34.47136916719324" lon="-6.496925282106923"><ele>19.0</ele><time>2026-04-28T13:20:45Z</time></trkpt><trkpt lat="34.47151060234525" lon="-6.496856667864805"><ele>19.0</ele><time>2026-04-28T13:20:45.999Z</time></trkpt><trkpt lat="34.471646301454726" lon="-6.496788897969318"><ele>19.0</ele><time>2026-04-28T13:20:46.999Z</time></trkpt><trkpt lat="34.47178336480743" lon="-6.496707496986231"><ele>19.0</ele><time>2026-04-28T13:20:47.999Z</time></trkpt><trkpt lat="34.47192327686876" lon="-6.496625094589949"><ele>19.0</ele><time>2026-04-28T13:20:48.999Z</time></trkpt><trkpt lat="34.47206222122254" lon="-6.496543262104976"><ele>19.0</ele><time>2026-04-28T13:20:49.999Z</time></trkpt><trkpt lat="34.472205892824825" lon="-6.496456529696646"><ele>19.0</ele><time>2026-04-28T13:20:50.999Z</time></trkpt><trkpt lat="34.47235651991787" lon="-6.4963636807130545"><ele>19.333333333333332</ele><time>2026-04-28T13:20:51.999Z</time></trkpt><trkpt lat="34.47250664180847" lon="-6.496270866204888"><ele>19.666666666666668</ele><time>2026-04-28T13:20:52.999Z</time></trkpt><trkpt lat="34.47265839049076" lon="-6.496178000993163"><ele>20.0</ele><time>2026-04-28T13:20:53.999Z</time></trkpt><trkpt lat="34.47280206868521" lon="-6.496087626769573"><ele>19.333333333333336</ele><time>2026-04-28T13:20:54.999Z</time></trkpt><trkpt lat="34.47294523364146" lon="-6.495985536147036"><ele>18.666666666666668</ele><time>2026-04-28T13:20:55.999Z</time></trkpt><trkpt lat="34.47308633177265" lon="-6.495885473971522"><ele>18.0</ele><time>2026-04-28T13:20:56.999Z</time></trkpt><trkpt lat="34.473227178835074" lon="-6.49578558984369"><ele>18.0</ele><time>2026-04-28T13:20:57.999Z</time></trkpt><trkpt lat="34.47336785304001" lon="-6.495685738843778"><ele>18.0</ele><time>2026-04-28T13:20:58.999Z</time></trkpt><trkpt lat="34.473509879295804" lon="-6.495584745468425"><ele>18.0</ele><time>2026-04-28T13:20:59.999Z</time></trkpt><trkpt lat="34.47365059016689" lon="-6.4954840037792305"><ele>19.0</ele><time>2026-04-28T13:21:00.999Z</time></trkpt><trkpt lat="34.473791559578196" lon="-6.495380675427357"><ele>20.0</ele><time>2026-04-28T13:21:01.999Z</time></trkpt><trkpt lat="34.47393656046935" lon="-6.495274334531999"><ele>21.0</ele><time>2026-04-28T13:21:02.999Z</time></trkpt><trkpt lat="34.47408656898261" lon="-6.495166375543501"><ele>21.0</ele><time>2026-04-28T13:21:03.999Z</time></trkpt><trkpt lat="34.474220287056546" lon="-6.49505479126064"><ele>21.0</ele><time>2026-04-28T13:21:04.999Z</time></trkpt><trkpt lat="34.47436059886027" lon="-6.494937691178362"><ele>21.0</ele><time>2026-04-28T13:21:05.999Z</time></trkpt><trkpt lat="34.47450021612866" lon="-6.4948215360111705"><ele>21.0</ele><time>2026-04-28T13:21:06.999Z</time></trkpt><trkpt lat="34.47463814363261" lon="-6.494706717655246"><ele>21.0</ele><time>2026-04-28T13:21:07.999Z</time></trkpt><trkpt lat="34.474771019484834" lon="-6.494592275985844"><ele>21.0</ele><time>2026-04-28T13:21:08.999Z</time></trkpt><trkpt lat="34.47490532286714" lon="-6.494467631032564"><ele>21.0</ele><time>2026-04-28T13:21:09.999Z</time></trkpt><trkpt lat="34.475037935043076" lon="-6.494344555657145"><ele>21.0</ele><time>2026-04-28T13:21:10.999Z</time></trkpt><trkpt lat="34.4751659847683" lon="-6.494225770134125"><ele>21.0</ele><time>2026-04-28T13:21:11.999Z</time></trkpt><trkpt lat="34.47528846177243" lon="-6.494112203232819"><ele>21.0</ele><time>2026-04-28T13:21:12.999Z</time></trkpt><trkpt lat="34.47540242630929" lon="-6.494004821155867"><ele>21.0</ele><time>2026-04-28T13:21:13.999Z</time></trkpt><trkpt lat="34.475515315292625" lon="-6.493896557700282"><ele>21.0</ele><time>2026-04-28T13:21:14.999Z</time></trkpt><trkpt lat="34.47562656347446" lon="-6.493789914907969"><ele>21.0</ele><time>2026-04-28T13:21:15.999Z</time></trkpt><trkpt lat="34.47573015442801" lon="-6.493690827912191"><ele>21.5</ele><time>2026-04-28T13:21:16.999Z</time></trkpt><trkpt lat="34.47582786372475" lon="-6.493593857244159"><ele>22.0</ele><time>2026-04-28T13:21:17.999Z</time></trkpt><trkpt lat="34.47592854447873" lon="-6.493490051881612"><ele>22.5</ele><time>2026-04-28T13:21:18.999Z</time></trkpt><trkpt lat="34.476029301142916" lon="-6.49338644465433"><ele>23.0</ele><time>2026-04-28T13:21:19.999Z</time></trkpt><trkpt lat="34.47613088461657" lon="-6.493281983695855"><ele>23.0</ele><time>2026-04-28T13:21:20.999Z</time></trkpt><trkpt lat="34.4762360307052" lon="-6.4931738591854415"><ele>23.0</ele><time>2026-04-28T13:21:21.999Z</time></trkpt><trkpt lat="34.47634529074728" lon="-6.493061501693478"><ele>23.0</ele><time>2026-04-28T13:21:22.999Z</time></trkpt><trkpt lat="34.47645556996382" lon="-6.492946869710657"><ele>23.0</ele><time>2026-04-28T13:21:23.999Z</time></trkpt><trkpt lat="34.476568731044445" lon="-6.492825989201922"><ele>23.666666666666668</ele><time>2026-04-28T13:21:24.999Z</time></trkpt><trkpt lat="34.476685040020904" lon="-6.492701388892042"><ele>24.333333333333336</ele><time>2026-04-28T13:21:25.999Z</time></trkpt><trkpt lat="34.47680321034021" lon="-6.492575289552821"><ele>25.0</ele><time>2026-04-28T13:21:26.999Z</time></trkpt><trkpt lat="34.47692116229606" lon="-6.49244868662458"><ele>25.0</ele><time>2026-04-28T13:21:27.999Z</time></trkpt><trkpt lat="34.47703801958829" lon="-6.49232414153672"><ele>25.0</ele><time>2026-04-28T13:21:28.999Z</time></trkpt><trkpt lat="34.47715397306957" lon="-6.492201734997205"><ele>25.0</ele><time>2026-04-28T13:21:29.999Z</time></trkpt><trkpt lat="34.477268028359006" lon="-6.492081332282692"><ele>25.666666666666668</ele><time>2026-04-28T13:21:30.999Z</time></trkpt><trkpt lat="34.477383387073914" lon="-6.491959553605292"><ele>26.333333333333336</ele><time>2026-04-28T13:21:31.999Z</time></trkpt><trkpt lat="34.47750082068469" lon="-6.491835381359513"><ele>27.0</ele><time>2026-04-28T13:21:32.999Z</time></trkpt><trkpt lat="34.477619921022296" lon="-6.491709195085176"><ele>27.0</ele><time>2026-04-28T13:21:33.999Z</time></trkpt><trkpt lat="34.477736648505484" lon="-6.491584452052404"><ele>27.0</ele><time>2026-04-28T13:21:34.999Z</time></trkpt><trkpt lat="34.477850646443834" lon="-6.491462114606844"><ele>27.0</ele><time>2026-04-28T13:21:35.999Z</time></trkpt><trkpt lat="34.47796226632104" lon="-6.49134232919816"><ele>27.25</ele><time>2026-04-28T13:21:36.999Z</time></trkpt><trkpt lat="34.47807337731687" lon="-6.491223439277971"><ele>27.5</ele><time>2026-04-28T13:21:37.999Z</time></trkpt><trkpt lat="34.478182260847056" lon="-6.4911062825589765"><ele>27.75</ele><time>2026-04-28T13:21:38.999Z</time></trkpt><trkpt lat="34.4782871415678" lon="-6.490993334091598"><ele>28.0</ele><time>2026-04-28T13:21:39.999Z</time></trkpt><trkpt lat="34.47839254990067" lon="-6.49087923917452"><ele>28.0</ele><time>2026-04-28T13:21:40.999Z</time></trkpt><trkpt lat="34.47849989022982" lon="-6.490764008229019"><ele>28.0</ele><time>2026-04-28T13:21:41.999Z</time></trkpt><trkpt lat="34.47860983521867" lon="-6.490645975180614"><ele>28.0</ele><time>2026-04-28T13:21:42.999Z</time></trkpt><trkpt lat="34.47872242519155" lon="-6.4905248673320965"><ele>28.0</ele><time>2026-04-28T13:21:43.999Z</time></trkpt><trkpt lat="34.47883697186283" lon="-6.490402670588065"><ele>27.333333333333336</ele><time>2026-04-28T13:21:44.999Z</time></trkpt><trkpt lat="34.478958558932156" lon="-6.490278835282967"><ele>26.666666666666664</ele><time>2026-04-28T13:21:45.999Z</time></trkpt><trkpt lat="34.47907987176432" lon="-6.4901544919702765"><ele>26.0</ele><time>2026-04-28T13:21:46.999Z</time></trkpt><trkpt lat="34.479203807150014" lon="-6.490028131344878"><ele>26.0</ele><time>2026-04-28T13:21:47.999Z</time></trkpt><trkpt lat="34.479325581227535" lon="-6.489904432774777"><ele>26.0</ele><time>2026-04-28T13:21:48.999Z</time></trkpt><trkpt lat="34.47945124297166" lon="-6.4897879523444715"><ele>26.0</ele><time>2026-04-28T13:21:49.999Z</time></trkpt><trkpt lat="34.479572828488884" lon="-6.489676955467757"><ele>25.333333333333332</ele><time>2026-04-28T13:21:50.999Z</time></trkpt><trkpt lat="34.4796934214723" lon="-6.48956716077352"><ele>24.666666666666664</ele><time>2026-04-28T13:21:51.999Z</time></trkpt><trkpt lat="34.479817190477945" lon="-6.489455083994132"><ele>24.0</ele><time>2026-04-28T13:21:52.999Z</time></trkpt><trkpt lat="34.479939331240544" lon="-6.489343425525462"><ele>24.0</ele><time>2026-04-28T13:21:53.999Z</time></trkpt><trkpt lat="34.480064342274964" lon="-6.4892286532889685"><ele>24.0</ele><time>2026-04-28T13:21:54.999Z</time></trkpt><trkpt lat="34.480199494664866" lon="-6.489115759388925"><ele>24.0</ele><time>2026-04-28T13:21:55.999Z</time></trkpt><trkpt lat="34.48032882241108" lon="-6.489012447336264"><ele>24.333333333333336</ele><time>2026-04-28T13:21:56.999Z</time></trkpt><trkpt lat="34.480462386708794" lon="-6.488906486109544"><ele>24.666666666666668</ele><time>2026-04-28T13:21:57.999Z</time></trkpt><trkpt lat="34.48059318752505" lon="-6.488802709266913"><ele>25.0</ele><time>2026-04-28T13:21:58.999Z</time></trkpt><trkpt lat="34.48072879665598" lon="-6.488694118405264"><ele>24.0</ele><time>2026-04-28T13:21:59.999Z</time></trkpt><trkpt lat="34.480876580524466" lon="-6.4885886597215645"><ele>23.0</ele><time>2026-04-28T13:22:00.999Z</time></trkpt><trkpt lat="34.48102078519633" lon="-6.488486875722365"><ele>22.0</ele><time>2026-04-28T13:22:01.999Z</time></trkpt><trkpt lat="34.48116748466762" lon="-6.488383237293172"><ele>23.0</ele><time>2026-04-28T13:22:02.999Z</time></trkpt><trkpt lat="34.48131656504621" lon="-6.4882781145806145"><ele>24.0</ele><time>2026-04-28T13:22:03.999Z</time></trkpt><trkpt lat="34.481467187289695" lon="-6.4881730185232795"><ele>25.0</ele><time>2026-04-28T13:22:04.999Z</time></trkpt><trkpt lat="34.48161863872309" lon="-6.488068517762807"><ele>25.0</ele><time>2026-04-28T13:22:05.999Z</time></trkpt><trkpt lat="34.48177024490184" lon="-6.4879650180217014"><ele>25.0</ele><time>2026-04-28T13:22:06.999Z</time></trkpt><trkpt lat="34.481922627704684" lon="-6.48785987670294"><ele>25.0</ele><time>2026-04-28T13:22:07.999Z</time></trkpt><trkpt lat="34.48206891885799" lon="-6.487759702255614"><ele>24.666666666666668</ele><time>2026-04-28T13:22:08.999Z</time></trkpt><trkpt lat="34.482218092992085" lon="-6.487668595992938"><ele>24.333333333333336</ele><time>2026-04-28T13:22:09.999Z</time></trkpt><trkpt lat="34.48236136533511" lon="-6.487582866048925"><ele>24.0</ele><time>2026-04-28T13:22:10.999Z</time></trkpt><trkpt lat="34.48250341532459" lon="-6.487498071045993"><ele>24.0</ele><time>2026-04-28T13:22:11.999Z</time></trkpt><trkpt lat="34.48264378765663" lon="-6.48741427749276"><ele>24.0</ele><time>2026-04-28T13:22:12.999Z</time></trkpt><trkpt lat="34.48278412831945" lon="-6.487330502827838"><ele>24.0</ele><time>2026-04-28T13:22:13.999Z</time></trkpt><trkpt lat="34.48293246972215" lon="-6.487247386605561"><ele>24.333333333333336</ele><time>2026-04-28T13:22:14.999Z</time></trkpt><trkpt lat="34.48307814754453" lon="-6.487169527926556"><ele>24.666666666666668</ele><time>2026-04-28T13:22:15.999Z</time></trkpt><trkpt lat="34.48322152132453" lon="-6.487092900657716"><ele>25.0</ele><time>2026-04-28T13:22:16.999Z</time></trkpt><trkpt lat="34.48336651574117" lon="-6.487015407247749"><ele>24.333333333333336</ele><time>2026-04-28T13:22:17.999Z</time></trkpt><trkpt lat="34.483514018294954" lon="-6.486937612705494"><ele>23.666666666666668</ele><time>2026-04-28T13:22:18.999Z</time></trkpt><trkpt lat="34.48366535586064" lon="-6.486864349860291"><ele>23.0</ele><time>2026-04-28T13:22:20Z</time></trkpt><trkpt lat="34.48381511519959" lon="-6.486793267443257"><ele>23.0</ele><time>2026-04-28T13:22:21Z</time></trkpt><trkpt lat="34.483965110303366" lon="-6.4867231074077445"><ele>23.0</ele><time>2026-04-28T13:22:22Z</time></trkpt><trkpt lat="34.4841166329064" lon="-6.486653014018071"><ele>23.0</ele><time>2026-04-28T13:22:23Z</time></trkpt><trkpt lat="34.484268225226266" lon="-6.486588299806932"><ele>23.0</ele><time>2026-04-28T13:22:24Z</time></trkpt><trkpt lat="34.48441758320682" lon="-6.486524539427597"><ele>23.0</ele><time>2026-04-28T13:22:25Z</time></trkpt><trkpt lat="34.4845674368663" lon="-6.48646055052507"><ele>23.0</ele><time>2026-04-28T13:22:26Z</time></trkpt><trkpt lat="34.484719222761264" lon="-6.486395842059073"><ele>23.333333333333336</ele><time>2026-04-28T13:22:27Z</time></trkpt><trkpt lat="34.48486866701422" lon="-6.486331867782489"><ele>23.666666666666668</ele><time>2026-04-28T13:22:28Z</time></trkpt><trkpt lat="34.48502467142112" lon="-6.486268861541883"><ele>24.0</ele><time>2026-04-28T13:22:29Z</time></trkpt><trkpt lat="34.485180397884676" lon="-6.48621087298039"><ele>23.666666666666668</ele><time>2026-04-28T13:22:30Z</time></trkpt><trkpt lat="34.48533825019144" lon="-6.4861523746390795"><ele>23.333333333333336</ele><time>2026-04-28T13:22:31Z</time></trkpt><trkpt lat="34.48549696262831" lon="-6.486093747195265"><ele>23.0</ele><time>2026-04-28T13:22:32Z</time></trkpt><trkpt lat="34.48566250685048" lon="-6.486042506208571"><ele>23.0</ele><time>2026-04-28T13:22:33Z</time></trkpt><trkpt lat="34.48582354530688" lon="-6.485992570784384"><ele>23.0</ele><time>2026-04-28T13:22:34Z</time></trkpt><trkpt lat="34.48598417720162" lon="-6.485942818669559"><ele>23.0</ele><time>2026-04-28T13:22:35Z</time></trkpt><trkpt lat="34.486147314666496" lon="-6.485896632710015"><ele>23.666666666666668</ele><time>2026-04-28T13:22:36Z</time></trkpt><trkpt lat="34.48630856620327" lon="-6.4858521627622805"><ele>24.333333333333336</ele><time>2026-04-28T13:22:37Z</time></trkpt><trkpt lat="34.486467062607815" lon="-6.485808765729373"><ele>25.0</ele><time>2026-04-28T13:22:38Z</time></trkpt><trkpt lat="34.486624494225296" lon="-6.485764957804694"><ele>25.0</ele><time>2026-04-28T13:22:39Z</time></trkpt><trkpt lat="34.48678048353219" lon="-6.4857214345066625"><ele>25.0</ele><time>2026-04-28T13:22:40Z</time></trkpt><trkpt lat="34.4869340393458" lon="-6.485678004574231"><ele>25.0</ele><time>2026-04-28T13:22:41Z</time></trkpt><trkpt lat="34.487086110549406" lon="-6.4856349945377305"><ele>24.75</ele><time>2026-04-28T13:22:42Z</time></trkpt><trkpt lat="34.48723185800684" lon="-6.485593633593791"><ele>24.5</ele><time>2026-04-28T13:22:43Z</time></trkpt><trkpt lat="34.487365739701" lon="-6.485555227636893"><ele>24.25</ele><time>2026-04-28T13:22:44Z</time></trkpt><trkpt lat="34.48748547977042" lon="-6.485521165591192"><ele>24.0</ele><time>2026-04-28T13:22:45Z</time></trkpt><trkpt lat="34.48759856907553" lon="-6.485488995466334"><ele>24.0</ele><time>2026-04-28T13:22:45.999Z</time></trkpt><trkpt lat="34.487697819400566" lon="-6.485460265659992"><ele>24.0</ele><time>2026-04-28T13:22:46.999Z</time></trkpt><trkpt lat="34.48779253652272" lon="-6.485431825568637"><ele>24.0</ele><time>2026-04-28T13:22:47.999Z</time></trkpt><trkpt lat="34.4878922458246" lon="-6.4854018865263"><ele>24.0</ele><time>2026-04-28T13:22:48.999Z</time></trkpt><trkpt lat="34.48799852250436" lon="-6.485370385376112"><ele>24.0</ele><time>2026-04-28T13:22:49.999Z</time></trkpt><trkpt lat="34.48810867680237" lon="-6.485337556138761"><ele>23.0</ele><time>2026-04-28T13:22:50.999Z</time></trkpt><trkpt lat="34.488219641715986" lon="-6.485304410906822"><ele>22.0</ele><time>2026-04-28T13:22:51.999Z</time></trkpt><trkpt lat="34.48832376645364" lon="-6.48527331547438"><ele>21.0</ele><time>2026-04-28T13:22:52.999Z</time></trkpt><trkpt lat="34.48841852447499" lon="-6.485245160846949"><ele>20.0</ele><time>2026-04-28T13:22:53.999Z</time></trkpt><trkpt lat="34.48850868973872" lon="-6.485218872200621"><ele>19.0</ele><time>2026-04-28T13:22:54.999Z</time></trkpt><trkpt lat="34.488593510089004" lon="-6.485194408731451"><ele>19.0</ele><time>2026-04-28T13:22:55.999Z</time></trkpt><trkpt lat="34.48866825555907" lon="-6.485174283587443"><ele>19.0</ele><time>2026-04-28T13:22:56.999Z</time></trkpt><trkpt lat="34.4887385195454" lon="-6.48515536509423"><ele>19.0</ele><time>2026-04-28T13:22:57.999Z</time></trkpt><trkpt lat="34.48880325046735" lon="-6.4851379363553745"><ele>19.0</ele><time>2026-04-28T13:22:58.999Z</time></trkpt><trkpt lat="34.488923733674156" lon="-6.485105496383395"><ele>19.0</ele><time>2026-04-28T13:23:00.999Z</time></trkpt><trkpt lat="34.489031622402145" lon="-6.485076570863577"><ele>19.0</ele><time>2026-04-28T13:23:02.999Z</time></trkpt><trkpt lat="34.48911368539595" lon="-6.485054716709701"><ele>19.166666666666664</ele><time>2026-04-28T13:23:04.999Z</time></trkpt><trkpt lat="34.489200772101334" lon="-6.4850315246928405"><ele>19.333333333333332</ele><time>2026-04-28T13:23:07.999Z</time></trkpt><trkpt lat="34.48926797573645" lon="-6.4850136277290105"><ele>19.5</ele><time>2026-04-28T13:23:09.999Z</time></trkpt><trkpt lat="34.489339885097245" lon="-6.484993465873106"><ele>19.666666666666668</ele><time>2026-04-28T13:23:11.999Z</time></trkpt><trkpt lat="34.48941046551331" lon="-6.484972453199464"><ele>19.833333333333336</ele><time>2026-04-28T13:23:13.999Z</time></trkpt><trkpt lat="34.48949996980656" lon="-6.484952427457314"><ele>20.0</ele><time>2026-04-28T13:23:16.999Z</time></trkpt><trkpt lat="34.48958323358238" lon="-6.484886615740936"><ele>19.4</ele><time>2026-04-28T13:23:18.999Z</time></trkpt><trkpt lat="34.489681420062226" lon="-6.4848351249773275"><ele>18.8</ele><time>2026-04-28T13:23:20.999Z</time></trkpt><trkpt lat="34.48978544275367" lon="-6.48479710563923"><ele>18.2</ele><time>2026-04-28T13:23:22.999Z</time></trkpt><trkpt lat="34.489883050129265" lon="-6.48476784727119"><ele>17.6</ele><time>2026-04-28T13:23:24.999Z</time></trkpt><trkpt lat="34.48997890944135" lon="-6.484742605425599"><ele>17.0</ele><time>2026-04-28T13:23:26.999Z</time></trkpt><trkpt lat="34.49004276850758" lon="-6.484726360886153"><ele>17.0</ele><time>2026-04-28T13:23:27.999Z</time></trkpt><trkpt lat="34.49011407631873" lon="-6.484708544286983"><ele>17.0</ele><time>2026-04-28T13:23:28.999Z</time></trkpt><trkpt lat="34.4901931495464" lon="-6.484689166606188"><ele>17.0</ele><time>2026-04-28T13:23:29.999Z</time></trkpt><trkpt lat="34.490282297944844" lon="-6.484666871000721"><ele>17.0</ele><time>2026-04-28T13:23:30.999Z</time></trkpt><trkpt lat="34.49038168690369" lon="-6.484638759594697"><ele>17.0</ele><time>2026-04-28T13:23:31.999Z</time></trkpt><trkpt lat="34.49048611913868" lon="-6.484608652879233"><ele>17.75</ele><time>2026-04-28T13:23:32.999Z</time></trkpt><trkpt lat="34.49059751967606" lon="-6.484577284897451"><ele>18.5</ele><time>2026-04-28T13:23:33.999Z</time></trkpt><trkpt lat="34.49071899106767" lon="-6.484545014364326"><ele>19.25</ele><time>2026-04-28T13:23:34.999Z</time></trkpt><trkpt lat="34.490846633804004" lon="-6.484510986269822"><ele>20.0</ele><time>2026-04-28T13:23:35.999Z</time></trkpt><trkpt lat="34.4909801888099" lon="-6.484473354195984"><ele>20.0</ele><time>2026-04-28T13:23:36.999Z</time></trkpt><trkpt lat="34.4911194674719" lon="-6.484431860615134"><ele>20.0</ele><time>2026-04-28T13:23:37.999Z</time></trkpt><trkpt lat="34.491265782157356" lon="-6.48438674905677"><ele>20.0</ele><time>2026-04-28T13:23:38.999Z</time></trkpt><trkpt lat="34.49142214111601" lon="-6.484341384264032"><ele>21.333333333333336</ele><time>2026-04-28T13:23:39.999Z</time></trkpt><trkpt lat="34.491591605304365" lon="-6.484292871603703"><ele>22.666666666666668</ele><time>2026-04-28T13:23:40.999Z</time></trkpt><trkpt lat="34.49178092152134" lon="-6.484240640376437"><ele>24.0</ele><time>2026-04-28T13:23:41.999Z</time></trkpt><trkpt lat="34.49200422425334" lon="-6.484179107820818"><ele>24.0</ele><time>2026-04-28T13:23:42.999Z</time></trkpt><trkpt lat="34.4922717208162" lon="-6.484105468512199"><ele>24.0</ele><time>2026-04-28T13:23:43.999Z</time></trkpt><trkpt lat="34.49257424946014" lon="-6.4840223683513285"><ele>24.0</ele><time>2026-04-28T13:23:44.999Z</time></trkpt><trkpt lat="34.49288984792324" lon="-6.483938067173513"><ele>24.0</ele><time>2026-04-28T13:23:45.999Z</time></trkpt><trkpt lat="34.4932483734506" lon="-6.483835537097449"><ele>24.0</ele><time>2026-04-28T13:23:46.999Z</time></trkpt><trkpt lat="34.49362325035473" lon="-6.483726252918248"><ele>24.0</ele><time>2026-04-28T13:23:47.999Z</time></trkpt><trkpt lat="34.493992803498394" lon="-6.483614277493301"><ele>23.5</ele><time>2026-04-28T13:23:48.999Z</time></trkpt><trkpt lat="34.49433258324884" lon="-6.48351601890635"><ele>23.0</ele><time>2026-04-28T13:23:49.999Z</time></trkpt><trkpt lat="34.4946481843339" lon="-6.483426975063401"><ele>22.5</ele><time>2026-04-28T13:23:51Z</time></trkpt><trkpt lat="34.49494874008308" lon="-6.483342317353211"><ele>22.0</ele><time>2026-04-28T13:23:52Z</time></trkpt><trkpt lat="34.495232366482654" lon="-6.483262678428308"><ele>23.5</ele><time>2026-04-28T13:23:53Z</time></trkpt><trkpt lat="34.49550616668702" lon="-6.483184596711724"><ele>25.0</ele><time>2026-04-28T13:23:54Z</time></trkpt><trkpt lat="34.49578174620995" lon="-6.483107878260131"><ele>25.0</ele><time>2026-04-28T13:23:55Z</time></trkpt><trkpt lat="34.49605591599776" lon="-6.483033908988061"><ele>25.0</ele><time>2026-04-28T13:23:56Z</time></trkpt><trkpt lat="34.49632967952425" lon="-6.482958047003625"><ele>24.0</ele><time>2026-04-28T13:23:57Z</time></trkpt><trkpt lat="34.49660729267208" lon="-6.482879119490284"><ele>23.0</ele><time>2026-04-28T13:23:58Z</time></trkpt><trkpt lat="34.4968899847827" lon="-6.482797855901657"><ele>24.0</ele><time>2026-04-28T13:23:59Z</time></trkpt><trkpt lat="34.49717984276639" lon="-6.4827176129018484"><ele>25.0</ele><time>2026-04-28T13:24:00Z</time></trkpt><trkpt lat="34.49746719841396" lon="-6.482638754388833"><ele>25.0</ele><time>2026-04-28T13:24:01Z</time></trkpt><trkpt lat="34.497756107038555" lon="-6.482556802945369"><ele>25.0</ele><time>2026-04-28T13:24:02Z</time></trkpt><trkpt lat="34.49804082947568" lon="-6.482477193250688"><ele>24.5</ele><time>2026-04-28T13:24:03Z</time></trkpt><trkpt lat="34.498322613072986" lon="-6.4824006768415"><ele>24.0</ele><time>2026-04-28T13:24:04Z</time></trkpt><trkpt lat="34.49859935781509" lon="-6.482327540919737"><ele>24.5</ele><time>2026-04-28T13:24:05Z</time></trkpt><trkpt lat="34.498871643126" lon="-6.482255990522446"><ele>25.0</ele><time>2026-04-28T13:24:06Z</time></trkpt><trkpt lat="34.49914512634096" lon="-6.482181847410531"><ele>25.0</ele><time>2026-04-28T13:24:07Z</time></trkpt><trkpt lat="34.49942049502425" lon="-6.482104535165891"><ele>25.0</ele><time>2026-04-28T13:24:08Z</time></trkpt><trkpt lat="34.499695141656495" lon="-6.482022489193525"><ele>23.0</ele><time>2026-04-28T13:24:09Z</time></trkpt><trkpt lat="34.49996261606316" lon="-6.481941391182856"><ele>21.0</ele><time>2026-04-28T13:24:10Z</time></trkpt><trkpt lat="34.50022985014094" lon="-6.481858856313417"><ele>21.5</ele><time>2026-04-28T13:24:11Z</time></trkpt><trkpt lat="34.500496208814205" lon="-6.48176917293579"><ele>22.0</ele><time>2026-04-28T13:24:12Z</time></trkpt><trkpt lat="34.500760495814866" lon="-6.48167011458492"><ele>22.0</ele><time>2026-04-28T13:24:13Z</time></trkpt><trkpt lat="34.50102343840473" lon="-6.481569680764946"><ele>22.0</ele><time>2026-04-28T13:24:14Z</time></trkpt><trkpt lat="34.501288058629854" lon="-6.4814669512053005"><ele>22.0</ele><time>2026-04-28T13:24:15Z</time></trkpt><trkpt lat="34.501553384845835" lon="-6.48135825261913"><ele>22.0</ele><time>2026-04-28T13:24:16Z</time></trkpt><trkpt lat="34.50182001591542" lon="-6.481246706604792"><ele>23.5</ele><time>2026-04-28T13:24:17Z</time></trkpt><trkpt lat="34.50208723958034" lon="-6.481135584280007"><ele>25.0</ele><time>2026-04-28T13:24:18Z</time></trkpt><trkpt lat="34.50235476493148" lon="-6.481021509874851"><ele>25.0</ele><time>2026-04-28T13:24:19Z</time></trkpt><trkpt lat="34.50262235258092" lon="-6.4808996675797825"><ele>25.0</ele><time>2026-04-28T13:24:20Z</time></trkpt><trkpt lat="34.50289253975536" lon="-6.480768528780523"><ele>27.5</ele><time>2026-04-28T13:24:21Z</time></trkpt><trkpt lat="34.50316323182352" lon="-6.48063131020391"><ele>30.0</ele><time>2026-04-28T13:24:22Z</time></trkpt><trkpt lat="34.503436535128074" lon="-6.4804909896314635"><ele>30.0</ele><time>2026-04-28T13:24:23Z</time></trkpt><trkpt lat="34.50370903875754" lon="-6.480347125651774"><ele>30.0</ele><time>2026-04-28T13:24:24Z</time></trkpt><trkpt lat="34.50397907785047" lon="-6.480199108265"><ele>29.0</ele><time>2026-04-28T13:24:25Z</time></trkpt><trkpt lat="34.50424816569873" lon="-6.4800441061547005"><ele>28.0</ele><time>2026-04-28T13:24:26.001Z</time></trkpt><trkpt lat="34.50450862322123" lon="-6.479879337032539"><ele>29.0</ele><time>2026-04-28T13:24:27.001Z</time></trkpt><trkpt lat="34.50476833784495" lon="-6.479710825577944"><ele>30.0</ele><time>2026-04-28T13:24:28.001Z</time></trkpt><trkpt lat="34.505028276545325" lon="-6.479538073094113"><ele>30.0</ele><time>2026-04-28T13:24:29.001Z</time></trkpt><trkpt lat="34.505286982637145" lon="-6.479364480214949"><ele>30.0</ele><time>2026-04-28T13:24:30.001Z</time></trkpt><trkpt lat="34.50554350833806" lon="-6.479187105156369"><ele>30.5</ele><time>2026-04-28T13:24:31.001Z</time></trkpt><trkpt lat="34.50580378239677" lon="-6.479008540384631"><ele>31.0</ele><time>2026-04-28T13:24:32.001Z</time></trkpt><trkpt lat="34.506066790122" lon="-6.478834244676309"><ele>31.0</ele><time>2026-04-28T13:24:33.001Z</time></trkpt><trkpt lat="34.506329147049755" lon="-6.478663758844689"><ele>31.0</ele><time>2026-04-28T13:24:34.001Z</time></trkpt><trkpt lat="34.50659011607613" lon="-6.478495471023685"><ele>31.0</ele><time>2026-04-28T13:24:35.001Z</time></trkpt><trkpt lat="34.50685220408751" lon="-6.478325244530594"><ele>31.0</ele><time>2026-04-28T13:24:36.001Z</time></trkpt><trkpt lat="34.507113697511876" lon="-6.478152137245445"><ele>31.5</ele><time>2026-04-28T13:24:37.001Z</time></trkpt><trkpt lat="34.507375907117314" lon="-6.477976804086937"><ele>32.0</ele><time>2026-04-28T13:24:38.001Z</time></trkpt><trkpt lat="34.50763807754301" lon="-6.477802480102395"><ele>32.0</ele><time>2026-04-28T13:24:39.001Z</time></trkpt><trkpt lat="34.5078994460504" lon="-6.477628653247427"><ele>32.0</ele><time>2026-04-28T13:24:40.001Z</time></trkpt><trkpt lat="34.50816072667784" lon="-6.477453713397857"><ele>32.0</ele><time>2026-04-28T13:24:41.001Z</time></trkpt><trkpt lat="34.50842186579176" lon="-6.477279066075084"><ele>32.0</ele><time>2026-04-28T13:24:42Z</time></trkpt><trkpt lat="34.50868247456689" lon="-6.477104275423426"><ele>32.0</ele><time>2026-04-28T13:24:43Z</time></trkpt><trkpt lat="34.508942263130415" lon="-6.476930055958047"><ele>32.0</ele><time>2026-04-28T13:24:44Z</time></trkpt><trkpt lat="34.50920144221148" lon="-6.476753964284997"><ele>32.0</ele><time>2026-04-28T13:24:45Z</time></trkpt><trkpt lat="34.50946201004984" lon="-6.476576221799452"><ele>32.0</ele><time>2026-04-28T13:24:46Z</time></trkpt><trkpt lat="34.50972326437195" lon="-6.476400605434408"><ele>32.5</ele><time>2026-04-28T13:24:47Z</time></trkpt><trkpt lat="34.509984491746835" lon="-6.47622389287211"><ele>33.0</ele><time>2026-04-28T13:24:48Z</time></trkpt><trkpt lat="34.51024632297668" lon="-6.476048149342022"><ele>31.5</ele><time>2026-04-28T13:24:49Z</time></trkpt><trkpt lat="34.5105077849779" lon="-6.475871415969909"><ele>30.0</ele><time>2026-04-28T13:24:50Z</time></trkpt><trkpt lat="34.51076814826292" lon="-6.475695639612407"><ele>30.0</ele><time>2026-04-28T13:24:51Z</time></trkpt><trkpt lat="34.51103017684013" lon="-6.475519147632326"><ele>30.0</ele><time>2026-04-28T13:24:52Z</time></trkpt><trkpt lat="34.51128989455814" lon="-6.47534302500928"><ele>31.5</ele><time>2026-04-28T13:24:53Z</time></trkpt><trkpt lat="34.51155205630221" lon="-6.475166406519855"><ele>33.0</ele><time>2026-04-28T13:24:54Z</time></trkpt><trkpt lat="34.5118135532512" lon="-6.474989723320697"><ele>32.0</ele><time>2026-04-28T13:24:55Z</time></trkpt><trkpt lat="34.51207399546908" lon="-6.474813235606565"><ele>31.0</ele><time>2026-04-28T13:24:56Z</time></trkpt><trkpt lat="34.51233530756609" lon="-6.4746382847050725"><ele>30.0</ele><time>2026-04-28T13:24:57Z</time></trkpt><trkpt lat="34.51259837107492" lon="-6.4744668756746195"><ele>29.0</ele><time>2026-04-28T13:24:58Z</time></trkpt><trkpt lat="34.51286513675204" lon="-6.474306374833789"><ele>29.0</ele><time>2026-04-28T13:24:59Z</time></trkpt><trkpt lat="34.51313139172923" lon="-6.474154068627229"><ele>29.0</ele><time>2026-04-28T13:25:00Z</time></trkpt><trkpt lat="34.51340081200462" lon="-6.474007163316779"><ele>29.0</ele><time>2026-04-28T13:25:01Z</time></trkpt><trkpt lat="34.51367147217752" lon="-6.473861104609366"><ele>29.0</ele><time>2026-04-28T13:25:02Z</time></trkpt><trkpt lat="34.51394336297244" lon="-6.4737163978620424"><ele>27.5</ele><time>2026-04-28T13:25:03Z</time></trkpt><trkpt lat="34.51421449037032" lon="-6.473575397596812"><ele>26.0</ele><time>2026-04-28T13:25:04Z</time></trkpt><trkpt lat="34.514488646127354" lon="-6.473439199428692"><ele>28.0</ele><time>2026-04-28T13:25:05Z</time></trkpt><trkpt lat="34.514764572401766" lon="-6.473307416989045"><ele>30.0</ele><time>2026-04-28T13:25:06Z</time></trkpt><trkpt lat="34.515040999186745" lon="-6.473179812894546"><ele>30.0</ele><time>2026-04-28T13:25:07Z</time></trkpt><trkpt lat="34.51532110019417" lon="-6.473055876853012"><ele>30.0</ele><time>2026-04-28T13:25:08Z</time></trkpt><trkpt lat="34.51560167277961" lon="-6.472937359875815"><ele>29.5</ele><time>2026-04-28T13:25:09Z</time></trkpt><trkpt lat="34.51588447226865" lon="-6.472823839931204"><ele>29.0</ele><time>2026-04-28T13:25:10Z</time></trkpt><trkpt lat="34.51616832662932" lon="-6.472717301771394"><ele>28.5</ele><time>2026-04-28T13:25:11Z</time></trkpt><trkpt lat="34.516453247326915" lon="-6.472612229961773"><ele>28.0</ele><time>2026-04-28T13:25:12Z</time></trkpt><trkpt lat="34.516736246918626" lon="-6.47250409135528"><ele>28.0</ele><time>2026-04-28T13:25:13Z</time></trkpt><trkpt lat="34.51701670586448" lon="-6.472393619948101"><ele>28.0</ele><time>2026-04-28T13:25:14Z</time></trkpt><trkpt lat="34.5172994565464" lon="-6.472283972211684"><ele>28.0</ele><time>2026-04-28T13:25:15Z</time></trkpt><trkpt lat="34.517582507717286" lon="-6.472173557301794"><ele>28.0</ele><time>2026-04-28T13:25:16Z</time></trkpt><trkpt lat="34.51786592399315" lon="-6.472062526289445"><ele>28.5</ele><time>2026-04-28T13:25:17Z</time></trkpt><trkpt lat="34.51815005536425" lon="-6.471951787353792"><ele>29.0</ele><time>2026-04-28T13:25:18Z</time></trkpt><trkpt lat="34.518435649437905" lon="-6.471841147718971"><ele>29.0</ele><time>2026-04-28T13:25:19Z</time></trkpt><trkpt lat="34.518722523079276" lon="-6.471730504525431"><ele>29.0</ele><time>2026-04-28T13:25:20Z</time></trkpt><trkpt lat="34.519008946055386" lon="-6.471619097534366"><ele>29.0</ele><time>2026-04-28T13:25:21Z</time></trkpt><trkpt lat="34.519292768209645" lon="-6.471507177602376"><ele>29.0</ele><time>2026-04-28T13:25:22Z</time></trkpt><trkpt lat="34.51957639984423" lon="-6.471394831744635"><ele>28.5</ele><time>2026-04-28T13:25:23Z</time></trkpt><trkpt lat="34.51986093343643" lon="-6.4712850765852625"><ele>28.0</ele><time>2026-04-28T13:25:24Z</time></trkpt><trkpt lat="34.52014526893377" lon="-6.4711752561976095"><ele>28.0</ele><time>2026-04-28T13:25:25Z</time></trkpt><trkpt lat="34.520429024709266" lon="-6.4710659887796895"><ele>28.0</ele><time>2026-04-28T13:25:26Z</time></trkpt><trkpt lat="34.52071182607309" lon="-6.470955734736307"><ele>28.0</ele><time>2026-04-28T13:25:27Z</time></trkpt><trkpt lat="34.5209965693342" lon="-6.4708448961929905"><ele>28.0</ele><time>2026-04-28T13:25:28Z</time></trkpt><trkpt lat="34.5212809576709" lon="-6.470734292104586"><ele>27.5</ele><time>2026-04-28T13:25:29Z</time></trkpt><trkpt lat="34.52156483625934" lon="-6.470625357941886"><ele>27.0</ele><time>2026-04-28T13:25:30Z</time></trkpt><trkpt lat="34.52184843479044" lon="-6.470515561928758"><ele>25.5</ele><time>2026-04-28T13:25:31Z</time></trkpt><trkpt lat="34.52213360999687" lon="-6.470404179305994"><ele>24.0</ele><time>2026-04-28T13:25:32Z</time></trkpt><trkpt lat="34.522418036607" lon="-6.470292490762621"><ele>24.0</ele><time>2026-04-28T13:25:33Z</time></trkpt><trkpt lat="34.52270126844188" lon="-6.470180808638011"><ele>24.0</ele><time>2026-04-28T13:25:34Z</time></trkpt><trkpt lat="34.52298377696269" lon="-6.470068081078466"><ele>24.5</ele><time>2026-04-28T13:25:35Z</time></trkpt><trkpt lat="34.523265787859586" lon="-6.469955216781898"><ele>25.0</ele><time>2026-04-28T13:25:36Z</time></trkpt><trkpt lat="34.523549377245445" lon="-6.46984169413224"><ele>24.0</ele><time>2026-04-28T13:25:37Z</time></trkpt><trkpt lat="34.52383428194791" lon="-6.469729739123561"><ele>23.0</ele><time>2026-04-28T13:25:38Z</time></trkpt><trkpt lat="34.524119007568686" lon="-6.469618829260758"><ele>24.0</ele><time>2026-04-28T13:25:39Z</time></trkpt><trkpt lat="34.52440192984024" lon="-6.469510193077945"><ele>25.0</ele><time>2026-04-28T13:25:40Z</time></trkpt><trkpt lat="34.52468425591171" lon="-6.469402502695323"><ele>23.0</ele><time>2026-04-28T13:25:41Z</time></trkpt><trkpt lat="34.524968293349005" lon="-6.46929219115938"><ele>21.0</ele><time>2026-04-28T13:25:42Z</time></trkpt><trkpt lat="34.52525302166297" lon="-6.469180108928353"><ele>21.5</ele><time>2026-04-28T13:25:43Z</time></trkpt><trkpt lat="34.52553623478166" lon="-6.469067935011811"><ele>22.0</ele><time>2026-04-28T13:25:44Z</time></trkpt><trkpt lat="34.52582010597222" lon="-6.4689534705951495"><ele>22.0</ele><time>2026-04-28T13:25:45Z</time></trkpt><trkpt lat="34.52610262824992" lon="-6.468840806880007"><ele>22.0</ele><time>2026-04-28T13:25:46Z</time></trkpt><trkpt lat="34.526385852243656" lon="-6.468729190527506"><ele>23.5</ele><time>2026-04-28T13:25:47Z</time></trkpt><trkpt lat="34.52666964282785" lon="-6.468618580041396"><ele>25.0</ele><time>2026-04-28T13:25:48Z</time></trkpt><trkpt lat="34.52695340397846" lon="-6.468508797556983"><ele>25.0</ele><time>2026-04-28T13:25:49Z</time></trkpt><trkpt lat="34.52723754753675" lon="-6.46840021302761"><ele>25.0</ele><time>2026-04-28T13:25:50Z</time></trkpt><trkpt lat="34.52752149647277" lon="-6.468291034929332"><ele>25.0</ele><time>2026-04-28T13:25:51Z</time></trkpt><trkpt lat="34.527804841015566" lon="-6.4681791818637775"><ele>25.0</ele><time>2026-04-28T13:25:52Z</time></trkpt><trkpt lat="34.52808782037819" lon="-6.468067289722923"><ele>23.0</ele><time>2026-04-28T13:25:53Z</time></trkpt><trkpt lat="34.52837090374501" lon="-6.467955175446727"><ele>21.0</ele><time>2026-04-28T13:25:54Z</time></trkpt><trkpt lat="34.528652835024175" lon="-6.467843826289402"><ele>20.5</ele><time>2026-04-28T13:25:55Z</time></trkpt><trkpt lat="34.528934684770554" lon="-6.467733604893479"><ele>20.0</ele><time>2026-04-28T13:25:56Z</time></trkpt><trkpt lat="34.52921776860169" lon="-6.46762419195428"><ele>20.0</ele><time>2026-04-28T13:25:57Z</time></trkpt><trkpt lat="34.529500929872725" lon="-6.467514324031796"><ele>20.0</ele><time>2026-04-28T13:25:58Z</time></trkpt><trkpt lat="34.52978174225318" lon="-6.467401379858351"><ele>21.5</ele><time>2026-04-28T13:25:59Z</time></trkpt><trkpt lat="34.530060203683" lon="-6.467284910744657"><ele>23.0</ele><time>2026-04-28T13:26:00Z</time></trkpt><trkpt lat="34.530335802606224" lon="-6.467163318671648"><ele>23.0</ele><time>2026-04-28T13:26:01Z</time></trkpt><trkpt lat="34.530610565777536" lon="-6.467035737116528"><ele>23.0</ele><time>2026-04-28T13:26:02Z</time></trkpt><trkpt lat="34.530883704700436" lon="-6.466900220329065"><ele>23.0</ele><time>2026-04-28T13:26:03Z</time></trkpt><trkpt lat="34.531157665389856" lon="-6.466762618840232"><ele>23.0</ele><time>2026-04-28T13:26:04Z</time></trkpt><trkpt lat="34.53143185870792" lon="-6.466621247572162"><ele>21.5</ele><time>2026-04-28T13:26:05Z</time></trkpt><trkpt lat="34.531705472558095" lon="-6.466474245326268"><ele>20.0</ele><time>2026-04-28T13:26:06Z</time></trkpt><trkpt lat="34.53197576056246" lon="-6.466321392069002"><ele>20.0</ele><time>2026-04-28T13:26:07Z</time></trkpt><trkpt lat="34.53224546906215" lon="-6.466164180616385"><ele>20.0</ele><time>2026-04-28T13:26:08Z</time></trkpt><trkpt lat="34.532511189162285" lon="-6.466004699164138"><ele>20.0</ele><time>2026-04-28T13:26:09Z</time></trkpt><trkpt lat="34.53277411412945" lon="-6.465842033619984"><ele>20.0</ele><time>2026-04-28T13:26:10Z</time></trkpt><trkpt lat="34.53303628007838" lon="-6.465674451490366"><ele>23.0</ele><time>2026-04-28T13:26:11Z</time></trkpt><trkpt lat="34.533298612954724" lon="-6.465502532839602"><ele>26.0</ele><time>2026-04-28T13:26:12Z</time></trkpt><trkpt lat="34.53356150350678" lon="-6.465325882486106"><ele>23.5</ele><time>2026-04-28T13:26:13Z</time></trkpt><trkpt lat="34.533820535333454" lon="-6.465146171843696"><ele>21.0</ele><time>2026-04-28T13:26:14Z</time></trkpt><trkpt lat="34.53407561630649" lon="-6.464959858448177"><ele>21.0</ele><time>2026-04-28T13:26:15Z</time></trkpt><trkpt lat="34.53432944734811" lon="-6.464768579521045"><ele>21.0</ele><time>2026-04-28T13:26:16Z</time></trkpt><trkpt lat="34.534583568170476" lon="-6.464574348455856"><ele>22.0</ele><time>2026-04-28T13:26:17Z</time></trkpt><trkpt lat="34.534834362697865" lon="-6.464377223494339"><ele>23.0</ele><time>2026-04-28T13:26:18Z</time></trkpt><trkpt lat="34.53508450387786" lon="-6.464178391389097"><ele>23.0</ele><time>2026-04-28T13:26:19Z</time></trkpt><trkpt lat="34.53533462578715" lon="-6.463978918251392"><ele>23.0</ele><time>2026-04-28T13:26:20Z</time></trkpt><trkpt lat="34.53558491123127" lon="-6.463782443868496"><ele>24.5</ele><time>2026-04-28T13:26:21Z</time></trkpt><trkpt lat="34.53583621394998" lon="-6.463586422929039"><ele>26.0</ele><time>2026-04-28T13:26:22Z</time></trkpt><trkpt lat="34.536086742113135" lon="-6.463394163335273"><ele>27.0</ele><time>2026-04-28T13:26:23Z</time></trkpt><trkpt lat="34.53633933176365" lon="-6.46320810098115"><ele>28.0</ele><time>2026-04-28T13:26:24Z</time></trkpt><trkpt lat="34.536596770562916" lon="-6.463024832184407"><ele>28.5</ele><time>2026-04-28T13:26:25Z</time></trkpt><trkpt lat="34.53685475014366" lon="-6.4628471148568485"><ele>29.0</ele><time>2026-04-28T13:26:26Z</time></trkpt><trkpt lat="34.537115041435335" lon="-6.462678595875219"><ele>27.5</ele><time>2026-04-28T13:26:27Z</time></trkpt><trkpt lat="34.537377258192656" lon="-6.462514719350439"><ele>26.0</ele><time>2026-04-28T13:26:28Z</time></trkpt><trkpt lat="34.537642558667905" lon="-6.462353961566568"><ele>27.5</ele><time>2026-04-28T13:26:29Z</time></trkpt><trkpt lat="34.537909516756706" lon="-6.462197581028992"><ele>29.0</ele><time>2026-04-28T13:26:30Z</time></trkpt><trkpt lat="34.538178234406836" lon="-6.462048409297115"><ele>29.0</ele><time>2026-04-28T13:26:31Z</time></trkpt><trkpt lat="34.53844848083335" lon="-6.461903799843131"><ele>29.0</ele><time>2026-04-28T13:26:32.001Z</time></trkpt><trkpt lat="34.53872085359147" lon="-6.461767054744937"><ele>28.0</ele><time>2026-04-28T13:26:33.001Z</time></trkpt><trkpt lat="34.53899344497241" lon="-6.461632485852134"><ele>27.0</ele><time>2026-04-28T13:26:34.001Z</time></trkpt><trkpt lat="34.53927053621753" lon="-6.46150390756221"><ele>27.0</ele><time>2026-04-28T13:26:35.001Z</time></trkpt><trkpt lat="34.53954947906135" lon="-6.461379975478316"><ele>27.0</ele><time>2026-04-28T13:26:36.001Z</time></trkpt><trkpt lat="34.539827767291314" lon="-6.461261381640596"><ele>27.5</ele><time>2026-04-28T13:26:37.001Z</time></trkpt><trkpt lat="34.54010963970714" lon="-6.46114823301647"><ele>28.0</ele><time>2026-04-28T13:26:38.001Z</time></trkpt><trkpt lat="34.54039473888596" lon="-6.46104104445947"><ele>28.0</ele><time>2026-04-28T13:26:39.001Z</time></trkpt><trkpt lat="34.540682047941594" lon="-6.460939343726423"><ele>28.0</ele><time>2026-04-28T13:26:40.001Z</time></trkpt><trkpt lat="34.54097022488548" lon="-6.46084347962078"><ele>27.5</ele><time>2026-04-28T13:26:41.001Z</time></trkpt><trkpt lat="34.54125920784785" lon="-6.4607532488647115"><ele>27.0</ele><time>2026-04-28T13:26:42.001Z</time></trkpt><trkpt lat="34.541548154087394" lon="-6.460670675482433"><ele>27.0</ele><time>2026-04-28T13:26:43.001Z</time></trkpt><trkpt lat="34.54183802418991" lon="-6.460594651736711"><ele>27.0</ele><time>2026-04-28T13:26:44.001Z</time></trkpt><trkpt lat="34.54213035482633" lon="-6.460526077872121"><ele>28.5</ele><time>2026-04-28T13:26:45.001Z</time></trkpt><trkpt lat="34.54242684705285" lon="-6.460482588246087"><ele>30.0</ele><time>2026-04-28T13:26:46.001Z</time></trkpt><trkpt lat="34.54271692373971" lon="-6.460425993800453"><ele>30.5</ele><time>2026-04-28T13:26:47.001Z</time></trkpt><trkpt lat="34.54300708425593" lon="-6.46038008866209"><ele>31.0</ele><time>2026-04-28T13:26:48Z</time></trkpt><trkpt lat="34.54329864210585" lon="-6.4603339624038245"><ele>31.0</ele><time>2026-04-28T13:26:49Z</time></trkpt><trkpt lat="34.543586231086366" lon="-6.460251133052124"><ele>31.0</ele><time>2026-04-28T13:26:50Z</time></trkpt><trkpt lat="34.54387848984568" lon="-6.460210983033357"><ele>29.0</ele><time>2026-04-28T13:26:51Z</time></trkpt><trkpt lat="34.54416906692412" lon="-6.460172888887995"><ele>27.0</ele><time>2026-04-28T13:26:52Z</time></trkpt><trkpt lat="34.5444534592524" lon="-6.460136016772651"><ele>26.0</ele><time>2026-04-28T13:26:53Z</time></trkpt><trkpt lat="34.54472982722659" lon="-6.460103442526893"><ele>25.0</ele><time>2026-04-28T13:26:54Z</time></trkpt><trkpt lat="34.54500368812587" lon="-6.460071913338444"><ele>25.0</ele><time>2026-04-28T13:26:55Z</time></trkpt><trkpt lat="34.545279813333565" lon="-6.460038013280009"><ele>25.0</ele><time>2026-04-28T13:26:56Z</time></trkpt><trkpt lat="34.5455590270512" lon="-6.460001122214659"><ele>24.0</ele><time>2026-04-28T13:26:57Z</time></trkpt><trkpt lat="34.54584160475394" lon="-6.4599640928234985"><ele>23.0</ele><time>2026-04-28T13:26:58Z</time></trkpt><trkpt lat="34.54612848944897" lon="-6.459927476006571"><ele>22.5</ele><time>2026-04-28T13:26:59Z</time></trkpt><trkpt lat="34.54641535432946" lon="-6.459888753686302"><ele>22.0</ele><time>2026-04-28T13:27:00Z</time></trkpt><trkpt lat="34.54670274139623" lon="-6.4598450808482175"><ele>22.0</ele><time>2026-04-28T13:27:01Z</time></trkpt><trkpt lat="34.5469922374618" lon="-6.4597978009162444"><ele>22.0</ele><time>2026-04-28T13:27:02Z</time></trkpt><trkpt lat="34.547282727650725" lon="-6.459749064001301"><ele>19.5</ele><time>2026-04-28T13:27:03Z</time></trkpt><trkpt lat="34.54757416844482" lon="-6.459702698569186"><ele>17.0</ele><time>2026-04-28T13:27:04Z</time></trkpt><trkpt lat="34.54786586396524" lon="-6.459656442575546"><ele>14.5</ele><time>2026-04-28T13:27:05Z</time></trkpt><trkpt lat="34.548159516864374" lon="-6.459611183072894"><ele>12.0</ele><time>2026-04-28T13:27:06Z</time></trkpt><trkpt lat="34.54845175139458" lon="-6.459568865097389"><ele>11.5</ele><time>2026-04-28T13:27:07Z</time></trkpt><trkpt lat="34.5487469795428" lon="-6.459527006220115"><ele>11.0</ele><time>2026-04-28T13:27:08Z</time></trkpt><trkpt lat="34.549042393527195" lon="-6.459485244981591"><ele>11.0</ele><time>2026-04-28T13:27:09Z</time></trkpt><trkpt lat="34.549336815302304" lon="-6.459442439713604"><ele>11.0</ele><time>2026-04-28T13:27:10Z</time></trkpt><trkpt lat="34.54963221895667" lon="-6.4593982679866935"><ele>11.0</ele><time>2026-04-28T13:27:11Z</time></trkpt><trkpt lat="34.54992621919082" lon="-6.459354061328785"><ele>11.0</ele><time>2026-04-28T13:27:12Z</time></trkpt><trkpt lat="34.550219895362524" lon="-6.459311015676814"><ele>11.0</ele><time>2026-04-28T13:27:13Z</time></trkpt><trkpt lat="34.55051234123154" lon="-6.459267234897844"><ele>11.0</ele><time>2026-04-28T13:27:14Z</time></trkpt><trkpt lat="34.550805253394" lon="-6.459222186244154"><ele>11.0</ele><time>2026-04-28T13:27:15Z</time></trkpt><trkpt lat="34.55109807482435" lon="-6.459179319407148"><ele>11.0</ele><time>2026-04-28T13:27:16Z</time></trkpt><trkpt lat="34.551392896857706" lon="-6.459133534948332"><ele>11.5</ele><time>2026-04-28T13:27:17Z</time></trkpt><trkpt lat="34.55168696867803" lon="-6.459081761775163"><ele>12.0</ele><time>2026-04-28T13:27:18Z</time></trkpt><trkpt lat="34.55197967425833" lon="-6.459019898988676"><ele>12.5</ele><time>2026-04-28T13:27:19Z</time></trkpt><trkpt lat="34.5522711214764" lon="-6.458954476963095"><ele>13.0</ele><time>2026-04-28T13:27:20Z</time></trkpt><trkpt lat="34.552562571147256" lon="-6.458890455311482"><ele>13.0</ele><time>2026-04-28T13:27:21Z</time></trkpt><trkpt lat="34.55285338129923" lon="-6.458821651979073"><ele>13.0</ele><time>2026-04-28T13:27:22Z</time></trkpt><trkpt lat="34.553144258011976" lon="-6.458748464777208"><ele>12.5</ele><time>2026-04-28T13:27:23Z</time></trkpt><trkpt lat="34.55343487800782" lon="-6.458666177441528"><ele>12.0</ele><time>2026-04-28T13:27:24Z</time></trkpt><trkpt lat="34.55372167107358" lon="-6.458580790034402"><ele>12.0</ele><time>2026-04-28T13:27:25Z</time></trkpt><trkpt lat="34.55401162077555" lon="-6.4584898624913825"><ele>12.0</ele><time>2026-04-28T13:27:26Z</time></trkpt><trkpt lat="34.554298006474525" lon="-6.458398752097874"><ele>13.0</ele><time>2026-04-28T13:27:27Z</time></trkpt><trkpt lat="34.55458579964776" lon="-6.458299592463903"><ele>14.0</ele><time>2026-04-28T13:27:28Z</time></trkpt><trkpt lat="34.55487132692541" lon="-6.458195933501973"><ele>14.0</ele><time>2026-04-28T13:27:29Z</time></trkpt><trkpt lat="34.55515548333435" lon="-6.458086275556523"><ele>14.0</ele><time>2026-04-28T13:27:30Z</time></trkpt><trkpt lat="34.55543880193303" lon="-6.4579719060487975"><ele>13.0</ele><time>2026-04-28T13:27:31Z</time></trkpt><trkpt lat="34.55572111186525" lon="-6.457851493785535"><ele>12.0</ele><time>2026-04-28T13:27:32Z</time></trkpt><trkpt lat="34.5560000986815" lon="-6.457725650279783"><ele>12.5</ele><time>2026-04-28T13:27:33Z</time></trkpt><trkpt lat="34.55627849844713" lon="-6.457596533753242"><ele>13.0</ele><time>2026-04-28T13:27:34Z</time></trkpt><trkpt lat="34.5565577283397" lon="-6.457465968554192"><ele>13.0</ele><time>2026-04-28T13:27:35Z</time></trkpt><trkpt lat="34.55683505757408" lon="-6.457333965986866"><ele>13.0</ele><time>2026-04-28T13:27:36Z</time></trkpt><trkpt lat="34.55711321193884" lon="-6.457199106283368"><ele>13.5</ele><time>2026-04-28T13:27:37Z</time></trkpt><trkpt lat="34.55738943513596" lon="-6.457061515279383"><ele>14.0</ele><time>2026-04-28T13:27:38Z</time></trkpt><trkpt lat="34.55766585825806" lon="-6.456923461105698"><ele>14.0</ele><time>2026-04-28T13:27:39Z</time></trkpt><trkpt lat="34.55794129450771" lon="-6.456786346084626"><ele>14.0</ele><time>2026-04-28T13:27:40Z</time></trkpt><trkpt lat="34.55821754480164" lon="-6.45664954673833"><ele>14.0</ele><time>2026-04-28T13:27:41Z</time></trkpt><trkpt lat="34.558493981276996" lon="-6.456512911582582"><ele>14.0</ele><time>2026-04-28T13:27:42Z</time></trkpt><trkpt lat="34.55876927248065" lon="-6.456377690664734"><ele>13.5</ele><time>2026-04-28T13:27:43Z</time></trkpt><trkpt lat="34.55904521196517" lon="-6.456241594760277"><ele>13.0</ele><time>2026-04-28T13:27:44Z</time></trkpt><trkpt lat="34.55932094621825" lon="-6.45610618519672"><ele>13.5</ele><time>2026-04-28T13:27:45Z</time></trkpt><trkpt lat="34.559597452438496" lon="-6.4559721033979995"><ele>14.0</ele><time>2026-04-28T13:27:46Z</time></trkpt><trkpt lat="34.55987509381538" lon="-6.4558381579006925"><ele>14.0</ele><time>2026-04-28T13:27:47.001Z</time></trkpt><trkpt lat="34.560151661260775" lon="-6.455706101632171"><ele>14.0</ele><time>2026-04-28T13:27:48Z</time></trkpt><trkpt lat="34.560428812833344" lon="-6.455578329725923"><ele>13.5</ele><time>2026-04-28T13:27:49Z</time></trkpt><trkpt lat="34.560709058322175" lon="-6.45545698114533"><ele>13.0</ele><time>2026-04-28T13:27:50Z</time></trkpt><trkpt lat="34.56099175785303" lon="-6.455342306507598"><ele>15.0</ele><time>2026-04-28T13:27:51Z</time></trkpt><trkpt lat="34.561275732572824" lon="-6.455237484603071"><ele>17.0</ele><time>2026-04-28T13:27:52Z</time></trkpt><trkpt lat="34.56156223998468" lon="-6.455139788954402"><ele>17.0</ele><time>2026-04-28T13:27:53Z</time></trkpt><trkpt lat="34.56184328020119" lon="-6.455050031888545"><ele>17.0</ele><time>2026-04-28T13:27:54Z</time></trkpt><trkpt lat="34.56211731878169" lon="-6.454966510664411"><ele>16.5</ele><time>2026-04-28T13:27:55Z</time></trkpt><trkpt lat="34.562382631922134" lon="-6.454890530102644"><ele>16.0</ele><time>2026-04-28T13:27:56Z</time></trkpt><trkpt lat="34.562644222315186" lon="-6.45482214849777"><ele>17.5</ele><time>2026-04-28T13:27:57Z</time></trkpt><trkpt lat="34.56291547407045" lon="-6.454757285267359"><ele>19.0</ele><time>2026-04-28T13:27:58Z</time></trkpt><trkpt lat="34.563196663715786" lon="-6.454694009812211"><ele>19.0</ele><time>2026-04-28T13:27:59Z</time></trkpt><trkpt lat="34.56348328809878" lon="-6.454628001909415"><ele>19.0</ele><time>2026-04-28T13:28:00Z</time></trkpt><trkpt lat="34.563771179699984" lon="-6.4545609551719805"><ele>18.5</ele><time>2026-04-28T13:28:01Z</time></trkpt><trkpt lat="34.56405922205771" lon="-6.454492358263908"><ele>18.0</ele><time>2026-04-28T13:28:02Z</time></trkpt><trkpt lat="34.564349546198876" lon="-6.45441846810861"><ele>18.5</ele><time>2026-04-28T13:28:03Z</time></trkpt><trkpt lat="34.564639775905384" lon="-6.454347802708953"><ele>19.0</ele><time>2026-04-28T13:28:04Z</time></trkpt><trkpt lat="34.564933412323285" lon="-6.454280444295477"><ele>19.0</ele><time>2026-04-28T13:28:05Z</time></trkpt><trkpt lat="34.56522480645303" lon="-6.454213205552046"><ele>19.0</ele><time>2026-04-28T13:28:06Z</time></trkpt><trkpt lat="34.56551507117453" lon="-6.454145716194955"><ele>19.5</ele><time>2026-04-28T13:28:07Z</time></trkpt><trkpt lat="34.565806980338344" lon="-6.45407548530831"><ele>20.0</ele><time>2026-04-28T13:28:08Z</time></trkpt><trkpt lat="34.566100343859354" lon="-6.454005451763266"><ele>20.5</ele><time>2026-04-28T13:28:09Z</time></trkpt><trkpt lat="34.56639108126542" lon="-6.453933652315164"><ele>21.0</ele><time>2026-04-28T13:28:10Z</time></trkpt><trkpt lat="34.5666829428638" lon="-6.453857447775527"><ele>20.0</ele><time>2026-04-28T13:28:11Z</time></trkpt><trkpt lat="34.56697502348676" lon="-6.4537784185530915"><ele>19.0</ele><time>2026-04-28T13:28:12Z</time></trkpt><trkpt lat="34.567265103173874" lon="-6.4536952218086965"><ele>19.0</ele><time>2026-04-28T13:28:13Z</time></trkpt><trkpt lat="34.56755307629747" lon="-6.453606099323374"><ele>19.0</ele><time>2026-04-28T13:28:14Z</time></trkpt><trkpt lat="34.56784178044146" lon="-6.453513520907654"><ele>19.0</ele><time>2026-04-28T13:28:15Z</time></trkpt><trkpt lat="34.56812856702842" lon="-6.453414374289053"><ele>19.0</ele><time>2026-04-28T13:28:16Z</time></trkpt><trkpt lat="34.56841341019154" lon="-6.453309165378866"><ele>18.5</ele><time>2026-04-28T13:28:17Z</time></trkpt><trkpt lat="34.56869510100829" lon="-6.453197415195694"><ele>18.0</ele><time>2026-04-28T13:28:18Z</time></trkpt><trkpt lat="34.56897593982303" lon="-6.4530784456026895"><ele>18.0</ele><time>2026-04-28T13:28:19Z</time></trkpt><trkpt lat="34.56925573204438" lon="-6.4529560431866715"><ele>18.0</ele><time>2026-04-28T13:28:20Z</time></trkpt><trkpt lat="34.569534061641455" lon="-6.452829061079254"><ele>20.5</ele><time>2026-04-28T13:28:21Z</time></trkpt><trkpt lat="34.56981156389101" lon="-6.452697067457856"><ele>23.0</ele><time>2026-04-28T13:28:22Z</time></trkpt><trkpt lat="34.57008719612283" lon="-6.452561442829014"><ele>21.5</ele><time>2026-04-28T13:28:23Z</time></trkpt><trkpt lat="34.57036008841335" lon="-6.452419183780802"><ele>20.0</ele><time>2026-04-28T13:28:24Z</time></trkpt><trkpt lat="34.57063186266437" lon="-6.452273221913133"><ele>20.0</ele><time>2026-04-28T13:28:25Z</time></trkpt><trkpt lat="34.570903063406256" lon="-6.452125317169567"><ele>20.0</ele><time>2026-04-28T13:28:26Z</time></trkpt><trkpt lat="34.57117386545456" lon="-6.451975573281575"><ele>21.0</ele><time>2026-04-28T13:28:27Z</time></trkpt><trkpt lat="34.57144392395013" lon="-6.451821254786569"><ele>22.0</ele><time>2026-04-28T13:28:28Z</time></trkpt><trkpt lat="34.571712669242096" lon="-6.451666031370412"><ele>22.0</ele><time>2026-04-28T13:28:29Z</time></trkpt><trkpt lat="34.5719808665145" lon="-6.451507030184243"><ele>22.0</ele><time>2026-04-28T13:28:30Z</time></trkpt><trkpt lat="34.572248075574436" lon="-6.451348052770366"><ele>23.5</ele><time>2026-04-28T13:28:31Z</time></trkpt><trkpt lat="34.57251477493991" lon="-6.451186765188509"><ele>25.0</ele><time>2026-04-28T13:28:32Z</time></trkpt><trkpt lat="34.572779559519" lon="-6.451022427359432"><ele>25.0</ele><time>2026-04-28T13:28:33Z</time></trkpt><trkpt lat="34.573043018321485" lon="-6.450856743840123"><ele>25.0</ele><time>2026-04-28T13:28:34Z</time></trkpt><trkpt lat="34.57330611579377" lon="-6.4506903051789575"><ele>25.0</ele><time>2026-04-28T13:28:35Z</time></trkpt><trkpt lat="34.57356957827614" lon="-6.450521700573008"><ele>25.0</ele><time>2026-04-28T13:28:36Z</time></trkpt><trkpt lat="34.57383300750447" lon="-6.450354538887144"><ele>23.0</ele><time>2026-04-28T13:28:37Z</time></trkpt><trkpt lat="34.57409531469826" lon="-6.45018448166827"><ele>21.0</ele><time>2026-04-28T13:28:38.001Z</time></trkpt><trkpt lat="34.57435688861322" lon="-6.4500118803839825"><ele>23.5</ele><time>2026-04-28T13:28:39.001Z</time></trkpt><trkpt lat="34.57461916229796" lon="-6.449839565557892"><ele>26.0</ele><time>2026-04-28T13:28:40.001Z</time></trkpt><trkpt lat="34.57488134803072" lon="-6.44966915878082"><ele>24.5</ele><time>2026-04-28T13:28:41.001Z</time></trkpt><trkpt lat="34.575143824526954" lon="-6.449498568361452"><ele>23.0</ele><time>2026-04-28T13:28:42.001Z</time></trkpt><trkpt lat="34.57540495139731" lon="-6.449327614773527"><ele>23.0</ele><time>2026-04-28T13:28:43.001Z</time></trkpt><trkpt lat="34.575666433215" lon="-6.449156059077222"><ele>23.0</ele><time>2026-04-28T13:28:44.001Z</time></trkpt><trkpt lat="34.5759290904135" lon="-6.448983179605267"><ele>23.0</ele><time>2026-04-28T13:28:45.001Z</time></trkpt><trkpt lat="34.57619047308941" lon="-6.448808767213571"><ele>23.0</ele><time>2026-04-28T13:28:46.001Z</time></trkpt><trkpt lat="34.57645037885737" lon="-6.448632146455595"><ele>23.0</ele><time>2026-04-28T13:28:47.001Z</time></trkpt><trkpt lat="34.576712503773955" lon="-6.448454394611657"><ele>23.0</ele><time>2026-04-28T13:28:48.001Z</time></trkpt><trkpt lat="34.57697596984931" lon="-6.4482796418625705"><ele>24.0</ele><time>2026-04-28T13:28:49.001Z</time></trkpt><trkpt lat="34.577239845172485" lon="-6.448107226059781"><ele>25.0</ele><time>2026-04-28T13:28:50.001Z</time></trkpt><trkpt lat="34.57750196716882" lon="-6.447940890425717"><ele>25.0</ele><time>2026-04-28T13:28:51.001Z</time></trkpt><trkpt lat="34.57776773166212" lon="-6.447779121558716"><ele>25.0</ele><time>2026-04-28T13:28:52.001Z</time></trkpt><trkpt lat="34.57803706824837" lon="-6.447624297952602"><ele>27.0</ele><time>2026-04-28T13:28:53.001Z</time></trkpt><trkpt lat="34.578307115981985" lon="-6.447477208934924"><ele>29.0</ele><time>2026-04-28T13:28:54.001Z</time></trkpt><trkpt lat="34.57858063635355" lon="-6.447333606300132"><ele>29.5</ele><time>2026-04-28T13:28:55.001Z</time></trkpt><trkpt lat="34.57885650269311" lon="-6.447194148405333"><ele>30.0</ele><time>2026-04-28T13:28:56.001Z</time></trkpt><trkpt lat="34.579132128141275" lon="-6.447055420374028"><ele>29.5</ele><time>2026-04-28T13:28:57.001Z</time></trkpt><trkpt lat="34.579409787117925" lon="-6.446916907648898"><ele>29.0</ele><time>2026-04-28T13:28:58Z</time></trkpt><trkpt lat="34.579689317552244" lon="-6.446780959154301"><ele>29.0</ele><time>2026-04-28T13:28:59Z</time></trkpt><trkpt lat="34.57996891118203" lon="-6.446648419672916"><ele>29.0</ele><time>2026-04-28T13:29:00Z</time></trkpt><trkpt lat="34.580248399276364" lon="-6.446521057606036"><ele>29.0</ele><time>2026-04-28T13:29:01Z</time></trkpt><trkpt lat="34.58052991010433" lon="-6.446399115019981"><ele>29.0</ele><time>2026-04-28T13:29:02Z</time></trkpt><trkpt lat="34.58081060757642" lon="-6.446282040544409"><ele>28.0</ele><time>2026-04-28T13:29:03Z</time></trkpt><trkpt lat="34.581093782767965" lon="-6.4461698165780055"><ele>27.0</ele><time>2026-04-28T13:29:04Z</time></trkpt><trkpt lat="34.58137897192728" lon="-6.446060812690417"><ele>27.0</ele><time>2026-04-28T13:29:05Z</time></trkpt><trkpt lat="34.581665561281206" lon="-6.445957031676627"><ele>27.0</ele><time>2026-04-28T13:29:06Z</time></trkpt><trkpt lat="34.581953154496695" lon="-6.445857340276343"><ele>26.0</ele><time>2026-04-28T13:29:07Z</time></trkpt><trkpt lat="34.58224233776259" lon="-6.445762123667244"><ele>25.0</ele><time>2026-04-28T13:29:08Z</time></trkpt><trkpt lat="34.58253008608877" lon="-6.445670755235374"><ele>25.0</ele><time>2026-04-28T13:29:09Z</time></trkpt><trkpt lat="34.582818004616016" lon="-6.445582523621387"><ele>25.0</ele><time>2026-04-28T13:29:10Z</time></trkpt><trkpt lat="34.583105693062656" lon="-6.445496910524226"><ele>24.0</ele><time>2026-04-28T13:29:11Z</time></trkpt><trkpt lat="34.583394158586884" lon="-6.445410056316418"><ele>23.0</ele><time>2026-04-28T13:29:12Z</time></trkpt><trkpt lat="34.583682420291204" lon="-6.445320688057453"><ele>22.0</ele><time>2026-04-28T13:29:13Z</time></trkpt><trkpt lat="34.58396922203552" lon="-6.445228622889675"><ele>21.0</ele><time>2026-04-28T13:29:14Z</time></trkpt><trkpt lat="34.5842549076727" lon="-6.44513461174016"><ele>22.0</ele><time>2026-04-28T13:29:15Z</time></trkpt><trkpt lat="34.584540108535585" lon="-6.445040624501136"><ele>23.0</ele><time>2026-04-28T13:29:16Z</time></trkpt><trkpt lat="34.58482781565589" lon="-6.444949222131176"><ele>23.0</ele><time>2026-04-28T13:29:17Z</time></trkpt><trkpt lat="34.58511520869127" lon="-6.444857673939285"><ele>23.0</ele><time>2026-04-28T13:29:18Z</time></trkpt><trkpt lat="34.585401654153074" lon="-6.4447630851619095"><ele>23.5</ele><time>2026-04-28T13:29:19Z</time></trkpt><trkpt lat="34.58568760176556" lon="-6.444668744358125"><ele>24.0</ele><time>2026-04-28T13:29:20Z</time></trkpt><trkpt lat="34.585973206214696" lon="-6.444572193197638"><ele>23.0</ele><time>2026-04-28T13:29:21Z</time></trkpt><trkpt lat="34.58625794736564" lon="-6.444476713869515"><ele>22.0</ele><time>2026-04-28T13:29:22Z</time></trkpt><trkpt lat="34.58654382120316" lon="-6.444381885953867"><ele>22.0</ele><time>2026-04-28T13:29:23Z</time></trkpt><trkpt lat="34.58683035590668" lon="-6.444286062274656"><ele>22.0</ele><time>2026-04-28T13:29:24Z</time></trkpt><trkpt lat="34.58711602835508" lon="-6.4441857073483435"><ele>22.5</ele><time>2026-04-28T13:29:25Z</time></trkpt><trkpt lat="34.58740100509285" lon="-6.444079278671929"><ele>23.0</ele><time>2026-04-28T13:29:26Z</time></trkpt><trkpt lat="34.58768395957419" lon="-6.443965951719957"><ele>23.5</ele><time>2026-04-28T13:29:27Z</time></trkpt><trkpt lat="34.58796350766567" lon="-6.4438484047738"><ele>24.0</ele><time>2026-04-28T13:29:28Z</time></trkpt><trkpt lat="34.58824187620278" lon="-6.443724419705641"><ele>24.0</ele><time>2026-04-28T13:29:29Z</time></trkpt><trkpt lat="34.588518950065115" lon="-6.443598093467261"><ele>24.0</ele><time>2026-04-28T13:29:30Z</time></trkpt><trkpt lat="34.58879697367574" lon="-6.4434692157045115"><ele>24.0</ele><time>2026-04-28T13:29:31Z</time></trkpt><trkpt lat="34.589076331380575" lon="-6.443335790730294"><ele>24.0</ele><time>2026-04-28T13:29:32Z</time></trkpt><trkpt lat="34.589357368277184" lon="-6.44319074777295"><ele>24.0</ele><time>2026-04-28T13:29:33Z</time></trkpt><trkpt lat="34.589637001482814" lon="-6.443044522892341"><ele>24.0</ele><time>2026-04-28T13:29:34Z</time></trkpt><trkpt lat="34.5899020803433" lon="-6.4429289669786485"><ele>24.0</ele><time>2026-04-28T13:29:35Z</time></trkpt><trkpt lat="34.590168284857015" lon="-6.442795532340407"><ele>24.0</ele><time>2026-04-28T13:29:36Z</time></trkpt><trkpt lat="34.59043099355184" lon="-6.442660939150922"><ele>24.0</ele><time>2026-04-28T13:29:37Z</time></trkpt><trkpt lat="34.590688607694446" lon="-6.442525399361047"><ele>24.0</ele><time>2026-04-28T13:29:38Z</time></trkpt><trkpt lat="34.59096655013105" lon="-6.442324837472519"><ele>24.0</ele><time>2026-04-28T13:29:39Z</time></trkpt><trkpt lat="34.59123012118267" lon="-6.442152910557072"><ele>24.0</ele><time>2026-04-28T13:29:40Z</time></trkpt><trkpt lat="34.591492614074916" lon="-6.44198224700664"><ele>23.0</ele><time>2026-04-28T13:29:41Z</time></trkpt><trkpt lat="34.59175450592294" lon="-6.441809585348856"><ele>22.0</ele><time>2026-04-28T13:29:42Z</time></trkpt><trkpt lat="34.592018116314286" lon="-6.4416391895025615"><ele>21.5</ele><time>2026-04-28T13:29:43Z</time></trkpt><trkpt lat="34.592282424322235" lon="-6.441467726597853"><ele>21.0</ele><time>2026-04-28T13:29:44Z</time></trkpt><trkpt lat="34.59254269542116" lon="-6.44129634512894"><ele>21.5</ele><time>2026-04-28T13:29:45Z</time></trkpt><trkpt lat="34.59280645423035" lon="-6.441121490969124"><ele>22.0</ele><time>2026-04-28T13:29:46Z</time></trkpt><trkpt lat="34.59306922706258" lon="-6.440948412060284"><ele>22.0</ele><time>2026-04-28T13:29:47Z</time></trkpt><trkpt lat="34.59333231949072" lon="-6.4407766900960395"><ele>22.0</ele><time>2026-04-28T13:29:48Z</time></trkpt><trkpt lat="34.593596948200144" lon="-6.4406052063502015"><ele>21.0</ele><time>2026-04-28T13:29:49Z</time></trkpt><trkpt lat="34.59386042514077" lon="-6.440432400201208"><ele>20.0</ele><time>2026-04-28T13:29:50Z</time></trkpt><trkpt lat="34.594121491554546" lon="-6.440257972778475"><ele>20.0</ele><time>2026-04-28T13:29:51Z</time></trkpt><trkpt lat="34.59438207953496" lon="-6.4400825134095205"><ele>20.0</ele><time>2026-04-28T13:29:52Z</time></trkpt><trkpt lat="34.59464401874183" lon="-6.439907766812695"><ele>20.0</ele><time>2026-04-28T13:29:53Z</time></trkpt><trkpt lat="34.59490666542753" lon="-6.439736208917146"><ele>20.0</ele><time>2026-04-28T13:29:54Z</time></trkpt><trkpt lat="34.5951701949646" lon="-6.439564254658618"><ele>20.0</ele><time>2026-04-28T13:29:55Z</time></trkpt><trkpt lat="34.5954333480332" lon="-6.439392092789942"><ele>20.0</ele><time>2026-04-28T13:29:56Z</time></trkpt><trkpt lat="34.595695362588955" lon="-6.439220298486859"><ele>20.0</ele><time>2026-04-28T13:29:57Z</time></trkpt><trkpt lat="34.595957326874284" lon="-6.439047783913968"><ele>20.0</ele><time>2026-04-28T13:29:58Z</time></trkpt><trkpt lat="34.596219046524766" lon="-6.43887518895903"><ele>20.0</ele><time>2026-04-28T13:29:59Z</time></trkpt><trkpt lat="34.596481295337696" lon="-6.4387022674151355"><ele>20.0</ele><time>2026-04-28T13:30:00Z</time></trkpt><trkpt lat="34.596743977426065" lon="-6.438530014239386"><ele>20.0</ele><time>2026-04-28T13:30:01Z</time></trkpt><trkpt lat="34.597007427784845" lon="-6.43835792933992"><ele>20.0</ele><time>2026-04-28T13:30:02Z</time></trkpt><trkpt lat="34.59726944657047" lon="-6.438186400952483"><ele>20.0</ele><time>2026-04-28T13:30:03Z</time></trkpt><trkpt lat="34.59753080152382" lon="-6.438014160322835"><ele>20.0</ele><time>2026-04-28T13:30:04Z</time></trkpt><trkpt lat="34.597790493097214" lon="-6.437840499190741"><ele>20.5</ele><time>2026-04-28T13:30:05Z</time></trkpt><trkpt lat="34.59805094588258" lon="-6.43766477870145"><ele>21.0</ele><time>2026-04-28T13:30:06Z</time></trkpt><trkpt lat="34.598312695211426" lon="-6.437491219767146"><ele>21.0</ele><time>2026-04-28T13:30:07Z</time></trkpt><trkpt lat="34.59857480998235" lon="-6.437318536496061"><ele>21.0</ele><time>2026-04-28T13:30:08Z</time></trkpt><trkpt lat="34.59883653063029" lon="-6.437147104341217"><ele>21.0</ele><time>2026-04-28T13:30:09Z</time></trkpt><trkpt lat="34.59909837933113" lon="-6.43697460791115"><ele>21.0</ele><time>2026-04-28T13:30:10Z</time></trkpt><trkpt lat="34.59936034834491" lon="-6.4368019437340696"><ele>22.0</ele><time>2026-04-28T13:30:11Z</time></trkpt><trkpt lat="34.59962212425522" lon="-6.4366294364039085"><ele>23.0</ele><time>2026-04-28T13:30:12Z</time></trkpt><trkpt lat="34.599883902003576" lon="-6.436456603627318"><ele>22.5</ele><time>2026-04-28T13:30:13Z</time></trkpt><trkpt lat="34.60014652119778" lon="-6.436283814723845"><ele>22.0</ele><time>2026-04-28T13:30:14Z</time></trkpt><trkpt lat="34.600410260640395" lon="-6.436111343036259"><ele>22.0</ele><time>2026-04-28T13:30:15Z</time></trkpt><trkpt lat="34.60067342787132" lon="-6.435939345592194"><ele>22.0</ele><time>2026-04-28T13:30:16Z</time></trkpt><trkpt lat="34.60093627561482" lon="-6.435768271418186"><ele>21.5</ele><time>2026-04-28T13:30:17Z</time></trkpt><trkpt lat="34.601200090970906" lon="-6.4355988703866345"><ele>21.0</ele><time>2026-04-28T13:30:18Z</time></trkpt><trkpt lat="34.60146418322871" lon="-6.435432714225699"><ele>21.0</ele><time>2026-04-28T13:30:19Z</time></trkpt><trkpt lat="34.60173011394166" lon="-6.435264751797203"><ele>21.0</ele><time>2026-04-28T13:30:20Z</time></trkpt><trkpt lat="34.601995167510836" lon="-6.435096667417024"><ele>22.5</ele><time>2026-04-28T13:30:21Z</time></trkpt><trkpt lat="34.602260107042376" lon="-6.434926428663586"><ele>24.0</ele><time>2026-04-28T13:30:22Z</time></trkpt><trkpt lat="34.60252150320954" lon="-6.43475267334754"><ele>22.5</ele><time>2026-04-28T13:30:23Z</time></trkpt><trkpt lat="34.60278438633224" lon="-6.43458099205454"><ele>21.0</ele><time>2026-04-28T13:30:24Z</time></trkpt><trkpt lat="34.60304923995189" lon="-6.434416877099643"><ele>21.0</ele><time>2026-04-28T13:30:25Z</time></trkpt><trkpt lat="34.603316002169336" lon="-6.434261229420127"><ele>21.0</ele><time>2026-04-28T13:30:26Z</time></trkpt><trkpt lat="34.60358565037171" lon="-6.434109050079603"><ele>21.0</ele><time>2026-04-28T13:30:27Z</time></trkpt><trkpt lat="34.6038568829154" lon="-6.433962187178494"><ele>21.0</ele><time>2026-04-28T13:30:28Z</time></trkpt><trkpt lat="34.60412833458189" lon="-6.43382024911138"><ele>21.0</ele><time>2026-04-28T13:30:29Z</time></trkpt><trkpt lat="34.60440182179982" lon="-6.433681467573841"><ele>21.0</ele><time>2026-04-28T13:30:30Z</time></trkpt><trkpt lat="34.60467790672444" lon="-6.433547010907205"><ele>21.0</ele><time>2026-04-28T13:30:31Z</time></trkpt><trkpt lat="34.604955972727836" lon="-6.433418012790943"><ele>21.0</ele><time>2026-04-28T13:30:32Z</time></trkpt><trkpt lat="34.60523703687868" lon="-6.433296394196285"><ele>21.5</ele><time>2026-04-28T13:30:33Z</time></trkpt><trkpt lat="34.605518031481544" lon="-6.433182533987048"><ele>22.0</ele><time>2026-04-28T13:30:34Z</time></trkpt><trkpt lat="34.60580250975337" lon="-6.433073460297932"><ele>22.0</ele><time>2026-04-28T13:30:35Z</time></trkpt><trkpt lat="34.60608806065545" lon="-6.432970710386552"><ele>22.0</ele><time>2026-04-28T13:30:36Z</time></trkpt><trkpt lat="34.60637355292023" lon="-6.432870700739769"><ele>22.0</ele><time>2026-04-28T13:30:37Z</time></trkpt><trkpt lat="34.60665813076409" lon="-6.432772143080934"><ele>22.0</ele><time>2026-04-28T13:30:38Z</time></trkpt><trkpt lat="34.606944491607" lon="-6.4326772744884835"><ele>21.5</ele><time>2026-04-28T13:30:39Z</time></trkpt><trkpt lat="34.60723318812604" lon="-6.432585869680556"><ele>21.0</ele><time>2026-04-28T13:30:40Z</time></trkpt><trkpt lat="34.60752140845636" lon="-6.43249707635346"><ele>21.0</ele><time>2026-04-28T13:30:41Z</time></trkpt><trkpt lat="34.60781043496924" lon="-6.432407695603154"><ele>21.0</ele><time>2026-04-28T13:30:42Z</time></trkpt><trkpt lat="34.608099231599375" lon="-6.432318673869607"><ele>21.0</ele><time>2026-04-28T13:30:43Z</time></trkpt><trkpt lat="34.60838687935554" lon="-6.432228640443835"><ele>21.0</ele><time>2026-04-28T13:30:44.001Z</time></trkpt><trkpt lat="34.60867516862098" lon="-6.432137306761184"><ele>21.0</ele><time>2026-04-28T13:30:45.001Z</time></trkpt><trkpt lat="34.60896271032547" lon="-6.432046705730948"><ele>21.0</ele><time>2026-04-28T13:30:46.001Z</time></trkpt><trkpt lat="34.609249346316616" lon="-6.43195105499197"><ele>21.5</ele><time>2026-04-28T13:30:47.001Z</time></trkpt><trkpt lat="34.609535763921016" lon="-6.431852021914688"><ele>22.0</ele><time>2026-04-28T13:30:48.001Z</time></trkpt><trkpt lat="34.60981990059875" lon="-6.431749126867913"><ele>22.0</ele><time>2026-04-28T13:30:49.001Z</time></trkpt><trkpt lat="34.61010454752828" lon="-6.431642443616197"><ele>22.0</ele><time>2026-04-28T13:30:50.001Z</time></trkpt><trkpt lat="34.61039093558537" lon="-6.431537351082207"><ele>22.5</ele><time>2026-04-28T13:30:51.001Z</time></trkpt><trkpt lat="34.61067723900916" lon="-6.431436710509768"><ele>23.0</ele><time>2026-04-28T13:30:52.001Z</time></trkpt><trkpt lat="34.61096238201222" lon="-6.431333642573243"><ele>22.0</ele><time>2026-04-28T13:30:53.001Z</time></trkpt><trkpt lat="34.61124573681496" lon="-6.431223644701665"><ele>21.0</ele><time>2026-04-28T13:30:54.001Z</time></trkpt><trkpt lat="34.61152662220886" lon="-6.431104662133638"><ele>21.0</ele><time>2026-04-28T13:30:55.001Z</time></trkpt><trkpt lat="34.611807453626696" lon="-6.430980118172714"><ele>21.0</ele><time>2026-04-28T13:30:56.001Z</time></trkpt><trkpt lat="34.61208646809299" lon="-6.430853245054246"><ele>22.0</ele><time>2026-04-28T13:30:57.001Z</time></trkpt><trkpt lat="34.61236378133895" lon="-6.430720659401936"><ele>23.0</ele><time>2026-04-28T13:30:58.001Z</time></trkpt><trkpt lat="34.6126395921966" lon="-6.430584887723204"><ele>22.5</ele><time>2026-04-28T13:30:59.001Z</time></trkpt><trkpt lat="34.612913984502775" lon="-6.4304444103712965"><ele>22.0</ele><time>2026-04-28T13:31:00.001Z</time></trkpt><trkpt lat="34.613185141847154" lon="-6.4302962292864"><ele>22.0</ele><time>2026-04-28T13:31:01.001Z</time></trkpt><trkpt lat="34.61345318007283" lon="-6.4301381151132055"><ele>22.0</ele><time>2026-04-28T13:31:02.001Z</time></trkpt><trkpt lat="34.61371945841287" lon="-6.429974883385391"><ele>22.0</ele><time>2026-04-28T13:31:03.001Z</time></trkpt><trkpt lat="34.61398483789505" lon="-6.42980802980783"><ele>22.0</ele><time>2026-04-28T13:31:04.001Z</time></trkpt><trkpt lat="34.61424690952436" lon="-6.429637461886658"><ele>20.5</ele><time>2026-04-28T13:31:05.001Z</time></trkpt><trkpt lat="34.614508378532406" lon="-6.42946260750553"><ele>19.0</ele><time>2026-04-28T13:31:06.001Z</time></trkpt><trkpt lat="34.614768413570204" lon="-6.429283274158925"><ele>19.0</ele><time>2026-04-28T13:31:07.001Z</time></trkpt><trkpt lat="34.615023602872924" lon="-6.429096930567143"><ele>19.0</ele><time>2026-04-28T13:31:08Z</time></trkpt><trkpt lat="34.61527457511354" lon="-6.428902476228052"><ele>19.5</ele><time>2026-04-28T13:31:09Z</time></trkpt><trkpt lat="34.615523629477934" lon="-6.428704940700713"><ele>20.0</ele><time>2026-04-28T13:31:10Z</time></trkpt><trkpt lat="34.61576953748348" lon="-6.4285010996756045"><ele>20.0</ele><time>2026-04-28T13:31:11Z</time></trkpt><trkpt lat="34.61601259637924" lon="-6.428292999930791"><ele>20.0</ele><time>2026-04-28T13:31:12Z</time></trkpt><trkpt lat="34.61625668964407" lon="-6.4280851904808785"><ele>20.5</ele><time>2026-04-28T13:31:13Z</time></trkpt><trkpt lat="34.61649887761538" lon="-6.427876848745474"><ele>21.0</ele><time>2026-04-28T13:31:14Z</time></trkpt><trkpt lat="34.616735607845904" lon="-6.427659068716138"><ele>21.0</ele><time>2026-04-28T13:31:15Z</time></trkpt><trkpt lat="34.616968687975465" lon="-6.427435894135383"><ele>21.0</ele><time>2026-04-28T13:31:16Z</time></trkpt><trkpt lat="34.61719979637734" lon="-6.427207280011023"><ele>21.0</ele><time>2026-04-28T13:31:17Z</time></trkpt><trkpt lat="34.6174314571534" lon="-6.426978554576117"><ele>21.0</ele><time>2026-04-28T13:31:18Z</time></trkpt><trkpt lat="34.61766333025171" lon="-6.426751099984719"><ele>21.0</ele><time>2026-04-28T13:31:19Z</time></trkpt><trkpt lat="34.61789666713523" lon="-6.426525259867591"><ele>21.0</ele><time>2026-04-28T13:31:20Z</time></trkpt><trkpt lat="34.61813125890507" lon="-6.426300861328998"><ele>21.0</ele><time>2026-04-28T13:31:21Z</time></trkpt><trkpt lat="34.618366081679625" lon="-6.426076227382733"><ele>21.0</ele><time>2026-04-28T13:31:22Z</time></trkpt><trkpt lat="34.61860090169236" lon="-6.4258525447753305"><ele>21.5</ele><time>2026-04-28T13:31:23Z</time></trkpt><trkpt lat="34.618835777543005" lon="-6.425630248976763"><ele>22.0</ele><time>2026-04-28T13:31:24Z</time></trkpt><trkpt lat="34.61907313279091" lon="-6.425411279484347"><ele>22.0</ele><time>2026-04-28T13:31:25Z</time></trkpt><trkpt lat="34.61931229698808" lon="-6.42519867581294"><ele>22.0</ele><time>2026-04-28T13:31:26Z</time></trkpt><trkpt lat="34.61955445322688" lon="-6.424992347658364"><ele>22.0</ele><time>2026-04-28T13:31:27Z</time></trkpt><trkpt lat="34.6197990168564" lon="-6.424791581811055"><ele>22.0</ele><time>2026-04-28T13:31:28Z</time></trkpt><trkpt lat="34.62004638506653" lon="-6.4245920038796545"><ele>22.0</ele><time>2026-04-28T13:31:29Z</time></trkpt><trkpt lat="34.62029609370136" lon="-6.4243944324550535"><ele>22.0</ele><time>2026-04-28T13:31:30Z</time></trkpt><trkpt lat="34.62054875924645" lon="-6.424199665739846"><ele>22.0</ele><time>2026-04-28T13:31:31Z</time></trkpt><trkpt lat="34.62080264183272" lon="-6.424008181626248"><ele>22.0</ele><time>2026-04-28T13:31:32Z</time></trkpt><trkpt lat="34.621058980241344" lon="-6.4238207309348345"><ele>21.0</ele><time>2026-04-28T13:31:33Z</time></trkpt><trkpt lat="34.62131588675074" lon="-6.423637258524407"><ele>20.0</ele><time>2026-04-28T13:31:34Z</time></trkpt><trkpt lat="34.62157185646099" lon="-6.423460455873137"><ele>20.0</ele><time>2026-04-28T13:31:35Z</time></trkpt><trkpt lat="34.62182394299057" lon="-6.423291217865959"><ele>20.0</ele><time>2026-04-28T13:31:36Z</time></trkpt><trkpt lat="34.62207297038932" lon="-6.423132228903584"><ele>20.0</ele><time>2026-04-28T13:31:37Z</time></trkpt><trkpt lat="34.62231541253139" lon="-6.422981801863763"><ele>20.0</ele><time>2026-04-28T13:31:38Z</time></trkpt><trkpt lat="34.62255203988418" lon="-6.422835969282428"><ele>20.0</ele><time>2026-04-28T13:31:39Z</time></trkpt><trkpt lat="34.62278259927701" lon="-6.422692978130597"><ele>20.0</ele><time>2026-04-28T13:31:40Z</time></trkpt><trkpt lat="34.62300647779598" lon="-6.4225515610925985"><ele>19.5</ele><time>2026-04-28T13:31:41Z</time></trkpt><trkpt lat="34.62322486065186" lon="-6.422414317169306"><ele>19.0</ele><time>2026-04-28T13:31:42Z</time></trkpt><trkpt lat="34.62344001530561" lon="-6.42228294555907"><ele>19.0</ele><time>2026-04-28T13:31:43Z</time></trkpt><trkpt lat="34.62365151261215" lon="-6.42215333668559"><ele>19.0</ele><time>2026-04-28T13:31:44Z</time></trkpt><trkpt lat="34.623858421898866" lon="-6.42202488799098"><ele>19.0</ele><time>2026-04-28T13:31:45Z</time></trkpt><trkpt lat="34.62406259588462" lon="-6.421897767902233"><ele>19.0</ele><time>2026-04-28T13:31:46Z</time></trkpt><trkpt lat="34.62426110653907" lon="-6.421771573781321"><ele>19.0</ele><time>2026-04-28T13:31:47Z</time></trkpt><trkpt lat="34.624457816750336" lon="-6.421647308217806"><ele>19.0</ele><time>2026-04-28T13:31:48Z</time></trkpt><trkpt lat="34.62465042300162" lon="-6.421526022546236"><ele>19.0</ele><time>2026-04-28T13:31:49Z</time></trkpt><trkpt lat="34.624841638930796" lon="-6.421405435881642"><ele>19.0</ele><time>2026-04-28T13:31:50Z</time></trkpt><trkpt lat="34.62502960660804" lon="-6.42128406298207"><ele>19.0</ele><time>2026-04-28T13:31:51Z</time></trkpt><trkpt lat="34.625214148874264" lon="-6.42116021341591"><ele>19.0</ele><time>2026-04-28T13:31:52Z</time></trkpt><trkpt lat="34.62539708914085" lon="-6.421033561219168"><ele>19.0</ele><time>2026-04-28T13:31:53Z</time></trkpt><trkpt lat="34.62557808108982" lon="-6.420902779959909"><ele>19.0</ele><time>2026-04-28T13:31:54Z</time></trkpt><trkpt lat="34.62575846974931" lon="-6.420771091385326"><ele>19.0</ele><time>2026-04-28T13:31:55Z</time></trkpt><trkpt lat="34.62593892823971" lon="-6.420637606572036"><ele>19.0</ele><time>2026-04-28T13:31:56Z</time></trkpt><trkpt lat="34.6261187677159" lon="-6.420502737834402"><ele>19.0</ele><time>2026-04-28T13:31:57Z</time></trkpt><trkpt lat="34.626296613905" lon="-6.420365679643649"><ele>19.0</ele><time>2026-04-28T13:31:58Z</time></trkpt><trkpt lat="34.6264697485098" lon="-6.420223656959003"><ele>19.666666666666664</ele><time>2026-04-28T13:31:59Z</time></trkpt><trkpt lat="34.62664404728832" lon="-6.420077878449584"><ele>20.333333333333332</ele><time>2026-04-28T13:32:00Z</time></trkpt><trkpt lat="34.62681655873807" lon="-6.419928651196812"><ele>21.0</ele><time>2026-04-28T13:32:01Z</time></trkpt><trkpt lat="34.62698957257366" lon="-6.419778626693898"><ele>21.666666666666668</ele><time>2026-04-28T13:32:02Z</time></trkpt><trkpt lat="34.62715795643528" lon="-6.41962309460635"><ele>22.333333333333336</ele><time>2026-04-28T13:32:03Z</time></trkpt><trkpt lat="34.62732612104723" lon="-6.419466203492829"><ele>23.0</ele><time>2026-04-28T13:32:04Z</time></trkpt><trkpt lat="34.62749321880616" lon="-6.419308875042249"><ele>23.0</ele><time>2026-04-28T13:32:05Z</time></trkpt><trkpt lat="34.62766030508445" lon="-6.419150783984841"><ele>23.0</ele><time>2026-04-28T13:32:06Z</time></trkpt><trkpt lat="34.6278257166222" lon="-6.418990875489802"><ele>23.0</ele><time>2026-04-28T13:32:07Z</time></trkpt><trkpt lat="34.62798646412377" lon="-6.418829734378697"><ele>22.666666666666668</ele><time>2026-04-28T13:32:08Z</time></trkpt><trkpt lat="34.628142276539776" lon="-6.4186585790742"><ele>22.333333333333332</ele><time>2026-04-28T13:32:09Z</time></trkpt><trkpt lat="34.628299474609626" lon="-6.418486437294943"><ele>22.0</ele><time>2026-04-28T13:32:10Z</time></trkpt><trkpt lat="34.62845539296328" lon="-6.418313353805379"><ele>22.0</ele><time>2026-04-28T13:32:11Z</time></trkpt><trkpt lat="34.62861232252368" lon="-6.418139492189322"><ele>22.0</ele><time>2026-04-28T13:32:12Z</time></trkpt><trkpt lat="34.62876750936382" lon="-6.417966342667964"><ele>22.0</ele><time>2026-04-28T13:32:13Z</time></trkpt><trkpt lat="34.62892120395372" lon="-6.417791762239169"><ele>22.0</ele><time>2026-04-28T13:32:14Z</time></trkpt><trkpt lat="34.6290727825549" lon="-6.4176147049355405"><ele>22.0</ele><time>2026-04-28T13:32:15Z</time></trkpt><trkpt lat="34.62922343190462" lon="-6.417437400250445"><ele>22.0</ele><time>2026-04-28T13:32:16Z</time></trkpt><trkpt lat="34.62937533058084" lon="-6.417260115757484"><ele>22.0</ele><time>2026-04-28T13:32:17Z</time></trkpt><trkpt lat="34.629530586435784" lon="-6.41708406251973"><ele>22.0</ele><time>2026-04-28T13:32:18Z</time></trkpt><trkpt lat="34.62968590794725" lon="-6.416909177478831"><ele>22.0</ele><time>2026-04-28T13:32:19Z</time></trkpt><trkpt lat="34.6298409512506" lon="-6.4167311264049465"><ele>22.0</ele><time>2026-04-28T13:32:20Z</time></trkpt><trkpt lat="34.62999697751972" lon="-6.416553383709739"><ele>22.0</ele><time>2026-04-28T13:32:21Z</time></trkpt><trkpt lat="34.63015272943313" lon="-6.416374665980238"><ele>22.0</ele><time>2026-04-28T13:32:22Z</time></trkpt><trkpt lat="34.6303089053205" lon="-6.416195006650439"><ele>22.5</ele><time>2026-04-28T13:32:23Z</time></trkpt><trkpt lat="34.630469750235" lon="-6.416010873485894"><ele>23.0</ele><time>2026-04-28T13:32:24Z</time></trkpt><trkpt lat="34.63064412961193" lon="-6.415819292969872"><ele>23.0</ele><time>2026-04-28T13:32:25Z</time></trkpt><trkpt lat="34.630824691655654" lon="-6.4156251950198016"><ele>23.0</ele><time>2026-04-28T13:32:26Z</time></trkpt><trkpt lat="34.630997365930476" lon="-6.4154278576143655"><ele>23.0</ele><time>2026-04-28T13:32:27Z</time></trkpt><trkpt lat="34.63116386035307" lon="-6.415238134447564"><ele>23.0</ele><time>2026-04-28T13:32:28Z</time></trkpt><trkpt lat="34.631324183950426" lon="-6.415055032940835"><ele>23.0</ele><time>2026-04-28T13:32:29Z</time></trkpt><trkpt lat="34.63148258738329" lon="-6.414876020508672"><ele>23.0</ele><time>2026-04-28T13:32:30Z</time></trkpt><trkpt lat="34.63163918656288" lon="-6.414702014867941"><ele>23.0</ele><time>2026-04-28T13:32:31Z</time></trkpt><trkpt lat="34.63179496652648" lon="-6.414532327988355"><ele>23.0</ele><time>2026-04-28T13:32:32Z</time></trkpt><trkpt lat="34.631952014033075" lon="-6.41437098478714"><ele>24.0</ele><time>2026-04-28T13:32:33Z</time></trkpt><trkpt lat="34.63210901330607" lon="-6.4142123145806895"><ele>25.0</ele><time>2026-04-28T13:32:34Z</time></trkpt><trkpt lat="34.632267403981224" lon="-6.414055588300158"><ele>26.0</ele><time>2026-04-28T13:32:35Z</time></trkpt><trkpt lat="34.63242814679847" lon="-6.413903351748379"><ele>25.666666666666664</ele><time>2026-04-28T13:32:36Z</time></trkpt><trkpt lat="34.63258973236037" lon="-6.413753934637988"><ele>25.333333333333336</ele><time>2026-04-28T13:32:37Z</time></trkpt><trkpt lat="34.63275319307197" lon="-6.413604750992857"><ele>25.0</ele><time>2026-04-28T13:32:38Z</time></trkpt><trkpt lat="34.63291719247114" lon="-6.413456279836427"><ele>25.0</ele><time>2026-04-28T13:32:39Z</time></trkpt><trkpt lat="34.63308272809624" lon="-6.413309974062968"><ele>25.0</ele><time>2026-04-28T13:32:40Z</time></trkpt><trkpt lat="34.63325286202215" lon="-6.413167069319946"><ele>25.0</ele><time>2026-04-28T13:32:41Z</time></trkpt><trkpt lat="34.6334251160871" lon="-6.413025873213362"><ele>25.0</ele><time>2026-04-28T13:32:42Z</time></trkpt><trkpt lat="34.63359771206154" lon="-6.412883270498722"><ele>25.0</ele><time>2026-04-28T13:32:43Z</time></trkpt><trkpt lat="34.63377411761361" lon="-6.412739500640198"><ele>25.0</ele><time>2026-04-28T13:32:44Z</time></trkpt><trkpt lat="34.63395621989039" lon="-6.412595835870329"><ele>25.0</ele><time>2026-04-28T13:32:45Z</time></trkpt><trkpt lat="34.63414271870128" lon="-6.412453101153081"><ele>25.0</ele><time>2026-04-28T13:32:46Z</time></trkpt><trkpt lat="34.6343358719437" lon="-6.412311810273015"><ele>25.0</ele><time>2026-04-28T13:32:47Z</time></trkpt><trkpt lat="34.63453507620797" lon="-6.412172741035377"><ele>24.5</ele><time>2026-04-28T13:32:48Z</time></trkpt><trkpt lat="34.6347397633271" lon="-6.412033842215149"><ele>24.0</ele><time>2026-04-28T13:32:49Z</time></trkpt><trkpt lat="34.63494720035352" lon="-6.411892672461228"><ele>24.0</ele><time>2026-04-28T13:32:50.001Z</time></trkpt><trkpt lat="34.63515531946818" lon="-6.411752322929931"><ele>24.0</ele><time>2026-04-28T13:32:51.001Z</time></trkpt><trkpt lat="34.635365611023616" lon="-6.411614099558934"><ele>25.0</ele><time>2026-04-28T13:32:52.001Z</time></trkpt><trkpt lat="34.635577770365046" lon="-6.411482379419012"><ele>26.0</ele><time>2026-04-28T13:32:53.001Z</time></trkpt><trkpt lat="34.6357927628651" lon="-6.411354261291917"><ele>24.0</ele><time>2026-04-28T13:32:54.001Z</time></trkpt><trkpt lat="34.636011928758904" lon="-6.41122929517382"><ele>22.0</ele><time>2026-04-28T13:32:55.001Z</time></trkpt><trkpt lat="34.63623440874884" lon="-6.41110862122957"><ele>22.0</ele><time>2026-04-28T13:32:56.001Z</time></trkpt><trkpt lat="34.636456722003174" lon="-6.410992094069017"><ele>22.0</ele><time>2026-04-28T13:32:57.001Z</time></trkpt><trkpt lat="34.636680427102434" lon="-6.410877224592289"><ele>22.0</ele><time>2026-04-28T13:32:58.001Z</time></trkpt><trkpt lat="34.63690587102739" lon="-6.410764384567987"><ele>22.0</ele><time>2026-04-28T13:32:59.001Z</time></trkpt><trkpt lat="34.63713181596918" lon="-6.41065793147735"><ele>22.0</ele><time>2026-04-28T13:33:00.001Z</time></trkpt><trkpt lat="34.63736011705959" lon="-6.410555375030394"><ele>22.0</ele><time>2026-04-28T13:33:01.001Z</time></trkpt><trkpt lat="34.63758908664849" lon="-6.410456221485615"><ele>21.0</ele><time>2026-04-28T13:33:02.001Z</time></trkpt><trkpt lat="34.63781846582546" lon="-6.41036146660368"><ele>20.0</ele><time>2026-04-28T13:33:03.001Z</time></trkpt><trkpt lat="34.638049524743" lon="-6.410261643502739"><ele>20.0</ele><time>2026-04-28T13:33:04.001Z</time></trkpt><trkpt lat="34.63828180233241" lon="-6.410164911460319"><ele>20.0</ele><time>2026-04-28T13:33:05.001Z</time></trkpt><trkpt lat="34.63851652326053" lon="-6.410071983750736"><ele>20.0</ele><time>2026-04-28T13:33:06.001Z</time></trkpt><trkpt lat="34.63875266701054" lon="-6.4099773300477825"><ele>20.0</ele><time>2026-04-28T13:33:07.001Z</time></trkpt><trkpt lat="34.63899079996076" lon="-6.409878314642883"><ele>20.0</ele><time>2026-04-28T13:33:08.001Z</time></trkpt><trkpt lat="34.63922985922923" lon="-6.409779118551811"><ele>20.0</ele><time>2026-04-28T13:33:09.001Z</time></trkpt><trkpt lat="34.63947120572443" lon="-6.409678243705417"><ele>19.0</ele><time>2026-04-28T13:33:10.001Z</time></trkpt><trkpt lat="34.63971599898414" lon="-6.409576446407064"><ele>18.0</ele><time>2026-04-28T13:33:11.001Z</time></trkpt><trkpt lat="34.63996207649039" lon="-6.409475022297033"><ele>18.0</ele><time>2026-04-28T13:33:12Z</time></trkpt><trkpt lat="34.64021077159264" lon="-6.40937178941093"><ele>18.0</ele><time>2026-04-28T13:33:13Z</time></trkpt><trkpt lat="34.64045774748339" lon="-6.409264179757109"><ele>19.5</ele><time>2026-04-28T13:33:14Z</time></trkpt><trkpt lat="34.640702180574785" lon="-6.409152338989858"><ele>21.0</ele><time>2026-04-28T13:33:15Z</time></trkpt><trkpt lat="34.6409410832678" lon="-6.409042048361679"><ele>20.5</ele><time>2026-04-28T13:33:16Z</time></trkpt><trkpt lat="34.641174631854" lon="-6.408930954342952"><ele>20.0</ele><time>2026-04-28T13:33:17Z</time></trkpt><trkpt lat="34.64140181745583" lon="-6.408815658015083"><ele>20.0</ele><time>2026-04-28T13:33:18Z</time></trkpt><trkpt lat="34.64162356650248" lon="-6.408698912374106"><ele>20.0</ele><time>2026-04-28T13:33:19Z</time></trkpt><trkpt lat="34.6418395607858" lon="-6.40858123239073"><ele>20.5</ele><time>2026-04-28T13:33:20Z</time></trkpt><trkpt lat="34.64205348905495" lon="-6.408460907550685"><ele>21.0</ele><time>2026-04-28T13:33:21Z</time></trkpt><trkpt lat="34.64226547067408" lon="-6.408338939837831"><ele>21.0</ele><time>2026-04-28T13:33:22Z</time></trkpt><trkpt lat="34.64247404470664" lon="-6.408212351296221"><ele>21.0</ele><time>2026-04-28T13:33:23Z</time></trkpt><trkpt lat="34.64267905109003" lon="-6.408080372253975"><ele>21.0</ele><time>2026-04-28T13:33:24Z</time></trkpt><trkpt lat="34.64288335033953" lon="-6.407949588090441"><ele>21.0</ele><time>2026-04-28T13:33:25Z</time></trkpt><trkpt lat="34.64308646938022" lon="-6.407817760325411"><ele>21.0</ele><time>2026-04-28T13:33:26Z</time></trkpt><trkpt lat="34.64328919377582" lon="-6.407681393665546"><ele>21.0</ele><time>2026-04-28T13:33:27Z</time></trkpt><trkpt lat="34.6434947032688" lon="-6.407542742370185"><ele>22.0</ele><time>2026-04-28T13:33:28Z</time></trkpt><trkpt lat="34.643700280543634" lon="-6.4073992378831415"><ele>23.0</ele><time>2026-04-28T13:33:29Z</time></trkpt><trkpt lat="34.64390456969489" lon="-6.4072472351771745"><ele>22.0</ele><time>2026-04-28T13:33:30Z</time></trkpt><trkpt lat="34.64411013807385" lon="-6.407089368153515"><ele>21.0</ele><time>2026-04-28T13:33:31Z</time></trkpt><trkpt lat="34.64431775665445" lon="-6.406925511702485"><ele>22.0</ele><time>2026-04-28T13:33:32Z</time></trkpt><trkpt lat="34.64452376555976" lon="-6.406751506054919"><ele>23.0</ele><time>2026-04-28T13:33:33Z</time></trkpt><trkpt lat="34.644729129069475" lon="-6.406570679240328"><ele>23.0</ele><time>2026-04-28T13:33:34Z</time></trkpt><trkpt lat="34.64493868691673" lon="-6.406384858264562"><ele>23.0</ele><time>2026-04-28T13:33:35Z</time></trkpt><trkpt lat="34.645148560250796" lon="-6.406196610176796"><ele>22.5</ele><time>2026-04-28T13:33:36Z</time></trkpt><trkpt lat="34.64536066459486" lon="-6.406007881065113"><ele>22.0</ele><time>2026-04-28T13:33:37Z</time></trkpt><trkpt lat="34.64557519660052" lon="-6.405816889178361"><ele>22.0</ele><time>2026-04-28T13:33:38Z</time></trkpt><trkpt lat="34.645788991422606" lon="-6.40562483173772"><ele>22.0</ele><time>2026-04-28T13:33:39Z</time></trkpt><trkpt lat="34.64600216150548" lon="-6.405434802060362"><ele>23.5</ele><time>2026-04-28T13:33:40Z</time></trkpt><trkpt lat="34.6462158702599" lon="-6.405246544133861"><ele>25.0</ele><time>2026-04-28T13:33:41Z</time></trkpt><trkpt lat="34.6464296700326" lon="-6.405056621178923"><ele>25.0</ele><time>2026-04-28T13:33:42Z</time></trkpt><trkpt lat="34.64664316591834" lon="-6.404865952193446"><ele>25.0</ele><time>2026-04-28T13:33:43Z</time></trkpt><trkpt lat="34.64685795133867" lon="-6.404673173283296"><ele>24.5</ele><time>2026-04-28T13:33:44Z</time></trkpt><trkpt lat="34.64707104150867" lon="-6.40448016460518"><ele>24.0</ele><time>2026-04-28T13:33:45Z</time></trkpt><trkpt lat="34.64728250325851" lon="-6.404285754808948"><ele>24.0</ele><time>2026-04-28T13:33:46Z</time></trkpt><trkpt lat="34.647492945327635" lon="-6.404092266867807"><ele>24.0</ele><time>2026-04-28T13:33:47Z</time></trkpt><trkpt lat="34.64770077481151" lon="-6.403900895957935"><ele>23.5</ele><time>2026-04-28T13:33:48Z</time></trkpt><trkpt lat="34.64790080398206" lon="-6.403717173699248"><ele>23.0</ele><time>2026-04-28T13:33:49Z</time></trkpt><trkpt lat="34.648093188876004" lon="-6.403545304476425"><ele>23.0</ele><time>2026-04-28T13:33:50Z</time></trkpt><trkpt lat="34.64828176979294" lon="-6.40337969979133"><ele>23.0</ele><time>2026-04-28T13:33:51Z</time></trkpt><trkpt lat="34.64846930894286" lon="-6.403225128599775"><ele>22.5</ele><time>2026-04-28T13:33:52Z</time></trkpt><trkpt lat="34.648659366246875" lon="-6.403075871765618"><ele>22.0</ele><time>2026-04-28T13:33:53Z</time></trkpt><trkpt lat="34.648850249391636" lon="-6.402924373266836"><ele>22.0</ele><time>2026-04-28T13:33:54Z</time></trkpt><trkpt lat="34.64904374040443" lon="-6.402771137079788"><ele>22.0</ele><time>2026-04-28T13:33:55Z</time></trkpt><trkpt lat="34.64924267860571" lon="-6.402617593856468"><ele>22.0</ele><time>2026-04-28T13:33:56Z</time></trkpt><trkpt lat="34.64944553466652" lon="-6.402463253382228"><ele>22.0</ele><time>2026-04-28T13:33:57Z</time></trkpt><trkpt lat="34.649648866847436" lon="-6.402308786341101"><ele>21.0</ele><time>2026-04-28T13:33:58Z</time></trkpt><trkpt lat="34.64985757670561" lon="-6.402155556990011"><ele>20.0</ele><time>2026-04-28T13:33:59Z</time></trkpt><trkpt lat="34.65007080541604" lon="-6.402005086452901"><ele>20.0</ele><time>2026-04-28T13:34:00Z</time></trkpt><trkpt lat="34.650284995314095" lon="-6.4018585902326395"><ele>20.0</ele><time>2026-04-28T13:34:01Z</time></trkpt><trkpt lat="34.65049957024727" lon="-6.401714228714779"><ele>21.0</ele><time>2026-04-28T13:34:02Z</time></trkpt><trkpt lat="34.65071483368443" lon="-6.401571165763354"><ele>22.0</ele><time>2026-04-28T13:34:03Z</time></trkpt><trkpt lat="34.65093086381112" lon="-6.401432751088601"><ele>20.5</ele><time>2026-04-28T13:34:04Z</time></trkpt><trkpt lat="34.65114653950625" lon="-6.401301175247667"><ele>19.0</ele><time>2026-04-28T13:34:05Z</time></trkpt><trkpt lat="34.65136251066687" lon="-6.401176679890373"><ele>19.0</ele><time>2026-04-28T13:34:06Z</time></trkpt><trkpt lat="34.65157751194727" lon="-6.401055681935303"><ele>19.0</ele><time>2026-04-28T13:34:07Z</time></trkpt><trkpt lat="34.65179024639314" lon="-6.400934541975348"><ele>20.5</ele><time>2026-04-28T13:34:08Z</time></trkpt><trkpt lat="34.65200083567248" lon="-6.400814117117214"><ele>22.0</ele><time>2026-04-28T13:34:09Z</time></trkpt><trkpt lat="34.652210547773144" lon="-6.400694906288775"><ele>22.0</ele><time>2026-04-28T13:34:10Z</time></trkpt><trkpt lat="34.65241911421891" lon="-6.400577316807845"><ele>22.0</ele><time>2026-04-28T13:34:11Z</time></trkpt><trkpt lat="34.65262635413923" lon="-6.400462587331464"><ele>22.0</ele><time>2026-04-28T13:34:12Z</time></trkpt><trkpt lat="34.65283336332948" lon="-6.400350258097523"><ele>22.0</ele><time>2026-04-28T13:34:13Z</time></trkpt><trkpt lat="34.6530397121648" lon="-6.400238213584909"><ele>22.0</ele><time>2026-04-28T13:34:14Z</time></trkpt><trkpt lat="34.65324490936673" lon="-6.400126814951425"><ele>22.0</ele><time>2026-04-28T13:34:15Z</time></trkpt><trkpt lat="34.65344863811987" lon="-6.400015840885424"><ele>22.0</ele><time>2026-04-28T13:34:16Z</time></trkpt><trkpt lat="34.65365002809697" lon="-6.399902508642074"><ele>21.666666666666664</ele><time>2026-04-28T13:34:17Z</time></trkpt><trkpt lat="34.653850050092494" lon="-6.399788078568564"><ele>21.333333333333332</ele><time>2026-04-28T13:34:18Z</time></trkpt><trkpt lat="34.65405049777435" lon="-6.399672246975544"><ele>21.0</ele><time>2026-04-28T13:34:19Z</time></trkpt><trkpt lat="34.654250761618584" lon="-6.399556753378004"><ele>21.0</ele><time>2026-04-28T13:34:20Z</time></trkpt><trkpt lat="34.654450810262865" lon="-6.399441823004389"><ele>21.0</ele><time>2026-04-28T13:34:21Z</time></trkpt><trkpt lat="34.654648922327326" lon="-6.399327277431732"><ele>21.0</ele><time>2026-04-28T13:34:22Z</time></trkpt><trkpt lat="34.654847673462484" lon="-6.399208149245025"><ele>21.0</ele><time>2026-04-28T13:34:23Z</time></trkpt><trkpt lat="34.65504405155096" lon="-6.399083048356629"><ele>21.0</ele><time>2026-04-28T13:34:24Z</time></trkpt><trkpt lat="34.65524066360354" lon="-6.3989544492945125"><ele>21.0</ele><time>2026-04-28T13:34:25Z</time></trkpt><trkpt lat="34.65543632910963" lon="-6.398822770500336"><ele>20.0</ele><time>2026-04-28T13:34:26Z</time></trkpt><trkpt lat="34.65563088135888" lon="-6.398689921641554"><ele>19.0</ele><time>2026-04-28T13:34:27Z</time></trkpt><trkpt lat="34.6558252639767" lon="-6.398556249375107"><ele>18.0</ele><time>2026-04-28T13:34:28Z</time></trkpt><trkpt lat="34.65601789160816" lon="-6.3984202463241155"><ele>18.333333333333332</ele><time>2026-04-28T13:34:29Z</time></trkpt><trkpt lat="34.65620878003106" lon="-6.398279303766875"><ele>18.666666666666664</ele><time>2026-04-28T13:34:30Z</time></trkpt><trkpt lat="34.65639699112815" lon="-6.398133683227999"><ele>19.0</ele><time>2026-04-28T13:34:31Z</time></trkpt><trkpt lat="34.65658554533179" lon="-6.397990077169596"><ele>19.0</ele><time>2026-04-28T13:34:32Z</time></trkpt><trkpt lat="34.65677484055172" lon="-6.39784480725501"><ele>19.0</ele><time>2026-04-28T13:34:33Z</time></trkpt><trkpt lat="34.65696353264338" lon="-6.397697370520223"><ele>19.0</ele><time>2026-04-28T13:34:34Z</time></trkpt><trkpt lat="34.65715117090324" lon="-6.397549983952003"><ele>19.0</ele><time>2026-04-28T13:34:35Z</time></trkpt><trkpt lat="34.657337102647425" lon="-6.397398263389731"><ele>19.0</ele><time>2026-04-28T13:34:36Z</time></trkpt><trkpt lat="34.65751897798131" lon="-6.397241698051663"><ele>19.0</ele><time>2026-04-28T13:34:37Z</time></trkpt><trkpt lat="34.657700089114286" lon="-6.397083745537878"><ele>19.666666666666664</ele><time>2026-04-28T13:34:38Z</time></trkpt><trkpt lat="34.65788206269062" lon="-6.39692679425581"><ele>20.333333333333332</ele><time>2026-04-28T13:34:39Z</time></trkpt><trkpt lat="34.6580617560575" lon="-6.396765064914238"><ele>21.0</ele><time>2026-04-28T13:34:40Z</time></trkpt><trkpt lat="34.65823969010281" lon="-6.396601047768485"><ele>21.0</ele><time>2026-04-28T13:34:41Z</time></trkpt><trkpt lat="34.65841939215589" lon="-6.396438739669872"><ele>21.0</ele><time>2026-04-28T13:34:42Z</time></trkpt><trkpt lat="34.65859688429804" lon="-6.3962759993407365"><ele>21.0</ele><time>2026-04-28T13:34:43Z</time></trkpt><trkpt lat="34.658774205158394" lon="-6.396110682172944"><ele>21.0</ele><time>2026-04-28T13:34:44Z</time></trkpt><trkpt lat="34.6589491373232" lon="-6.395941908743986"><ele>21.0</ele><time>2026-04-28T13:34:45Z</time></trkpt><trkpt lat="34.65912230994732" lon="-6.395771033968492"><ele>21.0</ele><time>2026-04-28T13:34:46Z</time></trkpt><trkpt lat="34.65929141396801" lon="-6.3955946261258445"><ele>22.0</ele><time>2026-04-28T13:34:47Z</time></trkpt><trkpt lat="34.65945612278423" lon="-6.395416144867241"><ele>23.0</ele><time>2026-04-28T13:34:48Z</time></trkpt><trkpt lat="34.659622495881024" lon="-6.395237595886953"><ele>24.0</ele><time>2026-04-28T13:34:48.999Z</time></trkpt><trkpt lat="34.659788558243264" lon="-6.395058024151518"><ele>24.0</ele><time>2026-04-28T13:34:49.999Z</time></trkpt><trkpt lat="34.65995394091472" lon="-6.394875548899301"><ele>24.0</ele><time>2026-04-28T13:34:50.999Z</time></trkpt><trkpt lat="34.66011834742888" lon="-6.394692185227091"><ele>24.0</ele><time>2026-04-28T13:34:51.999Z</time></trkpt><trkpt lat="34.66028353546365" lon="-6.394509615766754"><ele>24.333333333333336</ele><time>2026-04-28T13:34:52.999Z</time></trkpt><trkpt lat="34.66045025267677" lon="-6.394331427462545"><ele>24.666666666666668</ele><time>2026-04-28T13:34:53.999Z</time></trkpt><trkpt lat="34.66061995769247" lon="-6.394153324463405"><ele>25.0</ele><time>2026-04-28T13:34:54.999Z</time></trkpt><trkpt lat="34.66078803324479" lon="-6.393973818295893"><ele>25.0</ele><time>2026-04-28T13:34:56.001Z</time></trkpt><trkpt lat="34.66095470083984" lon="-6.393792136376996"><ele>25.0</ele><time>2026-04-28T13:34:57.001Z</time></trkpt><trkpt lat="34.66112043653642" lon="-6.393609178661278"><ele>25.0</ele><time>2026-04-28T13:34:58Z</time></trkpt><trkpt lat="34.661286528160495" lon="-6.393425511619525"><ele>25.0</ele><time>2026-04-28T13:34:59.001Z</time></trkpt><trkpt lat="34.66145347915927" lon="-6.393244017983972"><ele>25.0</ele><time>2026-04-28T13:35:00.001Z</time></trkpt><trkpt lat="34.66162397049012" lon="-6.393064972382718"><ele>25.0</ele><time>2026-04-28T13:35:01Z</time></trkpt><trkpt lat="34.661796803093615" lon="-6.3928883617264765"><ele>24.5</ele><time>2026-04-28T13:35:02Z</time></trkpt><trkpt lat="34.66197236328686" lon="-6.392717312883775"><ele>24.0</ele><time>2026-04-28T13:35:03Z</time></trkpt><trkpt lat="34.662151348234076" lon="-6.392552065003722"><ele>24.0</ele><time>2026-04-28T13:35:04Z</time></trkpt><trkpt lat="34.66233160325752" lon="-6.392388801896915"><ele>24.0</ele><time>2026-04-28T13:35:05Z</time></trkpt><trkpt lat="34.66251217331412" lon="-6.39222544794994"><ele>23.666666666666668</ele><time>2026-04-28T13:35:06Z</time></trkpt><trkpt lat="34.66269251045982" lon="-6.392066138868588"><ele>23.333333333333336</ele><time>2026-04-28T13:35:07Z</time></trkpt><trkpt lat="34.662875065001764" lon="-6.391910058812626"><ele>23.0</ele><time>2026-04-28T13:35:08Z</time></trkpt><trkpt lat="34.66305984346791" lon="-6.391755664234585"><ele>23.666666666666668</ele><time>2026-04-28T13:35:09Z</time></trkpt><trkpt lat="34.66324529029728" lon="-6.391602513529662"><ele>24.333333333333336</ele><time>2026-04-28T13:35:10Z</time></trkpt><trkpt lat="34.66343235693817" lon="-6.391452619823792"><ele>25.0</ele><time>2026-04-28T13:35:11Z</time></trkpt><trkpt lat="34.66362179799551" lon="-6.391304578828914"><ele>25.0</ele><time>2026-04-28T13:35:12Z</time></trkpt><trkpt lat="34.66381255772876" lon="-6.391160658610355"><ele>25.0</ele><time>2026-04-28T13:35:13Z</time></trkpt><trkpt lat="34.66400571858823" lon="-6.391020493088317"><ele>25.0</ele><time>2026-04-28T13:35:14Z</time></trkpt><trkpt lat="34.66420059716747" lon="-6.390882834129587"><ele>25.0</ele><time>2026-04-28T13:35:15Z</time></trkpt><trkpt lat="34.66439582076098" lon="-6.390747017689969"><ele>25.0</ele><time>2026-04-28T13:35:16Z</time></trkpt><trkpt lat="34.66459158762963" lon="-6.390612605516176"><ele>23.0</ele><time>2026-04-28T13:35:17Z</time></trkpt><trkpt lat="34.664790124189736" lon="-6.390480832223159"><ele>21.0</ele><time>2026-04-28T13:35:18Z</time></trkpt><trkpt lat="34.664989281499736" lon="-6.390350074870523"><ele>21.0</ele><time>2026-04-28T13:35:19Z</time></trkpt><trkpt lat="34.665190998982034" lon="-6.390223191181452"><ele>21.0</ele><time>2026-04-28T13:35:20Z</time></trkpt><trkpt lat="34.665391941030464" lon="-6.390102496785946"><ele>21.666666666666668</ele><time>2026-04-28T13:35:21Z</time></trkpt><trkpt lat="34.665594044999885" lon="-6.3899882424124215"><ele>22.333333333333336</ele><time>2026-04-28T13:35:22Z</time></trkpt><trkpt lat="34.665797832635185" lon="-6.389877590668689"><ele>23.0</ele><time>2026-04-28T13:35:23Z</time></trkpt><trkpt lat="34.66600376799274" lon="-6.389769556522615"><ele>21.666666666666668</ele><time>2026-04-28T13:35:24Z</time></trkpt><trkpt lat="34.666207964664615" lon="-6.3896615211563725"><ele>20.333333333333332</ele><time>2026-04-28T13:35:25Z</time></trkpt><trkpt lat="34.6664118943787" lon="-6.389556523726734"><ele>19.0</ele><time>2026-04-28T13:35:26Z</time></trkpt><trkpt lat="34.666616582072635" lon="-6.389454155938664"><ele>19.0</ele><time>2026-04-28T13:35:27Z</time></trkpt><trkpt lat="34.6668201786565" lon="-6.389355233566507"><ele>19.0</ele><time>2026-04-28T13:35:28Z</time></trkpt><trkpt lat="34.66702481669182" lon="-6.3892615198696525"><ele>19.0</ele><time>2026-04-28T13:35:29Z</time></trkpt><trkpt lat="34.667229133915164" lon="-6.389173097666792"><ele>19.666666666666664</ele><time>2026-04-28T13:35:30Z</time></trkpt><trkpt lat="34.66743230540342" lon="-6.389088677257834"><ele>20.333333333333332</ele><time>2026-04-28T13:35:31Z</time></trkpt><trkpt lat="34.66763354934755" lon="-6.389007237589014"><ele>21.0</ele><time>2026-04-28T13:35:32Z</time></trkpt><trkpt lat="34.667833013517146" lon="-6.388929601980055"><ele>21.0</ele><time>2026-04-28T13:35:33Z</time></trkpt><trkpt lat="34.668032066168706" lon="-6.3888569559703265"><ele>21.0</ele><time>2026-04-28T13:35:34Z</time></trkpt><trkpt lat="34.66823277730182" lon="-6.388787224149417"><ele>21.0</ele><time>2026-04-28T13:35:35Z</time></trkpt><trkpt lat="34.66844397465266" lon="-6.3887193608186115"><ele>19.666666666666668</ele><time>2026-04-28T13:35:36Z</time></trkpt><trkpt lat="34.66865896071355" lon="-6.388657337038459"><ele>18.333333333333336</ele><time>2026-04-28T13:35:37Z</time></trkpt><trkpt lat="34.66887868099434" lon="-6.388597843798801"><ele>17.0</ele><time>2026-04-28T13:35:38Z</time></trkpt><trkpt lat="34.669102675953326" lon="-6.388538145282572"><ele>17.0</ele><time>2026-04-28T13:35:39Z</time></trkpt><trkpt lat="34.66932849049356" lon="-6.3884755475996515"><ele>17.0</ele><time>2026-04-28T13:35:40Z</time></trkpt><trkpt lat="34.66955570188776" lon="-6.388414616794578"><ele>17.5</ele><time>2026-04-28T13:35:41Z</time></trkpt><trkpt lat="34.66978297593561" lon="-6.388357372568363"><ele>18.0</ele><time>2026-04-28T13:35:42Z</time></trkpt><trkpt lat="34.67001026720596" lon="-6.388305872898598"><ele>18.0</ele><time>2026-04-28T13:35:43Z</time></trkpt><trkpt lat="34.67023882823694" lon="-6.3882584425858955"><ele>18.0</ele><time>2026-04-28T13:35:44Z</time></trkpt><trkpt lat="34.670467412749616" lon="-6.388214185094739"><ele>18.0</ele><time>2026-04-28T13:35:45Z</time></trkpt><trkpt lat="34.67069729346082" lon="-6.388171447362746"><ele>18.0</ele><time>2026-04-28T13:35:46Z</time></trkpt><trkpt lat="34.67092552171494" lon="-6.388133386919822"><ele>19.0</ele><time>2026-04-28T13:35:47Z</time></trkpt><trkpt lat="34.67115524283266" lon="-6.388097461263779"><ele>20.0</ele><time>2026-04-28T13:35:48Z</time></trkpt><trkpt lat="34.67138302642095" lon="-6.3880644536970035"><ele>20.0</ele><time>2026-04-28T13:35:49Z</time></trkpt><trkpt lat="34.671610105988414" lon="-6.388032980153787"><ele>20.0</ele><time>2026-04-28T13:35:50Z</time></trkpt><trkpt lat="34.671837964663275" lon="-6.388001695780979"><ele>19.5</ele><time>2026-04-28T13:35:51Z</time></trkpt><trkpt lat="34.67207597118208" lon="-6.38797031415354"><ele>19.0</ele><time>2026-04-28T13:35:52Z</time></trkpt><trkpt lat="34.67232380311955" lon="-6.387937983628534"><ele>19.0</ele><time>2026-04-28T13:35:53Z</time></trkpt><trkpt lat="34.67258016951859" lon="-6.3879042845418805"><ele>19.0</ele><time>2026-04-28T13:35:54Z</time></trkpt><trkpt lat="34.67284812412557" lon="-6.387865685624799"><ele>19.0</ele><time>2026-04-28T13:35:55Z</time></trkpt><trkpt lat="34.6731252571733" lon="-6.387827127093703"><ele>19.0</ele><time>2026-04-28T13:35:56Z</time></trkpt><trkpt lat="34.67340942059052" lon="-6.387786905732564"><ele>19.0</ele><time>2026-04-28T13:35:57Z</time></trkpt><trkpt lat="34.673696704592395" lon="-6.387746802373261"><ele>19.0</ele><time>2026-04-28T13:35:58Z</time></trkpt><trkpt lat="34.673985459439486" lon="-6.387707705009037"><ele>19.0</ele><time>2026-04-28T13:35:59Z</time></trkpt><trkpt lat="34.67427639600823" lon="-6.387667623642248"><ele>19.0</ele><time>2026-04-28T13:36:00Z</time></trkpt><trkpt lat="34.67457051775158" lon="-6.387622211350688"><ele>20.0</ele><time>2026-04-28T13:36:01Z</time></trkpt><trkpt lat="34.67486408956282" lon="-6.387575043135525"><ele>21.0</ele><time>2026-04-28T13:36:02Z</time></trkpt><trkpt lat="34.67515862735583" lon="-6.387526710704854"><ele>20.5</ele><time>2026-04-28T13:36:03Z</time></trkpt><trkpt lat="34.67545306761867" lon="-6.387477406490931"><ele>20.0</ele><time>2026-04-28T13:36:04Z</time></trkpt><trkpt lat="34.67574719567936" lon="-6.387427127370627"><ele>20.0</ele><time>2026-04-28T13:36:05Z</time></trkpt><trkpt lat="34.67604062699849" lon="-6.387374680335883"><ele>20.0</ele><time>2026-04-28T13:36:06Z</time></trkpt><trkpt lat="34.676331227562315" lon="-6.387318167475881"><ele>19.5</ele><time>2026-04-28T13:36:07Z</time></trkpt><trkpt lat="34.67662525729406" lon="-6.387254076868613"><ele>19.0</ele><time>2026-04-28T13:36:08Z</time></trkpt><trkpt lat="34.67691610004909" lon="-6.387180588346626"><ele>18.5</ele><time>2026-04-28T13:36:09Z</time></trkpt><trkpt lat="34.677207119359814" lon="-6.387102702847687"><ele>18.0</ele><time>2026-04-28T13:36:10Z</time></trkpt><trkpt lat="34.67749618492303" lon="-6.387023913324308"><ele>19.0</ele><time>2026-04-28T13:36:11Z</time></trkpt><trkpt lat="34.677787036286546" lon="-6.386943323834423"><ele>20.0</ele><time>2026-04-28T13:36:12Z</time></trkpt><trkpt lat="34.67807561156588" lon="-6.386859708176367"><ele>20.0</ele><time>2026-04-28T13:36:13Z</time></trkpt><trkpt lat="34.678365146566264" lon="-6.386772018822883"><ele>20.0</ele><time>2026-04-28T13:36:14Z</time></trkpt><trkpt lat="34.67865276998242" lon="-6.386680258461895"><ele>21.0</ele><time>2026-04-28T13:36:15Z</time></trkpt><trkpt lat="34.67893767437295" lon="-6.386583595667937"><ele>22.0</ele><time>2026-04-28T13:36:16Z</time></trkpt><trkpt lat="34.67922062040738" lon="-6.386479976341019"><ele>22.5</ele><time>2026-04-28T13:36:17Z</time></trkpt><trkpt lat="34.67950371138033" lon="-6.386371425590367"><ele>23.0</ele><time>2026-04-28T13:36:18Z</time></trkpt><trkpt lat="34.679786332172554" lon="-6.386258315176612"><ele>22.0</ele><time>2026-04-28T13:36:19Z</time></trkpt><trkpt lat="34.680067966750435" lon="-6.386138792565815"><ele>21.0</ele><time>2026-04-28T13:36:20Z</time></trkpt><trkpt lat="34.68034593211445" lon="-6.386009949021961"><ele>21.0</ele><time>2026-04-28T13:36:21Z</time></trkpt><trkpt lat="34.68062208651782" lon="-6.385878196696294"><ele>21.0</ele><time>2026-04-28T13:36:22Z</time></trkpt><trkpt lat="34.6808972064095" lon="-6.385745892557322"><ele>21.0</ele><time>2026-04-28T13:36:23Z</time></trkpt><trkpt lat="34.681174358901984" lon="-6.385612154806733"><ele>21.0</ele><time>2026-04-28T13:36:24Z</time></trkpt><trkpt lat="34.6814522063458" lon="-6.385479765674496"><ele>21.5</ele><time>2026-04-28T13:36:25Z</time></trkpt><trkpt lat="34.681730736175126" lon="-6.385349628351742"><ele>22.0</ele><time>2026-04-28T13:36:26Z</time></trkpt><trkpt lat="34.6820103846708" lon="-6.385225156126571"><ele>22.0</ele><time>2026-04-28T13:36:27Z</time></trkpt><trkpt lat="34.68229168733739" lon="-6.3851004885442135"><ele>22.0</ele><time>2026-04-28T13:36:28Z</time></trkpt><trkpt lat="34.682572673628165" lon="-6.384985005367477"><ele>23.5</ele><time>2026-04-28T13:36:29Z</time></trkpt><trkpt lat="34.68285732631181" lon="-6.38487032363382"><ele>25.0</ele><time>2026-04-28T13:36:30Z</time></trkpt><trkpt lat="34.68314259676488" lon="-6.384761258647352"><ele>24.0</ele><time>2026-04-28T13:36:31Z</time></trkpt><trkpt lat="34.68342667170107" lon="-6.3846528452569045"><ele>23.0</ele><time>2026-04-28T13:36:32Z</time></trkpt><trkpt lat="34.68371150411301" lon="-6.38454881689894"><ele>23.0</ele><time>2026-04-28T13:36:33Z</time></trkpt><trkpt lat="34.68399681438802" lon="-6.384446477067407"><ele>23.0</ele><time>2026-04-28T13:36:34Z</time></trkpt><trkpt lat="34.684282472911924" lon="-6.384351334043745"><ele>24.0</ele><time>2026-04-28T13:36:35Z</time></trkpt><trkpt lat="34.68456915074228" lon="-6.384255204986664"><ele>25.0</ele><time>2026-04-28T13:36:36Z</time></trkpt><trkpt lat="34.684858026838896" lon="-6.38416988517778"><ele>25.0</ele><time>2026-04-28T13:36:37Z</time></trkpt><trkpt lat="34.685147834244646" lon="-6.384087606909507"><ele>25.0</ele><time>2026-04-28T13:36:38Z</time></trkpt><trkpt lat="34.68543911731679" lon="-6.384015032767325"><ele>25.5</ele><time>2026-04-28T13:36:39Z</time></trkpt><trkpt lat="34.68572962486405" lon="-6.383939730662657"><ele>26.0</ele><time>2026-04-28T13:36:40Z</time></trkpt><trkpt lat="34.68602123650215" lon="-6.383868081206764"><ele>25.0</ele><time>2026-04-28T13:36:41Z</time></trkpt><trkpt lat="34.68631301450214" lon="-6.383799316436575"><ele>24.0</ele><time>2026-04-28T13:36:42Z</time></trkpt><trkpt lat="34.68660392295112" lon="-6.383728980080628"><ele>24.0</ele><time>2026-04-28T13:36:42.999Z</time></trkpt><trkpt lat="34.68689651876787" lon="-6.383658590500166"><ele>24.0</ele><time>2026-04-28T13:36:43.999Z</time></trkpt><trkpt lat="34.68718774366086" lon="-6.383586442096171"><ele>24.5</ele><time>2026-04-28T13:36:44.999Z</time></trkpt><trkpt lat="34.68747937845201" lon="-6.383517140038719"><ele>25.0</ele><time>2026-04-28T13:36:45.999Z</time></trkpt><trkpt lat="34.68777144881205" lon="-6.38344466292692"><ele>25.5</ele><time>2026-04-28T13:36:46.999Z</time></trkpt><trkpt lat="34.68806401313628" lon="-6.383370223521403"><ele>26.0</ele><time>2026-04-28T13:36:47.999Z</time></trkpt><trkpt lat="34.6883568647077" lon="-6.38329910136848"><ele>26.0</ele><time>2026-04-28T13:36:48.999Z</time></trkpt><trkpt lat="34.68864958762462" lon="-6.383225632469647"><ele>26.0</ele><time>2026-04-28T13:36:49.999Z</time></trkpt><trkpt lat="34.688942376747576" lon="-6.383152613111852"><ele>26.0</ele><time>2026-04-28T13:36:50.999Z</time></trkpt><trkpt lat="34.68923478842087" lon="-6.383080709171681"><ele>26.0</ele><time>2026-04-28T13:36:51.999Z</time></trkpt><trkpt lat="34.68952750589946" lon="-6.383010919181466"><ele>26.0</ele><time>2026-04-28T13:36:52.999Z</time></trkpt><trkpt lat="34.68981846460615" lon="-6.382936775053858"><ele>26.0</ele><time>2026-04-28T13:36:53.999Z</time></trkpt><trkpt lat="34.690109893808376" lon="-6.382864773803851"><ele>27.5</ele><time>2026-04-28T13:36:54.999Z</time></trkpt><trkpt lat="34.69040017271038" lon="-6.38279060178027"><ele>29.0</ele><time>2026-04-28T13:36:55.999Z</time></trkpt><trkpt lat="34.690691209003084" lon="-6.3827164218015895"><ele>29.0</ele><time>2026-04-28T13:36:56.999Z</time></trkpt><trkpt lat="34.690984508329386" lon="-6.382640809805551"><ele>29.0</ele><time>2026-04-28T13:36:57.999Z</time></trkpt><trkpt lat="34.69127380909708" lon="-6.382554533732319"><ele>29.0</ele><time>2026-04-28T13:36:58.999Z</time></trkpt><trkpt lat="34.691563203528666" lon="-6.382472894986855"><ele>29.0</ele><time>2026-04-28T13:36:59.999Z</time></trkpt><trkpt lat="34.69185330327427" lon="-6.382397437626433"><ele>29.5</ele><time>2026-04-28T13:37:00.999Z</time></trkpt><trkpt lat="34.692144865384435" lon="-6.382321015220063"><ele>30.0</ele><time>2026-04-28T13:37:02Z</time></trkpt><trkpt lat="34.69243663650461" lon="-6.3822456444760975"><ele>30.0</ele><time>2026-04-28T13:37:03Z</time></trkpt><trkpt lat="34.69272813126847" lon="-6.382170837045854"><ele>30.0</ele><time>2026-04-28T13:37:04Z</time></trkpt><trkpt lat="34.69302007399855" lon="-6.382096354200865"><ele>30.0</ele><time>2026-04-28T13:37:05Z</time></trkpt><trkpt lat="34.69331268964711" lon="-6.3820227849459705"><ele>30.0</ele><time>2026-04-28T13:37:06Z</time></trkpt><trkpt lat="34.69360334336295" lon="-6.38194101684637"><ele>30.5</ele><time>2026-04-28T13:37:07Z</time></trkpt><trkpt lat="34.693888868736074" lon="-6.381857484504654"><ele>31.0</ele><time>2026-04-28T13:37:08Z</time></trkpt><trkpt lat="34.694165972280516" lon="-6.381769789147748"><ele>30.5</ele><time>2026-04-28T13:37:09Z</time></trkpt><trkpt lat="34.694434241933" lon="-6.381680716623729"><ele>30.0</ele><time>2026-04-28T13:37:10Z</time></trkpt><trkpt lat="34.69469097538876" lon="-6.3815909294795805"><ele>30.0</ele><time>2026-04-28T13:37:11Z</time></trkpt><trkpt lat="34.6949306372089" lon="-6.381502494678412"><ele>30.0</ele><time>2026-04-28T13:37:12Z</time></trkpt><trkpt lat="34.69515599441225" lon="-6.381418407457122"><ele>30.5</ele><time>2026-04-28T13:37:13Z</time></trkpt><trkpt lat="34.69537539174758" lon="-6.381343410833312"><ele>31.0</ele><time>2026-04-28T13:37:14Z</time></trkpt><trkpt lat="34.69559203636346" lon="-6.381269514236474"><ele>31.0</ele><time>2026-04-28T13:37:15Z</time></trkpt><trkpt lat="34.69581540376747" lon="-6.38118919602001"><ele>31.0</ele><time>2026-04-28T13:37:16Z</time></trkpt><trkpt lat="34.69604700925154" lon="-6.381098634811345"><ele>31.5</ele><time>2026-04-28T13:37:17Z</time></trkpt><trkpt lat="34.69628566622699" lon="-6.381000560299673"><ele>32.0</ele><time>2026-04-28T13:37:18Z</time></trkpt><trkpt lat="34.69653132763529" lon="-6.380894451713669"><ele>32.0</ele><time>2026-04-28T13:37:19Z</time></trkpt><trkpt lat="34.69678523308044" lon="-6.3807804430787805"><ele>32.0</ele><time>2026-04-28T13:37:20Z</time></trkpt><trkpt lat="34.69704885750163" lon="-6.380658773733437"><ele>31.5</ele><time>2026-04-28T13:37:21Z</time></trkpt><trkpt lat="34.6973195430311" lon="-6.380538130899042"><ele>31.0</ele><time>2026-04-28T13:37:22Z</time></trkpt><trkpt lat="34.697592830600286" lon="-6.380413499826101"><ele>32.0</ele><time>2026-04-28T13:37:23Z</time></trkpt><trkpt lat="34.69786913157384" lon="-6.380291317458372"><ele>33.0</ele><time>2026-04-28T13:37:24Z</time></trkpt><trkpt lat="34.69814797866116" lon="-6.380166186651442"><ele>33.0</ele><time>2026-04-28T13:37:25Z</time></trkpt><trkpt lat="34.698442719854526" lon="-6.380034472149944"><ele>33.0</ele><time>2026-04-28T13:37:26Z</time></trkpt><trkpt lat="34.69875466057414" lon="-6.379898262528323"><ele>33.0</ele><time>2026-04-28T13:37:27Z</time></trkpt><trkpt lat="34.69908035267015" lon="-6.379747316337559"><ele>33.0</ele><time>2026-04-28T13:37:28Z</time></trkpt><trkpt lat="34.69942153649331" lon="-6.3795947579484915"><ele>33.0</ele><time>2026-04-28T13:37:29Z</time></trkpt><trkpt lat="34.699774375513115" lon="-6.379437700767105"><ele>33.0</ele><time>2026-04-28T13:37:30Z</time></trkpt><trkpt lat="34.700140470825055" lon="-6.379283263959521"><ele>32.5</ele><time>2026-04-28T13:37:31Z</time></trkpt><trkpt lat="34.70051468089874" lon="-6.379121865328505"><ele>32.0</ele><time>2026-04-28T13:37:32Z</time></trkpt><trkpt lat="34.70089725506308" lon="-6.378946312844232"><ele>32.5</ele><time>2026-04-28T13:37:33Z</time></trkpt><trkpt lat="34.701255528600804" lon="-6.378787428876692"><ele>33.0</ele><time>2026-04-28T13:37:34Z</time></trkpt><trkpt lat="34.701681138948835" lon="-6.378599702753987"><ele>32.0</ele><time>2026-04-28T13:37:35Z</time></trkpt><trkpt lat="34.70209158123629" lon="-6.378423771819293"><ele>31.0</ele><time>2026-04-28T13:37:36Z</time></trkpt><trkpt lat="34.70250440538331" lon="-6.378233322567464"><ele>30.0</ele><time>2026-04-28T13:37:37Z</time></trkpt><trkpt lat="34.70292807691983" lon="-6.378031459711"><ele>31.0</ele><time>2026-04-28T13:37:38Z</time></trkpt><trkpt lat="34.703357746912445" lon="-6.377833154972036"><ele>31.0</ele><time>2026-04-28T13:37:39Z</time></trkpt><trkpt lat="34.70379972973237" lon="-6.377640443256272"><ele>31.0</ele><time>2026-04-28T13:37:40Z</time></trkpt><trkpt lat="34.70425139881703" lon="-6.377448547271876"><ele>33.0</ele><time>2026-04-28T13:37:41Z</time></trkpt><trkpt lat="34.70470458886901" lon="-6.377249190610484"><ele>32.0</ele><time>2026-04-28T13:37:42Z</time></trkpt><trkpt lat="34.70516392595019" lon="-6.377046767825076"><ele>33.0</ele><time>2026-04-28T13:37:43Z</time></trkpt><trkpt lat="34.705626018473154" lon="-6.376838464694184"><ele>30.0</ele><time>2026-04-28T13:37:44Z</time></trkpt><trkpt lat="34.7060872431401" lon="-6.376630128463219"><ele>30.0</ele><time>2026-04-28T13:37:45Z</time></trkpt><trkpt lat="34.706545043663226" lon="-6.376429611430707"><ele>30.0</ele><time>2026-04-28T13:37:46Z</time></trkpt><trkpt lat="34.706981718972706" lon="-6.376240006672388"><ele>30.0</ele><time>2026-04-28T13:37:47Z</time></trkpt><trkpt lat="34.70738715417785" lon="-6.376063490397823"><ele>30.0</ele><time>2026-04-28T13:37:48Z</time></trkpt><trkpt lat="34.70777470899401" lon="-6.375894431548036"><ele>30.0</ele><time>2026-04-28T13:37:49Z</time></trkpt><trkpt lat="34.70813028193496" lon="-6.375737318255503"><ele>30.0</ele><time>2026-04-28T13:37:50Z</time></trkpt><trkpt lat="34.708464153407036" lon="-6.375591035054917"><ele>31.0</ele><time>2026-04-28T13:37:51Z</time></trkpt><trkpt lat="34.70877855946064" lon="-6.3754539965262795"><ele>32.0</ele><time>2026-04-28T13:37:52Z</time></trkpt><trkpt lat="34.7090770983895" lon="-6.3753238407397435"><ele>32.0</ele><time>2026-04-28T13:37:53Z</time></trkpt><trkpt lat="34.70936250377878" lon="-6.375200121067173"><ele>32.0</ele><time>2026-04-28T13:37:54Z</time></trkpt><trkpt lat="34.70963337460902" lon="-6.375077487799389"><ele>31.0</ele><time>2026-04-28T13:37:55Z</time></trkpt><trkpt lat="34.709902632925235" lon="-6.374954442399089"><ele>30.0</ele><time>2026-04-28T13:37:56Z</time></trkpt><trkpt lat="34.71018302944211" lon="-6.374832076396901"><ele>30.0</ele><time>2026-04-28T13:37:57Z</time></trkpt><trkpt lat="34.71047454696005" lon="-6.374660712853173"><ele>30.0</ele><time>2026-04-28T13:37:58Z</time></trkpt><trkpt lat="34.71076390541087" lon="-6.374475386710137"><ele>30.0</ele><time>2026-04-28T13:37:59Z</time></trkpt><trkpt lat="34.71104466323931" lon="-6.374451870659472"><ele>30.0</ele><time>2026-04-28T13:38:00Z</time></trkpt><trkpt lat="34.71134751263395" lon="-6.374315347515509"><ele>30.5</ele><time>2026-04-28T13:38:01Z</time></trkpt><trkpt lat="34.71166243849773" lon="-6.374166248410568"><ele>31.0</ele><time>2026-04-28T13:38:02Z</time></trkpt><trkpt lat="34.711977374586404" lon="-6.374011771602843"><ele>31.5</ele><time>2026-04-28T13:38:03Z</time></trkpt><trkpt lat="34.71228077184662" lon="-6.3738502623497"><ele>32.0</ele><time>2026-04-28T13:38:04Z</time></trkpt><trkpt lat="34.712573724054344" lon="-6.373711908150014"><ele>32.0</ele><time>2026-04-28T13:38:05Z</time></trkpt><trkpt lat="34.712865805004334" lon="-6.373585282295421"><ele>32.0</ele><time>2026-04-28T13:38:06Z</time></trkpt><trkpt lat="34.71315051478597" lon="-6.37345695978188"><ele>32.0</ele><time>2026-04-28T13:38:07Z</time></trkpt><trkpt lat="34.713437667964904" lon="-6.373330732229358"><ele>32.0</ele><time>2026-04-28T13:38:08Z</time></trkpt><trkpt lat="34.713720638670026" lon="-6.3732046391017265"><ele>31.0</ele><time>2026-04-28T13:38:09Z</time></trkpt><trkpt lat="34.71400487963225" lon="-6.3730799590468665"><ele>30.0</ele><time>2026-04-28T13:38:10Z</time></trkpt><trkpt lat="34.714285711415684" lon="-6.372955774888337"><ele>28.0</ele><time>2026-04-28T13:38:11Z</time></trkpt><trkpt lat="34.71456726268058" lon="-6.372836480860532"><ele>26.0</ele><time>2026-04-28T13:38:12Z</time></trkpt><trkpt lat="34.71484798132583" lon="-6.372715501904442"><ele>26.0</ele><time>2026-04-28T13:38:13Z</time></trkpt><trkpt lat="34.71512406266459" lon="-6.372591992916762"><ele>26.0</ele><time>2026-04-28T13:38:14Z</time></trkpt><trkpt lat="34.71540459461086" lon="-6.372465296733021"><ele>25.0</ele><time>2026-04-28T13:38:15Z</time></trkpt><trkpt lat="34.71568578066547" lon="-6.372335430414555"><ele>24.0</ele><time>2026-04-28T13:38:16Z</time></trkpt><trkpt lat="34.71596527755746" lon="-6.372205410883289"><ele>25.5</ele><time>2026-04-28T13:38:17Z</time></trkpt><trkpt lat="34.71624979471458" lon="-6.372081168745365"><ele>27.0</ele><time>2026-04-28T13:38:18Z</time></trkpt><trkpt lat="34.71652527068647" lon="-6.3719527602150405"><ele>27.0</ele><time>2026-04-28T13:38:19Z</time></trkpt><trkpt lat="34.71680194962253" lon="-6.37181769425024"><ele>27.0</ele><time>2026-04-28T13:38:20Z</time></trkpt><trkpt lat="34.717081015719906" lon="-6.371683769742079"><ele>28.0</ele><time>2026-04-28T13:38:21Z</time></trkpt><trkpt lat="34.71735379431453" lon="-6.371546543127965"><ele>29.0</ele><time>2026-04-28T13:38:22Z</time></trkpt><trkpt lat="34.71762962461269" lon="-6.371408418198454"><ele>29.5</ele><time>2026-04-28T13:38:23Z</time></trkpt><trkpt lat="34.71790317446723" lon="-6.3712659434944685"><ele>30.0</ele><time>2026-04-28T13:38:24Z</time></trkpt><trkpt lat="34.7181760508086" lon="-6.371119553913232"><ele>30.0</ele><time>2026-04-28T13:38:25Z</time></trkpt><trkpt lat="34.71844856311766" lon="-6.370975721766738"><ele>30.0</ele><time>2026-04-28T13:38:26Z</time></trkpt><trkpt lat="34.718721265559104" lon="-6.370829290864727"><ele>30.0</ele><time>2026-04-28T13:38:27Z</time></trkpt><trkpt lat="34.71899207854516" lon="-6.370677077056745"><ele>30.0</ele><time>2026-04-28T13:38:28Z</time></trkpt><trkpt lat="34.719261588364525" lon="-6.370520579790892"><ele>30.0</ele><time>2026-04-28T13:38:29Z</time></trkpt><trkpt lat="34.719530523530516" lon="-6.370364537159562"><ele>30.0</ele><time>2026-04-28T13:38:30Z</time></trkpt><trkpt lat="34.71980070996198" lon="-6.370209176507293"><ele>30.0</ele><time>2026-04-28T13:38:31Z</time></trkpt><trkpt lat="34.72007014873137" lon="-6.370055224855371"><ele>30.0</ele><time>2026-04-28T13:38:32Z</time></trkpt><trkpt lat="34.720341669269644" lon="-6.369899486697021"><ele>30.0</ele><time>2026-04-28T13:38:33Z</time></trkpt><trkpt lat="34.72060963020503" lon="-6.369742917691013"><ele>30.0</ele><time>2026-04-28T13:38:34Z</time></trkpt><trkpt lat="34.72087727714219" lon="-6.369587449654189"><ele>30.5</ele><time>2026-04-28T13:38:35Z</time></trkpt><trkpt lat="34.72114692218554" lon="-6.3694307199588165"><ele>31.0</ele><time>2026-04-28T13:38:36Z</time></trkpt><trkpt lat="34.7214161622976" lon="-6.369276326586921"><ele>31.0</ele><time>2026-04-28T13:38:37Z</time></trkpt><trkpt lat="34.72168687018427" lon="-6.369119507120459"><ele>31.0</ele><time>2026-04-28T13:38:38Z</time></trkpt><trkpt lat="34.72195813129081" lon="-6.368965336956608"><ele>30.5</ele><time>2026-04-28T13:38:39Z</time></trkpt><trkpt lat="34.72222921361132" lon="-6.36881191269771"><ele>30.0</ele><time>2026-04-28T13:38:40Z</time></trkpt><trkpt lat="34.72249853252861" lon="-6.368660736707224"><ele>30.0</ele><time>2026-04-28T13:38:41Z</time></trkpt><trkpt lat="34.72276247184418" lon="-6.368510624264431"><ele>30.0</ele><time>2026-04-28T13:38:41.999Z</time></trkpt><trkpt lat="34.72302596745309" lon="-6.3683599768779136"><ele>30.0</ele><time>2026-04-28T13:38:42.999Z</time></trkpt><trkpt lat="34.72328592173933" lon="-6.368206614423883"><ele>30.0</ele><time>2026-04-28T13:38:43.999Z</time></trkpt><trkpt lat="34.723545127858486" lon="-6.368057675506925"><ele>31.0</ele><time>2026-04-28T13:38:44.999Z</time></trkpt><trkpt lat="34.72380564964382" lon="-6.367910548322678"><ele>32.0</ele><time>2026-04-28T13:38:45.999Z</time></trkpt><trkpt lat="34.724063249668454" lon="-6.367764788653209"><ele>32.0</ele><time>2026-04-28T13:38:46.999Z</time></trkpt><trkpt lat="34.72431895190416" lon="-6.367619998843387"><ele>32.0</ele><time>2026-04-28T13:38:47.999Z</time></trkpt><trkpt lat="34.72457410678664" lon="-6.367474306644925"><ele>32.0</ele><time>2026-04-28T13:38:48.999Z</time></trkpt><trkpt lat="34.72483186730312" lon="-6.367327006748752"><ele>32.0</ele><time>2026-04-28T13:38:49.999Z</time></trkpt><trkpt lat="34.725091022637784" lon="-6.36718126989255"><ele>32.0</ele><time>2026-04-28T13:38:50.999Z</time></trkpt><trkpt lat="34.725349817896024" lon="-6.3670327371506925"><ele>32.0</ele><time>2026-04-28T13:38:51.999Z</time></trkpt><trkpt lat="34.725608345138674" lon="-6.366884831910523"><ele>32.0</ele><time>2026-04-28T13:38:52.999Z</time></trkpt><trkpt lat="34.72586814988025" lon="-6.366735303502955"><ele>32.0</ele><time>2026-04-28T13:38:53.999Z</time></trkpt><trkpt lat="34.72612937874234" lon="-6.366584426965838"><ele>32.0</ele><time>2026-04-28T13:38:54.999Z</time></trkpt><trkpt lat="34.72639134729551" lon="-6.366432305247249"><ele>32.0</ele><time>2026-04-28T13:38:55.999Z</time></trkpt><trkpt lat="34.7266535637476" lon="-6.366284040735747"><ele>32.5</ele><time>2026-04-28T13:38:56.999Z</time></trkpt><trkpt lat="34.72691431191224" lon="-6.366136551211246"><ele>33.0</ele><time>2026-04-28T13:38:57.999Z</time></trkpt><trkpt lat="34.72717485224469" lon="-6.365986934807463"><ele>33.0</ele><time>2026-04-28T13:38:58.999Z</time></trkpt><trkpt lat="34.727435188664906" lon="-6.3658355037759975"><ele>33.0</ele><time>2026-04-28T13:38:59.999Z</time></trkpt><trkpt lat="34.7276964432509" lon="-6.365685181294339"><ele>33.0</ele><time>2026-04-28T13:39:00.999Z</time></trkpt><trkpt lat="34.727960046760295" lon="-6.365537012507978"><ele>33.0</ele><time>2026-04-28T13:39:01.999Z</time></trkpt><trkpt lat="34.72822397139471" lon="-6.365391609765257"><ele>33.0</ele><time>2026-04-28T13:39:02.999Z</time></trkpt><trkpt lat="34.728485871025526" lon="-6.365249691310112"><ele>33.0</ele><time>2026-04-28T13:39:03.999Z</time></trkpt><trkpt lat="34.728747550125576" lon="-6.3651030558247"><ele>33.0</ele><time>2026-04-28T13:39:04.999Z</time></trkpt><trkpt lat="34.72900948956101" lon="-6.3649572427730785"><ele>33.0</ele><time>2026-04-28T13:39:05.999Z</time></trkpt><trkpt lat="34.729269716056066" lon="-6.364810712982579"><ele>34.0</ele><time>2026-04-28T13:39:06.999Z</time></trkpt><trkpt lat="34.729531667601336" lon="-6.364661055007539"><ele>35.0</ele><time>2026-04-28T13:39:08Z</time></trkpt><trkpt lat="34.72979428592371" lon="-6.364510976891574"><ele>35.0</ele><time>2026-04-28T13:39:09Z</time></trkpt><trkpt lat="34.73005414780107" lon="-6.364366147152124"><ele>35.0</ele><time>2026-04-28T13:39:10Z</time></trkpt><trkpt lat="34.73031881503033" lon="-6.364220720317133"><ele>35.0</ele><time>2026-04-28T13:39:11Z</time></trkpt><trkpt lat="34.73058076515921" lon="-6.36407508371777"><ele>35.0</ele><time>2026-04-28T13:39:12Z</time></trkpt><trkpt lat="34.73084395270436" lon="-6.363923841247366"><ele>35.0</ele><time>2026-04-28T13:39:13Z</time></trkpt><trkpt lat="34.73110445048142" lon="-6.363771883402373"><ele>35.0</ele><time>2026-04-28T13:39:14Z</time></trkpt><trkpt lat="34.731364662310604" lon="-6.363621078757327"><ele>35.0</ele><time>2026-04-28T13:39:15Z</time></trkpt><trkpt lat="34.73162455242211" lon="-6.363471416585429"><ele>35.0</ele><time>2026-04-28T13:39:16Z</time></trkpt><trkpt lat="34.73188301065477" lon="-6.363322576680205"><ele>35.0</ele><time>2026-04-28T13:39:17Z</time></trkpt><trkpt lat="34.73213993798888" lon="-6.363172511257267"><ele>35.0</ele><time>2026-04-28T13:39:18Z</time></trkpt><trkpt lat="34.73239787803728" lon="-6.363021859510987"><ele>35.0</ele><time>2026-04-28T13:39:19Z</time></trkpt><trkpt lat="34.73266065062116" lon="-6.3628665525908845"><ele>35.0</ele><time>2026-04-28T13:39:20Z</time></trkpt><trkpt lat="34.732925866753355" lon="-6.362709113184718"><ele>35.0</ele><time>2026-04-28T13:39:21Z</time></trkpt><trkpt lat="34.73319064284049" lon="-6.362551771105401"><ele>35.0</ele><time>2026-04-28T13:39:22Z</time></trkpt><trkpt lat="34.73345746469548" lon="-6.362392508586126"><ele>35.5</ele><time>2026-04-28T13:39:23Z</time></trkpt><trkpt lat="34.73372352594406" lon="-6.362231499210491"><ele>36.0</ele><time>2026-04-28T13:39:24Z</time></trkpt><trkpt lat="34.733987444028436" lon="-6.362067371444415"><ele>36.0</ele><time>2026-04-28T13:39:25Z</time></trkpt><trkpt lat="34.73424925198888" lon="-6.361896829210865"><ele>36.0</ele><time>2026-04-28T13:39:26Z</time></trkpt><trkpt lat="34.734510455410856" lon="-6.361723546737656"><ele>36.0</ele><time>2026-04-28T13:39:27Z</time></trkpt><trkpt lat="34.734770503324874" lon="-6.361549083518795"><ele>36.0</ele><time>2026-04-28T13:39:28Z</time></trkpt><trkpt lat="34.73502946325428" lon="-6.361372507803362"><ele>35.5</ele><time>2026-04-28T13:39:29Z</time></trkpt><trkpt lat="34.73528648864752" lon="-6.3611936194690095"><ele>35.0</ele><time>2026-04-28T13:39:30Z</time></trkpt><trkpt lat="34.73553874933051" lon="-6.361007877222016"><ele>35.0</ele><time>2026-04-28T13:39:31Z</time></trkpt><trkpt lat="34.73578806974512" lon="-6.360817502053585"><ele>35.0</ele><time>2026-04-28T13:39:32Z</time></trkpt><trkpt lat="34.736038911625144" lon="-6.360630608411293"><ele>35.0</ele><time>2026-04-28T13:39:33Z</time></trkpt><trkpt lat="34.73629102185605" lon="-6.360443024417694"><ele>35.0</ele><time>2026-04-28T13:39:34Z</time></trkpt><trkpt lat="34.73654014051819" lon="-6.360250369693531"><ele>35.0</ele><time>2026-04-28T13:39:35Z</time></trkpt><trkpt lat="34.73678460430169" lon="-6.360056141832839"><ele>35.0</ele><time>2026-04-28T13:39:36Z</time></trkpt><trkpt lat="34.73701931281459" lon="-6.3598687129751195"><ele>35.0</ele><time>2026-04-28T13:39:37Z</time></trkpt><trkpt lat="34.737243752907546" lon="-6.35969350810954"><ele>35.0</ele><time>2026-04-28T13:39:38Z</time></trkpt><trkpt lat="34.73746804125001" lon="-6.35951734651667"><ele>35.0</ele><time>2026-04-28T13:39:39Z</time></trkpt><trkpt lat="34.73769860162857" lon="-6.359325573698484"><ele>35.0</ele><time>2026-04-28T13:39:40Z</time></trkpt><trkpt lat="34.73793178512285" lon="-6.359119292123731"><ele>35.5</ele><time>2026-04-28T13:39:41Z</time></trkpt><trkpt lat="34.73816250421121" lon="-6.358904653971138"><ele>36.0</ele><time>2026-04-28T13:39:42Z</time></trkpt><trkpt lat="34.738391621518716" lon="-6.35868395962304"><ele>37.5</ele><time>2026-04-28T13:39:43Z</time></trkpt><trkpt lat="34.738620230430705" lon="-6.358461960980854"><ele>39.0</ele><time>2026-04-28T13:39:44Z</time></trkpt><trkpt lat="34.73884988571306" lon="-6.358235517918819"><ele>37.5</ele><time>2026-04-28T13:39:45Z</time></trkpt><trkpt lat="34.739076131765536" lon="-6.358007727749099"><ele>36.0</ele><time>2026-04-28T13:39:46Z</time></trkpt><trkpt lat="34.73930237893499" lon="-6.357773844059581"><ele>37.5</ele><time>2026-04-28T13:39:47Z</time></trkpt><trkpt lat="34.73952741939628" lon="-6.357537321474979"><ele>39.0</ele><time>2026-04-28T13:39:48Z</time></trkpt><trkpt lat="34.73975293122711" lon="-6.357298316696041"><ele>38.0</ele><time>2026-04-28T13:39:49Z</time></trkpt><trkpt lat="34.73997826055122" lon="-6.357059181433984"><ele>37.0</ele><time>2026-04-28T13:39:50Z</time></trkpt><trkpt lat="34.74020333388999" lon="-6.356819038078069"><ele>37.0</ele><time>2026-04-28T13:39:51Z</time></trkpt><trkpt lat="34.740427865090886" lon="-6.356577802701112"><ele>37.0</ele><time>2026-04-28T13:39:52Z</time></trkpt><trkpt lat="34.74065268086602" lon="-6.356337551810528"><ele>37.0</ele><time>2026-04-28T13:39:53Z</time></trkpt><trkpt lat="34.7408772777751" lon="-6.356096649653651"><ele>37.0</ele><time>2026-04-28T13:39:54Z</time></trkpt><trkpt lat="34.741101443068736" lon="-6.355854923261982"><ele>38.0</ele><time>2026-04-28T13:39:55Z</time></trkpt><trkpt lat="34.74132521370926" lon="-6.355614067718742"><ele>39.0</ele><time>2026-04-28T13:39:56Z</time></trkpt><trkpt lat="34.74154928752924" lon="-6.355375396957127"><ele>37.0</ele><time>2026-04-28T13:39:57Z</time></trkpt><trkpt lat="34.74177482826653" lon="-6.355137319084925"><ele>35.0</ele><time>2026-04-28T13:39:58Z</time></trkpt><trkpt lat="34.74200032783489" lon="-6.3548999715128955"><ele>33.5</ele><time>2026-04-28T13:39:59Z</time></trkpt><trkpt lat="34.74222549905906" lon="-6.35466212459675"><ele>32.0</ele><time>2026-04-28T13:40:00Z</time></trkpt><trkpt lat="34.742452658920165" lon="-6.35442421780062"><ele>32.0</ele><time>2026-04-28T13:40:01Z</time></trkpt><trkpt lat="34.74267773996282" lon="-6.354188162575809"><ele>32.0</ele><time>2026-04-28T13:40:02Z</time></trkpt><trkpt lat="34.74290329350912" lon="-6.353952813472343"><ele>32.5</ele><time>2026-04-28T13:40:03Z</time></trkpt><trkpt lat="34.74312835362774" lon="-6.353714572777667"><ele>33.0</ele><time>2026-04-28T13:40:04Z</time></trkpt><trkpt lat="34.743352402656846" lon="-6.35347629382103"><ele>34.0</ele><time>2026-04-28T13:40:05Z</time></trkpt><trkpt lat="34.743577301215446" lon="-6.353240450786566"><ele>35.0</ele><time>2026-04-28T13:40:06Z</time></trkpt><trkpt lat="34.74380372685218" lon="-6.35300332524592"><ele>35.0</ele><time>2026-04-28T13:40:07Z</time></trkpt><trkpt lat="34.744027764329644" lon="-6.352766000434707"><ele>35.0</ele><time>2026-04-28T13:40:08Z</time></trkpt><trkpt lat="34.74425916396248" lon="-6.3525290333532265"><ele>34.5</ele><time>2026-04-28T13:40:09Z</time></trkpt><trkpt lat="34.74448418826416" lon="-6.352295951233542"><ele>34.0</ele><time>2026-04-28T13:40:10Z</time></trkpt><trkpt lat="34.74471011741371" lon="-6.352054845007509"><ele>34.0</ele><time>2026-04-28T13:40:11Z</time></trkpt><trkpt lat="34.744937543018494" lon="-6.351819898072996"><ele>34.0</ele><time>2026-04-28T13:40:12Z</time></trkpt><trkpt lat="34.74516488066551" lon="-6.3515851305932385"><ele>33.0</ele><time>2026-04-28T13:40:13Z</time></trkpt><trkpt lat="34.745392280456706" lon="-6.3513524904121175"><ele>32.0</ele><time>2026-04-28T13:40:14Z</time></trkpt><trkpt lat="34.74562437232348" lon="-6.3511233572043"><ele>32.0</ele><time>2026-04-28T13:40:15Z</time></trkpt><trkpt lat="34.74585785113032" lon="-6.350902230107797"><ele>32.0</ele><time>2026-04-28T13:40:16Z</time></trkpt><trkpt lat="34.746095493228914" lon="-6.3506862070125125"><ele>31.0</ele><time>2026-04-28T13:40:17Z</time></trkpt><trkpt lat="34.74633202067354" lon="-6.350470635349797"><ele>30.0</ele><time>2026-04-28T13:40:18Z</time></trkpt><trkpt lat="34.74656923896368" lon="-6.350254146745126"><ele>30.0</ele><time>2026-04-28T13:40:19Z</time></trkpt><trkpt lat="34.74680704817361" lon="-6.350041746670573"><ele>30.0</ele><time>2026-04-28T13:40:20Z</time></trkpt><trkpt lat="34.7470483048366" lon="-6.349831059864055"><ele>29.0</ele><time>2026-04-28T13:40:21Z</time></trkpt><trkpt lat="34.74729067537649" lon="-6.349626852379901"><ele>28.0</ele><time>2026-04-28T13:40:22Z</time></trkpt><trkpt lat="34.74753604486295" lon="-6.349424262458198"><ele>29.0</ele><time>2026-04-28T13:40:23Z</time></trkpt><trkpt lat="34.74778242722731" lon="-6.349226373241803"><ele>30.0</ele><time>2026-04-28T13:40:24Z</time></trkpt><trkpt lat="34.74803110517508" lon="-6.349028618476074"><ele>28.5</ele><time>2026-04-28T13:40:25Z</time></trkpt><trkpt lat="34.74828143892395" lon="-6.348831582374856"><ele>27.0</ele><time>2026-04-28T13:40:26Z</time></trkpt><trkpt lat="34.748532487119114" lon="-6.348640192887407"><ele>27.5</ele><time>2026-04-28T13:40:27Z</time></trkpt><trkpt lat="34.74878512711151" lon="-6.348449410686404"><ele>28.0</ele><time>2026-04-28T13:40:28Z</time></trkpt><trkpt lat="34.74903543752083" lon="-6.34825490815333"><ele>28.0</ele><time>2026-04-28T13:40:29Z</time></trkpt><trkpt lat="34.74928421860818" lon="-6.348054051410329"><ele>28.0</ele><time>2026-04-28T13:40:30Z</time></trkpt><trkpt lat="34.74953374182061" lon="-6.3478579405264375"><ele>26.0</ele><time>2026-04-28T13:40:31Z</time></trkpt><trkpt lat="34.74978500062637" lon="-6.347663345436328"><ele>24.0</ele><time>2026-04-28T13:40:32Z</time></trkpt><trkpt lat="34.750039926689155" lon="-6.347470091655829"><ele>24.5</ele><time>2026-04-28T13:40:33Z</time></trkpt><trkpt lat="34.750292829884906" lon="-6.347279299272336"><ele>25.0</ele><time>2026-04-28T13:40:34Z</time></trkpt><trkpt lat="34.75054707965876" lon="-6.3470864297871055"><ele>25.0</ele><time>2026-04-28T13:40:35Z</time></trkpt><trkpt lat="34.750800646529704" lon="-6.346892227307761"><ele>25.0</ele><time>2026-04-28T13:40:36Z</time></trkpt><trkpt lat="34.75105272758824" lon="-6.346698377456245"><ele>24.0</ele><time>2026-04-28T13:40:37Z</time></trkpt><trkpt lat="34.751304586331834" lon="-6.346503630617981"><ele>23.0</ele><time>2026-04-28T13:40:38Z</time></trkpt><trkpt lat="34.75155762326358" lon="-6.34630750456485"><ele>23.0</ele><time>2026-04-28T13:40:39Z</time></trkpt><trkpt lat="34.75180915829955" lon="-6.346112009051263"><ele>23.0</ele><time>2026-04-28T13:40:40Z</time></trkpt><trkpt lat="34.75206231514981" lon="-6.345916313124224"><ele>23.5</ele><time>2026-04-28T13:40:41Z</time></trkpt><trkpt lat="34.752315683478926" lon="-6.345722469830966"><ele>24.0</ele><time>2026-04-28T13:40:42Z</time></trkpt><trkpt lat="34.752568707406695" lon="-6.345530592221396"><ele>24.5</ele><time>2026-04-28T13:40:43Z</time></trkpt><trkpt lat="34.75282063395101" lon="-6.345338192461388"><ele>25.0</ele><time>2026-04-28T13:40:44Z</time></trkpt><trkpt lat="34.753071710698805" lon="-6.345146039729092"><ele>25.0</ele><time>2026-04-28T13:40:45Z</time></trkpt><trkpt lat="34.753323607264726" lon="-6.3449522254167015"><ele>25.0</ele><time>2026-04-28T13:40:45.999Z</time></trkpt><trkpt lat="34.753576482765695" lon="-6.344757692700702"><ele>22.5</ele><time>2026-04-28T13:40:46.999Z</time></trkpt><trkpt lat="34.75382927066993" lon="-6.3445624754359535"><ele>20.0</ele><time>2026-04-28T13:40:47.999Z</time></trkpt><trkpt lat="34.754081529448584" lon="-6.344369386545026"><ele>20.0</ele><time>2026-04-28T13:40:48.999Z</time></trkpt><trkpt lat="34.75433326431195" lon="-6.344176179603308"><ele>20.0</ele><time>2026-04-28T13:40:49.999Z</time></trkpt><trkpt lat="34.75458453784316" lon="-6.343984015414335"><ele>19.0</ele><time>2026-04-28T13:40:50.999Z</time></trkpt><trkpt lat="34.7548346544357" lon="-6.3437902626634655"><ele>18.0</ele><time>2026-04-28T13:40:51.999Z</time></trkpt><trkpt lat="34.75508309952909" lon="-6.34359267039087"><ele>19.0</ele><time>2026-04-28T13:40:52.999Z</time></trkpt><trkpt lat="34.75532846663727" lon="-6.343392011180156"><ele>20.0</ele><time>2026-04-28T13:40:53.999Z</time></trkpt><trkpt lat="34.75557157473922" lon="-6.343185377943824"><ele>20.0</ele><time>2026-04-28T13:40:54.999Z</time></trkpt><trkpt lat="34.75581089357379" lon="-6.342975564455767"><ele>20.0</ele><time>2026-04-28T13:40:55.999Z</time></trkpt><trkpt lat="34.756044601372146" lon="-6.342771726293729"><ele>20.0</ele><time>2026-04-28T13:40:56.999Z</time></trkpt><trkpt lat="34.7562715987138" lon="-6.342572064179871"><ele>20.0</ele><time>2026-04-28T13:40:57.999Z</time></trkpt><trkpt lat="34.7564986301384" lon="-6.34236493688939"><ele>20.0</ele><time>2026-04-28T13:40:58.999Z</time></trkpt><trkpt lat="34.75672931378758" lon="-6.34214522083515"><ele>20.0</ele><time>2026-04-28T13:40:59.999Z</time></trkpt><trkpt lat="34.756955690676634" lon="-6.341921894818826"><ele>20.0</ele><time>2026-04-28T13:41:00.999Z</time></trkpt><trkpt lat="34.75717841008753" lon="-6.341692247111362"><ele>20.0</ele><time>2026-04-28T13:41:01.999Z</time></trkpt><trkpt lat="34.757398589183225" lon="-6.341459909139048"><ele>20.5</ele><time>2026-04-28T13:41:02.999Z</time></trkpt><trkpt lat="34.75761783665711" lon="-6.341221803792015"><ele>21.0</ele><time>2026-04-28T13:41:03.999Z</time></trkpt><trkpt lat="34.75783470156996" lon="-6.34097893218718"><ele>21.0</ele><time>2026-04-28T13:41:04.999Z</time></trkpt><trkpt lat="34.758047667160625" lon="-6.34072970465625"><ele>21.0</ele><time>2026-04-28T13:41:05.999Z</time></trkpt><trkpt lat="34.75825712761094" lon="-6.34047554201711"><ele>20.0</ele><time>2026-04-28T13:41:06.999Z</time></trkpt><trkpt lat="34.75846362471518" lon="-6.340218540681823"><ele>19.0</ele><time>2026-04-28T13:41:07.999Z</time></trkpt><trkpt lat="34.75866748710904" lon="-6.339958104115492"><ele>19.5</ele><time>2026-04-28T13:41:08.999Z</time></trkpt><trkpt lat="34.75886949655447" lon="-6.339692644117818"><ele>20.0</ele><time>2026-04-28T13:41:09.999Z</time></trkpt><trkpt lat="34.75907072292094" lon="-6.33942487385205"><ele>20.0</ele><time>2026-04-28T13:41:10.999Z</time></trkpt><trkpt lat="34.7592720900308" lon="-6.3391548114991885"><ele>20.0</ele><time>2026-04-28T13:41:11.999Z</time></trkpt><trkpt lat="34.75947077630457" lon="-6.338882791320264"><ele>21.5</ele><time>2026-04-28T13:41:12.999Z</time></trkpt><trkpt lat="34.75966624465598" lon="-6.33860775756112"><ele>23.0</ele><time>2026-04-28T13:41:14Z</time></trkpt><trkpt lat="34.75985773108358" lon="-6.338330219161503"><ele>22.5</ele><time>2026-04-28T13:41:15Z</time></trkpt><trkpt lat="34.76004567615099" lon="-6.338049386789467"><ele>22.0</ele><time>2026-04-28T13:41:16Z</time></trkpt><trkpt lat="34.760230370342946" lon="-6.337763705457516"><ele>22.5</ele><time>2026-04-28T13:41:17Z</time></trkpt><trkpt lat="34.7604105656667" lon="-6.337475396639785"><ele>23.0</ele><time>2026-04-28T13:41:18Z</time></trkpt><trkpt lat="34.7605886662775" lon="-6.33718271784189"><ele>23.0</ele><time>2026-04-28T13:41:19Z</time></trkpt><trkpt lat="34.76076494989564" lon="-6.336888992858549"><ele>23.0</ele><time>2026-04-28T13:41:20Z</time></trkpt><trkpt lat="34.760937034673844" lon="-6.336592064499981"><ele>23.5</ele><time>2026-04-28T13:41:21Z</time></trkpt><trkpt lat="34.76110552218831" lon="-6.3362934958157915"><ele>24.0</ele><time>2026-04-28T13:41:22Z</time></trkpt><trkpt lat="34.76127253622392" lon="-6.3359928452898195"><ele>24.0</ele><time>2026-04-28T13:41:23Z</time></trkpt><trkpt lat="34.761436997246385" lon="-6.335690604689952"><ele>24.0</ele><time>2026-04-28T13:41:24Z</time></trkpt><trkpt lat="34.76159782501894" lon="-6.335385280734746"><ele>23.0</ele><time>2026-04-28T13:41:25Z</time></trkpt><trkpt lat="34.7617567090314" lon="-6.335077895095676"><ele>22.0</ele><time>2026-04-28T13:41:26Z</time></trkpt><trkpt lat="34.761916919286655" lon="-6.3347712727774175"><ele>24.5</ele><time>2026-04-28T13:41:27Z</time></trkpt><trkpt lat="34.76207979886811" lon="-6.334469709007186"><ele>27.0</ele><time>2026-04-28T13:41:28Z</time></trkpt><trkpt lat="34.76224210680344" lon="-6.3341693685636"><ele>28.5</ele><time>2026-04-28T13:41:29Z</time></trkpt><trkpt lat="34.762404073171915" lon="-6.333867953854302"><ele>30.0</ele><time>2026-04-28T13:41:30Z</time></trkpt><trkpt lat="34.762565899583585" lon="-6.333563745392584"><ele>29.5</ele><time>2026-04-28T13:41:31Z</time></trkpt><trkpt lat="34.76272687154087" lon="-6.333259498711907"><ele>29.0</ele><time>2026-04-28T13:41:32Z</time></trkpt><trkpt lat="34.76288869334449" lon="-6.332955625619037"><ele>28.0</ele><time>2026-04-28T13:41:33Z</time></trkpt><trkpt lat="34.76305130017507" lon="-6.332651825427073"><ele>27.0</ele><time>2026-04-28T13:41:34Z</time></trkpt><trkpt lat="34.76321449497781" lon="-6.332348184387875"><ele>26.5</ele><time>2026-04-28T13:41:35Z</time></trkpt><trkpt lat="34.763378224944404" lon="-6.332043645577696"><ele>26.0</ele><time>2026-04-28T13:41:36Z</time></trkpt><trkpt lat="34.763542197412306" lon="-6.331740416865371"><ele>26.0</ele><time>2026-04-28T13:41:37Z</time></trkpt><trkpt lat="34.76370637428579" lon="-6.331437374892985"><ele>26.0</ele><time>2026-04-28T13:41:38Z</time></trkpt><trkpt lat="34.763870360880425" lon="-6.331134794952792"><ele>26.0</ele><time>2026-04-28T13:41:39Z</time></trkpt><trkpt lat="34.764032643126214" lon="-6.330831612493871"><ele>26.0</ele><time>2026-04-28T13:41:40Z</time></trkpt><trkpt lat="34.76419359306855" lon="-6.330527142913824"><ele>29.0</ele><time>2026-04-28T13:41:41Z</time></trkpt><trkpt lat="34.764354621873245" lon="-6.330222682175398"><ele>32.0</ele><time>2026-04-28T13:41:42Z</time></trkpt><trkpt lat="34.76451707819666" lon="-6.329916288762218"><ele>28.0</ele><time>2026-04-28T13:41:43Z</time></trkpt><trkpt lat="34.76468157946283" lon="-6.329613273671464"><ele>24.0</ele><time>2026-04-28T13:41:44Z</time></trkpt><trkpt lat="34.76484629289431" lon="-6.329315420656417"><ele>24.0</ele><time>2026-04-28T13:41:45Z</time></trkpt><trkpt lat="34.76501060923312" lon="-6.329016331382677"><ele>24.0</ele><time>2026-04-28T13:41:46Z</time></trkpt><trkpt lat="34.76517225968422" lon="-6.328714530219132"><ele>24.5</ele><time>2026-04-28T13:41:47Z</time></trkpt><trkpt lat="34.765334602169794" lon="-6.328409876515008"><ele>25.0</ele><time>2026-04-28T13:41:48Z</time></trkpt><trkpt lat="34.765497844851154" lon="-6.328106467476166"><ele>23.0</ele><time>2026-04-28T13:41:49Z</time></trkpt><trkpt lat="34.765660154212924" lon="-6.3278030966495"><ele>21.0</ele><time>2026-04-28T13:41:50Z</time></trkpt><trkpt lat="34.765821112207554" lon="-6.327502799261229"><ele>19.5</ele><time>2026-04-28T13:41:51Z</time></trkpt><trkpt lat="34.76598258896159" lon="-6.327200171624125"><ele>18.0</ele><time>2026-04-28T13:41:52Z</time></trkpt><trkpt lat="34.76614510533168" lon="-6.32689666737413"><ele>18.0</ele><time>2026-04-28T13:41:53Z</time></trkpt><trkpt lat="34.76630724853322" lon="-6.326594402298949"><ele>18.0</ele><time>2026-04-28T13:41:54Z</time></trkpt><trkpt lat="34.76646919047988" lon="-6.3262915176891825"><ele>19.5</ele><time>2026-04-28T13:41:55Z</time></trkpt><trkpt lat="34.76663201648905" lon="-6.3259886211980945"><ele>21.0</ele><time>2026-04-28T13:41:56Z</time></trkpt><trkpt lat="34.76679538518509" lon="-6.32568622176161"><ele>22.5</ele><time>2026-04-28T13:41:57Z</time></trkpt><trkpt lat="34.766960132821765" lon="-6.32538536333815"><ele>24.0</ele><time>2026-04-28T13:41:58Z</time></trkpt><trkpt lat="34.76712694488494" lon="-6.32508506269835"><ele>24.0</ele><time>2026-04-28T13:41:59Z</time></trkpt><trkpt lat="34.76729329151389" lon="-6.324787188131024"><ele>24.0</ele><time>2026-04-28T13:42:00Z</time></trkpt><trkpt lat="34.76746327326228" lon="-6.324489254401519"><ele>24.0</ele><time>2026-04-28T13:42:01Z</time></trkpt><trkpt lat="34.767639014357556" lon="-6.3241973267798475"><ele>24.0</ele><time>2026-04-28T13:42:02Z</time></trkpt><trkpt lat="34.767818024261786" lon="-6.3239103238293035"><ele>24.0</ele><time>2026-04-28T13:42:03Z</time></trkpt><trkpt lat="34.767998614216694" lon="-6.323626747392549"><ele>24.0</ele><time>2026-04-28T13:42:04Z</time></trkpt><trkpt lat="34.76818193603542" lon="-6.323341061060369"><ele>23.5</ele><time>2026-04-28T13:42:05Z</time></trkpt><trkpt lat="34.76837061827301" lon="-6.323058672747803"><ele>23.0</ele><time>2026-04-28T13:42:06Z</time></trkpt><trkpt lat="34.76856326510599" lon="-6.322779785531945"><ele>21.0</ele><time>2026-04-28T13:42:07Z</time></trkpt><trkpt lat="34.768757155398106" lon="-6.322502218923637"><ele>19.0</ele><time>2026-04-28T13:42:08Z</time></trkpt><trkpt lat="34.76895251208495" lon="-6.322226979277415"><ele>18.5</ele><time>2026-04-28T13:42:09Z</time></trkpt><trkpt lat="34.76915111472584" lon="-6.321955366812828"><ele>18.0</ele><time>2026-04-28T13:42:10Z</time></trkpt><trkpt lat="34.76935218014646" lon="-6.321688674072605"><ele>17.0</ele><time>2026-04-28T13:42:11Z</time></trkpt><trkpt lat="34.76955731742536" lon="-6.321427809029719"><ele>16.0</ele><time>2026-04-28T13:42:12Z</time></trkpt><trkpt lat="34.76976694092082" lon="-6.32116923572516"><ele>15.5</ele><time>2026-04-28T13:42:13Z</time></trkpt><trkpt lat="34.769977586298495" lon="-6.320913602341837"><ele>15.0</ele><time>2026-04-28T13:42:14Z</time></trkpt><trkpt lat="34.77019004709979" lon="-6.320657876360663"><ele>13.5</ele><time>2026-04-28T13:42:15Z</time></trkpt><trkpt lat="34.770404823367265" lon="-6.3204041998073235"><ele>12.0</ele><time>2026-04-28T13:42:16Z</time></trkpt><trkpt lat="34.77062294558573" lon="-6.320154901058337"><ele>12.0</ele><time>2026-04-28T13:42:17Z</time></trkpt><trkpt lat="34.7708463829572" lon="-6.319914814270706"><ele>12.0</ele><time>2026-04-28T13:42:18Z</time></trkpt><trkpt lat="34.77107231390608" lon="-6.319682687045608"><ele>10.0</ele><time>2026-04-28T13:42:19Z</time></trkpt><trkpt lat="34.771300669479054" lon="-6.319454518610529"><ele>8.0</ele><time>2026-04-28T13:42:20Z</time></trkpt><trkpt lat="34.77152932160125" lon="-6.3192250783183725"><ele>8.0</ele><time>2026-04-28T13:42:21Z</time></trkpt><trkpt lat="34.77176042838429" lon="-6.31899674195679"><ele>8.0</ele><time>2026-04-28T13:42:22Z</time></trkpt><trkpt lat="34.77199579307512" lon="-6.318770689768835"><ele>9.0</ele><time>2026-04-28T13:42:23Z</time></trkpt><trkpt lat="34.77223233835196" lon="-6.318551432155923"><ele>10.0</ele><time>2026-04-28T13:42:24Z</time></trkpt><trkpt lat="34.77247058298678" lon="-6.3183369362214625"><ele>8.5</ele><time>2026-04-28T13:42:25Z</time></trkpt><trkpt lat="34.77271149895818" lon="-6.318125662840305"><ele>7.0</ele><time>2026-04-28T13:42:26Z</time></trkpt><trkpt lat="34.77295576436037" lon="-6.3179199690591865"><ele>7.0</ele><time>2026-04-28T13:42:27Z</time></trkpt><trkpt lat="34.77320169351679" lon="-6.317718385889528"><ele>7.0</ele><time>2026-04-28T13:42:28Z</time></trkpt><trkpt lat="34.77344908553563" lon="-6.317521247540734"><ele>7.5</ele><time>2026-04-28T13:42:29Z</time></trkpt><trkpt lat="34.77369862599719" lon="-6.317326497002283"><ele>8.0</ele><time>2026-04-28T13:42:30Z</time></trkpt><trkpt lat="34.77395052941722" lon="-6.31713493939352"><ele>7.0</ele><time>2026-04-28T13:42:31Z</time></trkpt><trkpt lat="34.774202698652175" lon="-6.3169473464514665"><ele>6.0</ele><time>2026-04-28T13:42:32Z</time></trkpt><trkpt lat="34.774455553155505" lon="-6.316763118523588"><ele>11.0</ele><time>2026-04-28T13:42:33Z</time></trkpt><trkpt lat="34.774709716873275" lon="-6.316584653739672"><ele>16.0</ele><time>2026-04-28T13:42:34Z</time></trkpt><trkpt lat="34.77496621112314" lon="-6.316410478232635"><ele>16.5</ele><time>2026-04-28T13:42:35Z</time></trkpt><trkpt lat="34.77522458726136" lon="-6.316242437903355"><ele>17.0</ele><time>2026-04-28T13:42:36Z</time></trkpt><trkpt lat="34.775485212178566" lon="-6.316078906687635"><ele>17.0</ele><time>2026-04-28T13:42:37Z</time></trkpt><trkpt lat="34.775747467655904" lon="-6.315920544392508"><ele>17.0</ele><time>2026-04-28T13:42:38Z</time></trkpt><trkpt lat="34.77601233437714" lon="-6.315765774704121"><ele>19.0</ele><time>2026-04-28T13:42:39Z</time></trkpt><trkpt lat="34.776279751589946" lon="-6.315611491608706"><ele>21.0</ele><time>2026-04-28T13:42:40Z</time></trkpt><trkpt lat="34.776549828670944" lon="-6.315458603378926"><ele>21.0</ele><time>2026-04-28T13:42:41Z</time></trkpt><trkpt lat="34.77682058095504" lon="-6.3153082037456825"><ele>21.0</ele><time>2026-04-28T13:42:42Z</time></trkpt><trkpt lat="34.77709334409475" lon="-6.315164654218784"><ele>21.0</ele><time>2026-04-28T13:42:42.999Z</time></trkpt><trkpt lat="34.77736752570956" lon="-6.31502714949563"><ele>21.0</ele><time>2026-04-28T13:42:43.999Z</time></trkpt><trkpt lat="34.777641688239726" lon="-6.314893434951071"><ele>19.5</ele><time>2026-04-28T13:42:44.999Z</time></trkpt><trkpt lat="34.77791631269104" lon="-6.314757521721917"><ele>18.0</ele><time>2026-04-28T13:42:45.999Z</time></trkpt><trkpt lat="34.77819208132334" lon="-6.314618712949635"><ele>21.0</ele><time>2026-04-28T13:42:46.999Z</time></trkpt><trkpt lat="34.778468553018335" lon="-6.314480416821817"><ele>24.0</ele><time>2026-04-28T13:42:47.999Z</time></trkpt><trkpt lat="34.77874426661042" lon="-6.314345501159165"><ele>24.0</ele><time>2026-04-28T13:42:48.999Z</time></trkpt><trkpt lat="34.779020387311405" lon="-6.31421150282862"><ele>24.0</ele><time>2026-04-28T13:42:49.999Z</time></trkpt><trkpt lat="34.77929590229304" lon="-6.31407479427016"><ele>25.0</ele><time>2026-04-28T13:42:50.999Z</time></trkpt><trkpt lat="34.77956900068348" lon="-6.31392981841144"><ele>26.0</ele><time>2026-04-28T13:42:51.999Z</time></trkpt><trkpt lat="34.77983528018796" lon="-6.31377256493951"><ele>26.0</ele><time>2026-04-28T13:42:52.999Z</time></trkpt><trkpt lat="34.78009953448418" lon="-6.313607976246381"><ele>26.0</ele><time>2026-04-28T13:42:53.999Z</time></trkpt><trkpt lat="34.78036134420767" lon="-6.31344034471857"><ele>24.0</ele><time>2026-04-28T13:42:54.999Z</time></trkpt><trkpt lat="34.78062246222081" lon="-6.313264710237876"><ele>22.0</ele><time>2026-04-28T13:42:55.999Z</time></trkpt><trkpt lat="34.78087977783438" lon="-6.313086438288473"><ele>25.0</ele><time>2026-04-28T13:42:56.999Z</time></trkpt><trkpt lat="34.78113721095842" lon="-6.3129069210181825"><ele>28.0</ele><time>2026-04-28T13:42:57.999Z</time></trkpt><trkpt lat="34.78139610870543" lon="-6.312722953275849"><ele>28.0</ele><time>2026-04-28T13:42:58.999Z</time></trkpt><trkpt lat="34.78165362721255" lon="-6.312534306742542"><ele>28.0</ele><time>2026-04-28T13:42:59.999Z</time></trkpt><trkpt lat="34.78190760368951" lon="-6.31233740635533"><ele>28.5</ele><time>2026-04-28T13:43:00.999Z</time></trkpt><trkpt lat="34.782156577928404" lon="-6.312135891548093"><ele>29.0</ele><time>2026-04-28T13:43:01.999Z</time></trkpt><trkpt lat="34.78240333953784" lon="-6.311927659638159"><ele>29.0</ele><time>2026-04-28T13:43:02.999Z</time></trkpt><trkpt lat="34.78264807901268" lon="-6.311717787513217"><ele>29.0</ele><time>2026-04-28T13:43:03.999Z</time></trkpt><trkpt lat="34.78288992864376" lon="-6.311502336648287"><ele>29.5</ele><time>2026-04-28T13:43:04.999Z</time></trkpt><trkpt lat="34.783129634274445" lon="-6.31128231560823"><ele>30.0</ele><time>2026-04-28T13:43:05.999Z</time></trkpt><trkpt lat="34.783364958825715" lon="-6.311058634856419"><ele>29.0</ele><time>2026-04-28T13:43:06.999Z</time></trkpt><trkpt lat="34.78359843697652" lon="-6.310832009576166"><ele>28.0</ele><time>2026-04-28T13:43:07.999Z</time></trkpt><trkpt lat="34.783829791007896" lon="-6.310600283590927"><ele>30.5</ele><time>2026-04-28T13:43:08.999Z</time></trkpt><trkpt lat="34.784056460116794" lon="-6.310361782958006"><ele>33.0</ele><time>2026-04-28T13:43:09.999Z</time></trkpt><trkpt lat="34.78427737684525" lon="-6.3101168708296385"><ele>31.5</ele><time>2026-04-28T13:43:10.999Z</time></trkpt><trkpt lat="34.784495176177955" lon="-6.309866822433134"><ele>30.0</ele><time>2026-04-28T13:43:11.999Z</time></trkpt><trkpt lat="34.78470878004956" lon="-6.309610942342371"><ele>30.0</ele><time>2026-04-28T13:43:12.999Z</time></trkpt><trkpt lat="34.7849167785456" lon="-6.309351441820173"><ele>30.0</ele><time>2026-04-28T13:43:13.999Z</time></trkpt><trkpt lat="34.78511991847698" lon="-6.309087325720423"><ele>29.5</ele><time>2026-04-28T13:43:14.999Z</time></trkpt><trkpt lat="34.785320094229405" lon="-6.308822401083932"><ele>29.0</ele><time>2026-04-28T13:43:15.999Z</time></trkpt><trkpt lat="34.785518451181524" lon="-6.308554580930577"><ele>29.0</ele><time>2026-04-28T13:43:16.999Z</time></trkpt><trkpt lat="34.78571311483067" lon="-6.308285748071598"><ele>29.0</ele><time>2026-04-28T13:43:17.999Z</time></trkpt><trkpt lat="34.78590905175616" lon="-6.308015784167754"><ele>29.0</ele><time>2026-04-28T13:43:18.999Z</time></trkpt><trkpt lat="34.7861055803898" lon="-6.307747326722653"><ele>29.0</ele><time>2026-04-28T13:43:20Z</time></trkpt><trkpt lat="34.78630374904483" lon="-6.307480283765548"><ele>31.0</ele><time>2026-04-28T13:43:21Z</time></trkpt><trkpt lat="34.78650425942198" lon="-6.307213370425861"><ele>33.0</ele><time>2026-04-28T13:43:22Z</time></trkpt><trkpt lat="34.786703723428936" lon="-6.30694605302985"><ele>30.5</ele><time>2026-04-28T13:43:23Z</time></trkpt><trkpt lat="34.78690124813644" lon="-6.306678592658359"><ele>28.0</ele><time>2026-04-28T13:43:24Z</time></trkpt><trkpt lat="34.78710103744186" lon="-6.306409817486622"><ele>28.0</ele><time>2026-04-28T13:43:25Z</time></trkpt><trkpt lat="34.787305193934905" lon="-6.306146423618101"><ele>28.0</ele><time>2026-04-28T13:43:26Z</time></trkpt><trkpt lat="34.78751318084156" lon="-6.305891618964495"><ele>27.5</ele><time>2026-04-28T13:43:27Z</time></trkpt><trkpt lat="34.787727271794814" lon="-6.305642822563493"><ele>27.0</ele><time>2026-04-28T13:43:28Z</time></trkpt><trkpt lat="34.78794157615511" lon="-6.305397932818237"><ele>27.0</ele><time>2026-04-28T13:43:29Z</time></trkpt><trkpt lat="34.788160928775454" lon="-6.305156333426309"><ele>27.0</ele><time>2026-04-28T13:43:30Z</time></trkpt><trkpt lat="34.788383307865296" lon="-6.3049163248031626"><ele>28.0</ele><time>2026-04-28T13:43:31Z</time></trkpt><trkpt lat="34.78860689428116" lon="-6.304679077159866"><ele>29.0</ele><time>2026-04-28T13:43:32Z</time></trkpt><trkpt lat="34.788830997927555" lon="-6.304445501827673"><ele>29.0</ele><time>2026-04-28T13:43:33Z</time></trkpt><trkpt lat="34.78905780497872" lon="-6.304211253018754"><ele>29.0</ele><time>2026-04-28T13:43:34Z</time></trkpt><trkpt lat="34.7892838739169" lon="-6.303977937626415"><ele>30.5</ele><time>2026-04-28T13:43:35Z</time></trkpt><trkpt lat="34.7895086312517" lon="-6.303742863321255"><ele>32.0</ele><time>2026-04-28T13:43:36Z</time></trkpt><trkpt lat="34.78973018685514" lon="-6.303503391335265"><ele>32.0</ele><time>2026-04-28T13:43:37Z</time></trkpt><trkpt lat="34.78994756005259" lon="-6.303259095443323"><ele>32.0</ele><time>2026-04-28T13:43:38Z</time></trkpt><trkpt lat="34.79016148540776" lon="-6.303011142958144"><ele>31.5</ele><time>2026-04-28T13:43:39Z</time></trkpt><trkpt lat="34.79037181299238" lon="-6.302759386396144"><ele>31.0</ele><time>2026-04-28T13:43:40Z</time></trkpt><trkpt lat="34.79058039177883" lon="-6.30250193982415"><ele>35.5</ele><time>2026-04-28T13:43:41Z</time></trkpt><trkpt lat="34.79078589274974" lon="-6.302239903707871"><ele>40.0</ele><time>2026-04-28T13:43:42Z</time></trkpt><trkpt lat="34.79098766455161" lon="-6.301973820259374"><ele>34.0</ele><time>2026-04-28T13:43:43Z</time></trkpt><trkpt lat="34.79118569522395" lon="-6.301703465728702"><ele>28.0</ele><time>2026-04-28T13:43:44Z</time></trkpt><trkpt lat="34.791379438156206" lon="-6.301428548810653"><ele>29.5</ele><time>2026-04-28T13:43:45Z</time></trkpt><trkpt lat="34.79156863592848" lon="-6.301148175515655"><ele>31.0</ele><time>2026-04-28T13:43:46Z</time></trkpt><trkpt lat="34.791754827721334" lon="-6.300863700979918"><ele>30.5</ele><time>2026-04-28T13:43:47Z</time></trkpt><trkpt lat="34.79193880088489" lon="-6.300575653666173"><ele>30.0</ele><time>2026-04-28T13:43:48Z</time></trkpt><trkpt lat="34.7921171453352" lon="-6.300282510440758"><ele>30.0</ele><time>2026-04-28T13:43:49Z</time></trkpt><trkpt lat="34.79229138678282" lon="-6.299985495143634"><ele>30.0</ele><time>2026-04-28T13:43:50Z</time></trkpt><trkpt lat="34.7924620671991" lon="-6.299684736266119"><ele>30.0</ele><time>2026-04-28T13:43:51Z</time></trkpt><trkpt lat="34.792628651303964" lon="-6.299382412287263"><ele>30.0</ele><time>2026-04-28T13:43:52Z</time></trkpt><trkpt lat="34.7927917843002" lon="-6.299075019562246"><ele>29.5</ele><time>2026-04-28T13:43:53Z</time></trkpt><trkpt lat="34.79295008915935" lon="-6.29876613999172"><ele>29.0</ele><time>2026-04-28T13:43:54Z</time></trkpt><trkpt lat="34.79310521233619" lon="-6.298454423960329"><ele>29.0</ele><time>2026-04-28T13:43:55Z</time></trkpt><trkpt lat="34.793255447274284" lon="-6.298138267941848"><ele>29.0</ele><time>2026-04-28T13:43:56Z</time></trkpt><trkpt lat="34.793400743882124" lon="-6.2978194472361375"><ele>27.5</ele><time>2026-04-28T13:43:57Z</time></trkpt><trkpt lat="34.79354104156374" lon="-6.2974985300494"><ele>26.0</ele><time>2026-04-28T13:43:58Z</time></trkpt><trkpt lat="34.79367821712437" lon="-6.297174417117696"><ele>25.5</ele><time>2026-04-28T13:43:59Z</time></trkpt><trkpt lat="34.793811617781195" lon="-6.296848383260519"><ele>25.0</ele><time>2026-04-28T13:44:00Z</time></trkpt><trkpt lat="34.793938586297905" lon="-6.296518722286659"><ele>25.5</ele><time>2026-04-28T13:44:01Z</time></trkpt><trkpt lat="34.79405891105932" lon="-6.296186346480827"><ele>26.0</ele><time>2026-04-28T13:44:02Z</time></trkpt><trkpt lat="34.79417521887831" lon="-6.295852499004067"><ele>26.0</ele><time>2026-04-28T13:44:03Z</time></trkpt><trkpt lat="34.79428865834721" lon="-6.295516377787259"><ele>26.0</ele><time>2026-04-28T13:44:04Z</time></trkpt><trkpt lat="34.79439838041655" lon="-6.295177164438519"><ele>24.5</ele><time>2026-04-28T13:44:05Z</time></trkpt><trkpt lat="34.794503416641085" lon="-6.2948369838239"><ele>23.0</ele><time>2026-04-28T13:44:06Z</time></trkpt><trkpt lat="34.794603153735125" lon="-6.29449705512451"><ele>23.0</ele><time>2026-04-28T13:44:07Z</time></trkpt><trkpt lat="34.79469788800866" lon="-6.294154914028246"><ele>23.0</ele><time>2026-04-28T13:44:08Z</time></trkpt><trkpt lat="34.79478720649067" lon="-6.293812390132524"><ele>24.0</ele><time>2026-04-28T13:44:09Z</time></trkpt><trkpt lat="34.79487360687957" lon="-6.293469396696479"><ele>25.0</ele><time>2026-04-28T13:44:10Z</time></trkpt><trkpt lat="34.794956438640966" lon="-6.293125111007308"><ele>25.5</ele><time>2026-04-28T13:44:11Z</time></trkpt><trkpt lat="34.79503511848689" lon="-6.292776989709367"><ele>26.0</ele><time>2026-04-28T13:44:12Z</time></trkpt><trkpt lat="34.7951099587305" lon="-6.292427771204394"><ele>24.5</ele><time>2026-04-28T13:44:13Z</time></trkpt><trkpt lat="34.79518155288327" lon="-6.292077030400125"><ele>23.0</ele><time>2026-04-28T13:44:14Z</time></trkpt><trkpt lat="34.795250104084744" lon="-6.291725396798793"><ele>23.0</ele><time>2026-04-28T13:44:15Z</time></trkpt><trkpt lat="34.795315103005834" lon="-6.291372456895225"><ele>23.0</ele><time>2026-04-28T13:44:16Z</time></trkpt><trkpt lat="34.795379410462935" lon="-6.291021329693431"><ele>23.0</ele><time>2026-04-28T13:44:17Z</time></trkpt><trkpt lat="34.79544238533063" lon="-6.290666986998713"><ele>23.0</ele><time>2026-04-28T13:44:18Z</time></trkpt><trkpt lat="34.795506244866075" lon="-6.290317158383092"><ele>23.5</ele><time>2026-04-28T13:44:19Z</time></trkpt><trkpt lat="34.79557113976036" lon="-6.289966730162431"><ele>24.0</ele><time>2026-04-28T13:44:20Z</time></trkpt><trkpt lat="34.7956350414342" lon="-6.289614698721753"><ele>24.5</ele><time>2026-04-28T13:44:21Z</time></trkpt><trkpt lat="34.79569871998546" lon="-6.2892642884844525"><ele>25.0</ele><time>2026-04-28T13:44:22Z</time></trkpt><trkpt lat="34.79576205838495" lon="-6.2889131746957405"><ele>23.0</ele><time>2026-04-28T13:44:23Z</time></trkpt><trkpt lat="34.795826024511165" lon="-6.288562641597115"><ele>21.0</ele><time>2026-04-28T13:44:24Z</time></trkpt><trkpt lat="34.79588857481051" lon="-6.288211527610017"><ele>21.0</ele><time>2026-04-28T13:44:24.999Z</time></trkpt><trkpt lat="34.79594960550289" lon="-6.287859723163973"><ele>21.0</ele><time>2026-04-28T13:44:25.999Z</time></trkpt><trkpt lat="34.796008870333466" lon="-6.28750880435448"><ele>20.5</ele><time>2026-04-28T13:44:26.999Z</time></trkpt><trkpt lat="34.79606711188413" lon="-6.28715554190527"><ele>20.0</ele><time>2026-04-28T13:44:27.999Z</time></trkpt><trkpt lat="34.796123206908334" lon="-6.286803323032621"><ele>20.0</ele><time>2026-04-28T13:44:28.999Z</time></trkpt><trkpt lat="34.79617779801566" lon="-6.286448004152926"><ele>20.0</ele><time>2026-04-28T13:44:29.999Z</time></trkpt><trkpt lat="34.79623349679053" lon="-6.286093753021685"><ele>20.0</ele><time>2026-04-28T13:44:30.999Z</time></trkpt><trkpt lat="34.796290544873585" lon="-6.285737218129605"><ele>20.0</ele><time>2026-04-28T13:44:31.999Z</time></trkpt><trkpt lat="34.796349900941685" lon="-6.285380937405026"><ele>20.0</ele><time>2026-04-28T13:44:32.999Z</time></trkpt><trkpt lat="34.79641081944422" lon="-6.285024830422561"><ele>20.0</ele><time>2026-04-28T13:44:33.999Z</time></trkpt><trkpt lat="34.79647216019519" lon="-6.284670751439551"><ele>18.5</ele><time>2026-04-28T13:44:34.999Z</time></trkpt><trkpt lat="34.796533937058456" lon="-6.2843151738592375"><ele>17.0</ele><time>2026-04-28T13:44:35.999Z</time></trkpt><trkpt lat="34.7965958577002" lon="-6.283959955458284"><ele>16.5</ele><time>2026-04-28T13:44:36.999Z</time></trkpt><trkpt lat="34.79665980222709" lon="-6.283606658085685"><ele>16.0</ele><time>2026-04-28T13:44:37.999Z</time></trkpt><trkpt lat="34.79672691953629" lon="-6.283253377354337"><ele>16.5</ele><time>2026-04-28T13:44:38.999Z</time></trkpt><trkpt lat="34.79679646771772" lon="-6.282900282782314"><ele>17.0</ele><time>2026-04-28T13:44:39.999Z</time></trkpt><trkpt lat="34.79686952408795" lon="-6.282549718588228"><ele>16.5</ele><time>2026-04-28T13:44:40.999Z</time></trkpt><trkpt lat="34.79694721928406" lon="-6.282201248226193"><ele>16.0</ele><time>2026-04-28T13:44:41.999Z</time></trkpt><trkpt lat="34.79702907836465" lon="-6.281855875033505"><ele>16.0</ele><time>2026-04-28T13:44:42.999Z</time></trkpt><trkpt lat="34.79711668695314" lon="-6.281511397009172"><ele>16.0</ele><time>2026-04-28T13:44:43.999Z</time></trkpt><trkpt lat="34.797209607777305" lon="-6.2811698682029435"><ele>15.5</ele><time>2026-04-28T13:44:44.999Z</time></trkpt><trkpt lat="34.797307363075355" lon="-6.280830027636865"><ele>15.0</ele><time>2026-04-28T13:44:45.999Z</time></trkpt><trkpt lat="34.79740789103048" lon="-6.280493102798117"><ele>16.5</ele><time>2026-04-28T13:44:46.999Z</time></trkpt><trkpt lat="34.79751135928929" lon="-6.280155104811606"><ele>18.0</ele><time>2026-04-28T13:44:47.999Z</time></trkpt><trkpt lat="34.79761969519426" lon="-6.279818296756117"><ele>17.0</ele><time>2026-04-28T13:44:48.999Z</time></trkpt><trkpt lat="34.79773219700102" lon="-6.279484418680752"><ele>16.0</ele><time>2026-04-28T13:44:49.999Z</time></trkpt><trkpt lat="34.797848149658165" lon="-6.2791533205067385"><ele>15.5</ele><time>2026-04-28T13:44:50.999Z</time></trkpt><trkpt lat="34.797969451348905" lon="-6.278826385289033"><ele>15.0</ele><time>2026-04-28T13:44:51.999Z</time></trkpt><trkpt lat="34.79809489577394" lon="-6.278501241035554"><ele>15.0</ele><time>2026-04-28T13:44:52.999Z</time></trkpt><trkpt lat="34.7982257341201" lon="-6.278177764283888"><ele>15.0</ele><time>2026-04-28T13:44:53.999Z</time></trkpt><trkpt lat="34.798359689669816" lon="-6.27785663106274"><ele>14.5</ele><time>2026-04-28T13:44:54.999Z</time></trkpt><trkpt lat="34.79849444165226" lon="-6.277535594142573"><ele>14.0</ele><time>2026-04-28T13:44:55.999Z</time></trkpt><trkpt lat="34.798629534462215" lon="-6.2772148404723245"><ele>14.0</ele><time>2026-04-28T13:44:56.999Z</time></trkpt><trkpt lat="34.79876509145511" lon="-6.276892641998184"><ele>14.0</ele><time>2026-04-28T13:44:57.999Z</time></trkpt><trkpt lat="34.79890006227333" lon="-6.276571267014247"><ele>15.0</ele><time>2026-04-28T13:44:58.999Z</time></trkpt><trkpt lat="34.799035376743" lon="-6.276249152544972"><ele>16.0</ele><time>2026-04-28T13:44:59.999Z</time></trkpt><trkpt lat="34.79917078010631" lon="-6.275925396403184"><ele>16.5</ele><time>2026-04-28T13:45:00.999Z</time></trkpt><trkpt lat="34.799306558660355" lon="-6.275600422804568"><ele>17.0</ele><time>2026-04-28T13:45:01.999Z</time></trkpt><trkpt lat="34.799441013427526" lon="-6.2752742121423095"><ele>17.0</ele><time>2026-04-28T13:45:02.999Z</time></trkpt><trkpt lat="34.79957402639562" lon="-6.274947563663453"><ele>17.0</ele><time>2026-04-28T13:45:03.999Z</time></trkpt><trkpt lat="34.79970485352661" lon="-6.274620929013848"><ele>18.0</ele><time>2026-04-28T13:45:04.999Z</time></trkpt><trkpt lat="34.799834388362605" lon="-6.274294981990304"><ele>19.0</ele><time>2026-04-28T13:45:05.999Z</time></trkpt><trkpt lat="34.799962086120296" lon="-6.273967950819033"><ele>19.5</ele><time>2026-04-28T13:45:06.999Z</time></trkpt><trkpt lat="34.80008721912882" lon="-6.273639828325918"><ele>20.0</ele><time>2026-04-28T13:45:07.999Z</time></trkpt><trkpt lat="34.80020923934799" lon="-6.273309963301851"><ele>20.5</ele><time>2026-04-28T13:45:08.999Z</time></trkpt><trkpt lat="34.800328178399944" lon="-6.272979009577355"><ele>21.0</ele><time>2026-04-28T13:45:09.999Z</time></trkpt><trkpt lat="34.80044210907032" lon="-6.272647737350784"><ele>21.0</ele><time>2026-04-28T13:45:10.999Z</time></trkpt><trkpt lat="34.800552150658895" lon="-6.27231590955346"><ele>21.0</ele><time>2026-04-28T13:45:11.999Z</time></trkpt><trkpt lat="34.80065859651199" lon="-6.27197923354776"><ele>21.0</ele><time>2026-04-28T13:45:12.999Z</time></trkpt><trkpt lat="34.8007584051895" lon="-6.271640696747132"><ele>21.0</ele><time>2026-04-28T13:45:13.999Z</time></trkpt><trkpt lat="34.80085241359673" lon="-6.271301424537046"><ele>20.0</ele><time>2026-04-28T13:45:14.999Z</time></trkpt><trkpt lat="34.80094130686941" lon="-6.270958056315528"><ele>19.0</ele><time>2026-04-28T13:45:15.999Z</time></trkpt><trkpt lat="34.8010254073409" lon="-6.27061089376799"><ele>18.5</ele><time>2026-04-28T13:45:16.999Z</time></trkpt><trkpt lat="34.801104710456265" lon="-6.2702633275220965"><ele>18.0</ele><time>2026-04-28T13:45:17.999Z</time></trkpt><trkpt lat="34.80118125021459" lon="-6.269913158287809"><ele>17.5</ele><time>2026-04-28T13:45:18.999Z</time></trkpt><trkpt lat="34.80125522547356" lon="-6.26956206765291"><ele>17.0</ele><time>2026-04-28T13:45:19.999Z</time></trkpt><trkpt lat="34.801329729122195" lon="-6.269210038033965"><ele>17.0</ele><time>2026-04-28T13:45:20.999Z</time></trkpt><trkpt lat="34.80140346643713" lon="-6.268856510112745"><ele>17.0</ele><time>2026-04-28T13:45:21.999Z</time></trkpt><trkpt lat="34.801477105983494" lon="-6.268502658117017"><ele>17.0</ele><time>2026-04-28T13:45:22.999Z</time></trkpt><trkpt lat="34.80155110688072" lon="-6.26814996739249"><ele>17.0</ele><time>2026-04-28T13:45:23.999Z</time></trkpt><trkpt lat="34.8016248677519" lon="-6.267797080344753"><ele>16.5</ele><time>2026-04-28T13:45:24.999Z</time></trkpt><trkpt lat="34.80169940281722" lon="-6.2674440232107"><ele>16.0</ele><time>2026-04-28T13:45:26Z</time></trkpt><trkpt lat="34.80177307265802" lon="-6.267088301183068"><ele>15.5</ele><time>2026-04-28T13:45:27Z</time></trkpt><trkpt lat="34.80184628269559" lon="-6.266735340108379"><ele>15.0</ele><time>2026-04-28T13:45:28Z</time></trkpt><trkpt lat="34.80191868305146" lon="-6.266382493639788"><ele>14.0</ele><time>2026-04-28T13:45:29Z</time></trkpt><trkpt lat="34.801990851177926" lon="-6.266031023523728"><ele>13.0</ele><time>2026-04-28T13:45:30Z</time></trkpt><trkpt lat="34.80206829294214" lon="-6.2656808970016264"><ele>12.0</ele><time>2026-04-28T13:45:31Z</time></trkpt><trkpt lat="34.80215152504557" lon="-6.265333351473535"><ele>11.0</ele><time>2026-04-28T13:45:32Z</time></trkpt><trkpt lat="34.80224068266348" lon="-6.264988202169675"><ele>11.0</ele><time>2026-04-28T13:45:33Z</time></trkpt><trkpt lat="34.802336966198915" lon="-6.264646308626206"><ele>11.0</ele><time>2026-04-28T13:45:34Z</time></trkpt><trkpt lat="34.80243857972589" lon="-6.264307330168627"><ele>11.0</ele><time>2026-04-28T13:45:35Z</time></trkpt><trkpt lat="34.80254427088153" lon="-6.263970251873828"><ele>11.0</ele><time>2026-04-28T13:45:36Z</time></trkpt><trkpt lat="34.80265329984197" lon="-6.263635361669626"><ele>11.0</ele><time>2026-04-28T13:45:37Z</time></trkpt><trkpt lat="34.80276532847722" lon="-6.263302027175854"><ele>11.0</ele><time>2026-04-28T13:45:38Z</time></trkpt><trkpt lat="34.8028795003353" lon="-6.262971625402712"><ele>11.0</ele><time>2026-04-28T13:45:39Z</time></trkpt><trkpt lat="34.80299814191884" lon="-6.2626415926054495"><ele>11.0</ele><time>2026-04-28T13:45:40Z</time></trkpt><trkpt lat="34.803121393507816" lon="-6.262314314767321"><ele>12.5</ele><time>2026-04-28T13:45:41Z</time></trkpt><trkpt lat="34.80325217813162" lon="-6.26198987174545"><ele>14.0</ele><time>2026-04-28T13:45:42Z</time></trkpt><trkpt lat="34.80338766834907" lon="-6.261669022973802"><ele>14.0</ele><time>2026-04-28T13:45:43Z</time></trkpt><trkpt lat="34.8035264415853" lon="-6.261351069664106"><ele>14.0</ele><time>2026-04-28T13:45:44Z</time></trkpt><trkpt lat="34.80366898892248" lon="-6.261035032772374"><ele>14.0</ele><time>2026-04-28T13:45:45Z</time></trkpt><trkpt lat="34.80381360014221" lon="-6.2607229822609565"><ele>14.0</ele><time>2026-04-28T13:45:46Z</time></trkpt><trkpt lat="34.80396197547463" lon="-6.260414351726093"><ele>14.5</ele><time>2026-04-28T13:45:47Z</time></trkpt><trkpt lat="34.80411488120417" lon="-6.260108347250808"><ele>15.0</ele><time>2026-04-28T13:45:48Z</time></trkpt><trkpt lat="34.804271255900225" lon="-6.2598039982750695"><ele>15.0</ele><time>2026-04-28T13:45:49Z</time></trkpt><trkpt lat="34.8044318908863" lon="-6.259502761072607"><ele>15.0</ele><time>2026-04-28T13:45:50Z</time></trkpt><trkpt lat="34.8045981754198" lon="-6.259204973479169"><ele>17.5</ele><time>2026-04-28T13:45:51Z</time></trkpt><trkpt lat="34.80476936478626" lon="-6.258910940414801"><ele>20.0</ele><time>2026-04-28T13:45:52Z</time></trkpt><trkpt lat="34.80494306548464" lon="-6.258620951609661"><ele>20.0</ele><time>2026-04-28T13:45:53Z</time></trkpt><trkpt lat="34.80511853867974" lon="-6.25833033793282"><ele>20.0</ele><time>2026-04-28T13:45:54Z</time></trkpt><trkpt lat="34.8052953992715" lon="-6.258039050099688"><ele>20.5</ele><time>2026-04-28T13:45:55Z</time></trkpt><trkpt lat="34.805471216663314" lon="-6.25774807358379"><ele>21.0</ele><time>2026-04-28T13:45:56Z</time></trkpt><trkpt lat="34.80564584695397" lon="-6.257458265041968"><ele>22.0</ele><time>2026-04-28T13:45:57Z</time></trkpt><trkpt lat="34.80582077828421" lon="-6.257167518345775"><ele>23.0</ele><time>2026-04-28T13:45:58Z</time></trkpt><trkpt lat="34.805996749651776" lon="-6.256876955170625"><ele>23.0</ele><time>2026-04-28T13:45:59Z</time></trkpt><trkpt lat="34.8061738938987" lon="-6.256588180275299"><ele>23.0</ele><time>2026-04-28T13:46:00Z</time></trkpt><trkpt lat="34.80635043972005" lon="-6.256297490954457"><ele>24.0</ele><time>2026-04-28T13:46:01Z</time></trkpt><trkpt lat="34.80652684703095" lon="-6.256004937413303"><ele>25.0</ele><time>2026-04-28T13:46:02Z</time></trkpt><trkpt lat="34.80670307467448" lon="-6.255712134893832"><ele>24.0</ele><time>2026-04-28T13:46:03Z</time></trkpt><trkpt lat="34.80687954762505" lon="-6.255420596097022"><ele>23.0</ele><time>2026-04-28T13:46:04Z</time></trkpt><trkpt lat="34.80705562850951" lon="-6.255127940078258"><ele>23.0</ele><time>2026-04-28T13:46:05Z</time></trkpt><trkpt lat="34.80723191546824" lon="-6.254837058645371"><ele>23.0</ele><time>2026-04-28T13:46:06Z</time></trkpt><trkpt lat="34.807407842182144" lon="-6.254545829647722"><ele>24.0</ele><time>2026-04-28T13:46:07Z</time></trkpt><trkpt lat="34.80758437389375" lon="-6.2542525610420245"><ele>25.0</ele><time>2026-04-28T13:46:08Z</time></trkpt><trkpt lat="34.807760123801245" lon="-6.2539578643911415"><ele>26.5</ele><time>2026-04-28T13:46:09Z</time></trkpt><trkpt lat="34.80793476049155" lon="-6.253664984141767"><ele>28.0</ele><time>2026-04-28T13:46:10Z</time></trkpt><trkpt lat="34.80811033606459" lon="-6.253372351434338"><ele>29.0</ele><time>2026-04-28T13:46:11Z</time></trkpt><trkpt lat="34.80828647872855" lon="-6.253079178855674"><ele>30.0</ele><time>2026-04-28T13:46:12Z</time></trkpt><trkpt lat="34.808462482383774" lon="-6.25278448193373"><ele>29.5</ele><time>2026-04-28T13:46:13Z</time></trkpt><trkpt lat="34.808637401789866" lon="-6.252490012953645"><ele>29.0</ele><time>2026-04-28T13:46:14Z</time></trkpt><trkpt lat="34.808813612939275" lon="-6.252197211802704"><ele>29.0</ele><time>2026-04-28T13:46:15Z</time></trkpt><trkpt lat="34.808989843459585" lon="-6.251904288975062"><ele>29.0</ele><time>2026-04-28T13:46:16Z</time></trkpt><trkpt lat="34.80916363221709" lon="-6.251614025661067"><ele>28.0</ele><time>2026-04-28T13:46:17Z</time></trkpt><trkpt lat="34.80933903144087" lon="-6.251321418880078"><ele>27.0</ele><time>2026-04-28T13:46:18Z</time></trkpt><trkpt lat="34.80951379139145" lon="-6.251027584016754"><ele>27.0</ele><time>2026-04-28T13:46:19Z</time></trkpt><trkpt lat="34.80968663544844" lon="-6.250733325580754"><ele>27.0</ele><time>2026-04-28T13:46:20Z</time></trkpt><trkpt lat="34.80986032496889" lon="-6.250439737484123"><ele>26.5</ele><time>2026-04-28T13:46:21Z</time></trkpt><trkpt lat="34.81003411452152" lon="-6.250146937847444"><ele>26.0</ele><time>2026-04-28T13:46:22Z</time></trkpt><trkpt lat="34.81020904240568" lon="-6.249851298292719"><ele>23.5</ele><time>2026-04-28T13:46:23Z</time></trkpt><trkpt lat="34.81038387133871" lon="-6.249556468818121"><ele>21.0</ele><time>2026-04-28T13:46:24Z</time></trkpt><trkpt lat="34.810558496904015" lon="-6.249263111407055"><ele>21.0</ele><time>2026-04-28T13:46:25Z</time></trkpt><trkpt lat="34.810732967721414" lon="-6.24897017687787"><ele>21.0</ele><time>2026-04-28T13:46:26Z</time></trkpt><trkpt lat="34.81090599601288" lon="-6.248674258416074"><ele>21.0</ele><time>2026-04-28T13:46:27Z</time></trkpt><trkpt lat="34.81108008172122" lon="-6.2483778346953125"><ele>21.0</ele><time>2026-04-28T13:46:28Z</time></trkpt><trkpt lat="34.8112549827094" lon="-6.248081103256606"><ele>20.0</ele><time>2026-04-28T13:46:29Z</time></trkpt><trkpt lat="34.81142950518744" lon="-6.24778675181275"><ele>19.0</ele><time>2026-04-28T13:46:29.999Z</time></trkpt><trkpt lat="34.811604126340306" lon="-6.247491269845226"><ele>19.5</ele><time>2026-04-28T13:46:30.999Z</time></trkpt><trkpt lat="34.811779961063046" lon="-6.247197576683926"><ele>20.0</ele><time>2026-04-28T13:46:31.999Z</time></trkpt><trkpt lat="34.811961143605544" lon="-6.246906941396813"><ele>20.0</ele><time>2026-04-28T13:46:32.999Z</time></trkpt><trkpt lat="34.81214176996071" lon="-6.246616848814031"><ele>20.0</ele><time>2026-04-28T13:46:33.999Z</time></trkpt><trkpt lat="34.81232550127157" lon="-6.246332562130075"><ele>20.0</ele><time>2026-04-28T13:46:34.999Z</time></trkpt><trkpt lat="34.81251557600551" lon="-6.246057657481867"><ele>20.0</ele><time>2026-04-28T13:46:35.999Z</time></trkpt><trkpt lat="34.81270711524532" lon="-6.24578338672339"><ele>19.5</ele><time>2026-04-28T13:46:36.999Z</time></trkpt><trkpt lat="34.81290175963427" lon="-6.245512294628819"><ele>19.0</ele><time>2026-04-28T13:46:37.999Z</time></trkpt><trkpt lat="34.81310251519346" lon="-6.245248687181875"><ele>19.0</ele><time>2026-04-28T13:46:38.999Z</time></trkpt><trkpt lat="34.81330702849878" lon="-6.244987592528908"><ele>19.0</ele><time>2026-04-28T13:46:39.999Z</time></trkpt><trkpt lat="34.81351318051376" lon="-6.24472688089901"><ele>18.0</ele><time>2026-04-28T13:46:40.999Z</time></trkpt><trkpt lat="34.81372054548364" lon="-6.244472191406586"><ele>17.0</ele><time>2026-04-28T13:46:41.999Z</time></trkpt><trkpt lat="34.813933131319885" lon="-6.244223228909818"><ele>17.0</ele><time>2026-04-28T13:46:42.999Z</time></trkpt><trkpt lat="34.814149697656134" lon="-6.243980814797556"><ele>17.0</ele><time>2026-04-28T13:46:43.999Z</time></trkpt><trkpt lat="34.814370053666345" lon="-6.243743435749571"><ele>17.5</ele><time>2026-04-28T13:46:44.999Z</time></trkpt><trkpt lat="34.81459338592703" lon="-6.243507451215808"><ele>18.0</ele><time>2026-04-28T13:46:45.999Z</time></trkpt><trkpt lat="34.81482027432421" lon="-6.243274123061457"><ele>17.5</ele><time>2026-04-28T13:46:46.999Z</time></trkpt><trkpt lat="34.815049426851516" lon="-6.243044174629808"><ele>17.0</ele><time>2026-04-28T13:46:47.999Z</time></trkpt><trkpt lat="34.81528253228924" lon="-6.242819653130731"><ele>17.0</ele><time>2026-04-28T13:46:48.999Z</time></trkpt><trkpt lat="34.81551584422986" lon="-6.242598615858852"><ele>17.0</ele><time>2026-04-28T13:46:49.999Z</time></trkpt><trkpt lat="34.81575336707989" lon="-6.242382409509219"><ele>16.5</ele><time>2026-04-28T13:46:50.999Z</time></trkpt><trkpt lat="34.81599252676625" lon="-6.242169006319238"><ele>16.0</ele><time>2026-04-28T13:46:51.999Z</time></trkpt><trkpt lat="34.816235405909126" lon="-6.2419635563918865"><ele>16.0</ele><time>2026-04-28T13:46:52.999Z</time></trkpt><trkpt lat="34.81648408862104" lon="-6.241764568383157"><ele>16.0</ele><time>2026-04-28T13:46:53.999Z</time></trkpt><trkpt lat="34.81673700736515" lon="-6.241576315049164"><ele>15.5</ele><time>2026-04-28T13:46:54.999Z</time></trkpt><trkpt lat="34.816990023480614" lon="-6.241387031626034"><ele>15.0</ele><time>2026-04-28T13:46:55.999Z</time></trkpt><trkpt lat="34.817245886136845" lon="-6.241207699243657"><ele>15.0</ele><time>2026-04-28T13:46:56.999Z</time></trkpt><trkpt lat="34.81750105240906" lon="-6.2410248835923365"><ele>15.0</ele><time>2026-04-28T13:46:57.999Z</time></trkpt><trkpt lat="34.81775117915745" lon="-6.240836861670911"><ele>15.0</ele><time>2026-04-28T13:46:58.999Z</time></trkpt><trkpt lat="34.81800425194082" lon="-6.240649522302744"><ele>15.0</ele><time>2026-04-28T13:46:59.999Z</time></trkpt><trkpt lat="34.81826061220487" lon="-6.240470173791862"><ele>15.5</ele><time>2026-04-28T13:47:00.999Z</time></trkpt><trkpt lat="34.8185158250782" lon="-6.240285647641759"><ele>16.0</ele><time>2026-04-28T13:47:01.999Z</time></trkpt><trkpt lat="34.81876810617677" lon="-6.2400941103325955"><ele>16.0</ele><time>2026-04-28T13:47:02.999Z</time></trkpt><trkpt lat="34.81902178167484" lon="-6.239905952233598"><ele>16.0</ele><time>2026-04-28T13:47:03.999Z</time></trkpt><trkpt lat="34.819280641003346" lon="-6.239725713929287"><ele>14.5</ele><time>2026-04-28T13:47:04.999Z</time></trkpt><trkpt lat="34.819537824528524" lon="-6.239545453349284"><ele>13.0</ele><time>2026-04-28T13:47:05.999Z</time></trkpt><trkpt lat="34.81979199290856" lon="-6.239358687117809"><ele>13.0</ele><time>2026-04-28T13:47:06.999Z</time></trkpt><trkpt lat="34.820044307420495" lon="-6.2391698538088995"><ele>13.0</ele><time>2026-04-28T13:47:07.999Z</time></trkpt><trkpt lat="34.82030087210285" lon="-6.2389854582835005"><ele>13.0</ele><time>2026-04-28T13:47:08.999Z</time></trkpt><trkpt lat="34.82055786615359" lon="-6.238800099059505"><ele>13.0</ele><time>2026-04-28T13:47:09.999Z</time></trkpt><trkpt lat="34.82081250808842" lon="-6.238611521759846"><ele>12.0</ele><time>2026-04-28T13:47:10.999Z</time></trkpt><trkpt lat="34.821068246040014" lon="-6.238425165628481"><ele>11.0</ele><time>2026-04-28T13:47:11.999Z</time></trkpt><trkpt lat="34.82132575152901" lon="-6.238242245202268"><ele>11.0</ele><time>2026-04-28T13:47:12.999Z</time></trkpt><trkpt lat="34.821584168844986" lon="-6.238061164577645"><ele>11.0</ele><time>2026-04-28T13:47:13.999Z</time></trkpt><trkpt lat="34.82184240639886" lon="-6.237884162837747"><ele>11.5</ele><time>2026-04-28T13:47:14.999Z</time></trkpt><trkpt lat="34.82210251746211" lon="-6.237710266279274"><ele>12.0</ele><time>2026-04-28T13:47:15.999Z</time></trkpt><trkpt lat="34.82236409519645" lon="-6.237541935106275"><ele>12.0</ele><time>2026-04-28T13:47:16.999Z</time></trkpt><trkpt lat="34.82262704316142" lon="-6.237376181939148"><ele>12.0</ele><time>2026-04-28T13:47:17.999Z</time></trkpt><trkpt lat="34.82289297930916" lon="-6.237215894231292"><ele>12.5</ele><time>2026-04-28T13:47:18.999Z</time></trkpt><trkpt lat="34.8231619029381" lon="-6.237059940410254"><ele>13.0</ele><time>2026-04-28T13:47:19.999Z</time></trkpt><trkpt lat="34.82343290859106" lon="-6.236908240901675"><ele>12.5</ele><time>2026-04-28T13:47:20.999Z</time></trkpt><trkpt lat="34.82370499351569" lon="-6.236762412255744"><ele>12.0</ele><time>2026-04-28T13:47:21.999Z</time></trkpt><trkpt lat="34.82397850422149" lon="-6.236621726830314"><ele>12.0</ele><time>2026-04-28T13:47:22.999Z</time></trkpt><trkpt lat="34.82425390057622" lon="-6.236483691265301"><ele>12.0</ele><time>2026-04-28T13:47:23.999Z</time></trkpt><trkpt lat="34.82453145957083" lon="-6.236348232333001"><ele>13.5</ele><time>2026-04-28T13:47:24.999Z</time></trkpt><trkpt lat="34.824809088783006" lon="-6.236217529672178"><ele>15.0</ele><time>2026-04-28T13:47:25.999Z</time></trkpt><trkpt lat="34.82508649257106" lon="-6.236090646092237"><ele>15.0</ele><time>2026-04-28T13:47:26.999Z</time></trkpt><trkpt lat="34.82536371650675" lon="-6.235965075218337"><ele>15.0</ele><time>2026-04-28T13:47:27.999Z</time></trkpt><trkpt lat="34.825642689290845" lon="-6.235840829352715"><ele>15.0</ele><time>2026-04-28T13:47:28.999Z</time></trkpt><trkpt lat="34.82592218144646" lon="-6.235717038917816"><ele>15.0</ele><time>2026-04-28T13:47:29.999Z</time></trkpt><trkpt lat="34.82620103824047" lon="-6.2355917463052695"><ele>15.5</ele><time>2026-04-28T13:47:30.999Z</time></trkpt><trkpt lat="34.826480537365384" lon="-6.23546728540323"><ele>16.0</ele><time>2026-04-28T13:47:32Z</time></trkpt><trkpt lat="34.82676092296597" lon="-6.23534726373766"><ele>16.5</ele><time>2026-04-28T13:47:33Z</time></trkpt><trkpt lat="34.82704016859617" lon="-6.235229687383202"><ele>17.0</ele><time>2026-04-28T13:47:34Z</time></trkpt><trkpt lat="34.82731949873618" lon="-6.235107405625417"><ele>17.0</ele><time>2026-04-28T13:47:35Z</time></trkpt><trkpt lat="34.82759814011383" lon="-6.234982320109593"><ele>17.0</ele><time>2026-04-28T13:47:36Z</time></trkpt><trkpt lat="34.827876119777564" lon="-6.234858236343314"><ele>19.5</ele><time>2026-04-28T13:47:37Z</time></trkpt><trkpt lat="34.828153637057646" lon="-6.2347332130795055"><ele>22.0</ele><time>2026-04-28T13:47:38Z</time></trkpt><trkpt lat="34.82843017582112" lon="-6.234608631777864"><ele>22.5</ele><time>2026-04-28T13:47:39Z</time></trkpt><trkpt lat="34.82870666288324" lon="-6.234485204807828"><ele>23.0</ele><time>2026-04-28T13:47:40Z</time></trkpt><trkpt lat="34.82898402784095" lon="-6.234360061881224"><ele>23.0</ele><time>2026-04-28T13:47:41Z</time></trkpt><trkpt lat="34.82926390126891" lon="-6.234236787093324"><ele>23.0</ele><time>2026-04-28T13:47:42Z</time></trkpt><trkpt lat="34.829543510518235" lon="-6.2341102986072645"><ele>23.0</ele><time>2026-04-28T13:47:43Z</time></trkpt><trkpt lat="34.82982223138238" lon="-6.233979756552184"><ele>23.0</ele><time>2026-04-28T13:47:44Z</time></trkpt><trkpt lat="34.83010002185932" lon="-6.233845362347772"><ele>24.5</ele><time>2026-04-28T13:47:45Z</time></trkpt><trkpt lat="34.830376054764514" lon="-6.233706180829214"><ele>26.0</ele><time>2026-04-28T13:47:46Z</time></trkpt><trkpt lat="34.830649325073175" lon="-6.233562433666067"><ele>26.0</ele><time>2026-04-28T13:47:47Z</time></trkpt><trkpt lat="34.83092043897176" lon="-6.233413123684012"><ele>26.0</ele><time>2026-04-28T13:47:48Z</time></trkpt><trkpt lat="34.83118758872688" lon="-6.2332558377141805"><ele>29.0</ele><time>2026-04-28T13:47:49Z</time></trkpt><trkpt lat="34.831451935466866" lon="-6.233092686752632"><ele>32.0</ele><time>2026-04-28T13:47:50Z</time></trkpt><trkpt lat="34.83171545644124" lon="-6.2329237243379545"><ele>30.0</ele><time>2026-04-28T13:47:51Z</time></trkpt><trkpt lat="34.8319769357026" lon="-6.232748808894203"><ele>28.0</ele><time>2026-04-28T13:47:52Z</time></trkpt><trkpt lat="34.83223597527086" lon="-6.232568936323593"><ele>28.0</ele><time>2026-04-28T13:47:53Z</time></trkpt><trkpt lat="34.83249344877054" lon="-6.232383714938707"><ele>28.0</ele><time>2026-04-28T13:47:54Z</time></trkpt><trkpt lat="34.83274750796172" lon="-6.232193296438795"><ele>28.5</ele><time>2026-04-28T13:47:55Z</time></trkpt><trkpt lat="34.83299573807136" lon="-6.231994379478745"><ele>29.0</ele><time>2026-04-28T13:47:56Z</time></trkpt><trkpt lat="34.83324290046973" lon="-6.231793098084623"><ele>28.5</ele><time>2026-04-28T13:47:57Z</time></trkpt><trkpt lat="34.833488375126215" lon="-6.231588907713809"><ele>28.0</ele><time>2026-04-28T13:47:58Z</time></trkpt><trkpt lat="34.83373558876505" lon="-6.231383252953178"><ele>29.5</ele><time>2026-04-28T13:47:59Z</time></trkpt><trkpt lat="34.83397936547303" lon="-6.231173645191867"><ele>31.0</ele><time>2026-04-28T13:48:00Z</time></trkpt><trkpt lat="34.834217066521425" lon="-6.230956983946513"><ele>30.5</ele><time>2026-04-28T13:48:01Z</time></trkpt><trkpt lat="34.83445504476516" lon="-6.230739412673018"><ele>30.0</ele><time>2026-04-28T13:48:02Z</time></trkpt><trkpt lat="34.83469359772982" lon="-6.230523504012401"><ele>30.0</ele><time>2026-04-28T13:48:03Z</time></trkpt><trkpt lat="34.834933398278025" lon="-6.23030829416873"><ele>30.0</ele><time>2026-04-28T13:48:04Z</time></trkpt><trkpt lat="34.8351760850206" lon="-6.230098031011588"><ele>30.0</ele><time>2026-04-28T13:48:05Z</time></trkpt><trkpt lat="34.835422094301386" lon="-6.229894520781057"><ele>30.0</ele><time>2026-04-28T13:48:06Z</time></trkpt><trkpt lat="34.835669931037735" lon="-6.229694923861941"><ele>30.0</ele><time>2026-04-28T13:48:07Z</time></trkpt><trkpt lat="34.83591956837433" lon="-6.229500034929154"><ele>30.0</ele><time>2026-04-28T13:48:08Z</time></trkpt><trkpt lat="34.83617155569847" lon="-6.229310206146696"><ele>30.0</ele><time>2026-04-28T13:48:09Z</time></trkpt><trkpt lat="34.83642804165962" lon="-6.229123812576706"><ele>30.0</ele><time>2026-04-28T13:48:10Z</time></trkpt><trkpt lat="34.83668649487548" lon="-6.228942924744219"><ele>30.5</ele><time>2026-04-28T13:48:11Z</time></trkpt><trkpt lat="34.836946292077364" lon="-6.22876619300787"><ele>31.0</ele><time>2026-04-28T13:48:12Z</time></trkpt><trkpt lat="34.83720915726288" lon="-6.228593120702979"><ele>31.0</ele><time>2026-04-28T13:48:13Z</time></trkpt><trkpt lat="34.83747378991142" lon="-6.2284267099810355"><ele>31.0</ele><time>2026-04-28T13:48:14Z</time></trkpt><trkpt lat="34.8377404514765" lon="-6.228267866957306"><ele>30.5</ele><time>2026-04-28T13:48:15Z</time></trkpt><trkpt lat="34.83801228059332" lon="-6.2281152706138485"><ele>30.0</ele><time>2026-04-28T13:48:16Z</time></trkpt><trkpt lat="34.83828660716014" lon="-6.2279701682072455"><ele>27.0</ele><time>2026-04-28T13:48:17Z</time></trkpt><trkpt lat="34.838563511649824" lon="-6.227830974863595"><ele>24.0</ele><time>2026-04-28T13:48:18Z</time></trkpt><trkpt lat="34.83884288231559" lon="-6.227694990631335"><ele>24.0</ele><time>2026-04-28T13:48:19Z</time></trkpt><trkpt lat="34.83912102996106" lon="-6.227562078894591"><ele>24.0</ele><time>2026-04-28T13:48:20Z</time></trkpt><trkpt lat="34.83940021287291" lon="-6.227433351029539"><ele>24.0</ele><time>2026-04-28T13:48:21Z</time></trkpt><trkpt lat="34.83968100634337" lon="-6.227310484730036"><ele>24.0</ele><time>2026-04-28T13:48:22Z</time></trkpt><trkpt lat="34.839962888488905" lon="-6.2271946231474695"><ele>22.5</ele><time>2026-04-28T13:48:23Z</time></trkpt><trkpt lat="34.84024659060153" lon="-6.227087128677335"><ele>21.0</ele><time>2026-04-28T13:48:24Z</time></trkpt><trkpt lat="34.84053083750193" lon="-6.226985940729492"><ele>21.0</ele><time>2026-04-28T13:48:25Z</time></trkpt><trkpt lat="34.84081859313598" lon="-6.226889815907323"><ele>21.0</ele><time>2026-04-28T13:48:26Z</time></trkpt><trkpt lat="34.84110980562186" lon="-6.226801456078565"><ele>21.0</ele><time>2026-04-28T13:48:27Z</time></trkpt><trkpt lat="34.84140194277467" lon="-6.226719039146798"><ele>21.0</ele><time>2026-04-28T13:48:28Z</time></trkpt><trkpt lat="34.84169418173134" lon="-6.226642591323211"><ele>19.0</ele><time>2026-04-28T13:48:29Z</time></trkpt><trkpt lat="34.841987630622114" lon="-6.226570013217598"><ele>17.0</ele><time>2026-04-28T13:48:30Z</time></trkpt><trkpt lat="34.84228258201916" lon="-6.226497102961336"><ele>18.0</ele><time>2026-04-28T13:48:31Z</time></trkpt><trkpt lat="34.842576689971686" lon="-6.226424183521852"><ele>19.0</ele><time>2026-04-28T13:48:32Z</time></trkpt><trkpt lat="34.84286910245058" lon="-6.226352118164788"><ele>19.0</ele><time>2026-04-28T13:48:33Z</time></trkpt><trkpt lat="34.84316274828686" lon="-6.226279213416897"><ele>19.0</ele><time>2026-04-28T13:48:34Z</time></trkpt><trkpt lat="34.843454221047786" lon="-6.226205112209394"><ele>17.0</ele><time>2026-04-28T13:48:35Z</time></trkpt><trkpt lat="34.84403831484785" lon="-6.226055590619971"><ele>16.0</ele><time>2026-04-28T13:48:37Z</time></trkpt><trkpt lat="34.84434712767226" lon="-6.225975606799681"><ele>15.0</ele><time>2026-04-28T13:48:38Z</time></trkpt><trkpt lat="34.84466539147557" lon="-6.225894305060948"><ele>15.0</ele><time>2026-04-28T13:48:39Z</time></trkpt><trkpt lat="34.844994644652175" lon="-6.225810172844551"><ele>15.0</ele><time>2026-04-28T13:48:40Z</time></trkpt><trkpt lat="34.84532841699207" lon="-6.225725537605004"><ele>15.0</ele><time>2026-04-28T13:48:41Z</time></trkpt><trkpt lat="34.845664114188764" lon="-6.22563828788099"><ele>15.0</ele><time>2026-04-28T13:48:42Z</time></trkpt><trkpt lat="34.846000127657504" lon="-6.225549076590783"><ele>15.0</ele><time>2026-04-28T13:48:43Z</time></trkpt><trkpt lat="34.84633504332248" lon="-6.225460486685998"><ele>15.0</ele><time>2026-04-28T13:48:44Z</time></trkpt><trkpt lat="34.846668318402585" lon="-6.2253707122338"><ele>14.0</ele><time>2026-04-28T13:48:45Z</time></trkpt><trkpt lat="34.84700006199707" lon="-6.225283437605543"><ele>13.0</ele><time>2026-04-28T13:48:46Z</time></trkpt><trkpt lat="34.84732703823683" lon="-6.225198211518277"><ele>11.0</ele><time>2026-04-28T13:48:46.999Z</time></trkpt><trkpt lat="34.84765010698233" lon="-6.225115042123601"><ele>9.0</ele><time>2026-04-28T13:48:47.999Z</time></trkpt><trkpt lat="34.84797211934974" lon="-6.225032876734076"><ele>9.0</ele><time>2026-04-28T13:48:48.999Z</time></trkpt><trkpt lat="34.84829395780971" lon="-6.224949400852122"><ele>9.0</ele><time>2026-04-28T13:48:49.999Z</time></trkpt><trkpt lat="34.848621248632554" lon="-6.22486544191032"><ele>9.0</ele><time>2026-04-28T13:48:50.999Z</time></trkpt><trkpt lat="34.84895032378741" lon="-6.224780786241981"><ele>9.0</ele><time>2026-04-28T13:48:51.999Z</time></trkpt><trkpt lat="34.849271928543274" lon="-6.224696369471004"><ele>9.0</ele><time>2026-04-28T13:48:52.999Z</time></trkpt><trkpt lat="34.84958612934067" lon="-6.224610956995684"><ele>9.0</ele><time>2026-04-28T13:48:53.999Z</time></trkpt><trkpt lat="34.84989440336885" lon="-6.224524187444807"><ele>9.5</ele><time>2026-04-28T13:48:54.999Z</time></trkpt><trkpt lat="34.850196758426186" lon="-6.224439248538281"><ele>10.0</ele><time>2026-04-28T13:48:55.999Z</time></trkpt><trkpt lat="34.850500642894254" lon="-6.224356246106313"><ele>10.0</ele><time>2026-04-28T13:48:56.999Z</time></trkpt><trkpt lat="34.850812515013466" lon="-6.2242790527467715"><ele>10.0</ele><time>2026-04-28T13:48:57.999Z</time></trkpt><trkpt lat="34.85113507812856" lon="-6.224203819750943"><ele>9.5</ele><time>2026-04-28T13:48:58.999Z</time></trkpt><trkpt lat="34.85145835770544" lon="-6.224125142154722"><ele>9.0</ele><time>2026-04-28T13:48:59.999Z</time></trkpt><trkpt lat="34.85177815430377" lon="-6.224043080955331"><ele>8.5</ele><time>2026-04-28T13:49:00.999Z</time></trkpt><trkpt lat="34.852095627139214" lon="-6.2239613829436955"><ele>8.0</ele><time>2026-04-28T13:49:01.999Z</time></trkpt><trkpt lat="34.85271371641557" lon="-6.223809141864415"><ele>8.0</ele><time>2026-04-28T13:49:03.999Z</time></trkpt><trkpt lat="34.85300835341598" lon="-6.223739079729675"><ele>8.0</ele><time>2026-04-28T13:49:04.999Z</time></trkpt><trkpt lat="34.853295649115665" lon="-6.223668343224344"><ele>7.5</ele><time>2026-04-28T13:49:05.999Z</time></trkpt><trkpt lat="34.853577507316196" lon="-6.223598228677612"><ele>7.0</ele><time>2026-04-28T13:49:06.999Z</time></trkpt><trkpt lat="34.85386614851614" lon="-6.223526810054936"><ele>7.0</ele><time>2026-04-28T13:49:07.999Z</time></trkpt><trkpt lat="34.85415937272911" lon="-6.223454205849343"><ele>7.0</ele><time>2026-04-28T13:49:08.999Z</time></trkpt><trkpt lat="34.854453939494576" lon="-6.223381242099137"><ele>7.0</ele><time>2026-04-28T13:49:09.999Z</time></trkpt><trkpt lat="34.85474840547316" lon="-6.223308653897382"><ele>7.0</ele><time>2026-04-28T13:49:10.999Z</time></trkpt><trkpt lat="34.855041609448456" lon="-6.22323176863001"><ele>7.0</ele><time>2026-04-28T13:49:11.999Z</time></trkpt><trkpt lat="34.855333306536764" lon="-6.223155654680241"><ele>7.0</ele><time>2026-04-28T13:49:12.999Z</time></trkpt><trkpt lat="34.85562654904293" lon="-6.223078771677382"><ele>6.5</ele><time>2026-04-28T13:49:13.999Z</time></trkpt><trkpt lat="34.855918813862445" lon="-6.223000577339361"><ele>6.0</ele><time>2026-04-28T13:49:14.999Z</time></trkpt><trkpt lat="34.85620931615196" lon="-6.222925153389863"><ele>6.0</ele><time>2026-04-28T13:49:15.999Z</time></trkpt><trkpt lat="34.85649846363236" lon="-6.222851659564561"><ele>6.0</ele><time>2026-04-28T13:49:16.999Z</time></trkpt><trkpt lat="34.85678789053518" lon="-6.222779570296721"><ele>6.5</ele><time>2026-04-28T13:49:17.999Z</time></trkpt><trkpt lat="34.85707640167908" lon="-6.222705986079675"><ele>7.0</ele><time>2026-04-28T13:49:18.999Z</time></trkpt><trkpt lat="34.85736453195238" lon="-6.2226315137124715"><ele>7.0</ele><time>2026-04-28T13:49:19.999Z</time></trkpt><trkpt lat="34.85765483262329" lon="-6.222555128932787"><ele>7.0</ele><time>2026-04-28T13:49:20.999Z</time></trkpt><trkpt lat="34.85794916359496" lon="-6.222472005364112"><ele>7.0</ele><time>2026-04-28T13:49:21.999Z</time></trkpt><trkpt lat="34.85824533000331" lon="-6.222384563295973"><ele>7.0</ele><time>2026-04-28T13:49:22.999Z</time></trkpt><trkpt lat="34.85854094157029" lon="-6.222297105668949"><ele>8.0</ele><time>2026-04-28T13:49:23.999Z</time></trkpt><trkpt lat="34.85883677689885" lon="-6.222206585943568"><ele>9.0</ele><time>2026-04-28T13:49:24.999Z</time></trkpt><trkpt lat="34.85913198731021" lon="-6.2221124132112875"><ele>9.5</ele><time>2026-04-28T13:49:25.999Z</time></trkpt><trkpt lat="34.859425972827744" lon="-6.22201570449641"><ele>10.0</ele><time>2026-04-28T13:49:26.999Z</time></trkpt><trkpt lat="34.85971732375733" lon="-6.22191494642543"><ele>10.0</ele><time>2026-04-28T13:49:27.999Z</time></trkpt><trkpt lat="34.86000597344318" lon="-6.221812368773504"><ele>10.0</ele><time>2026-04-28T13:49:28.999Z</time></trkpt><trkpt lat="34.86029209655929" lon="-6.221707427944769"><ele>9.0</ele><time>2026-04-28T13:49:29.999Z</time></trkpt><trkpt lat="34.86057439447698" lon="-6.221602357625391"><ele>8.0</ele><time>2026-04-28T13:49:30.999Z</time></trkpt><trkpt lat="34.860860012615426" lon="-6.22149703166036"><ele>9.5</ele><time>2026-04-28T13:49:31.999Z</time></trkpt><trkpt lat="34.861146619091286" lon="-6.221388654370464"><ele>11.0</ele><time>2026-04-28T13:49:32.999Z</time></trkpt><trkpt lat="34.861433284940524" lon="-6.221280765063177"><ele>11.0</ele><time>2026-04-28T13:49:33.999Z</time></trkpt><trkpt lat="34.86171926786658" lon="-6.221171791228421"><ele>11.0</ele><time>2026-04-28T13:49:34.999Z</time></trkpt><trkpt lat="34.86200560274502" lon="-6.221060244090859"><ele>12.0</ele><time>2026-04-28T13:49:35.999Z</time></trkpt><trkpt lat="34.86229146673609" lon="-6.220946560264513"><ele>13.0</ele><time>2026-04-28T13:49:36.999Z</time></trkpt><trkpt lat="34.86257516862949" lon="-6.2208303460831145"><ele>13.5</ele><time>2026-04-28T13:49:38Z</time></trkpt><trkpt lat="34.86285769700258" lon="-6.220712854081448"><ele>14.0</ele><time>2026-04-28T13:49:39Z</time></trkpt><trkpt lat="34.863140304015054" lon="-6.220592777654864"><ele>14.5</ele><time>2026-04-28T13:49:40Z</time></trkpt><trkpt lat="34.863421037603615" lon="-6.2204665497922305"><ele>15.0</ele><time>2026-04-28T13:49:41Z</time></trkpt><trkpt lat="34.86370101333104" lon="-6.220334703235774"><ele>15.0</ele><time>2026-04-28T13:49:42Z</time></trkpt><trkpt lat="34.863980122692546" lon="-6.2201995252464215"><ele>15.0</ele><time>2026-04-28T13:49:43Z</time></trkpt><trkpt lat="34.86425678488072" lon="-6.220066034681961"><ele>15.5</ele><time>2026-04-28T13:49:44Z</time></trkpt><trkpt lat="34.86452695104295" lon="-6.219934483157567"><ele>16.0</ele><time>2026-04-28T13:49:45Z</time></trkpt><trkpt lat="34.864789538803805" lon="-6.219804246929083"><ele>16.5</ele><time>2026-04-28T13:49:46Z</time></trkpt><trkpt lat="34.865045967098666" lon="-6.21967418607871"><ele>17.0</ele><time>2026-04-28T13:49:47Z</time></trkpt><trkpt lat="34.86529396886671" lon="-6.219545359812045"><ele>16.0</ele><time>2026-04-28T13:49:48Z</time></trkpt><trkpt lat="34.865531744546836" lon="-6.219421800820556"><ele>15.0</ele><time>2026-04-28T13:49:49Z</time></trkpt><trkpt lat="34.8657716629823" lon="-6.219299166512952"><ele>15.5</ele><time>2026-04-28T13:49:50Z</time></trkpt><trkpt lat="34.8660141217894" lon="-6.219177354332985"><ele>16.0</ele><time>2026-04-28T13:49:51Z</time></trkpt><trkpt lat="34.86626236228017" lon="-6.219055768769275"><ele>16.0</ele><time>2026-04-28T13:49:52Z</time></trkpt><trkpt lat="34.86651575140055" lon="-6.218931466067984"><ele>16.0</ele><time>2026-04-28T13:49:53Z</time></trkpt><trkpt lat="34.86677277480541" lon="-6.2188038576898315"><ele>15.5</ele><time>2026-04-28T13:49:54Z</time></trkpt><trkpt lat="34.86703232455091" lon="-6.21867079409994"><ele>15.0</ele><time>2026-04-28T13:49:55Z</time></trkpt><trkpt lat="34.867287997958165" lon="-6.218532472992169"><ele>15.0</ele><time>2026-04-28T13:49:56Z</time></trkpt><trkpt lat="34.86753636203077" lon="-6.218394972166242"><ele>15.0</ele><time>2026-04-28T13:49:57Z</time></trkpt><trkpt lat="34.867780411847555" lon="-6.218260982974499"><ele>15.0</ele><time>2026-04-28T13:49:58Z</time></trkpt><trkpt lat="34.86801979686586" lon="-6.2181325879258456"><ele>15.0</ele><time>2026-04-28T13:49:59Z</time></trkpt><trkpt lat="34.868254952624554" lon="-6.21800881601347"><ele>15.5</ele><time>2026-04-28T13:50:00Z</time></trkpt><trkpt lat="34.8684854590975" lon="-6.21789029546623"><ele>16.0</ele><time>2026-04-28T13:50:01Z</time></trkpt><trkpt lat="34.868714707797395" lon="-6.217772019367593"><ele>16.0</ele><time>2026-04-28T13:50:02Z</time></trkpt><trkpt lat="34.86894453795245" lon="-6.217650145245344"><ele>16.0</ele><time>2026-04-28T13:50:03Z</time></trkpt><trkpt lat="34.869171553435294" lon="-6.2175292987028055"><ele>17.5</ele><time>2026-04-28T13:50:04Z</time></trkpt><trkpt lat="34.86939636921663" lon="-6.217410005659837"><ele>19.0</ele><time>2026-04-28T13:50:05Z</time></trkpt><trkpt lat="34.86962414581381" lon="-6.217291924789451"><ele>19.0</ele><time>2026-04-28T13:50:06Z</time></trkpt><trkpt lat="34.86985040088794" lon="-6.21717699687077"><ele>19.0</ele><time>2026-04-28T13:50:07Z</time></trkpt><trkpt lat="34.87007659058991" lon="-6.217060827218827"><ele>19.0</ele><time>2026-04-28T13:50:08Z</time></trkpt><trkpt lat="34.870302884790256" lon="-6.216942150488568"><ele>19.0</ele><time>2026-04-28T13:50:09Z</time></trkpt><trkpt lat="34.8705287022875" lon="-6.2168236111353385"><ele>19.0</ele><time>2026-04-28T13:50:10Z</time></trkpt><trkpt lat="34.87074912934326" lon="-6.2167092523514595"><ele>19.0</ele><time>2026-04-28T13:50:11Z</time></trkpt><trkpt lat="34.870965845471154" lon="-6.216597728895277"><ele>20.0</ele><time>2026-04-28T13:50:12Z</time></trkpt><trkpt lat="34.87118149872377" lon="-6.21648759021972"><ele>21.0</ele><time>2026-04-28T13:50:13Z</time></trkpt><trkpt lat="34.87139813647324" lon="-6.216375484239897"><ele>21.0</ele><time>2026-04-28T13:50:14Z</time></trkpt><trkpt lat="34.87161532076953" lon="-6.216262834318309"><ele>21.0</ele><time>2026-04-28T13:50:15Z</time></trkpt><trkpt lat="34.871832346586245" lon="-6.216148844812689"><ele>21.5</ele><time>2026-04-28T13:50:16Z</time></trkpt><trkpt lat="34.87204552986022" lon="-6.21603560522824"><ele>22.0</ele><time>2026-04-28T13:50:17Z</time></trkpt><trkpt lat="34.87224862319183" lon="-6.215926141297313"><ele>22.0</ele><time>2026-04-28T13:50:18Z</time></trkpt><trkpt lat="34.87243984273295" lon="-6.215821903728175"><ele>22.0</ele><time>2026-04-28T13:50:19Z</time></trkpt><trkpt lat="34.872622360110405" lon="-6.215722316487706"><ele>22.0</ele><time>2026-04-28T13:50:20Z</time></trkpt><trkpt lat="34.87279979618753" lon="-6.215625345774943"><ele>22.333333333333332</ele><time>2026-04-28T13:50:21Z</time></trkpt><trkpt lat="34.872974814434976" lon="-6.215531305044622"><ele>22.666666666666668</ele><time>2026-04-28T13:50:22Z</time></trkpt><trkpt lat="34.87314881258373" lon="-6.21543922896931"><ele>23.0</ele><time>2026-04-28T13:50:23Z</time></trkpt><trkpt lat="34.873322035208425" lon="-6.215347403388128"><ele>23.333333333333336</ele><time>2026-04-28T13:50:24Z</time></trkpt><trkpt lat="34.87349350425832" lon="-6.21525461496045"><ele>23.666666666666668</ele><time>2026-04-28T13:50:25Z</time></trkpt><trkpt lat="34.873664822873025" lon="-6.215156925498302"><ele>24.0</ele><time>2026-04-28T13:50:26Z</time></trkpt><trkpt lat="34.87383357134178" lon="-6.21505172313439"><ele>24.0</ele><time>2026-04-28T13:50:27Z</time></trkpt><trkpt lat="34.87399212691676" lon="-6.214933746661004"><ele>24.0</ele><time>2026-04-28T13:50:28Z</time></trkpt><trkpt lat="34.87413521006068" lon="-6.214812627166339"><ele>24.0</ele><time>2026-04-28T13:50:29Z</time></trkpt><trkpt lat="34.87426729112861" lon="-6.214694990042367"><ele>23.666666666666668</ele><time>2026-04-28T13:50:30Z</time></trkpt><trkpt lat="34.87439362403972" lon="-6.21458506249733"><ele>23.333333333333336</ele><time>2026-04-28T13:50:31Z</time></trkpt><trkpt lat="34.87451823247803" lon="-6.214481804313568"><ele>23.0</ele><time>2026-04-28T13:50:32Z</time></trkpt><trkpt lat="34.87463856723857" lon="-6.214382230618864"><ele>23.0</ele><time>2026-04-28T13:50:33Z</time></trkpt><trkpt lat="34.87474760731482" lon="-6.2142842795746125"><ele>23.0</ele><time>2026-04-28T13:50:34Z</time></trkpt><trkpt lat="34.87484650357063" lon="-6.214192027746455"><ele>23.0</ele><time>2026-04-28T13:50:35Z</time></trkpt><trkpt lat="34.87493947724199" lon="-6.214109199387121"><ele>23.0</ele><time>2026-04-28T13:50:36Z</time></trkpt><trkpt lat="34.87501953480324" lon="-6.214039603106408"><ele>23.0</ele><time>2026-04-28T13:50:37Z</time></trkpt><trkpt lat="34.875085474129925" lon="-6.213983037161234"><ele>23.0</ele><time>2026-04-28T13:50:37.999Z</time></trkpt><trkpt lat="34.87514074236983" lon="-6.2139450423718925"><ele>23.0</ele><time>2026-04-28T13:50:38.999Z</time></trkpt><trkpt lat="34.8752362711181" lon="-6.213904334932202"><ele>23.0</ele><time>2026-04-28T13:50:40.999Z</time></trkpt><trkpt lat="34.87530584730029" lon="-6.2138857299075045"><ele>23.0</ele><time>2026-04-28T13:50:42.999Z</time></trkpt><trkpt lat="34.87536331669778" lon="-6.213848745576055"><ele>23.0</ele><time>2026-04-28T13:50:45.999Z</time></trkpt><trkpt lat="34.87541796238859" lon="-6.213903824260257"><ele>23.5</ele><time>2026-04-28T14:14:23.999Z</time></trkpt><trkpt lat="34.875474328726206" lon="-6.2139781562664975"><ele>24.0</ele><time>2026-04-28T14:14:26.999Z</time></trkpt><trkpt lat="34.87557439334944" lon="-6.213951556458929"><ele>24.5</ele><time>2026-04-28T14:14:28.999Z</time></trkpt><trkpt lat="34.87563837738657" lon="-6.213909724971844"><ele>25.0</ele><time>2026-04-28T14:14:29.999Z</time></trkpt><trkpt lat="34.87570951054765" lon="-6.213863190768483"><ele>25.499999999999996</ele><time>2026-04-28T14:14:30.999Z</time></trkpt><trkpt lat="34.87578562019758" lon="-6.213818527549345"><ele>26.0</ele><time>2026-04-28T14:14:31.999Z</time></trkpt><trkpt lat="34.875865793638496" lon="-6.21377654390819"><ele>25.8</ele><time>2026-04-28T14:14:32.999Z</time></trkpt><trkpt lat="34.87594815568388" lon="-6.2137337071066385"><ele>25.6</ele><time>2026-04-28T14:14:33.999Z</time></trkpt><trkpt lat="34.87602903696209" lon="-6.2136921632608235"><ele>25.4</ele><time>2026-04-28T14:14:34.999Z</time></trkpt><trkpt lat="34.876112636144626" lon="-6.213648030518931"><ele>25.2</ele><time>2026-04-28T14:14:35.999Z</time></trkpt><trkpt lat="34.87619924848616" lon="-6.213602964145245"><ele>25.0</ele><time>2026-04-28T14:14:36.999Z</time></trkpt><trkpt lat="34.87628626315829" lon="-6.213553212871579"><ele>25.0</ele><time>2026-04-28T14:14:37.999Z</time></trkpt><trkpt lat="34.87638081908219" lon="-6.213502491036554"><ele>25.0</ele><time>2026-04-28T14:14:38.999Z</time></trkpt><trkpt lat="34.87648235154277" lon="-6.213451543362448"><ele>25.0</ele><time>2026-04-28T14:14:39.999Z</time></trkpt><trkpt lat="34.87658586115286" lon="-6.2134060430076525"><ele>25.0</ele><time>2026-04-28T14:14:40.999Z</time></trkpt><trkpt lat="34.876696639076236" lon="-6.213367658811129"><ele>25.0</ele><time>2026-04-28T14:14:41.999Z</time></trkpt><trkpt lat="34.876809473485615" lon="-6.213335490031911"><ele>24.8</ele><time>2026-04-28T14:14:42.999Z</time></trkpt><trkpt lat="34.876922547037985" lon="-6.2133084792695605"><ele>24.6</ele><time>2026-04-28T14:14:43.999Z</time></trkpt><trkpt lat="34.87703685941075" lon="-6.213313443959071"><ele>24.4</ele><time>2026-04-28T14:14:44.999Z</time></trkpt><trkpt lat="34.87714449420442" lon="-6.213285456009207"><ele>24.2</ele><time>2026-04-28T14:14:45.999Z</time></trkpt><trkpt lat="34.87724908331755" lon="-6.213247158101568"><ele>24.0</ele><time>2026-04-28T14:14:46.999Z</time></trkpt><trkpt lat="34.87735281981675" lon="-6.213223571892445"><ele>24.0</ele><time>2026-04-28T14:14:47.999Z</time></trkpt><trkpt lat="34.877455123761564" lon="-6.213194395266703"><ele>24.0</ele><time>2026-04-28T14:14:48.999Z</time></trkpt><trkpt lat="34.877560525114035" lon="-6.213147746039986"><ele>24.0</ele><time>2026-04-28T14:14:49.999Z</time></trkpt><trkpt lat="34.87768057725894" lon="-6.213105265977351"><ele>24.0</ele><time>2026-04-28T14:14:50.999Z</time></trkpt><trkpt lat="34.87781164956649" lon="-6.213051509328641"><ele>27.0</ele><time>2026-04-28T14:14:51.999Z</time></trkpt><trkpt lat="34.87795068978137" lon="-6.2129943883089895"><ele>30.0</ele><time>2026-04-28T14:14:52.999Z</time></trkpt><trkpt lat="34.87809825275497" lon="-6.2129336693565005"><ele>33.0</ele><time>2026-04-28T14:14:53.999Z</time></trkpt><trkpt lat="34.878238550001846" lon="-6.212813100358974"><ele>33.0</ele><time>2026-04-28T14:14:54.999Z</time></trkpt><trkpt lat="34.87838160769568" lon="-6.212746918411674"><ele>33.0</ele><time>2026-04-28T14:14:55.999Z</time></trkpt><trkpt lat="34.878524370164804" lon="-6.212685406371013"><ele>33.0</ele><time>2026-04-28T14:14:56.999Z</time></trkpt><trkpt lat="34.878669557590506" lon="-6.21262389630055"><ele>32.0</ele><time>2026-04-28T14:14:57.999Z</time></trkpt><trkpt lat="34.87881763993383" lon="-6.212560634785863"><ele>31.0</ele><time>2026-04-28T14:14:58.999Z</time></trkpt><trkpt lat="34.878973109771884" lon="-6.212495848711552"><ele>30.0</ele><time>2026-04-28T14:14:59.999Z</time></trkpt><trkpt lat="34.879141414631235" lon="-6.212427430939473"><ele>29.0</ele><time>2026-04-28T14:15:00.999Z</time></trkpt><trkpt lat="34.87931968381962" lon="-6.212351900713264"><ele>28.0</ele><time>2026-04-28T14:15:01.999Z</time></trkpt><trkpt lat="34.879506821537255" lon="-6.212272842172758"><ele>27.0</ele><time>2026-04-28T14:15:02.999Z</time></trkpt><trkpt lat="34.87970392941371" lon="-6.212191345912364"><ele>28.0</ele><time>2026-04-28T14:15:03.999Z</time></trkpt><trkpt lat="34.879907354499565" lon="-6.212107568217151"><ele>29.0</ele><time>2026-04-28T14:15:04.999Z</time></trkpt><trkpt lat="34.88011463294973" lon="-6.2120218234413915"><ele>30.0</ele><time>2026-04-28T14:15:05.999Z</time></trkpt><trkpt lat="34.880327638642484" lon="-6.2119341947768945"><ele>30.0</ele><time>2026-04-28T14:15:06.999Z</time></trkpt><trkpt lat="34.88054566353093" lon="-6.211846944133848"><ele>30.0</ele><time>2026-04-28T14:15:07.999Z</time></trkpt><trkpt lat="34.88077069924385" lon="-6.211762193542438"><ele>29.0</ele><time>2026-04-28T14:15:08.999Z</time></trkpt><trkpt lat="34.88100061246314" lon="-6.2116790105315625"><ele>28.0</ele><time>2026-04-28T14:15:09.999Z</time></trkpt><trkpt lat="34.88123425155747" lon="-6.211595739214086"><ele>28.0</ele><time>2026-04-28T14:15:10.999Z</time></trkpt><trkpt lat="34.88147183132058" lon="-6.211510466951738"><ele>28.0</ele><time>2026-04-28T14:15:11.999Z</time></trkpt><trkpt lat="34.881707110232526" lon="-6.211427747533384"><ele>28.5</ele><time>2026-04-28T14:15:12.999Z</time></trkpt><trkpt lat="34.88194372688121" lon="-6.2113482895703465"><ele>29.0</ele><time>2026-04-28T14:15:13.999Z</time></trkpt><trkpt lat="34.88218812970626" lon="-6.2112685296507175"><ele>29.0</ele><time>2026-04-28T14:15:14.999Z</time></trkpt><trkpt lat="34.882437663527966" lon="-6.211189485066953"><ele>29.0</ele><time>2026-04-28T14:15:15.999Z</time></trkpt><trkpt lat="34.882692997588435" lon="-6.211111385576575"><ele>30.0</ele><time>2026-04-28T14:15:16.999Z</time></trkpt><trkpt lat="34.8829518748596" lon="-6.21103732947412"><ele>31.0</ele><time>2026-04-28T14:15:17.999Z</time></trkpt><trkpt lat="34.88321358648347" lon="-6.210966695490488"><ele>30.0</ele><time>2026-04-28T14:15:18.999Z</time></trkpt><trkpt lat="34.88347721622794" lon="-6.210897988960437"><ele>29.0</ele><time>2026-04-28T14:15:19.999Z</time></trkpt><trkpt lat="34.8837435497753" lon="-6.210832023257353"><ele>29.0</ele><time>2026-04-28T14:15:20.999Z</time></trkpt><trkpt lat="34.88401135459662" lon="-6.2107671242835"><ele>29.0</ele><time>2026-04-28T14:15:21.999Z</time></trkpt><trkpt lat="34.88428108690643" lon="-6.210703126674282"><ele>30.5</ele><time>2026-04-28T14:15:22.999Z</time></trkpt><trkpt lat="34.88455274868771" lon="-6.210641027406844"><ele>32.0</ele><time>2026-04-28T14:15:23.999Z</time></trkpt><trkpt lat="34.88482604015112" lon="-6.210582135800052"><ele>33.0</ele><time>2026-04-28T14:15:24.999Z</time></trkpt><trkpt lat="34.88510123921971" lon="-6.210527952329865"><ele>34.0</ele><time>2026-04-28T14:15:25.999Z</time></trkpt><trkpt lat="34.885379194967754" lon="-6.210478175435616"><ele>34.0</ele><time>2026-04-28T14:15:26.999Z</time></trkpt><trkpt lat="34.885660803818936" lon="-6.210433135803637"><ele>34.0</ele><time>2026-04-28T14:15:27.999Z</time></trkpt><trkpt lat="34.88594155888867" lon="-6.210390823905768"><ele>33.0</ele><time>2026-04-28T14:15:28.999Z</time></trkpt><trkpt lat="34.886221142402626" lon="-6.210351183509056"><ele>32.0</ele><time>2026-04-28T14:15:29.999Z</time></trkpt><trkpt lat="34.886505024077856" lon="-6.210315847070069"><ele>31.5</ele><time>2026-04-28T14:15:30.999Z</time></trkpt><trkpt lat="34.88678905404157" lon="-6.210284315218535"><ele>31.0</ele><time>2026-04-28T14:15:31.999Z</time></trkpt><trkpt lat="34.887073814118125" lon="-6.21025529815666"><ele>31.0</ele><time>2026-04-28T14:15:32.999Z</time></trkpt><trkpt lat="34.88735819966469" lon="-6.210226059873997"><ele>31.0</ele><time>2026-04-28T14:15:33.999Z</time></trkpt><trkpt lat="34.88764462120749" lon="-6.210197471976414"><ele>33.0</ele><time>2026-04-28T14:15:34.999Z</time></trkpt><trkpt lat="34.887928954672724" lon="-6.210168586766142"><ele>35.0</ele><time>2026-04-28T14:15:35.999Z</time></trkpt><trkpt lat="34.88822017616788" lon="-6.210139008686608"><ele>37.0</ele><time>2026-04-28T14:15:36.999Z</time></trkpt><trkpt lat="34.888516293747976" lon="-6.210108810480363"><ele>39.0</ele><time>2026-04-28T14:15:37.999Z</time></trkpt><trkpt lat="34.88881119698439" lon="-6.210077878756775"><ele>39.0</ele><time>2026-04-28T14:15:38.999Z</time></trkpt><trkpt lat="34.88909576112384" lon="-6.210043015441456"><ele>39.0</ele><time>2026-04-28T14:15:39.999Z</time></trkpt><trkpt lat="34.88938484650995" lon="-6.2100093924835535"><ele>39.5</ele><time>2026-04-28T14:15:40.999Z</time></trkpt><trkpt lat="34.88967615362876" lon="-6.209976555519417"><ele>40.0</ele><time>2026-04-28T14:15:41.999Z</time></trkpt><trkpt lat="34.88996709991706" lon="-6.209948456285982"><ele>40.5</ele><time>2026-04-28T14:15:42.999Z</time></trkpt><trkpt lat="34.8902584235512" lon="-6.209922077157099"><ele>41.0</ele><time>2026-04-28T14:15:43.999Z</time></trkpt><trkpt lat="34.8905519358767" lon="-6.2098923487810485"><ele>41.0</ele><time>2026-04-28T14:15:44.999Z</time></trkpt><trkpt lat="34.890844150522746" lon="-6.209858525776607"><ele>41.0</ele><time>2026-04-28T14:15:45.999Z</time></trkpt><trkpt lat="34.89113418767709" lon="-6.209819016509794"><ele>42.0</ele><time>2026-04-28T14:15:46.999Z</time></trkpt><trkpt lat="34.8914234777815" lon="-6.209777236640613"><ele>43.0</ele><time>2026-04-28T14:15:47.999Z</time></trkpt><trkpt lat="34.891714185938206" lon="-6.20973785725627"><ele>42.0</ele><time>2026-04-28T14:15:48.999Z</time></trkpt><trkpt lat="34.89200458846776" lon="-6.209703520631879"><ele>41.0</ele><time>2026-04-28T14:15:49.999Z</time></trkpt><trkpt lat="34.89229470606151" lon="-6.209672552056062"><ele>41.0</ele><time>2026-04-28T14:15:50.999Z</time></trkpt><trkpt lat="34.892586353054895" lon="-6.209641385572539"><ele>41.0</ele><time>2026-04-28T14:15:51.999Z</time></trkpt><trkpt lat="34.892876391831834" lon="-6.209608987432295"><ele>39.5</ele><time>2026-04-28T14:15:52.999Z</time></trkpt><trkpt lat="34.89316526960095" lon="-6.209576067788745"><ele>38.0</ele><time>2026-04-28T14:15:53.999Z</time></trkpt><trkpt lat="34.89345854284262" lon="-6.20954318884301"><ele>37.0</ele><time>2026-04-28T14:15:54.999Z</time></trkpt><trkpt lat="34.89375267877616" lon="-6.20951229673708"><ele>36.0</ele><time>2026-04-28T14:15:55.999Z</time></trkpt><trkpt lat="34.8940510180157" lon="-6.209481405363319"><ele>36.0</ele><time>2026-04-28T14:15:56.999Z</time></trkpt><trkpt lat="34.89435007612626" lon="-6.20945003673941"><ele>36.0</ele><time>2026-04-28T14:15:57.999Z</time></trkpt><trkpt lat="34.89465191704644" lon="-6.209417239204647"><ele>36.0</ele><time>2026-04-28T14:15:58.999Z</time></trkpt><trkpt lat="34.894947425239145" lon="-6.209385290088804"><ele>36.0</ele><time>2026-04-28T14:15:59.999Z</time></trkpt><trkpt lat="34.89523875598485" lon="-6.2093548321043714"><ele>36.5</ele><time>2026-04-28T14:16:00.999Z</time></trkpt><trkpt lat="34.8955297296231" lon="-6.209323060311826"><ele>37.0</ele><time>2026-04-28T14:16:01.999Z</time></trkpt><trkpt lat="34.89582278560239" lon="-6.209292834046193"><ele>37.0</ele><time>2026-04-28T14:16:02.999Z</time></trkpt><trkpt lat="34.89611592956268" lon="-6.209263725879889"><ele>37.0</ele><time>2026-04-28T14:16:03.999Z</time></trkpt><trkpt lat="34.89640794458642" lon="-6.2092350235803275"><ele>37.0</ele><time>2026-04-28T14:16:04.999Z</time></trkpt><trkpt lat="34.89670051463458" lon="-6.209206198655891"><ele>37.0</ele><time>2026-04-28T14:16:05.999Z</time></trkpt><trkpt lat="34.89699237092568" lon="-6.209176891543965"><ele>38.0</ele><time>2026-04-28T14:16:06.999Z</time></trkpt><trkpt lat="34.897282640523464" lon="-6.20914597346054"><ele>39.0</ele><time>2026-04-28T14:16:07.999Z</time></trkpt><trkpt lat="34.89757157724519" lon="-6.209116214211883"><ele>39.0</ele><time>2026-04-28T14:16:08.999Z</time></trkpt><trkpt lat="34.89785729173107" lon="-6.209086860902504"><ele>39.0</ele><time>2026-04-28T14:16:09.999Z</time></trkpt><trkpt lat="34.89814179759059" lon="-6.209056273306989"><ele>38.5</ele><time>2026-04-28T14:16:10.999Z</time></trkpt><trkpt lat="34.898426406471046" lon="-6.209024508298139"><ele>38.0</ele><time>2026-04-28T14:16:11.999Z</time></trkpt><trkpt lat="34.898715680475505" lon="-6.208991609730165"><ele>37.5</ele><time>2026-04-28T14:16:12.999Z</time></trkpt><trkpt lat="34.899008190869175" lon="-6.208959343580459"><ele>37.0</ele><time>2026-04-28T14:16:13.999Z</time></trkpt><trkpt lat="34.899301526481885" lon="-6.2089273125358755"><ele>37.0</ele><time>2026-04-28T14:16:14.999Z</time></trkpt><trkpt lat="34.899596187930925" lon="-6.208894538658534"><ele>37.0</ele><time>2026-04-28T14:16:15.999Z</time></trkpt><trkpt lat="34.89989072913361" lon="-6.208860800288437"><ele>37.5</ele><time>2026-04-28T14:16:16.999Z</time></trkpt><trkpt lat="34.90018421161967" lon="-6.208824382074125"><ele>38.0</ele><time>2026-04-28T14:16:17.999Z</time></trkpt><trkpt lat="34.90047696869769" lon="-6.2087869268876625"><ele>38.0</ele><time>2026-04-28T14:16:18.999Z</time></trkpt><trkpt lat="34.90076692984101" lon="-6.208747794599283"><ele>38.0</ele><time>2026-04-28T14:16:19.999Z</time></trkpt><trkpt lat="34.901056449585575" lon="-6.208707832045156"><ele>39.0</ele><time>2026-04-28T14:16:20.999Z</time></trkpt><trkpt lat="34.90134642100182" lon="-6.208666428674873"><ele>40.0</ele><time>2026-04-28T14:16:21.999Z</time></trkpt><trkpt lat="34.90163467072821" lon="-6.208621965428414"><ele>40.5</ele><time>2026-04-28T14:16:22.999Z</time></trkpt><trkpt lat="34.90192083394695" lon="-6.208574690308756"><ele>41.0</ele><time>2026-04-28T14:16:23.999Z</time></trkpt><trkpt lat="34.90220604919822" lon="-6.208523822107138"><ele>41.0</ele><time>2026-04-28T14:16:24.999Z</time></trkpt><trkpt lat="34.90249091210447" lon="-6.208468687606933"><ele>41.0</ele><time>2026-04-28T14:16:25.999Z</time></trkpt><trkpt lat="34.90277625428122" lon="-6.2084122902258505"><ele>41.0</ele><time>2026-04-28T14:16:26.999Z</time></trkpt><trkpt lat="34.903062538890715" lon="-6.208353977990612"><ele>41.0</ele><time>2026-04-28T14:16:27.999Z</time></trkpt><trkpt lat="34.90335143350687" lon="-6.208293547303559"><ele>42.0</ele><time>2026-04-28T14:16:28.999Z</time></trkpt><trkpt lat="34.903641812583466" lon="-6.208229445295777"><ele>43.0</ele><time>2026-04-28T14:16:29.999Z</time></trkpt><trkpt lat="34.90393133011166" lon="-6.208160690358421"><ele>42.5</ele><time>2026-04-28T14:16:30.999Z</time></trkpt><trkpt lat="34.904217295014696" lon="-6.208094543917817"><ele>42.0</ele><time>2026-04-28T14:16:31.999Z</time></trkpt><trkpt lat="34.9045029961417" lon="-6.208028402337289"><ele>43.5</ele><time>2026-04-28T14:16:32.999Z</time></trkpt><trkpt lat="34.904789031530655" lon="-6.2079606215532666"><ele>45.0</ele><time>2026-04-28T14:16:33.999Z</time></trkpt><trkpt lat="34.905072665929275" lon="-6.207888905759022"><ele>45.5</ele><time>2026-04-28T14:16:34.999Z</time></trkpt><trkpt lat="34.90535337760098" lon="-6.207815263551882"><ele>46.0</ele><time>2026-04-28T14:16:35.999Z</time></trkpt><trkpt lat="34.905632290898204" lon="-6.2077409612017265"><ele>46.0</ele><time>2026-04-28T14:16:36.999Z</time></trkpt><trkpt lat="34.90591112949642" lon="-6.207664236908892"><ele>46.0</ele><time>2026-04-28T14:16:37.999Z</time></trkpt><trkpt lat="34.906186829478635" lon="-6.207584745390248"><ele>46.5</ele><time>2026-04-28T14:16:38.999Z</time></trkpt><trkpt lat="34.9064616221641" lon="-6.207502870196237"><ele>47.0</ele><time>2026-04-28T14:16:39.999Z</time></trkpt><trkpt lat="34.906735642907016" lon="-6.207420041890924"><ele>46.5</ele><time>2026-04-28T14:16:40.999Z</time></trkpt><trkpt lat="34.907008051242315" lon="-6.2073378701583914"><ele>46.0</ele><time>2026-04-28T14:16:41.999Z</time></trkpt><trkpt lat="34.9072805996586" lon="-6.20725472933486"><ele>47.0</ele><time>2026-04-28T14:16:42.999Z</time></trkpt><trkpt lat="34.907554705104424" lon="-6.207171249420995"><ele>48.0</ele><time>2026-04-28T14:16:43.999Z</time></trkpt><trkpt lat="34.90782935740354" lon="-6.2070873217107945"><ele>48.0</ele><time>2026-04-28T14:16:44.999Z</time></trkpt><trkpt lat="34.908104551996175" lon="-6.207002972681291"><ele>48.0</ele><time>2026-04-28T14:16:45.999Z</time></trkpt><trkpt lat="34.90838218623876" lon="-6.206920780110207"><ele>48.5</ele><time>2026-04-28T14:16:46.999Z</time></trkpt><trkpt lat="34.9086598125583" lon="-6.206841166593304"><ele>49.0</ele><time>2026-04-28T14:16:47.999Z</time></trkpt><trkpt lat="34.90893638276296" lon="-6.206761962995366"><ele>49.0</ele><time>2026-04-28T14:16:48.999Z</time></trkpt><trkpt lat="34.90921496784689" lon="-6.206678324824335"><ele>49.0</ele><time>2026-04-28T14:16:49.999Z</time></trkpt><trkpt lat="34.90949504652154" lon="-6.206594129976699"><ele>50.0</ele><time>2026-04-28T14:16:50.999Z</time></trkpt><trkpt lat="34.909775857591185" lon="-6.206509795161145"><ele>51.0</ele><time>2026-04-28T14:16:51.999Z</time></trkpt><trkpt lat="34.91005563987713" lon="-6.206426436553803"><ele>51.5</ele><time>2026-04-28T14:16:52.999Z</time></trkpt><trkpt lat="34.9103363630964" lon="-6.206343038176523"><ele>52.0</ele><time>2026-04-28T14:16:53.999Z</time></trkpt><trkpt lat="34.910617890123646" lon="-6.206260156722788"><ele>52.0</ele><time>2026-04-28T14:16:54.999Z</time></trkpt><trkpt lat="34.91089738370304" lon="-6.206170251450032"><ele>52.0</ele><time>2026-04-28T14:16:55.999Z</time></trkpt><trkpt lat="34.91117392180463" lon="-6.206077812181435"><ele>51.5</ele><time>2026-04-28T14:16:56.999Z</time></trkpt><trkpt lat="34.911454944076745" lon="-6.20598537032031"><ele>51.0</ele><time>2026-04-28T14:16:57.999Z</time></trkpt><trkpt lat="34.91173490984925" lon="-6.205897214313844"><ele>51.0</ele><time>2026-04-28T14:16:58.999Z</time></trkpt><trkpt lat="34.91201829247109" lon="-6.205808833995663"><ele>51.0</ele><time>2026-04-28T14:16:59.999Z</time></trkpt><trkpt lat="34.912303727754846" lon="-6.205719704816079"><ele>52.5</ele><time>2026-04-28T14:17:00.999Z</time></trkpt><trkpt lat="34.91258701292" lon="-6.205630887246787"><ele>54.0</ele><time>2026-04-28T14:17:01.999Z</time></trkpt><trkpt lat="34.91286754705539" lon="-6.205541935580826"><ele>54.0</ele><time>2026-04-28T14:17:02.999Z</time></trkpt><trkpt lat="34.91314849875317" lon="-6.205449201389796"><ele>54.0</ele><time>2026-04-28T14:17:03.999Z</time></trkpt><trkpt lat="34.91343151690132" lon="-6.205357459411579"><ele>54.0</ele><time>2026-04-28T14:17:04.999Z</time></trkpt><trkpt lat="34.91371799109918" lon="-6.2052668705862475"><ele>54.0</ele><time>2026-04-28T14:17:05.999Z</time></trkpt><trkpt lat="34.91400486520061" lon="-6.205178968330497"><ele>54.0</ele><time>2026-04-28T14:17:06.999Z</time></trkpt><trkpt lat="34.91429367009569" lon="-6.205088572785995"><ele>54.0</ele><time>2026-04-28T14:17:07.999Z</time></trkpt><trkpt lat="34.91457911017756" lon="-6.204998792276894"><ele>54.0</ele><time>2026-04-28T14:17:08.999Z</time></trkpt><trkpt lat="34.91486230366362" lon="-6.204908361473795"><ele>54.0</ele><time>2026-04-28T14:17:09.999Z</time></trkpt><trkpt lat="34.91514334829101" lon="-6.20482211742632"><ele>56.0</ele><time>2026-04-28T14:17:10.999Z</time></trkpt><trkpt lat="34.915425559233185" lon="-6.204736399476554"><ele>58.0</ele><time>2026-04-28T14:17:11.999Z</time></trkpt><trkpt lat="34.91570847529436" lon="-6.204651305839192"><ele>58.5</ele><time>2026-04-28T14:17:12.999Z</time></trkpt><trkpt lat="34.91598832160105" lon="-6.204567425572722"><ele>59.0</ele><time>2026-04-28T14:17:13.999Z</time></trkpt><trkpt lat="34.916268320496506" lon="-6.204486276535931"><ele>59.0</ele><time>2026-04-28T14:17:14.999Z</time></trkpt><trkpt lat="34.9165471486203" lon="-6.204409531307785"><ele>59.0</ele><time>2026-04-28T14:17:15.999Z</time></trkpt><trkpt lat="34.91682873397396" lon="-6.2043335214194055"><ele>58.5</ele><time>2026-04-28T14:17:16.999Z</time></trkpt><trkpt lat="34.91711207476769" lon="-6.204257624288407"><ele>58.0</ele><time>2026-04-28T14:17:17.999Z</time></trkpt><trkpt lat="34.917396725766444" lon="-6.204181328737533"><ele>58.5</ele><time>2026-04-28T14:17:18.999Z</time></trkpt><trkpt lat="34.91767725543395" lon="-6.204105092504757"><ele>59.0</ele><time>2026-04-28T14:17:19.999Z</time></trkpt><trkpt lat="34.91795521608918" lon="-6.204031349903351"><ele>59.0</ele><time>2026-04-28T14:17:20.999Z</time></trkpt><trkpt lat="34.91823465551285" lon="-6.203962081611451"><ele>59.0</ele><time>2026-04-28T14:17:21.999Z</time></trkpt><trkpt lat="34.91851500266965" lon="-6.203899338534866"><ele>60.0</ele><time>2026-04-28T14:17:22.999Z</time></trkpt><trkpt lat="34.91879660436725" lon="-6.2038364207236105"><ele>61.0</ele><time>2026-04-28T14:17:23.999Z</time></trkpt><trkpt lat="34.91907571209996" lon="-6.203775941925402"><ele>61.5</ele><time>2026-04-28T14:17:24.999Z</time></trkpt><trkpt lat="34.91935768086045" lon="-6.203716567102677"><ele>62.0</ele><time>2026-04-28T14:17:25.999Z</time></trkpt><trkpt lat="34.91964612586794" lon="-6.203655969194428"><ele>62.0</ele><time>2026-04-28T14:17:26.999Z</time></trkpt><trkpt lat="34.919939448712896" lon="-6.20359834093722"><ele>62.0</ele><time>2026-04-28T14:17:27.999Z</time></trkpt><trkpt lat="34.92023777760792" lon="-6.203543961072315"><ele>62.0</ele><time>2026-04-28T14:17:28.999Z</time></trkpt><trkpt lat="34.9205394300209" lon="-6.203493214868539"><ele>62.0</ele><time>2026-04-28T14:17:29.999Z</time></trkpt><trkpt lat="34.9208403324605" lon="-6.2034464103718125"><ele>62.5</ele><time>2026-04-28T14:17:30.999Z</time></trkpt><trkpt lat="34.92114000403143" lon="-6.203398579190381"><ele>63.0</ele><time>2026-04-28T14:17:31.999Z</time></trkpt><trkpt lat="34.92143821321401" lon="-6.203350196395222"><ele>64.5</ele><time>2026-04-28T14:17:32.999Z</time></trkpt><trkpt lat="34.92173488550577" lon="-6.203305745092334"><ele>66.0</ele><time>2026-04-28T14:17:33.999Z</time></trkpt><trkpt lat="34.9220329821938" lon="-6.2032652589235475"><ele>66.0</ele><time>2026-04-28T14:17:34.999Z</time></trkpt><trkpt lat="34.92232880973187" lon="-6.2032263752856185"><ele>66.0</ele><time>2026-04-28T14:17:35.999Z</time></trkpt><trkpt lat="34.92261946970373" lon="-6.203190805781842"><ele>68.5</ele><time>2026-04-28T14:17:36.999Z</time></trkpt><trkpt lat="34.92291208650389" lon="-6.203156716430533"><ele>71.0</ele><time>2026-04-28T14:17:37.999Z</time></trkpt><trkpt lat="34.923206218449" lon="-6.203122602269681"><ele>71.0</ele><time>2026-04-28T14:17:38.999Z</time></trkpt><trkpt lat="34.9235018942127" lon="-6.203084630195841"><ele>71.0</ele><time>2026-04-28T14:17:39.999Z</time></trkpt><trkpt lat="34.92379849091664" lon="-6.203047387722195"><ele>71.0</ele><time>2026-04-28T14:17:40.999Z</time></trkpt><trkpt lat="34.9240939593144" lon="-6.203011660276387"><ele>71.0</ele><time>2026-04-28T14:17:41.999Z</time></trkpt><trkpt lat="34.924391344181856" lon="-6.202976439000209"><ele>71.5</ele><time>2026-04-28T14:17:42.999Z</time></trkpt><trkpt lat="34.92468936392157" lon="-6.2029410750023315"><ele>72.0</ele><time>2026-04-28T14:17:43.999Z</time></trkpt><trkpt lat="34.92498569224475" lon="-6.202904615770773"><ele>72.5</ele><time>2026-04-28T14:17:44.999Z</time></trkpt><trkpt lat="34.92528091777104" lon="-6.202867010154435"><ele>73.0</ele><time>2026-04-28T14:17:45.999Z</time></trkpt><trkpt lat="34.92557756733624" lon="-6.202830985631875"><ele>73.0</ele><time>2026-04-28T14:17:46.999Z</time></trkpt><trkpt lat="34.92587451150889" lon="-6.202794890920841"><ele>73.0</ele><time>2026-04-28T14:17:47.999Z</time></trkpt><trkpt lat="34.92617205259883" lon="-6.202758181809595"><ele>74.5</ele><time>2026-04-28T14:17:48.999Z</time></trkpt><trkpt lat="34.92646970722405" lon="-6.202720934975823"><ele>76.0</ele><time>2026-04-28T14:17:49.999Z</time></trkpt><trkpt lat="34.926767201992895" lon="-6.202687398924206"><ele>78.0</ele><time>2026-04-28T14:17:50.999Z</time></trkpt><trkpt lat="34.92706420952603" lon="-6.202655291556047"><ele>80.0</ele><time>2026-04-28T14:17:51.999Z</time></trkpt><trkpt lat="34.92736188093259" lon="-6.202622075060968"><ele>80.0</ele><time>2026-04-28T14:17:52.999Z</time></trkpt><trkpt lat="34.92766105537914" lon="-6.202584706372878"><ele>80.0</ele><time>2026-04-28T14:17:53.999Z</time></trkpt><trkpt lat="34.92795867582301" lon="-6.20254533344314"><ele>80.0</ele><time>2026-04-28T14:17:54.999Z</time></trkpt><trkpt lat="34.92825801976337" lon="-6.202502757602912"><ele>80.0</ele><time>2026-04-28T14:17:55.999Z</time></trkpt><trkpt lat="34.92855694546013" lon="-6.202460623062964"><ele>82.0</ele><time>2026-04-28T14:17:56.999Z</time></trkpt><trkpt lat="34.92885583224757" lon="-6.2024198217472195"><ele>84.0</ele><time>2026-04-28T14:17:57.999Z</time></trkpt><trkpt lat="34.929152355053844" lon="-6.202380311055134"><ele>84.5</ele><time>2026-04-28T14:17:58.999Z</time></trkpt><trkpt lat="34.92944804846746" lon="-6.202340863032114"><ele>85.0</ele><time>2026-04-28T14:17:59.999Z</time></trkpt><trkpt lat="34.92974313202481" lon="-6.202301998318433"><ele>86.0</ele><time>2026-04-28T14:18:00.999Z</time></trkpt><trkpt lat="34.93003850718618" lon="-6.2022616200678975"><ele>87.0</ele><time>2026-04-28T14:18:01.999Z</time></trkpt><trkpt lat="34.93033555245845" lon="-6.202223953815809"><ele>87.5</ele><time>2026-04-28T14:18:02.999Z</time></trkpt><trkpt lat="34.93063248887176" lon="-6.202190656663876"><ele>88.0</ele><time>2026-04-28T14:18:03.999Z</time></trkpt><trkpt lat="34.930931198118294" lon="-6.202156823138449"><ele>88.0</ele><time>2026-04-28T14:18:04.999Z</time></trkpt><trkpt lat="34.93122841542418" lon="-6.202128454659566"><ele>88.0</ele><time>2026-04-28T14:18:05.999Z</time></trkpt><trkpt lat="34.93152744618797" lon="-6.202102113142365"><ele>89.5</ele><time>2026-04-28T14:18:06.999Z</time></trkpt><trkpt lat="34.93182256044839" lon="-6.202078685588745"><ele>91.0</ele><time>2026-04-28T14:18:07.999Z</time></trkpt><trkpt lat="34.932117391864" lon="-6.202059776158972"><ele>91.0</ele><time>2026-04-28T14:18:08.999Z</time></trkpt><trkpt lat="34.932412214810746" lon="-6.202047002463556"><ele>91.0</ele><time>2026-04-28T14:18:09.999Z</time></trkpt><trkpt lat="34.93270593053152" lon="-6.202039050478907"><ele>90.0</ele><time>2026-04-28T14:18:10.999Z</time></trkpt><trkpt lat="34.93300098947039" lon="-6.202035419251891"><ele>89.0</ele><time>2026-04-28T14:18:11.999Z</time></trkpt><trkpt lat="34.93329743847306" lon="-6.2020348178736535"><ele>88.5</ele><time>2026-04-28T14:18:12.999Z</time></trkpt><trkpt lat="34.93359459549108" lon="-6.202037274935732"><ele>88.0</ele><time>2026-04-28T14:18:13.999Z</time></trkpt><trkpt lat="34.933892871441664" lon="-6.202043339853906"><ele>88.0</ele><time>2026-04-28T14:18:14.999Z</time></trkpt><trkpt lat="34.934191327377235" lon="-6.202053255999261"><ele>88.0</ele><time>2026-04-28T14:18:15.999Z</time></trkpt><trkpt lat="34.93448828606206" lon="-6.20206626605676"><ele>89.5</ele><time>2026-04-28T14:18:16.999Z</time></trkpt><trkpt lat="34.93478722997757" lon="-6.2020832670942365"><ele>91.0</ele><time>2026-04-28T14:18:17.999Z</time></trkpt><trkpt lat="34.93508500135921" lon="-6.20210364437165"><ele>91.0</ele><time>2026-04-28T14:18:18.999Z</time></trkpt><trkpt lat="34.935383027042725" lon="-6.202126092992389"><ele>91.0</ele><time>2026-04-28T14:18:19.999Z</time></trkpt><trkpt lat="34.93567976728425" lon="-6.202149507204688"><ele>87.5</ele><time>2026-04-28T14:18:20.999Z</time></trkpt><trkpt lat="34.935977579755814" lon="-6.202173436962399"><ele>84.0</ele><time>2026-04-28T14:18:21.999Z</time></trkpt><trkpt lat="34.936276814907984" lon="-6.20219774183704"><ele>84.0</ele><time>2026-04-28T14:18:22.999Z</time></trkpt><trkpt lat="34.93658020723615" lon="-6.20222006336567"><ele>84.0</ele><time>2026-04-28T14:18:23.999Z</time></trkpt><trkpt lat="34.93688204402037" lon="-6.202241751301249"><ele>83.5</ele><time>2026-04-28T14:18:24.999Z</time></trkpt><trkpt lat="34.93718183286827" lon="-6.202262894618687"><ele>83.0</ele><time>2026-04-28T14:18:25.999Z</time></trkpt><trkpt lat="34.93747829291794" lon="-6.202282467202277"><ele>83.5</ele><time>2026-04-28T14:18:26.999Z</time></trkpt><trkpt lat="34.93777425789883" lon="-6.202306139755741"><ele>84.0</ele><time>2026-04-28T14:18:27.999Z</time></trkpt><trkpt lat="34.93806812948851" lon="-6.202329975308678"><ele>84.5</ele><time>2026-04-28T14:18:28.999Z</time></trkpt><trkpt lat="34.93836390522421" lon="-6.202351438373593"><ele>85.0</ele><time>2026-04-28T14:18:29.999Z</time></trkpt><trkpt lat="34.93866374409996" lon="-6.2023718444935385"><ele>84.0</ele><time>2026-04-28T14:18:30.999Z</time></trkpt><trkpt lat="34.93896318147313" lon="-6.202392202222848"><ele>83.0</ele><time>2026-04-28T14:18:31.999Z</time></trkpt><trkpt lat="34.93926379020856" lon="-6.202410557461882"><ele>83.0</ele><time>2026-04-28T14:18:32.999Z</time></trkpt><trkpt lat="34.93956306724145" lon="-6.202427146816155"><ele>83.0</ele><time>2026-04-28T14:18:33.999Z</time></trkpt><trkpt lat="34.93986097818422" lon="-6.202439205023542"><ele>81.5</ele><time>2026-04-28T14:18:34.999Z</time></trkpt><trkpt lat="34.94016152084218" lon="-6.202447718144409"><ele>80.0</ele><time>2026-04-28T14:18:35.999Z</time></trkpt><trkpt lat="34.94046186576345" lon="-6.202453501559583"><ele>80.0</ele><time>2026-04-28T14:18:36.999Z</time></trkpt><trkpt lat="34.94076203818203" lon="-6.202456290258741"><ele>80.0</ele><time>2026-04-28T14:18:37.999Z</time></trkpt><trkpt lat="34.94106248523477" lon="-6.202454412563771"><ele>81.5</ele><time>2026-04-28T14:18:38.999Z</time></trkpt><trkpt lat="34.9413641371683" lon="-6.2024488919964105"><ele>83.0</ele><time>2026-04-28T14:18:39.999Z</time></trkpt><trkpt lat="34.94166511444503" lon="-6.2024434784253195"><ele>83.0</ele><time>2026-04-28T14:18:40.999Z</time></trkpt><trkpt lat="34.941965561091465" lon="-6.202435427202312"><ele>83.0</ele><time>2026-04-28T14:18:41.999Z</time></trkpt><trkpt lat="34.94226792056583" lon="-6.2024239834835955"><ele>82.0</ele><time>2026-04-28T14:18:42.999Z</time></trkpt><trkpt lat="34.94256964752357" lon="-6.20240850049746"><ele>81.0</ele><time>2026-04-28T14:18:43.999Z</time></trkpt><trkpt lat="34.942871518114586" lon="-6.202385850849568"><ele>81.0</ele><time>2026-04-28T14:18:44.999Z</time></trkpt><trkpt lat="34.94317326973151" lon="-6.202359368910432"><ele>81.0</ele><time>2026-04-28T14:18:45.999Z</time></trkpt><trkpt lat="34.943473236407286" lon="-6.202332541850803"><ele>80.0</ele><time>2026-04-28T14:18:46.999Z</time></trkpt><trkpt lat="34.94377013787637" lon="-6.202304088564004"><ele>79.0</ele><time>2026-04-28T14:18:47.999Z</time></trkpt><trkpt lat="34.94406549454089" lon="-6.202273308331384"><ele>79.5</ele><time>2026-04-28T14:18:48.999Z</time></trkpt><trkpt lat="34.94436167161653" lon="-6.2022435644803275"><ele>80.0</ele><time>2026-04-28T14:18:49.999Z</time></trkpt><trkpt lat="34.94465827735959" lon="-6.202214072125479"><ele>80.0</ele><time>2026-04-28T14:18:50.999Z</time></trkpt><trkpt lat="34.944953521591806" lon="-6.202184911248498"><ele>80.0</ele><time>2026-04-28T14:18:51.999Z</time></trkpt><trkpt lat="34.94524867230181" lon="-6.2021563098903485"><ele>80.0</ele><time>2026-04-28T14:18:52.999Z</time></trkpt><trkpt lat="34.94554295409909" lon="-6.202126336644695"><ele>80.0</ele><time>2026-04-28T14:18:53.999Z</time></trkpt><trkpt lat="34.94583784195626" lon="-6.202094716128703"><ele>79.5</ele><time>2026-04-28T14:18:54.999Z</time></trkpt><trkpt lat="34.94613138317465" lon="-6.202063144739249"><ele>79.0</ele><time>2026-04-28T14:18:55.999Z</time></trkpt><trkpt lat="34.946421753638624" lon="-6.20203432100182"><ele>79.0</ele><time>2026-04-28T14:18:56.999Z</time></trkpt><trkpt lat="34.94670717991543" lon="-6.202007575783667"><ele>79.0</ele><time>2026-04-28T14:18:57.999Z</time></trkpt><trkpt lat="34.946987053194306" lon="-6.201982342625988"><ele>79.0</ele><time>2026-04-28T14:18:58.999Z</time></trkpt><trkpt lat="34.947261459256666" lon="-6.201956615154806"><ele>79.0</ele><time>2026-04-28T14:18:59.999Z</time></trkpt><trkpt lat="34.94753026565639" lon="-6.201932123216629"><ele>78.5</ele><time>2026-04-28T14:19:00.999Z</time></trkpt><trkpt lat="34.9477958660938" lon="-6.20190763050956"><ele>78.0</ele><time>2026-04-28T14:19:01.999Z</time></trkpt><trkpt lat="34.94805799117841" lon="-6.201884152158964"><ele>78.0</ele><time>2026-04-28T14:19:02.999Z</time></trkpt><trkpt lat="34.948315379825246" lon="-6.201861949521925"><ele>78.0</ele><time>2026-04-28T14:19:03.999Z</time></trkpt><trkpt lat="34.948570263569316" lon="-6.201838149258798"><ele>79.0</ele><time>2026-04-28T14:19:04.999Z</time></trkpt><trkpt lat="34.94882067154865" lon="-6.201813073925897"><ele>80.0</ele><time>2026-04-28T14:19:05.999Z</time></trkpt><trkpt lat="34.94906567578811" lon="-6.201787302499379"><ele>79.5</ele><time>2026-04-28T14:19:06.999Z</time></trkpt><trkpt lat="34.94930762442266" lon="-6.201764061583273"><ele>79.0</ele><time>2026-04-28T14:19:07.999Z</time></trkpt><trkpt lat="34.949543551066974" lon="-6.201742401692794"><ele>79.0</ele><time>2026-04-28T14:19:08.999Z</time></trkpt><trkpt lat="34.9497705943696" lon="-6.20172050886159"><ele>79.0</ele><time>2026-04-28T14:19:09.999Z</time></trkpt><trkpt lat="34.94999306994197" lon="-6.201697032930766"><ele>78.66666666666666</ele><time>2026-04-28T14:19:10.999Z</time></trkpt><trkpt lat="34.950212216826195" lon="-6.201673308338761"><ele>78.33333333333333</ele><time>2026-04-28T14:19:11.999Z</time></trkpt><trkpt lat="34.9504341092688" lon="-6.201652442892538"><ele>78.0</ele><time>2026-04-28T14:19:12.999Z</time></trkpt><trkpt lat="34.95065941983975" lon="-6.201634002352076"><ele>76.5</ele><time>2026-04-28T14:19:13.999Z</time></trkpt><trkpt lat="34.950887459223864" lon="-6.2016130483852185"><ele>75.0</ele><time>2026-04-28T14:19:14.999Z</time></trkpt><trkpt lat="34.95111897857192" lon="-6.201590920775751"><ele>75.0</ele><time>2026-04-28T14:19:15.999Z</time></trkpt><trkpt lat="34.95135213144166" lon="-6.201566972442699"><ele>75.0</ele><time>2026-04-28T14:19:16.999Z</time></trkpt><trkpt lat="34.95158887871793" lon="-6.201539967885291"><ele>75.0</ele><time>2026-04-28T14:19:17.999Z</time></trkpt><trkpt lat="34.951827047407846" lon="-6.201514807149066"><ele>75.0</ele><time>2026-04-28T14:19:18.999Z</time></trkpt><trkpt lat="34.952064319037014" lon="-6.201490905924936"><ele>75.0</ele><time>2026-04-28T14:19:19.999Z</time></trkpt><trkpt lat="34.95230075783973" lon="-6.201468372609877"><ele>75.0</ele><time>2026-04-28T14:19:20.999Z</time></trkpt><trkpt lat="34.952537279742856" lon="-6.201446794873742"><ele>74.0</ele><time>2026-04-28T14:19:21.999Z</time></trkpt><trkpt lat="34.95277058051246" lon="-6.2014235168653515"><ele>73.0</ele><time>2026-04-28T14:19:22.999Z</time></trkpt><trkpt lat="34.953001063832716" lon="-6.201397111486392"><ele>73.0</ele><time>2026-04-28T14:19:23.999Z</time></trkpt><trkpt lat="34.953227013423785" lon="-6.201370913194092"><ele>73.0</ele><time>2026-04-28T14:19:24.999Z</time></trkpt><trkpt lat="34.95345392270099" lon="-6.2013468973943215"><ele>72.5</ele><time>2026-04-28T14:19:25.999Z</time></trkpt><trkpt lat="34.953684166435664" lon="-6.201324022926474"><ele>72.0</ele><time>2026-04-28T14:19:26.999Z</time></trkpt><trkpt lat="34.95391738124132" lon="-6.2013007084149265"><ele>72.0</ele><time>2026-04-28T14:19:27.999Z</time></trkpt><trkpt lat="34.95415201765622" lon="-6.2012768951338195"><ele>72.0</ele><time>2026-04-28T14:19:28.999Z</time></trkpt><trkpt lat="34.95439127642955" lon="-6.2012547730946785"><ele>71.0</ele><time>2026-04-28T14:19:29.999Z</time></trkpt><trkpt lat="34.954638675561796" lon="-6.20123300235308"><ele>70.0</ele><time>2026-04-28T14:19:30.999Z</time></trkpt><trkpt lat="34.954894727931176" lon="-6.20121087981653"><ele>70.5</ele><time>2026-04-28T14:19:31.999Z</time></trkpt><trkpt lat="34.955159355119" lon="-6.2011851342434685"><ele>71.0</ele><time>2026-04-28T14:19:32.999Z</time></trkpt><trkpt lat="34.95542935215109" lon="-6.201158074789699"><ele>71.0</ele><time>2026-04-28T14:19:33.999Z</time></trkpt><trkpt lat="34.95571001537647" lon="-6.201127548263293"><ele>71.0</ele><time>2026-04-28T14:19:34.999Z</time></trkpt><trkpt lat="34.95599650067862" lon="-6.201097120566355"><ele>70.0</ele><time>2026-04-28T14:19:35.999Z</time></trkpt><trkpt lat="34.9562889487082" lon="-6.201063894888031"><ele>69.0</ele><time>2026-04-28T14:19:36.999Z</time></trkpt><trkpt lat="34.95658427581562" lon="-6.201031370294348"><ele>69.0</ele><time>2026-04-28T14:19:37.999Z</time></trkpt><trkpt lat="34.956885310274295" lon="-6.200997018857268"><ele>69.0</ele><time>2026-04-28T14:19:38.999Z</time></trkpt><trkpt lat="34.95718947053988" lon="-6.200963032111234"><ele>69.0</ele><time>2026-04-28T14:19:39.999Z</time></trkpt><trkpt lat="34.957491517509865" lon="-6.200932156797637"><ele>69.0</ele><time>2026-04-28T14:19:40.999Z</time></trkpt><trkpt lat="34.95779352213197" lon="-6.200902460507544"><ele>69.0</ele><time>2026-04-28T14:19:41.999Z</time></trkpt><trkpt lat="34.9580950663884" lon="-6.200873820031516"><ele>69.0</ele><time>2026-04-28T14:19:42.999Z</time></trkpt><trkpt lat="34.95839804822484" lon="-6.200843375971951"><ele>68.0</ele><time>2026-04-28T14:19:43.999Z</time></trkpt><trkpt lat="34.95870011362951" lon="-6.20081533784828"><ele>67.0</ele><time>2026-04-28T14:19:44.999Z</time></trkpt><trkpt lat="34.95900297911058" lon="-6.200787246654355"><ele>67.0</ele><time>2026-04-28T14:19:45.999Z</time></trkpt><trkpt lat="34.959303680450944" lon="-6.200759390889803"><ele>67.0</ele><time>2026-04-28T14:19:46.999Z</time></trkpt><trkpt lat="34.95960382237692" lon="-6.200729099366211"><ele>67.0</ele><time>2026-04-28T14:19:47.999Z</time></trkpt><trkpt lat="34.95990191660546" lon="-6.200698306706319"><ele>67.0</ele><time>2026-04-28T14:19:48.999Z</time></trkpt><trkpt lat="34.96019851862802" lon="-6.2006649423107785"><ele>66.5</ele><time>2026-04-28T14:19:49.999Z</time></trkpt><trkpt lat="34.960493215527045" lon="-6.200631435611811"><ele>66.0</ele><time>2026-04-28T14:19:50.999Z</time></trkpt><trkpt lat="34.960785591765806" lon="-6.200597699488289"><ele>65.5</ele><time>2026-04-28T14:19:51.999Z</time></trkpt><trkpt lat="34.961077914400654" lon="-6.200562410492402"><ele>65.0</ele><time>2026-04-28T14:19:52.999Z</time></trkpt><trkpt lat="34.961369343933285" lon="-6.200529105124575"><ele>65.0</ele><time>2026-04-28T14:19:53.999Z</time></trkpt><trkpt lat="34.961660439200664" lon="-6.200497541292887"><ele>65.0</ele><time>2026-04-28T14:19:54.999Z</time></trkpt><trkpt lat="34.961953564194964" lon="-6.200467461749392"><ele>65.0</ele><time>2026-04-28T14:19:55.999Z</time></trkpt><trkpt lat="34.962245915177355" lon="-6.200438552626166"><ele>65.0</ele><time>2026-04-28T14:19:56.999Z</time></trkpt><trkpt lat="34.96253853600369" lon="-6.2004068534122"><ele>63.5</ele><time>2026-04-28T14:19:57.999Z</time></trkpt><trkpt lat="34.962827617865834" lon="-6.200372176376933"><ele>62.0</ele><time>2026-04-28T14:19:58.999Z</time></trkpt><trkpt lat="34.96311703017442" lon="-6.200336554871846"><ele>60.0</ele><time>2026-04-28T14:19:59.999Z</time></trkpt><trkpt lat="34.963409589305094" lon="-6.200303269708835"><ele>58.0</ele><time>2026-04-28T14:20:00.999Z</time></trkpt><trkpt lat="34.963702178319245" lon="-6.2002727916915745"><ele>58.0</ele><time>2026-04-28T14:20:01.999Z</time></trkpt><trkpt lat="34.96399625229899" lon="-6.200244006474792"><ele>58.0</ele><time>2026-04-28T14:20:02.999Z</time></trkpt><trkpt lat="34.964291538987965" lon="-6.2002141159887865"><ele>58.0</ele><time>2026-04-28T14:20:03.999Z</time></trkpt><trkpt lat="34.96458691596952" lon="-6.200184495517609"><ele>58.0</ele><time>2026-04-28T14:20:04.999Z</time></trkpt><trkpt lat="34.96488073811109" lon="-6.200152917516403"><ele>58.0</ele><time>2026-04-28T14:20:05.999Z</time></trkpt><trkpt lat="34.96517527141997" lon="-6.200120338006647"><ele>58.0</ele><time>2026-04-28T14:20:06.999Z</time></trkpt><trkpt lat="34.96547057782234" lon="-6.200087990432819"><ele>58.0</ele><time>2026-04-28T14:20:07.999Z</time></trkpt><trkpt lat="34.96576432313531" lon="-6.200058154468193"><ele>58.0</ele><time>2026-04-28T14:20:08.999Z</time></trkpt><trkpt lat="34.9660563310785" lon="-6.200031151939477"><ele>57.5</ele><time>2026-04-28T14:20:09.999Z</time></trkpt><trkpt lat="34.96634357556227" lon="-6.200005375093601"><ele>57.0</ele><time>2026-04-28T14:20:10.999Z</time></trkpt><trkpt lat="34.96663364880244" lon="-6.199978062654841"><ele>56.0</ele><time>2026-04-28T14:20:11.999Z</time></trkpt><trkpt lat="34.966924422921394" lon="-6.199951758617453"><ele>55.0</ele><time>2026-04-28T14:20:12.999Z</time></trkpt><trkpt lat="34.96721604373874" lon="-6.199923488209178"><ele>55.0</ele><time>2026-04-28T14:20:13.999Z</time></trkpt><trkpt lat="34.967511600722496" lon="-6.199894040571947"><ele>55.0</ele><time>2026-04-28T14:20:14.999Z</time></trkpt><trkpt lat="34.96780858281611" lon="-6.199862525661419"><ele>55.0</ele><time>2026-04-28T14:20:15.999Z</time></trkpt><trkpt lat="34.96810340712229" lon="-6.199830280870726"><ele>55.0</ele><time>2026-04-28T14:20:16.999Z</time></trkpt><trkpt lat="34.96839968407673" lon="-6.199799032076131"><ele>55.5</ele><time>2026-04-28T14:20:17.999Z</time></trkpt><trkpt lat="34.96869735357096" lon="-6.199768169166281"><ele>56.0</ele><time>2026-04-28T14:20:18.999Z</time></trkpt><trkpt lat="34.96899838408152" lon="-6.199738213214738"><ele>56.0</ele><time>2026-04-28T14:20:19.999Z</time></trkpt><trkpt lat="34.96930073316475" lon="-6.199705006934851"><ele>56.0</ele><time>2026-04-28T14:20:20.999Z</time></trkpt><trkpt lat="34.9696030851836" lon="-6.199673757038837"><ele>56.0</ele><time>2026-04-28T14:20:21.999Z</time></trkpt><trkpt lat="34.96990700871506" lon="-6.199643896746726"><ele>56.0</ele><time>2026-04-28T14:20:22.999Z</time></trkpt><trkpt lat="34.97020973096081" lon="-6.199612645693675"><ele>55.0</ele><time>2026-04-28T14:20:23.999Z</time></trkpt><trkpt lat="34.970512077181404" lon="-6.1995780572415065"><ele>54.0</ele><time>2026-04-28T14:20:24.999Z</time></trkpt><trkpt lat="34.97081362017888" lon="-6.199547449442821"><ele>52.5</ele><time>2026-04-28T14:20:25.999Z</time></trkpt><trkpt lat="34.97111752195689" lon="-6.199515046242607"><ele>51.0</ele><time>2026-04-28T14:20:26.999Z</time></trkpt><trkpt lat="34.97142057981734" lon="-6.199485296244798"><ele>49.5</ele><time>2026-04-28T14:20:27.999Z</time></trkpt><trkpt lat="34.97172297629896" lon="-6.199453240338708"><ele>48.0</ele><time>2026-04-28T14:20:28.999Z</time></trkpt><trkpt lat="34.97202422349677" lon="-6.199419984911707"><ele>48.0</ele><time>2026-04-28T14:20:29.999Z</time></trkpt><trkpt lat="34.9723264416734" lon="-6.199388773893369"><ele>48.0</ele><time>2026-04-28T14:20:30.999Z</time></trkpt><trkpt lat="34.97262669716598" lon="-6.199354872294333"><ele>48.0</ele><time>2026-04-28T14:20:31.999Z</time></trkpt><trkpt lat="34.97292878114559" lon="-6.199323362613553"><ele>48.0</ele><time>2026-04-28T14:20:32.999Z</time></trkpt><trkpt lat="34.97322851131641" lon="-6.199293338635116"><ele>48.0</ele><time>2026-04-28T14:20:33.999Z</time></trkpt><trkpt lat="34.973528033547524" lon="-6.19926669523946"><ele>48.0</ele><time>2026-04-28T14:20:34.999Z</time></trkpt><trkpt lat="34.973828175121724" lon="-6.199238321916885"><ele>48.0</ele><time>2026-04-28T14:20:35.999Z</time></trkpt><trkpt lat="34.974128219153044" lon="-6.19921202836769"><ele>48.0</ele><time>2026-04-28T14:20:36.999Z</time></trkpt><trkpt lat="34.974429626100466" lon="-6.19919166736583"><ele>48.0</ele><time>2026-04-28T14:20:37.999Z</time></trkpt><trkpt lat="34.97472919874059" lon="-6.1991758505550605"><ele>48.0</ele><time>2026-04-28T14:20:38.999Z</time></trkpt><trkpt lat="34.9750294086735" lon="-6.199158640317372"><ele>47.0</ele><time>2026-04-28T14:20:39.999Z</time></trkpt><trkpt lat="34.97533004170977" lon="-6.199144526071428"><ele>46.0</ele><time>2026-04-28T14:20:40.999Z</time></trkpt><trkpt lat="34.975631815610534" lon="-6.199132323264899"><ele>47.0</ele><time>2026-04-28T14:20:41.999Z</time></trkpt><trkpt lat="34.97593533965857" lon="-6.199124758652274"><ele>48.0</ele><time>2026-04-28T14:20:42.999Z</time></trkpt><trkpt lat="34.97623805589867" lon="-6.19911934001415"><ele>48.0</ele><time>2026-04-28T14:20:43.999Z</time></trkpt><trkpt lat="34.97653931436344" lon="-6.199119549687432"><ele>48.0</ele><time>2026-04-28T14:20:44.999Z</time></trkpt><trkpt lat="34.976838648161774" lon="-6.199121565542651"><ele>47.0</ele><time>2026-04-28T14:20:45.999Z</time></trkpt><trkpt lat="34.977138603864084" lon="-6.199126461870084"><ele>46.0</ele><time>2026-04-28T14:20:46.999Z</time></trkpt><trkpt lat="34.97743986574948" lon="-6.199136435093336"><ele>45.5</ele><time>2026-04-28T14:20:47.999Z</time></trkpt><trkpt lat="34.97773934203807" lon="-6.199147489569083"><ele>45.0</ele><time>2026-04-28T14:20:48.999Z</time></trkpt><trkpt lat="34.97803843478868" lon="-6.199161355902954"><ele>45.0</ele><time>2026-04-28T14:20:49.999Z</time></trkpt><trkpt lat="34.97833737423641" lon="-6.199176021689726"><ele>45.0</ele><time>2026-04-28T14:20:50.999Z</time></trkpt><trkpt lat="34.978634903867366" lon="-6.199191936377595"><ele>44.5</ele><time>2026-04-28T14:20:51.999Z</time></trkpt><trkpt lat="34.97893109237942" lon="-6.1992037412181"><ele>44.0</ele><time>2026-04-28T14:20:52.999Z</time></trkpt><trkpt lat="34.97922864255502" lon="-6.199220203706647"><ele>44.0</ele><time>2026-04-28T14:20:53.999Z</time></trkpt><trkpt lat="34.97952564812733" lon="-6.199231943033347"><ele>44.0</ele><time>2026-04-28T14:20:54.999Z</time></trkpt><trkpt lat="34.9798252766961" lon="-6.19924116467581"><ele>44.0</ele><time>2026-04-28T14:20:55.999Z</time></trkpt><trkpt lat="34.98012392537548" lon="-6.199261515074438"><ele>44.0</ele><time>2026-04-28T14:20:56.999Z</time></trkpt><trkpt lat="34.98042313163149" lon="-6.19927499751115"><ele>44.0</ele><time>2026-04-28T14:20:57.999Z</time></trkpt><trkpt lat="34.98072020595164" lon="-6.199287279162728"><ele>44.0</ele><time>2026-04-28T14:20:58.999Z</time></trkpt><trkpt lat="34.98101700566513" lon="-6.1993011384373755"><ele>44.0</ele><time>2026-04-28T14:20:59.999Z</time></trkpt><trkpt lat="34.981316525926026" lon="-6.199312278520707"><ele>44.0</ele><time>2026-04-28T14:21:00.999Z</time></trkpt><trkpt lat="34.981616348164316" lon="-6.199326860260257"><ele>43.5</ele><time>2026-04-28T14:21:01.999Z</time></trkpt><trkpt lat="34.98191635633925" lon="-6.199346288871765"><ele>43.0</ele><time>2026-04-28T14:21:02.999Z</time></trkpt><trkpt lat="34.98221676835926" lon="-6.199359802736781"><ele>43.5</ele><time>2026-04-28T14:21:03.999Z</time></trkpt><trkpt lat="34.98251765603819" lon="-6.199367343006189"><ele>44.0</ele><time>2026-04-28T14:21:04.999Z</time></trkpt><trkpt lat="34.98281779349957" lon="-6.199379924724322"><ele>44.0</ele><time>2026-04-28T14:21:06Z</time></trkpt><trkpt lat="34.98312048891826" lon="-6.199389260564067"><ele>44.0</ele><time>2026-04-28T14:21:07Z</time></trkpt><trkpt lat="34.98342104314797" lon="-6.199403866493154"><ele>44.5</ele><time>2026-04-28T14:21:08Z</time></trkpt><trkpt lat="34.98372024513725" lon="-6.1994124117150005"><ele>45.0</ele><time>2026-04-28T14:21:09Z</time></trkpt><trkpt lat="34.98401801879426" lon="-6.199425623799911"><ele>45.0</ele><time>2026-04-28T14:21:10Z</time></trkpt><trkpt lat="34.98431460666014" lon="-6.199432440500947"><ele>45.0</ele><time>2026-04-28T14:21:11Z</time></trkpt><trkpt lat="34.98461126149157" lon="-6.199438084672633"><ele>45.0</ele><time>2026-04-28T14:21:12Z</time></trkpt><trkpt lat="34.98491006210293" lon="-6.199437913812259"><ele>45.0</ele><time>2026-04-28T14:21:13Z</time></trkpt><trkpt lat="34.98520740581255" lon="-6.199425761186231"><ele>44.5</ele><time>2026-04-28T14:21:14Z</time></trkpt><trkpt lat="34.98550437064826" lon="-6.199408196431171"><ele>44.0</ele><time>2026-04-28T14:21:15Z</time></trkpt><trkpt lat="34.9858018744516" lon="-6.199386163406406"><ele>44.0</ele><time>2026-04-28T14:21:16Z</time></trkpt><trkpt lat="34.98609857422287" lon="-6.199357689015188"><ele>44.0</ele><time>2026-04-28T14:21:17Z</time></trkpt><trkpt lat="34.986393208658185" lon="-6.199330209029963"><ele>44.5</ele><time>2026-04-28T14:21:18Z</time></trkpt><trkpt lat="34.9866882300393" lon="-6.199292792141209"><ele>45.0</ele><time>2026-04-28T14:21:19Z</time></trkpt><trkpt lat="34.98698262049786" lon="-6.199245404487798"><ele>45.0</ele><time>2026-04-28T14:21:20Z</time></trkpt><trkpt lat="34.987276506118526" lon="-6.1991925032399635"><ele>45.0</ele><time>2026-04-28T14:21:21Z</time></trkpt><trkpt lat="34.98756866216221" lon="-6.199133781379695"><ele>45.5</ele><time>2026-04-28T14:21:22Z</time></trkpt><trkpt lat="34.98786028911563" lon="-6.1990699927587"><ele>46.0</ele><time>2026-04-28T14:21:23Z</time></trkpt><trkpt lat="34.98815187748528" lon="-6.199002095866299"><ele>47.0</ele><time>2026-04-28T14:21:24Z</time></trkpt><trkpt lat="34.98844391942867" lon="-6.198931070871491"><ele>48.0</ele><time>2026-04-28T14:21:25Z</time></trkpt><trkpt lat="34.988732187357854" lon="-6.19884947563505"><ele>48.0</ele><time>2026-04-28T14:21:26Z</time></trkpt><trkpt lat="34.9890203173074" lon="-6.1987621002224715"><ele>48.0</ele><time>2026-04-28T14:21:27Z</time></trkpt><trkpt lat="34.98930697442396" lon="-6.198667525100856"><ele>47.0</ele><time>2026-04-28T14:21:28Z</time></trkpt><trkpt lat="34.989591866312914" lon="-6.1985693577764085"><ele>46.0</ele><time>2026-04-28T14:21:29Z</time></trkpt><trkpt lat="34.98987547487263" lon="-6.1984650123912095"><ele>44.5</ele><time>2026-04-28T14:21:30Z</time></trkpt><trkpt lat="34.99015618838918" lon="-6.198355663732855"><ele>43.0</ele><time>2026-04-28T14:21:31Z</time></trkpt><trkpt lat="34.99043615856886" lon="-6.198243620820063"><ele>42.0</ele><time>2026-04-28T14:21:32Z</time></trkpt><trkpt lat="34.99071438496001" lon="-6.198129771276716"><ele>41.0</ele><time>2026-04-28T14:21:33Z</time></trkpt><trkpt lat="34.99099205588361" lon="-6.198017418421986"><ele>38.5</ele><time>2026-04-28T14:21:34Z</time></trkpt><trkpt lat="34.99126987435097" lon="-6.197911122697358"><ele>36.0</ele><time>2026-04-28T14:21:35Z</time></trkpt><trkpt lat="34.99154698065345" lon="-6.197804061390199"><ele>37.5</ele><time>2026-04-28T14:21:36Z</time></trkpt><trkpt lat="34.99182259865566" lon="-6.197697236852987"><ele>39.0</ele><time>2026-04-28T14:21:37Z</time></trkpt><trkpt lat="34.99209605997195" lon="-6.197589919438989"><ele>39.0</ele><time>2026-04-28T14:21:38Z</time></trkpt><trkpt lat="34.99236725490476" lon="-6.1974860075734375"><ele>39.0</ele><time>2026-04-28T14:21:39Z</time></trkpt><trkpt lat="34.99263906887613" lon="-6.197380669299408"><ele>41.5</ele><time>2026-04-28T14:21:40Z</time></trkpt><trkpt lat="34.99291265546198" lon="-6.197280687998953"><ele>44.0</ele><time>2026-04-28T14:21:41Z</time></trkpt><trkpt lat="34.993189220560154" lon="-6.197186158356714"><ele>45.5</ele><time>2026-04-28T14:21:42Z</time></trkpt><trkpt lat="34.99346716504589" lon="-6.19708347323841"><ele>47.0</ele><time>2026-04-28T14:21:43Z</time></trkpt><trkpt lat="34.99374658952814" lon="-6.1969859747300795"><ele>47.0</ele><time>2026-04-28T14:21:44Z</time></trkpt><trkpt lat="34.994029334503864" lon="-6.196880266146388"><ele>47.0</ele><time>2026-04-28T14:21:45Z</time></trkpt><trkpt lat="34.99431458969864" lon="-6.1967715228524565"><ele>47.5</ele><time>2026-04-28T14:21:46Z</time></trkpt><trkpt lat="34.99459960928485" lon="-6.1966585901741436"><ele>48.0</ele><time>2026-04-28T14:21:47Z</time></trkpt><trkpt lat="34.99488396233827" lon="-6.1965438242273425"><ele>47.0</ele><time>2026-04-28T14:21:48Z</time></trkpt><trkpt lat="34.995163650128944" lon="-6.196428293250604"><ele>46.0</ele><time>2026-04-28T14:21:49Z</time></trkpt><trkpt lat="34.99543523753214" lon="-6.196314172679578"><ele>46.0</ele><time>2026-04-28T14:21:50Z</time></trkpt><trkpt lat="34.99570599120885" lon="-6.19621042330411"><ele>46.0</ele><time>2026-04-28T14:21:51Z</time></trkpt><trkpt lat="34.99597258824799" lon="-6.196100526736266"><ele>45.5</ele><time>2026-04-28T14:21:52Z</time></trkpt><trkpt lat="34.99624055506258" lon="-6.195990686920953"><ele>45.0</ele><time>2026-04-28T14:21:53Z</time></trkpt><trkpt lat="34.9965072716001" lon="-6.195884519214898"><ele>45.5</ele><time>2026-04-28T14:21:54Z</time></trkpt><trkpt lat="34.99677355947689" lon="-6.195775993087699"><ele>46.0</ele><time>2026-04-28T14:21:55Z</time></trkpt><trkpt lat="34.997037900141976" lon="-6.195662520784713"><ele>46.0</ele><time>2026-04-28T14:21:56Z</time></trkpt><trkpt lat="34.99730257671003" lon="-6.195545172222718"><ele>46.0</ele><time>2026-04-28T14:21:57Z</time></trkpt><trkpt lat="34.99756668504919" lon="-6.195418886733753"><ele>47.5</ele><time>2026-04-28T14:21:58Z</time></trkpt><trkpt lat="34.99783380709036" lon="-6.195297117390607"><ele>49.0</ele><time>2026-04-28T14:21:59Z</time></trkpt><trkpt lat="34.9981024650892" lon="-6.195179118019228"><ele>50.0</ele><time>2026-04-28T14:22:00Z</time></trkpt><trkpt lat="34.998371053121026" lon="-6.195057582917058"><ele>51.0</ele><time>2026-04-28T14:22:01Z</time></trkpt><trkpt lat="34.9986371420772" lon="-6.1949204786653"><ele>51.5</ele><time>2026-04-28T14:22:02Z</time></trkpt><trkpt lat="34.99890570024578" lon="-6.194784406514002"><ele>52.0</ele><time>2026-04-28T14:22:03Z</time></trkpt><trkpt lat="34.99917501758779" lon="-6.194641477230711"><ele>53.0</ele><time>2026-04-28T14:22:04Z</time></trkpt><trkpt lat="34.99944746679249" lon="-6.194497131736414"><ele>54.0</ele><time>2026-04-28T14:22:05Z</time></trkpt><trkpt lat="34.999719446737416" lon="-6.194352778210137"><ele>54.0</ele><time>2026-04-28T14:22:06Z</time></trkpt><trkpt lat="34.99999131293707" lon="-6.1942063186039285"><ele>54.0</ele><time>2026-04-28T14:22:07Z</time></trkpt><trkpt lat="35.00026541205775" lon="-6.19406212357229"><ele>54.0</ele><time>2026-04-28T14:22:08Z</time></trkpt><trkpt lat="35.00053966374843" lon="-6.193920001877496"><ele>54.0</ele><time>2026-04-28T14:22:09Z</time></trkpt><trkpt lat="35.000813958888315" lon="-6.193778159862008"><ele>54.5</ele><time>2026-04-28T14:22:10Z</time></trkpt><trkpt lat="35.001085925858916" lon="-6.193634609033974"><ele>55.0</ele><time>2026-04-28T14:22:11Z</time></trkpt><trkpt lat="35.00135823990783" lon="-6.19349176481231"><ele>55.0</ele><time>2026-04-28T14:22:12Z</time></trkpt><trkpt lat="35.00163344513355" lon="-6.193352735262831"><ele>55.0</ele><time>2026-04-28T14:22:13Z</time></trkpt><trkpt lat="35.00190608289746" lon="-6.193206001053718"><ele>56.0</ele><time>2026-04-28T14:22:14Z</time></trkpt><trkpt lat="35.002181386502265" lon="-6.1930610917579685"><ele>57.0</ele><time>2026-04-28T14:22:15Z</time></trkpt><trkpt lat="35.00245857957955" lon="-6.1929164000971575"><ele>57.5</ele><time>2026-04-28T14:22:16Z</time></trkpt><trkpt lat="35.00273476134875" lon="-6.192772289940606"><ele>58.0</ele><time>2026-04-28T14:22:17Z</time></trkpt><trkpt lat="35.003012858271035" lon="-6.192627922433786"><ele>58.0</ele><time>2026-04-28T14:22:18Z</time></trkpt><trkpt lat="35.003291716729485" lon="-6.192483586185766"><ele>58.0</ele><time>2026-04-28T14:22:19Z</time></trkpt><trkpt lat="35.003571430350235" lon="-6.192339145105252"><ele>57.5</ele><time>2026-04-28T14:22:20Z</time></trkpt><trkpt lat="35.00384979065184" lon="-6.192193191641639"><ele>57.0</ele><time>2026-04-28T14:22:21Z</time></trkpt><trkpt lat="35.004127858061004" lon="-6.192050234286172"><ele>57.5</ele><time>2026-04-28T14:22:22Z</time></trkpt><trkpt lat="35.00440558696176" lon="-6.191907619131421"><ele>58.0</ele><time>2026-04-28T14:22:23Z</time></trkpt><trkpt lat="35.00468168353077" lon="-6.191768063598963"><ele>58.0</ele><time>2026-04-28T14:22:24Z</time></trkpt><trkpt lat="35.004960690054915" lon="-6.1916310565621755"><ele>58.0</ele><time>2026-04-28T14:22:25Z</time></trkpt><trkpt lat="35.005238436981365" lon="-6.191493602433377"><ele>57.0</ele><time>2026-04-28T14:22:26Z</time></trkpt><trkpt lat="35.00551727353116" lon="-6.19135730154348"><ele>56.0</ele><time>2026-04-28T14:22:26.999Z</time></trkpt><trkpt lat="35.00579551650547" lon="-6.191219397431481"><ele>56.5</ele><time>2026-04-28T14:22:27.999Z</time></trkpt><trkpt lat="35.006076392237546" lon="-6.191089806608946"><ele>57.0</ele><time>2026-04-28T14:22:28.999Z</time></trkpt><trkpt lat="35.00635571076088" lon="-6.1909559615849155"><ele>57.0</ele><time>2026-04-28T14:22:29.999Z</time></trkpt><trkpt lat="35.00663647521524" lon="-6.190830445448717"><ele>57.0</ele><time>2026-04-28T14:22:30.999Z</time></trkpt><trkpt lat="35.00691697126219" lon="-6.190707594270077"><ele>56.5</ele><time>2026-04-28T14:22:31.999Z</time></trkpt><trkpt lat="35.00720068260702" lon="-6.190585176023982"><ele>56.0</ele><time>2026-04-28T14:22:32.999Z</time></trkpt><trkpt lat="35.00748512415478" lon="-6.1904620530725385"><ele>55.5</ele><time>2026-04-28T14:22:33.999Z</time></trkpt><trkpt lat="35.00777062749602" lon="-6.19034577996409"><ele>55.0</ele><time>2026-04-28T14:22:34.999Z</time></trkpt><trkpt lat="35.00805639854267" lon="-6.190233247020531"><ele>55.0</ele><time>2026-04-28T14:22:35.999Z</time></trkpt><trkpt lat="35.00834609756801" lon="-6.190123654803172"><ele>55.0</ele><time>2026-04-28T14:22:36.999Z</time></trkpt><trkpt lat="35.008636356392074" lon="-6.19001450060405"><ele>55.0</ele><time>2026-04-28T14:22:37.999Z</time></trkpt><trkpt lat="35.00892579536205" lon="-6.189903504780942"><ele>55.0</ele><time>2026-04-28T14:22:38.999Z</time></trkpt><trkpt lat="35.009218075121446" lon="-6.189796415492758"><ele>53.5</ele><time>2026-04-28T14:22:39.999Z</time></trkpt><trkpt lat="35.00951006324459" lon="-6.189690098783377"><ele>52.0</ele><time>2026-04-28T14:22:40.999Z</time></trkpt><trkpt lat="35.00980272611312" lon="-6.1895882033680065"><ele>53.0</ele><time>2026-04-28T14:22:41.999Z</time></trkpt><trkpt lat="35.01009716625784" lon="-6.189493490095817"><ele>54.0</ele><time>2026-04-28T14:22:42.999Z</time></trkpt><trkpt lat="35.010393308194246" lon="-6.189400679331356"><ele>54.0</ele><time>2026-04-28T14:22:43.999Z</time></trkpt><trkpt lat="35.010689113882464" lon="-6.189310051864435"><ele>54.0</ele><time>2026-04-28T14:22:44.999Z</time></trkpt><trkpt lat="35.01098636168307" lon="-6.189223354244816"><ele>54.5</ele><time>2026-04-28T14:22:45.999Z</time></trkpt><trkpt lat="35.011284187075745" lon="-6.189136071799748"><ele>55.0</ele><time>2026-04-28T14:22:46.999Z</time></trkpt><trkpt lat="35.01158560705891" lon="-6.189055904402943"><ele>55.5</ele><time>2026-04-28T14:22:47.999Z</time></trkpt><trkpt lat="35.01188677869296" lon="-6.1889773119204055"><ele>56.0</ele><time>2026-04-28T14:22:48.999Z</time></trkpt><trkpt lat="35.01218674253277" lon="-6.188903152756889"><ele>56.0</ele><time>2026-04-28T14:22:49.999Z</time></trkpt><trkpt lat="35.012486798195596" lon="-6.18883175319181"><ele>56.0</ele><time>2026-04-28T14:22:50.999Z</time></trkpt><trkpt lat="35.01278754427213" lon="-6.188764387247574"><ele>55.5</ele><time>2026-04-28T14:22:51.999Z</time></trkpt><trkpt lat="35.01308727434884" lon="-6.18869810081836"><ele>55.0</ele><time>2026-04-28T14:22:52.999Z</time></trkpt><trkpt lat="35.01338657600291" lon="-6.188633696947528"><ele>55.0</ele><time>2026-04-28T14:22:53.999Z</time></trkpt><trkpt lat="35.01368498931645" lon="-6.188567876343231"><ele>55.0</ele><time>2026-04-28T14:22:54.999Z</time></trkpt><trkpt lat="35.01398238318546" lon="-6.188506442751298"><ele>53.5</ele><time>2026-04-28T14:22:55.999Z</time></trkpt><trkpt lat="35.01428002748038" lon="-6.18844611623227"><ele>52.0</ele><time>2026-04-28T14:22:56.999Z</time></trkpt><trkpt lat="35.01457598048156" lon="-6.188388502558531"><ele>52.0</ele><time>2026-04-28T14:22:57.999Z</time></trkpt><trkpt lat="35.01487171367042" lon="-6.188328148032871"><ele>52.0</ele><time>2026-04-28T14:22:58.999Z</time></trkpt><trkpt lat="35.01516623997825" lon="-6.188265951502321"><ele>52.5</ele><time>2026-04-28T14:22:59.999Z</time></trkpt><trkpt lat="35.015461315531795" lon="-6.188209612098662"><ele>53.0</ele><time>2026-04-28T14:23:00.999Z</time></trkpt><trkpt lat="35.01575558356647" lon="-6.188155433608429"><ele>52.5</ele><time>2026-04-28T14:23:01.999Z</time></trkpt><trkpt lat="35.01604923453757" lon="-6.188094345054117"><ele>52.0</ele><time>2026-04-28T14:23:02.999Z</time></trkpt><trkpt lat="35.016343339526536" lon="-6.188039620632173"><ele>52.0</ele><time>2026-04-28T14:23:03.999Z</time></trkpt><trkpt lat="35.01663579528049" lon="-6.1879834759808325"><ele>52.0</ele><time>2026-04-28T14:23:04.999Z</time></trkpt><trkpt lat="35.016926632183576" lon="-6.187926974246384"><ele>52.0</ele><time>2026-04-28T14:23:05.999Z</time></trkpt><trkpt lat="35.01721897373879" lon="-6.187868591639984"><ele>52.0</ele><time>2026-04-28T14:23:06.999Z</time></trkpt><trkpt lat="35.01751108059343" lon="-6.187812005982092"><ele>52.0</ele><time>2026-04-28T14:23:07.999Z</time></trkpt><trkpt lat="35.0178051290219" lon="-6.187752272551945"><ele>52.0</ele><time>2026-04-28T14:23:08.999Z</time></trkpt><trkpt lat="35.01809729657808" lon="-6.187694465681374"><ele>52.0</ele><time>2026-04-28T14:23:09.999Z</time></trkpt><trkpt lat="35.018389862336754" lon="-6.187639138021805"><ele>52.0</ele><time>2026-04-28T14:23:10.999Z</time></trkpt><trkpt lat="35.01868210399241" lon="-6.187581379243392"><ele>52.0</ele><time>2026-04-28T14:23:12Z</time></trkpt><trkpt lat="35.01897394707522" lon="-6.187525711371175"><ele>52.0</ele><time>2026-04-28T14:23:13Z</time></trkpt><trkpt lat="35.019265179010596" lon="-6.187465937705397"><ele>52.0</ele><time>2026-04-28T14:23:14Z</time></trkpt><trkpt lat="35.01955892995058" lon="-6.187411905081204"><ele>52.0</ele><time>2026-04-28T14:23:15Z</time></trkpt><trkpt lat="35.019851948091585" lon="-6.187354678892432"><ele>53.5</ele><time>2026-04-28T14:23:16Z</time></trkpt><trkpt lat="35.02014652559403" lon="-6.187297879769733"><ele>55.0</ele><time>2026-04-28T14:23:17Z</time></trkpt><trkpt lat="35.020440110387426" lon="-6.187239809427064"><ele>55.0</ele><time>2026-04-28T14:23:18Z</time></trkpt><trkpt lat="35.02073308469744" lon="-6.1871842987050965"><ele>55.0</ele><time>2026-04-28T14:23:19Z</time></trkpt><trkpt lat="35.0210258209055" lon="-6.187123872904957"><ele>54.0</ele><time>2026-04-28T14:23:20Z</time></trkpt><trkpt lat="35.02131777632042" lon="-6.187064308106627"><ele>53.0</ele><time>2026-04-28T14:23:21Z</time></trkpt><trkpt lat="35.021611276914854" lon="-6.187006193785648"><ele>52.0</ele><time>2026-04-28T14:23:22Z</time></trkpt><trkpt lat="35.02190471912968" lon="-6.186950721100318"><ele>51.0</ele><time>2026-04-28T14:23:23Z</time></trkpt><trkpt lat="35.0221982354156" lon="-6.1868926479267765"><ele>51.5</ele><time>2026-04-28T14:23:24Z</time></trkpt><trkpt lat="35.022491096025384" lon="-6.186836745208367"><ele>52.0</ele><time>2026-04-28T14:23:25Z</time></trkpt><trkpt lat="35.022782265022016" lon="-6.186780660343021"><ele>52.0</ele><time>2026-04-28T14:23:26Z</time></trkpt><trkpt lat="35.023074337552565" lon="-6.186727297564452"><ele>52.0</ele><time>2026-04-28T14:23:27Z</time></trkpt><trkpt lat="35.023365537972104" lon="-6.18667234625936"><ele>53.0</ele><time>2026-04-28T14:23:28Z</time></trkpt><trkpt lat="35.023656442207404" lon="-6.186619498850233"><ele>54.0</ele><time>2026-04-28T14:23:29Z</time></trkpt><trkpt lat="35.023945843605226" lon="-6.186572038346372"><ele>53.0</ele><time>2026-04-28T14:23:30Z</time></trkpt><trkpt lat="35.02423489119055" lon="-6.186524587471727"><ele>52.0</ele><time>2026-04-28T14:23:31Z</time></trkpt><trkpt lat="35.02452864946181" lon="-6.186471147727899"><ele>54.0</ele><time>2026-04-28T14:23:32Z</time></trkpt><trkpt lat="35.02482511163683" lon="-6.186417439258646"><ele>56.0</ele><time>2026-04-28T14:23:33Z</time></trkpt><trkpt lat="35.025119824759635" lon="-6.18635739137859"><ele>56.5</ele><time>2026-04-28T14:23:34Z</time></trkpt><trkpt lat="35.02541509404177" lon="-6.18629814343996"><ele>57.0</ele><time>2026-04-28T14:23:35Z</time></trkpt><trkpt lat="35.025709452253544" lon="-6.186239596358031"><ele>57.5</ele><time>2026-04-28T14:23:36Z</time></trkpt><trkpt lat="35.026002925934726" lon="-6.186178772221886"><ele>58.0</ele><time>2026-04-28T14:23:37Z</time></trkpt><trkpt lat="35.02629583430769" lon="-6.186119420031425"><ele>58.0</ele><time>2026-04-28T14:23:38Z</time></trkpt><trkpt lat="35.02658584755333" lon="-6.18606037299698"><ele>58.0</ele><time>2026-04-28T14:23:39Z</time></trkpt><trkpt lat="35.0268740803211" lon="-6.186001383356289"><ele>58.0</ele><time>2026-04-28T14:23:40Z</time></trkpt><trkpt lat="35.027164120191195" lon="-6.185946795019088"><ele>58.0</ele><time>2026-04-28T14:23:41Z</time></trkpt><trkpt lat="35.02745450091142" lon="-6.185887095468725"><ele>60.0</ele><time>2026-04-28T14:23:42Z</time></trkpt><trkpt lat="35.0277460097945" lon="-6.1858311593054855"><ele>62.0</ele><time>2026-04-28T14:23:43Z</time></trkpt><trkpt lat="35.02803674168491" lon="-6.185770627982591"><ele>62.0</ele><time>2026-04-28T14:23:44Z</time></trkpt><trkpt lat="35.02832672835976" lon="-6.185707089742187"><ele>62.0</ele><time>2026-04-28T14:23:45Z</time></trkpt><trkpt lat="35.02861826517407" lon="-6.185643759960597"><ele>62.0</ele><time>2026-04-28T14:23:46Z</time></trkpt><trkpt lat="35.02891271243744" lon="-6.185583817389968"><ele>62.0</ele><time>2026-04-28T14:23:47Z</time></trkpt><trkpt lat="35.02920926457022" lon="-6.185527969955674"><ele>62.5</ele><time>2026-04-28T14:23:48Z</time></trkpt><trkpt lat="35.029506298391446" lon="-6.185464861833678"><ele>63.0</ele><time>2026-04-28T14:23:49Z</time></trkpt><trkpt lat="35.02980359980285" lon="-6.18540702101577"><ele>64.5</ele><time>2026-04-28T14:23:50Z</time></trkpt><trkpt lat="35.03010161793282" lon="-6.185347193700104"><ele>66.0</ele><time>2026-04-28T14:23:51Z</time></trkpt><trkpt lat="35.030400099719834" lon="-6.18528517518844"><ele>66.0</ele><time>2026-04-28T14:23:52Z</time></trkpt><trkpt lat="35.0306982707521" lon="-6.1852250073795485"><ele>66.0</ele><time>2026-04-28T14:23:53Z</time></trkpt><trkpt lat="35.03099488389621" lon="-6.185167350794463"><ele>66.5</ele><time>2026-04-28T14:23:54Z</time></trkpt><trkpt lat="35.031291619986014" lon="-6.185108060963485"><ele>67.0</ele><time>2026-04-28T14:23:55Z</time></trkpt><trkpt lat="35.031588281877454" lon="-6.185046382581333"><ele>68.0</ele><time>2026-04-28T14:23:56Z</time></trkpt><trkpt lat="35.031882452439554" lon="-6.184983918690595"><ele>69.0</ele><time>2026-04-28T14:23:57Z</time></trkpt><trkpt lat="35.03217446475738" lon="-6.184916556824665"><ele>70.5</ele><time>2026-04-28T14:23:58Z</time></trkpt><trkpt lat="35.03246704645073" lon="-6.184842851388613"><ele>72.0</ele><time>2026-04-28T14:23:59Z</time></trkpt><trkpt lat="35.03275622964427" lon="-6.184762530891387"><ele>72.5</ele><time>2026-04-28T14:24:00Z</time></trkpt><trkpt lat="35.03304453882475" lon="-6.18468235085459"><ele>73.0</ele><time>2026-04-28T14:24:01Z</time></trkpt><trkpt lat="35.03333201237525" lon="-6.1845962271684165"><ele>74.0</ele><time>2026-04-28T14:24:02Z</time></trkpt><trkpt lat="35.03362049062499" lon="-6.184506379377625"><ele>75.0</ele><time>2026-04-28T14:24:03Z</time></trkpt><trkpt lat="35.03390697276379" lon="-6.184407747971127"><ele>75.0</ele><time>2026-04-28T14:24:04Z</time></trkpt><trkpt lat="35.03419479660971" lon="-6.184306730675341"><ele>75.0</ele><time>2026-04-28T14:24:05Z</time></trkpt><trkpt lat="35.034484107949886" lon="-6.184204942966777"><ele>75.0</ele><time>2026-04-28T14:24:06Z</time></trkpt><trkpt lat="35.03477274361112" lon="-6.184100365959607"><ele>75.0</ele><time>2026-04-28T14:24:07Z</time></trkpt><trkpt lat="35.03506045211041" lon="-6.183990925357415"><ele>76.5</ele><time>2026-04-28T14:24:08Z</time></trkpt><trkpt lat="35.03534766602354" lon="-6.183878554678554"><ele>78.0</ele><time>2026-04-28T14:24:09Z</time></trkpt><trkpt lat="35.035633477798314" lon="-6.183761046290234"><ele>79.0</ele><time>2026-04-28T14:24:10Z</time></trkpt><trkpt lat="35.03591820825099" lon="-6.183639713307829"><ele>80.0</ele><time>2026-04-28T14:24:11Z</time></trkpt><trkpt lat="35.03620105557421" lon="-6.183514267609208"><ele>80.0</ele><time>2026-04-28T14:24:12Z</time></trkpt><trkpt lat="35.036483560591755" lon="-6.183387498122103"><ele>80.0</ele><time>2026-04-28T14:24:13Z</time></trkpt><trkpt lat="35.036765163274495" lon="-6.1832544053936"><ele>81.5</ele><time>2026-04-28T14:24:14Z</time></trkpt><trkpt lat="35.03704428684512" lon="-6.183124207060576"><ele>83.0</ele><time>2026-04-28T14:24:15Z</time></trkpt><trkpt lat="35.037320804055256" lon="-6.182981695263305"><ele>84.0</ele><time>2026-04-28T14:24:16Z</time></trkpt><trkpt lat="35.03759684423988" lon="-6.182840003249833"><ele>85.0</ele><time>2026-04-28T14:24:17Z</time></trkpt><trkpt lat="35.037869145988346" lon="-6.182692179101265"><ele>85.0</ele><time>2026-04-28T14:24:18Z</time></trkpt><trkpt lat="35.038143667839776" lon="-6.182539715229999"><ele>85.0</ele><time>2026-04-28T14:24:19Z</time></trkpt><trkpt lat="35.03841890026736" lon="-6.182383175983726"><ele>86.0</ele><time>2026-04-28T14:24:20Z</time></trkpt><trkpt lat="35.038691216019764" lon="-6.182224639820551"><ele>87.0</ele><time>2026-04-28T14:24:21Z</time></trkpt><trkpt lat="35.03896192198691" lon="-6.182059737913096"><ele>87.0</ele><time>2026-04-28T14:24:22Z</time></trkpt><trkpt lat="35.039233629192594" lon="-6.181897479903147"><ele>87.0</ele><time>2026-04-28T14:24:23Z</time></trkpt><trkpt lat="35.039503753193394" lon="-6.181726564002402"><ele>87.0</ele><time>2026-04-28T14:24:24Z</time></trkpt><trkpt lat="35.039772888947766" lon="-6.181555640418961"><ele>87.0</ele><time>2026-04-28T14:24:25Z</time></trkpt><trkpt lat="35.040042817278795" lon="-6.181385662792684"><ele>86.5</ele><time>2026-04-28T14:24:26Z</time></trkpt><trkpt lat="35.04031380787205" lon="-6.18121336513591"><ele>86.0</ele><time>2026-04-28T14:24:27Z</time></trkpt><trkpt lat="35.04058657997412" lon="-6.181044836482953"><ele>87.5</ele><time>2026-04-28T14:24:28Z</time></trkpt><trkpt lat="35.04086083960051" lon="-6.180874114393512"><ele>89.0</ele><time>2026-04-28T14:24:29Z</time></trkpt><trkpt lat="35.041136213762826" lon="-6.180701579233992"><ele>87.0</ele><time>2026-04-28T14:24:30Z</time></trkpt><trkpt lat="35.04141212639228" lon="-6.180527330662467"><ele>85.0</ele><time>2026-04-28T14:24:31Z</time></trkpt><trkpt lat="35.04168807343575" lon="-6.180352298828762"><ele>85.0</ele><time>2026-04-28T14:24:32Z</time></trkpt><trkpt lat="35.04196434658463" lon="-6.1801760528040175"><ele>85.0</ele><time>2026-04-28T14:24:33Z</time></trkpt><trkpt lat="35.04223887773435" lon="-6.180005906875072"><ele>84.0</ele><time>2026-04-28T14:24:33.999Z</time></trkpt><trkpt lat="35.04251543802708" lon="-6.179839600551796"><ele>83.0</ele><time>2026-04-28T14:24:34.999Z</time></trkpt><trkpt lat="35.04278431201324" lon="-6.179679566071011"><ele>83.0</ele><time>2026-04-28T14:24:35.999Z</time></trkpt><trkpt lat="35.04303950136921" lon="-6.179525499209094"><ele>83.0</ele><time>2026-04-28T14:24:36.999Z</time></trkpt><trkpt lat="35.04328268944223" lon="-6.179377396782434"><ele>84.0</ele><time>2026-04-28T14:24:37.999Z</time></trkpt><trkpt lat="35.04350415710471" lon="-6.179238832620962"><ele>85.0</ele><time>2026-04-28T14:24:38.999Z</time></trkpt><trkpt lat="35.04371582775749" lon="-6.179109909011164"><ele>86.0</ele><time>2026-04-28T14:24:39.999Z</time></trkpt><trkpt lat="35.043923140402335" lon="-6.178979955709734"><ele>87.0</ele><time>2026-04-28T14:24:40.999Z</time></trkpt><trkpt lat="35.04413392820093" lon="-6.178852707656601"><ele>87.0</ele><time>2026-04-28T14:24:41.999Z</time></trkpt><trkpt lat="35.044351578685564" lon="-6.178727589203632"><ele>87.0</ele><time>2026-04-28T14:24:42.999Z</time></trkpt><trkpt lat="35.04457286938401" lon="-6.1785948178121854"><ele>87.0</ele><time>2026-04-28T14:24:43.999Z</time></trkpt><trkpt lat="35.044797471514364" lon="-6.178456704208528"><ele>87.0</ele><time>2026-04-28T14:24:44.999Z</time></trkpt><trkpt lat="35.04502564379518" lon="-6.178313487827399"><ele>87.0</ele><time>2026-04-28T14:24:45.999Z</time></trkpt><trkpt lat="35.04525872859981" lon="-6.178164858968613"><ele>87.0</ele><time>2026-04-28T14:24:46.999Z</time></trkpt><trkpt lat="35.045493221067936" lon="-6.178009274158191"><ele>87.0</ele><time>2026-04-28T14:24:47.999Z</time></trkpt><trkpt lat="35.04573203529055" lon="-6.1778539727781165"><ele>87.0</ele><time>2026-04-28T14:24:48.999Z</time></trkpt><trkpt lat="35.045973155872" lon="-6.177700514221982"><ele>86.5</ele><time>2026-04-28T14:24:49.999Z</time></trkpt><trkpt lat="35.046219637785015" lon="-6.177540317891936"><ele>86.0</ele><time>2026-04-28T14:24:50.999Z</time></trkpt><trkpt lat="35.046471334911665" lon="-6.177374318990545"><ele>84.5</ele><time>2026-04-28T14:24:51.999Z</time></trkpt><trkpt lat="35.0467312249841" lon="-6.177207241648926"><ele>83.0</ele><time>2026-04-28T14:24:52.999Z</time></trkpt><trkpt lat="35.046998228391445" lon="-6.17704280726126"><ele>83.0</ele><time>2026-04-28T14:24:53.999Z</time></trkpt><trkpt lat="35.04727077437585" lon="-6.176874103846866"><ele>83.0</ele><time>2026-04-28T14:24:54.999Z</time></trkpt><trkpt lat="35.04754589558107" lon="-6.1767065282147025"><ele>83.0</ele><time>2026-04-28T14:24:55.999Z</time></trkpt><trkpt lat="35.04782297711479" lon="-6.176531578339896"><ele>83.0</ele><time>2026-04-28T14:24:56.999Z</time></trkpt><trkpt lat="35.04810512436295" lon="-6.176351963446497"><ele>83.5</ele><time>2026-04-28T14:24:57.999Z</time></trkpt><trkpt lat="35.048393127037635" lon="-6.176172929880394"><ele>84.0</ele><time>2026-04-28T14:24:58.999Z</time></trkpt><trkpt lat="35.048681823013276" lon="-6.1759887303469005"><ele>84.0</ele><time>2026-04-28T14:24:59.999Z</time></trkpt><trkpt lat="35.04897234144601" lon="-6.175805082027193"><ele>84.0</ele><time>2026-04-28T14:25:00.999Z</time></trkpt><trkpt lat="35.04926255178183" lon="-6.175621000058453"><ele>82.5</ele><time>2026-04-28T14:25:01.999Z</time></trkpt><trkpt lat="35.049554278033995" lon="-6.175436815511538"><ele>81.0</ele><time>2026-04-28T14:25:02.999Z</time></trkpt><trkpt lat="35.049845666228556" lon="-6.1752520253297565"><ele>80.5</ele><time>2026-04-28T14:25:03.999Z</time></trkpt><trkpt lat="35.05013530274794" lon="-6.175066565178465"><ele>80.0</ele><time>2026-04-28T14:25:04.999Z</time></trkpt><trkpt lat="35.050426472683405" lon="-6.17488494317363"><ele>79.0</ele><time>2026-04-28T14:25:05.999Z</time></trkpt><trkpt lat="35.05071925088247" lon="-6.174708457352461"><ele>78.0</ele><time>2026-04-28T14:25:06.999Z</time></trkpt><trkpt lat="35.051014826734246" lon="-6.174534313717878"><ele>77.5</ele><time>2026-04-28T14:25:07.999Z</time></trkpt><trkpt lat="35.05130764994144" lon="-6.174364765888678"><ele>77.0</ele><time>2026-04-28T14:25:08.999Z</time></trkpt><trkpt lat="35.05159870421999" lon="-6.174197967475498"><ele>77.5</ele><time>2026-04-28T14:25:09.999Z</time></trkpt><trkpt lat="35.051889269752664" lon="-6.174036289347545"><ele>78.0</ele><time>2026-04-28T14:25:10.999Z</time></trkpt><trkpt lat="35.05217619606429" lon="-6.173879069126141"><ele>76.0</ele><time>2026-04-28T14:25:11.999Z</time></trkpt><trkpt lat="35.05245995187087" lon="-6.173724724590892"><ele>74.0</ele><time>2026-04-28T14:25:12.999Z</time></trkpt><trkpt lat="35.052740274619204" lon="-6.173570808025501"><ele>74.0</ele><time>2026-04-28T14:25:13.999Z</time></trkpt><trkpt lat="35.053016840424526" lon="-6.173420059792771"><ele>74.0</ele><time>2026-04-28T14:25:14.999Z</time></trkpt><trkpt lat="35.05329272754568" lon="-6.1732785360615505"><ele>74.5</ele><time>2026-04-28T14:25:15.999Z</time></trkpt><trkpt lat="35.053569118085086" lon="-6.1731364266533"><ele>75.0</ele><time>2026-04-28T14:25:16.999Z</time></trkpt><trkpt lat="35.05384916039368" lon="-6.17300000135528"><ele>74.0</ele><time>2026-04-28T14:25:18Z</time></trkpt><trkpt lat="35.05412724023747" lon="-6.172861354689992"><ele>73.0</ele><time>2026-04-28T14:25:19Z</time></trkpt><trkpt lat="35.05440132311961" lon="-6.172720223388047"><ele>73.0</ele><time>2026-04-28T14:25:20Z</time></trkpt><trkpt lat="35.05467703780081" lon="-6.172586947411162"><ele>73.0</ele><time>2026-04-28T14:25:21Z</time></trkpt><trkpt lat="35.05495310790754" lon="-6.172450899625135"><ele>72.0</ele><time>2026-04-28T14:25:22Z</time></trkpt><trkpt lat="35.05522811467118" lon="-6.172312436722247"><ele>71.0</ele><time>2026-04-28T14:25:23Z</time></trkpt><trkpt lat="35.0554995599448" lon="-6.172175851979472"><ele>71.0</ele><time>2026-04-28T14:25:24Z</time></trkpt><trkpt lat="35.05576924667419" lon="-6.172046560412293"><ele>71.0</ele><time>2026-04-28T14:25:25Z</time></trkpt><trkpt lat="35.0560380303948" lon="-6.17192161262726"><ele>71.5</ele><time>2026-04-28T14:25:26Z</time></trkpt><trkpt lat="35.056306472154915" lon="-6.171790229751636"><ele>72.0</ele><time>2026-04-28T14:25:27Z</time></trkpt><trkpt lat="35.05658071844717" lon="-6.171657765113824"><ele>70.5</ele><time>2026-04-28T14:25:28Z</time></trkpt><trkpt lat="35.05685932943884" lon="-6.171522796991749"><ele>69.0</ele><time>2026-04-28T14:25:29Z</time></trkpt><trkpt lat="35.057139300859944" lon="-6.17138759971381"><ele>69.0</ele><time>2026-04-28T14:25:30Z</time></trkpt><trkpt lat="35.05741483408227" lon="-6.171246481931194"><ele>69.0</ele><time>2026-04-28T14:25:31Z</time></trkpt><trkpt lat="35.057693133588955" lon="-6.1711102048463955"><ele>69.5</ele><time>2026-04-28T14:25:32Z</time></trkpt><trkpt lat="35.057970304736585" lon="-6.170971401154142"><ele>70.0</ele><time>2026-04-28T14:25:33Z</time></trkpt><trkpt lat="35.058251202633365" lon="-6.170834650012629"><ele>70.0</ele><time>2026-04-28T14:25:34Z</time></trkpt><trkpt lat="35.058529888914386" lon="-6.170698054361313"><ele>70.0</ele><time>2026-04-28T14:25:35Z</time></trkpt><trkpt lat="35.0588066712717" lon="-6.170559610082858"><ele>70.0</ele><time>2026-04-28T14:25:36Z</time></trkpt><trkpt lat="35.05908344587235" lon="-6.170420175595611"><ele>70.0</ele><time>2026-04-28T14:25:37Z</time></trkpt><trkpt lat="35.05935856954967" lon="-6.170283193920407"><ele>68.5</ele><time>2026-04-28T14:25:38Z</time></trkpt><trkpt lat="35.05963364708471" lon="-6.170146287123881"><ele>67.0</ele><time>2026-04-28T14:25:39Z</time></trkpt><trkpt lat="35.059908462856264" lon="-6.170013384539194"><ele>67.0</ele><time>2026-04-28T14:25:40Z</time></trkpt><trkpt lat="35.060183435333556" lon="-6.169882434251836"><ele>67.0</ele><time>2026-04-28T14:25:41Z</time></trkpt><trkpt lat="35.06045784736433" lon="-6.169747697249869"><ele>67.0</ele><time>2026-04-28T14:25:42Z</time></trkpt><trkpt lat="35.060732794624826" lon="-6.169613474410644"><ele>67.0</ele><time>2026-04-28T14:25:43Z</time></trkpt><trkpt lat="35.061007757214426" lon="-6.169481439684204"><ele>66.5</ele><time>2026-04-28T14:25:44Z</time></trkpt><trkpt lat="35.06128088637713" lon="-6.169346216203317"><ele>66.0</ele><time>2026-04-28T14:25:45Z</time></trkpt><trkpt lat="35.06155450743653" lon="-6.16921155670911"><ele>65.5</ele><time>2026-04-28T14:25:46Z</time></trkpt><trkpt lat="35.061826952198196" lon="-6.169079994628595"><ele>65.0</ele><time>2026-04-28T14:25:47Z</time></trkpt><trkpt lat="35.06210169420219" lon="-6.168948502638006"><ele>65.0</ele><time>2026-04-28T14:25:48Z</time></trkpt><trkpt lat="35.062372783830476" lon="-6.168812733503064"><ele>65.0</ele><time>2026-04-28T14:25:49Z</time></trkpt><trkpt lat="35.062643179393255" lon="-6.168675069535604"><ele>65.5</ele><time>2026-04-28T14:25:50Z</time></trkpt><trkpt lat="35.062909919626016" lon="-6.168533734416917"><ele>66.0</ele><time>2026-04-28T14:25:51Z</time></trkpt><trkpt lat="35.063178061963484" lon="-6.168392164053035"><ele>66.0</ele><time>2026-04-28T14:25:52Z</time></trkpt><trkpt lat="35.06344501961721" lon="-6.168246399485183"><ele>66.0</ele><time>2026-04-28T14:25:53Z</time></trkpt><trkpt lat="35.06371119813361" lon="-6.168097938198305"><ele>65.5</ele><time>2026-04-28T14:25:54Z</time></trkpt><trkpt lat="35.063976821774695" lon="-6.16794829327636"><ele>65.0</ele><time>2026-04-28T14:25:55Z</time></trkpt><trkpt lat="35.064241399584255" lon="-6.167795425964203"><ele>65.0</ele><time>2026-04-28T14:25:56Z</time></trkpt><trkpt lat="35.06450681247047" lon="-6.167639914447782"><ele>65.0</ele><time>2026-04-28T14:25:57Z</time></trkpt><trkpt lat="35.06477026321734" lon="-6.167479502527239"><ele>64.5</ele><time>2026-04-28T14:25:58Z</time></trkpt><trkpt lat="35.065033616127714" lon="-6.167317465854045"><ele>64.0</ele><time>2026-04-28T14:25:59Z</time></trkpt><trkpt lat="35.06529411286146" lon="-6.167151197175623"><ele>64.0</ele><time>2026-04-28T14:26:00Z</time></trkpt><trkpt lat="35.06555398445968" lon="-6.166985750137373"><ele>64.0</ele><time>2026-04-28T14:26:01Z</time></trkpt><trkpt lat="35.06581405231929" lon="-6.1668197460058005"><ele>64.0</ele><time>2026-04-28T14:26:02Z</time></trkpt><trkpt lat="35.06607309065984" lon="-6.1666507478732475"><ele>64.0</ele><time>2026-04-28T14:26:03Z</time></trkpt><trkpt lat="35.0663315010854" lon="-6.166483423748185"><ele>63.5</ele><time>2026-04-28T14:26:04Z</time></trkpt><trkpt lat="35.06658823993448" lon="-6.166310206843186"><ele>63.0</ele><time>2026-04-28T14:26:05Z</time></trkpt><trkpt lat="35.06684525189739" lon="-6.166132143579359"><ele>63.0</ele><time>2026-04-28T14:26:06Z</time></trkpt><trkpt lat="35.06710030581462" lon="-6.1659500156690665"><ele>63.0</ele><time>2026-04-28T14:26:07Z</time></trkpt><trkpt lat="35.06735364075085" lon="-6.165764864642469"><ele>62.0</ele><time>2026-04-28T14:26:08Z</time></trkpt><trkpt lat="35.06759970754343" lon="-6.1655743022536695"><ele>61.0</ele><time>2026-04-28T14:26:09Z</time></trkpt><trkpt lat="35.06783840653732" lon="-6.165388436057809"><ele>61.0</ele><time>2026-04-28T14:26:10Z</time></trkpt><trkpt lat="35.06806574802219" lon="-6.16520769869598"><ele>61.0</ele><time>2026-04-28T14:26:11Z</time></trkpt><trkpt lat="35.06828153331404" lon="-6.165031893650044"><ele>61.5</ele><time>2026-04-28T14:26:12Z</time></trkpt><trkpt lat="35.06849250891463" lon="-6.1648592694949835"><ele>62.0</ele><time>2026-04-28T14:26:13Z</time></trkpt><trkpt lat="35.068708009793305" lon="-6.164692016910701"><ele>62.0</ele><time>2026-04-28T14:26:14Z</time></trkpt><trkpt lat="35.06892466510569" lon="-6.164519814235891"><ele>62.0</ele><time>2026-04-28T14:26:15Z</time></trkpt><trkpt lat="35.06914347456227" lon="-6.164347241491787"><ele>63.0</ele><time>2026-04-28T14:26:16Z</time></trkpt><trkpt lat="35.06936385255588" lon="-6.16417534596643"><ele>64.0</ele><time>2026-04-28T14:26:17Z</time></trkpt><trkpt lat="35.06958450216178" lon="-6.164006261954445"><ele>64.0</ele><time>2026-04-28T14:26:18Z</time></trkpt><trkpt lat="35.06980321220034" lon="-6.163835267519508"><ele>64.0</ele><time>2026-04-28T14:26:19Z</time></trkpt><trkpt lat="35.07002304576918" lon="-6.1636667075885585"><ele>64.0</ele><time>2026-04-28T14:26:20Z</time></trkpt><trkpt lat="35.07023983875911" lon="-6.1634992724006645"><ele>64.0</ele><time>2026-04-28T14:26:21Z</time></trkpt><trkpt lat="35.07045543008243" lon="-6.163332126506343"><ele>63.5</ele><time>2026-04-28T14:26:22Z</time></trkpt><trkpt lat="35.07067086407181" lon="-6.16316176602921"><ele>63.0</ele><time>2026-04-28T14:26:23Z</time></trkpt><trkpt lat="35.0708850114259" lon="-6.162994223161065"><ele>63.0</ele><time>2026-04-28T14:26:24Z</time></trkpt><trkpt lat="35.071100487821084" lon="-6.162829557748463"><ele>63.0</ele><time>2026-04-28T14:26:25Z</time></trkpt><trkpt lat="35.07131642666752" lon="-6.162662477606527"><ele>63.0</ele><time>2026-04-28T14:26:26Z</time></trkpt><trkpt lat="35.071530057150234" lon="-6.162495972163179"><ele>63.0</ele><time>2026-04-28T14:26:26.999Z</time></trkpt><trkpt lat="35.07173852483777" lon="-6.162329384730329"><ele>61.0</ele><time>2026-04-28T14:26:27.999Z</time></trkpt><trkpt lat="35.07194510269054" lon="-6.162167114614231"><ele>59.0</ele><time>2026-04-28T14:26:28.999Z</time></trkpt><trkpt lat="35.072148941416685" lon="-6.162007034951099"><ele>59.0</ele><time>2026-04-28T14:26:29.999Z</time></trkpt><trkpt lat="35.072349561247414" lon="-6.161847479968758"><ele>59.0</ele><time>2026-04-28T14:26:30.999Z</time></trkpt><trkpt lat="35.072547693666394" lon="-6.161690861597353"><ele>59.0</ele><time>2026-04-28T14:26:31.999Z</time></trkpt><trkpt lat="35.07274660131999" lon="-6.161536856513383"><ele>59.0</ele><time>2026-04-28T14:26:32.999Z</time></trkpt><trkpt lat="35.07295004678926" lon="-6.161379861641454"><ele>59.0</ele><time>2026-04-28T14:26:33.999Z</time></trkpt><trkpt lat="35.07315951070136" lon="-6.161219143411555"><ele>59.0</ele><time>2026-04-28T14:26:34.999Z</time></trkpt><trkpt lat="35.07336953343282" lon="-6.161050430574118"><ele>59.0</ele><time>2026-04-28T14:26:35.999Z</time></trkpt><trkpt lat="35.07358329894951" lon="-6.1608799421745895"><ele>59.0</ele><time>2026-04-28T14:26:36.999Z</time></trkpt><trkpt lat="35.07380024470025" lon="-6.16070695162337"><ele>59.0</ele><time>2026-04-28T14:26:37.999Z</time></trkpt><trkpt lat="35.0740233731626" lon="-6.160531403294955"><ele>59.0</ele><time>2026-04-28T14:26:38.999Z</time></trkpt><trkpt lat="35.07425259448502" lon="-6.160352830954551"><ele>59.0</ele><time>2026-04-28T14:26:39.999Z</time></trkpt><trkpt lat="35.07448645118193" lon="-6.160168439572608"><ele>59.0</ele><time>2026-04-28T14:26:40.999Z</time></trkpt><trkpt lat="35.07472583439182" lon="-6.15997894033023"><ele>59.0</ele><time>2026-04-28T14:26:41.999Z</time></trkpt><trkpt lat="35.07497255856882" lon="-6.159789467250857"><ele>59.0</ele><time>2026-04-28T14:26:42.999Z</time></trkpt><trkpt lat="35.07522427524942" lon="-6.159590307239929"><ele>59.0</ele><time>2026-04-28T14:26:43.999Z</time></trkpt><trkpt lat="35.075482507132044" lon="-6.159386314093625"><ele>59.0</ele><time>2026-04-28T14:26:44.999Z</time></trkpt><trkpt lat="35.07574162903425" lon="-6.159187558226715"><ele>59.5</ele><time>2026-04-28T14:26:45.999Z</time></trkpt><trkpt lat="35.076001210393706" lon="-6.158986928794599"><ele>60.0</ele><time>2026-04-28T14:26:46.999Z</time></trkpt><trkpt lat="35.07626108863501" lon="-6.158789011800654"><ele>60.0</ele><time>2026-04-28T14:26:47.999Z</time></trkpt><trkpt lat="35.07652211216136" lon="-6.158591765858703"><ele>60.0</ele><time>2026-04-28T14:26:48.999Z</time></trkpt><trkpt lat="35.07678371086234" lon="-6.158398519145969"><ele>60.5</ele><time>2026-04-28T14:26:49.999Z</time></trkpt><trkpt lat="35.07704624815047" lon="-6.158207914158782"><ele>61.0</ele><time>2026-04-28T14:26:50.999Z</time></trkpt><trkpt lat="35.07730831128067" lon="-6.158018202960746"><ele>59.0</ele><time>2026-04-28T14:26:51.999Z</time></trkpt><trkpt lat="35.07757188186275" lon="-6.157831114526452"><ele>57.0</ele><time>2026-04-28T14:26:52.999Z</time></trkpt><trkpt lat="35.07783743225538" lon="-6.157645129810268"><ele>57.0</ele><time>2026-04-28T14:26:53.999Z</time></trkpt><trkpt lat="35.078101843353785" lon="-6.1574603809064525"><ele>57.0</ele><time>2026-04-28T14:26:54.999Z</time></trkpt><trkpt lat="35.07836543397139" lon="-6.1572776547405095"><ele>56.5</ele><time>2026-04-28T14:26:55.999Z</time></trkpt><trkpt lat="35.07862996538266" lon="-6.15710029589402"><ele>56.0</ele><time>2026-04-28T14:26:56.999Z</time></trkpt><trkpt lat="35.078898268601016" lon="-6.1569308129644975"><ele>56.5</ele><time>2026-04-28T14:26:57.999Z</time></trkpt><trkpt lat="35.0791682558821" lon="-6.156764667188478"><ele>57.0</ele><time>2026-04-28T14:26:58.999Z</time></trkpt><trkpt lat="35.07943780441769" lon="-6.156598027481362"><ele>56.5</ele><time>2026-04-28T14:26:59.999Z</time></trkpt><trkpt lat="35.07970412822743" lon="-6.156428663191344"><ele>56.0</ele><time>2026-04-28T14:27:00.999Z</time></trkpt><trkpt lat="35.07997228533184" lon="-6.156262085727782"><ele>55.5</ele><time>2026-04-28T14:27:01.999Z</time></trkpt><trkpt lat="35.08023569411429" lon="-6.156095848805831"><ele>55.0</ele><time>2026-04-28T14:27:02.999Z</time></trkpt><trkpt lat="35.08049919631426" lon="-6.155933182928273"><ele>55.0</ele><time>2026-04-28T14:27:03.999Z</time></trkpt><trkpt lat="35.08076410571296" lon="-6.155771947693192"><ele>55.0</ele><time>2026-04-28T14:27:04.999Z</time></trkpt><trkpt lat="35.08102789294885" lon="-6.155611343525354"><ele>54.5</ele><time>2026-04-28T14:27:05.999Z</time></trkpt><trkpt lat="35.08128867020162" lon="-6.155447972567694"><ele>54.0</ele><time>2026-04-28T14:27:06.999Z</time></trkpt><trkpt lat="35.08155256803616" lon="-6.155287961029317"><ele>53.5</ele><time>2026-04-28T14:27:07.999Z</time></trkpt><trkpt lat="35.081817556081866" lon="-6.155127184618008"><ele>53.0</ele><time>2026-04-28T14:27:08.999Z</time></trkpt><trkpt lat="35.082081134341195" lon="-6.154966133803033"><ele>54.0</ele><time>2026-04-28T14:27:09.999Z</time></trkpt><trkpt lat="35.08234706520821" lon="-6.1548008309083455"><ele>55.0</ele><time>2026-04-28T14:27:10.999Z</time></trkpt><trkpt lat="35.082612874661315" lon="-6.154634120865852"><ele>55.0</ele><time>2026-04-28T14:27:11.999Z</time></trkpt><trkpt lat="35.08288005248757" lon="-6.154466283980303"><ele>55.0</ele><time>2026-04-28T14:27:12.999Z</time></trkpt><trkpt lat="35.0831497720652" lon="-6.154299728091646"><ele>54.5</ele><time>2026-04-28T14:27:13.999Z</time></trkpt><trkpt lat="35.083420847535265" lon="-6.15413259602043"><ele>54.0</ele><time>2026-04-28T14:27:14.999Z</time></trkpt><trkpt lat="35.08369261030524" lon="-6.153962307083337"><ele>54.0</ele><time>2026-04-28T14:27:15.999Z</time></trkpt><trkpt lat="35.083963327692906" lon="-6.15379152311589"><ele>54.0</ele><time>2026-04-28T14:27:16.999Z</time></trkpt><trkpt lat="35.08423427369227" lon="-6.1536205909662645"><ele>52.5</ele><time>2026-04-28T14:27:17.999Z</time></trkpt><trkpt lat="35.084502615326464" lon="-6.153444667856223"><ele>51.0</ele><time>2026-04-28T14:27:18.999Z</time></trkpt><trkpt lat="35.0847719137579" lon="-6.153271087924135"><ele>50.5</ele><time>2026-04-28T14:27:19.999Z</time></trkpt><trkpt lat="35.085041107972486" lon="-6.153098817844938"><ele>50.0</ele><time>2026-04-28T14:27:20.999Z</time></trkpt><trkpt lat="35.085310888819954" lon="-6.152926527700997"><ele>50.0</ele><time>2026-04-28T14:27:21.999Z</time></trkpt><trkpt lat="35.085581638018645" lon="-6.152756597191444"><ele>50.0</ele><time>2026-04-28T14:27:22.999Z</time></trkpt><trkpt lat="35.08585353203256" lon="-6.152587118909628"><ele>50.5</ele><time>2026-04-28T14:27:24Z</time></trkpt><trkpt lat="35.08612368210297" lon="-6.152416713865803"><ele>51.0</ele><time>2026-04-28T14:27:25Z</time></trkpt><trkpt lat="35.086390445749046" lon="-6.152243428874977"><ele>50.0</ele><time>2026-04-28T14:27:26Z</time></trkpt><trkpt lat="35.08665789959303" lon="-6.152072416221286"><ele>49.0</ele><time>2026-04-28T14:27:27Z</time></trkpt><trkpt lat="35.08692352432045" lon="-6.151898809341676"><ele>49.0</ele><time>2026-04-28T14:27:28Z</time></trkpt><trkpt lat="35.087188242186286" lon="-6.151722614578168"><ele>49.0</ele><time>2026-04-28T14:27:29Z</time></trkpt><trkpt lat="35.08745366547777" lon="-6.151548795224407"><ele>48.5</ele><time>2026-04-28T14:27:30Z</time></trkpt><trkpt lat="35.08771771790431" lon="-6.151379141915336"><ele>48.0</ele><time>2026-04-28T14:27:31Z</time></trkpt><trkpt lat="35.08798055377344" lon="-6.151211440645244"><ele>48.0</ele><time>2026-04-28T14:27:32Z</time></trkpt><trkpt lat="35.08824392400383" lon="-6.151047557105538"><ele>48.0</ele><time>2026-04-28T14:27:33Z</time></trkpt><trkpt lat="35.088508579792105" lon="-6.150886108319681"><ele>48.0</ele><time>2026-04-28T14:27:34Z</time></trkpt><trkpt lat="35.08877293389179" lon="-6.150721765319509"><ele>48.0</ele><time>2026-04-28T14:27:35Z</time></trkpt><trkpt lat="35.08903693205928" lon="-6.150554540050463"><ele>47.5</ele><time>2026-04-28T14:27:36Z</time></trkpt><trkpt lat="35.08930120221372" lon="-6.150388121102131"><ele>47.0</ele><time>2026-04-28T14:27:37Z</time></trkpt><trkpt lat="35.089564631531886" lon="-6.150222471194206"><ele>47.0</ele><time>2026-04-28T14:27:38Z</time></trkpt><trkpt lat="35.089822894354654" lon="-6.1500561103794675"><ele>47.0</ele><time>2026-04-28T14:27:39Z</time></trkpt><trkpt lat="35.09008172127479" lon="-6.149892779972073"><ele>48.5</ele><time>2026-04-28T14:27:40Z</time></trkpt><trkpt lat="35.0903431572292" lon="-6.149727390873022"><ele>50.0</ele><time>2026-04-28T14:27:41Z</time></trkpt><trkpt lat="35.09060707973276" lon="-6.149568375288265"><ele>49.0</ele><time>2026-04-28T14:27:42Z</time></trkpt><trkpt lat="35.090868760204216" lon="-6.149401873810227"><ele>48.0</ele><time>2026-04-28T14:27:43Z</time></trkpt><trkpt lat="35.09112736991289" lon="-6.14923681688778"><ele>48.0</ele><time>2026-04-28T14:27:44Z</time></trkpt><trkpt lat="35.091387822511365" lon="-6.149073645267563"><ele>48.0</ele><time>2026-04-28T14:27:45Z</time></trkpt><trkpt lat="35.091650904070846" lon="-6.148912280980156"><ele>47.5</ele><time>2026-04-28T14:27:46Z</time></trkpt><trkpt lat="35.09191459521972" lon="-6.148751568369376"><ele>47.0</ele><time>2026-04-28T14:27:47Z</time></trkpt><trkpt lat="35.09217960528191" lon="-6.148589055436808"><ele>46.5</ele><time>2026-04-28T14:27:48Z</time></trkpt><trkpt lat="35.09244578856591" lon="-6.148426793987673"><ele>46.0</ele><time>2026-04-28T14:27:49Z</time></trkpt><trkpt lat="35.09271011529672" lon="-6.1482630840087635"><ele>46.5</ele><time>2026-04-28T14:27:50Z</time></trkpt><trkpt lat="35.092975400470166" lon="-6.148098997527629"><ele>47.0</ele><time>2026-04-28T14:27:51Z</time></trkpt><trkpt lat="35.093242536292735" lon="-6.1479357057441115"><ele>46.5</ele><time>2026-04-28T14:27:52Z</time></trkpt><trkpt lat="35.09351174145668" lon="-6.147776069890343"><ele>46.0</ele><time>2026-04-28T14:27:53Z</time></trkpt><trkpt lat="35.09378136044345" lon="-6.147616713505927"><ele>46.0</ele><time>2026-04-28T14:27:54Z</time></trkpt><trkpt lat="35.09405181965943" lon="-6.147455037772462"><ele>46.0</ele><time>2026-04-28T14:27:55Z</time></trkpt><trkpt lat="35.09431775152807" lon="-6.147301087751239"><ele>45.5</ele><time>2026-04-28T14:27:56Z</time></trkpt><trkpt lat="35.094576288818814" lon="-6.147159305670302"><ele>45.0</ele><time>2026-04-28T14:27:57Z</time></trkpt><trkpt lat="35.094822438476825" lon="-6.147016057013643"><ele>44.5</ele><time>2026-04-28T14:27:58Z</time></trkpt><trkpt lat="35.09507720103679" lon="-6.146872977249168"><ele>44.0</ele><time>2026-04-28T14:27:59Z</time></trkpt><trkpt lat="35.09533701717686" lon="-6.146720666920939"><ele>44.0</ele><time>2026-04-28T14:28:00Z</time></trkpt><trkpt lat="35.0956100495418" lon="-6.1465790219016645"><ele>44.0</ele><time>2026-04-28T14:28:01Z</time></trkpt><trkpt lat="35.09588933743418" lon="-6.146434199697315"><ele>43.5</ele><time>2026-04-28T14:28:02Z</time></trkpt><trkpt lat="35.09617452846489" lon="-6.146296005387556"><ele>43.0</ele><time>2026-04-28T14:28:03Z</time></trkpt><trkpt lat="35.0964630739392" lon="-6.146160089285402"><ele>43.0</ele><time>2026-04-28T14:28:04Z</time></trkpt><trkpt lat="35.09674710484969" lon="-6.146024189097646"><ele>43.0</ele><time>2026-04-28T14:28:05Z</time></trkpt><trkpt lat="35.097030878632" lon="-6.145895958474256"><ele>43.0</ele><time>2026-04-28T14:28:06Z</time></trkpt><trkpt lat="35.09731605863" lon="-6.145771222338831"><ele>43.0</ele><time>2026-04-28T14:28:07Z</time></trkpt><trkpt lat="35.09760108339194" lon="-6.145648560972328"><ele>40.5</ele><time>2026-04-28T14:28:08Z</time></trkpt><trkpt lat="35.097884923349696" lon="-6.145533266816574"><ele>38.0</ele><time>2026-04-28T14:28:09Z</time></trkpt><trkpt lat="35.09816829185467" lon="-6.145419187088148"><ele>39.5</ele><time>2026-04-28T14:28:10Z</time></trkpt><trkpt lat="35.09845331659893" lon="-6.14531183283674"><ele>41.0</ele><time>2026-04-28T14:28:11Z</time></trkpt><trkpt lat="35.09873958996661" lon="-6.145206774903481"><ele>41.0</ele><time>2026-04-28T14:28:12Z</time></trkpt><trkpt lat="35.09902446568667" lon="-6.145105586766901"><ele>41.0</ele><time>2026-04-28T14:28:13Z</time></trkpt><trkpt lat="35.09931137893492" lon="-6.145003399005906"><ele>40.5</ele><time>2026-04-28T14:28:14Z</time></trkpt><trkpt lat="35.09959707876988" lon="-6.144903893719487"><ele>40.0</ele><time>2026-04-28T14:28:15Z</time></trkpt><trkpt lat="35.09988582597633" lon="-6.144815867233419"><ele>38.0</ele><time>2026-04-28T14:28:16Z</time></trkpt><trkpt lat="35.100172438704945" lon="-6.144728534338514"><ele>36.0</ele><time>2026-04-28T14:28:16.999Z</time></trkpt><trkpt lat="35.10046303979136" lon="-6.144645183071263"><ele>36.0</ele><time>2026-04-28T14:28:17.999Z</time></trkpt><trkpt lat="35.100757444690224" lon="-6.144560388432715"><ele>36.0</ele><time>2026-04-28T14:28:18.999Z</time></trkpt><trkpt lat="35.10105474800685" lon="-6.144481024528334"><ele>36.0</ele><time>2026-04-28T14:28:19.999Z</time></trkpt><trkpt lat="35.101350429113644" lon="-6.144403696469251"><ele>36.0</ele><time>2026-04-28T14:28:20.999Z</time></trkpt><trkpt lat="35.10164630235244" lon="-6.144329827154999"><ele>37.0</ele><time>2026-04-28T14:28:21.999Z</time></trkpt><trkpt lat="35.101940811420455" lon="-6.144258700933555"><ele>38.0</ele><time>2026-04-28T14:28:22.999Z</time></trkpt><trkpt lat="35.10223531351449" lon="-6.144187474676026"><ele>38.0</ele><time>2026-04-28T14:28:23.999Z</time></trkpt><trkpt lat="35.102530284789395" lon="-6.1441236957245025"><ele>38.0</ele><time>2026-04-28T14:28:24.999Z</time></trkpt><trkpt lat="35.10282313684728" lon="-6.144061145353367"><ele>37.5</ele><time>2026-04-28T14:28:25.999Z</time></trkpt><trkpt lat="35.10311430495768" lon="-6.143995186644975"><ele>37.0</ele><time>2026-04-28T14:28:26.999Z</time></trkpt><trkpt lat="35.10340231928949" lon="-6.143927419533898"><ele>37.0</ele><time>2026-04-28T14:28:27.999Z</time></trkpt><trkpt lat="35.1036898569532" lon="-6.143858439581747"><ele>37.0</ele><time>2026-04-28T14:28:28.999Z</time></trkpt><trkpt lat="35.10397660046235" lon="-6.143792905310981"><ele>38.0</ele><time>2026-04-28T14:28:29.999Z</time></trkpt><trkpt lat="35.104264474572936" lon="-6.143723653839275"><ele>39.0</ele><time>2026-04-28T14:28:30.999Z</time></trkpt><trkpt lat="35.10455368596993" lon="-6.143651999270821"><ele>39.0</ele><time>2026-04-28T14:28:31.999Z</time></trkpt><trkpt lat="35.10484219498042" lon="-6.1435854375312555"><ele>39.0</ele><time>2026-04-28T14:28:32.999Z</time></trkpt><trkpt lat="35.1051305378802" lon="-6.143520170370761"><ele>37.5</ele><time>2026-04-28T14:28:33.999Z</time></trkpt><trkpt lat="35.10541654665883" lon="-6.143456765710052"><ele>36.0</ele><time>2026-04-28T14:28:34.999Z</time></trkpt><trkpt lat="35.10570412391192" lon="-6.143392835578646"><ele>35.0</ele><time>2026-04-28T14:28:35.999Z</time></trkpt><trkpt lat="35.105993659913004" lon="-6.1433266347389655"><ele>34.0</ele><time>2026-04-28T14:28:36.999Z</time></trkpt><trkpt lat="35.106285322436754" lon="-6.143262827780776"><ele>33.5</ele><time>2026-04-28T14:28:37.999Z</time></trkpt><trkpt lat="35.106577095483075" lon="-6.14319633151219"><ele>33.0</ele><time>2026-04-28T14:28:38.999Z</time></trkpt><trkpt lat="35.10686977260776" lon="-6.143126847622775"><ele>33.0</ele><time>2026-04-28T14:28:39.999Z</time></trkpt><trkpt lat="35.107160203536715" lon="-6.143057169837958"><ele>33.0</ele><time>2026-04-28T14:28:40.999Z</time></trkpt><trkpt lat="35.107450117293894" lon="-6.142987269364826"><ele>33.0</ele><time>2026-04-28T14:28:41.999Z</time></trkpt><trkpt lat="35.10773997689298" lon="-6.14291783605582"><ele>33.0</ele><time>2026-04-28T14:28:42.999Z</time></trkpt><trkpt lat="35.108030350794344" lon="-6.142851322301236"><ele>34.0</ele><time>2026-04-28T14:28:43.999Z</time></trkpt><trkpt lat="35.108320420201714" lon="-6.14278494167933"><ele>35.0</ele><time>2026-04-28T14:28:44.999Z</time></trkpt><trkpt lat="35.108610460010894" lon="-6.14272022759505"><ele>35.0</ele><time>2026-04-28T14:28:45.999Z</time></trkpt><trkpt lat="35.10889944974932" lon="-6.142655944962278"><ele>35.0</ele><time>2026-04-28T14:28:46.999Z</time></trkpt><trkpt lat="35.10918536765205" lon="-6.142589315146096"><ele>34.0</ele><time>2026-04-28T14:28:47.999Z</time></trkpt><trkpt lat="35.10947185078545" lon="-6.142528954823788"><ele>33.0</ele><time>2026-04-28T14:28:48.999Z</time></trkpt><trkpt lat="35.109761400862105" lon="-6.142474030295379"><ele>33.5</ele><time>2026-04-28T14:28:49.999Z</time></trkpt><trkpt lat="35.110051230562036" lon="-6.142426065946481"><ele>34.0</ele><time>2026-04-28T14:28:50.999Z</time></trkpt><trkpt lat="35.110342220454065" lon="-6.142377319586075"><ele>34.0</ele><time>2026-04-28T14:28:51.999Z</time></trkpt><trkpt lat="35.110634663724085" lon="-6.142348096565461"><ele>34.0</ele><time>2026-04-28T14:28:52.999Z</time></trkpt><trkpt lat="35.11092458710373" lon="-6.142309935956389"><ele>34.0</ele><time>2026-04-28T14:28:53.999Z</time></trkpt><trkpt lat="35.111219460405714" lon="-6.142272034270797"><ele>34.0</ele><time>2026-04-28T14:28:54.999Z</time></trkpt><trkpt lat="35.111515375953076" lon="-6.142239111931135"><ele>34.0</ele><time>2026-04-28T14:28:55.999Z</time></trkpt><trkpt lat="35.11181260776724" lon="-6.14221152107021"><ele>34.0</ele><time>2026-04-28T14:28:56.999Z</time></trkpt><trkpt lat="35.11211409749274" lon="-6.142190717749399"><ele>33.0</ele><time>2026-04-28T14:28:57.999Z</time></trkpt><trkpt lat="35.11241599886903" lon="-6.142175188851708"><ele>32.0</ele><time>2026-04-28T14:28:58.999Z</time></trkpt><trkpt lat="35.11271763753048" lon="-6.142161171399729"><ele>32.0</ele><time>2026-04-28T14:28:59.999Z</time></trkpt><trkpt lat="35.11302048066084" lon="-6.14214753542108"><ele>32.0</ele><time>2026-04-28T14:29:00.999Z</time></trkpt><trkpt lat="35.11332256224172" lon="-6.142134669618383"><ele>31.0</ele><time>2026-04-28T14:29:01.999Z</time></trkpt><trkpt lat="35.11361881564068" lon="-6.142123421714388"><ele>30.0</ele><time>2026-04-28T14:29:02.999Z</time></trkpt><trkpt lat="35.11391086856436" lon="-6.142114740242304"><ele>30.5</ele><time>2026-04-28T14:29:03.999Z</time></trkpt><trkpt lat="35.11420100737103" lon="-6.142110789558283"><ele>31.0</ele><time>2026-04-28T14:29:04.999Z</time></trkpt><trkpt lat="35.11448931544539" lon="-6.142110979196899"><ele>31.0</ele><time>2026-04-28T14:29:05.999Z</time></trkpt><trkpt lat="35.11477724933994" lon="-6.142116216746825"><ele>31.0</ele><time>2026-04-28T14:29:06.999Z</time></trkpt><trkpt lat="35.11506505774265" lon="-6.142128486821215"><ele>31.0</ele><time>2026-04-28T14:29:07.999Z</time></trkpt><trkpt lat="35.11535608762996" lon="-6.142144487852868"><ele>31.0</ele><time>2026-04-28T14:29:08.999Z</time></trkpt><trkpt lat="35.11564916059169" lon="-6.142165182399209"><ele>31.0</ele><time>2026-04-28T14:29:09.999Z</time></trkpt><trkpt lat="35.11594508795026" lon="-6.142189009107531"><ele>31.0</ele><time>2026-04-28T14:29:10.999Z</time></trkpt><trkpt lat="35.11624199847938" lon="-6.142217836118223"><ele>31.0</ele><time>2026-04-28T14:29:11.999Z</time></trkpt><trkpt lat="35.11653804535624" lon="-6.142252112427373"><ele>31.0</ele><time>2026-04-28T14:29:12.999Z</time></trkpt><trkpt lat="35.116836705284626" lon="-6.142291029317708"><ele>31.0</ele><time>2026-04-28T14:29:13.999Z</time></trkpt><trkpt lat="35.117135588024574" lon="-6.142332861943499"><ele>31.0</ele><time>2026-04-28T14:29:14.999Z</time></trkpt><trkpt lat="35.1174331325606" lon="-6.1423771506613365"><ele>30.0</ele><time>2026-04-28T14:29:15.999Z</time></trkpt><trkpt lat="35.117729513368054" lon="-6.142425757207786"><ele>29.0</ele><time>2026-04-28T14:29:16.999Z</time></trkpt><trkpt lat="35.11802111857694" lon="-6.142479643349646"><ele>29.5</ele><time>2026-04-28T14:29:17.999Z</time></trkpt><trkpt lat="35.11830923843332" lon="-6.142537152014036"><ele>30.0</ele><time>2026-04-28T14:29:18.999Z</time></trkpt><trkpt lat="35.118598522838546" lon="-6.142598511876436"><ele>30.0</ele><time>2026-04-28T14:29:19.999Z</time></trkpt><trkpt lat="35.11888603535331" lon="-6.142663258686938"><ele>30.0</ele><time>2026-04-28T14:29:20.999Z</time></trkpt><trkpt lat="35.119172972760595" lon="-6.142733717763166"><ele>30.5</ele><time>2026-04-28T14:29:21.999Z</time></trkpt><trkpt lat="35.119462717132976" lon="-6.142803317102797"><ele>31.0</ele><time>2026-04-28T14:29:22.999Z</time></trkpt><trkpt lat="35.119753195184074" lon="-6.142874183380623"><ele>31.0</ele><time>2026-04-28T14:29:23.999Z</time></trkpt><trkpt lat="35.12004251027105" lon="-6.142951833961745"><ele>31.0</ele><time>2026-04-28T14:29:24.999Z</time></trkpt><trkpt lat="35.1203310492371" lon="-6.143037947865872"><ele>31.0</ele><time>2026-04-28T14:29:25.999Z</time></trkpt><trkpt lat="35.120620268254484" lon="-6.14312593007848"><ele>31.0</ele><time>2026-04-28T14:29:26.999Z</time></trkpt><trkpt lat="35.12090895624608" lon="-6.143215875709468"><ele>29.0</ele><time>2026-04-28T14:29:27.999Z</time></trkpt><trkpt lat="35.12119565167095" lon="-6.14330962183663"><ele>27.0</ele><time>2026-04-28T14:29:28.999Z</time></trkpt><trkpt lat="35.12147926642883" lon="-6.14341260185151"><ele>27.5</ele><time>2026-04-28T14:29:30Z</time></trkpt><trkpt lat="35.12176262058414" lon="-6.143517187107167"><ele>28.0</ele><time>2026-04-28T14:29:31Z</time></trkpt><trkpt lat="35.12204485201584" lon="-6.14362996670094"><ele>28.0</ele><time>2026-04-28T14:29:32Z</time></trkpt><trkpt lat="35.1223285729609" lon="-6.143729644160347"><ele>28.0</ele><time>2026-04-28T14:29:33Z</time></trkpt><trkpt lat="35.12261219142431" lon="-6.143830332519876"><ele>29.0</ele><time>2026-04-28T14:29:34Z</time></trkpt><trkpt lat="35.122896969903515" lon="-6.143927863252067"><ele>30.0</ele><time>2026-04-28T14:29:35Z</time></trkpt><trkpt lat="35.12318130012688" lon="-6.144025534094273"><ele>28.5</ele><time>2026-04-28T14:29:36Z</time></trkpt><trkpt lat="35.1234672715121" lon="-6.144124700902453"><ele>27.0</ele><time>2026-04-28T14:29:37Z</time></trkpt><trkpt lat="35.12375330833232" lon="-6.144223610763649"><ele>27.0</ele><time>2026-04-28T14:29:38Z</time></trkpt><trkpt lat="35.12403922240588" lon="-6.144320659907832"><ele>27.0</ele><time>2026-04-28T14:29:39Z</time></trkpt><trkpt lat="35.124326951734425" lon="-6.144419833130103"><ele>27.0</ele><time>2026-04-28T14:29:40Z</time></trkpt><trkpt lat="35.124614419094534" lon="-6.144521818340897"><ele>27.0</ele><time>2026-04-28T14:29:41Z</time></trkpt><trkpt lat="35.12490307348632" lon="-6.144623863263007"><ele>27.5</ele><time>2026-04-28T14:29:42Z</time></trkpt><trkpt lat="35.12519209400377" lon="-6.144725138568802"><ele>28.0</ele><time>2026-04-28T14:29:43Z</time></trkpt><trkpt lat="35.12548137632312" lon="-6.14482651852519"><ele>28.0</ele><time>2026-04-28T14:29:44Z</time></trkpt><trkpt lat="35.125770080996666" lon="-6.144928374094317"><ele>28.0</ele><time>2026-04-28T14:29:45Z</time></trkpt><trkpt lat="35.12605952335933" lon="-6.145030706469506"><ele>28.0</ele><time>2026-04-28T14:29:46Z</time></trkpt><trkpt lat="35.12634894479778" lon="-6.145133180617235"><ele>28.0</ele><time>2026-04-28T14:29:47Z</time></trkpt><trkpt lat="35.126637965772616" lon="-6.145233751699767"><ele>28.5</ele><time>2026-04-28T14:29:48Z</time></trkpt><trkpt lat="35.12692153196836" lon="-6.14532687448651"><ele>29.0</ele><time>2026-04-28T14:29:49Z</time></trkpt><trkpt lat="35.127197417156935" lon="-6.145416790522863"><ele>29.5</ele><time>2026-04-28T14:29:50Z</time></trkpt><trkpt lat="35.12746637973692" lon="-6.1455104050733365"><ele>30.0</ele><time>2026-04-28T14:29:51Z</time></trkpt><trkpt lat="35.127727086842754" lon="-6.145603398652813"><ele>30.0</ele><time>2026-04-28T14:29:52Z</time></trkpt><trkpt lat="35.127978009803854" lon="-6.145692496684794"><ele>30.0</ele><time>2026-04-28T14:29:53Z</time></trkpt><trkpt lat="35.12821871310183" lon="-6.145774767374724"><ele>29.5</ele><time>2026-04-28T14:29:54Z</time></trkpt><trkpt lat="35.12844670456465" lon="-6.145851325369396"><ele>29.0</ele><time>2026-04-28T14:29:55Z</time></trkpt><trkpt lat="35.12866571232973" lon="-6.145923078935098"><ele>29.0</ele><time>2026-04-28T14:29:56Z</time></trkpt><trkpt lat="35.12887489022901" lon="-6.145991059507173"><ele>29.0</ele><time>2026-04-28T14:29:57Z</time></trkpt><trkpt lat="35.12908149768265" lon="-6.146061320174537"><ele>29.0</ele><time>2026-04-28T14:29:58Z</time></trkpt><trkpt lat="35.129300212368484" lon="-6.1461388027201425"><ele>28.5</ele><time>2026-04-28T14:29:59Z</time></trkpt><trkpt lat="35.129531565010915" lon="-6.146230862894428"><ele>28.0</ele><time>2026-04-28T14:30:00Z</time></trkpt><trkpt lat="35.129775968290005" lon="-6.146330565084456"><ele>26.0</ele><time>2026-04-28T14:30:01Z</time></trkpt><trkpt lat="35.130031559038706" lon="-6.146426165322103"><ele>24.0</ele><time>2026-04-28T14:30:02Z</time></trkpt><trkpt lat="35.13030455760774" lon="-6.146513535552"><ele>24.0</ele><time>2026-04-28T14:30:03Z</time></trkpt><trkpt lat="35.13058971759959" lon="-6.146588797139458"><ele>24.0</ele><time>2026-04-28T14:30:04Z</time></trkpt><trkpt lat="35.130882228380315" lon="-6.146655710866246"><ele>24.0</ele><time>2026-04-28T14:30:05Z</time></trkpt><trkpt lat="35.13118006657785" lon="-6.146714874723313"><ele>24.0</ele><time>2026-04-28T14:30:06Z</time></trkpt><trkpt lat="35.131478842888136" lon="-6.146766751548673"><ele>24.0</ele><time>2026-04-28T14:30:07Z</time></trkpt><trkpt lat="35.13177849153311" lon="-6.146813592248369"><ele>24.0</ele><time>2026-04-28T14:30:08Z</time></trkpt><trkpt lat="35.13207745461442" lon="-6.146857875523663"><ele>24.0</ele><time>2026-04-28T14:30:09Z</time></trkpt><trkpt lat="35.13237428322219" lon="-6.146901128416977"><ele>24.0</ele><time>2026-04-28T14:30:10Z</time></trkpt><trkpt lat="35.13266996832226" lon="-6.146939362703518"><ele>23.5</ele><time>2026-04-28T14:30:11Z</time></trkpt><trkpt lat="35.13296563348904" lon="-6.1469705570596735"><ele>23.0</ele><time>2026-04-28T14:30:12Z</time></trkpt><trkpt lat="35.13326153224372" lon="-6.146993861464277"><ele>23.0</ele><time>2026-04-28T14:30:13Z</time></trkpt><trkpt lat="35.13355658351504" lon="-6.147010612267793"><ele>23.0</ele><time>2026-04-28T14:30:14Z</time></trkpt><trkpt lat="35.13385279651485" lon="-6.147020788467383"><ele>24.0</ele><time>2026-04-28T14:30:15Z</time></trkpt><trkpt lat="35.134150450734815" lon="-6.147025227953534"><ele>25.0</ele><time>2026-04-28T14:30:15.999Z</time></trkpt><trkpt lat="35.13444997956878" lon="-6.147022744675728"><ele>25.0</ele><time>2026-04-28T14:30:16.999Z</time></trkpt><trkpt lat="35.13474770747183" lon="-6.147014399632146"><ele>25.0</ele><time>2026-04-28T14:30:17.999Z</time></trkpt><trkpt lat="35.1350434506484" lon="-6.147001305910343"><ele>25.0</ele><time>2026-04-28T14:30:18.999Z</time></trkpt><trkpt lat="35.13533796644972" lon="-6.1469864081757395"><ele>25.0</ele><time>2026-04-28T14:30:19.999Z</time></trkpt><trkpt lat="35.13563391095944" lon="-6.146968874160886"><ele>26.0</ele><time>2026-04-28T14:30:20.999Z</time></trkpt><trkpt lat="35.13593158972408" lon="-6.146949668223134"><ele>27.0</ele><time>2026-04-28T14:30:21.999Z</time></trkpt><trkpt lat="35.13623086394286" lon="-6.146926540096887"><ele>27.0</ele><time>2026-04-28T14:30:22.999Z</time></trkpt><trkpt lat="35.136528037983005" lon="-6.146896011652159"><ele>27.0</ele><time>2026-04-28T14:30:23.999Z</time></trkpt><trkpt lat="35.13682327978448" lon="-6.146853742751758"><ele>27.0</ele><time>2026-04-28T14:30:24.999Z</time></trkpt><trkpt lat="35.137114827128954" lon="-6.146777480036865"><ele>27.0</ele><time>2026-04-28T14:30:25.999Z</time></trkpt><trkpt lat="35.13740635775395" lon="-6.1466940797755845"><ele>27.5</ele><time>2026-04-28T14:30:26.999Z</time></trkpt><trkpt lat="35.13769866902562" lon="-6.146611564802297"><ele>28.0</ele><time>2026-04-28T14:30:27.999Z</time></trkpt><trkpt lat="35.1379900753799" lon="-6.146528254171763"><ele>28.0</ele><time>2026-04-28T14:30:28.999Z</time></trkpt><trkpt lat="35.13828117063238" lon="-6.146445645508172"><ele>28.0</ele><time>2026-04-28T14:30:29.999Z</time></trkpt><trkpt lat="35.13857340391738" lon="-6.146365447125654"><ele>28.0</ele><time>2026-04-28T14:30:30.999Z</time></trkpt><trkpt lat="35.13886285479427" lon="-6.146292757903556"><ele>28.0</ele><time>2026-04-28T14:30:31.999Z</time></trkpt><trkpt lat="35.13915316029711" lon="-6.146230647794388"><ele>27.0</ele><time>2026-04-28T14:30:32.999Z</time></trkpt><trkpt lat="35.1394351969337" lon="-6.1461357996721055"><ele>26.0</ele><time>2026-04-28T14:30:33.999Z</time></trkpt><trkpt lat="35.13971438673791" lon="-6.146034065765243"><ele>25.5</ele><time>2026-04-28T14:30:34.999Z</time></trkpt><trkpt lat="35.139993262152394" lon="-6.145925405998371"><ele>25.0</ele><time>2026-04-28T14:30:35.999Z</time></trkpt><trkpt lat="35.140272319419246" lon="-6.145812676509057"><ele>26.5</ele><time>2026-04-28T14:30:36.999Z</time></trkpt><trkpt lat="35.14054141135531" lon="-6.145703321776374"><ele>28.0</ele><time>2026-04-28T14:30:37.999Z</time></trkpt><trkpt lat="35.140787150882325" lon="-6.145598893992409"><ele>28.0</ele><time>2026-04-28T14:30:38.999Z</time></trkpt><trkpt lat="35.141028552336074" lon="-6.145489198981402"><ele>28.0</ele><time>2026-04-28T14:30:39.999Z</time></trkpt><trkpt lat="35.14127945034869" lon="-6.145366449872585"><ele>28.0</ele><time>2026-04-28T14:30:40.999Z</time></trkpt><trkpt lat="35.14153893338634" lon="-6.145231544271057"><ele>28.0</ele><time>2026-04-28T14:30:41.999Z</time></trkpt><trkpt lat="35.14180173290422" lon="-6.145087626574483"><ele>28.0</ele><time>2026-04-28T14:30:42.999Z</time></trkpt><trkpt lat="35.14206572677515" lon="-6.144936830586805"><ele>28.0</ele><time>2026-04-28T14:30:43.999Z</time></trkpt><trkpt lat="35.14232915997077" lon="-6.1447765358378605"><ele>28.5</ele><time>2026-04-28T14:30:44.999Z</time></trkpt><trkpt lat="35.14259173440782" lon="-6.144608787506518"><ele>29.0</ele><time>2026-04-28T14:30:45.999Z</time></trkpt><trkpt lat="35.1428520957739" lon="-6.144434772167536"><ele>29.0</ele><time>2026-04-28T14:30:46.999Z</time></trkpt><trkpt lat="35.14310950320375" lon="-6.144253550110976"><ele>29.0</ele><time>2026-04-28T14:30:47.999Z</time></trkpt><trkpt lat="35.1433658280394" lon="-6.144067971207444"><ele>29.0</ele><time>2026-04-28T14:30:48.999Z</time></trkpt><trkpt lat="35.143624380938135" lon="-6.143881695984092"><ele>29.0</ele><time>2026-04-28T14:30:49.999Z</time></trkpt><trkpt lat="35.14388269106764" lon="-6.1436917485629525"><ele>29.0</ele><time>2026-04-28T14:30:50.999Z</time></trkpt><trkpt lat="35.14413709733484" lon="-6.1434977334043985"><ele>29.0</ele><time>2026-04-28T14:30:51.999Z</time></trkpt><trkpt lat="35.144392725610004" lon="-6.143298179221328"><ele>29.0</ele><time>2026-04-28T14:30:52.999Z</time></trkpt><trkpt lat="35.14464372402861" lon="-6.143092424927569"><ele>29.0</ele><time>2026-04-28T14:30:53.999Z</time></trkpt><trkpt lat="35.14488614816157" lon="-6.142875319186382"><ele>27.0</ele><time>2026-04-28T14:30:54.999Z</time></trkpt><trkpt lat="35.1451189266355" lon="-6.142646526692362"><ele>25.0</ele><time>2026-04-28T14:30:55.999Z</time></trkpt><trkpt lat="35.145348897586985" lon="-6.142414573988993"><ele>26.0</ele><time>2026-04-28T14:30:56.999Z</time></trkpt><trkpt lat="35.145572452271466" lon="-6.142191838239025"><ele>27.0</ele><time>2026-04-28T14:30:57.999Z</time></trkpt><trkpt lat="35.145784200062465" lon="-6.14198251793659"><ele>25.0</ele><time>2026-04-28T14:30:58.999Z</time></trkpt><trkpt lat="35.145978498042616" lon="-6.1417810703129545"><ele>23.0</ele><time>2026-04-28T14:30:59.999Z</time></trkpt><trkpt lat="35.1461671687301" lon="-6.141587334646066"><ele>23.5</ele><time>2026-04-28T14:31:00.999Z</time></trkpt><trkpt lat="35.14635345917861" lon="-6.141400982548353"><ele>24.0</ele><time>2026-04-28T14:31:01.999Z</time></trkpt><trkpt lat="35.14654080883228" lon="-6.1412099906526905"><ele>23.5</ele><time>2026-04-28T14:31:02.999Z</time></trkpt><trkpt lat="35.146732686800966" lon="-6.141003674988312"><ele>23.0</ele><time>2026-04-28T14:31:03.999Z</time></trkpt><trkpt lat="35.14692820417268" lon="-6.140781519704544"><ele>24.0</ele><time>2026-04-28T14:31:04.999Z</time></trkpt><trkpt lat="35.147124450528814" lon="-6.140546395560879"><ele>25.0</ele><time>2026-04-28T14:31:05.999Z</time></trkpt><trkpt lat="35.14732091433262" lon="-6.1402959317390104"><ele>24.5</ele><time>2026-04-28T14:31:06.999Z</time></trkpt><trkpt lat="35.14752167216972" lon="-6.140035401223603"><ele>24.0</ele><time>2026-04-28T14:31:07.999Z</time></trkpt><trkpt lat="35.147722402358305" lon="-6.13977224468591"><ele>25.0</ele><time>2026-04-28T14:31:08.999Z</time></trkpt><trkpt lat="35.14792256813458" lon="-6.1395044123928475"><ele>26.0</ele><time>2026-04-28T14:31:09.999Z</time></trkpt><trkpt lat="35.14812146901071" lon="-6.139233555305704"><ele>25.0</ele><time>2026-04-28T14:31:10.999Z</time></trkpt><trkpt lat="35.148321828517524" lon="-6.1389626908410335"><ele>24.0</ele><time>2026-04-28T14:31:11.999Z</time></trkpt><trkpt lat="35.14852510994846" lon="-6.138693740782235"><ele>24.0</ele><time>2026-04-28T14:31:12.999Z</time></trkpt><trkpt lat="35.148729548575766" lon="-6.138429719638476"><ele>24.0</ele><time>2026-04-28T14:31:13.999Z</time></trkpt><trkpt lat="35.14893517265766" lon="-6.138167323933752"><ele>24.5</ele><time>2026-04-28T14:31:14.999Z</time></trkpt><trkpt lat="35.14914104766356" lon="-6.137904026954821"><ele>25.0</ele><time>2026-04-28T14:31:15.999Z</time></trkpt><trkpt lat="35.14934495337126" lon="-6.137636045672421"><ele>25.0</ele><time>2026-04-28T14:31:16.999Z</time></trkpt><trkpt lat="35.14954700374206" lon="-6.137365645686793"><ele>25.0</ele><time>2026-04-28T14:31:17.999Z</time></trkpt><trkpt lat="35.14974796122465" lon="-6.13709430300443"><ele>25.0</ele><time>2026-04-28T14:31:18.999Z</time></trkpt><trkpt lat="35.14994877110241" lon="-6.1368219091320615"><ele>25.0</ele><time>2026-04-28T14:31:19.999Z</time></trkpt><trkpt lat="35.15015014219349" lon="-6.136549798206825"><ele>26.5</ele><time>2026-04-28T14:31:20.999Z</time></trkpt><trkpt lat="35.15035553377714" lon="-6.136280135218327"><ele>28.0</ele><time>2026-04-28T14:31:21.999Z</time></trkpt><trkpt lat="35.150562384662784" lon="-6.136014739944066"><ele>28.0</ele><time>2026-04-28T14:31:22.999Z</time></trkpt><trkpt lat="35.15077003272158" lon="-6.13575192932489"><ele>28.0</ele><time>2026-04-28T14:31:23.999Z</time></trkpt><trkpt lat="35.15097793663754" lon="-6.135486760389089"><ele>28.0</ele><time>2026-04-28T14:31:24.999Z</time></trkpt><trkpt lat="35.15118462937647" lon="-6.13522018603553"><ele>28.0</ele><time>2026-04-28T14:31:25.999Z</time></trkpt><trkpt lat="35.15138991989814" lon="-6.134953338199983"><ele>29.0</ele><time>2026-04-28T14:31:26.999Z</time></trkpt><trkpt lat="35.15159511700433" lon="-6.134686313173517"><ele>30.0</ele><time>2026-04-28T14:31:27.999Z</time></trkpt><trkpt lat="35.151799911334116" lon="-6.134421321666695"><ele>30.0</ele><time>2026-04-28T14:31:28.999Z</time></trkpt><trkpt lat="35.152005310967695" lon="-6.134157257804428"><ele>30.0</ele><time>2026-04-28T14:31:29.999Z</time></trkpt><trkpt lat="35.15221102595143" lon="-6.13389341976128"><ele>31.0</ele><time>2026-04-28T14:31:30.999Z</time></trkpt><trkpt lat="35.152416740816136" lon="-6.133627453505854"><ele>32.0</ele><time>2026-04-28T14:31:31.999Z</time></trkpt><trkpt lat="35.152623625708806" lon="-6.133366007766007"><ele>34.0</ele><time>2026-04-28T14:31:32.999Z</time></trkpt><trkpt lat="35.1528339117453" lon="-6.133108946843008"><ele>36.0</ele><time>2026-04-28T14:31:33.999Z</time></trkpt><trkpt lat="35.153052593637604" lon="-6.132866538629255"><ele>35.0</ele><time>2026-04-28T14:31:34.999Z</time></trkpt><trkpt lat="35.153263784221636" lon="-6.13262923764792"><ele>34.0</ele><time>2026-04-28T14:31:36Z</time></trkpt><trkpt lat="35.15347402923937" lon="-6.13240124749887"><ele>35.0</ele><time>2026-04-28T14:31:37Z</time></trkpt><trkpt lat="35.153691313599495" lon="-6.132178594612646"><ele>36.0</ele><time>2026-04-28T14:31:38Z</time></trkpt><trkpt lat="35.15391500839978" lon="-6.131954330869828"><ele>35.0</ele><time>2026-04-28T14:31:39Z</time></trkpt><trkpt lat="35.154143010696906" lon="-6.131727946830675"><ele>34.0</ele><time>2026-04-28T14:31:40Z</time></trkpt><trkpt lat="35.154374858887905" lon="-6.131502129919361"><ele>34.0</ele><time>2026-04-28T14:31:41Z</time></trkpt><trkpt lat="35.15461086779944" lon="-6.131280243997126"><ele>34.0</ele><time>2026-04-28T14:31:42Z</time></trkpt><trkpt lat="35.154849269141124" lon="-6.131066558925115"><ele>35.0</ele><time>2026-04-28T14:31:43Z</time></trkpt><trkpt lat="35.155091928091515" lon="-6.13085620796395"><ele>36.0</ele><time>2026-04-28T14:31:44Z</time></trkpt><trkpt lat="35.15533625162965" lon="-6.130645048901287"><ele>37.5</ele><time>2026-04-28T14:31:45Z</time></trkpt><trkpt lat="35.1555822894195" lon="-6.130435660765807"><ele>39.0</ele><time>2026-04-28T14:31:46Z</time></trkpt><trkpt lat="35.15583004067216" lon="-6.130231839214872"><ele>39.5</ele><time>2026-04-28T14:31:47Z</time></trkpt><trkpt lat="35.15608210051821" lon="-6.130032284342764"><ele>40.0</ele><time>2026-04-28T14:31:48Z</time></trkpt><trkpt lat="35.15633674309306" lon="-6.129839461526747"><ele>42.5</ele><time>2026-04-28T14:31:49Z</time></trkpt><trkpt lat="35.156594669040025" lon="-6.12965417365633"><ele>45.0</ele><time>2026-04-28T14:31:50Z</time></trkpt><trkpt lat="35.156857307958305" lon="-6.1294747326364"><ele>45.0</ele><time>2026-04-28T14:31:51Z</time></trkpt><trkpt lat="35.15712349871433" lon="-6.129298692720677"><ele>45.0</ele><time>2026-04-28T14:31:52Z</time></trkpt><trkpt lat="35.157389860021986" lon="-6.129129508025471"><ele>46.5</ele><time>2026-04-28T14:31:53Z</time></trkpt><trkpt lat="35.157659000476556" lon="-6.12896651131634"><ele>48.0</ele><time>2026-04-28T14:31:54Z</time></trkpt><trkpt lat="35.15793107743765" lon="-6.128809561878685"><ele>48.5</ele><time>2026-04-28T14:31:55Z</time></trkpt><trkpt lat="35.15820437000966" lon="-6.128657276730153"><ele>49.0</ele><time>2026-04-28T14:31:56Z</time></trkpt><trkpt lat="35.15847950476676" lon="-6.128506423424066"><ele>49.0</ele><time>2026-04-28T14:31:57Z</time></trkpt><trkpt lat="35.15875565611314" lon="-6.128354616254534"><ele>49.0</ele><time>2026-04-28T14:31:58Z</time></trkpt><trkpt lat="35.15902991896502" lon="-6.128202496332622"><ele>49.5</ele><time>2026-04-28T14:31:59Z</time></trkpt><trkpt lat="35.15930540844487" lon="-6.128049731932897"><ele>50.0</ele><time>2026-04-28T14:32:00Z</time></trkpt><trkpt lat="35.15958031425233" lon="-6.1278995502190226"><ele>50.0</ele><time>2026-04-28T14:32:01Z</time></trkpt><trkpt lat="35.15985406159785" lon="-6.127749286606159"><ele>50.0</ele><time>2026-04-28T14:32:02Z</time></trkpt><trkpt lat="35.16012593108241" lon="-6.127597283900808"><ele>50.0</ele><time>2026-04-28T14:32:03Z</time></trkpt><trkpt lat="35.16039895155885" lon="-6.127447047075462"><ele>50.0</ele><time>2026-04-28T14:32:04Z</time></trkpt><trkpt lat="35.160673566183064" lon="-6.127300151778269"><ele>49.0</ele><time>2026-04-28T14:32:05Z</time></trkpt><trkpt lat="35.16094687126052" lon="-6.1271480141583785"><ele>48.0</ele><time>2026-04-28T14:32:06Z</time></trkpt><trkpt lat="35.1612208107041" lon="-6.126999028966217"><ele>48.0</ele><time>2026-04-28T14:32:07Z</time></trkpt><trkpt lat="35.16149463205626" lon="-6.126853664541923"><ele>48.0</ele><time>2026-04-28T14:32:08Z</time></trkpt><trkpt lat="35.16176794569756" lon="-6.126705335313997"><ele>51.0</ele><time>2026-04-28T14:32:09Z</time></trkpt><trkpt lat="35.16204015137005" lon="-6.126554650204355"><ele>54.0</ele><time>2026-04-28T14:32:09.999Z</time></trkpt><trkpt lat="35.16231211215959" lon="-6.12640229072263"><ele>55.0</ele><time>2026-04-28T14:32:10.999Z</time></trkpt><trkpt lat="35.16258476029289" lon="-6.126251238827032"><ele>56.0</ele><time>2026-04-28T14:32:11.999Z</time></trkpt><trkpt lat="35.16285960989044" lon="-6.126106724335228"><ele>56.0</ele><time>2026-04-28T14:32:12.999Z</time></trkpt><trkpt lat="35.16313504608168" lon="-6.1259623588702725"><ele>56.0</ele><time>2026-04-28T14:32:13.999Z</time></trkpt><trkpt lat="35.16340940702949" lon="-6.125813223836022"><ele>57.5</ele><time>2026-04-28T14:32:15Z</time></trkpt><trkpt lat="35.16368567897828" lon="-6.125666856129412"><ele>59.0</ele><time>2026-04-28T14:32:16Z</time></trkpt><trkpt lat="35.1639626263745" lon="-6.125519367330321"><ele>60.0</ele><time>2026-04-28T14:32:17Z</time></trkpt><trkpt lat="35.1642382429617" lon="-6.125374235966334"><ele>61.0</ele><time>2026-04-28T14:32:18Z</time></trkpt><trkpt lat="35.164512574972726" lon="-6.125227512033853"><ele>61.0</ele><time>2026-04-28T14:32:19Z</time></trkpt><trkpt lat="35.16478841709528" lon="-6.125083293257922"><ele>61.0</ele><time>2026-04-28T14:32:20Z</time></trkpt><trkpt lat="35.16506375395686" lon="-6.124935262100757"><ele>63.5</ele><time>2026-04-28T14:32:21Z</time></trkpt><trkpt lat="35.16533855219295" lon="-6.124782910781143"><ele>66.0</ele><time>2026-04-28T14:32:22Z</time></trkpt><trkpt lat="35.16561262470972" lon="-6.124628116647244"><ele>65.0</ele><time>2026-04-28T14:32:23Z</time></trkpt><trkpt lat="35.16588659608251" lon="-6.1244707280785295"><ele>64.0</ele><time>2026-04-28T14:32:24Z</time></trkpt><trkpt lat="35.16616176656382" lon="-6.1243147336977035"><ele>64.0</ele><time>2026-04-28T14:32:25Z</time></trkpt><trkpt lat="35.16643714291761" lon="-6.124159462417065"><ele>64.0</ele><time>2026-04-28T14:32:26Z</time></trkpt><trkpt lat="35.16671320953508" lon="-6.12400570563059"><ele>65.5</ele><time>2026-04-28T14:32:27Z</time></trkpt><trkpt lat="35.16698837834427" lon="-6.1238502921954305"><ele>67.0</ele><time>2026-04-28T14:32:28Z</time></trkpt><trkpt lat="35.16726184460679" lon="-6.1236906302188485"><ele>61.5</ele><time>2026-04-28T14:32:29Z</time></trkpt><trkpt lat="35.16753103970923" lon="-6.123521169986286"><ele>56.0</ele><time>2026-04-28T14:32:30Z</time></trkpt><trkpt lat="35.16779781315259" lon="-6.12334637064097"><ele>57.0</ele><time>2026-04-28T14:32:31Z</time></trkpt><trkpt lat="35.16806237708802" lon="-6.123169659014514"><ele>58.0</ele><time>2026-04-28T14:32:32Z</time></trkpt><trkpt lat="35.16832606755753" lon="-6.122988317518907"><ele>58.0</ele><time>2026-04-28T14:32:33Z</time></trkpt><trkpt lat="35.16858662497148" lon="-6.122803731821072"><ele>58.0</ele><time>2026-04-28T14:32:34Z</time></trkpt><trkpt lat="35.168843383410035" lon="-6.122611999090606"><ele>54.0</ele><time>2026-04-28T14:32:35Z</time></trkpt><trkpt lat="35.16909588512562" lon="-6.122414899435968"><ele>50.0</ele><time>2026-04-28T14:32:36Z</time></trkpt><trkpt lat="35.16934514587463" lon="-6.122211204363015"><ele>49.0</ele><time>2026-04-28T14:32:37Z</time></trkpt><trkpt lat="35.16959305816251" lon="-6.122004900687344"><ele>48.0</ele><time>2026-04-28T14:32:38Z</time></trkpt><trkpt lat="35.16983824232231" lon="-6.121792034093101"><ele>47.5</ele><time>2026-04-28T14:32:39Z</time></trkpt><trkpt lat="35.17008193256665" lon="-6.121575913682696"><ele>47.0</ele><time>2026-04-28T14:32:40Z</time></trkpt><trkpt lat="35.1703236276126" lon="-6.121356723616868"><ele>47.0</ele><time>2026-04-28T14:32:41Z</time></trkpt><trkpt lat="35.170561419483676" lon="-6.1211325854379455"><ele>47.0</ele><time>2026-04-28T14:32:42Z</time></trkpt><trkpt lat="35.17079640222695" lon="-6.120903009948327"><ele>43.5</ele><time>2026-04-28T14:32:43Z</time></trkpt><trkpt lat="35.17102942147615" lon="-6.120670941618154"><ele>40.0</ele><time>2026-04-28T14:32:44Z</time></trkpt><trkpt lat="35.171255750540084" lon="-6.120429534133039"><ele>40.0</ele><time>2026-04-28T14:32:45Z</time></trkpt><trkpt lat="35.171480857776416" lon="-6.120184753607752"><ele>40.0</ele><time>2026-04-28T14:32:46Z</time></trkpt><trkpt lat="35.17170206580413" lon="-6.119933048400579"><ele>39.0</ele><time>2026-04-28T14:32:47Z</time></trkpt><trkpt lat="35.171917618904544" lon="-6.119676120427282"><ele>38.0</ele><time>2026-04-28T14:32:48Z</time></trkpt><trkpt lat="35.17212844366157" lon="-6.119413742771637"><ele>38.0</ele><time>2026-04-28T14:32:49Z</time></trkpt><trkpt lat="35.17233692469963" lon="-6.119150035156672"><ele>38.0</ele><time>2026-04-28T14:32:50Z</time></trkpt><trkpt lat="35.1725452675598" lon="-6.11888518843944"><ele>39.0</ele><time>2026-04-28T14:32:51Z</time></trkpt><trkpt lat="35.17274811370231" lon="-6.118614825557563"><ele>40.0</ele><time>2026-04-28T14:32:52Z</time></trkpt><trkpt lat="35.172945462196" lon="-6.118336297273174"><ele>39.0</ele><time>2026-04-28T14:32:53Z</time></trkpt><trkpt lat="35.1731427731948" lon="-6.118057289871786"><ele>38.0</ele><time>2026-04-28T14:32:54Z</time></trkpt><trkpt lat="35.17333433647223" lon="-6.11777327376027"><ele>38.0</ele><time>2026-04-28T14:32:55Z</time></trkpt><trkpt lat="35.17352240513783" lon="-6.117484833501105"><ele>38.0</ele><time>2026-04-28T14:32:56Z</time></trkpt><trkpt lat="35.17370529652694" lon="-6.117191627952463"><ele>40.5</ele><time>2026-04-28T14:32:57Z</time></trkpt><trkpt lat="35.17388435519978" lon="-6.116895356964728"><ele>43.0</ele><time>2026-04-28T14:32:58Z</time></trkpt><trkpt lat="35.174059808030975" lon="-6.1165968812258065"><ele>38.0</ele><time>2026-04-28T14:32:59Z</time></trkpt><trkpt lat="35.174229742818895" lon="-6.1162904604430075"><ele>33.0</ele><time>2026-04-28T14:33:00Z</time></trkpt><trkpt lat="35.17439664082758" lon="-6.115983470764085"><ele>31.0</ele><time>2026-04-28T14:33:01Z</time></trkpt><trkpt lat="35.17455996674021" lon="-6.115673973764254"><ele>29.0</ele><time>2026-04-28T14:33:02Z</time></trkpt><trkpt lat="35.17472117282769" lon="-6.115363724287482"><ele>23.0</ele><time>2026-04-28T14:33:03Z</time></trkpt><trkpt lat="35.17487928868678" lon="-6.115051686083208"><ele>17.0</ele><time>2026-04-28T14:33:04Z</time></trkpt><trkpt lat="35.175029180004934" lon="-6.114734377831302"><ele>16.0</ele><time>2026-04-28T14:33:05Z</time></trkpt><trkpt lat="35.17517754306972" lon="-6.114415796285126"><ele>15.0</ele><time>2026-04-28T14:33:06Z</time></trkpt><trkpt lat="35.175315424837514" lon="-6.114092678781596"><ele>14.0</ele><time>2026-04-28T14:33:07Z</time></trkpt><trkpt lat="35.17545311461987" lon="-6.113767909723834"><ele>13.0</ele><time>2026-04-28T14:33:08Z</time></trkpt><trkpt lat="35.175588884339355" lon="-6.113441156828313"><ele>10.5</ele><time>2026-04-28T14:33:09Z</time></trkpt><trkpt lat="35.175719241589704" lon="-6.113111863159831"><ele>8.0</ele><time>2026-04-28T14:33:10Z</time></trkpt><trkpt lat="35.175847231538924" lon="-6.112779013082794"><ele>8.0</ele><time>2026-04-28T14:33:11Z</time></trkpt><trkpt lat="35.175968463297224" lon="-6.112444150023563"><ele>8.0</ele><time>2026-04-28T14:33:12Z</time></trkpt><trkpt lat="35.17607373513716" lon="-6.112103448612241"><ele>6.5</ele><time>2026-04-28T14:33:13Z</time></trkpt><trkpt lat="35.176175888578456" lon="-6.111762452343861"><ele>5.0</ele><time>2026-04-28T14:33:14Z</time></trkpt><trkpt lat="35.17627852459649" lon="-6.111419614034292"><ele>4.0</ele><time>2026-04-28T14:33:15Z</time></trkpt><trkpt lat="35.17637800467416" lon="-6.1110741867768725"><ele>3.0</ele><time>2026-04-28T14:33:16Z</time></trkpt><trkpt lat="35.17647345959559" lon="-6.110726320876747"><ele>5.5</ele><time>2026-04-28T14:33:17Z</time></trkpt><trkpt lat="35.17656705982617" lon="-6.110379054156769"><ele>8.0</ele><time>2026-04-28T14:33:18Z</time></trkpt><trkpt lat="35.17665099906904" lon="-6.110029743182357"><ele>6.5</ele><time>2026-04-28T14:33:19Z</time></trkpt><trkpt lat="35.17673243365459" lon="-6.109677373639943"><ele>5.0</ele><time>2026-04-28T14:33:20Z</time></trkpt><trkpt lat="35.17680619898808" lon="-6.1093243169289355"><ele>4.5</ele><time>2026-04-28T14:33:21Z</time></trkpt><trkpt lat="35.17687784324894" lon="-6.108969700739482"><ele>4.0</ele><time>2026-04-28T14:33:22Z</time></trkpt><trkpt lat="35.1769499943726" lon="-6.108617011267514"><ele>4.0</ele><time>2026-04-28T14:33:23Z</time></trkpt><trkpt lat="35.17702284046225" lon="-6.108263721201765"><ele>4.0</ele><time>2026-04-28T14:33:24Z</time></trkpt><trkpt lat="35.17709544506899" lon="-6.107910643517666"><ele>3.5</ele><time>2026-04-28T14:33:25Z</time></trkpt><trkpt lat="35.1771654028393" lon="-6.1075552657277585"><ele>3.0</ele><time>2026-04-28T14:33:26Z</time></trkpt><trkpt lat="35.17723753889465" lon="-6.107199774298464"><ele>3.0</ele><time>2026-04-28T14:33:27Z</time></trkpt><trkpt lat="35.17730448772822" lon="-6.106845020059173"><ele>3.0</ele><time>2026-04-28T14:33:28Z</time></trkpt><trkpt lat="35.17737346010459" lon="-6.10649094726961"><ele>3.5</ele><time>2026-04-28T14:33:29Z</time></trkpt><trkpt lat="35.17744169223153" lon="-6.10613676986116"><ele>4.0</ele><time>2026-04-28T14:33:30Z</time></trkpt><trkpt lat="35.17751279636149" lon="-6.105783512777305"><ele>3.5</ele><time>2026-04-28T14:33:31Z</time></trkpt><trkpt lat="35.17758360066161" lon="-6.105428121924822"><ele>3.0</ele><time>2026-04-28T14:33:32Z</time></trkpt><trkpt lat="35.177655845703285" lon="-6.105073977966994"><ele>3.5</ele><time>2026-04-28T14:33:33Z</time></trkpt><trkpt lat="35.17773050260418" lon="-6.1047195670565655"><ele>4.0</ele><time>2026-04-28T14:33:34Z</time></trkpt><trkpt lat="35.17780734146508" lon="-6.104366216252032"><ele>4.0</ele><time>2026-04-28T14:33:35Z</time></trkpt><trkpt lat="35.17788608917356" lon="-6.104014141009555"><ele>4.0</ele><time>2026-04-28T14:33:36Z</time></trkpt><trkpt lat="35.177969069369205" lon="-6.103663740960673"><ele>4.0</ele><time>2026-04-28T14:33:37Z</time></trkpt><trkpt lat="35.17805707061514" lon="-6.1033153349402065"><ele>4.0</ele><time>2026-04-28T14:33:38Z</time></trkpt><trkpt lat="35.178154516058896" lon="-6.102971182867808"><ele>4.0</ele><time>2026-04-28T14:33:39Z</time></trkpt><trkpt lat="35.17825618393846" lon="-6.102628024452013"><ele>4.0</ele><time>2026-04-28T14:33:40Z</time></trkpt><trkpt lat="35.178362364555824" lon="-6.10228702508024"><ele>4.0</ele><time>2026-04-28T14:33:41Z</time></trkpt><trkpt lat="35.17847284654653" lon="-6.101948269064581"><ele>4.0</ele><time>2026-04-28T14:33:42.001Z</time></trkpt><trkpt lat="35.178588436485434" lon="-6.101613168095717"><ele>4.0</ele><time>2026-04-28T14:33:43.001Z</time></trkpt><trkpt lat="35.178705472318235" lon="-6.101283888882728"><ele>4.0</ele><time>2026-04-28T14:33:44.001Z</time></trkpt><trkpt lat="35.17882901868407" lon="-6.100959838164849"><ele>4.5</ele><time>2026-04-28T14:33:45.001Z</time></trkpt><trkpt lat="35.1789582440363" lon="-6.100635703107757"><ele>5.0</ele><time>2026-04-28T14:33:46.001Z</time></trkpt><trkpt lat="35.17908958443279" lon="-6.100313419757046"><ele>5.5</ele><time>2026-04-28T14:33:47.001Z</time></trkpt><trkpt lat="35.17922598622802" lon="-6.099992134996916"><ele>6.0</ele><time>2026-04-28T14:33:48.001Z</time></trkpt><trkpt lat="35.179367329363515" lon="-6.0996736059266885"><ele>6.0</ele><time>2026-04-28T14:33:49.001Z</time></trkpt><trkpt lat="35.17950794546994" lon="-6.09935416233448"><ele>6.0</ele><time>2026-04-28T14:33:50.001Z</time></trkpt><trkpt lat="35.17965572620107" lon="-6.099037502254221"><ele>5.0</ele><time>2026-04-28T14:33:51.001Z</time></trkpt><trkpt lat="35.17980789039687" lon="-6.098724165369503"><ele>4.0</ele><time>2026-04-28T14:33:52.001Z</time></trkpt><trkpt lat="35.17996389082176" lon="-6.098415230558518"><ele>3.5</ele><time>2026-04-28T14:33:53.001Z</time></trkpt><trkpt lat="35.18012273286097" lon="-6.098106975712086"><ele>3.0</ele><time>2026-04-28T14:33:54.001Z</time></trkpt><trkpt lat="35.18028589661517" lon="-6.097800792822942"><ele>3.0</ele><time>2026-04-28T14:33:55.001Z</time></trkpt><trkpt lat="35.18045291720969" lon="-6.097495691304835"><ele>3.0</ele><time>2026-04-28T14:33:56.001Z</time></trkpt><trkpt lat="35.18062320130888" lon="-6.0971949273491495"><ele>3.5</ele><time>2026-04-28T14:33:57.001Z</time></trkpt><trkpt lat="35.180792866819885" lon="-6.096894796603542"><ele>4.0</ele><time>2026-04-28T14:33:58.001Z</time></trkpt><trkpt lat="35.180971775281854" lon="-6.096598528881719"><ele>2.5</ele><time>2026-04-28T14:33:59.001Z</time></trkpt><trkpt lat="35.18115225356906" lon="-6.096305577074732"><ele>1.0</ele><time>2026-04-28T14:34:00.001Z</time></trkpt><trkpt lat="35.181335030237605" lon="-6.096015750432292"><ele>2.0</ele><time>2026-04-28T14:34:01.001Z</time></trkpt><trkpt lat="35.181523783246384" lon="-6.095729792868915"><ele>3.0</ele><time>2026-04-28T14:34:02.001Z</time></trkpt><trkpt lat="35.181714259488984" lon="-6.09544484891427"><ele>3.0</ele><time>2026-04-28T14:34:03.001Z</time></trkpt><trkpt lat="35.181899296256255" lon="-6.095156813132886"><ele>3.0</ele><time>2026-04-28T14:34:04.001Z</time></trkpt><trkpt lat="35.182083030085245" lon="-6.09486845953606"><ele>2.5</ele><time>2026-04-28T14:34:05.001Z</time></trkpt><trkpt lat="35.18227002402153" lon="-6.0945779788662096"><ele>2.0</ele><time>2026-04-28T14:34:06.001Z</time></trkpt><trkpt lat="35.182459290203624" lon="-6.0942870103147975"><ele>4.0</ele><time>2026-04-28T14:34:07Z</time></trkpt><trkpt lat="35.18264953138082" lon="-6.093996699762691"><ele>6.0</ele><time>2026-04-28T14:34:08Z</time></trkpt><trkpt lat="35.182837197042765" lon="-6.093706326238103"><ele>6.0</ele><time>2026-04-28T14:34:09Z</time></trkpt><trkpt lat="35.183021611818845" lon="-6.093416100349829"><ele>6.0</ele><time>2026-04-28T14:34:10Z</time></trkpt><trkpt lat="35.183207264252786" lon="-6.093126434533266"><ele>5.5</ele><time>2026-04-28T14:34:11Z</time></trkpt><trkpt lat="35.183393820148524" lon="-6.092837869073307"><ele>5.0</ele><time>2026-04-28T14:34:12Z</time></trkpt><trkpt lat="35.183579414075425" lon="-6.092549074828123"><ele>5.0</ele><time>2026-04-28T14:34:13Z</time></trkpt><trkpt lat="35.18376665557739" lon="-6.092261464835109"><ele>5.0</ele><time>2026-04-28T14:34:14Z</time></trkpt><trkpt lat="35.18395435329335" lon="-6.091974295535901"><ele>5.0</ele><time>2026-04-28T14:34:15Z</time></trkpt><trkpt lat="35.18414252090667" lon="-6.091686984403597"><ele>5.0</ele><time>2026-04-28T14:34:16Z</time></trkpt><trkpt lat="35.18433122287317" lon="-6.091400092708218"><ele>5.0</ele><time>2026-04-28T14:34:17Z</time></trkpt><trkpt lat="35.18452040455308" lon="-6.091117881181293"><ele>5.0</ele><time>2026-04-28T14:34:18Z</time></trkpt><trkpt lat="35.18471009913057" lon="-6.090837085179103"><ele>4.0</ele><time>2026-04-28T14:34:19Z</time></trkpt><trkpt lat="35.18489970198272" lon="-6.0905542578339205"><ele>3.0</ele><time>2026-04-28T14:34:20Z</time></trkpt><trkpt lat="35.18508842242665" lon="-6.090269749685505"><ele>3.0</ele><time>2026-04-28T14:34:21Z</time></trkpt><trkpt lat="35.185275113384364" lon="-6.0899857694764385"><ele>3.0</ele><time>2026-04-28T14:34:22Z</time></trkpt><trkpt lat="35.18546214235536" lon="-6.089700174078755"><ele>3.0</ele><time>2026-04-28T14:34:23Z</time></trkpt><trkpt lat="35.185649716866955" lon="-6.089414310738263"><ele>3.0</ele><time>2026-04-28T14:34:24Z</time></trkpt><trkpt lat="35.185836876091436" lon="-6.089127545491278"><ele>4.0</ele><time>2026-04-28T14:34:25Z</time></trkpt><trkpt lat="35.18602404671458" lon="-6.08884149524549"><ele>5.0</ele><time>2026-04-28T14:34:26Z</time></trkpt><trkpt lat="35.1862100720297" lon="-6.088554657652264"><ele>5.0</ele><time>2026-04-28T14:34:27Z</time></trkpt><trkpt lat="35.18639529552581" lon="-6.088267802674811"><ele>5.0</ele><time>2026-04-28T14:34:28Z</time></trkpt><trkpt lat="35.186578152700726" lon="-6.0879818839325415"><ele>5.0</ele><time>2026-04-28T14:34:29Z</time></trkpt><trkpt lat="35.18676348821389" lon="-6.087695622507983"><ele>5.0</ele><time>2026-04-28T14:34:30Z</time></trkpt><trkpt lat="35.18694931442812" lon="-6.0874098541744495"><ele>5.0</ele><time>2026-04-28T14:34:31Z</time></trkpt><trkpt lat="35.18713407015085" lon="-6.087121961995156"><ele>5.0</ele><time>2026-04-28T14:34:32Z</time></trkpt><trkpt lat="35.187318570054394" lon="-6.086833769636322"><ele>4.5</ele><time>2026-04-28T14:34:33Z</time></trkpt><trkpt lat="35.18750188948149" lon="-6.08654446134251"><ele>4.0</ele><time>2026-04-28T14:34:34Z</time></trkpt><trkpt lat="35.187683042783924" lon="-6.086255327708602"><ele>4.0</ele><time>2026-04-28T14:34:35Z</time></trkpt><trkpt lat="35.18786320456034" lon="-6.085965730708307"><ele>4.0</ele><time>2026-04-28T14:34:36Z</time></trkpt><trkpt lat="35.18804597671788" lon="-6.085679451970542"><ele>4.5</ele><time>2026-04-28T14:34:37Z</time></trkpt><trkpt lat="35.18823260427975" lon="-6.085396189791327"><ele>5.0</ele><time>2026-04-28T14:34:38Z</time></trkpt><trkpt lat="35.18842134132662" lon="-6.0851156397265616"><ele>3.5</ele><time>2026-04-28T14:34:39Z</time></trkpt><trkpt lat="35.18860670858451" lon="-6.084830772557011"><ele>2.0</ele><time>2026-04-28T14:34:40Z</time></trkpt><trkpt lat="35.18879205593528" lon="-6.0845437081447"><ele>2.0</ele><time>2026-04-28T14:34:41Z</time></trkpt><trkpt lat="35.188977712469026" lon="-6.084258257750173"><ele>2.0</ele><time>2026-04-28T14:34:42Z</time></trkpt><trkpt lat="35.18916578270375" lon="-6.0839739397047"><ele>4.0</ele><time>2026-04-28T14:34:43Z</time></trkpt><trkpt lat="35.18934966663489" lon="-6.083684816686144"><ele>6.0</ele><time>2026-04-28T14:34:44Z</time></trkpt><trkpt lat="35.18953656493103" lon="-6.083398549120902"><ele>6.0</ele><time>2026-04-28T14:34:45Z</time></trkpt><trkpt lat="35.189718813096725" lon="-6.083109194020409"><ele>6.0</ele><time>2026-04-28T14:34:46Z</time></trkpt><trkpt lat="35.18990757693521" lon="-6.0828237351748315"><ele>7.5</ele><time>2026-04-28T14:34:47Z</time></trkpt><trkpt lat="35.19009197011771" lon="-6.082535693062576"><ele>9.0</ele><time>2026-04-28T14:34:48Z</time></trkpt><trkpt lat="35.19027624302308" lon="-6.082247360902268"><ele>9.0</ele><time>2026-04-28T14:34:49Z</time></trkpt><trkpt lat="35.19046112140837" lon="-6.081958648816902"><ele>9.0</ele><time>2026-04-28T14:34:50Z</time></trkpt><trkpt lat="35.190647051581614" lon="-6.08167010384762"><ele>10.0</ele><time>2026-04-28T14:34:51Z</time></trkpt><trkpt lat="35.190832811830795" lon="-6.081382895579678"><ele>11.0</ele><time>2026-04-28T14:34:52Z</time></trkpt><trkpt lat="35.19101976526646" lon="-6.0810953913929"><ele>11.0</ele><time>2026-04-28T14:34:53Z</time></trkpt><trkpt lat="35.19120947036561" lon="-6.080809005636696"><ele>11.0</ele><time>2026-04-28T14:34:54Z</time></trkpt><trkpt lat="35.19139745970998" lon="-6.0805193128405435"><ele>11.5</ele><time>2026-04-28T14:34:55Z</time></trkpt><trkpt lat="35.19158682003806" lon="-6.0802319694197795"><ele>12.0</ele><time>2026-04-28T14:34:56Z</time></trkpt><trkpt lat="35.191772740785595" lon="-6.079942137505255"><ele>13.0</ele><time>2026-04-28T14:34:57Z</time></trkpt><trkpt lat="35.19195983339674" lon="-6.079655341910618"><ele>14.0</ele><time>2026-04-28T14:34:58Z</time></trkpt><trkpt lat="35.19214506133321" lon="-6.0793656127794575"><ele>14.5</ele><time>2026-04-28T14:34:59Z</time></trkpt><trkpt lat="35.192332436645984" lon="-6.079078004547269"><ele>15.0</ele><time>2026-04-28T14:35:00Z</time></trkpt><trkpt lat="35.192519842647165" lon="-6.078790641632039"><ele>15.0</ele><time>2026-04-28T14:35:01Z</time></trkpt><trkpt lat="35.19270597603386" lon="-6.078503696557626"><ele>15.0</ele><time>2026-04-28T14:35:02Z</time></trkpt><trkpt lat="35.19289307660452" lon="-6.078215894918836"><ele>14.0</ele><time>2026-04-28T14:35:03Z</time></trkpt><trkpt lat="35.193079455978335" lon="-6.077926964271508"><ele>13.0</ele><time>2026-04-28T14:35:04Z</time></trkpt><trkpt lat="35.19326752290442" lon="-6.077640522396422"><ele>13.5</ele><time>2026-04-28T14:35:05Z</time></trkpt><trkpt lat="35.19345173092585" lon="-6.077353000212374"><ele>14.0</ele><time>2026-04-28T14:35:06Z</time></trkpt><trkpt lat="35.193639356193" lon="-6.077067894527167"><ele>14.0</ele><time>2026-04-28T14:35:07Z</time></trkpt><trkpt lat="35.193822214236505" lon="-6.0767811129627445"><ele>14.0</ele><time>2026-04-28T14:35:08Z</time></trkpt><trkpt lat="35.19400686016829" lon="-6.076494691011557"><ele>14.5</ele><time>2026-04-28T14:35:09Z</time></trkpt><trkpt lat="35.194192854217555" lon="-6.076217965571118"><ele>15.0</ele><time>2026-04-28T14:35:10Z</time></trkpt><trkpt lat="35.194372280382176" lon="-6.0759542037192915"><ele>15.5</ele><time>2026-04-28T14:35:11Z</time></trkpt><trkpt lat="35.19453940714751" lon="-6.075699442933188"><ele>16.0</ele><time>2026-04-28T14:35:12Z</time></trkpt><trkpt lat="35.19469829184188" lon="-6.075455301957469"><ele>15.5</ele><time>2026-04-28T14:35:13Z</time></trkpt><trkpt lat="35.194851373997025" lon="-6.075219865075565"><ele>15.0</ele><time>2026-04-28T14:35:14Z</time></trkpt><trkpt lat="35.195005163598374" lon="-6.074990445080883"><ele>16.0</ele><time>2026-04-28T14:35:15Z</time></trkpt><trkpt lat="35.19515460512018" lon="-6.074768129848083"><ele>17.0</ele><time>2026-04-28T14:35:16Z</time></trkpt><trkpt lat="35.1953016094155" lon="-6.074551685643456"><ele>17.0</ele><time>2026-04-28T14:35:17Z</time></trkpt><trkpt lat="35.195448301167346" lon="-6.074338211388891"><ele>17.0</ele><time>2026-04-28T14:35:18Z</time></trkpt><trkpt lat="35.19560393882497" lon="-6.074125297405234"><ele>20.0</ele><time>2026-04-28T14:35:19Z</time></trkpt><trkpt lat="35.195768310697254" lon="-6.0739041371279825"><ele>23.0</ele><time>2026-04-28T14:35:20Z</time></trkpt><trkpt lat="35.19594396490972" lon="-6.073674120446505"><ele>23.0</ele><time>2026-04-28T14:35:21Z</time></trkpt><trkpt lat="35.196132574437804" lon="-6.073436007489592"><ele>23.0</ele><time>2026-04-28T14:35:22Z</time></trkpt><trkpt lat="35.196335630140176" lon="-6.073193817247914"><ele>24.0</ele><time>2026-04-28T14:35:23Z</time></trkpt><trkpt lat="35.196553976193314" lon="-6.072949706991388"><ele>25.0</ele><time>2026-04-28T14:35:24Z</time></trkpt><trkpt lat="35.19678351204314" lon="-6.072700188566687"><ele>25.0</ele><time>2026-04-28T14:35:25Z</time></trkpt><trkpt lat="35.197023611898295" lon="-6.072460162855755"><ele>25.0</ele><time>2026-04-28T14:35:26Z</time></trkpt><trkpt lat="35.197273429385774" lon="-6.072225998210372"><ele>26.5</ele><time>2026-04-28T14:35:27Z</time></trkpt><trkpt lat="35.19753038316507" lon="-6.071997128549732"><ele>28.0</ele><time>2026-04-28T14:35:28Z</time></trkpt><trkpt lat="35.19779184295655" lon="-6.071775480350904"><ele>31.5</ele><time>2026-04-28T14:35:29Z</time></trkpt><trkpt lat="35.19806005596844" lon="-6.07156576479971"><ele>35.0</ele><time>2026-04-28T14:35:30Z</time></trkpt><trkpt lat="35.19833508499577" lon="-6.0713688159195485"><ele>38.5</ele><time>2026-04-28T14:35:31Z</time></trkpt><trkpt lat="35.19861792778746" lon="-6.071180582416355"><ele>42.0</ele><time>2026-04-28T14:35:32Z</time></trkpt><trkpt lat="35.19890472150638" lon="-6.071004398433889"><ele>42.0</ele><time>2026-04-28T14:35:33Z</time></trkpt><trkpt lat="35.199194662425946" lon="-6.070838732386456"><ele>42.0</ele><time>2026-04-28T14:35:34Z</time></trkpt><trkpt lat="35.199488263031895" lon="-6.070682667871437"><ele>47.0</ele><time>2026-04-28T14:35:35Z</time></trkpt><trkpt lat="35.199779574906394" lon="-6.070526715906846"><ele>52.0</ele><time>2026-04-28T14:35:36Z</time></trkpt><trkpt lat="35.200070872278836" lon="-6.070375206322932"><ele>52.0</ele><time>2026-04-28T14:35:37Z</time></trkpt><trkpt lat="35.2003674712933" lon="-6.070243170191137"><ele>52.0</ele><time>2026-04-28T14:35:38Z</time></trkpt><trkpt lat="35.2006705442072" lon="-6.070128943899223"><ele>49.5</ele><time>2026-04-28T14:35:39Z</time></trkpt><trkpt lat="35.20097630406438" lon="-6.070019968269149"><ele>47.0</ele><time>2026-04-28T14:35:40Z</time></trkpt><trkpt lat="35.20128426859226" lon="-6.069921300905027"><ele>54.5</ele><time>2026-04-28T14:35:41Z</time></trkpt><trkpt lat="35.2015952861254" lon="-6.069835089713026"><ele>62.0</ele><time>2026-04-28T14:35:42Z</time></trkpt><trkpt lat="35.20190705987118" lon="-6.069761986084762"><ele>62.0</ele><time>2026-04-28T14:35:43Z</time></trkpt><trkpt lat="35.20221866934803" lon="-6.069698953647099"><ele>62.0</ele><time>2026-04-28T14:35:44Z</time></trkpt><trkpt lat="35.20252747669798" lon="-6.069641308670359"><ele>61.5</ele><time>2026-04-28T14:35:45Z</time></trkpt><trkpt lat="35.20283328607537" lon="-6.069580837541542"><ele>61.0</ele><time>2026-04-28T14:35:46Z</time></trkpt><trkpt lat="35.20313557333284" lon="-6.069516695233738"><ele>62.5</ele><time>2026-04-28T14:35:47Z</time></trkpt><trkpt lat="35.20343766108613" lon="-6.069448383627421"><ele>64.0</ele><time>2026-04-28T14:35:48.001Z</time></trkpt><trkpt lat="35.20373640759811" lon="-6.069375303328889"><ele>66.5</ele><time>2026-04-28T14:35:49.001Z</time></trkpt><trkpt lat="35.20403375984877" lon="-6.069293229324239"><ele>69.0</ele><time>2026-04-28T14:35:50.001Z</time></trkpt><trkpt lat="35.20431993908292" lon="-6.069200630170566"><ele>74.0</ele><time>2026-04-28T14:35:51.001Z</time></trkpt><trkpt lat="35.20459238090066" lon="-6.069102341106276"><ele>79.0</ele><time>2026-04-28T14:35:52.001Z</time></trkpt><trkpt lat="35.20485391746587" lon="-6.0690026474962435"><ele>80.5</ele><time>2026-04-28T14:35:53.001Z</time></trkpt><trkpt lat="35.205116272150086" lon="-6.06889688197997"><ele>82.0</ele><time>2026-04-28T14:35:54.001Z</time></trkpt><trkpt lat="35.205379836038155" lon="-6.068778517071968"><ele>82.0</ele><time>2026-04-28T14:35:55.001Z</time></trkpt><trkpt lat="35.20564278780244" lon="-6.068652074481232"><ele>82.0</ele><time>2026-04-28T14:35:56.001Z</time></trkpt><trkpt lat="35.20590298759085" lon="-6.068518835606901"><ele>82.0</ele><time>2026-04-28T14:35:57.001Z</time></trkpt><trkpt lat="35.20616178024357" lon="-6.068377839920979"><ele>82.0</ele><time>2026-04-28T14:35:58.001Z</time></trkpt><trkpt lat="35.20642002599516" lon="-6.068227048547594"><ele>86.0</ele><time>2026-04-28T14:35:59.001Z</time></trkpt><trkpt lat="35.206667045137614" lon="-6.068070173224028"><ele>90.0</ele><time>2026-04-28T14:36:00.001Z</time></trkpt><trkpt lat="35.20690629736301" lon="-6.067908015306288"><ele>90.0</ele><time>2026-04-28T14:36:01.001Z</time></trkpt><trkpt lat="35.20713920906077" lon="-6.067734532672063"><ele>90.0</ele><time>2026-04-28T14:36:02.001Z</time></trkpt><trkpt lat="35.20737338692999" lon="-6.067550159290039"><ele>91.5</ele><time>2026-04-28T14:36:03.001Z</time></trkpt><trkpt lat="35.207612974470244" lon="-6.067359309451004"><ele>93.0</ele><time>2026-04-28T14:36:04.001Z</time></trkpt><trkpt lat="35.20785005107422" lon="-6.067166024528157"><ele>93.0</ele><time>2026-04-28T14:36:05.001Z</time></trkpt><trkpt lat="35.20807986011376" lon="-6.0669670012566"><ele>93.0</ele><time>2026-04-28T14:36:06Z</time></trkpt><trkpt lat="35.208311250207075" lon="-6.066756251782912"><ele>92.5</ele><time>2026-04-28T14:36:07Z</time></trkpt><trkpt lat="35.20854709718719" lon="-6.066534381634677"><ele>92.0</ele><time>2026-04-28T14:36:08Z</time></trkpt><trkpt lat="35.2087829660279" lon="-6.066300697691715"><ele>92.0</ele><time>2026-04-28T14:36:09Z</time></trkpt><trkpt lat="35.209010244016355" lon="-6.066059029156435"><ele>92.0</ele><time>2026-04-28T14:36:10Z</time></trkpt><trkpt lat="35.20922392001406" lon="-6.065817773082836"><ele>94.0</ele><time>2026-04-28T14:36:11Z</time></trkpt><trkpt lat="35.20942444705801" lon="-6.065590274300441"><ele>96.0</ele><time>2026-04-28T14:36:12Z</time></trkpt><trkpt lat="35.209621644417595" lon="-6.065371526086755"><ele>96.0</ele><time>2026-04-28T14:36:13Z</time></trkpt><trkpt lat="35.20981599274882" lon="-6.065152821758485"><ele>96.0</ele><time>2026-04-28T14:36:14Z</time></trkpt><trkpt lat="35.21000885990501" lon="-6.06493104883415"><ele>95.5</ele><time>2026-04-28T14:36:15Z</time></trkpt><trkpt lat="35.210203947468266" lon="-6.064705886848942"><ele>95.0</ele><time>2026-04-28T14:36:16Z</time></trkpt><trkpt lat="35.21040430140928" lon="-6.064483003401921"><ele>95.0</ele><time>2026-04-28T14:36:17Z</time></trkpt><trkpt lat="35.21061049632633" lon="-6.0642660786803075"><ele>95.0</ele><time>2026-04-28T14:36:18Z</time></trkpt><trkpt lat="35.210820696761594" lon="-6.0640533116460595"><ele>95.5</ele><time>2026-04-28T14:36:19Z</time></trkpt><trkpt lat="35.21103746089012" lon="-6.063843132374903"><ele>96.0</ele><time>2026-04-28T14:36:20Z</time></trkpt><trkpt lat="35.21125957223409" lon="-6.0636407458286135"><ele>96.0</ele><time>2026-04-28T14:36:21Z</time></trkpt><trkpt lat="35.21148781229191" lon="-6.0634426135006"><ele>96.0</ele><time>2026-04-28T14:36:22Z</time></trkpt><trkpt lat="35.21172342981744" lon="-6.063248811099143"><ele>98.5</ele><time>2026-04-28T14:36:23Z</time></trkpt><trkpt lat="35.211966503459685" lon="-6.063061769469148"><ele>101.0</ele><time>2026-04-28T14:36:24Z</time></trkpt><trkpt lat="35.212216831450895" lon="-6.062881544015994"><ele>100.5</ele><time>2026-04-28T14:36:25Z</time></trkpt><trkpt lat="35.21247328730043" lon="-6.062711510128518"><ele>100.0</ele><time>2026-04-28T14:36:26Z</time></trkpt><trkpt lat="35.212732818060054" lon="-6.062542223167407"><ele>102.0</ele><time>2026-04-28T14:36:27Z</time></trkpt><trkpt lat="35.212996104088546" lon="-6.062380530462518"><ele>104.0</ele><time>2026-04-28T14:36:28Z</time></trkpt><trkpt lat="35.2132654354233" lon="-6.062231385397281"><ele>105.0</ele><time>2026-04-28T14:36:29Z</time></trkpt><trkpt lat="35.213540681418166" lon="-6.062090898092974"><ele>106.0</ele><time>2026-04-28T14:36:30Z</time></trkpt><trkpt lat="35.21382066815121" lon="-6.061958117795874"><ele>105.5</ele><time>2026-04-28T14:36:31Z</time></trkpt><trkpt lat="35.214103177464715" lon="-6.061831433009192"><ele>105.0</ele><time>2026-04-28T14:36:32Z</time></trkpt><trkpt lat="35.214386790400425" lon="-6.061709520699422"><ele>105.5</ele><time>2026-04-28T14:36:33Z</time></trkpt><trkpt lat="35.21467175943545" lon="-6.0615946430258765"><ele>106.0</ele><time>2026-04-28T14:36:34Z</time></trkpt><trkpt lat="35.214957152688" lon="-6.061485249017144"><ele>105.0</ele><time>2026-04-28T14:36:35Z</time></trkpt><trkpt lat="35.21524554412934" lon="-6.0613824405411725"><ele>104.0</ele><time>2026-04-28T14:36:36Z</time></trkpt><trkpt lat="35.21553659071068" lon="-6.06128998502755"><ele>105.0</ele><time>2026-04-28T14:36:37Z</time></trkpt><trkpt lat="35.21582836613656" lon="-6.0612077998753975"><ele>106.0</ele><time>2026-04-28T14:36:38Z</time></trkpt><trkpt lat="35.216124442067546" lon="-6.061134610397514"><ele>106.0</ele><time>2026-04-28T14:36:39Z</time></trkpt><trkpt lat="35.21641986620588" lon="-6.061074815466067"><ele>106.0</ele><time>2026-04-28T14:36:40Z</time></trkpt><trkpt lat="35.2167154070174" lon="-6.061022878822759"><ele>109.0</ele><time>2026-04-28T14:36:41Z</time></trkpt><trkpt lat="35.21700995826731" lon="-6.06098101904966"><ele>112.0</ele><time>2026-04-28T14:36:42Z</time></trkpt><trkpt lat="35.217303758764785" lon="-6.0609490319915365"><ele>113.0</ele><time>2026-04-28T14:36:43Z</time></trkpt><trkpt lat="35.217597420544074" lon="-6.060926406937608"><ele>114.0</ele><time>2026-04-28T14:36:44Z</time></trkpt><trkpt lat="35.21788937788751" lon="-6.060912073955188"><ele>114.0</ele><time>2026-04-28T14:36:45Z</time></trkpt><trkpt lat="35.218181029161094" lon="-6.0609060782212785"><ele>114.0</ele><time>2026-04-28T14:36:46Z</time></trkpt><trkpt lat="35.21847225608446" lon="-6.06090848976402"><ele>114.0</ele><time>2026-04-28T14:36:47Z</time></trkpt><trkpt lat="35.21876388661671" lon="-6.060921271696468"><ele>114.0</ele><time>2026-04-28T14:36:48Z</time></trkpt><trkpt lat="35.219054889855364" lon="-6.060944211564992"><ele>113.0</ele><time>2026-04-28T14:36:49Z</time></trkpt><trkpt lat="35.2193439287761" lon="-6.060975321217908"><ele>112.0</ele><time>2026-04-28T14:36:50Z</time></trkpt><trkpt lat="35.21963382088849" lon="-6.061012497020981"><ele>111.5</ele><time>2026-04-28T14:36:51Z</time></trkpt><trkpt lat="35.21992264779809" lon="-6.0610583451864715"><ele>111.0</ele><time>2026-04-28T14:36:52Z</time></trkpt><trkpt lat="35.220211845849974" lon="-6.061114227884781"><ele>111.0</ele><time>2026-04-28T14:36:53Z</time></trkpt><trkpt lat="35.22049984532865" lon="-6.061180771014226"><ele>111.0</ele><time>2026-04-28T14:36:54Z</time></trkpt><trkpt lat="35.2207851587066" lon="-6.061254412123683"><ele>111.5</ele><time>2026-04-28T14:36:55Z</time></trkpt><trkpt lat="35.221070344252354" lon="-6.061336394838335"><ele>112.0</ele><time>2026-04-28T14:36:56Z</time></trkpt><trkpt lat="35.22135462286766" lon="-6.061427636947778"><ele>111.5</ele><time>2026-04-28T14:36:57Z</time></trkpt><trkpt lat="35.22163988136251" lon="-6.061525434355224"><ele>111.0</ele><time>2026-04-28T14:36:58Z</time></trkpt><trkpt lat="35.221922666840506" lon="-6.061626264407093"><ele>111.0</ele><time>2026-04-28T14:36:59Z</time></trkpt><trkpt lat="35.22220612368767" lon="-6.061730200322542"><ele>111.0</ele><time>2026-04-28T14:37:00Z</time></trkpt><trkpt lat="35.22248846325189" lon="-6.061831830368578"><ele>112.5</ele><time>2026-04-28T14:37:01Z</time></trkpt><trkpt lat="35.22276877935898" lon="-6.061935328209894"><ele>114.0</ele><time>2026-04-28T14:37:02Z</time></trkpt><trkpt lat="35.22305205757017" lon="-6.062040867925957"><ele>110.5</ele><time>2026-04-28T14:37:03Z</time></trkpt><trkpt lat="35.22333355394621" lon="-6.062146915419668"><ele>107.0</ele><time>2026-04-28T14:37:04Z</time></trkpt><trkpt lat="35.22361502120477" lon="-6.062251675940344"><ele>107.0</ele><time>2026-04-28T14:37:05Z</time></trkpt><trkpt lat="35.22389729405049" lon="-6.062355943962519"><ele>107.0</ele><time>2026-04-28T14:37:06Z</time></trkpt><trkpt lat="35.224178813536376" lon="-6.062459788362018"><ele>111.0</ele><time>2026-04-28T14:37:07Z</time></trkpt><trkpt lat="35.224459214875154" lon="-6.062564891859417"><ele>115.0</ele><time>2026-04-28T14:37:08Z</time></trkpt><trkpt lat="35.22474031645918" lon="-6.06266976984527"><ele>116.5</ele><time>2026-04-28T14:37:09Z</time></trkpt><trkpt lat="35.225023457782704" lon="-6.062773625316544"><ele>118.0</ele><time>2026-04-28T14:37:10Z</time></trkpt><trkpt lat="35.22530612833403" lon="-6.062878940498661"><ele>118.0</ele><time>2026-04-28T14:37:11Z</time></trkpt><trkpt lat="35.22558974116222" lon="-6.06298515275087"><ele>118.0</ele><time>2026-04-28T14:37:12Z</time></trkpt><trkpt lat="35.22587234105594" lon="-6.063092421921587"><ele>119.5</ele><time>2026-04-28T14:37:13Z</time></trkpt><trkpt lat="35.22615389739751" lon="-6.063203196773071"><ele>121.0</ele><time>2026-04-28T14:37:14Z</time></trkpt><trkpt lat="35.22643577343985" lon="-6.063314544175505"><ele>121.5</ele><time>2026-04-28T14:37:15Z</time></trkpt><trkpt lat="35.22671575524468" lon="-6.063425267013073"><ele>122.0</ele><time>2026-04-28T14:37:16Z</time></trkpt><trkpt lat="35.22699497616475" lon="-6.0635411049540275"><ele>122.0</ele><time>2026-04-28T14:37:17Z</time></trkpt><trkpt lat="35.227273680437605" lon="-6.063664144580081"><ele>122.0</ele><time>2026-04-28T14:37:18Z</time></trkpt><trkpt lat="35.22754968411158" lon="-6.063787633808043"><ele>124.5</ele><time>2026-04-28T14:37:19Z</time></trkpt><trkpt lat="35.22782406912695" lon="-6.063918188398734"><ele>127.0</ele><time>2026-04-28T14:37:20Z</time></trkpt><trkpt lat="35.22809603953631" lon="-6.064053928960643"><ele>125.5</ele><time>2026-04-28T14:37:21Z</time></trkpt><trkpt lat="35.22836768925393" lon="-6.064196918667712"><ele>124.0</ele><time>2026-04-28T14:37:22Z</time></trkpt><trkpt lat="35.22863652328821" lon="-6.064346297889277"><ele>124.0</ele><time>2026-04-28T14:37:23Z</time></trkpt><trkpt lat="35.228904896506656" lon="-6.064495571873106"><ele>124.0</ele><time>2026-04-28T14:37:24Z</time></trkpt><trkpt lat="35.229169961537934" lon="-6.064652998759688"><ele>124.0</ele><time>2026-04-28T14:37:25Z</time></trkpt><trkpt lat="35.2294316377435" lon="-6.0648162763208395"><ele>124.0</ele><time>2026-04-28T14:37:26Z</time></trkpt><trkpt lat="35.229692773799535" lon="-6.06498384043039"><ele>126.0</ele><time>2026-04-28T14:37:27Z</time></trkpt><trkpt lat="35.22995145982971" lon="-6.065153508908793"><ele>128.0</ele><time>2026-04-28T14:37:28Z</time></trkpt><trkpt lat="35.230208039073474" lon="-6.065328912799809"><ele>128.0</ele><time>2026-04-28T14:37:29Z</time></trkpt><trkpt lat="35.23046168979085" lon="-6.0655074471162"><ele>128.0</ele><time>2026-04-28T14:37:30Z</time></trkpt><trkpt lat="35.23071236475545" lon="-6.065690444486146"><ele>128.5</ele><time>2026-04-28T14:37:31Z</time></trkpt><trkpt lat="35.23095869186599" lon="-6.065875397805791"><ele>129.0</ele><time>2026-04-28T14:37:32Z</time></trkpt><trkpt lat="35.2311997946675" lon="-6.066069840547122"><ele>129.0</ele><time>2026-04-28T14:37:33Z</time></trkpt><trkpt lat="35.23144160617818" lon="-6.066264349318636"><ele>129.0</ele><time>2026-04-28T14:37:34Z</time></trkpt><trkpt lat="35.23168190692759" lon="-6.066462920782868"><ele>130.5</ele><time>2026-04-28T14:37:35Z</time></trkpt><trkpt lat="35.23192520153881" lon="-6.06665928720706"><ele>132.0</ele><time>2026-04-28T14:37:36Z</time></trkpt><trkpt lat="35.232167756924454" lon="-6.0668612440775"><ele>132.0</ele><time>2026-04-28T14:37:37Z</time></trkpt><trkpt lat="35.23240938338281" lon="-6.067064616508335"><ele>132.0</ele><time>2026-04-28T14:37:38Z</time></trkpt><trkpt lat="35.2326526202349" lon="-6.067271119670129"><ele>132.0</ele><time>2026-04-28T14:37:39Z</time></trkpt><trkpt lat="35.23289695584557" lon="-6.067472784645443"><ele>132.0</ele><time>2026-04-28T14:37:40Z</time></trkpt><trkpt lat="35.23314597882753" lon="-6.067670206008763"><ele>132.0</ele><time>2026-04-28T14:37:41Z</time></trkpt><trkpt lat="35.23339741535175" lon="-6.067856810129515"><ele>132.0</ele><time>2026-04-28T14:37:42Z</time></trkpt><trkpt lat="35.2336502061676" lon="-6.068038129201561"><ele>132.0</ele><time>2026-04-28T14:37:43Z</time></trkpt><trkpt lat="35.233906545830195" lon="-6.068215004686971"><ele>132.0</ele><time>2026-04-28T14:37:44Z</time></trkpt><trkpt lat="35.23416692339361" lon="-6.068384552329972"><ele>133.0</ele><time>2026-04-28T14:37:45Z</time></trkpt><trkpt lat="35.23442886909272" lon="-6.068547041752361"><ele>134.0</ele><time>2026-04-28T14:37:46Z</time></trkpt><trkpt lat="35.23469196199314" lon="-6.068706651128248"><ele>135.5</ele><time>2026-04-28T14:37:47Z</time></trkpt><trkpt lat="35.234958379215755" lon="-6.06886168202374"><ele>137.0</ele><time>2026-04-28T14:37:48Z</time></trkpt><trkpt lat="35.23522800811188" lon="-6.06901076008547"><ele>136.5</ele><time>2026-04-28T14:37:49Z</time></trkpt><trkpt lat="35.23550098529666" lon="-6.069151336933376"><ele>136.0</ele><time>2026-04-28T14:37:50Z</time></trkpt><trkpt lat="35.23577769804256" lon="-6.069282635906301"><ele>137.5</ele><time>2026-04-28T14:37:51Z</time></trkpt><trkpt lat="35.23605700485302" lon="-6.069404751653822"><ele>139.0</ele><time>2026-04-28T14:37:52Z</time></trkpt><trkpt lat="35.236338094890954" lon="-6.0695196056248495"><ele>141.0</ele><time>2026-04-28T14:37:53Z</time></trkpt><trkpt lat="35.23662213200415" lon="-6.0696318659414565"><ele>143.0</ele><time>2026-04-28T14:37:54.001Z</time></trkpt><trkpt lat="35.23690748898786" lon="-6.06974049729863"><ele>143.0</ele><time>2026-04-28T14:37:55.001Z</time></trkpt><trkpt lat="35.23719392318457" lon="-6.069843732035716"><ele>143.0</ele><time>2026-04-28T14:37:56.001Z</time></trkpt><trkpt lat="35.23748225366362" lon="-6.06993775519108"><ele>141.5</ele><time>2026-04-28T14:37:57.001Z</time></trkpt><trkpt lat="35.237772271352604" lon="-6.070021647137051"><ele>140.0</ele><time>2026-04-28T14:37:58.001Z</time></trkpt><trkpt lat="35.2380627486216" lon="-6.070093609315531"><ele>141.0</ele><time>2026-04-28T14:37:59.001Z</time></trkpt><trkpt lat="35.23835191489296" lon="-6.0701564476248775"><ele>142.0</ele><time>2026-04-28T14:38:00.001Z</time></trkpt><trkpt lat="35.23864140782629" lon="-6.0702068748744695"><ele>142.0</ele><time>2026-04-28T14:38:01.001Z</time></trkpt><trkpt lat="35.23893145979271" lon="-6.07024776685932"><ele>142.0</ele><time>2026-04-28T14:38:02.001Z</time></trkpt><trkpt lat="35.23922427701366" lon="-6.070279278199291"><ele>142.0</ele><time>2026-04-28T14:38:03.001Z</time></trkpt><trkpt lat="35.23951620461396" lon="-6.070304003362967"><ele>142.0</ele><time>2026-04-28T14:38:04.001Z</time></trkpt><trkpt lat="35.23980720401808" lon="-6.070324408401465"><ele>142.0</ele><time>2026-04-28T14:38:05.001Z</time></trkpt><trkpt lat="35.240097594497506" lon="-6.070340491706103"><ele>142.0</ele><time>2026-04-28T14:38:06.001Z</time></trkpt><trkpt lat="35.24039115896804" lon="-6.0703513784198035"><ele>146.0</ele><time>2026-04-28T14:38:07.001Z</time></trkpt><trkpt lat="35.24068522453459" lon="-6.070357516738748"><ele>150.0</ele><time>2026-04-28T14:38:08.001Z</time></trkpt><trkpt lat="35.24098073644925" lon="-6.070357710394861"><ele>150.0</ele><time>2026-04-28T14:38:09.001Z</time></trkpt><trkpt lat="35.24127621979286" lon="-6.070356083018298"><ele>150.0</ele><time>2026-04-28T14:38:10.001Z</time></trkpt><trkpt lat="35.24157509147644" lon="-6.07035237869527"><ele>152.0</ele><time>2026-04-28T14:38:11.001Z</time></trkpt><trkpt lat="35.24187262031341" lon="-6.07035012685805"><ele>154.0</ele><time>2026-04-28T14:38:12.001Z</time></trkpt><trkpt lat="35.242166676585896" lon="-6.070351697440586"><ele>158.0</ele><time>2026-04-28T14:38:13.001Z</time></trkpt><trkpt lat="35.242462095356274" lon="-6.070356480565116"><ele>162.0</ele><time>2026-04-28T14:38:14.001Z</time></trkpt><trkpt lat="35.242759731127556" lon="-6.070361805388189"><ele>162.0</ele><time>2026-04-28T14:38:15.001Z</time></trkpt><trkpt lat="35.24305689392189" lon="-6.070372536795556"><ele>162.0</ele><time>2026-04-28T14:38:16.001Z</time></trkpt><trkpt lat="35.24335343668027" lon="-6.070390411368562"><ele>164.5</ele><time>2026-04-28T14:38:17.001Z</time></trkpt><trkpt lat="35.243648098597745" lon="-6.070414976804238"><ele>167.0</ele><time>2026-04-28T14:38:18Z</time></trkpt><trkpt lat="35.24394179449843" lon="-6.0704479952433275"><ele>167.5</ele><time>2026-04-28T14:38:19Z</time></trkpt><trkpt lat="35.244232672273" lon="-6.070489694179925"><ele>168.0</ele><time>2026-04-28T14:38:20Z</time></trkpt><trkpt lat="35.24452446151358" lon="-6.070531000174508"><ele>169.5</ele><time>2026-04-28T14:38:21Z</time></trkpt><trkpt lat="35.244814110175064" lon="-6.070576286915378"><ele>171.0</ele><time>2026-04-28T14:38:22Z</time></trkpt><trkpt lat="35.245104987153574" lon="-6.070623985736274"><ele>171.0</ele><time>2026-04-28T14:38:23Z</time></trkpt><trkpt lat="35.24539766592856" lon="-6.070676217341321"><ele>171.0</ele><time>2026-04-28T14:38:24Z</time></trkpt><trkpt lat="35.24568668680411" lon="-6.070738474122214"><ele>171.0</ele><time>2026-04-28T14:38:25Z</time></trkpt><trkpt lat="35.245974317842084" lon="-6.070806962483561"><ele>171.0</ele><time>2026-04-28T14:38:26Z</time></trkpt><trkpt lat="35.24626042567728" lon="-6.070882864218653"><ele>172.0</ele><time>2026-04-28T14:38:27Z</time></trkpt><trkpt lat="35.24654548424806" lon="-6.0709655730884355"><ele>173.0</ele><time>2026-04-28T14:38:28Z</time></trkpt><trkpt lat="35.24683029353755" lon="-6.07105446302255"><ele>173.0</ele><time>2026-04-28T14:38:29Z</time></trkpt><trkpt lat="35.24711398887432" lon="-6.071148544382657"><ele>173.0</ele><time>2026-04-28T14:38:30Z</time></trkpt><trkpt lat="35.24739749246474" lon="-6.071246804770351"><ele>176.0</ele><time>2026-04-28T14:38:31Z</time></trkpt><trkpt lat="35.24768432782666" lon="-6.071345597704308"><ele>179.0</ele><time>2026-04-28T14:38:32Z</time></trkpt><trkpt lat="35.247970542490854" lon="-6.071444500450414"><ele>179.0</ele><time>2026-04-28T14:38:33Z</time></trkpt><trkpt lat="35.248255311121966" lon="-6.071541253202939"><ele>179.0</ele><time>2026-04-28T14:38:34Z</time></trkpt><trkpt lat="35.248542448559" lon="-6.071635794810775"><ele>179.0</ele><time>2026-04-28T14:38:35Z</time></trkpt><trkpt lat="35.2488274263719" lon="-6.071731321705619"><ele>179.0</ele><time>2026-04-28T14:38:36Z</time></trkpt><trkpt lat="35.24911239956315" lon="-6.071827249899808"><ele>178.0</ele><time>2026-04-28T14:38:37Z</time></trkpt><trkpt lat="35.249397665576225" lon="-6.071923235510339"><ele>177.0</ele><time>2026-04-28T14:38:38Z</time></trkpt><trkpt lat="35.249683500117875" lon="-6.072020033140361"><ele>177.5</ele><time>2026-04-28T14:38:39Z</time></trkpt><trkpt lat="35.249969231627716" lon="-6.072116108898785"><ele>178.0</ele><time>2026-04-28T14:38:40Z</time></trkpt><trkpt lat="35.250256566608414" lon="-6.072212681357678"><ele>178.0</ele><time>2026-04-28T14:38:41Z</time></trkpt><trkpt lat="35.25054450667524" lon="-6.0723089727180195"><ele>178.0</ele><time>2026-04-28T14:38:42Z</time></trkpt><trkpt lat="35.25083080602918" lon="-6.072405274178597"><ele>177.0</ele><time>2026-04-28T14:38:43Z</time></trkpt><trkpt lat="35.25111769595207" lon="-6.072499431307568"><ele>176.0</ele><time>2026-04-28T14:38:44Z</time></trkpt><trkpt lat="35.25140392988149" lon="-6.072593547289021"><ele>176.5</ele><time>2026-04-28T14:38:45Z</time></trkpt><trkpt lat="35.25168959856662" lon="-6.072686848039561"><ele>177.0</ele><time>2026-04-28T14:38:46Z</time></trkpt><trkpt lat="35.25197635231549" lon="-6.072777873602041"><ele>177.0</ele><time>2026-04-28T14:38:47Z</time></trkpt><trkpt lat="35.25226095330872" lon="-6.07286302594317"><ele>177.0</ele><time>2026-04-28T14:38:48Z</time></trkpt><trkpt lat="35.252547495462935" lon="-6.072943330639606"><ele>176.0</ele><time>2026-04-28T14:38:49Z</time></trkpt><trkpt lat="35.25283386613377" lon="-6.073017417317108"><ele>175.0</ele><time>2026-04-28T14:38:50Z</time></trkpt><trkpt lat="35.2531226476748" lon="-6.073083643968166"><ele>173.5</ele><time>2026-04-28T14:38:51Z</time></trkpt><trkpt lat="35.253409476148086" lon="-6.073144847894108"><ele>172.0</ele><time>2026-04-28T14:38:52Z</time></trkpt><trkpt lat="35.25370061401681" lon="-6.07320041581564"><ele>170.5</ele><time>2026-04-28T14:38:53Z</time></trkpt><trkpt lat="35.25399146334059" lon="-6.073248894695599"><ele>169.0</ele><time>2026-04-28T14:38:54Z</time></trkpt><trkpt lat="35.25428180110101" lon="-6.0732918328026555"><ele>169.0</ele><time>2026-04-28T14:38:55Z</time></trkpt><trkpt lat="35.254573755569155" lon="-6.073327282126573"><ele>169.0</ele><time>2026-04-28T14:38:56Z</time></trkpt><trkpt lat="35.25486512820589" lon="-6.073355669633609"><ele>169.5</ele><time>2026-04-28T14:38:57Z</time></trkpt><trkpt lat="35.25515743175358" lon="-6.073379892503151"><ele>170.0</ele><time>2026-04-28T14:38:58Z</time></trkpt><trkpt lat="35.25544889312025" lon="-6.073398495652232"><ele>172.0</ele><time>2026-04-28T14:38:59Z</time></trkpt><trkpt lat="35.25574002596209" lon="-6.073411565027281"><ele>174.0</ele><time>2026-04-28T14:39:00Z</time></trkpt><trkpt lat="35.256032720175156" lon="-6.073417807326678"><ele>174.0</ele><time>2026-04-28T14:39:01Z</time></trkpt><trkpt lat="35.25632547011593" lon="-6.073417753029324"><ele>174.0</ele><time>2026-04-28T14:39:02Z</time></trkpt><trkpt lat="35.25661879062198" lon="-6.073410443674454"><ele>174.5</ele><time>2026-04-28T14:39:03Z</time></trkpt><trkpt lat="35.256913579803566" lon="-6.073393082600982"><ele>175.0</ele><time>2026-04-28T14:39:04Z</time></trkpt><trkpt lat="35.25721033894921" lon="-6.073369970782113"><ele>176.0</ele><time>2026-04-28T14:39:05Z</time></trkpt><trkpt lat="35.25750656870846" lon="-6.073342312834107"><ele>177.0</ele><time>2026-04-28T14:39:06Z</time></trkpt><trkpt lat="35.257800224205994" lon="-6.073306938972194"><ele>178.5</ele><time>2026-04-28T14:39:07Z</time></trkpt><trkpt lat="35.25809326425473" lon="-6.073265860472195"><ele>180.0</ele><time>2026-04-28T14:39:08Z</time></trkpt><trkpt lat="35.25838689824547" lon="-6.073219842319723"><ele>181.5</ele><time>2026-04-28T14:39:09Z</time></trkpt><trkpt lat="35.25868117992966" lon="-6.0731678793532256"><ele>183.0</ele><time>2026-04-28T14:39:10Z</time></trkpt><trkpt lat="35.25897545902243" lon="-6.073108261151884"><ele>186.0</ele><time>2026-04-28T14:39:11Z</time></trkpt><trkpt lat="35.259267521950655" lon="-6.073041714373863"><ele>189.0</ele><time>2026-04-28T14:39:12Z</time></trkpt><trkpt lat="35.259557800664176" lon="-6.072966372695442"><ele>188.5</ele><time>2026-04-28T14:39:13Z</time></trkpt><trkpt lat="35.259847247962604" lon="-6.072883803169096"><ele>188.0</ele><time>2026-04-28T14:39:14Z</time></trkpt><trkpt lat="35.260136371470495" lon="-6.072794897326694"><ele>188.0</ele><time>2026-04-28T14:39:15Z</time></trkpt><trkpt lat="35.26042367171413" lon="-6.072700073494681"><ele>188.0</ele><time>2026-04-28T14:39:16Z</time></trkpt><trkpt lat="35.260709820143916" lon="-6.072599112774003"><ele>186.0</ele><time>2026-04-28T14:39:17Z</time></trkpt><trkpt lat="35.26099539674322" lon="-6.072493504036286"><ele>184.0</ele><time>2026-04-28T14:39:18Z</time></trkpt><trkpt lat="35.26127553856212" lon="-6.072381887280453"><ele>182.0</ele><time>2026-04-28T14:39:19Z</time></trkpt><trkpt lat="35.261549327623456" lon="-6.072260917182393"><ele>180.0</ele><time>2026-04-28T14:39:20Z</time></trkpt><trkpt lat="35.261821303771875" lon="-6.072134057186199"><ele>180.0</ele><time>2026-04-28T14:39:21Z</time></trkpt><trkpt lat="35.26209124733605" lon="-6.071999911434156"><ele>180.0</ele><time>2026-04-28T14:39:22Z</time></trkpt><trkpt lat="35.26235705933721" lon="-6.07186364045883"><ele>180.5</ele><time>2026-04-28T14:39:23Z</time></trkpt><trkpt lat="35.26262255486855" lon="-6.071721994883763"><ele>181.0</ele><time>2026-04-28T14:39:24Z</time></trkpt><trkpt lat="35.26288860769804" lon="-6.071575932026214"><ele>181.5</ele><time>2026-04-28T14:39:25Z</time></trkpt><trkpt lat="35.26315547899622" lon="-6.07142817521827"><ele>182.0</ele><time>2026-04-28T14:39:26Z</time></trkpt><trkpt lat="35.263420828889295" lon="-6.071279242022568"><ele>182.0</ele><time>2026-04-28T14:39:27Z</time></trkpt><trkpt lat="35.26368798620135" lon="-6.071128356748112"><ele>182.0</ele><time>2026-04-28T14:39:28Z</time></trkpt><trkpt lat="35.26395681342887" lon="-6.070976797136743"><ele>183.0</ele><time>2026-04-28T14:39:29Z</time></trkpt><trkpt lat="35.264226006392946" lon="-6.070826246701647"><ele>184.0</ele><time>2026-04-28T14:39:30Z</time></trkpt><trkpt lat="35.264495300641926" lon="-6.0706745874965105"><ele>185.0</ele><time>2026-04-28T14:39:31Z</time></trkpt><trkpt lat="35.2647633463783" lon="-6.070523007075557"><ele>186.0</ele><time>2026-04-28T14:39:32Z</time></trkpt><trkpt lat="35.26503418773065" lon="-6.070373282718448"><ele>186.0</ele><time>2026-04-28T14:39:33Z</time></trkpt><trkpt lat="35.265305276555935" lon="-6.070223762855252"><ele>186.0</ele><time>2026-04-28T14:39:34Z</time></trkpt><trkpt lat="35.265577282651" lon="-6.070074734632654"><ele>185.5</ele><time>2026-04-28T14:39:35Z</time></trkpt><trkpt lat="35.26585101337415" lon="-6.069927886444057"><ele>185.0</ele><time>2026-04-28T14:39:36Z</time></trkpt><trkpt lat="35.26612362423746" lon="-6.069785958233288"><ele>185.0</ele><time>2026-04-28T14:39:37Z</time></trkpt><trkpt lat="35.26639795627573" lon="-6.069647016490288"><ele>185.0</ele><time>2026-04-28T14:39:38Z</time></trkpt><trkpt lat="35.26667392147545" lon="-6.069513431536843"><ele>185.5</ele><time>2026-04-28T14:39:39Z</time></trkpt><trkpt lat="35.26695186802504" lon="-6.069389112990381"><ele>186.0</ele><time>2026-04-28T14:39:40Z</time></trkpt><trkpt lat="35.267231163768336" lon="-6.069272611790133"><ele>186.0</ele><time>2026-04-28T14:39:41Z</time></trkpt><trkpt lat="35.26750966296357" lon="-6.069158375857168"><ele>186.0</ele><time>2026-04-28T14:39:42Z</time></trkpt><trkpt lat="35.26779118111181" lon="-6.069049466691111"><ele>186.5</ele><time>2026-04-28T14:39:43Z</time></trkpt><trkpt lat="35.26807356535061" lon="-6.068945371191293"><ele>187.0</ele><time>2026-04-28T14:39:44Z</time></trkpt><trkpt lat="35.26835694474249" lon="-6.068848268614422"><ele>187.5</ele><time>2026-04-28T14:39:45Z</time></trkpt><trkpt lat="35.268640914265525" lon="-6.068756331525976"><ele>188.0</ele><time>2026-04-28T14:39:46Z</time></trkpt><trkpt lat="35.268925683382875" lon="-6.06867058045856"><ele>188.5</ele><time>2026-04-28T14:39:47Z</time></trkpt><trkpt lat="35.26921278006906" lon="-6.06858994099105"><ele>189.0</ele><time>2026-04-28T14:39:48Z</time></trkpt><trkpt lat="35.26950158863504" lon="-6.068516855949687"><ele>189.0</ele><time>2026-04-28T14:39:49Z</time></trkpt><trkpt lat="35.269792422555206" lon="-6.068447281366958"><ele>189.0</ele><time>2026-04-28T14:39:50Z</time></trkpt><trkpt lat="35.27008041418973" lon="-6.068384548256914"><ele>189.0</ele><time>2026-04-28T14:39:51Z</time></trkpt><trkpt lat="35.270369683259226" lon="-6.068327431156132"><ele>189.0</ele><time>2026-04-28T14:39:52Z</time></trkpt><trkpt lat="35.270660540675905" lon="-6.068279856156668"><ele>190.0</ele><time>2026-04-28T14:39:53Z</time></trkpt><trkpt lat="35.27095424361969" lon="-6.068240424371091"><ele>191.0</ele><time>2026-04-28T14:39:54Z</time></trkpt><trkpt lat="35.27124904897464" lon="-6.068206893080936"><ele>191.5</ele><time>2026-04-28T14:39:55Z</time></trkpt><trkpt lat="35.27154420758212" lon="-6.068177992666242"><ele>192.0</ele><time>2026-04-28T14:39:56Z</time></trkpt><trkpt lat="35.271839817099696" lon="-6.068151338174448"><ele>192.0</ele><time>2026-04-28T14:39:57Z</time></trkpt><trkpt lat="35.272136880446766" lon="-6.068126428768026"><ele>192.0</ele><time>2026-04-28T14:39:58Z</time></trkpt><trkpt lat="35.2724352362411" lon="-6.0681040096370245"><ele>191.0</ele><time>2026-04-28T14:39:59.001Z</time></trkpt><trkpt lat="35.27273421481771" lon="-6.0680832528841435"><ele>190.0</ele><time>2026-04-28T14:40:00.001Z</time></trkpt><trkpt lat="35.27303367279635" lon="-6.068064681762911"><ele>189.5</ele><time>2026-04-28T14:40:01.001Z</time></trkpt><trkpt lat="35.27333347158459" lon="-6.06804655135797"><ele>189.0</ele><time>2026-04-28T14:40:02.001Z</time></trkpt><trkpt lat="35.27363117457631" lon="-6.068024423944731"><ele>189.0</ele><time>2026-04-28T14:40:03.001Z</time></trkpt><trkpt lat="35.27392946768644" lon="-6.067999395765749"><ele>189.0</ele><time>2026-04-28T14:40:04.001Z</time></trkpt><trkpt lat="35.27422680764126" lon="-6.067967375674062"><ele>188.0</ele><time>2026-04-28T14:40:05.001Z</time></trkpt><trkpt lat="35.274520077098764" lon="-6.0679250001282306"><ele>187.0</ele><time>2026-04-28T14:40:06.001Z</time></trkpt><trkpt lat="35.27481034406048" lon="-6.067872653672211"><ele>184.5</ele><time>2026-04-28T14:40:07.001Z</time></trkpt><trkpt lat="35.27509956165283" lon="-6.067812538788842"><ele>182.0</ele><time>2026-04-28T14:40:08.001Z</time></trkpt><trkpt lat="35.27538573770286" lon="-6.06774624166591"><ele>183.0</ele><time>2026-04-28T14:40:09.001Z</time></trkpt><trkpt lat="35.27566950298277" lon="-6.067663873354357"><ele>184.0</ele><time>2026-04-28T14:40:10.001Z</time></trkpt><trkpt lat="35.27595029099713" lon="-6.067572786319573"><ele>184.0</ele><time>2026-04-28T14:40:11.001Z</time></trkpt><trkpt lat="35.276228895376214" lon="-6.06746954400978"><ele>184.0</ele><time>2026-04-28T14:40:12.001Z</time></trkpt><trkpt lat="35.276501339978246" lon="-6.06735514727963"><ele>186.0</ele><time>2026-04-28T14:40:13.001Z</time></trkpt><trkpt lat="35.27677250743557" lon="-6.067228758538914"><ele>188.0</ele><time>2026-04-28T14:40:14.001Z</time></trkpt><trkpt lat="35.27704393450246" lon="-6.067097887680417"><ele>190.5</ele><time>2026-04-28T14:40:15.001Z</time></trkpt><trkpt lat="35.277312056076624" lon="-6.066957248473759"><ele>193.0</ele><time>2026-04-28T14:40:16.001Z</time></trkpt><trkpt lat="35.2775772367203" lon="-6.066805675629169"><ele>193.0</ele><time>2026-04-28T14:40:17.001Z</time></trkpt><trkpt lat="35.27783944099428" lon="-6.06664335322903"><ele>193.0</ele><time>2026-04-28T14:40:18.001Z</time></trkpt><trkpt lat="35.27809828090434" lon="-6.066471631076124"><ele>196.5</ele><time>2026-04-28T14:40:19.001Z</time></trkpt><trkpt lat="35.27835344696279" lon="-6.066291482342195"><ele>200.0</ele><time>2026-04-28T14:40:20.001Z</time></trkpt><trkpt lat="35.27860888188594" lon="-6.066103530673011"><ele>200.0</ele><time>2026-04-28T14:40:21.001Z</time></trkpt><trkpt lat="35.27886017772561" lon="-6.065905834133631"><ele>200.0</ele><time>2026-04-28T14:40:22.001Z</time></trkpt><trkpt lat="35.27910714778985" lon="-6.065700541627717"><ele>203.5</ele><time>2026-04-28T14:40:23Z</time></trkpt><trkpt lat="35.27934957013798" lon="-6.065486671111696"><ele>207.0</ele><time>2026-04-28T14:40:24Z</time></trkpt><trkpt lat="35.27958629314615" lon="-6.065261001527916"><ele>204.0</ele><time>2026-04-28T14:40:25Z</time></trkpt><trkpt lat="35.279816644740116" lon="-6.065028091577432"><ele>201.0</ele><time>2026-04-28T14:40:26Z</time></trkpt><trkpt lat="35.28003949973269" lon="-6.064787601974065"><ele>200.0</ele><time>2026-04-28T14:40:27Z</time></trkpt><trkpt lat="35.2802598915401" lon="-6.064543730202692"><ele>199.0</ele><time>2026-04-28T14:40:28Z</time></trkpt><trkpt lat="35.28047911030638" lon="-6.064297841990904"><ele>196.5</ele><time>2026-04-28T14:40:29Z</time></trkpt><trkpt lat="35.28069833904395" lon="-6.064054178197179"><ele>194.0</ele><time>2026-04-28T14:40:30Z</time></trkpt><trkpt lat="35.28091821004471" lon="-6.063809857664398"><ele>194.0</ele><time>2026-04-28T14:40:31Z</time></trkpt><trkpt lat="35.281138784098204" lon="-6.0635656633006185"><ele>194.0</ele><time>2026-04-28T14:40:32Z</time></trkpt><trkpt lat="35.281358396015264" lon="-6.063321178672547"><ele>194.0</ele><time>2026-04-28T14:40:33Z</time></trkpt><trkpt lat="35.281577828703604" lon="-6.063076911272329"><ele>194.0</ele><time>2026-04-28T14:40:34Z</time></trkpt><trkpt lat="35.281799467083985" lon="-6.062832443020103"><ele>194.0</ele><time>2026-04-28T14:40:35Z</time></trkpt><trkpt lat="35.2820210108785" lon="-6.062587054360837"><ele>194.0</ele><time>2026-04-28T14:40:36Z</time></trkpt><trkpt lat="35.28223900780485" lon="-6.062336816043653"><ele>197.0</ele><time>2026-04-28T14:40:37Z</time></trkpt><trkpt lat="35.282451253158484" lon="-6.062080162580462"><ele>200.0</ele><time>2026-04-28T14:40:38Z</time></trkpt><trkpt lat="35.282651767281656" lon="-6.061814882067383"><ele>202.5</ele><time>2026-04-28T14:40:39Z</time></trkpt><trkpt lat="35.282848886749015" lon="-6.061545553529385"><ele>205.0</ele><time>2026-04-28T14:40:40Z</time></trkpt><trkpt lat="35.283040095411494" lon="-6.061266609847369"><ele>205.5</ele><time>2026-04-28T14:40:41Z</time></trkpt><trkpt lat="35.28322419136319" lon="-6.0609823898316275"><ele>206.0</ele><time>2026-04-28T14:40:42Z</time></trkpt><trkpt lat="35.283399653743736" lon="-6.060692095743727"><ele>206.0</ele><time>2026-04-28T14:40:43Z</time></trkpt><trkpt lat="35.28356613015422" lon="-6.060396380432066"><ele>206.0</ele><time>2026-04-28T14:40:44Z</time></trkpt><trkpt lat="35.28372493933271" lon="-6.0600960250719345"><ele>204.5</ele><time>2026-04-28T14:40:45Z</time></trkpt><trkpt lat="35.283876206469834" lon="-6.059791810738288"><ele>203.0</ele><time>2026-04-28T14:40:46Z</time></trkpt><trkpt lat="35.28401688645395" lon="-6.059482406359024"><ele>203.0</ele><time>2026-04-28T14:40:47Z</time></trkpt><trkpt lat="35.28414860318233" lon="-6.059167637419316"><ele>203.0</ele><time>2026-04-28T14:40:48Z</time></trkpt><trkpt lat="35.284271556792376" lon="-6.0588478360705595"><ele>204.0</ele><time>2026-04-28T14:40:49Z</time></trkpt><trkpt lat="35.28438837626559" lon="-6.058522666422833"><ele>205.0</ele><time>2026-04-28T14:40:50Z</time></trkpt><trkpt lat="35.28449469154606" lon="-6.058191387979962"><ele>205.0</ele><time>2026-04-28T14:40:51Z</time></trkpt><trkpt lat="35.284592736898254" lon="-6.057852791849467"><ele>205.0</ele><time>2026-04-28T14:40:52Z</time></trkpt><trkpt lat="35.28467918592346" lon="-6.057512264215132"><ele>203.5</ele><time>2026-04-28T14:40:53Z</time></trkpt><trkpt lat="35.28475861400248" lon="-6.057169706858929"><ele>202.0</ele><time>2026-04-28T14:40:54Z</time></trkpt><trkpt lat="35.28483118000557" lon="-6.056822852812498"><ele>201.0</ele><time>2026-04-28T14:40:55Z</time></trkpt><trkpt lat="35.28489415946884" lon="-6.056470275557032"><ele>200.0</ele><time>2026-04-28T14:40:56Z</time></trkpt><trkpt lat="35.28494779024427" lon="-6.056113090787281"><ele>199.5</ele><time>2026-04-28T14:40:57Z</time></trkpt><trkpt lat="35.28499161453971" lon="-6.055755385680233"><ele>199.0</ele><time>2026-04-28T14:40:58Z</time></trkpt><trkpt lat="35.28502447432959" lon="-6.055395614858921"><ele>199.0</ele><time>2026-04-28T14:40:59Z</time></trkpt><trkpt lat="35.285049251650385" lon="-6.0550373553314385"><ele>199.0</ele><time>2026-04-28T14:41:00Z</time></trkpt><trkpt lat="35.28506262006103" lon="-6.054678698158566"><ele>198.5</ele><time>2026-04-28T14:41:01Z</time></trkpt><trkpt lat="35.28506686962789" lon="-6.054318345119714"><ele>198.0</ele><time>2026-04-28T14:41:02Z</time></trkpt><trkpt lat="35.28506197063367" lon="-6.053958620469469"><ele>197.0</ele><time>2026-04-28T14:41:03Z</time></trkpt><trkpt lat="35.28504784554347" lon="-6.053599002033648"><ele>196.0</ele><time>2026-04-28T14:41:04Z</time></trkpt><trkpt lat="35.28502360657947" lon="-6.053239799750816"><ele>195.5</ele><time>2026-04-28T14:41:05Z</time></trkpt><trkpt lat="35.28498837468691" lon="-6.0528838810462435"><ele>195.0</ele><time>2026-04-28T14:41:06Z</time></trkpt><trkpt lat="35.28494397677077" lon="-6.052528018435504"><ele>195.5</ele><time>2026-04-28T14:41:07Z</time></trkpt><trkpt lat="35.284890170044264" lon="-6.052174608270145"><ele>196.0</ele><time>2026-04-28T14:41:08Z</time></trkpt><trkpt lat="35.284832148563204" lon="-6.051822042627141"><ele>196.5</ele><time>2026-04-28T14:41:09Z</time></trkpt><trkpt lat="35.284772438238555" lon="-6.051467855389203"><ele>197.0</ele><time>2026-04-28T14:41:10Z</time></trkpt><trkpt lat="35.28470949632709" lon="-6.05111468823566"><ele>194.5</ele><time>2026-04-28T14:41:11Z</time></trkpt><trkpt lat="35.284647374546324" lon="-6.050762593288609"><ele>192.0</ele><time>2026-04-28T14:41:12Z</time></trkpt><trkpt lat="35.284594368599244" lon="-6.0504079956968555"><ele>192.0</ele><time>2026-04-28T14:41:13Z</time></trkpt><trkpt lat="35.284557195489974" lon="-6.050052369425451"><ele>192.0</ele><time>2026-04-28T14:41:14Z</time></trkpt><trkpt lat="35.2845289929316" lon="-6.04969133771856"><ele>192.0</ele><time>2026-04-28T14:41:15Z</time></trkpt><trkpt lat="35.284509904169816" lon="-6.049326687492272"><ele>192.0</ele><time>2026-04-28T14:41:16Z</time></trkpt><trkpt lat="35.2844940381611" lon="-6.0489616736735625"><ele>192.0</ele><time>2026-04-28T14:41:17Z</time></trkpt><trkpt lat="35.28448666193686" lon="-6.048594985657298"><ele>192.0</ele><time>2026-04-28T14:41:18Z</time></trkpt><trkpt lat="35.28449108399811" lon="-6.0482283520543625"><ele>191.5</ele><time>2026-04-28T14:41:19Z</time></trkpt><trkpt lat="35.284507824801985" lon="-6.047863109445083"><ele>191.0</ele><time>2026-04-28T14:41:20Z</time></trkpt><trkpt lat="35.28453302339085" lon="-6.047497318693566"><ele>190.5</ele><time>2026-04-28T14:41:21Z</time></trkpt><trkpt lat="35.28456574432862" lon="-6.047132102051528"><ele>190.0</ele><time>2026-04-28T14:41:22Z</time></trkpt><trkpt lat="35.28460544874626" lon="-6.046769579701027"><ele>192.0</ele><time>2026-04-28T14:41:23Z</time></trkpt><trkpt lat="35.28465559964784" lon="-6.046408730583184"><ele>194.0</ele><time>2026-04-28T14:41:24Z</time></trkpt><trkpt lat="35.284717589998124" lon="-6.046050970234427"><ele>196.0</ele><time>2026-04-28T14:41:25Z</time></trkpt><trkpt lat="35.28479140687404" lon="-6.045695936346253"><ele>198.0</ele><time>2026-04-28T14:41:26Z</time></trkpt><trkpt lat="35.28487334299315" lon="-6.0453516590635825"><ele>198.0</ele><time>2026-04-28T14:41:27Z</time></trkpt><trkpt lat="35.2849579362922" lon="-6.045026834714497"><ele>198.0</ele><time>2026-04-28T14:41:28Z</time></trkpt><trkpt lat="35.285039437495556" lon="-6.044745812619798"><ele>198.0</ele><time>2026-04-28T14:41:29Z</time></trkpt><trkpt lat="35.2851278666236" lon="-6.044463364766008"><ele>198.0</ele><time>2026-04-28T14:41:30Z</time></trkpt><trkpt lat="35.28522921104859" lon="-6.0441657553868495"><ele>195.5</ele><time>2026-04-28T14:41:31Z</time></trkpt><trkpt lat="35.285341998878934" lon="-6.043853268215618"><ele>193.0</ele><time>2026-04-28T14:41:32Z</time></trkpt><trkpt lat="35.28546513920962" lon="-6.043533622292854"><ele>192.0</ele><time>2026-04-28T14:41:33Z</time></trkpt><trkpt lat="35.2855983574074" lon="-6.043215135277903"><ele>191.0</ele><time>2026-04-28T14:41:34Z</time></trkpt><trkpt lat="35.285743696767966" lon="-6.042900226319865"><ele>191.0</ele><time>2026-04-28T14:41:35Z</time></trkpt><trkpt lat="35.28589809710086" lon="-6.042591070936334"><ele>191.0</ele><time>2026-04-28T14:41:36Z</time></trkpt><trkpt lat="35.28606131490955" lon="-6.042285190349188"><ele>190.5</ele><time>2026-04-28T14:41:37Z</time></trkpt><trkpt lat="35.286230051742315" lon="-6.04198041691083"><ele>190.0</ele><time>2026-04-28T14:41:38Z</time></trkpt><trkpt lat="35.286404597177615" lon="-6.041681278806817"><ele>192.5</ele><time>2026-04-28T14:41:39Z</time></trkpt><trkpt lat="35.2865823496892" lon="-6.041383701941942"><ele>195.0</ele><time>2026-04-28T14:41:40Z</time></trkpt><trkpt lat="35.2867607343395" lon="-6.041085425284805"><ele>191.5</ele><time>2026-04-28T14:41:41Z</time></trkpt><trkpt lat="35.286938812842635" lon="-6.040785935400251"><ele>188.0</ele><time>2026-04-28T14:41:42Z</time></trkpt><trkpt lat="35.287117223360184" lon="-6.040486527252567"><ele>188.5</ele><time>2026-04-28T14:41:43Z</time></trkpt><trkpt lat="35.287295430230515" lon="-6.040186518954623"><ele>189.0</ele><time>2026-04-28T14:41:44Z</time></trkpt><trkpt lat="35.28747499519431" lon="-6.0398883275309005"><ele>189.0</ele><time>2026-04-28T14:41:45Z</time></trkpt><trkpt lat="35.287654531862685" lon="-6.039591217659624"><ele>189.0</ele><time>2026-04-28T14:41:46Z</time></trkpt><trkpt lat="35.28783186985819" lon="-6.039293742862557"><ele>191.5</ele><time>2026-04-28T14:41:47Z</time></trkpt><trkpt lat="35.288007992372236" lon="-6.038995689896397"><ele>194.0</ele><time>2026-04-28T14:41:48Z</time></trkpt><trkpt lat="35.28818312158528" lon="-6.038696767539219"><ele>195.5</ele><time>2026-04-28T14:41:49Z</time></trkpt><trkpt lat="35.28835862145159" lon="-6.038398210786524"><ele>197.0</ele><time>2026-04-28T14:41:50Z</time></trkpt><trkpt lat="35.288534070573334" lon="-6.038101109004986"><ele>193.5</ele><time>2026-04-28T14:41:51Z</time></trkpt><trkpt lat="35.28871008345817" lon="-6.037804843715641"><ele>190.0</ele><time>2026-04-28T14:41:52Z</time></trkpt><trkpt lat="35.28888596206094" lon="-6.037509514878742"><ele>191.0</ele><time>2026-04-28T14:41:53Z</time></trkpt><trkpt lat="35.28906059652522" lon="-6.037215849587191"><ele>192.0</ele><time>2026-04-28T14:41:54Z</time></trkpt><trkpt lat="35.28923260301478" lon="-6.036924831932047"><ele>192.0</ele><time>2026-04-28T14:41:55Z</time></trkpt><trkpt lat="35.2894028081529" lon="-6.036638179410348"><ele>192.0</ele><time>2026-04-28T14:41:56Z</time></trkpt><trkpt lat="35.28956941618144" lon="-6.036353545404887"><ele>190.0</ele><time>2026-04-28T14:41:57Z</time></trkpt><trkpt lat="35.28973232220452" lon="-6.036074112409788"><ele>188.0</ele><time>2026-04-28T14:41:58Z</time></trkpt><trkpt lat="35.2898905547746" lon="-6.035804944269132"><ele>184.5</ele><time>2026-04-28T14:41:59Z</time></trkpt><trkpt lat="35.29004713546841" lon="-6.035538912363762"><ele>181.0</ele><time>2026-04-28T14:42:00Z</time></trkpt><trkpt lat="35.290204160003576" lon="-6.035276174913346"><ele>181.0</ele><time>2026-04-28T14:42:00.999Z</time></trkpt><trkpt lat="35.29036398647094" lon="-6.0350174297646335"><ele>181.0</ele><time>2026-04-28T14:42:01.999Z</time></trkpt><trkpt lat="35.29052616270899" lon="-6.034767277397374"><ele>181.5</ele><time>2026-04-28T14:42:02.999Z</time></trkpt><trkpt lat="35.29068968529908" lon="-6.034522264091369"><ele>182.0</ele><time>2026-04-28T14:42:03.999Z</time></trkpt><trkpt lat="35.29085473584251" lon="-6.034281508532462"><ele>177.5</ele><time>2026-04-28T14:42:05.001Z</time></trkpt><trkpt lat="35.29102076272284" lon="-6.034048548449985"><ele>173.0</ele><time>2026-04-28T14:42:06.001Z</time></trkpt><trkpt lat="35.29118677224817" lon="-6.033821450055573"><ele>173.0</ele><time>2026-04-28T14:42:07.001Z</time></trkpt><trkpt lat="35.29135140705532" lon="-6.03359852895878"><ele>173.0</ele><time>2026-04-28T14:42:08.001Z</time></trkpt><trkpt lat="35.29151485345413" lon="-6.033382679691967"><ele>177.0</ele><time>2026-04-28T14:42:09.001Z</time></trkpt><trkpt lat="35.29167668247617" lon="-6.0331773678237415"><ele>181.0</ele><time>2026-04-28T14:42:10.001Z</time></trkpt><trkpt lat="35.29183488377204" lon="-6.032983315889167"><ele>181.0</ele><time>2026-04-28T14:42:11.001Z</time></trkpt><trkpt lat="35.291989486989465" lon="-6.032795979620496"><ele>181.0</ele><time>2026-04-28T14:42:12.001Z</time></trkpt><trkpt lat="35.29214107725088" lon="-6.032619233309015"><ele>181.0</ele><time>2026-04-28T14:42:13.001Z</time></trkpt><trkpt lat="35.29229263826369" lon="-6.032445775448693"><ele>183.66666666666669</ele><time>2026-04-28T14:42:14.001Z</time></trkpt><trkpt lat="35.29244725113995" lon="-6.0322763313548275"><ele>186.33333333333334</ele><time>2026-04-28T14:42:15.001Z</time></trkpt><trkpt lat="35.29260447722581" lon="-6.032107650541799"><ele>189.0</ele><time>2026-04-28T14:42:16.001Z</time></trkpt><trkpt lat="35.29276413134579" lon="-6.0319418817820205"><ele>189.0</ele><time>2026-04-28T14:42:17.001Z</time></trkpt><trkpt lat="35.29292810536748" lon="-6.031777559181217"><ele>189.0</ele><time>2026-04-28T14:42:18.001Z</time></trkpt><trkpt lat="35.293093453230654" lon="-6.031614964657869"><ele>189.0</ele><time>2026-04-28T14:42:19.001Z</time></trkpt><trkpt lat="35.293261803261416" lon="-6.031452410774479"><ele>191.33333333333331</ele><time>2026-04-28T14:42:20.001Z</time></trkpt><trkpt lat="35.2934322687451" lon="-6.031290049427989"><ele>193.66666666666666</ele><time>2026-04-28T14:42:21.001Z</time></trkpt><trkpt lat="35.29360331461384" lon="-6.03113192830177"><ele>196.0</ele><time>2026-04-28T14:42:22.001Z</time></trkpt><trkpt lat="35.2937751032132" lon="-6.0309776425330215"><ele>196.0</ele><time>2026-04-28T14:42:23.001Z</time></trkpt><trkpt lat="35.29394898449668" lon="-6.030826321433264"><ele>196.0</ele><time>2026-04-28T14:42:24Z</time></trkpt><trkpt lat="35.29412466555223" lon="-6.030678092275348"><ele>196.0</ele><time>2026-04-28T14:42:25Z</time></trkpt><trkpt lat="35.29430248153786" lon="-6.030530286110514"><ele>196.0</ele><time>2026-04-28T14:42:26Z</time></trkpt><trkpt lat="35.29448283978823" lon="-6.030384779208817"><ele>196.0</ele><time>2026-04-28T14:42:27Z</time></trkpt><trkpt lat="35.294665911448064" lon="-6.03024194031689"><ele>196.0</ele><time>2026-04-28T14:42:28Z</time></trkpt><trkpt lat="35.29485077352818" lon="-6.030101009840501"><ele>192.66666666666666</ele><time>2026-04-28T14:42:29Z</time></trkpt><trkpt lat="35.29503794268132" lon="-6.029963816991153"><ele>189.33333333333331</ele><time>2026-04-28T14:42:30Z</time></trkpt><trkpt lat="35.295227046338844" lon="-6.0298283036442735"><ele>186.0</ele><time>2026-04-28T14:42:31Z</time></trkpt><trkpt lat="35.2954183598276" lon="-6.029696459858769"><ele>184.66666666666666</ele><time>2026-04-28T14:42:32Z</time></trkpt><trkpt lat="35.2956110532593" lon="-6.029567127970588"><ele>183.33333333333331</ele><time>2026-04-28T14:42:33Z</time></trkpt><trkpt lat="35.29580692882908" lon="-6.029440811923961"><ele>182.0</ele><time>2026-04-28T14:42:34Z</time></trkpt><trkpt lat="35.29600710914563" lon="-6.029315390636044"><ele>182.0</ele><time>2026-04-28T14:42:35Z</time></trkpt><trkpt lat="35.29621274414305" lon="-6.0291918920535625"><ele>182.0</ele><time>2026-04-28T14:42:36Z</time></trkpt><trkpt lat="35.29642105878167" lon="-6.029071892876823"><ele>180.0</ele><time>2026-04-28T14:42:37Z</time></trkpt><trkpt lat="35.29663185428526" lon="-6.028953843123417"><ele>178.0</ele><time>2026-04-28T14:42:38Z</time></trkpt><trkpt lat="35.29684640136753" lon="-6.028836244480762"><ele>178.0</ele><time>2026-04-28T14:42:39Z</time></trkpt><trkpt lat="35.29706282161719" lon="-6.028722851893408"><ele>178.0</ele><time>2026-04-28T14:42:40Z</time></trkpt><trkpt lat="35.29728152140784" lon="-6.02861317392316"><ele>175.5</ele><time>2026-04-28T14:42:41Z</time></trkpt><trkpt lat="35.29750164447152" lon="-6.028507122965211"><ele>173.0</ele><time>2026-04-28T14:42:42Z</time></trkpt><trkpt lat="35.29772311625747" lon="-6.028404596852707"><ele>170.5</ele><time>2026-04-28T14:42:43Z</time></trkpt><trkpt lat="35.29794324068389" lon="-6.028305374320388"><ele>168.0</ele><time>2026-04-28T14:42:44Z</time></trkpt><trkpt lat="35.29816486468233" lon="-6.028206198078246"><ele>165.0</ele><time>2026-04-28T14:42:45Z</time></trkpt><trkpt lat="35.29838470618138" lon="-6.028109807404625"><ele>162.0</ele><time>2026-04-28T14:42:46Z</time></trkpt><trkpt lat="35.29860542713258" lon="-6.028015283258725"><ele>162.0</ele><time>2026-04-28T14:42:47Z</time></trkpt><trkpt lat="35.298825154070094" lon="-6.027922773074712"><ele>162.0</ele><time>2026-04-28T14:42:48Z</time></trkpt><trkpt lat="35.299043206729934" lon="-6.027833262260936"><ele>160.0</ele><time>2026-04-28T14:42:49Z</time></trkpt><trkpt lat="35.299274604880495" lon="-6.0277380590471115"><ele>158.0</ele><time>2026-04-28T14:42:50Z</time></trkpt><trkpt lat="35.29952764381908" lon="-6.027629454143303"><ele>157.5</ele><time>2026-04-28T14:42:51Z</time></trkpt><trkpt lat="35.29980988683254" lon="-6.0275045224364545"><ele>157.0</ele><time>2026-04-28T14:42:52Z</time></trkpt><trkpt lat="35.3001103049314" lon="-6.027368081609876"><ele>153.0</ele><time>2026-04-28T14:42:53Z</time></trkpt><trkpt lat="35.300421609874725" lon="-6.027223213373433"><ele>149.0</ele><time>2026-04-28T14:42:54Z</time></trkpt><trkpt lat="35.300741846050286" lon="-6.0270595039925015"><ele>148.5</ele><time>2026-04-28T14:42:55Z</time></trkpt><trkpt lat="35.30106454507761" lon="-6.026879193982525"><ele>148.0</ele><time>2026-04-28T14:42:56Z</time></trkpt><trkpt lat="35.30137944130661" lon="-6.026687466219497"><ele>145.5</ele><time>2026-04-28T14:42:57Z</time></trkpt><trkpt lat="35.3016809438387" lon="-6.026478025766745"><ele>143.0</ele><time>2026-04-28T14:42:58Z</time></trkpt><trkpt lat="35.30197243203092" lon="-6.026260513182028"><ele>143.0</ele><time>2026-04-28T14:42:59Z</time></trkpt><trkpt lat="35.30225769410966" lon="-6.02604378312678"><ele>143.0</ele><time>2026-04-28T14:43:00Z</time></trkpt><trkpt lat="35.30253386775912" lon="-6.025824069957323"><ele>139.5</ele><time>2026-04-28T14:43:01Z</time></trkpt><trkpt lat="35.302798589582004" lon="-6.0255982043800715"><ele>136.0</ele><time>2026-04-28T14:43:02Z</time></trkpt><trkpt lat="35.30305703162315" lon="-6.025369565605451"><ele>135.5</ele><time>2026-04-28T14:43:03Z</time></trkpt><trkpt lat="35.3033017430374" lon="-6.025136460756142"><ele>135.0</ele><time>2026-04-28T14:43:04Z</time></trkpt><trkpt lat="35.303539204559826" lon="-6.0249016255388845"><ele>135.0</ele><time>2026-04-28T14:43:05Z</time></trkpt><trkpt lat="35.30376159997107" lon="-6.02466703783656"><ele>135.0</ele><time>2026-04-28T14:43:06Z</time></trkpt><trkpt lat="35.303977852983955" lon="-6.024425366985161"><ele>135.5</ele><time>2026-04-28T14:43:07Z</time></trkpt><trkpt lat="35.304190329022695" lon="-6.02417891874728"><ele>136.0</ele><time>2026-04-28T14:43:08Z</time></trkpt><trkpt lat="35.30439740041719" lon="-6.023929017996621"><ele>135.0</ele><time>2026-04-28T14:43:09Z</time></trkpt><trkpt lat="35.30460280755257" lon="-6.023671525034948"><ele>134.0</ele><time>2026-04-28T14:43:10Z</time></trkpt><trkpt lat="35.30480289760952" lon="-6.023410574564243"><ele>132.0</ele><time>2026-04-28T14:43:11Z</time></trkpt><trkpt lat="35.305004313155585" lon="-6.02314401662383"><ele>130.0</ele><time>2026-04-28T14:43:12Z</time></trkpt><trkpt lat="35.30520648628505" lon="-6.02287620043149"><ele>130.0</ele><time>2026-04-28T14:43:13Z</time></trkpt><trkpt lat="35.30540962159544" lon="-6.022606753196853"><ele>130.0</ele><time>2026-04-28T14:43:14Z</time></trkpt><trkpt lat="35.30561293599736" lon="-6.022336290659303"><ele>130.0</ele><time>2026-04-28T14:43:15Z</time></trkpt><trkpt lat="35.30581728762319" lon="-6.022065905554402"><ele>130.0</ele><time>2026-04-28T14:43:16Z</time></trkpt><trkpt lat="35.30602193672693" lon="-6.02179609395159"><ele>128.0</ele><time>2026-04-28T14:43:17Z</time></trkpt><trkpt lat="35.30622515510068" lon="-6.021526187220155"><ele>126.0</ele><time>2026-04-28T14:43:18Z</time></trkpt><trkpt lat="35.306426681557284" lon="-6.021253858510643"><ele>126.0</ele><time>2026-04-28T14:43:19Z</time></trkpt><trkpt lat="35.306630143931166" lon="-6.020982341620229"><ele>126.0</ele><time>2026-04-28T14:43:20Z</time></trkpt><trkpt lat="35.30683404357644" lon="-6.020715742957099"><ele>124.0</ele><time>2026-04-28T14:43:21Z</time></trkpt><trkpt lat="35.307039133678316" lon="-6.020451671446418"><ele>122.0</ele><time>2026-04-28T14:43:22Z</time></trkpt><trkpt lat="35.307245689209786" lon="-6.020183672641054"><ele>119.5</ele><time>2026-04-28T14:43:23Z</time></trkpt><trkpt lat="35.30745140554509" lon="-6.0199217574057275"><ele>117.0</ele><time>2026-04-28T14:43:24Z</time></trkpt><trkpt lat="35.30765943404829" lon="-6.019656086951508"><ele>117.0</ele><time>2026-04-28T14:43:25Z</time></trkpt><trkpt lat="35.30786769946798" lon="-6.019394243291682"><ele>117.0</ele><time>2026-04-28T14:43:26Z</time></trkpt><trkpt lat="35.30807558289512" lon="-6.019134521003463"><ele>117.0</ele><time>2026-04-28T14:43:27Z</time></trkpt><trkpt lat="35.308287493168535" lon="-6.018877215876519"><ele>117.0</ele><time>2026-04-28T14:43:28Z</time></trkpt><trkpt lat="35.30850269746932" lon="-6.018620805944519"><ele>117.0</ele><time>2026-04-28T14:43:29Z</time></trkpt><trkpt lat="35.30872027649295" lon="-6.018377974335133"><ele>117.0</ele><time>2026-04-28T14:43:30Z</time></trkpt><trkpt lat="35.308942383672104" lon="-6.018136873565462"><ele>117.5</ele><time>2026-04-28T14:43:31Z</time></trkpt><trkpt lat="35.30916792395941" lon="-6.017901186232421"><ele>118.0</ele><time>2026-04-28T14:43:32Z</time></trkpt><trkpt lat="35.30939732959773" lon="-6.017667442034249"><ele>117.5</ele><time>2026-04-28T14:43:33Z</time></trkpt><trkpt lat="35.30962793961192" lon="-6.017436425229527"><ele>117.0</ele><time>2026-04-28T14:43:34Z</time></trkpt><trkpt lat="35.30986234497588" lon="-6.017207749870358"><ele>118.5</ele><time>2026-04-28T14:43:35Z</time></trkpt><trkpt lat="35.31009904576659" lon="-6.0169860519612595"><ele>120.0</ele><time>2026-04-28T14:43:36Z</time></trkpt><trkpt lat="35.31033952340196" lon="-6.016765421847951"><ele>122.0</ele><time>2026-04-28T14:43:37Z</time></trkpt><trkpt lat="35.31057984750585" lon="-6.016550111847094"><ele>124.0</ele><time>2026-04-28T14:43:38Z</time></trkpt><trkpt lat="35.31082097548831" lon="-6.016341215872151"><ele>124.0</ele><time>2026-04-28T14:43:39Z</time></trkpt><trkpt lat="35.3110672507422" lon="-6.016135324908373"><ele>124.0</ele><time>2026-04-28T14:43:40Z</time></trkpt><trkpt lat="35.311317197875425" lon="-6.015940914024541"><ele>125.0</ele><time>2026-04-28T14:43:41Z</time></trkpt><trkpt lat="35.31157091136312" lon="-6.015751391493896"><ele>126.0</ele><time>2026-04-28T14:43:42Z</time></trkpt><trkpt lat="35.31182745724281" lon="-6.015565821248992"><ele>126.0</ele><time>2026-04-28T14:43:43Z</time></trkpt><trkpt lat="35.31208544097979" lon="-6.015380510001671"><ele>126.0</ele><time>2026-04-28T14:43:44Z</time></trkpt><trkpt lat="35.3123470289083" lon="-6.015198415983"><ele>126.5</ele><time>2026-04-28T14:43:45Z</time></trkpt><trkpt lat="35.3126111935349" lon="-6.0150217322590995"><ele>127.0</ele><time>2026-04-28T14:43:46Z</time></trkpt><trkpt lat="35.31287788672776" lon="-6.014853015236063"><ele>128.5</ele><time>2026-04-28T14:43:47Z</time></trkpt><trkpt lat="35.31314678522872" lon="-6.014684123636247"><ele>130.0</ele><time>2026-04-28T14:43:48Z</time></trkpt><trkpt lat="35.31341543867747" lon="-6.01451865066236"><ele>130.0</ele><time>2026-04-28T14:43:49Z</time></trkpt><trkpt lat="35.313687788628606" lon="-6.014357832410291"><ele>130.0</ele><time>2026-04-28T14:43:50Z</time></trkpt><trkpt lat="35.31396023627748" lon="-6.014203582268325"><ele>131.0</ele><time>2026-04-28T14:43:51Z</time></trkpt><trkpt lat="35.31423628565254" lon="-6.014059505778787"><ele>132.0</ele><time>2026-04-28T14:43:52Z</time></trkpt><trkpt lat="35.314512960956144" lon="-6.0139162601083145"><ele>130.0</ele><time>2026-04-28T14:43:53Z</time></trkpt><trkpt lat="35.314790673408474" lon="-6.013777656469446"><ele>128.0</ele><time>2026-04-28T14:43:54Z</time></trkpt><trkpt lat="35.315069673372356" lon="-6.0136410897610935"><ele>128.0</ele><time>2026-04-28T14:43:55Z</time></trkpt><trkpt lat="35.315349708011695" lon="-6.013507567935987"><ele>128.0</ele><time>2026-04-28T14:43:56Z</time></trkpt><trkpt lat="35.31562996107314" lon="-6.013379073157479"><ele>128.5</ele><time>2026-04-28T14:43:57Z</time></trkpt><trkpt lat="35.31591559614509" lon="-6.013253907959645"><ele>129.0</ele><time>2026-04-28T14:43:57.999Z</time></trkpt><trkpt lat="35.316199533314645" lon="-6.013137632183879"><ele>128.5</ele><time>2026-04-28T14:43:58.999Z</time></trkpt><trkpt lat="35.316485837278364" lon="-6.013028305286631"><ele>128.0</ele><time>2026-04-28T14:43:59.999Z</time></trkpt><trkpt lat="35.316775051182034" lon="-6.012923400196707"><ele>128.0</ele><time>2026-04-28T14:44:00.999Z</time></trkpt><trkpt lat="35.317065788375025" lon="-6.012824633442519"><ele>128.0</ele><time>2026-04-28T14:44:01.999Z</time></trkpt><trkpt lat="35.317356410676695" lon="-6.012730325586044"><ele>128.0</ele><time>2026-04-28T14:44:02.999Z</time></trkpt><trkpt lat="35.31764790798017" lon="-6.012646491691457"><ele>128.0</ele><time>2026-04-28T14:44:03.999Z</time></trkpt><trkpt lat="35.31794032308814" lon="-6.012568256863956"><ele>126.0</ele><time>2026-04-28T14:44:04.999Z</time></trkpt><trkpt lat="35.31823368971031" lon="-6.0124947800509485"><ele>124.0</ele><time>2026-04-28T14:44:05.999Z</time></trkpt><trkpt lat="35.31852919272148" lon="-6.012423968875873"><ele>126.0</ele><time>2026-04-28T14:44:06.999Z</time></trkpt><trkpt lat="35.31882434048209" lon="-6.012358544788825"><ele>128.0</ele><time>2026-04-28T14:44:07.999Z</time></trkpt><trkpt lat="35.31912091649286" lon="-6.012300543585079"><ele>128.0</ele><time>2026-04-28T14:44:08.999Z</time></trkpt><trkpt lat="35.319418026726254" lon="-6.012251921913497"><ele>128.0</ele><time>2026-04-28T14:44:09.999Z</time></trkpt><trkpt lat="35.31971620161935" lon="-6.012210234547563"><ele>126.5</ele><time>2026-04-28T14:44:11Z</time></trkpt><trkpt lat="35.32001541573741" lon="-6.012176939662829"><ele>125.0</ele><time>2026-04-28T14:44:12Z</time></trkpt><trkpt lat="35.32031581300039" lon="-6.01214694133508"><ele>124.5</ele><time>2026-04-28T14:44:13Z</time></trkpt><trkpt lat="35.32061468917811" lon="-6.012121915989013"><ele>124.0</ele><time>2026-04-28T14:44:14Z</time></trkpt><trkpt lat="35.32091549274899" lon="-6.012098134498278"><ele>124.0</ele><time>2026-04-28T14:44:15Z</time></trkpt><trkpt lat="35.321214819134156" lon="-6.012079577110845"><ele>124.0</ele><time>2026-04-28T14:44:16Z</time></trkpt><trkpt lat="35.321513713705116" lon="-6.012064654346393"><ele>124.5</ele><time>2026-04-28T14:44:17Z</time></trkpt><trkpt lat="35.32181380243189" lon="-6.012051596404839"><ele>125.0</ele><time>2026-04-28T14:44:18Z</time></trkpt><trkpt lat="35.32211294219083" lon="-6.012041272963473"><ele>122.5</ele><time>2026-04-28T14:44:19Z</time></trkpt><trkpt lat="35.322410566769584" lon="-6.012041669600831"><ele>120.0</ele><time>2026-04-28T14:44:20Z</time></trkpt><trkpt lat="35.322706192559636" lon="-6.012044767893413"><ele>120.0</ele><time>2026-04-28T14:44:21Z</time></trkpt><trkpt lat="35.32300480444871" lon="-6.012052785785067"><ele>120.0</ele><time>2026-04-28T14:44:22Z</time></trkpt><trkpt lat="35.323303413101186" lon="-6.012066483083209"><ele>118.0</ele><time>2026-04-28T14:44:23Z</time></trkpt><trkpt lat="35.323596039855175" lon="-6.012083666237115"><ele>116.0</ele><time>2026-04-28T14:44:24Z</time></trkpt><trkpt lat="35.32389081183821" lon="-6.012103308834718"><ele>114.5</ele><time>2026-04-28T14:44:25Z</time></trkpt><trkpt lat="35.324186426015665" lon="-6.012124057500046"><ele>113.0</ele><time>2026-04-28T14:44:26Z</time></trkpt><trkpt lat="35.32447959760388" lon="-6.012146923140445"><ele>111.5</ele><time>2026-04-28T14:44:27Z</time></trkpt><trkpt lat="35.324771244485646" lon="-6.012170404933391"><ele>110.0</ele><time>2026-04-28T14:44:28Z</time></trkpt><trkpt lat="35.32506410957753" lon="-6.012194203510097"><ele>110.0</ele><time>2026-04-28T14:44:29Z</time></trkpt><trkpt lat="35.325356513367105" lon="-6.012217260417087"><ele>110.0</ele><time>2026-04-28T14:44:30Z</time></trkpt><trkpt lat="35.32564866506613" lon="-6.012240249454468"><ele>109.5</ele><time>2026-04-28T14:44:31Z</time></trkpt><trkpt lat="35.32594335653405" lon="-6.012263844668932"><ele>109.0</ele><time>2026-04-28T14:44:32Z</time></trkpt><trkpt lat="35.32623728193148" lon="-6.012288361573231"><ele>107.5</ele><time>2026-04-28T14:44:33Z</time></trkpt><trkpt lat="35.32653073920974" lon="-6.012313290043859"><ele>106.0</ele><time>2026-04-28T14:44:34Z</time></trkpt><trkpt lat="35.32682546710904" lon="-6.01233854399083"><ele>106.0</ele><time>2026-04-28T14:44:35Z</time></trkpt><trkpt lat="35.32712139347333" lon="-6.012366141359208"><ele>106.0</ele><time>2026-04-28T14:44:36Z</time></trkpt><trkpt lat="35.32741638047793" lon="-6.0123928993800595"><ele>106.5</ele><time>2026-04-28T14:44:37Z</time></trkpt><trkpt lat="35.327712793859945" lon="-6.0124179849922985"><ele>107.0</ele><time>2026-04-28T14:44:38Z</time></trkpt><trkpt lat="35.32800773678289" lon="-6.012440232899177"><ele>107.5</ele><time>2026-04-28T14:44:39Z</time></trkpt><trkpt lat="35.32830394434092" lon="-6.0124646013870935"><ele>108.0</ele><time>2026-04-28T14:44:40Z</time></trkpt><trkpt lat="35.328599432720175" lon="-6.012488715162773"><ele>110.0</ele><time>2026-04-28T14:44:41Z</time></trkpt><trkpt lat="35.32889474080815" lon="-6.012513154788512"><ele>112.0</ele><time>2026-04-28T14:44:42Z</time></trkpt><trkpt lat="35.329188163616394" lon="-6.01253736837488"><ele>112.0</ele><time>2026-04-28T14:44:43Z</time></trkpt><trkpt lat="35.32948571098234" lon="-6.012562680164922"><ele>112.0</ele><time>2026-04-28T14:44:44Z</time></trkpt><trkpt lat="35.329782380940664" lon="-6.012588152827737"><ele>111.5</ele><time>2026-04-28T14:44:45Z</time></trkpt><trkpt lat="35.33007872061735" lon="-6.012612427639813"><ele>111.0</ele><time>2026-04-28T14:44:46Z</time></trkpt><trkpt lat="35.33037579549476" lon="-6.0126353083587025"><ele>109.5</ele><time>2026-04-28T14:44:47Z</time></trkpt><trkpt lat="35.330670187673945" lon="-6.012658164878245"><ele>108.0</ele><time>2026-04-28T14:44:48Z</time></trkpt><trkpt lat="35.33096634161212" lon="-6.012682909954865"><ele>108.0</ele><time>2026-04-28T14:44:49Z</time></trkpt><trkpt lat="35.331261497990326" lon="-6.012709406992649"><ele>108.0</ele><time>2026-04-28T14:44:50Z</time></trkpt><trkpt lat="35.33155704686597" lon="-6.012732289390648"><ele>108.0</ele><time>2026-04-28T14:44:51Z</time></trkpt><trkpt lat="35.33185236305131" lon="-6.012755594984183"><ele>108.0</ele><time>2026-04-28T14:44:52Z</time></trkpt><trkpt lat="35.33214801149902" lon="-6.012779714045401"><ele>108.5</ele><time>2026-04-28T14:44:53Z</time></trkpt><trkpt lat="35.33244357273433" lon="-6.012806547837854"><ele>109.0</ele><time>2026-04-28T14:44:54Z</time></trkpt><trkpt lat="35.33273533266345" lon="-6.012834421649845"><ele>109.0</ele><time>2026-04-28T14:44:55Z</time></trkpt><trkpt lat="35.33302886138386" lon="-6.012864657062522"><ele>109.0</ele><time>2026-04-28T14:44:56Z</time></trkpt><trkpt lat="35.33332220684659" lon="-6.012894508402351"><ele>107.0</ele><time>2026-04-28T14:44:57Z</time></trkpt><trkpt lat="35.33361299946399" lon="-6.0129221241680435"><ele>105.0</ele><time>2026-04-28T14:44:58Z</time></trkpt><trkpt lat="35.33390143282955" lon="-6.012949477780662"><ele>104.5</ele><time>2026-04-28T14:44:59Z</time></trkpt><trkpt lat="35.334188211900475" lon="-6.012975947585478"><ele>104.0</ele><time>2026-04-28T14:45:00Z</time></trkpt><trkpt lat="35.334468047700895" lon="-6.012999261347262"><ele>104.5</ele><time>2026-04-28T14:45:01Z</time></trkpt><trkpt lat="35.33473135551042" lon="-6.01301484325398"><ele>105.0</ele><time>2026-04-28T14:45:02Z</time></trkpt><trkpt lat="35.33496124619226" lon="-6.01302140515761"><ele>105.0</ele><time>2026-04-28T14:45:03Z</time></trkpt><trkpt lat="35.33517506021291" lon="-6.0130336745670085"><ele>105.0</ele><time>2026-04-28T14:45:04Z</time></trkpt><trkpt lat="35.33537824667514" lon="-6.013052991267744"><ele>105.0</ele><time>2026-04-28T14:45:05Z</time></trkpt><trkpt lat="35.33556811703251" lon="-6.013071817935327"><ele>105.0</ele><time>2026-04-28T14:45:06Z</time></trkpt><trkpt lat="35.335756998970645" lon="-6.013089966116015"><ele>105.0</ele><time>2026-04-28T14:45:07Z</time></trkpt><trkpt lat="35.335958575979404" lon="-6.013108460277372"><ele>105.0</ele><time>2026-04-28T14:45:08Z</time></trkpt><trkpt lat="35.33616937117011" lon="-6.013128626272772"><ele>105.0</ele><time>2026-04-28T14:45:09Z</time></trkpt><trkpt lat="35.33638466693707" lon="-6.013150957758385"><ele>105.0</ele><time>2026-04-28T14:45:10Z</time></trkpt><trkpt lat="35.33660772171046" lon="-6.013171272493919"><ele>105.0</ele><time>2026-04-28T14:45:11Z</time></trkpt><trkpt lat="35.33683623191573" lon="-6.013191078733784"><ele>104.0</ele><time>2026-04-28T14:45:12Z</time></trkpt><trkpt lat="35.337070505284764" lon="-6.01321418640839"><ele>103.0</ele><time>2026-04-28T14:45:13Z</time></trkpt><trkpt lat="35.337311213856545" lon="-6.013236898439068"><ele>102.0</ele><time>2026-04-28T14:45:14Z</time></trkpt><trkpt lat="35.337559699647045" lon="-6.013255487335575"><ele>101.0</ele><time>2026-04-28T14:45:15Z</time></trkpt><trkpt lat="35.33781708777949" lon="-6.013275241009693"><ele>102.0</ele><time>2026-04-28T14:45:16Z</time></trkpt><trkpt lat="35.338085280624746" lon="-6.013296872422884"><ele>103.0</ele><time>2026-04-28T14:45:17Z</time></trkpt><trkpt lat="35.33835780504915" lon="-6.013319345486924"><ele>104.5</ele><time>2026-04-28T14:45:18Z</time></trkpt><trkpt lat="35.33863728748799" lon="-6.013342127203759"><ele>106.0</ele><time>2026-04-28T14:45:19Z</time></trkpt><trkpt lat="35.33892154502965" lon="-6.013366031846211"><ele>106.0</ele><time>2026-04-28T14:45:20Z</time></trkpt><trkpt lat="35.339209633755466" lon="-6.013389822069429"><ele>106.0</ele><time>2026-04-28T14:45:21Z</time></trkpt><trkpt lat="35.33950290252534" lon="-6.013409794563697"><ele>104.5</ele><time>2026-04-28T14:45:22Z</time></trkpt><trkpt lat="35.33979946016106" lon="-6.013429430082792"><ele>103.0</ele><time>2026-04-28T14:45:23Z</time></trkpt><trkpt lat="35.34009968618368" lon="-6.013448344447525"><ele>103.0</ele><time>2026-04-28T14:45:24Z</time></trkpt><trkpt lat="35.34039991516835" lon="-6.013467664328165"><ele>103.0</ele><time>2026-04-28T14:45:25Z</time></trkpt><trkpt lat="35.34069963671017" lon="-6.013488109958757"><ele>102.0</ele><time>2026-04-28T14:45:26Z</time></trkpt><trkpt lat="35.341001380185595" lon="-6.013510110254484"><ele>101.0</ele><time>2026-04-28T14:45:27Z</time></trkpt><trkpt lat="35.34130285005235" lon="-6.013531594045475"><ele>100.0</ele><time>2026-04-28T14:45:28Z</time></trkpt><trkpt lat="35.34160550645695" lon="-6.013553907187118"><ele>99.0</ele><time>2026-04-28T14:45:29Z</time></trkpt><trkpt lat="35.341906322730416" lon="-6.013578397237399"><ele>99.0</ele><time>2026-04-28T14:45:30Z</time></trkpt><trkpt lat="35.34220740281502" lon="-6.013603059591733"><ele>99.0</ele><time>2026-04-28T14:45:31Z</time></trkpt><trkpt lat="35.34250871905476" lon="-6.013626640484988"><ele>98.0</ele><time>2026-04-28T14:45:32Z</time></trkpt><trkpt lat="35.34280952426898" lon="-6.013650427932608"><ele>97.0</ele><time>2026-04-28T14:45:33Z</time></trkpt><trkpt lat="35.34311065628741" lon="-6.013675204722757"><ele>95.0</ele><time>2026-04-28T14:45:34Z</time></trkpt><trkpt lat="35.34341159166833" lon="-6.013699976274673"><ele>93.0</ele><time>2026-04-28T14:45:35Z</time></trkpt><trkpt lat="35.34371238001237" lon="-6.013726708546875"><ele>92.0</ele><time>2026-04-28T14:45:36Z</time></trkpt><trkpt lat="35.34401208672227" lon="-6.013754470566059"><ele>91.0</ele><time>2026-04-28T14:45:37Z</time></trkpt><trkpt lat="35.34431011475402" lon="-6.013782580917885"><ele>91.0</ele><time>2026-04-28T14:45:38Z</time></trkpt><trkpt lat="35.34460710172127" lon="-6.013813088708164"><ele>91.0</ele><time>2026-04-28T14:45:39Z</time></trkpt><trkpt lat="35.344905050108075" lon="-6.013846684143284"><ele>90.0</ele><time>2026-04-28T14:45:40Z</time></trkpt><trkpt lat="35.345201359479425" lon="-6.013883208335711"><ele>89.0</ele><time>2026-04-28T14:45:41Z</time></trkpt><trkpt lat="35.345498787104255" lon="-6.0139220010082814"><ele>87.0</ele><time>2026-04-28T14:45:42Z</time></trkpt><trkpt lat="35.345796364188395" lon="-6.013963565519704"><ele>85.0</ele><time>2026-04-28T14:45:43Z</time></trkpt><trkpt lat="35.3460951770971" lon="-6.01400710527569"><ele>85.5</ele><time>2026-04-28T14:45:44Z</time></trkpt><trkpt lat="35.34639043911061" lon="-6.014052972408191"><ele>86.0</ele><time>2026-04-28T14:45:45Z</time></trkpt><trkpt lat="35.34668620256067" lon="-6.014100403803401"><ele>86.0</ele><time>2026-04-28T14:45:46Z</time></trkpt><trkpt lat="35.34698315048245" lon="-6.014149377426693"><ele>86.0</ele><time>2026-04-28T14:45:47Z</time></trkpt><trkpt lat="35.34727907641162" lon="-6.014200937305978"><ele>87.5</ele><time>2026-04-28T14:45:48Z</time></trkpt><trkpt lat="35.347575098059515" lon="-6.014256283804895"><ele>89.0</ele><time>2026-04-28T14:45:49Z</time></trkpt><trkpt lat="35.34786959225763" lon="-6.014315507018684"><ele>91.0</ele><time>2026-04-28T14:45:50Z</time></trkpt><trkpt lat="35.34816152950899" lon="-6.014377363294766"><ele>93.0</ele><time>2026-04-28T14:45:50.999Z</time></trkpt><trkpt lat="35.348453770226094" lon="-6.0144402197800835"><ele>93.0</ele><time>2026-04-28T14:45:51.999Z</time></trkpt><trkpt lat="35.348745292498016" lon="-6.014504533557935"><ele>93.0</ele><time>2026-04-28T14:45:52.999Z</time></trkpt><trkpt lat="35.34903765633948" lon="-6.014570026031021"><ele>94.5</ele><time>2026-04-28T14:45:53.999Z</time></trkpt><trkpt lat="35.34933179262145" lon="-6.014637667772516"><ele>96.0</ele><time>2026-04-28T14:45:54.999Z</time></trkpt><trkpt lat="35.34962491285369" lon="-6.014707724225585"><ele>97.5</ele><time>2026-04-28T14:45:55.999Z</time></trkpt><trkpt lat="35.34991818612034" lon="-6.014780449746193"><ele>99.0</ele><time>2026-04-28T14:45:56.999Z</time></trkpt><trkpt lat="35.35021102981976" lon="-6.014856304167053"><ele>99.0</ele><time>2026-04-28T14:45:57.999Z</time></trkpt><trkpt lat="35.35050425229931" lon="-6.014933492990839"><ele>99.0</ele><time>2026-04-28T14:45:58.999Z</time></trkpt><trkpt lat="35.350797827064355" lon="-6.01501032288073"><ele>97.5</ele><time>2026-04-28T14:45:59.999Z</time></trkpt><trkpt lat="35.35108986225396" lon="-6.0150868167058436"><ele>96.0</ele><time>2026-04-28T14:46:00.999Z</time></trkpt><trkpt lat="35.35138308445066" lon="-6.015161046377548"><ele>94.5</ele><time>2026-04-28T14:46:01.999Z</time></trkpt><trkpt lat="35.351677022143576" lon="-6.015235956383845"><ele>93.0</ele><time>2026-04-28T14:46:02.999Z</time></trkpt><trkpt lat="35.3519716549095" lon="-6.01531196178099"><ele>91.5</ele><time>2026-04-28T14:46:03.999Z</time></trkpt><trkpt lat="35.352266485194605" lon="-6.015389300521759"><ele>90.0</ele><time>2026-04-28T14:46:04.999Z</time></trkpt><trkpt lat="35.352560581177485" lon="-6.0154673769258045"><ele>90.0</ele><time>2026-04-28T14:46:05.999Z</time></trkpt><trkpt lat="35.35285449353465" lon="-6.015545295689399"><ele>90.0</ele><time>2026-04-28T14:46:06.999Z</time></trkpt><trkpt lat="35.3531485678204" lon="-6.015621795658681"><ele>90.0</ele><time>2026-04-28T14:46:07.999Z</time></trkpt><trkpt lat="35.35344446250231" lon="-6.015696400406169"><ele>90.0</ele><time>2026-04-28T14:46:08.999Z</time></trkpt><trkpt lat="35.353739848470504" lon="-6.01577139088251"><ele>90.0</ele><time>2026-04-28T14:46:09.999Z</time></trkpt><trkpt lat="35.354034182773134" lon="-6.015843784938669"><ele>90.0</ele><time>2026-04-28T14:46:10.999Z</time></trkpt><trkpt lat="35.354327941028416" lon="-6.015917179231662"><ele>90.0</ele><time>2026-04-28T14:46:11.999Z</time></trkpt><trkpt lat="35.35461905379774" lon="-6.0159915702805"><ele>90.0</ele><time>2026-04-28T14:46:12.999Z</time></trkpt><trkpt lat="35.354908534257895" lon="-6.016066984400274"><ele>90.0</ele><time>2026-04-28T14:46:13.999Z</time></trkpt><trkpt lat="35.355199424436556" lon="-6.016140686905678"><ele>90.0</ele><time>2026-04-28T14:46:14.999Z</time></trkpt><trkpt lat="35.35548907719047" lon="-6.01621451057096"><ele>89.5</ele><time>2026-04-28T14:46:15.999Z</time></trkpt><trkpt lat="35.35577982536865" lon="-6.01628853066712"><ele>89.0</ele><time>2026-04-28T14:46:17Z</time></trkpt><trkpt lat="35.35606926142496" lon="-6.016363703651707"><ele>89.0</ele><time>2026-04-28T14:46:18Z</time></trkpt><trkpt lat="35.35635833882347" lon="-6.016439341665562"><ele>89.0</ele><time>2026-04-28T14:46:19Z</time></trkpt><trkpt lat="35.35664762616575" lon="-6.0165123809723395"><ele>90.5</ele><time>2026-04-28T14:46:20Z</time></trkpt><trkpt lat="35.35693721305946" lon="-6.016582610366332"><ele>92.0</ele><time>2026-04-28T14:46:21Z</time></trkpt><trkpt lat="35.35722548403793" lon="-6.016648075462092"><ele>93.0</ele><time>2026-04-28T14:46:22Z</time></trkpt><trkpt lat="35.3575161445355" lon="-6.016710811696985"><ele>94.0</ele><time>2026-04-28T14:46:23Z</time></trkpt><trkpt lat="35.357805297796" lon="-6.016771555652208"><ele>94.0</ele><time>2026-04-28T14:46:24Z</time></trkpt><trkpt lat="35.35809445543562" lon="-6.016827259416575"><ele>94.0</ele><time>2026-04-28T14:46:25Z</time></trkpt><trkpt lat="35.35838474633203" lon="-6.01687919192419"><ele>94.0</ele><time>2026-04-28T14:46:26Z</time></trkpt><trkpt lat="35.35867765643432" lon="-6.016928383873897"><ele>94.0</ele><time>2026-04-28T14:46:27Z</time></trkpt><trkpt lat="35.358970817467636" lon="-6.016974921734049"><ele>95.0</ele><time>2026-04-28T14:46:28Z</time></trkpt><trkpt lat="35.35926570920126" lon="-6.0170183562190465"><ele>96.0</ele><time>2026-04-28T14:46:29Z</time></trkpt><trkpt lat="35.3595595102165" lon="-6.017058849732932"><ele>97.0</ele><time>2026-04-28T14:46:30Z</time></trkpt><trkpt lat="35.359852978065746" lon="-6.017094714021227"><ele>98.0</ele><time>2026-04-28T14:46:31Z</time></trkpt><trkpt lat="35.36014828200275" lon="-6.017127218729189"><ele>98.0</ele><time>2026-04-28T14:46:32Z</time></trkpt><trkpt lat="35.36044380779692" lon="-6.017157424537434"><ele>98.0</ele><time>2026-04-28T14:46:33Z</time></trkpt><trkpt lat="35.3607392972991" lon="-6.017185293698627"><ele>99.0</ele><time>2026-04-28T14:46:34Z</time></trkpt><trkpt lat="35.361031874133076" lon="-6.017208880854419"><ele>100.0</ele><time>2026-04-28T14:46:35Z</time></trkpt><trkpt lat="35.361325965819944" lon="-6.01722931759726"><ele>100.5</ele><time>2026-04-28T14:46:36Z</time></trkpt><trkpt lat="35.36162059008412" lon="-6.017250042192401"><ele>101.0</ele><time>2026-04-28T14:46:37Z</time></trkpt><trkpt lat="35.361915250441086" lon="-6.017271879049569"><ele>99.5</ele><time>2026-04-28T14:46:38Z</time></trkpt><trkpt lat="35.36220903403694" lon="-6.017293190689458"><ele>98.0</ele><time>2026-04-28T14:46:39Z</time></trkpt><trkpt lat="35.3625059390983" lon="-6.017311121395864"><ele>98.0</ele><time>2026-04-28T14:46:40Z</time></trkpt><trkpt lat="35.362801942330236" lon="-6.017329243419346"><ele>98.0</ele><time>2026-04-28T14:46:41Z</time></trkpt><trkpt lat="35.36309901788197" lon="-6.017348223403675"><ele>98.0</ele><time>2026-04-28T14:46:42Z</time></trkpt><trkpt lat="35.36339583536274" lon="-6.017368918124357"><ele>98.0</ele><time>2026-04-28T14:46:43Z</time></trkpt><trkpt lat="35.36369190934917" lon="-6.017389506773073"><ele>99.0</ele><time>2026-04-28T14:46:44Z</time></trkpt><trkpt lat="35.36398896062516" lon="-6.017408964106764"><ele>100.0</ele><time>2026-04-28T14:46:45Z</time></trkpt><trkpt lat="35.36428537347434" lon="-6.017428078156702"><ele>100.0</ele><time>2026-04-28T14:46:46Z</time></trkpt><trkpt lat="35.364581811436025" lon="-6.017447655497244"><ele>100.0</ele><time>2026-04-28T14:46:47Z</time></trkpt><trkpt lat="35.36487912057438" lon="-6.017466702299396"><ele>99.5</ele><time>2026-04-28T14:46:48Z</time></trkpt><trkpt lat="35.36517588371066" lon="-6.017486994986962"><ele>99.0</ele><time>2026-04-28T14:46:49Z</time></trkpt><trkpt lat="35.36547146649873" lon="-6.017507775938116"><ele>99.5</ele><time>2026-04-28T14:46:50Z</time></trkpt><trkpt lat="35.36576639295347" lon="-6.0175313094047995"><ele>100.0</ele><time>2026-04-28T14:46:51Z</time></trkpt><trkpt lat="35.366063385184994" lon="-6.017555043900043"><ele>100.0</ele><time>2026-04-28T14:46:52Z</time></trkpt><trkpt lat="35.36636073432605" lon="-6.017581030019625"><ele>100.0</ele><time>2026-04-28T14:46:53Z</time></trkpt><trkpt lat="35.366657896429345" lon="-6.0176104644322015"><ele>101.5</ele><time>2026-04-28T14:46:54Z</time></trkpt><trkpt lat="35.366954983706215" lon="-6.0176417204455666"><ele>103.0</ele><time>2026-04-28T14:46:55Z</time></trkpt><trkpt lat="35.36725290989139" lon="-6.017675869779039"><ele>103.0</ele><time>2026-04-28T14:46:56Z</time></trkpt><trkpt lat="35.367550818544956" lon="-6.01771320212851"><ele>103.0</ele><time>2026-04-28T14:46:57Z</time></trkpt><trkpt lat="35.36784854650724" lon="-6.017753658096166"><ele>103.5</ele><time>2026-04-28T14:46:58Z</time></trkpt><trkpt lat="35.368145419112636" lon="-6.017796460544425"><ele>104.0</ele><time>2026-04-28T14:46:59Z</time></trkpt><trkpt lat="35.36844325965053" lon="-6.017840708038371"><ele>104.0</ele><time>2026-04-28T14:47:00Z</time></trkpt><trkpt lat="35.368742912919714" lon="-6.017884773662425"><ele>104.0</ele><time>2026-04-28T14:47:01Z</time></trkpt><trkpt lat="35.36904205544081" lon="-6.017933777467298"><ele>104.0</ele><time>2026-04-28T14:47:02Z</time></trkpt><trkpt lat="35.36933919591321" lon="-6.017987136451687"><ele>104.0</ele><time>2026-04-28T14:47:03Z</time></trkpt><trkpt lat="35.36963552834736" lon="-6.0180442059058405"><ele>105.5</ele><time>2026-04-28T14:47:04Z</time></trkpt><trkpt lat="35.36993070837663" lon="-6.018102827945421"><ele>107.0</ele><time>2026-04-28T14:47:05Z</time></trkpt><trkpt lat="35.3702277856158" lon="-6.018163963370253"><ele>107.0</ele><time>2026-04-28T14:47:06Z</time></trkpt><trkpt lat="35.370522665361285" lon="-6.018229489510115"><ele>107.0</ele><time>2026-04-28T14:47:07Z</time></trkpt><trkpt lat="35.37081379522457" lon="-6.018296297514502"><ele>105.5</ele><time>2026-04-28T14:47:08Z</time></trkpt><trkpt lat="35.37110457965754" lon="-6.018363185275841"><ele>104.0</ele><time>2026-04-28T14:47:09Z</time></trkpt><trkpt lat="35.37139221984055" lon="-6.018430906564241"><ele>103.0</ele><time>2026-04-28T14:47:10Z</time></trkpt><trkpt lat="35.37167923712686" lon="-6.0185009724485266"><ele>102.0</ele><time>2026-04-28T14:47:11Z</time></trkpt><trkpt lat="35.371965877399845" lon="-6.018576103039773"><ele>99.0</ele><time>2026-04-28T14:47:12Z</time></trkpt><trkpt lat="35.37224963128094" lon="-6.018660829631558"><ele>96.0</ele><time>2026-04-28T14:47:13Z</time></trkpt><trkpt lat="35.37253215828226" lon="-6.018748785401895"><ele>96.0</ele><time>2026-04-28T14:47:14Z</time></trkpt><trkpt lat="35.372813767585605" lon="-6.018836818610384"><ele>96.0</ele><time>2026-04-28T14:47:15Z</time></trkpt><trkpt lat="35.37310103675067" lon="-6.018925046073134"><ele>94.0</ele><time>2026-04-28T14:47:16Z</time></trkpt><trkpt lat="35.373388411651234" lon="-6.019017141194047"><ele>92.0</ele><time>2026-04-28T14:47:17Z</time></trkpt><trkpt lat="35.37367321512158" lon="-6.019111861534099"><ele>91.5</ele><time>2026-04-28T14:47:18Z</time></trkpt><trkpt lat="35.37395995986847" lon="-6.01921075911402"><ele>91.0</ele><time>2026-04-28T14:47:19Z</time></trkpt><trkpt lat="35.37424651862036" lon="-6.019311696431988"><ele>91.0</ele><time>2026-04-28T14:47:20Z</time></trkpt><trkpt lat="35.374535412818126" lon="-6.019414233615371"><ele>91.0</ele><time>2026-04-28T14:47:21Z</time></trkpt><trkpt lat="35.374824090515055" lon="-6.019517484974277"><ele>86.5</ele><time>2026-04-28T14:47:22Z</time></trkpt><trkpt lat="35.37511209209518" lon="-6.019623567747303"><ele>82.0</ele><time>2026-04-28T14:47:23Z</time></trkpt><trkpt lat="35.37539820252012" lon="-6.01973010971011"><ele>80.0</ele><time>2026-04-28T14:47:24Z</time></trkpt><trkpt lat="35.37568392180506" lon="-6.019837237324036"><ele>78.0</ele><time>2026-04-28T14:47:25Z</time></trkpt><trkpt lat="35.375969860262046" lon="-6.019945295783795"><ele>77.0</ele><time>2026-04-28T14:47:26Z</time></trkpt><trkpt lat="35.376256496694126" lon="-6.020052778839519"><ele>76.0</ele><time>2026-04-28T14:47:27Z</time></trkpt><trkpt lat="35.37654379638565" lon="-6.020159903524532"><ele>76.0</ele><time>2026-04-28T14:47:28Z</time></trkpt><trkpt lat="35.376830575559616" lon="-6.020266994808662"><ele>76.0</ele><time>2026-04-28T14:47:29Z</time></trkpt><trkpt lat="35.37711846624644" lon="-6.020374821107192"><ele>79.5</ele><time>2026-04-28T14:47:30Z</time></trkpt><trkpt lat="35.37740249466723" lon="-6.020481182033873"><ele>83.0</ele><time>2026-04-28T14:47:31Z</time></trkpt><trkpt lat="35.377680827325264" lon="-6.0205847731273865"><ele>83.0</ele><time>2026-04-28T14:47:32Z</time></trkpt><trkpt lat="35.37795479283855" lon="-6.020688668616814"><ele>83.0</ele><time>2026-04-28T14:47:33Z</time></trkpt><trkpt lat="35.378230305951455" lon="-6.020790658101852"><ele>89.0</ele><time>2026-04-28T14:47:34Z</time></trkpt><trkpt lat="35.3785046300915" lon="-6.0208952196741325"><ele>95.0</ele><time>2026-04-28T14:47:35Z</time></trkpt><trkpt lat="35.378779155347374" lon="-6.021002462472288"><ele>104.0</ele><time>2026-04-28T14:47:36Z</time></trkpt><trkpt lat="35.37905483894285" lon="-6.021106859295252"><ele>113.0</ele><time>2026-04-28T14:47:37Z</time></trkpt><trkpt lat="35.37933317979153" lon="-6.0212120905252595"><ele>113.0</ele><time>2026-04-28T14:47:38Z</time></trkpt><trkpt lat="35.379610495784" lon="-6.021342911810908"><ele>113.0</ele><time>2026-04-28T14:47:39Z</time></trkpt><trkpt lat="35.37989683937749" lon="-6.021452121968991"><ele>114.5</ele><time>2026-04-28T14:47:40Z</time></trkpt><trkpt lat="35.38019071938852" lon="-6.021535825805257"><ele>116.0</ele><time>2026-04-28T14:47:41Z</time></trkpt><trkpt lat="35.38047589330107" lon="-6.021642336096844"><ele>111.5</ele><time>2026-04-28T14:47:42Z</time></trkpt><trkpt lat="35.38076098188497" lon="-6.021748141522209"><ele>107.0</ele><time>2026-04-28T14:47:43Z</time></trkpt><trkpt lat="35.38104902243113" lon="-6.021852717128223"><ele>107.0</ele><time>2026-04-28T14:47:44Z</time></trkpt><trkpt lat="35.38133721665359" lon="-6.021957828151888"><ele>107.0</ele><time>2026-04-28T14:47:45Z</time></trkpt><trkpt lat="35.381626832944306" lon="-6.022062228051738"><ele>101.0</ele><time>2026-04-28T14:47:46Z</time></trkpt><trkpt lat="35.38191541640609" lon="-6.022166320893621"><ele>95.0</ele><time>2026-04-28T14:47:46.999Z</time></trkpt><trkpt lat="35.38220297110769" lon="-6.022268774100774"><ele>89.5</ele><time>2026-04-28T14:47:47.999Z</time></trkpt><trkpt lat="35.38249099266002" lon="-6.022366453068662"><ele>84.0</ele><time>2026-04-28T14:47:48.999Z</time></trkpt><trkpt lat="35.382778394228914" lon="-6.022463483848484"><ele>80.0</ele><time>2026-04-28T14:47:49.999Z</time></trkpt><trkpt lat="35.3830679588378" lon="-6.0225601583966055"><ele>76.0</ele><time>2026-04-28T14:47:50.999Z</time></trkpt><trkpt lat="35.38335878323517" lon="-6.022655186062497"><ele>76.0</ele><time>2026-04-28T14:47:51.999Z</time></trkpt><trkpt lat="35.38364757174329" lon="-6.022747319833708"><ele>76.0</ele><time>2026-04-28T14:47:52.999Z</time></trkpt><trkpt lat="35.38393858455727" lon="-6.0228326540640476"><ele>72.0</ele><time>2026-04-28T14:47:53.999Z</time></trkpt><trkpt lat="35.38422904732157" lon="-6.02291068137254"><ele>68.0</ele><time>2026-04-28T14:47:54.999Z</time></trkpt><trkpt lat="35.384522602095394" lon="-6.022985232106128"><ele>64.5</ele><time>2026-04-28T14:47:55.999Z</time></trkpt><trkpt lat="35.384816107446056" lon="-6.023055823191767"><ele>61.0</ele><time>2026-04-28T14:47:56.999Z</time></trkpt><trkpt lat="35.38510898051602" lon="-6.023118771028678"><ele>61.0</ele><time>2026-04-28T14:47:57.999Z</time></trkpt><trkpt lat="35.38540414732295" lon="-6.023172920755778"><ele>61.0</ele><time>2026-04-28T14:47:58.999Z</time></trkpt><trkpt lat="35.38569869294311" lon="-6.02322175320719"><ele>61.0</ele><time>2026-04-28T14:47:59.999Z</time></trkpt><trkpt lat="35.38599200957313" lon="-6.023267916793763"><ele>61.0</ele><time>2026-04-28T14:48:00.999Z</time></trkpt><trkpt lat="35.38628776411406" lon="-6.023310009729117"><ele>60.0</ele><time>2026-04-28T14:48:01.999Z</time></trkpt><trkpt lat="35.38658590816027" lon="-6.02334486582995"><ele>59.0</ele><time>2026-04-28T14:48:02.999Z</time></trkpt><trkpt lat="35.386881549809324" lon="-6.023375051730598"><ele>59.5</ele><time>2026-04-28T14:48:03.999Z</time></trkpt><trkpt lat="35.387178755429666" lon="-6.023397806510131"><ele>60.0</ele><time>2026-04-28T14:48:04.999Z</time></trkpt><trkpt lat="35.387477280111774" lon="-6.023411843690075"><ele>60.0</ele><time>2026-04-28T14:48:05.999Z</time></trkpt><trkpt lat="35.387773594482006" lon="-6.023419569689599"><ele>60.0</ele><time>2026-04-28T14:48:06.999Z</time></trkpt><trkpt lat="35.38807318018608" lon="-6.023420277600109"><ele>60.5</ele><time>2026-04-28T14:48:07.999Z</time></trkpt><trkpt lat="35.38837116019851" lon="-6.023417771215978"><ele>61.0</ele><time>2026-04-28T14:48:08.999Z</time></trkpt><trkpt lat="35.38866967706019" lon="-6.0234097512145315"><ele>58.5</ele><time>2026-04-28T14:48:09.999Z</time></trkpt><trkpt lat="35.38896994088402" lon="-6.023393158330367"><ele>56.0</ele><time>2026-04-28T14:48:10.999Z</time></trkpt><trkpt lat="35.3892692250712" lon="-6.023374070005495"><ele>56.0</ele><time>2026-04-28T14:48:11.999Z</time></trkpt><trkpt lat="35.38956831082086" lon="-6.023351593316671"><ele>56.0</ele><time>2026-04-28T14:48:12.999Z</time></trkpt><trkpt lat="35.389867820822545" lon="-6.02332163044427"><ele>58.0</ele><time>2026-04-28T14:48:13.999Z</time></trkpt><trkpt lat="35.390163906926816" lon="-6.023287380592722"><ele>60.0</ele><time>2026-04-28T14:48:14.999Z</time></trkpt><trkpt lat="35.390460599484435" lon="-6.023242176395076"><ele>59.0</ele><time>2026-04-28T14:48:15.999Z</time></trkpt><trkpt lat="35.39075528351588" lon="-6.0231845201654375"><ele>58.0</ele><time>2026-04-28T14:48:16.999Z</time></trkpt><trkpt lat="35.39104972672349" lon="-6.023125920935231"><ele>58.0</ele><time>2026-04-28T14:48:17.999Z</time></trkpt><trkpt lat="35.39134289601027" lon="-6.023060196215359"><ele>58.0</ele><time>2026-04-28T14:48:18.999Z</time></trkpt><trkpt lat="35.391636511329644" lon="-6.022989573057793"><ele>58.0</ele><time>2026-04-28T14:48:19.999Z</time></trkpt><trkpt lat="35.391929937541924" lon="-6.022914709912335"><ele>58.0</ele><time>2026-04-28T14:48:20.999Z</time></trkpt><trkpt lat="35.39222231888564" lon="-6.022831193605551"><ele>56.5</ele><time>2026-04-28T14:48:21.999Z</time></trkpt><trkpt lat="35.39251457064577" lon="-6.022741289529398"><ele>55.0</ele><time>2026-04-28T14:48:23Z</time></trkpt><trkpt lat="35.39280491254825" lon="-6.022646637098104"><ele>54.5</ele><time>2026-04-28T14:48:24Z</time></trkpt><trkpt lat="35.39309387716658" lon="-6.022544951117995"><ele>54.0</ele><time>2026-04-28T14:48:25Z</time></trkpt><trkpt lat="35.39338105193085" lon="-6.022438903875599"><ele>54.0</ele><time>2026-04-28T14:48:26Z</time></trkpt><trkpt lat="35.393668596703016" lon="-6.022326650228128"><ele>54.0</ele><time>2026-04-28T14:48:27Z</time></trkpt><trkpt lat="35.39395344380327" lon="-6.022211414442009"><ele>54.0</ele><time>2026-04-28T14:48:28Z</time></trkpt><trkpt lat="35.39423904731954" lon="-6.022092939836143"><ele>54.0</ele><time>2026-04-28T14:48:29Z</time></trkpt><trkpt lat="35.39452467421515" lon="-6.021973067127706"><ele>52.5</ele><time>2026-04-28T14:48:30Z</time></trkpt><trkpt lat="35.39480982781328" lon="-6.021852938797903"><ele>51.0</ele><time>2026-04-28T14:48:31Z</time></trkpt><trkpt lat="35.39509513098382" lon="-6.021734806067067"><ele>51.5</ele><time>2026-04-28T14:48:32Z</time></trkpt><trkpt lat="35.39538188683258" lon="-6.021617199353091"><ele>52.0</ele><time>2026-04-28T14:48:33Z</time></trkpt><trkpt lat="35.39566727650379" lon="-6.02149999669318"><ele>52.0</ele><time>2026-04-28T14:48:34Z</time></trkpt><trkpt lat="35.3959531088193" lon="-6.021385408947444"><ele>52.0</ele><time>2026-04-28T14:48:35Z</time></trkpt><trkpt lat="35.39624111544165" lon="-6.021274556144134"><ele>51.5</ele><time>2026-04-28T14:48:36Z</time></trkpt><trkpt lat="35.396529951331786" lon="-6.0211693725628965"><ele>51.0</ele><time>2026-04-28T14:48:37Z</time></trkpt><trkpt lat="35.39681648582435" lon="-6.021071181807499"><ele>51.0</ele><time>2026-04-28T14:48:38Z</time></trkpt><trkpt lat="35.39710525507862" lon="-6.0209758064259455"><ele>51.0</ele><time>2026-04-28T14:48:39Z</time></trkpt><trkpt lat="35.39739531295498" lon="-6.0208846825468365"><ele>52.5</ele><time>2026-04-28T14:48:40Z</time></trkpt><trkpt lat="35.3976866200818" lon="-6.020798529572011"><ele>54.0</ele><time>2026-04-28T14:48:41Z</time></trkpt><trkpt lat="35.39797987462296" lon="-6.0207206482366455"><ele>54.0</ele><time>2026-04-28T14:48:42Z</time></trkpt><trkpt lat="35.39827237793106" lon="-6.0206490072932395"><ele>54.0</ele><time>2026-04-28T14:48:43Z</time></trkpt><trkpt lat="35.39856653744096" lon="-6.0205845676503245"><ele>55.0</ele><time>2026-04-28T14:48:44Z</time></trkpt><trkpt lat="35.39886191738374" lon="-6.02052460583578"><ele>56.0</ele><time>2026-04-28T14:48:45Z</time></trkpt><trkpt lat="35.399157063774204" lon="-6.020469663234795"><ele>56.0</ele><time>2026-04-28T14:48:46Z</time></trkpt><trkpt lat="35.399453442816956" lon="-6.020422458691032"><ele>56.0</ele><time>2026-04-28T14:48:47Z</time></trkpt><trkpt lat="35.39975010503112" lon="-6.020379810829068"><ele>55.5</ele><time>2026-04-28T14:48:48Z</time></trkpt><trkpt lat="35.40004862144515" lon="-6.0203452138827425"><ele>55.0</ele><time>2026-04-28T14:48:49Z</time></trkpt><trkpt lat="35.400347207328664" lon="-6.020318302153181"><ele>55.5</ele><time>2026-04-28T14:48:50Z</time></trkpt><trkpt lat="35.40064393644341" lon="-6.020296982522838"><ele>56.0</ele><time>2026-04-28T14:48:51Z</time></trkpt><trkpt lat="35.4009422798731" lon="-6.020279429564121"><ele>56.0</ele><time>2026-04-28T14:48:52Z</time></trkpt><trkpt lat="35.40124169718966" lon="-6.020266448834374"><ele>56.0</ele><time>2026-04-28T14:48:53Z</time></trkpt><trkpt lat="35.40154147245557" lon="-6.020260680709499"><ele>56.0</ele><time>2026-04-28T14:48:54Z</time></trkpt><trkpt lat="35.401839748444466" lon="-6.020262336922282"><ele>56.0</ele><time>2026-04-28T14:48:55Z</time></trkpt><trkpt lat="35.40213898326251" lon="-6.020268646331572"><ele>54.5</ele><time>2026-04-28T14:48:56Z</time></trkpt><trkpt lat="35.40243737972447" lon="-6.020278602728623"><ele>53.0</ele><time>2026-04-28T14:48:57Z</time></trkpt><trkpt lat="35.40273580173206" lon="-6.020290214008133"><ele>53.0</ele><time>2026-04-28T14:48:58Z</time></trkpt><trkpt lat="35.40303303968922" lon="-6.020307137520765"><ele>53.0</ele><time>2026-04-28T14:48:59Z</time></trkpt><trkpt lat="35.40333492241022" lon="-6.020332114005907"><ele>53.0</ele><time>2026-04-28T14:49:00Z</time></trkpt><trkpt lat="35.40364135293349" lon="-6.0203659651838235"><ele>53.0</ele><time>2026-04-28T14:49:01Z</time></trkpt><trkpt lat="35.40395126578132" lon="-6.0204061700827385"><ele>52.5</ele><time>2026-04-28T14:49:02Z</time></trkpt><trkpt lat="35.40426315287163" lon="-6.020455205984755"><ele>52.0</ele><time>2026-04-28T14:49:03Z</time></trkpt><trkpt lat="35.40457789738838" lon="-6.020512529872324"><ele>51.0</ele><time>2026-04-28T14:49:04Z</time></trkpt><trkpt lat="35.404893327448036" lon="-6.020577348815272"><ele>50.0</ele><time>2026-04-28T14:49:05Z</time></trkpt><trkpt lat="35.40520887467226" lon="-6.020649019264001"><ele>49.5</ele><time>2026-04-28T14:49:06Z</time></trkpt><trkpt lat="35.40552558591256" lon="-6.020726455004981"><ele>49.0</ele><time>2026-04-28T14:49:07Z</time></trkpt><trkpt lat="35.405842183307556" lon="-6.020810300447249"><ele>48.0</ele><time>2026-04-28T14:49:08Z</time></trkpt><trkpt lat="35.406158278715345" lon="-6.020897603552914"><ele>47.0</ele><time>2026-04-28T14:49:09Z</time></trkpt><trkpt lat="35.40647432152292" lon="-6.02098479491174"><ele>46.0</ele><time>2026-04-28T14:49:10Z</time></trkpt><trkpt lat="35.40679172191001" lon="-6.021072958013814"><ele>45.0</ele><time>2026-04-28T14:49:11Z</time></trkpt><trkpt lat="35.4071097375318" lon="-6.02116121159718"><ele>45.0</ele><time>2026-04-28T14:49:12Z</time></trkpt><trkpt lat="35.40742826937544" lon="-6.021249640769463"><ele>45.0</ele><time>2026-04-28T14:49:13Z</time></trkpt><trkpt lat="35.40774636805101" lon="-6.021336349114191"><ele>45.5</ele><time>2026-04-28T14:49:14Z</time></trkpt><trkpt lat="35.40806445173087" lon="-6.021422294873834"><ele>46.0</ele><time>2026-04-28T14:49:15Z</time></trkpt><trkpt lat="35.40838249450392" lon="-6.021508837360284"><ele>46.0</ele><time>2026-04-28T14:49:16Z</time></trkpt><trkpt lat="35.40870052745897" lon="-6.021596801794444"><ele>46.0</ele><time>2026-04-28T14:49:17Z</time></trkpt><trkpt lat="35.40901781897929" lon="-6.021685243641413"><ele>45.0</ele><time>2026-04-28T14:49:18Z</time></trkpt><trkpt lat="35.40933549149495" lon="-6.021773460260766"><ele>44.0</ele><time>2026-04-28T14:49:19Z</time></trkpt><trkpt lat="35.40965282561937" lon="-6.021860746072391"><ele>44.5</ele><time>2026-04-28T14:49:20Z</time></trkpt><trkpt lat="35.40997090572823" lon="-6.021947176392041"><ele>45.0</ele><time>2026-04-28T14:49:21Z</time></trkpt><trkpt lat="35.41028820966414" lon="-6.022033717532437"><ele>46.0</ele><time>2026-04-28T14:49:22Z</time></trkpt><trkpt lat="35.410605288332" lon="-6.0221215582462415"><ele>47.0</ele><time>2026-04-28T14:49:23Z</time></trkpt><trkpt lat="35.41092152758088" lon="-6.022209677883344"><ele>47.0</ele><time>2026-04-28T14:49:24Z</time></trkpt><trkpt lat="35.4112400986384" lon="-6.022298359323244"><ele>47.0</ele><time>2026-04-28T14:49:25Z</time></trkpt><trkpt lat="35.4115575795724" lon="-6.0223867506983355"><ele>47.0</ele><time>2026-04-28T14:49:26Z</time></trkpt><trkpt lat="35.411877949650545" lon="-6.02247472979936"><ele>47.0</ele><time>2026-04-28T14:49:27Z</time></trkpt><trkpt lat="35.41219798140006" lon="-6.022562726757123"><ele>46.5</ele><time>2026-04-28T14:49:28Z</time></trkpt><trkpt lat="35.41251973474454" lon="-6.022651182398732"><ele>46.0</ele><time>2026-04-28T14:49:29Z</time></trkpt><trkpt lat="35.412840477919346" lon="-6.022738440640783"><ele>45.5</ele><time>2026-04-28T14:49:30Z</time></trkpt><trkpt lat="35.41316184329059" lon="-6.0228268626642025"><ele>45.0</ele><time>2026-04-28T14:49:31Z</time></trkpt><trkpt lat="35.41348503451158" lon="-6.02291508202963"><ele>45.0</ele><time>2026-04-28T14:49:32Z</time></trkpt><trkpt lat="35.41380794980348" lon="-6.023003988886798"><ele>45.0</ele><time>2026-04-28T14:49:33Z</time></trkpt><trkpt lat="35.41413223482219" lon="-6.023092885979514"><ele>46.0</ele><time>2026-04-28T14:49:34Z</time></trkpt><trkpt lat="35.41445631486724" lon="-6.023183235977671"><ele>47.0</ele><time>2026-04-28T14:49:35Z</time></trkpt><trkpt lat="35.41478045316467" lon="-6.023274380141805"><ele>45.0</ele><time>2026-04-28T14:49:36Z</time></trkpt><trkpt lat="35.41510317793106" lon="-6.023364308708534"><ele>43.0</ele><time>2026-04-28T14:49:37Z</time></trkpt><trkpt lat="35.41542673563075" lon="-6.0234539405496035"><ele>44.5</ele><time>2026-04-28T14:49:38Z</time></trkpt><trkpt lat="35.415749894200204" lon="-6.023543493594013"><ele>46.0</ele><time>2026-04-28T14:49:39Z</time></trkpt><trkpt lat="35.41607275055239" lon="-6.023633000719801"><ele>46.0</ele><time>2026-04-28T14:49:40Z</time></trkpt><trkpt lat="35.416393772228204" lon="-6.023722830212068"><ele>46.0</ele><time>2026-04-28T14:49:41Z</time></trkpt><trkpt lat="35.416713062394656" lon="-6.023815097485628"><ele>46.0</ele><time>2026-04-28T14:49:42Z</time></trkpt><trkpt lat="35.41703450089699" lon="-6.02390979850399"><ele>46.0</ele><time>2026-04-28T14:49:43Z</time></trkpt><trkpt lat="35.41735572111442" lon="-6.024001643162832"><ele>45.0</ele><time>2026-04-28T14:49:44Z</time></trkpt><trkpt lat="35.417676906444015" lon="-6.024094100472561"><ele>44.0</ele><time>2026-04-28T14:49:45Z</time></trkpt><trkpt lat="35.417996056733855" lon="-6.024184485250126"><ele>41.5</ele><time>2026-04-28T14:49:46Z</time></trkpt><trkpt lat="35.418318281788046" lon="-6.024273698201987"><ele>39.0</ele><time>2026-04-28T14:49:47Z</time></trkpt><trkpt lat="35.418636774355626" lon="-6.024363592509768"><ele>39.0</ele><time>2026-04-28T14:49:48Z</time></trkpt><trkpt lat="35.418954370071795" lon="-6.024452867400808"><ele>39.0</ele><time>2026-04-28T14:49:48.999Z</time></trkpt><trkpt lat="35.419271816406926" lon="-6.024541275247788"><ele>39.0</ele><time>2026-04-28T14:49:49.999Z</time></trkpt><trkpt lat="35.41959023784366" lon="-6.024629460366834"><ele>39.0</ele><time>2026-04-28T14:49:50.999Z</time></trkpt><trkpt lat="35.419906853585566" lon="-6.024716480734933"><ele>38.5</ele><time>2026-04-28T14:49:51.999Z</time></trkpt><trkpt lat="35.4202209886209" lon="-6.024802275722242"><ele>38.0</ele><time>2026-04-28T14:49:52.999Z</time></trkpt><trkpt lat="35.42053405415657" lon="-6.024886828674434"><ele>37.5</ele><time>2026-04-28T14:49:53.999Z</time></trkpt><trkpt lat="35.420849265643774" lon="-6.0249744186771625"><ele>37.0</ele><time>2026-04-28T14:49:54.999Z</time></trkpt><trkpt lat="35.42116694585049" lon="-6.025061776112161"><ele>34.0</ele><time>2026-04-28T14:49:55.999Z</time></trkpt><trkpt lat="35.4214834884563" lon="-6.025150914545394"><ele>31.0</ele><time>2026-04-28T14:49:56.999Z</time></trkpt><trkpt lat="35.42179797323139" lon="-6.025237833757588"><ele>31.0</ele><time>2026-04-28T14:49:57.999Z</time></trkpt><trkpt lat="35.42211415410432" lon="-6.025323930002066"><ele>31.0</ele><time>2026-04-28T14:49:58.999Z</time></trkpt><trkpt lat="35.422429458375994" lon="-6.025410940482419"><ele>31.5</ele><time>2026-04-28T14:49:59.999Z</time></trkpt><trkpt lat="35.42274712677063" lon="-6.025497041439323"><ele>32.0</ele><time>2026-04-28T14:50:00.999Z</time></trkpt><trkpt lat="35.423064183597354" lon="-6.025581537532684"><ele>32.0</ele><time>2026-04-28T14:50:01.999Z</time></trkpt><trkpt lat="35.423379014843086" lon="-6.025665934511228"><ele>32.0</ele><time>2026-04-28T14:50:02.999Z</time></trkpt><trkpt lat="35.423688751739604" lon="-6.025750631620755"><ele>32.5</ele><time>2026-04-28T14:50:03.999Z</time></trkpt><trkpt lat="35.423990558955076" lon="-6.025835739941507"><ele>33.0</ele><time>2026-04-28T14:50:04.999Z</time></trkpt><trkpt lat="35.42428828769629" lon="-6.025920156398068"><ele>33.0</ele><time>2026-04-28T14:50:05.999Z</time></trkpt><trkpt lat="35.424586939431066" lon="-6.026003538200226"><ele>33.0</ele><time>2026-04-28T14:50:06.999Z</time></trkpt><trkpt lat="35.424884420198" lon="-6.0260866476562125"><ele>38.0</ele><time>2026-04-28T14:50:07.999Z</time></trkpt><trkpt lat="35.425178011826745" lon="-6.026169046072055"><ele>43.0</ele><time>2026-04-28T14:50:08.999Z</time></trkpt><trkpt lat="35.42547002883116" lon="-6.0262504248652915"><ele>45.5</ele><time>2026-04-28T14:50:09.999Z</time></trkpt><trkpt lat="35.42576090185169" lon="-6.026328358052506"><ele>48.0</ele><time>2026-04-28T14:50:10.999Z</time></trkpt><trkpt lat="35.42605446787926" lon="-6.026407052356096"><ele>49.5</ele><time>2026-04-28T14:50:11.999Z</time></trkpt><trkpt lat="35.42635522653667" lon="-6.026489301545377"><ele>51.0</ele><time>2026-04-28T14:50:12.999Z</time></trkpt><trkpt lat="35.42665454592839" lon="-6.026568198142586"><ele>57.0</ele><time>2026-04-28T14:50:13.999Z</time></trkpt><trkpt lat="35.426955743504536" lon="-6.026645100536026"><ele>63.0</ele><time>2026-04-28T14:50:14.999Z</time></trkpt><trkpt lat="35.42726328620616" lon="-6.026719333239919"><ele>65.0</ele><time>2026-04-28T14:50:15.999Z</time></trkpt><trkpt lat="35.42757528840233" lon="-6.026788749806454"><ele>67.0</ele><time>2026-04-28T14:50:16.999Z</time></trkpt><trkpt lat="35.4278919334559" lon="-6.026852248410701"><ele>69.0</ele><time>2026-04-28T14:50:17.999Z</time></trkpt><trkpt lat="35.42821098042416" lon="-6.026911810423571"><ele>71.0</ele><time>2026-04-28T14:50:18.999Z</time></trkpt><trkpt lat="35.42853246084755" lon="-6.026967555133197"><ele>73.0</ele><time>2026-04-28T14:50:19.999Z</time></trkpt><trkpt lat="35.42885614059572" lon="-6.027018873727255"><ele>75.0</ele><time>2026-04-28T14:50:20.999Z</time></trkpt><trkpt lat="35.42917999650997" lon="-6.0270631364296845"><ele>75.0</ele><time>2026-04-28T14:50:21.999Z</time></trkpt><trkpt lat="35.42949710789857" lon="-6.027099536174516"><ele>75.0</ele><time>2026-04-28T14:50:22.999Z</time></trkpt><trkpt lat="35.42980625872334" lon="-6.0271310177170445"><ele>78.0</ele><time>2026-04-28T14:50:23.999Z</time></trkpt><trkpt lat="35.43011093785657" lon="-6.027159207421221"><ele>81.0</ele><time>2026-04-28T14:50:24.999Z</time></trkpt><trkpt lat="35.43041571650252" lon="-6.027182771620968"><ele>82.0</ele><time>2026-04-28T14:50:25.999Z</time></trkpt><trkpt lat="35.4307233979282" lon="-6.027203510741128"><ele>83.0</ele><time>2026-04-28T14:50:26.999Z</time></trkpt><trkpt lat="35.43103301688439" lon="-6.027220045253196"><ele>80.0</ele><time>2026-04-28T14:50:27.999Z</time></trkpt><trkpt lat="35.431342451767016" lon="-6.027231867162251"><ele>77.0</ele><time>2026-04-28T14:50:29Z</time></trkpt><trkpt lat="35.431650158505406" lon="-6.0272367607214425"><ele>77.0</ele><time>2026-04-28T14:50:30Z</time></trkpt><trkpt lat="35.43195745739765" lon="-6.027236499246781"><ele>77.0</ele><time>2026-04-28T14:50:31Z</time></trkpt><trkpt lat="35.432266314710134" lon="-6.027231606757893"><ele>74.5</ele><time>2026-04-28T14:50:32Z</time></trkpt><trkpt lat="35.43257456745214" lon="-6.027222779858041"><ele>72.0</ele><time>2026-04-28T14:50:33Z</time></trkpt><trkpt lat="35.43288342607288" lon="-6.027212907065195"><ele>71.0</ele><time>2026-04-28T14:50:34Z</time></trkpt><trkpt lat="35.4331941244294" lon="-6.027196918294316"><ele>70.0</ele><time>2026-04-28T14:50:35Z</time></trkpt><trkpt lat="35.43350498553664" lon="-6.027170831784904"><ele>70.0</ele><time>2026-04-28T14:50:36Z</time></trkpt><trkpt lat="35.433814852931654" lon="-6.027142094209564"><ele>70.0</ele><time>2026-04-28T14:50:37Z</time></trkpt><trkpt lat="35.43412366588374" lon="-6.0271099277222975"><ele>70.0</ele><time>2026-04-28T14:50:38Z</time></trkpt><trkpt lat="35.43443063873391" lon="-6.027074697811695"><ele>70.0</ele><time>2026-04-28T14:50:39Z</time></trkpt><trkpt lat="35.43473256029301" lon="-6.02703720079822"><ele>69.0</ele><time>2026-04-28T14:50:40Z</time></trkpt><trkpt lat="35.43503494140128" lon="-6.0269961039979165"><ele>68.0</ele><time>2026-04-28T14:50:41Z</time></trkpt><trkpt lat="35.43534085565563" lon="-6.026947250048627"><ele>68.0</ele><time>2026-04-28T14:50:42Z</time></trkpt><trkpt lat="35.43564800559539" lon="-6.026890779217042"><ele>68.0</ele><time>2026-04-28T14:50:43Z</time></trkpt><trkpt lat="35.435950356835136" lon="-6.026829923408018"><ele>68.0</ele><time>2026-04-28T14:50:44Z</time></trkpt><trkpt lat="35.436252847030296" lon="-6.026764205797283"><ele>68.0</ele><time>2026-04-28T14:50:45Z</time></trkpt><trkpt lat="35.436546843628726" lon="-6.026696411447286"><ele>67.5</ele><time>2026-04-28T14:50:46Z</time></trkpt><trkpt lat="35.43683444323577" lon="-6.026627992237792"><ele>67.0</ele><time>2026-04-28T14:50:47Z</time></trkpt><trkpt lat="35.43711881881695" lon="-6.026554861114875"><ele>67.5</ele><time>2026-04-28T14:50:48Z</time></trkpt><trkpt lat="35.43740187745289" lon="-6.026479401231952"><ele>68.0</ele><time>2026-04-28T14:50:49Z</time></trkpt><trkpt lat="35.437685053493574" lon="-6.026401325752166"><ele>67.0</ele><time>2026-04-28T14:50:50Z</time></trkpt><trkpt lat="35.43796926520821" lon="-6.02631946696953"><ele>66.0</ele><time>2026-04-28T14:50:51Z</time></trkpt><trkpt lat="35.43825608486962" lon="-6.02623066507755"><ele>66.0</ele><time>2026-04-28T14:50:52Z</time></trkpt><trkpt lat="35.43854604443218" lon="-6.0261340918388235"><ele>66.0</ele><time>2026-04-28T14:50:53Z</time></trkpt><trkpt lat="35.43883343603105" lon="-6.026034598666771"><ele>66.5</ele><time>2026-04-28T14:50:54Z</time></trkpt><trkpt lat="35.43912484516466" lon="-6.025931510192595"><ele>67.0</ele><time>2026-04-28T14:50:55Z</time></trkpt><trkpt lat="35.439415153432165" lon="-6.025826065652741"><ele>67.5</ele><time>2026-04-28T14:50:56Z</time></trkpt><trkpt lat="35.43970708335544" lon="-6.025719907402628"><ele>68.0</ele><time>2026-04-28T14:50:57Z</time></trkpt><trkpt lat="35.43999698232278" lon="-6.025616276156899"><ele>68.0</ele><time>2026-04-28T14:50:58Z</time></trkpt><trkpt lat="35.44028766846608" lon="-6.025512946302121"><ele>68.0</ele><time>2026-04-28T14:50:59Z</time></trkpt><trkpt lat="35.44057554995062" lon="-6.025412034760128"><ele>65.0</ele><time>2026-04-28T14:51:00Z</time></trkpt><trkpt lat="35.44086639993565" lon="-6.025309002056335"><ele>62.0</ele><time>2026-04-28T14:51:01Z</time></trkpt><trkpt lat="35.4411542958917" lon="-6.025206352381275"><ele>62.0</ele><time>2026-04-28T14:51:02Z</time></trkpt><trkpt lat="35.441438122912984" lon="-6.02510456607334"><ele>62.0</ele><time>2026-04-28T14:51:03Z</time></trkpt><trkpt lat="35.4417182735376" lon="-6.025001855331104"><ele>60.5</ele><time>2026-04-28T14:51:04Z</time></trkpt><trkpt lat="35.441998664750294" lon="-6.0249006099847096"><ele>59.0</ele><time>2026-04-28T14:51:05Z</time></trkpt><trkpt lat="35.442279594351774" lon="-6.024801176963317"><ele>63.5</ele><time>2026-04-28T14:51:06Z</time></trkpt><trkpt lat="35.44255902835035" lon="-6.024700994348069"><ele>68.0</ele><time>2026-04-28T14:51:07Z</time></trkpt><trkpt lat="35.442840231352115" lon="-6.0246018768217295"><ele>71.0</ele><time>2026-04-28T14:51:08Z</time></trkpt><trkpt lat="35.44311853003279" lon="-6.0245052973773126"><ele>74.0</ele><time>2026-04-28T14:51:09Z</time></trkpt><trkpt lat="35.44339175177577" lon="-6.024409656957853"><ele>74.0</ele><time>2026-04-28T14:51:10Z</time></trkpt><trkpt lat="35.44366471743811" lon="-6.024312447427774"><ele>74.0</ele><time>2026-04-28T14:51:11Z</time></trkpt><trkpt lat="35.44394134689295" lon="-6.024214766087489"><ele>71.5</ele><time>2026-04-28T14:51:12Z</time></trkpt><trkpt lat="35.44422042340791" lon="-6.024115364597503"><ele>69.0</ele><time>2026-04-28T14:51:13Z</time></trkpt><trkpt lat="35.44449742059119" lon="-6.024015554020662"><ele>66.0</ele><time>2026-04-28T14:51:14Z</time></trkpt><trkpt lat="35.444773358608636" lon="-6.023918394721244"><ele>63.0</ele><time>2026-04-28T14:51:15Z</time></trkpt><trkpt lat="35.445054474143674" lon="-6.023818432143555"><ele>63.0</ele><time>2026-04-28T14:51:16Z</time></trkpt><trkpt lat="35.4453405832203" lon="-6.023713788213402"><ele>63.0</ele><time>2026-04-28T14:51:17Z</time></trkpt><trkpt lat="35.44561941697306" lon="-6.0236107049719685"><ele>63.0</ele><time>2026-04-28T14:51:18Z</time></trkpt><trkpt lat="35.445894463695986" lon="-6.02351117797456"><ele>63.0</ele><time>2026-04-28T14:51:19Z</time></trkpt><trkpt lat="35.44616789531483" lon="-6.023413521269879"><ele>63.5</ele><time>2026-04-28T14:51:20Z</time></trkpt><trkpt lat="35.446435742725626" lon="-6.023319436489407"><ele>64.0</ele><time>2026-04-28T14:51:21Z</time></trkpt><trkpt lat="35.44669509619996" lon="-6.023226392239325"><ele>64.0</ele><time>2026-04-28T14:51:22Z</time></trkpt><trkpt lat="35.446947547056304" lon="-6.023134524243671"><ele>64.0</ele><time>2026-04-28T14:51:23Z</time></trkpt><trkpt lat="35.44719188192033" lon="-6.023045683220248"><ele>64.0</ele><time>2026-04-28T14:51:24Z</time></trkpt><trkpt lat="35.44742682078225" lon="-6.022961966807214"><ele>64.0</ele><time>2026-04-28T14:51:25Z</time></trkpt><trkpt lat="35.447654623691676" lon="-6.022882610428398"><ele>64.0</ele><time>2026-04-28T14:51:26Z</time></trkpt><trkpt lat="35.44787245596919" lon="-6.02280841497389"><ele>64.0</ele><time>2026-04-28T14:51:27Z</time></trkpt><trkpt lat="35.44808315174986" lon="-6.022736669888028"><ele>64.0</ele><time>2026-04-28T14:51:28Z</time></trkpt><trkpt lat="35.44828839122141" lon="-6.022666053077345"><ele>63.5</ele><time>2026-04-28T14:51:29Z</time></trkpt><trkpt lat="35.448501976796265" lon="-6.02259681598774"><ele>63.0</ele><time>2026-04-28T14:51:30Z</time></trkpt><trkpt lat="35.44873072889514" lon="-6.022520932193759"><ele>62.5</ele><time>2026-04-28T14:51:31Z</time></trkpt><trkpt lat="35.448960614819455" lon="-6.022437303566347"><ele>62.0</ele><time>2026-04-28T14:51:32Z</time></trkpt><trkpt lat="35.44918374598942" lon="-6.022350935785824"><ele>62.0</ele><time>2026-04-28T14:51:33Z</time></trkpt><trkpt lat="35.44939862298198" lon="-6.022264305768603"><ele>62.0</ele><time>2026-04-28T14:51:34Z</time></trkpt><trkpt lat="35.44960455394176" lon="-6.022179665805797"><ele>62.0</ele><time>2026-04-28T14:51:35Z</time></trkpt><trkpt lat="35.44979832029736" lon="-6.0220989800196145"><ele>61.0</ele><time>2026-04-28T14:51:36Z</time></trkpt><trkpt lat="35.44998523395698" lon="-6.022021659224537"><ele>60.0</ele><time>2026-04-28T14:51:37Z</time></trkpt><trkpt lat="35.450160444215" lon="-6.021945860431144"><ele>59.0</ele><time>2026-04-28T14:51:38Z</time></trkpt><trkpt lat="35.45032469813247" lon="-6.021875460080681"><ele>59.0</ele><time>2026-04-28T14:51:39Z</time></trkpt><trkpt lat="35.450482774607316" lon="-6.021808176212067"><ele>59.0</ele><time>2026-04-28T14:51:40Z</time></trkpt><trkpt lat="35.45063197994965" lon="-6.0217443119092975"><ele>59.0</ele><time>2026-04-28T14:51:41Z</time></trkpt><trkpt lat="35.45077431669621" lon="-6.021682790538413"><ele>58.25</ele><time>2026-04-28T14:51:42Z</time></trkpt><trkpt lat="35.450912658021394" lon="-6.021621053377091"><ele>57.5</ele><time>2026-04-28T14:51:43Z</time></trkpt><trkpt lat="35.4510445071547" lon="-6.021561123127958"><ele>56.75</ele><time>2026-04-28T14:51:44Z</time></trkpt><trkpt lat="35.45116667930737" lon="-6.021503612467552"><ele>56.0</ele><time>2026-04-28T14:51:45Z</time></trkpt><trkpt lat="35.45128258826015" lon="-6.021447003217645"><ele>56.0</ele><time>2026-04-28T14:51:46Z</time></trkpt><trkpt lat="35.451390543234496" lon="-6.021392515177441"><ele>55.99999999999999</ele><time>2026-04-28T14:51:47Z</time></trkpt><trkpt lat="35.451495313293584" lon="-6.021340417331147"><ele>55.99999999999999</ele><time>2026-04-28T14:51:48Z</time></trkpt><trkpt lat="35.451596671137224" lon="-6.021290657478569"><ele>56.0</ele><time>2026-04-28T14:51:49Z</time></trkpt><trkpt lat="35.45169449573084" lon="-6.021241622476161"><ele>56.0</ele><time>2026-04-28T14:51:50Z</time></trkpt><trkpt lat="35.451788962878716" lon="-6.021193742240999"><ele>56.0</ele><time>2026-04-28T14:51:51Z</time></trkpt><trkpt lat="35.45187990888637" lon="-6.021147669919207"><ele>55.99999999999999</ele><time>2026-04-28T14:51:52Z</time></trkpt><trkpt lat="35.451965932265885" lon="-6.021104783291325"><ele>55.99999999999999</ele><time>2026-04-28T14:51:53Z</time></trkpt><trkpt lat="35.452044712135354" lon="-6.021067085079904"><ele>56.0</ele><time>2026-04-28T14:51:54Z</time></trkpt><trkpt lat="35.45211173229757" lon="-6.021033510170916"><ele>56.0</ele><time>2026-04-28T14:51:54.999Z</time></trkpt><trkpt lat="35.452215154969124" lon="-6.020975369093592"><ele>55.66666666666667</ele><time>2026-04-28T14:51:56.999Z</time></trkpt><trkpt lat="35.45229699740692" lon="-6.020935062880431"><ele>55.333333333333336</ele><time>2026-04-28T14:51:58.999Z</time></trkpt><trkpt lat="35.45237661376386" lon="-6.020901604095347"><ele>55.0</ele><time>2026-04-28T14:52:00.999Z</time></trkpt><trkpt lat="35.45243537413817" lon="-6.020872370505851"><ele>54.66666666666667</ele><time>2026-04-28T14:52:03.999Z</time></trkpt><trkpt lat="35.45253352197735" lon="-6.020819488746624"><ele>54.333333333333336</ele><time>2026-04-28T14:52:06.999Z</time></trkpt><trkpt lat="35.45259865358748" lon="-6.0207964295284775"><ele>54.0</ele><time>2026-04-28T14:52:07.999Z</time></trkpt><trkpt lat="35.4526742754388" lon="-6.020771880723131"><ele>53.6</ele><time>2026-04-28T14:52:08.999Z</time></trkpt><trkpt lat="35.45274870776014" lon="-6.020753415112712"><ele>53.2</ele><time>2026-04-28T14:52:09.999Z</time></trkpt><trkpt lat="35.452816698340705" lon="-6.020739804210281"><ele>52.800000000000004</ele><time>2026-04-28T14:52:10.999Z</time></trkpt><trkpt lat="35.45293187811479" lon="-6.020721106721907"><ele>52.400000000000006</ele><time>2026-04-28T14:52:12.999Z</time></trkpt><trkpt lat="35.45304042304736" lon="-6.020702919184291"><ele>52.0</ele><time>2026-04-28T14:52:14.999Z</time></trkpt><trkpt lat="35.45317090721539" lon="-6.02067411832742"><ele>52.0</ele><time>2026-04-28T14:52:16.999Z</time></trkpt><trkpt lat="35.453245345287726" lon="-6.02064498201642"><ele>52.0</ele><time>2026-04-28T14:52:17.999Z</time></trkpt><trkpt lat="35.453329366555536" lon="-6.020610602269816"><ele>52.0</ele><time>2026-04-28T14:52:18.999Z</time></trkpt><trkpt lat="35.45341910215277" lon="-6.020566170122153"><ele>52.0</ele><time>2026-04-28T14:52:19.999Z</time></trkpt><trkpt lat="35.4535120182571" lon="-6.020517491674594"><ele>52.0</ele><time>2026-04-28T14:52:20.999Z</time></trkpt><trkpt lat="35.453609161932825" lon="-6.020462661273209"><ele>52.0</ele><time>2026-04-28T14:52:21.999Z</time></trkpt><trkpt lat="35.45371172589204" lon="-6.02040206088973"><ele>52.0</ele><time>2026-04-28T14:52:22.999Z</time></trkpt><trkpt lat="35.453820127722096" lon="-6.020336337216062"><ele>52.0</ele><time>2026-04-28T14:52:23.999Z</time></trkpt><trkpt lat="35.45393349373996" lon="-6.020267687650391"><ele>52.0</ele><time>2026-04-28T14:52:24.999Z</time></trkpt><trkpt lat="35.4540486557285" lon="-6.020197755598697"><ele>52.0</ele><time>2026-04-28T14:52:25.999Z</time></trkpt><trkpt lat="35.454166717891546" lon="-6.020125552803248"><ele>52.0</ele><time>2026-04-28T14:52:26.999Z</time></trkpt><trkpt lat="35.45428557201328" lon="-6.020052396901947"><ele>52.0</ele><time>2026-04-28T14:52:27.999Z</time></trkpt><trkpt lat="35.45440509223686" lon="-6.01997538361206"><ele>52.0</ele><time>2026-04-28T14:52:28.999Z</time></trkpt><trkpt lat="35.45452781369789" lon="-6.019898013220124"><ele>50.5</ele><time>2026-04-28T14:52:29.999Z</time></trkpt><trkpt lat="35.454654482664075" lon="-6.019816843578057"><ele>49.0</ele><time>2026-04-28T14:52:30.999Z</time></trkpt><trkpt lat="35.454783932071585" lon="-6.019733696944768"><ele>47.5</ele><time>2026-04-28T14:52:31.999Z</time></trkpt><trkpt lat="35.45491919138991" lon="-6.019649087616325"><ele>46.0</ele><time>2026-04-28T14:52:32.999Z</time></trkpt><trkpt lat="35.45505796006286" lon="-6.019562235426084"><ele>46.0</ele><time>2026-04-28T14:52:33.999Z</time></trkpt><trkpt lat="35.455199833550765" lon="-6.019470177094519"><ele>46.0</ele><time>2026-04-28T14:52:35Z</time></trkpt><trkpt lat="35.45534472230592" lon="-6.019376037220887"><ele>46.0</ele><time>2026-04-28T14:52:36Z</time></trkpt><trkpt lat="35.455490162613884" lon="-6.0192760391520155"><ele>47.0</ele><time>2026-04-28T14:52:37Z</time></trkpt><trkpt lat="35.455636135838624" lon="-6.019173638394156"><ele>48.0</ele><time>2026-04-28T14:52:38Z</time></trkpt><trkpt lat="35.45578336225315" lon="-6.019069251479019"><ele>49.0</ele><time>2026-04-28T14:52:39Z</time></trkpt><trkpt lat="35.45593198875692" lon="-6.018962542398498"><ele>49.0</ele><time>2026-04-28T14:52:40Z</time></trkpt><trkpt lat="35.456082741395605" lon="-6.018853208109197"><ele>49.0</ele><time>2026-04-28T14:52:41Z</time></trkpt><trkpt lat="35.45623213029448" lon="-6.018746969674207"><ele>49.0</ele><time>2026-04-28T14:52:42Z</time></trkpt><trkpt lat="35.45637988768491" lon="-6.018639531304489"><ele>49.0</ele><time>2026-04-28T14:52:43Z</time></trkpt><trkpt lat="35.45652715565912" lon="-6.018530109872517"><ele>49.0</ele><time>2026-04-28T14:52:44Z</time></trkpt><trkpt lat="35.45667461204656" lon="-6.018419893074158"><ele>49.0</ele><time>2026-04-28T14:52:45Z</time></trkpt><trkpt lat="35.456823272293974" lon="-6.01830783118367"><ele>49.33333333333333</ele><time>2026-04-28T14:52:46Z</time></trkpt><trkpt lat="35.45696970913456" lon="-6.018192766008225"><ele>49.66666666666667</ele><time>2026-04-28T14:52:47Z</time></trkpt><trkpt lat="35.457112950838166" lon="-6.0180773264662"><ele>50.0</ele><time>2026-04-28T14:52:48Z</time></trkpt><trkpt lat="35.45725161944053" lon="-6.017963741222006"><ele>50.0</ele><time>2026-04-28T14:52:49Z</time></trkpt><trkpt lat="35.45738837580708" lon="-6.0178530854783405"><ele>50.0</ele><time>2026-04-28T14:52:50Z</time></trkpt><trkpt lat="35.45752259745412" lon="-6.017742407944479"><ele>50.0</ele><time>2026-04-28T14:52:51Z</time></trkpt><trkpt lat="35.45765437362746" lon="-6.017628425209931"><ele>50.0</ele><time>2026-04-28T14:52:52Z</time></trkpt><trkpt lat="35.45778542302802" lon="-6.0175147275799326"><ele>50.0</ele><time>2026-04-28T14:52:53Z</time></trkpt><trkpt lat="35.45791635277954" lon="-6.017402210241909"><ele>50.0</ele><time>2026-04-28T14:52:54Z</time></trkpt><trkpt lat="35.45804920875208" lon="-6.017288434774605"><ele>47.66666666666667</ele><time>2026-04-28T14:52:55Z</time></trkpt><trkpt lat="35.45818082418381" lon="-6.0171738968279"><ele>45.333333333333336</ele><time>2026-04-28T14:52:56Z</time></trkpt><trkpt lat="35.45831336407208" lon="-6.0170567976532645"><ele>43.0</ele><time>2026-04-28T14:52:57Z</time></trkpt><trkpt lat="35.458447859028354" lon="-6.0169369210588615"><ele>43.0</ele><time>2026-04-28T14:52:58Z</time></trkpt><trkpt lat="35.45858092909443" lon="-6.016817528147494"><ele>43.0</ele><time>2026-04-28T14:52:59Z</time></trkpt><trkpt lat="35.458712903188456" lon="-6.01669876131326"><ele>43.0</ele><time>2026-04-28T14:53:00Z</time></trkpt><trkpt lat="35.45884165747196" lon="-6.016581946869445"><ele>38.333333333333336</ele><time>2026-04-28T14:53:01Z</time></trkpt><trkpt lat="35.45896486221486" lon="-6.016467510880011"><ele>33.666666666666664</ele><time>2026-04-28T14:53:02Z</time></trkpt><trkpt lat="35.45908417641236" lon="-6.0163554021215635"><ele>29.0</ele><time>2026-04-28T14:53:03Z</time></trkpt><trkpt lat="35.4592030281884" lon="-6.016244104207963"><ele>29.0</ele><time>2026-04-28T14:53:04Z</time></trkpt><trkpt lat="35.45931832944997" lon="-6.016133572192694"><ele>29.0</ele><time>2026-04-28T14:53:05Z</time></trkpt><trkpt lat="35.45943087325074" lon="-6.016023265579014"><ele>29.0</ele><time>2026-04-28T14:53:06Z</time></trkpt><trkpt lat="35.459530221809196" lon="-6.015897163308013"><ele>29.0</ele><time>2026-04-28T14:53:07Z</time></trkpt><trkpt lat="35.45963437164447" lon="-6.0157832328905965"><ele>25.0</ele><time>2026-04-28T14:53:08Z</time></trkpt><trkpt lat="35.45973748594657" lon="-6.015670435194549"><ele>21.0</ele><time>2026-04-28T14:53:09Z</time></trkpt><trkpt lat="35.459836780214616" lon="-6.015553377786216"><ele>17.0</ele><time>2026-04-28T14:53:10Z</time></trkpt><trkpt lat="35.459937740372204" lon="-6.015435051291727"><ele>13.0</ele><time>2026-04-28T14:53:11Z</time></trkpt><trkpt lat="35.46003881094147" lon="-6.015316595166982"><ele>13.0</ele><time>2026-04-28T14:53:12Z</time></trkpt><trkpt lat="35.4601421344541" lon="-6.015198570092042"><ele>13.0</ele><time>2026-04-28T14:53:13Z</time></trkpt><trkpt lat="35.460245757616136" lon="-6.015083341508957"><ele>13.0</ele><time>2026-04-28T14:53:14Z</time></trkpt><trkpt lat="35.460349103941525" lon="-6.014968473325313"><ele>13.0</ele><time>2026-04-28T14:53:15Z</time></trkpt><trkpt lat="35.4604523612102" lon="-6.0148537039973995"><ele>11.5</ele><time>2026-04-28T14:53:16Z</time></trkpt><trkpt lat="35.46055977732763" lon="-6.01474012877796"><ele>10.0</ele><time>2026-04-28T14:53:17Z</time></trkpt><trkpt lat="35.46066789240367" lon="-6.014626238475791"><ele>8.5</ele><time>2026-04-28T14:53:18Z</time></trkpt><trkpt lat="35.46077721173347" lon="-6.014511042039617"><ele>7.0</ele><time>2026-04-28T14:53:19Z</time></trkpt><trkpt lat="35.46088844780637" lon="-6.014394317921019"><ele>7.0</ele><time>2026-04-28T14:53:20Z</time></trkpt><trkpt lat="35.4610007917847" lon="-6.014275733989339"><ele>7.0</ele><time>2026-04-28T14:53:21Z</time></trkpt><trkpt lat="35.46111363026976" lon="-6.014156628648162"><ele>7.0</ele><time>2026-04-28T14:53:22Z</time></trkpt><trkpt lat="35.46122360401758" lon="-6.014036551123997"><ele>7.0</ele><time>2026-04-28T14:53:23Z</time></trkpt><trkpt lat="35.46133504395754" lon="-6.013907548441376"><ele>7.666666666666667</ele><time>2026-04-28T14:53:24Z</time></trkpt><trkpt lat="35.4614460110793" lon="-6.013779093351552"><ele>8.333333333333334</ele><time>2026-04-28T14:53:25Z</time></trkpt><trkpt lat="35.46155622974835" lon="-6.013651504763535"><ele>9.0</ele><time>2026-04-28T14:53:26Z</time></trkpt><trkpt lat="35.461664329217555" lon="-6.0135263690649"><ele>9.0</ele><time>2026-04-28T14:53:27Z</time></trkpt><trkpt lat="35.461765231764424" lon="-6.013409564464921"><ele>9.0</ele><time>2026-04-28T14:53:28Z</time></trkpt><trkpt lat="35.46186038061834" lon="-6.013299420506677"><ele>9.0</ele><time>2026-04-28T14:53:29Z</time></trkpt><trkpt lat="35.46195117212053" lon="-6.013194320525887"><ele>9.0</ele><time>2026-04-28T14:53:30Z</time></trkpt><trkpt lat="35.4620391334437" lon="-6.013092496774475"><ele>10.0</ele><time>2026-04-28T14:53:31Z</time></trkpt><trkpt lat="35.46212851049246" lon="-6.012989488906266"><ele>11.0</ele><time>2026-04-28T14:53:32Z</time></trkpt><trkpt lat="35.46222008614037" lon="-6.012885187745361"><ele>12.0</ele><time>2026-04-28T14:53:33Z</time></trkpt><trkpt lat="35.462315152876364" lon="-6.012775583098252"><ele>13.0</ele><time>2026-04-28T14:53:34Z</time></trkpt><trkpt lat="35.46241820852828" lon="-6.0126537323870615"><ele>13.0</ele><time>2026-04-28T14:53:35Z</time></trkpt><trkpt lat="35.46252669620603" lon="-6.012526198049038"><ele>13.0</ele><time>2026-04-28T14:53:36Z</time></trkpt><trkpt lat="35.462638833475644" lon="-6.012393660489836"><ele>13.0</ele><time>2026-04-28T14:53:37Z</time></trkpt><trkpt lat="35.46275029748442" lon="-6.012255822242979"><ele>15.0</ele><time>2026-04-28T14:53:38Z</time></trkpt><trkpt lat="35.462863545431155" lon="-6.012113121795074"><ele>17.0</ele><time>2026-04-28T14:53:39Z</time></trkpt><trkpt lat="35.46297889350463" lon="-6.0119678356073765"><ele>19.0</ele><time>2026-04-28T14:53:40Z</time></trkpt><trkpt lat="35.46309639576644" lon="-6.011820435847279"><ele>19.0</ele><time>2026-04-28T14:53:41Z</time></trkpt><trkpt lat="35.46321528933877" lon="-6.011671159361974"><ele>19.0</ele><time>2026-04-28T14:53:42Z</time></trkpt><trkpt lat="35.463334096714505" lon="-6.011521445852685"><ele>19.0</ele><time>2026-04-28T14:53:43Z</time></trkpt><trkpt lat="35.463458446152586" lon="-6.0113655981616105"><ele>21.0</ele><time>2026-04-28T14:53:44Z</time></trkpt><trkpt lat="35.463588240138016" lon="-6.011207328998675"><ele>23.0</ele><time>2026-04-28T14:53:45Z</time></trkpt><trkpt lat="35.46372198722714" lon="-6.011044665273261"><ele>25.0</ele><time>2026-04-28T14:53:46Z</time></trkpt><trkpt lat="35.46385416571532" lon="-6.010879734830321"><ele>28.333333333333336</ele><time>2026-04-28T14:53:47Z</time></trkpt><trkpt lat="35.463985254134286" lon="-6.010709957158823"><ele>31.666666666666664</ele><time>2026-04-28T14:53:48Z</time></trkpt><trkpt lat="35.46411921908119" lon="-6.0105371559470315"><ele>35.0</ele><time>2026-04-28T14:53:49Z</time></trkpt><trkpt lat="35.46425265971088" lon="-6.01036596989973"><ele>35.0</ele><time>2026-04-28T14:53:50Z</time></trkpt><trkpt lat="35.464395484419846" lon="-6.01020664625266"><ele>35.0</ele><time>2026-04-28T14:53:51Z</time></trkpt><trkpt lat="35.46452516712917" lon="-6.010034558489983"><ele>35.0</ele><time>2026-04-28T14:53:52Z</time></trkpt><trkpt lat="35.464653799872096" lon="-6.009863147897124"><ele>37.0</ele><time>2026-04-28T14:53:53Z</time></trkpt><trkpt lat="35.46478344917506" lon="-6.009692591317775"><ele>39.0</ele><time>2026-04-28T14:53:54Z</time></trkpt><trkpt lat="35.46491265066976" lon="-6.009521049280067"><ele>41.0</ele><time>2026-04-28T14:53:55Z</time></trkpt><trkpt lat="35.4650423963143" lon="-6.009347132254753"><ele>41.0</ele><time>2026-04-28T14:53:56Z</time></trkpt><trkpt lat="35.46517195277326" lon="-6.009174183920078"><ele>41.0</ele><time>2026-04-28T14:53:57Z</time></trkpt><trkpt lat="35.46530057638184" lon="-6.009004241670357"><ele>41.0</ele><time>2026-04-28T14:53:57.999Z</time></trkpt><trkpt lat="35.46542717578891" lon="-6.008837633489999"><ele>40.0</ele><time>2026-04-28T14:53:58.999Z</time></trkpt><trkpt lat="35.46555095121991" lon="-6.008674593132329"><ele>39.0</ele><time>2026-04-28T14:53:59.999Z</time></trkpt><trkpt lat="35.46567187481022" lon="-6.008511820206641"><ele>38.0</ele><time>2026-04-28T14:54:00.999Z</time></trkpt><trkpt lat="35.465793161885294" lon="-6.008345863619306"><ele>38.666666666666664</ele><time>2026-04-28T14:54:01.999Z</time></trkpt><trkpt lat="35.465916118280695" lon="-6.008182260028622"><ele>39.333333333333336</ele><time>2026-04-28T14:54:02.999Z</time></trkpt><trkpt lat="35.46603948710919" lon="-6.008021388773205"><ele>40.0</ele><time>2026-04-28T14:54:03.999Z</time></trkpt><trkpt lat="35.466127909605866" lon="-6.007820230650664"><ele>40.0</ele><time>2026-04-28T14:54:04.999Z</time></trkpt><trkpt lat="35.4662539860536" lon="-6.007662599162269"><ele>40.0</ele><time>2026-04-28T14:54:05.999Z</time></trkpt><trkpt lat="35.466379712317675" lon="-6.007505860264034"><ele>40.0</ele><time>2026-04-28T14:54:06.999Z</time></trkpt><trkpt lat="35.46650005487102" lon="-6.007355546609702"><ele>41.0</ele><time>2026-04-28T14:54:07.999Z</time></trkpt><trkpt lat="35.466611250986354" lon="-6.007216199164122"><ele>42.0</ele><time>2026-04-28T14:54:08.999Z</time></trkpt><trkpt lat="35.46671561127212" lon="-6.007084347260886"><ele>43.0</ele><time>2026-04-28T14:54:09.999Z</time></trkpt><trkpt lat="35.466814899128785" lon="-6.006957020615613"><ele>43.0</ele><time>2026-04-28T14:54:10.999Z</time></trkpt><trkpt lat="35.4669234614093" lon="-6.006844257746014"><ele>43.0</ele><time>2026-04-28T14:54:11.999Z</time></trkpt><trkpt lat="35.46701897059657" lon="-6.006717758932072"><ele>43.0</ele><time>2026-04-28T14:54:12.999Z</time></trkpt><trkpt lat="35.467115852200486" lon="-6.006593200980818"><ele>43.0</ele><time>2026-04-28T14:54:13.999Z</time></trkpt><trkpt lat="35.46721149935831" lon="-6.006466448245872"><ele>44.5</ele><time>2026-04-28T14:54:14.999Z</time></trkpt><trkpt lat="35.467303692699126" lon="-6.006341737671254"><ele>46.0</ele><time>2026-04-28T14:54:15.999Z</time></trkpt><trkpt lat="35.467395903209216" lon="-6.006219997688131"><ele>47.5</ele><time>2026-04-28T14:54:16.999Z</time></trkpt><trkpt lat="35.46748518521541" lon="-6.006102112569082"><ele>49.0</ele><time>2026-04-28T14:54:17.999Z</time></trkpt><trkpt lat="35.467572130534094" lon="-6.005985523081285"><ele>49.0</ele><time>2026-04-28T14:54:18.999Z</time></trkpt><trkpt lat="35.46765810897199" lon="-6.005868214389688"><ele>49.0</ele><time>2026-04-28T14:54:19.999Z</time></trkpt><trkpt lat="35.46774275006726" lon="-6.005752091023161"><ele>49.0</ele><time>2026-04-28T14:54:20.999Z</time></trkpt><trkpt lat="35.467825404870425" lon="-6.005640539306649"><ele>49.0</ele><time>2026-04-28T14:54:21.999Z</time></trkpt><trkpt lat="35.46790778049891" lon="-6.005528926719038"><ele>48.75</ele><time>2026-04-28T14:54:22.999Z</time></trkpt><trkpt lat="35.4679960197879" lon="-6.005414793829231"><ele>48.5</ele><time>2026-04-28T14:54:23.999Z</time></trkpt><trkpt lat="35.46808403962139" lon="-6.005297226506485"><ele>48.25</ele><time>2026-04-28T14:54:24.999Z</time></trkpt><trkpt lat="35.46815895189284" lon="-6.0051634356485835"><ele>48.0</ele><time>2026-04-28T14:54:25.999Z</time></trkpt><trkpt lat="35.468247549524904" lon="-6.0050411005673725"><ele>48.25</ele><time>2026-04-28T14:54:26.999Z</time></trkpt><trkpt lat="35.46834088729483" lon="-6.004918435327253"><ele>48.5</ele><time>2026-04-28T14:54:27.999Z</time></trkpt><trkpt lat="35.468445620057594" lon="-6.004807285959232"><ele>48.75</ele><time>2026-04-28T14:54:28.999Z</time></trkpt><trkpt lat="35.46853960519179" lon="-6.004680857533874"><ele>49.0</ele><time>2026-04-28T14:54:29.999Z</time></trkpt><trkpt lat="35.46863514127324" lon="-6.004554830631629"><ele>49.0</ele><time>2026-04-28T14:54:30.999Z</time></trkpt><trkpt lat="35.46872643107557" lon="-6.004435192921389"><ele>49.0</ele><time>2026-04-28T14:54:31.999Z</time></trkpt><trkpt lat="35.46881182191221" lon="-6.004324729096589"><ele>49.0</ele><time>2026-04-28T14:54:32.999Z</time></trkpt><trkpt lat="35.46888871013862" lon="-6.00422480860056"><ele>49.0</ele><time>2026-04-28T14:54:33.999Z</time></trkpt><trkpt lat="35.46895689261528" lon="-6.004133970973489"><ele>49.142857142857146</ele><time>2026-04-28T14:54:34.999Z</time></trkpt><trkpt lat="35.46901410608522" lon="-6.004057140438594"><ele>49.285714285714285</ele><time>2026-04-28T14:54:35.999Z</time></trkpt><trkpt lat="35.469061291835764" lon="-6.003992569650185"><ele>49.42857142857143</ele><time>2026-04-28T14:54:36.999Z</time></trkpt><trkpt lat="35.46911788350129" lon="-6.00391825538393"><ele>49.57142857142857</ele><time>2026-04-28T14:54:38.999Z</time></trkpt><trkpt lat="35.46915306294216" lon="-6.003846894838091"><ele>49.714285714285715</ele><time>2026-04-28T14:54:42Z</time></trkpt><trkpt lat="35.46921161133552" lon="-6.003798534437738"><ele>49.85714285714286</ele><time>2026-04-28T14:54:46Z</time></trkpt><trkpt lat="35.46925341121514" lon="-6.003737497961225"><ele>50.0</ele><time>2026-04-28T14:54:49Z</time></trkpt><trkpt lat="35.46929609290292" lon="-6.003674477329901"><ele>50.0</ele><time>2026-04-28T14:54:52Z</time></trkpt><trkpt lat="35.46936159927173" lon="-6.003587288192194"><ele>50.0</ele><time>2026-04-28T14:54:55Z</time></trkpt><trkpt lat="35.46942890501286" lon="-6.003494453991781"><ele>50.0</ele><time>2026-04-28T14:54:57Z</time></trkpt><trkpt lat="35.469484170369334" lon="-6.003395896317349"><ele>50.0</ele><time>2026-04-28T14:54:59Z</time></trkpt><trkpt lat="35.46951961086945" lon="-6.00330330316609"><ele>50.0</ele><time>2026-04-28T14:55:01Z</time></trkpt><trkpt lat="35.46959354611811" lon="-6.003163745259565"><ele>50.0</ele><time>2026-04-28T14:55:03Z</time></trkpt><trkpt lat="35.46965844445917" lon="-6.003076924894001"><ele>50.0</ele><time>2026-04-28T14:55:04Z</time></trkpt><trkpt lat="35.46973166547624" lon="-6.002977612633555"><ele>50.0</ele><time>2026-04-28T14:55:05Z</time></trkpt><trkpt lat="35.469810170126486" lon="-6.00287689645968"><ele>50.0</ele><time>2026-04-28T14:55:06Z</time></trkpt><trkpt lat="35.469898112850274" lon="-6.0027613816104495"><ele>50.0</ele><time>2026-04-28T14:55:07Z</time></trkpt><trkpt lat="35.46998989807391" lon="-6.00263416073873"><ele>50.0</ele><time>2026-04-28T14:55:08Z</time></trkpt><trkpt lat="35.47009060197354" lon="-6.002501526389524"><ele>50.0</ele><time>2026-04-28T14:55:09Z</time></trkpt><trkpt lat="35.47019880175722" lon="-6.002359250811441"><ele>50.0</ele><time>2026-04-28T14:55:10Z</time></trkpt><trkpt lat="35.47031066309786" lon="-6.002212699300626"><ele>48.333333333333336</ele><time>2026-04-28T14:55:11Z</time></trkpt><trkpt lat="35.47042811937403" lon="-6.00205515846844"><ele>46.66666666666667</ele><time>2026-04-28T14:55:12Z</time></trkpt><trkpt lat="35.470553857409634" lon="-6.001890266280411"><ele>45.0</ele><time>2026-04-28T14:55:13Z</time></trkpt><trkpt lat="35.47068573548379" lon="-6.001718825518834"><ele>41.333333333333336</ele><time>2026-04-28T14:55:14Z</time></trkpt><trkpt lat="35.470820412715106" lon="-6.0015363380846365"><ele>37.66666666666667</ele><time>2026-04-28T14:55:15Z</time></trkpt><trkpt lat="35.4709593034298" lon="-6.001349166639083"><ele>34.0</ele><time>2026-04-28T14:55:16Z</time></trkpt><trkpt lat="35.471103975921984" lon="-6.001160345288174"><ele>34.0</ele><time>2026-04-28T14:55:17Z</time></trkpt><trkpt lat="35.47124962382691" lon="-6.0009702461445364"><ele>34.0</ele><time>2026-04-28T14:55:18Z</time></trkpt><trkpt lat="35.47139941388811" lon="-6.000772836487627"><ele>34.0</ele><time>2026-04-28T14:55:19Z</time></trkpt><trkpt lat="35.47155175854973" lon="-6.000565837490054"><ele>34.5</ele><time>2026-04-28T14:55:20Z</time></trkpt><trkpt lat="35.4717101893484" lon="-6.000356790727178"><ele>35.0</ele><time>2026-04-28T14:55:21Z</time></trkpt><trkpt lat="35.47187333305977" lon="-6.000143565599317"><ele>35.0</ele><time>2026-04-28T14:55:22Z</time></trkpt><trkpt lat="35.47203903653512" lon="-5.999924694807984"><ele>35.0</ele><time>2026-04-28T14:55:23Z</time></trkpt><trkpt lat="35.472189039992685" lon="-5.999680018890897"><ele>31.5</ele><time>2026-04-28T14:55:24Z</time></trkpt><trkpt lat="35.472343322909566" lon="-5.999440511452556"><ele>28.0</ele><time>2026-04-28T14:55:25Z</time></trkpt><trkpt lat="35.472505386232555" lon="-5.9991995094772586"><ele>24.0</ele><time>2026-04-28T14:55:26Z</time></trkpt><trkpt lat="35.47267630379382" lon="-5.998959625007185"><ele>20.0</ele><time>2026-04-28T14:55:27Z</time></trkpt><trkpt lat="35.47287118985333" lon="-5.998728121046643"><ele>20.5</ele><time>2026-04-28T14:55:28Z</time></trkpt><trkpt lat="35.47307113280073" lon="-5.998498378150701"><ele>21.0</ele><time>2026-04-28T14:55:29Z</time></trkpt><trkpt lat="35.473281710125256" lon="-5.998268800222397"><ele>21.0</ele><time>2026-04-28T14:55:30Z</time></trkpt><trkpt lat="35.47350758682668" lon="-5.9980407346976365"><ele>21.0</ele><time>2026-04-28T14:55:31Z</time></trkpt><trkpt lat="35.4737463197407" lon="-5.997823372415781"><ele>20.0</ele><time>2026-04-28T14:55:32Z</time></trkpt><trkpt lat="35.47396840836698" lon="-5.997580303768028"><ele>19.0</ele><time>2026-04-28T14:55:33Z</time></trkpt><trkpt lat="35.47419770376961" lon="-5.997340738963816"><ele>25.5</ele><time>2026-04-28T14:55:34Z</time></trkpt><trkpt lat="35.474431148611224" lon="-5.997107968758331"><ele>32.0</ele><time>2026-04-28T14:55:35Z</time></trkpt><trkpt lat="35.47467103332346" lon="-5.996878941376289"><ele>35.5</ele><time>2026-04-28T14:55:36Z</time></trkpt><trkpt lat="35.474914518422906" lon="-5.99665064763271"><ele>39.0</ele><time>2026-04-28T14:55:37Z</time></trkpt><trkpt lat="35.47516288186136" lon="-5.996429939330726"><ele>39.0</ele><time>2026-04-28T14:55:38Z</time></trkpt><trkpt lat="35.475416244250056" lon="-5.996210910105683"><ele>39.0</ele><time>2026-04-28T14:55:39Z</time></trkpt><trkpt lat="35.475673876779915" lon="-5.995998577154707"><ele>38.0</ele><time>2026-04-28T14:55:40Z</time></trkpt><trkpt lat="35.47593663435936" lon="-5.995791191641749"><ele>37.0</ele><time>2026-04-28T14:55:41Z</time></trkpt><trkpt lat="35.476205584358766" lon="-5.995591467484979"><ele>32.5</ele><time>2026-04-28T14:55:42Z</time></trkpt><trkpt lat="35.476477390009734" lon="-5.995396273585492"><ele>28.0</ele><time>2026-04-28T14:55:43Z</time></trkpt><trkpt lat="35.476752509680324" lon="-5.99520714177787"><ele>28.0</ele><time>2026-04-28T14:55:44Z</time></trkpt><trkpt lat="35.47702952251183" lon="-5.99502107444657"><ele>28.0</ele><time>2026-04-28T14:55:45Z</time></trkpt><trkpt lat="35.47730749463722" lon="-5.994842642757237"><ele>25.5</ele><time>2026-04-28T14:55:46Z</time></trkpt><trkpt lat="35.47758950233025" lon="-5.9946768860528"><ele>23.0</ele><time>2026-04-28T14:55:47Z</time></trkpt><trkpt lat="35.47787540580129" lon="-5.994514308498953"><ele>17.5</ele><time>2026-04-28T14:55:48Z</time></trkpt><trkpt lat="35.47816086913374" lon="-5.994350891968184"><ele>12.0</ele><time>2026-04-28T14:55:49Z</time></trkpt><trkpt lat="35.47844946068866" lon="-5.994189134033087"><ele>9.5</ele><time>2026-04-28T14:55:50Z</time></trkpt><trkpt lat="35.47874187718937" lon="-5.994038878765485"><ele>7.0</ele><time>2026-04-28T14:55:51Z</time></trkpt><trkpt lat="35.47903713401301" lon="-5.993902608514027"><ele>7.0</ele><time>2026-04-28T14:55:52Z</time></trkpt><trkpt lat="35.47932044417563" lon="-5.993751958538646"><ele>7.0</ele><time>2026-04-28T14:55:53Z</time></trkpt><trkpt lat="35.47958549342318" lon="-5.993668647897812"><ele>7.0</ele><time>2026-04-28T14:55:54Z</time></trkpt><trkpt lat="35.47991097685291" lon="-5.9935278009469215"><ele>7.0</ele><time>2026-04-28T14:55:55Z</time></trkpt><trkpt lat="35.48019885268247" lon="-5.993417281801668"><ele>5.0</ele><time>2026-04-28T14:55:56Z</time></trkpt><trkpt lat="35.48048976593689" lon="-5.993307163759595"><ele>3.0</ele><time>2026-04-28T14:55:56.999Z</time></trkpt><trkpt lat="35.48078168248821" lon="-5.993195062919181"><ele>3.0</ele><time>2026-04-28T14:55:57.999Z</time></trkpt><trkpt lat="35.48107690760409" lon="-5.993081269804505"><ele>3.0</ele><time>2026-04-28T14:55:58.999Z</time></trkpt><trkpt lat="35.4813727596608" lon="-5.992968077527628"><ele>3.0</ele><time>2026-04-28T14:55:59.999Z</time></trkpt><trkpt lat="35.48166493112873" lon="-5.9928580533974065"><ele>3.0</ele><time>2026-04-28T14:56:00.999Z</time></trkpt><trkpt lat="35.48195685937187" lon="-5.992746921724394"><ele>3.5</ele><time>2026-04-28T14:56:01.999Z</time></trkpt><trkpt lat="35.482245575155474" lon="-5.99263714245837"><ele>4.0</ele><time>2026-04-28T14:56:02.999Z</time></trkpt><trkpt lat="35.48253296773654" lon="-5.992529215592249"><ele>4.0</ele><time>2026-04-28T14:56:03.999Z</time></trkpt><trkpt lat="35.4828208355053" lon="-5.992420336784833"><ele>4.0</ele><time>2026-04-28T14:56:04.999Z</time></trkpt><trkpt lat="35.48311348665507" lon="-5.992312554237237"><ele>3.5</ele><time>2026-04-28T14:56:05.999Z</time></trkpt><trkpt lat="35.483412805919265" lon="-5.9922038341678245"><ele>3.0</ele><time>2026-04-28T14:56:06.999Z</time></trkpt><trkpt lat="35.483710744018374" lon="-5.992096623241661"><ele>2.5</ele><time>2026-04-28T14:56:07.999Z</time></trkpt><trkpt lat="35.48400819986218" lon="-5.991985251822195"><ele>2.0</ele><time>2026-04-28T14:56:08.999Z</time></trkpt><trkpt lat="35.484299413387696" lon="-5.991869357056876"><ele>2.0</ele><time>2026-04-28T14:56:09.999Z</time></trkpt><trkpt lat="35.484585923738734" lon="-5.9917610858872745"><ele>2.0</ele><time>2026-04-28T14:56:10.999Z</time></trkpt><trkpt lat="35.48487645795854" lon="-5.991653665159298"><ele>3.0</ele><time>2026-04-28T14:56:11.999Z</time></trkpt><trkpt lat="35.48516825195148" lon="-5.991546826454439"><ele>4.0</ele><time>2026-04-28T14:56:12.999Z</time></trkpt><trkpt lat="35.48546127071663" lon="-5.991441214340879"><ele>4.0</ele><time>2026-04-28T14:56:13.999Z</time></trkpt><trkpt lat="35.4857560353304" lon="-5.991336363110038"><ele>4.0</ele><time>2026-04-28T14:56:14.999Z</time></trkpt><trkpt lat="35.486050412744945" lon="-5.991231500799105"><ele>4.5</ele><time>2026-04-28T14:56:15.999Z</time></trkpt><trkpt lat="35.48634614062919" lon="-5.9911253944851754"><ele>5.0</ele><time>2026-04-28T14:56:16.999Z</time></trkpt><trkpt lat="35.48664187455911" lon="-5.991020683686191"><ele>5.0</ele><time>2026-04-28T14:56:17.999Z</time></trkpt><trkpt lat="35.486935926321024" lon="-5.99091532682711"><ele>5.0</ele><time>2026-04-28T14:56:18.999Z</time></trkpt><trkpt lat="35.4872313522703" lon="-5.990810815491827"><ele>4.5</ele><time>2026-04-28T14:56:19.999Z</time></trkpt><trkpt lat="35.48752936496906" lon="-5.990705150582667"><ele>4.0</ele><time>2026-04-28T14:56:20.999Z</time></trkpt><trkpt lat="35.48783635389287" lon="-5.990591261930048"><ele>4.0</ele><time>2026-04-28T14:56:21.999Z</time></trkpt><trkpt lat="35.48814778471602" lon="-5.9904718389939005"><ele>4.0</ele><time>2026-04-28T14:56:22.999Z</time></trkpt><trkpt lat="35.48845873776895" lon="-5.990352401397439"><ele>4.5</ele><time>2026-04-28T14:56:23.999Z</time></trkpt><trkpt lat="35.48876738828438" lon="-5.9902354204430965"><ele>5.0</ele><time>2026-04-28T14:56:24.999Z</time></trkpt><trkpt lat="35.4890738611438" lon="-5.9901211603132065"><ele>5.5</ele><time>2026-04-28T14:56:25.999Z</time></trkpt><trkpt lat="35.48938665970041" lon="-5.9900063131659556"><ele>6.0</ele><time>2026-04-28T14:56:26.999Z</time></trkpt><trkpt lat="35.489702787162756" lon="-5.989891403269624"><ele>6.0</ele><time>2026-04-28T14:56:27.999Z</time></trkpt><trkpt lat="35.49001896076566" lon="-5.989773811639423"><ele>6.0</ele><time>2026-04-28T14:56:28.999Z</time></trkpt><trkpt lat="35.49033093272852" lon="-5.989654755741739"><ele>5.0</ele><time>2026-04-28T14:56:29.999Z</time></trkpt><trkpt lat="35.490643042902484" lon="-5.9895325128171235"><ele>4.0</ele><time>2026-04-28T14:56:30.999Z</time></trkpt><trkpt lat="35.49095452375005" lon="-5.989407590981859"><ele>4.0</ele><time>2026-04-28T14:56:31.999Z</time></trkpt><trkpt lat="35.491265181796344" lon="-5.989282488493032"><ele>4.0</ele><time>2026-04-28T14:56:32.999Z</time></trkpt><trkpt lat="35.49157657738172" lon="-5.989160219684676"><ele>4.0</ele><time>2026-04-28T14:56:33.999Z</time></trkpt><trkpt lat="35.49188224399112" lon="-5.989042583877133"><ele>4.0</ele><time>2026-04-28T14:56:34.999Z</time></trkpt><trkpt lat="35.492176507048065" lon="-5.988930529182141"><ele>4.0</ele><time>2026-04-28T14:56:35.999Z</time></trkpt><trkpt lat="35.492456922019855" lon="-5.988826675342218"><ele>4.0</ele><time>2026-04-28T14:56:36.999Z</time></trkpt><trkpt lat="35.49272658781946" lon="-5.988726847015803"><ele>3.0</ele><time>2026-04-28T14:56:37.999Z</time></trkpt><trkpt lat="35.49298932341514" lon="-5.988630036036598"><ele>2.0</ele><time>2026-04-28T14:56:38.999Z</time></trkpt><trkpt lat="35.493252700815006" lon="-5.988530952926062"><ele>2.0</ele><time>2026-04-28T14:56:39.999Z</time></trkpt><trkpt lat="35.49352508491352" lon="-5.988423725912009"><ele>2.0</ele><time>2026-04-28T14:56:40.999Z</time></trkpt><trkpt lat="35.49380221816525" lon="-5.988318016032992"><ele>2.0</ele><time>2026-04-28T14:56:41.999Z</time></trkpt><trkpt lat="35.494087148414245" lon="-5.988213379515841"><ele>2.0</ele><time>2026-04-28T14:56:42.999Z</time></trkpt><trkpt lat="35.49437496599553" lon="-5.9881150936416265"><ele>3.0</ele><time>2026-04-28T14:56:43.999Z</time></trkpt><trkpt lat="35.494661665015975" lon="-5.988018334394579"><ele>4.0</ele><time>2026-04-28T14:56:44.999Z</time></trkpt><trkpt lat="35.494942022397154" lon="-5.987918810815741"><ele>4.0</ele><time>2026-04-28T14:56:45.999Z</time></trkpt><trkpt lat="35.4952189112905" lon="-5.987820550716794"><ele>4.0</ele><time>2026-04-28T14:56:47Z</time></trkpt><trkpt lat="35.49549998662269" lon="-5.9877292645611275"><ele>8.0</ele><time>2026-04-28T14:56:48Z</time></trkpt><trkpt lat="35.49578526735417" lon="-5.9876442472647495"><ele>12.0</ele><time>2026-04-28T14:56:49Z</time></trkpt><trkpt lat="35.49607336353096" lon="-5.987564982318244"><ele>10.0</ele><time>2026-04-28T14:56:50Z</time></trkpt><trkpt lat="35.496365018154016" lon="-5.9874926439793095"><ele>8.0</ele><time>2026-04-28T14:56:51Z</time></trkpt><trkpt lat="35.49666661937626" lon="-5.987420233318431"><ele>8.0</ele><time>2026-04-28T14:56:52Z</time></trkpt><trkpt lat="35.49696990160639" lon="-5.987351734766899"><ele>8.0</ele><time>2026-04-28T14:56:53Z</time></trkpt><trkpt lat="35.497257027657284" lon="-5.987290088669563"><ele>5.5</ele><time>2026-04-28T14:56:54Z</time></trkpt><trkpt lat="35.4975455561467" lon="-5.987225847755204"><ele>3.0</ele><time>2026-04-28T14:56:55Z</time></trkpt><trkpt lat="35.49783362564003" lon="-5.9871661110520344"><ele>4.0</ele><time>2026-04-28T14:56:56Z</time></trkpt><trkpt lat="35.49812352371518" lon="-5.9871123422376336"><ele>5.0</ele><time>2026-04-28T14:56:57Z</time></trkpt><trkpt lat="35.498415277744684" lon="-5.9870679578057455"><ele>5.0</ele><time>2026-04-28T14:56:58Z</time></trkpt><trkpt lat="35.498704266102195" lon="-5.98703193343571"><ele>5.0</ele><time>2026-04-28T14:56:59Z</time></trkpt><trkpt lat="35.49899403606817" lon="-5.986999205959358"><ele>4.5</ele><time>2026-04-28T14:57:00Z</time></trkpt><trkpt lat="35.49928147566243" lon="-5.986971344762147"><ele>4.0</ele><time>2026-04-28T14:57:01Z</time></trkpt><trkpt lat="35.49957063755849" lon="-5.986942636007676"><ele>4.0</ele><time>2026-04-28T14:57:02Z</time></trkpt><trkpt lat="35.49985941288004" lon="-5.986917569544292"><ele>4.0</ele><time>2026-04-28T14:57:03Z</time></trkpt><trkpt lat="35.50014841589268" lon="-5.986900619901676"><ele>3.5</ele><time>2026-04-28T14:57:04Z</time></trkpt><trkpt lat="35.500439115500924" lon="-5.986890178098788"><ele>3.0</ele><time>2026-04-28T14:57:05Z</time></trkpt><trkpt lat="35.50073410327048" lon="-5.986885015783875"><ele>3.0</ele><time>2026-04-28T14:57:06Z</time></trkpt><trkpt lat="35.50102700695492" lon="-5.986884799504461"><ele>3.0</ele><time>2026-04-28T14:57:07Z</time></trkpt><trkpt lat="35.5013203149368" lon="-5.986890068797082"><ele>3.0</ele><time>2026-04-28T14:57:08Z</time></trkpt><trkpt lat="35.50161694946502" lon="-5.98689576220613"><ele>3.0</ele><time>2026-04-28T14:57:09Z</time></trkpt><trkpt lat="35.50190595665089" lon="-5.986908165169104"><ele>3.0</ele><time>2026-04-28T14:57:10Z</time></trkpt><trkpt lat="35.502195363785944" lon="-5.986922601298183"><ele>3.0</ele><time>2026-04-28T14:57:11Z</time></trkpt><trkpt lat="35.50248436588341" lon="-5.986940967048534"><ele>3.0</ele><time>2026-04-28T14:57:12Z</time></trkpt><trkpt lat="35.50277019739664" lon="-5.986963673317662"><ele>3.0</ele><time>2026-04-28T14:57:13Z</time></trkpt><trkpt lat="35.50306074418934" lon="-5.986993575640541"><ele>4.0</ele><time>2026-04-28T14:57:14Z</time></trkpt><trkpt lat="35.503354840701085" lon="-5.987035310683072"><ele>5.0</ele><time>2026-04-28T14:57:15Z</time></trkpt><trkpt lat="35.50365171366525" lon="-5.987080218747512"><ele>5.0</ele><time>2026-04-28T14:57:16Z</time></trkpt><trkpt lat="35.503953313727955" lon="-5.987123872236028"><ele>5.0</ele><time>2026-04-28T14:57:17Z</time></trkpt><trkpt lat="35.5042510891751" lon="-5.98717808812499"><ele>5.0</ele><time>2026-04-28T14:57:18Z</time></trkpt><trkpt lat="35.50454779651685" lon="-5.98723573296487"><ele>5.0</ele><time>2026-04-28T14:57:19Z</time></trkpt><trkpt lat="35.504840766268984" lon="-5.9872982179033"><ele>5.5</ele><time>2026-04-28T14:57:20Z</time></trkpt><trkpt lat="35.50512702851347" lon="-5.987363896995251"><ele>6.0</ele><time>2026-04-28T14:57:21Z</time></trkpt><trkpt lat="35.505414705338794" lon="-5.987430647010039"><ele>9.0</ele><time>2026-04-28T14:57:22Z</time></trkpt><trkpt lat="35.50569789682855" lon="-5.987499452034034"><ele>12.0</ele><time>2026-04-28T14:57:23Z</time></trkpt><trkpt lat="35.505980105807225" lon="-5.987566069698055"><ele>18.5</ele><time>2026-04-28T14:57:24Z</time></trkpt><trkpt lat="35.506263308286556" lon="-5.987632304548282"><ele>25.0</ele><time>2026-04-28T14:57:25Z</time></trkpt><trkpt lat="35.50654508311201" lon="-5.9876986033242865"><ele>25.0</ele><time>2026-04-28T14:57:26Z</time></trkpt><trkpt lat="35.5068269608536" lon="-5.987767148845447"><ele>25.0</ele><time>2026-04-28T14:57:27Z</time></trkpt><trkpt lat="35.50711563972512" lon="-5.98784075834861"><ele>27.0</ele><time>2026-04-28T14:57:28Z</time></trkpt><trkpt lat="35.507405501079106" lon="-5.987913673475286"><ele>29.0</ele><time>2026-04-28T14:57:29Z</time></trkpt><trkpt lat="35.50769968348514" lon="-5.987984359372179"><ele>25.5</ele><time>2026-04-28T14:57:30Z</time></trkpt><trkpt lat="35.50799811766532" lon="-5.988053826559026"><ele>22.0</ele><time>2026-04-28T14:57:31Z</time></trkpt><trkpt lat="35.50829553647904" lon="-5.9881220666616555"><ele>22.0</ele><time>2026-04-28T14:57:32Z</time></trkpt><trkpt lat="35.50858668821285" lon="-5.9881893867934535"><ele>22.0</ele><time>2026-04-28T14:57:33Z</time></trkpt><trkpt lat="35.50887411617227" lon="-5.988250672924411"><ele>21.0</ele><time>2026-04-28T14:57:34Z</time></trkpt><trkpt lat="35.50915937371451" lon="-5.9883078894585156"><ele>20.0</ele><time>2026-04-28T14:57:35Z</time></trkpt><trkpt lat="35.509440353172174" lon="-5.988367148126746"><ele>21.5</ele><time>2026-04-28T14:57:36Z</time></trkpt><trkpt lat="35.50972525648212" lon="-5.988433667128332"><ele>23.0</ele><time>2026-04-28T14:57:37Z</time></trkpt><trkpt lat="35.510015444985456" lon="-5.988499224490696"><ele>23.0</ele><time>2026-04-28T14:57:38Z</time></trkpt><trkpt lat="35.510300002135565" lon="-5.98856292475023"><ele>23.0</ele><time>2026-04-28T14:57:39Z</time></trkpt><trkpt lat="35.510585856178594" lon="-5.988626124243461"><ele>27.5</ele><time>2026-04-28T14:57:40Z</time></trkpt><trkpt lat="35.51087111225548" lon="-5.988692685345192"><ele>32.0</ele><time>2026-04-28T14:57:41Z</time></trkpt><trkpt lat="35.511158747084586" lon="-5.98875746846977"><ele>36.0</ele><time>2026-04-28T14:57:42Z</time></trkpt><trkpt lat="35.511448227990336" lon="-5.988822845295016"><ele>40.0</ele><time>2026-04-28T14:57:43Z</time></trkpt><trkpt lat="35.51173862396337" lon="-5.988890554758343"><ele>40.0</ele><time>2026-04-28T14:57:44Z</time></trkpt><trkpt lat="35.512028913648116" lon="-5.9889632477658905"><ele>40.0</ele><time>2026-04-28T14:57:45Z</time></trkpt><trkpt lat="35.51232099506958" lon="-5.989033414778316"><ele>42.0</ele><time>2026-04-28T14:57:46Z</time></trkpt><trkpt lat="35.51261081511775" lon="-5.989102081454853"><ele>44.0</ele><time>2026-04-28T14:57:47Z</time></trkpt><trkpt lat="35.51289916646004" lon="-5.989169097698739"><ele>45.5</ele><time>2026-04-28T14:57:48Z</time></trkpt><trkpt lat="35.51318743773849" lon="-5.989237127162287"><ele>47.0</ele><time>2026-04-28T14:57:49Z</time></trkpt><trkpt lat="35.51347676383336" lon="-5.9893036654945595"><ele>49.0</ele><time>2026-04-28T14:57:50Z</time></trkpt><trkpt lat="35.51376504366369" lon="-5.989371478527705"><ele>51.0</ele><time>2026-04-28T14:57:51Z</time></trkpt><trkpt lat="35.51405284480917" lon="-5.989440188010323"><ele>51.0</ele><time>2026-04-28T14:57:52Z</time></trkpt><trkpt lat="35.51433688113206" lon="-5.989509034725713"><ele>51.0</ele><time>2026-04-28T14:57:53Z</time></trkpt><trkpt lat="35.51462093871616" lon="-5.989578519848486"><ele>50.0</ele><time>2026-04-28T14:57:54Z</time></trkpt><trkpt lat="35.51490779384341" lon="-5.989646401072566"><ele>49.0</ele><time>2026-04-28T14:57:55Z</time></trkpt><trkpt lat="35.515194873818885" lon="-5.9897147638668855"><ele>46.0</ele><time>2026-04-28T14:57:56Z</time></trkpt><trkpt lat="35.51548226700781" lon="-5.989782736907724"><ele>43.0</ele><time>2026-04-28T14:57:57Z</time></trkpt><trkpt lat="35.51576812732837" lon="-5.989850954504619"><ele>43.0</ele><time>2026-04-28T14:57:58Z</time></trkpt><trkpt lat="35.516052342151184" lon="-5.989919158740534"><ele>43.0</ele><time>2026-04-28T14:57:59Z</time></trkpt><trkpt lat="35.51633352323554" lon="-5.989986477917107"><ele>41.5</ele><time>2026-04-28T14:58:00Z</time></trkpt><trkpt lat="35.516615581902975" lon="-5.990053097704322"><ele>40.0</ele><time>2026-04-28T14:58:00.999Z</time></trkpt><trkpt lat="35.51689623764093" lon="-5.990117726322927"><ele>37.5</ele><time>2026-04-28T14:58:01.999Z</time></trkpt><trkpt lat="35.517178057150375" lon="-5.99017973264674"><ele>35.0</ele><time>2026-04-28T14:58:02.999Z</time></trkpt><trkpt lat="35.51745380078077" lon="-5.990241966782874"><ele>35.0</ele><time>2026-04-28T14:58:03.999Z</time></trkpt><trkpt lat="35.51772525310172" lon="-5.99030409504018"><ele>35.0</ele><time>2026-04-28T14:58:04.999Z</time></trkpt><trkpt lat="35.51799451502414" lon="-5.990373254420644"><ele>35.0</ele><time>2026-04-28T14:58:05.999Z</time></trkpt><trkpt lat="35.51826615158911" lon="-5.99044218326312"><ele>35.0</ele><time>2026-04-28T14:58:06.999Z</time></trkpt><trkpt lat="35.51853788412497" lon="-5.990505951205123"><ele>34.5</ele><time>2026-04-28T14:58:07.999Z</time></trkpt><trkpt lat="35.51881384977299" lon="-5.990565679551595"><ele>34.0</ele><time>2026-04-28T14:58:08.999Z</time></trkpt><trkpt lat="35.519092074897415" lon="-5.9906283754349126"><ele>34.0</ele><time>2026-04-28T14:58:09.999Z</time></trkpt><trkpt lat="35.51937406312156" lon="-5.990696001018285"><ele>34.0</ele><time>2026-04-28T14:58:10.999Z</time></trkpt><trkpt lat="35.5196587713713" lon="-5.990764672683617"><ele>33.5</ele><time>2026-04-28T14:58:11.999Z</time></trkpt><trkpt lat="35.51994343805065" lon="-5.990829934875163"><ele>33.0</ele><time>2026-04-28T14:58:12.999Z</time></trkpt><trkpt lat="35.52022856589618" lon="-5.990893967642534"><ele>30.0</ele><time>2026-04-28T14:58:13.999Z</time></trkpt><trkpt lat="35.52051125887267" lon="-5.990955984917367"><ele>27.0</ele><time>2026-04-28T14:58:14.999Z</time></trkpt><trkpt lat="35.52079197828763" lon="-5.991012911169351"><ele>27.0</ele><time>2026-04-28T14:58:15.999Z</time></trkpt><trkpt lat="35.52106624763381" lon="-5.991063109902953"><ele>27.0</ele><time>2026-04-28T14:58:16.999Z</time></trkpt><trkpt lat="35.521331533075376" lon="-5.99110868829486"><ele>26.5</ele><time>2026-04-28T14:58:17.999Z</time></trkpt><trkpt lat="35.521593324942465" lon="-5.991150054730286"><ele>26.0</ele><time>2026-04-28T14:58:18.999Z</time></trkpt><trkpt lat="35.52184963911283" lon="-5.9911880651219365"><ele>24.0</ele><time>2026-04-28T14:58:19.999Z</time></trkpt><trkpt lat="35.522102483292386" lon="-5.991223062336735"><ele>22.0</ele><time>2026-04-28T14:58:20.999Z</time></trkpt><trkpt lat="35.52235332650084" lon="-5.991250504310675"><ele>22.0</ele><time>2026-04-28T14:58:21.999Z</time></trkpt><trkpt lat="35.52260160001425" lon="-5.991280261028853"><ele>22.0</ele><time>2026-04-28T14:58:22.999Z</time></trkpt><trkpt lat="35.52285082249696" lon="-5.991307260443629"><ele>21.5</ele><time>2026-04-28T14:58:23.999Z</time></trkpt><trkpt lat="35.523100634914094" lon="-5.991331504956505"><ele>21.0</ele><time>2026-04-28T14:58:24.999Z</time></trkpt><trkpt lat="35.52335455865487" lon="-5.991355577464664"><ele>21.0</ele><time>2026-04-28T14:58:25.999Z</time></trkpt><trkpt lat="35.52361451371753" lon="-5.9913793342572"><ele>21.0</ele><time>2026-04-28T14:58:26.999Z</time></trkpt><trkpt lat="35.523880608527435" lon="-5.9914001521511215"><ele>23.0</ele><time>2026-04-28T14:58:27.999Z</time></trkpt><trkpt lat="35.52415177369292" lon="-5.991411956480366"><ele>25.0</ele><time>2026-04-28T14:58:28.999Z</time></trkpt><trkpt lat="35.524424923301424" lon="-5.991417738747052"><ele>23.5</ele><time>2026-04-28T14:58:29.999Z</time></trkpt><trkpt lat="35.52470120812422" lon="-5.991419554631225"><ele>22.0</ele><time>2026-04-28T14:58:30.999Z</time></trkpt><trkpt lat="35.524981801059894" lon="-5.9914183697421075"><ele>22.0</ele><time>2026-04-28T14:58:31.999Z</time></trkpt><trkpt lat="35.52526661813445" lon="-5.991413529882858"><ele>22.0</ele><time>2026-04-28T14:58:32.999Z</time></trkpt><trkpt lat="35.52555094741183" lon="-5.991398834713956"><ele>19.0</ele><time>2026-04-28T14:58:33.999Z</time></trkpt><trkpt lat="35.52583747466882" lon="-5.991373996566197"><ele>16.0</ele><time>2026-04-28T14:58:34.999Z</time></trkpt><trkpt lat="35.5261258628603" lon="-5.9913467938575184"><ele>15.5</ele><time>2026-04-28T14:58:35.999Z</time></trkpt><trkpt lat="35.5264151456025" lon="-5.991312039579639"><ele>15.0</ele><time>2026-04-28T14:58:36.999Z</time></trkpt><trkpt lat="35.52670978819092" lon="-5.991272339230069"><ele>15.0</ele><time>2026-04-28T14:58:37.999Z</time></trkpt><trkpt lat="35.527009651574694" lon="-5.991228496523998"><ele>15.0</ele><time>2026-04-28T14:58:38.999Z</time></trkpt><trkpt lat="35.52730974426137" lon="-5.99118003923724"><ele>12.5</ele><time>2026-04-28T14:58:39.999Z</time></trkpt><trkpt lat="35.527606562066254" lon="-5.991125861793811"><ele>10.0</ele><time>2026-04-28T14:58:40.999Z</time></trkpt><trkpt lat="35.5279012915611" lon="-5.991068687979968"><ele>9.0</ele><time>2026-04-28T14:58:41.999Z</time></trkpt><trkpt lat="35.52819404132161" lon="-5.99100713174167"><ele>8.0</ele><time>2026-04-28T14:58:42.999Z</time></trkpt><trkpt lat="35.52848627251585" lon="-5.990939200952248"><ele>8.0</ele><time>2026-04-28T14:58:43.999Z</time></trkpt><trkpt lat="35.5287781335763" lon="-5.990869481297246"><ele>8.0</ele><time>2026-04-28T14:58:44.999Z</time></trkpt><trkpt lat="35.529068936795085" lon="-5.990796512886138"><ele>8.0</ele><time>2026-04-28T14:58:45.999Z</time></trkpt><trkpt lat="35.52936088790085" lon="-5.990723593066677"><ele>8.0</ele><time>2026-04-28T14:58:46.999Z</time></trkpt><trkpt lat="35.52965300674938" lon="-5.990650042745798"><ele>7.5</ele><time>2026-04-28T14:58:47.999Z</time></trkpt><trkpt lat="35.52994338856478" lon="-5.990570262199397"><ele>7.0</ele><time>2026-04-28T14:58:48.999Z</time></trkpt><trkpt lat="35.53022910451478" lon="-5.990479337457259"><ele>6.5</ele><time>2026-04-28T14:58:49.999Z</time></trkpt><trkpt lat="35.53051503802361" lon="-5.990381287509737"><ele>6.0</ele><time>2026-04-28T14:58:50.999Z</time></trkpt><trkpt lat="35.53080003045084" lon="-5.990277908536834"><ele>6.0</ele><time>2026-04-28T14:58:51.999Z</time></trkpt><trkpt lat="35.531085978594994" lon="-5.990170895398274"><ele>6.0</ele><time>2026-04-28T14:58:53Z</time></trkpt><trkpt lat="35.531371794719774" lon="-5.990063265653842"><ele>6.0</ele><time>2026-04-28T14:58:54Z</time></trkpt><trkpt lat="35.53165730259817" lon="-5.989953065057087"><ele>6.0</ele><time>2026-04-28T14:58:55Z</time></trkpt><trkpt lat="35.5319429183246" lon="-5.989838758139207"><ele>6.0</ele><time>2026-04-28T14:58:56Z</time></trkpt><trkpt lat="35.53222693704212" lon="-5.989721757905548"><ele>6.0</ele><time>2026-04-28T14:58:57Z</time></trkpt><trkpt lat="35.53251010341381" lon="-5.989602499160007"><ele>6.0</ele><time>2026-04-28T14:58:58Z</time></trkpt><trkpt lat="35.532794783112294" lon="-5.989478576531144"><ele>6.0</ele><time>2026-04-28T14:58:59Z</time></trkpt><trkpt lat="35.53307490336339" lon="-5.989350771136428"><ele>5.5</ele><time>2026-04-28T14:59:00Z</time></trkpt><trkpt lat="35.53335418785052" lon="-5.989219562809541"><ele>5.0</ele><time>2026-04-28T14:59:01Z</time></trkpt><trkpt lat="35.53363150108045" lon="-5.989087006632679"><ele>4.0</ele><time>2026-04-28T14:59:02Z</time></trkpt><trkpt lat="35.53390755420454" lon="-5.9889520853337785"><ele>3.0</ele><time>2026-04-28T14:59:03Z</time></trkpt><trkpt lat="35.534185160231914" lon="-5.988814494182346"><ele>3.0</ele><time>2026-04-28T14:59:04Z</time></trkpt><trkpt lat="35.534462012468225" lon="-5.988674816761382"><ele>3.0</ele><time>2026-04-28T14:59:05Z</time></trkpt><trkpt lat="35.53473822109203" lon="-5.988533474084995"><ele>3.0</ele><time>2026-04-28T14:59:06Z</time></trkpt><trkpt lat="35.53501373263368" lon="-5.988391329042134"><ele>3.0</ele><time>2026-04-28T14:59:07Z</time></trkpt><trkpt lat="35.53528990915756" lon="-5.988251235995202"><ele>3.0</ele><time>2026-04-28T14:59:08Z</time></trkpt><trkpt lat="35.535565089752616" lon="-5.988113735378516"><ele>3.0</ele><time>2026-04-28T14:59:09Z</time></trkpt><trkpt lat="35.53583597440479" lon="-5.987981760556326"><ele>3.0</ele><time>2026-04-28T14:59:10Z</time></trkpt><trkpt lat="35.53610372784377" lon="-5.987853029897164"><ele>3.0</ele><time>2026-04-28T14:59:11Z</time></trkpt><trkpt lat="35.53636768482736" lon="-5.987725047772913"><ele>3.0</ele><time>2026-04-28T14:59:12Z</time></trkpt><trkpt lat="35.53662816849148" lon="-5.9875957715650925"><ele>3.0</ele><time>2026-04-28T14:59:13Z</time></trkpt><trkpt lat="35.53689396741328" lon="-5.987461965546786"><ele>3.5</ele><time>2026-04-28T14:59:14Z</time></trkpt><trkpt lat="35.53716603781554" lon="-5.9873282004068775"><ele>4.0</ele><time>2026-04-28T14:59:15Z</time></trkpt><trkpt lat="35.53744193574095" lon="-5.987199389609583"><ele>4.0</ele><time>2026-04-28T14:59:16Z</time></trkpt><trkpt lat="35.53771747256545" lon="-5.9870691552322"><ele>4.0</ele><time>2026-04-28T14:59:17Z</time></trkpt><trkpt lat="35.53799409120208" lon="-5.986937010468267"><ele>4.0</ele><time>2026-04-28T14:59:18Z</time></trkpt><trkpt lat="35.538271847786405" lon="-5.986804185492687"><ele>4.0</ele><time>2026-04-28T14:59:19Z</time></trkpt><trkpt lat="35.53854836523869" lon="-5.986668729378219"><ele>5.5</ele><time>2026-04-28T14:59:20Z</time></trkpt><trkpt lat="35.5388246046714" lon="-5.986531695312852"><ele>7.0</ele><time>2026-04-28T14:59:21Z</time></trkpt><trkpt lat="35.53910243664185" lon="-5.986394669323192"><ele>7.0</ele><time>2026-04-28T14:59:22Z</time></trkpt><trkpt lat="35.539383601099566" lon="-5.986258447651245"><ele>7.0</ele><time>2026-04-28T14:59:23Z</time></trkpt><trkpt lat="35.53966537839639" lon="-5.986122967338336"><ele>6.0</ele><time>2026-04-28T14:59:24Z</time></trkpt><trkpt lat="35.53994613341915" lon="-5.9859874056392535"><ele>5.0</ele><time>2026-04-28T14:59:25Z</time></trkpt><trkpt lat="35.5402246405507" lon="-5.985849283954627"><ele>5.0</ele><time>2026-04-28T14:59:26Z</time></trkpt><trkpt lat="35.54050206598947" lon="-5.985710122480305"><ele>5.0</ele><time>2026-04-28T14:59:27Z</time></trkpt><trkpt lat="35.54078005502768" lon="-5.985567893436523"><ele>5.0</ele><time>2026-04-28T14:59:28Z</time></trkpt><trkpt lat="35.54105777232155" lon="-5.985427887396503"><ele>5.0</ele><time>2026-04-28T14:59:29Z</time></trkpt><trkpt lat="35.54133731477306" lon="-5.985291322253711"><ele>2.5</ele><time>2026-04-28T14:59:30Z</time></trkpt><trkpt lat="35.54161644184316" lon="-5.985158618551161"><ele>0.0</ele><time>2026-04-28T14:59:31Z</time></trkpt><trkpt lat="35.54189602758434" lon="-5.985023543888532"><ele>0.0</ele><time>2026-04-28T14:59:32Z</time></trkpt><trkpt lat="35.54217734702842" lon="-5.984887387497393"><ele>0.0</ele><time>2026-04-28T14:59:33Z</time></trkpt><trkpt lat="35.54245755083751" lon="-5.9847509523929"><ele>0.0</ele><time>2026-04-28T14:59:34Z</time></trkpt><trkpt lat="35.54273665511758" lon="-5.984614987441117"><ele>0.0</ele><time>2026-04-28T14:59:35Z</time></trkpt><trkpt lat="35.54301697745044" lon="-5.984477238693276"><ele>0.0</ele><time>2026-04-28T14:59:36Z</time></trkpt><trkpt lat="35.54329642879768" lon="-5.984339644536622"><ele>0.0</ele><time>2026-04-28T14:59:37Z</time></trkpt><trkpt lat="35.5435736163171" lon="-5.984203386826565"><ele>0.0</ele><time>2026-04-28T14:59:38Z</time></trkpt><trkpt lat="35.54385011540757" lon="-5.9840649852715995"><ele>0.0</ele><time>2026-04-28T14:59:39Z</time></trkpt><trkpt lat="35.54412892299404" lon="-5.983926194821521"><ele>0.0</ele><time>2026-04-28T14:59:40Z</time></trkpt><trkpt lat="35.544407474295184" lon="-5.983785182139442"><ele>0.0</ele><time>2026-04-28T14:59:41Z</time></trkpt><trkpt lat="35.54468565052139" lon="-5.983645037324542"><ele>0.0</ele><time>2026-04-28T14:59:42Z</time></trkpt><trkpt lat="35.54496495737022" lon="-5.9835083247951735"><ele>0.0</ele><time>2026-04-28T14:59:43Z</time></trkpt><trkpt lat="35.545244487635415" lon="-5.9833734592345635"><ele>0.0</ele><time>2026-04-28T14:59:44Z</time></trkpt><trkpt lat="35.54552424295952" lon="-5.983238362812281"><ele>0.0</ele><time>2026-04-28T14:59:45Z</time></trkpt><trkpt lat="35.54580254687722" lon="-5.983103002186142"><ele>0.0</ele><time>2026-04-28T14:59:46Z</time></trkpt><trkpt lat="35.54607912183134" lon="-5.982966722452173"><ele>0.0</ele><time>2026-04-28T14:59:47Z</time></trkpt><trkpt lat="35.546356955658716" lon="-5.982827828322868"><ele>0.5</ele><time>2026-04-28T14:59:48Z</time></trkpt><trkpt lat="35.54663488310952" lon="-5.982692186986298"><ele>1.0</ele><time>2026-04-28T14:59:49Z</time></trkpt><trkpt lat="35.546915052592865" lon="-5.9825595072546465"><ele>1.0</ele><time>2026-04-28T14:59:50Z</time></trkpt><trkpt lat="35.547195934903286" lon="-5.982425879292902"><ele>1.0</ele><time>2026-04-28T14:59:51Z</time></trkpt><trkpt lat="35.547476072580196" lon="-5.982289775230083"><ele>1.0</ele><time>2026-04-28T14:59:52Z</time></trkpt><trkpt lat="35.54775633967159" lon="-5.982151825169286"><ele>1.0</ele><time>2026-04-28T14:59:53Z</time></trkpt><trkpt lat="35.548035884590846" lon="-5.982012729276178"><ele>0.5</ele><time>2026-04-28T14:59:54Z</time></trkpt><trkpt lat="35.54831474160439" lon="-5.981873637735331"><ele>0.0</ele><time>2026-04-28T14:59:55Z</time></trkpt><trkpt lat="35.54859442544329" lon="-5.9817345934919635"><ele>1.0</ele><time>2026-04-28T14:59:56Z</time></trkpt><trkpt lat="35.54887392980146" lon="-5.981595173470923"><ele>2.0</ele><time>2026-04-28T14:59:57Z</time></trkpt><trkpt lat="35.54915256628204" lon="-5.981458443315154"><ele>2.0</ele><time>2026-04-28T14:59:58Z</time></trkpt><trkpt lat="35.54943013982593" lon="-5.981323297880354"><ele>2.0</ele><time>2026-04-28T14:59:59Z</time></trkpt><trkpt lat="35.54971015642052" lon="-5.981188910641891"><ele>2.0</ele><time>2026-04-28T15:00:00Z</time></trkpt><trkpt lat="35.54998937097259" lon="-5.981055383853735"><ele>2.0</ele><time>2026-04-28T15:00:01Z</time></trkpt><trkpt lat="35.55026905109668" lon="-5.980921607969497"><ele>2.5</ele><time>2026-04-28T15:00:02Z</time></trkpt><trkpt lat="35.550548807223485" lon="-5.980786241064355"><ele>3.0</ele><time>2026-04-28T15:00:03Z</time></trkpt><trkpt lat="35.55082766458297" lon="-5.9806502180224985"><ele>3.0</ele><time>2026-04-28T15:00:04Z</time></trkpt><trkpt lat="35.551107620394916" lon="-5.980516547988747"><ele>3.0</ele><time>2026-04-28T15:00:05Z</time></trkpt><trkpt lat="35.55138849012953" lon="-5.980380874094219"><ele>3.0</ele><time>2026-04-28T15:00:06Z</time></trkpt><trkpt lat="35.5516688674511" lon="-5.980244161735403"><ele>3.0</ele><time>2026-04-28T15:00:07Z</time></trkpt><trkpt lat="35.551948888086166" lon="-5.980106565854021"><ele>1.0</ele><time>2026-04-28T15:00:08Z</time></trkpt><trkpt lat="35.552229242382595" lon="-5.97996938235576"><ele>-1.0</ele><time>2026-04-28T15:00:09Z</time></trkpt><trkpt lat="35.55251004704198" lon="-5.979832100581347"><ele>-1.0</ele><time>2026-04-28T15:00:10Z</time></trkpt><trkpt lat="35.55278867425795" lon="-5.979694207269671"><ele>-1.0</ele><time>2026-04-28T15:00:11Z</time></trkpt><trkpt lat="35.553065483637035" lon="-5.979556935461464"><ele>-0.5</ele><time>2026-04-28T15:00:12Z</time></trkpt><trkpt lat="35.55334391096997" lon="-5.979416016983918"><ele>0.0</ele><time>2026-04-28T15:00:13Z</time></trkpt><trkpt lat="35.55362223806647" lon="-5.979276001280611"><ele>1.0</ele><time>2026-04-28T15:00:13.999Z</time></trkpt><trkpt lat="35.553901508645886" lon="-5.979137319289297"><ele>2.0</ele><time>2026-04-28T15:00:14.999Z</time></trkpt><trkpt lat="35.55418319406176" lon="-5.978997216767243"><ele>2.0</ele><time>2026-04-28T15:00:15.999Z</time></trkpt><trkpt lat="35.55446437085114" lon="-5.978860443522516"><ele>2.0</ele><time>2026-04-28T15:00:16.999Z</time></trkpt><trkpt lat="35.55474453033103" lon="-5.978724828424238"><ele>0.5</ele><time>2026-04-28T15:00:17.999Z</time></trkpt><trkpt lat="35.55502542663111" lon="-5.978590697852145"><ele>-1.0</ele><time>2026-04-28T15:00:18.999Z</time></trkpt><trkpt lat="35.555304476601876" lon="-5.978454944827805"><ele>0.0</ele><time>2026-04-28T15:00:19.999Z</time></trkpt><trkpt lat="35.55558346141325" lon="-5.978317430305326"><ele>1.0</ele><time>2026-04-28T15:00:20.999Z</time></trkpt><trkpt lat="35.55586217136279" lon="-5.978182082010897"><ele>1.0</ele><time>2026-04-28T15:00:21.999Z</time></trkpt><trkpt lat="35.55614153519472" lon="-5.978044488961062"><ele>1.0</ele><time>2026-04-28T15:00:22.999Z</time></trkpt><trkpt lat="35.55641944217637" lon="-5.977905324979182"><ele>1.0</ele><time>2026-04-28T15:00:23.999Z</time></trkpt><trkpt lat="35.55669677066761" lon="-5.977765280119125"><ele>1.0</ele><time>2026-04-28T15:00:24.999Z</time></trkpt><trkpt lat="35.55697400889052" lon="-5.9776220393822"><ele>1.0</ele><time>2026-04-28T15:00:25.999Z</time></trkpt><trkpt lat="35.55725005115103" lon="-5.9774758442105576"><ele>1.0</ele><time>2026-04-28T15:00:26.999Z</time></trkpt><trkpt lat="35.55752354731981" lon="-5.977326231334065"><ele>1.0</ele><time>2026-04-28T15:00:27.999Z</time></trkpt><trkpt lat="35.55779355648556" lon="-5.9771704465867845"><ele>1.0</ele><time>2026-04-28T15:00:28.999Z</time></trkpt><trkpt lat="35.55806031462549" lon="-5.977007445348304"><ele>1.0</ele><time>2026-04-28T15:00:29.999Z</time></trkpt><trkpt lat="35.558324932042886" lon="-5.976838817682707"><ele>1.0</ele><time>2026-04-28T15:00:30.999Z</time></trkpt><trkpt lat="35.55858721136687" lon="-5.9766648057895715"><ele>1.0</ele><time>2026-04-28T15:00:31.999Z</time></trkpt><trkpt lat="35.55884593634956" lon="-5.976485279982021"><ele>1.0</ele><time>2026-04-28T15:00:32.999Z</time></trkpt><trkpt lat="35.55910183625805" lon="-5.976298430123073"><ele>1.0</ele><time>2026-04-28T15:00:33.999Z</time></trkpt><trkpt lat="35.55935534561566" lon="-5.976103785666524"><ele>1.0</ele><time>2026-04-28T15:00:34.999Z</time></trkpt><trkpt lat="35.55960581837056" lon="-5.975902383816992"><ele>1.0</ele><time>2026-04-28T15:00:35.999Z</time></trkpt><trkpt lat="35.55985304787251" lon="-5.975695257902812"><ele>1.0</ele><time>2026-04-28T15:00:36.999Z</time></trkpt><trkpt lat="35.5600999993579" lon="-5.975481427468103"><ele>1.0</ele><time>2026-04-28T15:00:37.999Z</time></trkpt><trkpt lat="35.56034441030522" lon="-5.975263482747037"><ele>1.0</ele><time>2026-04-28T15:00:38.999Z</time></trkpt><trkpt lat="35.560585779335405" lon="-5.975043675360434"><ele>1.0</ele><time>2026-04-28T15:00:39.999Z</time></trkpt><trkpt lat="35.56082751928719" lon="-5.974821453396609"><ele>1.0</ele><time>2026-04-28T15:00:40.999Z</time></trkpt><trkpt lat="35.56106818894927" lon="-5.974599342636005"><ele>1.0</ele><time>2026-04-28T15:00:41.999Z</time></trkpt><trkpt lat="35.561309464729966" lon="-5.974374855480556"><ele>1.0</ele><time>2026-04-28T15:00:42.999Z</time></trkpt><trkpt lat="35.56155109428561" lon="-5.974151534327287"><ele>1.0</ele><time>2026-04-28T15:00:43.999Z</time></trkpt><trkpt lat="35.561790989354584" lon="-5.973930439628255"><ele>1.0</ele><time>2026-04-28T15:00:44.999Z</time></trkpt><trkpt lat="35.56203154090794" lon="-5.973710690372885"><ele>1.0</ele><time>2026-04-28T15:00:45.999Z</time></trkpt><trkpt lat="35.56227283328859" lon="-5.973489606172758"><ele>1.0</ele><time>2026-04-28T15:00:46.999Z</time></trkpt><trkpt lat="35.56251404376901" lon="-5.9732674901109934"><ele>1.0</ele><time>2026-04-28T15:00:47.999Z</time></trkpt><trkpt lat="35.56275427537104" lon="-5.973045357970144"><ele>1.0</ele><time>2026-04-28T15:00:48.999Z</time></trkpt><trkpt lat="35.56299523883474" lon="-5.972822096325985"><ele>1.0</ele><time>2026-04-28T15:00:49.999Z</time></trkpt><trkpt lat="35.563235504893406" lon="-5.972598481814128"><ele>1.0</ele><time>2026-04-28T15:00:50.999Z</time></trkpt><trkpt lat="35.56347538749563" lon="-5.972375677521078"><ele>1.0</ele><time>2026-04-28T15:00:51.999Z</time></trkpt><trkpt lat="35.5637160299261" lon="-5.972152546765666"><ele>1.0</ele><time>2026-04-28T15:00:52.999Z</time></trkpt><trkpt lat="35.56395681038359" lon="-5.971933713599235"><ele>1.0</ele><time>2026-04-28T15:00:53.999Z</time></trkpt><trkpt lat="35.56419777502432" lon="-5.971714430984735"><ele>1.0</ele><time>2026-04-28T15:00:54.999Z</time></trkpt><trkpt lat="35.564439065913376" lon="-5.971494849972885"><ele>1.0</ele><time>2026-04-28T15:00:55.999Z</time></trkpt><trkpt lat="35.56467904866028" lon="-5.971274937052018"><ele>1.0</ele><time>2026-04-28T15:00:56.999Z</time></trkpt><trkpt lat="35.564917060187454" lon="-5.971054820616981"><ele>1.0</ele><time>2026-04-28T15:00:58Z</time></trkpt><trkpt lat="35.56515562595912" lon="-5.970831980017681"><ele>1.0</ele><time>2026-04-28T15:00:59Z</time></trkpt><trkpt lat="35.56539447937811" lon="-5.970611106107411"><ele>1.0</ele><time>2026-04-28T15:01:00Z</time></trkpt><trkpt lat="35.5656340702359" lon="-5.9703885584960865"><ele>1.0</ele><time>2026-04-28T15:01:01Z</time></trkpt><trkpt lat="35.56587758173683" lon="-5.970164104327283"><ele>1.0</ele><time>2026-04-28T15:01:02Z</time></trkpt><trkpt lat="35.566127496415206" lon="-5.969937392032013"><ele>1.0</ele><time>2026-04-28T15:01:03Z</time></trkpt><trkpt lat="35.56638139622696" lon="-5.969707045020864"><ele>1.0</ele><time>2026-04-28T15:01:04Z</time></trkpt><trkpt lat="35.566644075962564" lon="-5.969470140309687"><ele>1.0</ele><time>2026-04-28T15:01:05Z</time></trkpt><trkpt lat="35.566916726328124" lon="-5.969226288711251"><ele>1.5</ele><time>2026-04-28T15:01:06Z</time></trkpt><trkpt lat="35.56719572259231" lon="-5.9689777954178656"><ele>2.0</ele><time>2026-04-28T15:01:07Z</time></trkpt><trkpt lat="35.567475018179515" lon="-5.9687282692305965"><ele>2.0</ele><time>2026-04-28T15:01:08Z</time></trkpt><trkpt lat="35.56775244011761" lon="-5.968475902983069"><ele>2.0</ele><time>2026-04-28T15:01:09Z</time></trkpt><trkpt lat="35.56802849923245" lon="-5.968219610308851"><ele>9.0</ele><time>2026-04-28T15:01:10Z</time></trkpt><trkpt lat="35.568299968661734" lon="-5.967967488839886"><ele>16.0</ele><time>2026-04-28T15:01:11Z</time></trkpt><trkpt lat="35.5685710674319" lon="-5.967717402028344"><ele>24.5</ele><time>2026-04-28T15:01:12Z</time></trkpt><trkpt lat="35.56883885933377" lon="-5.967473370273935"><ele>33.0</ele><time>2026-04-28T15:01:13Z</time></trkpt><trkpt lat="35.56910424225461" lon="-5.967229401353547"><ele>33.0</ele><time>2026-04-28T15:01:14Z</time></trkpt><trkpt lat="35.569354091309286" lon="-5.96696709087102"><ele>33.0</ele><time>2026-04-28T15:01:15Z</time></trkpt><trkpt lat="35.56960232193824" lon="-5.966722413253746"><ele>39.0</ele><time>2026-04-28T15:01:16Z</time></trkpt><trkpt lat="35.56984657331617" lon="-5.966481657854508"><ele>45.0</ele><time>2026-04-28T15:01:17Z</time></trkpt><trkpt lat="35.57008980034208" lon="-5.966245071759178"><ele>45.0</ele><time>2026-04-28T15:01:18Z</time></trkpt><trkpt lat="35.57033274063635" lon="-5.966012938859735"><ele>45.0</ele><time>2026-04-28T15:01:19Z</time></trkpt><trkpt lat="35.57057444455546" lon="-5.965790319714345"><ele>49.0</ele><time>2026-04-28T15:01:20Z</time></trkpt><trkpt lat="35.57081582016074" lon="-5.965568112805945"><ele>53.0</ele><time>2026-04-28T15:01:21Z</time></trkpt><trkpt lat="35.57105688048069" lon="-5.965346418850077"><ele>54.0</ele><time>2026-04-28T15:01:22Z</time></trkpt><trkpt lat="35.57129708034744" lon="-5.965125516169578"><ele>55.0</ele><time>2026-04-28T15:01:23Z</time></trkpt><trkpt lat="35.57153908801821" lon="-5.964909920528429"><ele>55.0</ele><time>2026-04-28T15:01:24Z</time></trkpt><trkpt lat="35.571789203200616" lon="-5.964715561512079"><ele>55.0</ele><time>2026-04-28T15:01:25Z</time></trkpt><trkpt lat="35.57202517923607" lon="-5.964498482609586"><ele>54.5</ele><time>2026-04-28T15:01:26Z</time></trkpt><trkpt lat="35.57226229576224" lon="-5.96427975631604"><ele>54.0</ele><time>2026-04-28T15:01:27Z</time></trkpt><trkpt lat="35.57249735953926" lon="-5.9640623648728734"><ele>54.0</ele><time>2026-04-28T15:01:28Z</time></trkpt><trkpt lat="35.572733132472656" lon="-5.963845488950851"><ele>54.0</ele><time>2026-04-28T15:01:29Z</time></trkpt><trkpt lat="35.57296805413353" lon="-5.963630892396077"><ele>55.5</ele><time>2026-04-28T15:01:30Z</time></trkpt><trkpt lat="35.57320166429053" lon="-5.963417405746347"><ele>57.0</ele><time>2026-04-28T15:01:31Z</time></trkpt><trkpt lat="35.57343320495095" lon="-5.963204502646289"><ele>57.5</ele><time>2026-04-28T15:01:32Z</time></trkpt><trkpt lat="35.57366388422781" lon="-5.962991791685646"><ele>58.0</ele><time>2026-04-28T15:01:33Z</time></trkpt><trkpt lat="35.57389392736379" lon="-5.962779924022249"><ele>57.5</ele><time>2026-04-28T15:01:34Z</time></trkpt><trkpt lat="35.574123458674855" lon="-5.96256848877462"><ele>57.0</ele><time>2026-04-28T15:01:35Z</time></trkpt><trkpt lat="35.57435330455838" lon="-5.962357548814291"><ele>57.5</ele><time>2026-04-28T15:01:36Z</time></trkpt><trkpt lat="35.57458208964645" lon="-5.962145736332302"><ele>58.0</ele><time>2026-04-28T15:01:37Z</time></trkpt><trkpt lat="35.57480981848482" lon="-5.961931425963495"><ele>58.0</ele><time>2026-04-28T15:01:38Z</time></trkpt><trkpt lat="35.57503918657439" lon="-5.961715990115532"><ele>58.0</ele><time>2026-04-28T15:01:39Z</time></trkpt><trkpt lat="35.57526962276387" lon="-5.961500707561294"><ele>59.0</ele><time>2026-04-28T15:01:40Z</time></trkpt><trkpt lat="35.575498281743144" lon="-5.961287242307376"><ele>60.0</ele><time>2026-04-28T15:01:41Z</time></trkpt><trkpt lat="35.57572790358938" lon="-5.961075033863986"><ele>62.5</ele><time>2026-04-28T15:01:42Z</time></trkpt><trkpt lat="35.575955943676696" lon="-5.960863462135151"><ele>65.0</ele><time>2026-04-28T15:01:43Z</time></trkpt><trkpt lat="35.576177586792845" lon="-5.96065683268836"><ele>63.0</ele><time>2026-04-28T15:01:44Z</time></trkpt><trkpt lat="35.57638711682934" lon="-5.960462406276755"><ele>61.0</ele><time>2026-04-28T15:01:45Z</time></trkpt><trkpt lat="35.57658691398522" lon="-5.9602767726872905"><ele>61.0</ele><time>2026-04-28T15:01:46Z</time></trkpt><trkpt lat="35.57677707507503" lon="-5.960100707801658"><ele>61.0</ele><time>2026-04-28T15:01:47Z</time></trkpt><trkpt lat="35.57695937799625" lon="-5.95993248271883"><ele>60.0</ele><time>2026-04-28T15:01:48Z</time></trkpt><trkpt lat="35.57712700289591" lon="-5.959777790243331"><ele>59.0</ele><time>2026-04-28T15:01:49Z</time></trkpt><trkpt lat="35.57728040840795" lon="-5.959635726707358"><ele>58.0</ele><time>2026-04-28T15:01:50Z</time></trkpt><trkpt lat="35.577423722873995" lon="-5.959502672183057"><ele>58.0</ele><time>2026-04-28T15:01:51Z</time></trkpt><trkpt lat="35.577556848875645" lon="-5.959378513899898"><ele>58.0</ele><time>2026-04-28T15:01:52Z</time></trkpt><trkpt lat="35.577682673915945" lon="-5.9592605907752985"><ele>58.0</ele><time>2026-04-28T15:01:53Z</time></trkpt><trkpt lat="35.577798542278366" lon="-5.95915333801725"><ele>58.0</ele><time>2026-04-28T15:01:54Z</time></trkpt><trkpt lat="35.577905438122535" lon="-5.959052916658453"><ele>58.0</ele><time>2026-04-28T15:01:55Z</time></trkpt><trkpt lat="35.578001592078074" lon="-5.95896083407216"><ele>58.0</ele><time>2026-04-28T15:01:56Z</time></trkpt><trkpt lat="35.57809161856863" lon="-5.958877794100181"><ele>58.0</ele><time>2026-04-28T15:01:57Z</time></trkpt><trkpt lat="35.57817554600137" lon="-5.958803569460705"><ele>57.99999999999999</ele><time>2026-04-28T15:01:58Z</time></trkpt><trkpt lat="35.578253081445" lon="-5.958740031539876"><ele>58.0</ele><time>2026-04-28T15:01:59Z</time></trkpt><trkpt lat="35.57832406478112" lon="-5.958685735856336"><ele>58.0</ele><time>2026-04-28T15:02:00Z</time></trkpt><trkpt lat="35.578395320137254" lon="-5.958639971370909"><ele>58.0</ele><time>2026-04-28T15:02:01Z</time></trkpt><trkpt lat="35.578463592311046" lon="-5.958605333648992"><ele>57.99999999999999</ele><time>2026-04-28T15:02:02Z</time></trkpt><trkpt lat="35.57852765482565" lon="-5.958575307628669"><ele>58.0</ele><time>2026-04-28T15:02:03Z</time></trkpt><trkpt lat="35.57859082491205" lon="-5.958543901464558"><ele>57.99999999999999</ele><time>2026-04-28T15:02:04Z</time></trkpt><trkpt lat="35.57865092810828" lon="-5.958507914547518"><ele>58.0</ele><time>2026-04-28T15:02:05Z</time></trkpt><trkpt lat="35.578707118157986" lon="-5.958438509322675"><ele>58.0</ele><time>2026-04-28T15:02:06Z</time></trkpt><trkpt lat="35.578785662216525" lon="-5.958373231090931"><ele>58.0</ele><time>2026-04-28T15:02:07Z</time></trkpt><trkpt lat="35.57886964603295" lon="-5.958307040516126"><ele>57.99999999999999</ele><time>2026-04-28T15:02:08Z</time></trkpt><trkpt lat="35.578963698563264" lon="-5.958251236588239"><ele>58.0</ele><time>2026-04-28T15:02:09Z</time></trkpt><trkpt lat="35.57905444805092" lon="-5.958179298527411"><ele>57.599999999999994</ele><time>2026-04-28T15:02:10Z</time></trkpt><trkpt lat="35.57914715291465" lon="-5.958108359240496"><ele>57.199999999999996</ele><time>2026-04-28T15:02:11Z</time></trkpt><trkpt lat="35.57923979663756" lon="-5.958039084098196"><ele>56.8</ele><time>2026-04-28T15:02:12Z</time></trkpt><trkpt lat="35.57932214850116" lon="-5.957950407764073"><ele>56.4</ele><time>2026-04-28T15:02:13Z</time></trkpt><trkpt lat="35.579412942605906" lon="-5.957878849797721"><ele>56.0</ele><time>2026-04-28T15:02:14Z</time></trkpt><trkpt lat="35.57950857526904" lon="-5.957811127066871"><ele>57.25</ele><time>2026-04-28T15:02:15Z</time></trkpt><trkpt lat="35.57960718195832" lon="-5.957745564885501"><ele>58.5</ele><time>2026-04-28T15:02:16Z</time></trkpt><trkpt lat="35.57970679322057" lon="-5.95767933487841"><ele>59.75</ele><time>2026-04-28T15:02:17Z</time></trkpt><trkpt lat="35.579807665488936" lon="-5.957612266430017"><ele>61.0</ele><time>2026-04-28T15:02:18Z</time></trkpt><trkpt lat="35.579908871348614" lon="-5.957544976165786"><ele>61.5</ele><time>2026-04-28T15:02:19Z</time></trkpt><trkpt lat="35.58001529093379" lon="-5.957474219415682"><ele>62.0</ele><time>2026-04-28T15:02:20Z</time></trkpt><trkpt lat="35.58013348811235" lon="-5.957402656136868"><ele>62.5</ele><time>2026-04-28T15:02:21Z</time></trkpt><trkpt lat="35.58025863805813" lon="-5.957331393819646"><ele>63.0</ele><time>2026-04-28T15:02:22Z</time></trkpt><trkpt lat="35.58039054741878" lon="-5.957256282565384"><ele>63.0</ele><time>2026-04-28T15:02:23Z</time></trkpt><trkpt lat="35.58052764174111" lon="-5.957178218930735"><ele>63.0</ele><time>2026-04-28T15:02:23.999Z</time></trkpt><trkpt lat="35.58066927137729" lon="-5.9571026077065135"><ele>63.0</ele><time>2026-04-28T15:02:24.999Z</time></trkpt><trkpt lat="35.580810235760445" lon="-5.957031185740756"><ele>63.0</ele><time>2026-04-28T15:02:25.999Z</time></trkpt><trkpt lat="35.58095869057106" lon="-5.95695701494643"><ele>63.0</ele><time>2026-04-28T15:02:26.999Z</time></trkpt><trkpt lat="35.581107860599815" lon="-5.956893644707732"><ele>63.0</ele><time>2026-04-28T15:02:27.999Z</time></trkpt><trkpt lat="35.581258315442454" lon="-5.956829728773051"><ele>62.66666666666667</ele><time>2026-04-28T15:02:28.999Z</time></trkpt><trkpt lat="35.58140562874115" lon="-5.956767147412233"><ele>62.333333333333336</ele><time>2026-04-28T15:02:29.999Z</time></trkpt><trkpt lat="35.58156453457842" lon="-5.956712602112761"><ele>62.0</ele><time>2026-04-28T15:02:30.999Z</time></trkpt><trkpt lat="35.58172154454868" lon="-5.956669211803528"><ele>62.0</ele><time>2026-04-28T15:02:31.999Z</time></trkpt><trkpt lat="35.5818889815575" lon="-5.956626450096571"><ele>62.0</ele><time>2026-04-28T15:02:32.999Z</time></trkpt><trkpt lat="35.582061674241814" lon="-5.95659419307399"><ele>62.0</ele><time>2026-04-28T15:02:33.999Z</time></trkpt><trkpt lat="35.58223912795883" lon="-5.956560213755283"><ele>57.66666666666667</ele><time>2026-04-28T15:02:34.999Z</time></trkpt><trkpt lat="35.58242319327485" lon="-5.956523787661026"><ele>53.33333333333333</ele><time>2026-04-28T15:02:35.999Z</time></trkpt><trkpt lat="35.582611841336025" lon="-5.956486454567767"><ele>49.0</ele><time>2026-04-28T15:02:36.999Z</time></trkpt><trkpt lat="35.582808974947746" lon="-5.956464770187305"><ele>46.666666666666664</ele><time>2026-04-28T15:02:37.999Z</time></trkpt><trkpt lat="35.58300602501014" lon="-5.956442883487789"><ele>44.33333333333333</ele><time>2026-04-28T15:02:38.999Z</time></trkpt><trkpt lat="35.583206590665995" lon="-5.956420601317073"><ele>42.0</ele><time>2026-04-28T15:02:39.999Z</time></trkpt><trkpt lat="35.583410346278505" lon="-5.956399385618852"><ele>42.0</ele><time>2026-04-28T15:02:40.999Z</time></trkpt><trkpt lat="35.583615476792204" lon="-5.95638564559797"><ele>42.0</ele><time>2026-04-28T15:02:41.999Z</time></trkpt><trkpt lat="35.58382167258967" lon="-5.956371834228492"><ele>42.0</ele><time>2026-04-28T15:02:42.999Z</time></trkpt><trkpt lat="35.584028864822734" lon="-5.956357956125761"><ele>43.666666666666664</ele><time>2026-04-28T15:02:43.999Z</time></trkpt><trkpt lat="35.58423988086708" lon="-5.956353104550247"><ele>45.33333333333333</ele><time>2026-04-28T15:02:44.999Z</time></trkpt><trkpt lat="35.58444269996604" lon="-5.956360650326321"><ele>47.0</ele><time>2026-04-28T15:02:45.999Z</time></trkpt><trkpt lat="35.58463481347618" lon="-5.956373433162161"><ele>47.33333333333333</ele><time>2026-04-28T15:02:46.999Z</time></trkpt><trkpt lat="35.584826317335335" lon="-5.956394316236753"><ele>47.666666666666664</ele><time>2026-04-28T15:02:47.999Z</time></trkpt><trkpt lat="35.58500755398959" lon="-5.956422190410466"><ele>48.0</ele><time>2026-04-28T15:02:48.999Z</time></trkpt><trkpt lat="35.585191421229574" lon="-5.956453900179847"><ele>46.666666666666664</ele><time>2026-04-28T15:02:49.999Z</time></trkpt><trkpt lat="35.58537797945119" lon="-5.956487522792828"><ele>45.33333333333333</ele><time>2026-04-28T15:02:50.999Z</time></trkpt><trkpt lat="35.58557205799725" lon="-5.9565314477037745"><ele>44.0</ele><time>2026-04-28T15:02:51.999Z</time></trkpt><trkpt lat="35.585763069226154" lon="-5.956583513090893"><ele>44.0</ele><time>2026-04-28T15:02:52.999Z</time></trkpt><trkpt lat="35.585957238853325" lon="-5.956636440181476"><ele>44.0</ele><time>2026-04-28T15:02:53.999Z</time></trkpt><trkpt lat="35.586152485444885" lon="-5.9566896613479905"><ele>44.0</ele><time>2026-04-28T15:02:54.999Z</time></trkpt><trkpt lat="35.5863456221399" lon="-5.9567423073883665"><ele>41.33333333333333</ele><time>2026-04-28T15:02:55.999Z</time></trkpt><trkpt lat="35.58651823656927" lon="-5.956892009051845"><ele>38.666666666666664</ele><time>2026-04-28T15:02:56.999Z</time></trkpt><trkpt lat="35.58670550812086" lon="-5.956962536366043"><ele>36.0</ele><time>2026-04-28T15:02:57.999Z</time></trkpt><trkpt lat="35.58689087120673" lon="-5.957037416093018"><ele>37.0</ele><time>2026-04-28T15:02:58.999Z</time></trkpt><trkpt lat="35.587076590595416" lon="-5.957117588647595"><ele>38.0</ele><time>2026-04-28T15:02:59.999Z</time></trkpt><trkpt lat="35.587261820729374" lon="-5.957206299992306"><ele>39.0</ele><time>2026-04-28T15:03:00.999Z</time></trkpt><trkpt lat="35.587446012017644" lon="-5.9573001787559505"><ele>39.0</ele><time>2026-04-28T15:03:01.999Z</time></trkpt><trkpt lat="35.58762868985662" lon="-5.957399028138152"><ele>39.0</ele><time>2026-04-28T15:03:02.999Z</time></trkpt><trkpt lat="35.587807843761624" lon="-5.957503803477874"><ele>39.0</ele><time>2026-04-28T15:03:04Z</time></trkpt><trkpt lat="35.58798521029501" lon="-5.957612826701391"><ele>36.333333333333336</ele><time>2026-04-28T15:03:05Z</time></trkpt><trkpt lat="35.58816094378915" lon="-5.957724875198161"><ele>33.66666666666667</ele><time>2026-04-28T15:03:06Z</time></trkpt><trkpt lat="35.58833332730882" lon="-5.957840269605832"><ele>31.0</ele><time>2026-04-28T15:03:07Z</time></trkpt><trkpt lat="35.58850048735807" lon="-5.957959576544915"><ele>27.333333333333336</ele><time>2026-04-28T15:03:08Z</time></trkpt><trkpt lat="35.588692647332365" lon="-5.958035813017447"><ele>23.666666666666668</ele><time>2026-04-28T15:03:09Z</time></trkpt><trkpt lat="35.588854433916275" lon="-5.958172658486995"><ele>20.0</ele><time>2026-04-28T15:03:10Z</time></trkpt><trkpt lat="35.58901517463823" lon="-5.958308619328638"><ele>16.333333333333336</ele><time>2026-04-28T15:03:11Z</time></trkpt><trkpt lat="35.589173674806794" lon="-5.958442685031446"><ele>12.666666666666668</ele><time>2026-04-28T15:03:12Z</time></trkpt><trkpt lat="35.58932944213577" lon="-5.958574439177974"><ele>9.0</ele><time>2026-04-28T15:03:13Z</time></trkpt><trkpt lat="35.58947882275323" lon="-5.958717689509684"><ele>9.333333333333334</ele><time>2026-04-28T15:03:14Z</time></trkpt><trkpt lat="35.589624660390335" lon="-5.958858465953017"><ele>9.666666666666668</ele><time>2026-04-28T15:03:15Z</time></trkpt><trkpt lat="35.589774383188995" lon="-5.958996237008833"><ele>10.0</ele><time>2026-04-28T15:03:16Z</time></trkpt><trkpt lat="35.589930116538255" lon="-5.95913539773637"><ele>9.333333333333334</ele><time>2026-04-28T15:03:17Z</time></trkpt><trkpt lat="35.59008750558877" lon="-5.9592760379893095"><ele>8.666666666666666</ele><time>2026-04-28T15:03:18Z</time></trkpt><trkpt lat="35.590236481059826" lon="-5.959433943591372"><ele>8.0</ele><time>2026-04-28T15:03:19Z</time></trkpt><trkpt lat="35.59041234193896" lon="-5.959544620810683"><ele>8.0</ele><time>2026-04-28T15:03:20Z</time></trkpt><trkpt lat="35.59058237541149" lon="-5.959673324955811"><ele>8.0</ele><time>2026-04-28T15:03:21Z</time></trkpt><trkpt lat="35.59075224184467" lon="-5.959801902628272"><ele>8.0</ele><time>2026-04-28T15:03:22Z</time></trkpt><trkpt lat="35.59092046872423" lon="-5.959929239242605"><ele>8.333333333333332</ele><time>2026-04-28T15:03:23Z</time></trkpt><trkpt lat="35.59109112089682" lon="-5.960044781714607"><ele>8.666666666666666</ele><time>2026-04-28T15:03:24Z</time></trkpt><trkpt lat="35.59126874911233" lon="-5.960155268642526"><ele>9.0</ele><time>2026-04-28T15:03:25Z</time></trkpt><trkpt lat="35.59144719731999" lon="-5.960266265581125"><ele>9.0</ele><time>2026-04-28T15:03:26Z</time></trkpt><trkpt lat="35.591627531575305" lon="-5.960370217586413"><ele>9.0</ele><time>2026-04-28T15:03:27Z</time></trkpt><trkpt lat="35.591814942616544" lon="-5.960465415862204"><ele>9.0</ele><time>2026-04-28T15:03:28Z</time></trkpt><trkpt lat="35.592005091789666" lon="-5.960562005004826"><ele>12.0</ele><time>2026-04-28T15:03:29Z</time></trkpt><trkpt lat="35.59219542313672" lon="-5.960658686713731"><ele>15.0</ele><time>2026-04-28T15:03:30Z</time></trkpt><trkpt lat="35.59238613993464" lon="-5.960745809942458"><ele>18.0</ele><time>2026-04-28T15:03:31Z</time></trkpt><trkpt lat="35.59257638815624" lon="-5.960828756726681"><ele>15.333333333333334</ele><time>2026-04-28T15:03:32Z</time></trkpt><trkpt lat="35.59277414176347" lon="-5.960901726009235"><ele>12.666666666666668</ele><time>2026-04-28T15:03:33Z</time></trkpt><trkpt lat="35.59297316786785" lon="-5.9609751601158445"><ele>10.0</ele><time>2026-04-28T15:03:34Z</time></trkpt><trkpt lat="35.59317015509891" lon="-5.9610465068395495"><ele>10.0</ele><time>2026-04-28T15:03:35Z</time></trkpt><trkpt lat="35.593367292619554" lon="-5.961112842970082"><ele>10.0</ele><time>2026-04-28T15:03:36Z</time></trkpt><trkpt lat="35.5935626890615" lon="-5.961178593259419"><ele>10.0</ele><time>2026-04-28T15:03:37Z</time></trkpt><trkpt lat="35.59375015901833" lon="-5.96125755713592"><ele>11.0</ele><time>2026-04-28T15:03:38Z</time></trkpt><trkpt lat="35.59393634614712" lon="-5.96130001658221"><ele>12.0</ele><time>2026-04-28T15:03:39Z</time></trkpt><trkpt lat="35.594111868876986" lon="-5.9613353329981225"><ele>13.0</ele><time>2026-04-28T15:03:40Z</time></trkpt><trkpt lat="35.59428229700182" lon="-5.961334865292162"><ele>13.0</ele><time>2026-04-28T15:03:41Z</time></trkpt><trkpt lat="35.594445854580805" lon="-5.96135384994071"><ele>13.0</ele><time>2026-04-28T15:03:42Z</time></trkpt><trkpt lat="35.594609117144536" lon="-5.961371674720451"><ele>13.0</ele><time>2026-04-28T15:03:43Z</time></trkpt><trkpt lat="35.594781318025326" lon="-5.961379018035976"><ele>16.333333333333332</ele><time>2026-04-28T15:03:44Z</time></trkpt><trkpt lat="35.59495843203035" lon="-5.961385474169178"><ele>19.666666666666668</ele><time>2026-04-28T15:03:45Z</time></trkpt><trkpt lat="35.595130857020585" lon="-5.961391745757021"><ele>23.0</ele><time>2026-04-28T15:03:46Z</time></trkpt><trkpt lat="35.59530019254203" lon="-5.961397904972443"><ele>20.666666666666668</ele><time>2026-04-28T15:03:47Z</time></trkpt><trkpt lat="35.59546697375257" lon="-5.961407285053549"><ele>18.333333333333332</ele><time>2026-04-28T15:03:48Z</time></trkpt><trkpt lat="35.595631995773275" lon="-5.961419159759595"><ele>16.0</ele><time>2026-04-28T15:03:49Z</time></trkpt><trkpt lat="35.5957985790686" lon="-5.9614311468198675"><ele>16.0</ele><time>2026-04-28T15:03:50Z</time></trkpt><trkpt lat="35.59596577831973" lon="-5.961443178189404"><ele>16.0</ele><time>2026-04-28T15:03:51Z</time></trkpt><trkpt lat="35.59613532587679" lon="-5.961473956591321"><ele>16.0</ele><time>2026-04-28T15:03:52Z</time></trkpt><trkpt lat="35.59630806230777" lon="-5.961475030475983"><ele>10.0</ele><time>2026-04-28T15:03:53Z</time></trkpt><trkpt lat="35.59648156285572" lon="-5.961475586272007"><ele>4.0</ele><time>2026-04-28T15:03:54Z</time></trkpt><trkpt lat="35.59665707601041" lon="-5.961478744147156"><ele>-2.0</ele><time>2026-04-28T15:03:55Z</time></trkpt><trkpt lat="35.59683616973281" lon="-5.9614823543034285"><ele>-2.333333333333333</ele><time>2026-04-28T15:03:56Z</time></trkpt><trkpt lat="35.59701562692625" lon="-5.961487798457539"><ele>-2.6666666666666665</ele><time>2026-04-28T15:03:57Z</time></trkpt><trkpt lat="35.59719826362381" lon="-5.961489286450443"><ele>-3.0</ele><time>2026-04-28T15:03:58Z</time></trkpt><trkpt lat="35.59738658809931" lon="-5.961491717762129"><ele>-3.0</ele><time>2026-04-28T15:03:59Z</time></trkpt><trkpt lat="35.59758176585233" lon="-5.961495635711381"><ele>-3.0</ele><time>2026-04-28T15:04:00Z</time></trkpt><trkpt lat="35.59778271602952" lon="-5.961497928111445"><ele>-3.0</ele><time>2026-04-28T15:04:01Z</time></trkpt><trkpt lat="35.59798792578554" lon="-5.961502309025907"><ele>-2.3333333333333335</ele><time>2026-04-28T15:04:02Z</time></trkpt><trkpt lat="35.59819442311416" lon="-5.96150516562965"><ele>-1.6666666666666665</ele><time>2026-04-28T15:04:03Z</time></trkpt><trkpt lat="35.5983978675485" lon="-5.96150701359801"><ele>-1.0</ele><time>2026-04-28T15:04:04Z</time></trkpt><trkpt lat="35.59859775756319" lon="-5.961510152563641"><ele>-0.6666666666666666</ele><time>2026-04-28T15:04:05Z</time></trkpt><trkpt lat="35.59879791151988" lon="-5.961511768977899"><ele>-0.3333333333333333</ele><time>2026-04-28T15:04:06Z</time></trkpt><trkpt lat="35.59899985426477" lon="-5.961515561784126"><ele>0.0</ele><time>2026-04-28T15:04:07Z</time></trkpt><trkpt lat="35.59920109081282" lon="-5.9615200368684595"><ele>0.0</ele><time>2026-04-28T15:04:08Z</time></trkpt><trkpt lat="35.59939888938764" lon="-5.961519239566779"><ele>0.0</ele><time>2026-04-28T15:04:09Z</time></trkpt><trkpt lat="35.59959674472873" lon="-5.961518960107605"><ele>0.0</ele><time>2026-04-28T15:04:10Z</time></trkpt><trkpt lat="35.59979619269945" lon="-5.961521652379788"><ele>0.0</ele><time>2026-04-28T15:04:11Z</time></trkpt><trkpt lat="35.59999683297571" lon="-5.961525720015966"><ele>0.0</ele><time>2026-04-28T15:04:12Z</time></trkpt><trkpt lat="35.600199169790585" lon="-5.961531229262869"><ele>0.0</ele><time>2026-04-28T15:04:13Z</time></trkpt><trkpt lat="35.600401789151825" lon="-5.961533561720015"><ele>-0.3333333333333333</ele><time>2026-04-28T15:04:14Z</time></trkpt><trkpt lat="35.60060400086513" lon="-5.961535377927532"><ele>-0.6666666666666666</ele><time>2026-04-28T15:04:15Z</time></trkpt><trkpt lat="35.600806596218355" lon="-5.961539522283118"><ele>-1.0</ele><time>2026-04-28T15:04:16Z</time></trkpt><trkpt lat="35.601005557133696" lon="-5.961540321488904"><ele>0.33333333333333337</ele><time>2026-04-28T15:04:17Z</time></trkpt><trkpt lat="35.60120089452331" lon="-5.961542500031328"><ele>1.6666666666666667</ele><time>2026-04-28T15:04:18Z</time></trkpt><trkpt lat="35.601392799744836" lon="-5.961544252648395"><ele>3.0</ele><time>2026-04-28T15:04:19Z</time></trkpt><trkpt lat="35.601581669295356" lon="-5.9615483535656"><ele>3.0</ele><time>2026-04-28T15:04:20Z</time></trkpt><trkpt lat="35.601768855035296" lon="-5.9615531809540085"><ele>3.0</ele><time>2026-04-28T15:04:21Z</time></trkpt><trkpt lat="35.60195489629505" lon="-5.961556435507447"><ele>3.0</ele><time>2026-04-28T15:04:22Z</time></trkpt><trkpt lat="35.602142956051104" lon="-5.961559790384472"><ele>3.333333333333333</ele><time>2026-04-28T15:04:23Z</time></trkpt><trkpt lat="35.60232998134225" lon="-5.961561149309121"><ele>3.6666666666666665</ele><time>2026-04-28T15:04:24Z</time></trkpt><trkpt lat="35.602516195428116" lon="-5.961562720018906"><ele>4.0</ele><time>2026-04-28T15:04:25Z</time></trkpt><trkpt lat="35.60270151204065" lon="-5.961566163188584"><ele>3.0</ele><time>2026-04-28T15:04:26Z</time></trkpt><trkpt lat="35.60288688810108" lon="-5.961568217918853"><ele>2.0</ele><time>2026-04-28T15:04:27Z</time></trkpt><trkpt lat="35.6030698899396" lon="-5.961570807374015"><ele>1.0</ele><time>2026-04-28T15:04:28Z</time></trkpt><trkpt lat="35.60325166643473" lon="-5.961574341291365"><ele>1.0</ele><time>2026-04-28T15:04:29Z</time></trkpt><trkpt lat="35.603432619141756" lon="-5.961575232643757"><ele>1.0</ele><time>2026-04-28T15:04:30Z</time></trkpt><trkpt lat="35.60361223709867" lon="-5.961574184202695"><ele>1.0</ele><time>2026-04-28T15:04:31Z</time></trkpt><trkpt lat="35.60378643226161" lon="-5.96157812511894"><ele>1.3333333333333333</ele><time>2026-04-28T15:04:32Z</time></trkpt><trkpt lat="35.603961438472425" lon="-5.961578276299515"><ele>1.6666666666666665</ele><time>2026-04-28T15:04:33Z</time></trkpt><trkpt lat="35.604138207492156" lon="-5.9615786667871316"><ele>2.0</ele><time>2026-04-28T15:04:33.999Z</time></trkpt><trkpt lat="35.604317445106254" lon="-5.961583774692849"><ele>2.333333333333333</ele><time>2026-04-28T15:04:34.999Z</time></trkpt><trkpt lat="35.604498204117476" lon="-5.9615858392368"><ele>2.6666666666666665</ele><time>2026-04-28T15:04:35.999Z</time></trkpt><trkpt lat="35.60467918440121" lon="-5.961588554991787"><ele>3.0</ele><time>2026-04-28T15:04:36.999Z</time></trkpt><trkpt lat="35.604859838628606" lon="-5.961589250162581"><ele>3.0</ele><time>2026-04-28T15:04:37.999Z</time></trkpt><trkpt lat="35.60504066386357" lon="-5.961591585784923"><ele>3.0</ele><time>2026-04-28T15:04:38.999Z</time></trkpt><trkpt lat="35.60522111776497" lon="-5.961594655709881"><ele>3.0</ele><time>2026-04-28T15:04:39.999Z</time></trkpt><trkpt lat="35.60540145530879" lon="-5.961600115663609"><ele>2.6666666666666665</ele><time>2026-04-28T15:04:40.999Z</time></trkpt><trkpt lat="35.60558097279006" lon="-5.961605864801928"><ele>2.333333333333333</ele><time>2026-04-28T15:04:41.999Z</time></trkpt><trkpt lat="35.60576077084883" lon="-5.961607422207128"><ele>2.0</ele><time>2026-04-28T15:04:42.999Z</time></trkpt><trkpt lat="35.605940029485105" lon="-5.961608658184295"><ele>2.0</ele><time>2026-04-28T15:04:43.999Z</time></trkpt><trkpt lat="35.606120430785246" lon="-5.961610318782536"><ele>2.0</ele><time>2026-04-28T15:04:44.999Z</time></trkpt><trkpt lat="35.606300464088335" lon="-5.9616121433837925"><ele>2.0</ele><time>2026-04-28T15:04:45.999Z</time></trkpt><trkpt lat="35.60647991096127" lon="-5.961614167087419"><ele>2.0</ele><time>2026-04-28T15:04:46.999Z</time></trkpt><trkpt lat="35.60666012777616" lon="-5.961615330470095"><ele>2.0</ele><time>2026-04-28T15:04:47.999Z</time></trkpt><trkpt lat="35.60683943199793" lon="-5.9616187183450515"><ele>2.0</ele><time>2026-04-28T15:04:48.999Z</time></trkpt><trkpt lat="35.60701473307364" lon="-5.961621892090297"><ele>3.666666666666667</ele><time>2026-04-28T15:04:49.999Z</time></trkpt><trkpt lat="35.607186495257174" lon="-5.961624537260093"><ele>5.333333333333334</ele><time>2026-04-28T15:04:50.999Z</time></trkpt><trkpt lat="35.6073563353979" lon="-5.961627604476401"><ele>7.0</ele><time>2026-04-28T15:04:51.999Z</time></trkpt><trkpt lat="35.607525173370256" lon="-5.961631283806715"><ele>7.0</ele><time>2026-04-28T15:04:52.999Z</time></trkpt><trkpt lat="35.60769299873483" lon="-5.961633655003592"><ele>7.0</ele><time>2026-04-28T15:04:53.999Z</time></trkpt><trkpt lat="35.60785716139709" lon="-5.961636206855864"><ele>7.0</ele><time>2026-04-28T15:04:54.999Z</time></trkpt><trkpt lat="35.60801028918623" lon="-5.96163788780491"><ele>10.25</ele><time>2026-04-28T15:04:55.999Z</time></trkpt><trkpt lat="35.60815238266568" lon="-5.961637743253539"><ele>13.5</ele><time>2026-04-28T15:04:56.999Z</time></trkpt><trkpt lat="35.60828561484837" lon="-5.961639743572345"><ele>16.75</ele><time>2026-04-28T15:04:57.999Z</time></trkpt><trkpt lat="35.60840753096288" lon="-5.961638683148284"><ele>20.0</ele><time>2026-04-28T15:04:58.999Z</time></trkpt><trkpt lat="35.6085161379727" lon="-5.961639649140721"><ele>20.0</ele><time>2026-04-28T15:04:59.999Z</time></trkpt><trkpt lat="35.608613359624854" lon="-5.961640585459467"><ele>20.0</ele><time>2026-04-28T15:05:00.999Z</time></trkpt><trkpt lat="35.60870205521398" lon="-5.961620759176934"><ele>20.0</ele><time>2026-04-28T15:05:01.999Z</time></trkpt><trkpt lat="35.60878508156196" lon="-5.961619336768317"><ele>20.0</ele><time>2026-04-28T15:05:02.999Z</time></trkpt><trkpt lat="35.60886402057877" lon="-5.961614475922129"><ele>20.0</ele><time>2026-04-28T15:05:03.999Z</time></trkpt><trkpt lat="35.60894943929572" lon="-5.961608923180801"><ele>20.0</ele><time>2026-04-28T15:05:04.999Z</time></trkpt><trkpt lat="35.609044508445734" lon="-5.9616037339321775"><ele>23.5</ele><time>2026-04-28T15:05:05.999Z</time></trkpt><trkpt lat="35.60915098282229" lon="-5.961608229814355"><ele>27.0</ele><time>2026-04-28T15:05:06.999Z</time></trkpt><trkpt lat="35.60927573167532" lon="-5.961589282538249"><ele>30.5</ele><time>2026-04-28T15:05:07.999Z</time></trkpt><trkpt lat="35.609423098398494" lon="-5.961581202656604"><ele>34.0</ele><time>2026-04-28T15:05:08.999Z</time></trkpt><trkpt lat="35.6095992157644" lon="-5.961544579825269"><ele>40.5</ele><time>2026-04-28T15:05:10Z</time></trkpt><trkpt lat="35.60981620095491" lon="-5.96152943709879"><ele>47.0</ele><time>2026-04-28T15:05:11Z</time></trkpt><trkpt lat="35.61007047446133" lon="-5.9615117542066365"><ele>49.0</ele><time>2026-04-28T15:05:12Z</time></trkpt><trkpt lat="35.61034600250737" lon="-5.961484915443722"><ele>51.0</ele><time>2026-04-28T15:05:13Z</time></trkpt><trkpt lat="35.61068101427631" lon="-5.961448325984347"><ele>51.0</ele><time>2026-04-28T15:05:14Z</time></trkpt><trkpt lat="35.61102999721577" lon="-5.961420475880015"><ele>51.0</ele><time>2026-04-28T15:05:15Z</time></trkpt><trkpt lat="35.611403182435794" lon="-5.96138962206455"><ele>51.0</ele><time>2026-04-28T15:05:16Z</time></trkpt><trkpt lat="35.611787719280194" lon="-5.961354449114484"><ele>51.0</ele><time>2026-04-28T15:05:17Z</time></trkpt><trkpt lat="35.61215758073494" lon="-5.961327532686214"><ele>51.0</ele><time>2026-04-28T15:05:18Z</time></trkpt><trkpt lat="35.612498581967955" lon="-5.961306683577222"><ele>51.0</ele><time>2026-04-28T15:05:19Z</time></trkpt><trkpt lat="35.61283385731734" lon="-5.961269156566644"><ele>51.0</ele><time>2026-04-28T15:05:20Z</time></trkpt><trkpt lat="35.61315356922107" lon="-5.961224426202075"><ele>51.0</ele><time>2026-04-28T15:05:21Z</time></trkpt><trkpt lat="35.61343061547339" lon="-5.96117472752032"><ele>51.5</ele><time>2026-04-28T15:05:22Z</time></trkpt><trkpt lat="35.61368669944965" lon="-5.961128789195718"><ele>52.0</ele><time>2026-04-28T15:05:23Z</time></trkpt><trkpt lat="35.613942845334016" lon="-5.961082630732496"><ele>52.0</ele><time>2026-04-28T15:05:24Z</time></trkpt><trkpt lat="35.61418981266299" lon="-5.961040143121428"><ele>52.0</ele><time>2026-04-28T15:05:25Z</time></trkpt><trkpt lat="35.61444286708854" lon="-5.960997779742328"><ele>52.5</ele><time>2026-04-28T15:05:26Z</time></trkpt><trkpt lat="35.614711839033085" lon="-5.960952091800029"><ele>53.0</ele><time>2026-04-28T15:05:27Z</time></trkpt><trkpt lat="35.61498939575972" lon="-5.960896615343251"><ele>52.5</ele><time>2026-04-28T15:05:28Z</time></trkpt><trkpt lat="35.61527490029003" lon="-5.9608504605761174"><ele>52.0</ele><time>2026-04-28T15:05:29Z</time></trkpt><trkpt lat="35.61555705618268" lon="-5.960778373630706"><ele>51.0</ele><time>2026-04-28T15:05:30Z</time></trkpt><trkpt lat="35.61583640059421" lon="-5.9607062584714"><ele>50.0</ele><time>2026-04-28T15:05:31Z</time></trkpt><trkpt lat="35.616112190627696" lon="-5.960636515270027"><ele>48.5</ele><time>2026-04-28T15:05:32Z</time></trkpt><trkpt lat="35.616390911440085" lon="-5.960565485025697"><ele>47.0</ele><time>2026-04-28T15:05:33Z</time></trkpt><trkpt lat="35.61667187688928" lon="-5.96049075235157"><ele>47.0</ele><time>2026-04-28T15:05:34Z</time></trkpt><trkpt lat="35.6169528200712" lon="-5.96040833201818"><ele>47.0</ele><time>2026-04-28T15:05:35Z</time></trkpt><trkpt lat="35.61723589876959" lon="-5.960322693018938"><ele>47.5</ele><time>2026-04-28T15:05:36Z</time></trkpt><trkpt lat="35.61752244110505" lon="-5.960239606093588"><ele>48.0</ele><time>2026-04-28T15:05:37Z</time></trkpt><trkpt lat="35.61780125607049" lon="-5.96016349317444"><ele>47.5</ele><time>2026-04-28T15:05:38Z</time></trkpt><trkpt lat="35.61807012760211" lon="-5.960087767020612"><ele>47.0</ele><time>2026-04-28T15:05:39Z</time></trkpt><trkpt lat="35.61833163561274" lon="-5.960011184876284"><ele>46.5</ele><time>2026-04-28T15:05:40Z</time></trkpt><trkpt lat="35.61858896785077" lon="-5.959936021613214"><ele>46.0</ele><time>2026-04-28T15:05:41Z</time></trkpt><trkpt lat="35.618842646054894" lon="-5.959861563238832"><ele>46.0</ele><time>2026-04-28T15:05:42Z</time></trkpt><trkpt lat="35.61909910300222" lon="-5.9597866529301005"><ele>46.0</ele><time>2026-04-28T15:05:43Z</time></trkpt><trkpt lat="35.61935373622809" lon="-5.959713742805632"><ele>47.5</ele><time>2026-04-28T15:05:44Z</time></trkpt><trkpt lat="35.619611220921946" lon="-5.959642947171147"><ele>49.0</ele><time>2026-04-28T15:05:45Z</time></trkpt><trkpt lat="35.6198807818517" lon="-5.959576903705521"><ele>49.0</ele><time>2026-04-28T15:05:46Z</time></trkpt><trkpt lat="35.620158884537666" lon="-5.9595144329790735"><ele>49.0</ele><time>2026-04-28T15:05:47Z</time></trkpt><trkpt lat="35.6204416639359" lon="-5.959456964657356"><ele>50.0</ele><time>2026-04-28T15:05:48Z</time></trkpt><trkpt lat="35.62072607080093" lon="-5.959404472644376"><ele>51.0</ele><time>2026-04-28T15:05:49Z</time></trkpt><trkpt lat="35.62100333641277" lon="-5.959361718343366"><ele>54.5</ele><time>2026-04-28T15:05:50Z</time></trkpt><trkpt lat="35.62128235255042" lon="-5.959324338033414"><ele>58.0</ele><time>2026-04-28T15:05:51Z</time></trkpt><trkpt lat="35.62156544309338" lon="-5.959290479956324"><ele>58.0</ele><time>2026-04-28T15:05:52Z</time></trkpt><trkpt lat="35.621851285069695" lon="-5.959262777029032"><ele>58.0</ele><time>2026-04-28T15:05:53Z</time></trkpt><trkpt lat="35.622137389784186" lon="-5.959241158393788"><ele>58.5</ele><time>2026-04-28T15:05:54Z</time></trkpt><trkpt lat="35.622422805422595" lon="-5.95918395601713"><ele>59.0</ele><time>2026-04-28T15:05:55Z</time></trkpt><trkpt lat="35.622720080799134" lon="-5.959209974228197"><ele>59.5</ele><time>2026-04-28T15:05:56Z</time></trkpt><trkpt lat="35.623015440474894" lon="-5.959205569488829"><ele>60.0</ele><time>2026-04-28T15:05:57Z</time></trkpt><trkpt lat="35.62331219009997" lon="-5.959206865658396"><ele>60.0</ele><time>2026-04-28T15:05:58Z</time></trkpt><trkpt lat="35.62360861439782" lon="-5.959212914026424"><ele>60.0</ele><time>2026-04-28T15:05:59Z</time></trkpt><trkpt lat="35.623905551822354" lon="-5.9592264673873165"><ele>60.0</ele><time>2026-04-28T15:06:00Z</time></trkpt><trkpt lat="35.624203424117624" lon="-5.959244494271992"><ele>60.0</ele><time>2026-04-28T15:06:01Z</time></trkpt><trkpt lat="35.62450220496028" lon="-5.959271177497761"><ele>58.5</ele><time>2026-04-28T15:06:02Z</time></trkpt><trkpt lat="35.62479864185542" lon="-5.9593041030543805"><ele>57.0</ele><time>2026-04-28T15:06:03Z</time></trkpt><trkpt lat="35.62509327228" lon="-5.959343870752936"><ele>55.5</ele><time>2026-04-28T15:06:04Z</time></trkpt><trkpt lat="35.62538632793835" lon="-5.959390320152797"><ele>54.0</ele><time>2026-04-28T15:06:05Z</time></trkpt><trkpt lat="35.625676390838" lon="-5.959440187198154"><ele>54.0</ele><time>2026-04-28T15:06:06Z</time></trkpt><trkpt lat="35.62596625114003" lon="-5.959492201185095"><ele>54.0</ele><time>2026-04-28T15:06:07Z</time></trkpt><trkpt lat="35.62626302359578" lon="-5.959548478184243"><ele>53.0</ele><time>2026-04-28T15:06:08Z</time></trkpt><trkpt lat="35.62655934086128" lon="-5.959607166319398"><ele>52.0</ele><time>2026-04-28T15:06:09Z</time></trkpt><trkpt lat="35.62685615877023" lon="-5.959667256134744"><ele>48.5</ele><time>2026-04-28T15:06:10Z</time></trkpt><trkpt lat="35.62715456141097" lon="-5.9597291820284655"><ele>45.0</ele><time>2026-04-28T15:06:11Z</time></trkpt><trkpt lat="35.6274527001758" lon="-5.959790414926692"><ele>45.0</ele><time>2026-04-28T15:06:12Z</time></trkpt><trkpt lat="35.6277478999177" lon="-5.959847314597258"><ele>45.0</ele><time>2026-04-28T15:06:13Z</time></trkpt><trkpt lat="35.628041748998605" lon="-5.959899317085706"><ele>38.5</ele><time>2026-04-28T15:06:14Z</time></trkpt><trkpt lat="35.62833634959311" lon="-5.959951476729801"><ele>32.0</ele><time>2026-04-28T15:06:15Z</time></trkpt><trkpt lat="35.62863184945134" lon="-5.960003318243036"><ele>24.0</ele><time>2026-04-28T15:06:16Z</time></trkpt><trkpt lat="35.6289229657209" lon="-5.960057628703273"><ele>16.0</ele><time>2026-04-28T15:06:17Z</time></trkpt><trkpt lat="35.62921688499546" lon="-5.9601148991535196"><ele>13.0</ele><time>2026-04-28T15:06:18Z</time></trkpt><trkpt lat="35.62950593418741" lon="-5.960176220702489"><ele>10.0</ele><time>2026-04-28T15:06:19Z</time></trkpt><trkpt lat="35.62979505261999" lon="-5.960235247757311"><ele>10.0</ele><time>2026-04-28T15:06:20Z</time></trkpt><trkpt lat="35.63008316700632" lon="-5.960289825985272"><ele>10.0</ele><time>2026-04-28T15:06:21Z</time></trkpt><trkpt lat="35.63036714620369" lon="-5.960344616225022"><ele>13.5</ele><time>2026-04-28T15:06:22Z</time></trkpt><trkpt lat="35.63064639714915" lon="-5.960399790536955"><ele>17.0</ele><time>2026-04-28T15:06:23Z</time></trkpt><trkpt lat="35.63092202470437" lon="-5.9604514968095375"><ele>18.0</ele><time>2026-04-28T15:06:24Z</time></trkpt><trkpt lat="35.63120019671895" lon="-5.9605033440266855"><ele>19.0</ele><time>2026-04-28T15:06:25Z</time></trkpt><trkpt lat="35.631478546875776" lon="-5.960553408988258"><ele>19.0</ele><time>2026-04-28T15:06:26Z</time></trkpt><trkpt lat="35.631760537107446" lon="-5.960600370383658"><ele>19.0</ele><time>2026-04-28T15:06:27Z</time></trkpt><trkpt lat="35.63204237170481" lon="-5.960647030969255"><ele>15.5</ele><time>2026-04-28T15:06:28Z</time></trkpt><trkpt lat="35.63232219570401" lon="-5.960689843381004"><ele>12.0</ele><time>2026-04-28T15:06:29Z</time></trkpt><trkpt lat="35.63260553292227" lon="-5.9607240963253485"><ele>7.5</ele><time>2026-04-28T15:06:30Z</time></trkpt><trkpt lat="35.63289050550349" lon="-5.960754916202064"><ele>3.0</ele><time>2026-04-28T15:06:31Z</time></trkpt><trkpt lat="35.63317474943734" lon="-5.960782505562165"><ele>3.0</ele><time>2026-04-28T15:06:32Z</time></trkpt><trkpt lat="35.63346148100102" lon="-5.960804464133108"><ele>3.0</ele><time>2026-04-28T15:06:33Z</time></trkpt><trkpt lat="35.63374783163643" lon="-5.960821466826301"><ele>2.5</ele><time>2026-04-28T15:06:34Z</time></trkpt><trkpt lat="35.63403937668678" lon="-5.960832548442838"><ele>2.0</ele><time>2026-04-28T15:06:35Z</time></trkpt><trkpt lat="35.634327646577965" lon="-5.960833872654224"><ele>2.0</ele><time>2026-04-28T15:06:35.999Z</time></trkpt><trkpt lat="35.634615930950396" lon="-5.960831094921386"><ele>2.0</ele><time>2026-04-28T15:06:36.999Z</time></trkpt><trkpt lat="35.63490065480136" lon="-5.960827124218526"><ele>2.0</ele><time>2026-04-28T15:06:37.999Z</time></trkpt><trkpt lat="35.63518597235919" lon="-5.960817447578434"><ele>2.0</ele><time>2026-04-28T15:06:38.999Z</time></trkpt><trkpt lat="35.6354701561728" lon="-5.9608023874779414"><ele>1.5</ele><time>2026-04-28T15:06:39.999Z</time></trkpt><trkpt lat="35.63575685748794" lon="-5.960776947541015"><ele>1.0</ele><time>2026-04-28T15:06:40.999Z</time></trkpt><trkpt lat="35.63604185022452" lon="-5.960745649987191"><ele>1.5</ele><time>2026-04-28T15:06:41.999Z</time></trkpt><trkpt lat="35.63632613216053" lon="-5.960703577656274"><ele>2.0</ele><time>2026-04-28T15:06:42.999Z</time></trkpt><trkpt lat="35.63660670059483" lon="-5.960658094746882"><ele>2.0</ele><time>2026-04-28T15:06:43.999Z</time></trkpt><trkpt lat="35.63688542400392" lon="-5.96060965175802"><ele>2.0</ele><time>2026-04-28T15:06:44.999Z</time></trkpt><trkpt lat="35.63716392065525" lon="-5.960562631564103"><ele>1.5</ele><time>2026-04-28T15:06:45.999Z</time></trkpt><trkpt lat="35.63744300531478" lon="-5.960514793789205"><ele>1.0</ele><time>2026-04-28T15:06:46.999Z</time></trkpt><trkpt lat="35.63772394714997" lon="-5.9604651922779315"><ele>0.0</ele><time>2026-04-28T15:06:47.999Z</time></trkpt><trkpt lat="35.63800470582242" lon="-5.960415295688396"><ele>-1.0</ele><time>2026-04-28T15:06:48.999Z</time></trkpt><trkpt lat="35.63828681630843" lon="-5.960363187968625"><ele>-1.0</ele><time>2026-04-28T15:06:49.999Z</time></trkpt><trkpt lat="35.63856909624112" lon="-5.960308436130796"><ele>-1.0</ele><time>2026-04-28T15:06:50.999Z</time></trkpt><trkpt lat="35.63885143149621" lon="-5.960255027060302"><ele>0.0</ele><time>2026-04-28T15:06:51.999Z</time></trkpt><trkpt lat="35.63913268284834" lon="-5.9602004454858095"><ele>1.0</ele><time>2026-04-28T15:06:52.999Z</time></trkpt><trkpt lat="35.6394151422635" lon="-5.9601467170355855"><ele>2.5</ele><time>2026-04-28T15:06:53.999Z</time></trkpt><trkpt lat="35.63969793347858" lon="-5.960093856671893"><ele>4.0</ele><time>2026-04-28T15:06:54.999Z</time></trkpt><trkpt lat="35.63998014249378" lon="-5.960042002348085"><ele>3.5</ele><time>2026-04-28T15:06:55.999Z</time></trkpt><trkpt lat="35.64026596770639" lon="-5.959989155572243"><ele>3.0</ele><time>2026-04-28T15:06:56.999Z</time></trkpt><trkpt lat="35.64055184557702" lon="-5.959935961563085"><ele>3.0</ele><time>2026-04-28T15:06:57.999Z</time></trkpt><trkpt lat="35.64082957730577" lon="-5.9598829752467335"><ele>3.0</ele><time>2026-04-28T15:06:58.999Z</time></trkpt><trkpt lat="35.6411020573058" lon="-5.959830031588471"><ele>3.5</ele><time>2026-04-28T15:06:59.999Z</time></trkpt><trkpt lat="35.6413741309355" lon="-5.959780013549036"><ele>4.0</ele><time>2026-04-28T15:07:00.999Z</time></trkpt><trkpt lat="35.64164181713922" lon="-5.959729529527827"><ele>4.0</ele><time>2026-04-28T15:07:01.999Z</time></trkpt><trkpt lat="35.64190513893669" lon="-5.959679618028073"><ele>4.0</ele><time>2026-04-28T15:07:02.999Z</time></trkpt><trkpt lat="35.64217050045203" lon="-5.9596289276568415"><ele>4.0</ele><time>2026-04-28T15:07:03.999Z</time></trkpt><trkpt lat="35.642436532517785" lon="-5.959577252298435"><ele>4.0</ele><time>2026-04-28T15:07:04.999Z</time></trkpt><trkpt lat="35.64270192176658" lon="-5.959524546903907"><ele>3.0</ele><time>2026-04-28T15:07:05.999Z</time></trkpt><trkpt lat="35.64296897235554" lon="-5.959470405748439"><ele>2.0</ele><time>2026-04-28T15:07:06.999Z</time></trkpt><trkpt lat="35.64323770954009" lon="-5.959418515134319"><ele>2.0</ele><time>2026-04-28T15:07:07.999Z</time></trkpt><trkpt lat="35.64350629995364" lon="-5.959369394822695"><ele>2.0</ele><time>2026-04-28T15:07:08.999Z</time></trkpt><trkpt lat="35.643779783183916" lon="-5.959321550847748"><ele>2.5</ele><time>2026-04-28T15:07:09.999Z</time></trkpt><trkpt lat="35.644055847549616" lon="-5.959272047274526"><ele>3.0</ele><time>2026-04-28T15:07:10.999Z</time></trkpt><trkpt lat="35.6443348579239" lon="-5.9592208271155265"><ele>2.5</ele><time>2026-04-28T15:07:11.999Z</time></trkpt><trkpt lat="35.6446143500454" lon="-5.959166948074393"><ele>2.0</ele><time>2026-04-28T15:07:12.999Z</time></trkpt><trkpt lat="35.64489623058663" lon="-5.959109982599329"><ele>2.0</ele><time>2026-04-28T15:07:13.999Z</time></trkpt><trkpt lat="35.645177170187075" lon="-5.959054240780972"><ele>2.0</ele><time>2026-04-28T15:07:14.999Z</time></trkpt><trkpt lat="35.64546084977673" lon="-5.958998771877037"><ele>1.5</ele><time>2026-04-28T15:07:16Z</time></trkpt><trkpt lat="35.64574602974644" lon="-5.9589408430039645"><ele>1.0</ele><time>2026-04-28T15:07:17Z</time></trkpt><trkpt lat="35.646031656762254" lon="-5.958878253064466"><ele>0.5</ele><time>2026-04-28T15:07:18Z</time></trkpt><trkpt lat="35.64631892336314" lon="-5.958809242272695"><ele>0.0</ele><time>2026-04-28T15:07:19Z</time></trkpt><trkpt lat="35.64660588248842" lon="-5.958734280181138"><ele>0.0</ele><time>2026-04-28T15:07:20Z</time></trkpt><trkpt lat="35.64689510910093" lon="-5.958649580402063"><ele>0.0</ele><time>2026-04-28T15:07:21Z</time></trkpt><trkpt lat="35.64718393018155" lon="-5.958556016077088"><ele>0.5</ele><time>2026-04-28T15:07:22Z</time></trkpt><trkpt lat="35.64747318181124" lon="-5.958457152078639"><ele>1.0</ele><time>2026-04-28T15:07:23Z</time></trkpt><trkpt lat="35.64776179391098" lon="-5.958352107742476"><ele>3.0</ele><time>2026-04-28T15:07:24Z</time></trkpt><trkpt lat="35.6480481850502" lon="-5.95824393124391"><ele>5.0</ele><time>2026-04-28T15:07:25Z</time></trkpt><trkpt lat="35.648334422810066" lon="-5.958130838134422"><ele>5.0</ele><time>2026-04-28T15:07:26Z</time></trkpt><trkpt lat="35.648618645220736" lon="-5.958010128731949"><ele>5.0</ele><time>2026-04-28T15:07:27Z</time></trkpt><trkpt lat="35.64890201157605" lon="-5.9578821673155336"><ele>6.5</ele><time>2026-04-28T15:07:28Z</time></trkpt><trkpt lat="35.64918265950908" lon="-5.95775027326597"><ele>8.0</ele><time>2026-04-28T15:07:29Z</time></trkpt><trkpt lat="35.64946129564892" lon="-5.957615266755377"><ele>11.5</ele><time>2026-04-28T15:07:30Z</time></trkpt><trkpt lat="35.64973686584181" lon="-5.957473114714241"><ele>15.0</ele><time>2026-04-28T15:07:31Z</time></trkpt><trkpt lat="35.6500113822573" lon="-5.957324045782945"><ele>15.0</ele><time>2026-04-28T15:07:32Z</time></trkpt><trkpt lat="35.65028440944101" lon="-5.957168646302277"><ele>15.0</ele><time>2026-04-28T15:07:33Z</time></trkpt><trkpt lat="35.65055882990201" lon="-5.957008164481161"><ele>17.0</ele><time>2026-04-28T15:07:34Z</time></trkpt><trkpt lat="35.65082919035316" lon="-5.9568464139052635"><ele>19.0</ele><time>2026-04-28T15:07:35Z</time></trkpt><trkpt lat="35.65109740211954" lon="-5.956679955663988"><ele>21.5</ele><time>2026-04-28T15:07:36Z</time></trkpt><trkpt lat="35.651365668457395" lon="-5.956510080603568"><ele>24.0</ele><time>2026-04-28T15:07:37Z</time></trkpt><trkpt lat="35.65163076669661" lon="-5.956334322306598"><ele>24.0</ele><time>2026-04-28T15:07:38Z</time></trkpt><trkpt lat="35.65189201895684" lon="-5.956150796574888"><ele>24.0</ele><time>2026-04-28T15:07:39Z</time></trkpt><trkpt lat="35.6521478017237" lon="-5.9559594075250475"><ele>25.0</ele><time>2026-04-28T15:07:40Z</time></trkpt><trkpt lat="35.65239923517336" lon="-5.955760917878514"><ele>26.0</ele><time>2026-04-28T15:07:41Z</time></trkpt><trkpt lat="35.65264733543299" lon="-5.95555811843277"><ele>26.5</ele><time>2026-04-28T15:07:42Z</time></trkpt><trkpt lat="35.65289322589067" lon="-5.9553521221110035"><ele>27.0</ele><time>2026-04-28T15:07:43Z</time></trkpt><trkpt lat="35.65313533621503" lon="-5.955136802901758"><ele>27.0</ele><time>2026-04-28T15:07:44Z</time></trkpt><trkpt lat="35.65337173786557" lon="-5.954912302837764"><ele>27.0</ele><time>2026-04-28T15:07:45Z</time></trkpt><trkpt lat="35.65360572061375" lon="-5.9546846939791935"><ele>26.5</ele><time>2026-04-28T15:07:46Z</time></trkpt><trkpt lat="35.6538366121986" lon="-5.954453279159084"><ele>26.0</ele><time>2026-04-28T15:07:47Z</time></trkpt><trkpt lat="35.65406750741191" lon="-5.95422148302791"><ele>27.5</ele><time>2026-04-28T15:07:48Z</time></trkpt><trkpt lat="35.6543017346238" lon="-5.9539896600267905"><ele>29.0</ele><time>2026-04-28T15:07:49Z</time></trkpt><trkpt lat="35.65453779370824" lon="-5.953755213842689"><ele>30.0</ele><time>2026-04-28T15:07:50Z</time></trkpt><trkpt lat="35.654772092506434" lon="-5.953520404388709"><ele>31.0</ele><time>2026-04-28T15:07:51Z</time></trkpt><trkpt lat="35.65500523227539" lon="-5.953284644004245"><ele>31.0</ele><time>2026-04-28T15:07:52Z</time></trkpt><trkpt lat="35.655239904223556" lon="-5.953049267930974"><ele>31.0</ele><time>2026-04-28T15:07:53Z</time></trkpt><trkpt lat="35.65547301859328" lon="-5.952815035556184"><ele>31.5</ele><time>2026-04-28T15:07:54Z</time></trkpt><trkpt lat="35.65570621323498" lon="-5.952579808820268"><ele>32.0</ele><time>2026-04-28T15:07:55Z</time></trkpt><trkpt lat="35.65593779067623" lon="-5.952344721248562"><ele>33.5</ele><time>2026-04-28T15:07:56Z</time></trkpt><trkpt lat="35.65616878973121" lon="-5.952106968307329"><ele>35.0</ele><time>2026-04-28T15:07:57Z</time></trkpt><trkpt lat="35.656398363561436" lon="-5.951870831292649"><ele>33.5</ele><time>2026-04-28T15:07:58Z</time></trkpt><trkpt lat="35.65662933260112" lon="-5.951634401544736"><ele>32.0</ele><time>2026-04-28T15:07:59Z</time></trkpt><trkpt lat="35.65686195749869" lon="-5.951400760221691"><ele>32.5</ele><time>2026-04-28T15:08:00Z</time></trkpt><trkpt lat="35.65709452812145" lon="-5.95116843631269"><ele>33.0</ele><time>2026-04-28T15:08:01Z</time></trkpt><trkpt lat="35.65732664167523" lon="-5.95093451087377"><ele>33.5</ele><time>2026-04-28T15:08:02Z</time></trkpt><trkpt lat="35.65755834680517" lon="-5.95069949622242"><ele>34.0</ele><time>2026-04-28T15:08:03Z</time></trkpt><trkpt lat="35.6577892078364" lon="-5.950463675523136"><ele>35.5</ele><time>2026-04-28T15:08:04Z</time></trkpt><trkpt lat="35.65802053034247" lon="-5.950227654078175"><ele>37.0</ele><time>2026-04-28T15:08:05Z</time></trkpt><trkpt lat="35.658252746650454" lon="-5.949991361799966"><ele>32.0</ele><time>2026-04-28T15:08:06Z</time></trkpt><trkpt lat="35.65848330286798" lon="-5.949755645181443"><ele>27.0</ele><time>2026-04-28T15:08:07Z</time></trkpt><trkpt lat="35.65871016448058" lon="-5.949524160604806"><ele>26.5</ele><time>2026-04-28T15:08:08Z</time></trkpt><trkpt lat="35.65893068527956" lon="-5.949295678215658"><ele>26.0</ele><time>2026-04-28T15:08:09Z</time></trkpt><trkpt lat="35.65914717394696" lon="-5.949073778623822"><ele>26.0</ele><time>2026-04-28T15:08:10Z</time></trkpt><trkpt lat="35.6593627373683" lon="-5.948852484340198"><ele>26.0</ele><time>2026-04-28T15:08:11Z</time></trkpt><trkpt lat="35.659579698744274" lon="-5.948631891448842"><ele>26.0</ele><time>2026-04-28T15:08:12Z</time></trkpt><trkpt lat="35.65979608792737" lon="-5.948414213004354"><ele>26.0</ele><time>2026-04-28T15:08:13Z</time></trkpt><trkpt lat="35.66001191759641" lon="-5.94819727320084"><ele>25.5</ele><time>2026-04-28T15:08:14Z</time></trkpt><trkpt lat="35.66022587623487" lon="-5.9479818957161275"><ele>25.0</ele><time>2026-04-28T15:08:15Z</time></trkpt><trkpt lat="35.66043755421202" lon="-5.947767920288546"><ele>25.0</ele><time>2026-04-28T15:08:16Z</time></trkpt><trkpt lat="35.660647560651036" lon="-5.947555003214975"><ele>25.0</ele><time>2026-04-28T15:08:17Z</time></trkpt><trkpt lat="35.660854915456895" lon="-5.947344715587009"><ele>25.0</ele><time>2026-04-28T15:08:18Z</time></trkpt><trkpt lat="35.66106226474041" lon="-5.94713557568173"><ele>25.0</ele><time>2026-04-28T15:08:19Z</time></trkpt><trkpt lat="35.66127168306351" lon="-5.946926206162891"><ele>24.5</ele><time>2026-04-28T15:08:20Z</time></trkpt><trkpt lat="35.66148283836094" lon="-5.946716701164078"><ele>24.0</ele><time>2026-04-28T15:08:21Z</time></trkpt><trkpt lat="35.661693228158484" lon="-5.946509585937016"><ele>24.0</ele><time>2026-04-28T15:08:22Z</time></trkpt><trkpt lat="35.661898506331354" lon="-5.946302980095179"><ele>24.0</ele><time>2026-04-28T15:08:23Z</time></trkpt><trkpt lat="35.662100339600464" lon="-5.946097693419799"><ele>23.5</ele><time>2026-04-28T15:08:24Z</time></trkpt><trkpt lat="35.6622970650479" lon="-5.945896256665757"><ele>23.0</ele><time>2026-04-28T15:08:25Z</time></trkpt><trkpt lat="35.66248840194275" lon="-5.945701864247415"><ele>23.0</ele><time>2026-04-28T15:08:26Z</time></trkpt><trkpt lat="35.662673257491186" lon="-5.945511080178311"><ele>23.0</ele><time>2026-04-28T15:08:27Z</time></trkpt><trkpt lat="35.66285512732113" lon="-5.945326177393382"><ele>22.5</ele><time>2026-04-28T15:08:28Z</time></trkpt><trkpt lat="35.66303609124814" lon="-5.945142724895861"><ele>22.0</ele><time>2026-04-28T15:08:29Z</time></trkpt><trkpt lat="35.66322042876973" lon="-5.944958519356669"><ele>21.5</ele><time>2026-04-28T15:08:30Z</time></trkpt><trkpt lat="35.6634071177538" lon="-5.944774407218773"><ele>21.0</ele><time>2026-04-28T15:08:31Z</time></trkpt><trkpt lat="35.66359928156527" lon="-5.94458609891971"><ele>21.0</ele><time>2026-04-28T15:08:32Z</time></trkpt><trkpt lat="35.66380183862076" lon="-5.944390911773962"><ele>21.0</ele><time>2026-04-28T15:08:33Z</time></trkpt><trkpt lat="35.66401434049742" lon="-5.944185348159478"><ele>21.5</ele><time>2026-04-28T15:08:34Z</time></trkpt><trkpt lat="35.664223698083674" lon="-5.943974461495983"><ele>22.0</ele><time>2026-04-28T15:08:35Z</time></trkpt><trkpt lat="35.664431785252546" lon="-5.943754392953139"><ele>22.5</ele><time>2026-04-28T15:08:36Z</time></trkpt><trkpt lat="35.66463510945818" lon="-5.943535636283472"><ele>23.0</ele><time>2026-04-28T15:08:37Z</time></trkpt><trkpt lat="35.66483186777302" lon="-5.943327933270384"><ele>23.0</ele><time>2026-04-28T15:08:38Z</time></trkpt><trkpt lat="35.665024871467544" lon="-5.943127544281645"><ele>23.0</ele><time>2026-04-28T15:08:39Z</time></trkpt><trkpt lat="35.66521060825382" lon="-5.942935698654781"><ele>22.5</ele><time>2026-04-28T15:08:40Z</time></trkpt><trkpt lat="35.66539056845827" lon="-5.94274952516746"><ele>22.0</ele><time>2026-04-28T15:08:41Z</time></trkpt><trkpt lat="35.66556794880078" lon="-5.942567466215313"><ele>23.5</ele><time>2026-04-28T15:08:42Z</time></trkpt><trkpt lat="35.66574713400968" lon="-5.942385200614781"><ele>25.0</ele><time>2026-04-28T15:08:43Z</time></trkpt><trkpt lat="35.66592729180547" lon="-5.942201505164168"><ele>25.0</ele><time>2026-04-28T15:08:44Z</time></trkpt><trkpt lat="35.666107831246435" lon="-5.9420185021357295"><ele>25.0</ele><time>2026-04-28T15:08:44.999Z</time></trkpt><trkpt lat="35.66628836902548" lon="-5.941835489799054"><ele>25.0</ele><time>2026-04-28T15:08:45.999Z</time></trkpt><trkpt lat="35.66646617710807" lon="-5.941654673720258"><ele>25.0</ele><time>2026-04-28T15:08:46.999Z</time></trkpt><trkpt lat="35.66664181035091" lon="-5.941476225507912"><ele>25.0</ele><time>2026-04-28T15:08:47.999Z</time></trkpt><trkpt lat="35.6668168802917" lon="-5.941299798546376"><ele>25.0</ele><time>2026-04-28T15:08:48.999Z</time></trkpt><trkpt lat="35.66698938000978" lon="-5.941125760954718"><ele>25.0</ele><time>2026-04-28T15:08:49.999Z</time></trkpt><trkpt lat="35.66716043627228" lon="-5.940953209035711"><ele>25.0</ele><time>2026-04-28T15:08:50.999Z</time></trkpt><trkpt lat="35.66733275171832" lon="-5.940779454372628"><ele>25.0</ele><time>2026-04-28T15:08:51.999Z</time></trkpt><trkpt lat="35.66750752428319" lon="-5.9406065662389995"><ele>25.0</ele><time>2026-04-28T15:08:52.999Z</time></trkpt><trkpt lat="35.66768316495498" lon="-5.940432749928997"><ele>25.0</ele><time>2026-04-28T15:08:53.999Z</time></trkpt><trkpt lat="35.667859244083076" lon="-5.940251491660673"><ele>25.0</ele><time>2026-04-28T15:08:54.999Z</time></trkpt><trkpt lat="35.66803822366502" lon="-5.9400670848744666"><ele>25.0</ele><time>2026-04-28T15:08:55.999Z</time></trkpt><trkpt lat="35.66821979010646" lon="-5.939882635897843"><ele>25.0</ele><time>2026-04-28T15:08:56.999Z</time></trkpt><trkpt lat="35.66839881049635" lon="-5.939700625817834"><ele>25.0</ele><time>2026-04-28T15:08:57.999Z</time></trkpt><trkpt lat="35.66857531259621" lon="-5.939522691691121"><ele>25.0</ele><time>2026-04-28T15:08:58.999Z</time></trkpt><trkpt lat="35.668747100555194" lon="-5.939349243508653"><ele>25.333333333333336</ele><time>2026-04-28T15:08:59.999Z</time></trkpt><trkpt lat="35.66891049732277" lon="-5.939182753645098"><ele>25.666666666666664</ele><time>2026-04-28T15:09:00.999Z</time></trkpt><trkpt lat="35.66906572018688" lon="-5.939019055093131"><ele>26.0</ele><time>2026-04-28T15:09:01.999Z</time></trkpt><trkpt lat="35.66921768336402" lon="-5.938861265774807"><ele>26.0</ele><time>2026-04-28T15:09:02.999Z</time></trkpt><trkpt lat="35.66937005917392" lon="-5.938709152162354"><ele>26.0</ele><time>2026-04-28T15:09:03.999Z</time></trkpt><trkpt lat="35.66952121572172" lon="-5.938560144108551"><ele>26.0</ele><time>2026-04-28T15:09:04.999Z</time></trkpt><trkpt lat="35.66966912851406" lon="-5.938409619546038"><ele>25.0</ele><time>2026-04-28T15:09:05.999Z</time></trkpt><trkpt lat="35.6698143459545" lon="-5.938257485082391"><ele>24.0</ele><time>2026-04-28T15:09:06.999Z</time></trkpt><trkpt lat="35.66995653322442" lon="-5.938104934405633"><ele>23.0</ele><time>2026-04-28T15:09:07.999Z</time></trkpt><trkpt lat="35.670099308308025" lon="-5.937953160382411"><ele>23.0</ele><time>2026-04-28T15:09:08.999Z</time></trkpt><trkpt lat="35.670244425947836" lon="-5.9377989201433214"><ele>23.0</ele><time>2026-04-28T15:09:09.999Z</time></trkpt><trkpt lat="35.670391853083494" lon="-5.937642770653685"><ele>23.0</ele><time>2026-04-28T15:09:10.999Z</time></trkpt><trkpt lat="35.67054281740691" lon="-5.93748491381354"><ele>21.666666666666668</ele><time>2026-04-28T15:09:11.999Z</time></trkpt><trkpt lat="35.6706962395313" lon="-5.937323464438702"><ele>20.333333333333332</ele><time>2026-04-28T15:09:12.999Z</time></trkpt><trkpt lat="35.670853286628706" lon="-5.937157985393264"><ele>19.0</ele><time>2026-04-28T15:09:13.999Z</time></trkpt><trkpt lat="35.671011841240016" lon="-5.936987047038262"><ele>19.666666666666664</ele><time>2026-04-28T15:09:14.999Z</time></trkpt><trkpt lat="35.671171521738" lon="-5.936811688260191"><ele>20.333333333333332</ele><time>2026-04-28T15:09:15.999Z</time></trkpt><trkpt lat="35.67132646771336" lon="-5.93663907469361"><ele>21.0</ele><time>2026-04-28T15:09:16.999Z</time></trkpt><trkpt lat="35.67148112755723" lon="-5.93646655054944"><ele>21.0</ele><time>2026-04-28T15:09:17.999Z</time></trkpt><trkpt lat="35.67163436901586" lon="-5.936294139742497"><ele>21.0</ele><time>2026-04-28T15:09:18.999Z</time></trkpt><trkpt lat="35.671782682559396" lon="-5.936117438087987"><ele>21.0</ele><time>2026-04-28T15:09:19.999Z</time></trkpt><trkpt lat="35.67192855337264" lon="-5.935933518014041"><ele>21.0</ele><time>2026-04-28T15:09:20.999Z</time></trkpt><trkpt lat="35.6720703743207" lon="-5.935738205493453"><ele>21.0</ele><time>2026-04-28T15:09:22Z</time></trkpt><trkpt lat="35.67220723275445" lon="-5.93553418998727"><ele>21.0</ele><time>2026-04-28T15:09:23Z</time></trkpt><trkpt lat="35.67233907254506" lon="-5.935317581725958"><ele>21.0</ele><time>2026-04-28T15:09:24Z</time></trkpt><trkpt lat="35.67246705138226" lon="-5.93509183929909"><ele>21.0</ele><time>2026-04-28T15:09:25Z</time></trkpt><trkpt lat="35.67258987365439" lon="-5.934854711000395"><ele>22.0</ele><time>2026-04-28T15:09:26Z</time></trkpt><trkpt lat="35.67270505053069" lon="-5.934611338050685"><ele>23.0</ele><time>2026-04-28T15:09:27Z</time></trkpt><trkpt lat="35.67281346535882" lon="-5.934359873544339"><ele>24.5</ele><time>2026-04-28T15:09:28Z</time></trkpt><trkpt lat="35.672912682046025" lon="-5.934099913946812"><ele>26.0</ele><time>2026-04-28T15:09:29Z</time></trkpt><trkpt lat="35.67300377644617" lon="-5.9338313636380935"><ele>26.0</ele><time>2026-04-28T15:09:30Z</time></trkpt><trkpt lat="35.67308622956525" lon="-5.9335553287378815"><ele>26.0</ele><time>2026-04-28T15:09:31Z</time></trkpt><trkpt lat="35.673157662066664" lon="-5.933271799754449"><ele>24.5</ele><time>2026-04-28T15:09:32Z</time></trkpt><trkpt lat="35.6732193745782" lon="-5.932986851372634"><ele>23.0</ele><time>2026-04-28T15:09:33Z</time></trkpt><trkpt lat="35.67326969594533" lon="-5.932697813338598"><ele>23.5</ele><time>2026-04-28T15:09:34Z</time></trkpt><trkpt lat="35.673309884870456" lon="-5.932405006345397"><ele>24.0</ele><time>2026-04-28T15:09:35Z</time></trkpt><trkpt lat="35.67333853755509" lon="-5.932106053052938"><ele>24.0</ele><time>2026-04-28T15:09:36Z</time></trkpt><trkpt lat="35.67335537891348" lon="-5.9318029105036185"><ele>24.0</ele><time>2026-04-28T15:09:37Z</time></trkpt><trkpt lat="35.67336295878206" lon="-5.93149773919863"><ele>25.0</ele><time>2026-04-28T15:09:38Z</time></trkpt><trkpt lat="35.67336141735179" lon="-5.931188396687109"><ele>26.0</ele><time>2026-04-28T15:09:39Z</time></trkpt><trkpt lat="35.673347349213586" lon="-5.930879742418793"><ele>27.5</ele><time>2026-04-28T15:09:40Z</time></trkpt><trkpt lat="35.673320709509895" lon="-5.930575979190451"><ele>29.0</ele><time>2026-04-28T15:09:41Z</time></trkpt><trkpt lat="35.67328173663572" lon="-5.9302742424151536"><ele>29.5</ele><time>2026-04-28T15:09:42Z</time></trkpt><trkpt lat="35.67322950477328" lon="-5.929971343741796"><ele>30.0</ele><time>2026-04-28T15:09:43Z</time></trkpt><trkpt lat="35.673166496462784" lon="-5.929667269028357"><ele>30.0</ele><time>2026-04-28T15:09:44Z</time></trkpt><trkpt lat="35.673096922817486" lon="-5.9293664064125435"><ele>30.0</ele><time>2026-04-28T15:09:45Z</time></trkpt><trkpt lat="35.67302826537509" lon="-5.929064532961485"><ele>31.0</ele><time>2026-04-28T15:09:46Z</time></trkpt><trkpt lat="35.67296344855234" lon="-5.928758676107948"><ele>32.0</ele><time>2026-04-28T15:09:47Z</time></trkpt><trkpt lat="35.6729117091775" lon="-5.928450264488945"><ele>32.0</ele><time>2026-04-28T15:09:48Z</time></trkpt><trkpt lat="35.672876161967594" lon="-5.928138068430592"><ele>32.0</ele><time>2026-04-28T15:09:49Z</time></trkpt><trkpt lat="35.67285859185932" lon="-5.927820802687079"><ele>30.5</ele><time>2026-04-28T15:09:50Z</time></trkpt><trkpt lat="35.67285509722797" lon="-5.927502699937296"><ele>29.0</ele><time>2026-04-28T15:09:51Z</time></trkpt><trkpt lat="35.672867775715325" lon="-5.9271848359974495"><ele>29.0</ele><time>2026-04-28T15:09:52Z</time></trkpt><trkpt lat="35.672893178951085" lon="-5.926866388551883"><ele>29.0</ele><time>2026-04-28T15:09:53Z</time></trkpt><trkpt lat="35.672937161181885" lon="-5.926547609989379"><ele>28.0</ele><time>2026-04-28T15:09:54Z</time></trkpt><trkpt lat="35.67299260333583" lon="-5.926231953563773"><ele>27.0</ele><time>2026-04-28T15:09:55Z</time></trkpt><trkpt lat="35.67306214597556" lon="-5.925919456712948"><ele>27.0</ele><time>2026-04-28T15:09:56Z</time></trkpt><trkpt lat="35.67313402962052" lon="-5.925606821718254"><ele>27.0</ele><time>2026-04-28T15:09:57Z</time></trkpt><trkpt lat="35.673206102798176" lon="-5.925292733206777"><ele>26.5</ele><time>2026-04-28T15:09:58Z</time></trkpt><trkpt lat="35.673276089941375" lon="-5.924970545424402"><ele>26.0</ele><time>2026-04-28T15:09:59Z</time></trkpt><trkpt lat="35.67334523432285" lon="-5.924641266661164"><ele>26.0</ele><time>2026-04-28T15:10:00Z</time></trkpt><trkpt lat="35.67341757422871" lon="-5.924305650602102"><ele>26.0</ele><time>2026-04-28T15:10:01Z</time></trkpt><trkpt lat="35.673493418586695" lon="-5.923961515641878"><ele>23.0</ele><time>2026-04-28T15:10:02Z</time></trkpt><trkpt lat="35.67356791642018" lon="-5.923611721515047"><ele>20.0</ele><time>2026-04-28T15:10:03Z</time></trkpt><trkpt lat="35.67364179649682" lon="-5.923260795251567"><ele>19.0</ele><time>2026-04-28T15:10:04Z</time></trkpt><trkpt lat="35.67371708866071" lon="-5.922913148945714"><ele>18.0</ele><time>2026-04-28T15:10:05Z</time></trkpt><trkpt lat="35.673795552059595" lon="-5.922572204418861"><ele>18.0</ele><time>2026-04-28T15:10:06Z</time></trkpt><trkpt lat="35.67387231515598" lon="-5.922236231292618"><ele>18.0</ele><time>2026-04-28T15:10:07Z</time></trkpt><trkpt lat="35.67394712946375" lon="-5.921903087225632"><ele>19.5</ele><time>2026-04-28T15:10:08Z</time></trkpt><trkpt lat="35.67402217872274" lon="-5.92156682929839"><ele>21.0</ele><time>2026-04-28T15:10:09Z</time></trkpt><trkpt lat="35.67409721836793" lon="-5.921227523701945"><ele>20.5</ele><time>2026-04-28T15:10:10Z</time></trkpt><trkpt lat="35.67417188693742" lon="-5.920887321057256"><ele>20.0</ele><time>2026-04-28T15:10:11Z</time></trkpt><trkpt lat="35.67424584368074" lon="-5.920551232479079"><ele>20.0</ele><time>2026-04-28T15:10:12Z</time></trkpt><trkpt lat="35.674319780187304" lon="-5.920217735131398"><ele>20.0</ele><time>2026-04-28T15:10:13Z</time></trkpt><trkpt lat="35.67439618124501" lon="-5.919885425482993"><ele>19.5</ele><time>2026-04-28T15:10:14Z</time></trkpt><trkpt lat="35.674477311555115" lon="-5.919545687905948"><ele>19.0</ele><time>2026-04-28T15:10:15Z</time></trkpt><trkpt lat="35.674562250905936" lon="-5.919200036476657"><ele>20.0</ele><time>2026-04-28T15:10:16Z</time></trkpt><trkpt lat="35.67464419296775" lon="-5.918853110300105"><ele>21.0</ele><time>2026-04-28T15:10:17Z</time></trkpt><trkpt lat="35.6747222862655" lon="-5.918506240928894"><ele>22.0</ele><time>2026-04-28T15:10:18Z</time></trkpt><trkpt lat="35.67479903511313" lon="-5.91815828020859"><ele>23.0</ele><time>2026-04-28T15:10:19Z</time></trkpt><trkpt lat="35.674876137922645" lon="-5.917804077016525"><ele>23.0</ele><time>2026-04-28T15:10:20Z</time></trkpt><trkpt lat="35.67495279146248" lon="-5.9174488102116936"><ele>23.0</ele><time>2026-04-28T15:10:21Z</time></trkpt><trkpt lat="35.675029180539774" lon="-5.917093127199706"><ele>23.0</ele><time>2026-04-28T15:10:22Z</time></trkpt><trkpt lat="35.67510565544699" lon="-5.916736441378174"><ele>23.0</ele><time>2026-04-28T15:10:23Z</time></trkpt><trkpt lat="35.67518267655785" lon="-5.916379847078139"><ele>23.0</ele><time>2026-04-28T15:10:24Z</time></trkpt><trkpt lat="35.67525977415857" lon="-5.916025945401767"><ele>23.0</ele><time>2026-04-28T15:10:25Z</time></trkpt><trkpt lat="35.67533633632886" lon="-5.9156721537680665"><ele>23.0</ele><time>2026-04-28T15:10:26Z</time></trkpt><trkpt lat="35.67541290136912" lon="-5.91531907362246"><ele>23.0</ele><time>2026-04-28T15:10:27Z</time></trkpt><trkpt lat="35.675488936025445" lon="-5.914964892936127"><ele>23.5</ele><time>2026-04-28T15:10:28Z</time></trkpt><trkpt lat="35.67556693260404" lon="-5.9146102246221615"><ele>24.0</ele><time>2026-04-28T15:10:29Z</time></trkpt><trkpt lat="35.67564115396749" lon="-5.914254772017011"><ele>24.5</ele><time>2026-04-28T15:10:30Z</time></trkpt><trkpt lat="35.67571381954036" lon="-5.913896685854453"><ele>25.0</ele><time>2026-04-28T15:10:31Z</time></trkpt><trkpt lat="35.67578480999708" lon="-5.913537399940885"><ele>25.5</ele><time>2026-04-28T15:10:32Z</time></trkpt><trkpt lat="35.675852446255625" lon="-5.913176633779167"><ele>26.0</ele><time>2026-04-28T15:10:33Z</time></trkpt><trkpt lat="35.675913368391306" lon="-5.9128135258487635"><ele>26.5</ele><time>2026-04-28T15:10:34Z</time></trkpt><trkpt lat="35.675955302235195" lon="-5.912449501009544"><ele>27.0</ele><time>2026-04-28T15:10:35Z</time></trkpt><trkpt lat="35.67597396055693" lon="-5.912087611435051"><ele>27.5</ele><time>2026-04-28T15:10:36Z</time></trkpt><trkpt lat="35.67597842461531" lon="-5.911725146632548"><ele>28.0</ele><time>2026-04-28T15:10:37Z</time></trkpt><trkpt lat="35.67596811586927" lon="-5.911361872129483"><ele>28.0</ele><time>2026-04-28T15:10:38Z</time></trkpt><trkpt lat="35.675948128267834" lon="-5.910998001974831"><ele>28.0</ele><time>2026-04-28T15:10:39Z</time></trkpt><trkpt lat="35.67591558461434" lon="-5.910634866743304"><ele>29.0</ele><time>2026-04-28T15:10:39.999Z</time></trkpt><trkpt lat="35.67587008300458" lon="-5.910272553832579"><ele>30.0</ele><time>2026-04-28T15:10:40.999Z</time></trkpt><trkpt lat="35.67581067005779" lon="-5.909913227048346"><ele>31.0</ele><time>2026-04-28T15:10:41.999Z</time></trkpt><trkpt lat="35.675732658703005" lon="-5.909560661918149"><ele>32.0</ele><time>2026-04-28T15:10:42.999Z</time></trkpt><trkpt lat="35.67564000781345" lon="-5.909215187609756"><ele>32.0</ele><time>2026-04-28T15:10:43.999Z</time></trkpt><trkpt lat="35.67552936844681" lon="-5.908875593316598"><ele>32.0</ele><time>2026-04-28T15:10:44.999Z</time></trkpt><trkpt lat="35.675409356378125" lon="-5.908539409220566"><ele>33.5</ele><time>2026-04-28T15:10:45.999Z</time></trkpt><trkpt lat="35.67527365673078" lon="-5.908211022449977"><ele>35.0</ele><time>2026-04-28T15:10:46.999Z</time></trkpt><trkpt lat="35.67512785242581" lon="-5.907891741239167"><ele>32.5</ele><time>2026-04-28T15:10:47.999Z</time></trkpt><trkpt lat="35.67497095982361" lon="-5.907580555075159"><ele>30.0</ele><time>2026-04-28T15:10:48.999Z</time></trkpt><trkpt lat="35.674799185703016" lon="-5.907280067723508"><ele>30.0</ele><time>2026-04-28T15:10:49.999Z</time></trkpt><trkpt lat="35.67461527323025" lon="-5.906992178987238"><ele>30.0</ele><time>2026-04-28T15:10:50.999Z</time></trkpt><trkpt lat="35.67442051264515" lon="-5.906714393715254"><ele>30.5</ele><time>2026-04-28T15:10:51.999Z</time></trkpt><trkpt lat="35.67421367617001" lon="-5.906447099730071"><ele>31.0</ele><time>2026-04-28T15:10:52.999Z</time></trkpt><trkpt lat="35.6739971861459" lon="-5.906190339638731"><ele>31.0</ele><time>2026-04-28T15:10:53.999Z</time></trkpt><trkpt lat="35.67377310679102" lon="-5.905945760755599"><ele>31.0</ele><time>2026-04-28T15:10:54.999Z</time></trkpt><trkpt lat="35.67354198957842" lon="-5.9057100248274566"><ele>31.5</ele><time>2026-04-28T15:10:55.999Z</time></trkpt><trkpt lat="35.6733064640357" lon="-5.905477264839414"><ele>32.0</ele><time>2026-04-28T15:10:56.999Z</time></trkpt><trkpt lat="35.673070278150256" lon="-5.905244968322766"><ele>31.5</ele><time>2026-04-28T15:10:57.999Z</time></trkpt><trkpt lat="35.67283285037929" lon="-5.905010607783472"><ele>31.0</ele><time>2026-04-28T15:10:58.999Z</time></trkpt><trkpt lat="35.672594298481314" lon="-5.904776023641438"><ele>31.0</ele><time>2026-04-28T15:10:59.999Z</time></trkpt><trkpt lat="35.67235623078946" lon="-5.904542868527976"><ele>31.0</ele><time>2026-04-28T15:11:00.999Z</time></trkpt><trkpt lat="35.67211852374181" lon="-5.904311538389779"><ele>28.5</ele><time>2026-04-28T15:11:01.999Z</time></trkpt><trkpt lat="35.67188188948827" lon="-5.904078419958453"><ele>26.0</ele><time>2026-04-28T15:11:02.999Z</time></trkpt><trkpt lat="35.67164575518918" lon="-5.903846070841454"><ele>26.0</ele><time>2026-04-28T15:11:03.999Z</time></trkpt><trkpt lat="35.671409751107035" lon="-5.903614441987901"><ele>26.0</ele><time>2026-04-28T15:11:04.999Z</time></trkpt><trkpt lat="35.671175154457345" lon="-5.903383505947584"><ele>26.5</ele><time>2026-04-28T15:11:05.999Z</time></trkpt><trkpt lat="35.67094138159059" lon="-5.903149968088956"><ele>27.0</ele><time>2026-04-28T15:11:06.999Z</time></trkpt><trkpt lat="35.67070750744645" lon="-5.902917634025923"><ele>27.0</ele><time>2026-04-28T15:11:07.999Z</time></trkpt><trkpt lat="35.67047241767343" lon="-5.902687302898429"><ele>27.0</ele><time>2026-04-28T15:11:08.999Z</time></trkpt><trkpt lat="35.67023627023187" lon="-5.902457796696442"><ele>27.0</ele><time>2026-04-28T15:11:09.999Z</time></trkpt><trkpt lat="35.67000074300024" lon="-5.902227979223404"><ele>27.0</ele><time>2026-04-28T15:11:10.999Z</time></trkpt><trkpt lat="35.669765270365886" lon="-5.901998329239618"><ele>27.0</ele><time>2026-04-28T15:11:11.999Z</time></trkpt><trkpt lat="35.66953037023517" lon="-5.90176951675721"><ele>27.0</ele><time>2026-04-28T15:11:12.999Z</time></trkpt><trkpt lat="35.669295602278375" lon="-5.901537889560743"><ele>23.5</ele><time>2026-04-28T15:11:13.999Z</time></trkpt><trkpt lat="35.66906210454028" lon="-5.901303845343672"><ele>20.0</ele><time>2026-04-28T15:11:14.999Z</time></trkpt><trkpt lat="35.66883120966203" lon="-5.9010687089734235"><ele>19.5</ele><time>2026-04-28T15:11:15.999Z</time></trkpt><trkpt lat="35.66860324447351" lon="-5.900829646823221"><ele>19.0</ele><time>2026-04-28T15:11:16.999Z</time></trkpt><trkpt lat="35.668379706361385" lon="-5.900585032762055"><ele>19.0</ele><time>2026-04-28T15:11:17.999Z</time></trkpt><trkpt lat="35.6681627190235" lon="-5.900332567995022"><ele>19.0</ele><time>2026-04-28T15:11:18.999Z</time></trkpt><trkpt lat="35.66795351212964" lon="-5.900071702741872"><ele>20.0</ele><time>2026-04-28T15:11:19.999Z</time></trkpt><trkpt lat="35.66775133245746" lon="-5.899802694215383"><ele>21.0</ele><time>2026-04-28T15:11:20.999Z</time></trkpt><trkpt lat="35.66755711906469" lon="-5.899523499071309"><ele>23.5</ele><time>2026-04-28T15:11:21.999Z</time></trkpt><trkpt lat="35.667374605876454" lon="-5.899235902153613"><ele>26.0</ele><time>2026-04-28T15:11:22.999Z</time></trkpt><trkpt lat="35.66720156591426" lon="-5.898939374590546"><ele>26.0</ele><time>2026-04-28T15:11:23.999Z</time></trkpt><trkpt lat="35.66703128688829" lon="-5.898637076576518"><ele>26.0</ele><time>2026-04-28T15:11:24.999Z</time></trkpt><trkpt lat="35.6668647073665" lon="-5.898330018398937"><ele>28.5</ele><time>2026-04-28T15:11:25.999Z</time></trkpt><trkpt lat="35.66671083044145" lon="-5.898014130730284"><ele>31.0</ele><time>2026-04-28T15:11:26.999Z</time></trkpt><trkpt lat="35.66656496941522" lon="-5.897692437893523"><ele>31.0</ele><time>2026-04-28T15:11:28Z</time></trkpt><trkpt lat="35.666428640794166" lon="-5.897365274379092"><ele>31.0</ele><time>2026-04-28T15:11:29Z</time></trkpt><trkpt lat="35.66629947307198" lon="-5.8970348929967935"><ele>30.0</ele><time>2026-04-28T15:11:30Z</time></trkpt><trkpt lat="35.66617867914525" lon="-5.896700187374709"><ele>29.0</ele><time>2026-04-28T15:11:31Z</time></trkpt><trkpt lat="35.666064887905705" lon="-5.896360591120823"><ele>27.5</ele><time>2026-04-28T15:11:32Z</time></trkpt><trkpt lat="35.66595636769263" lon="-5.89601873605101"><ele>26.0</ele><time>2026-04-28T15:11:33Z</time></trkpt><trkpt lat="35.66585224423801" lon="-5.895675101834452"><ele>22.0</ele><time>2026-04-28T15:11:34Z</time></trkpt><trkpt lat="35.665746639734515" lon="-5.8953315509397965"><ele>18.0</ele><time>2026-04-28T15:11:35Z</time></trkpt><trkpt lat="35.66564003423158" lon="-5.894988328562076"><ele>16.0</ele><time>2026-04-28T15:11:36Z</time></trkpt><trkpt lat="35.66553299220971" lon="-5.894644526453055"><ele>14.0</ele><time>2026-04-28T15:11:37Z</time></trkpt><trkpt lat="35.665425176420925" lon="-5.894299869238629"><ele>15.0</ele><time>2026-04-28T15:11:38Z</time></trkpt><trkpt lat="35.66531686823896" lon="-5.893955770041756"><ele>16.0</ele><time>2026-04-28T15:11:39Z</time></trkpt><trkpt lat="35.66521038769169" lon="-5.8936130969228016"><ele>18.5</ele><time>2026-04-28T15:11:40Z</time></trkpt><trkpt lat="35.665103075014315" lon="-5.893269974657383"><ele>21.0</ele><time>2026-04-28T15:11:41Z</time></trkpt><trkpt lat="35.664997229833105" lon="-5.892927896195433"><ele>23.5</ele><time>2026-04-28T15:11:42Z</time></trkpt><trkpt lat="35.664890017925714" lon="-5.892586212721934"><ele>26.0</ele><time>2026-04-28T15:11:43Z</time></trkpt><trkpt lat="35.66478302680991" lon="-5.892244356427061"><ele>26.0</ele><time>2026-04-28T15:11:44Z</time></trkpt><trkpt lat="35.664675148585054" lon="-5.891901011767343"><ele>26.0</ele><time>2026-04-28T15:11:45Z</time></trkpt><trkpt lat="35.66456811931261" lon="-5.89155774567071"><ele>26.5</ele><time>2026-04-28T15:11:46Z</time></trkpt><trkpt lat="35.66446245699909" lon="-5.891213451632235"><ele>27.0</ele><time>2026-04-28T15:11:47Z</time></trkpt><trkpt lat="35.66435437837495" lon="-5.890870455229644"><ele>25.5</ele><time>2026-04-28T15:11:48Z</time></trkpt><trkpt lat="35.66424640563783" lon="-5.890525916279349"><ele>24.0</ele><time>2026-04-28T15:11:49Z</time></trkpt><trkpt lat="35.664136830311406" lon="-5.890180892231494"><ele>24.0</ele><time>2026-04-28T15:11:50Z</time></trkpt><trkpt lat="35.66402754982182" lon="-5.889836293933778"><ele>24.0</ele><time>2026-04-28T15:11:51Z</time></trkpt><trkpt lat="35.663919375337954" lon="-5.889492421466341"><ele>24.0</ele><time>2026-04-28T15:11:52Z</time></trkpt><trkpt lat="35.663812368606806" lon="-5.889148053191462"><ele>24.0</ele><time>2026-04-28T15:11:53Z</time></trkpt><trkpt lat="35.66370639080395" lon="-5.888804086091954"><ele>23.5</ele><time>2026-04-28T15:11:54Z</time></trkpt><trkpt lat="35.66359993431258" lon="-5.888458414766359"><ele>23.0</ele><time>2026-04-28T15:11:55Z</time></trkpt><trkpt lat="35.66349126573696" lon="-5.888112672775271"><ele>23.0</ele><time>2026-04-28T15:11:56Z</time></trkpt><trkpt lat="35.66338202942712" lon="-5.8877661645276875"><ele>23.0</ele><time>2026-04-28T15:11:57Z</time></trkpt><trkpt lat="35.663274271984655" lon="-5.887420834071021"><ele>24.0</ele><time>2026-04-28T15:11:58Z</time></trkpt><trkpt lat="35.66316651935717" lon="-5.887076471739922"><ele>25.0</ele><time>2026-04-28T15:11:59Z</time></trkpt><trkpt lat="35.66306124415104" lon="-5.886732259032677"><ele>26.0</ele><time>2026-04-28T15:12:00Z</time></trkpt><trkpt lat="35.662955240874155" lon="-5.886389136214048"><ele>27.0</ele><time>2026-04-28T15:12:01Z</time></trkpt><trkpt lat="35.66284819297959" lon="-5.886043807914052"><ele>25.0</ele><time>2026-04-28T15:12:02Z</time></trkpt><trkpt lat="35.662739334781904" lon="-5.885700118024708"><ele>23.0</ele><time>2026-04-28T15:12:03Z</time></trkpt><trkpt lat="35.66262788793367" lon="-5.88535809684264"><ele>22.0</ele><time>2026-04-28T15:12:04Z</time></trkpt><trkpt lat="35.66251289335017" lon="-5.885017118668654"><ele>21.0</ele><time>2026-04-28T15:12:05Z</time></trkpt><trkpt lat="35.66239302247516" lon="-5.884677246287076"><ele>21.0</ele><time>2026-04-28T15:12:06Z</time></trkpt><trkpt lat="35.662268401243665" lon="-5.8843417472659985"><ele>21.0</ele><time>2026-04-28T15:12:07Z</time></trkpt><trkpt lat="35.66213740150991" lon="-5.8840112090247505"><ele>20.5</ele><time>2026-04-28T15:12:08Z</time></trkpt><trkpt lat="35.661999000790125" lon="-5.883685106855273"><ele>20.0</ele><time>2026-04-28T15:12:09Z</time></trkpt><trkpt lat="35.661854784228915" lon="-5.883363470298081"><ele>17.0</ele><time>2026-04-28T15:12:10Z</time></trkpt><trkpt lat="35.66170381042236" lon="-5.883044925300672"><ele>14.0</ele><time>2026-04-28T15:12:11Z</time></trkpt><trkpt lat="35.661548460327154" lon="-5.882729716373851"><ele>14.0</ele><time>2026-04-28T15:12:12Z</time></trkpt><trkpt lat="35.66138974316405" lon="-5.882418345305885"><ele>14.0</ele><time>2026-04-28T15:12:13Z</time></trkpt><trkpt lat="35.66122552735543" lon="-5.882111117948124"><ele>13.0</ele><time>2026-04-28T15:12:14Z</time></trkpt><trkpt lat="35.66105596708563" lon="-5.881806890307593"><ele>12.0</ele><time>2026-04-28T15:12:15Z</time></trkpt><trkpt lat="35.66088094545196" lon="-5.88150834902497"><ele>12.0</ele><time>2026-04-28T15:12:16Z</time></trkpt><trkpt lat="35.6606993309628" lon="-5.881215758889355"><ele>12.0</ele><time>2026-04-28T15:12:17Z</time></trkpt><trkpt lat="35.660512399344114" lon="-5.880930080599132"><ele>12.5</ele><time>2026-04-28T15:12:18Z</time></trkpt><trkpt lat="35.66031819425752" lon="-5.880650477381733"><ele>13.0</ele><time>2026-04-28T15:12:19Z</time></trkpt><trkpt lat="35.66011993656385" lon="-5.88037381135614"><ele>11.0</ele><time>2026-04-28T15:12:20Z</time></trkpt><trkpt lat="35.65991788551781" lon="-5.880101840512643"><ele>9.0</ele><time>2026-04-28T15:12:21Z</time></trkpt><trkpt lat="35.65971267058185" lon="-5.879834677640462"><ele>8.5</ele><time>2026-04-28T15:12:22Z</time></trkpt><trkpt lat="35.659504753512856" lon="-5.87957103823122"><ele>8.0</ele><time>2026-04-28T15:12:23Z</time></trkpt><trkpt lat="35.659295628039374" lon="-5.879307126862513"><ele>7.5</ele><time>2026-04-28T15:12:24Z</time></trkpt><trkpt lat="35.659087557542605" lon="-5.879043057603091"><ele>7.0</ele><time>2026-04-28T15:12:25Z</time></trkpt><trkpt lat="35.658879745618385" lon="-5.878779937377137"><ele>7.0</ele><time>2026-04-28T15:12:26Z</time></trkpt><trkpt lat="35.658671710304745" lon="-5.878517523486024"><ele>7.0</ele><time>2026-04-28T15:12:27Z</time></trkpt><trkpt lat="35.658464198931405" lon="-5.878254544916011"><ele>6.5</ele><time>2026-04-28T15:12:28Z</time></trkpt><trkpt lat="35.658256372013994" lon="-5.877990543314291"><ele>6.0</ele><time>2026-04-28T15:12:29Z</time></trkpt><trkpt lat="35.65804761622709" lon="-5.877727631767929"><ele>6.5</ele><time>2026-04-28T15:12:30Z</time></trkpt><trkpt lat="35.65783921881763" lon="-5.877465192717853"><ele>7.0</ele><time>2026-04-28T15:12:31Z</time></trkpt><trkpt lat="35.65762993606514" lon="-5.877204744505772"><ele>7.0</ele><time>2026-04-28T15:12:32Z</time></trkpt><trkpt lat="35.65742188085766" lon="-5.876945036671144"><ele>7.0</ele><time>2026-04-28T15:12:33Z</time></trkpt><trkpt lat="35.65721381274778" lon="-5.876685044698116"><ele>7.0</ele><time>2026-04-28T15:12:34Z</time></trkpt><trkpt lat="35.65700542687114" lon="-5.876423115853618"><ele>7.0</ele><time>2026-04-28T15:12:35Z</time></trkpt><trkpt lat="35.65679852295467" lon="-5.876162149752569"><ele>6.5</ele><time>2026-04-28T15:12:36Z</time></trkpt><trkpt lat="35.65659031456616" lon="-5.875900628037631"><ele>6.0</ele><time>2026-04-28T15:12:37Z</time></trkpt><trkpt lat="35.656383072909016" lon="-5.875637668317693"><ele>6.0</ele><time>2026-04-28T15:12:38Z</time></trkpt><trkpt lat="35.65617740012014" lon="-5.875374844455359"><ele>6.0</ele><time>2026-04-28T15:12:39Z</time></trkpt><trkpt lat="35.655971292383626" lon="-5.87510913402689"><ele>6.0</ele><time>2026-04-28T15:12:39.999Z</time></trkpt><trkpt lat="35.655767093507606" lon="-5.874839700835483"><ele>6.0</ele><time>2026-04-28T15:12:40.999Z</time></trkpt><trkpt lat="35.65556564732859" lon="-5.8745649836649365"><ele>6.0</ele><time>2026-04-28T15:12:41.999Z</time></trkpt><trkpt lat="35.655371199638395" lon="-5.874284429450277"><ele>6.0</ele><time>2026-04-28T15:12:42.999Z</time></trkpt><trkpt lat="35.65518276708377" lon="-5.873996345393036"><ele>5.5</ele><time>2026-04-28T15:12:43.999Z</time></trkpt><trkpt lat="35.65499935797353" lon="-5.873703054501905"><ele>5.0</ele><time>2026-04-28T15:12:44.999Z</time></trkpt><trkpt lat="35.654820273392815" lon="-5.873406949452855"><ele>5.0</ele><time>2026-04-28T15:12:45.999Z</time></trkpt><trkpt lat="35.654645103163716" lon="-5.873107643403225"><ele>5.0</ele><time>2026-04-28T15:12:46.999Z</time></trkpt><trkpt lat="35.65447327716174" lon="-5.87280425974801"><ele>4.5</ele><time>2026-04-28T15:12:47.999Z</time></trkpt><trkpt lat="35.65430847283081" lon="-5.872496499790197"><ele>4.0</ele><time>2026-04-28T15:12:48.999Z</time></trkpt><trkpt lat="35.65414906323124" lon="-5.872185183058172"><ele>4.0</ele><time>2026-04-28T15:12:49.999Z</time></trkpt><trkpt lat="35.65399604050566" lon="-5.8718685440267295"><ele>4.0</ele><time>2026-04-28T15:12:50.999Z</time></trkpt><trkpt lat="35.653847542173104" lon="-5.871548360228911"><ele>4.5</ele><time>2026-04-28T15:12:51.999Z</time></trkpt><trkpt lat="35.65370392714663" lon="-5.871225314561877"><ele>5.0</ele><time>2026-04-28T15:12:52.999Z</time></trkpt><trkpt lat="35.65356506505422" lon="-5.87089913060277"><ele>4.0</ele><time>2026-04-28T15:12:53.999Z</time></trkpt><trkpt lat="35.65343341919618" lon="-5.8705688069022575"><ele>3.0</ele><time>2026-04-28T15:12:54.999Z</time></trkpt><trkpt lat="35.65330721222675" lon="-5.870234599406538"><ele>3.5</ele><time>2026-04-28T15:12:55.999Z</time></trkpt><trkpt lat="35.65318544354595" lon="-5.869895751048354"><ele>4.0</ele><time>2026-04-28T15:12:56.999Z</time></trkpt><trkpt lat="35.653069977561714" lon="-5.869555308422206"><ele>5.0</ele><time>2026-04-28T15:12:57.999Z</time></trkpt><trkpt lat="35.652961257668835" lon="-5.869213023060045"><ele>6.0</ele><time>2026-04-28T15:12:58.999Z</time></trkpt><trkpt lat="35.65285961575318" lon="-5.86886672969198"><ele>5.5</ele><time>2026-04-28T15:12:59.999Z</time></trkpt><trkpt lat="35.65276351343477" lon="-5.868517661979508"><ele>5.0</ele><time>2026-04-28T15:13:00.999Z</time></trkpt><trkpt lat="35.65267386932395" lon="-5.868166909502658"><ele>5.0</ele><time>2026-04-28T15:13:01.999Z</time></trkpt><trkpt lat="35.65258937311802" lon="-5.867814152459352"><ele>5.0</ele><time>2026-04-28T15:13:02.999Z</time></trkpt><trkpt lat="35.652512266492465" lon="-5.867461739242333"><ele>4.5</ele><time>2026-04-28T15:13:03.999Z</time></trkpt><trkpt lat="35.65244147676539" lon="-5.867105664301757"><ele>4.0</ele><time>2026-04-28T15:13:04.999Z</time></trkpt><trkpt lat="35.65237756792915" lon="-5.866746835431077"><ele>5.0</ele><time>2026-04-28T15:13:05.999Z</time></trkpt><trkpt lat="35.65232055969667" lon="-5.866386588051019"><ele>6.0</ele><time>2026-04-28T15:13:06.999Z</time></trkpt><trkpt lat="35.65226887904293" lon="-5.866025892133811"><ele>6.5</ele><time>2026-04-28T15:13:07.999Z</time></trkpt><trkpt lat="35.652222434440226" lon="-5.865664395074844"><ele>7.0</ele><time>2026-04-28T15:13:08.999Z</time></trkpt><trkpt lat="35.65218147614491" lon="-5.8653026547348395"><ele>6.0</ele><time>2026-04-28T15:13:09.999Z</time></trkpt><trkpt lat="35.65214587841224" lon="-5.864939820567807"><ele>5.0</ele><time>2026-04-28T15:13:10.999Z</time></trkpt><trkpt lat="35.65211657380309" lon="-5.864575038716173"><ele>4.0</ele><time>2026-04-28T15:13:11.999Z</time></trkpt><trkpt lat="35.65209339520223" lon="-5.864209983341683"><ele>3.0</ele><time>2026-04-28T15:13:12.999Z</time></trkpt><trkpt lat="35.65207628310393" lon="-5.863843267041063"><ele>3.0</ele><time>2026-04-28T15:13:13.999Z</time></trkpt><trkpt lat="35.65206272880676" lon="-5.863476322412534"><ele>3.0</ele><time>2026-04-28T15:13:14.999Z</time></trkpt><trkpt lat="35.65205338083525" lon="-5.863109972177832"><ele>3.0</ele><time>2026-04-28T15:13:15.999Z</time></trkpt><trkpt lat="35.65205004904122" lon="-5.862741938253031"><ele>3.0</ele><time>2026-04-28T15:13:16.999Z</time></trkpt><trkpt lat="35.65205216168579" lon="-5.862374266293283"><ele>3.0</ele><time>2026-04-28T15:13:17.999Z</time></trkpt><trkpt lat="35.65205946534007" lon="-5.862006822770232"><ele>3.0</ele><time>2026-04-28T15:13:18.999Z</time></trkpt><trkpt lat="35.652072803708016" lon="-5.861638989479304"><ele>3.0</ele><time>2026-04-28T15:13:19.999Z</time></trkpt><trkpt lat="35.652090827069856" lon="-5.861270044316644"><ele>3.0</ele><time>2026-04-28T15:13:20.999Z</time></trkpt><trkpt lat="35.65211550954978" lon="-5.860901446167477"><ele>4.0</ele><time>2026-04-28T15:13:21.999Z</time></trkpt><trkpt lat="35.65214349958518" lon="-5.86053251460945"><ele>5.0</ele><time>2026-04-28T15:13:22.999Z</time></trkpt><trkpt lat="35.652168071506" lon="-5.860163120938243"><ele>6.0</ele><time>2026-04-28T15:13:23.999Z</time></trkpt><trkpt lat="35.652186315836204" lon="-5.859793890866148"><ele>7.0</ele><time>2026-04-28T15:13:24.999Z</time></trkpt><trkpt lat="35.65220631573293" lon="-5.8594249487052075"><ele>6.5</ele><time>2026-04-28T15:13:25.999Z</time></trkpt><trkpt lat="35.652230158073586" lon="-5.8590551794516434"><ele>6.0</ele><time>2026-04-28T15:13:26.999Z</time></trkpt><trkpt lat="35.65225501875848" lon="-5.85868560322405"><ele>5.5</ele><time>2026-04-28T15:13:27.999Z</time></trkpt><trkpt lat="35.65228154919096" lon="-5.858318043968786"><ele>5.0</ele><time>2026-04-28T15:13:28.999Z</time></trkpt><trkpt lat="35.652307047880115" lon="-5.857950696325857"><ele>4.5</ele><time>2026-04-28T15:13:29.999Z</time></trkpt><trkpt lat="35.65233272758852" lon="-5.857583193630356"><ele>4.0</ele><time>2026-04-28T15:13:30.999Z</time></trkpt><trkpt lat="35.65235947306997" lon="-5.857216150309145"><ele>4.0</ele><time>2026-04-28T15:13:31.999Z</time></trkpt><trkpt lat="35.652384889141686" lon="-5.8568497355311635"><ele>4.0</ele><time>2026-04-28T15:13:32.999Z</time></trkpt><trkpt lat="35.65240890230958" lon="-5.856481887475719"><ele>5.0</ele><time>2026-04-28T15:13:34Z</time></trkpt><trkpt lat="35.65243190892087" lon="-5.856113131851687"><ele>6.0</ele><time>2026-04-28T15:13:35Z</time></trkpt><trkpt lat="35.65245542285801" lon="-5.855744347247632"><ele>6.0</ele><time>2026-04-28T15:13:36Z</time></trkpt><trkpt lat="35.65247926216266" lon="-5.855377407832806"><ele>6.0</ele><time>2026-04-28T15:13:37Z</time></trkpt><trkpt lat="35.652504606356686" lon="-5.855010875958616"><ele>6.0</ele><time>2026-04-28T15:13:38Z</time></trkpt><trkpt lat="35.652531842762755" lon="-5.854643642040365"><ele>6.0</ele><time>2026-04-28T15:13:39Z</time></trkpt><trkpt lat="35.65256054872717" lon="-5.854275242823223"><ele>5.5</ele><time>2026-04-28T15:13:40Z</time></trkpt><trkpt lat="35.65259025974449" lon="-5.853908025112042"><ele>5.0</ele><time>2026-04-28T15:13:41Z</time></trkpt><trkpt lat="35.6526181286262" lon="-5.853541141084908"><ele>4.0</ele><time>2026-04-28T15:13:42Z</time></trkpt><trkpt lat="35.65264346367926" lon="-5.853172870945081"><ele>3.0</ele><time>2026-04-28T15:13:43Z</time></trkpt><trkpt lat="35.652667192233665" lon="-5.852805500672014"><ele>3.5</ele><time>2026-04-28T15:13:44Z</time></trkpt><trkpt lat="35.652691225903716" lon="-5.852438522570486"><ele>4.0</ele><time>2026-04-28T15:13:45Z</time></trkpt><trkpt lat="35.65271551393549" lon="-5.852071017383188"><ele>4.5</ele><time>2026-04-28T15:13:46Z</time></trkpt><trkpt lat="35.652740753919865" lon="-5.8517028915715095"><ele>5.0</ele><time>2026-04-28T15:13:47Z</time></trkpt><trkpt lat="35.652764879544605" lon="-5.8513360408475865"><ele>5.0</ele><time>2026-04-28T15:13:48Z</time></trkpt><trkpt lat="35.65278843742874" lon="-5.850969522776366"><ele>5.0</ele><time>2026-04-28T15:13:49Z</time></trkpt><trkpt lat="35.65281220799014" lon="-5.850602541947224"><ele>5.0</ele><time>2026-04-28T15:13:50Z</time></trkpt><trkpt lat="35.65283490256064" lon="-5.850244696256743"><ele>5.0</ele><time>2026-04-28T15:13:51Z</time></trkpt><trkpt lat="35.652855438067554" lon="-5.849912195574592"><ele>4.5</ele><time>2026-04-28T15:13:52Z</time></trkpt><trkpt lat="35.65287538802324" lon="-5.84959824923912"><ele>4.0</ele><time>2026-04-28T15:13:53Z</time></trkpt><trkpt lat="35.65289484981398" lon="-5.849298674012708"><ele>5.5</ele><time>2026-04-28T15:13:54Z</time></trkpt><trkpt lat="35.65291316766837" lon="-5.849009953029414"><ele>7.0</ele><time>2026-04-28T15:13:55Z</time></trkpt><trkpt lat="35.65293065520991" lon="-5.848740320527889"><ele>7.0</ele><time>2026-04-28T15:13:56Z</time></trkpt><trkpt lat="35.652948561611076" lon="-5.848470992253062"><ele>7.0</ele><time>2026-04-28T15:13:57Z</time></trkpt><trkpt lat="35.65296653671076" lon="-5.8481997208752405"><ele>7.0</ele><time>2026-04-28T15:13:58Z</time></trkpt><trkpt lat="35.6529845855087" lon="-5.847922708904585"><ele>7.0</ele><time>2026-04-28T15:13:59Z</time></trkpt><trkpt lat="35.6530028229229" lon="-5.847641941044836"><ele>7.0</ele><time>2026-04-28T15:14:00Z</time></trkpt><trkpt lat="35.653021275735114" lon="-5.847355658891647"><ele>8.0</ele><time>2026-04-28T15:14:01Z</time></trkpt><trkpt lat="35.653039120246426" lon="-5.847066787937286"><ele>9.0</ele><time>2026-04-28T15:14:02Z</time></trkpt><trkpt lat="35.653057294524224" lon="-5.846777870346875"><ele>9.5</ele><time>2026-04-28T15:14:03Z</time></trkpt><trkpt lat="35.653075708917726" lon="-5.846487914270693"><ele>10.0</ele><time>2026-04-28T15:14:04Z</time></trkpt><trkpt lat="35.65309750832724" lon="-5.846199584391724"><ele>11.0</ele><time>2026-04-28T15:14:05Z</time></trkpt><trkpt lat="35.653122974102196" lon="-5.845911054010084"><ele>12.0</ele><time>2026-04-28T15:14:06Z</time></trkpt><trkpt lat="35.653151890581384" lon="-5.8456279549509995"><ele>12.0</ele><time>2026-04-28T15:14:07Z</time></trkpt><trkpt lat="35.65318223213476" lon="-5.845356394136565"><ele>12.0</ele><time>2026-04-28T15:14:08Z</time></trkpt><trkpt lat="35.65321407353127" lon="-5.845098777172647"><ele>12.0</ele><time>2026-04-28T15:14:09Z</time></trkpt><trkpt lat="35.65324607785071" lon="-5.84484503185518"><ele>11.333333333333334</ele><time>2026-04-28T15:14:10Z</time></trkpt><trkpt lat="35.653279501195186" lon="-5.844596327742702"><ele>10.666666666666668</ele><time>2026-04-28T15:14:11Z</time></trkpt><trkpt lat="35.65331565789716" lon="-5.844348088157733"><ele>10.0</ele><time>2026-04-28T15:14:12Z</time></trkpt><trkpt lat="35.65335489923522" lon="-5.844099190451015"><ele>10.0</ele><time>2026-04-28T15:14:13Z</time></trkpt><trkpt lat="35.65339629656796" lon="-5.843848020686354"><ele>10.0</ele><time>2026-04-28T15:14:14Z</time></trkpt><trkpt lat="35.653441088841156" lon="-5.84359688102878"><ele>10.0</ele><time>2026-04-28T15:14:15Z</time></trkpt><trkpt lat="35.653488887047935" lon="-5.843345084675234"><ele>10.0</ele><time>2026-04-28T15:14:16Z</time></trkpt><trkpt lat="35.65354061079659" lon="-5.843090901386996"><ele>10.0</ele><time>2026-04-28T15:14:17Z</time></trkpt><trkpt lat="35.653595191129725" lon="-5.842832888898149"><ele>10.0</ele><time>2026-04-28T15:14:18Z</time></trkpt><trkpt lat="35.6536528905405" lon="-5.842574587617639"><ele>10.333333333333334</ele><time>2026-04-28T15:14:19Z</time></trkpt><trkpt lat="35.65371432384268" lon="-5.842315005722996"><ele>10.666666666666666</ele><time>2026-04-28T15:14:20Z</time></trkpt><trkpt lat="35.653777856266075" lon="-5.8420533305046565"><ele>11.0</ele><time>2026-04-28T15:14:21Z</time></trkpt><trkpt lat="35.65384414698094" lon="-5.841790719163607"><ele>11.0</ele><time>2026-04-28T15:14:22Z</time></trkpt><trkpt lat="35.653913811478326" lon="-5.8415273722532"><ele>11.0</ele><time>2026-04-28T15:14:23Z</time></trkpt><trkpt lat="35.653986709769164" lon="-5.841266149195483"><ele>11.0</ele><time>2026-04-28T15:14:24Z</time></trkpt><trkpt lat="35.65406373436302" lon="-5.841000890394578"><ele>12.0</ele><time>2026-04-28T15:14:25Z</time></trkpt><trkpt lat="35.65414572005815" lon="-5.84073031860447"><ele>13.0</ele><time>2026-04-28T15:14:26Z</time></trkpt><trkpt lat="35.65423224232737" lon="-5.840450986830818"><ele>13.0</ele><time>2026-04-28T15:14:27Z</time></trkpt><trkpt lat="35.65432626501818" lon="-5.840164904334361"><ele>13.0</ele><time>2026-04-28T15:14:28Z</time></trkpt><trkpt lat="35.65442771999429" lon="-5.839869220055551"><ele>13.0</ele><time>2026-04-28T15:14:29Z</time></trkpt><trkpt lat="35.65453435914379" lon="-5.839567708666947"><ele>13.0</ele><time>2026-04-28T15:14:30Z</time></trkpt><trkpt lat="35.65464686987003" lon="-5.839259296745248"><ele>12.5</ele><time>2026-04-28T15:14:31Z</time></trkpt><trkpt lat="35.6547631718272" lon="-5.838945249005804"><ele>12.0</ele><time>2026-04-28T15:14:32Z</time></trkpt><trkpt lat="35.65488428363587" lon="-5.838626331827382"><ele>11.5</ele><time>2026-04-28T15:14:33Z</time></trkpt><trkpt lat="35.65501102279378" lon="-5.838303502892783"><ele>11.0</ele><time>2026-04-28T15:14:33.999Z</time></trkpt><trkpt lat="35.655142380139566" lon="-5.837983895191469"><ele>11.0</ele><time>2026-04-28T15:14:34.999Z</time></trkpt><trkpt lat="35.65527505573683" lon="-5.8376726387021085"><ele>11.0</ele><time>2026-04-28T15:14:35.999Z</time></trkpt><trkpt lat="35.655411570083366" lon="-5.837363548851435"><ele>10.5</ele><time>2026-04-28T15:14:36.999Z</time></trkpt><trkpt lat="35.655554472900214" lon="-5.8370564915058765"><ele>10.0</ele><time>2026-04-28T15:14:37.999Z</time></trkpt><trkpt lat="35.655703996316134" lon="-5.836753310457659"><ele>11.0</ele><time>2026-04-28T15:14:38.999Z</time></trkpt><trkpt lat="35.65585979631159" lon="-5.836451094010995"><ele>12.0</ele><time>2026-04-28T15:14:39.999Z</time></trkpt><trkpt lat="35.65602144930156" lon="-5.83615066659552"><ele>13.0</ele><time>2026-04-28T15:14:40.999Z</time></trkpt><trkpt lat="35.65618646885241" lon="-5.835852858661442"><ele>14.0</ele><time>2026-04-28T15:14:41.999Z</time></trkpt><trkpt lat="35.65635539633439" lon="-5.835558427507349"><ele>14.0</ele><time>2026-04-28T15:14:42.999Z</time></trkpt><trkpt lat="35.656528524852384" lon="-5.835266459990559"><ele>14.0</ele><time>2026-04-28T15:14:43.999Z</time></trkpt><trkpt lat="35.65670540451143" lon="-5.834975919968194"><ele>14.0</ele><time>2026-04-28T15:14:44.999Z</time></trkpt><trkpt lat="35.65688527830048" lon="-5.834691818913275"><ele>14.0</ele><time>2026-04-28T15:14:45.999Z</time></trkpt><trkpt lat="35.65706933467104" lon="-5.834410381709635"><ele>14.5</ele><time>2026-04-28T15:14:46.999Z</time></trkpt><trkpt lat="35.65725752351985" lon="-5.83413213277508"><ele>15.0</ele><time>2026-04-28T15:14:47.999Z</time></trkpt><trkpt lat="35.65744975147494" lon="-5.833857280791031"><ele>15.0</ele><time>2026-04-28T15:14:48.999Z</time></trkpt><trkpt lat="35.657647687912785" lon="-5.83358980946573"><ele>15.0</ele><time>2026-04-28T15:14:49.999Z</time></trkpt><trkpt lat="35.65784848060453" lon="-5.833324676898968"><ele>14.5</ele><time>2026-04-28T15:14:50.999Z</time></trkpt><trkpt lat="35.65805475054333" lon="-5.833062345080625"><ele>14.0</ele><time>2026-04-28T15:14:51.999Z</time></trkpt><trkpt lat="35.65826527018151" lon="-5.832804130840125"><ele>12.0</ele><time>2026-04-28T15:14:52.999Z</time></trkpt><trkpt lat="35.65847916857712" lon="-5.83254749539115"><ele>10.0</ele><time>2026-04-28T15:14:53.999Z</time></trkpt><trkpt lat="35.65869509471495" lon="-5.832294938846032"><ele>9.5</ele><time>2026-04-28T15:14:54.999Z</time></trkpt><trkpt lat="35.65891397453837" lon="-5.832044193873496"><ele>9.0</ele><time>2026-04-28T15:14:55.999Z</time></trkpt><trkpt lat="35.6591353244784" lon="-5.83179615205707"><ele>8.0</ele><time>2026-04-28T15:14:56.999Z</time></trkpt><trkpt lat="35.65935765268344" lon="-5.831550612790938"><ele>7.0</ele><time>2026-04-28T15:14:57.999Z</time></trkpt><trkpt lat="35.6595810181178" lon="-5.831304286237365"><ele>8.5</ele><time>2026-04-28T15:14:58.999Z</time></trkpt><trkpt lat="35.65980342905567" lon="-5.831057684857113"><ele>10.0</ele><time>2026-04-28T15:14:59.999Z</time></trkpt><trkpt lat="35.660025475663616" lon="-5.830811249663704"><ele>10.0</ele><time>2026-04-28T15:15:00.999Z</time></trkpt><trkpt lat="35.66024858750973" lon="-5.830565106802459"><ele>10.0</ele><time>2026-04-28T15:15:01.999Z</time></trkpt><trkpt lat="35.660471218507766" lon="-5.830319606222698"><ele>11.5</ele><time>2026-04-28T15:15:02.999Z</time></trkpt><trkpt lat="35.66069341789779" lon="-5.830073974938135"><ele>13.0</ele><time>2026-04-28T15:15:03.999Z</time></trkpt><trkpt lat="35.66091633930743" lon="-5.829827460849765"><ele>16.5</ele><time>2026-04-28T15:15:04.999Z</time></trkpt><trkpt lat="35.66113812748064" lon="-5.82958070246187"><ele>20.0</ele><time>2026-04-28T15:15:05.999Z</time></trkpt><trkpt lat="35.66135823379261" lon="-5.829332208490161"><ele>18.5</ele><time>2026-04-28T15:15:06.999Z</time></trkpt><trkpt lat="35.66157996048673" lon="-5.829084393954759"><ele>17.0</ele><time>2026-04-28T15:15:07.999Z</time></trkpt><trkpt lat="35.66180289691159" lon="-5.828839808310448"><ele>16.5</ele><time>2026-04-28T15:15:08.999Z</time></trkpt><trkpt lat="35.662025784629975" lon="-5.8285940310781585"><ele>16.0</ele><time>2026-04-28T15:15:09.999Z</time></trkpt><trkpt lat="35.662244032317936" lon="-5.828340731850313"><ele>16.0</ele><time>2026-04-28T15:15:10.999Z</time></trkpt><trkpt lat="35.662455239862624" lon="-5.8280830576022185"><ele>16.0</ele><time>2026-04-28T15:15:11.999Z</time></trkpt><trkpt lat="35.662661230985385" lon="-5.827818268583713"><ele>14.0</ele><time>2026-04-28T15:15:12.999Z</time></trkpt><trkpt lat="35.66286491801271" lon="-5.82754921011534"><ele>12.0</ele><time>2026-04-28T15:15:13.999Z</time></trkpt><trkpt lat="35.663067844565255" lon="-5.827281861663511"><ele>12.0</ele><time>2026-04-28T15:15:14.999Z</time></trkpt><trkpt lat="35.66326814771277" lon="-5.827010401940933"><ele>12.0</ele><time>2026-04-28T15:15:15.999Z</time></trkpt><trkpt lat="35.66346564060078" lon="-5.826735250675562"><ele>12.5</ele><time>2026-04-28T15:15:16.999Z</time></trkpt><trkpt lat="35.66365906926275" lon="-5.8264560966893155"><ele>13.0</ele><time>2026-04-28T15:15:17.999Z</time></trkpt><trkpt lat="35.66384777099985" lon="-5.826172132402312"><ele>11.0</ele><time>2026-04-28T15:15:18.999Z</time></trkpt><trkpt lat="35.66403173926668" lon="-5.825881999102056"><ele>9.0</ele><time>2026-04-28T15:15:19.999Z</time></trkpt><trkpt lat="35.66421377427297" lon="-5.8255890199191915"><ele>9.0</ele><time>2026-04-28T15:15:20.999Z</time></trkpt><trkpt lat="35.66438891390804" lon="-5.825291390717068"><ele>9.0</ele><time>2026-04-28T15:15:21.999Z</time></trkpt><trkpt lat="35.66456083638917" lon="-5.82498987543363"><ele>13.0</ele><time>2026-04-28T15:15:22.999Z</time></trkpt><trkpt lat="35.66473226605437" lon="-5.8246871797912565"><ele>17.0</ele><time>2026-04-28T15:15:23.999Z</time></trkpt><trkpt lat="35.66490385942612" lon="-5.824384577705281"><ele>16.0</ele><time>2026-04-28T15:15:24.999Z</time></trkpt><trkpt lat="35.665074749482955" lon="-5.8240806467155775"><ele>15.0</ele><time>2026-04-28T15:15:25.999Z</time></trkpt><trkpt lat="35.66524606517114" lon="-5.823777176746361"><ele>17.5</ele><time>2026-04-28T15:15:26.999Z</time></trkpt><trkpt lat="35.66541798517402" lon="-5.823473294786209"><ele>20.0</ele><time>2026-04-28T15:15:27.999Z</time></trkpt><trkpt lat="35.66559096780858" lon="-5.823171059065693"><ele>20.0</ele><time>2026-04-28T15:15:28.999Z</time></trkpt><trkpt lat="35.66576727507246" lon="-5.822872050733826"><ele>20.0</ele><time>2026-04-28T15:15:29.999Z</time></trkpt><trkpt lat="35.66594849623482" lon="-5.822579087402755"><ele>20.0</ele><time>2026-04-28T15:15:30.999Z</time></trkpt><trkpt lat="35.66613597785067" lon="-5.822294290529002"><ele>20.0</ele><time>2026-04-28T15:15:31.999Z</time></trkpt><trkpt lat="35.666328313567845" lon="-5.822012449912124"><ele>17.5</ele><time>2026-04-28T15:15:32.999Z</time></trkpt><trkpt lat="35.666524897877885" lon="-5.821746298752048"><ele>15.0</ele><time>2026-04-28T15:15:33.999Z</time></trkpt><trkpt lat="35.6667175320607" lon="-5.821493646107702"><ele>15.0</ele><time>2026-04-28T15:15:34.999Z</time></trkpt><trkpt lat="35.666909079309306" lon="-5.8212498319757415"><ele>15.0</ele><time>2026-04-28T15:15:35.999Z</time></trkpt><trkpt lat="35.66710062187085" lon="-5.821014598686634"><ele>15.5</ele><time>2026-04-28T15:15:36.999Z</time></trkpt><trkpt lat="35.66729109413587" lon="-5.820787858139663"><ele>16.0</ele><time>2026-04-28T15:15:37.999Z</time></trkpt><trkpt lat="35.66748055260629" lon="-5.820568175298114"><ele>16.0</ele><time>2026-04-28T15:15:38.999Z</time></trkpt><trkpt lat="35.667670221703865" lon="-5.820363258199734"><ele>16.0</ele><time>2026-04-28T15:15:40Z</time></trkpt><trkpt lat="35.6678580009029" lon="-5.820166712422543"><ele>18.0</ele><time>2026-04-28T15:15:41Z</time></trkpt><trkpt lat="35.66804516546824" lon="-5.81997867856134"><ele>20.0</ele><time>2026-04-28T15:15:42Z</time></trkpt><trkpt lat="35.668232180632394" lon="-5.8197952503761465"><ele>20.0</ele><time>2026-04-28T15:15:43Z</time></trkpt><trkpt lat="35.66841933723473" lon="-5.819618665817809"><ele>20.0</ele><time>2026-04-28T15:15:44Z</time></trkpt><trkpt lat="35.66860419441162" lon="-5.819445640348157"><ele>18.0</ele><time>2026-04-28T15:15:45Z</time></trkpt><trkpt lat="35.668789919611214" lon="-5.819273093495082"><ele>16.0</ele><time>2026-04-28T15:15:46Z</time></trkpt><trkpt lat="35.66898065403881" lon="-5.819099344302858"><ele>16.0</ele><time>2026-04-28T15:15:47Z</time></trkpt><trkpt lat="35.6691752383596" lon="-5.818925794752499"><ele>16.0</ele><time>2026-04-28T15:15:48Z</time></trkpt><trkpt lat="35.66937160741341" lon="-5.818746141065312"><ele>18.0</ele><time>2026-04-28T15:15:49Z</time></trkpt><trkpt lat="35.669568555432335" lon="-5.818562062260122"><ele>20.0</ele><time>2026-04-28T15:15:50Z</time></trkpt><trkpt lat="35.66976784673823" lon="-5.818380485171352"><ele>20.0</ele><time>2026-04-28T15:15:51Z</time></trkpt><trkpt lat="35.66997190096178" lon="-5.818196650237599"><ele>20.0</ele><time>2026-04-28T15:15:52Z</time></trkpt><trkpt lat="35.670179875587415" lon="-5.8180103751146754"><ele>20.0</ele><time>2026-04-28T15:15:53Z</time></trkpt><trkpt lat="35.67038786171633" lon="-5.817819712378658"><ele>20.0</ele><time>2026-04-28T15:15:54Z</time></trkpt><trkpt lat="35.67059743352323" lon="-5.817624574925277"><ele>20.0</ele><time>2026-04-28T15:15:55Z</time></trkpt><trkpt lat="35.670807566746035" lon="-5.8174292436907935"><ele>20.0</ele><time>2026-04-28T15:15:56Z</time></trkpt><trkpt lat="35.671020726471696" lon="-5.817231285563715"><ele>20.0</ele><time>2026-04-28T15:15:57Z</time></trkpt><trkpt lat="35.67123477281967" lon="-5.817032085561512"><ele>20.0</ele><time>2026-04-28T15:15:58Z</time></trkpt><trkpt lat="35.6714488338603" lon="-5.816831764578203"><ele>18.0</ele><time>2026-04-28T15:15:59Z</time></trkpt><trkpt lat="35.67166350082084" lon="-5.816628385103154"><ele>16.0</ele><time>2026-04-28T15:16:00Z</time></trkpt><trkpt lat="35.6718787273134" lon="-5.816420849054912"><ele>16.0</ele><time>2026-04-28T15:16:01Z</time></trkpt><trkpt lat="35.672094447291826" lon="-5.816209277263487"><ele>16.0</ele><time>2026-04-28T15:16:02Z</time></trkpt><trkpt lat="35.67230775537791" lon="-5.815993569690693"><ele>15.0</ele><time>2026-04-28T15:16:03Z</time></trkpt><trkpt lat="35.67251881126852" lon="-5.81577134469705"><ele>14.0</ele><time>2026-04-28T15:16:04Z</time></trkpt><trkpt lat="35.67272883972396" lon="-5.815546067876334"><ele>14.0</ele><time>2026-04-28T15:16:05Z</time></trkpt><trkpt lat="35.67293539005753" lon="-5.815319384618274"><ele>14.0</ele><time>2026-04-28T15:16:06Z</time></trkpt><trkpt lat="35.67314394789887" lon="-5.815084225083911"><ele>13.0</ele><time>2026-04-28T15:16:07Z</time></trkpt><trkpt lat="35.67335224172684" lon="-5.81484322000845"><ele>12.0</ele><time>2026-04-28T15:16:08Z</time></trkpt><trkpt lat="35.6735557401417" lon="-5.81459866131372"><ele>11.5</ele><time>2026-04-28T15:16:09Z</time></trkpt><trkpt lat="35.67375882413094" lon="-5.8143475081358655"><ele>11.0</ele><time>2026-04-28T15:16:10Z</time></trkpt><trkpt lat="35.673960007939435" lon="-5.814090767189102"><ele>11.0</ele><time>2026-04-28T15:16:11Z</time></trkpt><trkpt lat="35.67416040055157" lon="-5.8138301573204885"><ele>11.0</ele><time>2026-04-28T15:16:12Z</time></trkpt><trkpt lat="35.674356915574464" lon="-5.813565363293197"><ele>11.5</ele><time>2026-04-28T15:16:13Z</time></trkpt><trkpt lat="35.67454764236472" lon="-5.813295107296489"><ele>12.0</ele><time>2026-04-28T15:16:14Z</time></trkpt><trkpt lat="35.674731836837466" lon="-5.813018759245651"><ele>12.0</ele><time>2026-04-28T15:16:15Z</time></trkpt><trkpt lat="35.6749129168723" lon="-5.812743130702394"><ele>12.0</ele><time>2026-04-28T15:16:16Z</time></trkpt><trkpt lat="35.67508983762558" lon="-5.812466918418652"><ele>12.5</ele><time>2026-04-28T15:16:17Z</time></trkpt><trkpt lat="35.67526390847385" lon="-5.812186569643376"><ele>13.0</ele><time>2026-04-28T15:16:18Z</time></trkpt><trkpt lat="35.675432383685106" lon="-5.811906210818035"><ele>16.0</ele><time>2026-04-28T15:16:19Z</time></trkpt><trkpt lat="35.675598287919854" lon="-5.811623956921498"><ele>19.0</ele><time>2026-04-28T15:16:20Z</time></trkpt><trkpt lat="35.67576189201909" lon="-5.81133340809397"><ele>19.0</ele><time>2026-04-28T15:16:21Z</time></trkpt><trkpt lat="35.67592301372042" lon="-5.811038527199071"><ele>19.0</ele><time>2026-04-28T15:16:22Z</time></trkpt><trkpt lat="35.67608270824529" lon="-5.810736477910799"><ele>21.5</ele><time>2026-04-28T15:16:23Z</time></trkpt><trkpt lat="35.676237723674866" lon="-5.810431148880715"><ele>24.0</ele><time>2026-04-28T15:16:24Z</time></trkpt><trkpt lat="35.676386853174634" lon="-5.810125267196605"><ele>26.0</ele><time>2026-04-28T15:16:25Z</time></trkpt><trkpt lat="35.67653351265587" lon="-5.809818255510652"><ele>28.0</ele><time>2026-04-28T15:16:26Z</time></trkpt><trkpt lat="35.67667516616675" lon="-5.8095097245949425"><ele>27.0</ele><time>2026-04-28T15:16:27Z</time></trkpt><trkpt lat="35.67681162200041" lon="-5.809195956193527"><ele>26.0</ele><time>2026-04-28T15:16:28Z</time></trkpt><trkpt lat="35.67694585378566" lon="-5.808878355673282"><ele>26.0</ele><time>2026-04-28T15:16:29Z</time></trkpt><trkpt lat="35.677076776100996" lon="-5.808559535831831"><ele>26.0</ele><time>2026-04-28T15:16:30Z</time></trkpt><trkpt lat="35.67720666525985" lon="-5.808236641270417"><ele>27.5</ele><time>2026-04-28T15:16:31Z</time></trkpt><trkpt lat="35.677331394290796" lon="-5.807909311498321"><ele>29.0</ele><time>2026-04-28T15:16:32Z</time></trkpt><trkpt lat="35.677451267194456" lon="-5.807577859506381"><ele>34.0</ele><time>2026-04-28T15:16:33Z</time></trkpt><trkpt lat="35.67756652855304" lon="-5.807240407919072"><ele>39.0</ele><time>2026-04-28T15:16:33.999Z</time></trkpt><trkpt lat="35.67767760213761" lon="-5.806897435211452"><ele>40.5</ele><time>2026-04-28T15:16:34.999Z</time></trkpt><trkpt lat="35.67778709938463" lon="-5.806552867260908"><ele>42.0</ele><time>2026-04-28T15:16:35.999Z</time></trkpt><trkpt lat="35.6778936925196" lon="-5.806208188887337"><ele>46.5</ele><time>2026-04-28T15:16:36.999Z</time></trkpt><trkpt lat="35.67799440830364" lon="-5.805861883677711"><ele>51.0</ele><time>2026-04-28T15:16:37.999Z</time></trkpt><trkpt lat="35.67808800891468" lon="-5.805516424863687"><ele>51.0</ele><time>2026-04-28T15:16:38.999Z</time></trkpt><trkpt lat="35.67817352307286" lon="-5.805175820928538"><ele>51.0</ele><time>2026-04-28T15:16:39.999Z</time></trkpt><trkpt lat="35.6782523522482" lon="-5.804834240116758"><ele>52.5</ele><time>2026-04-28T15:16:40.999Z</time></trkpt><trkpt lat="35.67832720159813" lon="-5.8044894714614435"><ele>54.0</ele><time>2026-04-28T15:16:41.999Z</time></trkpt><trkpt lat="35.678397986893096" lon="-5.804141070309218"><ele>54.0</ele><time>2026-04-28T15:16:42.999Z</time></trkpt><trkpt lat="35.67846519502754" lon="-5.803786617066996"><ele>54.0</ele><time>2026-04-28T15:16:43.999Z</time></trkpt><trkpt lat="35.678529364156205" lon="-5.803432803015808"><ele>53.5</ele><time>2026-04-28T15:16:44.999Z</time></trkpt><trkpt lat="35.67858490509156" lon="-5.803080473317612"><ele>53.0</ele><time>2026-04-28T15:16:45.999Z</time></trkpt><trkpt lat="35.67863230773944" lon="-5.802726171234303"><ele>51.0</ele><time>2026-04-28T15:16:46.999Z</time></trkpt><trkpt lat="35.67867539356396" lon="-5.802370400239969"><ele>49.0</ele><time>2026-04-28T15:16:47.999Z</time></trkpt><trkpt lat="35.678713884790874" lon="-5.802013665213755"><ele>49.0</ele><time>2026-04-28T15:16:48.999Z</time></trkpt><trkpt lat="35.67874920886346" lon="-5.801657016104251"><ele>49.0</ele><time>2026-04-28T15:16:49.999Z</time></trkpt><trkpt lat="35.67878168328538" lon="-5.801303030907779"><ele>47.5</ele><time>2026-04-28T15:16:50.999Z</time></trkpt><trkpt lat="35.67880983646859" lon="-5.800951372797539"><ele>46.0</ele><time>2026-04-28T15:16:51.999Z</time></trkpt><trkpt lat="35.67883356318114" lon="-5.800602618650142"><ele>46.0</ele><time>2026-04-28T15:16:52.999Z</time></trkpt><trkpt lat="35.67885164416711" lon="-5.800254916679508"><ele>46.0</ele><time>2026-04-28T15:16:53.999Z</time></trkpt><trkpt lat="35.67886504097944" lon="-5.799906794787432"><ele>43.0</ele><time>2026-04-28T15:16:54.999Z</time></trkpt><trkpt lat="35.67887458869425" lon="-5.799558665210402"><ele>40.0</ele><time>2026-04-28T15:16:55.999Z</time></trkpt><trkpt lat="35.67887881308606" lon="-5.799210806275253"><ele>38.0</ele><time>2026-04-28T15:16:56.999Z</time></trkpt><trkpt lat="35.67887709926111" lon="-5.798864028052251"><ele>36.0</ele><time>2026-04-28T15:16:57.999Z</time></trkpt><trkpt lat="35.678871932909395" lon="-5.798517142306681"><ele>34.0</ele><time>2026-04-28T15:16:58.999Z</time></trkpt><trkpt lat="35.67886353468893" lon="-5.798172177778951"><ele>32.0</ele><time>2026-04-28T15:16:59.999Z</time></trkpt><trkpt lat="35.67885193748861" lon="-5.797824431064952"><ele>30.0</ele><time>2026-04-28T15:17:00.999Z</time></trkpt><trkpt lat="35.6788350398849" lon="-5.797475505467776"><ele>28.0</ele><time>2026-04-28T15:17:01.999Z</time></trkpt><trkpt lat="35.67881453370931" lon="-5.797127091469523"><ele>27.5</ele><time>2026-04-28T15:17:02.999Z</time></trkpt><trkpt lat="35.67878701355805" lon="-5.7967775093398135"><ele>27.0</ele><time>2026-04-28T15:17:03.999Z</time></trkpt><trkpt lat="35.6787549011121" lon="-5.796429796640457"><ele>27.0</ele><time>2026-04-28T15:17:04.999Z</time></trkpt><trkpt lat="35.678717855589774" lon="-5.796084153645491"><ele>27.0</ele><time>2026-04-28T15:17:05.999Z</time></trkpt><trkpt lat="35.6786750874338" lon="-5.795737215664984"><ele>29.0</ele><time>2026-04-28T15:17:06.999Z</time></trkpt><trkpt lat="35.67862976906815" lon="-5.795391410100425"><ele>31.0</ele><time>2026-04-28T15:17:07.999Z</time></trkpt><trkpt lat="35.67858022252132" lon="-5.795043805460478"><ele>31.0</ele><time>2026-04-28T15:17:08.999Z</time></trkpt><trkpt lat="35.6785277546719" lon="-5.794699042584279"><ele>31.0</ele><time>2026-04-28T15:17:09.999Z</time></trkpt><trkpt lat="35.67847244864445" lon="-5.794354918959703"><ele>32.5</ele><time>2026-04-28T15:17:10.999Z</time></trkpt><trkpt lat="35.67841180843804" lon="-5.794011915494754"><ele>34.0</ele><time>2026-04-28T15:17:11.999Z</time></trkpt><trkpt lat="35.67834536819695" lon="-5.793673585155352"><ele>34.5</ele><time>2026-04-28T15:17:12.999Z</time></trkpt><trkpt lat="35.67827471845986" lon="-5.793336241466211"><ele>35.0</ele><time>2026-04-28T15:17:13.999Z</time></trkpt><trkpt lat="35.678197568425354" lon="-5.793000446175971"><ele>33.0</ele><time>2026-04-28T15:17:14.999Z</time></trkpt><trkpt lat="35.67811610685223" lon="-5.792665620584776"><ele>31.0</ele><time>2026-04-28T15:17:15.999Z</time></trkpt><trkpt lat="35.67803166501635" lon="-5.792331974850592"><ele>31.0</ele><time>2026-04-28T15:17:16.999Z</time></trkpt><trkpt lat="35.677943602666076" lon="-5.791999641225529"><ele>31.0</ele><time>2026-04-28T15:17:17.999Z</time></trkpt><trkpt lat="35.67785267052235" lon="-5.791669645494361"><ele>31.0</ele><time>2026-04-28T15:17:18.999Z</time></trkpt><trkpt lat="35.67775784668705" lon="-5.791340536928481"><ele>31.0</ele><time>2026-04-28T15:17:19.999Z</time></trkpt><trkpt lat="35.67765923343588" lon="-5.79101368091552"><ele>31.5</ele><time>2026-04-28T15:17:20.999Z</time></trkpt><trkpt lat="35.67755540583835" lon="-5.790689969350861"><ele>32.0</ele><time>2026-04-28T15:17:21.999Z</time></trkpt><trkpt lat="35.67744647812337" lon="-5.790368034491807"><ele>32.0</ele><time>2026-04-28T15:17:22.999Z</time></trkpt><trkpt lat="35.67733419870005" lon="-5.7900486225136305"><ele>32.0</ele><time>2026-04-28T15:17:23.999Z</time></trkpt><trkpt lat="35.67721847161134" lon="-5.789731466299317"><ele>32.0</ele><time>2026-04-28T15:17:24.999Z</time></trkpt><trkpt lat="35.67709810015957" lon="-5.7894161058152145"><ele>32.0</ele><time>2026-04-28T15:17:25.999Z</time></trkpt><trkpt lat="35.67697463261086" lon="-5.789103150560154"><ele>31.5</ele><time>2026-04-28T15:17:26.999Z</time></trkpt><trkpt lat="35.67684778927411" lon="-5.788791040516256"><ele>31.0</ele><time>2026-04-28T15:17:27.999Z</time></trkpt><trkpt lat="35.67671986672828" lon="-5.788479850286805"><ele>33.0</ele><time>2026-04-28T15:17:28.999Z</time></trkpt><trkpt lat="35.67659148130097" lon="-5.78816628481072"><ele>35.0</ele><time>2026-04-28T15:17:29.999Z</time></trkpt><trkpt lat="35.67646551011923" lon="-5.787852771114159"><ele>36.5</ele><time>2026-04-28T15:17:30.999Z</time></trkpt><trkpt lat="35.676340145585996" lon="-5.787539073545429"><ele>38.0</ele><time>2026-04-28T15:17:31.999Z</time></trkpt><trkpt lat="35.676213922967186" lon="-5.7872255079333605"><ele>38.0</ele><time>2026-04-28T15:17:32.999Z</time></trkpt><trkpt lat="35.67608587629079" lon="-5.786911730589426"><ele>38.0</ele><time>2026-04-28T15:17:33.999Z</time></trkpt><trkpt lat="35.67595723384643" lon="-5.786599243804195"><ele>39.5</ele><time>2026-04-28T15:17:34.999Z</time></trkpt><trkpt lat="35.67582979238929" lon="-5.786282572243861"><ele>41.0</ele><time>2026-04-28T15:17:35.999Z</time></trkpt><trkpt lat="35.675702671669804" lon="-5.78596713889293"><ele>41.0</ele><time>2026-04-28T15:17:36.999Z</time></trkpt><trkpt lat="35.67557505866283" lon="-5.785651895033613"><ele>41.0</ele><time>2026-04-28T15:17:37.999Z</time></trkpt><trkpt lat="35.67544885583779" lon="-5.785336512537781"><ele>41.5</ele><time>2026-04-28T15:17:38.999Z</time></trkpt><trkpt lat="35.67532168694695" lon="-5.785022700772338"><ele>42.0</ele><time>2026-04-28T15:17:39.999Z</time></trkpt><trkpt lat="35.67519301709115" lon="-5.784710217168988"><ele>42.0</ele><time>2026-04-28T15:17:40.999Z</time></trkpt><trkpt lat="35.67506535698558" lon="-5.784397965808878"><ele>42.0</ele><time>2026-04-28T15:17:41.999Z</time></trkpt><trkpt lat="35.67494030676162" lon="-5.7840891727341965"><ele>41.5</ele><time>2026-04-28T15:17:42.999Z</time></trkpt><trkpt lat="35.67481468098124" lon="-5.783777035219543"><ele>41.0</ele><time>2026-04-28T15:17:43.999Z</time></trkpt><trkpt lat="35.67468926878664" lon="-5.783465144049349"><ele>41.0</ele><time>2026-04-28T15:17:44.999Z</time></trkpt><trkpt lat="35.67456377264891" lon="-5.783150712481159"><ele>41.0</ele><time>2026-04-28T15:17:46Z</time></trkpt><trkpt lat="35.67443738882294" lon="-5.782835336397206"><ele>41.5</ele><time>2026-04-28T15:17:47Z</time></trkpt><trkpt lat="35.67430993389127" lon="-5.782522420253784"><ele>42.0</ele><time>2026-04-28T15:17:48Z</time></trkpt><trkpt lat="35.67418274842855" lon="-5.782215339284403"><ele>42.0</ele><time>2026-04-28T15:17:49Z</time></trkpt><trkpt lat="35.674053962316435" lon="-5.781910578158309"><ele>42.0</ele><time>2026-04-28T15:17:50Z</time></trkpt><trkpt lat="35.673928009501566" lon="-5.781606855378091"><ele>40.0</ele><time>2026-04-28T15:17:51Z</time></trkpt><trkpt lat="35.67380591812007" lon="-5.781300481716879"><ele>38.0</ele><time>2026-04-28T15:17:52Z</time></trkpt><trkpt lat="35.67368096723512" lon="-5.780987044972285"><ele>37.5</ele><time>2026-04-28T15:17:53Z</time></trkpt><trkpt lat="35.6735543130761" lon="-5.780672292642229"><ele>37.0</ele><time>2026-04-28T15:17:54Z</time></trkpt><trkpt lat="35.6734265361197" lon="-5.780360581878911"><ele>37.5</ele><time>2026-04-28T15:17:55Z</time></trkpt><trkpt lat="35.67329768183396" lon="-5.7800496597390625"><ele>38.0</ele><time>2026-04-28T15:17:56Z</time></trkpt><trkpt lat="35.67317679284433" lon="-5.77973988724643"><ele>38.0</ele><time>2026-04-28T15:17:57Z</time></trkpt><trkpt lat="35.67305781199755" lon="-5.779431847850208"><ele>38.0</ele><time>2026-04-28T15:17:58Z</time></trkpt><trkpt lat="35.67293985531886" lon="-5.77912168483459"><ele>38.0</ele><time>2026-04-28T15:17:59Z</time></trkpt><trkpt lat="35.67282108109224" lon="-5.778811090224083"><ele>38.0</ele><time>2026-04-28T15:18:00Z</time></trkpt><trkpt lat="35.67270060977562" lon="-5.778495923258617"><ele>38.5</ele><time>2026-04-28T15:18:01Z</time></trkpt><trkpt lat="35.67257714090816" lon="-5.778180493068116"><ele>39.0</ele><time>2026-04-28T15:18:02Z</time></trkpt><trkpt lat="35.672449941769614" lon="-5.777866654553281"><ele>38.5</ele><time>2026-04-28T15:18:03Z</time></trkpt><trkpt lat="35.67232324115074" lon="-5.7775553090508875"><ele>38.0</ele><time>2026-04-28T15:18:04Z</time></trkpt><trkpt lat="35.67219554103579" lon="-5.777243580725221"><ele>38.0</ele><time>2026-04-28T15:18:05Z</time></trkpt><trkpt lat="35.672068446840434" lon="-5.776930942561629"><ele>38.0</ele><time>2026-04-28T15:18:06Z</time></trkpt><trkpt lat="35.67194170798609" lon="-5.776614259171027"><ele>39.0</ele><time>2026-04-28T15:18:07Z</time></trkpt><trkpt lat="35.67181396402109" lon="-5.776296821877809"><ele>40.0</ele><time>2026-04-28T15:18:08Z</time></trkpt><trkpt lat="35.671685435423626" lon="-5.77597621418385"><ele>40.5</ele><time>2026-04-28T15:18:09Z</time></trkpt><trkpt lat="35.67155552340423" lon="-5.7756564314106456"><ele>41.0</ele><time>2026-04-28T15:18:10Z</time></trkpt><trkpt lat="35.67142231126215" lon="-5.775338444755445"><ele>41.0</ele><time>2026-04-28T15:18:11Z</time></trkpt><trkpt lat="35.671289194536264" lon="-5.775022672348916"><ele>41.0</ele><time>2026-04-28T15:18:12Z</time></trkpt><trkpt lat="35.67115550554391" lon="-5.774708544274367"><ele>40.0</ele><time>2026-04-28T15:18:13Z</time></trkpt><trkpt lat="35.67101963069375" lon="-5.7743953908042895"><ele>39.0</ele><time>2026-04-28T15:18:14Z</time></trkpt><trkpt lat="35.670884515581776" lon="-5.774082717095197"><ele>39.0</ele><time>2026-04-28T15:18:15Z</time></trkpt><trkpt lat="35.67075038444238" lon="-5.773769701341668"><ele>39.0</ele><time>2026-04-28T15:18:16Z</time></trkpt><trkpt lat="35.670619049599" lon="-5.773456841357166"><ele>37.0</ele><time>2026-04-28T15:18:17Z</time></trkpt><trkpt lat="35.6704918130918" lon="-5.773143612192597"><ele>35.0</ele><time>2026-04-28T15:18:18Z</time></trkpt><trkpt lat="35.670366744682255" lon="-5.772832451778772"><ele>33.0</ele><time>2026-04-28T15:18:19Z</time></trkpt><trkpt lat="35.67024093397566" lon="-5.772520879983928"><ele>31.0</ele><time>2026-04-28T15:18:20Z</time></trkpt><trkpt lat="35.67011722819343" lon="-5.772208917747505"><ele>31.0</ele><time>2026-04-28T15:18:21Z</time></trkpt><trkpt lat="35.669994916901416" lon="-5.771891620485987"><ele>31.0</ele><time>2026-04-28T15:18:22Z</time></trkpt><trkpt lat="35.669878783525576" lon="-5.771571384578651"><ele>30.5</ele><time>2026-04-28T15:18:23Z</time></trkpt><trkpt lat="35.669767901680416" lon="-5.77124797465675"><ele>30.0</ele><time>2026-04-28T15:18:24Z</time></trkpt><trkpt lat="35.66966541394019" lon="-5.770921699679481"><ele>29.5</ele><time>2026-04-28T15:18:25Z</time></trkpt><trkpt lat="35.66957054831333" lon="-5.7705934432903225"><ele>29.0</ele><time>2026-04-28T15:18:26Z</time></trkpt><trkpt lat="35.66947818460354" lon="-5.770261307921174"><ele>30.5</ele><time>2026-04-28T15:18:27Z</time></trkpt><trkpt lat="35.669389531809486" lon="-5.7699261934926716"><ele>32.0</ele><time>2026-04-28T15:18:28Z</time></trkpt><trkpt lat="35.669305085984085" lon="-5.769588309453227"><ele>34.5</ele><time>2026-04-28T15:18:29Z</time></trkpt><trkpt lat="35.669227504370454" lon="-5.7692492741625285"><ele>37.0</ele><time>2026-04-28T15:18:30Z</time></trkpt><trkpt lat="35.66915572294552" lon="-5.768908867557299"><ele>37.0</ele><time>2026-04-28T15:18:31Z</time></trkpt><trkpt lat="35.669089848827014" lon="-5.7685657608993015"><ele>37.0</ele><time>2026-04-28T15:18:32Z</time></trkpt><trkpt lat="35.66902966448952" lon="-5.768220836048105"><ele>40.5</ele><time>2026-04-28T15:18:33Z</time></trkpt><trkpt lat="35.66897488047413" lon="-5.767875135915816"><ele>44.0</ele><time>2026-04-28T15:18:34Z</time></trkpt><trkpt lat="35.668926687550275" lon="-5.767528314239049"><ele>45.0</ele><time>2026-04-28T15:18:34.999Z</time></trkpt><trkpt lat="35.66888425575441" lon="-5.767177185602017"><ele>46.0</ele><time>2026-04-28T15:18:35.999Z</time></trkpt><trkpt lat="35.668847347520156" lon="-5.76682517823413"><ele>46.5</ele><time>2026-04-28T15:18:36.999Z</time></trkpt><trkpt lat="35.668816102651014" lon="-5.766472603941675"><ele>47.0</ele><time>2026-04-28T15:18:37.999Z</time></trkpt><trkpt lat="35.66878792266036" lon="-5.766119026840911"><ele>46.5</ele><time>2026-04-28T15:18:38.999Z</time></trkpt><trkpt lat="35.6687602198275" lon="-5.765764184333662"><ele>46.0</ele><time>2026-04-28T15:18:39.999Z</time></trkpt><trkpt lat="35.668733513989686" lon="-5.765410357926324"><ele>45.0</ele><time>2026-04-28T15:18:40.999Z</time></trkpt><trkpt lat="35.66870793214989" lon="-5.765057848263176"><ele>44.0</ele><time>2026-04-28T15:18:41.999Z</time></trkpt><trkpt lat="35.668677348256224" lon="-5.764703329345161"><ele>45.5</ele><time>2026-04-28T15:18:42.999Z</time></trkpt><trkpt lat="35.668645019921705" lon="-5.76435093984768"><ele>47.0</ele><time>2026-04-28T15:18:43.999Z</time></trkpt><trkpt lat="35.66861480095659" lon="-5.764001342112114"><ele>47.5</ele><time>2026-04-28T15:18:44.999Z</time></trkpt><trkpt lat="35.668583466328975" lon="-5.763650511292875"><ele>48.0</ele><time>2026-04-28T15:18:45.999Z</time></trkpt><trkpt lat="35.66855418377638" lon="-5.763298541752495"><ele>48.0</ele><time>2026-04-28T15:18:46.999Z</time></trkpt><trkpt lat="35.66852484345037" lon="-5.762945330236108"><ele>48.0</ele><time>2026-04-28T15:18:47.999Z</time></trkpt><trkpt lat="35.66849569431334" lon="-5.762592207737431"><ele>49.5</ele><time>2026-04-28T15:18:48.999Z</time></trkpt><trkpt lat="35.66846510128611" lon="-5.7622376790802425"><ele>51.0</ele><time>2026-04-28T15:18:49.999Z</time></trkpt><trkpt lat="35.66843469769768" lon="-5.761883174310045"><ele>52.5</ele><time>2026-04-28T15:18:50.999Z</time></trkpt><trkpt lat="35.668405757332856" lon="-5.7615276748553805"><ele>54.0</ele><time>2026-04-28T15:18:51.999Z</time></trkpt><trkpt lat="35.668378377413745" lon="-5.761173079287792"><ele>54.5</ele><time>2026-04-28T15:18:52.999Z</time></trkpt><trkpt lat="35.66834946542435" lon="-5.760818441418666"><ele>55.0</ele><time>2026-04-28T15:18:53.999Z</time></trkpt><trkpt lat="35.66832136243006" lon="-5.760461693041779"><ele>55.5</ele><time>2026-04-28T15:18:54.999Z</time></trkpt><trkpt lat="35.66829272371961" lon="-5.760105130569081"><ele>56.0</ele><time>2026-04-28T15:18:55.999Z</time></trkpt><trkpt lat="35.668265318212796" lon="-5.759747394940318"><ele>56.0</ele><time>2026-04-28T15:18:56.999Z</time></trkpt><trkpt lat="35.66823917881633" lon="-5.759389449194024"><ele>56.0</ele><time>2026-04-28T15:18:57.999Z</time></trkpt><trkpt lat="35.66821498548058" lon="-5.759031316373925"><ele>56.0</ele><time>2026-04-28T15:18:58.999Z</time></trkpt><trkpt lat="35.66819495740128" lon="-5.758672049758968"><ele>56.0</ele><time>2026-04-28T15:18:59.999Z</time></trkpt><trkpt lat="35.66818345092598" lon="-5.758314894699883"><ele>56.0</ele><time>2026-04-28T15:19:00.999Z</time></trkpt><trkpt lat="35.668179182063554" lon="-5.757958530959702"><ele>56.0</ele><time>2026-04-28T15:19:01.999Z</time></trkpt><trkpt lat="35.66818473118231" lon="-5.757602671669745"><ele>56.0</ele><time>2026-04-28T15:19:02.999Z</time></trkpt><trkpt lat="35.66819741646995" lon="-5.757247192237493"><ele>56.0</ele><time>2026-04-28T15:19:03.999Z</time></trkpt><trkpt lat="35.6682179645049" lon="-5.7568921583896175"><ele>55.0</ele><time>2026-04-28T15:19:04.999Z</time></trkpt><trkpt lat="35.668245508529495" lon="-5.756537015831265"><ele>54.0</ele><time>2026-04-28T15:19:05.999Z</time></trkpt><trkpt lat="35.66827963677549" lon="-5.7561819179676466"><ele>50.0</ele><time>2026-04-28T15:19:06.999Z</time></trkpt><trkpt lat="35.66832303234568" lon="-5.755827599819382"><ele>46.0</ele><time>2026-04-28T15:19:07.999Z</time></trkpt><trkpt lat="35.668373793695686" lon="-5.755475397528007"><ele>43.5</ele><time>2026-04-28T15:19:08.999Z</time></trkpt><trkpt lat="35.668429966059556" lon="-5.755125729674335"><ele>41.0</ele><time>2026-04-28T15:19:09.999Z</time></trkpt><trkpt lat="35.66849417321286" lon="-5.754776718497239"><ele>41.0</ele><time>2026-04-28T15:19:10.999Z</time></trkpt><trkpt lat="35.66856611373844" lon="-5.7544305686702835"><ele>41.0</ele><time>2026-04-28T15:19:11.999Z</time></trkpt><trkpt lat="35.66864665759739" lon="-5.754088221287234"><ele>41.5</ele><time>2026-04-28T15:19:12.999Z</time></trkpt><trkpt lat="35.66873634371079" lon="-5.7537516051596205"><ele>42.0</ele><time>2026-04-28T15:19:13.999Z</time></trkpt><trkpt lat="35.66883368598542" lon="-5.75341718852777"><ele>39.5</ele><time>2026-04-28T15:19:14.999Z</time></trkpt><trkpt lat="35.66893671950942" lon="-5.753088145965386"><ele>37.0</ele><time>2026-04-28T15:19:15.999Z</time></trkpt><trkpt lat="35.669045686150156" lon="-5.752760326036686"><ele>35.0</ele><time>2026-04-28T15:19:16.999Z</time></trkpt><trkpt lat="35.669162358981765" lon="-5.752435325784641"><ele>33.0</ele><time>2026-04-28T15:19:17.999Z</time></trkpt><trkpt lat="35.66928660931355" lon="-5.752114606627609"><ele>31.5</ele><time>2026-04-28T15:19:18.999Z</time></trkpt><trkpt lat="35.66941659210575" lon="-5.751797070016761"><ele>30.0</ele><time>2026-04-28T15:19:19.999Z</time></trkpt><trkpt lat="35.66955382366952" lon="-5.751484398241603"><ele>30.0</ele><time>2026-04-28T15:19:20.999Z</time></trkpt><trkpt lat="35.66969806890929" lon="-5.751176776132458"><ele>30.0</ele><time>2026-04-28T15:19:21.999Z</time></trkpt><trkpt lat="35.66985046210783" lon="-5.750874104699707"><ele>29.5</ele><time>2026-04-28T15:19:22.999Z</time></trkpt><trkpt lat="35.67000739267496" lon="-5.750576929525164"><ele>29.0</ele><time>2026-04-28T15:19:23.999Z</time></trkpt><trkpt lat="35.67017188356168" lon="-5.750285999382231"><ele>31.5</ele><time>2026-04-28T15:19:24.999Z</time></trkpt><trkpt lat="35.67034201743429" lon="-5.750000541291798"><ele>34.0</ele><time>2026-04-28T15:19:25.999Z</time></trkpt><trkpt lat="35.67051928571746" lon="-5.749721762543931"><ele>34.0</ele><time>2026-04-28T15:19:26.999Z</time></trkpt><trkpt lat="35.670702914271516" lon="-5.749449403897323"><ele>34.0</ele><time>2026-04-28T15:19:27.999Z</time></trkpt><trkpt lat="35.670894195076684" lon="-5.749185464786884"><ele>32.5</ele><time>2026-04-28T15:19:28.999Z</time></trkpt><trkpt lat="35.67109137393828" lon="-5.748929799241085"><ele>31.0</ele><time>2026-04-28T15:19:29.999Z</time></trkpt><trkpt lat="35.67129492914238" lon="-5.748679218835929"><ele>36.5</ele><time>2026-04-28T15:19:30.999Z</time></trkpt><trkpt lat="35.67150377708944" lon="-5.748434842457486"><ele>42.0</ele><time>2026-04-28T15:19:31.999Z</time></trkpt><trkpt lat="35.67171748063523" lon="-5.748194403772086"><ele>42.0</ele><time>2026-04-28T15:19:32.999Z</time></trkpt><trkpt lat="35.67193507750209" lon="-5.747958515126307"><ele>42.0</ele><time>2026-04-28T15:19:33.999Z</time></trkpt><trkpt lat="35.67215647953847" lon="-5.747729942322924"><ele>44.0</ele><time>2026-04-28T15:19:34.999Z</time></trkpt><trkpt lat="35.672382888551994" lon="-5.747508257360992"><ele>46.0</ele><time>2026-04-28T15:19:35.999Z</time></trkpt><trkpt lat="35.67261402541186" lon="-5.747293301828307"><ele>48.5</ele><time>2026-04-28T15:19:36.999Z</time></trkpt><trkpt lat="35.67285050146683" lon="-5.747087263334307"><ele>51.0</ele><time>2026-04-28T15:19:37.999Z</time></trkpt><trkpt lat="35.67309230803988" lon="-5.746889950161494"><ele>48.5</ele><time>2026-04-28T15:19:38.999Z</time></trkpt><trkpt lat="35.67333608892157" lon="-5.746694453876452"><ele>46.0</ele><time>2026-04-28T15:19:39.999Z</time></trkpt><trkpt lat="35.673584145828606" lon="-5.746506501740882"><ele>49.0</ele><time>2026-04-28T15:19:40.999Z</time></trkpt><trkpt lat="35.67383591965242" lon="-5.746323447876572"><ele>52.0</ele><time>2026-04-28T15:19:41.999Z</time></trkpt><trkpt lat="35.67408881066075" lon="-5.746142461022122"><ele>49.0</ele><time>2026-04-28T15:19:42.999Z</time></trkpt><trkpt lat="35.67434169861196" lon="-5.7459614993740695"><ele>46.0</ele><time>2026-04-28T15:19:43.999Z</time></trkpt><trkpt lat="35.67459399297523" lon="-5.74577918356282"><ele>46.0</ele><time>2026-04-28T15:19:44.999Z</time></trkpt><trkpt lat="35.674847783049245" lon="-5.7455963267070755"><ele>46.0</ele><time>2026-04-28T15:19:45.999Z</time></trkpt><trkpt lat="35.67510072425576" lon="-5.745413812060825"><ele>46.5</ele><time>2026-04-28T15:19:46.999Z</time></trkpt><trkpt lat="35.675352868891736" lon="-5.7452330088667285"><ele>47.0</ele><time>2026-04-28T15:19:47.999Z</time></trkpt><trkpt lat="35.675604685477325" lon="-5.745050932942738"><ele>45.0</ele><time>2026-04-28T15:19:48.999Z</time></trkpt><trkpt lat="35.67585631232322" lon="-5.744867604519863"><ele>43.0</ele><time>2026-04-28T15:19:49.999Z</time></trkpt><trkpt lat="35.67610857258057" lon="-5.744684552384763"><ele>42.0</ele><time>2026-04-28T15:19:50.999Z</time></trkpt><trkpt lat="35.676359777704405" lon="-5.744499983888646"><ele>41.0</ele><time>2026-04-28T15:19:52Z</time></trkpt><trkpt lat="35.6766085687633" lon="-5.744312820379427"><ele>41.0</ele><time>2026-04-28T15:19:53Z</time></trkpt><trkpt lat="35.67685390760925" lon="-5.744119545332295"><ele>41.0</ele><time>2026-04-28T15:19:54Z</time></trkpt><trkpt lat="35.67709276240647" lon="-5.743914123632128"><ele>43.0</ele><time>2026-04-28T15:19:55Z</time></trkpt><trkpt lat="35.67732331982411" lon="-5.7436993393191225"><ele>45.0</ele><time>2026-04-28T15:19:56Z</time></trkpt><trkpt lat="35.6775476316555" lon="-5.743475204534411"><ele>44.5</ele><time>2026-04-28T15:19:57Z</time></trkpt><trkpt lat="35.6777669061618" lon="-5.743241711732565"><ele>44.0</ele><time>2026-04-28T15:19:58Z</time></trkpt><trkpt lat="35.677979347170584" lon="-5.743001151029277"><ele>44.0</ele><time>2026-04-28T15:19:59Z</time></trkpt><trkpt lat="35.678185044266854" lon="-5.742752805743513"><ele>44.0</ele><time>2026-04-28T15:20:00Z</time></trkpt><trkpt lat="35.67838573385679" lon="-5.742498327086393"><ele>42.0</ele><time>2026-04-28T15:20:01Z</time></trkpt><trkpt lat="35.67857849305503" lon="-5.7422342016909935"><ele>40.0</ele><time>2026-04-28T15:20:02Z</time></trkpt><trkpt lat="35.67876244395412" lon="-5.741963737146447"><ele>40.0</ele><time>2026-04-28T15:20:03Z</time></trkpt><trkpt lat="35.67893926356309" lon="-5.741687406520042"><ele>40.0</ele><time>2026-04-28T15:20:04Z</time></trkpt><trkpt lat="35.67911010720914" lon="-5.741403502047786"><ele>40.0</ele><time>2026-04-28T15:20:05Z</time></trkpt><trkpt lat="35.679272140266946" lon="-5.741112640186538"><ele>40.0</ele><time>2026-04-28T15:20:06Z</time></trkpt><trkpt lat="35.67942730228151" lon="-5.740815827971573"><ele>40.0</ele><time>2026-04-28T15:20:07Z</time></trkpt><trkpt lat="35.679576069000355" lon="-5.740513399087653"><ele>40.0</ele><time>2026-04-28T15:20:08Z</time></trkpt><trkpt lat="35.679715416377434" lon="-5.740206513255213"><ele>40.0</ele><time>2026-04-28T15:20:09Z</time></trkpt><trkpt lat="35.679842444241665" lon="-5.739892103336913"><ele>40.0</ele><time>2026-04-28T15:20:10Z</time></trkpt><trkpt lat="35.679964020684345" lon="-5.739572581281268"><ele>40.5</ele><time>2026-04-28T15:20:11Z</time></trkpt><trkpt lat="35.68007659855127" lon="-5.739248485658095"><ele>41.0</ele><time>2026-04-28T15:20:12Z</time></trkpt><trkpt lat="35.680180867601166" lon="-5.738921315818847"><ele>44.5</ele><time>2026-04-28T15:20:13Z</time></trkpt><trkpt lat="35.68027702494215" lon="-5.7385909442387435"><ele>48.0</ele><time>2026-04-28T15:20:14Z</time></trkpt><trkpt lat="35.68036312217886" lon="-5.738254776642282"><ele>50.5</ele><time>2026-04-28T15:20:15Z</time></trkpt><trkpt lat="35.68044201480381" lon="-5.737917374109879"><ele>53.0</ele><time>2026-04-28T15:20:16Z</time></trkpt><trkpt lat="35.68050991496022" lon="-5.737576937162483"><ele>57.0</ele><time>2026-04-28T15:20:17Z</time></trkpt><trkpt lat="35.68056877289257" lon="-5.7372332351504856"><ele>61.0</ele><time>2026-04-28T15:20:18Z</time></trkpt><trkpt lat="35.6806202015071" lon="-5.7368880512343"><ele>66.0</ele><time>2026-04-28T15:20:19Z</time></trkpt><trkpt lat="35.68066405000783" lon="-5.736535887999534"><ele>71.0</ele><time>2026-04-28T15:20:20Z</time></trkpt><trkpt lat="35.68069730383502" lon="-5.736182317468516"><ele>73.0</ele><time>2026-04-28T15:20:21Z</time></trkpt><trkpt lat="35.680720146435455" lon="-5.735828278223427"><ele>75.0</ele><time>2026-04-28T15:20:22Z</time></trkpt><trkpt lat="35.68073458893461" lon="-5.735472860470239"><ele>75.0</ele><time>2026-04-28T15:20:23Z</time></trkpt><trkpt lat="35.68074124777292" lon="-5.735117808808239"><ele>75.0</ele><time>2026-04-28T15:20:24Z</time></trkpt><trkpt lat="35.68073968178232" lon="-5.734760817223513"><ele>75.0</ele><time>2026-04-28T15:20:25Z</time></trkpt><trkpt lat="35.68073030076121" lon="-5.734403512590927"><ele>75.0</ele><time>2026-04-28T15:20:26Z</time></trkpt><trkpt lat="35.680709594860986" lon="-5.734046355764791"><ele>76.5</ele><time>2026-04-28T15:20:27Z</time></trkpt><trkpt lat="35.68067736855505" lon="-5.733693223716264"><ele>78.0</ele><time>2026-04-28T15:20:28Z</time></trkpt><trkpt lat="35.68063486007286" lon="-5.73334096469701"><ele>84.0</ele><time>2026-04-28T15:20:29Z</time></trkpt><trkpt lat="35.68058585721143" lon="-5.732989722939881"><ele>90.0</ele><time>2026-04-28T15:20:30Z</time></trkpt><trkpt lat="35.680535620357915" lon="-5.732636618265123"><ele>92.5</ele><time>2026-04-28T15:20:31Z</time></trkpt><trkpt lat="35.68048888848795" lon="-5.732281636496453"><ele>95.0</ele><time>2026-04-28T15:20:32Z</time></trkpt><trkpt lat="35.68044551344853" lon="-5.731926678547842"><ele>95.5</ele><time>2026-04-28T15:20:32.999Z</time></trkpt><trkpt lat="35.680403984611644" lon="-5.73157012900934"><ele>96.0</ele><time>2026-04-28T15:20:33.999Z</time></trkpt><trkpt lat="35.68036440706879" lon="-5.731212214071219"><ele>95.0</ele><time>2026-04-28T15:20:34.999Z</time></trkpt><trkpt lat="35.68032860111092" lon="-5.730854698568733"><ele>94.0</ele><time>2026-04-28T15:20:35.999Z</time></trkpt><trkpt lat="35.68030296430435" lon="-5.730496756918182"><ele>91.5</ele><time>2026-04-28T15:20:36.999Z</time></trkpt><trkpt lat="35.68028772087192" lon="-5.730140183412484"><ele>89.0</ele><time>2026-04-28T15:20:37.999Z</time></trkpt><trkpt lat="35.68027983865328" lon="-5.729783291670058"><ele>89.0</ele><time>2026-04-28T15:20:38.999Z</time></trkpt><trkpt lat="35.68028146436697" lon="-5.729424988658765"><ele>89.0</ele><time>2026-04-28T15:20:39.999Z</time></trkpt><trkpt lat="35.680293194113666" lon="-5.729068124450999"><ele>89.5</ele><time>2026-04-28T15:20:40.999Z</time></trkpt><trkpt lat="35.68031646891912" lon="-5.728712606316183"><ele>90.0</ele><time>2026-04-28T15:20:41.999Z</time></trkpt><trkpt lat="35.68035092796286" lon="-5.7283563707194025"><ele>88.5</ele><time>2026-04-28T15:20:42.999Z</time></trkpt><trkpt lat="35.68039244823563" lon="-5.72800326646924"><ele>87.0</ele><time>2026-04-28T15:20:43.999Z</time></trkpt><trkpt lat="35.680443484365284" lon="-5.727650549788535"><ele>82.5</ele><time>2026-04-28T15:20:44.999Z</time></trkpt><trkpt lat="35.68050368007105" lon="-5.7273017597593"><ele>78.0</ele><time>2026-04-28T15:20:45.999Z</time></trkpt><trkpt lat="35.68057266701045" lon="-5.726954077255726"><ele>74.0</ele><time>2026-04-28T15:20:46.999Z</time></trkpt><trkpt lat="35.68065367546672" lon="-5.726609398162794"><ele>70.0</ele><time>2026-04-28T15:20:47.999Z</time></trkpt><trkpt lat="35.68073892224602" lon="-5.726266397989883"><ele>65.5</ele><time>2026-04-28T15:20:48.999Z</time></trkpt><trkpt lat="35.680833676507675" lon="-5.725925954378808"><ele>61.0</ele><time>2026-04-28T15:20:49.999Z</time></trkpt><trkpt lat="35.680937612354235" lon="-5.725592911502707"><ele>61.0</ele><time>2026-04-28T15:20:50.999Z</time></trkpt><trkpt lat="35.68104962454508" lon="-5.725264713451929"><ele>61.0</ele><time>2026-04-28T15:20:51.999Z</time></trkpt><trkpt lat="35.681170989297065" lon="-5.724940980729804"><ele>60.5</ele><time>2026-04-28T15:20:52.999Z</time></trkpt><trkpt lat="35.68130031876984" lon="-5.724624008792878"><ele>60.0</ele><time>2026-04-28T15:20:53.999Z</time></trkpt><trkpt lat="35.68143710902619" lon="-5.7243123632308635"><ele>57.5</ele><time>2026-04-28T15:20:54.999Z</time></trkpt><trkpt lat="35.681580077197" lon="-5.72400421390229"><ele>55.0</ele><time>2026-04-28T15:20:55.999Z</time></trkpt><trkpt lat="35.681728847784726" lon="-5.723700563233275"><ele>54.5</ele><time>2026-04-28T15:20:56.999Z</time></trkpt><trkpt lat="35.681878612949994" lon="-5.723399136861666"><ele>54.0</ele><time>2026-04-28T15:20:57.999Z</time></trkpt><trkpt lat="35.68202853146768" lon="-5.723095265545863"><ele>59.0</ele><time>2026-04-28T15:20:58.999Z</time></trkpt><trkpt lat="35.68217829597117" lon="-5.722790768520079"><ele>64.0</ele><time>2026-04-28T15:20:59.999Z</time></trkpt><trkpt lat="35.68233002278015" lon="-5.722487761262319"><ele>65.5</ele><time>2026-04-28T15:21:00.999Z</time></trkpt><trkpt lat="35.682480440288835" lon="-5.72218553540854"><ele>67.0</ele><time>2026-04-28T15:21:01.999Z</time></trkpt><trkpt lat="35.68262776080641" lon="-5.721882774445764"><ele>70.5</ele><time>2026-04-28T15:21:02.999Z</time></trkpt><trkpt lat="35.68277364837625" lon="-5.721578556634751"><ele>74.0</ele><time>2026-04-28T15:21:03.999Z</time></trkpt><trkpt lat="35.68291410913432" lon="-5.72127347619366"><ele>71.0</ele><time>2026-04-28T15:21:04.999Z</time></trkpt><trkpt lat="35.683052479145054" lon="-5.720964982599716"><ele>68.0</ele><time>2026-04-28T15:21:05.999Z</time></trkpt><trkpt lat="35.68317925588487" lon="-5.720670141746376"><ele>68.0</ele><time>2026-04-28T15:21:06.999Z</time></trkpt><trkpt lat="35.68329328111059" lon="-5.720383577111065"><ele>68.0</ele><time>2026-04-28T15:21:07.999Z</time></trkpt><trkpt lat="35.68339676937693" lon="-5.720099300861012"><ele>63.5</ele><time>2026-04-28T15:21:08.999Z</time></trkpt><trkpt lat="35.683492388235706" lon="-5.71981255847474"><ele>59.0</ele><time>2026-04-28T15:21:09.999Z</time></trkpt><trkpt lat="35.683580308051624" lon="-5.719527509641819"><ele>61.5</ele><time>2026-04-28T15:21:10.999Z</time></trkpt><trkpt lat="35.683661390221964" lon="-5.719242872523747"><ele>64.0</ele><time>2026-04-28T15:21:11.999Z</time></trkpt><trkpt lat="35.683738338800545" lon="-5.718954117255257"><ele>64.0</ele><time>2026-04-28T15:21:12.999Z</time></trkpt><trkpt lat="35.68380899158028" lon="-5.718660860173619"><ele>64.0</ele><time>2026-04-28T15:21:13.999Z</time></trkpt><trkpt lat="35.68387486061817" lon="-5.718362697288599"><ele>67.5</ele><time>2026-04-28T15:21:14.999Z</time></trkpt><trkpt lat="35.68393592881077" lon="-5.718058686055953"><ele>71.0</ele><time>2026-04-28T15:21:15.999Z</time></trkpt><trkpt lat="35.683992286636595" lon="-5.717746436349055"><ele>71.5</ele><time>2026-04-28T15:21:16.999Z</time></trkpt><trkpt lat="35.68404361092728" lon="-5.717427463740716"><ele>72.0</ele><time>2026-04-28T15:21:17.999Z</time></trkpt><trkpt lat="35.68408615372977" lon="-5.717100015842155"><ele>74.0</ele><time>2026-04-28T15:21:18.999Z</time></trkpt><trkpt lat="35.68411991060057" lon="-5.716765845324359"><ele>76.0</ele><time>2026-04-28T15:21:19.999Z</time></trkpt><trkpt lat="35.68414532584875" lon="-5.716426151818725"><ele>76.0</ele><time>2026-04-28T15:21:20.999Z</time></trkpt><trkpt lat="35.684162689666685" lon="-5.716079345966326"><ele>76.0</ele><time>2026-04-28T15:21:21.999Z</time></trkpt><trkpt lat="35.68417572732422" lon="-5.715728222233027"><ele>77.5</ele><time>2026-04-28T15:21:22.999Z</time></trkpt><trkpt lat="35.68418493857824" lon="-5.715370207965084"><ele>79.0</ele><time>2026-04-28T15:21:23.999Z</time></trkpt><trkpt lat="35.68419180143697" lon="-5.715011418164767"><ele>81.5</ele><time>2026-04-28T15:21:24.999Z</time></trkpt><trkpt lat="35.68419422016633" lon="-5.71465351889012"><ele>84.0</ele><time>2026-04-28T15:21:25.999Z</time></trkpt><trkpt lat="35.684183576524475" lon="-5.714295156677976"><ele>86.0</ele><time>2026-04-28T15:21:26.999Z</time></trkpt><trkpt lat="35.684160999305234" lon="-5.713938107787064"><ele>88.0</ele><time>2026-04-28T15:21:27.999Z</time></trkpt><trkpt lat="35.68413175397323" lon="-5.713581438356405"><ele>89.5</ele><time>2026-04-28T15:21:28.999Z</time></trkpt><trkpt lat="35.684095097089106" lon="-5.713224336964089"><ele>91.0</ele><time>2026-04-28T15:21:29.999Z</time></trkpt><trkpt lat="35.68405012561849" lon="-5.712871137345484"><ele>92.5</ele><time>2026-04-28T15:21:30.999Z</time></trkpt><trkpt lat="35.68399723950507" lon="-5.712519101189015"><ele>94.0</ele><time>2026-04-28T15:21:31.999Z</time></trkpt><trkpt lat="35.68393736962235" lon="-5.712169281797547"><ele>93.0</ele><time>2026-04-28T15:21:32.999Z</time></trkpt><trkpt lat="35.68386871395921" lon="-5.711822635092894"><ele>92.0</ele><time>2026-04-28T15:21:33.999Z</time></trkpt><trkpt lat="35.68379348570039" lon="-5.711476719181705"><ele>92.0</ele><time>2026-04-28T15:21:34.999Z</time></trkpt><trkpt lat="35.683715429874994" lon="-5.711132217873949"><ele>92.0</ele><time>2026-04-28T15:21:35.999Z</time></trkpt><trkpt lat="35.68363735261627" lon="-5.710787947810661"><ele>87.0</ele><time>2026-04-28T15:21:36.999Z</time></trkpt><trkpt lat="35.6835570656967" lon="-5.710445032116744"><ele>82.0</ele><time>2026-04-28T15:21:37.999Z</time></trkpt><trkpt lat="35.68347563281205" lon="-5.710102893586363"><ele>78.0</ele><time>2026-04-28T15:21:38.999Z</time></trkpt><trkpt lat="35.683393416554495" lon="-5.7097607568907796"><ele>74.0</ele><time>2026-04-28T15:21:39.999Z</time></trkpt><trkpt lat="35.68331261821376" lon="-5.70941778991842"><ele>72.0</ele><time>2026-04-28T15:21:40.999Z</time></trkpt><trkpt lat="35.68323310770771" lon="-5.70907503124614"><ele>70.0</ele><time>2026-04-28T15:21:41.999Z</time></trkpt><trkpt lat="35.68315404868338" lon="-5.708731796373578"><ele>71.0</ele><time>2026-04-28T15:21:42.999Z</time></trkpt><trkpt lat="35.68307465004089" lon="-5.708388715139727"><ele>72.0</ele><time>2026-04-28T15:21:43.999Z</time></trkpt><trkpt lat="35.682993036386655" lon="-5.708045979147957"><ele>74.5</ele><time>2026-04-28T15:21:44.999Z</time></trkpt><trkpt lat="35.68291007070891" lon="-5.707703456811691"><ele>77.0</ele><time>2026-04-28T15:21:45.999Z</time></trkpt><trkpt lat="35.68282817625412" lon="-5.707360490707409"><ele>78.0</ele><time>2026-04-28T15:21:46.999Z</time></trkpt><trkpt lat="35.6827469576368" lon="-5.707017366162756"><ele>79.0</ele><time>2026-04-28T15:21:47.999Z</time></trkpt><trkpt lat="35.6826658289595" lon="-5.706674366349342"><ele>79.0</ele><time>2026-04-28T15:21:48.999Z</time></trkpt><trkpt lat="35.68258564752496" lon="-5.706331357630932"><ele>79.0</ele><time>2026-04-28T15:21:49.999Z</time></trkpt><trkpt lat="35.68250493422364" lon="-5.7059872872416815"><ele>82.0</ele><time>2026-04-28T15:21:50.999Z</time></trkpt><trkpt lat="35.68242434892485" lon="-5.705644534220529"><ele>85.0</ele><time>2026-04-28T15:21:51.999Z</time></trkpt><trkpt lat="35.6823435771953" lon="-5.70529996649025"><ele>84.5</ele><time>2026-04-28T15:21:52.999Z</time></trkpt><trkpt lat="35.68226449458569" lon="-5.704955505476159"><ele>84.0</ele><time>2026-04-28T15:21:53.999Z</time></trkpt><trkpt lat="35.6821883840999" lon="-5.704611168744553"><ele>85.5</ele><time>2026-04-28T15:21:54.999Z</time></trkpt><trkpt lat="35.682119012611615" lon="-5.704265473951625"><ele>87.0</ele><time>2026-04-28T15:21:55.999Z</time></trkpt><trkpt lat="35.6820580469187" lon="-5.703917072202649"><ele>86.0</ele><time>2026-04-28T15:21:57Z</time></trkpt><trkpt lat="35.68200848542482" lon="-5.703568158083805"><ele>85.0</ele><time>2026-04-28T15:21:58Z</time></trkpt><trkpt lat="35.68196878492453" lon="-5.703224087842707"><ele>85.0</ele><time>2026-04-28T15:21:59Z</time></trkpt><trkpt lat="35.681938251270324" lon="-5.702882936270938"><ele>85.0</ele><time>2026-04-28T15:22:00Z</time></trkpt><trkpt lat="35.68191617159895" lon="-5.7025399784964295"><ele>83.0</ele><time>2026-04-28T15:22:01Z</time></trkpt><trkpt lat="35.681902479748516" lon="-5.70219400086737"><ele>81.0</ele><time>2026-04-28T15:22:02Z</time></trkpt><trkpt lat="35.68189645590307" lon="-5.701846862215468"><ele>81.0</ele><time>2026-04-28T15:22:03Z</time></trkpt><trkpt lat="35.68189868295829" lon="-5.701499631250179"><ele>81.0</ele><time>2026-04-28T15:22:04Z</time></trkpt><trkpt lat="35.681910969846875" lon="-5.701152210887054"><ele>84.0</ele><time>2026-04-28T15:22:05Z</time></trkpt><trkpt lat="35.681931840334485" lon="-5.70080260410593"><ele>87.0</ele><time>2026-04-28T15:22:06Z</time></trkpt><trkpt lat="35.681962164538575" lon="-5.700453194329889"><ele>85.0</ele><time>2026-04-28T15:22:07Z</time></trkpt><trkpt lat="35.68200248738108" lon="-5.70010561388247"><ele>83.0</ele><time>2026-04-28T15:22:08Z</time></trkpt><trkpt lat="35.68205197199293" lon="-5.699760453254524"><ele>83.0</ele><time>2026-04-28T15:22:09Z</time></trkpt><trkpt lat="35.68211146152803" lon="-5.699417890978549"><ele>83.0</ele><time>2026-04-28T15:22:10Z</time></trkpt><trkpt lat="35.68218056069161" lon="-5.699077002989918"><ele>85.0</ele><time>2026-04-28T15:22:11Z</time></trkpt><trkpt lat="35.682256676422234" lon="-5.698737169722843"><ele>87.0</ele><time>2026-04-28T15:22:12Z</time></trkpt><trkpt lat="35.6823418224616" lon="-5.698398948231422"><ele>91.0</ele><time>2026-04-28T15:22:13Z</time></trkpt><trkpt lat="35.68243494809836" lon="-5.6980620713489305"><ele>95.0</ele><time>2026-04-28T15:22:14Z</time></trkpt><trkpt lat="35.68253582153849" lon="-5.697729896778906"><ele>97.0</ele><time>2026-04-28T15:22:15Z</time></trkpt><trkpt lat="35.68264550321138" lon="-5.697399174239032"><ele>99.0</ele><time>2026-04-28T15:22:16Z</time></trkpt><trkpt lat="35.68276416052286" lon="-5.697073518524597"><ele>101.5</ele><time>2026-04-28T15:22:17Z</time></trkpt><trkpt lat="35.68289212225283" lon="-5.696753337767144"><ele>104.0</ele><time>2026-04-28T15:22:18Z</time></trkpt><trkpt lat="35.683030176025355" lon="-5.6964394106655725"><ele>104.0</ele><time>2026-04-28T15:22:19Z</time></trkpt><trkpt lat="35.683177192847346" lon="-5.696129826935468"><ele>104.0</ele><time>2026-04-28T15:22:20Z</time></trkpt><trkpt lat="35.683329685714924" lon="-5.695826784381954"><ele>102.5</ele><time>2026-04-28T15:22:21Z</time></trkpt><trkpt lat="35.683487132208825" lon="-5.695525861587897"><ele>101.0</ele><time>2026-04-28T15:22:22Z</time></trkpt><trkpt lat="35.68364706048919" lon="-5.695228084728742"><ele>104.5</ele><time>2026-04-28T15:22:23Z</time></trkpt><trkpt lat="35.683809891156024" lon="-5.694929254137011"><ele>108.0</ele><time>2026-04-28T15:22:24Z</time></trkpt><trkpt lat="35.683971132206764" lon="-5.694629373076679"><ele>107.5</ele><time>2026-04-28T15:22:25Z</time></trkpt><trkpt lat="35.68413053443015" lon="-5.694331922054232"><ele>107.0</ele><time>2026-04-28T15:22:26Z</time></trkpt><trkpt lat="35.684286394169625" lon="-5.694040325414073"><ele>105.5</ele><time>2026-04-28T15:22:27Z</time></trkpt><trkpt lat="35.68444115022315" lon="-5.6937541389263435"><ele>104.0</ele><time>2026-04-28T15:22:28Z</time></trkpt><trkpt lat="35.68459305247809" lon="-5.693473607975548"><ele>101.5</ele><time>2026-04-28T15:22:29Z</time></trkpt><trkpt lat="35.68474091457295" lon="-5.693198746108387"><ele>99.0</ele><time>2026-04-28T15:22:30Z</time></trkpt><trkpt lat="35.6848870433213" lon="-5.692926200041753"><ele>98.0</ele><time>2026-04-28T15:22:31Z</time></trkpt><trkpt lat="35.68503217606035" lon="-5.692656855400924"><ele>97.0</ele><time>2026-04-28T15:22:32Z</time></trkpt><trkpt lat="35.68517423739672" lon="-5.692390520877472"><ele>99.0</ele><time>2026-04-28T15:22:33Z</time></trkpt><trkpt lat="35.68531488960645" lon="-5.69212390402648"><ele>101.0</ele><time>2026-04-28T15:22:34Z</time></trkpt><trkpt lat="35.68545045912262" lon="-5.691855786639096"><ele>101.0</ele><time>2026-04-28T15:22:35Z</time></trkpt><trkpt lat="35.68558085386905" lon="-5.6915863339485755"><ele>101.0</ele><time>2026-04-28T15:22:36Z</time></trkpt><trkpt lat="35.68570560341628" lon="-5.691311033956322"><ele>97.0</ele><time>2026-04-28T15:22:37Z</time></trkpt><trkpt lat="35.68582281093013" lon="-5.691032852337877"><ele>93.0</ele><time>2026-04-28T15:22:38Z</time></trkpt><trkpt lat="35.685929709406196" lon="-5.690753267539015"><ele>93.0</ele><time>2026-04-28T15:22:39Z</time></trkpt><trkpt lat="35.68602981499717" lon="-5.6904687282571516"><ele>93.0</ele><time>2026-04-28T15:22:40Z</time></trkpt><trkpt lat="35.68612530247613" lon="-5.690178958023159"><ele>95.5</ele><time>2026-04-28T15:22:40.999Z</time></trkpt><trkpt lat="35.6862150478664" lon="-5.689887549262942"><ele>98.0</ele><time>2026-04-28T15:22:41.999Z</time></trkpt><trkpt lat="35.68629868640883" lon="-5.6895941480172585"><ele>98.5</ele><time>2026-04-28T15:22:42.999Z</time></trkpt><trkpt lat="35.686377480233894" lon="-5.689298971435553"><ele>99.0</ele><time>2026-04-28T15:22:43.999Z</time></trkpt><trkpt lat="35.686448785050175" lon="-5.688996502715441"><ele>99.0</ele><time>2026-04-28T15:22:44.999Z</time></trkpt><trkpt lat="35.68651334397321" lon="-5.688694522274849"><ele>99.0</ele><time>2026-04-28T15:22:45.999Z</time></trkpt><trkpt lat="35.68657092541753" lon="-5.688394244681236"><ele>95.0</ele><time>2026-04-28T15:22:46.999Z</time></trkpt><trkpt lat="35.68662063531554" lon="-5.688089670163765"><ele>91.0</ele><time>2026-04-28T15:22:47.999Z</time></trkpt><trkpt lat="35.68666298726454" lon="-5.687780856673408"><ele>88.5</ele><time>2026-04-28T15:22:48.999Z</time></trkpt><trkpt lat="35.68670138437154" lon="-5.687468697915748"><ele>86.0</ele><time>2026-04-28T15:22:49.999Z</time></trkpt><trkpt lat="35.68673847089375" lon="-5.687155278837511"><ele>85.0</ele><time>2026-04-28T15:22:50.999Z</time></trkpt><trkpt lat="35.68677565193842" lon="-5.686840001795147"><ele>84.0</ele><time>2026-04-28T15:22:51.999Z</time></trkpt><trkpt lat="35.68681162865183" lon="-5.6865268616777165"><ele>84.0</ele><time>2026-04-28T15:22:52.999Z</time></trkpt><trkpt lat="35.68684772433575" lon="-5.686214547875255"><ele>84.0</ele><time>2026-04-28T15:22:53.999Z</time></trkpt><trkpt lat="35.686882934591004" lon="-5.685904911378647"><ele>83.5</ele><time>2026-04-28T15:22:54.999Z</time></trkpt><trkpt lat="35.68691609402179" lon="-5.685606355552457"><ele>83.0</ele><time>2026-04-28T15:22:55.999Z</time></trkpt><trkpt lat="35.68694717220341" lon="-5.685324077097225"><ele>82.66666666666667</ele><time>2026-04-28T15:22:56.999Z</time></trkpt><trkpt lat="35.68697715766852" lon="-5.6850617933284155"><ele>82.33333333333333</ele><time>2026-04-28T15:22:57.999Z</time></trkpt><trkpt lat="35.6870053567609" lon="-5.684811843738829"><ele>82.0</ele><time>2026-04-28T15:22:58.999Z</time></trkpt><trkpt lat="35.68703084613411" lon="-5.684572603275428"><ele>82.33333333333333</ele><time>2026-04-28T15:22:59.999Z</time></trkpt><trkpt lat="35.68705434448306" lon="-5.684346507176515"><ele>82.66666666666667</ele><time>2026-04-28T15:23:00.999Z</time></trkpt><trkpt lat="35.68707452048644" lon="-5.684127070207375"><ele>83.0</ele><time>2026-04-28T15:23:01.999Z</time></trkpt><trkpt lat="35.68709493112418" lon="-5.683913504760472"><ele>83.0</ele><time>2026-04-28T15:23:02.999Z</time></trkpt><trkpt lat="35.68711644978586" lon="-5.68370546340033"><ele>83.0</ele><time>2026-04-28T15:23:03.999Z</time></trkpt><trkpt lat="35.68714017931975" lon="-5.68349489829086"><ele>83.0</ele><time>2026-04-28T15:23:04.999Z</time></trkpt><trkpt lat="35.68716484611656" lon="-5.683278443802427"><ele>84.66666666666667</ele><time>2026-04-28T15:23:05.999Z</time></trkpt><trkpt lat="35.6871891454862" lon="-5.683054031504253"><ele>86.33333333333333</ele><time>2026-04-28T15:23:06.999Z</time></trkpt><trkpt lat="35.68721112001762" lon="-5.682825790160779"><ele>88.0</ele><time>2026-04-28T15:23:07.999Z</time></trkpt><trkpt lat="35.687229269128515" lon="-5.682593936368825"><ele>89.0</ele><time>2026-04-28T15:23:08.999Z</time></trkpt><trkpt lat="35.687244681801204" lon="-5.682356422842311"><ele>90.0</ele><time>2026-04-28T15:23:09.999Z</time></trkpt><trkpt lat="35.68725436529277" lon="-5.682114506798982"><ele>91.0</ele><time>2026-04-28T15:23:10.999Z</time></trkpt><trkpt lat="35.687257049719015" lon="-5.681871527489317"><ele>91.33333333333333</ele><time>2026-04-28T15:23:11.999Z</time></trkpt><trkpt lat="35.687258589871306" lon="-5.681629521135673"><ele>91.66666666666667</ele><time>2026-04-28T15:23:12.999Z</time></trkpt><trkpt lat="35.68726500839997" lon="-5.681380530802318"><ele>92.0</ele><time>2026-04-28T15:23:13.999Z</time></trkpt><trkpt lat="35.687278230682104" lon="-5.681128675466643"><ele>92.0</ele><time>2026-04-28T15:23:14.999Z</time></trkpt><trkpt lat="35.687299133708" lon="-5.680875588880948"><ele>92.0</ele><time>2026-04-28T15:23:15.999Z</time></trkpt><trkpt lat="35.68732690168708" lon="-5.680626830162134"><ele>92.0</ele><time>2026-04-28T15:23:16.999Z</time></trkpt><trkpt lat="35.687360549767625" lon="-5.680396320542504"><ele>93.66666666666667</ele><time>2026-04-28T15:23:17.999Z</time></trkpt><trkpt lat="35.687399448780354" lon="-5.680182151448607"><ele>95.33333333333334</ele><time>2026-04-28T15:23:18.999Z</time></trkpt><trkpt lat="35.687438825914704" lon="-5.679985808587333"><ele>97.0</ele><time>2026-04-28T15:23:19.999Z</time></trkpt><trkpt lat="35.68747865064426" lon="-5.679806874811438"><ele>97.0</ele><time>2026-04-28T15:23:20.999Z</time></trkpt><trkpt lat="35.6875179943808" lon="-5.679647151867044"><ele>97.0</ele><time>2026-04-28T15:23:21.999Z</time></trkpt><trkpt lat="35.687554712028344" lon="-5.679519820114868"><ele>97.0</ele><time>2026-04-28T15:23:22.999Z</time></trkpt><trkpt lat="35.68758343967916" lon="-5.67942741436084"><ele>97.0</ele><time>2026-04-28T15:23:23.999Z</time></trkpt><trkpt lat="35.687628811660566" lon="-5.679302742657503"><ele>97.0</ele><time>2026-04-28T15:23:25.999Z</time></trkpt><trkpt lat="35.6876179269229" lon="-5.679191222098676"><ele>97.19999999999999</ele><time>2026-04-28T15:23:27.999Z</time></trkpt><trkpt lat="35.687632505183245" lon="-5.679090241869251"><ele>97.4</ele><time>2026-04-28T15:23:29.999Z</time></trkpt><trkpt lat="35.687713768387574" lon="-5.679029191736914"><ele>97.6</ele><time>2026-04-28T15:23:31.999Z</time></trkpt><trkpt lat="35.68778531391719" lon="-5.6789668158237046"><ele>97.80000000000001</ele><time>2026-04-28T15:23:34.999Z</time></trkpt><trkpt lat="35.68783203852" lon="-5.678909008372392"><ele>98.0</ele><time>2026-04-28T15:23:37.999Z</time></trkpt><trkpt lat="35.68768392721488" lon="-5.678811676607365"><ele>98.0</ele><time>2026-04-28T15:25:51.999Z</time></trkpt><trkpt lat="35.68784461282926" lon="-5.67888880425062"><ele>98.0</ele><time>2026-04-28T15:25:55.999Z</time></trkpt><trkpt lat="35.68788407597929" lon="-5.678814085746054"><ele>98.0</ele><time>2026-04-28T15:31:24.999Z</time></trkpt><trkpt lat="35.68771688271523" lon="-5.67871076573322"><ele>98.0</ele><time>2026-04-28T15:31:25.999Z</time></trkpt><trkpt lat="35.68789598720317" lon="-5.678716515026451"><ele>98.0</ele><time>2026-04-28T15:33:01.999Z</time></trkpt><trkpt lat="35.68776453163595" lon="-5.678616532214444"><ele>98.0</ele><time>2026-04-28T15:33:24.999Z</time></trkpt><trkpt lat="35.687906590631044" lon="-5.678727394517"><ele>98.0</ele><time>2026-04-28T15:38:07.999Z</time></trkpt><trkpt lat="35.687965637061126" lon="-5.678788438925705"><ele>98.0</ele><time>2026-04-28T15:38:10.999Z</time></trkpt><trkpt lat="35.68807688088294" lon="-5.6788958982589355"><ele>97.99999999999999</ele><time>2026-04-28T15:38:11.999Z</time></trkpt><trkpt lat="35.688142855920624" lon="-5.678849946146683"><ele>98.0</ele><time>2026-04-28T15:38:52.999Z</time></trkpt><trkpt lat="35.68818938671974" lon="-5.678734825249476"><ele>98.0</ele><time>2026-04-28T15:38:54.999Z</time></trkpt><trkpt lat="35.688236676806746" lon="-5.678676564549488"><ele>98.0</ele><time>2026-04-28T15:38:55.999Z</time></trkpt><trkpt lat="35.68827944700266" lon="-5.6786035145480165"><ele>97.99999999999999</ele><time>2026-04-28T15:38:56.999Z</time></trkpt><trkpt lat="35.6883219673912" lon="-5.678529260118872"><ele>98.0</ele><time>2026-04-28T15:38:57.999Z</time></trkpt><trkpt lat="35.688365076281606" lon="-5.678452146870205"><ele>98.33333333333333</ele><time>2026-04-28T15:38:58.999Z</time></trkpt><trkpt lat="35.68840953934943" lon="-5.678372037462154"><ele>98.66666666666666</ele><time>2026-04-28T15:38:59.999Z</time></trkpt><trkpt lat="35.688453457434036" lon="-5.6782918283664685"><ele>99.0</ele><time>2026-04-28T15:39:00.999Z</time></trkpt><trkpt lat="35.68849779743479" lon="-5.678211071313456"><ele>99.33333333333334</ele><time>2026-04-28T15:39:01.999Z</time></trkpt><trkpt lat="35.688545649824526" lon="-5.678124750260264"><ele>99.66666666666667</ele><time>2026-04-28T15:39:02.999Z</time></trkpt><trkpt lat="35.68859706065553" lon="-5.678033283114649"><ele>100.0</ele><time>2026-04-28T15:39:03.999Z</time></trkpt><trkpt lat="35.68865251180176" lon="-5.677934722899121"><ele>100.0</ele><time>2026-04-28T15:39:04.999Z</time></trkpt><trkpt lat="35.68871285872711" lon="-5.677829957556217"><ele>100.0</ele><time>2026-04-28T15:39:05.999Z</time></trkpt><trkpt lat="35.68877545787781" lon="-5.677720162799406"><ele>100.0</ele><time>2026-04-28T15:39:06.999Z</time></trkpt><trkpt lat="35.68883944270874" lon="-5.67761180281723"><ele>100.0</ele><time>2026-04-28T15:39:07.999Z</time></trkpt><trkpt lat="35.68890074966841" lon="-5.677505542775286"><ele>100.0</ele><time>2026-04-28T15:39:08.999Z</time></trkpt><trkpt lat="35.68896077574935" lon="-5.677405446612476"><ele>100.0</ele><time>2026-04-28T15:39:09.999Z</time></trkpt><trkpt lat="35.68900582638805" lon="-5.677293407652877"><ele>100.0</ele><time>2026-04-28T15:39:10.999Z</time></trkpt><trkpt lat="35.68910956677461" lon="-5.677217473294741"><ele>100.0</ele><time>2026-04-28T15:39:11.999Z</time></trkpt><trkpt lat="35.68922158887805" lon="-5.677183560402039"><ele>100.0</ele><time>2026-04-28T15:39:12.999Z</time></trkpt><trkpt lat="35.68933294039522" lon="-5.677129608436182"><ele>101.25</ele><time>2026-04-28T15:39:13.999Z</time></trkpt><trkpt lat="35.68945761261672" lon="-5.677059993381972"><ele>102.5</ele><time>2026-04-28T15:39:14.999Z</time></trkpt><trkpt lat="35.689580410956204" lon="-5.676998170706966"><ele>103.75</ele><time>2026-04-28T15:39:15.999Z</time></trkpt><trkpt lat="35.68970624031794" lon="-5.676933834287275"><ele>105.0</ele><time>2026-04-28T15:39:16.999Z</time></trkpt><trkpt lat="35.68983361496893" lon="-5.676864479979807"><ele>105.0</ele><time>2026-04-28T15:39:17.999Z</time></trkpt><trkpt lat="35.6899669280068" lon="-5.676783181151947"><ele>105.0</ele><time>2026-04-28T15:39:18.999Z</time></trkpt><trkpt lat="35.69010028727746" lon="-5.6766883586971195"><ele>105.0</ele><time>2026-04-28T15:39:19.999Z</time></trkpt><trkpt lat="35.69023217254304" lon="-5.676582342349865"><ele>103.66666666666666</ele><time>2026-04-28T15:39:20.999Z</time></trkpt><trkpt lat="35.69036332880198" lon="-5.676463859186977"><ele>102.33333333333333</ele><time>2026-04-28T15:39:21.999Z</time></trkpt><trkpt lat="35.69049234492987" lon="-5.676335676735383"><ele>101.0</ele><time>2026-04-28T15:39:22.999Z</time></trkpt><trkpt lat="35.69062447138291" lon="-5.676199293188976"><ele>101.33333333333333</ele><time>2026-04-28T15:39:23.999Z</time></trkpt><trkpt lat="35.6907527562326" lon="-5.676038884569499"><ele>101.66666666666666</ele><time>2026-04-28T15:39:24.999Z</time></trkpt><trkpt lat="35.690896803235454" lon="-5.675886409277366"><ele>102.0</ele><time>2026-04-28T15:39:25.999Z</time></trkpt><trkpt lat="35.69104739507279" lon="-5.675727023199971"><ele>102.33333333333334</ele><time>2026-04-28T15:39:26.999Z</time></trkpt><trkpt lat="35.69121818715946" lon="-5.675583565030106"><ele>102.66666666666667</ele><time>2026-04-28T15:39:27.999Z</time></trkpt><trkpt lat="35.6913811516959" lon="-5.675410288286799"><ele>103.0</ele><time>2026-04-28T15:39:28.999Z</time></trkpt><trkpt lat="35.69154747996377" lon="-5.675233209623387"><ele>104.5</ele><time>2026-04-28T15:39:29.999Z</time></trkpt><trkpt lat="35.69171860563606" lon="-5.67505231677091"><ele>106.0</ele><time>2026-04-28T15:39:30.999Z</time></trkpt><trkpt lat="35.69189297394816" lon="-5.674870929835561"><ele>106.5</ele><time>2026-04-28T15:39:31.999Z</time></trkpt><trkpt lat="35.69206940757968" lon="-5.67468696546585"><ele>107.0</ele><time>2026-04-28T15:39:32.999Z</time></trkpt><trkpt lat="35.69224779320979" lon="-5.674498629821732"><ele>109.0</ele><time>2026-04-28T15:39:33.999Z</time></trkpt><trkpt lat="35.69242904436623" lon="-5.674304334150266"><ele>111.0</ele><time>2026-04-28T15:39:34.999Z</time></trkpt><trkpt lat="35.692611697656154" lon="-5.674106719461125"><ele>113.5</ele><time>2026-04-28T15:39:35.999Z</time></trkpt><trkpt lat="35.692796028497355" lon="-5.673907374534327"><ele>116.0</ele><time>2026-04-28T15:39:36.999Z</time></trkpt><trkpt lat="35.692981482346" lon="-5.673705913493177"><ele>119.5</ele><time>2026-04-28T15:39:37.999Z</time></trkpt><trkpt lat="35.69316802457942" lon="-5.673503616151728"><ele>123.0</ele><time>2026-04-28T15:39:38.999Z</time></trkpt><trkpt lat="35.69335814639251" lon="-5.673299474184579"><ele>123.0</ele><time>2026-04-28T15:39:39.999Z</time></trkpt><trkpt lat="35.69354941133078" lon="-5.673094796807697"><ele>123.0</ele><time>2026-04-28T15:39:40.999Z</time></trkpt><trkpt lat="35.69374213973924" lon="-5.672887139354714"><ele>129.0</ele><time>2026-04-28T15:39:41.999Z</time></trkpt><trkpt lat="35.69393638935425" lon="-5.672678205727698"><ele>135.0</ele><time>2026-04-28T15:39:42.999Z</time></trkpt><trkpt lat="35.69413119880139" lon="-5.67246989599157"><ele>135.0</ele><time>2026-04-28T15:39:43.999Z</time></trkpt><trkpt lat="35.69432626660807" lon="-5.672260988268301"><ele>135.0</ele><time>2026-04-28T15:39:44.999Z</time></trkpt><trkpt lat="35.694521117097906" lon="-5.672048860566401"><ele>136.0</ele><time>2026-04-28T15:39:45.999Z</time></trkpt><trkpt lat="35.69471693725623" lon="-5.671836305157572"><ele>137.0</ele><time>2026-04-28T15:39:46.999Z</time></trkpt><trkpt lat="35.694912848767274" lon="-5.671623074256901"><ele>137.0</ele><time>2026-04-28T15:39:47.999Z</time></trkpt><trkpt lat="35.69510847840058" lon="-5.671408619008248"><ele>137.0</ele><time>2026-04-28T15:39:48.999Z</time></trkpt><trkpt lat="35.695308506032916" lon="-5.671193977493996"><ele>130.5</ele><time>2026-04-28T15:39:49.999Z</time></trkpt><trkpt lat="35.69551484020209" lon="-5.670971645026186"><ele>124.0</ele><time>2026-04-28T15:39:50.999Z</time></trkpt><trkpt lat="35.695724446652086" lon="-5.67074328304349"><ele>124.0</ele><time>2026-04-28T15:39:51.999Z</time></trkpt><trkpt lat="35.69593563417661" lon="-5.670512426741919"><ele>124.0</ele><time>2026-04-28T15:39:52.999Z</time></trkpt><trkpt lat="35.69615149839816" lon="-5.670284070029526"><ele>121.0</ele><time>2026-04-28T15:39:53.999Z</time></trkpt><trkpt lat="35.69636724771555" lon="-5.670055595541195"><ele>118.0</ele><time>2026-04-28T15:39:54.999Z</time></trkpt><trkpt lat="35.69658183397139" lon="-5.6698251702513325"><ele>118.0</ele><time>2026-04-28T15:39:55.999Z</time></trkpt><trkpt lat="35.69679481245174" lon="-5.669592587840458"><ele>118.0</ele><time>2026-04-28T15:39:56.999Z</time></trkpt><trkpt lat="35.697011855698314" lon="-5.669361013258132"><ele>116.5</ele><time>2026-04-28T15:39:57.999Z</time></trkpt><trkpt lat="35.69722953089023" lon="-5.669129099866528"><ele>115.0</ele><time>2026-04-28T15:39:58.999Z</time></trkpt><trkpt lat="35.69744723724173" lon="-5.668895988899851"><ele>115.0</ele><time>2026-04-28T15:39:59.999Z</time></trkpt><trkpt lat="35.697664759713405" lon="-5.668661976642152"><ele>115.0</ele><time>2026-04-28T15:40:00.999Z</time></trkpt><trkpt lat="35.69788273349871" lon="-5.668427310181274"><ele>116.0</ele><time>2026-04-28T15:40:01.999Z</time></trkpt><trkpt lat="35.69810200209414" lon="-5.668193815858583"><ele>117.0</ele><time>2026-04-28T15:40:02.999Z</time></trkpt><trkpt lat="35.69831958663038" lon="-5.667955620063325"><ele>118.5</ele><time>2026-04-28T15:40:03.999Z</time></trkpt><trkpt lat="35.69853834861886" lon="-5.6677217739074175"><ele>120.0</ele><time>2026-04-28T15:40:04.999Z</time></trkpt><trkpt lat="35.69875487144847" lon="-5.667484740832047"><ele>123.0</ele><time>2026-04-28T15:40:05.999Z</time></trkpt><trkpt lat="35.69897106348649" lon="-5.667249748824582"><ele>126.0</ele><time>2026-04-28T15:40:06.999Z</time></trkpt><trkpt lat="35.69918646857201" lon="-5.667013288269276"><ele>130.5</ele><time>2026-04-28T15:40:07.999Z</time></trkpt><trkpt lat="35.699398381159504" lon="-5.666775480277985"><ele>135.0</ele><time>2026-04-28T15:40:08.999Z</time></trkpt><trkpt lat="35.699602310976616" lon="-5.666528163849471"><ele>137.0</ele><time>2026-04-28T15:40:09.999Z</time></trkpt><trkpt lat="35.69979816861996" lon="-5.666279109162353"><ele>139.0</ele><time>2026-04-28T15:40:10.999Z</time></trkpt><trkpt lat="35.69998556796527" lon="-5.666033128732527"><ele>142.0</ele><time>2026-04-28T15:40:11.999Z</time></trkpt><trkpt lat="35.70016803802667" lon="-5.665784188878834"><ele>145.0</ele><time>2026-04-28T15:40:12.999Z</time></trkpt><trkpt lat="35.70034947445483" lon="-5.665525288092272"><ele>152.5</ele><time>2026-04-28T15:40:13.999Z</time></trkpt><trkpt lat="35.70053365270617" lon="-5.665254353982724"><ele>160.0</ele><time>2026-04-28T15:40:14.999Z</time></trkpt><trkpt lat="35.70071679977428" lon="-5.664967945131975"><ele>160.0</ele><time>2026-04-28T15:40:15.999Z</time></trkpt><trkpt lat="35.70089525602191" lon="-5.66466744867588"><ele>160.0</ele><time>2026-04-28T15:40:16.999Z</time></trkpt><trkpt lat="35.701067036577896" lon="-5.66435575818907"><ele>171.5</ele><time>2026-04-28T15:40:17.999Z</time></trkpt><trkpt lat="35.70123193226746" lon="-5.664040386688615"><ele>183.0</ele><time>2026-04-28T15:40:18.999Z</time></trkpt><trkpt lat="35.70139011085533" lon="-5.66372926777203"><ele>183.5</ele><time>2026-04-28T15:40:19.999Z</time></trkpt><trkpt lat="35.701536282948695" lon="-5.663419947259562"><ele>184.0</ele><time>2026-04-28T15:40:20.999Z</time></trkpt><trkpt lat="35.7016698430466" lon="-5.663113985885458"><ele>184.0</ele><time>2026-04-28T15:40:21.999Z</time></trkpt><trkpt lat="35.701793210512385" lon="-5.662809629325249"><ele>184.0</ele><time>2026-04-28T15:40:22.999Z</time></trkpt><trkpt lat="35.70190824674698" lon="-5.662511506929737"><ele>185.5</ele><time>2026-04-28T15:40:23.999Z</time></trkpt><trkpt lat="35.702017245942464" lon="-5.6622200580077875"><ele>187.0</ele><time>2026-04-28T15:40:24.999Z</time></trkpt><trkpt lat="35.70212256362786" lon="-5.661936572814427"><ele>188.0</ele><time>2026-04-28T15:40:25.999Z</time></trkpt><trkpt lat="35.702223957527245" lon="-5.6616583845199395"><ele>189.0</ele><time>2026-04-28T15:40:26.999Z</time></trkpt><trkpt lat="35.70232242870954" lon="-5.661392474432276"><ele>189.0</ele><time>2026-04-28T15:40:27.999Z</time></trkpt><trkpt lat="35.70241563394256" lon="-5.661141243610571"><ele>189.0</ele><time>2026-04-28T15:40:28.999Z</time></trkpt><trkpt lat="35.702503108555455" lon="-5.660904613070105"><ele>189.0</ele><time>2026-04-28T15:40:29.999Z</time></trkpt><trkpt lat="35.70258665760616" lon="-5.660680261850976"><ele>191.33333333333331</ele><time>2026-04-28T15:40:30.999Z</time></trkpt><trkpt lat="35.70267525649217" lon="-5.660462332691439"><ele>193.66666666666666</ele><time>2026-04-28T15:40:31.999Z</time></trkpt><trkpt lat="35.70276710840754" lon="-5.660253830470939"><ele>196.0</ele><time>2026-04-28T15:40:32.999Z</time></trkpt><trkpt lat="35.70286330602206" lon="-5.660046965171419"><ele>204.66666666666666</ele><time>2026-04-28T15:40:33.999Z</time></trkpt><trkpt lat="35.7029601067778" lon="-5.659837888091873"><ele>213.33333333333331</ele><time>2026-04-28T15:40:34.999Z</time></trkpt><trkpt lat="35.70305601758591" lon="-5.659619074817689"><ele>222.0</ele><time>2026-04-28T15:40:35.999Z</time></trkpt><trkpt lat="35.70315175456377" lon="-5.65939173334541"><ele>223.33333333333331</ele><time>2026-04-28T15:40:36.999Z</time></trkpt><trkpt lat="35.7032510519974" lon="-5.659159225149248"><ele>224.66666666666666</ele><time>2026-04-28T15:40:37.998Z</time></trkpt><trkpt lat="35.70336084429985" lon="-5.658925790592307"><ele>226.0</ele><time>2026-04-28T15:40:38.998Z</time></trkpt><trkpt lat="35.70346682230979" lon="-5.658708268038169"><ele>225.0</ele><time>2026-04-28T15:40:39.998Z</time></trkpt><trkpt lat="35.703564647033666" lon="-5.658512038822921"><ele>224.0</ele><time>2026-04-28T15:40:40.998Z</time></trkpt><trkpt lat="35.70365820558899" lon="-5.658333242671351"><ele>223.0</ele><time>2026-04-28T15:40:41.998Z</time></trkpt><trkpt lat="35.703744072228375" lon="-5.65816738266861"><ele>222.0</ele><time>2026-04-28T15:40:42.998Z</time></trkpt><trkpt lat="35.70382866431902" lon="-5.658015254426921"><ele>221.0</ele><time>2026-04-28T15:40:43.998Z</time></trkpt><trkpt lat="35.70390997973555" lon="-5.657873702662699"><ele>220.0</ele><time>2026-04-28T15:40:44.998Z</time></trkpt><trkpt lat="35.70399162779229" lon="-5.657736063436056"><ele>219.0</ele><time>2026-04-28T15:40:45.998Z</time></trkpt><trkpt lat="35.70407184036478" lon="-5.6576028232922955"><ele>219.0</ele><time>2026-04-28T15:40:46.998Z</time></trkpt><trkpt lat="35.704149573715085" lon="-5.657472388480458"><ele>219.0</ele><time>2026-04-28T15:40:47.998Z</time></trkpt><trkpt lat="35.70422669294617" lon="-5.657344854892466"><ele>219.0</ele><time>2026-04-28T15:40:48.999Z</time></trkpt><trkpt lat="35.704308731699406" lon="-5.657214894557945"><ele>219.0</ele><time>2026-04-28T15:40:49.999Z</time></trkpt><trkpt lat="35.704392641157895" lon="-5.657082815990573"><ele>215.25</ele><time>2026-04-28T15:40:50.999Z</time></trkpt><trkpt lat="35.70448284956896" lon="-5.656949131192618"><ele>211.5</ele><time>2026-04-28T15:40:51.999Z</time></trkpt><trkpt lat="35.704574110384634" lon="-5.656813823868896"><ele>207.75</ele><time>2026-04-28T15:40:52.999Z</time></trkpt><trkpt lat="35.704664984868536" lon="-5.656680828469637"><ele>204.0</ele><time>2026-04-28T15:40:53.999Z</time></trkpt><trkpt lat="35.70475374696154" lon="-5.656553932886001"><ele>204.0</ele><time>2026-04-28T15:40:54.999Z</time></trkpt><trkpt lat="35.704839579564045" lon="-5.656431408824407"><ele>204.0</ele><time>2026-04-28T15:40:55.999Z</time></trkpt><trkpt lat="35.704926345089206" lon="-5.656311513656939"><ele>204.0</ele><time>2026-04-28T15:40:56.999Z</time></trkpt><trkpt lat="35.705011209381915" lon="-5.6562001671175395"><ele>204.0</ele><time>2026-04-28T15:40:57.999Z</time></trkpt><trkpt lat="35.70508924802526" lon="-5.656098453991547"><ele>203.79999999999998</ele><time>2026-04-28T15:40:58.999Z</time></trkpt><trkpt lat="35.705162352675444" lon="-5.656005934256507"><ele>203.6</ele><time>2026-04-28T15:40:59.999Z</time></trkpt><trkpt lat="35.70523058598601" lon="-5.655920397287936"><ele>203.4</ele><time>2026-04-28T15:41:00.999Z</time></trkpt><trkpt lat="35.705295349199176" lon="-5.655842627658092"><ele>203.2</ele><time>2026-04-28T15:41:01.999Z</time></trkpt><trkpt lat="35.7053549047438" lon="-5.655768798838096"><ele>203.0</ele><time>2026-04-28T15:41:02.999Z</time></trkpt><trkpt lat="35.70541262701971" lon="-5.655701293419143"><ele>203.0</ele><time>2026-04-28T15:41:03.999Z</time></trkpt><trkpt lat="35.70547003473179" lon="-5.655641698879284"><ele>203.0</ele><time>2026-04-28T15:41:04.999Z</time></trkpt><trkpt lat="35.705532107920334" lon="-5.655593322591776"><ele>203.0</ele><time>2026-04-28T15:41:05.999Z</time></trkpt><trkpt lat="35.70559613871922" lon="-5.655550621283414"><ele>203.0</ele><time>2026-04-28T15:41:06.999Z</time></trkpt><trkpt lat="35.7056598271407" lon="-5.655505129692357"><ele>203.0</ele><time>2026-04-28T15:41:07.999Z</time></trkpt><trkpt lat="35.70572187566125" lon="-5.655455288280665"><ele>203.0</ele><time>2026-04-28T15:41:08.999Z</time></trkpt><trkpt lat="35.705783422700996" lon="-5.65540298184954"><ele>203.0</ele><time>2026-04-28T15:41:09.999Z</time></trkpt><trkpt lat="35.70584463556426" lon="-5.6553418926831345"><ele>201.8</ele><time>2026-04-28T15:41:10.999Z</time></trkpt><trkpt lat="35.70591014167918" lon="-5.6552696689343875"><ele>200.60000000000002</ele><time>2026-04-28T15:41:11.999Z</time></trkpt><trkpt lat="35.70598492849961" lon="-5.655184857168041"><ele>199.39999999999998</ele><time>2026-04-28T15:41:12.999Z</time></trkpt><trkpt lat="35.70606746156297" lon="-5.655087952140043"><ele>198.2</ele><time>2026-04-28T15:41:13.999Z</time></trkpt><trkpt lat="35.706160785284226" lon="-5.654984096476292"><ele>197.0</ele><time>2026-04-28T15:41:14.999Z</time></trkpt><trkpt lat="35.706255373065254" lon="-5.654880802981115"><ele>197.0</ele><time>2026-04-28T15:41:15.999Z</time></trkpt><trkpt lat="35.70634969900279" lon="-5.654783662101331"><ele>197.0</ele><time>2026-04-28T15:41:16.999Z</time></trkpt><trkpt lat="35.70644407371823" lon="-5.654685525509457"><ele>197.0</ele><time>2026-04-28T15:41:17.999Z</time></trkpt><trkpt lat="35.706540757892085" lon="-5.654587871408815"><ele>197.0</ele><time>2026-04-28T15:41:18.999Z</time></trkpt><trkpt lat="35.706640112868406" lon="-5.654487168140308"><ele>196.25</ele><time>2026-04-28T15:41:19.999Z</time></trkpt><trkpt lat="35.70674309881228" lon="-5.6543818856366626"><ele>195.5</ele><time>2026-04-28T15:41:20.999Z</time></trkpt><trkpt lat="35.70685058483744" lon="-5.654277599988113"><ele>194.75</ele><time>2026-04-28T15:41:21.999Z</time></trkpt><trkpt lat="35.706942296149094" lon="-5.654139805509942"><ele>194.0</ele><time>2026-04-28T15:41:22.999Z</time></trkpt><trkpt lat="35.70705879673659" lon="-5.654037079368425"><ele>194.0</ele><time>2026-04-28T15:41:23.999Z</time></trkpt><trkpt lat="35.70717783244413" lon="-5.653930761967249"><ele>194.0</ele><time>2026-04-28T15:41:24.999Z</time></trkpt><trkpt lat="35.70730029391201" lon="-5.653820771378792"><ele>194.0</ele><time>2026-04-28T15:41:25.999Z</time></trkpt><trkpt lat="35.70742685276534" lon="-5.6537079749795796"><ele>193.33333333333334</ele><time>2026-04-28T15:41:26.999Z</time></trkpt><trkpt lat="35.707561720459836" lon="-5.653599152120548"><ele>192.66666666666669</ele><time>2026-04-28T15:41:27.999Z</time></trkpt><trkpt lat="35.7076989598617" lon="-5.653488282801227"><ele>192.0</ele><time>2026-04-28T15:41:28.999Z</time></trkpt><trkpt lat="35.70783386498882" lon="-5.653380661850738"><ele>192.0</ele><time>2026-04-28T15:41:29.999Z</time></trkpt><trkpt lat="35.707970634589124" lon="-5.653271130121858"><ele>192.0</ele><time>2026-04-28T15:41:30.999Z</time></trkpt><trkpt lat="35.708110587472696" lon="-5.653157815943995"><ele>192.0</ele><time>2026-04-28T15:41:31.999Z</time></trkpt><trkpt lat="35.70825821581893" lon="-5.653051843726925"><ele>192.0</ele><time>2026-04-28T15:41:32.999Z</time></trkpt><trkpt lat="35.70840597037512" lon="-5.652945415694984"><ele>192.0</ele><time>2026-04-28T15:41:33.999Z</time></trkpt><trkpt lat="35.70855511213224" lon="-5.652837151138134"><ele>192.0</ele><time>2026-04-28T15:41:34.999Z</time></trkpt><trkpt lat="35.70870618182895" lon="-5.65272858022742"><ele>192.33333333333331</ele><time>2026-04-28T15:41:35.999Z</time></trkpt><trkpt lat="35.70885977680361" lon="-5.652619614262222"><ele>192.66666666666666</ele><time>2026-04-28T15:41:36.999Z</time></trkpt><trkpt lat="35.70901546842862" lon="-5.652520768332361"><ele>193.0</ele><time>2026-04-28T15:41:37.999Z</time></trkpt><trkpt lat="35.70917393570649" lon="-5.6524215016279635"><ele>193.0</ele><time>2026-04-28T15:41:38.999Z</time></trkpt><trkpt lat="35.709330838230834" lon="-5.652321181381846"><ele>193.0</ele><time>2026-04-28T15:41:39.999Z</time></trkpt><trkpt lat="35.70949000275809" lon="-5.652220805647061"><ele>193.0</ele><time>2026-04-28T15:41:40.999Z</time></trkpt><trkpt lat="35.7096505154392" lon="-5.652119521847378"><ele>195.0</ele><time>2026-04-28T15:41:41.999Z</time></trkpt><trkpt lat="35.709811215564756" lon="-5.652019844431154"><ele>197.0</ele><time>2026-04-28T15:41:42.999Z</time></trkpt><trkpt lat="35.709971284499076" lon="-5.6519194922380525"><ele>199.0</ele><time>2026-04-28T15:41:43.999Z</time></trkpt><trkpt lat="35.71013346296242" lon="-5.651818505623069"><ele>202.66666666666666</ele><time>2026-04-28T15:41:44.999Z</time></trkpt><trkpt lat="35.7102921355056" lon="-5.651711813743934"><ele>206.33333333333331</ele><time>2026-04-28T15:41:45.999Z</time></trkpt><trkpt lat="35.71045082102445" lon="-5.651601154348237"><ele>210.0</ele><time>2026-04-28T15:41:46.999Z</time></trkpt><trkpt lat="35.71061050030901" lon="-5.651490910495487"><ele>210.0</ele><time>2026-04-28T15:41:47.999Z</time></trkpt><trkpt lat="35.71077774147977" lon="-5.651396324827038"><ele>210.0</ele><time>2026-04-28T15:41:48.999Z</time></trkpt><trkpt lat="35.71093460435116" lon="-5.651276800636867"><ele>210.0</ele><time>2026-04-28T15:41:49.999Z</time></trkpt><trkpt lat="35.71108967614608" lon="-5.6511569446462415"><ele>209.0</ele><time>2026-04-28T15:41:50.999Z</time></trkpt><trkpt lat="35.71124514046636" lon="-5.651033335490857"><ele>208.0</ele><time>2026-04-28T15:41:51.999Z</time></trkpt><trkpt lat="35.71139788101484" lon="-5.650907759759428"><ele>207.0</ele><time>2026-04-28T15:41:52.999Z</time></trkpt><trkpt lat="35.711545812321944" lon="-5.650782115716825"><ele>207.0</ele><time>2026-04-28T15:41:53.999Z</time></trkpt><trkpt lat="35.71168995745638" lon="-5.650654774801489"><ele>207.0</ele><time>2026-04-28T15:41:54.999Z</time></trkpt><trkpt lat="35.71183317909759" lon="-5.650526322404983"><ele>207.0</ele><time>2026-04-28T15:41:55.999Z</time></trkpt><trkpt lat="35.71197586882509" lon="-5.650399552490187"><ele>204.33333333333331</ele><time>2026-04-28T15:41:56.999Z</time></trkpt><trkpt lat="35.712116709525" lon="-5.650272973939199"><ele>201.66666666666666</ele><time>2026-04-28T15:41:57.999Z</time></trkpt><trkpt lat="35.71224450696946" lon="-5.6501255584313945"><ele>199.0</ele><time>2026-04-28T15:41:58.999Z</time></trkpt><trkpt lat="35.71238256457607" lon="-5.649993948212168"><ele>199.0</ele><time>2026-04-28T15:41:59.999Z</time></trkpt><trkpt lat="35.71253096923646" lon="-5.649873100229839"><ele>199.0</ele><time>2026-04-28T15:42:00.999Z</time></trkpt><trkpt lat="35.71266907865501" lon="-5.6497286716000925"><ele>199.0</ele><time>2026-04-28T15:42:01.999Z</time></trkpt><trkpt lat="35.71280936291243" lon="-5.649581465085956"><ele>195.0</ele><time>2026-04-28T15:42:02.999Z</time></trkpt><trkpt lat="35.712950876230956" lon="-5.64942990234341"><ele>191.0</ele><time>2026-04-28T15:42:03.999Z</time></trkpt><trkpt lat="35.713091805450304" lon="-5.649274452759961"><ele>187.0</ele><time>2026-04-28T15:42:04.999Z</time></trkpt><trkpt lat="35.713217216188944" lon="-5.649100664245191"><ele>187.0</ele><time>2026-04-28T15:42:05.999Z</time></trkpt><trkpt lat="35.71335074890394" lon="-5.648941529728849"><ele>187.0</ele><time>2026-04-28T15:42:06.999Z</time></trkpt><trkpt lat="35.713481395604205" lon="-5.6487851624969645"><ele>187.0</ele><time>2026-04-28T15:42:07.999Z</time></trkpt><trkpt lat="35.71361075293084" lon="-5.648629620819347"><ele>188.0</ele><time>2026-04-28T15:42:08.999Z</time></trkpt><trkpt lat="35.713749814171365" lon="-5.648487883992171"><ele>189.0</ele><time>2026-04-28T15:42:09.999Z</time></trkpt><trkpt lat="35.71387413046572" lon="-5.648328160055071"><ele>190.0</ele><time>2026-04-28T15:42:10.999Z</time></trkpt><trkpt lat="35.7139959886616" lon="-5.6481670212069774"><ele>190.0</ele><time>2026-04-28T15:42:11.999Z</time></trkpt><trkpt lat="35.714116618717" lon="-5.648004576429677"><ele>190.0</ele><time>2026-04-28T15:42:12.999Z</time></trkpt><trkpt lat="35.71423599822347" lon="-5.647838675512523"><ele>190.0</ele><time>2026-04-28T15:42:13.999Z</time></trkpt><trkpt lat="35.71435522439201" lon="-5.647668452854124"><ele>188.33333333333334</ele><time>2026-04-28T15:42:14.999Z</time></trkpt><trkpt lat="35.714475486218745" lon="-5.647493869574652"><ele>186.66666666666666</ele><time>2026-04-28T15:42:15.999Z</time></trkpt><trkpt lat="35.71459455372289" lon="-5.647317563545485"><ele>185.0</ele><time>2026-04-28T15:42:16.999Z</time></trkpt><trkpt lat="35.71471063844229" lon="-5.647138167119191"><ele>184.0</ele><time>2026-04-28T15:42:17.999Z</time></trkpt><trkpt lat="35.71481035713119" lon="-5.646945113333857"><ele>183.0</ele><time>2026-04-28T15:42:18.999Z</time></trkpt><trkpt lat="35.71491882323756" lon="-5.646763662681423"><ele>182.0</ele><time>2026-04-28T15:42:19.999Z</time></trkpt><trkpt lat="35.71502676627488" lon="-5.646579322196399"><ele>182.0</ele><time>2026-04-28T15:42:20.999Z</time></trkpt><trkpt lat="35.71513424130248" lon="-5.646395079241431"><ele>182.0</ele><time>2026-04-28T15:42:21.999Z</time></trkpt><trkpt lat="35.71524041006731" lon="-5.6462134657371665"><ele>182.0</ele><time>2026-04-28T15:42:22.999Z</time></trkpt><trkpt lat="35.715357930534736" lon="-5.646041086136069"><ele>182.66666666666666</ele><time>2026-04-28T15:42:23.999Z</time></trkpt><trkpt lat="35.71545739126013" lon="-5.645850424973425"><ele>183.33333333333334</ele><time>2026-04-28T15:42:24.999Z</time></trkpt><trkpt lat="35.71555533444981" lon="-5.645662211005312"><ele>184.0</ele><time>2026-04-28T15:42:25.999Z</time></trkpt><trkpt lat="35.715652177854416" lon="-5.645477078791815"><ele>187.0</ele><time>2026-04-28T15:42:26.999Z</time></trkpt><trkpt lat="35.71574433089957" lon="-5.645289799872764"><ele>190.0</ele><time>2026-04-28T15:42:27.999Z</time></trkpt><trkpt lat="35.71583316456189" lon="-5.645101059188608"><ele>193.0</ele><time>2026-04-28T15:42:28.999Z</time></trkpt><trkpt lat="35.715924336922114" lon="-5.644913543217325"><ele>193.0</ele><time>2026-04-28T15:42:29.999Z</time></trkpt><trkpt lat="35.71601158459251" lon="-5.64472716749346"><ele>193.0</ele><time>2026-04-28T15:42:30.999Z</time></trkpt><trkpt lat="35.716100081768225" lon="-5.644540375740569"><ele>193.0</ele><time>2026-04-28T15:42:31.999Z</time></trkpt><trkpt lat="35.71618631980478" lon="-5.644354593917458"><ele>194.0</ele><time>2026-04-28T15:42:32.999Z</time></trkpt><trkpt lat="35.716275064268956" lon="-5.644166836014287"><ele>195.0</ele><time>2026-04-28T15:42:33.999Z</time></trkpt><trkpt lat="35.716365037152364" lon="-5.643980191189105"><ele>196.0</ele><time>2026-04-28T15:42:34.999Z</time></trkpt><trkpt lat="35.71645421489957" lon="-5.643791634305709"><ele>194.33333333333331</ele><time>2026-04-28T15:42:35.999Z</time></trkpt><trkpt lat="35.71654190232362" lon="-5.643600787670146"><ele>192.66666666666666</ele><time>2026-04-28T15:42:36.998Z</time></trkpt><trkpt lat="35.71663011887019" lon="-5.643414814076548"><ele>191.0</ele><time>2026-04-28T15:42:37.998Z</time></trkpt><trkpt lat="35.716716020868866" lon="-5.643230953216628"><ele>191.0</ele><time>2026-04-28T15:42:38.998Z</time></trkpt><trkpt lat="35.716803128024" lon="-5.6430489063501845"><ele>191.0</ele><time>2026-04-28T15:42:39.998Z</time></trkpt><trkpt lat="35.71689006445967" lon="-5.642868767856451"><ele>191.0</ele><time>2026-04-28T15:42:40.998Z</time></trkpt><trkpt lat="35.716974979018374" lon="-5.642692247250124"><ele>186.0</ele><time>2026-04-28T15:42:41.998Z</time></trkpt><trkpt lat="35.71705862811006" lon="-5.642520901969595"><ele>181.0</ele><time>2026-04-28T15:42:42.998Z</time></trkpt><trkpt lat="35.717139088945984" lon="-5.642348019013166"><ele>176.0</ele><time>2026-04-28T15:42:43.998Z</time></trkpt><trkpt lat="35.7172219284774" lon="-5.642177992546707"><ele>176.0</ele><time>2026-04-28T15:42:44.998Z</time></trkpt><trkpt lat="35.71730449908871" lon="-5.64200437168656"><ele>176.0</ele><time>2026-04-28T15:42:45.998Z</time></trkpt><trkpt lat="35.71738780903189" lon="-5.6418298351868055"><ele>176.0</ele><time>2026-04-28T15:42:46.998Z</time></trkpt><trkpt lat="35.7174721109677" lon="-5.641653084510739"><ele>174.33333333333331</ele><time>2026-04-28T15:42:47.998Z</time></trkpt><trkpt lat="35.71755291841562" lon="-5.64147884060628"><ele>172.66666666666666</ele><time>2026-04-28T15:42:48.998Z</time></trkpt><trkpt lat="35.717635001220806" lon="-5.641307149536174"><ele>171.0</ele><time>2026-04-28T15:42:49.998Z</time></trkpt><trkpt lat="35.71771760282157" lon="-5.64113584757802"><ele>169.66666666666666</ele><time>2026-04-28T15:42:50.998Z</time></trkpt><trkpt lat="35.717802150926865" lon="-5.64096275238931"><ele>168.33333333333331</ele><time>2026-04-28T15:42:51.998Z</time></trkpt><trkpt lat="35.71788613716316" lon="-5.640791100260666"><ele>167.0</ele><time>2026-04-28T15:42:52.998Z</time></trkpt><trkpt lat="35.717970897338205" lon="-5.640620027306628"><ele>167.0</ele><time>2026-04-28T15:42:53.998Z</time></trkpt><trkpt lat="35.71805518587973" lon="-5.640444206499858"><ele>167.0</ele><time>2026-04-28T15:42:54.999Z</time></trkpt><trkpt lat="35.718138524728545" lon="-5.640265540127165"><ele>167.0</ele><time>2026-04-28T15:42:55.999Z</time></trkpt><trkpt lat="35.71822357225375" lon="-5.640090293270207"><ele>162.66666666666666</ele><time>2026-04-28T15:42:56.999Z</time></trkpt><trkpt lat="35.71830780873216" lon="-5.639915298402163"><ele>158.33333333333334</ele><time>2026-04-28T15:42:57.999Z</time></trkpt><trkpt lat="35.718390486625765" lon="-5.6397404847617585"><ele>154.0</ele><time>2026-04-28T15:42:58.999Z</time></trkpt><trkpt lat="35.71847482449028" lon="-5.639563890297361"><ele>150.66666666666669</ele><time>2026-04-28T15:42:59.999Z</time></trkpt><trkpt lat="35.7185593694108" lon="-5.639388962297168"><ele>147.33333333333334</ele><time>2026-04-28T15:43:00.999Z</time></trkpt><trkpt lat="35.718642620331835" lon="-5.639212832649595"><ele>144.0</ele><time>2026-04-28T15:43:01.999Z</time></trkpt><trkpt lat="35.718711477456324" lon="-5.639024927959424"><ele>144.0</ele><time>2026-04-28T15:43:02.999Z</time></trkpt><trkpt lat="35.71879508125723" lon="-5.638847051760343"><ele>144.0</ele><time>2026-04-28T15:43:03.999Z</time></trkpt><trkpt lat="35.71887917136739" lon="-5.638668082534458"><ele>144.0</ele><time>2026-04-28T15:43:04.999Z</time></trkpt><trkpt lat="35.7189639075561" lon="-5.638487639860395"><ele>140.66666666666666</ele><time>2026-04-28T15:43:05.999Z</time></trkpt><trkpt lat="35.719048184964564" lon="-5.638308137746817"><ele>137.33333333333331</ele><time>2026-04-28T15:43:06.999Z</time></trkpt><trkpt lat="35.71913196853731" lon="-5.638129653746376"><ele>134.0</ele><time>2026-04-28T15:43:07.999Z</time></trkpt><trkpt lat="35.719217229017985" lon="-5.637948023489302"><ele>131.66666666666666</ele><time>2026-04-28T15:43:08.999Z</time></trkpt><trkpt lat="35.719302691820914" lon="-5.637765962252433"><ele>129.33333333333334</ele><time>2026-04-28T15:43:09.999Z</time></trkpt><trkpt lat="35.719389603804665" lon="-5.637580967516114"><ele>127.0</ele><time>2026-04-28T15:43:10.999Z</time></trkpt><trkpt lat="35.71947831480191" lon="-5.63739642129482"><ele>127.33333333333334</ele><time>2026-04-28T15:43:11.999Z</time></trkpt><trkpt lat="35.71956800704292" lon="-5.637209839711342"><ele>127.66666666666666</ele><time>2026-04-28T15:43:12.999Z</time></trkpt><trkpt lat="35.71965676092749" lon="-5.637022996986089"><ele>128.0</ele><time>2026-04-28T15:43:13.999Z</time></trkpt><trkpt lat="35.71974666232823" lon="-5.636833738594213"><ele>128.0</ele><time>2026-04-28T15:43:14.999Z</time></trkpt><trkpt lat="35.71983673212897" lon="-5.636644428856153"><ele>128.0</ele><time>2026-04-28T15:43:15.999Z</time></trkpt><trkpt lat="35.71992684682235" lon="-5.636456070398878"><ele>128.0</ele><time>2026-04-28T15:43:16.999Z</time></trkpt><trkpt lat="35.72001724961873" lon="-5.636268598491182"><ele>127.0</ele><time>2026-04-28T15:43:17.999Z</time></trkpt><trkpt lat="35.72010800536544" lon="-5.63608039485398"><ele>126.0</ele><time>2026-04-28T15:43:18.999Z</time></trkpt><trkpt lat="35.72020009732745" lon="-5.63589010260469"><ele>125.0</ele><time>2026-04-28T15:43:19.999Z</time></trkpt><trkpt lat="35.72029202346084" lon="-5.635700411092701"><ele>124.0</ele><time>2026-04-28T15:43:20.999Z</time></trkpt><trkpt lat="35.720385170961556" lon="-5.635507149959731"><ele>123.0</ele><time>2026-04-28T15:43:21.999Z</time></trkpt><trkpt lat="35.720478275618255" lon="-5.6353130866647"><ele>122.0</ele><time>2026-04-28T15:43:22.999Z</time></trkpt><trkpt lat="35.720570930812194" lon="-5.635119960375187"><ele>120.66666666666666</ele><time>2026-04-28T15:43:23.999Z</time></trkpt><trkpt lat="35.72066171233461" lon="-5.634930739471976"><ele>119.33333333333334</ele><time>2026-04-28T15:43:24.999Z</time></trkpt><trkpt lat="35.72075257509526" lon="-5.6347413492580785"><ele>118.0</ele><time>2026-04-28T15:43:25.999Z</time></trkpt><trkpt lat="35.720843021757574" lon="-5.634552268716424"><ele>116.66666666666667</ele><time>2026-04-28T15:43:26.999Z</time></trkpt><trkpt lat="35.72093300147722" lon="-5.634362843872739"><ele>115.33333333333334</ele><time>2026-04-28T15:43:27.999Z</time></trkpt><trkpt lat="35.721023502545755" lon="-5.63417232309112"><ele>114.0</ele><time>2026-04-28T15:43:28.999Z</time></trkpt><trkpt lat="35.721115402004735" lon="-5.633978856326978"><ele>114.0</ele><time>2026-04-28T15:43:29.999Z</time></trkpt><trkpt lat="35.72120796746485" lon="-5.6337839876838505"><ele>114.0</ele><time>2026-04-28T15:43:30.999Z</time></trkpt><trkpt lat="35.721316373866586" lon="-5.633600853631856"><ele>114.0</ele><time>2026-04-28T15:43:31.999Z</time></trkpt><trkpt lat="35.72140872700878" lon="-5.6334118779071005"><ele>113.0</ele><time>2026-04-28T15:43:32.999Z</time></trkpt><trkpt lat="35.72150276399523" lon="-5.633229438199186"><ele>112.0</ele><time>2026-04-28T15:43:33.999Z</time></trkpt><trkpt lat="35.72159961384738" lon="-5.633052214248254"><ele>111.0</ele><time>2026-04-28T15:43:34.999Z</time></trkpt><trkpt lat="35.72168132179608" lon="-5.632864651368692"><ele>110.33333333333334</ele><time>2026-04-28T15:43:35.999Z</time></trkpt><trkpt lat="35.72177619379366" lon="-5.6326891017420015"><ele>109.66666666666667</ele><time>2026-04-28T15:43:36.999Z</time></trkpt><trkpt lat="35.72187170105754" lon="-5.632516300135604"><ele>109.0</ele><time>2026-04-28T15:43:37.999Z</time></trkpt><trkpt lat="35.72197265600237" lon="-5.632348366743775"><ele>108.33333333333334</ele><time>2026-04-28T15:43:38.999Z</time></trkpt><trkpt lat="35.72207501915836" lon="-5.632178423571028"><ele>107.66666666666666</ele><time>2026-04-28T15:43:39.999Z</time></trkpt><trkpt lat="35.72218055394694" lon="-5.632007845472693"><ele>107.0</ele><time>2026-04-28T15:43:40.999Z</time></trkpt><trkpt lat="35.72228732654522" lon="-5.6318421998528345"><ele>106.33333333333333</ele><time>2026-04-28T15:43:41.999Z</time></trkpt><trkpt lat="35.7223919351093" lon="-5.631679911425519"><ele>105.66666666666666</ele><time>2026-04-28T15:43:42.999Z</time></trkpt><trkpt lat="35.722504748521125" lon="-5.6315205124797485"><ele>105.0</ele><time>2026-04-28T15:43:43.999Z</time></trkpt><trkpt lat="35.722629006197046" lon="-5.631372716702741"><ele>105.33333333333334</ele><time>2026-04-28T15:43:44.999Z</time></trkpt><trkpt lat="35.72274352584125" lon="-5.631210698294238"><ele>105.66666666666667</ele><time>2026-04-28T15:43:45.999Z</time></trkpt><trkpt lat="35.72285811336076" lon="-5.631042967098051"><ele>106.0</ele><time>2026-04-28T15:43:46.999Z</time></trkpt><trkpt lat="35.72297874576879" lon="-5.630876789423457"><ele>107.0</ele><time>2026-04-28T15:43:47.999Z</time></trkpt><trkpt lat="35.72310096153284" lon="-5.6307102446489665"><ele>108.0</ele><time>2026-04-28T15:43:48.999Z</time></trkpt><trkpt lat="35.723228924462134" lon="-5.630546307777767"><ele>109.0</ele><time>2026-04-28T15:43:49.999Z</time></trkpt><trkpt lat="35.72336102190799" lon="-5.63038351332498"><ele>112.66666666666667</ele><time>2026-04-28T15:43:50.999Z</time></trkpt><trkpt lat="35.72349128687993" lon="-5.630218315391486"><ele>116.33333333333334</ele><time>2026-04-28T15:43:51.999Z</time></trkpt><trkpt lat="35.7236270258978" lon="-5.6300573785856"><ele>120.0</ele><time>2026-04-28T15:43:52.999Z</time></trkpt><trkpt lat="35.72376441575514" lon="-5.629897331900392"><ele>120.0</ele><time>2026-04-28T15:43:53.999Z</time></trkpt><trkpt lat="35.72390337103403" lon="-5.629738168764511"><ele>120.0</ele><time>2026-04-28T15:43:54.999Z</time></trkpt><trkpt lat="35.72404207303579" lon="-5.6295801002787185"><ele>120.0</ele><time>2026-04-28T15:43:55.999Z</time></trkpt><trkpt lat="35.724183063796495" lon="-5.629424871734702"><ele>120.33333333333334</ele><time>2026-04-28T15:43:56.999Z</time></trkpt><trkpt lat="35.72432572653099" lon="-5.629274465013134"><ele>120.66666666666667</ele><time>2026-04-28T15:43:57.999Z</time></trkpt><trkpt lat="35.72446901628061" lon="-5.629129108947189"><ele>121.0</ele><time>2026-04-28T15:43:58.999Z</time></trkpt><trkpt lat="35.72461590954128" lon="-5.6289869840144044"><ele>121.0</ele><time>2026-04-28T15:43:59.999Z</time></trkpt><trkpt lat="35.72476213704936" lon="-5.628846475677151"><ele>121.0</ele><time>2026-04-28T15:44:00.999Z</time></trkpt><trkpt lat="35.72490919284378" lon="-5.6287071642128526"><ele>121.0</ele><time>2026-04-28T15:44:01.999Z</time></trkpt><trkpt lat="35.72505626347967" lon="-5.6285698369515975"><ele>119.66666666666667</ele><time>2026-04-28T15:44:02.999Z</time></trkpt><trkpt lat="35.72520496209907" lon="-5.628434544929521"><ele>118.33333333333334</ele><time>2026-04-28T15:44:03.999Z</time></trkpt><trkpt lat="35.72535530763746" lon="-5.628303247329501"><ele>117.0</ele><time>2026-04-28T15:44:04.999Z</time></trkpt><trkpt lat="35.72550334219307" lon="-5.6281757580858995"><ele>117.0</ele><time>2026-04-28T15:44:05.999Z</time></trkpt><trkpt lat="35.725648282858344" lon="-5.62805544823423"><ele>117.0</ele><time>2026-04-28T15:44:06.999Z</time></trkpt><trkpt lat="35.7257868265538" lon="-5.627941590407675"><ele>117.0</ele><time>2026-04-28T15:44:07.999Z</time></trkpt><trkpt lat="35.72591997371812" lon="-5.627837555961047"><ele>118.0</ele><time>2026-04-28T15:44:08.999Z</time></trkpt><trkpt lat="35.726051398864215" lon="-5.627738454026438"><ele>119.0</ele><time>2026-04-28T15:44:09.999Z</time></trkpt><trkpt lat="35.72618059950989" lon="-5.627642402293788"><ele>120.0</ele><time>2026-04-28T15:44:10.999Z</time></trkpt><trkpt lat="35.726306842975944" lon="-5.627548151480931"><ele>116.0</ele><time>2026-04-28T15:44:11.999Z</time></trkpt><trkpt lat="35.72643043590076" lon="-5.627457887420565"><ele>112.0</ele><time>2026-04-28T15:44:12.999Z</time></trkpt><trkpt lat="35.72655398257222" lon="-5.627371633368463"><ele>108.0</ele><time>2026-04-28T15:44:13.999Z</time></trkpt><trkpt lat="35.726672050560765" lon="-5.62728945597784"><ele>104.0</ele><time>2026-04-28T15:44:14.999Z</time></trkpt><trkpt lat="35.72678621501084" lon="-5.627209855794616"><ele>103.25</ele><time>2026-04-28T15:44:15.999Z</time></trkpt><trkpt lat="35.72689792103714" lon="-5.627137694937048"><ele>102.5</ele><time>2026-04-28T15:44:16.999Z</time></trkpt><trkpt lat="35.727005360892015" lon="-5.627070261934761"><ele>101.75</ele><time>2026-04-28T15:44:17.999Z</time></trkpt><trkpt lat="35.727107114482024" lon="-5.6270035308317565"><ele>101.0</ele><time>2026-04-28T15:44:18.999Z</time></trkpt><trkpt lat="35.72720637161344" lon="-5.6269446884726895"><ele>101.0</ele><time>2026-04-28T15:44:19.999Z</time></trkpt><trkpt lat="35.72730148545545" lon="-5.626885844493017"><ele>101.0</ele><time>2026-04-28T15:44:20.999Z</time></trkpt><trkpt lat="35.72738917303758" lon="-5.626814229051651"><ele>101.0</ele><time>2026-04-28T15:44:21.999Z</time></trkpt><trkpt lat="35.72748520360183" lon="-5.626783115446171"><ele>101.0</ele><time>2026-04-28T15:44:22.999Z</time></trkpt><trkpt lat="35.72756918675188" lon="-5.626727570423533"><ele>101.0</ele><time>2026-04-28T15:44:23.999Z</time></trkpt><trkpt lat="35.72764612714391" lon="-5.626666053959363"><ele>101.0</ele><time>2026-04-28T15:44:24.999Z</time></trkpt><trkpt lat="35.72772212833516" lon="-5.626600795055744"><ele>101.0</ele><time>2026-04-28T15:44:25.999Z</time></trkpt><trkpt lat="35.727807095133876" lon="-5.626539166618673"><ele>101.0</ele><time>2026-04-28T15:44:26.999Z</time></trkpt><trkpt lat="35.727905517413674" lon="-5.626484806207058"><ele>101.0</ele><time>2026-04-28T15:44:27.999Z</time></trkpt><trkpt lat="35.72800881180419" lon="-5.62642916815927"><ele>101.0</ele><time>2026-04-28T15:44:28.999Z</time></trkpt><trkpt lat="35.72811855789777" lon="-5.626374053396814"><ele>99.75</ele><time>2026-04-28T15:44:29.999Z</time></trkpt><trkpt lat="35.728226693297216" lon="-5.626320792312649"><ele>98.5</ele><time>2026-04-28T15:44:30.999Z</time></trkpt><trkpt lat="35.72833591340333" lon="-5.626268048766925"><ele>97.25</ele><time>2026-04-28T15:44:31.999Z</time></trkpt><trkpt lat="35.72844543380491" lon="-5.626216384308367"><ele>96.0</ele><time>2026-04-28T15:44:32.999Z</time></trkpt><trkpt lat="35.72855894509908" lon="-5.626160869471959"><ele>96.0</ele><time>2026-04-28T15:44:33.999Z</time></trkpt><trkpt lat="35.7286770144274" lon="-5.626102827882595"><ele>96.0</ele><time>2026-04-28T15:44:34.999Z</time></trkpt><trkpt lat="35.72880249084405" lon="-5.626046774755318"><ele>96.0</ele><time>2026-04-28T15:44:35.999Z</time></trkpt><trkpt lat="35.72893429677977" lon="-5.625990701063258"><ele>96.0</ele><time>2026-04-28T15:44:36.999Z</time></trkpt><trkpt lat="35.729076643653556" lon="-5.625930947447859"><ele>96.0</ele><time>2026-04-28T15:44:37.999Z</time></trkpt><trkpt lat="35.72923304741035" lon="-5.625870119066243"><ele>96.0</ele><time>2026-04-28T15:44:38.999Z</time></trkpt><trkpt lat="35.729399553793975" lon="-5.625805632951639"><ele>96.0</ele><time>2026-04-28T15:44:39.999Z</time></trkpt><trkpt lat="35.72957650802603" lon="-5.6257432157683835"><ele>95.0</ele><time>2026-04-28T15:44:40.999Z</time></trkpt><trkpt lat="35.72976737455588" lon="-5.625677547240142"><ele>94.0</ele><time>2026-04-28T15:44:41.999Z</time></trkpt><trkpt lat="35.729971582940216" lon="-5.6256107217385685"><ele>93.0</ele><time>2026-04-28T15:44:42.999Z</time></trkpt><trkpt lat="35.73018723437956" lon="-5.6255463033511575"><ele>92.5</ele><time>2026-04-28T15:44:43.999Z</time></trkpt><trkpt lat="35.73041605227372" lon="-5.625477389816568"><ele>92.0</ele><time>2026-04-28T15:44:44.999Z</time></trkpt><trkpt lat="35.730643196947376" lon="-5.625412400868555"><ele>92.0</ele><time>2026-04-28T15:44:45.999Z</time></trkpt><trkpt lat="35.73088350791271" lon="-5.625349301770904"><ele>92.0</ele><time>2026-04-28T15:44:46.998Z</time></trkpt><trkpt lat="35.731131310464846" lon="-5.62528878668306"><ele>91.5</ele><time>2026-04-28T15:44:47.998Z</time></trkpt><trkpt lat="35.73138304217484" lon="-5.625235565661849"><ele>91.0</ele><time>2026-04-28T15:44:48.998Z</time></trkpt><trkpt lat="35.73163563028268" lon="-5.625190303540798"><ele>93.0</ele><time>2026-04-28T15:44:49.998Z</time></trkpt><trkpt lat="35.73189389533117" lon="-5.625145420727303"><ele>95.0</ele><time>2026-04-28T15:44:50.998Z</time></trkpt><trkpt lat="35.73216146990234" lon="-5.625100679526921"><ele>95.0</ele><time>2026-04-28T15:44:51.998Z</time></trkpt><trkpt lat="35.73243878894541" lon="-5.625067309841633"><ele>95.0</ele><time>2026-04-28T15:44:52.998Z</time></trkpt><trkpt lat="35.732717877006614" lon="-5.625041352990931"><ele>94.5</ele><time>2026-04-28T15:44:53.998Z</time></trkpt><trkpt lat="35.73299427956492" lon="-5.625022462834281"><ele>94.0</ele><time>2026-04-28T15:44:54.998Z</time></trkpt><trkpt lat="35.73326716547288" lon="-5.625011008359416"><ele>94.0</ele><time>2026-04-28T15:44:55.998Z</time></trkpt><trkpt lat="35.73353898449339" lon="-5.625003150593145"><ele>94.0</ele><time>2026-04-28T15:44:56.998Z</time></trkpt><trkpt lat="35.73379566417638" lon="-5.625000174763551"><ele>93.5</ele><time>2026-04-28T15:44:57.998Z</time></trkpt><trkpt lat="35.734034406072325" lon="-5.6249979626445805"><ele>93.0</ele><time>2026-04-28T15:44:58.998Z</time></trkpt><trkpt lat="35.73425853394138" lon="-5.624999564607151"><ele>93.33333333333333</ele><time>2026-04-28T15:44:59.998Z</time></trkpt><trkpt lat="35.73447178235216" lon="-5.625004274745989"><ele>93.66666666666666</ele><time>2026-04-28T15:45:01Z</time></trkpt><trkpt lat="35.734677362056786" lon="-5.625010741990818"><ele>94.0</ele><time>2026-04-28T15:45:02Z</time></trkpt><trkpt lat="35.734873032030535" lon="-5.62501662630054"><ele>94.0</ele><time>2026-04-28T15:45:03Z</time></trkpt><trkpt lat="35.7350532786964" lon="-5.625023418334043"><ele>94.0</ele><time>2026-04-28T15:45:04Z</time></trkpt><trkpt lat="35.73521477471325" lon="-5.625031000810806"><ele>94.0</ele><time>2026-04-28T15:45:05Z</time></trkpt><trkpt lat="35.73536256820969" lon="-5.625038243639064"><ele>95.0</ele><time>2026-04-28T15:45:06Z</time></trkpt><trkpt lat="35.735494716975694" lon="-5.625045012311769"><ele>96.0</ele><time>2026-04-28T15:45:07Z</time></trkpt><trkpt lat="35.735614611412224" lon="-5.625051188277038"><ele>97.0</ele><time>2026-04-28T15:45:08Z</time></trkpt><trkpt lat="35.735727408582385" lon="-5.625058782178222"><ele>98.0</ele><time>2026-04-28T15:45:09Z</time></trkpt><trkpt lat="35.7358284155204" lon="-5.625066333854752"><ele>97.99999999999999</ele><time>2026-04-28T15:45:10Z</time></trkpt><trkpt lat="35.73592081998506" lon="-5.625076246108732"><ele>98.0</ele><time>2026-04-28T15:45:11Z</time></trkpt><trkpt lat="35.736004618793224" lon="-5.625085592175229"><ele>98.0</ele><time>2026-04-28T15:45:12Z</time></trkpt><trkpt lat="35.73608522718986" lon="-5.625093905397518"><ele>98.0</ele><time>2026-04-28T15:45:13Z</time></trkpt><trkpt lat="35.736157730194684" lon="-5.625098917115954"><ele>97.99999999999999</ele><time>2026-04-28T15:45:14Z</time></trkpt><trkpt lat="35.73626602845704" lon="-5.625105426231572"><ele>98.0</ele><time>2026-04-28T15:45:16Z</time></trkpt><trkpt lat="35.73633873230067" lon="-5.625110885480899"><ele>98.2</ele><time>2026-04-28T15:45:18Z</time></trkpt><trkpt lat="35.73640942814706" lon="-5.62511801300303"><ele>98.4</ele><time>2026-04-28T15:45:21Z</time></trkpt><trkpt lat="35.73650304739435" lon="-5.625144893671526"><ele>98.60000000000001</ele><time>2026-04-28T15:47:16Z</time></trkpt><trkpt lat="35.73659442157092" lon="-5.6251468089394985"><ele>98.80000000000001</ele><time>2026-04-28T15:47:17.999Z</time></trkpt><trkpt lat="35.73667497039066" lon="-5.625146318621575"><ele>99.0</ele><time>2026-04-28T15:47:18.999Z</time></trkpt><trkpt lat="35.736795786660636" lon="-5.625172594146937"><ele>99.0</ele><time>2026-04-28T15:47:20.999Z</time></trkpt><trkpt lat="35.73686053445655" lon="-5.625187412780723"><ele>99.0</ele><time>2026-04-28T15:47:21.999Z</time></trkpt><trkpt lat="35.73692540804939" lon="-5.625204846907376"><ele>99.0</ele><time>2026-04-28T15:47:22.999Z</time></trkpt><trkpt lat="35.73698981633552" lon="-5.625225995951437"><ele>99.0</ele><time>2026-04-28T15:47:23.999Z</time></trkpt><trkpt lat="35.73709613214806" lon="-5.62525263011637"><ele>99.0</ele><time>2026-04-28T15:47:25.999Z</time></trkpt><trkpt lat="35.73716642219338" lon="-5.625240147370522"><ele>99.0</ele><time>2026-04-28T15:47:27.999Z</time></trkpt><trkpt lat="35.73723906252875" lon="-5.625243554609125"><ele>98.16666666666667</ele><time>2026-04-28T15:47:30.999Z</time></trkpt><trkpt lat="35.73731317262102" lon="-5.625256906679279"><ele>97.33333333333333</ele><time>2026-04-28T15:47:32.999Z</time></trkpt><trkpt lat="35.73741404938044" lon="-5.62520026918584"><ele>96.5</ele><time>2026-04-28T15:47:34.999Z</time></trkpt><trkpt lat="35.73747703575872" lon="-5.625168503735723"><ele>95.66666666666666</ele><time>2026-04-28T15:47:35.999Z</time></trkpt><trkpt lat="35.737548611771444" lon="-5.6251358088563554"><ele>94.83333333333333</ele><time>2026-04-28T15:47:36.999Z</time></trkpt><trkpt lat="35.73762383452534" lon="-5.6251091295359865"><ele>94.0</ele><time>2026-04-28T15:47:37.999Z</time></trkpt><trkpt lat="35.73769396891293" lon="-5.625085965346902"><ele>93.57142857142857</ele><time>2026-04-28T15:47:38.999Z</time></trkpt><trkpt lat="35.73776267162059" lon="-5.62510497353292"><ele>93.14285714285714</ele><time>2026-04-28T15:47:39.999Z</time></trkpt><trkpt lat="35.737833669650485" lon="-5.625108197434371"><ele>92.71428571428572</ele><time>2026-04-28T15:47:40.999Z</time></trkpt><trkpt lat="35.73789862728971" lon="-5.625111147053369"><ele>92.28571428571428</ele><time>2026-04-28T15:47:41.999Z</time></trkpt><trkpt lat="35.73798864166577" lon="-5.6251084850109825"><ele>91.85714285714286</ele><time>2026-04-28T15:47:43.999Z</time></trkpt><trkpt lat="35.73806204437674" lon="-5.625085872154404"><ele>91.42857142857143</ele><time>2026-04-28T15:49:24Z</time></trkpt><trkpt lat="35.73813350963636" lon="-5.6250951397749"><ele>91.0</ele><time>2026-04-28T15:49:25Z</time></trkpt><trkpt lat="35.73822360297823" lon="-5.625101750544705"><ele>91.0</ele><time>2026-04-28T15:49:26Z</time></trkpt><trkpt lat="35.738323121401876" lon="-5.6251076319501"><ele>91.0</ele><time>2026-04-28T15:49:27Z</time></trkpt><trkpt lat="35.73843097793958" lon="-5.6251143901443"><ele>91.0</ele><time>2026-04-28T15:49:28.001Z</time></trkpt><trkpt lat="35.738550969645836" lon="-5.62511950205653"><ele>91.0</ele><time>2026-04-28T15:49:29.001Z</time></trkpt><trkpt lat="35.73867651098319" lon="-5.625122868597559"><ele>91.5</ele><time>2026-04-28T15:49:30.001Z</time></trkpt><trkpt lat="35.73880697467989" lon="-5.6251233209018325"><ele>92.0</ele><time>2026-04-28T15:49:31.001Z</time></trkpt><trkpt lat="35.73894313005047" lon="-5.625117836881474"><ele>92.5</ele><time>2026-04-28T15:49:32.001Z</time></trkpt><trkpt lat="35.73909052069834" lon="-5.625112027994999"><ele>93.0</ele><time>2026-04-28T15:49:33.001Z</time></trkpt><trkpt lat="35.73924983632952" lon="-5.625104277219984"><ele>95.33333333333334</ele><time>2026-04-28T15:49:34.001Z</time></trkpt><trkpt lat="35.73942067434249" lon="-5.625085520122151"><ele>97.66666666666667</ele><time>2026-04-28T15:49:35.001Z</time></trkpt><trkpt lat="35.73959983236661" lon="-5.625062277965804"><ele>100.0</ele><time>2026-04-28T15:49:36.001Z</time></trkpt><trkpt lat="35.7397795722242" lon="-5.6250327903575625"><ele>100.0</ele><time>2026-04-28T15:49:37.001Z</time></trkpt><trkpt lat="35.739967727734324" lon="-5.6249966724340545"><ele>100.0</ele><time>2026-04-28T15:49:38.001Z</time></trkpt><trkpt lat="35.74016025140405" lon="-5.62495812214496"><ele>100.0</ele><time>2026-04-28T15:49:39.001Z</time></trkpt><trkpt lat="35.740359449181405" lon="-5.6249173571488855"><ele>98.0</ele><time>2026-04-28T15:49:40.001Z</time></trkpt><trkpt lat="35.740567462710985" lon="-5.624868698774333"><ele>96.0</ele><time>2026-04-28T15:49:41.001Z</time></trkpt><trkpt lat="35.74077860770463" lon="-5.6248144185003985"><ele>94.0</ele><time>2026-04-28T15:49:42Z</time></trkpt><trkpt lat="35.7409974919585" lon="-5.62475511972084"><ele>94.0</ele><time>2026-04-28T15:49:43Z</time></trkpt><trkpt lat="35.741213487865075" lon="-5.624690514246412"><ele>94.0</ele><time>2026-04-28T15:49:44Z</time></trkpt><trkpt lat="35.74142832328554" lon="-5.624624165787998"><ele>94.0</ele><time>2026-04-28T15:49:45Z</time></trkpt><trkpt lat="35.74164004212346" lon="-5.624552716926989"><ele>94.0</ele><time>2026-04-28T15:49:46Z</time></trkpt><trkpt lat="35.74185287981973" lon="-5.624479744720442"><ele>94.0</ele><time>2026-04-28T15:49:47Z</time></trkpt><trkpt lat="35.74205122850978" lon="-5.624399729887782"><ele>94.0</ele><time>2026-04-28T15:49:48Z</time></trkpt><trkpt lat="35.742254675325015" lon="-5.624314561196404"><ele>97.66666666666666</ele><time>2026-04-28T15:49:49Z</time></trkpt><trkpt lat="35.7424369475983" lon="-5.624236246312077"><ele>101.33333333333333</ele><time>2026-04-28T15:49:50Z</time></trkpt><trkpt lat="35.74261624193803" lon="-5.624164913290337"><ele>105.0</ele><time>2026-04-28T15:49:51Z</time></trkpt><trkpt lat="35.742802434106835" lon="-5.6240940019056485"><ele>105.0</ele><time>2026-04-28T15:49:52Z</time></trkpt><trkpt lat="35.742997814035135" lon="-5.624011411729139"><ele>105.0</ele><time>2026-04-28T15:49:53Z</time></trkpt><trkpt lat="35.743199958851754" lon="-5.623915451628685"><ele>105.0</ele><time>2026-04-28T15:49:54Z</time></trkpt><trkpt lat="35.743406852757325" lon="-5.623811054516917"><ele>104.5</ele><time>2026-04-28T15:49:55Z</time></trkpt><trkpt lat="35.743613729554006" lon="-5.62369914151633"><ele>104.0</ele><time>2026-04-28T15:49:56Z</time></trkpt><trkpt lat="35.743827176051745" lon="-5.623575423635114"><ele>104.0</ele><time>2026-04-28T15:49:57Z</time></trkpt><trkpt lat="35.74405610004677" lon="-5.623438671233623"><ele>104.0</ele><time>2026-04-28T15:49:58Z</time></trkpt><trkpt lat="35.74430139618135" lon="-5.6232836712161784"><ele>102.0</ele><time>2026-04-28T15:49:59Z</time></trkpt><trkpt lat="35.744555811483146" lon="-5.62311851571354"><ele>100.0</ele><time>2026-04-28T15:50:00Z</time></trkpt><trkpt lat="35.744816781572325" lon="-5.62294161497629"><ele>104.5</ele><time>2026-04-28T15:50:01Z</time></trkpt><trkpt lat="35.74507726302381" lon="-5.622750954070476"><ele>109.0</ele><time>2026-04-28T15:50:02Z</time></trkpt><trkpt lat="35.745336425036975" lon="-5.622551932592293"><ele>109.0</ele><time>2026-04-28T15:50:03Z</time></trkpt><trkpt lat="35.74559716119773" lon="-5.6223463992564815"><ele>109.0</ele><time>2026-04-28T15:50:04Z</time></trkpt><trkpt lat="35.7458685984067" lon="-5.622123248571184"><ele>111.5</ele><time>2026-04-28T15:50:05Z</time></trkpt><trkpt lat="35.74614699123822" lon="-5.62188080358628"><ele>114.0</ele><time>2026-04-28T15:50:06Z</time></trkpt><trkpt lat="35.74641422077882" lon="-5.621640211275446"><ele>114.0</ele><time>2026-04-28T15:50:07Z</time></trkpt><trkpt lat="35.74666505770255" lon="-5.621406972934258"><ele>114.0</ele><time>2026-04-28T15:50:08Z</time></trkpt><trkpt lat="35.746913165381216" lon="-5.621175507174829"><ele>119.0</ele><time>2026-04-28T15:50:09Z</time></trkpt><trkpt lat="35.747178585356465" lon="-5.6209335668613996"><ele>124.0</ele><time>2026-04-28T15:50:10Z</time></trkpt><trkpt lat="35.747451251811476" lon="-5.62068402383296"><ele>127.5</ele><time>2026-04-28T15:50:11Z</time></trkpt><trkpt lat="35.747732919460475" lon="-5.620430440508416"><ele>131.0</ele><time>2026-04-28T15:50:12Z</time></trkpt><trkpt lat="35.748013399022234" lon="-5.620177421154619"><ele>134.0</ele><time>2026-04-28T15:50:13Z</time></trkpt><trkpt lat="35.748291969340826" lon="-5.619928385410372"><ele>137.0</ele><time>2026-04-28T15:50:14Z</time></trkpt><trkpt lat="35.74857562897648" lon="-5.6196775106906465"><ele>139.5</ele><time>2026-04-28T15:50:15Z</time></trkpt><trkpt lat="35.748873763751746" lon="-5.619413089103845"><ele>142.0</ele><time>2026-04-28T15:50:16Z</time></trkpt><trkpt lat="35.74915981013878" lon="-5.61916564636428"><ele>144.5</ele><time>2026-04-28T15:50:17Z</time></trkpt><trkpt lat="35.74944867141584" lon="-5.618931204678374"><ele>147.0</ele><time>2026-04-28T15:50:18Z</time></trkpt><trkpt lat="35.74974929935623" lon="-5.618701147609589"><ele>151.5</ele><time>2026-04-28T15:50:19Z</time></trkpt><trkpt lat="35.75006210032698" lon="-5.618473461871426"><ele>156.0</ele><time>2026-04-28T15:50:20Z</time></trkpt><trkpt lat="35.75038625478498" lon="-5.618251581342523"><ele>160.0</ele><time>2026-04-28T15:50:21Z</time></trkpt><trkpt lat="35.75070989886172" lon="-5.618048935665438"><ele>164.0</ele><time>2026-04-28T15:50:22Z</time></trkpt><trkpt lat="35.7510301022323" lon="-5.617862054259625"><ele>164.0</ele><time>2026-04-28T15:50:23Z</time></trkpt><trkpt lat="35.751355740078324" lon="-5.617685997170063"><ele>164.0</ele><time>2026-04-28T15:50:24Z</time></trkpt><trkpt lat="35.751691130075706" lon="-5.617515225610666"><ele>159.5</ele><time>2026-04-28T15:50:25Z</time></trkpt><trkpt lat="35.75203033849626" lon="-5.617352905643946"><ele>155.0</ele><time>2026-04-28T15:50:26Z</time></trkpt><trkpt lat="35.75237945567317" lon="-5.617200715112197"><ele>151.5</ele><time>2026-04-28T15:50:27Z</time></trkpt><trkpt lat="35.752733583861826" lon="-5.61705635893986"><ele>148.0</ele><time>2026-04-28T15:50:28Z</time></trkpt><trkpt lat="35.75308977725703" lon="-5.616926474971935"><ele>142.5</ele><time>2026-04-28T15:50:29Z</time></trkpt><trkpt lat="35.753451136032574" lon="-5.616807207418095"><ele>137.0</ele><time>2026-04-28T15:50:30Z</time></trkpt><trkpt lat="35.75380648537234" lon="-5.616701666866984"><ele>134.0</ele><time>2026-04-28T15:50:31Z</time></trkpt><trkpt lat="35.75416047813692" lon="-5.616607541794506"><ele>131.0</ele><time>2026-04-28T15:50:32Z</time></trkpt><trkpt lat="35.75451490613681" lon="-5.616527220897177"><ele>128.0</ele><time>2026-04-28T15:50:33Z</time></trkpt><trkpt lat="35.754868394078954" lon="-5.616460416154255"><ele>125.0</ele><time>2026-04-28T15:50:34Z</time></trkpt><trkpt lat="35.75522975730183" lon="-5.616405641524895"><ele>125.0</ele><time>2026-04-28T15:50:35Z</time></trkpt><trkpt lat="35.75560203025754" lon="-5.616362600000328"><ele>125.0</ele><time>2026-04-28T15:50:36Z</time></trkpt><trkpt lat="35.755978576852556" lon="-5.6163286010679245"><ele>126.5</ele><time>2026-04-28T15:50:37Z</time></trkpt><trkpt lat="35.75636587348489" lon="-5.61631008224351"><ele>128.0</ele><time>2026-04-28T15:50:38Z</time></trkpt><trkpt lat="35.75676354586722" lon="-5.616305369785213"><ele>132.5</ele><time>2026-04-28T15:50:39Z</time></trkpt><trkpt lat="35.75717136333254" lon="-5.616316396838222"><ele>137.0</ele><time>2026-04-28T15:50:40Z</time></trkpt><trkpt lat="35.75758435443347" lon="-5.616342422856658"><ele>140.0</ele><time>2026-04-28T15:50:41Z</time></trkpt><trkpt lat="35.757995183616075" lon="-5.616380823491159"><ele>143.0</ele><time>2026-04-28T15:50:42Z</time></trkpt><trkpt lat="35.75840562741696" lon="-5.616425531175283"><ele>145.5</ele><time>2026-04-28T15:50:43Z</time></trkpt><trkpt lat="35.75882323299147" lon="-5.616472501804928"><ele>148.0</ele><time>2026-04-28T15:50:44Z</time></trkpt><trkpt lat="35.759249932751814" lon="-5.616521614192166"><ele>147.0</ele><time>2026-04-28T15:50:45Z</time></trkpt><trkpt lat="35.75967580492937" lon="-5.616571445422666"><ele>146.0</ele><time>2026-04-28T15:50:46Z</time></trkpt><trkpt lat="35.760110761620034" lon="-5.616617300359607"><ele>146.5</ele><time>2026-04-28T15:50:47Z</time></trkpt><trkpt lat="35.76055119618326" lon="-5.616659628783671"><ele>147.0</ele><time>2026-04-28T15:50:48Z</time></trkpt><trkpt lat="35.760978323430514" lon="-5.616697318513589"><ele>154.0</ele><time>2026-04-28T15:50:49Z</time></trkpt><trkpt lat="35.76138872114504" lon="-5.6167222356955575"><ele>161.0</ele><time>2026-04-28T15:50:50Z</time></trkpt><trkpt lat="35.761791688839054" lon="-5.616734529365554"><ele>166.0</ele><time>2026-04-28T15:50:51Z</time></trkpt><trkpt lat="35.76219653390614" lon="-5.616734418044958"><ele>171.0</ele><time>2026-04-28T15:50:52Z</time></trkpt><trkpt lat="35.7626108664545" lon="-5.616725889798379"><ele>165.0</ele><time>2026-04-28T15:50:53Z</time></trkpt><trkpt lat="35.76303408153559" lon="-5.616709223712258"><ele>159.0</ele><time>2026-04-28T15:50:54Z</time></trkpt><trkpt lat="35.76345697864254" lon="-5.616683232768554"><ele>155.5</ele><time>2026-04-28T15:50:55Z</time></trkpt><trkpt lat="35.76386140428782" lon="-5.616649030029659"><ele>152.0</ele><time>2026-04-28T15:50:56Z</time></trkpt><trkpt lat="35.76424899564832" lon="-5.616601910610622"><ele>154.5</ele><time>2026-04-28T15:50:57Z</time></trkpt><trkpt lat="35.76462043932896" lon="-5.616552403486906"><ele>157.0</ele><time>2026-04-28T15:50:58Z</time></trkpt><trkpt lat="35.76497929905977" lon="-5.616497616664408"><ele>164.0</ele><time>2026-04-28T15:50:59Z</time></trkpt><trkpt lat="35.765321928606" lon="-5.616438318971537"><ele>171.0</ele><time>2026-04-28T15:51:00Z</time></trkpt><trkpt lat="35.7656565382724" lon="-5.61637546004945"><ele>171.0</ele><time>2026-04-28T15:51:01Z</time></trkpt><trkpt lat="35.76598368854654" lon="-5.616320017796615"><ele>171.0</ele><time>2026-04-28T15:51:02Z</time></trkpt><trkpt lat="35.766306027059045" lon="-5.61627203628171"><ele>173.0</ele><time>2026-04-28T15:51:03Z</time></trkpt><trkpt lat="35.76662134142908" lon="-5.616225647668003"><ele>175.0</ele><time>2026-04-28T15:51:04Z</time></trkpt><trkpt lat="35.766933875474706" lon="-5.616177440661004"><ele>178.5</ele><time>2026-04-28T15:51:04.999Z</time></trkpt><trkpt lat="35.767242972177115" lon="-5.616128725672586"><ele>182.0</ele><time>2026-04-28T15:51:05.999Z</time></trkpt><trkpt lat="35.76754389678611" lon="-5.616084494118817"><ele>179.0</ele><time>2026-04-28T15:51:06.999Z</time></trkpt><trkpt lat="35.76784096653165" lon="-5.61603694974646"><ele>176.0</ele><time>2026-04-28T15:51:07.999Z</time></trkpt><trkpt lat="35.76813542504438" lon="-5.615988730533915"><ele>176.0</ele><time>2026-04-28T15:51:08.999Z</time></trkpt><trkpt lat="35.76843638289487" lon="-5.615940401354245"><ele>176.0</ele><time>2026-04-28T15:51:09.999Z</time></trkpt><trkpt lat="35.76874088686791" lon="-5.615892435653645"><ele>176.0</ele><time>2026-04-28T15:51:10.999Z</time></trkpt><trkpt lat="35.76904849215678" lon="-5.615843171669972"><ele>176.0</ele><time>2026-04-28T15:51:11.999Z</time></trkpt><trkpt lat="35.7693565580982" lon="-5.615794226038262"><ele>166.0</ele><time>2026-04-28T15:51:12.999Z</time></trkpt><trkpt lat="35.76966249726822" lon="-5.6157474281983175"><ele>156.0</ele><time>2026-04-28T15:51:13.999Z</time></trkpt><trkpt lat="35.769970984864784" lon="-5.615699088540782"><ele>148.0</ele><time>2026-04-28T15:51:14.999Z</time></trkpt><trkpt lat="35.770278273074496" lon="-5.615651027863282"><ele>140.0</ele><time>2026-04-28T15:51:15.999Z</time></trkpt><trkpt lat="35.77058775702712" lon="-5.615600295501336"><ele>140.0</ele><time>2026-04-28T15:51:16.999Z</time></trkpt><trkpt lat="35.77089849644475" lon="-5.6155500386602295"><ele>140.0</ele><time>2026-04-28T15:51:17.999Z</time></trkpt><trkpt lat="35.77120926617962" lon="-5.615501340245689"><ele>142.0</ele><time>2026-04-28T15:51:19.001Z</time></trkpt><trkpt lat="35.77151873610264" lon="-5.615451839231059"><ele>144.0</ele><time>2026-04-28T15:51:20.001Z</time></trkpt><trkpt lat="35.77182962385976" lon="-5.6154034931233445"><ele>143.0</ele><time>2026-04-28T15:51:21.001Z</time></trkpt><trkpt lat="35.772139681159366" lon="-5.615354037423353"><ele>142.0</ele><time>2026-04-28T15:51:22.001Z</time></trkpt><trkpt lat="35.772444695216016" lon="-5.615302550246653"><ele>139.0</ele><time>2026-04-28T15:51:23.001Z</time></trkpt><trkpt lat="35.77274384104405" lon="-5.615248361509975"><ele>136.0</ele><time>2026-04-28T15:51:24.001Z</time></trkpt><trkpt lat="35.77304089213699" lon="-5.615192609884466"><ele>136.0</ele><time>2026-04-28T15:51:25.001Z</time></trkpt><trkpt lat="35.773335527096506" lon="-5.615132903704299"><ele>136.0</ele><time>2026-04-28T15:51:26.001Z</time></trkpt><trkpt lat="35.773629754376216" lon="-5.615065215986495"><ele>141.0</ele><time>2026-04-28T15:51:27.001Z</time></trkpt><trkpt lat="35.77392248136781" lon="-5.614987691212792"><ele>146.0</ele><time>2026-04-28T15:51:28.001Z</time></trkpt><trkpt lat="35.774212810404066" lon="-5.614901409150122"><ele>150.0</ele><time>2026-04-28T15:51:29.001Z</time></trkpt><trkpt lat="35.774499670281685" lon="-5.614807340418369"><ele>154.0</ele><time>2026-04-28T15:51:30.001Z</time></trkpt><trkpt lat="35.77478068829276" lon="-5.614705362638406"><ele>154.0</ele><time>2026-04-28T15:51:31.001Z</time></trkpt><trkpt lat="35.77506180198956" lon="-5.6145992532503834"><ele>154.0</ele><time>2026-04-28T15:51:32.001Z</time></trkpt><trkpt lat="35.77534377777697" lon="-5.614486449233451"><ele>158.0</ele><time>2026-04-28T15:51:33.001Z</time></trkpt><trkpt lat="35.77562374429235" lon="-5.614364554536428"><ele>162.0</ele><time>2026-04-28T15:51:34.001Z</time></trkpt><trkpt lat="35.77590150725516" lon="-5.614232121250159"><ele>156.0</ele><time>2026-04-28T15:51:35.001Z</time></trkpt><trkpt lat="35.77617688794144" lon="-5.614091412515534"><ele>150.0</ele><time>2026-04-28T15:51:36.001Z</time></trkpt><trkpt lat="35.776450140177026" lon="-5.613943994298751"><ele>150.0</ele><time>2026-04-28T15:51:37Z</time></trkpt><trkpt lat="35.7767227077749" lon="-5.61378825153632"><ele>150.0</ele><time>2026-04-28T15:51:38Z</time></trkpt><trkpt lat="35.776995932200684" lon="-5.6136243967608515"><ele>149.5</ele><time>2026-04-28T15:51:39Z</time></trkpt><trkpt lat="35.777266579786044" lon="-5.613452792395797"><ele>149.0</ele><time>2026-04-28T15:51:40Z</time></trkpt><trkpt lat="35.77753573955131" lon="-5.613273059920938"><ele>148.5</ele><time>2026-04-28T15:51:41Z</time></trkpt><trkpt lat="35.777798925923726" lon="-5.613086077049054"><ele>148.0</ele><time>2026-04-28T15:51:42Z</time></trkpt><trkpt lat="35.778056422431625" lon="-5.612894324415692"><ele>147.0</ele><time>2026-04-28T15:51:43Z</time></trkpt><trkpt lat="35.77831192554195" lon="-5.6126937886348"><ele>146.0</ele><time>2026-04-28T15:51:44Z</time></trkpt><trkpt lat="35.77856365111303" lon="-5.61248525176457"><ele>146.0</ele><time>2026-04-28T15:51:45Z</time></trkpt><trkpt lat="35.77881019038748" lon="-5.612270777946937"><ele>146.0</ele><time>2026-04-28T15:51:46Z</time></trkpt><trkpt lat="35.779052098904664" lon="-5.612049996826637"><ele>150.0</ele><time>2026-04-28T15:51:47Z</time></trkpt><trkpt lat="35.77928860762359" lon="-5.611823921113664"><ele>154.0</ele><time>2026-04-28T15:51:48Z</time></trkpt><trkpt lat="35.779521164374394" lon="-5.611591621187964"><ele>154.0</ele><time>2026-04-28T15:51:49Z</time></trkpt><trkpt lat="35.7797502210587" lon="-5.6113522161848675"><ele>154.0</ele><time>2026-04-28T15:51:50Z</time></trkpt><trkpt lat="35.77997562041751" lon="-5.611106733126019"><ele>163.0</ele><time>2026-04-28T15:51:51Z</time></trkpt><trkpt lat="35.780193249340314" lon="-5.610856701204447"><ele>172.0</ele><time>2026-04-28T15:51:52Z</time></trkpt><trkpt lat="35.7804048593782" lon="-5.610608288243577"><ele>172.0</ele><time>2026-04-28T15:51:53Z</time></trkpt><trkpt lat="35.78061376567981" lon="-5.61035875979061"><ele>172.0</ele><time>2026-04-28T15:51:54Z</time></trkpt><trkpt lat="35.78082202970255" lon="-5.610107721413277"><ele>164.5</ele><time>2026-04-28T15:51:55Z</time></trkpt><trkpt lat="35.78103078164894" lon="-5.609856945038465"><ele>157.0</ele><time>2026-04-28T15:51:56Z</time></trkpt><trkpt lat="35.78123695494024" lon="-5.609604436642016"><ele>161.0</ele><time>2026-04-28T15:51:57Z</time></trkpt><trkpt lat="35.781440824672835" lon="-5.609354816902584"><ele>165.0</ele><time>2026-04-28T15:51:58Z</time></trkpt><trkpt lat="35.78164324666523" lon="-5.609106692163015"><ele>165.0</ele><time>2026-04-28T15:51:59Z</time></trkpt><trkpt lat="35.7818442734412" lon="-5.608860006822082"><ele>165.0</ele><time>2026-04-28T15:52:00Z</time></trkpt><trkpt lat="35.78204297774807" lon="-5.60861307089014"><ele>162.0</ele><time>2026-04-28T15:52:01Z</time></trkpt><trkpt lat="35.78224063074176" lon="-5.608364453331769"><ele>159.0</ele><time>2026-04-28T15:52:02Z</time></trkpt><trkpt lat="35.78244056597042" lon="-5.608116862100455"><ele>159.0</ele><time>2026-04-28T15:52:03Z</time></trkpt><trkpt lat="35.78264019898769" lon="-5.607873350304828"><ele>159.0</ele><time>2026-04-28T15:52:04Z</time></trkpt><trkpt lat="35.782837574721135" lon="-5.607630803347234"><ele>165.0</ele><time>2026-04-28T15:52:05Z</time></trkpt><trkpt lat="35.78303610754262" lon="-5.607387177083232"><ele>171.0</ele><time>2026-04-28T15:52:06Z</time></trkpt><trkpt lat="35.78323455370241" lon="-5.607142814717594"><ele>171.0</ele><time>2026-04-28T15:52:07Z</time></trkpt><trkpt lat="35.78343358207674" lon="-5.606895354620898"><ele>171.0</ele><time>2026-04-28T15:52:08Z</time></trkpt><trkpt lat="35.78363146301663" lon="-5.606649416819708"><ele>171.0</ele><time>2026-04-28T15:52:09Z</time></trkpt><trkpt lat="35.783821716359824" lon="-5.6064155881009965"><ele>171.0</ele><time>2026-04-28T15:52:10Z</time></trkpt><trkpt lat="35.78400682805508" lon="-5.606187833145004"><ele>174.5</ele><time>2026-04-28T15:52:11Z</time></trkpt><trkpt lat="35.78419299063264" lon="-5.6059601083553865"><ele>178.0</ele><time>2026-04-28T15:52:12Z</time></trkpt><trkpt lat="35.78437621699092" lon="-5.605735778210188"><ele>178.0</ele><time>2026-04-28T15:52:13Z</time></trkpt><trkpt lat="35.78455597061988" lon="-5.605514417422405"><ele>178.0</ele><time>2026-04-28T15:52:14Z</time></trkpt><trkpt lat="35.78473276680244" lon="-5.605296551973006"><ele>185.0</ele><time>2026-04-28T15:52:15Z</time></trkpt><trkpt lat="35.78490602517222" lon="-5.605083783966522"><ele>192.0</ele><time>2026-04-28T15:52:16Z</time></trkpt><trkpt lat="35.78507596860341" lon="-5.604875235567115"><ele>184.5</ele><time>2026-04-28T15:52:17Z</time></trkpt><trkpt lat="35.78524324918734" lon="-5.604669416342949"><ele>177.0</ele><time>2026-04-28T15:52:18Z</time></trkpt><trkpt lat="35.78540932826858" lon="-5.604465172965595"><ele>177.0</ele><time>2026-04-28T15:52:19Z</time></trkpt><trkpt lat="35.78557538701802" lon="-5.604262027450713"><ele>177.0</ele><time>2026-04-28T15:52:20Z</time></trkpt><trkpt lat="35.78573879444654" lon="-5.604060114855206"><ele>177.0</ele><time>2026-04-28T15:52:21Z</time></trkpt><trkpt lat="35.785899959864715" lon="-5.603858110557788"><ele>177.0</ele><time>2026-04-28T15:52:22Z</time></trkpt><trkpt lat="35.78606092887794" lon="-5.603659542408859"><ele>178.0</ele><time>2026-04-28T15:52:23Z</time></trkpt><trkpt lat="35.78621914657193" lon="-5.603464183235826"><ele>179.0</ele><time>2026-04-28T15:52:24Z</time></trkpt><trkpt lat="35.78637988778855" lon="-5.603266947686319"><ele>179.0</ele><time>2026-04-28T15:52:25Z</time></trkpt><trkpt lat="35.78654032989689" lon="-5.603070721662109"><ele>179.0</ele><time>2026-04-28T15:52:26Z</time></trkpt><trkpt lat="35.78670033801235" lon="-5.602873995349989"><ele>184.5</ele><time>2026-04-28T15:52:27Z</time></trkpt><trkpt lat="35.78686278631284" lon="-5.602672547921204"><ele>190.0</ele><time>2026-04-28T15:52:28Z</time></trkpt><trkpt lat="35.78702652751723" lon="-5.602469969847595"><ele>190.0</ele><time>2026-04-28T15:52:29Z</time></trkpt><trkpt lat="35.78719218498861" lon="-5.602266570542412"><ele>190.0</ele><time>2026-04-28T15:52:30Z</time></trkpt><trkpt lat="35.78736350369428" lon="-5.602059681354657"><ele>190.0</ele><time>2026-04-28T15:52:31Z</time></trkpt><trkpt lat="35.787537047089664" lon="-5.601848174816947"><ele>190.0</ele><time>2026-04-28T15:52:32Z</time></trkpt><trkpt lat="35.787712178785554" lon="-5.6016322380750365"><ele>184.5</ele><time>2026-04-28T15:52:33Z</time></trkpt><trkpt lat="35.78788941929818" lon="-5.601413207967284"><ele>179.0</ele><time>2026-04-28T15:52:34Z</time></trkpt><trkpt lat="35.78806906203659" lon="-5.60119090943004"><ele>184.5</ele><time>2026-04-28T15:52:35Z</time></trkpt><trkpt lat="35.788250034129085" lon="-5.600967062240684"><ele>190.0</ele><time>2026-04-28T15:52:36Z</time></trkpt><trkpt lat="35.78843197838967" lon="-5.600742849432896"><ele>185.5</ele><time>2026-04-28T15:52:37Z</time></trkpt><trkpt lat="35.788615391849845" lon="-5.600517872700407"><ele>181.0</ele><time>2026-04-28T15:52:38Z</time></trkpt><trkpt lat="35.78879850196735" lon="-5.600294701834529"><ele>190.5</ele><time>2026-04-28T15:52:39Z</time></trkpt><trkpt lat="35.78898216271514" lon="-5.600069038514766"><ele>200.0</ele><time>2026-04-28T15:52:40Z</time></trkpt><trkpt lat="35.789169404674894" lon="-5.599838742009231"><ele>196.5</ele><time>2026-04-28T15:52:41Z</time></trkpt><trkpt lat="35.789360180441804" lon="-5.599604527788244"><ele>193.0</ele><time>2026-04-28T15:52:42Z</time></trkpt><trkpt lat="35.78955040449332" lon="-5.599368614412569"><ele>203.5</ele><time>2026-04-28T15:52:43Z</time></trkpt><trkpt lat="35.78973795936367" lon="-5.599135027389303"><ele>214.0</ele><time>2026-04-28T15:52:44Z</time></trkpt><trkpt lat="35.789923332058656" lon="-5.5989046032513015"><ele>214.0</ele><time>2026-04-28T15:52:45Z</time></trkpt><trkpt lat="35.79011121578959" lon="-5.598672606599608"><ele>214.0</ele><time>2026-04-28T15:52:46Z</time></trkpt><trkpt lat="35.79029757826592" lon="-5.598441683943039"><ele>215.5</ele><time>2026-04-28T15:52:47Z</time></trkpt><trkpt lat="35.790481703318264" lon="-5.598211658931723"><ele>217.0</ele><time>2026-04-28T15:52:48Z</time></trkpt><trkpt lat="35.79066052625029" lon="-5.5979896349454155"><ele>222.5</ele><time>2026-04-28T15:52:49Z</time></trkpt><trkpt lat="35.79083023953232" lon="-5.59778202245018"><ele>228.0</ele><time>2026-04-28T15:52:50Z</time></trkpt><trkpt lat="35.79098811566233" lon="-5.597587163054979"><ele>227.33333333333331</ele><time>2026-04-28T15:52:51Z</time></trkpt><trkpt lat="35.79113416010872" lon="-5.597409184279205"><ele>226.66666666666666</ele><time>2026-04-28T15:52:52Z</time></trkpt><trkpt lat="35.79126869965121" lon="-5.597242555795855"><ele>226.0</ele><time>2026-04-28T15:52:53Z</time></trkpt><trkpt lat="35.79139453619616" lon="-5.597083290202211"><ele>230.33333333333331</ele><time>2026-04-28T15:52:54Z</time></trkpt><trkpt lat="35.791517961483514" lon="-5.596929010209625"><ele>234.66666666666669</ele><time>2026-04-28T15:52:55Z</time></trkpt><trkpt lat="35.79164267737356" lon="-5.596774820284422"><ele>239.0</ele><time>2026-04-28T15:52:56Z</time></trkpt><trkpt lat="35.79176937928081" lon="-5.596617646186056"><ele>241.33333333333334</ele><time>2026-04-28T15:52:57Z</time></trkpt><trkpt lat="35.791891503832375" lon="-5.596466452693883"><ele>243.66666666666669</ele><time>2026-04-28T15:52:58Z</time></trkpt><trkpt lat="35.792005683404916" lon="-5.5963258206379844"><ele>246.0</ele><time>2026-04-28T15:52:59Z</time></trkpt><trkpt lat="35.79211116149711" lon="-5.596194960322948"><ele>250.66666666666669</ele><time>2026-04-28T15:52:59.999Z</time></trkpt><trkpt lat="35.792215258295776" lon="-5.596064434896779"><ele>255.33333333333334</ele><time>2026-04-28T15:53:00.999Z</time></trkpt><trkpt lat="35.792322361771994" lon="-5.59593211400406"><ele>260.0</ele><time>2026-04-28T15:53:01.999Z</time></trkpt><trkpt lat="35.79243175599869" lon="-5.595798486722019"><ele>260.0</ele><time>2026-04-28T15:53:02.999Z</time></trkpt><trkpt lat="35.79254295216776" lon="-5.595660895323103"><ele>260.0</ele><time>2026-04-28T15:53:03.999Z</time></trkpt><trkpt lat="35.79265635004323" lon="-5.595521446980712"><ele>260.0</ele><time>2026-04-28T15:53:04.999Z</time></trkpt><trkpt lat="35.79276919798788" lon="-5.595382214569474"><ele>261.0</ele><time>2026-04-28T15:53:05.999Z</time></trkpt><trkpt lat="35.792882563113196" lon="-5.595239144020684"><ele>262.0</ele><time>2026-04-28T15:53:06.999Z</time></trkpt><trkpt lat="35.79299009147" lon="-5.595102109281071"><ele>263.0</ele><time>2026-04-28T15:53:07.999Z</time></trkpt><trkpt lat="35.793092852145676" lon="-5.594967234282329"><ele>263.0</ele><time>2026-04-28T15:53:08.999Z</time></trkpt><trkpt lat="35.79318745091279" lon="-5.594836711914133"><ele>263.0</ele><time>2026-04-28T15:53:09.999Z</time></trkpt><trkpt lat="35.7932775772349" lon="-5.594707707843337"><ele>263.0</ele><time>2026-04-28T15:53:10.999Z</time></trkpt><trkpt lat="35.79336525228386" lon="-5.594581471040513"><ele>263.0</ele><time>2026-04-28T15:53:11.999Z</time></trkpt><trkpt lat="35.793452409660624" lon="-5.594453424706285"><ele>258.5</ele><time>2026-04-28T15:53:12.999Z</time></trkpt><trkpt lat="35.79354054003608" lon="-5.5943239557330395"><ele>254.0</ele><time>2026-04-28T15:53:13.999Z</time></trkpt><trkpt lat="35.793628486601705" lon="-5.594189764323678"><ele>249.5</ele><time>2026-04-28T15:53:14.999Z</time></trkpt><trkpt lat="35.79371928446522" lon="-5.594046576031885"><ele>245.0</ele><time>2026-04-28T15:53:15.999Z</time></trkpt><trkpt lat="35.793816065428025" lon="-5.5938909084065305"><ele>245.0</ele><time>2026-04-28T15:53:16.999Z</time></trkpt><trkpt lat="35.793915530188094" lon="-5.5937292674470305"><ele>245.0</ele><time>2026-04-28T15:53:17.999Z</time></trkpt><trkpt lat="35.79401633159033" lon="-5.593562215784047"><ele>245.0</ele><time>2026-04-28T15:53:18.999Z</time></trkpt><trkpt lat="35.79411884745843" lon="-5.593393248641575"><ele>241.33333333333334</ele><time>2026-04-28T15:53:19.999Z</time></trkpt><trkpt lat="35.794220179812626" lon="-5.59322018220689"><ele>237.66666666666669</ele><time>2026-04-28T15:53:20.999Z</time></trkpt><trkpt lat="35.794318635662194" lon="-5.593043825760864"><ele>234.0</ele><time>2026-04-28T15:53:21.999Z</time></trkpt><trkpt lat="35.79441620227525" lon="-5.592861956687123"><ele>227.66666666666669</ele><time>2026-04-28T15:53:22.999Z</time></trkpt><trkpt lat="35.794513740242266" lon="-5.592677926662865"><ele>221.33333333333334</ele><time>2026-04-28T15:53:23.999Z</time></trkpt><trkpt lat="35.7946072016135" lon="-5.59249307156714"><ele>215.0</ele><time>2026-04-28T15:53:25Z</time></trkpt><trkpt lat="35.79469708001609" lon="-5.592309681278253"><ele>215.0</ele><time>2026-04-28T15:53:26Z</time></trkpt><trkpt lat="35.794781180022206" lon="-5.592131869184621"><ele>215.0</ele><time>2026-04-28T15:53:27Z</time></trkpt><trkpt lat="35.79486075163149" lon="-5.591955588899525"><ele>215.0</ele><time>2026-04-28T15:53:28Z</time></trkpt><trkpt lat="35.79493821142959" lon="-5.591779828535756"><ele>212.66666666666669</ele><time>2026-04-28T15:53:29Z</time></trkpt><trkpt lat="35.79501575874609" lon="-5.591605733063463"><ele>210.33333333333331</ele><time>2026-04-28T15:53:30Z</time></trkpt><trkpt lat="35.795088809230535" lon="-5.591431838497712"><ele>208.0</ele><time>2026-04-28T15:53:31Z</time></trkpt><trkpt lat="35.79515967116035" lon="-5.591257756220776"><ele>201.33333333333331</ele><time>2026-04-28T15:53:32Z</time></trkpt><trkpt lat="35.795230457671124" lon="-5.591080668407933"><ele>194.66666666666666</ele><time>2026-04-28T15:53:33Z</time></trkpt><trkpt lat="35.795300606431724" lon="-5.590902652901692"><ele>188.0</ele><time>2026-04-28T15:53:34Z</time></trkpt><trkpt lat="35.795370962431825" lon="-5.5907209893272265"><ele>188.0</ele><time>2026-04-28T15:53:35Z</time></trkpt><trkpt lat="35.7954400637469" lon="-5.5905387570308145"><ele>188.0</ele><time>2026-04-28T15:53:36Z</time></trkpt><trkpt lat="35.795506313419914" lon="-5.590352370610624"><ele>188.0</ele><time>2026-04-28T15:53:37Z</time></trkpt><trkpt lat="35.79557144125441" lon="-5.590162701878157"><ele>186.0</ele><time>2026-04-28T15:53:38Z</time></trkpt><trkpt lat="35.795634826614005" lon="-5.5899702354942455"><ele>184.0</ele><time>2026-04-28T15:53:39Z</time></trkpt><trkpt lat="35.795699401036735" lon="-5.589775847112818"><ele>182.0</ele><time>2026-04-28T15:53:40Z</time></trkpt><trkpt lat="35.79576681728357" lon="-5.5895830748051365"><ele>180.33333333333331</ele><time>2026-04-28T15:53:41Z</time></trkpt><trkpt lat="35.795831652997094" lon="-5.589393554955335"><ele>178.66666666666666</ele><time>2026-04-28T15:53:42Z</time></trkpt><trkpt lat="35.79589280784548" lon="-5.589212667919691"><ele>177.0</ele><time>2026-04-28T15:53:43Z</time></trkpt><trkpt lat="35.79595083849098" lon="-5.5890382930063875"><ele>182.0</ele><time>2026-04-28T15:53:44Z</time></trkpt><trkpt lat="35.796008782734305" lon="-5.588863811910202"><ele>187.0</ele><time>2026-04-28T15:53:45Z</time></trkpt><trkpt lat="35.796069365191734" lon="-5.5886872430311625"><ele>192.0</ele><time>2026-04-28T15:53:46Z</time></trkpt><trkpt lat="35.79613111726008" lon="-5.588507329628711"><ele>192.0</ele><time>2026-04-28T15:53:47Z</time></trkpt><trkpt lat="35.79619272142375" lon="-5.588327989518303"><ele>192.0</ele><time>2026-04-28T15:53:48Z</time></trkpt><trkpt lat="35.796253940308986" lon="-5.588151310670383"><ele>192.0</ele><time>2026-04-28T15:53:49Z</time></trkpt><trkpt lat="35.79631495175371" lon="-5.587973732565936"><ele>191.66666666666666</ele><time>2026-04-28T15:53:50Z</time></trkpt><trkpt lat="35.79637734477235" lon="-5.58779151252576"><ele>191.33333333333331</ele><time>2026-04-28T15:53:51Z</time></trkpt><trkpt lat="35.796439926927725" lon="-5.587607939271634"><ele>191.0</ele><time>2026-04-28T15:53:52Z</time></trkpt><trkpt lat="35.79650258660621" lon="-5.587420355039199"><ele>191.0</ele><time>2026-04-28T15:53:53Z</time></trkpt><trkpt lat="35.79656563481059" lon="-5.587231802245145"><ele>191.0</ele><time>2026-04-28T15:53:54Z</time></trkpt><trkpt lat="35.79663023695691" lon="-5.587042381321145"><ele>191.0</ele><time>2026-04-28T15:53:55Z</time></trkpt><trkpt lat="35.79669396242178" lon="-5.586853467599061"><ele>190.33333333333331</ele><time>2026-04-28T15:53:56Z</time></trkpt><trkpt lat="35.796760259887726" lon="-5.586662849577779"><ele>189.66666666666666</ele><time>2026-04-28T15:53:57Z</time></trkpt><trkpt lat="35.79682723643583" lon="-5.586469619658225"><ele>189.0</ele><time>2026-04-28T15:53:58Z</time></trkpt><trkpt lat="35.79689368498857" lon="-5.586274583418295"><ele>194.33333333333331</ele><time>2026-04-28T15:53:59Z</time></trkpt><trkpt lat="35.79696104202149" lon="-5.586075290778265"><ele>199.66666666666666</ele><time>2026-04-28T15:54:00Z</time></trkpt><trkpt lat="35.7970298247834" lon="-5.58587246578162"><ele>205.0</ele><time>2026-04-28T15:54:01Z</time></trkpt><trkpt lat="35.797101770617054" lon="-5.585660398654508"><ele>205.0</ele><time>2026-04-28T15:54:02Z</time></trkpt><trkpt lat="35.79717687465089" lon="-5.585439948107668"><ele>205.0</ele><time>2026-04-28T15:54:03Z</time></trkpt><trkpt lat="35.79725509146192" lon="-5.585213595849868"><ele>205.0</ele><time>2026-04-28T15:54:04Z</time></trkpt><trkpt lat="35.79733644650264" lon="-5.584983026587517"><ele>203.33333333333331</ele><time>2026-04-28T15:54:05Z</time></trkpt><trkpt lat="35.79741770436225" lon="-5.584747400792761"><ele>201.66666666666669</ele><time>2026-04-28T15:54:06Z</time></trkpt><trkpt lat="35.79749893597747" lon="-5.584511764284492"><ele>200.0</ele><time>2026-04-28T15:54:07Z</time></trkpt><trkpt lat="35.79758187994128" lon="-5.584272486415273"><ele>194.33333333333334</ele><time>2026-04-28T15:54:08Z</time></trkpt><trkpt lat="35.79766551396522" lon="-5.584029343327847"><ele>188.66666666666669</ele><time>2026-04-28T15:54:09Z</time></trkpt><trkpt lat="35.79775026201409" lon="-5.5837840368201155"><ele>183.0</ele><time>2026-04-28T15:54:10Z</time></trkpt><trkpt lat="35.79783530505547" lon="-5.583536922017093"><ele>178.33333333333334</ele><time>2026-04-28T15:54:11Z</time></trkpt><trkpt lat="35.79792309855686" lon="-5.583286329097237"><ele>173.66666666666669</ele><time>2026-04-28T15:54:12Z</time></trkpt><trkpt lat="35.798011690760944" lon="-5.5830274191946305"><ele>169.0</ele><time>2026-04-28T15:54:13Z</time></trkpt><trkpt lat="35.79810560836643" lon="-5.582760313876091"><ele>157.5</ele><time>2026-04-28T15:54:14Z</time></trkpt><trkpt lat="35.79820372778792" lon="-5.582488398618671"><ele>146.0</ele><time>2026-04-28T15:54:15Z</time></trkpt><trkpt lat="35.79830625077311" lon="-5.582206856714123"><ele>144.0</ele><time>2026-04-28T15:54:16Z</time></trkpt><trkpt lat="35.798411751191" lon="-5.581916177391771"><ele>142.0</ele><time>2026-04-28T15:54:17Z</time></trkpt><trkpt lat="35.798517408184345" lon="-5.581620655566807"><ele>142.0</ele><time>2026-04-28T15:54:18Z</time></trkpt><trkpt lat="35.79862237206097" lon="-5.58131715207475"><ele>142.0</ele><time>2026-04-28T15:54:19Z</time></trkpt><trkpt lat="35.7987268012574" lon="-5.581005473454856"><ele>138.5</ele><time>2026-04-28T15:54:20Z</time></trkpt><trkpt lat="35.79883251827577" lon="-5.580692563876213"><ele>135.0</ele><time>2026-04-28T15:54:21Z</time></trkpt><trkpt lat="35.798939545781444" lon="-5.580372481581436"><ele>129.0</ele><time>2026-04-28T15:54:22Z</time></trkpt><trkpt lat="35.79905047844168" lon="-5.580052545152549"><ele>123.0</ele><time>2026-04-28T15:54:23Z</time></trkpt><trkpt lat="35.79916037406541" lon="-5.579729111134459"><ele>123.5</ele><time>2026-04-28T15:54:24Z</time></trkpt><trkpt lat="35.799266852181795" lon="-5.579402066612708"><ele>124.0</ele><time>2026-04-28T15:54:25Z</time></trkpt><trkpt lat="35.79937067654923" lon="-5.57907390405428"><ele>132.5</ele><time>2026-04-28T15:54:26Z</time></trkpt><trkpt lat="35.79947548998129" lon="-5.578744062798115"><ele>141.0</ele><time>2026-04-28T15:54:27Z</time></trkpt><trkpt lat="35.79958376321942" lon="-5.578411392281734"><ele>141.5</ele><time>2026-04-28T15:54:28Z</time></trkpt><trkpt lat="35.79969583050362" lon="-5.578075028509101"><ele>142.0</ele><time>2026-04-28T15:54:29Z</time></trkpt><trkpt lat="35.79980915485907" lon="-5.577738242884115"><ele>138.0</ele><time>2026-04-28T15:54:30Z</time></trkpt><trkpt lat="35.79992688900844" lon="-5.577399441795847"><ele>134.0</ele><time>2026-04-28T15:54:31Z</time></trkpt><trkpt lat="35.80005019022227" lon="-5.577061317820645"><ele>131.5</ele><time>2026-04-28T15:54:32Z</time></trkpt><trkpt lat="35.80018275610212" lon="-5.576727265983691"><ele>129.0</ele><time>2026-04-28T15:54:33Z</time></trkpt><trkpt lat="35.80032694470909" lon="-5.5763991904862245"><ele>129.5</ele><time>2026-04-28T15:54:34Z</time></trkpt><trkpt lat="35.80048499091511" lon="-5.576076575465663"><ele>130.0</ele><time>2026-04-28T15:54:35Z</time></trkpt><trkpt lat="35.800654861081235" lon="-5.575760561669919"><ele>130.0</ele><time>2026-04-28T15:54:36Z</time></trkpt><trkpt lat="35.80083127304565" lon="-5.575448123333493"><ele>130.0</ele><time>2026-04-28T15:54:37Z</time></trkpt><trkpt lat="35.80101537911548" lon="-5.57514311538486"><ele>122.5</ele><time>2026-04-28T15:54:38Z</time></trkpt><trkpt lat="35.80120976528529" lon="-5.574846804831248"><ele>115.0</ele><time>2026-04-28T15:54:39Z</time></trkpt><trkpt lat="35.80141234210083" lon="-5.574558976425853"><ele>109.0</ele><time>2026-04-28T15:54:40Z</time></trkpt><trkpt lat="35.80162293220718" lon="-5.57427875869338"><ele>103.0</ele><time>2026-04-28T15:54:41Z</time></trkpt><trkpt lat="35.80184244173295" lon="-5.57400319076524"><ele>103.0</ele><time>2026-04-28T15:54:42Z</time></trkpt><trkpt lat="35.802069209593256" lon="-5.573734128504013"><ele>103.0</ele><time>2026-04-28T15:54:43Z</time></trkpt><trkpt lat="35.80230416508121" lon="-5.573476162081225"><ele>102.0</ele><time>2026-04-28T15:54:44Z</time></trkpt><trkpt lat="35.80254753900932" lon="-5.573228674795357"><ele>101.0</ele><time>2026-04-28T15:54:45Z</time></trkpt><trkpt lat="35.80279997657392" lon="-5.572991359341564"><ele>93.5</ele><time>2026-04-28T15:54:46Z</time></trkpt><trkpt lat="35.80305899696693" lon="-5.572764520861009"><ele>86.0</ele><time>2026-04-28T15:54:47Z</time></trkpt><trkpt lat="35.803325560029805" lon="-5.5725485257033585"><ele>93.5</ele><time>2026-04-28T15:54:48Z</time></trkpt><trkpt lat="35.80359808894503" lon="-5.572342977758204"><ele>101.0</ele><time>2026-04-28T15:54:49Z</time></trkpt><trkpt lat="35.80387718603792" lon="-5.572148982080495"><ele>97.5</ele><time>2026-04-28T15:54:50Z</time></trkpt><trkpt lat="35.804160089721115" lon="-5.571962347163959"><ele>94.0</ele><time>2026-04-28T15:54:51Z</time></trkpt><trkpt lat="35.80444515378737" lon="-5.571781963264759"><ele>101.0</ele><time>2026-04-28T15:54:52Z</time></trkpt><trkpt lat="35.804733454421715" lon="-5.571605323614457"><ele>108.0</ele><time>2026-04-28T15:54:53Z</time></trkpt><trkpt lat="35.80502315420021" lon="-5.571427047407603"><ele>108.0</ele><time>2026-04-28T15:54:54Z</time></trkpt><trkpt lat="35.80531431740751" lon="-5.571248235683673"><ele>108.0</ele><time>2026-04-28T15:54:55Z</time></trkpt><trkpt lat="35.805605798425105" lon="-5.571069623515007"><ele>108.0</ele><time>2026-04-28T15:54:56Z</time></trkpt><trkpt lat="35.805899134266895" lon="-5.570889944363547"><ele>108.0</ele><time>2026-04-28T15:54:57Z</time></trkpt><trkpt lat="35.80619515990009" lon="-5.5707108323604855"><ele>105.5</ele><time>2026-04-28T15:54:58Z</time></trkpt><trkpt lat="35.80649221959507" lon="-5.570533346510095"><ele>103.0</ele><time>2026-04-28T15:54:58.999Z</time></trkpt><trkpt lat="35.806789177557995" lon="-5.570356501202916"><ele>92.5</ele><time>2026-04-28T15:54:59.999Z</time></trkpt><trkpt lat="35.807086051964255" lon="-5.570179012570372"><ele>82.0</ele><time>2026-04-28T15:55:00.999Z</time></trkpt><trkpt lat="35.80738203800793" lon="-5.569999566529051"><ele>90.5</ele><time>2026-04-28T15:55:01.999Z</time></trkpt><trkpt lat="35.80767821232743" lon="-5.56981792156642"><ele>99.0</ele><time>2026-04-28T15:55:02.999Z</time></trkpt><trkpt lat="35.807973230872484" lon="-5.569631963409018"><ele>103.0</ele><time>2026-04-28T15:55:03.999Z</time></trkpt><trkpt lat="35.80826764549678" lon="-5.569446856725859"><ele>107.0</ele><time>2026-04-28T15:55:04.999Z</time></trkpt><trkpt lat="35.808563567873975" lon="-5.56926546299584"><ele>107.0</ele><time>2026-04-28T15:55:05.999Z</time></trkpt><trkpt lat="35.80886084755849" lon="-5.569085168435946"><ele>107.0</ele><time>2026-04-28T15:55:06.999Z</time></trkpt><trkpt lat="35.80915703050527" lon="-5.5689034045140335"><ele>111.5</ele><time>2026-04-28T15:55:07.999Z</time></trkpt><trkpt lat="35.80944923904012" lon="-5.568724947838545"><ele>116.0</ele><time>2026-04-28T15:55:08.999Z</time></trkpt><trkpt lat="35.80973632357126" lon="-5.568548342948164"><ele>116.0</ele><time>2026-04-28T15:55:09.999Z</time></trkpt><trkpt lat="35.810024597952626" lon="-5.568370508080008"><ele>116.0</ele><time>2026-04-28T15:55:10.999Z</time></trkpt><trkpt lat="35.81031210730179" lon="-5.568193280929773"><ele>111.0</ele><time>2026-04-28T15:55:11.999Z</time></trkpt><trkpt lat="35.8106004362577" lon="-5.568015362635539"><ele>106.0</ele><time>2026-04-28T15:55:12.999Z</time></trkpt><trkpt lat="35.81088877736324" lon="-5.567837738296934"><ele>106.0</ele><time>2026-04-28T15:55:13.999Z</time></trkpt><trkpt lat="35.81117689086246" lon="-5.567660962677575"><ele>106.0</ele><time>2026-04-28T15:55:14.999Z</time></trkpt><trkpt lat="35.8114664745237" lon="-5.567485751256563"><ele>106.0</ele><time>2026-04-28T15:55:15.999Z</time></trkpt><trkpt lat="35.81175688907865" lon="-5.567309334329808"><ele>106.0</ele><time>2026-04-28T15:55:16.999Z</time></trkpt><trkpt lat="35.8120474367505" lon="-5.567133126681064"><ele>86.5</ele><time>2026-04-28T15:55:17.999Z</time></trkpt><trkpt lat="35.81233946798443" lon="-5.5669543598727165"><ele>67.0</ele><time>2026-04-28T15:55:18.999Z</time></trkpt><trkpt lat="35.81263292759144" lon="-5.566774773631833"><ele>59.5</ele><time>2026-04-28T15:55:19.999Z</time></trkpt><trkpt lat="35.81292575528181" lon="-5.566593944099431"><ele>52.0</ele><time>2026-04-28T15:55:20.999Z</time></trkpt><trkpt lat="35.81322091905811" lon="-5.566413023832257"><ele>45.0</ele><time>2026-04-28T15:55:21.999Z</time></trkpt><trkpt lat="35.81351483756541" lon="-5.566234423467769"><ele>38.0</ele><time>2026-04-28T15:55:22.999Z</time></trkpt><trkpt lat="35.81380888907915" lon="-5.566053279346883"><ele>28.0</ele><time>2026-04-28T15:55:23.999Z</time></trkpt><trkpt lat="35.81410434094533" lon="-5.565872464538338"><ele>18.0</ele><time>2026-04-28T15:55:24.999Z</time></trkpt><trkpt lat="35.81439909121837" lon="-5.565690978749478"><ele>16.0</ele><time>2026-04-28T15:55:25.999Z</time></trkpt><trkpt lat="35.81469531451362" lon="-5.565508706722751"><ele>14.0</ele><time>2026-04-28T15:55:26.999Z</time></trkpt><trkpt lat="35.81498981818224" lon="-5.565329719824722"><ele>11.5</ele><time>2026-04-28T15:55:27.999Z</time></trkpt><trkpt lat="35.815285155931214" lon="-5.565152460322616"><ele>9.0</ele><time>2026-04-28T15:55:28.999Z</time></trkpt><trkpt lat="35.81558121601537" lon="-5.564978599841066"><ele>9.0</ele><time>2026-04-28T15:55:29.999Z</time></trkpt><trkpt lat="35.81588120400411" lon="-5.56480545443828"><ele>9.0</ele><time>2026-04-28T15:55:31Z</time></trkpt><trkpt lat="35.816182256662984" lon="-5.564633278365261"><ele>9.0</ele><time>2026-04-28T15:55:32Z</time></trkpt><trkpt lat="35.816485609268355" lon="-5.56446070570549"><ele>9.0</ele><time>2026-04-28T15:55:33Z</time></trkpt><trkpt lat="35.8167899084592" lon="-5.564288647872011"><ele>8.0</ele><time>2026-04-28T15:55:34Z</time></trkpt><trkpt lat="35.81709461727173" lon="-5.564121706137012"><ele>7.0</ele><time>2026-04-28T15:55:35Z</time></trkpt><trkpt lat="35.81739934708885" lon="-5.5639580563547195"><ele>7.5</ele><time>2026-04-28T15:55:36Z</time></trkpt><trkpt lat="35.81770608293348" lon="-5.563800130143582"><ele>8.0</ele><time>2026-04-28T15:55:37Z</time></trkpt><trkpt lat="35.81801066599715" lon="-5.563641906159071"><ele>7.0</ele><time>2026-04-28T15:55:38Z</time></trkpt><trkpt lat="35.818319309516966" lon="-5.563485554683603"><ele>6.0</ele><time>2026-04-28T15:55:39Z</time></trkpt><trkpt lat="35.818624776337664" lon="-5.563329179190267"><ele>6.0</ele><time>2026-04-28T15:55:40Z</time></trkpt><trkpt lat="35.818934682861155" lon="-5.56317723471261"><ele>6.0</ele><time>2026-04-28T15:55:41Z</time></trkpt><trkpt lat="35.81924685471822" lon="-5.563027848634467"><ele>6.0</ele><time>2026-04-28T15:55:42Z</time></trkpt><trkpt lat="35.81955769507696" lon="-5.562879802291858"><ele>6.0</ele><time>2026-04-28T15:55:43Z</time></trkpt><trkpt lat="35.819868310147214" lon="-5.562733235452937"><ele>6.0</ele><time>2026-04-28T15:55:44Z</time></trkpt><trkpt lat="35.82017587618465" lon="-5.562594933241926"><ele>6.0</ele><time>2026-04-28T15:55:45Z</time></trkpt><trkpt lat="35.820482167173815" lon="-5.562459650724568"><ele>6.0</ele><time>2026-04-28T15:55:46Z</time></trkpt><trkpt lat="35.82078850281225" lon="-5.5623256781037025"><ele>6.0</ele><time>2026-04-28T15:55:47Z</time></trkpt><trkpt lat="35.82109588472586" lon="-5.562191150760483"><ele>6.5</ele><time>2026-04-28T15:55:48Z</time></trkpt><trkpt lat="35.82140334451879" lon="-5.56205959921339"><ele>7.0</ele><time>2026-04-28T15:55:49Z</time></trkpt><trkpt lat="35.821709763154225" lon="-5.561930488502859"><ele>7.5</ele><time>2026-04-28T15:55:50Z</time></trkpt><trkpt lat="35.822014875271485" lon="-5.561803311200156"><ele>8.0</ele><time>2026-04-28T15:55:51Z</time></trkpt><trkpt lat="35.822321653321545" lon="-5.561677568118062"><ele>8.0</ele><time>2026-04-28T15:55:52Z</time></trkpt><trkpt lat="35.82263195967127" lon="-5.561554554401116"><ele>8.0</ele><time>2026-04-28T15:55:53Z</time></trkpt><trkpt lat="35.82294324785251" lon="-5.561437110400179"><ele>7.0</ele><time>2026-04-28T15:55:54Z</time></trkpt><trkpt lat="35.82325339872296" lon="-5.561321178018593"><ele>6.0</ele><time>2026-04-28T15:55:55Z</time></trkpt><trkpt lat="35.823564579679676" lon="-5.56120602859248"><ele>5.5</ele><time>2026-04-28T15:55:56Z</time></trkpt><trkpt lat="35.823875455269075" lon="-5.56109133144422"><ele>5.0</ele><time>2026-04-28T15:55:57Z</time></trkpt><trkpt lat="35.824185826307655" lon="-5.56097684811108"><ele>5.0</ele><time>2026-04-28T15:55:58Z</time></trkpt><trkpt lat="35.82449728345916" lon="-5.560861452210458"><ele>5.0</ele><time>2026-04-28T15:55:59Z</time></trkpt><trkpt lat="35.82481087054716" lon="-5.560749033972901"><ele>5.0</ele><time>2026-04-28T15:56:00Z</time></trkpt><trkpt lat="35.82512551119505" lon="-5.560642713341064"><ele>5.0</ele><time>2026-04-28T15:56:01Z</time></trkpt><trkpt lat="35.825439978213566" lon="-5.5605427512264125"><ele>5.0</ele><time>2026-04-28T15:56:02Z</time></trkpt><trkpt lat="35.82575787069892" lon="-5.560448447503943"><ele>5.0</ele><time>2026-04-28T15:56:03Z</time></trkpt><trkpt lat="35.826076181820866" lon="-5.560357021454792"><ele>6.0</ele><time>2026-04-28T15:56:04Z</time></trkpt><trkpt lat="35.82639473262839" lon="-5.560271603386326"><ele>7.0</ele><time>2026-04-28T15:56:05Z</time></trkpt><trkpt lat="35.82671269445108" lon="-5.560187388129266"><ele>6.0</ele><time>2026-04-28T15:56:06Z</time></trkpt><trkpt lat="35.82703005011625" lon="-5.560104758188728"><ele>5.0</ele><time>2026-04-28T15:56:07Z</time></trkpt><trkpt lat="35.82734995767432" lon="-5.560019858423103"><ele>3.0</ele><time>2026-04-28T15:56:08Z</time></trkpt><trkpt lat="35.827667825158315" lon="-5.559936676974469"><ele>1.0</ele><time>2026-04-28T15:56:09Z</time></trkpt><trkpt lat="35.82797445692504" lon="-5.559855220631114"><ele>1.0</ele><time>2026-04-28T15:56:10Z</time></trkpt><trkpt lat="35.828246036173134" lon="-5.559786359863784"><ele>1.0</ele><time>2026-04-28T15:56:11Z</time></trkpt><trkpt lat="35.828502084983484" lon="-5.559725523297942"><ele>2.5</ele><time>2026-04-28T15:56:12Z</time></trkpt><trkpt lat="35.82875106700541" lon="-5.55966931501534"><ele>4.0</ele><time>2026-04-28T15:56:13Z</time></trkpt><trkpt lat="35.82899885689164" lon="-5.559615392504723"><ele>4.0</ele><time>2026-04-28T15:56:14Z</time></trkpt><trkpt lat="35.829260165016585" lon="-5.559563915536276"><ele>4.0</ele><time>2026-04-28T15:56:15Z</time></trkpt><trkpt lat="35.829532321360254" lon="-5.559514348711799"><ele>4.5</ele><time>2026-04-28T15:56:16Z</time></trkpt><trkpt lat="35.829814414117294" lon="-5.559457379832644"><ele>5.0</ele><time>2026-04-28T15:56:17Z</time></trkpt><trkpt lat="35.83010527959483" lon="-5.559389644486812"><ele>4.5</ele><time>2026-04-28T15:56:18Z</time></trkpt><trkpt lat="35.83040386989257" lon="-5.5593180011929375"><ele>4.0</ele><time>2026-04-28T15:56:19Z</time></trkpt><trkpt lat="35.83070725445223" lon="-5.55924737389389"><ele>3.5</ele><time>2026-04-28T15:56:20Z</time></trkpt><trkpt lat="35.831016337825076" lon="-5.559177860616088"><ele>3.0</ele><time>2026-04-28T15:56:21Z</time></trkpt><trkpt lat="35.83133078852151" lon="-5.55910700576304"><ele>3.0</ele><time>2026-04-28T15:56:22Z</time></trkpt><trkpt lat="35.83164732695606" lon="-5.559035952730808"><ele>3.0</ele><time>2026-04-28T15:56:23Z</time></trkpt><trkpt lat="35.831966084733686" lon="-5.558964948753037"><ele>3.5</ele><time>2026-04-28T15:56:24Z</time></trkpt><trkpt lat="35.832286083012" lon="-5.558892104547939"><ele>4.0</ele><time>2026-04-28T15:56:25Z</time></trkpt><trkpt lat="35.83260899376098" lon="-5.558816028758691"><ele>4.0</ele><time>2026-04-28T15:56:26Z</time></trkpt><trkpt lat="35.83292882616965" lon="-5.558735400953382"><ele>4.0</ele><time>2026-04-28T15:56:27Z</time></trkpt><trkpt lat="35.83324898276246" lon="-5.558655765472587"><ele>5.0</ele><time>2026-04-28T15:56:28Z</time></trkpt><trkpt lat="35.83356769200705" lon="-5.558575944383929"><ele>6.0</ele><time>2026-04-28T15:56:29Z</time></trkpt><trkpt lat="35.833883159665085" lon="-5.558488328887764"><ele>6.0</ele><time>2026-04-28T15:56:30Z</time></trkpt><trkpt lat="35.83419502035699" lon="-5.558388066974299"><ele>6.0</ele><time>2026-04-28T15:56:31Z</time></trkpt><trkpt lat="35.83450183746676" lon="-5.55827601987749"><ele>5.5</ele><time>2026-04-28T15:56:32Z</time></trkpt><trkpt lat="35.83480526049209" lon="-5.558152966150097"><ele>5.0</ele><time>2026-04-28T15:56:33Z</time></trkpt><trkpt lat="35.83510488312052" lon="-5.558022173459419"><ele>4.5</ele><time>2026-04-28T15:56:34Z</time></trkpt><trkpt lat="35.83540129008431" lon="-5.557878074639449"><ele>4.0</ele><time>2026-04-28T15:56:35Z</time></trkpt><trkpt lat="35.83569492927909" lon="-5.557725628943578"><ele>4.0</ele><time>2026-04-28T15:56:36Z</time></trkpt><trkpt lat="35.835985839326895" lon="-5.557562504281565"><ele>4.0</ele><time>2026-04-28T15:56:37Z</time></trkpt><trkpt lat="35.836273965200526" lon="-5.557388287842515"><ele>4.0</ele><time>2026-04-28T15:56:38Z</time></trkpt><trkpt lat="35.836557373172845" lon="-5.557203801752567"><ele>4.0</ele><time>2026-04-28T15:56:39Z</time></trkpt><trkpt lat="35.83683450030752" lon="-5.55700874983113"><ele>6.0</ele><time>2026-04-28T15:56:40Z</time></trkpt><trkpt lat="35.83710605658823" lon="-5.556803943457497"><ele>8.0</ele><time>2026-04-28T15:56:41Z</time></trkpt><trkpt lat="35.83737110761416" lon="-5.556593027257253"><ele>8.0</ele><time>2026-04-28T15:56:42Z</time></trkpt><trkpt lat="35.83762836693684" lon="-5.556376313983673"><ele>8.0</ele><time>2026-04-28T15:56:43Z</time></trkpt><trkpt lat="35.83787935709991" lon="-5.556151542559372"><ele>17.5</ele><time>2026-04-28T15:56:44Z</time></trkpt><trkpt lat="35.83812381077514" lon="-5.555916749284039"><ele>27.0</ele><time>2026-04-28T15:56:45Z</time></trkpt><trkpt lat="35.83836274071733" lon="-5.555671225451501"><ele>27.5</ele><time>2026-04-28T15:56:46Z</time></trkpt><trkpt lat="35.838598320639036" lon="-5.555413683545388"><ele>28.0</ele><time>2026-04-28T15:56:47Z</time></trkpt><trkpt lat="35.8388283182181" lon="-5.555147000484649"><ele>28.0</ele><time>2026-04-28T15:56:48Z</time></trkpt><trkpt lat="35.83905205553473" lon="-5.554874191729496"><ele>28.0</ele><time>2026-04-28T15:56:49Z</time></trkpt><trkpt lat="35.839267145689334" lon="-5.554595649940266"><ele>32.0</ele><time>2026-04-28T15:56:50Z</time></trkpt><trkpt lat="35.839474903323385" lon="-5.554309164919955"><ele>36.0</ele><time>2026-04-28T15:56:51Z</time></trkpt><trkpt lat="35.839675679349845" lon="-5.554015188555861"><ele>36.0</ele><time>2026-04-28T15:56:52Z</time></trkpt><trkpt lat="35.839871165907155" lon="-5.553714349193142"><ele>36.0</ele><time>2026-04-28T15:56:53Z</time></trkpt><trkpt lat="35.840061206207565" lon="-5.553406620447143"><ele>40.0</ele><time>2026-04-28T15:56:54Z</time></trkpt><trkpt lat="35.84024885859794" lon="-5.553099033685947"><ele>44.0</ele><time>2026-04-28T15:56:55Z</time></trkpt><trkpt lat="35.84043496292056" lon="-5.552792165735375"><ele>50.0</ele><time>2026-04-28T15:56:56Z</time></trkpt><trkpt lat="35.840623135620085" lon="-5.552484892936042"><ele>56.0</ele><time>2026-04-28T15:56:57Z</time></trkpt><trkpt lat="35.84081205855835" lon="-5.552177733757626"><ele>55.0</ele><time>2026-04-28T15:56:58Z</time></trkpt><trkpt lat="35.84100229217393" lon="-5.551872963460297"><ele>54.0</ele><time>2026-04-28T15:56:59Z</time></trkpt><trkpt lat="35.8411919611902" lon="-5.551569111250772"><ele>54.0</ele><time>2026-04-28T15:57:00Z</time></trkpt><trkpt lat="35.84138191832596" lon="-5.551264663731057"><ele>54.0</ele><time>2026-04-28T15:57:01Z</time></trkpt><trkpt lat="35.841571338996594" lon="-5.550959776511825"><ele>58.5</ele><time>2026-04-28T15:57:02Z</time></trkpt><trkpt lat="35.84176193566839" lon="-5.5506578660376285"><ele>63.0</ele><time>2026-04-28T15:57:03Z</time></trkpt><trkpt lat="35.84195336116214" lon="-5.550353865283548"><ele>64.0</ele><time>2026-04-28T15:57:04Z</time></trkpt><trkpt lat="35.84214371715706" lon="-5.550047037401363"><ele>65.0</ele><time>2026-04-28T15:57:04.999Z</time></trkpt><trkpt lat="35.84233359936365" lon="-5.549741581173827"><ele>64.0</ele><time>2026-04-28T15:57:05.999Z</time></trkpt><trkpt lat="35.842519466119505" lon="-5.5494491474098755"><ele>63.0</ele><time>2026-04-28T15:57:06.999Z</time></trkpt><trkpt lat="35.842700343104994" lon="-5.549162427003445"><ele>63.0</ele><time>2026-04-28T15:57:07.999Z</time></trkpt><trkpt lat="35.842879420671004" lon="-5.548877425849976"><ele>63.0</ele><time>2026-04-28T15:57:08.999Z</time></trkpt><trkpt lat="35.84306159343654" lon="-5.54858493223705"><ele>69.0</ele><time>2026-04-28T15:57:09.999Z</time></trkpt><trkpt lat="35.84324320575627" lon="-5.548291381586552"><ele>75.0</ele><time>2026-04-28T15:57:10.999Z</time></trkpt><trkpt lat="35.8434256296082" lon="-5.547993573873012"><ele>74.0</ele><time>2026-04-28T15:57:11.999Z</time></trkpt><trkpt lat="35.84360879124955" lon="-5.547696526247206"><ele>73.0</ele><time>2026-04-28T15:57:12.999Z</time></trkpt><trkpt lat="35.843792548267146" lon="-5.547401101766576"><ele>73.0</ele><time>2026-04-28T15:57:13.999Z</time></trkpt><trkpt lat="35.84397767413964" lon="-5.547105666237974"><ele>73.0</ele><time>2026-04-28T15:57:14.999Z</time></trkpt><trkpt lat="35.8441622631595" lon="-5.54680919274643"><ele>72.5</ele><time>2026-04-28T15:57:15.999Z</time></trkpt><trkpt lat="35.84434664786607" lon="-5.546515058185798"><ele>72.0</ele><time>2026-04-28T15:57:16.999Z</time></trkpt><trkpt lat="35.844533332348924" lon="-5.546219559543269"><ele>78.0</ele><time>2026-04-28T15:57:17.999Z</time></trkpt><trkpt lat="35.844722713814114" lon="-5.5459276742205335"><ele>84.0</ele><time>2026-04-28T15:57:18.999Z</time></trkpt><trkpt lat="35.844917085113636" lon="-5.545639011785996"><ele>82.5</ele><time>2026-04-28T15:57:19.999Z</time></trkpt><trkpt lat="35.84512003889979" lon="-5.545356777557838"><ele>81.0</ele><time>2026-04-28T15:57:20.999Z</time></trkpt><trkpt lat="35.845327076437776" lon="-5.545079292921456"><ele>71.0</ele><time>2026-04-28T15:57:21.999Z</time></trkpt><trkpt lat="35.84554076426571" lon="-5.544806480147768"><ele>61.0</ele><time>2026-04-28T15:57:22.999Z</time></trkpt><trkpt lat="35.84575944157777" lon="-5.54453926340218"><ele>51.0</ele><time>2026-04-28T15:57:23.999Z</time></trkpt><trkpt lat="35.845983531837504" lon="-5.544276113619"><ele>41.0</ele><time>2026-04-28T15:57:24.999Z</time></trkpt><trkpt lat="35.84621316099087" lon="-5.544019554194445"><ele>41.0</ele><time>2026-04-28T15:57:25.999Z</time></trkpt><trkpt lat="35.846445803764965" lon="-5.543770963367987"><ele>41.0</ele><time>2026-04-28T15:57:26.999Z</time></trkpt><trkpt lat="35.84668084026449" lon="-5.543528374088139"><ele>50.0</ele><time>2026-04-28T15:57:27.999Z</time></trkpt><trkpt lat="35.84691926040421" lon="-5.543291182143912"><ele>59.0</ele><time>2026-04-28T15:57:28.999Z</time></trkpt><trkpt lat="35.8471617136329" lon="-5.543054582280163"><ele>67.0</ele><time>2026-04-28T15:57:29.999Z</time></trkpt><trkpt lat="35.84740647307921" lon="-5.542818091665156"><ele>75.0</ele><time>2026-04-28T15:57:30.999Z</time></trkpt><trkpt lat="35.84765445365489" lon="-5.5425770567018136"><ele>78.5</ele><time>2026-04-28T15:57:31.999Z</time></trkpt><trkpt lat="35.84790624682451" lon="-5.542334498519197"><ele>82.0</ele><time>2026-04-28T15:57:32.999Z</time></trkpt><trkpt lat="35.84816118076799" lon="-5.5420921643318515"><ele>82.5</ele><time>2026-04-28T15:57:33.999Z</time></trkpt><trkpt lat="35.848420214091085" lon="-5.541847441142326"><ele>83.0</ele><time>2026-04-28T15:57:34.999Z</time></trkpt><trkpt lat="35.848681747219615" lon="-5.541599603780697"><ele>74.0</ele><time>2026-04-28T15:57:36Z</time></trkpt><trkpt lat="35.848944092636735" lon="-5.541352322397218"><ele>65.0</ele><time>2026-04-28T15:57:37Z</time></trkpt><trkpt lat="35.849209518688156" lon="-5.541100656739254"><ele>56.0</ele><time>2026-04-28T15:57:38Z</time></trkpt><trkpt lat="35.8494873268044" lon="-5.540838256810032"><ele>47.0</ele><time>2026-04-28T15:57:39Z</time></trkpt><trkpt lat="35.8497750503488" lon="-5.540567325055627"><ele>44.0</ele><time>2026-04-28T15:57:40Z</time></trkpt><trkpt lat="35.850069897420134" lon="-5.540286802456743"><ele>41.0</ele><time>2026-04-28T15:57:41Z</time></trkpt><trkpt lat="35.85037915519103" lon="-5.539990274254038"><ele>33.0</ele><time>2026-04-28T15:57:42Z</time></trkpt><trkpt lat="35.850693837832715" lon="-5.539688657260828"><ele>25.0</ele><time>2026-04-28T15:57:43Z</time></trkpt><trkpt lat="35.85102574673509" lon="-5.5393730639577345"><ele>15.0</ele><time>2026-04-28T15:57:44Z</time></trkpt><trkpt lat="35.85135185153128" lon="-5.539060070667368"><ele>5.0</ele><time>2026-04-28T15:57:45Z</time></trkpt><trkpt lat="35.85166514663754" lon="-5.538761308532471"><ele>6.0</ele><time>2026-04-28T15:57:46Z</time></trkpt><trkpt lat="35.85196552701013" lon="-5.5384694785617175"><ele>7.0</ele><time>2026-04-28T15:57:47Z</time></trkpt><trkpt lat="35.85225246798873" lon="-5.538192773626133"><ele>7.0</ele><time>2026-04-28T15:57:48Z</time></trkpt><trkpt lat="35.85253090231758" lon="-5.5379251115207"><ele>7.0</ele><time>2026-04-28T15:57:49Z</time></trkpt><trkpt lat="35.85279033755445" lon="-5.537675421086069"><ele>14.5</ele><time>2026-04-28T15:57:50Z</time></trkpt><trkpt lat="35.85303676737672" lon="-5.537435546199748"><ele>22.0</ele><time>2026-04-28T15:57:51Z</time></trkpt><trkpt lat="35.853269307101066" lon="-5.537212243699163"><ele>26.5</ele><time>2026-04-28T15:57:52Z</time></trkpt><trkpt lat="35.85349198925804" lon="-5.537000120565261"><ele>31.0</ele><time>2026-04-28T15:57:53Z</time></trkpt><trkpt lat="35.85370446530703" lon="-5.536801558092215"><ele>31.0</ele><time>2026-04-28T15:57:54Z</time></trkpt><trkpt lat="35.85390816253972" lon="-5.5366146955789795"><ele>31.0</ele><time>2026-04-28T15:57:55Z</time></trkpt><trkpt lat="35.85410238553855" lon="-5.5364387032673275"><ele>31.0</ele><time>2026-04-28T15:57:56Z</time></trkpt><trkpt lat="35.854288404707425" lon="-5.536272845716522"><ele>31.0</ele><time>2026-04-28T15:57:57Z</time></trkpt><trkpt lat="35.85446802178786" lon="-5.536117881425251"><ele>31.0</ele><time>2026-04-28T15:57:58Z</time></trkpt><trkpt lat="35.85463975630121" lon="-5.535970881929868"><ele>31.0</ele><time>2026-04-28T15:57:59Z</time></trkpt><trkpt lat="35.8548008107194" lon="-5.535833292932877"><ele>31.0</ele><time>2026-04-28T15:58:00Z</time></trkpt><trkpt lat="35.854947384878926" lon="-5.535711212999258"><ele>31.0</ele><time>2026-04-28T15:58:01Z</time></trkpt><trkpt lat="35.85507599514808" lon="-5.535604711396013"><ele>30.5</ele><time>2026-04-28T15:58:02Z</time></trkpt><trkpt lat="35.855191899901065" lon="-5.53550840023064"><ele>30.0</ele><time>2026-04-28T15:58:03Z</time></trkpt><trkpt lat="35.85529944318272" lon="-5.535419113052169"><ele>29.5</ele><time>2026-04-28T15:58:04Z</time></trkpt><trkpt lat="35.85539741657236" lon="-5.5353366670548025"><ele>29.0</ele><time>2026-04-28T15:58:05Z</time></trkpt><trkpt lat="35.85549124576481" lon="-5.535256466842859"><ele>29.0</ele><time>2026-04-28T15:58:06Z</time></trkpt><trkpt lat="35.85557945705979" lon="-5.535179988712565"><ele>29.0</ele><time>2026-04-28T15:58:07Z</time></trkpt><trkpt lat="35.85566336762954" lon="-5.535106977507442"><ele>29.0</ele><time>2026-04-28T15:58:08Z</time></trkpt><trkpt lat="35.85574478787227" lon="-5.535036106057914"><ele>29.0</ele><time>2026-04-28T15:58:09Z</time></trkpt><trkpt lat="35.855822331140274" lon="-5.534969006573175"><ele>29.0</ele><time>2026-04-28T15:58:10Z</time></trkpt><trkpt lat="35.8558959401206" lon="-5.534907155553277"><ele>29.333333333333332</ele><time>2026-04-28T15:58:11Z</time></trkpt><trkpt lat="35.855967319019086" lon="-5.53484734998493"><ele>29.666666666666664</ele><time>2026-04-28T15:58:12Z</time></trkpt><trkpt lat="35.85603152232591" lon="-5.534792260810563"><ele>30.0</ele><time>2026-04-28T15:58:13Z</time></trkpt><trkpt lat="35.85608660866084" lon="-5.534736511480489"><ele>30.333333333333336</ele><time>2026-04-28T15:58:14Z</time></trkpt><trkpt lat="35.856131348673" lon="-5.534672451065499"><ele>30.666666666666668</ele><time>2026-04-28T15:58:15Z</time></trkpt><trkpt lat="35.85616298273864" lon="-5.534600257301484"><ele>31.0</ele><time>2026-04-28T15:58:16Z</time></trkpt><trkpt lat="35.856198032110235" lon="-5.53445889227536"><ele>31.000000000000004</ele><time>2026-04-28T15:58:18Z</time></trkpt><trkpt lat="35.85624002347417" lon="-5.534354868365053"><ele>31.0</ele><time>2026-04-28T15:58:20Z</time></trkpt><trkpt lat="35.85629205516903" lon="-5.534297915776819"><ele>31.0</ele><time>2026-04-28T15:58:22Z</time></trkpt><trkpt lat="35.85636675455969" lon="-5.534267636977745"><ele>31.0</ele><time>2026-04-28T15:59:07Z</time></trkpt><trkpt lat="35.85642915728253" lon="-5.534281358282068"><ele>31.000000000000004</ele><time>2026-04-28T15:59:08.999Z</time></trkpt><trkpt lat="35.8565210125312" lon="-5.534315171219999"><ele>31.0</ele><time>2026-04-28T15:59:10.999Z</time></trkpt><trkpt lat="35.85657962950555" lon="-5.534345744277278"><ele>31.000000000000004</ele><time>2026-04-28T15:59:11.999Z</time></trkpt><trkpt lat="35.85664487901075" lon="-5.534378671836981"><ele>31.0</ele><time>2026-04-28T15:59:12.999Z</time></trkpt><trkpt lat="35.85672055944141" lon="-5.534404012347724"><ele>31.0</ele><time>2026-04-28T15:59:13.999Z</time></trkpt><trkpt lat="35.85680335415337" lon="-5.534417829223696"><ele>31.0</ele><time>2026-04-28T15:59:14.999Z</time></trkpt><trkpt lat="35.856884174509815" lon="-5.534419483905189"><ele>31.000000000000004</ele><time>2026-04-28T15:59:15.999Z</time></trkpt><trkpt lat="35.85696814374066" lon="-5.534413160307814"><ele>31.0</ele><time>2026-04-28T15:59:16.999Z</time></trkpt><trkpt lat="35.85705510170508" lon="-5.534390651460171"><ele>30.166666666666668</ele><time>2026-04-28T15:59:17.999Z</time></trkpt><trkpt lat="35.857139079277644" lon="-5.53435855156049"><ele>29.333333333333336</ele><time>2026-04-28T15:59:18.999Z</time></trkpt><trkpt lat="35.85722473519972" lon="-5.53432199306716"><ele>28.5</ele><time>2026-04-28T15:59:19.999Z</time></trkpt><trkpt lat="35.85730600082982" lon="-5.534286441609732"><ele>27.666666666666664</ele><time>2026-04-28T15:59:20.999Z</time></trkpt><trkpt lat="35.857384440008495" lon="-5.534249722480932"><ele>26.833333333333332</ele><time>2026-04-28T15:59:21.999Z</time></trkpt><trkpt lat="35.85745802062548" lon="-5.534211067714263"><ele>26.0</ele><time>2026-04-28T15:59:22.999Z</time></trkpt><trkpt lat="35.85752825193076" lon="-5.534171883285853"><ele>25.999999999999996</ele><time>2026-04-28T15:59:23.999Z</time></trkpt><trkpt lat="35.857594193804175" lon="-5.534131169835811"><ele>26.0</ele><time>2026-04-28T15:59:24.999Z</time></trkpt><trkpt lat="35.85765577364639" lon="-5.534092873180562"><ele>26.0</ele><time>2026-04-28T15:59:25.999Z</time></trkpt><trkpt lat="35.85771963581629" lon="-5.534052837034864"><ele>26.0</ele><time>2026-04-28T15:59:26.999Z</time></trkpt><trkpt lat="35.857787728869766" lon="-5.534006456693736"><ele>25.999999999999996</ele><time>2026-04-28T15:59:27.999Z</time></trkpt><trkpt lat="35.857858226991674" lon="-5.533955068524461"><ele>26.0</ele><time>2026-04-28T15:59:28.999Z</time></trkpt><trkpt lat="35.85792846598525" lon="-5.533901838174089"><ele>25.166666666666664</ele><time>2026-04-28T15:59:29.999Z</time></trkpt><trkpt lat="35.85799710593854" lon="-5.533847963885604"><ele>24.333333333333332</ele><time>2026-04-28T15:59:30.999Z</time></trkpt><trkpt lat="35.85806872230879" lon="-5.533791311011822"><ele>23.5</ele><time>2026-04-28T15:59:31.999Z</time></trkpt><trkpt lat="35.85814156148576" lon="-5.533733411208159"><ele>22.666666666666664</ele><time>2026-04-28T15:59:32.999Z</time></trkpt><trkpt lat="35.85821593607619" lon="-5.533674220672626"><ele>21.833333333333332</ele><time>2026-04-28T15:59:33.999Z</time></trkpt><trkpt lat="35.85828832732467" lon="-5.533614335939554"><ele>21.0</ele><time>2026-04-28T15:59:34.999Z</time></trkpt><trkpt lat="35.85835823418742" lon="-5.533557772650496"><ele>21.833333333333332</ele><time>2026-04-28T15:59:35.999Z</time></trkpt><trkpt lat="35.85842456309095" lon="-5.533503479836078"><ele>22.666666666666664</ele><time>2026-04-28T15:59:36.999Z</time></trkpt><trkpt lat="35.858487222660855" lon="-5.533449771200522"><ele>23.5</ele><time>2026-04-28T15:59:37.999Z</time></trkpt><trkpt lat="35.85855176526132" lon="-5.533394250759094"><ele>24.333333333333332</ele><time>2026-04-28T15:59:38.999Z</time></trkpt><trkpt lat="35.85861678539951" lon="-5.533340292578676"><ele>25.166666666666664</ele><time>2026-04-28T15:59:39.999Z</time></trkpt><trkpt lat="35.85868055596" lon="-5.533285758887482"><ele>26.0</ele><time>2026-04-28T15:59:40.999Z</time></trkpt><trkpt lat="35.85874432383904" lon="-5.5332305368767045"><ele>26.0</ele><time>2026-04-28T15:59:42Z</time></trkpt><trkpt lat="35.85881553504584" lon="-5.5331701772836785"><ele>26.0</ele><time>2026-04-28T15:59:43Z</time></trkpt><trkpt lat="35.85889195025609" lon="-5.533105553589719"><ele>26.0</ele><time>2026-04-28T15:59:44Z</time></trkpt><trkpt lat="35.85897491645666" lon="-5.533036477550077"><ele>26.0</ele><time>2026-04-28T15:59:45Z</time></trkpt><trkpt lat="35.85906157297785" lon="-5.532965475542573"><ele>26.0</ele><time>2026-04-28T15:59:46Z</time></trkpt><trkpt lat="35.85914920935868" lon="-5.532893009105783"><ele>26.4</ele><time>2026-04-28T15:59:47Z</time></trkpt><trkpt lat="35.85923742423705" lon="-5.532821045840566"><ele>26.8</ele><time>2026-04-28T15:59:48Z</time></trkpt><trkpt lat="35.85932625583361" lon="-5.532747552036832"><ele>27.199999999999996</ele><time>2026-04-28T15:59:49Z</time></trkpt><trkpt lat="35.859415004953284" lon="-5.5326726058685445"><ele>27.599999999999998</ele><time>2026-04-28T15:59:50Z</time></trkpt><trkpt lat="35.8595036015614" lon="-5.532598531670632"><ele>28.0</ele><time>2026-04-28T15:59:51Z</time></trkpt><trkpt lat="35.85958590354852" lon="-5.532528182524728"><ele>28.0</ele><time>2026-04-28T15:59:52Z</time></trkpt><trkpt lat="35.85966429373797" lon="-5.53246063250802"><ele>27.999999999999996</ele><time>2026-04-28T15:59:53Z</time></trkpt><trkpt lat="35.85974523450773" lon="-5.532394373585305"><ele>27.999999999999996</ele><time>2026-04-28T15:59:54Z</time></trkpt><trkpt lat="35.85982817695613" lon="-5.53232712591439"><ele>28.0</ele><time>2026-04-28T15:59:55Z</time></trkpt><trkpt lat="35.85991577243868" lon="-5.532261422285141"><ele>28.0</ele><time>2026-04-28T15:59:56Z</time></trkpt><trkpt lat="35.86000065813494" lon="-5.532195939970971"><ele>28.0</ele><time>2026-04-28T15:59:57Z</time></trkpt><trkpt lat="35.86008164373081" lon="-5.532130133302267"><ele>27.999999999999996</ele><time>2026-04-28T15:59:58Z</time></trkpt><trkpt lat="35.86016654862344" lon="-5.532060595634187"><ele>27.999999999999996</ele><time>2026-04-28T15:59:59Z</time></trkpt><trkpt lat="35.860257402619915" lon="-5.531985970671784"><ele>28.0</ele><time>2026-04-28T16:00:00Z</time></trkpt><trkpt lat="35.860354650566975" lon="-5.531906573164559"><ele>28.0</ele><time>2026-04-28T16:00:01Z</time></trkpt><trkpt lat="35.86045586084852" lon="-5.5318223266027795"><ele>28.5</ele><time>2026-04-28T16:00:02Z</time></trkpt><trkpt lat="35.86055722848791" lon="-5.531734497382114"><ele>29.0</ele><time>2026-04-28T16:00:03Z</time></trkpt><trkpt lat="35.86065791965488" lon="-5.531644650921588"><ele>29.5</ele><time>2026-04-28T16:00:04Z</time></trkpt><trkpt lat="35.86076196782236" lon="-5.531553903685664"><ele>30.0</ele><time>2026-04-28T16:00:05Z</time></trkpt><trkpt lat="35.860870718552256" lon="-5.531459045313251"><ele>29.5</ele><time>2026-04-28T16:00:06Z</time></trkpt><trkpt lat="35.860983869959114" lon="-5.531363647370266"><ele>29.0</ele><time>2026-04-28T16:00:07Z</time></trkpt><trkpt lat="35.86109960955583" lon="-5.531265777819124"><ele>28.5</ele><time>2026-04-28T16:00:08Z</time></trkpt><trkpt lat="35.86121754062322" lon="-5.5311659210201425"><ele>28.0</ele><time>2026-04-28T16:00:09Z</time></trkpt><trkpt lat="35.86133799945942" lon="-5.5310609822079675"><ele>28.0</ele><time>2026-04-28T16:00:10Z</time></trkpt><trkpt lat="35.86146060365908" lon="-5.530953992160841"><ele>28.0</ele><time>2026-04-28T16:00:11Z</time></trkpt><trkpt lat="35.861579299285204" lon="-5.530851373532396"><ele>28.0</ele><time>2026-04-28T16:00:12Z</time></trkpt><trkpt lat="35.861686110635745" lon="-5.530759718376283"><ele>28.0</ele><time>2026-04-28T16:00:13Z</time></trkpt><trkpt lat="35.86178154941444" lon="-5.5306786457646675"><ele>28.4</ele><time>2026-04-28T16:00:14Z</time></trkpt><trkpt lat="35.86186515964197" lon="-5.530606010594233"><ele>28.799999999999997</ele><time>2026-04-28T16:00:15Z</time></trkpt><trkpt lat="35.861940122726885" lon="-5.530537839291643"><ele>29.2</ele><time>2026-04-28T16:00:16Z</time></trkpt><trkpt lat="35.86201209430707" lon="-5.530465963433199"><ele>29.6</ele><time>2026-04-28T16:00:17Z</time></trkpt><trkpt lat="35.86208893559913" lon="-5.5303883966378065"><ele>30.0</ele><time>2026-04-28T16:00:18Z</time></trkpt><trkpt lat="35.86217887269456" lon="-5.530306756213843"><ele>30.0</ele><time>2026-04-28T16:00:19Z</time></trkpt><trkpt lat="35.86227954450685" lon="-5.530221512032479"><ele>30.0</ele><time>2026-04-28T16:00:20Z</time></trkpt><trkpt lat="35.86238491598041" lon="-5.5301306647042665"><ele>30.0</ele><time>2026-04-28T16:00:21Z</time></trkpt><trkpt lat="35.86249505414225" lon="-5.530034693771906"><ele>30.0</ele><time>2026-04-28T16:00:22Z</time></trkpt><trkpt lat="35.862607439215054" lon="-5.529938764952936"><ele>31.75</ele><time>2026-04-28T16:00:23Z</time></trkpt><trkpt lat="35.86272206645445" lon="-5.529843220852749"><ele>33.5</ele><time>2026-04-28T16:00:24Z</time></trkpt><trkpt lat="35.86284017006728" lon="-5.529742682388083"><ele>35.25</ele><time>2026-04-28T16:00:25Z</time></trkpt><trkpt lat="35.86296284138755" lon="-5.529638035626715"><ele>37.0</ele><time>2026-04-28T16:00:26Z</time></trkpt><trkpt lat="35.86308965635969" lon="-5.529530346438544"><ele>37.0</ele><time>2026-04-28T16:00:27Z</time></trkpt><trkpt lat="35.86321858174759" lon="-5.529420951723031"><ele>37.0</ele><time>2026-04-28T16:00:28Z</time></trkpt><trkpt lat="35.86334901889902" lon="-5.529311383526735"><ele>37.0</ele><time>2026-04-28T16:00:29Z</time></trkpt><trkpt lat="35.86347783225718" lon="-5.52920157142097"><ele>32.0</ele><time>2026-04-28T16:00:30Z</time></trkpt><trkpt lat="35.8636057187129" lon="-5.529095219240524"><ele>27.0</ele><time>2026-04-28T16:00:31Z</time></trkpt><trkpt lat="35.86372775314076" lon="-5.528995912752949"><ele>22.0</ele><time>2026-04-28T16:00:32Z</time></trkpt><trkpt lat="35.86384094939116" lon="-5.5289024320498354"><ele>17.0</ele><time>2026-04-28T16:00:33Z</time></trkpt><trkpt lat="35.86394426294127" lon="-5.52881354967447"><ele>17.0</ele><time>2026-04-28T16:00:34Z</time></trkpt><trkpt lat="35.864043574705875" lon="-5.528734291689344"><ele>17.0</ele><time>2026-04-28T16:00:35Z</time></trkpt><trkpt lat="35.864134554408786" lon="-5.528658162537936"><ele>17.0</ele><time>2026-04-28T16:00:36Z</time></trkpt><trkpt lat="35.86422402003685" lon="-5.528584086723511"><ele>17.0</ele><time>2026-04-28T16:00:37Z</time></trkpt><trkpt lat="35.86431360505765" lon="-5.528512154014056"><ele>17.0</ele><time>2026-04-28T16:00:38Z</time></trkpt><trkpt lat="35.864403910855316" lon="-5.528440546064052"><ele>19.0</ele><time>2026-04-28T16:00:39Z</time></trkpt><trkpt lat="35.864493032773616" lon="-5.528365158285109"><ele>21.0</ele><time>2026-04-28T16:00:40Z</time></trkpt><trkpt lat="35.86458281202917" lon="-5.528287798904517"><ele>23.0</ele><time>2026-04-28T16:00:41Z</time></trkpt><trkpt lat="35.86467932945706" lon="-5.528213292813816"><ele>25.0</ele><time>2026-04-28T16:00:42Z</time></trkpt><trkpt lat="35.86477942361153" lon="-5.528134529581175"><ele>25.0</ele><time>2026-04-28T16:00:43Z</time></trkpt><trkpt lat="35.86488558145191" lon="-5.528051572984462"><ele>25.0</ele><time>2026-04-28T16:00:44Z</time></trkpt><trkpt lat="35.86499087382776" lon="-5.527967020579087"><ele>25.0</ele><time>2026-04-28T16:00:45Z</time></trkpt><trkpt lat="35.865096729520175" lon="-5.527882223532088"><ele>25.0</ele><time>2026-04-28T16:00:46Z</time></trkpt><trkpt lat="35.86520376817089" lon="-5.527798619290563"><ele>25.0</ele><time>2026-04-28T16:00:47Z</time></trkpt><trkpt lat="35.86531626841041" lon="-5.527710332936229"><ele>25.0</ele><time>2026-04-28T16:00:48Z</time></trkpt><trkpt lat="35.86543403470607" lon="-5.527617563971646"><ele>25.0</ele><time>2026-04-28T16:00:49Z</time></trkpt><trkpt lat="35.86555839861587" lon="-5.527521890926025"><ele>25.0</ele><time>2026-04-28T16:00:50Z</time></trkpt><trkpt lat="35.865688824620776" lon="-5.52742200417012"><ele>25.0</ele><time>2026-04-28T16:00:51Z</time></trkpt><trkpt lat="35.865826283674295" lon="-5.527314534789084"><ele>25.0</ele><time>2026-04-28T16:00:52Z</time></trkpt><trkpt lat="35.86596853804703" lon="-5.527200452547828"><ele>25.0</ele><time>2026-04-28T16:00:53Z</time></trkpt><trkpt lat="35.86611319146406" lon="-5.527071530531397"><ele>22.0</ele><time>2026-04-28T16:00:54Z</time></trkpt><trkpt lat="35.866259141999365" lon="-5.526939755398907"><ele>19.0</ele><time>2026-04-28T16:00:55Z</time></trkpt><trkpt lat="35.86640385027655" lon="-5.526796591606234"><ele>16.0</ele><time>2026-04-28T16:00:56Z</time></trkpt><trkpt lat="35.866552709051" lon="-5.526641074300363"><ele>16.0</ele><time>2026-04-28T16:00:57Z</time></trkpt><trkpt lat="35.86670320566532" lon="-5.526474148783488"><ele>16.0</ele><time>2026-04-28T16:00:58Z</time></trkpt><trkpt lat="35.866853841945975" lon="-5.5262997294311145"><ele>16.0</ele><time>2026-04-28T16:00:59Z</time></trkpt><trkpt lat="35.86700380161228" lon="-5.526121232051206"><ele>21.333333333333332</ele><time>2026-04-28T16:00:59.999Z</time></trkpt><trkpt lat="35.86714956437493" lon="-5.525933773535742"><ele>26.666666666666664</ele><time>2026-04-28T16:01:00.999Z</time></trkpt><trkpt lat="35.867291984806194" lon="-5.525739854429817"><ele>32.0</ele><time>2026-04-28T16:01:01.999Z</time></trkpt><trkpt lat="35.86742886970295" lon="-5.52554224524781"><ele>34.0</ele><time>2026-04-28T16:01:02.999Z</time></trkpt><trkpt lat="35.86756079798298" lon="-5.525345726388018"><ele>36.0</ele><time>2026-04-28T16:01:03.999Z</time></trkpt><trkpt lat="35.867684335372914" lon="-5.5251540449202095"><ele>38.0</ele><time>2026-04-28T16:01:04.999Z</time></trkpt><trkpt lat="35.86779690856578" lon="-5.524970598228631"><ele>40.33333333333333</ele><time>2026-04-28T16:01:05.999Z</time></trkpt><trkpt lat="35.867896881281155" lon="-5.5247986204982595"><ele>42.666666666666664</ele><time>2026-04-28T16:01:06.999Z</time></trkpt><trkpt lat="35.86798721664731" lon="-5.524631405527401"><ele>45.0</ele><time>2026-04-28T16:01:07.999Z</time></trkpt><trkpt lat="35.868066428941" lon="-5.524476826568398"><ele>46.8</ele><time>2026-04-28T16:01:08.999Z</time></trkpt><trkpt lat="35.86813156957377" lon="-5.524340861023893"><ele>48.6</ele><time>2026-04-28T16:01:09.999Z</time></trkpt><trkpt lat="35.868185405348825" lon="-5.524217444708303"><ele>50.400000000000006</ele><time>2026-04-28T16:01:10.999Z</time></trkpt><trkpt lat="35.86822816845618" lon="-5.524106992632691"><ele>52.2</ele><time>2026-04-28T16:01:11.999Z</time></trkpt><trkpt lat="35.86825693132969" lon="-5.524008822742429"><ele>54.0</ele><time>2026-04-28T16:01:12.999Z</time></trkpt><trkpt lat="35.86827501882514" lon="-5.523918245246482"><ele>54.0</ele><time>2026-04-28T16:01:13.999Z</time></trkpt><trkpt lat="35.86829370374028" lon="-5.523838068787276"><ele>54.0</ele><time>2026-04-28T16:01:14.999Z</time></trkpt><trkpt lat="35.8683570114565" lon="-5.5237295079384205"><ele>54.0</ele><time>2026-04-28T16:01:15.999Z</time></trkpt><trkpt lat="35.86847047295463" lon="-5.523699347115889"><ele>54.0</ele><time>2026-04-28T16:01:18.999Z</time></trkpt><trkpt lat="35.86861222340896" lon="-5.523829066489717"><ele>51.714285714285715</ele><time>2026-04-28T16:01:20.999Z</time></trkpt><trkpt lat="35.8687110021307" lon="-5.523848611495557"><ele>49.42857142857143</ele><time>2026-04-28T16:01:22.999Z</time></trkpt><trkpt lat="35.868770278533034" lon="-5.52380346313568"><ele>47.14285714285714</ele><time>2026-04-28T16:01:24.999Z</time></trkpt><trkpt lat="35.868807935899255" lon="-5.523730776363502"><ele>44.85714285714286</ele><time>2026-04-28T16:01:27.999Z</time></trkpt><trkpt lat="35.868850814098124" lon="-5.523665767040767"><ele>42.57142857142858</ele><time>2026-04-28T16:01:33.999Z</time></trkpt><trkpt lat="35.868896695069196" lon="-5.523591470155158"><ele>40.285714285714285</ele><time>2026-04-28T16:01:36.999Z</time></trkpt><trkpt lat="35.86892939896979" lon="-5.523523332541797"><ele>38.0</ele><time>2026-04-28T16:01:39.999Z</time></trkpt><trkpt lat="35.868968913176104" lon="-5.5234587177462355"><ele>38.0</ele><time>2026-04-28T16:01:48Z</time></trkpt><trkpt lat="35.869021209113995" lon="-5.523331599143176"><ele>38.0</ele><time>2026-04-28T16:01:51Z</time></trkpt><trkpt lat="35.86905884287421" lon="-5.523180272474678"><ele>38.0</ele><time>2026-04-28T16:01:53Z</time></trkpt><trkpt lat="35.869077163209894" lon="-5.523096656489111"><ele>38.0</ele><time>2026-04-28T16:01:54Z</time></trkpt><trkpt lat="35.86909949539848" lon="-5.523011965858512"><ele>38.0</ele><time>2026-04-28T16:01:55Z</time></trkpt><trkpt lat="35.869124434993175" lon="-5.5229262116759985"><ele>38.666666666666664</ele><time>2026-04-28T16:01:56Z</time></trkpt><trkpt lat="35.869149873111326" lon="-5.522839403018569"><ele>39.33333333333333</ele><time>2026-04-28T16:01:57Z</time></trkpt><trkpt lat="35.86917544000968" lon="-5.522756322953798"><ele>40.0</ele><time>2026-04-28T16:01:58Z</time></trkpt><trkpt lat="35.86919943292881" lon="-5.522677542322553"><ele>40.666666666666664</ele><time>2026-04-28T16:01:59Z</time></trkpt><trkpt lat="35.86922222598461" lon="-5.522601843438345"><ele>41.333333333333336</ele><time>2026-04-28T16:02:00Z</time></trkpt><trkpt lat="35.869263062483384" lon="-5.522476361149166"><ele>42.0</ele><time>2026-04-28T16:02:02Z</time></trkpt><trkpt lat="35.86930050641015" lon="-5.522371515174361"><ele>42.0</ele><time>2026-04-28T16:02:04Z</time></trkpt><trkpt lat="35.86933290918593" lon="-5.522295163138232"><ele>42.0</ele><time>2026-04-28T16:02:07Z</time></trkpt><trkpt lat="35.86934053699855" lon="-5.522163147433603"><ele>42.0</ele><time>2026-04-28T16:02:10Z</time></trkpt><trkpt lat="35.86936350925661" lon="-5.522026876520626"><ele>42.0</ele><time>2026-04-28T16:02:12Z</time></trkpt><trkpt lat="35.86941817202779" lon="-5.521907403657594"><ele>42.0</ele><time>2026-04-28T16:02:14Z</time></trkpt><trkpt lat="35.86948100547817" lon="-5.521787694721953"><ele>42.0</ele><time>2026-04-28T16:02:16Z</time></trkpt><trkpt lat="35.86951969173617" lon="-5.5217241103789805"><ele>42.0</ele><time>2026-04-28T16:02:17Z</time></trkpt><trkpt lat="35.86955634376633" lon="-5.521659330699055"><ele>42.0</ele><time>2026-04-28T16:02:18Z</time></trkpt><trkpt lat="35.8696139412909" lon="-5.521528556943206"><ele>42.0</ele><time>2026-04-28T16:02:20Z</time></trkpt><trkpt lat="35.86966472961524" lon="-5.5214016178802074"><ele>42.0</ele><time>2026-04-28T16:02:22Z</time></trkpt><trkpt lat="35.86972715747144" lon="-5.521292918422351"><ele>42.0</ele><time>2026-04-28T16:02:24Z</time></trkpt><trkpt lat="35.869806741438126" lon="-5.5212048093776085"><ele>42.0</ele><time>2026-04-28T16:02:26Z</time></trkpt><trkpt lat="35.86994913822763" lon="-5.521246437084192"><ele>42.0</ele><time>2026-04-28T16:02:27Z</time></trkpt><trkpt lat="35.86998858163988" lon="-5.521154889304171"><ele>42.0</ele><time>2026-04-28T16:02:29Z</time></trkpt><trkpt lat="35.86987363387345" lon="-5.521061353598148"><ele>44.8</ele><time>2026-04-28T16:02:30Z</time></trkpt><trkpt lat="35.869995553801395" lon="-5.521138258756277"><ele>47.6</ele><time>2026-04-28T16:02:57Z</time></trkpt><trkpt lat="35.86988722684465" lon="-5.52099965644821"><ele>50.39999999999999</ele><time>2026-04-28T16:05:04Z</time></trkpt><trkpt lat="35.869920085239926" lon="-5.520921753790929"><ele>53.199999999999996</ele><time>2026-04-28T16:05:12Z</time></trkpt><trkpt lat="35.86996659610257" lon="-5.520847849147692"><ele>56.0</ele><time>2026-04-28T16:05:17Z</time></trkpt><trkpt lat="35.87000123960094" lon="-5.520763627336084"><ele>56.0</ele><time>2026-04-28T16:05:22.999Z</time></trkpt><trkpt lat="35.87004159903429" lon="-5.520683756330354"><ele>56.0</ele><time>2026-04-28T16:05:28.999Z</time></trkpt><trkpt lat="35.87007469745759" lon="-5.520613680559435"><ele>56.0</ele><time>2026-04-28T16:05:32.999Z</time></trkpt><trkpt lat="35.870106000549285" lon="-5.520542336871435"><ele>56.0</ele><time>2026-04-28T16:05:37.999Z</time></trkpt><trkpt lat="35.870120509593484" lon="-5.520461098700729"><ele>56.0</ele><time>2026-04-28T16:05:44.999Z</time></trkpt><trkpt lat="35.87014583071314" lon="-5.520389871225456"><ele>56.0</ele><time>2026-04-28T16:05:50.999Z</time></trkpt><trkpt lat="35.87019315969497" lon="-5.520334139670672"><ele>56.0</ele><time>2026-04-28T16:05:55.999Z</time></trkpt><trkpt lat="35.87022353003504" lon="-5.520261539309459"><ele>55.0</ele><time>2026-04-28T16:06:02Z</time></trkpt><trkpt lat="35.87023359878362" lon="-5.5201794642006226"><ele>54.0</ele><time>2026-04-28T16:06:07Z</time></trkpt><trkpt lat="35.870263436437206" lon="-5.520106935050946"><ele>53.0</ele><time>2026-04-28T16:06:12Z</time></trkpt><trkpt lat="35.8703060713927" lon="-5.5200331102722995"><ele>52.0</ele><time>2026-04-28T16:06:20Z</time></trkpt><trkpt lat="35.87035188992801" lon="-5.519977800981558"><ele>51.0</ele><time>2026-04-28T16:06:26Z</time></trkpt><trkpt lat="35.87040036131817" lon="-5.51992607580156"><ele>50.0</ele><time>2026-04-28T16:06:30Z</time></trkpt><trkpt lat="35.87046832490423" lon="-5.519884816131007"><ele>49.0</ele><time>2026-04-28T16:06:34Z</time></trkpt><trkpt lat="35.87049041252249" lon="-5.519803534831228"><ele>48.99999999999999</ele><time>2026-04-28T16:06:40Z</time></trkpt><trkpt lat="35.87050643048581" lon="-5.519727408208525"><ele>49.0</ele><time>2026-04-28T16:06:46Z</time></trkpt><trkpt lat="35.870532627614736" lon="-5.519651872972489"><ele>49.0</ele><time>2026-04-28T16:06:52Z</time></trkpt><trkpt lat="35.87066298640818" lon="-5.519632098046093"><ele>49.0</ele><time>2026-04-28T16:07:05Z</time></trkpt><trkpt lat="35.87073412202389" lon="-5.519620465426159"><ele>48.99999999999999</ele><time>2026-04-28T16:16:01.999Z</time></trkpt><trkpt lat="35.87078779570835" lon="-5.519564764718827"><ele>49.0</ele><time>2026-04-28T16:16:11.999Z</time></trkpt><trkpt lat="35.87072181390717" lon="-5.519521840954431"><ele>49.0</ele><time>2026-04-28T16:16:13.999Z</time></trkpt><trkpt lat="35.87069288791188" lon="-5.519603091241153"><ele>49.0</ele><time>2026-04-28T16:16:17.999Z</time></trkpt><trkpt lat="35.870689947827394" lon="-5.519691742914299"><ele>49.0</ele><time>2026-04-28T16:16:22.999Z</time></trkpt><trkpt lat="35.87069358407504" lon="-5.51977308978079"><ele>49.0</ele><time>2026-04-28T16:16:26.999Z</time></trkpt><trkpt lat="35.87060973137121" lon="-5.519781534317549"><ele>49.0</ele><time>2026-04-28T16:18:22.451Z</time></trkpt><trkpt lat="35.87056176212182" lon="-5.519554977364944"><ele>49.0</ele><time>2026-04-28T16:18:24.014Z</time></trkpt><trkpt lat="35.870498220254646" lon="-5.519607236808672"><ele>49.0</ele><time>2026-04-28T16:19:43.036Z</time></trkpt><trkpt lat="35.870419044225024" lon="-5.51959639534924"><ele>49.0</ele><time>2026-04-28T16:19:46.039Z</time></trkpt><trkpt lat="35.870615562582614" lon="-5.51966420987272"><ele>49.0</ele><time>2026-04-28T16:20:33.055Z</time></trkpt><trkpt lat="35.87061159158376" lon="-5.519743618801958"><ele>49.0</ele><time>2026-04-28T16:20:46.494Z</time></trkpt><trkpt lat="35.870618908244026" lon="-5.5196024522196545"><ele>49.0</ele><time>2026-04-28T16:20:54.017Z</time></trkpt><trkpt lat="35.87056785619746" lon="-5.519536797091843"><ele>49.0</ele><time>2026-04-28T16:21:15.015Z</time></trkpt><trkpt lat="35.870618854602725" lon="-5.519776429263435"><ele>49.0</ele><time>2026-04-28T16:23:08.445Z</time></trkpt><trkpt lat="35.870569131655024" lon="-5.519593414568429"><ele>49.0</ele><time>2026-04-28T16:23:30.019Z</time></trkpt><trkpt lat="35.87061113227961" lon="-5.519765920626502"><ele>49.0</ele><time>2026-04-28T16:23:56.435Z</time></trkpt><trkpt lat="35.87062359650064" lon="-5.519402367119444"><ele>49.0</ele><time>2026-04-28T16:25:55.019Z</time></trkpt><trkpt lat="35.870640035826355" lon="-5.519486260772555"><ele>49.0</ele><time>2026-04-28T16:26:00.996Z</time></trkpt><trkpt lat="35.87060658292355" lon="-5.5195528222172054"><ele>49.0</ele><time>2026-04-28T16:26:05Z</time></trkpt><trkpt lat="35.87055214256362" lon="-5.519599240961949"><ele>48.99999999999999</ele><time>2026-04-28T16:26:10Z</time></trkpt><trkpt lat="35.87048319911942" lon="-5.519599870620912"><ele>49.0</ele><time>2026-04-28T16:26:17Z</time></trkpt><trkpt lat="35.87040646706889" lon="-5.519605866587465"><ele>49.0</ele><time>2026-04-28T16:26:19Z</time></trkpt><trkpt lat="35.87035704918044" lon="-5.519555177519999"><ele>49.0</ele><time>2026-04-28T16:26:52Z</time></trkpt><trkpt lat="35.870226184028056" lon="-5.519563797228959"><ele>48.99999999999999</ele><time>2026-04-28T16:27:02Z</time></trkpt><trkpt lat="35.87022104936739" lon="-5.519471527208836"><ele>49.0</ele><time>2026-04-28T16:27:12.999Z</time></trkpt><trkpt lat="35.87052080768289" lon="-5.519829130492531"><ele>52.0</ele><time>2026-04-28T16:27:45.893Z</time></trkpt><trkpt lat="35.87066091218768" lon="-5.51946859277331"><ele>55.0</ele><time>2026-04-28T16:28:37.015Z</time></trkpt><trkpt lat="35.87030574564201" lon="-5.51950702619639"><ele>54.14285714285714</ele><time>2026-04-28T16:28:38.018Z</time></trkpt><trkpt lat="35.870343766026316" lon="-5.519579134305864"><ele>53.285714285714285</ele><time>2026-04-28T16:29:10Z</time></trkpt><trkpt lat="35.870357118359536" lon="-5.519671814650384"><ele>52.42857142857143</ele><time>2026-04-28T16:29:14Z</time></trkpt><trkpt lat="35.87037890130558" lon="-5.519768257963415"><ele>51.57142857142857</ele><time>2026-04-28T16:29:18Z</time></trkpt><trkpt lat="35.87037109886531" lon="-5.519858123916888"><ele>50.714285714285715</ele><time>2026-04-28T16:29:23Z</time></trkpt><trkpt lat="35.87035250713882" lon="-5.519941974869846"><ele>49.857142857142854</ele><time>2026-04-28T16:29:27.999Z</time></trkpt><trkpt lat="35.87030414328162" lon="-5.520010811781839"><ele>49.0</ele><time>2026-04-28T16:29:32.999Z</time></trkpt><trkpt lat="35.870248044402786" lon="-5.520054006310361"><ele>49.0</ele><time>2026-04-28T16:29:37.999Z</time></trkpt><trkpt lat="35.870242286591065" lon="-5.520144944956279"><ele>49.0</ele><time>2026-04-28T16:29:42.999Z</time></trkpt><trkpt lat="35.87021809100377" lon="-5.52021730481804"><ele>49.0</ele><time>2026-04-28T16:29:46.999Z</time></trkpt><trkpt lat="35.87018917680581" lon="-5.520299628644161"><ele>49.0</ele><time>2026-04-28T16:29:51.999Z</time></trkpt><trkpt lat="35.87014610564266" lon="-5.520357617978404"><ele>49.0</ele><time>2026-04-28T16:29:57.999Z</time></trkpt><trkpt lat="35.870105155420106" lon="-5.5204295551160385"><ele>49.0</ele><time>2026-04-28T16:30:03.999Z</time></trkpt><trkpt lat="35.87008486440877" lon="-5.520516294901149"><ele>49.0</ele><time>2026-04-28T16:30:07.999Z</time></trkpt><trkpt lat="35.8700650968539" lon="-5.520590822268193"><ele>50.0</ele><time>2026-04-28T16:30:11.999Z</time></trkpt><trkpt lat="35.870047134831026" lon="-5.520683703832691"><ele>51.0</ele><time>2026-04-28T16:30:16.999Z</time></trkpt><trkpt lat="35.870017577455755" lon="-5.520773978934538"><ele>52.0</ele><time>2026-04-28T16:30:21.999Z</time></trkpt><trkpt lat="35.8699831154999" lon="-5.520854027625217"><ele>53.0</ele><time>2026-04-28T16:30:26.999Z</time></trkpt><trkpt lat="35.86993532505045" lon="-5.520921565418443"><ele>54.0</ele><time>2026-04-28T16:30:32.999Z</time></trkpt><trkpt lat="35.869911053063" lon="-5.520998758708826"><ele>55.0</ele><time>2026-04-28T16:30:37.999Z</time></trkpt><trkpt lat="35.86988381388205" lon="-5.521079881688411"><ele>56.0</ele><time>2026-04-28T16:30:43.999Z</time></trkpt><trkpt lat="35.86988740607019" lon="-5.5209939009009235"><ele>56.00000000000001</ele><time>2026-04-28T16:34:31.999Z</time></trkpt><trkpt lat="35.86986039888018" lon="-5.520893544561502"><ele>56.0</ele><time>2026-04-28T16:34:34.999Z</time></trkpt><trkpt lat="35.869854695783005" lon="-5.520790403074776"><ele>56.0</ele><time>2026-04-28T16:34:36.999Z</time></trkpt><trkpt lat="35.86982909913557" lon="-5.520717620937314"><ele>56.0</ele><time>2026-04-28T16:34:38.999Z</time></trkpt><trkpt lat="35.86982487162647" lon="-5.5206337827050165"><ele>56.00000000000001</ele><time>2026-04-28T16:34:41.999Z</time></trkpt><trkpt lat="35.86985880477333" lon="-5.5205363988389955"><ele>56.0</ele><time>2026-04-28T16:34:43.999Z</time></trkpt><trkpt lat="35.869909923955596" lon="-5.5204144556624115"><ele>54.599999999999994</ele><time>2026-04-28T16:34:45.999Z</time></trkpt><trkpt lat="35.86992156426046" lon="-5.52033648248546"><ele>53.199999999999996</ele><time>2026-04-28T16:34:46.999Z</time></trkpt><trkpt lat="35.86997978324553" lon="-5.52020282959194"><ele>51.8</ele><time>2026-04-28T16:34:48.999Z</time></trkpt><trkpt lat="35.87003510043788" lon="-5.520079432473925"><ele>50.400000000000006</ele><time>2026-04-28T16:34:50.999Z</time></trkpt><trkpt lat="35.87012655417561" lon="-5.520033744490488"><ele>49.0</ele><time>2026-04-28T16:34:52.999Z</time></trkpt><trkpt lat="35.87018601619825" lon="-5.520089090470471"><ele>48.99999999999999</ele><time>2026-04-28T16:34:53.999Z</time></trkpt><trkpt lat="35.87023683353243" lon="-5.520143521249446"><ele>49.0</ele><time>2026-04-28T16:34:55.999Z</time></trkpt><trkpt lat="35.87030001055358" lon="-5.520179638958324"><ele>49.0</ele><time>2026-04-28T16:34:57.999Z</time></trkpt><trkpt lat="35.87039441528081" lon="-5.520232320753431"><ele>49.0</ele><time>2026-04-28T16:34:59.999Z</time></trkpt><trkpt lat="35.87047709841653" lon="-5.520273048969988"><ele>48.99999999999999</ele><time>2026-04-28T16:35:02Z</time></trkpt><trkpt lat="35.870533956201285" lon="-5.520224661274827"><ele>49.0</ele><time>2026-04-28T16:35:03Z</time></trkpt><trkpt lat="35.8706116018094" lon="-5.520126581129671"><ele>48.99999999999999</ele><time>2026-04-28T16:35:05Z</time></trkpt><trkpt lat="35.87066427378236" lon="-5.520012267748594"><ele>49.0</ele><time>2026-04-28T16:35:07Z</time></trkpt><trkpt lat="35.870715114085314" lon="-5.519906738095615"><ele>49.0</ele><time>2026-04-28T16:35:09Z</time></trkpt><trkpt lat="35.87075145807773" lon="-5.519836172863565"><ele>49.0</ele><time>2026-04-28T16:35:11Z</time></trkpt><trkpt lat="35.87079461800138" lon="-5.5197736116639655"><ele>48.99999999999999</ele><time>2026-04-28T16:35:15Z</time></trkpt><trkpt lat="35.870851035351066" lon="-5.519689289804031"><ele>49.0</ele><time>2026-04-28T16:35:17Z</time></trkpt><trkpt lat="35.87091159773233" lon="-5.519556741910544"><ele>47.0</ele><time>2026-04-28T16:35:19Z</time></trkpt><trkpt lat="35.87097890606013" lon="-5.519429093678947"><ele>45.0</ele><time>2026-04-28T16:35:21Z</time></trkpt><trkpt lat="35.871037544601066" lon="-5.519314096573906"><ele>43.0</ele><time>2026-04-28T16:35:23Z</time></trkpt><trkpt lat="35.871088819946095" lon="-5.519241526870879"><ele>41.0</ele><time>2026-04-28T16:36:15.999Z</time></trkpt><trkpt lat="35.871147163842004" lon="-5.5191900385236785"><ele>39.0</ele><time>2026-04-28T16:36:17.999Z</time></trkpt><trkpt lat="35.871252440886344" lon="-5.519173223797139"><ele>39.0</ele><time>2026-04-28T16:36:19.999Z</time></trkpt><trkpt lat="35.871353702306116" lon="-5.519096056139571"><ele>39.0</ele><time>2026-04-28T16:36:21.999Z</time></trkpt><trkpt lat="35.87140638733122" lon="-5.518993916853221"><ele>39.0</ele><time>2026-04-28T16:36:23.999Z</time></trkpt><trkpt lat="35.8714869649018" lon="-5.518919412823363"><ele>39.0</ele><time>2026-04-28T16:36:25.999Z</time></trkpt><trkpt lat="35.87157351858983" lon="-5.518796197782448"><ele>38.5</ele><time>2026-04-28T16:36:27.999Z</time></trkpt><trkpt lat="35.871623005057415" lon="-5.5187253164377505"><ele>38.0</ele><time>2026-04-28T16:36:28.999Z</time></trkpt><trkpt lat="35.87167507475362" lon="-5.518654102627361"><ele>37.5</ele><time>2026-04-28T16:36:29.999Z</time></trkpt><trkpt lat="35.87172964187534" lon="-5.518581727955349"><ele>37.0</ele><time>2026-04-28T16:36:30.999Z</time></trkpt><trkpt lat="35.87178451704384" lon="-5.518507501124416"><ele>36.5</ele><time>2026-04-28T16:36:31.999Z</time></trkpt><trkpt lat="35.871837374662064" lon="-5.518432696435658"><ele>36.0</ele><time>2026-04-28T16:36:32.999Z</time></trkpt><trkpt lat="35.87188826876658" lon="-5.518358243777425"><ele>36.0</ele><time>2026-04-28T16:36:33.999Z</time></trkpt><trkpt lat="35.87193758852928" lon="-5.518286696624689"><ele>36.0</ele><time>2026-04-28T16:36:34.999Z</time></trkpt><trkpt lat="35.87198253482598" lon="-5.5182159108089515"><ele>36.0</ele><time>2026-04-28T16:36:35.999Z</time></trkpt><trkpt lat="35.872026650025695" lon="-5.51814953214795"><ele>36.0</ele><time>2026-04-28T16:36:36.999Z</time></trkpt><trkpt lat="35.87206937900844" lon="-5.51808803264262"><ele>36.0</ele><time>2026-04-28T16:36:37.999Z</time></trkpt><trkpt lat="35.87211100879862" lon="-5.518025678244987"><ele>36.0</ele><time>2026-04-28T16:36:38.999Z</time></trkpt><trkpt lat="35.87217312213063" lon="-5.517928200482928"><ele>37.0</ele><time>2026-04-28T16:36:40.999Z</time></trkpt><trkpt lat="35.87221757918461" lon="-5.517864071446576"><ele>38.0</ele><time>2026-04-28T16:36:42.999Z</time></trkpt><trkpt lat="35.87225730747296" lon="-5.517794332695223"><ele>39.0</ele><time>2026-04-28T16:36:45.999Z</time></trkpt><trkpt lat="35.87230945929503" lon="-5.517736888976713"><ele>40.0</ele><time>2026-04-28T16:36:47.999Z</time></trkpt><trkpt lat="35.872335373434176" lon="-5.517658200390129"><ele>41.0</ele><time>2026-04-28T16:36:49.999Z</time></trkpt><trkpt lat="35.872332153388" lon="-5.517518355036249"><ele>42.0</ele><time>2026-04-28T16:36:52.999Z</time></trkpt><trkpt lat="35.87231397022429" lon="-5.517375656945562"><ele>42.0</ele><time>2026-04-28T16:36:54.999Z</time></trkpt><trkpt lat="35.87230936116535" lon="-5.517297559095796"><ele>42.0</ele><time>2026-04-28T16:36:55.999Z</time></trkpt><trkpt lat="35.87230172550359" lon="-5.517147259110172"><ele>42.0</ele><time>2026-04-28T16:36:57.999Z</time></trkpt><trkpt lat="35.87231188715695" lon="-5.51703152451482"><ele>42.0</ele><time>2026-04-28T16:36:59.999Z</time></trkpt><trkpt lat="35.87235332324722" lon="-5.516928946355685"><ele>42.0</ele><time>2026-04-28T16:37:01.999Z</time></trkpt><trkpt lat="35.87243815248426" lon="-5.516862988537206"><ele>43.2</ele><time>2026-04-28T16:37:03.999Z</time></trkpt><trkpt lat="35.87252377365919" lon="-5.516757326232349"><ele>44.400000000000006</ele><time>2026-04-28T16:37:05.999Z</time></trkpt><trkpt lat="35.872576240272714" lon="-5.516692573258843"><ele>45.599999999999994</ele><time>2026-04-28T16:37:06.999Z</time></trkpt><trkpt lat="35.87262490934969" lon="-5.516632507082916"><ele>46.8</ele><time>2026-04-28T16:37:08Z</time></trkpt><trkpt lat="35.872725104586664" lon="-5.51650884857183"><ele>48.0</ele><time>2026-04-28T16:37:10Z</time></trkpt><trkpt lat="35.87277074533004" lon="-5.516424338674311"><ele>47.333333333333336</ele><time>2026-04-28T16:37:11Z</time></trkpt><trkpt lat="35.872831079408066" lon="-5.516360893757407"><ele>46.666666666666664</ele><time>2026-04-28T16:37:12Z</time></trkpt><trkpt lat="35.87289144602595" lon="-5.516305393950366"><ele>46.0</ele><time>2026-04-28T16:37:13Z</time></trkpt><trkpt lat="35.87295293261874" lon="-5.51624815155722"><ele>45.33333333333333</ele><time>2026-04-28T16:37:14Z</time></trkpt><trkpt lat="35.873014491074464" lon="-5.516187486870906"><ele>44.666666666666664</ele><time>2026-04-28T16:37:15Z</time></trkpt><trkpt lat="35.87307770890514" lon="-5.516121290282858"><ele>44.0</ele><time>2026-04-28T16:37:16Z</time></trkpt><trkpt lat="35.873143601493524" lon="-5.516036576996454"><ele>44.0</ele><time>2026-04-28T16:37:17Z</time></trkpt><trkpt lat="35.87321352565264" lon="-5.515970846425463"><ele>44.0</ele><time>2026-04-28T16:37:18Z</time></trkpt><trkpt lat="35.87328493675986" lon="-5.515898181729908"><ele>44.0</ele><time>2026-04-28T16:37:19Z</time></trkpt><trkpt lat="35.87335708940429" lon="-5.515824842926062"><ele>44.0</ele><time>2026-04-28T16:37:20Z</time></trkpt><trkpt lat="35.873425710102865" lon="-5.515755699248865"><ele>44.0</ele><time>2026-04-28T16:37:21Z</time></trkpt><trkpt lat="35.87352174820599" lon="-5.51566546668169"><ele>44.2</ele><time>2026-04-28T16:37:22Z</time></trkpt><trkpt lat="35.87357992019042" lon="-5.515569476262404"><ele>44.400000000000006</ele><time>2026-04-28T16:37:23Z</time></trkpt><trkpt lat="35.87362209062367" lon="-5.515448360504578"><ele>44.6</ele><time>2026-04-28T16:37:24Z</time></trkpt><trkpt lat="35.87364749843738" lon="-5.515328434917395"><ele>44.8</ele><time>2026-04-28T16:37:25Z</time></trkpt><trkpt lat="35.87372375404099" lon="-5.515236762215023"><ele>45.0</ele><time>2026-04-28T16:37:26Z</time></trkpt><trkpt lat="35.87379953026932" lon="-5.515143859282045"><ele>45.0</ele><time>2026-04-28T16:37:27Z</time></trkpt><trkpt lat="35.873879905931474" lon="-5.51505154904813"><ele>45.0</ele><time>2026-04-28T16:37:28Z</time></trkpt><trkpt lat="35.87395308373756" lon="-5.514961336127001"><ele>45.0</ele><time>2026-04-28T16:37:29Z</time></trkpt><trkpt lat="35.8740383639582" lon="-5.514884347835538"><ele>45.0</ele><time>2026-04-28T16:37:30Z</time></trkpt><trkpt lat="35.874142731975276" lon="-5.5147885013369935"><ele>45.0</ele><time>2026-04-28T16:37:31Z</time></trkpt><trkpt lat="35.87423639452084" lon="-5.514708316325161"><ele>42.75</ele><time>2026-04-28T16:37:32Z</time></trkpt><trkpt lat="35.87433452200642" lon="-5.514633528953065"><ele>40.5</ele><time>2026-04-28T16:37:33Z</time></trkpt><trkpt lat="35.874433275614784" lon="-5.514556565001808"><ele>38.25</ele><time>2026-04-28T16:37:34Z</time></trkpt><trkpt lat="35.87453747206801" lon="-5.514475624822998"><ele>36.0</ele><time>2026-04-28T16:37:35Z</time></trkpt><trkpt lat="35.874638361914904" lon="-5.514397067163817"><ele>36.0</ele><time>2026-04-28T16:37:36Z</time></trkpt><trkpt lat="35.874742455802355" lon="-5.514312371556473"><ele>36.0</ele><time>2026-04-28T16:37:37Z</time></trkpt><trkpt lat="35.874842557995365" lon="-5.514221082558054"><ele>36.0</ele><time>2026-04-28T16:37:38Z</time></trkpt><trkpt lat="35.87494176222107" lon="-5.514124422886663"><ele>36.0</ele><time>2026-04-28T16:37:39Z</time></trkpt><trkpt lat="35.87503743974824" lon="-5.514027069704543"><ele>32.0</ele><time>2026-04-28T16:37:40Z</time></trkpt><trkpt lat="35.8751174280626" lon="-5.513934464698399"><ele>28.0</ele><time>2026-04-28T16:37:41Z</time></trkpt><trkpt lat="35.87517635894182" lon="-5.513854075458201"><ele>24.0</ele><time>2026-04-28T16:37:42Z</time></trkpt><trkpt lat="35.87524742964558" lon="-5.51372452186573"><ele>20.0</ele><time>2026-04-28T16:37:44Z</time></trkpt><trkpt lat="35.875293663796086" lon="-5.513649630028383"><ele>16.0</ele><time>2026-04-28T16:37:45Z</time></trkpt><trkpt lat="35.875355098384354" lon="-5.513579561551858"><ele>16.0</ele><time>2026-04-28T16:37:46Z</time></trkpt><trkpt lat="35.87542893253182" lon="-5.513504390065261"><ele>16.0</ele><time>2026-04-28T16:37:47Z</time></trkpt><trkpt lat="35.875510743933866" lon="-5.513426065036476"><ele>16.0</ele><time>2026-04-28T16:37:48Z</time></trkpt><trkpt lat="35.87559249074509" lon="-5.51333053480651"><ele>16.0</ele><time>2026-04-28T16:37:49Z</time></trkpt><trkpt lat="35.875653751374976" lon="-5.513201473480024"><ele>16.0</ele><time>2026-04-28T16:37:50Z</time></trkpt><trkpt lat="35.87572974677592" lon="-5.513073303670538"><ele>16.0</ele><time>2026-04-28T16:37:51Z</time></trkpt><trkpt lat="35.875815595036066" lon="-5.512956981763243"><ele>16.0</ele><time>2026-04-28T16:37:52Z</time></trkpt><trkpt lat="35.8758941917714" lon="-5.5128253256052"><ele>16.0</ele><time>2026-04-28T16:37:53Z</time></trkpt><trkpt lat="35.87597163555712" lon="-5.512688775092881"><ele>16.0</ele><time>2026-04-28T16:37:54Z</time></trkpt><trkpt lat="35.87605474234808" lon="-5.512548078499555"><ele>16.5</ele><time>2026-04-28T16:37:55Z</time></trkpt><trkpt lat="35.87613423359602" lon="-5.512405962528417"><ele>17.0</ele><time>2026-04-28T16:37:56Z</time></trkpt><trkpt lat="35.87621454962646" lon="-5.512264000732572"><ele>17.5</ele><time>2026-04-28T16:37:57Z</time></trkpt><trkpt lat="35.87629318392836" lon="-5.512121801459291"><ele>18.0</ele><time>2026-04-28T16:37:58Z</time></trkpt><trkpt lat="35.876372703213924" lon="-5.511981074091331"><ele>20.5</ele><time>2026-04-28T16:37:59Z</time></trkpt><trkpt lat="35.87645670007028" lon="-5.511841437424799"><ele>23.0</ele><time>2026-04-28T16:38:00Z</time></trkpt><trkpt lat="35.876545258049376" lon="-5.511697557690915"><ele>25.5</ele><time>2026-04-28T16:38:01Z</time></trkpt><trkpt lat="35.87663366012535" lon="-5.51155283205635"><ele>28.0</ele><time>2026-04-28T16:38:02Z</time></trkpt><trkpt lat="35.8767218061282" lon="-5.511408209984167"><ele>27.0</ele><time>2026-04-28T16:38:03Z</time></trkpt><trkpt lat="35.87681120167987" lon="-5.511261701113944"><ele>26.0</ele><time>2026-04-28T16:38:03.999Z</time></trkpt><trkpt lat="35.87690154641771" lon="-5.511116262204457"><ele>25.0</ele><time>2026-04-28T16:38:04.999Z</time></trkpt><trkpt lat="35.876993631842126" lon="-5.5109729315701514"><ele>24.0</ele><time>2026-04-28T16:38:05.999Z</time></trkpt><trkpt lat="35.8770935242042" lon="-5.510828372108726"><ele>24.0</ele><time>2026-04-28T16:38:06.999Z</time></trkpt><trkpt lat="35.87719308024168" lon="-5.510686296018237"><ele>24.0</ele><time>2026-04-28T16:38:07.999Z</time></trkpt><trkpt lat="35.87729518087116" lon="-5.51054948466786"><ele>24.0</ele><time>2026-04-28T16:38:08.999Z</time></trkpt><trkpt lat="35.87739934313372" lon="-5.510411803207978"><ele>25.333333333333336</ele><time>2026-04-28T16:38:09.999Z</time></trkpt><trkpt lat="35.87750307860268" lon="-5.510277218909431"><ele>26.666666666666668</ele><time>2026-04-28T16:38:10.999Z</time></trkpt><trkpt lat="35.87760816752638" lon="-5.510143673786793"><ele>28.0</ele><time>2026-04-28T16:38:11.999Z</time></trkpt><trkpt lat="35.877714162896794" lon="-5.510014701987025"><ele>28.0</ele><time>2026-04-28T16:38:12.999Z</time></trkpt><trkpt lat="35.87781936811519" lon="-5.509887418238468"><ele>28.0</ele><time>2026-04-28T16:38:13.999Z</time></trkpt><trkpt lat="35.8779243276153" lon="-5.5097656345195425"><ele>28.0</ele><time>2026-04-28T16:38:14.999Z</time></trkpt><trkpt lat="35.87803296342072" lon="-5.509646958995613"><ele>28.0</ele><time>2026-04-28T16:38:15.999Z</time></trkpt><trkpt lat="35.878143088935886" lon="-5.5095302896549665"><ele>28.0</ele><time>2026-04-28T16:38:16.999Z</time></trkpt><trkpt lat="35.87825483112944" lon="-5.509408668594334"><ele>28.0</ele><time>2026-04-28T16:38:17.999Z</time></trkpt><trkpt lat="35.878365059717744" lon="-5.5092901348618755"><ele>28.0</ele><time>2026-04-28T16:38:18.999Z</time></trkpt><trkpt lat="35.87847740126606" lon="-5.5091752067440085"><ele>28.0</ele><time>2026-04-28T16:38:19.999Z</time></trkpt><trkpt lat="35.87859182505313" lon="-5.509064341201326"><ele>28.0</ele><time>2026-04-28T16:38:20.999Z</time></trkpt><trkpt lat="35.87871406717327" lon="-5.508966031342938"><ele>28.0</ele><time>2026-04-28T16:38:21.999Z</time></trkpt><trkpt lat="35.87884123383996" lon="-5.50888465822025"><ele>28.0</ele><time>2026-04-28T16:38:22.999Z</time></trkpt><trkpt lat="35.87897416285368" lon="-5.508815588917539"><ele>28.0</ele><time>2026-04-28T16:38:23.999Z</time></trkpt><trkpt lat="35.879104894796896" lon="-5.508768624495131"><ele>28.25</ele><time>2026-04-28T16:38:24.999Z</time></trkpt><trkpt lat="35.87923427097623" lon="-5.508723153165383"><ele>28.5</ele><time>2026-04-28T16:38:25.999Z</time></trkpt><trkpt lat="35.87935429787461" lon="-5.508685768507653"><ele>28.75</ele><time>2026-04-28T16:38:26.999Z</time></trkpt><trkpt lat="35.879473059763285" lon="-5.508663252593052"><ele>29.0</ele><time>2026-04-28T16:38:27.999Z</time></trkpt><trkpt lat="35.87959342546541" lon="-5.50865857352426"><ele>29.0</ele><time>2026-04-28T16:38:28.999Z</time></trkpt><trkpt lat="35.879714377482465" lon="-5.508658424695087"><ele>29.0</ele><time>2026-04-28T16:38:29.999Z</time></trkpt><trkpt lat="35.879814801803875" lon="-5.50864638369434"><ele>29.0</ele><time>2026-04-28T16:38:30.999Z</time></trkpt><trkpt lat="35.87989465310491" lon="-5.508596229103874"><ele>29.0</ele><time>2026-04-28T16:38:31.999Z</time></trkpt><trkpt lat="35.879968057186126" lon="-5.508568356465571"><ele>29.0</ele><time>2026-04-28T16:38:32.999Z</time></trkpt><trkpt lat="35.880024493190156" lon="-5.508531335827701"><ele>28.166666666666664</ele><time>2026-04-28T16:38:33.999Z</time></trkpt><trkpt lat="35.8801234535068" lon="-5.508457213609867"><ele>27.333333333333332</ele><time>2026-04-28T16:38:35.999Z</time></trkpt><trkpt lat="35.880179782586914" lon="-5.508338483787666"><ele>26.5</ele><time>2026-04-28T16:38:37.999Z</time></trkpt><trkpt lat="35.88023215562342" lon="-5.508286434695988"><ele>25.666666666666664</ele><time>2026-04-28T16:38:38.999Z</time></trkpt><trkpt lat="35.8802766349517" lon="-5.508219639028671"><ele>24.833333333333332</ele><time>2026-04-28T16:38:39.999Z</time></trkpt><trkpt lat="35.88032325754504" lon="-5.508150926842608"><ele>24.0</ele><time>2026-04-28T16:38:40.999Z</time></trkpt><trkpt lat="35.880367558990784" lon="-5.5080852647978595"><ele>24.0</ele><time>2026-04-28T16:38:41.999Z</time></trkpt><trkpt lat="35.88040968705717" lon="-5.508022473696804"><ele>24.0</ele><time>2026-04-28T16:38:42.999Z</time></trkpt><trkpt lat="35.880451255598786" lon="-5.507960513371229"><ele>24.0</ele><time>2026-04-28T16:38:43.999Z</time></trkpt><trkpt lat="35.88049996018143" lon="-5.50783543581703"><ele>24.0</ele><time>2026-04-28T16:38:45.999Z</time></trkpt><trkpt lat="35.880584812039615" lon="-5.507786903445106"><ele>24.0</ele><time>2026-04-28T16:38:47.999Z</time></trkpt><trkpt lat="35.880645420199684" lon="-5.507755152869412"><ele>24.0</ele><time>2026-04-28T16:38:49.999Z</time></trkpt><trkpt lat="35.88070083005875" lon="-5.50771741718537"><ele>24.0</ele><time>2026-04-28T16:38:52.999Z</time></trkpt><trkpt lat="35.88076277691915" lon="-5.507675217409134"><ele>24.0</ele><time>2026-04-28T16:39:19Z</time></trkpt><trkpt lat="35.8808670616632" lon="-5.507693840774375"><ele>24.0</ele><time>2026-04-28T16:39:27Z</time></trkpt><trkpt lat="35.88092222179135" lon="-5.5076541595004285"><ele>24.0</ele><time>2026-04-28T16:39:30Z</time></trkpt><trkpt lat="35.88097959579908" lon="-5.507612885606947"><ele>24.0</ele><time>2026-04-28T16:39:35Z</time></trkpt><trkpt lat="35.880963296085945" lon="-5.507494743584407"><ele>24.0</ele><time>2026-04-28T16:39:36Z</time></trkpt><trkpt lat="35.881037999299195" lon="-5.507439182705143"><ele>24.0</ele><time>2026-04-28T16:39:38Z</time></trkpt><trkpt lat="35.88110275048626" lon="-5.507410146192002"><ele>24.0</ele><time>2026-04-28T16:39:41Z</time></trkpt><trkpt lat="35.88117875476193" lon="-5.507380360735033"><ele>24.0</ele><time>2026-04-28T16:39:43Z</time></trkpt><trkpt lat="35.88127115932757" lon="-5.507332236628892"><ele>24.0</ele><time>2026-04-28T16:39:45Z</time></trkpt><trkpt lat="35.88135777847612" lon="-5.5072747282818595"><ele>24.0</ele><time>2026-04-28T16:39:47Z</time></trkpt><trkpt lat="35.881434578052534" lon="-5.507223894587798"><ele>24.0</ele><time>2026-04-28T16:39:49Z</time></trkpt><trkpt lat="35.88149695146422" lon="-5.507185389064609"><ele>24.0</ele><time>2026-04-28T16:39:51Z</time></trkpt><trkpt lat="35.8815581477002" lon="-5.507150496339528"><ele>24.0</ele><time>2026-04-28T16:39:53Z</time></trkpt><trkpt lat="35.88162928965737" lon="-5.5070996673026755"><ele>24.0</ele><time>2026-04-28T16:39:56Z</time></trkpt><trkpt lat="35.88170161179096" lon="-5.507052957758299"><ele>24.0</ele><time>2026-04-28T16:39:59Z</time></trkpt><trkpt lat="35.88176252761294" lon="-5.50701757317161"><ele>24.0</ele><time>2026-04-28T16:40:02Z</time></trkpt><trkpt lat="35.88184254337836" lon="-5.507061959303984"><ele>24.0</ele><time>2026-04-28T16:41:56Z</time></trkpt><trkpt lat="35.88190199699222" lon="-5.507025239080519"><ele>24.166666666666668</ele><time>2026-04-28T16:41:59Z</time></trkpt><trkpt lat="35.88190926218084" lon="-5.506905827165163"><ele>24.333333333333336</ele><time>2026-04-28T16:42:36.999Z</time></trkpt><trkpt lat="35.881966721241305" lon="-5.5068698654384045"><ele>24.5</ele><time>2026-04-28T16:42:41.999Z</time></trkpt><trkpt lat="35.882040167250665" lon="-5.506834580897909"><ele>24.666666666666668</ele><time>2026-04-28T16:43:18.999Z</time></trkpt><trkpt lat="35.88209864393307" lon="-5.506793825780824"><ele>24.833333333333336</ele><time>2026-04-28T16:44:17Z</time></trkpt><trkpt lat="35.88217288515442" lon="-5.506733884753406"><ele>25.0</ele><time>2026-04-28T16:44:19.999Z</time></trkpt><trkpt lat="35.8822265378142" lon="-5.50666692341584"><ele>25.000000000000004</ele><time>2026-04-28T16:44:23.999Z</time></trkpt><trkpt lat="35.882262313223656" lon="-5.506588275793312"><ele>25.0</ele><time>2026-04-28T16:44:26.999Z</time></trkpt><trkpt lat="35.882320782677674" lon="-5.506518659808074"><ele>25.0</ele><time>2026-04-28T16:44:30.999Z</time></trkpt><trkpt lat="35.882386227419076" lon="-5.50649066620539"><ele>25.0</ele><time>2026-04-28T16:44:47.999Z</time></trkpt><trkpt lat="35.88245962489469" lon="-5.50650705114898"><ele>25.0</ele><time>2026-04-28T16:44:51.999Z</time></trkpt><trkpt lat="35.8825250049155" lon="-5.506507678338971"><ele>25.000000000000004</ele><time>2026-04-28T16:44:54.999Z</time></trkpt><trkpt lat="35.88257796705088" lon="-5.506465353972723"><ele>25.0</ele><time>2026-04-28T16:45:50Z</time></trkpt><trkpt lat="35.88263004547825" lon="-5.506412283684901"><ele>25.714285714285715</ele><time>2026-04-28T16:45:56Z</time></trkpt><trkpt lat="35.88269777178864" lon="-5.506374727615234"><ele>26.42857142857143</ele><time>2026-04-28T16:46:15Z</time></trkpt><trkpt lat="35.882773383172825" lon="-5.506325677607998"><ele>27.142857142857146</ele><time>2026-04-28T16:46:18Z</time></trkpt><trkpt lat="35.882836125171686" lon="-5.506275295563458"><ele>27.857142857142858</ele><time>2026-04-28T16:47:05.999Z</time></trkpt><trkpt lat="35.88289764230793" lon="-5.506234365758471"><ele>28.57142857142857</ele><time>2026-04-28T16:47:18.999Z</time></trkpt><trkpt lat="35.882956784373505" lon="-5.5061997487203085"><ele>29.28571428571429</ele><time>2026-04-28T16:48:57.999Z</time></trkpt><trkpt lat="35.88300093075479" lon="-5.5061323857561835"><ele>30.0</ele><time>2026-04-28T16:49:01.999Z</time></trkpt><trkpt lat="35.883071649912154" lon="-5.506091690263086"><ele>30.0</ele><time>2026-04-28T16:57:05.999Z</time></trkpt><trkpt lat="35.883124476814025" lon="-5.506047211108606"><ele>30.0</ele><time>2026-04-28T16:57:11.999Z</time></trkpt><trkpt lat="35.88318304894875" lon="-5.506008281044696"><ele>30.0</ele><time>2026-04-28T16:58:41.999Z</time></trkpt><trkpt lat="35.88325088335119" lon="-5.505974957110774"><ele>30.0</ele><time>2026-04-28T17:12:23Z</time></trkpt><trkpt lat="35.88331229446612" lon="-5.505941234610608"><ele>30.0</ele><time>2026-04-28T17:13:23Z</time></trkpt><trkpt lat="35.88336239742525" lon="-5.505887911611748"><ele>30.0</ele><time>2026-04-28T17:15:38Z</time></trkpt><trkpt lat="35.883435615244736" lon="-5.50586293150068"><ele>30.0</ele><time>2026-04-28T17:15:52Z</time></trkpt><trkpt lat="35.883494906712464" lon="-5.5057770243971635"><ele>30.0</ele><time>2026-04-28T17:15:55Z</time></trkpt><trkpt lat="35.88350595928735" lon="-5.5056698729639"><ele>30.0</ele><time>2026-04-28T17:15:57Z</time></trkpt><trkpt lat="35.8834638354279" lon="-5.505573185528576"><ele>30.0</ele><time>2026-04-28T17:15:59Z</time></trkpt><trkpt lat="35.88339435929047" lon="-5.505516022737662"><ele>30.0</ele><time>2026-04-28T17:16:02Z</time></trkpt><trkpt lat="35.88337257511225" lon="-5.505344799767664"><ele>30.0</ele><time>2026-04-28T17:16:05Z</time></trkpt><trkpt lat="35.883291319521454" lon="-5.505312258339949"><ele>30.0</ele><time>2026-04-28T17:16:07Z</time></trkpt><trkpt lat="35.88321255526229" lon="-5.505303585856098"><ele>30.0</ele><time>2026-04-28T17:16:11Z</time></trkpt><trkpt lat="35.88313560447328" lon="-5.505305085564302"><ele>30.0</ele><time>2026-04-28T17:16:13Z</time></trkpt><trkpt lat="35.8830673250517" lon="-5.5053219393424575"><ele>30.0</ele><time>2026-04-28T17:16:16Z</time></trkpt><trkpt lat="35.88300409788822" lon="-5.505345119754234"><ele>30.0</ele><time>2026-04-28T17:16:28Z</time></trkpt><trkpt lat="35.882806944847516" lon="-5.505452374341059"><ele>30.0</ele><time>2026-04-28T17:36:33Z</time></trkpt><trkpt lat="35.8829241620838" lon="-5.505705683027913"><ele>30.0</ele><time>2026-04-28T17:36:37Z</time></trkpt><trkpt lat="35.88285855455733" lon="-5.505739616012384"><ele>30.0</ele><time>2026-04-28T17:36:43Z</time></trkpt><trkpt lat="35.8828011646368" lon="-5.505779370251493"><ele>30.0</ele><time>2026-04-28T17:36:52Z</time></trkpt><trkpt lat="35.88268605669915" lon="-5.505537450713536"><ele>30.0</ele><time>2026-04-28T17:38:20Z</time></trkpt><trkpt lat="35.882797821803905" lon="-5.505778734935195"><ele>30.0</ele><time>2026-04-28T17:38:22Z</time></trkpt><trkpt lat="35.88268737738458" lon="-5.505536527044851"><ele>30.0</ele><time>2026-04-28T17:38:44Z</time></trkpt><trkpt lat="35.88280133305833" lon="-5.505782540378843"><ele>30.0</ele><time>2026-04-28T17:38:46Z</time></trkpt><trkpt lat="35.88268737738458" lon="-5.505536527044851"><ele>30.0</ele><time>2026-04-28T17:40:01.999Z</time></trkpt><trkpt lat="35.88280133305833" lon="-5.505782540378843"><ele>30.0</ele><time>2026-04-28T17:40:06Z</time></trkpt><trkpt lat="35.88268737738522" lon="-5.505536527046215"><ele>30.0</ele><time>2026-04-28T17:40:39Z</time></trkpt><trkpt lat="35.88280133305833" lon="-5.505782540378843"><ele>30.0</ele><time>2026-04-28T17:40:41Z</time></trkpt><trkpt lat="35.882760569623215" lon="-5.505718424067751"><ele>30.0</ele><time>2026-04-28T17:41:49.999Z</time></trkpt><trkpt lat="35.882819150556486" lon="-5.5056525411031245"><ele>30.0</ele><time>2026-04-28T17:41:52.999Z</time></trkpt><trkpt lat="35.88288102911293" lon="-5.505611499792879"><ele>30.0</ele><time>2026-04-28T17:41:55.999Z</time></trkpt><trkpt lat="35.8828661700965" lon="-5.505400544522498"><ele>30.0</ele><time>2026-04-28T17:41:57.999Z</time></trkpt><trkpt lat="35.882968244754196" lon="-5.505539158666517"><ele>30.0</ele><time>2026-04-28T17:46:55.999Z</time></trkpt><trkpt lat="35.883036617383084" lon="-5.505491946980291"><ele>30.0</ele><time>2026-04-28T17:47:11.999Z</time></trkpt><trkpt lat="35.88310470135205" lon="-5.505439393522001"><ele>30.0</ele><time>2026-04-28T17:47:13.999Z</time></trkpt><trkpt lat="35.88317557945348" lon="-5.505396119144563"><ele>30.0</ele><time>2026-04-28T17:47:15.999Z</time></trkpt><trkpt lat="35.883273401236536" lon="-5.505369494833397"><ele>30.0</ele><time>2026-04-28T17:47:17.999Z</time></trkpt><trkpt lat="35.883339007166505" lon="-5.505393815122973"><ele>30.0</ele><time>2026-04-28T17:47:19.999Z</time></trkpt><trkpt lat="35.88341673459298" lon="-5.505443981219404"><ele>30.0</ele><time>2026-04-28T17:47:22.999Z</time></trkpt><trkpt lat="35.883476669498634" lon="-5.505495953112751"><ele>30.0</ele><time>2026-04-28T17:47:25.999Z</time></trkpt><trkpt lat="35.88352153712804" lon="-5.505557680864737"><ele>30.0</ele><time>2026-04-28T17:47:31.999Z</time></trkpt><trkpt lat="35.88356129974339" lon="-5.505618929839262"><ele>30.0</ele><time>2026-04-28T17:47:35.999Z</time></trkpt><trkpt lat="35.88361134064298" lon="-5.505683532604404"><ele>30.0</ele><time>2026-04-28T17:47:37.999Z</time></trkpt><trkpt lat="35.883697345018774" lon="-5.50571483733371"><ele>28.6</ele><time>2026-04-28T17:47:39.999Z</time></trkpt><trkpt lat="35.88379574840843" lon="-5.505703910365607"><ele>27.2</ele><time>2026-04-28T17:47:41.999Z</time></trkpt><trkpt lat="35.88388780199001" lon="-5.505678169982926"><ele>25.799999999999997</ele><time>2026-04-28T17:47:43.999Z</time></trkpt><trkpt lat="35.883986961959344" lon="-5.505661182228237"><ele>24.4</ele><time>2026-04-28T17:47:45.999Z</time></trkpt><trkpt lat="35.8840772107502" lon="-5.50564528963848"><ele>23.0</ele><time>2026-04-28T17:47:47.999Z</time></trkpt><trkpt lat="35.88414824185093" lon="-5.505633918431038"><ele>23.0</ele><time>2026-04-28T17:47:49.999Z</time></trkpt><trkpt lat="35.88422081047917" lon="-5.505656794244366"><ele>23.0</ele><time>2026-04-28T17:47:53.999Z</time></trkpt><trkpt lat="35.88422677059569" lon="-5.505789841837827"><ele>23.0</ele><time>2026-04-28T17:47:56.999Z</time></trkpt><trkpt lat="35.88417239751412" lon="-5.505851486569404"><ele>23.0</ele><time>2026-04-28T17:47:57.999Z</time></trkpt><trkpt lat="35.88411190077175" lon="-5.505908585591039"><ele>23.0</ele><time>2026-04-28T17:47:58.999Z</time></trkpt><trkpt lat="35.88404434885233" lon="-5.505979258910471"><ele>23.0</ele><time>2026-04-28T17:47:59.999Z</time></trkpt><trkpt lat="35.883975453522666" lon="-5.506050954374879"><ele>23.0</ele><time>2026-04-28T17:48:00.999Z</time></trkpt><trkpt lat="35.883898276187814" lon="-5.5061260142594355"><ele>23.0</ele><time>2026-04-28T17:48:01.999Z</time></trkpt><trkpt lat="35.88381700381631" lon="-5.506202264842409"><ele>23.0</ele><time>2026-04-28T17:48:02.999Z</time></trkpt><trkpt lat="35.88373081833107" lon="-5.506281075319214"><ele>23.0</ele><time>2026-04-28T17:48:03.999Z</time></trkpt><trkpt lat="35.88363106241438" lon="-5.506339244943355"><ele>23.0</ele><time>2026-04-28T17:48:04.999Z</time></trkpt><trkpt lat="35.88353945490708" lon="-5.5064160526523755"><ele>21.75</ele><time>2026-04-28T17:48:05.999Z</time></trkpt><trkpt lat="35.883446355964544" lon="-5.506490443025446"><ele>20.5</ele><time>2026-04-28T17:48:06.999Z</time></trkpt><trkpt lat="35.88334621588012" lon="-5.506560863553528"><ele>19.25</ele><time>2026-04-28T17:48:07.999Z</time></trkpt><trkpt lat="35.88324456450219" lon="-5.506632346861022"><ele>18.0</ele><time>2026-04-28T17:48:08.999Z</time></trkpt><trkpt lat="35.883155313185846" lon="-5.5067162413689505"><ele>18.0</ele><time>2026-04-28T17:48:09.999Z</time></trkpt><trkpt lat="35.8830660847559" lon="-5.506773581801315"><ele>18.0</ele><time>2026-04-28T17:48:10.999Z</time></trkpt><trkpt lat="35.88298027762056" lon="-5.506823216602832"><ele>18.0</ele><time>2026-04-28T17:48:11.999Z</time></trkpt><trkpt lat="35.88290307057062" lon="-5.506874765181127"><ele>18.0</ele><time>2026-04-28T17:48:12.999Z</time></trkpt><trkpt lat="35.88283035239288" lon="-5.506924623810329"><ele>18.0</ele><time>2026-04-28T17:48:13.999Z</time></trkpt><trkpt lat="35.88275835147984" lon="-5.5069733610876455"><ele>18.0</ele><time>2026-04-28T17:48:14.999Z</time></trkpt><trkpt lat="35.88268579967281" lon="-5.507021579350829"><ele>18.0</ele><time>2026-04-28T17:48:15.999Z</time></trkpt><trkpt lat="35.88261517875911" lon="-5.5070699286867795"><ele>18.0</ele><time>2026-04-28T17:48:16.999Z</time></trkpt><trkpt lat="35.882546510127355" lon="-5.507116874192108"><ele>18.0</ele><time>2026-04-28T17:48:17.999Z</time></trkpt><trkpt lat="35.88248051435644" lon="-5.5071626222076615"><ele>18.0</ele><time>2026-04-28T17:48:18.999Z</time></trkpt><trkpt lat="35.88241439969198" lon="-5.507204985102388"><ele>18.0</ele><time>2026-04-28T17:48:19.999Z</time></trkpt><trkpt lat="35.88234958459086" lon="-5.507246182190651"><ele>18.0</ele><time>2026-04-28T17:48:20.999Z</time></trkpt><trkpt lat="35.8822831458923" lon="-5.507283092558787"><ele>16.833333333333332</ele><time>2026-04-28T17:48:21.999Z</time></trkpt><trkpt lat="35.88221801431666" lon="-5.507325866502178"><ele>15.666666666666666</ele><time>2026-04-28T17:48:22.999Z</time></trkpt><trkpt lat="35.88215366602276" lon="-5.507369887532834"><ele>14.5</ele><time>2026-04-28T17:48:23.999Z</time></trkpt><trkpt lat="35.88208962530579" lon="-5.507414592643854"><ele>13.333333333333332</ele><time>2026-04-28T17:48:24.998Z</time></trkpt><trkpt lat="35.882022591631056" lon="-5.5074578015228095"><ele>12.166666666666666</ele><time>2026-04-28T17:48:25.998Z</time></trkpt><trkpt lat="35.88195442033118" lon="-5.507499688586208"><ele>11.0</ele><time>2026-04-28T17:48:26.998Z</time></trkpt><trkpt lat="35.88188500708852" lon="-5.50754222047138"><ele>11.0</ele><time>2026-04-28T17:48:27.998Z</time></trkpt><trkpt lat="35.88182436885435" lon="-5.507607121967608"><ele>11.0</ele><time>2026-04-28T17:48:29Z</time></trkpt><trkpt lat="35.88175520910726" lon="-5.507655259280737"><ele>11.0</ele><time>2026-04-28T17:48:30Z</time></trkpt><trkpt lat="35.881683168095385" lon="-5.507705402391189"><ele>11.0</ele><time>2026-04-28T17:48:31Z</time></trkpt><trkpt lat="35.88160787554338" lon="-5.507757789260827"><ele>11.0</ele><time>2026-04-28T17:48:32Z</time></trkpt><trkpt lat="35.881524818560386" lon="-5.507795391481378"><ele>11.0</ele><time>2026-04-28T17:48:33Z</time></trkpt><trkpt lat="35.88145203078891" lon="-5.507866011296384"><ele>11.4</ele><time>2026-04-28T17:48:34Z</time></trkpt><trkpt lat="35.8813664309748" lon="-5.507925411027398"><ele>11.8</ele><time>2026-04-28T17:48:35Z</time></trkpt><trkpt lat="35.88127539037053" lon="-5.507987688249147"><ele>12.200000000000001</ele><time>2026-04-28T17:48:36Z</time></trkpt><trkpt lat="35.88118096165812" lon="-5.508047124686752"><ele>12.600000000000001</ele><time>2026-04-28T17:48:37Z</time></trkpt><trkpt lat="35.88109334653164" lon="-5.5081024830466845"><ele>13.0</ele><time>2026-04-28T17:48:38Z</time></trkpt><trkpt lat="35.88100912518513" lon="-5.508155811332426"><ele>15.2</ele><time>2026-04-28T17:48:39Z</time></trkpt><trkpt lat="35.880925761610314" lon="-5.508208770079379"><ele>17.4</ele><time>2026-04-28T17:48:40Z</time></trkpt><trkpt lat="35.88084261354563" lon="-5.508261300357682"><ele>19.599999999999998</ele><time>2026-04-28T17:48:41Z</time></trkpt><trkpt lat="35.880762944066184" lon="-5.508310456442769"><ele>21.8</ele><time>2026-04-28T17:48:42Z</time></trkpt><trkpt lat="35.88068443089602" lon="-5.508360510953258"><ele>24.0</ele><time>2026-04-28T17:48:43Z</time></trkpt><trkpt lat="35.880605816232936" lon="-5.508410724964178"><ele>24.0</ele><time>2026-04-28T17:48:44Z</time></trkpt><trkpt lat="35.880525236433435" lon="-5.5084618679668385"><ele>24.0</ele><time>2026-04-28T17:48:45Z</time></trkpt><trkpt lat="35.88044315341645" lon="-5.508512766440161"><ele>24.0</ele><time>2026-04-28T17:48:46Z</time></trkpt><trkpt lat="35.88036055470985" lon="-5.508565017242652"><ele>24.0</ele><time>2026-04-28T17:48:47Z</time></trkpt><trkpt lat="35.88026679697377" lon="-5.508601566148896"><ele>24.0</ele><time>2026-04-28T17:48:48Z</time></trkpt><trkpt lat="35.88017769997898" lon="-5.50865920355011"><ele>25.0</ele><time>2026-04-28T17:48:49Z</time></trkpt><trkpt lat="35.8800895010788" lon="-5.508723771210505"><ele>26.0</ele><time>2026-04-28T17:48:50Z</time></trkpt><trkpt lat="35.880003371878125" lon="-5.508782956321587"><ele>27.0</ele><time>2026-04-28T17:48:51Z</time></trkpt><trkpt lat="35.87991744642628" lon="-5.508842963941654"><ele>28.0</ele><time>2026-04-28T17:48:52Z</time></trkpt><trkpt lat="35.879830249054784" lon="-5.508904522882687"><ele>29.0</ele><time>2026-04-28T17:48:53Z</time></trkpt><trkpt lat="35.87974041934912" lon="-5.508966165640641"><ele>27.0</ele><time>2026-04-28T17:48:54Z</time></trkpt><trkpt lat="35.87965031951399" lon="-5.509028769314483"><ele>25.0</ele><time>2026-04-28T17:48:55Z</time></trkpt><trkpt lat="35.879556938417686" lon="-5.5090925765800645"><ele>23.0</ele><time>2026-04-28T17:48:56Z</time></trkpt><trkpt lat="35.879459320922365" lon="-5.509158377687321"><ele>21.0</ele><time>2026-04-28T17:48:57Z</time></trkpt><trkpt lat="35.87935973879926" lon="-5.50922344025062"><ele>19.0</ele><time>2026-04-28T17:48:58Z</time></trkpt><trkpt lat="35.87927147739284" lon="-5.509308657073656"><ele>18.166666666666664</ele><time>2026-04-28T17:48:59Z</time></trkpt><trkpt lat="35.87917722590178" lon="-5.509376672328734"><ele>17.333333333333332</ele><time>2026-04-28T17:49:00Z</time></trkpt><trkpt lat="35.879083302167295" lon="-5.509421364339121"><ele>16.5</ele><time>2026-04-28T17:49:01Z</time></trkpt><trkpt lat="35.87900653160881" lon="-5.509477559232477"><ele>15.666666666666668</ele><time>2026-04-28T17:49:02Z</time></trkpt><trkpt lat="35.8789377789671" lon="-5.509529196002134"><ele>14.833333333333334</ele><time>2026-04-28T17:49:03Z</time></trkpt><trkpt lat="35.8788806732043" lon="-5.509568491328967"><ele>14.0</ele><time>2026-04-28T17:49:04Z</time></trkpt><trkpt lat="35.878827851950774" lon="-5.509610890431921"><ele>14.0</ele><time>2026-04-28T17:49:05Z</time></trkpt><trkpt lat="35.878772681151894" lon="-5.509654980436528"><ele>14.0</ele><time>2026-04-28T17:49:06Z</time></trkpt><trkpt lat="35.87871519242993" lon="-5.509694310780964"><ele>14.0</ele><time>2026-04-28T17:49:07Z</time></trkpt><trkpt lat="35.87866011298424" lon="-5.509740563106213"><ele>14.0</ele><time>2026-04-28T17:49:08Z</time></trkpt><trkpt lat="35.878598546385454" lon="-5.509785844848024"><ele>14.0</ele><time>2026-04-28T17:49:09Z</time></trkpt><trkpt lat="35.87853334135682" lon="-5.509836308819135"><ele>14.0</ele><time>2026-04-28T17:49:10Z</time></trkpt><trkpt lat="35.87846356745234" lon="-5.509888450173637"><ele>14.0</ele><time>2026-04-28T17:49:11Z</time></trkpt><trkpt lat="35.8784027800029" lon="-5.509963742447259"><ele>16.333333333333336</ele><time>2026-04-28T17:49:12Z</time></trkpt><trkpt lat="35.87833463632479" lon="-5.510022528001712"><ele>18.666666666666668</ele><time>2026-04-28T17:49:13Z</time></trkpt><trkpt lat="35.87826886738589" lon="-5.510078243301382"><ele>21.0</ele><time>2026-04-28T17:49:14Z</time></trkpt><trkpt lat="35.87820480611226" lon="-5.510132512260534"><ele>23.333333333333336</ele><time>2026-04-28T17:49:15Z</time></trkpt><trkpt lat="35.878145055186664" lon="-5.510183129551494"><ele>25.666666666666668</ele><time>2026-04-28T17:49:15.999Z</time></trkpt><trkpt lat="35.878050201836935" lon="-5.510273392330537"><ele>28.0</ele><time>2026-04-28T17:49:17.999Z</time></trkpt><trkpt lat="35.877995933124645" lon="-5.510340760117752"><ele>25.0</ele><time>2026-04-28T17:49:19.999Z</time></trkpt><trkpt lat="35.878056623721655" lon="-5.510503730169473"><ele>21.999999999999996</ele><time>2026-04-28T17:49:21.999Z</time></trkpt><trkpt lat="35.87810185422831" lon="-5.510582932514176"><ele>19.0</ele><time>2026-04-28T17:49:22.999Z</time></trkpt><trkpt lat="35.87816011076123" lon="-5.510666803337509"><ele>16.0</ele><time>2026-04-28T17:49:23.999Z</time></trkpt><trkpt lat="35.87822025304801" lon="-5.51075808547222"><ele>13.0</ele><time>2026-04-28T17:49:24.999Z</time></trkpt><trkpt lat="35.87827541988118" lon="-5.510862131734987"><ele>13.0</ele><time>2026-04-28T17:49:25.999Z</time></trkpt><trkpt lat="35.87834061646215" lon="-5.511001853232064"><ele>13.0</ele><time>2026-04-28T17:49:26.999Z</time></trkpt><trkpt lat="35.878388595310234" lon="-5.511136353798959"><ele>13.0</ele><time>2026-04-28T17:49:27.999Z</time></trkpt><trkpt lat="35.8784293826613" lon="-5.51126939918634"><ele>13.0</ele><time>2026-04-28T17:49:28.999Z</time></trkpt><trkpt lat="35.87845833315999" lon="-5.511398208961807"><ele>10.6</ele><time>2026-04-28T17:49:29.999Z</time></trkpt><trkpt lat="35.87848138669502" lon="-5.511525444053807"><ele>8.200000000000001</ele><time>2026-04-28T17:49:30.999Z</time></trkpt><trkpt lat="35.878503298495446" lon="-5.511646581053979"><ele>5.800000000000001</ele><time>2026-04-28T17:49:31.999Z</time></trkpt><trkpt lat="35.87853392030037" lon="-5.511761227288162"><ele>3.4000000000000004</ele><time>2026-04-28T17:49:32.999Z</time></trkpt><trkpt lat="35.87856572921721" lon="-5.511869640288308"><ele>1.0</ele><time>2026-04-28T17:49:33.999Z</time></trkpt><trkpt lat="35.878624527105956" lon="-5.511969710314888"><ele>1.0</ele><time>2026-04-28T17:49:34.999Z</time></trkpt><trkpt lat="35.878697493095004" lon="-5.512061226434445"><ele>1.0</ele><time>2026-04-28T17:49:35.999Z</time></trkpt><trkpt lat="35.87876256265929" lon="-5.512152578295777"><ele>1.0</ele><time>2026-04-28T17:49:36.999Z</time></trkpt><trkpt lat="35.87882606763101" lon="-5.512241733567651"><ele>1.0</ele><time>2026-04-28T17:49:37.999Z</time></trkpt><trkpt lat="35.87890093483097" lon="-5.512317529338996"><ele>1.0</ele><time>2026-04-28T17:49:38.999Z</time></trkpt><trkpt lat="35.87895423068868" lon="-5.512396963805653"><ele>0.8571428571428571</ele><time>2026-04-28T17:49:39.999Z</time></trkpt><trkpt lat="35.879004460981044" lon="-5.512468208954697"><ele>0.7142857142857142</ele><time>2026-04-28T17:49:40.999Z</time></trkpt><trkpt lat="35.879045843468255" lon="-5.512532136643151"><ele>0.5714285714285714</ele><time>2026-04-28T17:49:41.999Z</time></trkpt><trkpt lat="35.879098329138586" lon="-5.512627646265913"><ele>0.42857142857142855</ele><time>2026-04-28T17:49:43.999Z</time></trkpt><trkpt lat="35.87913690245027" lon="-5.512702884760689"><ele>0.2857142857142857</ele><time>2026-04-28T17:49:46.999Z</time></trkpt><trkpt lat="35.87917118929371" lon="-5.512773043676079"><ele>0.14285714285714285</ele><time>2026-04-28T17:49:50.999Z</time></trkpt><trkpt lat="35.87920300220831" lon="-5.512842260294309"><ele>0.0</ele><time>2026-04-28T17:49:56.999Z</time></trkpt><trkpt lat="35.879232675967245" lon="-5.51292928151674"><ele>0.0</ele><time>2026-04-28T17:50:21.999Z</time></trkpt><trkpt lat="35.87929330219112" lon="-5.512990272253751"><ele>0.0</ele><time>2026-04-28T17:50:24.999Z</time></trkpt><trkpt lat="35.879381464483856" lon="-5.51294388903122"><ele>0.0</ele><time>2026-04-28T17:55:46Z</time></trkpt><trkpt lat="35.87945901937038" lon="-5.5129705075554725"><ele>0.0</ele><time>2026-04-28T17:55:49Z</time></trkpt><trkpt lat="35.87952646880349" lon="-5.512961161111178"><ele>0.0</ele><time>2026-04-28T17:55:51Z</time></trkpt><trkpt lat="35.879609036056614" lon="-5.5129323395621785"><ele>0.0</ele><time>2026-04-28T17:55:53Z</time></trkpt><trkpt lat="35.879709853949215" lon="-5.512881828461568"><ele>0.0</ele><time>2026-04-28T17:55:54.999Z</time></trkpt><trkpt lat="35.87977269723592" lon="-5.512858978003783"><ele>0.0</ele><time>2026-04-28T17:55:55.999Z</time></trkpt><trkpt lat="35.87983513756359" lon="-5.512813255794893"><ele>0.0</ele><time>2026-04-28T17:55:56.999Z</time></trkpt><trkpt lat="35.87990174082523" lon="-5.512788645987303"><ele>0.0</ele><time>2026-04-28T17:55:57.999Z</time></trkpt><trkpt lat="35.87997107994884" lon="-5.512762947830434"><ele>0.0</ele><time>2026-04-28T17:55:58.999Z</time></trkpt><trkpt lat="35.88004192587419" lon="-5.512736519575659"><ele>0.0</ele><time>2026-04-28T17:55:59.999Z</time></trkpt><trkpt lat="35.88012136867206" lon="-5.512711972731082"><ele>0.0</ele><time>2026-04-28T17:56:00.999Z</time></trkpt><trkpt lat="35.88020116289232" lon="-5.5126946466716165"><ele>0.0</ele><time>2026-04-28T17:56:01.999Z</time></trkpt><trkpt lat="35.880284361739406" lon="-5.512676533389932"><ele>0.0</ele><time>2026-04-28T17:56:02.999Z</time></trkpt><trkpt lat="35.88036535765665" lon="-5.512658899695197"><ele>0.0</ele><time>2026-04-28T17:56:03.999Z</time></trkpt><trkpt lat="35.8804457655684" lon="-5.512641971313874"><ele>0.0</ele><time>2026-04-28T17:56:04.999Z</time></trkpt><trkpt lat="35.88051997420203" lon="-5.512626980640711"><ele>0.0</ele><time>2026-04-28T17:56:05.999Z</time></trkpt><trkpt lat="35.88059086703827" lon="-5.512612659715399"><ele>0.0</ele><time>2026-04-28T17:56:06.999Z</time></trkpt><trkpt lat="35.880660050521044" lon="-5.512608069606867"><ele>0.0</ele><time>2026-04-28T17:56:07.999Z</time></trkpt><trkpt lat="35.88071786733391" lon="-5.5125492690965165"><ele>0.0</ele><time>2026-04-28T17:56:08.999Z</time></trkpt><trkpt lat="35.88079601652404" lon="-5.512542431489216"><ele>0.0</ele><time>2026-04-28T17:56:09.999Z</time></trkpt><trkpt lat="35.88085856341572" lon="-5.512596153175469"><ele>0.0</ele><time>2026-04-28T17:56:10.999Z</time></trkpt><trkpt lat="35.88091988204936" lon="-5.512616892902267"><ele>0.0</ele><time>2026-04-28T17:56:11.999Z</time></trkpt><trkpt lat="35.88102121337512" lon="-5.5125817532462715"><ele>0.0</ele><time>2026-04-28T17:56:13.999Z</time></trkpt><trkpt lat="35.88108408058528" lon="-5.512587477336496"><ele>0.0</ele><time>2026-04-28T17:56:37.999Z</time></trkpt><trkpt lat="35.88115354295836" lon="-5.512593801902953"><ele>0.0</ele><time>2026-04-28T17:56:39.999Z</time></trkpt><trkpt lat="35.88127031476372" lon="-5.512604434014579"><ele>0.0</ele><time>2026-04-28T17:56:41.999Z</time></trkpt><trkpt lat="35.8813356232098" lon="-5.5126103803653175"><ele>0.0</ele><time>2026-04-28T17:56:42.999Z</time></trkpt><trkpt lat="35.881402230796645" lon="-5.512616552487454"><ele>0.0</ele><time>2026-04-28T17:56:43.999Z</time></trkpt><trkpt lat="35.88146944370128" lon="-5.5126228175199525"><ele>0.0</ele><time>2026-04-28T17:56:44.999Z</time></trkpt><trkpt lat="35.88156507828517" lon="-5.512666345081656"><ele>0.0</ele><time>2026-04-28T17:56:46.999Z</time></trkpt><trkpt lat="35.88165831289409" lon="-5.512704024200338"><ele>0.0</ele><time>2026-04-28T17:56:49.999Z</time></trkpt><trkpt lat="35.88174728387752" lon="-5.51271840520443"><ele>0.0</ele><time>2026-04-28T17:56:54Z</time></trkpt><trkpt lat="35.881830551278014" lon="-5.512673932958237"><ele>0.0</ele><time>2026-04-28T17:56:56Z</time></trkpt><trkpt lat="35.881953566840686" lon="-5.512666975331973"><ele>0.0</ele><time>2026-04-28T17:56:58Z</time></trkpt><trkpt lat="35.882021499465296" lon="-5.5126147699553885"><ele>0.0</ele><time>2026-04-28T17:56:59Z</time></trkpt><trkpt lat="35.88215306970677" lon="-5.512739217057297"><ele>0.0</ele><time>2026-04-28T17:57:01Z</time></trkpt><trkpt lat="35.88216107014076" lon="-5.512820608508824"><ele>0.0</ele><time>2026-04-28T17:57:02Z</time></trkpt><trkpt lat="35.882148608955816" lon="-5.512896844632761"><ele>0.0</ele><time>2026-04-28T17:57:03Z</time></trkpt><trkpt lat="35.88208392025079" lon="-5.512948471229828"><ele>0.0</ele><time>2026-04-28T17:57:04Z</time></trkpt><trkpt lat="35.881979478293964" lon="-5.5129838373309115"><ele>0.0</ele><time>2026-04-28T17:57:06Z</time></trkpt><trkpt lat="35.881875009115845" lon="-5.512900568856465"><ele>0.0</ele><time>2026-04-28T17:57:08Z</time></trkpt><trkpt lat="35.881820793166106" lon="-5.512849795636014"><ele>0.0</ele><time>2026-04-28T17:57:09Z</time></trkpt><trkpt lat="35.88176270409228" lon="-5.51280805057783"><ele>0.0</ele><time>2026-04-28T17:57:10Z</time></trkpt><trkpt lat="35.88165737114407" lon="-5.512764102878476"><ele>0.0</ele><time>2026-04-28T17:57:12Z</time></trkpt><trkpt lat="35.88158915994918" lon="-5.512765750016318"><ele>0.0</ele><time>2026-04-28T17:57:16Z</time></trkpt><trkpt lat="35.88166861300495" lon="-5.51277754617151"><ele>0.0</ele><time>2026-04-28T17:57:31Z</time></trkpt><trkpt lat="35.881758180893414" lon="-5.512832715567973"><ele>0.0</ele><time>2026-04-28T17:57:33Z</time></trkpt><trkpt lat="35.881851122333245" lon="-5.512892598609897"><ele>0.0</ele><time>2026-04-28T17:57:34Z</time></trkpt><trkpt lat="35.88189865781664" lon="-5.512960349284635"><ele>0.0</ele><time>2026-04-28T17:57:35Z</time></trkpt><trkpt lat="35.8819304502127" lon="-5.513039140279638"><ele>0.0</ele><time>2026-04-28T17:57:36Z</time></trkpt><trkpt lat="35.8819446524617" lon="-5.513122288923066"><ele>0.0</ele><time>2026-04-28T17:57:37Z</time></trkpt><trkpt lat="35.88194653508171" lon="-5.5132120375204945"><ele>0.0</ele><time>2026-04-28T17:57:38Z</time></trkpt><trkpt lat="35.881942639019286" lon="-5.513305293521834"><ele>0.0</ele><time>2026-04-28T17:57:39Z</time></trkpt><trkpt lat="35.8819400563972" lon="-5.513394030777415"><ele>0.0</ele><time>2026-04-28T17:57:40Z</time></trkpt><trkpt lat="35.8819402518468" lon="-5.5134817054493315"><ele>0.0</ele><time>2026-04-28T17:57:41Z</time></trkpt><trkpt lat="35.88193896908074" lon="-5.513566568113781"><ele>0.0</ele><time>2026-04-28T17:57:42Z</time></trkpt><trkpt lat="35.881937001918295" lon="-5.513648758097119"><ele>0.0</ele><time>2026-04-28T17:57:43Z</time></trkpt><trkpt lat="35.8819319021278" lon="-5.513729428100899"><ele>0.0</ele><time>2026-04-28T17:57:44Z</time></trkpt><trkpt lat="35.88192117862373" lon="-5.51386345791705"><ele>0.0</ele><time>2026-04-28T17:57:46Z</time></trkpt><trkpt lat="35.88190892439053" lon="-5.513948867923481"><ele>0.0</ele><time>2026-04-28T17:57:49Z</time></trkpt><trkpt lat="35.881900776069415" lon="-5.514037247431545"><ele>0.0</ele><time>2026-04-28T17:57:52.999Z</time></trkpt><trkpt lat="35.88189121082663" lon="-5.514116177396759"><ele>0.0</ele><time>2026-04-28T17:58:43.999Z</time></trkpt><trkpt lat="35.88187943765048" lon="-5.514208752270542"><ele>0.0</ele><time>2026-04-28T18:00:59.999Z</time></trkpt><trkpt lat="35.88187157351251" lon="-5.514292900595528"><ele>0.0</ele><time>2026-04-28T18:01:49Z</time></trkpt><trkpt lat="35.88181707157208" lon="-5.514333934928208"><ele>0.0</ele><time>2026-04-28T18:02:00.999Z</time></trkpt><trkpt lat="35.881754160170104" lon="-5.514368939299529"><ele>0.0</ele><time>2026-04-28T18:03:50Z</time></trkpt><trkpt lat="35.88179484954134" lon="-5.514532349749639"><ele>0.0</ele><time>2026-04-28T18:04:26.999Z</time></trkpt><trkpt lat="35.881792916872435" lon="-5.514627372877533"><ele>0.0</ele><time>2026-04-28T18:04:29.999Z</time></trkpt><trkpt lat="35.88179080955989" lon="-5.514730982415214"><ele>0.0</ele><time>2026-04-28T18:04:32.999Z</time></trkpt><trkpt lat="35.88178902073413" lon="-5.514818934253286"><ele>0.0</ele><time>2026-04-28T18:04:34.999Z</time></trkpt><trkpt lat="35.88178692722593" lon="-5.514921867121754"><ele>0.0</ele><time>2026-04-28T18:04:36.999Z</time></trkpt><trkpt lat="35.881784754927715" lon="-5.515028673814632"><ele>0.0</ele><time>2026-04-28T18:04:38.999Z</time></trkpt><trkpt lat="35.88173809841695" lon="-5.515084626523809"><ele>0.0</ele><time>2026-04-28T18:04:39.999Z</time></trkpt><trkpt lat="35.881732087494896" lon="-5.515190712191453"><ele>0.0</ele><time>2026-04-28T18:04:41.999Z</time></trkpt><trkpt lat="35.88172659333016" lon="-5.515272122879406"><ele>0.0</ele><time>2026-04-28T18:04:44.999Z</time></trkpt><trkpt lat="35.88173419672275" lon="-5.51515169680377"><ele>0.0</ele><time>2026-04-28T18:04:53.999Z</time></trkpt><trkpt lat="35.881742865342225" lon="-5.515067204216048"><ele>0.0</ele><time>2026-04-28T18:04:54.999Z</time></trkpt><trkpt lat="35.88173161050164" lon="-5.514929752144431"><ele>0.0</ele><time>2026-04-28T18:04:55.999Z</time></trkpt><trkpt lat="35.881753155766084" lon="-5.51478600532258"><ele>0.0</ele><time>2026-04-28T18:04:57.999Z</time></trkpt><trkpt lat="35.881793327068095" lon="-5.514672624283527"><ele>0.0</ele><time>2026-04-28T18:04:59.999Z</time></trkpt><trkpt lat="35.881817473902935" lon="-5.5145976479149414"><ele>0.0</ele><time>2026-04-28T18:05:00.999Z</time></trkpt><trkpt lat="35.88183938745088" lon="-5.514510937462323"><ele>0.0</ele><time>2026-04-28T18:05:02.999Z</time></trkpt><trkpt lat="35.881866307528064" lon="-5.514413972172524"><ele>0.0</ele><time>2026-04-28T18:05:05.999Z</time></trkpt><trkpt lat="35.88188776317858" lon="-5.514334035047188"><ele>0.0</ele><time>2026-04-28T18:05:06.999Z</time></trkpt><trkpt lat="35.8818730207221" lon="-5.514253700677494"><ele>0.0</ele><time>2026-04-28T18:05:07.998Z</time></trkpt><trkpt lat="35.881833917247725" lon="-5.514190675565161"><ele>0.0</ele><time>2026-04-28T18:05:09.998Z</time></trkpt><trkpt lat="35.881834960574075" lon="-5.5141092410148875"><ele>0.0</ele><time>2026-04-28T18:05:11.998Z</time></trkpt><trkpt lat="35.88178342140697" lon="-5.514278695443198"><ele>0.0</ele><time>2026-04-28T18:05:17Z</time></trkpt><trkpt lat="35.88179198145111" lon="-5.514387063990351"><ele>0.0</ele><time>2026-04-28T18:05:18Z</time></trkpt><trkpt lat="35.88181114732599" lon="-5.514266771750444"><ele>0.0</ele><time>2026-04-28T18:05:24Z</time></trkpt><trkpt lat="35.881816324254764" lon="-5.514401589925939"><ele>0.0</ele><time>2026-04-28T18:05:27Z</time></trkpt><trkpt lat="35.88180272425847" lon="-5.5145105067494775"><ele>0.0</ele><time>2026-04-28T18:05:33Z</time></trkpt><trkpt lat="35.88178885007971" lon="-5.514608093945347"><ele>0.0</ele><time>2026-04-28T18:05:37Z</time></trkpt><trkpt lat="35.881795646153535" lon="-5.514493183739452"><ele>0.0</ele><time>2026-04-28T18:05:42Z</time></trkpt><trkpt lat="35.881797867606565" lon="-5.514394577558269"><ele>0.0</ele><time>2026-04-28T18:05:48Z</time></trkpt><trkpt lat="35.88182769988331" lon="-5.514316210571157"><ele>0.0</ele><time>2026-04-28T18:05:54.999Z</time></trkpt><trkpt lat="35.881791929346996" lon="-5.51558324846815"><ele>0.0</ele><time>2026-04-28T18:05:57.999Z</time></trkpt><trkpt lat="35.88178528925858" lon="-5.515830128310296"><ele>0.0</ele><time>2026-04-28T18:06:05.999Z</time></trkpt><trkpt lat="35.88184054044139" lon="-5.51587896126733"><ele>0.0</ele><time>2026-04-28T18:06:10.999Z</time></trkpt><trkpt lat="35.8797757316378" lon="-5.515046601602845"><ele>0.0</ele><time>2026-04-28T18:13:07.01Z</time></trkpt><trkpt lat="35.87981696663964" lon="-5.515162197618387"><ele>0.0</ele><time>2026-04-28T18:13:13.011Z</time></trkpt><trkpt lat="35.88180904801836" lon="-5.514783920348347"><ele>0.0</ele><time>2026-04-28T19:16:18.462Z</time></trkpt><trkpt lat="35.88159073350864" lon="-5.51410490874668"><ele>0.0</ele><time>2026-04-28T19:16:20.998Z</time></trkpt><trkpt lat="35.88201479510944" lon="-5.514742715666093"><ele>0.0</ele><time>2026-04-28T19:16:21.998Z</time></trkpt><trkpt lat="35.88226144926766" lon="-5.515066497993529"><ele>0.0</ele><time>2026-04-28T19:16:22.998Z</time></trkpt><trkpt lat="35.88250645130808" lon="-5.515402345082004"><ele>0.0</ele><time>2026-04-28T19:16:23.998Z</time></trkpt><trkpt lat="35.882650617555946" lon="-5.515500894332678"><ele>0.0</ele><time>2026-04-28T19:16:24.998Z</time></trkpt><trkpt lat="35.882513045123574" lon="-5.51574330385307"><ele>0.0</ele><time>2026-04-28T19:16:40.999Z</time></trkpt><trkpt lat="35.88189039076297" lon="-5.515489684188949"><ele>0.0</ele><time>2026-04-28T19:16:42.999Z</time></trkpt><trkpt lat="35.8819532624255" lon="-5.51566999715145"><ele>0.0</ele><time>2026-04-28T19:16:43.999Z</time></trkpt><trkpt lat="35.882011289089" lon="-5.515845268336531"><ele>0.0</ele><time>2026-04-28T19:16:44.999Z</time></trkpt><trkpt lat="35.88207810043078" lon="-5.5160508334851475"><ele>0.0</ele><time>2026-04-28T19:16:45.999Z</time></trkpt><trkpt lat="35.88214589434752" lon="-5.516244802618731"><ele>0.0</ele><time>2026-04-28T19:16:46.999Z</time></trkpt><trkpt lat="35.88205883083932" lon="-5.515862523451565"><ele>0.0</ele><time>2026-04-28T19:16:47.999Z</time></trkpt><trkpt lat="35.882049797139075" lon="-5.51578010364543"><ele>0.0</ele><time>2026-04-28T19:16:48.999Z</time></trkpt><trkpt lat="35.88198019593068" lon="-5.515580869485443"><ele>0.0</ele><time>2026-04-28T19:16:49.999Z</time></trkpt><trkpt lat="35.88192893463898" lon="-5.515464434093863"><ele>0.0</ele><time>2026-04-28T19:16:50.999Z</time></trkpt><trkpt lat="35.88176612673098" lon="-5.514925669359762"><ele>0.0</ele><time>2026-04-28T19:16:55Z</time></trkpt><trkpt lat="35.881704132351196" lon="-5.514854280612506"><ele>0.0</ele><time>2026-04-28T19:19:17.999Z</time></trkpt><trkpt lat="35.88166399941459" lon="-5.514928100871118"><ele>0.0</ele><time>2026-04-28T19:20:24Z</time></trkpt><trkpt lat="35.88170625052334" lon="-5.515160201691499"><ele>0.0</ele><time>2026-04-28T19:20:58.999Z</time></trkpt></trkseg></trk></gpx>